<?xml version="1.0" encoding="UTF-8"?>
<gpx creator="Garmin Connect" version="1.1"
  xsi:schemaLocation="http://www.topografix.com/GPX/1/1 http://www.topografix.com/GPX/11.xsd"
  xmlns:ns3="http://www.garmin.com/xmlschemas/TrackPointExtension/v1"
  xmlns="http://www.topografix.com/GPX/1/1"
  xmlns:xsi="http://www.w3.org/2001/XMLSchema-instance" xmlns:ns2="http://www.garmin.com/xmlschemas/GpxExtensions/v3">
  <metadata>
    <link href="connect.garmin.com">
      <text>Garmin Connect</text>
    </link>
    <time>2026-06-15T08:22:00.000Z</time>
  </metadata>
  <trk>
    <name>Decani Mountainbiken</name>
    <type>mountain_biking</type>
    <trkseg>
      <trkpt lat="42.59809498675167560577392578125" lon="20.15506242401897907257080078125">
        <ele>1314.4000244140625</ele>
        <time>2026-06-15T08:22:10.000Z</time>
        <extensions>
          <ns3:TrackPointExtension>
            <ns3:atemp>25.0</ns3:atemp>
          </ns3:TrackPointExtension>
        </extensions>
      </trkpt>
      <trkpt lat="42.59806011803448200225830078125" lon="20.15507181175053119659423828125">
        <ele>1317.800048828125</ele>
        <time>2026-06-15T08:22:11.000Z</time>
        <extensions>
          <ns3:TrackPointExtension>
            <ns3:atemp>25.0</ns3:atemp>
          </ns3:TrackPointExtension>
        </extensions>
      </trkpt>
      <trkpt lat="42.59803715161979198455810546875" lon="20.15506309457123279571533203125">
        <ele>1317.5999755859375</ele>
        <time>2026-06-15T08:22:12.000Z</time>
        <extensions>
          <ns3:TrackPointExtension>
            <ns3:atemp>25.0</ns3:atemp>
          </ns3:TrackPointExtension>
        </extensions>
      </trkpt>
      <trkpt lat="42.5980135984718799591064453125" lon="20.15506108291447162628173828125">
        <ele>1317.4000244140625</ele>
        <time>2026-06-15T08:22:13.000Z</time>
        <extensions>
          <ns3:TrackPointExtension>
            <ns3:atemp>25.0</ns3:atemp>
          </ns3:TrackPointExtension>
        </extensions>
      </trkpt>
      <trkpt lat="42.5979914702475070953369140625" lon="20.1550544612109661102294921875">
        <ele>1317</ele>
        <time>2026-06-15T08:22:14.000Z</time>
        <extensions>
          <ns3:TrackPointExtension>
            <ns3:atemp>25.0</ns3:atemp>
          </ns3:TrackPointExtension>
        </extensions>
      </trkpt>
      <trkpt lat="42.597970180213451385498046875" lon="20.15504180453717708587646484375">
        <ele>1317</ele>
        <time>2026-06-15T08:22:15.000Z</time>
        <extensions>
          <ns3:TrackPointExtension>
            <ns3:atemp>25.0</ns3:atemp>
          </ns3:TrackPointExtension>
        </extensions>
      </trkpt>
      <trkpt lat="42.59794746525585651397705078125" lon="20.15502512454986572265625">
        <ele>1316.800048828125</ele>
        <time>2026-06-15T08:22:16.000Z</time>
        <extensions>
          <ns3:TrackPointExtension>
            <ns3:atemp>25.0</ns3:atemp>
          </ns3:TrackPointExtension>
        </extensions>
      </trkpt>
      <trkpt lat="42.59792801924049854278564453125" lon="20.15500341542065143585205078125">
        <ele>1316.5999755859375</ele>
        <time>2026-06-15T08:22:17.000Z</time>
        <extensions>
          <ns3:TrackPointExtension>
            <ns3:atemp>25.0</ns3:atemp>
          </ns3:TrackPointExtension>
        </extensions>
      </trkpt>
      <trkpt lat="42.59790974669158458709716796875" lon="20.154979191720485687255859375">
        <ele>1316.5999755859375</ele>
        <time>2026-06-15T08:22:18.000Z</time>
        <extensions>
          <ns3:TrackPointExtension>
            <ns3:atemp>25.0</ns3:atemp>
          </ns3:TrackPointExtension>
        </extensions>
      </trkpt>
      <trkpt lat="42.59789013303816318511962890625" lon="20.1549542136490345001220703125">
        <ele>1316.5999755859375</ele>
        <time>2026-06-15T08:22:19.000Z</time>
        <extensions>
          <ns3:TrackPointExtension>
            <ns3:atemp>25.0</ns3:atemp>
          </ns3:TrackPointExtension>
        </extensions>
      </trkpt>
      <trkpt lat="42.59786750189960002899169921875" lon="20.1549371145665645599365234375">
        <ele>1316.800048828125</ele>
        <time>2026-06-15T08:22:20.000Z</time>
        <extensions>
          <ns3:TrackPointExtension>
            <ns3:atemp>25.0</ns3:atemp>
          </ns3:TrackPointExtension>
        </extensions>
      </trkpt>
      <trkpt lat="42.597840093076229095458984375" lon="20.15491825528442859649658203125">
        <ele>1316.800048828125</ele>
        <time>2026-06-15T08:22:21.000Z</time>
        <extensions>
          <ns3:TrackPointExtension>
            <ns3:atemp>25.0</ns3:atemp>
          </ns3:TrackPointExtension>
        </extensions>
      </trkpt>
      <trkpt lat="42.5978204794228076934814453125" lon="20.15490350313484668731689453125">
        <ele>1316.800048828125</ele>
        <time>2026-06-15T08:22:22.000Z</time>
        <extensions>
          <ns3:TrackPointExtension>
            <ns3:atemp>24.0</ns3:atemp>
          </ns3:TrackPointExtension>
        </extensions>
      </trkpt>
      <trkpt lat="42.59779793210327625274658203125" lon="20.15488539822399616241455078125">
        <ele>1317</ele>
        <time>2026-06-15T08:22:23.000Z</time>
        <extensions>
          <ns3:TrackPointExtension>
            <ns3:atemp>24.0</ns3:atemp>
          </ns3:TrackPointExtension>
        </extensions>
      </trkpt>
      <trkpt lat="42.5977772288024425506591796875" lon="20.15485807321965694427490234375">
        <ele>1317</ele>
        <time>2026-06-15T08:22:24.000Z</time>
        <extensions>
          <ns3:TrackPointExtension>
            <ns3:atemp>24.0</ns3:atemp>
          </ns3:TrackPointExtension>
        </extensions>
      </trkpt>
      <trkpt lat="42.59775795042514801025390625" lon="20.154827646911144256591796875">
        <ele>1317</ele>
        <time>2026-06-15T08:22:25.000Z</time>
        <extensions>
          <ns3:TrackPointExtension>
            <ns3:atemp>24.0</ns3:atemp>
          </ns3:TrackPointExtension>
        </extensions>
      </trkpt>
      <trkpt lat="42.59773406200110912322998046875" lon="20.154798142611980438232421875">
        <ele>1316.800048828125</ele>
        <time>2026-06-15T08:22:26.000Z</time>
        <extensions>
          <ns3:TrackPointExtension>
            <ns3:atemp>24.0</ns3:atemp>
          </ns3:TrackPointExtension>
        </extensions>
      </trkpt>
      <trkpt lat="42.5977115146815776824951171875" lon="20.15477442182600498199462890625">
        <ele>1316.800048828125</ele>
        <time>2026-06-15T08:22:27.000Z</time>
        <extensions>
          <ns3:TrackPointExtension>
            <ns3:atemp>24.0</ns3:atemp>
          </ns3:TrackPointExtension>
        </extensions>
      </trkpt>
      <trkpt lat="42.5976888835430145263671875" lon="20.154748521745204925537109375">
        <ele>1316.800048828125</ele>
        <time>2026-06-15T08:22:28.000Z</time>
        <extensions>
          <ns3:TrackPointExtension>
            <ns3:atemp>24.0</ns3:atemp>
          </ns3:TrackPointExtension>
        </extensions>
      </trkpt>
      <trkpt lat="42.59766809642314910888671875" lon="20.15472245402634143829345703125">
        <ele>1316.800048828125</ele>
        <time>2026-06-15T08:22:29.000Z</time>
        <extensions>
          <ns3:TrackPointExtension>
            <ns3:atemp>24.0</ns3:atemp>
          </ns3:TrackPointExtension>
        </extensions>
      </trkpt>
      <trkpt lat="42.5976427830755710601806640625" lon="20.154700577259063720703125">
        <ele>1316.800048828125</ele>
        <time>2026-06-15T08:22:30.000Z</time>
        <extensions>
          <ns3:TrackPointExtension>
            <ns3:atemp>24.0</ns3:atemp>
          </ns3:TrackPointExtension>
        </extensions>
      </trkpt>
      <trkpt lat="42.597618140280246734619140625" lon="20.1546755991876125335693359375">
        <ele>1317</ele>
        <time>2026-06-15T08:22:31.000Z</time>
        <extensions>
          <ns3:TrackPointExtension>
            <ns3:atemp>24.0</ns3:atemp>
          </ns3:TrackPointExtension>
        </extensions>
      </trkpt>
      <trkpt lat="42.59759224019944667816162109375" lon="20.154657997190952301025390625">
        <ele>1317</ele>
        <time>2026-06-15T08:22:32.000Z</time>
        <extensions>
          <ns3:TrackPointExtension>
            <ns3:atemp>24.0</ns3:atemp>
          </ns3:TrackPointExtension>
        </extensions>
      </trkpt>
      <trkpt lat="42.59756625629961490631103515625" lon="20.1546353660523891448974609375">
        <ele>1317.199951171875</ele>
        <time>2026-06-15T08:22:33.000Z</time>
        <extensions>
          <ns3:TrackPointExtension>
            <ns3:atemp>24.0</ns3:atemp>
          </ns3:TrackPointExtension>
        </extensions>
      </trkpt>
      <trkpt lat="42.59753339923918247222900390625" lon="20.15461902134120464324951171875">
        <ele>1317.199951171875</ele>
        <time>2026-06-15T08:22:34.000Z</time>
        <extensions>
          <ns3:TrackPointExtension>
            <ns3:atemp>24.0</ns3:atemp>
          </ns3:TrackPointExtension>
        </extensions>
      </trkpt>
      <trkpt lat="42.59750221855938434600830078125" lon="20.15460359863936901092529296875">
        <ele>1317</ele>
        <time>2026-06-15T08:22:35.000Z</time>
        <extensions>
          <ns3:TrackPointExtension>
            <ns3:atemp>24.0</ns3:atemp>
          </ns3:TrackPointExtension>
        </extensions>
      </trkpt>
      <trkpt lat="42.59747506119310855865478515625" lon="20.15458415262401103973388671875">
        <ele>1317.199951171875</ele>
        <time>2026-06-15T08:22:36.000Z</time>
        <extensions>
          <ns3:TrackPointExtension>
            <ns3:atemp>24.0</ns3:atemp>
          </ns3:TrackPointExtension>
        </extensions>
      </trkpt>
      <trkpt lat="42.59744890965521335601806640625" lon="20.15455783344805240631103515625">
        <ele>1317.199951171875</ele>
        <time>2026-06-15T08:22:37.000Z</time>
        <extensions>
          <ns3:TrackPointExtension>
            <ns3:atemp>24.0</ns3:atemp>
          </ns3:TrackPointExtension>
        </extensions>
      </trkpt>
      <trkpt lat="42.5974308885633945465087890625" lon="20.15453159809112548828125">
        <ele>1317.199951171875</ele>
        <time>2026-06-15T08:22:38.000Z</time>
        <extensions>
          <ns3:TrackPointExtension>
            <ns3:atemp>24.0</ns3:atemp>
          </ns3:TrackPointExtension>
        </extensions>
      </trkpt>
      <trkpt lat="42.59741194546222686767578125" lon="20.15450687147676944732666015625">
        <ele>1317.4000244140625</ele>
        <time>2026-06-15T08:22:39.000Z</time>
        <extensions>
          <ns3:TrackPointExtension>
            <ns3:atemp>24.0</ns3:atemp>
          </ns3:TrackPointExtension>
        </extensions>
      </trkpt>
      <trkpt lat="42.597392499446868896484375" lon="20.15448507852852344512939453125">
        <ele>1317.4000244140625</ele>
        <time>2026-06-15T08:22:40.000Z</time>
        <extensions>
          <ns3:TrackPointExtension>
            <ns3:atemp>24.0</ns3:atemp>
          </ns3:TrackPointExtension>
        </extensions>
      </trkpt>
      <trkpt lat="42.59736928157508373260498046875" lon="20.15445976518094539642333984375">
        <ele>1317.5999755859375</ele>
        <time>2026-06-15T08:22:41.000Z</time>
        <extensions>
          <ns3:TrackPointExtension>
            <ns3:atemp>24.0</ns3:atemp>
          </ns3:TrackPointExtension>
        </extensions>
      </trkpt>
      <trkpt lat="42.59735469706356525421142578125" lon="20.15442841686308383941650390625">
        <ele>1317.5999755859375</ele>
        <time>2026-06-15T08:22:42.000Z</time>
        <extensions>
          <ns3:TrackPointExtension>
            <ns3:atemp>24.0</ns3:atemp>
          </ns3:TrackPointExtension>
        </extensions>
      </trkpt>
      <trkpt lat="42.59734396822750568389892578125" lon="20.1543869264423847198486328125">
        <ele>1317.800048828125</ele>
        <time>2026-06-15T08:22:43.000Z</time>
        <extensions>
          <ns3:TrackPointExtension>
            <ns3:atemp>24.0</ns3:atemp>
          </ns3:TrackPointExtension>
        </extensions>
      </trkpt>
      <trkpt lat="42.5973296351730823516845703125" lon="20.154347531497478485107421875">
        <ele>1317.800048828125</ele>
        <time>2026-06-15T08:22:44.000Z</time>
        <extensions>
          <ns3:TrackPointExtension>
            <ns3:atemp>24.0</ns3:atemp>
          </ns3:TrackPointExtension>
        </extensions>
      </trkpt>
      <trkpt lat="42.59731614030897617340087890625" lon="20.15430570580065250396728515625">
        <ele>1317.800048828125</ele>
        <time>2026-06-15T08:22:45.000Z</time>
        <extensions>
          <ns3:TrackPointExtension>
            <ns3:atemp>24.0</ns3:atemp>
          </ns3:TrackPointExtension>
        </extensions>
      </trkpt>
      <trkpt lat="42.59730339981615543365478515625" lon="20.154259018599987030029296875">
        <ele>1317.5999755859375</ele>
        <time>2026-06-15T08:22:46.000Z</time>
        <extensions>
          <ns3:TrackPointExtension>
            <ns3:atemp>24.0</ns3:atemp>
          </ns3:TrackPointExtension>
        </extensions>
      </trkpt>
      <trkpt lat="42.59728747420012950897216796875" lon="20.154214762151241302490234375">
        <ele>1317.5999755859375</ele>
        <time>2026-06-15T08:22:47.000Z</time>
        <extensions>
          <ns3:TrackPointExtension>
            <ns3:atemp>24.0</ns3:atemp>
          </ns3:TrackPointExtension>
        </extensions>
      </trkpt>
      <trkpt lat="42.59728278033435344696044921875" lon="20.15417226590216159820556640625">
        <ele>1317.5999755859375</ele>
        <time>2026-06-15T08:22:48.000Z</time>
        <extensions>
          <ns3:TrackPointExtension>
            <ns3:atemp>24.0</ns3:atemp>
          </ns3:TrackPointExtension>
        </extensions>
      </trkpt>
      <trkpt lat="42.5972796790301799774169921875" lon="20.154126249253749847412109375">
        <ele>1317.4000244140625</ele>
        <time>2026-06-15T08:22:49.000Z</time>
        <extensions>
          <ns3:TrackPointExtension>
            <ns3:atemp>24.0</ns3:atemp>
          </ns3:TrackPointExtension>
        </extensions>
      </trkpt>
      <trkpt lat="42.597285211086273193359375" lon="20.15408241190016269683837890625">
        <ele>1317.4000244140625</ele>
        <time>2026-06-15T08:22:50.000Z</time>
        <extensions>
          <ns3:TrackPointExtension>
            <ns3:atemp>24.0</ns3:atemp>
          </ns3:TrackPointExtension>
        </extensions>
      </trkpt>
      <trkpt lat="42.597289569675922393798828125" lon="20.15404008328914642333984375">
        <ele>1317.5999755859375</ele>
        <time>2026-06-15T08:22:51.000Z</time>
        <extensions>
          <ns3:TrackPointExtension>
            <ns3:atemp>24.0</ns3:atemp>
          </ns3:TrackPointExtension>
        </extensions>
      </trkpt>
      <trkpt lat="42.59730398654937744140625" lon="20.15399993397295475006103515625">
        <ele>1317.5999755859375</ele>
        <time>2026-06-15T08:22:52.000Z</time>
        <extensions>
          <ns3:TrackPointExtension>
            <ns3:atemp>24.0</ns3:atemp>
          </ns3:TrackPointExtension>
        </extensions>
      </trkpt>
      <trkpt lat="42.5973225943744182586669921875" lon="20.1539661549031734466552734375">
        <ele>1317.5999755859375</ele>
        <time>2026-06-15T08:22:53.000Z</time>
        <extensions>
          <ns3:TrackPointExtension>
            <ns3:atemp>24.0</ns3:atemp>
          </ns3:TrackPointExtension>
        </extensions>
      </trkpt>
      <trkpt lat="42.597338519990444183349609375" lon="20.15392885543406009674072265625">
        <ele>1317.800048828125</ele>
        <time>2026-06-15T08:22:54.000Z</time>
        <extensions>
          <ns3:TrackPointExtension>
            <ns3:atemp>24.0</ns3:atemp>
          </ns3:TrackPointExtension>
        </extensions>
      </trkpt>
      <trkpt lat="42.59735771454870700836181640625" lon="20.15389013104140758514404296875">
        <ele>1317.800048828125</ele>
        <time>2026-06-15T08:22:55.000Z</time>
        <extensions>
          <ns3:TrackPointExtension>
            <ns3:atemp>24.0</ns3:atemp>
          </ns3:TrackPointExtension>
        </extensions>
      </trkpt>
      <trkpt lat="42.59738101623952388763427734375" lon="20.15385626815259456634521484375">
        <ele>1317.800048828125</ele>
        <time>2026-06-15T08:22:56.000Z</time>
        <extensions>
          <ns3:TrackPointExtension>
            <ns3:atemp>24.0</ns3:atemp>
          </ns3:TrackPointExtension>
        </extensions>
      </trkpt>
      <trkpt lat="42.59740012697875499725341796875" lon="20.153822489082813262939453125">
        <ele>1317.800048828125</ele>
        <time>2026-06-15T08:22:57.000Z</time>
        <extensions>
          <ns3:TrackPointExtension>
            <ns3:atemp>24.0</ns3:atemp>
          </ns3:TrackPointExtension>
        </extensions>
      </trkpt>
      <trkpt lat="42.59742200374603271484375" lon="20.15379323624074459075927734375">
        <ele>1318</ele>
        <time>2026-06-15T08:22:58.000Z</time>
        <extensions>
          <ns3:TrackPointExtension>
            <ns3:atemp>24.0</ns3:atemp>
          </ns3:TrackPointExtension>
        </extensions>
      </trkpt>
      <trkpt lat="42.59744639508426189422607421875" lon="20.15376104973256587982177734375">
        <ele>1318</ele>
        <time>2026-06-15T08:22:59.000Z</time>
        <extensions>
          <ns3:TrackPointExtension>
            <ns3:atemp>24.0</ns3:atemp>
          </ns3:TrackPointExtension>
        </extensions>
      </trkpt>
      <trkpt lat="42.5974711216986179351806640625" lon="20.15372970141470432281494140625">
        <ele>1318.199951171875</ele>
        <time>2026-06-15T08:23:00.000Z</time>
        <extensions>
          <ns3:TrackPointExtension>
            <ns3:atemp>24.0</ns3:atemp>
          </ns3:TrackPointExtension>
        </extensions>
      </trkpt>
      <trkpt lat="42.597500123083591461181640625" lon="20.1537014544010162353515625">
        <ele>1318.199951171875</ele>
        <time>2026-06-15T08:23:01.000Z</time>
        <extensions>
          <ns3:TrackPointExtension>
            <ns3:atemp>24.0</ns3:atemp>
          </ns3:TrackPointExtension>
        </extensions>
      </trkpt>
      <trkpt lat="42.597528286278247833251953125" lon="20.15367773361504077911376953125">
        <ele>1318.199951171875</ele>
        <time>2026-06-15T08:23:02.000Z</time>
        <extensions>
          <ns3:TrackPointExtension>
            <ns3:atemp>24.0</ns3:atemp>
          </ns3:TrackPointExtension>
        </extensions>
      </trkpt>
      <trkpt lat="42.59755435399711132049560546875" lon="20.15364906750619411468505859375">
        <ele>1318.4000244140625</ele>
        <time>2026-06-15T08:23:03.000Z</time>
        <extensions>
          <ns3:TrackPointExtension>
            <ns3:atemp>24.0</ns3:atemp>
          </ns3:TrackPointExtension>
        </extensions>
      </trkpt>
      <trkpt lat="42.5975743867456912994384765625" lon="20.1536183059215545654296875">
        <ele>1318.4000244140625</ele>
        <time>2026-06-15T08:23:04.000Z</time>
        <extensions>
          <ns3:TrackPointExtension>
            <ns3:atemp>24.0</ns3:atemp>
          </ns3:TrackPointExtension>
        </extensions>
      </trkpt>
      <trkpt lat="42.59759307838976383209228515625" lon="20.153586454689502716064453125">
        <ele>1318.4000244140625</ele>
        <time>2026-06-15T08:23:05.000Z</time>
        <extensions>
          <ns3:TrackPointExtension>
            <ns3:atemp>24.0</ns3:atemp>
          </ns3:TrackPointExtension>
        </extensions>
      </trkpt>
      <trkpt lat="42.59761042892932891845703125" lon="20.15355032868683338165283203125">
        <ele>1318.4000244140625</ele>
        <time>2026-06-15T08:23:06.000Z</time>
        <extensions>
          <ns3:TrackPointExtension>
            <ns3:atemp>24.0</ns3:atemp>
          </ns3:TrackPointExtension>
        </extensions>
      </trkpt>
      <trkpt lat="42.59762358851730823516845703125" lon="20.15350766479969024658203125">
        <ele>1318.5999755859375</ele>
        <time>2026-06-15T08:23:07.000Z</time>
        <extensions>
          <ns3:TrackPointExtension>
            <ns3:atemp>24.0</ns3:atemp>
          </ns3:TrackPointExtension>
        </extensions>
      </trkpt>
      <trkpt lat="42.597632221877574920654296875" lon="20.15345938503742218017578125">
        <ele>1318.5999755859375</ele>
        <time>2026-06-15T08:23:08.000Z</time>
        <extensions>
          <ns3:TrackPointExtension>
            <ns3:atemp>24.0</ns3:atemp>
          </ns3:TrackPointExtension>
        </extensions>
      </trkpt>
      <trkpt lat="42.59763699956238269805908203125" lon="20.15341378748416900634765625">
        <ele>1318.5999755859375</ele>
        <time>2026-06-15T08:23:09.000Z</time>
        <extensions>
          <ns3:TrackPointExtension>
            <ns3:atemp>24.0</ns3:atemp>
          </ns3:TrackPointExtension>
        </extensions>
      </trkpt>
      <trkpt lat="42.59763658046722412109375" lon="20.153364837169647216796875">
        <ele>1318.5999755859375</ele>
        <time>2026-06-15T08:23:10.000Z</time>
        <extensions>
          <ns3:TrackPointExtension>
            <ns3:atemp>24.0</ns3:atemp>
          </ns3:TrackPointExtension>
        </extensions>
      </trkpt>
      <trkpt lat="42.59763079695403575897216796875" lon="20.15331429429352283477783203125">
        <ele>1318.5999755859375</ele>
        <time>2026-06-15T08:23:11.000Z</time>
        <extensions>
          <ns3:TrackPointExtension>
            <ns3:atemp>24.0</ns3:atemp>
          </ns3:TrackPointExtension>
        </extensions>
      </trkpt>
      <trkpt lat="42.59761847555637359619140625" lon="20.15326559543609619140625">
        <ele>1318.5999755859375</ele>
        <time>2026-06-15T08:23:12.000Z</time>
        <extensions>
          <ns3:TrackPointExtension>
            <ns3:atemp>24.0</ns3:atemp>
          </ns3:TrackPointExtension>
        </extensions>
      </trkpt>
      <trkpt lat="42.59760229848325252532958984375" lon="20.15322242863476276397705078125">
        <ele>1318.5999755859375</ele>
        <time>2026-06-15T08:23:13.000Z</time>
        <extensions>
          <ns3:TrackPointExtension>
            <ns3:atemp>24.0</ns3:atemp>
          </ns3:TrackPointExtension>
        </extensions>
      </trkpt>
      <trkpt lat="42.5975780747830867767333984375" lon="20.1531863026320934295654296875">
        <ele>1318.5999755859375</ele>
        <time>2026-06-15T08:23:14.000Z</time>
        <extensions>
          <ns3:TrackPointExtension>
            <ns3:atemp>24.0</ns3:atemp>
          </ns3:TrackPointExtension>
        </extensions>
      </trkpt>
      <trkpt lat="42.5975574553012847900390625" lon="20.15315570868551731109619140625">
        <ele>1318.5999755859375</ele>
        <time>2026-06-15T08:23:15.000Z</time>
        <extensions>
          <ns3:TrackPointExtension>
            <ns3:atemp>24.0</ns3:atemp>
          </ns3:TrackPointExtension>
        </extensions>
      </trkpt>
      <trkpt lat="42.59753256104886531829833984375" lon="20.1531236059963703155517578125">
        <ele>1318.5999755859375</ele>
        <time>2026-06-15T08:23:16.000Z</time>
        <extensions>
          <ns3:TrackPointExtension>
            <ns3:atemp>24.0</ns3:atemp>
          </ns3:TrackPointExtension>
        </extensions>
      </trkpt>
      <trkpt lat="42.59751361794769763946533203125" lon="20.1530952751636505126953125">
        <ele>1318.5999755859375</ele>
        <time>2026-06-15T08:23:17.000Z</time>
        <extensions>
          <ns3:TrackPointExtension>
            <ns3:atemp>24.0</ns3:atemp>
          </ns3:TrackPointExtension>
        </extensions>
      </trkpt>
      <trkpt lat="42.59749534539878368377685546875" lon="20.15306753106415271759033203125">
        <ele>1318.800048828125</ele>
        <time>2026-06-15T08:23:18.000Z</time>
        <extensions>
          <ns3:TrackPointExtension>
            <ns3:atemp>24.0</ns3:atemp>
          </ns3:TrackPointExtension>
        </extensions>
      </trkpt>
      <trkpt lat="42.5974711216986179351806640625" lon="20.15304523520171642303466796875">
        <ele>1318.800048828125</ele>
        <time>2026-06-15T08:23:19.000Z</time>
        <extensions>
          <ns3:TrackPointExtension>
            <ns3:atemp>24.0</ns3:atemp>
          </ns3:TrackPointExtension>
        </extensions>
      </trkpt>
      <trkpt lat="42.59744354523718357086181640625" lon="20.153034590184688568115234375">
        <ele>1319</ele>
        <time>2026-06-15T08:23:20.000Z</time>
        <extensions>
          <ns3:TrackPointExtension>
            <ns3:atemp>24.0</ns3:atemp>
          </ns3:TrackPointExtension>
        </extensions>
      </trkpt>
      <trkpt lat="42.5974087603390216827392578125" lon="20.15303065069019794464111328125">
        <ele>1319</ele>
        <time>2026-06-15T08:23:21.000Z</time>
        <extensions>
          <ns3:TrackPointExtension>
            <ns3:atemp>24.0</ns3:atemp>
          </ns3:TrackPointExtension>
        </extensions>
      </trkpt>
      <trkpt lat="42.59737171232700347900390625" lon="20.15303098596632480621337890625">
        <ele>1319</ele>
        <time>2026-06-15T08:23:22.000Z</time>
        <extensions>
          <ns3:TrackPointExtension>
            <ns3:atemp>24.0</ns3:atemp>
          </ns3:TrackPointExtension>
        </extensions>
      </trkpt>
      <trkpt lat="42.59733147919178009033203125" lon="20.1530253700911998748779296875">
        <ele>1318.800048828125</ele>
        <time>2026-06-15T08:23:23.000Z</time>
        <extensions>
          <ns3:TrackPointExtension>
            <ns3:atemp>24.0</ns3:atemp>
          </ns3:TrackPointExtension>
        </extensions>
      </trkpt>
      <trkpt lat="42.59729526937007904052734375" lon="20.153014473617076873779296875">
        <ele>1318.800048828125</ele>
        <time>2026-06-15T08:23:24.000Z</time>
        <extensions>
          <ns3:TrackPointExtension>
            <ns3:atemp>24.0</ns3:atemp>
          </ns3:TrackPointExtension>
        </extensions>
      </trkpt>
      <trkpt lat="42.597262077033519744873046875" lon="20.1530049182474613189697265625">
        <ele>1318.800048828125</ele>
        <time>2026-06-15T08:23:25.000Z</time>
        <extensions>
          <ns3:TrackPointExtension>
            <ns3:atemp>24.0</ns3:atemp>
          </ns3:TrackPointExtension>
        </extensions>
      </trkpt>
      <trkpt lat="42.597227208316326141357421875" lon="20.1529925130307674407958984375">
        <ele>1318.800048828125</ele>
        <time>2026-06-15T08:23:26.000Z</time>
        <extensions>
          <ns3:TrackPointExtension>
            <ns3:atemp>24.0</ns3:atemp>
          </ns3:TrackPointExtension>
        </extensions>
      </trkpt>
      <trkpt lat="42.5971941836178302764892578125" lon="20.1529730670154094696044921875">
        <ele>1318.800048828125</ele>
        <time>2026-06-15T08:23:27.000Z</time>
        <extensions>
          <ns3:TrackPointExtension>
            <ns3:atemp>24.0</ns3:atemp>
          </ns3:TrackPointExtension>
        </extensions>
      </trkpt>
      <trkpt lat="42.597164846956729888916015625" lon="20.15295152552425861358642578125">
        <ele>1318.800048828125</ele>
        <time>2026-06-15T08:23:28.000Z</time>
        <extensions>
          <ns3:TrackPointExtension>
            <ns3:atemp>24.0</ns3:atemp>
          </ns3:TrackPointExtension>
        </extensions>
      </trkpt>
      <trkpt lat="42.5971334986388683319091796875" lon="20.15293358825147151947021484375">
        <ele>1318.800048828125</ele>
        <time>2026-06-15T08:23:29.000Z</time>
        <extensions>
          <ns3:TrackPointExtension>
            <ns3:atemp>24.0</ns3:atemp>
          </ns3:TrackPointExtension>
        </extensions>
      </trkpt>
      <trkpt lat="42.59710424579679965972900390625" lon="20.15291078947484493255615234375">
        <ele>1318.5999755859375</ele>
        <time>2026-06-15T08:23:30.000Z</time>
        <extensions>
          <ns3:TrackPointExtension>
            <ns3:atemp>24.0</ns3:atemp>
          </ns3:TrackPointExtension>
        </extensions>
      </trkpt>
      <trkpt lat="42.5970731489360332489013671875" lon="20.15288245864212512969970703125">
        <ele>1318.5999755859375</ele>
        <time>2026-06-15T08:23:31.000Z</time>
        <extensions>
          <ns3:TrackPointExtension>
            <ns3:atemp>24.0</ns3:atemp>
          </ns3:TrackPointExtension>
        </extensions>
      </trkpt>
      <trkpt lat="42.59704448282718658447265625" lon="20.1528577320277690887451171875">
        <ele>1318.5999755859375</ele>
        <time>2026-06-15T08:23:32.000Z</time>
        <extensions>
          <ns3:TrackPointExtension>
            <ns3:atemp>24.0</ns3:atemp>
          </ns3:TrackPointExtension>
        </extensions>
      </trkpt>
      <trkpt lat="42.59701170958578586578369140625" lon="20.15283619053661823272705078125">
        <ele>1318.5999755859375</ele>
        <time>2026-06-15T08:23:33.000Z</time>
        <extensions>
          <ns3:TrackPointExtension>
            <ns3:atemp>24.0</ns3:atemp>
          </ns3:TrackPointExtension>
        </extensions>
      </trkpt>
      <trkpt lat="42.596975080668926239013671875" lon="20.15281456522643566131591796875">
        <ele>1318.5999755859375</ele>
        <time>2026-06-15T08:23:34.000Z</time>
        <extensions>
          <ns3:TrackPointExtension>
            <ns3:atemp>24.0</ns3:atemp>
          </ns3:TrackPointExtension>
        </extensions>
      </trkpt>
      <trkpt lat="42.59694029577076435089111328125" lon="20.15278824605047702789306640625">
        <ele>1318.5999755859375</ele>
        <time>2026-06-15T08:23:35.000Z</time>
        <extensions>
          <ns3:TrackPointExtension>
            <ns3:atemp>24.0</ns3:atemp>
          </ns3:TrackPointExtension>
        </extensions>
      </trkpt>
      <trkpt lat="42.59690777398645877838134765625" lon="20.152763016521930694580078125">
        <ele>1318.5999755859375</ele>
        <time>2026-06-15T08:23:36.000Z</time>
        <extensions>
          <ns3:TrackPointExtension>
            <ns3:atemp>24.0</ns3:atemp>
          </ns3:TrackPointExtension>
        </extensions>
      </trkpt>
      <trkpt lat="42.596877515316009521484375" lon="20.152744241058826446533203125">
        <ele>1318.5999755859375</ele>
        <time>2026-06-15T08:23:37.000Z</time>
        <extensions>
          <ns3:TrackPointExtension>
            <ns3:atemp>24.0</ns3:atemp>
          </ns3:TrackPointExtension>
        </extensions>
      </trkpt>
      <trkpt lat="42.5968448258936405181884765625" lon="20.15272705815732479095458984375">
        <ele>1318.5999755859375</ele>
        <time>2026-06-15T08:23:38.000Z</time>
        <extensions>
          <ns3:TrackPointExtension>
            <ns3:atemp>24.0</ns3:atemp>
          </ns3:TrackPointExtension>
        </extensions>
      </trkpt>
      <trkpt lat="42.5968109630048274993896484375" lon="20.15271062962710857391357421875">
        <ele>1318.5999755859375</ele>
        <time>2026-06-15T08:23:39.000Z</time>
        <extensions>
          <ns3:TrackPointExtension>
            <ns3:atemp>24.0</ns3:atemp>
          </ns3:TrackPointExtension>
        </extensions>
      </trkpt>
      <trkpt lat="42.59677886031568050384521484375" lon="20.152699314057826995849609375">
        <ele>1318.800048828125</ele>
        <time>2026-06-15T08:23:40.000Z</time>
        <extensions>
          <ns3:TrackPointExtension>
            <ns3:atemp>24.0</ns3:atemp>
          </ns3:TrackPointExtension>
        </extensions>
      </trkpt>
      <trkpt lat="42.59674767963588237762451171875" lon="20.15268280170857906341552734375">
        <ele>1318.800048828125</ele>
        <time>2026-06-15T08:23:41.000Z</time>
        <extensions>
          <ns3:TrackPointExtension>
            <ns3:atemp>24.0</ns3:atemp>
          </ns3:TrackPointExtension>
        </extensions>
      </trkpt>
      <trkpt lat="42.59671968407928943634033203125" lon="20.15266302041709423065185546875">
        <ele>1318.800048828125</ele>
        <time>2026-06-15T08:23:42.000Z</time>
        <extensions>
          <ns3:TrackPointExtension>
            <ns3:atemp>24.0</ns3:atemp>
          </ns3:TrackPointExtension>
        </extensions>
      </trkpt>
      <trkpt lat="42.5966902635991573333740234375" lon="20.1526424847543239593505859375">
        <ele>1318.800048828125</ele>
        <time>2026-06-15T08:23:43.000Z</time>
        <extensions>
          <ns3:TrackPointExtension>
            <ns3:atemp>24.0</ns3:atemp>
          </ns3:TrackPointExtension>
        </extensions>
      </trkpt>
      <trkpt lat="42.5966615974903106689453125" lon="20.15262396074831485748291015625">
        <ele>1319</ele>
        <time>2026-06-15T08:23:44.000Z</time>
        <extensions>
          <ns3:TrackPointExtension>
            <ns3:atemp>24.0</ns3:atemp>
          </ns3:TrackPointExtension>
        </extensions>
      </trkpt>
      <trkpt lat="42.59662614203989505767822265625" lon="20.15261088497936725616455078125">
        <ele>1319</ele>
        <time>2026-06-15T08:23:45.000Z</time>
        <extensions>
          <ns3:TrackPointExtension>
            <ns3:atemp>24.0</ns3:atemp>
          </ns3:TrackPointExtension>
        </extensions>
      </trkpt>
      <trkpt lat="42.5965916924178600311279296875" lon="20.1525968872010707855224609375">
        <ele>1319</ele>
        <time>2026-06-15T08:23:46.000Z</time>
        <extensions>
          <ns3:TrackPointExtension>
            <ns3:atemp>24.0</ns3:atemp>
          </ns3:TrackPointExtension>
        </extensions>
      </trkpt>
      <trkpt lat="42.596557997167110443115234375" lon="20.152577944099903106689453125">
        <ele>1319</ele>
        <time>2026-06-15T08:23:47.000Z</time>
        <extensions>
          <ns3:TrackPointExtension>
            <ns3:atemp>24.0</ns3:atemp>
          </ns3:TrackPointExtension>
        </extensions>
      </trkpt>
      <trkpt lat="42.59652455337345600128173828125" lon="20.1525561511516571044921875">
        <ele>1319</ele>
        <time>2026-06-15T08:23:48.000Z</time>
        <extensions>
          <ns3:TrackPointExtension>
            <ns3:atemp>24.0</ns3:atemp>
          </ns3:TrackPointExtension>
        </extensions>
      </trkpt>
      <trkpt lat="42.59649354033172130584716796875" lon="20.15253175981342792510986328125">
        <ele>1319</ele>
        <time>2026-06-15T08:23:49.000Z</time>
        <extensions>
          <ns3:TrackPointExtension>
            <ns3:atemp>24.0</ns3:atemp>
          </ns3:TrackPointExtension>
        </extensions>
      </trkpt>
      <trkpt lat="42.59646655060350894927978515625" lon="20.15250644646584987640380859375">
        <ele>1319</ele>
        <time>2026-06-15T08:23:50.000Z</time>
        <extensions>
          <ns3:TrackPointExtension>
            <ns3:atemp>24.0</ns3:atemp>
          </ns3:TrackPointExtension>
        </extensions>
      </trkpt>
      <trkpt lat="42.5964411534368991851806640625" lon="20.1524828933179378509521484375">
        <ele>1319</ele>
        <time>2026-06-15T08:23:51.000Z</time>
        <extensions>
          <ns3:TrackPointExtension>
            <ns3:atemp>24.0</ns3:atemp>
          </ns3:TrackPointExtension>
        </extensions>
      </trkpt>
      <trkpt lat="42.59641340933740139007568359375" lon="20.1524595916271209716796875">
        <ele>1319</ele>
        <time>2026-06-15T08:23:52.000Z</time>
        <extensions>
          <ns3:TrackPointExtension>
            <ns3:atemp>24.0</ns3:atemp>
          </ns3:TrackPointExtension>
        </extensions>
      </trkpt>
      <trkpt lat="42.59638641960918903350830078125" lon="20.15243603847920894622802734375">
        <ele>1319</ele>
        <time>2026-06-15T08:23:53.000Z</time>
        <extensions>
          <ns3:TrackPointExtension>
            <ns3:atemp>24.0</ns3:atemp>
          </ns3:TrackPointExtension>
        </extensions>
      </trkpt>
      <trkpt lat="42.5963600166141986846923828125" lon="20.15241156332194805145263671875">
        <ele>1318.800048828125</ele>
        <time>2026-06-15T08:23:54.000Z</time>
        <extensions>
          <ns3:TrackPointExtension>
            <ns3:atemp>24.0</ns3:atemp>
          </ns3:TrackPointExtension>
        </extensions>
      </trkpt>
      <trkpt lat="42.59633797220885753631591796875" lon="20.15238340012729167938232421875">
        <ele>1318.800048828125</ele>
        <time>2026-06-15T08:23:55.000Z</time>
        <extensions>
          <ns3:TrackPointExtension>
            <ns3:atemp>24.0</ns3:atemp>
          </ns3:TrackPointExtension>
        </extensions>
      </trkpt>
      <trkpt lat="42.59631567634642124176025390625" lon="20.15235087834298610687255859375">
        <ele>1318.800048828125</ele>
        <time>2026-06-15T08:23:56.000Z</time>
        <extensions>
          <ns3:TrackPointExtension>
            <ns3:atemp>24.0</ns3:atemp>
          </ns3:TrackPointExtension>
        </extensions>
      </trkpt>
      <trkpt lat="42.596293799579143524169921875" lon="20.15231617726385593414306640625">
        <ele>1318.800048828125</ele>
        <time>2026-06-15T08:23:57.000Z</time>
        <extensions>
          <ns3:TrackPointExtension>
            <ns3:atemp>24.0</ns3:atemp>
          </ns3:TrackPointExtension>
        </extensions>
      </trkpt>
      <trkpt lat="42.596265971660614013671875" lon="20.15227862633764743804931640625">
        <ele>1318.800048828125</ele>
        <time>2026-06-15T08:23:58.000Z</time>
        <extensions>
          <ns3:TrackPointExtension>
            <ns3:atemp>24.0</ns3:atemp>
          </ns3:TrackPointExtension>
        </extensions>
      </trkpt>
      <trkpt lat="42.5962362997233867645263671875" lon="20.1522396504878997802734375">
        <ele>1318.800048828125</ele>
        <time>2026-06-15T08:23:59.000Z</time>
        <extensions>
          <ns3:TrackPointExtension>
            <ns3:atemp>24.0</ns3:atemp>
          </ns3:TrackPointExtension>
        </extensions>
      </trkpt>
      <trkpt lat="42.59620838798582553863525390625" lon="20.1522032730281352996826171875">
        <ele>1318.800048828125</ele>
        <time>2026-06-15T08:24:00.000Z</time>
        <extensions>
          <ns3:TrackPointExtension>
            <ns3:atemp>24.0</ns3:atemp>
          </ns3:TrackPointExtension>
        </extensions>
      </trkpt>
      <trkpt lat="42.59618340991437435150146484375" lon="20.15217770822346210479736328125">
        <ele>1319</ele>
        <time>2026-06-15T08:24:01.000Z</time>
        <extensions>
          <ns3:TrackPointExtension>
            <ns3:atemp>24.0</ns3:atemp>
          </ns3:TrackPointExtension>
        </extensions>
      </trkpt>
      <trkpt lat="42.59615943767130374908447265625" lon="20.15215205959975719451904296875">
        <ele>1318.800048828125</ele>
        <time>2026-06-15T08:24:02.000Z</time>
        <extensions>
          <ns3:TrackPointExtension>
            <ns3:atemp>24.0</ns3:atemp>
          </ns3:TrackPointExtension>
        </extensions>
      </trkpt>
      <trkpt lat="42.59613613598048686981201171875" lon="20.15212833881378173828125">
        <ele>1319</ele>
        <time>2026-06-15T08:24:03.000Z</time>
        <extensions>
          <ns3:TrackPointExtension>
            <ns3:atemp>24.0</ns3:atemp>
          </ns3:TrackPointExtension>
        </extensions>
      </trkpt>
      <trkpt lat="42.59611283428966999053955078125" lon="20.152106545865535736083984375">
        <ele>1319</ele>
        <time>2026-06-15T08:24:04.000Z</time>
        <extensions>
          <ns3:TrackPointExtension>
            <ns3:atemp>24.0</ns3:atemp>
          </ns3:TrackPointExtension>
        </extensions>
      </trkpt>
      <trkpt lat="42.5960929691791534423828125" lon="20.15208919532597064971923828125">
        <ele>1319.199951171875</ele>
        <time>2026-06-15T08:24:05.000Z</time>
        <extensions>
          <ns3:TrackPointExtension>
            <ns3:atemp>24.0</ns3:atemp>
          </ns3:TrackPointExtension>
        </extensions>
      </trkpt>
      <trkpt lat="42.59607360698282718658447265625" lon="20.15207310207188129425048828125">
        <ele>1319.4000244140625</ele>
        <time>2026-06-15T08:24:06.000Z</time>
        <extensions>
          <ns3:TrackPointExtension>
            <ns3:atemp>24.0</ns3:atemp>
          </ns3:TrackPointExtension>
        </extensions>
      </trkpt>
      <trkpt lat="42.5960569269955158233642578125" lon="20.1520591042935848236083984375">
        <ele>1319.5999755859375</ele>
        <time>2026-06-15T08:24:07.000Z</time>
        <extensions>
          <ns3:TrackPointExtension>
            <ns3:atemp>24.0</ns3:atemp>
          </ns3:TrackPointExtension>
        </extensions>
      </trkpt>
      <trkpt lat="42.5960404984652996063232421875" lon="20.15204544179141521453857421875">
        <ele>1319.5999755859375</ele>
        <time>2026-06-15T08:24:08.000Z</time>
        <extensions>
          <ns3:TrackPointExtension>
            <ns3:atemp>24.0</ns3:atemp>
          </ns3:TrackPointExtension>
        </extensions>
      </trkpt>
      <trkpt lat="42.59602985344827175140380859375" lon="20.15203018672764301300048828125">
        <ele>1319.800048828125</ele>
        <time>2026-06-15T08:24:09.000Z</time>
        <extensions>
          <ns3:TrackPointExtension>
            <ns3:atemp>24.0</ns3:atemp>
          </ns3:TrackPointExtension>
        </extensions>
      </trkpt>
      <trkpt lat="42.59601878933608531951904296875" lon="20.15201727859675884246826171875">
        <ele>1320</ele>
        <time>2026-06-15T08:24:10.000Z</time>
        <extensions>
          <ns3:TrackPointExtension>
            <ns3:atemp>24.0</ns3:atemp>
          </ns3:TrackPointExtension>
        </extensions>
      </trkpt>
      <trkpt lat="42.5960071384906768798828125" lon="20.152009986340999603271484375">
        <ele>1320</ele>
        <time>2026-06-15T08:24:11.000Z</time>
        <extensions>
          <ns3:TrackPointExtension>
            <ns3:atemp>24.0</ns3:atemp>
          </ns3:TrackPointExtension>
        </extensions>
      </trkpt>
      <trkpt lat="42.5959972478449344635009765625" lon="20.15200403518974781036376953125">
        <ele>1320.199951171875</ele>
        <time>2026-06-15T08:24:12.000Z</time>
        <extensions>
          <ns3:TrackPointExtension>
            <ns3:atemp>24.0</ns3:atemp>
          </ns3:TrackPointExtension>
        </extensions>
      </trkpt>
      <trkpt lat="42.59598727338016033172607421875" lon="20.15199800021946430206298828125">
        <ele>1320.4000244140625</ele>
        <time>2026-06-15T08:24:13.000Z</time>
        <extensions>
          <ns3:TrackPointExtension>
            <ns3:atemp>24.0</ns3:atemp>
          </ns3:TrackPointExtension>
        </extensions>
      </trkpt>
      <trkpt lat="42.595990709960460662841796875" lon="20.15199783258140087127685546875">
        <ele>1320.5999755859375</ele>
        <time>2026-06-15T08:24:14.000Z</time>
        <extensions>
          <ns3:TrackPointExtension>
            <ns3:atemp>24.0</ns3:atemp>
          </ns3:TrackPointExtension>
        </extensions>
      </trkpt>
      <trkpt lat="42.595990709960460662841796875" lon="20.15199766494333744049072265625">
        <ele>1320.800048828125</ele>
        <time>2026-06-15T08:24:15.000Z</time>
        <extensions>
          <ns3:TrackPointExtension>
            <ns3:atemp>24.0</ns3:atemp>
          </ns3:TrackPointExtension>
        </extensions>
      </trkpt>
      <trkpt lat="42.595990709960460662841796875" lon="20.15199766494333744049072265625">
        <ele>1320.800048828125</ele>
        <time>2026-06-15T08:24:16.000Z</time>
        <extensions>
          <ns3:TrackPointExtension>
            <ns3:atemp>24.0</ns3:atemp>
          </ns3:TrackPointExtension>
        </extensions>
      </trkpt>
      <trkpt lat="42.595990709960460662841796875" lon="20.15199766494333744049072265625">
        <ele>1321</ele>
        <time>2026-06-15T08:24:17.000Z</time>
        <extensions>
          <ns3:TrackPointExtension>
            <ns3:atemp>24.0</ns3:atemp>
          </ns3:TrackPointExtension>
        </extensions>
      </trkpt>
      <trkpt lat="42.595990709960460662841796875" lon="20.15199766494333744049072265625">
        <ele>1321</ele>
        <time>2026-06-15T08:24:18.000Z</time>
        <extensions>
          <ns3:TrackPointExtension>
            <ns3:atemp>24.0</ns3:atemp>
          </ns3:TrackPointExtension>
        </extensions>
      </trkpt>
      <trkpt lat="42.595990709960460662841796875" lon="20.15199766494333744049072265625">
        <ele>1321.199951171875</ele>
        <time>2026-06-15T08:24:19.000Z</time>
        <extensions>
          <ns3:TrackPointExtension>
            <ns3:atemp>24.0</ns3:atemp>
          </ns3:TrackPointExtension>
        </extensions>
      </trkpt>
      <trkpt lat="42.595990709960460662841796875" lon="20.15199766494333744049072265625">
        <ele>1321</ele>
        <time>2026-06-15T08:24:20.000Z</time>
        <extensions>
          <ns3:TrackPointExtension>
            <ns3:atemp>24.0</ns3:atemp>
          </ns3:TrackPointExtension>
        </extensions>
      </trkpt>
      <trkpt lat="42.595990709960460662841796875" lon="20.15199766494333744049072265625">
        <ele>1321</ele>
        <time>2026-06-15T08:24:21.000Z</time>
        <extensions>
          <ns3:TrackPointExtension>
            <ns3:atemp>24.0</ns3:atemp>
          </ns3:TrackPointExtension>
        </extensions>
      </trkpt>
      <trkpt lat="42.595990709960460662841796875" lon="20.15199766494333744049072265625">
        <ele>1321</ele>
        <time>2026-06-15T08:24:22.000Z</time>
        <extensions>
          <ns3:TrackPointExtension>
            <ns3:atemp>24.0</ns3:atemp>
          </ns3:TrackPointExtension>
        </extensions>
      </trkpt>
      <trkpt lat="42.595990709960460662841796875" lon="20.15199766494333744049072265625">
        <ele>1321</ele>
        <time>2026-06-15T08:24:23.000Z</time>
        <extensions>
          <ns3:TrackPointExtension>
            <ns3:atemp>24.0</ns3:atemp>
          </ns3:TrackPointExtension>
        </extensions>
      </trkpt>
      <trkpt lat="42.595990709960460662841796875" lon="20.15199766494333744049072265625">
        <ele>1320.800048828125</ele>
        <time>2026-06-15T08:24:24.000Z</time>
        <extensions>
          <ns3:TrackPointExtension>
            <ns3:atemp>24.0</ns3:atemp>
          </ns3:TrackPointExtension>
        </extensions>
      </trkpt>
      <trkpt lat="42.595990709960460662841796875" lon="20.15199766494333744049072265625">
        <ele>1320.800048828125</ele>
        <time>2026-06-15T08:24:25.000Z</time>
        <extensions>
          <ns3:TrackPointExtension>
            <ns3:atemp>24.0</ns3:atemp>
          </ns3:TrackPointExtension>
        </extensions>
      </trkpt>
      <trkpt lat="42.595990709960460662841796875" lon="20.15199766494333744049072265625">
        <ele>1320.800048828125</ele>
        <time>2026-06-15T08:24:26.000Z</time>
        <extensions>
          <ns3:TrackPointExtension>
            <ns3:atemp>24.0</ns3:atemp>
          </ns3:TrackPointExtension>
        </extensions>
      </trkpt>
      <trkpt lat="42.595990709960460662841796875" lon="20.15199766494333744049072265625">
        <ele>1320.800048828125</ele>
        <time>2026-06-15T08:24:27.000Z</time>
        <extensions>
          <ns3:TrackPointExtension>
            <ns3:atemp>24.0</ns3:atemp>
          </ns3:TrackPointExtension>
        </extensions>
      </trkpt>
      <trkpt lat="42.595990709960460662841796875" lon="20.15199766494333744049072265625">
        <ele>1320.800048828125</ele>
        <time>2026-06-15T08:24:28.000Z</time>
        <extensions>
          <ns3:TrackPointExtension>
            <ns3:atemp>24.0</ns3:atemp>
          </ns3:TrackPointExtension>
        </extensions>
      </trkpt>
      <trkpt lat="42.59599062614142894744873046875" lon="20.1519927196204662322998046875">
        <ele>1320.800048828125</ele>
        <time>2026-06-15T08:24:29.000Z</time>
        <extensions>
          <ns3:TrackPointExtension>
            <ns3:atemp>24.0</ns3:atemp>
          </ns3:TrackPointExtension>
        </extensions>
      </trkpt>
      <trkpt lat="42.59598576463758945465087890625" lon="20.15198282897472381591796875">
        <ele>1320.800048828125</ele>
        <time>2026-06-15T08:24:30.000Z</time>
        <extensions>
          <ns3:TrackPointExtension>
            <ns3:atemp>24.0</ns3:atemp>
          </ns3:TrackPointExtension>
        </extensions>
      </trkpt>
      <trkpt lat="42.595981322228908538818359375" lon="20.1519809849560260772705078125">
        <ele>1320.800048828125</ele>
        <time>2026-06-15T08:24:31.000Z</time>
        <extensions>
          <ns3:TrackPointExtension>
            <ns3:atemp>24.0</ns3:atemp>
          </ns3:TrackPointExtension>
        </extensions>
      </trkpt>
      <trkpt lat="42.59597855620086193084716796875" lon="20.1519715972244739532470703125">
        <ele>1320.800048828125</ele>
        <time>2026-06-15T08:24:32.000Z</time>
        <extensions>
          <ns3:TrackPointExtension>
            <ns3:atemp>24.0</ns3:atemp>
          </ns3:TrackPointExtension>
        </extensions>
      </trkpt>
      <trkpt lat="42.5959789752960205078125" lon="20.151968412101268768310546875">
        <ele>1320.800048828125</ele>
        <time>2026-06-15T08:24:33.000Z</time>
        <extensions>
          <ns3:TrackPointExtension>
            <ns3:atemp>24.0</ns3:atemp>
          </ns3:TrackPointExtension>
        </extensions>
      </trkpt>
      <trkpt lat="42.59597889147698879241943359375" lon="20.15196849592030048370361328125">
        <ele>1320.800048828125</ele>
        <time>2026-06-15T08:24:34.000Z</time>
        <extensions>
          <ns3:TrackPointExtension>
            <ns3:atemp>24.0</ns3:atemp>
          </ns3:TrackPointExtension>
        </extensions>
      </trkpt>
      <trkpt lat="42.59597889147698879241943359375" lon="20.15196849592030048370361328125">
        <ele>1321</ele>
        <time>2026-06-15T08:24:35.000Z</time>
        <extensions>
          <ns3:TrackPointExtension>
            <ns3:atemp>24.0</ns3:atemp>
          </ns3:TrackPointExtension>
        </extensions>
      </trkpt>
      <trkpt lat="42.59597889147698879241943359375" lon="20.15196849592030048370361328125">
        <ele>1321</ele>
        <time>2026-06-15T08:24:36.000Z</time>
        <extensions>
          <ns3:TrackPointExtension>
            <ns3:atemp>24.0</ns3:atemp>
          </ns3:TrackPointExtension>
        </extensions>
      </trkpt>
      <trkpt lat="42.59597889147698879241943359375" lon="20.15196849592030048370361328125">
        <ele>1321</ele>
        <time>2026-06-15T08:24:37.000Z</time>
        <extensions>
          <ns3:TrackPointExtension>
            <ns3:atemp>23.0</ns3:atemp>
          </ns3:TrackPointExtension>
        </extensions>
      </trkpt>
      <trkpt lat="42.59597889147698879241943359375" lon="20.15196849592030048370361328125">
        <ele>1321</ele>
        <time>2026-06-15T08:24:38.000Z</time>
        <extensions>
          <ns3:TrackPointExtension>
            <ns3:atemp>23.0</ns3:atemp>
          </ns3:TrackPointExtension>
        </extensions>
      </trkpt>
      <trkpt lat="42.59597889147698879241943359375" lon="20.15196849592030048370361328125">
        <ele>1321</ele>
        <time>2026-06-15T08:24:39.000Z</time>
        <extensions>
          <ns3:TrackPointExtension>
            <ns3:atemp>24.0</ns3:atemp>
          </ns3:TrackPointExtension>
        </extensions>
      </trkpt>
      <trkpt lat="42.59597889147698879241943359375" lon="20.15196849592030048370361328125">
        <ele>1321</ele>
        <time>2026-06-15T08:24:40.000Z</time>
        <extensions>
          <ns3:TrackPointExtension>
            <ns3:atemp>24.0</ns3:atemp>
          </ns3:TrackPointExtension>
        </extensions>
      </trkpt>
      <trkpt lat="42.59597889147698879241943359375" lon="20.15196849592030048370361328125">
        <ele>1321</ele>
        <time>2026-06-15T08:24:41.000Z</time>
        <extensions>
          <ns3:TrackPointExtension>
            <ns3:atemp>24.0</ns3:atemp>
          </ns3:TrackPointExtension>
        </extensions>
      </trkpt>
      <trkpt lat="42.59597889147698879241943359375" lon="20.15196849592030048370361328125">
        <ele>1321</ele>
        <time>2026-06-15T08:24:42.000Z</time>
        <extensions>
          <ns3:TrackPointExtension>
            <ns3:atemp>24.0</ns3:atemp>
          </ns3:TrackPointExtension>
        </extensions>
      </trkpt>
      <trkpt lat="42.59597889147698879241943359375" lon="20.15196849592030048370361328125">
        <ele>1321</ele>
        <time>2026-06-15T08:24:43.000Z</time>
        <extensions>
          <ns3:TrackPointExtension>
            <ns3:atemp>23.0</ns3:atemp>
          </ns3:TrackPointExtension>
        </extensions>
      </trkpt>
      <trkpt lat="42.59597889147698879241943359375" lon="20.15196849592030048370361328125">
        <ele>1320.800048828125</ele>
        <time>2026-06-15T08:24:44.000Z</time>
        <extensions>
          <ns3:TrackPointExtension>
            <ns3:atemp>23.0</ns3:atemp>
          </ns3:TrackPointExtension>
        </extensions>
      </trkpt>
      <trkpt lat="42.59597889147698879241943359375" lon="20.15196849592030048370361328125">
        <ele>1320.800048828125</ele>
        <time>2026-06-15T08:24:45.000Z</time>
        <extensions>
          <ns3:TrackPointExtension>
            <ns3:atemp>24.0</ns3:atemp>
          </ns3:TrackPointExtension>
        </extensions>
      </trkpt>
      <trkpt lat="42.59597889147698879241943359375" lon="20.15196849592030048370361328125">
        <ele>1320.800048828125</ele>
        <time>2026-06-15T08:24:46.000Z</time>
        <extensions>
          <ns3:TrackPointExtension>
            <ns3:atemp>24.0</ns3:atemp>
          </ns3:TrackPointExtension>
        </extensions>
      </trkpt>
      <trkpt lat="42.59597889147698879241943359375" lon="20.15196849592030048370361328125">
        <ele>1320.800048828125</ele>
        <time>2026-06-15T08:24:47.000Z</time>
        <extensions>
          <ns3:TrackPointExtension>
            <ns3:atemp>23.0</ns3:atemp>
          </ns3:TrackPointExtension>
        </extensions>
      </trkpt>
      <trkpt lat="42.59597889147698879241943359375" lon="20.15196849592030048370361328125">
        <ele>1320.800048828125</ele>
        <time>2026-06-15T08:24:48.000Z</time>
        <extensions>
          <ns3:TrackPointExtension>
            <ns3:atemp>23.0</ns3:atemp>
          </ns3:TrackPointExtension>
        </extensions>
      </trkpt>
      <trkpt lat="42.59597889147698879241943359375" lon="20.15196849592030048370361328125">
        <ele>1320.800048828125</ele>
        <time>2026-06-15T08:24:49.000Z</time>
        <extensions>
          <ns3:TrackPointExtension>
            <ns3:atemp>23.0</ns3:atemp>
          </ns3:TrackPointExtension>
        </extensions>
      </trkpt>
      <trkpt lat="42.59597889147698879241943359375" lon="20.15196849592030048370361328125">
        <ele>1320.800048828125</ele>
        <time>2026-06-15T08:24:50.000Z</time>
        <extensions>
          <ns3:TrackPointExtension>
            <ns3:atemp>23.0</ns3:atemp>
          </ns3:TrackPointExtension>
        </extensions>
      </trkpt>
      <trkpt lat="42.59597889147698879241943359375" lon="20.15196849592030048370361328125">
        <ele>1320.800048828125</ele>
        <time>2026-06-15T08:24:51.000Z</time>
        <extensions>
          <ns3:TrackPointExtension>
            <ns3:atemp>24.0</ns3:atemp>
          </ns3:TrackPointExtension>
        </extensions>
      </trkpt>
      <trkpt lat="42.59597889147698879241943359375" lon="20.15196849592030048370361328125">
        <ele>1320.800048828125</ele>
        <time>2026-06-15T08:24:52.000Z</time>
        <extensions>
          <ns3:TrackPointExtension>
            <ns3:atemp>24.0</ns3:atemp>
          </ns3:TrackPointExtension>
        </extensions>
      </trkpt>
      <trkpt lat="42.59597889147698879241943359375" lon="20.15196849592030048370361328125">
        <ele>1320.800048828125</ele>
        <time>2026-06-15T08:24:53.000Z</time>
        <extensions>
          <ns3:TrackPointExtension>
            <ns3:atemp>23.0</ns3:atemp>
          </ns3:TrackPointExtension>
        </extensions>
      </trkpt>
      <trkpt lat="42.59597889147698879241943359375" lon="20.15196849592030048370361328125">
        <ele>1320.800048828125</ele>
        <time>2026-06-15T08:24:54.000Z</time>
        <extensions>
          <ns3:TrackPointExtension>
            <ns3:atemp>23.0</ns3:atemp>
          </ns3:TrackPointExtension>
        </extensions>
      </trkpt>
      <trkpt lat="42.59597889147698879241943359375" lon="20.15196849592030048370361328125">
        <ele>1320.800048828125</ele>
        <time>2026-06-15T08:24:55.000Z</time>
        <extensions>
          <ns3:TrackPointExtension>
            <ns3:atemp>23.0</ns3:atemp>
          </ns3:TrackPointExtension>
        </extensions>
      </trkpt>
      <trkpt lat="42.59597889147698879241943359375" lon="20.15196849592030048370361328125">
        <ele>1320.5999755859375</ele>
        <time>2026-06-15T08:24:56.000Z</time>
        <extensions>
          <ns3:TrackPointExtension>
            <ns3:atemp>23.0</ns3:atemp>
          </ns3:TrackPointExtension>
        </extensions>
      </trkpt>
      <trkpt lat="42.59597168304026126861572265625" lon="20.151967070996761322021484375">
        <ele>1320.5999755859375</ele>
        <time>2026-06-15T08:24:57.000Z</time>
        <extensions>
          <ns3:TrackPointExtension>
            <ns3:atemp>23.0</ns3:atemp>
          </ns3:TrackPointExtension>
        </extensions>
      </trkpt>
      <trkpt lat="42.5959556736052036285400390625" lon="20.1519501395523548126220703125">
        <ele>1320.5999755859375</ele>
        <time>2026-06-15T08:24:58.000Z</time>
        <extensions>
          <ns3:TrackPointExtension>
            <ns3:atemp>23.0</ns3:atemp>
          </ns3:TrackPointExtension>
        </extensions>
      </trkpt>
      <trkpt lat="42.59594351984560489654541015625" lon="20.15193630941212177276611328125">
        <ele>1320.5999755859375</ele>
        <time>2026-06-15T08:24:59.000Z</time>
        <extensions>
          <ns3:TrackPointExtension>
            <ns3:atemp>23.0</ns3:atemp>
          </ns3:TrackPointExtension>
        </extensions>
      </trkpt>
      <trkpt lat="42.5959320366382598876953125" lon="20.151927508413791656494140625">
        <ele>1320.5999755859375</ele>
        <time>2026-06-15T08:25:00.000Z</time>
        <extensions>
          <ns3:TrackPointExtension>
            <ns3:atemp>23.0</ns3:atemp>
          </ns3:TrackPointExtension>
        </extensions>
      </trkpt>
      <trkpt lat="42.59591921232640743255615234375" lon="20.1519189588725566864013671875">
        <ele>1320.5999755859375</ele>
        <time>2026-06-15T08:25:01.000Z</time>
        <extensions>
          <ns3:TrackPointExtension>
            <ns3:atemp>23.0</ns3:atemp>
          </ns3:TrackPointExtension>
        </extensions>
      </trkpt>
      <trkpt lat="42.5959077291190624237060546875" lon="20.1519045419991016387939453125">
        <ele>1320.800048828125</ele>
        <time>2026-06-15T08:25:02.000Z</time>
        <extensions>
          <ns3:TrackPointExtension>
            <ns3:atemp>23.0</ns3:atemp>
          </ns3:TrackPointExtension>
        </extensions>
      </trkpt>
      <trkpt lat="42.59589649736881256103515625" lon="20.151881240308284759521484375">
        <ele>1321</ele>
        <time>2026-06-15T08:25:03.000Z</time>
        <extensions>
          <ns3:TrackPointExtension>
            <ns3:atemp>23.0</ns3:atemp>
          </ns3:TrackPointExtension>
        </extensions>
      </trkpt>
      <trkpt lat="42.595883421599864959716796875" lon="20.15185567550361156463623046875">
        <ele>1321</ele>
        <time>2026-06-15T08:25:04.000Z</time>
        <extensions>
          <ns3:TrackPointExtension>
            <ns3:atemp>23.0</ns3:atemp>
          </ns3:TrackPointExtension>
        </extensions>
      </trkpt>
      <trkpt lat="42.59587235748767852783203125" lon="20.15182600356638431549072265625">
        <ele>1321.199951171875</ele>
        <time>2026-06-15T08:25:05.000Z</time>
        <extensions>
          <ns3:TrackPointExtension>
            <ns3:atemp>23.0</ns3:atemp>
          </ns3:TrackPointExtension>
        </extensions>
      </trkpt>
      <trkpt lat="42.59586422704160213470458984375" lon="20.1517932303249835968017578125">
        <ele>1321.4000244140625</ele>
        <time>2026-06-15T08:25:06.000Z</time>
        <extensions>
          <ns3:TrackPointExtension>
            <ns3:atemp>23.0</ns3:atemp>
          </ns3:TrackPointExtension>
        </extensions>
      </trkpt>
      <trkpt lat="42.59585668332874774932861328125" lon="20.1517637260258197784423828125">
        <ele>1321.5999755859375</ele>
        <time>2026-06-15T08:25:07.000Z</time>
        <extensions>
          <ns3:TrackPointExtension>
            <ns3:atemp>23.0</ns3:atemp>
          </ns3:TrackPointExtension>
        </extensions>
      </trkpt>
      <trkpt lat="42.5958483852446079254150390625" lon="20.15172726474702358245849609375">
        <ele>1321.800048828125</ele>
        <time>2026-06-15T08:25:08.000Z</time>
        <extensions>
          <ns3:TrackPointExtension>
            <ns3:atemp>23.0</ns3:atemp>
          </ns3:TrackPointExtension>
        </extensions>
      </trkpt>
      <trkpt lat="42.59583924897015094757080078125" lon="20.15168770216405391693115234375">
        <ele>1322</ele>
        <time>2026-06-15T08:25:09.000Z</time>
        <extensions>
          <ns3:TrackPointExtension>
            <ns3:atemp>23.0</ns3:atemp>
          </ns3:TrackPointExtension>
        </extensions>
      </trkpt>
      <trkpt lat="42.59582868777215480804443359375" lon="20.15164344571530818939208984375">
        <ele>1322.4000244140625</ele>
        <time>2026-06-15T08:25:10.000Z</time>
        <extensions>
          <ns3:TrackPointExtension>
            <ns3:atemp>24.0</ns3:atemp>
          </ns3:TrackPointExtension>
        </extensions>
      </trkpt>
      <trkpt lat="42.5958185456693172454833984375" lon="20.1516051404178142547607421875">
        <ele>1322.5999755859375</ele>
        <time>2026-06-15T08:25:11.000Z</time>
        <extensions>
          <ns3:TrackPointExtension>
            <ns3:atemp>23.0</ns3:atemp>
          </ns3:TrackPointExtension>
        </extensions>
      </trkpt>
      <trkpt lat="42.595807649195194244384765625" lon="20.15156515873968601226806640625">
        <ele>1323</ele>
        <time>2026-06-15T08:25:12.000Z</time>
        <extensions>
          <ns3:TrackPointExtension>
            <ns3:atemp>23.0</ns3:atemp>
          </ns3:TrackPointExtension>
        </extensions>
      </trkpt>
      <trkpt lat="42.59579331614077091217041015625" lon="20.15152283012866973876953125">
        <ele>1323.199951171875</ele>
        <time>2026-06-15T08:25:13.000Z</time>
        <extensions>
          <ns3:TrackPointExtension>
            <ns3:atemp>23.0</ns3:atemp>
          </ns3:TrackPointExtension>
        </extensions>
      </trkpt>
      <trkpt lat="42.5957860238850116729736328125" lon="20.15148553065955638885498046875">
        <ele>1323.4000244140625</ele>
        <time>2026-06-15T08:25:14.000Z</time>
        <extensions>
          <ns3:TrackPointExtension>
            <ns3:atemp>23.0</ns3:atemp>
          </ns3:TrackPointExtension>
        </extensions>
      </trkpt>
      <trkpt lat="42.59577755816280841827392578125" lon="20.15145150013267993927001953125">
        <ele>1323.4000244140625</ele>
        <time>2026-06-15T08:25:15.000Z</time>
        <extensions>
          <ns3:TrackPointExtension>
            <ns3:atemp>23.0</ns3:atemp>
          </ns3:TrackPointExtension>
        </extensions>
      </trkpt>
      <trkpt lat="42.59576548822224140167236328125" lon="20.15141948126256465911865234375">
        <ele>1323.4000244140625</ele>
        <time>2026-06-15T08:25:16.000Z</time>
        <extensions>
          <ns3:TrackPointExtension>
            <ns3:atemp>23.0</ns3:atemp>
          </ns3:TrackPointExtension>
        </extensions>
      </trkpt>
      <trkpt lat="42.59575442411005496978759765625" lon="20.1513784937560558319091796875">
        <ele>1323.5999755859375</ele>
        <time>2026-06-15T08:25:17.000Z</time>
        <extensions>
          <ns3:TrackPointExtension>
            <ns3:atemp>23.0</ns3:atemp>
          </ns3:TrackPointExtension>
        </extensions>
      </trkpt>
      <trkpt lat="42.59574805386364459991455078125" lon="20.15134152956306934356689453125">
        <ele>1323.800048828125</ele>
        <time>2026-06-15T08:25:18.000Z</time>
        <extensions>
          <ns3:TrackPointExtension>
            <ns3:atemp>23.0</ns3:atemp>
          </ns3:TrackPointExtension>
        </extensions>
      </trkpt>
      <trkpt lat="42.59574235416948795318603515625" lon="20.151309259235858917236328125">
        <ele>1324</ele>
        <time>2026-06-15T08:25:19.000Z</time>
        <extensions>
          <ns3:TrackPointExtension>
            <ns3:atemp>23.0</ns3:atemp>
          </ns3:TrackPointExtension>
        </extensions>
      </trkpt>
      <trkpt lat="42.595734558999538421630859375" lon="20.15126978047192096710205078125">
        <ele>1324.4000244140625</ele>
        <time>2026-06-15T08:25:20.000Z</time>
        <extensions>
          <ns3:TrackPointExtension>
            <ns3:atemp>23.0</ns3:atemp>
          </ns3:TrackPointExtension>
        </extensions>
      </trkpt>
      <trkpt lat="42.59572626091539859771728515625" lon="20.151232816278934478759765625">
        <ele>1324.5999755859375</ele>
        <time>2026-06-15T08:25:21.000Z</time>
        <extensions>
          <ns3:TrackPointExtension>
            <ns3:atemp>23.0</ns3:atemp>
          </ns3:TrackPointExtension>
        </extensions>
      </trkpt>
      <trkpt lat="42.59571754373610019683837890625" lon="20.15119803138077259063720703125">
        <ele>1324.800048828125</ele>
        <time>2026-06-15T08:25:22.000Z</time>
        <extensions>
          <ns3:TrackPointExtension>
            <ns3:atemp>23.0</ns3:atemp>
          </ns3:TrackPointExtension>
        </extensions>
      </trkpt>
      <trkpt lat="42.595710419118404388427734375" lon="20.15115897171199321746826171875">
        <ele>1325</ele>
        <time>2026-06-15T08:25:23.000Z</time>
        <extensions>
          <ns3:TrackPointExtension>
            <ns3:atemp>23.0</ns3:atemp>
          </ns3:TrackPointExtension>
        </extensions>
      </trkpt>
      <trkpt lat="42.5957018695771694183349609375" lon="20.1511156372725963592529296875">
        <ele>1325.5999755859375</ele>
        <time>2026-06-15T08:25:24.000Z</time>
        <extensions>
          <ns3:TrackPointExtension>
            <ns3:atemp>23.0</ns3:atemp>
          </ns3:TrackPointExtension>
        </extensions>
      </trkpt>
      <trkpt lat="42.5956960022449493408203125" lon="20.15107800252735614776611328125">
        <ele>1325.800048828125</ele>
        <time>2026-06-15T08:25:25.000Z</time>
        <extensions>
          <ns3:TrackPointExtension>
            <ns3:atemp>23.0</ns3:atemp>
          </ns3:TrackPointExtension>
        </extensions>
      </trkpt>
      <trkpt lat="42.5956891290843486785888671875" lon="20.151031315326690673828125">
        <ele>1326.199951171875</ele>
        <time>2026-06-15T08:25:26.000Z</time>
        <extensions>
          <ns3:TrackPointExtension>
            <ns3:atemp>23.0</ns3:atemp>
          </ns3:TrackPointExtension>
        </extensions>
      </trkpt>
      <trkpt lat="42.5956834293901920318603515625" lon="20.15099166892468929290771484375">
        <ele>1326.4000244140625</ele>
        <time>2026-06-15T08:25:27.000Z</time>
        <extensions>
          <ns3:TrackPointExtension>
            <ns3:atemp>23.0</ns3:atemp>
          </ns3:TrackPointExtension>
        </extensions>
      </trkpt>
      <trkpt lat="42.595685608685016632080078125" lon="20.1509513519704341888427734375">
        <ele>1326.800048828125</ele>
        <time>2026-06-15T08:25:28.000Z</time>
        <extensions>
          <ns3:TrackPointExtension>
            <ns3:atemp>23.0</ns3:atemp>
          </ns3:TrackPointExtension>
        </extensions>
      </trkpt>
      <trkpt lat="42.59568368084728717803955078125" lon="20.150912962853908538818359375">
        <ele>1326.800048828125</ele>
        <time>2026-06-15T08:25:29.000Z</time>
        <extensions>
          <ns3:TrackPointExtension>
            <ns3:atemp>23.0</ns3:atemp>
          </ns3:TrackPointExtension>
        </extensions>
      </trkpt>
      <trkpt lat="42.5956790708005428314208984375" lon="20.1508690416812896728515625">
        <ele>1327</ele>
        <time>2026-06-15T08:25:30.000Z</time>
        <extensions>
          <ns3:TrackPointExtension>
            <ns3:atemp>23.0</ns3:atemp>
          </ns3:TrackPointExtension>
        </extensions>
      </trkpt>
      <trkpt lat="42.595675550401210784912109375" lon="20.150831155478954315185546875">
        <ele>1327.199951171875</ele>
        <time>2026-06-15T08:25:31.000Z</time>
        <extensions>
          <ns3:TrackPointExtension>
            <ns3:atemp>23.0</ns3:atemp>
          </ns3:TrackPointExtension>
        </extensions>
      </trkpt>
      <trkpt lat="42.59567328728735446929931640625" lon="20.15079586766660213470458984375">
        <ele>1327.199951171875</ele>
        <time>2026-06-15T08:25:32.000Z</time>
        <extensions>
          <ns3:TrackPointExtension>
            <ns3:atemp>23.0</ns3:atemp>
          </ns3:TrackPointExtension>
        </extensions>
      </trkpt>
      <trkpt lat="42.59566792286932468414306640625" lon="20.15075999312102794647216796875">
        <ele>1327.4000244140625</ele>
        <time>2026-06-15T08:25:33.000Z</time>
        <extensions>
          <ns3:TrackPointExtension>
            <ns3:atemp>23.0</ns3:atemp>
          </ns3:TrackPointExtension>
        </extensions>
      </trkpt>
      <trkpt lat="42.59566557593643665313720703125" lon="20.15072545967996120452880859375">
        <ele>1327.800048828125</ele>
        <time>2026-06-15T08:25:34.000Z</time>
        <extensions>
          <ns3:TrackPointExtension>
            <ns3:atemp>23.0</ns3:atemp>
          </ns3:TrackPointExtension>
        </extensions>
      </trkpt>
      <trkpt lat="42.59565987624228000640869140625" lon="20.1506915129721164703369140625">
        <ele>1328</ele>
        <time>2026-06-15T08:25:35.000Z</time>
        <extensions>
          <ns3:TrackPointExtension>
            <ns3:atemp>23.0</ns3:atemp>
          </ns3:TrackPointExtension>
        </extensions>
      </trkpt>
      <trkpt lat="42.59565535001456737518310546875" lon="20.15065656043589115142822265625">
        <ele>1328.199951171875</ele>
        <time>2026-06-15T08:25:36.000Z</time>
        <extensions>
          <ns3:TrackPointExtension>
            <ns3:atemp>23.0</ns3:atemp>
          </ns3:TrackPointExtension>
        </extensions>
      </trkpt>
      <trkpt lat="42.5956522487103939056396484375" lon="20.1506224460899829864501953125">
        <ele>1328.5999755859375</ele>
        <time>2026-06-15T08:25:37.000Z</time>
        <extensions>
          <ns3:TrackPointExtension>
            <ns3:atemp>23.0</ns3:atemp>
          </ns3:TrackPointExtension>
        </extensions>
      </trkpt>
      <trkpt lat="42.595646381378173828125" lon="20.15058648772537708282470703125">
        <ele>1328.800048828125</ele>
        <time>2026-06-15T08:25:38.000Z</time>
        <extensions>
          <ns3:TrackPointExtension>
            <ns3:atemp>23.0</ns3:atemp>
          </ns3:TrackPointExtension>
        </extensions>
      </trkpt>
      <trkpt lat="42.59564034640789031982421875" lon="20.15055396594107151031494140625">
        <ele>1329</ele>
        <time>2026-06-15T08:25:39.000Z</time>
        <extensions>
          <ns3:TrackPointExtension>
            <ns3:atemp>23.0</ns3:atemp>
          </ns3:TrackPointExtension>
        </extensions>
      </trkpt>
      <trkpt lat="42.5956348143517971038818359375" lon="20.15051943250000476837158203125">
        <ele>1329.4000244140625</ele>
        <time>2026-06-15T08:25:40.000Z</time>
        <extensions>
          <ns3:TrackPointExtension>
            <ns3:atemp>23.0</ns3:atemp>
          </ns3:TrackPointExtension>
        </extensions>
      </trkpt>
      <trkpt lat="42.59562869556248188018798828125" lon="20.15048020519316196441650390625">
        <ele>1329.5999755859375</ele>
        <time>2026-06-15T08:25:41.000Z</time>
        <extensions>
          <ns3:TrackPointExtension>
            <ns3:atemp>23.0</ns3:atemp>
          </ns3:TrackPointExtension>
        </extensions>
      </trkpt>
      <trkpt lat="42.5956235826015472412109375" lon="20.150442235171794891357421875">
        <ele>1329.800048828125</ele>
        <time>2026-06-15T08:25:42.000Z</time>
        <extensions>
          <ns3:TrackPointExtension>
            <ns3:atemp>23.0</ns3:atemp>
          </ns3:TrackPointExtension>
        </extensions>
      </trkpt>
      <trkpt lat="42.5956187210977077484130859375" lon="20.15040510334074497222900390625">
        <ele>1330.199951171875</ele>
        <time>2026-06-15T08:25:43.000Z</time>
        <extensions>
          <ns3:TrackPointExtension>
            <ns3:atemp>23.0</ns3:atemp>
          </ns3:TrackPointExtension>
        </extensions>
      </trkpt>
      <trkpt lat="42.595612518489360809326171875" lon="20.15036587603390216827392578125">
        <ele>1330.4000244140625</ele>
        <time>2026-06-15T08:25:44.000Z</time>
        <extensions>
          <ns3:TrackPointExtension>
            <ns3:atemp>23.0</ns3:atemp>
          </ns3:TrackPointExtension>
        </extensions>
      </trkpt>
      <trkpt lat="42.595607154071331024169921875" lon="20.15033201314508914947509765625">
        <ele>1330.5999755859375</ele>
        <time>2026-06-15T08:25:45.000Z</time>
        <extensions>
          <ns3:TrackPointExtension>
            <ns3:atemp>23.0</ns3:atemp>
          </ns3:TrackPointExtension>
        </extensions>
      </trkpt>
      <trkpt lat="42.5956032983958721160888671875" lon="20.15029571950435638427734375">
        <ele>1331</ele>
        <time>2026-06-15T08:25:46.000Z</time>
        <extensions>
          <ns3:TrackPointExtension>
            <ns3:atemp>23.0</ns3:atemp>
          </ns3:TrackPointExtension>
        </extensions>
      </trkpt>
      <trkpt lat="42.59559608995914459228515625" lon="20.15025791712105274200439453125">
        <ele>1331.4000244140625</ele>
        <time>2026-06-15T08:25:47.000Z</time>
        <extensions>
          <ns3:TrackPointExtension>
            <ns3:atemp>23.0</ns3:atemp>
          </ns3:TrackPointExtension>
        </extensions>
      </trkpt>
      <trkpt lat="42.59558879770338535308837890625" lon="20.15022254548966884613037109375">
        <ele>1331.5999755859375</ele>
        <time>2026-06-15T08:25:48.000Z</time>
        <extensions>
          <ns3:TrackPointExtension>
            <ns3:atemp>23.0</ns3:atemp>
          </ns3:TrackPointExtension>
        </extensions>
      </trkpt>
      <trkpt lat="42.59557865560054779052734375" lon="20.150184743106365203857421875">
        <ele>1331.800048828125</ele>
        <time>2026-06-15T08:25:49.000Z</time>
        <extensions>
          <ns3:TrackPointExtension>
            <ns3:atemp>23.0</ns3:atemp>
          </ns3:TrackPointExtension>
        </extensions>
      </trkpt>
      <trkpt lat="42.5955701060593128204345703125" lon="20.150147192180156707763671875">
        <ele>1332</ele>
        <time>2026-06-15T08:25:50.000Z</time>
        <extensions>
          <ns3:TrackPointExtension>
            <ns3:atemp>23.0</ns3:atemp>
          </ns3:TrackPointExtension>
        </extensions>
      </trkpt>
      <trkpt lat="42.59556029923260211944580078125" lon="20.150112994015216827392578125">
        <ele>1332.199951171875</ele>
        <time>2026-06-15T08:25:51.000Z</time>
        <extensions>
          <ns3:TrackPointExtension>
            <ns3:atemp>23.0</ns3:atemp>
          </ns3:TrackPointExtension>
        </extensions>
      </trkpt>
      <trkpt lat="42.59554789401590824127197265625" lon="20.1500779576599597930908203125">
        <ele>1332.5999755859375</ele>
        <time>2026-06-15T08:25:52.000Z</time>
        <extensions>
          <ns3:TrackPointExtension>
            <ns3:atemp>23.0</ns3:atemp>
          </ns3:TrackPointExtension>
        </extensions>
      </trkpt>
      <trkpt lat="42.59553850628435611724853515625" lon="20.1500457711517810821533203125">
        <ele>1332.800048828125</ele>
        <time>2026-06-15T08:25:53.000Z</time>
        <extensions>
          <ns3:TrackPointExtension>
            <ns3:atemp>23.0</ns3:atemp>
          </ns3:TrackPointExtension>
        </extensions>
      </trkpt>
      <trkpt lat="42.59553381241858005523681640625" lon="20.1500145904719829559326171875">
        <ele>1333.199951171875</ele>
        <time>2026-06-15T08:25:54.000Z</time>
        <extensions>
          <ns3:TrackPointExtension>
            <ns3:atemp>23.0</ns3:atemp>
          </ns3:TrackPointExtension>
        </extensions>
      </trkpt>
      <trkpt lat="42.595529370009899139404296875" lon="20.149985589087009429931640625">
        <ele>1333.5999755859375</ele>
        <time>2026-06-15T08:25:55.000Z</time>
        <extensions>
          <ns3:TrackPointExtension>
            <ns3:atemp>23.0</ns3:atemp>
          </ns3:TrackPointExtension>
        </extensions>
      </trkpt>
      <trkpt lat="42.595525681972503662109375" lon="20.149957425892353057861328125">
        <ele>1333.800048828125</ele>
        <time>2026-06-15T08:25:56.000Z</time>
        <extensions>
          <ns3:TrackPointExtension>
            <ns3:atemp>23.0</ns3:atemp>
          </ns3:TrackPointExtension>
        </extensions>
      </trkpt>
      <trkpt lat="42.595520317554473876953125" lon="20.14993353746831417083740234375">
        <ele>1334</ele>
        <time>2026-06-15T08:25:57.000Z</time>
        <extensions>
          <ns3:TrackPointExtension>
            <ns3:atemp>23.0</ns3:atemp>
          </ns3:TrackPointExtension>
        </extensions>
      </trkpt>
      <trkpt lat="42.595514953136444091796875" lon="20.14990948140621185302734375">
        <ele>1334.199951171875</ele>
        <time>2026-06-15T08:25:58.000Z</time>
        <extensions>
          <ns3:TrackPointExtension>
            <ns3:atemp>23.0</ns3:atemp>
          </ns3:TrackPointExtension>
        </extensions>
      </trkpt>
      <trkpt lat="42.595510594546794891357421875" lon="20.1498935557901859283447265625">
        <ele>1334.199951171875</ele>
        <time>2026-06-15T08:25:59.000Z</time>
        <extensions>
          <ns3:TrackPointExtension>
            <ns3:atemp>23.0</ns3:atemp>
          </ns3:TrackPointExtension>
        </extensions>
      </trkpt>
      <trkpt lat="42.59550631977617740631103515625" lon="20.149878971278667449951171875">
        <ele>1334.4000244140625</ele>
        <time>2026-06-15T08:26:00.000Z</time>
        <extensions>
          <ns3:TrackPointExtension>
            <ns3:atemp>23.0</ns3:atemp>
          </ns3:TrackPointExtension>
        </extensions>
      </trkpt>
      <trkpt lat="42.595502547919750213623046875" lon="20.14986312948167324066162109375">
        <ele>1334.4000244140625</ele>
        <time>2026-06-15T08:26:01.000Z</time>
        <extensions>
          <ns3:TrackPointExtension>
            <ns3:atemp>23.0</ns3:atemp>
          </ns3:TrackPointExtension>
        </extensions>
      </trkpt>
      <trkpt lat="42.5955047272145748138427734375" lon="20.1498560048639774322509765625">
        <ele>1334.5999755859375</ele>
        <time>2026-06-15T08:26:02.000Z</time>
        <extensions>
          <ns3:TrackPointExtension>
            <ns3:atemp>23.0</ns3:atemp>
          </ns3:TrackPointExtension>
        </extensions>
      </trkpt>
      <trkpt lat="42.59550699032843112945556640625" lon="20.1498551666736602783203125">
        <ele>1334.5999755859375</ele>
        <time>2026-06-15T08:26:03.000Z</time>
        <extensions>
          <ns3:TrackPointExtension>
            <ns3:atemp>23.0</ns3:atemp>
          </ns3:TrackPointExtension>
        </extensions>
      </trkpt>
      <trkpt lat="42.5955070741474628448486328125" lon="20.14985508285462856292724609375">
        <ele>1334.800048828125</ele>
        <time>2026-06-15T08:26:04.000Z</time>
        <extensions>
          <ns3:TrackPointExtension>
            <ns3:atemp>23.0</ns3:atemp>
          </ns3:TrackPointExtension>
        </extensions>
      </trkpt>
      <trkpt lat="42.5955070741474628448486328125" lon="20.14985508285462856292724609375">
        <ele>1335</ele>
        <time>2026-06-15T08:26:05.000Z</time>
        <extensions>
          <ns3:TrackPointExtension>
            <ns3:atemp>23.0</ns3:atemp>
          </ns3:TrackPointExtension>
        </extensions>
      </trkpt>
      <trkpt lat="42.5955070741474628448486328125" lon="20.14985508285462856292724609375">
        <ele>1335.199951171875</ele>
        <time>2026-06-15T08:26:06.000Z</time>
        <extensions>
          <ns3:TrackPointExtension>
            <ns3:atemp>23.0</ns3:atemp>
          </ns3:TrackPointExtension>
        </extensions>
      </trkpt>
      <trkpt lat="42.5955070741474628448486328125" lon="20.14985508285462856292724609375">
        <ele>1335.199951171875</ele>
        <time>2026-06-15T08:26:07.000Z</time>
        <extensions>
          <ns3:TrackPointExtension>
            <ns3:atemp>23.0</ns3:atemp>
          </ns3:TrackPointExtension>
        </extensions>
      </trkpt>
      <trkpt lat="42.5955070741474628448486328125" lon="20.14985508285462856292724609375">
        <ele>1335.199951171875</ele>
        <time>2026-06-15T08:26:08.000Z</time>
        <extensions>
          <ns3:TrackPointExtension>
            <ns3:atemp>23.0</ns3:atemp>
          </ns3:TrackPointExtension>
        </extensions>
      </trkpt>
      <trkpt lat="42.5955070741474628448486328125" lon="20.14985508285462856292724609375">
        <ele>1335</ele>
        <time>2026-06-15T08:26:09.000Z</time>
        <extensions>
          <ns3:TrackPointExtension>
            <ns3:atemp>23.0</ns3:atemp>
          </ns3:TrackPointExtension>
        </extensions>
      </trkpt>
      <trkpt lat="42.5955070741474628448486328125" lon="20.14985508285462856292724609375">
        <ele>1335</ele>
        <time>2026-06-15T08:26:10.000Z</time>
        <extensions>
          <ns3:TrackPointExtension>
            <ns3:atemp>23.0</ns3:atemp>
          </ns3:TrackPointExtension>
        </extensions>
      </trkpt>
      <trkpt lat="42.5955070741474628448486328125" lon="20.14985508285462856292724609375">
        <ele>1334.800048828125</ele>
        <time>2026-06-15T08:26:11.000Z</time>
        <extensions>
          <ns3:TrackPointExtension>
            <ns3:atemp>23.0</ns3:atemp>
          </ns3:TrackPointExtension>
        </extensions>
      </trkpt>
      <trkpt lat="42.5955070741474628448486328125" lon="20.14985508285462856292724609375">
        <ele>1334.800048828125</ele>
        <time>2026-06-15T08:26:12.000Z</time>
        <extensions>
          <ns3:TrackPointExtension>
            <ns3:atemp>23.0</ns3:atemp>
          </ns3:TrackPointExtension>
        </extensions>
      </trkpt>
      <trkpt lat="42.5955070741474628448486328125" lon="20.14985508285462856292724609375">
        <ele>1334.5999755859375</ele>
        <time>2026-06-15T08:26:13.000Z</time>
        <extensions>
          <ns3:TrackPointExtension>
            <ns3:atemp>23.0</ns3:atemp>
          </ns3:TrackPointExtension>
        </extensions>
      </trkpt>
      <trkpt lat="42.5955070741474628448486328125" lon="20.14985508285462856292724609375">
        <ele>1334.5999755859375</ele>
        <time>2026-06-15T08:26:14.000Z</time>
        <extensions>
          <ns3:TrackPointExtension>
            <ns3:atemp>23.0</ns3:atemp>
          </ns3:TrackPointExtension>
        </extensions>
      </trkpt>
      <trkpt lat="42.5955070741474628448486328125" lon="20.14985508285462856292724609375">
        <ele>1334.4000244140625</ele>
        <time>2026-06-15T08:26:15.000Z</time>
        <extensions>
          <ns3:TrackPointExtension>
            <ns3:atemp>23.0</ns3:atemp>
          </ns3:TrackPointExtension>
        </extensions>
      </trkpt>
      <trkpt lat="42.5955070741474628448486328125" lon="20.14985508285462856292724609375">
        <ele>1334.4000244140625</ele>
        <time>2026-06-15T08:26:16.000Z</time>
        <extensions>
          <ns3:TrackPointExtension>
            <ns3:atemp>23.0</ns3:atemp>
          </ns3:TrackPointExtension>
        </extensions>
      </trkpt>
      <trkpt lat="42.5955070741474628448486328125" lon="20.14985508285462856292724609375">
        <ele>1334.4000244140625</ele>
        <time>2026-06-15T08:26:17.000Z</time>
        <extensions>
          <ns3:TrackPointExtension>
            <ns3:atemp>23.0</ns3:atemp>
          </ns3:TrackPointExtension>
        </extensions>
      </trkpt>
      <trkpt lat="42.5955070741474628448486328125" lon="20.14985508285462856292724609375">
        <ele>1334.4000244140625</ele>
        <time>2026-06-15T08:26:18.000Z</time>
        <extensions>
          <ns3:TrackPointExtension>
            <ns3:atemp>23.0</ns3:atemp>
          </ns3:TrackPointExtension>
        </extensions>
      </trkpt>
      <trkpt lat="42.5955070741474628448486328125" lon="20.14985508285462856292724609375">
        <ele>1334.4000244140625</ele>
        <time>2026-06-15T08:26:19.000Z</time>
        <extensions>
          <ns3:TrackPointExtension>
            <ns3:atemp>23.0</ns3:atemp>
          </ns3:TrackPointExtension>
        </extensions>
      </trkpt>
      <trkpt lat="42.5955070741474628448486328125" lon="20.14985508285462856292724609375">
        <ele>1334.4000244140625</ele>
        <time>2026-06-15T08:26:20.000Z</time>
        <extensions>
          <ns3:TrackPointExtension>
            <ns3:atemp>23.0</ns3:atemp>
          </ns3:TrackPointExtension>
        </extensions>
      </trkpt>
      <trkpt lat="42.5955070741474628448486328125" lon="20.14985508285462856292724609375">
        <ele>1334.4000244140625</ele>
        <time>2026-06-15T08:26:21.000Z</time>
        <extensions>
          <ns3:TrackPointExtension>
            <ns3:atemp>23.0</ns3:atemp>
          </ns3:TrackPointExtension>
        </extensions>
      </trkpt>
      <trkpt lat="42.5955070741474628448486328125" lon="20.14985508285462856292724609375">
        <ele>1334.4000244140625</ele>
        <time>2026-06-15T08:26:22.000Z</time>
        <extensions>
          <ns3:TrackPointExtension>
            <ns3:atemp>23.0</ns3:atemp>
          </ns3:TrackPointExtension>
        </extensions>
      </trkpt>
      <trkpt lat="42.5955070741474628448486328125" lon="20.14985508285462856292724609375">
        <ele>1334.4000244140625</ele>
        <time>2026-06-15T08:26:23.000Z</time>
        <extensions>
          <ns3:TrackPointExtension>
            <ns3:atemp>23.0</ns3:atemp>
          </ns3:TrackPointExtension>
        </extensions>
      </trkpt>
      <trkpt lat="42.5955070741474628448486328125" lon="20.14985508285462856292724609375">
        <ele>1334.5999755859375</ele>
        <time>2026-06-15T08:26:24.000Z</time>
        <extensions>
          <ns3:TrackPointExtension>
            <ns3:atemp>23.0</ns3:atemp>
          </ns3:TrackPointExtension>
        </extensions>
      </trkpt>
      <trkpt lat="42.595501877367496490478515625" lon="20.1498523168265819549560546875">
        <ele>1334.5999755859375</ele>
        <time>2026-06-15T08:26:25.000Z</time>
        <extensions>
          <ns3:TrackPointExtension>
            <ns3:atemp>23.0</ns3:atemp>
          </ns3:TrackPointExtension>
        </extensions>
      </trkpt>
      <trkpt lat="42.59549357928335666656494140625" lon="20.1498377323150634765625">
        <ele>1334.5999755859375</ele>
        <time>2026-06-15T08:26:26.000Z</time>
        <extensions>
          <ns3:TrackPointExtension>
            <ns3:atemp>23.0</ns3:atemp>
          </ns3:TrackPointExtension>
        </extensions>
      </trkpt>
      <trkpt lat="42.59549408219754695892333984375" lon="20.14983597211539745330810546875">
        <ele>1334.5999755859375</ele>
        <time>2026-06-15T08:26:27.000Z</time>
        <extensions>
          <ns3:TrackPointExtension>
            <ns3:atemp>23.0</ns3:atemp>
          </ns3:TrackPointExtension>
        </extensions>
      </trkpt>
      <trkpt lat="42.59549416601657867431640625" lon="20.14983597211539745330810546875">
        <ele>1334.5999755859375</ele>
        <time>2026-06-15T08:26:28.000Z</time>
        <extensions>
          <ns3:TrackPointExtension>
            <ns3:atemp>23.0</ns3:atemp>
          </ns3:TrackPointExtension>
        </extensions>
      </trkpt>
      <trkpt lat="42.59549416601657867431640625" lon="20.14983597211539745330810546875">
        <ele>1334.800048828125</ele>
        <time>2026-06-15T08:26:29.000Z</time>
        <extensions>
          <ns3:TrackPointExtension>
            <ns3:atemp>23.0</ns3:atemp>
          </ns3:TrackPointExtension>
        </extensions>
      </trkpt>
      <trkpt lat="42.59549416601657867431640625" lon="20.14983597211539745330810546875">
        <ele>1334.800048828125</ele>
        <time>2026-06-15T08:26:30.000Z</time>
        <extensions>
          <ns3:TrackPointExtension>
            <ns3:atemp>23.0</ns3:atemp>
          </ns3:TrackPointExtension>
        </extensions>
      </trkpt>
      <trkpt lat="42.59549416601657867431640625" lon="20.14983597211539745330810546875">
        <ele>1335</ele>
        <time>2026-06-15T08:26:31.000Z</time>
        <extensions>
          <ns3:TrackPointExtension>
            <ns3:atemp>23.0</ns3:atemp>
          </ns3:TrackPointExtension>
        </extensions>
      </trkpt>
      <trkpt lat="42.59549416601657867431640625" lon="20.14983597211539745330810546875">
        <ele>1335</ele>
        <time>2026-06-15T08:26:32.000Z</time>
        <extensions>
          <ns3:TrackPointExtension>
            <ns3:atemp>23.0</ns3:atemp>
          </ns3:TrackPointExtension>
        </extensions>
      </trkpt>
      <trkpt lat="42.59549416601657867431640625" lon="20.14983597211539745330810546875">
        <ele>1335</ele>
        <time>2026-06-15T08:26:33.000Z</time>
        <extensions>
          <ns3:TrackPointExtension>
            <ns3:atemp>23.0</ns3:atemp>
          </ns3:TrackPointExtension>
        </extensions>
      </trkpt>
      <trkpt lat="42.59549416601657867431640625" lon="20.14983597211539745330810546875">
        <ele>1335</ele>
        <time>2026-06-15T08:26:34.000Z</time>
        <extensions>
          <ns3:TrackPointExtension>
            <ns3:atemp>23.0</ns3:atemp>
          </ns3:TrackPointExtension>
        </extensions>
      </trkpt>
      <trkpt lat="42.59549416601657867431640625" lon="20.14983597211539745330810546875">
        <ele>1335.199951171875</ele>
        <time>2026-06-15T08:26:35.000Z</time>
        <extensions>
          <ns3:TrackPointExtension>
            <ns3:atemp>23.0</ns3:atemp>
          </ns3:TrackPointExtension>
        </extensions>
      </trkpt>
      <trkpt lat="42.59549416601657867431640625" lon="20.14983597211539745330810546875">
        <ele>1335.199951171875</ele>
        <time>2026-06-15T08:26:36.000Z</time>
        <extensions>
          <ns3:TrackPointExtension>
            <ns3:atemp>23.0</ns3:atemp>
          </ns3:TrackPointExtension>
        </extensions>
      </trkpt>
      <trkpt lat="42.59549416601657867431640625" lon="20.14983597211539745330810546875">
        <ele>1335.199951171875</ele>
        <time>2026-06-15T08:26:37.000Z</time>
        <extensions>
          <ns3:TrackPointExtension>
            <ns3:atemp>23.0</ns3:atemp>
          </ns3:TrackPointExtension>
        </extensions>
      </trkpt>
      <trkpt lat="42.59549416601657867431640625" lon="20.14983597211539745330810546875">
        <ele>1335.4000244140625</ele>
        <time>2026-06-15T08:26:38.000Z</time>
        <extensions>
          <ns3:TrackPointExtension>
            <ns3:atemp>23.0</ns3:atemp>
          </ns3:TrackPointExtension>
        </extensions>
      </trkpt>
      <trkpt lat="42.59549416601657867431640625" lon="20.14983597211539745330810546875">
        <ele>1335.4000244140625</ele>
        <time>2026-06-15T08:26:39.000Z</time>
        <extensions>
          <ns3:TrackPointExtension>
            <ns3:atemp>23.0</ns3:atemp>
          </ns3:TrackPointExtension>
        </extensions>
      </trkpt>
      <trkpt lat="42.59549416601657867431640625" lon="20.14983597211539745330810546875">
        <ele>1335.4000244140625</ele>
        <time>2026-06-15T08:26:40.000Z</time>
        <extensions>
          <ns3:TrackPointExtension>
            <ns3:atemp>23.0</ns3:atemp>
          </ns3:TrackPointExtension>
        </extensions>
      </trkpt>
      <trkpt lat="42.59549416601657867431640625" lon="20.14983597211539745330810546875">
        <ele>1335.5999755859375</ele>
        <time>2026-06-15T08:26:41.000Z</time>
        <extensions>
          <ns3:TrackPointExtension>
            <ns3:atemp>23.0</ns3:atemp>
          </ns3:TrackPointExtension>
        </extensions>
      </trkpt>
      <trkpt lat="42.59549416601657867431640625" lon="20.14983597211539745330810546875">
        <ele>1335.5999755859375</ele>
        <time>2026-06-15T08:26:42.000Z</time>
        <extensions>
          <ns3:TrackPointExtension>
            <ns3:atemp>23.0</ns3:atemp>
          </ns3:TrackPointExtension>
        </extensions>
      </trkpt>
      <trkpt lat="42.59549416601657867431640625" lon="20.14983597211539745330810546875">
        <ele>1335.5999755859375</ele>
        <time>2026-06-15T08:26:43.000Z</time>
        <extensions>
          <ns3:TrackPointExtension>
            <ns3:atemp>23.0</ns3:atemp>
          </ns3:TrackPointExtension>
        </extensions>
      </trkpt>
      <trkpt lat="42.59549416601657867431640625" lon="20.14983597211539745330810546875">
        <ele>1335.5999755859375</ele>
        <time>2026-06-15T08:26:44.000Z</time>
        <extensions>
          <ns3:TrackPointExtension>
            <ns3:atemp>23.0</ns3:atemp>
          </ns3:TrackPointExtension>
        </extensions>
      </trkpt>
      <trkpt lat="42.59549416601657867431640625" lon="20.14983597211539745330810546875">
        <ele>1335.5999755859375</ele>
        <time>2026-06-15T08:26:45.000Z</time>
        <extensions>
          <ns3:TrackPointExtension>
            <ns3:atemp>23.0</ns3:atemp>
          </ns3:TrackPointExtension>
        </extensions>
      </trkpt>
      <trkpt lat="42.59549416601657867431640625" lon="20.14983597211539745330810546875">
        <ele>1335.5999755859375</ele>
        <time>2026-06-15T08:26:46.000Z</time>
        <extensions>
          <ns3:TrackPointExtension>
            <ns3:atemp>23.0</ns3:atemp>
          </ns3:TrackPointExtension>
        </extensions>
      </trkpt>
      <trkpt lat="42.59549416601657867431640625" lon="20.14983597211539745330810546875">
        <ele>1335.5999755859375</ele>
        <time>2026-06-15T08:26:47.000Z</time>
        <extensions>
          <ns3:TrackPointExtension>
            <ns3:atemp>23.0</ns3:atemp>
          </ns3:TrackPointExtension>
        </extensions>
      </trkpt>
      <trkpt lat="42.59549416601657867431640625" lon="20.14983597211539745330810546875">
        <ele>1335.5999755859375</ele>
        <time>2026-06-15T08:26:48.000Z</time>
        <extensions>
          <ns3:TrackPointExtension>
            <ns3:atemp>23.0</ns3:atemp>
          </ns3:TrackPointExtension>
        </extensions>
      </trkpt>
      <trkpt lat="42.59549416601657867431640625" lon="20.14983597211539745330810546875">
        <ele>1335.5999755859375</ele>
        <time>2026-06-15T08:26:49.000Z</time>
        <extensions>
          <ns3:TrackPointExtension>
            <ns3:atemp>23.0</ns3:atemp>
          </ns3:TrackPointExtension>
        </extensions>
      </trkpt>
      <trkpt lat="42.59549416601657867431640625" lon="20.14983597211539745330810546875">
        <ele>1335.5999755859375</ele>
        <time>2026-06-15T08:26:50.000Z</time>
        <extensions>
          <ns3:TrackPointExtension>
            <ns3:atemp>23.0</ns3:atemp>
          </ns3:TrackPointExtension>
        </extensions>
      </trkpt>
      <trkpt lat="42.59549416601657867431640625" lon="20.14983597211539745330810546875">
        <ele>1335.800048828125</ele>
        <time>2026-06-15T08:26:51.000Z</time>
        <extensions>
          <ns3:TrackPointExtension>
            <ns3:atemp>23.0</ns3:atemp>
          </ns3:TrackPointExtension>
        </extensions>
      </trkpt>
      <trkpt lat="42.59549416601657867431640625" lon="20.14983597211539745330810546875">
        <ele>1335.5999755859375</ele>
        <time>2026-06-15T08:26:52.000Z</time>
        <extensions>
          <ns3:TrackPointExtension>
            <ns3:atemp>23.0</ns3:atemp>
          </ns3:TrackPointExtension>
        </extensions>
      </trkpt>
      <trkpt lat="42.59549416601657867431640625" lon="20.14983597211539745330810546875">
        <ele>1335.5999755859375</ele>
        <time>2026-06-15T08:26:53.000Z</time>
        <extensions>
          <ns3:TrackPointExtension>
            <ns3:atemp>23.0</ns3:atemp>
          </ns3:TrackPointExtension>
        </extensions>
      </trkpt>
      <trkpt lat="42.59549416601657867431640625" lon="20.14983597211539745330810546875">
        <ele>1335.5999755859375</ele>
        <time>2026-06-15T08:26:54.000Z</time>
        <extensions>
          <ns3:TrackPointExtension>
            <ns3:atemp>23.0</ns3:atemp>
          </ns3:TrackPointExtension>
        </extensions>
      </trkpt>
      <trkpt lat="42.59549416601657867431640625" lon="20.14983597211539745330810546875">
        <ele>1335.5999755859375</ele>
        <time>2026-06-15T08:26:55.000Z</time>
        <extensions>
          <ns3:TrackPointExtension>
            <ns3:atemp>23.0</ns3:atemp>
          </ns3:TrackPointExtension>
        </extensions>
      </trkpt>
      <trkpt lat="42.59549416601657867431640625" lon="20.14983597211539745330810546875">
        <ele>1335.5999755859375</ele>
        <time>2026-06-15T08:26:56.000Z</time>
        <extensions>
          <ns3:TrackPointExtension>
            <ns3:atemp>23.0</ns3:atemp>
          </ns3:TrackPointExtension>
        </extensions>
      </trkpt>
      <trkpt lat="42.59549416601657867431640625" lon="20.14983597211539745330810546875">
        <ele>1335.5999755859375</ele>
        <time>2026-06-15T08:26:57.000Z</time>
        <extensions>
          <ns3:TrackPointExtension>
            <ns3:atemp>23.0</ns3:atemp>
          </ns3:TrackPointExtension>
        </extensions>
      </trkpt>
      <trkpt lat="42.59549416601657867431640625" lon="20.14983597211539745330810546875">
        <ele>1335.5999755859375</ele>
        <time>2026-06-15T08:26:58.000Z</time>
        <extensions>
          <ns3:TrackPointExtension>
            <ns3:atemp>23.0</ns3:atemp>
          </ns3:TrackPointExtension>
        </extensions>
      </trkpt>
      <trkpt lat="42.59549416601657867431640625" lon="20.14983597211539745330810546875">
        <ele>1335.5999755859375</ele>
        <time>2026-06-15T08:26:59.000Z</time>
        <extensions>
          <ns3:TrackPointExtension>
            <ns3:atemp>23.0</ns3:atemp>
          </ns3:TrackPointExtension>
        </extensions>
      </trkpt>
      <trkpt lat="42.59549416601657867431640625" lon="20.14983597211539745330810546875">
        <ele>1335.4000244140625</ele>
        <time>2026-06-15T08:27:00.000Z</time>
        <extensions>
          <ns3:TrackPointExtension>
            <ns3:atemp>23.0</ns3:atemp>
          </ns3:TrackPointExtension>
        </extensions>
      </trkpt>
      <trkpt lat="42.59549416601657867431640625" lon="20.14983597211539745330810546875">
        <ele>1335.4000244140625</ele>
        <time>2026-06-15T08:27:01.000Z</time>
        <extensions>
          <ns3:TrackPointExtension>
            <ns3:atemp>23.0</ns3:atemp>
          </ns3:TrackPointExtension>
        </extensions>
      </trkpt>
      <trkpt lat="42.59549416601657867431640625" lon="20.14983597211539745330810546875">
        <ele>1335.4000244140625</ele>
        <time>2026-06-15T08:27:02.000Z</time>
        <extensions>
          <ns3:TrackPointExtension>
            <ns3:atemp>23.0</ns3:atemp>
          </ns3:TrackPointExtension>
        </extensions>
      </trkpt>
      <trkpt lat="42.59549416601657867431640625" lon="20.14983597211539745330810546875">
        <ele>1335.4000244140625</ele>
        <time>2026-06-15T08:27:03.000Z</time>
        <extensions>
          <ns3:TrackPointExtension>
            <ns3:atemp>23.0</ns3:atemp>
          </ns3:TrackPointExtension>
        </extensions>
      </trkpt>
      <trkpt lat="42.59549416601657867431640625" lon="20.14983597211539745330810546875">
        <ele>1335.4000244140625</ele>
        <time>2026-06-15T08:27:04.000Z</time>
        <extensions>
          <ns3:TrackPointExtension>
            <ns3:atemp>23.0</ns3:atemp>
          </ns3:TrackPointExtension>
        </extensions>
      </trkpt>
      <trkpt lat="42.59549416601657867431640625" lon="20.14983597211539745330810546875">
        <ele>1335.4000244140625</ele>
        <time>2026-06-15T08:27:05.000Z</time>
        <extensions>
          <ns3:TrackPointExtension>
            <ns3:atemp>23.0</ns3:atemp>
          </ns3:TrackPointExtension>
        </extensions>
      </trkpt>
      <trkpt lat="42.59549416601657867431640625" lon="20.14983597211539745330810546875">
        <ele>1335.4000244140625</ele>
        <time>2026-06-15T08:27:06.000Z</time>
        <extensions>
          <ns3:TrackPointExtension>
            <ns3:atemp>23.0</ns3:atemp>
          </ns3:TrackPointExtension>
        </extensions>
      </trkpt>
      <trkpt lat="42.59549416601657867431640625" lon="20.14983597211539745330810546875">
        <ele>1335.4000244140625</ele>
        <time>2026-06-15T08:27:07.000Z</time>
        <extensions>
          <ns3:TrackPointExtension>
            <ns3:atemp>23.0</ns3:atemp>
          </ns3:TrackPointExtension>
        </extensions>
      </trkpt>
      <trkpt lat="42.59549416601657867431640625" lon="20.14983597211539745330810546875">
        <ele>1335.4000244140625</ele>
        <time>2026-06-15T08:27:08.000Z</time>
        <extensions>
          <ns3:TrackPointExtension>
            <ns3:atemp>23.0</ns3:atemp>
          </ns3:TrackPointExtension>
        </extensions>
      </trkpt>
      <trkpt lat="42.59549416601657867431640625" lon="20.14983597211539745330810546875">
        <ele>1335.4000244140625</ele>
        <time>2026-06-15T08:27:09.000Z</time>
        <extensions>
          <ns3:TrackPointExtension>
            <ns3:atemp>23.0</ns3:atemp>
          </ns3:TrackPointExtension>
        </extensions>
      </trkpt>
      <trkpt lat="42.59549416601657867431640625" lon="20.14983597211539745330810546875">
        <ele>1335.4000244140625</ele>
        <time>2026-06-15T08:27:10.000Z</time>
        <extensions>
          <ns3:TrackPointExtension>
            <ns3:atemp>23.0</ns3:atemp>
          </ns3:TrackPointExtension>
        </extensions>
      </trkpt>
      <trkpt lat="42.59549416601657867431640625" lon="20.14983597211539745330810546875">
        <ele>1335.4000244140625</ele>
        <time>2026-06-15T08:27:11.000Z</time>
        <extensions>
          <ns3:TrackPointExtension>
            <ns3:atemp>23.0</ns3:atemp>
          </ns3:TrackPointExtension>
        </extensions>
      </trkpt>
      <trkpt lat="42.59549416601657867431640625" lon="20.14983597211539745330810546875">
        <ele>1335.4000244140625</ele>
        <time>2026-06-15T08:27:12.000Z</time>
        <extensions>
          <ns3:TrackPointExtension>
            <ns3:atemp>23.0</ns3:atemp>
          </ns3:TrackPointExtension>
        </extensions>
      </trkpt>
      <trkpt lat="42.59549416601657867431640625" lon="20.14983597211539745330810546875">
        <ele>1335.4000244140625</ele>
        <time>2026-06-15T08:27:13.000Z</time>
        <extensions>
          <ns3:TrackPointExtension>
            <ns3:atemp>23.0</ns3:atemp>
          </ns3:TrackPointExtension>
        </extensions>
      </trkpt>
      <trkpt lat="42.59549416601657867431640625" lon="20.14983597211539745330810546875">
        <ele>1335.4000244140625</ele>
        <time>2026-06-15T08:27:14.000Z</time>
        <extensions>
          <ns3:TrackPointExtension>
            <ns3:atemp>23.0</ns3:atemp>
          </ns3:TrackPointExtension>
        </extensions>
      </trkpt>
      <trkpt lat="42.59549416601657867431640625" lon="20.14983597211539745330810546875">
        <ele>1335.4000244140625</ele>
        <time>2026-06-15T08:27:15.000Z</time>
        <extensions>
          <ns3:TrackPointExtension>
            <ns3:atemp>23.0</ns3:atemp>
          </ns3:TrackPointExtension>
        </extensions>
      </trkpt>
      <trkpt lat="42.59549416601657867431640625" lon="20.14983597211539745330810546875">
        <ele>1335.4000244140625</ele>
        <time>2026-06-15T08:27:16.000Z</time>
        <extensions>
          <ns3:TrackPointExtension>
            <ns3:atemp>23.0</ns3:atemp>
          </ns3:TrackPointExtension>
        </extensions>
      </trkpt>
      <trkpt lat="42.5954841077327728271484375" lon="20.1498337090015411376953125">
        <ele>1335.4000244140625</ele>
        <time>2026-06-15T08:27:17.000Z</time>
        <extensions>
          <ns3:TrackPointExtension>
            <ns3:atemp>23.0</ns3:atemp>
          </ns3:TrackPointExtension>
        </extensions>
      </trkpt>
      <trkpt lat="42.59547832421958446502685546875" lon="20.14982189051806926727294921875">
        <ele>1335.4000244140625</ele>
        <time>2026-06-15T08:27:18.000Z</time>
        <extensions>
          <ns3:TrackPointExtension>
            <ns3:atemp>23.0</ns3:atemp>
          </ns3:TrackPointExtension>
        </extensions>
      </trkpt>
      <trkpt lat="42.595478408038616180419921875" lon="20.14982189051806926727294921875">
        <ele>1335.4000244140625</ele>
        <time>2026-06-15T08:27:19.000Z</time>
        <extensions>
          <ns3:TrackPointExtension>
            <ns3:atemp>23.0</ns3:atemp>
          </ns3:TrackPointExtension>
        </extensions>
      </trkpt>
      <trkpt lat="42.595478408038616180419921875" lon="20.14982189051806926727294921875">
        <ele>1335.4000244140625</ele>
        <time>2026-06-15T08:27:20.000Z</time>
        <extensions>
          <ns3:TrackPointExtension>
            <ns3:atemp>23.0</ns3:atemp>
          </ns3:TrackPointExtension>
        </extensions>
      </trkpt>
      <trkpt lat="42.595478408038616180419921875" lon="20.14982189051806926727294921875">
        <ele>1335.4000244140625</ele>
        <time>2026-06-15T08:27:21.000Z</time>
        <extensions>
          <ns3:TrackPointExtension>
            <ns3:atemp>23.0</ns3:atemp>
          </ns3:TrackPointExtension>
        </extensions>
      </trkpt>
      <trkpt lat="42.595478408038616180419921875" lon="20.14982189051806926727294921875">
        <ele>1335.4000244140625</ele>
        <time>2026-06-15T08:27:22.000Z</time>
        <extensions>
          <ns3:TrackPointExtension>
            <ns3:atemp>23.0</ns3:atemp>
          </ns3:TrackPointExtension>
        </extensions>
      </trkpt>
      <trkpt lat="42.595478408038616180419921875" lon="20.14982189051806926727294921875">
        <ele>1335.4000244140625</ele>
        <time>2026-06-15T08:27:23.000Z</time>
        <extensions>
          <ns3:TrackPointExtension>
            <ns3:atemp>23.0</ns3:atemp>
          </ns3:TrackPointExtension>
        </extensions>
      </trkpt>
      <trkpt lat="42.595478408038616180419921875" lon="20.14982189051806926727294921875">
        <ele>1335.4000244140625</ele>
        <time>2026-06-15T08:27:24.000Z</time>
        <extensions>
          <ns3:TrackPointExtension>
            <ns3:atemp>23.0</ns3:atemp>
          </ns3:TrackPointExtension>
        </extensions>
      </trkpt>
      <trkpt lat="42.595478408038616180419921875" lon="20.14982189051806926727294921875">
        <ele>1335.4000244140625</ele>
        <time>2026-06-15T08:27:25.000Z</time>
        <extensions>
          <ns3:TrackPointExtension>
            <ns3:atemp>23.0</ns3:atemp>
          </ns3:TrackPointExtension>
        </extensions>
      </trkpt>
      <trkpt lat="42.595478408038616180419921875" lon="20.14982189051806926727294921875">
        <ele>1335.4000244140625</ele>
        <time>2026-06-15T08:27:26.000Z</time>
        <extensions>
          <ns3:TrackPointExtension>
            <ns3:atemp>23.0</ns3:atemp>
          </ns3:TrackPointExtension>
        </extensions>
      </trkpt>
      <trkpt lat="42.595478408038616180419921875" lon="20.14982189051806926727294921875">
        <ele>1335.4000244140625</ele>
        <time>2026-06-15T08:27:27.000Z</time>
        <extensions>
          <ns3:TrackPointExtension>
            <ns3:atemp>23.0</ns3:atemp>
          </ns3:TrackPointExtension>
        </extensions>
      </trkpt>
      <trkpt lat="42.595478408038616180419921875" lon="20.14982189051806926727294921875">
        <ele>1335.4000244140625</ele>
        <time>2026-06-15T08:27:28.000Z</time>
        <extensions>
          <ns3:TrackPointExtension>
            <ns3:atemp>23.0</ns3:atemp>
          </ns3:TrackPointExtension>
        </extensions>
      </trkpt>
      <trkpt lat="42.595478408038616180419921875" lon="20.14982189051806926727294921875">
        <ele>1335.4000244140625</ele>
        <time>2026-06-15T08:27:29.000Z</time>
        <extensions>
          <ns3:TrackPointExtension>
            <ns3:atemp>23.0</ns3:atemp>
          </ns3:TrackPointExtension>
        </extensions>
      </trkpt>
      <trkpt lat="42.595478408038616180419921875" lon="20.14982189051806926727294921875">
        <ele>1335.4000244140625</ele>
        <time>2026-06-15T08:27:30.000Z</time>
        <extensions>
          <ns3:TrackPointExtension>
            <ns3:atemp>23.0</ns3:atemp>
          </ns3:TrackPointExtension>
        </extensions>
      </trkpt>
      <trkpt lat="42.595478408038616180419921875" lon="20.14982189051806926727294921875">
        <ele>1335.4000244140625</ele>
        <time>2026-06-15T08:27:31.000Z</time>
        <extensions>
          <ns3:TrackPointExtension>
            <ns3:atemp>23.0</ns3:atemp>
          </ns3:TrackPointExtension>
        </extensions>
      </trkpt>
      <trkpt lat="42.595478408038616180419921875" lon="20.14982189051806926727294921875">
        <ele>1335.4000244140625</ele>
        <time>2026-06-15T08:27:32.000Z</time>
        <extensions>
          <ns3:TrackPointExtension>
            <ns3:atemp>23.0</ns3:atemp>
          </ns3:TrackPointExtension>
        </extensions>
      </trkpt>
      <trkpt lat="42.595478408038616180419921875" lon="20.14982189051806926727294921875">
        <ele>1335.4000244140625</ele>
        <time>2026-06-15T08:27:33.000Z</time>
        <extensions>
          <ns3:TrackPointExtension>
            <ns3:atemp>23.0</ns3:atemp>
          </ns3:TrackPointExtension>
        </extensions>
      </trkpt>
      <trkpt lat="42.595478408038616180419921875" lon="20.14982189051806926727294921875">
        <ele>1335.4000244140625</ele>
        <time>2026-06-15T08:27:34.000Z</time>
        <extensions>
          <ns3:TrackPointExtension>
            <ns3:atemp>23.0</ns3:atemp>
          </ns3:TrackPointExtension>
        </extensions>
      </trkpt>
      <trkpt lat="42.595478408038616180419921875" lon="20.14982189051806926727294921875">
        <ele>1335.4000244140625</ele>
        <time>2026-06-15T08:27:35.000Z</time>
        <extensions>
          <ns3:TrackPointExtension>
            <ns3:atemp>23.0</ns3:atemp>
          </ns3:TrackPointExtension>
        </extensions>
      </trkpt>
      <trkpt lat="42.595478408038616180419921875" lon="20.14982189051806926727294921875">
        <ele>1335.4000244140625</ele>
        <time>2026-06-15T08:27:36.000Z</time>
        <extensions>
          <ns3:TrackPointExtension>
            <ns3:atemp>23.0</ns3:atemp>
          </ns3:TrackPointExtension>
        </extensions>
      </trkpt>
      <trkpt lat="42.595478408038616180419921875" lon="20.14982189051806926727294921875">
        <ele>1335.4000244140625</ele>
        <time>2026-06-15T08:27:37.000Z</time>
        <extensions>
          <ns3:TrackPointExtension>
            <ns3:atemp>23.0</ns3:atemp>
          </ns3:TrackPointExtension>
        </extensions>
      </trkpt>
      <trkpt lat="42.595478408038616180419921875" lon="20.14982189051806926727294921875">
        <ele>1335.4000244140625</ele>
        <time>2026-06-15T08:27:38.000Z</time>
        <extensions>
          <ns3:TrackPointExtension>
            <ns3:atemp>23.0</ns3:atemp>
          </ns3:TrackPointExtension>
        </extensions>
      </trkpt>
      <trkpt lat="42.595478408038616180419921875" lon="20.14982189051806926727294921875">
        <ele>1335.4000244140625</ele>
        <time>2026-06-15T08:27:39.000Z</time>
        <extensions>
          <ns3:TrackPointExtension>
            <ns3:atemp>23.0</ns3:atemp>
          </ns3:TrackPointExtension>
        </extensions>
      </trkpt>
      <trkpt lat="42.595478408038616180419921875" lon="20.14982189051806926727294921875">
        <ele>1335.4000244140625</ele>
        <time>2026-06-15T08:27:40.000Z</time>
        <extensions>
          <ns3:TrackPointExtension>
            <ns3:atemp>23.0</ns3:atemp>
          </ns3:TrackPointExtension>
        </extensions>
      </trkpt>
      <trkpt lat="42.595478408038616180419921875" lon="20.14982189051806926727294921875">
        <ele>1335.4000244140625</ele>
        <time>2026-06-15T08:27:41.000Z</time>
        <extensions>
          <ns3:TrackPointExtension>
            <ns3:atemp>23.0</ns3:atemp>
          </ns3:TrackPointExtension>
        </extensions>
      </trkpt>
      <trkpt lat="42.595478408038616180419921875" lon="20.14982189051806926727294921875">
        <ele>1335.4000244140625</ele>
        <time>2026-06-15T08:27:42.000Z</time>
        <extensions>
          <ns3:TrackPointExtension>
            <ns3:atemp>23.0</ns3:atemp>
          </ns3:TrackPointExtension>
        </extensions>
      </trkpt>
      <trkpt lat="42.595478408038616180419921875" lon="20.14982189051806926727294921875">
        <ele>1335.4000244140625</ele>
        <time>2026-06-15T08:27:43.000Z</time>
        <extensions>
          <ns3:TrackPointExtension>
            <ns3:atemp>23.0</ns3:atemp>
          </ns3:TrackPointExtension>
        </extensions>
      </trkpt>
      <trkpt lat="42.595478408038616180419921875" lon="20.14982189051806926727294921875">
        <ele>1335.4000244140625</ele>
        <time>2026-06-15T08:27:44.000Z</time>
        <extensions>
          <ns3:TrackPointExtension>
            <ns3:atemp>23.0</ns3:atemp>
          </ns3:TrackPointExtension>
        </extensions>
      </trkpt>
      <trkpt lat="42.595478408038616180419921875" lon="20.14982189051806926727294921875">
        <ele>1335.4000244140625</ele>
        <time>2026-06-15T08:27:45.000Z</time>
        <extensions>
          <ns3:TrackPointExtension>
            <ns3:atemp>23.0</ns3:atemp>
          </ns3:TrackPointExtension>
        </extensions>
      </trkpt>
      <trkpt lat="42.595478408038616180419921875" lon="20.14982189051806926727294921875">
        <ele>1335.4000244140625</ele>
        <time>2026-06-15T08:27:46.000Z</time>
        <extensions>
          <ns3:TrackPointExtension>
            <ns3:atemp>23.0</ns3:atemp>
          </ns3:TrackPointExtension>
        </extensions>
      </trkpt>
      <trkpt lat="42.595478408038616180419921875" lon="20.14982189051806926727294921875">
        <ele>1335.4000244140625</ele>
        <time>2026-06-15T08:27:47.000Z</time>
        <extensions>
          <ns3:TrackPointExtension>
            <ns3:atemp>23.0</ns3:atemp>
          </ns3:TrackPointExtension>
        </extensions>
      </trkpt>
      <trkpt lat="42.595478408038616180419921875" lon="20.14982189051806926727294921875">
        <ele>1335.4000244140625</ele>
        <time>2026-06-15T08:27:48.000Z</time>
        <extensions>
          <ns3:TrackPointExtension>
            <ns3:atemp>23.0</ns3:atemp>
          </ns3:TrackPointExtension>
        </extensions>
      </trkpt>
      <trkpt lat="42.595478408038616180419921875" lon="20.14982189051806926727294921875">
        <ele>1335.4000244140625</ele>
        <time>2026-06-15T08:27:49.000Z</time>
        <extensions>
          <ns3:TrackPointExtension>
            <ns3:atemp>23.0</ns3:atemp>
          </ns3:TrackPointExtension>
        </extensions>
      </trkpt>
      <trkpt lat="42.595478408038616180419921875" lon="20.14982189051806926727294921875">
        <ele>1335.4000244140625</ele>
        <time>2026-06-15T08:27:50.000Z</time>
        <extensions>
          <ns3:TrackPointExtension>
            <ns3:atemp>23.0</ns3:atemp>
          </ns3:TrackPointExtension>
        </extensions>
      </trkpt>
      <trkpt lat="42.595478408038616180419921875" lon="20.14982189051806926727294921875">
        <ele>1335.4000244140625</ele>
        <time>2026-06-15T08:27:51.000Z</time>
        <extensions>
          <ns3:TrackPointExtension>
            <ns3:atemp>23.0</ns3:atemp>
          </ns3:TrackPointExtension>
        </extensions>
      </trkpt>
      <trkpt lat="42.595478408038616180419921875" lon="20.14982189051806926727294921875">
        <ele>1335.4000244140625</ele>
        <time>2026-06-15T08:27:52.000Z</time>
        <extensions>
          <ns3:TrackPointExtension>
            <ns3:atemp>23.0</ns3:atemp>
          </ns3:TrackPointExtension>
        </extensions>
      </trkpt>
      <trkpt lat="42.595478408038616180419921875" lon="20.14982189051806926727294921875">
        <ele>1335.4000244140625</ele>
        <time>2026-06-15T08:27:53.000Z</time>
        <extensions>
          <ns3:TrackPointExtension>
            <ns3:atemp>23.0</ns3:atemp>
          </ns3:TrackPointExtension>
        </extensions>
      </trkpt>
      <trkpt lat="42.595478408038616180419921875" lon="20.14982189051806926727294921875">
        <ele>1335.4000244140625</ele>
        <time>2026-06-15T08:27:54.000Z</time>
        <extensions>
          <ns3:TrackPointExtension>
            <ns3:atemp>23.0</ns3:atemp>
          </ns3:TrackPointExtension>
        </extensions>
      </trkpt>
      <trkpt lat="42.595478408038616180419921875" lon="20.14982189051806926727294921875">
        <ele>1335.4000244140625</ele>
        <time>2026-06-15T08:27:55.000Z</time>
        <extensions>
          <ns3:TrackPointExtension>
            <ns3:atemp>23.0</ns3:atemp>
          </ns3:TrackPointExtension>
        </extensions>
      </trkpt>
      <trkpt lat="42.595478408038616180419921875" lon="20.14982189051806926727294921875">
        <ele>1335.4000244140625</ele>
        <time>2026-06-15T08:27:56.000Z</time>
        <extensions>
          <ns3:TrackPointExtension>
            <ns3:atemp>23.0</ns3:atemp>
          </ns3:TrackPointExtension>
        </extensions>
      </trkpt>
      <trkpt lat="42.595478408038616180419921875" lon="20.14982189051806926727294921875">
        <ele>1335.4000244140625</ele>
        <time>2026-06-15T08:27:57.000Z</time>
        <extensions>
          <ns3:TrackPointExtension>
            <ns3:atemp>23.0</ns3:atemp>
          </ns3:TrackPointExtension>
        </extensions>
      </trkpt>
      <trkpt lat="42.595478408038616180419921875" lon="20.14982189051806926727294921875">
        <ele>1335.4000244140625</ele>
        <time>2026-06-15T08:27:58.000Z</time>
        <extensions>
          <ns3:TrackPointExtension>
            <ns3:atemp>23.0</ns3:atemp>
          </ns3:TrackPointExtension>
        </extensions>
      </trkpt>
      <trkpt lat="42.595478408038616180419921875" lon="20.14982189051806926727294921875">
        <ele>1335.4000244140625</ele>
        <time>2026-06-15T08:27:59.000Z</time>
        <extensions>
          <ns3:TrackPointExtension>
            <ns3:atemp>23.0</ns3:atemp>
          </ns3:TrackPointExtension>
        </extensions>
      </trkpt>
      <trkpt lat="42.595478408038616180419921875" lon="20.14982189051806926727294921875">
        <ele>1335.4000244140625</ele>
        <time>2026-06-15T08:28:00.000Z</time>
        <extensions>
          <ns3:TrackPointExtension>
            <ns3:atemp>23.0</ns3:atemp>
          </ns3:TrackPointExtension>
        </extensions>
      </trkpt>
      <trkpt lat="42.595478408038616180419921875" lon="20.14982189051806926727294921875">
        <ele>1335.4000244140625</ele>
        <time>2026-06-15T08:28:01.000Z</time>
        <extensions>
          <ns3:TrackPointExtension>
            <ns3:atemp>23.0</ns3:atemp>
          </ns3:TrackPointExtension>
        </extensions>
      </trkpt>
      <trkpt lat="42.595478408038616180419921875" lon="20.14982189051806926727294921875">
        <ele>1335.4000244140625</ele>
        <time>2026-06-15T08:28:02.000Z</time>
        <extensions>
          <ns3:TrackPointExtension>
            <ns3:atemp>23.0</ns3:atemp>
          </ns3:TrackPointExtension>
        </extensions>
      </trkpt>
      <trkpt lat="42.595478408038616180419921875" lon="20.14982189051806926727294921875">
        <ele>1335.4000244140625</ele>
        <time>2026-06-15T08:28:03.000Z</time>
        <extensions>
          <ns3:TrackPointExtension>
            <ns3:atemp>23.0</ns3:atemp>
          </ns3:TrackPointExtension>
        </extensions>
      </trkpt>
      <trkpt lat="42.595478408038616180419921875" lon="20.14982189051806926727294921875">
        <ele>1335.4000244140625</ele>
        <time>2026-06-15T08:28:04.000Z</time>
        <extensions>
          <ns3:TrackPointExtension>
            <ns3:atemp>23.0</ns3:atemp>
          </ns3:TrackPointExtension>
        </extensions>
      </trkpt>
      <trkpt lat="42.595478408038616180419921875" lon="20.14982189051806926727294921875">
        <ele>1335.4000244140625</ele>
        <time>2026-06-15T08:28:05.000Z</time>
        <extensions>
          <ns3:TrackPointExtension>
            <ns3:atemp>23.0</ns3:atemp>
          </ns3:TrackPointExtension>
        </extensions>
      </trkpt>
      <trkpt lat="42.595478408038616180419921875" lon="20.14982189051806926727294921875">
        <ele>1335.4000244140625</ele>
        <time>2026-06-15T08:28:06.000Z</time>
        <extensions>
          <ns3:TrackPointExtension>
            <ns3:atemp>23.0</ns3:atemp>
          </ns3:TrackPointExtension>
        </extensions>
      </trkpt>
      <trkpt lat="42.595478408038616180419921875" lon="20.14982189051806926727294921875">
        <ele>1335.4000244140625</ele>
        <time>2026-06-15T08:28:07.000Z</time>
        <extensions>
          <ns3:TrackPointExtension>
            <ns3:atemp>23.0</ns3:atemp>
          </ns3:TrackPointExtension>
        </extensions>
      </trkpt>
      <trkpt lat="42.595478408038616180419921875" lon="20.14982189051806926727294921875">
        <ele>1335.4000244140625</ele>
        <time>2026-06-15T08:28:08.000Z</time>
        <extensions>
          <ns3:TrackPointExtension>
            <ns3:atemp>23.0</ns3:atemp>
          </ns3:TrackPointExtension>
        </extensions>
      </trkpt>
      <trkpt lat="42.595478408038616180419921875" lon="20.14982189051806926727294921875">
        <ele>1335.4000244140625</ele>
        <time>2026-06-15T08:28:09.000Z</time>
        <extensions>
          <ns3:TrackPointExtension>
            <ns3:atemp>23.0</ns3:atemp>
          </ns3:TrackPointExtension>
        </extensions>
      </trkpt>
      <trkpt lat="42.595478408038616180419921875" lon="20.14982189051806926727294921875">
        <ele>1335.4000244140625</ele>
        <time>2026-06-15T08:28:10.000Z</time>
        <extensions>
          <ns3:TrackPointExtension>
            <ns3:atemp>23.0</ns3:atemp>
          </ns3:TrackPointExtension>
        </extensions>
      </trkpt>
      <trkpt lat="42.595478408038616180419921875" lon="20.14982189051806926727294921875">
        <ele>1335.4000244140625</ele>
        <time>2026-06-15T08:28:11.000Z</time>
        <extensions>
          <ns3:TrackPointExtension>
            <ns3:atemp>23.0</ns3:atemp>
          </ns3:TrackPointExtension>
        </extensions>
      </trkpt>
      <trkpt lat="42.595478408038616180419921875" lon="20.14982189051806926727294921875">
        <ele>1335.4000244140625</ele>
        <time>2026-06-15T08:28:12.000Z</time>
        <extensions>
          <ns3:TrackPointExtension>
            <ns3:atemp>23.0</ns3:atemp>
          </ns3:TrackPointExtension>
        </extensions>
      </trkpt>
      <trkpt lat="42.595478408038616180419921875" lon="20.14982189051806926727294921875">
        <ele>1335.4000244140625</ele>
        <time>2026-06-15T08:28:13.000Z</time>
        <extensions>
          <ns3:TrackPointExtension>
            <ns3:atemp>23.0</ns3:atemp>
          </ns3:TrackPointExtension>
        </extensions>
      </trkpt>
      <trkpt lat="42.595478408038616180419921875" lon="20.14982189051806926727294921875">
        <ele>1335.4000244140625</ele>
        <time>2026-06-15T08:28:14.000Z</time>
        <extensions>
          <ns3:TrackPointExtension>
            <ns3:atemp>23.0</ns3:atemp>
          </ns3:TrackPointExtension>
        </extensions>
      </trkpt>
      <trkpt lat="42.595478408038616180419921875" lon="20.14982189051806926727294921875">
        <ele>1335.4000244140625</ele>
        <time>2026-06-15T08:28:15.000Z</time>
        <extensions>
          <ns3:TrackPointExtension>
            <ns3:atemp>23.0</ns3:atemp>
          </ns3:TrackPointExtension>
        </extensions>
      </trkpt>
      <trkpt lat="42.595478408038616180419921875" lon="20.14982189051806926727294921875">
        <ele>1335.4000244140625</ele>
        <time>2026-06-15T08:28:16.000Z</time>
        <extensions>
          <ns3:TrackPointExtension>
            <ns3:atemp>23.0</ns3:atemp>
          </ns3:TrackPointExtension>
        </extensions>
      </trkpt>
      <trkpt lat="42.595478408038616180419921875" lon="20.14982189051806926727294921875">
        <ele>1335.4000244140625</ele>
        <time>2026-06-15T08:28:17.000Z</time>
        <extensions>
          <ns3:TrackPointExtension>
            <ns3:atemp>23.0</ns3:atemp>
          </ns3:TrackPointExtension>
        </extensions>
      </trkpt>
      <trkpt lat="42.595478408038616180419921875" lon="20.14982189051806926727294921875">
        <ele>1335.4000244140625</ele>
        <time>2026-06-15T08:28:18.000Z</time>
        <extensions>
          <ns3:TrackPointExtension>
            <ns3:atemp>23.0</ns3:atemp>
          </ns3:TrackPointExtension>
        </extensions>
      </trkpt>
      <trkpt lat="42.595478408038616180419921875" lon="20.14982189051806926727294921875">
        <ele>1335.4000244140625</ele>
        <time>2026-06-15T08:28:19.000Z</time>
        <extensions>
          <ns3:TrackPointExtension>
            <ns3:atemp>23.0</ns3:atemp>
          </ns3:TrackPointExtension>
        </extensions>
      </trkpt>
      <trkpt lat="42.595478408038616180419921875" lon="20.14982189051806926727294921875">
        <ele>1335.4000244140625</ele>
        <time>2026-06-15T08:28:20.000Z</time>
        <extensions>
          <ns3:TrackPointExtension>
            <ns3:atemp>23.0</ns3:atemp>
          </ns3:TrackPointExtension>
        </extensions>
      </trkpt>
      <trkpt lat="42.595478408038616180419921875" lon="20.14982189051806926727294921875">
        <ele>1335.4000244140625</ele>
        <time>2026-06-15T08:28:21.000Z</time>
        <extensions>
          <ns3:TrackPointExtension>
            <ns3:atemp>23.0</ns3:atemp>
          </ns3:TrackPointExtension>
        </extensions>
      </trkpt>
      <trkpt lat="42.595478408038616180419921875" lon="20.14982189051806926727294921875">
        <ele>1335.4000244140625</ele>
        <time>2026-06-15T08:28:22.000Z</time>
        <extensions>
          <ns3:TrackPointExtension>
            <ns3:atemp>23.0</ns3:atemp>
          </ns3:TrackPointExtension>
        </extensions>
      </trkpt>
      <trkpt lat="42.595478408038616180419921875" lon="20.14982189051806926727294921875">
        <ele>1335.4000244140625</ele>
        <time>2026-06-15T08:28:23.000Z</time>
        <extensions>
          <ns3:TrackPointExtension>
            <ns3:atemp>23.0</ns3:atemp>
          </ns3:TrackPointExtension>
        </extensions>
      </trkpt>
      <trkpt lat="42.595478408038616180419921875" lon="20.14982189051806926727294921875">
        <ele>1335.4000244140625</ele>
        <time>2026-06-15T08:28:24.000Z</time>
        <extensions>
          <ns3:TrackPointExtension>
            <ns3:atemp>23.0</ns3:atemp>
          </ns3:TrackPointExtension>
        </extensions>
      </trkpt>
      <trkpt lat="42.595478408038616180419921875" lon="20.14982189051806926727294921875">
        <ele>1335.4000244140625</ele>
        <time>2026-06-15T08:28:25.000Z</time>
        <extensions>
          <ns3:TrackPointExtension>
            <ns3:atemp>23.0</ns3:atemp>
          </ns3:TrackPointExtension>
        </extensions>
      </trkpt>
      <trkpt lat="42.595478408038616180419921875" lon="20.14982189051806926727294921875">
        <ele>1335.4000244140625</ele>
        <time>2026-06-15T08:28:26.000Z</time>
        <extensions>
          <ns3:TrackPointExtension>
            <ns3:atemp>23.0</ns3:atemp>
          </ns3:TrackPointExtension>
        </extensions>
      </trkpt>
      <trkpt lat="42.595478408038616180419921875" lon="20.14982189051806926727294921875">
        <ele>1335.4000244140625</ele>
        <time>2026-06-15T08:28:27.000Z</time>
        <extensions>
          <ns3:TrackPointExtension>
            <ns3:atemp>23.0</ns3:atemp>
          </ns3:TrackPointExtension>
        </extensions>
      </trkpt>
      <trkpt lat="42.595478408038616180419921875" lon="20.14982189051806926727294921875">
        <ele>1335.4000244140625</ele>
        <time>2026-06-15T08:28:28.000Z</time>
        <extensions>
          <ns3:TrackPointExtension>
            <ns3:atemp>23.0</ns3:atemp>
          </ns3:TrackPointExtension>
        </extensions>
      </trkpt>
      <trkpt lat="42.595478408038616180419921875" lon="20.14982189051806926727294921875">
        <ele>1335.4000244140625</ele>
        <time>2026-06-15T08:28:29.000Z</time>
        <extensions>
          <ns3:TrackPointExtension>
            <ns3:atemp>23.0</ns3:atemp>
          </ns3:TrackPointExtension>
        </extensions>
      </trkpt>
      <trkpt lat="42.595478408038616180419921875" lon="20.14982189051806926727294921875">
        <ele>1335.4000244140625</ele>
        <time>2026-06-15T08:28:30.000Z</time>
        <extensions>
          <ns3:TrackPointExtension>
            <ns3:atemp>23.0</ns3:atemp>
          </ns3:TrackPointExtension>
        </extensions>
      </trkpt>
      <trkpt lat="42.595478408038616180419921875" lon="20.14982189051806926727294921875">
        <ele>1335.4000244140625</ele>
        <time>2026-06-15T08:28:31.000Z</time>
        <extensions>
          <ns3:TrackPointExtension>
            <ns3:atemp>23.0</ns3:atemp>
          </ns3:TrackPointExtension>
        </extensions>
      </trkpt>
      <trkpt lat="42.595478408038616180419921875" lon="20.14982189051806926727294921875">
        <ele>1335.4000244140625</ele>
        <time>2026-06-15T08:28:32.000Z</time>
        <extensions>
          <ns3:TrackPointExtension>
            <ns3:atemp>23.0</ns3:atemp>
          </ns3:TrackPointExtension>
        </extensions>
      </trkpt>
      <trkpt lat="42.595478408038616180419921875" lon="20.14982189051806926727294921875">
        <ele>1335.4000244140625</ele>
        <time>2026-06-15T08:28:33.000Z</time>
        <extensions>
          <ns3:TrackPointExtension>
            <ns3:atemp>23.0</ns3:atemp>
          </ns3:TrackPointExtension>
        </extensions>
      </trkpt>
      <trkpt lat="42.595478408038616180419921875" lon="20.14982189051806926727294921875">
        <ele>1335.4000244140625</ele>
        <time>2026-06-15T08:28:34.000Z</time>
        <extensions>
          <ns3:TrackPointExtension>
            <ns3:atemp>23.0</ns3:atemp>
          </ns3:TrackPointExtension>
        </extensions>
      </trkpt>
      <trkpt lat="42.595478408038616180419921875" lon="20.14982189051806926727294921875">
        <ele>1335.4000244140625</ele>
        <time>2026-06-15T08:28:35.000Z</time>
        <extensions>
          <ns3:TrackPointExtension>
            <ns3:atemp>23.0</ns3:atemp>
          </ns3:TrackPointExtension>
        </extensions>
      </trkpt>
      <trkpt lat="42.595478408038616180419921875" lon="20.14982189051806926727294921875">
        <ele>1335.4000244140625</ele>
        <time>2026-06-15T08:28:36.000Z</time>
        <extensions>
          <ns3:TrackPointExtension>
            <ns3:atemp>23.0</ns3:atemp>
          </ns3:TrackPointExtension>
        </extensions>
      </trkpt>
      <trkpt lat="42.595478408038616180419921875" lon="20.14982189051806926727294921875">
        <ele>1335.4000244140625</ele>
        <time>2026-06-15T08:28:37.000Z</time>
        <extensions>
          <ns3:TrackPointExtension>
            <ns3:atemp>23.0</ns3:atemp>
          </ns3:TrackPointExtension>
        </extensions>
      </trkpt>
      <trkpt lat="42.595478408038616180419921875" lon="20.14982189051806926727294921875">
        <ele>1335.4000244140625</ele>
        <time>2026-06-15T08:28:38.000Z</time>
        <extensions>
          <ns3:TrackPointExtension>
            <ns3:atemp>23.0</ns3:atemp>
          </ns3:TrackPointExtension>
        </extensions>
      </trkpt>
      <trkpt lat="42.595478408038616180419921875" lon="20.14982189051806926727294921875">
        <ele>1335.4000244140625</ele>
        <time>2026-06-15T08:28:39.000Z</time>
        <extensions>
          <ns3:TrackPointExtension>
            <ns3:atemp>23.0</ns3:atemp>
          </ns3:TrackPointExtension>
        </extensions>
      </trkpt>
      <trkpt lat="42.595478408038616180419921875" lon="20.14982189051806926727294921875">
        <ele>1335.4000244140625</ele>
        <time>2026-06-15T08:28:40.000Z</time>
        <extensions>
          <ns3:TrackPointExtension>
            <ns3:atemp>23.0</ns3:atemp>
          </ns3:TrackPointExtension>
        </extensions>
      </trkpt>
      <trkpt lat="42.595478408038616180419921875" lon="20.14982189051806926727294921875">
        <ele>1335.4000244140625</ele>
        <time>2026-06-15T08:28:41.000Z</time>
        <extensions>
          <ns3:TrackPointExtension>
            <ns3:atemp>23.0</ns3:atemp>
          </ns3:TrackPointExtension>
        </extensions>
      </trkpt>
      <trkpt lat="42.595478408038616180419921875" lon="20.14982189051806926727294921875">
        <ele>1335.4000244140625</ele>
        <time>2026-06-15T08:28:42.000Z</time>
        <extensions>
          <ns3:TrackPointExtension>
            <ns3:atemp>23.0</ns3:atemp>
          </ns3:TrackPointExtension>
        </extensions>
      </trkpt>
      <trkpt lat="42.595478408038616180419921875" lon="20.14982189051806926727294921875">
        <ele>1335.4000244140625</ele>
        <time>2026-06-15T08:28:43.000Z</time>
        <extensions>
          <ns3:TrackPointExtension>
            <ns3:atemp>23.0</ns3:atemp>
          </ns3:TrackPointExtension>
        </extensions>
      </trkpt>
      <trkpt lat="42.595478408038616180419921875" lon="20.14982189051806926727294921875">
        <ele>1335.4000244140625</ele>
        <time>2026-06-15T08:28:44.000Z</time>
        <extensions>
          <ns3:TrackPointExtension>
            <ns3:atemp>23.0</ns3:atemp>
          </ns3:TrackPointExtension>
        </extensions>
      </trkpt>
      <trkpt lat="42.595478408038616180419921875" lon="20.14982189051806926727294921875">
        <ele>1335.4000244140625</ele>
        <time>2026-06-15T08:28:45.000Z</time>
        <extensions>
          <ns3:TrackPointExtension>
            <ns3:atemp>23.0</ns3:atemp>
          </ns3:TrackPointExtension>
        </extensions>
      </trkpt>
      <trkpt lat="42.595478408038616180419921875" lon="20.14982189051806926727294921875">
        <ele>1335.4000244140625</ele>
        <time>2026-06-15T08:28:46.000Z</time>
        <extensions>
          <ns3:TrackPointExtension>
            <ns3:atemp>23.0</ns3:atemp>
          </ns3:TrackPointExtension>
        </extensions>
      </trkpt>
      <trkpt lat="42.595478408038616180419921875" lon="20.14982189051806926727294921875">
        <ele>1335.4000244140625</ele>
        <time>2026-06-15T08:28:47.000Z</time>
        <extensions>
          <ns3:TrackPointExtension>
            <ns3:atemp>23.0</ns3:atemp>
          </ns3:TrackPointExtension>
        </extensions>
      </trkpt>
      <trkpt lat="42.595478408038616180419921875" lon="20.14982189051806926727294921875">
        <ele>1335.4000244140625</ele>
        <time>2026-06-15T08:28:48.000Z</time>
        <extensions>
          <ns3:TrackPointExtension>
            <ns3:atemp>23.0</ns3:atemp>
          </ns3:TrackPointExtension>
        </extensions>
      </trkpt>
      <trkpt lat="42.595478408038616180419921875" lon="20.14982189051806926727294921875">
        <ele>1335.4000244140625</ele>
        <time>2026-06-15T08:28:49.000Z</time>
        <extensions>
          <ns3:TrackPointExtension>
            <ns3:atemp>23.0</ns3:atemp>
          </ns3:TrackPointExtension>
        </extensions>
      </trkpt>
      <trkpt lat="42.595478408038616180419921875" lon="20.14982189051806926727294921875">
        <ele>1335.4000244140625</ele>
        <time>2026-06-15T08:28:50.000Z</time>
        <extensions>
          <ns3:TrackPointExtension>
            <ns3:atemp>23.0</ns3:atemp>
          </ns3:TrackPointExtension>
        </extensions>
      </trkpt>
      <trkpt lat="42.595478408038616180419921875" lon="20.14982189051806926727294921875">
        <ele>1335.4000244140625</ele>
        <time>2026-06-15T08:28:51.000Z</time>
        <extensions>
          <ns3:TrackPointExtension>
            <ns3:atemp>23.0</ns3:atemp>
          </ns3:TrackPointExtension>
        </extensions>
      </trkpt>
      <trkpt lat="42.595478408038616180419921875" lon="20.14982189051806926727294921875">
        <ele>1335.4000244140625</ele>
        <time>2026-06-15T08:28:52.000Z</time>
        <extensions>
          <ns3:TrackPointExtension>
            <ns3:atemp>23.0</ns3:atemp>
          </ns3:TrackPointExtension>
        </extensions>
      </trkpt>
      <trkpt lat="42.595478408038616180419921875" lon="20.14982189051806926727294921875">
        <ele>1335.4000244140625</ele>
        <time>2026-06-15T08:28:53.000Z</time>
        <extensions>
          <ns3:TrackPointExtension>
            <ns3:atemp>23.0</ns3:atemp>
          </ns3:TrackPointExtension>
        </extensions>
      </trkpt>
      <trkpt lat="42.595478408038616180419921875" lon="20.14982189051806926727294921875">
        <ele>1335.4000244140625</ele>
        <time>2026-06-15T08:28:54.000Z</time>
        <extensions>
          <ns3:TrackPointExtension>
            <ns3:atemp>23.0</ns3:atemp>
          </ns3:TrackPointExtension>
        </extensions>
      </trkpt>
      <trkpt lat="42.595478408038616180419921875" lon="20.14982189051806926727294921875">
        <ele>1335.4000244140625</ele>
        <time>2026-06-15T08:28:55.000Z</time>
        <extensions>
          <ns3:TrackPointExtension>
            <ns3:atemp>23.0</ns3:atemp>
          </ns3:TrackPointExtension>
        </extensions>
      </trkpt>
      <trkpt lat="42.595478408038616180419921875" lon="20.14982189051806926727294921875">
        <ele>1335.4000244140625</ele>
        <time>2026-06-15T08:28:56.000Z</time>
        <extensions>
          <ns3:TrackPointExtension>
            <ns3:atemp>23.0</ns3:atemp>
          </ns3:TrackPointExtension>
        </extensions>
      </trkpt>
      <trkpt lat="42.595478408038616180419921875" lon="20.14982189051806926727294921875">
        <ele>1335.4000244140625</ele>
        <time>2026-06-15T08:28:57.000Z</time>
        <extensions>
          <ns3:TrackPointExtension>
            <ns3:atemp>23.0</ns3:atemp>
          </ns3:TrackPointExtension>
        </extensions>
      </trkpt>
      <trkpt lat="42.595478408038616180419921875" lon="20.14982189051806926727294921875">
        <ele>1335.4000244140625</ele>
        <time>2026-06-15T08:28:58.000Z</time>
        <extensions>
          <ns3:TrackPointExtension>
            <ns3:atemp>23.0</ns3:atemp>
          </ns3:TrackPointExtension>
        </extensions>
      </trkpt>
      <trkpt lat="42.595478408038616180419921875" lon="20.14982189051806926727294921875">
        <ele>1335.4000244140625</ele>
        <time>2026-06-15T08:28:59.000Z</time>
        <extensions>
          <ns3:TrackPointExtension>
            <ns3:atemp>23.0</ns3:atemp>
          </ns3:TrackPointExtension>
        </extensions>
      </trkpt>
      <trkpt lat="42.595478408038616180419921875" lon="20.14982189051806926727294921875">
        <ele>1335.4000244140625</ele>
        <time>2026-06-15T08:29:00.000Z</time>
        <extensions>
          <ns3:TrackPointExtension>
            <ns3:atemp>23.0</ns3:atemp>
          </ns3:TrackPointExtension>
        </extensions>
      </trkpt>
      <trkpt lat="42.595478408038616180419921875" lon="20.14982189051806926727294921875">
        <ele>1335.4000244140625</ele>
        <time>2026-06-15T08:29:01.000Z</time>
        <extensions>
          <ns3:TrackPointExtension>
            <ns3:atemp>23.0</ns3:atemp>
          </ns3:TrackPointExtension>
        </extensions>
      </trkpt>
      <trkpt lat="42.595478408038616180419921875" lon="20.14982189051806926727294921875">
        <ele>1335.4000244140625</ele>
        <time>2026-06-15T08:29:02.000Z</time>
        <extensions>
          <ns3:TrackPointExtension>
            <ns3:atemp>23.0</ns3:atemp>
          </ns3:TrackPointExtension>
        </extensions>
      </trkpt>
      <trkpt lat="42.595478408038616180419921875" lon="20.14982189051806926727294921875">
        <ele>1335.4000244140625</ele>
        <time>2026-06-15T08:29:03.000Z</time>
        <extensions>
          <ns3:TrackPointExtension>
            <ns3:atemp>23.0</ns3:atemp>
          </ns3:TrackPointExtension>
        </extensions>
      </trkpt>
      <trkpt lat="42.595478408038616180419921875" lon="20.14982189051806926727294921875">
        <ele>1335.4000244140625</ele>
        <time>2026-06-15T08:29:04.000Z</time>
        <extensions>
          <ns3:TrackPointExtension>
            <ns3:atemp>23.0</ns3:atemp>
          </ns3:TrackPointExtension>
        </extensions>
      </trkpt>
      <trkpt lat="42.595478408038616180419921875" lon="20.14982189051806926727294921875">
        <ele>1335.4000244140625</ele>
        <time>2026-06-15T08:29:05.000Z</time>
        <extensions>
          <ns3:TrackPointExtension>
            <ns3:atemp>23.0</ns3:atemp>
          </ns3:TrackPointExtension>
        </extensions>
      </trkpt>
      <trkpt lat="42.595478408038616180419921875" lon="20.14982189051806926727294921875">
        <ele>1335.4000244140625</ele>
        <time>2026-06-15T08:29:06.000Z</time>
        <extensions>
          <ns3:TrackPointExtension>
            <ns3:atemp>23.0</ns3:atemp>
          </ns3:TrackPointExtension>
        </extensions>
      </trkpt>
      <trkpt lat="42.595478408038616180419921875" lon="20.14982189051806926727294921875">
        <ele>1335.4000244140625</ele>
        <time>2026-06-15T08:29:07.000Z</time>
        <extensions>
          <ns3:TrackPointExtension>
            <ns3:atemp>23.0</ns3:atemp>
          </ns3:TrackPointExtension>
        </extensions>
      </trkpt>
      <trkpt lat="42.595478408038616180419921875" lon="20.14982189051806926727294921875">
        <ele>1335.4000244140625</ele>
        <time>2026-06-15T08:29:08.000Z</time>
        <extensions>
          <ns3:TrackPointExtension>
            <ns3:atemp>23.0</ns3:atemp>
          </ns3:TrackPointExtension>
        </extensions>
      </trkpt>
      <trkpt lat="42.595478408038616180419921875" lon="20.14982189051806926727294921875">
        <ele>1335.4000244140625</ele>
        <time>2026-06-15T08:29:09.000Z</time>
        <extensions>
          <ns3:TrackPointExtension>
            <ns3:atemp>23.0</ns3:atemp>
          </ns3:TrackPointExtension>
        </extensions>
      </trkpt>
      <trkpt lat="42.595478408038616180419921875" lon="20.14982189051806926727294921875">
        <ele>1335.4000244140625</ele>
        <time>2026-06-15T08:29:10.000Z</time>
        <extensions>
          <ns3:TrackPointExtension>
            <ns3:atemp>23.0</ns3:atemp>
          </ns3:TrackPointExtension>
        </extensions>
      </trkpt>
      <trkpt lat="42.595478408038616180419921875" lon="20.14982189051806926727294921875">
        <ele>1335.4000244140625</ele>
        <time>2026-06-15T08:29:11.000Z</time>
        <extensions>
          <ns3:TrackPointExtension>
            <ns3:atemp>23.0</ns3:atemp>
          </ns3:TrackPointExtension>
        </extensions>
      </trkpt>
      <trkpt lat="42.595478408038616180419921875" lon="20.14982189051806926727294921875">
        <ele>1335.4000244140625</ele>
        <time>2026-06-15T08:29:12.000Z</time>
        <extensions>
          <ns3:TrackPointExtension>
            <ns3:atemp>23.0</ns3:atemp>
          </ns3:TrackPointExtension>
        </extensions>
      </trkpt>
      <trkpt lat="42.595478408038616180419921875" lon="20.14982189051806926727294921875">
        <ele>1335.4000244140625</ele>
        <time>2026-06-15T08:29:13.000Z</time>
        <extensions>
          <ns3:TrackPointExtension>
            <ns3:atemp>23.0</ns3:atemp>
          </ns3:TrackPointExtension>
        </extensions>
      </trkpt>
      <trkpt lat="42.595478408038616180419921875" lon="20.14982189051806926727294921875">
        <ele>1335.4000244140625</ele>
        <time>2026-06-15T08:29:14.000Z</time>
        <extensions>
          <ns3:TrackPointExtension>
            <ns3:atemp>23.0</ns3:atemp>
          </ns3:TrackPointExtension>
        </extensions>
      </trkpt>
      <trkpt lat="42.595478408038616180419921875" lon="20.14982189051806926727294921875">
        <ele>1335.4000244140625</ele>
        <time>2026-06-15T08:29:15.000Z</time>
        <extensions>
          <ns3:TrackPointExtension>
            <ns3:atemp>23.0</ns3:atemp>
          </ns3:TrackPointExtension>
        </extensions>
      </trkpt>
      <trkpt lat="42.595478408038616180419921875" lon="20.14982189051806926727294921875">
        <ele>1335.4000244140625</ele>
        <time>2026-06-15T08:29:16.000Z</time>
        <extensions>
          <ns3:TrackPointExtension>
            <ns3:atemp>23.0</ns3:atemp>
          </ns3:TrackPointExtension>
        </extensions>
      </trkpt>
      <trkpt lat="42.595478408038616180419921875" lon="20.14982189051806926727294921875">
        <ele>1335.4000244140625</ele>
        <time>2026-06-15T08:29:17.000Z</time>
        <extensions>
          <ns3:TrackPointExtension>
            <ns3:atemp>23.0</ns3:atemp>
          </ns3:TrackPointExtension>
        </extensions>
      </trkpt>
      <trkpt lat="42.595478408038616180419921875" lon="20.14982189051806926727294921875">
        <ele>1335.4000244140625</ele>
        <time>2026-06-15T08:29:18.000Z</time>
        <extensions>
          <ns3:TrackPointExtension>
            <ns3:atemp>23.0</ns3:atemp>
          </ns3:TrackPointExtension>
        </extensions>
      </trkpt>
      <trkpt lat="42.595478408038616180419921875" lon="20.14982189051806926727294921875">
        <ele>1335.4000244140625</ele>
        <time>2026-06-15T08:29:19.000Z</time>
        <extensions>
          <ns3:TrackPointExtension>
            <ns3:atemp>23.0</ns3:atemp>
          </ns3:TrackPointExtension>
        </extensions>
      </trkpt>
      <trkpt lat="42.595478408038616180419921875" lon="20.14982189051806926727294921875">
        <ele>1335.4000244140625</ele>
        <time>2026-06-15T08:29:20.000Z</time>
        <extensions>
          <ns3:TrackPointExtension>
            <ns3:atemp>23.0</ns3:atemp>
          </ns3:TrackPointExtension>
        </extensions>
      </trkpt>
      <trkpt lat="42.595478408038616180419921875" lon="20.14982189051806926727294921875">
        <ele>1335.4000244140625</ele>
        <time>2026-06-15T08:29:21.000Z</time>
        <extensions>
          <ns3:TrackPointExtension>
            <ns3:atemp>23.0</ns3:atemp>
          </ns3:TrackPointExtension>
        </extensions>
      </trkpt>
      <trkpt lat="42.595478408038616180419921875" lon="20.14982189051806926727294921875">
        <ele>1335.4000244140625</ele>
        <time>2026-06-15T08:29:22.000Z</time>
        <extensions>
          <ns3:TrackPointExtension>
            <ns3:atemp>23.0</ns3:atemp>
          </ns3:TrackPointExtension>
        </extensions>
      </trkpt>
      <trkpt lat="42.595478408038616180419921875" lon="20.14982189051806926727294921875">
        <ele>1335.4000244140625</ele>
        <time>2026-06-15T08:29:23.000Z</time>
        <extensions>
          <ns3:TrackPointExtension>
            <ns3:atemp>23.0</ns3:atemp>
          </ns3:TrackPointExtension>
        </extensions>
      </trkpt>
      <trkpt lat="42.595478408038616180419921875" lon="20.14982189051806926727294921875">
        <ele>1335.4000244140625</ele>
        <time>2026-06-15T08:29:24.000Z</time>
        <extensions>
          <ns3:TrackPointExtension>
            <ns3:atemp>23.0</ns3:atemp>
          </ns3:TrackPointExtension>
        </extensions>
      </trkpt>
      <trkpt lat="42.595478408038616180419921875" lon="20.14982189051806926727294921875">
        <ele>1335.4000244140625</ele>
        <time>2026-06-15T08:29:25.000Z</time>
        <extensions>
          <ns3:TrackPointExtension>
            <ns3:atemp>23.0</ns3:atemp>
          </ns3:TrackPointExtension>
        </extensions>
      </trkpt>
      <trkpt lat="42.595478408038616180419921875" lon="20.14982189051806926727294921875">
        <ele>1335.4000244140625</ele>
        <time>2026-06-15T08:29:26.000Z</time>
        <extensions>
          <ns3:TrackPointExtension>
            <ns3:atemp>23.0</ns3:atemp>
          </ns3:TrackPointExtension>
        </extensions>
      </trkpt>
      <trkpt lat="42.595478408038616180419921875" lon="20.14982189051806926727294921875">
        <ele>1335.4000244140625</ele>
        <time>2026-06-15T08:29:27.000Z</time>
        <extensions>
          <ns3:TrackPointExtension>
            <ns3:atemp>23.0</ns3:atemp>
          </ns3:TrackPointExtension>
        </extensions>
      </trkpt>
      <trkpt lat="42.595478408038616180419921875" lon="20.14982189051806926727294921875">
        <ele>1335.4000244140625</ele>
        <time>2026-06-15T08:29:28.000Z</time>
        <extensions>
          <ns3:TrackPointExtension>
            <ns3:atemp>23.0</ns3:atemp>
          </ns3:TrackPointExtension>
        </extensions>
      </trkpt>
      <trkpt lat="42.595478408038616180419921875" lon="20.14982189051806926727294921875">
        <ele>1335.4000244140625</ele>
        <time>2026-06-15T08:29:29.000Z</time>
        <extensions>
          <ns3:TrackPointExtension>
            <ns3:atemp>23.0</ns3:atemp>
          </ns3:TrackPointExtension>
        </extensions>
      </trkpt>
      <trkpt lat="42.595478408038616180419921875" lon="20.14982189051806926727294921875">
        <ele>1335.4000244140625</ele>
        <time>2026-06-15T08:29:30.000Z</time>
        <extensions>
          <ns3:TrackPointExtension>
            <ns3:atemp>23.0</ns3:atemp>
          </ns3:TrackPointExtension>
        </extensions>
      </trkpt>
      <trkpt lat="42.595478408038616180419921875" lon="20.14982189051806926727294921875">
        <ele>1335.4000244140625</ele>
        <time>2026-06-15T08:29:31.000Z</time>
        <extensions>
          <ns3:TrackPointExtension>
            <ns3:atemp>23.0</ns3:atemp>
          </ns3:TrackPointExtension>
        </extensions>
      </trkpt>
      <trkpt lat="42.595478408038616180419921875" lon="20.14982189051806926727294921875">
        <ele>1335.4000244140625</ele>
        <time>2026-06-15T08:29:32.000Z</time>
        <extensions>
          <ns3:TrackPointExtension>
            <ns3:atemp>23.0</ns3:atemp>
          </ns3:TrackPointExtension>
        </extensions>
      </trkpt>
      <trkpt lat="42.595478408038616180419921875" lon="20.14982189051806926727294921875">
        <ele>1335.4000244140625</ele>
        <time>2026-06-15T08:29:33.000Z</time>
        <extensions>
          <ns3:TrackPointExtension>
            <ns3:atemp>23.0</ns3:atemp>
          </ns3:TrackPointExtension>
        </extensions>
      </trkpt>
      <trkpt lat="42.595478408038616180419921875" lon="20.14982189051806926727294921875">
        <ele>1335.4000244140625</ele>
        <time>2026-06-15T08:29:34.000Z</time>
        <extensions>
          <ns3:TrackPointExtension>
            <ns3:atemp>23.0</ns3:atemp>
          </ns3:TrackPointExtension>
        </extensions>
      </trkpt>
      <trkpt lat="42.595478408038616180419921875" lon="20.14982189051806926727294921875">
        <ele>1335.4000244140625</ele>
        <time>2026-06-15T08:29:35.000Z</time>
        <extensions>
          <ns3:TrackPointExtension>
            <ns3:atemp>23.0</ns3:atemp>
          </ns3:TrackPointExtension>
        </extensions>
      </trkpt>
      <trkpt lat="42.595478408038616180419921875" lon="20.14982189051806926727294921875">
        <ele>1335.4000244140625</ele>
        <time>2026-06-15T08:29:36.000Z</time>
        <extensions>
          <ns3:TrackPointExtension>
            <ns3:atemp>24.0</ns3:atemp>
          </ns3:TrackPointExtension>
        </extensions>
      </trkpt>
      <trkpt lat="42.595478408038616180419921875" lon="20.14982189051806926727294921875">
        <ele>1335.4000244140625</ele>
        <time>2026-06-15T08:29:37.000Z</time>
        <extensions>
          <ns3:TrackPointExtension>
            <ns3:atemp>24.0</ns3:atemp>
          </ns3:TrackPointExtension>
        </extensions>
      </trkpt>
      <trkpt lat="42.595478408038616180419921875" lon="20.14982189051806926727294921875">
        <ele>1335.4000244140625</ele>
        <time>2026-06-15T08:29:38.000Z</time>
        <extensions>
          <ns3:TrackPointExtension>
            <ns3:atemp>24.0</ns3:atemp>
          </ns3:TrackPointExtension>
        </extensions>
      </trkpt>
      <trkpt lat="42.595478408038616180419921875" lon="20.14982189051806926727294921875">
        <ele>1335.4000244140625</ele>
        <time>2026-06-15T08:29:39.000Z</time>
        <extensions>
          <ns3:TrackPointExtension>
            <ns3:atemp>24.0</ns3:atemp>
          </ns3:TrackPointExtension>
        </extensions>
      </trkpt>
      <trkpt lat="42.595478408038616180419921875" lon="20.14982189051806926727294921875">
        <ele>1335.4000244140625</ele>
        <time>2026-06-15T08:29:40.000Z</time>
        <extensions>
          <ns3:TrackPointExtension>
            <ns3:atemp>24.0</ns3:atemp>
          </ns3:TrackPointExtension>
        </extensions>
      </trkpt>
      <trkpt lat="42.595478408038616180419921875" lon="20.14982189051806926727294921875">
        <ele>1335.4000244140625</ele>
        <time>2026-06-15T08:29:41.000Z</time>
        <extensions>
          <ns3:TrackPointExtension>
            <ns3:atemp>24.0</ns3:atemp>
          </ns3:TrackPointExtension>
        </extensions>
      </trkpt>
      <trkpt lat="42.595478408038616180419921875" lon="20.14982189051806926727294921875">
        <ele>1335.4000244140625</ele>
        <time>2026-06-15T08:29:42.000Z</time>
        <extensions>
          <ns3:TrackPointExtension>
            <ns3:atemp>24.0</ns3:atemp>
          </ns3:TrackPointExtension>
        </extensions>
      </trkpt>
      <trkpt lat="42.595478408038616180419921875" lon="20.14982189051806926727294921875">
        <ele>1335.4000244140625</ele>
        <time>2026-06-15T08:29:43.000Z</time>
        <extensions>
          <ns3:TrackPointExtension>
            <ns3:atemp>24.0</ns3:atemp>
          </ns3:TrackPointExtension>
        </extensions>
      </trkpt>
      <trkpt lat="42.595478408038616180419921875" lon="20.14982189051806926727294921875">
        <ele>1335.4000244140625</ele>
        <time>2026-06-15T08:29:44.000Z</time>
        <extensions>
          <ns3:TrackPointExtension>
            <ns3:atemp>24.0</ns3:atemp>
          </ns3:TrackPointExtension>
        </extensions>
      </trkpt>
      <trkpt lat="42.595478408038616180419921875" lon="20.14982189051806926727294921875">
        <ele>1335.4000244140625</ele>
        <time>2026-06-15T08:29:45.000Z</time>
        <extensions>
          <ns3:TrackPointExtension>
            <ns3:atemp>24.0</ns3:atemp>
          </ns3:TrackPointExtension>
        </extensions>
      </trkpt>
      <trkpt lat="42.595478408038616180419921875" lon="20.14982189051806926727294921875">
        <ele>1335.4000244140625</ele>
        <time>2026-06-15T08:29:46.000Z</time>
        <extensions>
          <ns3:TrackPointExtension>
            <ns3:atemp>24.0</ns3:atemp>
          </ns3:TrackPointExtension>
        </extensions>
      </trkpt>
      <trkpt lat="42.595478408038616180419921875" lon="20.14982189051806926727294921875">
        <ele>1335.4000244140625</ele>
        <time>2026-06-15T08:29:47.000Z</time>
        <extensions>
          <ns3:TrackPointExtension>
            <ns3:atemp>24.0</ns3:atemp>
          </ns3:TrackPointExtension>
        </extensions>
      </trkpt>
      <trkpt lat="42.595478408038616180419921875" lon="20.14982189051806926727294921875">
        <ele>1335.4000244140625</ele>
        <time>2026-06-15T08:29:48.000Z</time>
        <extensions>
          <ns3:TrackPointExtension>
            <ns3:atemp>24.0</ns3:atemp>
          </ns3:TrackPointExtension>
        </extensions>
      </trkpt>
      <trkpt lat="42.595478408038616180419921875" lon="20.14982189051806926727294921875">
        <ele>1335.4000244140625</ele>
        <time>2026-06-15T08:29:49.000Z</time>
        <extensions>
          <ns3:TrackPointExtension>
            <ns3:atemp>24.0</ns3:atemp>
          </ns3:TrackPointExtension>
        </extensions>
      </trkpt>
      <trkpt lat="42.595478408038616180419921875" lon="20.14982189051806926727294921875">
        <ele>1335.4000244140625</ele>
        <time>2026-06-15T08:29:50.000Z</time>
        <extensions>
          <ns3:TrackPointExtension>
            <ns3:atemp>24.0</ns3:atemp>
          </ns3:TrackPointExtension>
        </extensions>
      </trkpt>
      <trkpt lat="42.595478408038616180419921875" lon="20.14982189051806926727294921875">
        <ele>1335.4000244140625</ele>
        <time>2026-06-15T08:29:51.000Z</time>
        <extensions>
          <ns3:TrackPointExtension>
            <ns3:atemp>24.0</ns3:atemp>
          </ns3:TrackPointExtension>
        </extensions>
      </trkpt>
      <trkpt lat="42.595478408038616180419921875" lon="20.14982189051806926727294921875">
        <ele>1335.4000244140625</ele>
        <time>2026-06-15T08:29:52.000Z</time>
        <extensions>
          <ns3:TrackPointExtension>
            <ns3:atemp>24.0</ns3:atemp>
          </ns3:TrackPointExtension>
        </extensions>
      </trkpt>
      <trkpt lat="42.595478408038616180419921875" lon="20.14982189051806926727294921875">
        <ele>1335.4000244140625</ele>
        <time>2026-06-15T08:29:53.000Z</time>
        <extensions>
          <ns3:TrackPointExtension>
            <ns3:atemp>24.0</ns3:atemp>
          </ns3:TrackPointExtension>
        </extensions>
      </trkpt>
      <trkpt lat="42.595478408038616180419921875" lon="20.14982189051806926727294921875">
        <ele>1335.4000244140625</ele>
        <time>2026-06-15T08:29:54.000Z</time>
        <extensions>
          <ns3:TrackPointExtension>
            <ns3:atemp>24.0</ns3:atemp>
          </ns3:TrackPointExtension>
        </extensions>
      </trkpt>
      <trkpt lat="42.595478408038616180419921875" lon="20.14982189051806926727294921875">
        <ele>1335.4000244140625</ele>
        <time>2026-06-15T08:29:55.000Z</time>
        <extensions>
          <ns3:TrackPointExtension>
            <ns3:atemp>24.0</ns3:atemp>
          </ns3:TrackPointExtension>
        </extensions>
      </trkpt>
      <trkpt lat="42.595478408038616180419921875" lon="20.14982189051806926727294921875">
        <ele>1335.4000244140625</ele>
        <time>2026-06-15T08:29:56.000Z</time>
        <extensions>
          <ns3:TrackPointExtension>
            <ns3:atemp>24.0</ns3:atemp>
          </ns3:TrackPointExtension>
        </extensions>
      </trkpt>
      <trkpt lat="42.595478408038616180419921875" lon="20.14982189051806926727294921875">
        <ele>1335.4000244140625</ele>
        <time>2026-06-15T08:29:57.000Z</time>
        <extensions>
          <ns3:TrackPointExtension>
            <ns3:atemp>24.0</ns3:atemp>
          </ns3:TrackPointExtension>
        </extensions>
      </trkpt>
      <trkpt lat="42.595478408038616180419921875" lon="20.14982189051806926727294921875">
        <ele>1335.4000244140625</ele>
        <time>2026-06-15T08:29:58.000Z</time>
        <extensions>
          <ns3:TrackPointExtension>
            <ns3:atemp>24.0</ns3:atemp>
          </ns3:TrackPointExtension>
        </extensions>
      </trkpt>
      <trkpt lat="42.595478408038616180419921875" lon="20.14982189051806926727294921875">
        <ele>1335.4000244140625</ele>
        <time>2026-06-15T08:29:59.000Z</time>
        <extensions>
          <ns3:TrackPointExtension>
            <ns3:atemp>24.0</ns3:atemp>
          </ns3:TrackPointExtension>
        </extensions>
      </trkpt>
      <trkpt lat="42.595478408038616180419921875" lon="20.14982189051806926727294921875">
        <ele>1335.4000244140625</ele>
        <time>2026-06-15T08:30:00.000Z</time>
        <extensions>
          <ns3:TrackPointExtension>
            <ns3:atemp>24.0</ns3:atemp>
          </ns3:TrackPointExtension>
        </extensions>
      </trkpt>
      <trkpt lat="42.595478408038616180419921875" lon="20.14982189051806926727294921875">
        <ele>1335.4000244140625</ele>
        <time>2026-06-15T08:30:01.000Z</time>
        <extensions>
          <ns3:TrackPointExtension>
            <ns3:atemp>24.0</ns3:atemp>
          </ns3:TrackPointExtension>
        </extensions>
      </trkpt>
      <trkpt lat="42.595478408038616180419921875" lon="20.14982189051806926727294921875">
        <ele>1335.4000244140625</ele>
        <time>2026-06-15T08:30:02.000Z</time>
        <extensions>
          <ns3:TrackPointExtension>
            <ns3:atemp>24.0</ns3:atemp>
          </ns3:TrackPointExtension>
        </extensions>
      </trkpt>
      <trkpt lat="42.595478408038616180419921875" lon="20.14982189051806926727294921875">
        <ele>1335.4000244140625</ele>
        <time>2026-06-15T08:30:03.000Z</time>
        <extensions>
          <ns3:TrackPointExtension>
            <ns3:atemp>24.0</ns3:atemp>
          </ns3:TrackPointExtension>
        </extensions>
      </trkpt>
      <trkpt lat="42.595478408038616180419921875" lon="20.14982189051806926727294921875">
        <ele>1335.4000244140625</ele>
        <time>2026-06-15T08:30:04.000Z</time>
        <extensions>
          <ns3:TrackPointExtension>
            <ns3:atemp>24.0</ns3:atemp>
          </ns3:TrackPointExtension>
        </extensions>
      </trkpt>
      <trkpt lat="42.595478408038616180419921875" lon="20.14982189051806926727294921875">
        <ele>1335.4000244140625</ele>
        <time>2026-06-15T08:30:05.000Z</time>
        <extensions>
          <ns3:TrackPointExtension>
            <ns3:atemp>24.0</ns3:atemp>
          </ns3:TrackPointExtension>
        </extensions>
      </trkpt>
      <trkpt lat="42.595478408038616180419921875" lon="20.14982189051806926727294921875">
        <ele>1335.4000244140625</ele>
        <time>2026-06-15T08:30:06.000Z</time>
        <extensions>
          <ns3:TrackPointExtension>
            <ns3:atemp>24.0</ns3:atemp>
          </ns3:TrackPointExtension>
        </extensions>
      </trkpt>
      <trkpt lat="42.595478408038616180419921875" lon="20.14982189051806926727294921875">
        <ele>1335.4000244140625</ele>
        <time>2026-06-15T08:30:07.000Z</time>
        <extensions>
          <ns3:TrackPointExtension>
            <ns3:atemp>24.0</ns3:atemp>
          </ns3:TrackPointExtension>
        </extensions>
      </trkpt>
      <trkpt lat="42.595478408038616180419921875" lon="20.14982189051806926727294921875">
        <ele>1335.4000244140625</ele>
        <time>2026-06-15T08:30:08.000Z</time>
        <extensions>
          <ns3:TrackPointExtension>
            <ns3:atemp>24.0</ns3:atemp>
          </ns3:TrackPointExtension>
        </extensions>
      </trkpt>
      <trkpt lat="42.595478408038616180419921875" lon="20.14982189051806926727294921875">
        <ele>1335.4000244140625</ele>
        <time>2026-06-15T08:30:09.000Z</time>
        <extensions>
          <ns3:TrackPointExtension>
            <ns3:atemp>24.0</ns3:atemp>
          </ns3:TrackPointExtension>
        </extensions>
      </trkpt>
      <trkpt lat="42.595478408038616180419921875" lon="20.14982189051806926727294921875">
        <ele>1335.4000244140625</ele>
        <time>2026-06-15T08:30:10.000Z</time>
        <extensions>
          <ns3:TrackPointExtension>
            <ns3:atemp>24.0</ns3:atemp>
          </ns3:TrackPointExtension>
        </extensions>
      </trkpt>
      <trkpt lat="42.595478408038616180419921875" lon="20.14982189051806926727294921875">
        <ele>1335.4000244140625</ele>
        <time>2026-06-15T08:30:11.000Z</time>
        <extensions>
          <ns3:TrackPointExtension>
            <ns3:atemp>24.0</ns3:atemp>
          </ns3:TrackPointExtension>
        </extensions>
      </trkpt>
      <trkpt lat="42.595478408038616180419921875" lon="20.14982189051806926727294921875">
        <ele>1335.4000244140625</ele>
        <time>2026-06-15T08:30:12.000Z</time>
        <extensions>
          <ns3:TrackPointExtension>
            <ns3:atemp>24.0</ns3:atemp>
          </ns3:TrackPointExtension>
        </extensions>
      </trkpt>
      <trkpt lat="42.595478408038616180419921875" lon="20.14982189051806926727294921875">
        <ele>1335.4000244140625</ele>
        <time>2026-06-15T08:30:13.000Z</time>
        <extensions>
          <ns3:TrackPointExtension>
            <ns3:atemp>24.0</ns3:atemp>
          </ns3:TrackPointExtension>
        </extensions>
      </trkpt>
      <trkpt lat="42.595478408038616180419921875" lon="20.14982189051806926727294921875">
        <ele>1335.4000244140625</ele>
        <time>2026-06-15T08:30:14.000Z</time>
        <extensions>
          <ns3:TrackPointExtension>
            <ns3:atemp>24.0</ns3:atemp>
          </ns3:TrackPointExtension>
        </extensions>
      </trkpt>
      <trkpt lat="42.595478408038616180419921875" lon="20.14982189051806926727294921875">
        <ele>1335.4000244140625</ele>
        <time>2026-06-15T08:30:15.000Z</time>
        <extensions>
          <ns3:TrackPointExtension>
            <ns3:atemp>24.0</ns3:atemp>
          </ns3:TrackPointExtension>
        </extensions>
      </trkpt>
      <trkpt lat="42.595478408038616180419921875" lon="20.14982189051806926727294921875">
        <ele>1335.4000244140625</ele>
        <time>2026-06-15T08:30:16.000Z</time>
        <extensions>
          <ns3:TrackPointExtension>
            <ns3:atemp>24.0</ns3:atemp>
          </ns3:TrackPointExtension>
        </extensions>
      </trkpt>
      <trkpt lat="42.595478408038616180419921875" lon="20.14982189051806926727294921875">
        <ele>1335.4000244140625</ele>
        <time>2026-06-15T08:30:17.000Z</time>
        <extensions>
          <ns3:TrackPointExtension>
            <ns3:atemp>24.0</ns3:atemp>
          </ns3:TrackPointExtension>
        </extensions>
      </trkpt>
      <trkpt lat="42.595478408038616180419921875" lon="20.14982189051806926727294921875">
        <ele>1335.4000244140625</ele>
        <time>2026-06-15T08:30:18.000Z</time>
        <extensions>
          <ns3:TrackPointExtension>
            <ns3:atemp>24.0</ns3:atemp>
          </ns3:TrackPointExtension>
        </extensions>
      </trkpt>
      <trkpt lat="42.5954799167811870574951171875" lon="20.149827338755130767822265625">
        <ele>1335.4000244140625</ele>
        <time>2026-06-15T08:30:19.000Z</time>
        <extensions>
          <ns3:TrackPointExtension>
            <ns3:atemp>24.0</ns3:atemp>
          </ns3:TrackPointExtension>
        </extensions>
      </trkpt>
      <trkpt lat="42.595485784113407135009765625" lon="20.149845443665981292724609375">
        <ele>1335.4000244140625</ele>
        <time>2026-06-15T08:30:20.000Z</time>
        <extensions>
          <ns3:TrackPointExtension>
            <ns3:atemp>24.0</ns3:atemp>
          </ns3:TrackPointExtension>
        </extensions>
      </trkpt>
      <trkpt lat="42.595485784113407135009765625" lon="20.14984552748501300811767578125">
        <ele>1335.4000244140625</ele>
        <time>2026-06-15T08:30:21.000Z</time>
        <extensions>
          <ns3:TrackPointExtension>
            <ns3:atemp>24.0</ns3:atemp>
          </ns3:TrackPointExtension>
        </extensions>
      </trkpt>
      <trkpt lat="42.595485784113407135009765625" lon="20.14984552748501300811767578125">
        <ele>1335.4000244140625</ele>
        <time>2026-06-15T08:30:22.000Z</time>
        <extensions>
          <ns3:TrackPointExtension>
            <ns3:atemp>24.0</ns3:atemp>
          </ns3:TrackPointExtension>
        </extensions>
      </trkpt>
      <trkpt lat="42.5954856164753437042236328125" lon="20.14984569512307643890380859375">
        <ele>1335.4000244140625</ele>
        <time>2026-06-15T08:30:23.000Z</time>
        <extensions>
          <ns3:TrackPointExtension>
            <ns3:atemp>24.0</ns3:atemp>
          </ns3:TrackPointExtension>
        </extensions>
      </trkpt>
      <trkpt lat="42.59547497145831584930419921875" lon="20.149843432009220123291015625">
        <ele>1335.4000244140625</ele>
        <time>2026-06-15T08:30:24.000Z</time>
        <extensions>
          <ns3:TrackPointExtension>
            <ns3:atemp>24.0</ns3:atemp>
          </ns3:TrackPointExtension>
        </extensions>
      </trkpt>
      <trkpt lat="42.59546726010739803314208984375" lon="20.14983144588768482208251953125">
        <ele>1335.4000244140625</ele>
        <time>2026-06-15T08:30:25.000Z</time>
        <extensions>
          <ns3:TrackPointExtension>
            <ns3:atemp>24.0</ns3:atemp>
          </ns3:TrackPointExtension>
        </extensions>
      </trkpt>
      <trkpt lat="42.59546306915581226348876953125" lon="20.1498122513294219970703125">
        <ele>1335.5999755859375</ele>
        <time>2026-06-15T08:30:26.000Z</time>
        <extensions>
          <ns3:TrackPointExtension>
            <ns3:atemp>24.0</ns3:atemp>
          </ns3:TrackPointExtension>
        </extensions>
      </trkpt>
      <trkpt lat="42.59546223096549510955810546875" lon="20.14979154802858829498291015625">
        <ele>1335.5999755859375</ele>
        <time>2026-06-15T08:30:27.000Z</time>
        <extensions>
          <ns3:TrackPointExtension>
            <ns3:atemp>24.0</ns3:atemp>
          </ns3:TrackPointExtension>
        </extensions>
      </trkpt>
      <trkpt lat="42.5954624824225902557373046875" lon="20.149769671261310577392578125">
        <ele>1335.5999755859375</ele>
        <time>2026-06-15T08:30:28.000Z</time>
        <extensions>
          <ns3:TrackPointExtension>
            <ns3:atemp>24.0</ns3:atemp>
          </ns3:TrackPointExtension>
        </extensions>
      </trkpt>
      <trkpt lat="42.59545720182359218597412109375" lon="20.1497440226376056671142578125">
        <ele>1335.5999755859375</ele>
        <time>2026-06-15T08:30:29.000Z</time>
        <extensions>
          <ns3:TrackPointExtension>
            <ns3:atemp>24.0</ns3:atemp>
          </ns3:TrackPointExtension>
        </extensions>
      </trkpt>
      <trkpt lat="42.59544990956783294677734375" lon="20.14971158467233180999755859375">
        <ele>1335.5999755859375</ele>
        <time>2026-06-15T08:30:30.000Z</time>
        <extensions>
          <ns3:TrackPointExtension>
            <ns3:atemp>24.0</ns3:atemp>
          </ns3:TrackPointExtension>
        </extensions>
      </trkpt>
      <trkpt lat="42.59544278495013713836669921875" lon="20.1496766321361064910888671875">
        <ele>1335.800048828125</ele>
        <time>2026-06-15T08:30:31.000Z</time>
        <extensions>
          <ns3:TrackPointExtension>
            <ns3:atemp>24.0</ns3:atemp>
          </ns3:TrackPointExtension>
        </extensions>
      </trkpt>
      <trkpt lat="42.595432139933109283447265625" lon="20.14964603818953037261962890625">
        <ele>1336</ele>
        <time>2026-06-15T08:30:32.000Z</time>
        <extensions>
          <ns3:TrackPointExtension>
            <ns3:atemp>24.0</ns3:atemp>
          </ns3:TrackPointExtension>
        </extensions>
      </trkpt>
      <trkpt lat="42.59542501531541347503662109375" lon="20.14962458051741123199462890625">
        <ele>1336.199951171875</ele>
        <time>2026-06-15T08:30:33.000Z</time>
        <extensions>
          <ns3:TrackPointExtension>
            <ns3:atemp>24.0</ns3:atemp>
          </ns3:TrackPointExtension>
        </extensions>
      </trkpt>
      <trkpt lat="42.59541847743093967437744140625" lon="20.1495995186269283294677734375">
        <ele>1336.4000244140625</ele>
        <time>2026-06-15T08:30:34.000Z</time>
        <extensions>
          <ns3:TrackPointExtension>
            <ns3:atemp>24.0</ns3:atemp>
          </ns3:TrackPointExtension>
        </extensions>
      </trkpt>
      <trkpt lat="42.595410011708736419677734375" lon="20.14956741593778133392333984375">
        <ele>1336.5999755859375</ele>
        <time>2026-06-15T08:30:35.000Z</time>
        <extensions>
          <ns3:TrackPointExtension>
            <ns3:atemp>24.0</ns3:atemp>
          </ns3:TrackPointExtension>
        </extensions>
      </trkpt>
      <trkpt lat="42.5953981094062328338623046875" lon="20.1495401747524738311767578125">
        <ele>1336.800048828125</ele>
        <time>2026-06-15T08:30:36.000Z</time>
        <extensions>
          <ns3:TrackPointExtension>
            <ns3:atemp>24.0</ns3:atemp>
          </ns3:TrackPointExtension>
        </extensions>
      </trkpt>
      <trkpt lat="42.59538880549371242523193359375" lon="20.1495140232145786285400390625">
        <ele>1337.199951171875</ele>
        <time>2026-06-15T08:30:37.000Z</time>
        <extensions>
          <ns3:TrackPointExtension>
            <ns3:atemp>24.0</ns3:atemp>
          </ns3:TrackPointExtension>
        </extensions>
      </trkpt>
      <trkpt lat="42.59537556208670139312744140625" lon="20.14948560856282711029052734375">
        <ele>1337.4000244140625</ele>
        <time>2026-06-15T08:30:38.000Z</time>
        <extensions>
          <ns3:TrackPointExtension>
            <ns3:atemp>24.0</ns3:atemp>
          </ns3:TrackPointExtension>
        </extensions>
      </trkpt>
      <trkpt lat="42.595359720289707183837890625" lon="20.149457193911075592041015625">
        <ele>1337.5999755859375</ele>
        <time>2026-06-15T08:30:39.000Z</time>
        <extensions>
          <ns3:TrackPointExtension>
            <ns3:atemp>24.0</ns3:atemp>
          </ns3:TrackPointExtension>
        </extensions>
      </trkpt>
      <trkpt lat="42.59534396231174468994140625" lon="20.14942894689738750457763671875">
        <ele>1337.800048828125</ele>
        <time>2026-06-15T08:30:40.000Z</time>
        <extensions>
          <ns3:TrackPointExtension>
            <ns3:atemp>24.0</ns3:atemp>
          </ns3:TrackPointExtension>
        </extensions>
      </trkpt>
      <trkpt lat="42.5953337363898754119873046875" lon="20.1494020409882068634033203125">
        <ele>1338</ele>
        <time>2026-06-15T08:30:41.000Z</time>
        <extensions>
          <ns3:TrackPointExtension>
            <ns3:atemp>24.0</ns3:atemp>
          </ns3:TrackPointExtension>
        </extensions>
      </trkpt>
      <trkpt lat="42.59531848132610321044921875" lon="20.14937597326934337615966796875">
        <ele>1338.4000244140625</ele>
        <time>2026-06-15T08:30:42.000Z</time>
        <extensions>
          <ns3:TrackPointExtension>
            <ns3:atemp>24.0</ns3:atemp>
          </ns3:TrackPointExtension>
        </extensions>
      </trkpt>
      <trkpt lat="42.5953017175197601318359375" lon="20.14935384504497051239013671875">
        <ele>1338.4000244140625</ele>
        <time>2026-06-15T08:30:43.000Z</time>
        <extensions>
          <ns3:TrackPointExtension>
            <ns3:atemp>24.0</ns3:atemp>
          </ns3:TrackPointExtension>
        </extensions>
      </trkpt>
      <trkpt lat="42.59528151713311672210693359375" lon="20.149334482848644256591796875">
        <ele>1338.5999755859375</ele>
        <time>2026-06-15T08:30:44.000Z</time>
        <extensions>
          <ns3:TrackPointExtension>
            <ns3:atemp>24.0</ns3:atemp>
          </ns3:TrackPointExtension>
        </extensions>
      </trkpt>
      <trkpt lat="42.59525938890874385833740234375" lon="20.14931461773812770843505859375">
        <ele>1338.800048828125</ele>
        <time>2026-06-15T08:30:45.000Z</time>
        <extensions>
          <ns3:TrackPointExtension>
            <ns3:atemp>24.0</ns3:atemp>
          </ns3:TrackPointExtension>
        </extensions>
      </trkpt>
      <trkpt lat="42.59523558430373668670654296875" lon="20.14929391443729400634765625">
        <ele>1339.199951171875</ele>
        <time>2026-06-15T08:30:46.000Z</time>
        <extensions>
          <ns3:TrackPointExtension>
            <ns3:atemp>24.0</ns3:atemp>
          </ns3:TrackPointExtension>
        </extensions>
      </trkpt>
      <trkpt lat="42.59521295316517353057861328125" lon="20.14927471987903118133544921875">
        <ele>1339.4000244140625</ele>
        <time>2026-06-15T08:30:47.000Z</time>
        <extensions>
          <ns3:TrackPointExtension>
            <ns3:atemp>24.0</ns3:atemp>
          </ns3:TrackPointExtension>
        </extensions>
      </trkpt>
      <trkpt lat="42.5951929204165935516357421875" lon="20.14925460331141948699951171875">
        <ele>1339.5999755859375</ele>
        <time>2026-06-15T08:30:48.000Z</time>
        <extensions>
          <ns3:TrackPointExtension>
            <ns3:atemp>24.0</ns3:atemp>
          </ns3:TrackPointExtension>
        </extensions>
      </trkpt>
      <trkpt lat="42.59517037309706211090087890625" lon="20.14923281036317348480224609375">
        <ele>1340</ele>
        <time>2026-06-15T08:30:49.000Z</time>
        <extensions>
          <ns3:TrackPointExtension>
            <ns3:atemp>24.0</ns3:atemp>
          </ns3:TrackPointExtension>
        </extensions>
      </trkpt>
      <trkpt lat="42.59515327401459217071533203125" lon="20.14920833520591259002685546875">
        <ele>1340.199951171875</ele>
        <time>2026-06-15T08:30:50.000Z</time>
        <extensions>
          <ns3:TrackPointExtension>
            <ns3:atemp>24.0</ns3:atemp>
          </ns3:TrackPointExtension>
        </extensions>
      </trkpt>
      <trkpt lat="42.59513366036117076873779296875" lon="20.14918318949639797210693359375">
        <ele>1340.4000244140625</ele>
        <time>2026-06-15T08:30:51.000Z</time>
        <extensions>
          <ns3:TrackPointExtension>
            <ns3:atemp>24.0</ns3:atemp>
          </ns3:TrackPointExtension>
        </extensions>
      </trkpt>
      <trkpt lat="42.59511605836451053619384765625" lon="20.149159468710422515869140625">
        <ele>1340.800048828125</ele>
        <time>2026-06-15T08:30:52.000Z</time>
        <extensions>
          <ns3:TrackPointExtension>
            <ns3:atemp>24.0</ns3:atemp>
          </ns3:TrackPointExtension>
        </extensions>
      </trkpt>
      <trkpt lat="42.59510197676718235015869140625" lon="20.1491334848105907440185546875">
        <ele>1341</ele>
        <time>2026-06-15T08:30:53.000Z</time>
        <extensions>
          <ns3:TrackPointExtension>
            <ns3:atemp>24.0</ns3:atemp>
          </ns3:TrackPointExtension>
        </extensions>
      </trkpt>
      <trkpt lat="42.59508873336017131805419921875" lon="20.14910138212144374847412109375">
        <ele>1341.199951171875</ele>
        <time>2026-06-15T08:30:54.000Z</time>
        <extensions>
          <ns3:TrackPointExtension>
            <ns3:atemp>24.0</ns3:atemp>
          </ns3:TrackPointExtension>
        </extensions>
      </trkpt>
      <trkpt lat="42.59507632814347743988037109375" lon="20.14906617812812328338623046875">
        <ele>1341.4000244140625</ele>
        <time>2026-06-15T08:30:55.000Z</time>
        <extensions>
          <ns3:TrackPointExtension>
            <ns3:atemp>24.0</ns3:atemp>
          </ns3:TrackPointExtension>
        </extensions>
      </trkpt>
      <trkpt lat="42.595066018402576446533203125" lon="20.1490317285060882568359375">
        <ele>1341.5999755859375</ele>
        <time>2026-06-15T08:30:56.000Z</time>
        <extensions>
          <ns3:TrackPointExtension>
            <ns3:atemp>24.0</ns3:atemp>
          </ns3:TrackPointExtension>
        </extensions>
      </trkpt>
      <trkpt lat="42.5950576364994049072265625" lon="20.14899442903697490692138671875">
        <ele>1341.800048828125</ele>
        <time>2026-06-15T08:30:57.000Z</time>
        <extensions>
          <ns3:TrackPointExtension>
            <ns3:atemp>24.0</ns3:atemp>
          </ns3:TrackPointExtension>
        </extensions>
      </trkpt>
      <trkpt lat="42.59505453519523143768310546875" lon="20.14895352534949779510498046875">
        <ele>1342</ele>
        <time>2026-06-15T08:30:58.000Z</time>
        <extensions>
          <ns3:TrackPointExtension>
            <ns3:atemp>24.0</ns3:atemp>
          </ns3:TrackPointExtension>
        </extensions>
      </trkpt>
      <trkpt lat="42.5950534455478191375732421875" lon="20.1489138789474964141845703125">
        <ele>1342.199951171875</ele>
        <time>2026-06-15T08:30:59.000Z</time>
        <extensions>
          <ns3:TrackPointExtension>
            <ns3:atemp>24.0</ns3:atemp>
          </ns3:TrackPointExtension>
        </extensions>
      </trkpt>
      <trkpt lat="42.59504984132945537567138671875" lon="20.14887875877320766448974609375">
        <ele>1342.4000244140625</ele>
        <time>2026-06-15T08:31:00.000Z</time>
        <extensions>
          <ns3:TrackPointExtension>
            <ns3:atemp>24.0</ns3:atemp>
          </ns3:TrackPointExtension>
        </extensions>
      </trkpt>
      <trkpt lat="42.595044560730457305908203125" lon="20.14884221367537975311279296875">
        <ele>1342.5999755859375</ele>
        <time>2026-06-15T08:31:01.000Z</time>
        <extensions>
          <ns3:TrackPointExtension>
            <ns3:atemp>24.0</ns3:atemp>
          </ns3:TrackPointExtension>
        </extensions>
      </trkpt>
      <trkpt lat="42.5950366817414760589599609375" lon="20.1488029025495052337646484375">
        <ele>1342.800048828125</ele>
        <time>2026-06-15T08:31:02.000Z</time>
        <extensions>
          <ns3:TrackPointExtension>
            <ns3:atemp>24.0</ns3:atemp>
          </ns3:TrackPointExtension>
        </extensions>
      </trkpt>
      <trkpt lat="42.5950266234576702117919921875" lon="20.148765854537487030029296875">
        <ele>1343</ele>
        <time>2026-06-15T08:31:03.000Z</time>
        <extensions>
          <ns3:TrackPointExtension>
            <ns3:atemp>23.0</ns3:atemp>
          </ns3:TrackPointExtension>
        </extensions>
      </trkpt>
      <trkpt lat="42.5950185768306255340576171875" lon="20.14872956089675426483154296875">
        <ele>1343.4000244140625</ele>
        <time>2026-06-15T08:31:04.000Z</time>
        <extensions>
          <ns3:TrackPointExtension>
            <ns3:atemp>23.0</ns3:atemp>
          </ns3:TrackPointExtension>
        </extensions>
      </trkpt>
      <trkpt lat="42.59501128457486629486083984375" lon="20.14868966303765773773193359375">
        <ele>1343.5999755859375</ele>
        <time>2026-06-15T08:31:05.000Z</time>
        <extensions>
          <ns3:TrackPointExtension>
            <ns3:atemp>23.0</ns3:atemp>
          </ns3:TrackPointExtension>
        </extensions>
      </trkpt>
      <trkpt lat="42.5950088538229465484619140625" lon="20.14865261502563953399658203125">
        <ele>1343.800048828125</ele>
        <time>2026-06-15T08:31:06.000Z</time>
        <extensions>
          <ns3:TrackPointExtension>
            <ns3:atemp>24.0</ns3:atemp>
          </ns3:TrackPointExtension>
        </extensions>
      </trkpt>
      <trkpt lat="42.5950044952332973480224609375" lon="20.148618333041667938232421875">
        <ele>1344</ele>
        <time>2026-06-15T08:31:07.000Z</time>
        <extensions>
          <ns3:TrackPointExtension>
            <ns3:atemp>24.0</ns3:atemp>
          </ns3:TrackPointExtension>
        </extensions>
      </trkpt>
      <trkpt lat="42.59499988518655300140380859375" lon="20.14858304522931575775146484375">
        <ele>1344.4000244140625</ele>
        <time>2026-06-15T08:31:08.000Z</time>
        <extensions>
          <ns3:TrackPointExtension>
            <ns3:atemp>24.0</ns3:atemp>
          </ns3:TrackPointExtension>
        </extensions>
      </trkpt>
      <trkpt lat="42.5949981249868869781494140625" lon="20.14854691922664642333984375">
        <ele>1344.5999755859375</ele>
        <time>2026-06-15T08:31:09.000Z</time>
        <extensions>
          <ns3:TrackPointExtension>
            <ns3:atemp>24.0</ns3:atemp>
          </ns3:TrackPointExtension>
        </extensions>
      </trkpt>
      <trkpt lat="42.59499720297753810882568359375" lon="20.14851297251880168914794921875">
        <ele>1344.800048828125</ele>
        <time>2026-06-15T08:31:10.000Z</time>
        <extensions>
          <ns3:TrackPointExtension>
            <ns3:atemp>24.0</ns3:atemp>
          </ns3:TrackPointExtension>
        </extensions>
      </trkpt>
      <trkpt lat="42.59499519132077693939208984375" lon="20.14848028309643268585205078125">
        <ele>1345</ele>
        <time>2026-06-15T08:31:11.000Z</time>
        <extensions>
          <ns3:TrackPointExtension>
            <ns3:atemp>24.0</ns3:atemp>
          </ns3:TrackPointExtension>
        </extensions>
      </trkpt>
      <trkpt lat="42.59499167092144489288330078125" lon="20.14843753539025783538818359375">
        <ele>1345.4000244140625</ele>
        <time>2026-06-15T08:31:12.000Z</time>
        <extensions>
          <ns3:TrackPointExtension>
            <ns3:atemp>24.0</ns3:atemp>
          </ns3:TrackPointExtension>
        </extensions>
      </trkpt>
      <trkpt lat="42.59498664177954196929931640625" lon="20.148403756320476531982421875">
        <ele>1345.5999755859375</ele>
        <time>2026-06-15T08:31:13.000Z</time>
        <extensions>
          <ns3:TrackPointExtension>
            <ns3:atemp>24.0</ns3:atemp>
          </ns3:TrackPointExtension>
        </extensions>
      </trkpt>
      <trkpt lat="42.5949803553521633148193359375" lon="20.14836813323199748992919921875">
        <ele>1345.800048828125</ele>
        <time>2026-06-15T08:31:14.000Z</time>
        <extensions>
          <ns3:TrackPointExtension>
            <ns3:atemp>23.0</ns3:atemp>
          </ns3:TrackPointExtension>
        </extensions>
      </trkpt>
      <trkpt lat="42.59497289545834064483642578125" lon="20.14833058230578899383544921875">
        <ele>1346.199951171875</ele>
        <time>2026-06-15T08:31:15.000Z</time>
        <extensions>
          <ns3:TrackPointExtension>
            <ns3:atemp>23.0</ns3:atemp>
          </ns3:TrackPointExtension>
        </extensions>
      </trkpt>
      <trkpt lat="42.59496618993580341339111328125" lon="20.14829252846539020538330078125">
        <ele>1346.4000244140625</ele>
        <time>2026-06-15T08:31:16.000Z</time>
        <extensions>
          <ns3:TrackPointExtension>
            <ns3:atemp>23.0</ns3:atemp>
          </ns3:TrackPointExtension>
        </extensions>
      </trkpt>
      <trkpt lat="42.59495931677520275115966796875" lon="20.14825883321464061737060546875">
        <ele>1346.5999755859375</ele>
        <time>2026-06-15T08:31:17.000Z</time>
        <extensions>
          <ns3:TrackPointExtension>
            <ns3:atemp>23.0</ns3:atemp>
          </ns3:TrackPointExtension>
        </extensions>
      </trkpt>
      <trkpt lat="42.59495261125266551971435546875" lon="20.1482238806784152984619140625">
        <ele>1347</ele>
        <time>2026-06-15T08:31:18.000Z</time>
        <extensions>
          <ns3:TrackPointExtension>
            <ns3:atemp>23.0</ns3:atemp>
          </ns3:TrackPointExtension>
        </extensions>
      </trkpt>
      <trkpt lat="42.59494540281593799591064453125" lon="20.148188509047031402587890625">
        <ele>1347.199951171875</ele>
        <time>2026-06-15T08:31:19.000Z</time>
        <extensions>
          <ns3:TrackPointExtension>
            <ns3:atemp>23.0</ns3:atemp>
          </ns3:TrackPointExtension>
        </extensions>
      </trkpt>
      <trkpt lat="42.5949396193027496337890625" lon="20.14815724454820156097412109375">
        <ele>1347.4000244140625</ele>
        <time>2026-06-15T08:31:20.000Z</time>
        <extensions>
          <ns3:TrackPointExtension>
            <ns3:atemp>23.0</ns3:atemp>
          </ns3:TrackPointExtension>
        </extensions>
      </trkpt>
      <trkpt lat="42.59493433870375156402587890625" lon="20.1481269858777523040771484375">
        <ele>1347.5999755859375</ele>
        <time>2026-06-15T08:31:21.000Z</time>
        <extensions>
          <ns3:TrackPointExtension>
            <ns3:atemp>23.0</ns3:atemp>
          </ns3:TrackPointExtension>
        </extensions>
      </trkpt>
      <trkpt lat="42.59492947719991207122802734375" lon="20.14808960258960723876953125">
        <ele>1347.800048828125</ele>
        <time>2026-06-15T08:31:22.000Z</time>
        <extensions>
          <ns3:TrackPointExtension>
            <ns3:atemp>23.0</ns3:atemp>
          </ns3:TrackPointExtension>
        </extensions>
      </trkpt>
      <trkpt lat="42.5949243642389774322509765625" lon="20.14805481769144535064697265625">
        <ele>1348</ele>
        <time>2026-06-15T08:31:23.000Z</time>
        <extensions>
          <ns3:TrackPointExtension>
            <ns3:atemp>23.0</ns3:atemp>
          </ns3:TrackPointExtension>
        </extensions>
      </trkpt>
      <trkpt lat="42.59491640143096446990966796875" lon="20.1480173505842685699462890625">
        <ele>1348.4000244140625</ele>
        <time>2026-06-15T08:31:24.000Z</time>
        <extensions>
          <ns3:TrackPointExtension>
            <ns3:atemp>23.0</ns3:atemp>
          </ns3:TrackPointExtension>
        </extensions>
      </trkpt>
      <trkpt lat="42.5949076004326343536376953125" lon="20.14798290096223354339599609375">
        <ele>1348.5999755859375</ele>
        <time>2026-06-15T08:31:25.000Z</time>
        <extensions>
          <ns3:TrackPointExtension>
            <ns3:atemp>23.0</ns3:atemp>
          </ns3:TrackPointExtension>
        </extensions>
      </trkpt>
      <trkpt lat="42.59489863179624080657958984375" lon="20.14794719405472278594970703125">
        <ele>1348.800048828125</ele>
        <time>2026-06-15T08:31:26.000Z</time>
        <extensions>
          <ns3:TrackPointExtension>
            <ns3:atemp>23.0</ns3:atemp>
          </ns3:TrackPointExtension>
        </extensions>
      </trkpt>
      <trkpt lat="42.5948891602456569671630859375" lon="20.14791081659495830535888671875">
        <ele>1349.199951171875</ele>
        <time>2026-06-15T08:31:27.000Z</time>
        <extensions>
          <ns3:TrackPointExtension>
            <ns3:atemp>23.0</ns3:atemp>
          </ns3:TrackPointExtension>
        </extensions>
      </trkpt>
      <trkpt lat="42.59488069452345371246337890625" lon="20.1478810608386993408203125">
        <ele>1349.4000244140625</ele>
        <time>2026-06-15T08:31:28.000Z</time>
        <extensions>
          <ns3:TrackPointExtension>
            <ns3:atemp>23.0</ns3:atemp>
          </ns3:TrackPointExtension>
        </extensions>
      </trkpt>
      <trkpt lat="42.594873569905757904052734375" lon="20.1478490419685840606689453125">
        <ele>1349.5999755859375</ele>
        <time>2026-06-15T08:31:29.000Z</time>
        <extensions>
          <ns3:TrackPointExtension>
            <ns3:atemp>23.0</ns3:atemp>
          </ns3:TrackPointExtension>
        </extensions>
      </trkpt>
      <trkpt lat="42.59486342780292034149169921875" lon="20.14781744219362735748291015625">
        <ele>1349.800048828125</ele>
        <time>2026-06-15T08:31:30.000Z</time>
        <extensions>
          <ns3:TrackPointExtension>
            <ns3:atemp>23.0</ns3:atemp>
          </ns3:TrackPointExtension>
        </extensions>
      </trkpt>
      <trkpt lat="42.5948499329388141632080078125" lon="20.14778785407543182373046875">
        <ele>1350</ele>
        <time>2026-06-15T08:31:31.000Z</time>
        <extensions>
          <ns3:TrackPointExtension>
            <ns3:atemp>23.0</ns3:atemp>
          </ns3:TrackPointExtension>
        </extensions>
      </trkpt>
      <trkpt lat="42.594835348427295684814453125" lon="20.1477551646530628204345703125">
        <ele>1350.199951171875</ele>
        <time>2026-06-15T08:31:32.000Z</time>
        <extensions>
          <ns3:TrackPointExtension>
            <ns3:atemp>23.0</ns3:atemp>
          </ns3:TrackPointExtension>
        </extensions>
      </trkpt>
      <trkpt lat="42.5948214344680309295654296875" lon="20.147724151611328125">
        <ele>1350.4000244140625</ele>
        <time>2026-06-15T08:31:33.000Z</time>
        <extensions>
          <ns3:TrackPointExtension>
            <ns3:atemp>23.0</ns3:atemp>
          </ns3:TrackPointExtension>
        </extensions>
      </trkpt>
      <trkpt lat="42.5948080234229564666748046875" lon="20.14769397675991058349609375">
        <ele>1350.5999755859375</ele>
        <time>2026-06-15T08:31:34.000Z</time>
        <extensions>
          <ns3:TrackPointExtension>
            <ns3:atemp>23.0</ns3:atemp>
          </ns3:TrackPointExtension>
        </extensions>
      </trkpt>
      <trkpt lat="42.59479947388172149658203125" lon="20.14766187407076358795166015625">
        <ele>1350.800048828125</ele>
        <time>2026-06-15T08:31:35.000Z</time>
        <extensions>
          <ns3:TrackPointExtension>
            <ns3:atemp>23.0</ns3:atemp>
          </ns3:TrackPointExtension>
        </extensions>
      </trkpt>
      <trkpt lat="42.5947858951985836029052734375" lon="20.14763052575290203094482421875">
        <ele>1351</ele>
        <time>2026-06-15T08:31:36.000Z</time>
        <extensions>
          <ns3:TrackPointExtension>
            <ns3:atemp>23.0</ns3:atemp>
          </ns3:TrackPointExtension>
        </extensions>
      </trkpt>
      <trkpt lat="42.5947671197354793548583984375" lon="20.14760571531951427459716796875">
        <ele>1351.199951171875</ele>
        <time>2026-06-15T08:31:37.000Z</time>
        <extensions>
          <ns3:TrackPointExtension>
            <ns3:atemp>23.0</ns3:atemp>
          </ns3:TrackPointExtension>
        </extensions>
      </trkpt>
      <trkpt lat="42.59474943391978740692138671875" lon="20.14758358709514141082763671875">
        <ele>1351.4000244140625</ele>
        <time>2026-06-15T08:31:38.000Z</time>
        <extensions>
          <ns3:TrackPointExtension>
            <ns3:atemp>23.0</ns3:atemp>
          </ns3:TrackPointExtension>
        </extensions>
      </trkpt>
      <trkpt lat="42.59472948499023914337158203125" lon="20.1475623808801174163818359375">
        <ele>1351.800048828125</ele>
        <time>2026-06-15T08:31:39.000Z</time>
        <extensions>
          <ns3:TrackPointExtension>
            <ns3:atemp>23.0</ns3:atemp>
          </ns3:TrackPointExtension>
        </extensions>
      </trkpt>
      <trkpt lat="42.59470936842262744903564453125" lon="20.1475389115512371063232421875">
        <ele>1352</ele>
        <time>2026-06-15T08:31:40.000Z</time>
        <extensions>
          <ns3:TrackPointExtension>
            <ns3:atemp>23.0</ns3:atemp>
          </ns3:TrackPointExtension>
        </extensions>
      </trkpt>
      <trkpt lat="42.59468774311244487762451171875" lon="20.14751418493688106536865234375">
        <ele>1352.4000244140625</ele>
        <time>2026-06-15T08:31:41.000Z</time>
        <extensions>
          <ns3:TrackPointExtension>
            <ns3:atemp>23.0</ns3:atemp>
          </ns3:TrackPointExtension>
        </extensions>
      </trkpt>
      <trkpt lat="42.59466678835451602935791015625" lon="20.147491805255413055419921875">
        <ele>1352.5999755859375</ele>
        <time>2026-06-15T08:31:42.000Z</time>
        <extensions>
          <ns3:TrackPointExtension>
            <ns3:atemp>23.0</ns3:atemp>
          </ns3:TrackPointExtension>
        </extensions>
      </trkpt>
      <trkpt lat="42.59464331902563571929931640625" lon="20.1474685035645961761474609375">
        <ele>1353</ele>
        <time>2026-06-15T08:31:43.000Z</time>
        <extensions>
          <ns3:TrackPointExtension>
            <ns3:atemp>23.0</ns3:atemp>
          </ns3:TrackPointExtension>
        </extensions>
      </trkpt>
      <trkpt lat="42.5946177542209625244140625" lon="20.1474457047879695892333984375">
        <ele>1353.199951171875</ele>
        <time>2026-06-15T08:31:44.000Z</time>
        <extensions>
          <ns3:TrackPointExtension>
            <ns3:atemp>23.0</ns3:atemp>
          </ns3:TrackPointExtension>
        </extensions>
      </trkpt>
      <trkpt lat="42.594592273235321044921875" lon="20.1474222354590892791748046875">
        <ele>1353.4000244140625</ele>
        <time>2026-06-15T08:31:45.000Z</time>
        <extensions>
          <ns3:TrackPointExtension>
            <ns3:atemp>23.0</ns3:atemp>
          </ns3:TrackPointExtension>
        </extensions>
      </trkpt>
      <trkpt lat="42.594567127525806427001953125" lon="20.1473987661302089691162109375">
        <ele>1353.5999755859375</ele>
        <time>2026-06-15T08:31:46.000Z</time>
        <extensions>
          <ns3:TrackPointExtension>
            <ns3:atemp>23.0</ns3:atemp>
          </ns3:TrackPointExtension>
        </extensions>
      </trkpt>
      <trkpt lat="42.5945468433201313018798828125" lon="20.14736901037395000457763671875">
        <ele>1354</ele>
        <time>2026-06-15T08:31:47.000Z</time>
        <extensions>
          <ns3:TrackPointExtension>
            <ns3:atemp>23.0</ns3:atemp>
          </ns3:TrackPointExtension>
        </extensions>
      </trkpt>
      <trkpt lat="42.59452714584767818450927734375" lon="20.14734151773154735565185546875">
        <ele>1354.199951171875</ele>
        <time>2026-06-15T08:31:48.000Z</time>
        <extensions>
          <ns3:TrackPointExtension>
            <ns3:atemp>23.0</ns3:atemp>
          </ns3:TrackPointExtension>
        </extensions>
      </trkpt>
      <trkpt lat="42.59450887329876422882080078125" lon="20.147314108908176422119140625">
        <ele>1354.5999755859375</ele>
        <time>2026-06-15T08:31:49.000Z</time>
        <extensions>
          <ns3:TrackPointExtension>
            <ns3:atemp>23.0</ns3:atemp>
          </ns3:TrackPointExtension>
        </extensions>
      </trkpt>
      <trkpt lat="42.59449177421629428863525390625" lon="20.147283263504505157470703125">
        <ele>1354.800048828125</ele>
        <time>2026-06-15T08:31:50.000Z</time>
        <extensions>
          <ns3:TrackPointExtension>
            <ns3:atemp>23.0</ns3:atemp>
          </ns3:TrackPointExtension>
        </extensions>
      </trkpt>
      <trkpt lat="42.59447467513382434844970703125" lon="20.147251747548580169677734375">
        <ele>1355</ele>
        <time>2026-06-15T08:31:51.000Z</time>
        <extensions>
          <ns3:TrackPointExtension>
            <ns3:atemp>23.0</ns3:atemp>
          </ns3:TrackPointExtension>
        </extensions>
      </trkpt>
      <trkpt lat="42.5944626890122890472412109375" lon="20.14722232706844806671142578125">
        <ele>1355.199951171875</ele>
        <time>2026-06-15T08:31:52.000Z</time>
        <extensions>
          <ns3:TrackPointExtension>
            <ns3:atemp>23.0</ns3:atemp>
          </ns3:TrackPointExtension>
        </extensions>
      </trkpt>
      <trkpt lat="42.59444936178624629974365234375" lon="20.14719617553055286407470703125">
        <ele>1355.4000244140625</ele>
        <time>2026-06-15T08:31:53.000Z</time>
        <extensions>
          <ns3:TrackPointExtension>
            <ns3:atemp>23.0</ns3:atemp>
          </ns3:TrackPointExtension>
        </extensions>
      </trkpt>
      <trkpt lat="42.594437040388584136962890625" lon="20.1471650786697864532470703125">
        <ele>1355.5999755859375</ele>
        <time>2026-06-15T08:31:54.000Z</time>
        <extensions>
          <ns3:TrackPointExtension>
            <ns3:atemp>23.0</ns3:atemp>
          </ns3:TrackPointExtension>
        </extensions>
      </trkpt>
      <trkpt lat="42.594426311552524566650390625" lon="20.147131383419036865234375">
        <ele>1355.800048828125</ele>
        <time>2026-06-15T08:31:55.000Z</time>
        <extensions>
          <ns3:TrackPointExtension>
            <ns3:atemp>23.0</ns3:atemp>
          </ns3:TrackPointExtension>
        </extensions>
      </trkpt>
      <trkpt lat="42.59441616944968700408935546875" lon="20.14709861017763614654541015625">
        <ele>1356.199951171875</ele>
        <time>2026-06-15T08:31:56.000Z</time>
        <extensions>
          <ns3:TrackPointExtension>
            <ns3:atemp>23.0</ns3:atemp>
          </ns3:TrackPointExtension>
        </extensions>
      </trkpt>
      <trkpt lat="42.59440795518457889556884765625" lon="20.1470671780407428741455078125">
        <ele>1356.4000244140625</ele>
        <time>2026-06-15T08:31:57.000Z</time>
        <extensions>
          <ns3:TrackPointExtension>
            <ns3:atemp>23.0</ns3:atemp>
          </ns3:TrackPointExtension>
        </extensions>
      </trkpt>
      <trkpt lat="42.594394125044345855712890625" lon="20.14703490771353244781494140625">
        <ele>1356.5999755859375</ele>
        <time>2026-06-15T08:31:58.000Z</time>
        <extensions>
          <ns3:TrackPointExtension>
            <ns3:atemp>23.0</ns3:atemp>
          </ns3:TrackPointExtension>
        </extensions>
      </trkpt>
      <trkpt lat="42.59438096545636653900146484375" lon="20.146996937692165374755859375">
        <ele>1356.800048828125</ele>
        <time>2026-06-15T08:31:59.000Z</time>
        <extensions>
          <ns3:TrackPointExtension>
            <ns3:atemp>23.0</ns3:atemp>
          </ns3:TrackPointExtension>
        </extensions>
      </trkpt>
      <trkpt lat="42.594374008476734161376953125" lon="20.1469610631465911865234375">
        <ele>1357</ele>
        <time>2026-06-15T08:32:00.000Z</time>
        <extensions>
          <ns3:TrackPointExtension>
            <ns3:atemp>23.0</ns3:atemp>
          </ns3:TrackPointExtension>
        </extensions>
      </trkpt>
      <trkpt lat="42.59436671622097492218017578125" lon="20.14692678116261959075927734375">
        <ele>1357.199951171875</ele>
        <time>2026-06-15T08:32:01.000Z</time>
        <extensions>
          <ns3:TrackPointExtension>
            <ns3:atemp>23.0</ns3:atemp>
          </ns3:TrackPointExtension>
        </extensions>
      </trkpt>
      <trkpt lat="42.59435883723199367523193359375" lon="20.14689467847347259521484375">
        <ele>1357.5999755859375</ele>
        <time>2026-06-15T08:32:02.000Z</time>
        <extensions>
          <ns3:TrackPointExtension>
            <ns3:atemp>23.0</ns3:atemp>
          </ns3:TrackPointExtension>
        </extensions>
      </trkpt>
      <trkpt lat="42.59435364045202732086181640625" lon="20.14686324633657932281494140625">
        <ele>1357.800048828125</ele>
        <time>2026-06-15T08:32:03.000Z</time>
        <extensions>
          <ns3:TrackPointExtension>
            <ns3:atemp>23.0</ns3:atemp>
          </ns3:TrackPointExtension>
        </extensions>
      </trkpt>
      <trkpt lat="42.5943486951291561126708984375" lon="20.14683164656162261962890625">
        <ele>1358</ele>
        <time>2026-06-15T08:32:04.000Z</time>
        <extensions>
          <ns3:TrackPointExtension>
            <ns3:atemp>23.0</ns3:atemp>
          </ns3:TrackPointExtension>
        </extensions>
      </trkpt>
      <trkpt lat="42.59434483945369720458984375" lon="20.14680080115795135498046875">
        <ele>1358.199951171875</ele>
        <time>2026-06-15T08:32:05.000Z</time>
        <extensions>
          <ns3:TrackPointExtension>
            <ns3:atemp>23.0</ns3:atemp>
          </ns3:TrackPointExtension>
        </extensions>
      </trkpt>
      <trkpt lat="42.5943389721214771270751953125" lon="20.1467640884220600128173828125">
        <ele>1358.5999755859375</ele>
        <time>2026-06-15T08:32:06.000Z</time>
        <extensions>
          <ns3:TrackPointExtension>
            <ns3:atemp>23.0</ns3:atemp>
          </ns3:TrackPointExtension>
        </extensions>
      </trkpt>
      <trkpt lat="42.5943309254944324493408203125" lon="20.14672695659101009368896484375">
        <ele>1359</ele>
        <time>2026-06-15T08:32:07.000Z</time>
        <extensions>
          <ns3:TrackPointExtension>
            <ns3:atemp>23.0</ns3:atemp>
          </ns3:TrackPointExtension>
        </extensions>
      </trkpt>
      <trkpt lat="42.59432162158191204071044921875" lon="20.14669108204543590545654296875">
        <ele>1359.199951171875</ele>
        <time>2026-06-15T08:32:08.000Z</time>
        <extensions>
          <ns3:TrackPointExtension>
            <ns3:atemp>23.0</ns3:atemp>
          </ns3:TrackPointExtension>
        </extensions>
      </trkpt>
      <trkpt lat="42.5943124853074550628662109375" lon="20.14665889553725719451904296875">
        <ele>1359.5999755859375</ele>
        <time>2026-06-15T08:32:09.000Z</time>
        <extensions>
          <ns3:TrackPointExtension>
            <ns3:atemp>23.0</ns3:atemp>
          </ns3:TrackPointExtension>
        </extensions>
      </trkpt>
      <trkpt lat="42.5943027622997760772705078125" lon="20.14662109315395355224609375">
        <ele>1360</ele>
        <time>2026-06-15T08:32:10.000Z</time>
        <extensions>
          <ns3:TrackPointExtension>
            <ns3:atemp>23.0</ns3:atemp>
          </ns3:TrackPointExtension>
        </extensions>
      </trkpt>
      <trkpt lat="42.59428943507373332977294921875" lon="20.146590583026409149169921875">
        <ele>1360.199951171875</ele>
        <time>2026-06-15T08:32:11.000Z</time>
        <extensions>
          <ns3:TrackPointExtension>
            <ns3:atemp>23.0</ns3:atemp>
          </ns3:TrackPointExtension>
        </extensions>
      </trkpt>
      <trkpt lat="42.59427585639059543609619140625" lon="20.14656200073659420013427734375">
        <ele>1360.5999755859375</ele>
        <time>2026-06-15T08:32:12.000Z</time>
        <extensions>
          <ns3:TrackPointExtension>
            <ns3:atemp>23.0</ns3:atemp>
          </ns3:TrackPointExtension>
        </extensions>
      </trkpt>
      <trkpt lat="42.59426227770745754241943359375" lon="20.1465337537229061126708984375">
        <ele>1360.800048828125</ele>
        <time>2026-06-15T08:32:13.000Z</time>
        <extensions>
          <ns3:TrackPointExtension>
            <ns3:atemp>23.0</ns3:atemp>
          </ns3:TrackPointExtension>
        </extensions>
      </trkpt>
      <trkpt lat="42.59424534626305103302001953125" lon="20.1465045846998691558837890625">
        <ele>1361.199951171875</ele>
        <time>2026-06-15T08:32:14.000Z</time>
        <extensions>
          <ns3:TrackPointExtension>
            <ns3:atemp>23.0</ns3:atemp>
          </ns3:TrackPointExtension>
        </extensions>
      </trkpt>
      <trkpt lat="42.59422724135220050811767578125" lon="20.14647357165813446044921875">
        <ele>1361.4000244140625</ele>
        <time>2026-06-15T08:32:15.000Z</time>
        <extensions>
          <ns3:TrackPointExtension>
            <ns3:atemp>23.0</ns3:atemp>
          </ns3:TrackPointExtension>
        </extensions>
      </trkpt>
      <trkpt lat="42.59421030990779399871826171875" lon="20.1464449055492877960205078125">
        <ele>1361.800048828125</ele>
        <time>2026-06-15T08:32:16.000Z</time>
        <extensions>
          <ns3:TrackPointExtension>
            <ns3:atemp>23.0</ns3:atemp>
          </ns3:TrackPointExtension>
        </extensions>
      </trkpt>
      <trkpt lat="42.59419329464435577392578125" lon="20.14641682617366313934326171875">
        <ele>1362.199951171875</ele>
        <time>2026-06-15T08:32:17.000Z</time>
        <extensions>
          <ns3:TrackPointExtension>
            <ns3:atemp>23.0</ns3:atemp>
          </ns3:TrackPointExtension>
        </extensions>
      </trkpt>
      <trkpt lat="42.59417275898158550262451171875" lon="20.1463924348354339599609375">
        <ele>1362.5999755859375</ele>
        <time>2026-06-15T08:32:18.000Z</time>
        <extensions>
          <ns3:TrackPointExtension>
            <ns3:atemp>23.0</ns3:atemp>
          </ns3:TrackPointExtension>
        </extensions>
      </trkpt>
      <trkpt lat="42.59415213949978351593017578125" lon="20.1463630981743335723876953125">
        <ele>1362.800048828125</ele>
        <time>2026-06-15T08:32:19.000Z</time>
        <extensions>
          <ns3:TrackPointExtension>
            <ns3:atemp>23.0</ns3:atemp>
          </ns3:TrackPointExtension>
        </extensions>
      </trkpt>
      <trkpt lat="42.59413034655153751373291015625" lon="20.14633216895163059234619140625">
        <ele>1363.199951171875</ele>
        <time>2026-06-15T08:32:20.000Z</time>
        <extensions>
          <ns3:TrackPointExtension>
            <ns3:atemp>23.0</ns3:atemp>
          </ns3:TrackPointExtension>
        </extensions>
      </trkpt>
      <trkpt lat="42.5941121578216552734375" lon="20.14630065299570560455322265625">
        <ele>1363.4000244140625</ele>
        <time>2026-06-15T08:32:21.000Z</time>
        <extensions>
          <ns3:TrackPointExtension>
            <ns3:atemp>23.0</ns3:atemp>
          </ns3:TrackPointExtension>
        </extensions>
      </trkpt>
      <trkpt lat="42.5940918736159801483154296875" lon="20.14626729302108287811279296875">
        <ele>1363.5999755859375</ele>
        <time>2026-06-15T08:32:22.000Z</time>
        <extensions>
          <ns3:TrackPointExtension>
            <ns3:atemp>23.0</ns3:atemp>
          </ns3:TrackPointExtension>
        </extensions>
      </trkpt>
      <trkpt lat="42.5940774567425251007080078125" lon="20.1462320052087306976318359375">
        <ele>1363.800048828125</ele>
        <time>2026-06-15T08:32:23.000Z</time>
        <extensions>
          <ns3:TrackPointExtension>
            <ns3:atemp>23.0</ns3:atemp>
          </ns3:TrackPointExtension>
        </extensions>
      </trkpt>
      <trkpt lat="42.59406387805938720703125" lon="20.1461921073496341705322265625">
        <ele>1364</ele>
        <time>2026-06-15T08:32:24.000Z</time>
        <extensions>
          <ns3:TrackPointExtension>
            <ns3:atemp>23.0</ns3:atemp>
          </ns3:TrackPointExtension>
        </extensions>
      </trkpt>
      <trkpt lat="42.594055831432342529296875" lon="20.1461535505950450897216796875">
        <ele>1364.199951171875</ele>
        <time>2026-06-15T08:32:25.000Z</time>
        <extensions>
          <ns3:TrackPointExtension>
            <ns3:atemp>23.0</ns3:atemp>
          </ns3:TrackPointExtension>
        </extensions>
      </trkpt>
      <trkpt lat="42.59405088610947132110595703125" lon="20.146115832030773162841796875">
        <ele>1364.4000244140625</ele>
        <time>2026-06-15T08:32:26.000Z</time>
        <extensions>
          <ns3:TrackPointExtension>
            <ns3:atemp>23.0</ns3:atemp>
          </ns3:TrackPointExtension>
        </extensions>
      </trkpt>
      <trkpt lat="42.59404770098626613616943359375" lon="20.14607702381908893585205078125">
        <ele>1364.5999755859375</ele>
        <time>2026-06-15T08:32:27.000Z</time>
        <extensions>
          <ns3:TrackPointExtension>
            <ns3:atemp>23.0</ns3:atemp>
          </ns3:TrackPointExtension>
        </extensions>
      </trkpt>
      <trkpt lat="42.5940439291298389434814453125" lon="20.14603503048419952392578125">
        <ele>1364.800048828125</ele>
        <time>2026-06-15T08:32:28.000Z</time>
        <extensions>
          <ns3:TrackPointExtension>
            <ns3:atemp>23.0</ns3:atemp>
          </ns3:TrackPointExtension>
        </extensions>
      </trkpt>
      <trkpt lat="42.59403881616890430450439453125" lon="20.1459946297109127044677734375">
        <ele>1365.199951171875</ele>
        <time>2026-06-15T08:32:29.000Z</time>
        <extensions>
          <ns3:TrackPointExtension>
            <ns3:atemp>23.0</ns3:atemp>
          </ns3:TrackPointExtension>
        </extensions>
      </trkpt>
      <trkpt lat="42.594036720693111419677734375" lon="20.1459584198892116546630859375">
        <ele>1365.4000244140625</ele>
        <time>2026-06-15T08:32:30.000Z</time>
        <extensions>
          <ns3:TrackPointExtension>
            <ns3:atemp>23.0</ns3:atemp>
          </ns3:TrackPointExtension>
        </extensions>
      </trkpt>
      <trkpt lat="42.59403345175087451934814453125" lon="20.1459272392094135284423828125">
        <ele>1365.4000244140625</ele>
        <time>2026-06-15T08:32:31.000Z</time>
        <extensions>
          <ns3:TrackPointExtension>
            <ns3:atemp>23.0</ns3:atemp>
          </ns3:TrackPointExtension>
        </extensions>
      </trkpt>
      <trkpt lat="42.5940298475325107574462890625" lon="20.1458937115967273712158203125">
        <ele>1365.5999755859375</ele>
        <time>2026-06-15T08:32:32.000Z</time>
        <extensions>
          <ns3:TrackPointExtension>
            <ns3:atemp>23.0</ns3:atemp>
          </ns3:TrackPointExtension>
        </extensions>
      </trkpt>
      <trkpt lat="42.594029344618320465087890625" lon="20.1458575017750263214111328125">
        <ele>1365.800048828125</ele>
        <time>2026-06-15T08:32:33.000Z</time>
        <extensions>
          <ns3:TrackPointExtension>
            <ns3:atemp>23.0</ns3:atemp>
          </ns3:TrackPointExtension>
        </extensions>
      </trkpt>
      <trkpt lat="42.5940278358757495880126953125" lon="20.1458176039159297943115234375">
        <ele>1366</ele>
        <time>2026-06-15T08:32:34.000Z</time>
        <extensions>
          <ns3:TrackPointExtension>
            <ns3:atemp>23.0</ns3:atemp>
          </ns3:TrackPointExtension>
        </extensions>
      </trkpt>
      <trkpt lat="42.59402590803802013397216796875" lon="20.14578047208487987518310546875">
        <ele>1366.4000244140625</ele>
        <time>2026-06-15T08:32:35.000Z</time>
        <extensions>
          <ns3:TrackPointExtension>
            <ns3:atemp>23.0</ns3:atemp>
          </ns3:TrackPointExtension>
        </extensions>
      </trkpt>
      <trkpt lat="42.594023644924163818359375" lon="20.1457431726157665252685546875">
        <ele>1366.800048828125</ele>
        <time>2026-06-15T08:32:36.000Z</time>
        <extensions>
          <ns3:TrackPointExtension>
            <ns3:atemp>23.0</ns3:atemp>
          </ns3:TrackPointExtension>
        </extensions>
      </trkpt>
      <trkpt lat="42.5940144248306751251220703125" lon="20.1457052864134311676025390625">
        <ele>1367</ele>
        <time>2026-06-15T08:32:37.000Z</time>
        <extensions>
          <ns3:TrackPointExtension>
            <ns3:atemp>23.0</ns3:atemp>
          </ns3:TrackPointExtension>
        </extensions>
      </trkpt>
      <trkpt lat="42.59400361217558383941650390625" lon="20.1456697471439838409423828125">
        <ele>1367.4000244140625</ele>
        <time>2026-06-15T08:32:38.000Z</time>
        <extensions>
          <ns3:TrackPointExtension>
            <ns3:atemp>23.0</ns3:atemp>
          </ns3:TrackPointExtension>
        </extensions>
      </trkpt>
      <trkpt lat="42.5939926318824291229248046875" lon="20.145633704960346221923828125">
        <ele>1367.800048828125</ele>
        <time>2026-06-15T08:32:39.000Z</time>
        <extensions>
          <ns3:TrackPointExtension>
            <ns3:atemp>23.0</ns3:atemp>
          </ns3:TrackPointExtension>
        </extensions>
      </trkpt>
      <trkpt lat="42.593980394303798675537109375" lon="20.14559824950993061065673828125">
        <ele>1368</ele>
        <time>2026-06-15T08:32:40.000Z</time>
        <extensions>
          <ns3:TrackPointExtension>
            <ns3:atemp>23.0</ns3:atemp>
          </ns3:TrackPointExtension>
        </extensions>
      </trkpt>
      <trkpt lat="42.59397142566740512847900390625" lon="20.14556203968822956085205078125">
        <ele>1368.199951171875</ele>
        <time>2026-06-15T08:32:41.000Z</time>
        <extensions>
          <ns3:TrackPointExtension>
            <ns3:atemp>23.0</ns3:atemp>
          </ns3:TrackPointExtension>
        </extensions>
      </trkpt>
      <trkpt lat="42.59395885281264781951904296875" lon="20.145525746047496795654296875">
        <ele>1368.5999755859375</ele>
        <time>2026-06-15T08:32:42.000Z</time>
        <extensions>
          <ns3:TrackPointExtension>
            <ns3:atemp>23.0</ns3:atemp>
          </ns3:TrackPointExtension>
        </extensions>
      </trkpt>
      <trkpt lat="42.59394275955855846405029296875" lon="20.14549146406352519989013671875">
        <ele>1369</ele>
        <time>2026-06-15T08:32:43.000Z</time>
        <extensions>
          <ns3:TrackPointExtension>
            <ns3:atemp>23.0</ns3:atemp>
          </ns3:TrackPointExtension>
        </extensions>
      </trkpt>
      <trkpt lat="42.59392616339027881622314453125" lon="20.14546162448823451995849609375">
        <ele>1369.5999755859375</ele>
        <time>2026-06-15T08:32:44.000Z</time>
        <extensions>
          <ns3:TrackPointExtension>
            <ns3:atemp>23.0</ns3:atemp>
          </ns3:TrackPointExtension>
        </extensions>
      </trkpt>
      <trkpt lat="42.593909986317157745361328125" lon="20.145435221493244171142578125">
        <ele>1370</ele>
        <time>2026-06-15T08:32:45.000Z</time>
        <extensions>
          <ns3:TrackPointExtension>
            <ns3:atemp>23.0</ns3:atemp>
          </ns3:TrackPointExtension>
        </extensions>
      </trkpt>
      <trkpt lat="42.5938943959772586822509765625" lon="20.1454078964889049530029296875">
        <ele>1370.4000244140625</ele>
        <time>2026-06-15T08:32:46.000Z</time>
        <extensions>
          <ns3:TrackPointExtension>
            <ns3:atemp>23.0</ns3:atemp>
          </ns3:TrackPointExtension>
        </extensions>
      </trkpt>
      <trkpt lat="42.59387888945639133453369140625" lon="20.14538233168423175811767578125">
        <ele>1370.800048828125</ele>
        <time>2026-06-15T08:32:47.000Z</time>
        <extensions>
          <ns3:TrackPointExtension>
            <ns3:atemp>23.0</ns3:atemp>
          </ns3:TrackPointExtension>
        </extensions>
      </trkpt>
      <trkpt lat="42.5938612036406993865966796875" lon="20.14535643160343170166015625">
        <ele>1371.199951171875</ele>
        <time>2026-06-15T08:32:48.000Z</time>
        <extensions>
          <ns3:TrackPointExtension>
            <ns3:atemp>23.0</ns3:atemp>
          </ns3:TrackPointExtension>
        </extensions>
      </trkpt>
      <trkpt lat="42.59384435601532459259033203125" lon="20.1453297771513462066650390625">
        <ele>1371.5999755859375</ele>
        <time>2026-06-15T08:32:49.000Z</time>
        <extensions>
          <ns3:TrackPointExtension>
            <ns3:atemp>23.0</ns3:atemp>
          </ns3:TrackPointExtension>
        </extensions>
      </trkpt>
      <trkpt lat="42.59382457472383975982666015625" lon="20.14530253596603870391845703125">
        <ele>1371.800048828125</ele>
        <time>2026-06-15T08:32:50.000Z</time>
        <extensions>
          <ns3:TrackPointExtension>
            <ns3:atemp>23.0</ns3:atemp>
          </ns3:TrackPointExtension>
        </extensions>
      </trkpt>
      <trkpt lat="42.59380630217492580413818359375" lon="20.14527286402881145477294921875">
        <ele>1372.199951171875</ele>
        <time>2026-06-15T08:32:51.000Z</time>
        <extensions>
          <ns3:TrackPointExtension>
            <ns3:atemp>23.0</ns3:atemp>
          </ns3:TrackPointExtension>
        </extensions>
      </trkpt>
      <trkpt lat="42.5937924720346927642822265625" lon="20.14524486847221851348876953125">
        <ele>1372.5999755859375</ele>
        <time>2026-06-15T08:32:52.000Z</time>
        <extensions>
          <ns3:TrackPointExtension>
            <ns3:atemp>23.0</ns3:atemp>
          </ns3:TrackPointExtension>
        </extensions>
      </trkpt>
      <trkpt lat="42.5937763787806034088134765625" lon="20.1452211476862430572509765625">
        <ele>1372.800048828125</ele>
        <time>2026-06-15T08:32:53.000Z</time>
        <extensions>
          <ns3:TrackPointExtension>
            <ns3:atemp>23.0</ns3:atemp>
          </ns3:TrackPointExtension>
        </extensions>
      </trkpt>
      <trkpt lat="42.5937586091458797454833984375" lon="20.14519122429192066192626953125">
        <ele>1373</ele>
        <time>2026-06-15T08:32:54.000Z</time>
        <extensions>
          <ns3:TrackPointExtension>
            <ns3:atemp>23.0</ns3:atemp>
          </ns3:TrackPointExtension>
        </extensions>
      </trkpt>
      <trkpt lat="42.5937415100634098052978515625" lon="20.1451581157743930816650390625">
        <ele>1373.4000244140625</ele>
        <time>2026-06-15T08:32:55.000Z</time>
        <extensions>
          <ns3:TrackPointExtension>
            <ns3:atemp>23.0</ns3:atemp>
          </ns3:TrackPointExtension>
        </extensions>
      </trkpt>
      <trkpt lat="42.59372466243803501129150390625" lon="20.145128779113292694091796875">
        <ele>1373.5999755859375</ele>
        <time>2026-06-15T08:32:56.000Z</time>
        <extensions>
          <ns3:TrackPointExtension>
            <ns3:atemp>23.0</ns3:atemp>
          </ns3:TrackPointExtension>
        </extensions>
      </trkpt>
      <trkpt lat="42.5937096588313579559326171875" lon="20.1450967602431774139404296875">
        <ele>1374</ele>
        <time>2026-06-15T08:32:57.000Z</time>
        <extensions>
          <ns3:TrackPointExtension>
            <ns3:atemp>23.0</ns3:atemp>
          </ns3:TrackPointExtension>
        </extensions>
      </trkpt>
      <trkpt lat="42.5936945714056491851806640625" lon="20.14506951905786991119384765625">
        <ele>1374.4000244140625</ele>
        <time>2026-06-15T08:32:58.000Z</time>
        <extensions>
          <ns3:TrackPointExtension>
            <ns3:atemp>23.0</ns3:atemp>
          </ns3:TrackPointExtension>
        </extensions>
      </trkpt>
      <trkpt lat="42.59367722086608409881591796875" lon="20.14504336751997470855712890625">
        <ele>1374.800048828125</ele>
        <time>2026-06-15T08:32:59.000Z</time>
        <extensions>
          <ns3:TrackPointExtension>
            <ns3:atemp>23.0</ns3:atemp>
          </ns3:TrackPointExtension>
        </extensions>
      </trkpt>
      <trkpt lat="42.5936620496213436126708984375" lon="20.14501268975436687469482421875">
        <ele>1375.199951171875</ele>
        <time>2026-06-15T08:33:00.000Z</time>
        <extensions>
          <ns3:TrackPointExtension>
            <ns3:atemp>23.0</ns3:atemp>
          </ns3:TrackPointExtension>
        </extensions>
      </trkpt>
      <trkpt lat="42.593647800385951995849609375" lon="20.144981928169727325439453125">
        <ele>1375.4000244140625</ele>
        <time>2026-06-15T08:33:01.000Z</time>
        <extensions>
          <ns3:TrackPointExtension>
            <ns3:atemp>23.0</ns3:atemp>
          </ns3:TrackPointExtension>
        </extensions>
      </trkpt>
      <trkpt lat="42.5936322100460529327392578125" lon="20.1449522562325000762939453125">
        <ele>1375.800048828125</ele>
        <time>2026-06-15T08:33:02.000Z</time>
        <extensions>
          <ns3:TrackPointExtension>
            <ns3:atemp>23.0</ns3:atemp>
          </ns3:TrackPointExtension>
        </extensions>
      </trkpt>
      <trkpt lat="42.5936174578964710235595703125" lon="20.144922919571399688720703125">
        <ele>1376</ele>
        <time>2026-06-15T08:33:03.000Z</time>
        <extensions>
          <ns3:TrackPointExtension>
            <ns3:atemp>23.0</ns3:atemp>
          </ns3:TrackPointExtension>
        </extensions>
      </trkpt>
      <trkpt lat="42.5936030410230159759521484375" lon="20.144894085824489593505859375">
        <ele>1376.199951171875</ele>
        <time>2026-06-15T08:33:04.000Z</time>
        <extensions>
          <ns3:TrackPointExtension>
            <ns3:atemp>23.0</ns3:atemp>
          </ns3:TrackPointExtension>
        </extensions>
      </trkpt>
      <trkpt lat="42.59358719922602176666259765625" lon="20.14486298896372318267822265625">
        <ele>1376.5999755859375</ele>
        <time>2026-06-15T08:33:05.000Z</time>
        <extensions>
          <ns3:TrackPointExtension>
            <ns3:atemp>23.0</ns3:atemp>
          </ns3:TrackPointExtension>
        </extensions>
      </trkpt>
      <trkpt lat="42.59357060305774211883544921875" lon="20.14482979662716388702392578125">
        <ele>1377</ele>
        <time>2026-06-15T08:33:06.000Z</time>
        <extensions>
          <ns3:TrackPointExtension>
            <ns3:atemp>23.0</ns3:atemp>
          </ns3:TrackPointExtension>
        </extensions>
      </trkpt>
      <trkpt lat="42.59355601854622364044189453125" lon="20.14479576610028743743896484375">
        <ele>1377.199951171875</ele>
        <time>2026-06-15T08:33:07.000Z</time>
        <extensions>
          <ns3:TrackPointExtension>
            <ns3:atemp>23.0</ns3:atemp>
          </ns3:TrackPointExtension>
        </extensions>
      </trkpt>
      <trkpt lat="42.59353891946375370025634765625" lon="20.1447670161724090576171875">
        <ele>1377.5999755859375</ele>
        <time>2026-06-15T08:33:08.000Z</time>
        <extensions>
          <ns3:TrackPointExtension>
            <ns3:atemp>23.0</ns3:atemp>
          </ns3:TrackPointExtension>
        </extensions>
      </trkpt>
      <trkpt lat="42.593517713248729705810546875" lon="20.1447383500635623931884765625">
        <ele>1377.800048828125</ele>
        <time>2026-06-15T08:33:09.000Z</time>
        <extensions>
          <ns3:TrackPointExtension>
            <ns3:atemp>23.0</ns3:atemp>
          </ns3:TrackPointExtension>
        </extensions>
      </trkpt>
      <trkpt lat="42.59350153617560863494873046875" lon="20.14470792375504970550537109375">
        <ele>1378.199951171875</ele>
        <time>2026-06-15T08:33:10.000Z</time>
        <extensions>
          <ns3:TrackPointExtension>
            <ns3:atemp>23.0</ns3:atemp>
          </ns3:TrackPointExtension>
        </extensions>
      </trkpt>
      <trkpt lat="42.5934860296547412872314453125" lon="20.1446786709129810333251953125">
        <ele>1378.5999755859375</ele>
        <time>2026-06-15T08:33:11.000Z</time>
        <extensions>
          <ns3:TrackPointExtension>
            <ns3:atemp>23.0</ns3:atemp>
          </ns3:TrackPointExtension>
        </extensions>
      </trkpt>
      <trkpt lat="42.59347236715257167816162109375" lon="20.1446471549570560455322265625">
        <ele>1378.800048828125</ele>
        <time>2026-06-15T08:33:12.000Z</time>
        <extensions>
          <ns3:TrackPointExtension>
            <ns3:atemp>23.0</ns3:atemp>
          </ns3:TrackPointExtension>
        </extensions>
      </trkpt>
      <trkpt lat="42.593458704650402069091796875" lon="20.14461773447692394256591796875">
        <ele>1379.199951171875</ele>
        <time>2026-06-15T08:33:13.000Z</time>
        <extensions>
          <ns3:TrackPointExtension>
            <ns3:atemp>23.0</ns3:atemp>
          </ns3:TrackPointExtension>
        </extensions>
      </trkpt>
      <trkpt lat="42.593447305262088775634765625" lon="20.14458940364420413970947265625">
        <ele>1379.5999755859375</ele>
        <time>2026-06-15T08:33:14.000Z</time>
        <extensions>
          <ns3:TrackPointExtension>
            <ns3:atemp>23.0</ns3:atemp>
          </ns3:TrackPointExtension>
        </extensions>
      </trkpt>
      <trkpt lat="42.59343347512185573577880859375" lon="20.14456073753535747528076171875">
        <ele>1380</ele>
        <time>2026-06-15T08:33:15.000Z</time>
        <extensions>
          <ns3:TrackPointExtension>
            <ns3:atemp>23.0</ns3:atemp>
          </ns3:TrackPointExtension>
        </extensions>
      </trkpt>
      <trkpt lat="42.593416459858417510986328125" lon="20.14453173615038394927978515625">
        <ele>1380.4000244140625</ele>
        <time>2026-06-15T08:33:16.000Z</time>
        <extensions>
          <ns3:TrackPointExtension>
            <ns3:atemp>23.0</ns3:atemp>
          </ns3:TrackPointExtension>
        </extensions>
      </trkpt>
      <trkpt lat="42.59339944459497928619384765625" lon="20.144504494965076446533203125">
        <ele>1380.800048828125</ele>
        <time>2026-06-15T08:33:17.000Z</time>
        <extensions>
          <ns3:TrackPointExtension>
            <ns3:atemp>23.0</ns3:atemp>
          </ns3:TrackPointExtension>
        </extensions>
      </trkpt>
      <trkpt lat="42.5933841057121753692626953125" lon="20.14447666704654693603515625">
        <ele>1381.199951171875</ele>
        <time>2026-06-15T08:33:18.000Z</time>
        <extensions>
          <ns3:TrackPointExtension>
            <ns3:atemp>23.0</ns3:atemp>
          </ns3:TrackPointExtension>
        </extensions>
      </trkpt>
      <trkpt lat="42.59336583316326141357421875" lon="20.14445009641349315643310546875">
        <ele>1381.5999755859375</ele>
        <time>2026-06-15T08:33:19.000Z</time>
        <extensions>
          <ns3:TrackPointExtension>
            <ns3:atemp>23.0</ns3:atemp>
          </ns3:TrackPointExtension>
        </extensions>
      </trkpt>
      <trkpt lat="42.59334278292953968048095703125" lon="20.14442796818912029266357421875">
        <ele>1382</ele>
        <time>2026-06-15T08:33:20.000Z</time>
        <extensions>
          <ns3:TrackPointExtension>
            <ns3:atemp>23.0</ns3:atemp>
          </ns3:TrackPointExtension>
        </extensions>
      </trkpt>
      <trkpt lat="42.5933177210390567779541015625" lon="20.14440952800214290618896484375">
        <ele>1382.4000244140625</ele>
        <time>2026-06-15T08:33:21.000Z</time>
        <extensions>
          <ns3:TrackPointExtension>
            <ns3:atemp>23.0</ns3:atemp>
          </ns3:TrackPointExtension>
        </extensions>
      </trkpt>
      <trkpt lat="42.5932929106056690216064453125" lon="20.1443953625857830047607421875">
        <ele>1382.5999755859375</ele>
        <time>2026-06-15T08:33:22.000Z</time>
        <extensions>
          <ns3:TrackPointExtension>
            <ns3:atemp>23.0</ns3:atemp>
          </ns3:TrackPointExtension>
        </extensions>
      </trkpt>
      <trkpt lat="42.59326583705842494964599609375" lon="20.1443910039961338043212890625">
        <ele>1382.800048828125</ele>
        <time>2026-06-15T08:33:23.000Z</time>
        <extensions>
          <ns3:TrackPointExtension>
            <ns3:atemp>23.0</ns3:atemp>
          </ns3:TrackPointExtension>
        </extensions>
      </trkpt>
      <trkpt lat="42.59324136190116405487060546875" lon="20.14439796097576618194580078125">
        <ele>1383</ele>
        <time>2026-06-15T08:33:24.000Z</time>
        <extensions>
          <ns3:TrackPointExtension>
            <ns3:atemp>23.0</ns3:atemp>
          </ns3:TrackPointExtension>
        </extensions>
      </trkpt>
      <trkpt lat="42.593221329152584075927734375" lon="20.1444158144295215606689453125">
        <ele>1383.199951171875</ele>
        <time>2026-06-15T08:33:25.000Z</time>
        <extensions>
          <ns3:TrackPointExtension>
            <ns3:atemp>23.0</ns3:atemp>
          </ns3:TrackPointExtension>
        </extensions>
      </trkpt>
      <trkpt lat="42.59321135468780994415283203125" lon="20.14443936757743358612060546875">
        <ele>1383.4000244140625</ele>
        <time>2026-06-15T08:33:26.000Z</time>
        <extensions>
          <ns3:TrackPointExtension>
            <ns3:atemp>23.0</ns3:atemp>
          </ns3:TrackPointExtension>
        </extensions>
      </trkpt>
      <trkpt lat="42.59320381097495555877685546875" lon="20.1444687880575656890869140625">
        <ele>1383.5999755859375</ele>
        <time>2026-06-15T08:33:27.000Z</time>
        <extensions>
          <ns3:TrackPointExtension>
            <ns3:atemp>23.0</ns3:atemp>
          </ns3:TrackPointExtension>
        </extensions>
      </trkpt>
      <trkpt lat="42.59320246987044811248779296875" lon="20.144501812756061553955078125">
        <ele>1383.800048828125</ele>
        <time>2026-06-15T08:33:28.000Z</time>
        <extensions>
          <ns3:TrackPointExtension>
            <ns3:atemp>23.0</ns3:atemp>
          </ns3:TrackPointExtension>
        </extensions>
      </trkpt>
      <trkpt lat="42.59321001358330249786376953125" lon="20.14453207142651081085205078125">
        <ele>1384</ele>
        <time>2026-06-15T08:33:29.000Z</time>
        <extensions>
          <ns3:TrackPointExtension>
            <ns3:atemp>23.0</ns3:atemp>
          </ns3:TrackPointExtension>
        </extensions>
      </trkpt>
      <trkpt lat="42.59321806021034717559814453125" lon="20.1445569656789302825927734375">
        <ele>1384.199951171875</ele>
        <time>2026-06-15T08:33:30.000Z</time>
        <extensions>
          <ns3:TrackPointExtension>
            <ns3:atemp>23.0</ns3:atemp>
          </ns3:TrackPointExtension>
        </extensions>
      </trkpt>
      <trkpt lat="42.59322778321802616119384765625" lon="20.144584961235523223876953125">
        <ele>1384.4000244140625</ele>
        <time>2026-06-15T08:33:31.000Z</time>
        <extensions>
          <ns3:TrackPointExtension>
            <ns3:atemp>23.0</ns3:atemp>
          </ns3:TrackPointExtension>
        </extensions>
      </trkpt>
      <trkpt lat="42.59323633275926113128662109375" lon="20.1446126215159893035888671875">
        <ele>1384.5999755859375</ele>
        <time>2026-06-15T08:33:32.000Z</time>
        <extensions>
          <ns3:TrackPointExtension>
            <ns3:atemp>23.0</ns3:atemp>
          </ns3:TrackPointExtension>
        </extensions>
      </trkpt>
      <trkpt lat="42.5932453013956546783447265625" lon="20.1446421258151531219482421875">
        <ele>1384.800048828125</ele>
        <time>2026-06-15T08:33:33.000Z</time>
        <extensions>
          <ns3:TrackPointExtension>
            <ns3:atemp>23.0</ns3:atemp>
          </ns3:TrackPointExtension>
        </extensions>
      </trkpt>
      <trkpt lat="42.5932553596794605255126953125" lon="20.14467054046690464019775390625">
        <ele>1385</ele>
        <time>2026-06-15T08:33:34.000Z</time>
        <extensions>
          <ns3:TrackPointExtension>
            <ns3:atemp>23.0</ns3:atemp>
          </ns3:TrackPointExtension>
        </extensions>
      </trkpt>
      <trkpt lat="42.593263573944568634033203125" lon="20.14470054768025875091552734375">
        <ele>1385.199951171875</ele>
        <time>2026-06-15T08:33:35.000Z</time>
        <extensions>
          <ns3:TrackPointExtension>
            <ns3:atemp>23.0</ns3:atemp>
          </ns3:TrackPointExtension>
        </extensions>
      </trkpt>
      <trkpt lat="42.59327488951385021209716796875" lon="20.1447323150932788848876953125">
        <ele>1385.5999755859375</ele>
        <time>2026-06-15T08:33:36.000Z</time>
        <extensions>
          <ns3:TrackPointExtension>
            <ns3:atemp>23.0</ns3:atemp>
          </ns3:TrackPointExtension>
        </extensions>
      </trkpt>
      <trkpt lat="42.59328897111117839813232421875" lon="20.1447614841163158416748046875">
        <ele>1385.800048828125</ele>
        <time>2026-06-15T08:33:37.000Z</time>
        <extensions>
          <ns3:TrackPointExtension>
            <ns3:atemp>23.0</ns3:atemp>
          </ns3:TrackPointExtension>
        </extensions>
      </trkpt>
      <trkpt lat="42.59330280125141143798828125" lon="20.1447930000722408294677734375">
        <ele>1386.199951171875</ele>
        <time>2026-06-15T08:33:38.000Z</time>
        <extensions>
          <ns3:TrackPointExtension>
            <ns3:atemp>23.0</ns3:atemp>
          </ns3:TrackPointExtension>
        </extensions>
      </trkpt>
      <trkpt lat="42.59331294335424900054931640625" lon="20.14482175000011920928955078125">
        <ele>1386.5999755859375</ele>
        <time>2026-06-15T08:33:39.000Z</time>
        <extensions>
          <ns3:TrackPointExtension>
            <ns3:atemp>23.0</ns3:atemp>
          </ns3:TrackPointExtension>
        </extensions>
      </trkpt>
      <trkpt lat="42.5933214090764522552490234375" lon="20.1448479853570461273193359375">
        <ele>1386.800048828125</ele>
        <time>2026-06-15T08:33:40.000Z</time>
        <extensions>
          <ns3:TrackPointExtension>
            <ns3:atemp>23.0</ns3:atemp>
          </ns3:TrackPointExtension>
        </extensions>
      </trkpt>
      <trkpt lat="42.59332903660833835601806640625" lon="20.14487338252365589141845703125">
        <ele>1387</ele>
        <time>2026-06-15T08:33:41.000Z</time>
        <extensions>
          <ns3:TrackPointExtension>
            <ns3:atemp>23.0</ns3:atemp>
          </ns3:TrackPointExtension>
        </extensions>
      </trkpt>
      <trkpt lat="42.5933344848453998565673828125" lon="20.14490305446088314056396484375">
        <ele>1387.4000244140625</ele>
        <time>2026-06-15T08:33:42.000Z</time>
        <extensions>
          <ns3:TrackPointExtension>
            <ns3:atemp>23.0</ns3:atemp>
          </ns3:TrackPointExtension>
        </extensions>
      </trkpt>
      <trkpt lat="42.59334311820566654205322265625" lon="20.144931972026824951171875">
        <ele>1387.5999755859375</ele>
        <time>2026-06-15T08:33:43.000Z</time>
        <extensions>
          <ns3:TrackPointExtension>
            <ns3:atemp>23.0</ns3:atemp>
          </ns3:TrackPointExtension>
        </extensions>
      </trkpt>
      <trkpt lat="42.593353427946567535400390625" lon="20.1449629850685596466064453125">
        <ele>1387.800048828125</ele>
        <time>2026-06-15T08:33:44.000Z</time>
        <extensions>
          <ns3:TrackPointExtension>
            <ns3:atemp>23.0</ns3:atemp>
          </ns3:TrackPointExtension>
        </extensions>
      </trkpt>
      <trkpt lat="42.5933624804019927978515625" lon="20.14499525539577007293701171875">
        <ele>1387.800048828125</ele>
        <time>2026-06-15T08:33:45.000Z</time>
        <extensions>
          <ns3:TrackPointExtension>
            <ns3:atemp>23.0</ns3:atemp>
          </ns3:TrackPointExtension>
        </extensions>
      </trkpt>
      <trkpt lat="42.59336994029581546783447265625" lon="20.14502895064651966094970703125">
        <ele>1388</ele>
        <time>2026-06-15T08:33:46.000Z</time>
        <extensions>
          <ns3:TrackPointExtension>
            <ns3:atemp>23.0</ns3:atemp>
          </ns3:TrackPointExtension>
        </extensions>
      </trkpt>
      <trkpt lat="42.59337748400866985321044921875" lon="20.1450592093169689178466796875">
        <ele>1388.4000244140625</ele>
        <time>2026-06-15T08:33:47.000Z</time>
        <extensions>
          <ns3:TrackPointExtension>
            <ns3:atemp>23.0</ns3:atemp>
          </ns3:TrackPointExtension>
        </extensions>
      </trkpt>
      <trkpt lat="42.59338787756860256195068359375" lon="20.1450890488922595977783203125">
        <ele>1388.5999755859375</ele>
        <time>2026-06-15T08:33:48.000Z</time>
        <extensions>
          <ns3:TrackPointExtension>
            <ns3:atemp>23.0</ns3:atemp>
          </ns3:TrackPointExtension>
        </extensions>
      </trkpt>
      <trkpt lat="42.5933948345482349395751953125" lon="20.14512316323816776275634765625">
        <ele>1388.800048828125</ele>
        <time>2026-06-15T08:33:49.000Z</time>
        <extensions>
          <ns3:TrackPointExtension>
            <ns3:atemp>23.0</ns3:atemp>
          </ns3:TrackPointExtension>
        </extensions>
      </trkpt>
      <trkpt lat="42.5934015400707721710205078125" lon="20.14515551738440990447998046875">
        <ele>1389.199951171875</ele>
        <time>2026-06-15T08:33:50.000Z</time>
        <extensions>
          <ns3:TrackPointExtension>
            <ns3:atemp>23.0</ns3:atemp>
          </ns3:TrackPointExtension>
        </extensions>
      </trkpt>
      <trkpt lat="42.593409754335880279541015625" lon="20.14518611133098602294921875">
        <ele>1389.5999755859375</ele>
        <time>2026-06-15T08:33:51.000Z</time>
        <extensions>
          <ns3:TrackPointExtension>
            <ns3:atemp>23.0</ns3:atemp>
          </ns3:TrackPointExtension>
        </extensions>
      </trkpt>
      <trkpt lat="42.5934183038771152496337890625" lon="20.1452134363353252410888671875">
        <ele>1389.800048828125</ele>
        <time>2026-06-15T08:33:52.000Z</time>
        <extensions>
          <ns3:TrackPointExtension>
            <ns3:atemp>23.0</ns3:atemp>
          </ns3:TrackPointExtension>
        </extensions>
      </trkpt>
      <trkpt lat="42.59342324919998645782470703125" lon="20.14524034224450588226318359375">
        <ele>1390.199951171875</ele>
        <time>2026-06-15T08:33:53.000Z</time>
        <extensions>
          <ns3:TrackPointExtension>
            <ns3:atemp>23.0</ns3:atemp>
          </ns3:TrackPointExtension>
        </extensions>
      </trkpt>
      <trkpt lat="42.59343012236058712005615234375" lon="20.14527152292430400848388671875">
        <ele>1390.4000244140625</ele>
        <time>2026-06-15T08:33:54.000Z</time>
        <extensions>
          <ns3:TrackPointExtension>
            <ns3:atemp>23.0</ns3:atemp>
          </ns3:TrackPointExtension>
        </extensions>
      </trkpt>
      <trkpt lat="42.59343565441668033599853515625" lon="20.14530387707054615020751953125">
        <ele>1390.5999755859375</ele>
        <time>2026-06-15T08:33:55.000Z</time>
        <extensions>
          <ns3:TrackPointExtension>
            <ns3:atemp>23.0</ns3:atemp>
          </ns3:TrackPointExtension>
        </extensions>
      </trkpt>
      <trkpt lat="42.59343900717794895172119140625" lon="20.14533497393131256103515625">
        <ele>1390.5999755859375</ele>
        <time>2026-06-15T08:33:56.000Z</time>
        <extensions>
          <ns3:TrackPointExtension>
            <ns3:atemp>23.0</ns3:atemp>
          </ns3:TrackPointExtension>
        </extensions>
      </trkpt>
      <trkpt lat="42.59344453923404216766357421875" lon="20.14536984264850616455078125">
        <ele>1391</ele>
        <time>2026-06-15T08:33:57.000Z</time>
        <extensions>
          <ns3:TrackPointExtension>
            <ns3:atemp>23.0</ns3:atemp>
          </ns3:TrackPointExtension>
        </extensions>
      </trkpt>
      <trkpt lat="42.59345292113721370697021484375" lon="20.14540730975568294525146484375">
        <ele>1391.199951171875</ele>
        <time>2026-06-15T08:33:58.000Z</time>
        <extensions>
          <ns3:TrackPointExtension>
            <ns3:atemp>23.0</ns3:atemp>
          </ns3:TrackPointExtension>
        </extensions>
      </trkpt>
      <trkpt lat="42.5934625603258609771728515625" lon="20.1454447768628597259521484375">
        <ele>1391.4000244140625</ele>
        <time>2026-06-15T08:33:59.000Z</time>
        <extensions>
          <ns3:TrackPointExtension>
            <ns3:atemp>23.0</ns3:atemp>
          </ns3:TrackPointExtension>
        </extensions>
      </trkpt>
      <trkpt lat="42.59346641600131988525390625" lon="20.1454799808561801910400390625">
        <ele>1391.5999755859375</ele>
        <time>2026-06-15T08:34:00.000Z</time>
        <extensions>
          <ns3:TrackPointExtension>
            <ns3:atemp>23.0</ns3:atemp>
          </ns3:TrackPointExtension>
        </extensions>
      </trkpt>
      <trkpt lat="42.5934709422290325164794921875" lon="20.145513005554676055908203125">
        <ele>1392</ele>
        <time>2026-06-15T08:34:01.000Z</time>
        <extensions>
          <ns3:TrackPointExtension>
            <ns3:atemp>23.0</ns3:atemp>
          </ns3:TrackPointExtension>
        </extensions>
      </trkpt>
      <trkpt lat="42.59347303770482540130615234375" lon="20.145543515682220458984375">
        <ele>1392.199951171875</ele>
        <time>2026-06-15T08:34:02.000Z</time>
        <extensions>
          <ns3:TrackPointExtension>
            <ns3:atemp>23.0</ns3:atemp>
          </ns3:TrackPointExtension>
        </extensions>
      </trkpt>
      <trkpt lat="42.59347236715257167816162109375" lon="20.14557637274265289306640625">
        <ele>1392.5999755859375</ele>
        <time>2026-06-15T08:34:03.000Z</time>
        <extensions>
          <ns3:TrackPointExtension>
            <ns3:atemp>23.0</ns3:atemp>
          </ns3:TrackPointExtension>
        </extensions>
      </trkpt>
      <trkpt lat="42.593476139008998870849609375" lon="20.145604871213436126708984375">
        <ele>1392.800048828125</ele>
        <time>2026-06-15T08:34:04.000Z</time>
        <extensions>
          <ns3:TrackPointExtension>
            <ns3:atemp>23.0</ns3:atemp>
          </ns3:TrackPointExtension>
        </extensions>
      </trkpt>
      <trkpt lat="42.59347672574222087860107421875" lon="20.145638398826122283935546875">
        <ele>1393</ele>
        <time>2026-06-15T08:34:05.000Z</time>
        <extensions>
          <ns3:TrackPointExtension>
            <ns3:atemp>23.0</ns3:atemp>
          </ns3:TrackPointExtension>
        </extensions>
      </trkpt>
      <trkpt lat="42.5934778153896331787109375" lon="20.1456730999052524566650390625">
        <ele>1393.4000244140625</ele>
        <time>2026-06-15T08:34:06.000Z</time>
        <extensions>
          <ns3:TrackPointExtension>
            <ns3:atemp>23.0</ns3:atemp>
          </ns3:TrackPointExtension>
        </extensions>
      </trkpt>
      <trkpt lat="42.5934806652367115020751953125" lon="20.145704448223114013671875">
        <ele>1393.5999755859375</ele>
        <time>2026-06-15T08:34:07.000Z</time>
        <extensions>
          <ns3:TrackPointExtension>
            <ns3:atemp>23.0</ns3:atemp>
          </ns3:TrackPointExtension>
        </extensions>
      </trkpt>
      <trkpt lat="42.59348074905574321746826171875" lon="20.145743004977703094482421875">
        <ele>1394</ele>
        <time>2026-06-15T08:34:08.000Z</time>
        <extensions>
          <ns3:TrackPointExtension>
            <ns3:atemp>23.0</ns3:atemp>
          </ns3:TrackPointExtension>
        </extensions>
      </trkpt>
      <trkpt lat="42.59348192252218723297119140625" lon="20.1457822322845458984375">
        <ele>1394.199951171875</ele>
        <time>2026-06-15T08:34:09.000Z</time>
        <extensions>
          <ns3:TrackPointExtension>
            <ns3:atemp>23.0</ns3:atemp>
          </ns3:TrackPointExtension>
        </extensions>
      </trkpt>
      <trkpt lat="42.59347991086542606353759765625" lon="20.14581986702978610992431640625">
        <ele>1394.5999755859375</ele>
        <time>2026-06-15T08:34:10.000Z</time>
        <extensions>
          <ns3:TrackPointExtension>
            <ns3:atemp>23.0</ns3:atemp>
          </ns3:TrackPointExtension>
        </extensions>
      </trkpt>
      <trkpt lat="42.59347739629447460174560546875" lon="20.14585909433662891387939453125">
        <ele>1394.800048828125</ele>
        <time>2026-06-15T08:34:11.000Z</time>
        <extensions>
          <ns3:TrackPointExtension>
            <ns3:atemp>23.0</ns3:atemp>
          </ns3:TrackPointExtension>
        </extensions>
      </trkpt>
      <trkpt lat="42.5934753008186817169189453125" lon="20.14589480124413967132568359375">
        <ele>1395</ele>
        <time>2026-06-15T08:34:12.000Z</time>
        <extensions>
          <ns3:TrackPointExtension>
            <ns3:atemp>23.0</ns3:atemp>
          </ns3:TrackPointExtension>
        </extensions>
      </trkpt>
      <trkpt lat="42.59347387589514255523681640625" lon="20.145928077399730682373046875">
        <ele>1395.4000244140625</ele>
        <time>2026-06-15T08:34:13.000Z</time>
        <extensions>
          <ns3:TrackPointExtension>
            <ns3:atemp>23.0</ns3:atemp>
          </ns3:TrackPointExtension>
        </extensions>
      </trkpt>
      <trkpt lat="42.593472115695476531982421875" lon="20.1459611020982265472412109375">
        <ele>1395.5999755859375</ele>
        <time>2026-06-15T08:34:14.000Z</time>
        <extensions>
          <ns3:TrackPointExtension>
            <ns3:atemp>23.0</ns3:atemp>
          </ns3:TrackPointExtension>
        </extensions>
      </trkpt>
      <trkpt lat="42.5934652425348758697509765625" lon="20.14599655754864215850830078125">
        <ele>1396</ele>
        <time>2026-06-15T08:34:15.000Z</time>
        <extensions>
          <ns3:TrackPointExtension>
            <ns3:atemp>23.0</ns3:atemp>
          </ns3:TrackPointExtension>
        </extensions>
      </trkpt>
      <trkpt lat="42.59346012957394123077392578125" lon="20.1460281573235988616943359375">
        <ele>1396.199951171875</ele>
        <time>2026-06-15T08:34:16.000Z</time>
        <extensions>
          <ns3:TrackPointExtension>
            <ns3:atemp>23.0</ns3:atemp>
          </ns3:TrackPointExtension>
        </extensions>
      </trkpt>
      <trkpt lat="42.59345627389848232269287109375" lon="20.14606495387852191925048828125">
        <ele>1396.5999755859375</ele>
        <time>2026-06-15T08:34:17.000Z</time>
        <extensions>
          <ns3:TrackPointExtension>
            <ns3:atemp>23.0</ns3:atemp>
          </ns3:TrackPointExtension>
        </extensions>
      </trkpt>
      <trkpt lat="42.593456692993640899658203125" lon="20.14609806239604949951171875">
        <ele>1397</ele>
        <time>2026-06-15T08:34:18.000Z</time>
        <extensions>
          <ns3:TrackPointExtension>
            <ns3:atemp>23.0</ns3:atemp>
          </ns3:TrackPointExtension>
        </extensions>
      </trkpt>
      <trkpt lat="42.593449316918849945068359375" lon="20.14612999744713306427001953125">
        <ele>1397.800048828125</ele>
        <time>2026-06-15T08:34:19.000Z</time>
        <extensions>
          <ns3:TrackPointExtension>
            <ns3:atemp>23.0</ns3:atemp>
          </ns3:TrackPointExtension>
        </extensions>
      </trkpt>
      <trkpt lat="42.5934411026537418365478515625" lon="20.146165452897548675537109375">
        <ele>1398.199951171875</ele>
        <time>2026-06-15T08:34:20.000Z</time>
        <extensions>
          <ns3:TrackPointExtension>
            <ns3:atemp>23.0</ns3:atemp>
          </ns3:TrackPointExtension>
        </extensions>
      </trkpt>
      <trkpt lat="42.59343448095023632049560546875" lon="20.146200321614742279052734375">
        <ele>1398.5999755859375</ele>
        <time>2026-06-15T08:34:21.000Z</time>
        <extensions>
          <ns3:TrackPointExtension>
            <ns3:atemp>23.0</ns3:atemp>
          </ns3:TrackPointExtension>
        </extensions>
      </trkpt>
      <trkpt lat="42.59342844597995281219482421875" lon="20.14623711816966533660888671875">
        <ele>1398.5999755859375</ele>
        <time>2026-06-15T08:34:22.000Z</time>
        <extensions>
          <ns3:TrackPointExtension>
            <ns3:atemp>23.0</ns3:atemp>
          </ns3:TrackPointExtension>
        </extensions>
      </trkpt>
      <trkpt lat="42.5934213213622570037841796875" lon="20.14626746065914630889892578125">
        <ele>1398.4000244140625</ele>
        <time>2026-06-15T08:34:23.000Z</time>
        <extensions>
          <ns3:TrackPointExtension>
            <ns3:atemp>23.0</ns3:atemp>
          </ns3:TrackPointExtension>
        </extensions>
      </trkpt>
      <trkpt lat="42.59340933524072170257568359375" lon="20.1462980546057224273681640625">
        <ele>1398</ele>
        <time>2026-06-15T08:34:24.000Z</time>
        <extensions>
          <ns3:TrackPointExtension>
            <ns3:atemp>23.0</ns3:atemp>
          </ns3:TrackPointExtension>
        </extensions>
      </trkpt>
      <trkpt lat="42.59339810349047183990478515625" lon="20.14632931910455226898193359375">
        <ele>1398.4000244140625</ele>
        <time>2026-06-15T08:34:25.000Z</time>
        <extensions>
          <ns3:TrackPointExtension>
            <ns3:atemp>23.0</ns3:atemp>
          </ns3:TrackPointExtension>
        </extensions>
      </trkpt>
      <trkpt lat="42.59338854812085628509521484375" lon="20.14636167325079441070556640625">
        <ele>1398.5999755859375</ele>
        <time>2026-06-15T08:34:26.000Z</time>
        <extensions>
          <ns3:TrackPointExtension>
            <ns3:atemp>23.0</ns3:atemp>
          </ns3:TrackPointExtension>
        </extensions>
      </trkpt>
      <trkpt lat="42.59337781928479671478271484375" lon="20.1463919319212436676025390625">
        <ele>1399.4000244140625</ele>
        <time>2026-06-15T08:34:27.000Z</time>
        <extensions>
          <ns3:TrackPointExtension>
            <ns3:atemp>23.0</ns3:atemp>
          </ns3:TrackPointExtension>
        </extensions>
      </trkpt>
      <trkpt lat="42.5933653302490711212158203125" lon="20.1464192569255828857421875">
        <ele>1399.800048828125</ele>
        <time>2026-06-15T08:34:28.000Z</time>
        <extensions>
          <ns3:TrackPointExtension>
            <ns3:atemp>23.0</ns3:atemp>
          </ns3:TrackPointExtension>
        </extensions>
      </trkpt>
      <trkpt lat="42.5933542661368846893310546875" lon="20.14645052142441272735595703125">
        <ele>1400.199951171875</ele>
        <time>2026-06-15T08:34:29.000Z</time>
        <extensions>
          <ns3:TrackPointExtension>
            <ns3:atemp>23.0</ns3:atemp>
          </ns3:TrackPointExtension>
        </extensions>
      </trkpt>
      <trkpt lat="42.593343369662761688232421875" lon="20.14647969044744968414306640625">
        <ele>1400.5999755859375</ele>
        <time>2026-06-15T08:34:30.000Z</time>
        <extensions>
          <ns3:TrackPointExtension>
            <ns3:atemp>23.0</ns3:atemp>
          </ns3:TrackPointExtension>
        </extensions>
      </trkpt>
      <trkpt lat="42.59333373047411441802978515625" lon="20.14651036821305751800537109375">
        <ele>1401</ele>
        <time>2026-06-15T08:34:31.000Z</time>
        <extensions>
          <ns3:TrackPointExtension>
            <ns3:atemp>23.0</ns3:atemp>
          </ns3:TrackPointExtension>
        </extensions>
      </trkpt>
      <trkpt lat="42.5933217443525791168212890625" lon="20.1465451531112194061279296875">
        <ele>1401.199951171875</ele>
        <time>2026-06-15T08:34:32.000Z</time>
        <extensions>
          <ns3:TrackPointExtension>
            <ns3:atemp>23.0</ns3:atemp>
          </ns3:TrackPointExtension>
        </extensions>
      </trkpt>
      <trkpt lat="42.59330791421234607696533203125" lon="20.14657809399068355560302734375">
        <ele>1401.4000244140625</ele>
        <time>2026-06-15T08:34:33.000Z</time>
        <extensions>
          <ns3:TrackPointExtension>
            <ns3:atemp>23.0</ns3:atemp>
          </ns3:TrackPointExtension>
        </extensions>
      </trkpt>
      <trkpt lat="42.59329475462436676025390625" lon="20.14660977758467197418212890625">
        <ele>1401.800048828125</ele>
        <time>2026-06-15T08:34:34.000Z</time>
        <extensions>
          <ns3:TrackPointExtension>
            <ns3:atemp>23.0</ns3:atemp>
          </ns3:TrackPointExtension>
        </extensions>
      </trkpt>
      <trkpt lat="42.5932828523218631744384765625" lon="20.14664347283542156219482421875">
        <ele>1402</ele>
        <time>2026-06-15T08:34:35.000Z</time>
        <extensions>
          <ns3:TrackPointExtension>
            <ns3:atemp>23.0</ns3:atemp>
          </ns3:TrackPointExtension>
        </extensions>
      </trkpt>
      <trkpt lat="42.59326851926743984222412109375" lon="20.146671719849109649658203125">
        <ele>1402.4000244140625</ele>
        <time>2026-06-15T08:34:36.000Z</time>
        <extensions>
          <ns3:TrackPointExtension>
            <ns3:atemp>23.0</ns3:atemp>
          </ns3:TrackPointExtension>
        </extensions>
      </trkpt>
      <trkpt lat="42.59325561113655567169189453125" lon="20.1467020623385906219482421875">
        <ele>1402.5999755859375</ele>
        <time>2026-06-15T08:34:37.000Z</time>
        <extensions>
          <ns3:TrackPointExtension>
            <ns3:atemp>23.0</ns3:atemp>
          </ns3:TrackPointExtension>
        </extensions>
      </trkpt>
      <trkpt lat="42.5932429544627666473388671875" lon="20.146732069551944732666015625">
        <ele>1403</ele>
        <time>2026-06-15T08:34:38.000Z</time>
        <extensions>
          <ns3:TrackPointExtension>
            <ns3:atemp>23.0</ns3:atemp>
          </ns3:TrackPointExtension>
        </extensions>
      </trkpt>
      <trkpt lat="42.5932323932647705078125" lon="20.1467624120414257049560546875">
        <ele>1403.4000244140625</ele>
        <time>2026-06-15T08:34:39.000Z</time>
        <extensions>
          <ns3:TrackPointExtension>
            <ns3:atemp>23.0</ns3:atemp>
          </ns3:TrackPointExtension>
        </extensions>
      </trkpt>
      <trkpt lat="42.59321965277194976806640625" lon="20.146795772016048431396484375">
        <ele>1403.800048828125</ele>
        <time>2026-06-15T08:34:40.000Z</time>
        <extensions>
          <ns3:TrackPointExtension>
            <ns3:atemp>23.0</ns3:atemp>
          </ns3:TrackPointExtension>
        </extensions>
      </trkpt>
      <trkpt lat="42.59320632554590702056884765625" lon="20.14682829380035400390625">
        <ele>1404</ele>
        <time>2026-06-15T08:34:41.000Z</time>
        <extensions>
          <ns3:TrackPointExtension>
            <ns3:atemp>23.0</ns3:atemp>
          </ns3:TrackPointExtension>
        </extensions>
      </trkpt>
      <trkpt lat="42.59319844655692577362060546875" lon="20.14686106704175472259521484375">
        <ele>1404.4000244140625</ele>
        <time>2026-06-15T08:34:42.000Z</time>
        <extensions>
          <ns3:TrackPointExtension>
            <ns3:atemp>23.0</ns3:atemp>
          </ns3:TrackPointExtension>
        </extensions>
      </trkpt>
      <trkpt lat="42.59318905882537364959716796875" lon="20.146895013749599456787109375">
        <ele>1404.5999755859375</ele>
        <time>2026-06-15T08:34:43.000Z</time>
        <extensions>
          <ns3:TrackPointExtension>
            <ns3:atemp>23.0</ns3:atemp>
          </ns3:TrackPointExtension>
        </extensions>
      </trkpt>
      <trkpt lat="42.59317715652287006378173828125" lon="20.14692996628582477569580078125">
        <ele>1405</ele>
        <time>2026-06-15T08:34:44.000Z</time>
        <extensions>
          <ns3:TrackPointExtension>
            <ns3:atemp>23.0</ns3:atemp>
          </ns3:TrackPointExtension>
        </extensions>
      </trkpt>
      <trkpt lat="42.59316424839198589324951171875" lon="20.14696265570819377899169921875">
        <ele>1405.4000244140625</ele>
        <time>2026-06-15T08:34:45.000Z</time>
        <extensions>
          <ns3:TrackPointExtension>
            <ns3:atemp>23.0</ns3:atemp>
          </ns3:TrackPointExtension>
        </extensions>
      </trkpt>
      <trkpt lat="42.59315234608948230743408203125" lon="20.1469957642257213592529296875">
        <ele>1405.800048828125</ele>
        <time>2026-06-15T08:34:46.000Z</time>
        <extensions>
          <ns3:TrackPointExtension>
            <ns3:atemp>23.0</ns3:atemp>
          </ns3:TrackPointExtension>
        </extensions>
      </trkpt>
      <trkpt lat="42.5931453891098499298095703125" lon="20.1470289565622806549072265625">
        <ele>1406</ele>
        <time>2026-06-15T08:34:47.000Z</time>
        <extensions>
          <ns3:TrackPointExtension>
            <ns3:atemp>23.0</ns3:atemp>
          </ns3:TrackPointExtension>
        </extensions>
      </trkpt>
      <trkpt lat="42.59313558228313922882080078125" lon="20.147065334022045135498046875">
        <ele>1406.5999755859375</ele>
        <time>2026-06-15T08:34:48.000Z</time>
        <extensions>
          <ns3:TrackPointExtension>
            <ns3:atemp>23.0</ns3:atemp>
          </ns3:TrackPointExtension>
        </extensions>
      </trkpt>
      <trkpt lat="42.5931251049041748046875" lon="20.1471000351011753082275390625">
        <ele>1406.800048828125</ele>
        <time>2026-06-15T08:34:49.000Z</time>
        <extensions>
          <ns3:TrackPointExtension>
            <ns3:atemp>23.0</ns3:atemp>
          </ns3:TrackPointExtension>
        </extensions>
      </trkpt>
      <trkpt lat="42.59311479516327381134033203125" lon="20.14713498763740062713623046875">
        <ele>1407.199951171875</ele>
        <time>2026-06-15T08:34:50.000Z</time>
        <extensions>
          <ns3:TrackPointExtension>
            <ns3:atemp>23.0</ns3:atemp>
          </ns3:TrackPointExtension>
        </extensions>
      </trkpt>
      <trkpt lat="42.59310490451753139495849609375" lon="20.14716901816427707672119140625">
        <ele>1407.4000244140625</ele>
        <time>2026-06-15T08:34:51.000Z</time>
        <extensions>
          <ns3:TrackPointExtension>
            <ns3:atemp>23.0</ns3:atemp>
          </ns3:TrackPointExtension>
        </extensions>
      </trkpt>
      <trkpt lat="42.5930961035192012786865234375" lon="20.1472039707005023956298828125">
        <ele>1407.800048828125</ele>
        <time>2026-06-15T08:34:52.000Z</time>
        <extensions>
          <ns3:TrackPointExtension>
            <ns3:atemp>23.0</ns3:atemp>
          </ns3:TrackPointExtension>
        </extensions>
      </trkpt>
      <trkpt lat="42.59308554232120513916015625" lon="20.14723825268447399139404296875">
        <ele>1408</ele>
        <time>2026-06-15T08:34:53.000Z</time>
        <extensions>
          <ns3:TrackPointExtension>
            <ns3:atemp>23.0</ns3:atemp>
          </ns3:TrackPointExtension>
        </extensions>
      </trkpt>
      <trkpt lat="42.593075148761272430419921875" lon="20.14727027155458927154541015625">
        <ele>1408.4000244140625</ele>
        <time>2026-06-15T08:34:54.000Z</time>
        <extensions>
          <ns3:TrackPointExtension>
            <ns3:atemp>23.0</ns3:atemp>
          </ns3:TrackPointExtension>
        </extensions>
      </trkpt>
      <trkpt lat="42.5930625759065151214599609375" lon="20.14730011112987995147705078125">
        <ele>1408.800048828125</ele>
        <time>2026-06-15T08:34:55.000Z</time>
        <extensions>
          <ns3:TrackPointExtension>
            <ns3:atemp>23.0</ns3:atemp>
          </ns3:TrackPointExtension>
        </extensions>
      </trkpt>
      <trkpt lat="42.59305561892688274383544921875" lon="20.14733229763805866241455078125">
        <ele>1409.199951171875</ele>
        <time>2026-06-15T08:34:56.000Z</time>
        <extensions>
          <ns3:TrackPointExtension>
            <ns3:atemp>23.0</ns3:atemp>
          </ns3:TrackPointExtension>
        </extensions>
      </trkpt>
      <trkpt lat="42.59304706938564777374267578125" lon="20.14736381359398365020751953125">
        <ele>1409.5999755859375</ele>
        <time>2026-06-15T08:34:57.000Z</time>
        <extensions>
          <ns3:TrackPointExtension>
            <ns3:atemp>23.0</ns3:atemp>
          </ns3:TrackPointExtension>
        </extensions>
      </trkpt>
      <trkpt lat="42.59303382597863674163818359375" lon="20.14739901758730411529541015625">
        <ele>1410</ele>
        <time>2026-06-15T08:34:58.000Z</time>
        <extensions>
          <ns3:TrackPointExtension>
            <ns3:atemp>23.0</ns3:atemp>
          </ns3:TrackPointExtension>
        </extensions>
      </trkpt>
      <trkpt lat="42.5930216722190380096435546875" lon="20.14743120409548282623291015625">
        <ele>1410.4000244140625</ele>
        <time>2026-06-15T08:34:59.000Z</time>
        <extensions>
          <ns3:TrackPointExtension>
            <ns3:atemp>23.0</ns3:atemp>
          </ns3:TrackPointExtension>
        </extensions>
      </trkpt>
      <trkpt lat="42.5930102728307247161865234375" lon="20.14746573753654956817626953125">
        <ele>1410.5999755859375</ele>
        <time>2026-06-15T08:35:00.000Z</time>
        <extensions>
          <ns3:TrackPointExtension>
            <ns3:atemp>23.0</ns3:atemp>
          </ns3:TrackPointExtension>
        </extensions>
      </trkpt>
      <trkpt lat="42.5929995439946651458740234375" lon="20.14750194735825061798095703125">
        <ele>1411</ele>
        <time>2026-06-15T08:35:01.000Z</time>
        <extensions>
          <ns3:TrackPointExtension>
            <ns3:atemp>23.0</ns3:atemp>
          </ns3:TrackPointExtension>
        </extensions>
      </trkpt>
      <trkpt lat="42.59298671968281269073486328125" lon="20.1475379057228565216064453125">
        <ele>1411.4000244140625</ele>
        <time>2026-06-15T08:35:02.000Z</time>
        <extensions>
          <ns3:TrackPointExtension>
            <ns3:atemp>23.0</ns3:atemp>
          </ns3:TrackPointExtension>
        </extensions>
      </trkpt>
      <trkpt lat="42.592973895370960235595703125" lon="20.147572942078113555908203125">
        <ele>1411.5999755859375</ele>
        <time>2026-06-15T08:35:03.000Z</time>
        <extensions>
          <ns3:TrackPointExtension>
            <ns3:atemp>23.0</ns3:atemp>
          </ns3:TrackPointExtension>
        </extensions>
      </trkpt>
      <trkpt lat="42.5929636694490909576416015625" lon="20.1476056315004825592041015625">
        <ele>1412</ele>
        <time>2026-06-15T08:35:04.000Z</time>
        <extensions>
          <ns3:TrackPointExtension>
            <ns3:atemp>23.0</ns3:atemp>
          </ns3:TrackPointExtension>
        </extensions>
      </trkpt>
      <trkpt lat="42.592951767146587371826171875" lon="20.14764226041734218597412109375">
        <ele>1412.199951171875</ele>
        <time>2026-06-15T08:35:05.000Z</time>
        <extensions>
          <ns3:TrackPointExtension>
            <ns3:atemp>23.0</ns3:atemp>
          </ns3:TrackPointExtension>
        </extensions>
      </trkpt>
      <trkpt lat="42.59293760173022747039794921875" lon="20.14767763204872608184814453125">
        <ele>1412.5999755859375</ele>
        <time>2026-06-15T08:35:06.000Z</time>
        <extensions>
          <ns3:TrackPointExtension>
            <ns3:atemp>23.0</ns3:atemp>
          </ns3:TrackPointExtension>
        </extensions>
      </trkpt>
      <trkpt lat="42.59292603470385074615478515625" lon="20.14770797453820705413818359375">
        <ele>1413</ele>
        <time>2026-06-15T08:35:07.000Z</time>
        <extensions>
          <ns3:TrackPointExtension>
            <ns3:atemp>23.0</ns3:atemp>
          </ns3:TrackPointExtension>
        </extensions>
      </trkpt>
      <trkpt lat="42.59291480295360088348388671875" lon="20.1477377302944660186767578125">
        <ele>1413.4000244140625</ele>
        <time>2026-06-15T08:35:08.000Z</time>
        <extensions>
          <ns3:TrackPointExtension>
            <ns3:atemp>23.0</ns3:atemp>
          </ns3:TrackPointExtension>
        </extensions>
      </trkpt>
      <trkpt lat="42.592902481555938720703125" lon="20.147768743336200714111328125">
        <ele>1413.800048828125</ele>
        <time>2026-06-15T08:35:09.000Z</time>
        <extensions>
          <ns3:TrackPointExtension>
            <ns3:atemp>23.0</ns3:atemp>
          </ns3:TrackPointExtension>
        </extensions>
      </trkpt>
      <trkpt lat="42.59289083071053028106689453125" lon="20.14780067838728427886962890625">
        <ele>1414</ele>
        <time>2026-06-15T08:35:10.000Z</time>
        <extensions>
          <ns3:TrackPointExtension>
            <ns3:atemp>23.0</ns3:atemp>
          </ns3:TrackPointExtension>
        </extensions>
      </trkpt>
      <trkpt lat="42.592877335846424102783203125" lon="20.1478354632854461669921875">
        <ele>1414.4000244140625</ele>
        <time>2026-06-15T08:35:11.000Z</time>
        <extensions>
          <ns3:TrackPointExtension>
            <ns3:atemp>23.0</ns3:atemp>
          </ns3:TrackPointExtension>
        </extensions>
      </trkpt>
      <trkpt lat="42.59286367334425449371337890625" lon="20.1478684879839420318603515625">
        <ele>1414.5999755859375</ele>
        <time>2026-06-15T08:35:12.000Z</time>
        <extensions>
          <ns3:TrackPointExtension>
            <ns3:atemp>23.0</ns3:atemp>
          </ns3:TrackPointExtension>
        </extensions>
      </trkpt>
      <trkpt lat="42.59285621345043182373046875" lon="20.14790184795856475830078125">
        <ele>1414.800048828125</ele>
        <time>2026-06-15T08:35:13.000Z</time>
        <extensions>
          <ns3:TrackPointExtension>
            <ns3:atemp>23.0</ns3:atemp>
          </ns3:TrackPointExtension>
        </extensions>
      </trkpt>
      <trkpt lat="42.59284975938498973846435546875" lon="20.1479419134557247161865234375">
        <ele>1415</ele>
        <time>2026-06-15T08:35:14.000Z</time>
        <extensions>
          <ns3:TrackPointExtension>
            <ns3:atemp>23.0</ns3:atemp>
          </ns3:TrackPointExtension>
        </extensions>
      </trkpt>
      <trkpt lat="42.5928493402898311614990234375" lon="20.14797720126807689666748046875">
        <ele>1415.4000244140625</ele>
        <time>2026-06-15T08:35:15.000Z</time>
        <extensions>
          <ns3:TrackPointExtension>
            <ns3:atemp>23.0</ns3:atemp>
          </ns3:TrackPointExtension>
        </extensions>
      </trkpt>
      <trkpt lat="42.592854201793670654296875" lon="20.14801324345171451568603515625">
        <ele>1415.5999755859375</ele>
        <time>2026-06-15T08:35:16.000Z</time>
        <extensions>
          <ns3:TrackPointExtension>
            <ns3:atemp>23.0</ns3:atemp>
          </ns3:TrackPointExtension>
        </extensions>
      </trkpt>
      <trkpt lat="42.5928731448948383331298828125" lon="20.14804534614086151123046875">
        <ele>1416</ele>
        <time>2026-06-15T08:35:17.000Z</time>
        <extensions>
          <ns3:TrackPointExtension>
            <ns3:atemp>23.0</ns3:atemp>
          </ns3:TrackPointExtension>
        </extensions>
      </trkpt>
      <trkpt lat="42.59288982488214969635009765625" lon="20.1480716653168201446533203125">
        <ele>1416.4000244140625</ele>
        <time>2026-06-15T08:35:18.000Z</time>
        <extensions>
          <ns3:TrackPointExtension>
            <ns3:atemp>23.0</ns3:atemp>
          </ns3:TrackPointExtension>
        </extensions>
      </trkpt>
      <trkpt lat="42.5929033197462558746337890625" lon="20.14810033142566680908203125">
        <ele>1416.800048828125</ele>
        <time>2026-06-15T08:35:19.000Z</time>
        <extensions>
          <ns3:TrackPointExtension>
            <ns3:atemp>23.0</ns3:atemp>
          </ns3:TrackPointExtension>
        </extensions>
      </trkpt>
      <trkpt lat="42.592917568981647491455078125" lon="20.148133523762226104736328125">
        <ele>1417</ele>
        <time>2026-06-15T08:35:20.000Z</time>
        <extensions>
          <ns3:TrackPointExtension>
            <ns3:atemp>23.0</ns3:atemp>
          </ns3:TrackPointExtension>
        </extensions>
      </trkpt>
      <trkpt lat="42.59292938746511936187744140625" lon="20.14816545881330966949462890625">
        <ele>1417.4000244140625</ele>
        <time>2026-06-15T08:35:21.000Z</time>
        <extensions>
          <ns3:TrackPointExtension>
            <ns3:atemp>23.0</ns3:atemp>
          </ns3:TrackPointExtension>
        </extensions>
      </trkpt>
      <trkpt lat="42.59294338524341583251953125" lon="20.14819798059761524200439453125">
        <ele>1417.5999755859375</ele>
        <time>2026-06-15T08:35:22.000Z</time>
        <extensions>
          <ns3:TrackPointExtension>
            <ns3:atemp>23.0</ns3:atemp>
          </ns3:TrackPointExtension>
        </extensions>
      </trkpt>
      <trkpt lat="42.59295755065977573394775390625" lon="20.14823167584836483001708984375">
        <ele>1417.800048828125</ele>
        <time>2026-06-15T08:35:23.000Z</time>
        <extensions>
          <ns3:TrackPointExtension>
            <ns3:atemp>23.0</ns3:atemp>
          </ns3:TrackPointExtension>
        </extensions>
      </trkpt>
      <trkpt lat="42.59297096170485019683837890625" lon="20.14826352708041667938232421875">
        <ele>1418.199951171875</ele>
        <time>2026-06-15T08:35:24.000Z</time>
        <extensions>
          <ns3:TrackPointExtension>
            <ns3:atemp>23.0</ns3:atemp>
          </ns3:TrackPointExtension>
        </extensions>
      </trkpt>
      <trkpt lat="42.592986635863780975341796875" lon="20.14829118736088275909423828125">
        <ele>1418.4000244140625</ele>
        <time>2026-06-15T08:35:25.000Z</time>
        <extensions>
          <ns3:TrackPointExtension>
            <ns3:atemp>23.0</ns3:atemp>
          </ns3:TrackPointExtension>
        </extensions>
      </trkpt>
      <trkpt lat="42.5930032320320606231689453125" lon="20.14831968583166599273681640625">
        <ele>1418.800048828125</ele>
        <time>2026-06-15T08:35:26.000Z</time>
        <extensions>
          <ns3:TrackPointExtension>
            <ns3:atemp>23.0</ns3:atemp>
          </ns3:TrackPointExtension>
        </extensions>
      </trkpt>
      <trkpt lat="42.5930191576480865478515625" lon="20.14835488982498645782470703125">
        <ele>1419.199951171875</ele>
        <time>2026-06-15T08:35:27.000Z</time>
        <extensions>
          <ns3:TrackPointExtension>
            <ns3:atemp>23.0</ns3:atemp>
          </ns3:TrackPointExtension>
        </extensions>
      </trkpt>
      <trkpt lat="42.59303449653089046478271484375" lon="20.14838808216154575347900390625">
        <ele>1419.5999755859375</ele>
        <time>2026-06-15T08:35:28.000Z</time>
        <extensions>
          <ns3:TrackPointExtension>
            <ns3:atemp>23.0</ns3:atemp>
          </ns3:TrackPointExtension>
        </extensions>
      </trkpt>
      <trkpt lat="42.59304975159466266632080078125" lon="20.14842010103166103363037109375">
        <ele>1420</ele>
        <time>2026-06-15T08:35:29.000Z</time>
        <extensions>
          <ns3:TrackPointExtension>
            <ns3:atemp>23.0</ns3:atemp>
          </ns3:TrackPointExtension>
        </extensions>
      </trkpt>
      <trkpt lat="42.59306232444941997528076171875" lon="20.14845346100628376007080078125">
        <ele>1420.4000244140625</ele>
        <time>2026-06-15T08:35:30.000Z</time>
        <extensions>
          <ns3:TrackPointExtension>
            <ns3:atemp>23.0</ns3:atemp>
          </ns3:TrackPointExtension>
        </extensions>
      </trkpt>
      <trkpt lat="42.59307372383773326873779296875" lon="20.14848430640995502471923828125">
        <ele>1420.800048828125</ele>
        <time>2026-06-15T08:35:31.000Z</time>
        <extensions>
          <ns3:TrackPointExtension>
            <ns3:atemp>23.0</ns3:atemp>
          </ns3:TrackPointExtension>
        </extensions>
      </trkpt>
      <trkpt lat="42.5930857099592685699462890625" lon="20.1485199294984340667724609375">
        <ele>1421.199951171875</ele>
        <time>2026-06-15T08:35:32.000Z</time>
        <extensions>
          <ns3:TrackPointExtension>
            <ns3:atemp>23.0</ns3:atemp>
          </ns3:TrackPointExtension>
        </extensions>
      </trkpt>
      <trkpt lat="42.593095265328884124755859375" lon="20.1485542953014373779296875">
        <ele>1421.5999755859375</ele>
        <time>2026-06-15T08:35:33.000Z</time>
        <extensions>
          <ns3:TrackPointExtension>
            <ns3:atemp>23.0</ns3:atemp>
          </ns3:TrackPointExtension>
        </extensions>
      </trkpt>
      <trkpt lat="42.59310054592788219451904296875" lon="20.14858908019959926605224609375">
        <ele>1421.800048828125</ele>
        <time>2026-06-15T08:35:34.000Z</time>
        <extensions>
          <ns3:TrackPointExtension>
            <ns3:atemp>23.0</ns3:atemp>
          </ns3:TrackPointExtension>
        </extensions>
      </trkpt>
      <trkpt lat="42.5931071676313877105712890625" lon="20.14862336218357086181640625">
        <ele>1422.199951171875</ele>
        <time>2026-06-15T08:35:35.000Z</time>
        <extensions>
          <ns3:TrackPointExtension>
            <ns3:atemp>23.0</ns3:atemp>
          </ns3:TrackPointExtension>
        </extensions>
      </trkpt>
      <trkpt lat="42.59311144240200519561767578125" lon="20.14865932054817676544189453125">
        <ele>1422.4000244140625</ele>
        <time>2026-06-15T08:35:36.000Z</time>
        <extensions>
          <ns3:TrackPointExtension>
            <ns3:atemp>23.0</ns3:atemp>
          </ns3:TrackPointExtension>
        </extensions>
      </trkpt>
      <trkpt lat="42.59311144240200519561767578125" lon="20.14869955368340015411376953125">
        <ele>1422.800048828125</ele>
        <time>2026-06-15T08:35:37.000Z</time>
        <extensions>
          <ns3:TrackPointExtension>
            <ns3:atemp>23.0</ns3:atemp>
          </ns3:TrackPointExtension>
        </extensions>
      </trkpt>
      <trkpt lat="42.59310976602137088775634765625" lon="20.14873928390443325042724609375">
        <ele>1423.199951171875</ele>
        <time>2026-06-15T08:35:38.000Z</time>
        <extensions>
          <ns3:TrackPointExtension>
            <ns3:atemp>23.0</ns3:atemp>
          </ns3:TrackPointExtension>
        </extensions>
      </trkpt>
      <trkpt lat="42.5931024737656116485595703125" lon="20.14877549372613430023193359375">
        <ele>1423.4000244140625</ele>
        <time>2026-06-15T08:35:39.000Z</time>
        <extensions>
          <ns3:TrackPointExtension>
            <ns3:atemp>23.0</ns3:atemp>
          </ns3:TrackPointExtension>
        </extensions>
      </trkpt>
      <trkpt lat="42.5930915772914886474609375" lon="20.14881170354783535003662109375">
        <ele>1423.5999755859375</ele>
        <time>2026-06-15T08:35:40.000Z</time>
        <extensions>
          <ns3:TrackPointExtension>
            <ns3:atemp>23.0</ns3:atemp>
          </ns3:TrackPointExtension>
        </extensions>
      </trkpt>
      <trkpt lat="42.59307204745709896087646484375" lon="20.148851685225963592529296875">
        <ele>1424</ele>
        <time>2026-06-15T08:35:41.000Z</time>
        <extensions>
          <ns3:TrackPointExtension>
            <ns3:atemp>23.0</ns3:atemp>
          </ns3:TrackPointExtension>
        </extensions>
      </trkpt>
      <trkpt lat="42.59304589591920375823974609375" lon="20.1488826982676982879638671875">
        <ele>1424.199951171875</ele>
        <time>2026-06-15T08:35:42.000Z</time>
        <extensions>
          <ns3:TrackPointExtension>
            <ns3:atemp>23.0</ns3:atemp>
          </ns3:TrackPointExtension>
        </extensions>
      </trkpt>
      <trkpt lat="42.59301773272454738616943359375" lon="20.1489008031785488128662109375">
        <ele>1424.5999755859375</ele>
        <time>2026-06-15T08:35:43.000Z</time>
        <extensions>
          <ns3:TrackPointExtension>
            <ns3:atemp>23.0</ns3:atemp>
          </ns3:TrackPointExtension>
        </extensions>
      </trkpt>
      <trkpt lat="42.59298604913055896759033203125" lon="20.14891111291944980621337890625">
        <ele>1424.800048828125</ele>
        <time>2026-06-15T08:35:44.000Z</time>
        <extensions>
          <ns3:TrackPointExtension>
            <ns3:atemp>23.0</ns3:atemp>
          </ns3:TrackPointExtension>
        </extensions>
      </trkpt>
      <trkpt lat="42.59295537136495113372802734375" lon="20.14890155754983425140380859375">
        <ele>1425.199951171875</ele>
        <time>2026-06-15T08:35:45.000Z</time>
        <extensions>
          <ns3:TrackPointExtension>
            <ns3:atemp>23.0</ns3:atemp>
          </ns3:TrackPointExtension>
        </extensions>
      </trkpt>
      <trkpt lat="42.59292871691286563873291015625" lon="20.14887624420225620269775390625">
        <ele>1425.4000244140625</ele>
        <time>2026-06-15T08:35:46.000Z</time>
        <extensions>
          <ns3:TrackPointExtension>
            <ns3:atemp>23.0</ns3:atemp>
          </ns3:TrackPointExtension>
        </extensions>
      </trkpt>
      <trkpt lat="42.59290507994592189788818359375" lon="20.148846991360187530517578125">
        <ele>1425.5999755859375</ele>
        <time>2026-06-15T08:35:47.000Z</time>
        <extensions>
          <ns3:TrackPointExtension>
            <ns3:atemp>23.0</ns3:atemp>
          </ns3:TrackPointExtension>
        </extensions>
      </trkpt>
      <trkpt lat="42.592885382473468780517578125" lon="20.1488156430423259735107421875">
        <ele>1426</ele>
        <time>2026-06-15T08:35:48.000Z</time>
        <extensions>
          <ns3:TrackPointExtension>
            <ns3:atemp>23.0</ns3:atemp>
          </ns3:TrackPointExtension>
        </extensions>
      </trkpt>
      <trkpt lat="42.5928644277155399322509765625" lon="20.1487796008586883544921875">
        <ele>1426.199951171875</ele>
        <time>2026-06-15T08:35:49.000Z</time>
        <extensions>
          <ns3:TrackPointExtension>
            <ns3:atemp>23.0</ns3:atemp>
          </ns3:TrackPointExtension>
        </extensions>
      </trkpt>
      <trkpt lat="42.592848502099514007568359375" lon="20.1487405411899089813232421875">
        <ele>1426.5999755859375</ele>
        <time>2026-06-15T08:35:50.000Z</time>
        <extensions>
          <ns3:TrackPointExtension>
            <ns3:atemp>23.0</ns3:atemp>
          </ns3:TrackPointExtension>
        </extensions>
      </trkpt>
      <trkpt lat="42.59282981045544147491455078125" lon="20.14870190061628818511962890625">
        <ele>1427</ele>
        <time>2026-06-15T08:35:51.000Z</time>
        <extensions>
          <ns3:TrackPointExtension>
            <ns3:atemp>23.0</ns3:atemp>
          </ns3:TrackPointExtension>
        </extensions>
      </trkpt>
      <trkpt lat="42.59281195700168609619140625" lon="20.14866787008941173553466796875">
        <ele>1427.199951171875</ele>
        <time>2026-06-15T08:35:52.000Z</time>
        <extensions>
          <ns3:TrackPointExtension>
            <ns3:atemp>23.0</ns3:atemp>
          </ns3:TrackPointExtension>
        </extensions>
      </trkpt>
      <trkpt lat="42.59278806857764720916748046875" lon="20.14863467775285243988037109375">
        <ele>1427.5999755859375</ele>
        <time>2026-06-15T08:35:53.000Z</time>
        <extensions>
          <ns3:TrackPointExtension>
            <ns3:atemp>23.0</ns3:atemp>
          </ns3:TrackPointExtension>
        </extensions>
      </trkpt>
      <trkpt lat="42.5927668623626232147216796875" lon="20.148600898683071136474609375">
        <ele>1427.800048828125</ele>
        <time>2026-06-15T08:35:54.000Z</time>
        <extensions>
          <ns3:TrackPointExtension>
            <ns3:atemp>23.0</ns3:atemp>
          </ns3:TrackPointExtension>
        </extensions>
      </trkpt>
      <trkpt lat="42.59274490177631378173828125" lon="20.14856301248073577880859375">
        <ele>1428.199951171875</ele>
        <time>2026-06-15T08:35:55.000Z</time>
        <extensions>
          <ns3:TrackPointExtension>
            <ns3:atemp>23.0</ns3:atemp>
          </ns3:TrackPointExtension>
        </extensions>
      </trkpt>
      <trkpt lat="42.59272386319935321807861328125" lon="20.148527808487415313720703125">
        <ele>1428.4000244140625</ele>
        <time>2026-06-15T08:35:56.000Z</time>
        <extensions>
          <ns3:TrackPointExtension>
            <ns3:atemp>23.0</ns3:atemp>
          </ns3:TrackPointExtension>
        </extensions>
      </trkpt>
      <trkpt lat="42.59270064532756805419921875" lon="20.1484894193708896636962890625">
        <ele>1428.5999755859375</ele>
        <time>2026-06-15T08:35:57.000Z</time>
        <extensions>
          <ns3:TrackPointExtension>
            <ns3:atemp>23.0</ns3:atemp>
          </ns3:TrackPointExtension>
        </extensions>
      </trkpt>
      <trkpt lat="42.59267759509384632110595703125" lon="20.148454047739505767822265625">
        <ele>1428.800048828125</ele>
        <time>2026-06-15T08:35:58.000Z</time>
        <extensions>
          <ns3:TrackPointExtension>
            <ns3:atemp>23.0</ns3:atemp>
          </ns3:TrackPointExtension>
        </extensions>
      </trkpt>
      <trkpt lat="42.59265194647014141082763671875" lon="20.1484201848506927490234375">
        <ele>1429.4000244140625</ele>
        <time>2026-06-15T08:35:59.000Z</time>
        <extensions>
          <ns3:TrackPointExtension>
            <ns3:atemp>23.0</ns3:atemp>
          </ns3:TrackPointExtension>
        </extensions>
      </trkpt>
      <trkpt lat="42.5926307402551174163818359375" lon="20.1483871601521968841552734375">
        <ele>1429.5999755859375</ele>
        <time>2026-06-15T08:36:00.000Z</time>
        <extensions>
          <ns3:TrackPointExtension>
            <ns3:atemp>23.0</ns3:atemp>
          </ns3:TrackPointExtension>
        </extensions>
      </trkpt>
      <trkpt lat="42.59261087514460086822509765625" lon="20.1483526267111301422119140625">
        <ele>1430</ele>
        <time>2026-06-15T08:36:01.000Z</time>
        <extensions>
          <ns3:TrackPointExtension>
            <ns3:atemp>23.0</ns3:atemp>
          </ns3:TrackPointExtension>
        </extensions>
      </trkpt>
      <trkpt lat="42.5925938598811626434326171875" lon="20.1483154110610485076904296875">
        <ele>1430.199951171875</ele>
        <time>2026-06-15T08:36:02.000Z</time>
        <extensions>
          <ns3:TrackPointExtension>
            <ns3:atemp>23.0</ns3:atemp>
          </ns3:TrackPointExtension>
        </extensions>
      </trkpt>
      <trkpt lat="42.5925777666270732879638671875" lon="20.14827668666839599609375">
        <ele>1430.5999755859375</ele>
        <time>2026-06-15T08:36:03.000Z</time>
        <extensions>
          <ns3:TrackPointExtension>
            <ns3:atemp>23.0</ns3:atemp>
          </ns3:TrackPointExtension>
        </extensions>
      </trkpt>
      <trkpt lat="42.5925586558878421783447265625" lon="20.14823771081864833831787109375">
        <ele>1431</ele>
        <time>2026-06-15T08:36:04.000Z</time>
        <extensions>
          <ns3:TrackPointExtension>
            <ns3:atemp>23.0</ns3:atemp>
          </ns3:TrackPointExtension>
        </extensions>
      </trkpt>
      <trkpt lat="42.592540048062801361083984375" lon="20.14819999225437641143798828125">
        <ele>1431.199951171875</ele>
        <time>2026-06-15T08:36:05.000Z</time>
        <extensions>
          <ns3:TrackPointExtension>
            <ns3:atemp>23.0</ns3:atemp>
          </ns3:TrackPointExtension>
        </extensions>
      </trkpt>
      <trkpt lat="42.59252873249351978302001953125" lon="20.14816395007073879241943359375">
        <ele>1431.5999755859375</ele>
        <time>2026-06-15T08:36:06.000Z</time>
        <extensions>
          <ns3:TrackPointExtension>
            <ns3:atemp>23.0</ns3:atemp>
          </ns3:TrackPointExtension>
        </extensions>
      </trkpt>
      <trkpt lat="42.5925157405436038970947265625" lon="20.1481229625642299652099609375">
        <ele>1431.800048828125</ele>
        <time>2026-06-15T08:36:07.000Z</time>
        <extensions>
          <ns3:TrackPointExtension>
            <ns3:atemp>23.0</ns3:atemp>
          </ns3:TrackPointExtension>
        </extensions>
      </trkpt>
      <trkpt lat="42.592505849897861480712890625" lon="20.1480766944587230682373046875">
        <ele>1432.199951171875</ele>
        <time>2026-06-15T08:36:08.000Z</time>
        <extensions>
          <ns3:TrackPointExtension>
            <ns3:atemp>23.0</ns3:atemp>
          </ns3:TrackPointExtension>
        </extensions>
      </trkpt>
      <trkpt lat="42.592494785785675048828125" lon="20.1480310969054698944091796875">
        <ele>1432.5999755859375</ele>
        <time>2026-06-15T08:36:09.000Z</time>
        <extensions>
          <ns3:TrackPointExtension>
            <ns3:atemp>23.0</ns3:atemp>
          </ns3:TrackPointExtension>
        </extensions>
      </trkpt>
      <trkpt lat="42.5924853980541229248046875" lon="20.14798508025705814361572265625">
        <ele>1433</ele>
        <time>2026-06-15T08:36:10.000Z</time>
        <extensions>
          <ns3:TrackPointExtension>
            <ns3:atemp>23.0</ns3:atemp>
          </ns3:TrackPointExtension>
        </extensions>
      </trkpt>
      <trkpt lat="42.59247860871255397796630859375" lon="20.14794283546507358551025390625">
        <ele>1433.199951171875</ele>
        <time>2026-06-15T08:36:11.000Z</time>
        <extensions>
          <ns3:TrackPointExtension>
            <ns3:atemp>23.0</ns3:atemp>
          </ns3:TrackPointExtension>
        </extensions>
      </trkpt>
      <trkpt lat="42.592472992837429046630859375" lon="20.14789304696023464202880859375">
        <ele>1433.5999755859375</ele>
        <time>2026-06-15T08:36:12.000Z</time>
        <extensions>
          <ns3:TrackPointExtension>
            <ns3:atemp>23.0</ns3:atemp>
          </ns3:TrackPointExtension>
        </extensions>
      </trkpt>
      <trkpt lat="42.59246821515262126922607421875" lon="20.147846527397632598876953125">
        <ele>1433.800048828125</ele>
        <time>2026-06-15T08:36:13.000Z</time>
        <extensions>
          <ns3:TrackPointExtension>
            <ns3:atemp>23.0</ns3:atemp>
          </ns3:TrackPointExtension>
        </extensions>
      </trkpt>
      <trkpt lat="42.5924614258110523223876953125" lon="20.1477974094450473785400390625">
        <ele>1434.199951171875</ele>
        <time>2026-06-15T08:36:14.000Z</time>
        <extensions>
          <ns3:TrackPointExtension>
            <ns3:atemp>23.0</ns3:atemp>
          </ns3:TrackPointExtension>
        </extensions>
      </trkpt>
      <trkpt lat="42.5924540497362613677978515625" lon="20.1477496325969696044921875">
        <ele>1434.5999755859375</ele>
        <time>2026-06-15T08:36:15.000Z</time>
        <extensions>
          <ns3:TrackPointExtension>
            <ns3:atemp>23.0</ns3:atemp>
          </ns3:TrackPointExtension>
        </extensions>
      </trkpt>
      <trkpt lat="42.59244851768016815185546875" lon="20.14770646579563617706298828125">
        <ele>1434.800048828125</ele>
        <time>2026-06-15T08:36:16.000Z</time>
        <extensions>
          <ns3:TrackPointExtension>
            <ns3:atemp>23.0</ns3:atemp>
          </ns3:TrackPointExtension>
        </extensions>
      </trkpt>
      <trkpt lat="42.592442147433757781982421875" lon="20.14766455627977848052978515625">
        <ele>1435.199951171875</ele>
        <time>2026-06-15T08:36:17.000Z</time>
        <extensions>
          <ns3:TrackPointExtension>
            <ns3:atemp>23.0</ns3:atemp>
          </ns3:TrackPointExtension>
        </extensions>
      </trkpt>
      <trkpt lat="42.59243066422641277313232421875" lon="20.14762482605874538421630859375">
        <ele>1435.4000244140625</ele>
        <time>2026-06-15T08:36:18.000Z</time>
        <extensions>
          <ns3:TrackPointExtension>
            <ns3:atemp>23.0</ns3:atemp>
          </ns3:TrackPointExtension>
        </extensions>
      </trkpt>
      <trkpt lat="42.5924242101609706878662109375" lon="20.1475845091044902801513671875">
        <ele>1435.800048828125</ele>
        <time>2026-06-15T08:36:19.000Z</time>
        <extensions>
          <ns3:TrackPointExtension>
            <ns3:atemp>23.0</ns3:atemp>
          </ns3:TrackPointExtension>
        </extensions>
      </trkpt>
      <trkpt lat="42.5924151577055454254150390625" lon="20.1475436054170131683349609375">
        <ele>1436</ele>
        <time>2026-06-15T08:36:20.000Z</time>
        <extensions>
          <ns3:TrackPointExtension>
            <ns3:atemp>23.0</ns3:atemp>
          </ns3:TrackPointExtension>
        </extensions>
      </trkpt>
      <trkpt lat="42.59240685962140560150146484375" lon="20.1475003547966480255126953125">
        <ele>1436.199951171875</ele>
        <time>2026-06-15T08:36:21.000Z</time>
        <extensions>
          <ns3:TrackPointExtension>
            <ns3:atemp>23.0</ns3:atemp>
          </ns3:TrackPointExtension>
        </extensions>
      </trkpt>
      <trkpt lat="42.59239831008017063140869140625" lon="20.14746221713721752166748046875">
        <ele>1436.5999755859375</ele>
        <time>2026-06-15T08:36:22.000Z</time>
        <extensions>
          <ns3:TrackPointExtension>
            <ns3:atemp>23.0</ns3:atemp>
          </ns3:TrackPointExtension>
        </extensions>
      </trkpt>
      <trkpt lat="42.592389173805713653564453125" lon="20.1474224030971527099609375">
        <ele>1436.800048828125</ele>
        <time>2026-06-15T08:36:23.000Z</time>
        <extensions>
          <ns3:TrackPointExtension>
            <ns3:atemp>23.0</ns3:atemp>
          </ns3:TrackPointExtension>
        </extensions>
      </trkpt>
      <trkpt lat="42.5923816300928592681884765625" lon="20.14738175086677074432373046875">
        <ele>1437.199951171875</ele>
        <time>2026-06-15T08:36:24.000Z</time>
        <extensions>
          <ns3:TrackPointExtension>
            <ns3:atemp>23.0</ns3:atemp>
          </ns3:TrackPointExtension>
        </extensions>
      </trkpt>
      <trkpt lat="42.5923754274845123291015625" lon="20.14734327793121337890625">
        <ele>1437.5999755859375</ele>
        <time>2026-06-15T08:36:25.000Z</time>
        <extensions>
          <ns3:TrackPointExtension>
            <ns3:atemp>23.0</ns3:atemp>
          </ns3:TrackPointExtension>
        </extensions>
      </trkpt>
      <trkpt lat="42.59236671030521392822265625" lon="20.147304721176624298095703125">
        <ele>1437.800048828125</ele>
        <time>2026-06-15T08:36:26.000Z</time>
        <extensions>
          <ns3:TrackPointExtension>
            <ns3:atemp>23.0</ns3:atemp>
          </ns3:TrackPointExtension>
        </extensions>
      </trkpt>
      <trkpt lat="42.59236243553459644317626953125" lon="20.147263146936893463134765625">
        <ele>1438</ele>
        <time>2026-06-15T08:36:27.000Z</time>
        <extensions>
          <ns3:TrackPointExtension>
            <ns3:atemp>23.0</ns3:atemp>
          </ns3:TrackPointExtension>
        </extensions>
      </trkpt>
      <trkpt lat="42.592360340058803558349609375" lon="20.14722249470651149749755859375">
        <ele>1438.199951171875</ele>
        <time>2026-06-15T08:36:28.000Z</time>
        <extensions>
          <ns3:TrackPointExtension>
            <ns3:atemp>23.0</ns3:atemp>
          </ns3:TrackPointExtension>
        </extensions>
      </trkpt>
      <trkpt lat="42.5923538021743297576904296875" lon="20.1471801660954952239990234375">
        <ele>1438.4000244140625</ele>
        <time>2026-06-15T08:36:29.000Z</time>
        <extensions>
          <ns3:TrackPointExtension>
            <ns3:atemp>23.0</ns3:atemp>
          </ns3:TrackPointExtension>
        </extensions>
      </trkpt>
      <trkpt lat="42.5923444144427776336669921875" lon="20.147137083113193511962890625">
        <ele>1438.4000244140625</ele>
        <time>2026-06-15T08:36:30.000Z</time>
        <extensions>
          <ns3:TrackPointExtension>
            <ns3:atemp>23.0</ns3:atemp>
          </ns3:TrackPointExtension>
        </extensions>
      </trkpt>
      <trkpt lat="42.59233946911990642547607421875" lon="20.1470960117876529693603515625">
        <ele>1438.800048828125</ele>
        <time>2026-06-15T08:36:31.000Z</time>
        <extensions>
          <ns3:TrackPointExtension>
            <ns3:atemp>23.0</ns3:atemp>
          </ns3:TrackPointExtension>
        </extensions>
      </trkpt>
      <trkpt lat="42.59233259595930576324462890625" lon="20.14705695211887359619140625">
        <ele>1439</ele>
        <time>2026-06-15T08:36:32.000Z</time>
        <extensions>
          <ns3:TrackPointExtension>
            <ns3:atemp>23.0</ns3:atemp>
          </ns3:TrackPointExtension>
        </extensions>
      </trkpt>
      <trkpt lat="42.59232639335095882415771484375" lon="20.14701898209750652313232421875">
        <ele>1439.199951171875</ele>
        <time>2026-06-15T08:36:33.000Z</time>
        <extensions>
          <ns3:TrackPointExtension>
            <ns3:atemp>23.0</ns3:atemp>
          </ns3:TrackPointExtension>
        </extensions>
      </trkpt>
      <trkpt lat="42.59231968782842159271240234375" lon="20.14697774313390254974365234375">
        <ele>1439.4000244140625</ele>
        <time>2026-06-15T08:36:34.000Z</time>
        <extensions>
          <ns3:TrackPointExtension>
            <ns3:atemp>23.0</ns3:atemp>
          </ns3:TrackPointExtension>
        </extensions>
      </trkpt>
      <trkpt lat="42.59231650270521640777587890625" lon="20.14693834818899631500244140625">
        <ele>1439.5999755859375</ele>
        <time>2026-06-15T08:36:35.000Z</time>
        <extensions>
          <ns3:TrackPointExtension>
            <ns3:atemp>23.0</ns3:atemp>
          </ns3:TrackPointExtension>
        </extensions>
      </trkpt>
      <trkpt lat="42.592311389744281768798828125" lon="20.14690096490085124969482421875">
        <ele>1440</ele>
        <time>2026-06-15T08:36:36.000Z</time>
        <extensions>
          <ns3:TrackPointExtension>
            <ns3:atemp>23.0</ns3:atemp>
          </ns3:TrackPointExtension>
        </extensions>
      </trkpt>
      <trkpt lat="42.5923056900501251220703125" lon="20.14686307869851589202880859375">
        <ele>1440.199951171875</ele>
        <time>2026-06-15T08:36:37.000Z</time>
        <extensions>
          <ns3:TrackPointExtension>
            <ns3:atemp>23.0</ns3:atemp>
          </ns3:TrackPointExtension>
        </extensions>
      </trkpt>
      <trkpt lat="42.59229890070855617523193359375" lon="20.1468214206397533416748046875">
        <ele>1440.5999755859375</ele>
        <time>2026-06-15T08:36:38.000Z</time>
        <extensions>
          <ns3:TrackPointExtension>
            <ns3:atemp>23.0</ns3:atemp>
          </ns3:TrackPointExtension>
        </extensions>
      </trkpt>
      <trkpt lat="42.59229487739503383636474609375" lon="20.14678210951387882232666015625">
        <ele>1440.800048828125</ele>
        <time>2026-06-15T08:36:39.000Z</time>
        <extensions>
          <ns3:TrackPointExtension>
            <ns3:atemp>23.0</ns3:atemp>
          </ns3:TrackPointExtension>
        </extensions>
      </trkpt>
      <trkpt lat="42.59229269810020923614501953125" lon="20.14674137346446514129638671875">
        <ele>1441</ele>
        <time>2026-06-15T08:36:40.000Z</time>
        <extensions>
          <ns3:TrackPointExtension>
            <ns3:atemp>23.0</ns3:atemp>
          </ns3:TrackPointExtension>
        </extensions>
      </trkpt>
      <trkpt lat="42.5922870822250843048095703125" lon="20.14670382253825664520263671875">
        <ele>1441.199951171875</ele>
        <time>2026-06-15T08:36:41.000Z</time>
        <extensions>
          <ns3:TrackPointExtension>
            <ns3:atemp>23.0</ns3:atemp>
          </ns3:TrackPointExtension>
        </extensions>
      </trkpt>
      <trkpt lat="42.59227878414094448089599609375" lon="20.146667025983333587646484375">
        <ele>1441.5999755859375</ele>
        <time>2026-06-15T08:36:42.000Z</time>
        <extensions>
          <ns3:TrackPointExtension>
            <ns3:atemp>23.0</ns3:atemp>
          </ns3:TrackPointExtension>
        </extensions>
      </trkpt>
      <trkpt lat="42.59227149188518524169921875" lon="20.14663039706647396087646484375">
        <ele>1441.800048828125</ele>
        <time>2026-06-15T08:36:43.000Z</time>
        <extensions>
          <ns3:TrackPointExtension>
            <ns3:atemp>23.0</ns3:atemp>
          </ns3:TrackPointExtension>
        </extensions>
      </trkpt>
      <trkpt lat="42.59225866757333278656005859375" lon="20.14659301377832889556884765625">
        <ele>1442</ele>
        <time>2026-06-15T08:36:44.000Z</time>
        <extensions>
          <ns3:TrackPointExtension>
            <ns3:atemp>23.0</ns3:atemp>
          </ns3:TrackPointExtension>
        </extensions>
      </trkpt>
      <trkpt lat="42.59224391542375087738037109375" lon="20.1465552113950252532958984375">
        <ele>1442</ele>
        <time>2026-06-15T08:36:45.000Z</time>
        <extensions>
          <ns3:TrackPointExtension>
            <ns3:atemp>23.0</ns3:atemp>
          </ns3:TrackPointExtension>
        </extensions>
      </trkpt>
      <trkpt lat="42.592236958444118499755859375" lon="20.14651715755462646484375">
        <ele>1442.4000244140625</ele>
        <time>2026-06-15T08:36:46.000Z</time>
        <extensions>
          <ns3:TrackPointExtension>
            <ns3:atemp>23.0</ns3:atemp>
          </ns3:TrackPointExtension>
        </extensions>
      </trkpt>
      <trkpt lat="42.59222991764545440673828125" lon="20.14647952280938625335693359375">
        <ele>1442.5999755859375</ele>
        <time>2026-06-15T08:36:47.000Z</time>
        <extensions>
          <ns3:TrackPointExtension>
            <ns3:atemp>23.0</ns3:atemp>
          </ns3:TrackPointExtension>
        </extensions>
      </trkpt>
      <trkpt lat="42.5922237150371074676513671875" lon="20.1464402116835117340087890625">
        <ele>1442.800048828125</ele>
        <time>2026-06-15T08:36:48.000Z</time>
        <extensions>
          <ns3:TrackPointExtension>
            <ns3:atemp>23.0</ns3:atemp>
          </ns3:TrackPointExtension>
        </extensions>
      </trkpt>
      <trkpt lat="42.59221944026648998260498046875" lon="20.14640341512858867645263671875">
        <ele>1443.199951171875</ele>
        <time>2026-06-15T08:36:49.000Z</time>
        <extensions>
          <ns3:TrackPointExtension>
            <ns3:atemp>23.0</ns3:atemp>
          </ns3:TrackPointExtension>
        </extensions>
      </trkpt>
      <trkpt lat="42.5922160036861896514892578125" lon="20.1463651098310947418212890625">
        <ele>1443.4000244140625</ele>
        <time>2026-06-15T08:36:50.000Z</time>
        <extensions>
          <ns3:TrackPointExtension>
            <ns3:atemp>23.0</ns3:atemp>
          </ns3:TrackPointExtension>
        </extensions>
      </trkpt>
      <trkpt lat="42.59221407584846019744873046875" lon="20.14633066020905971527099609375">
        <ele>1443.5999755859375</ele>
        <time>2026-06-15T08:36:51.000Z</time>
        <extensions>
          <ns3:TrackPointExtension>
            <ns3:atemp>23.0</ns3:atemp>
          </ns3:TrackPointExtension>
        </extensions>
      </trkpt>
      <trkpt lat="42.5922113098204135894775390625" lon="20.14629344455897808074951171875">
        <ele>1443.800048828125</ele>
        <time>2026-06-15T08:36:52.000Z</time>
        <extensions>
          <ns3:TrackPointExtension>
            <ns3:atemp>23.0</ns3:atemp>
          </ns3:TrackPointExtension>
        </extensions>
      </trkpt>
      <trkpt lat="42.5922091305255889892578125" lon="20.1462543010711669921875">
        <ele>1444.199951171875</ele>
        <time>2026-06-15T08:36:53.000Z</time>
        <extensions>
          <ns3:TrackPointExtension>
            <ns3:atemp>23.0</ns3:atemp>
          </ns3:TrackPointExtension>
        </extensions>
      </trkpt>
      <trkpt lat="42.59220636449754238128662109375" lon="20.14621666632592678070068359375">
        <ele>1444.4000244140625</ele>
        <time>2026-06-15T08:36:54.000Z</time>
        <extensions>
          <ns3:TrackPointExtension>
            <ns3:atemp>23.0</ns3:atemp>
          </ns3:TrackPointExtension>
        </extensions>
      </trkpt>
      <trkpt lat="42.59220175445079803466796875" lon="20.1461807079613208770751953125">
        <ele>1444.5999755859375</ele>
        <time>2026-06-15T08:36:55.000Z</time>
        <extensions>
          <ns3:TrackPointExtension>
            <ns3:atemp>23.0</ns3:atemp>
          </ns3:TrackPointExtension>
        </extensions>
      </trkpt>
      <trkpt lat="42.59219597093760967254638671875" lon="20.14614273793995380401611328125">
        <ele>1444.800048828125</ele>
        <time>2026-06-15T08:36:56.000Z</time>
        <extensions>
          <ns3:TrackPointExtension>
            <ns3:atemp>23.0</ns3:atemp>
          </ns3:TrackPointExtension>
        </extensions>
      </trkpt>
      <trkpt lat="42.5921864993870258331298828125" lon="20.1461035944521427154541015625">
        <ele>1445</ele>
        <time>2026-06-15T08:36:57.000Z</time>
        <extensions>
          <ns3:TrackPointExtension>
            <ns3:atemp>23.0</ns3:atemp>
          </ns3:TrackPointExtension>
        </extensions>
      </trkpt>
      <trkpt lat="42.59218566119670867919921875" lon="20.14606277458369731903076171875">
        <ele>1445.4000244140625</ele>
        <time>2026-06-15T08:36:58.000Z</time>
        <extensions>
          <ns3:TrackPointExtension>
            <ns3:atemp>23.0</ns3:atemp>
          </ns3:TrackPointExtension>
        </extensions>
      </trkpt>
      <trkpt lat="42.592183314263820648193359375" lon="20.1460237987339496612548828125">
        <ele>1445.5999755859375</ele>
        <time>2026-06-15T08:36:59.000Z</time>
        <extensions>
          <ns3:TrackPointExtension>
            <ns3:atemp>23.0</ns3:atemp>
          </ns3:TrackPointExtension>
        </extensions>
      </trkpt>
      <trkpt lat="42.5921761058270931243896484375" lon="20.14598582871258258819580078125">
        <ele>1445.800048828125</ele>
        <time>2026-06-15T08:37:00.000Z</time>
        <extensions>
          <ns3:TrackPointExtension>
            <ns3:atemp>23.0</ns3:atemp>
          </ns3:TrackPointExtension>
        </extensions>
      </trkpt>
      <trkpt lat="42.592173926532268524169921875" lon="20.1459500379860401153564453125">
        <ele>1446</ele>
        <time>2026-06-15T08:37:01.000Z</time>
        <extensions>
          <ns3:TrackPointExtension>
            <ns3:atemp>23.0</ns3:atemp>
          </ns3:TrackPointExtension>
        </extensions>
      </trkpt>
      <trkpt lat="42.5921710766851902008056640625" lon="20.14590988866984844207763671875">
        <ele>1446.4000244140625</ele>
        <time>2026-06-15T08:37:02.000Z</time>
        <extensions>
          <ns3:TrackPointExtension>
            <ns3:atemp>23.0</ns3:atemp>
          </ns3:TrackPointExtension>
        </extensions>
      </trkpt>
      <trkpt lat="42.592166550457477569580078125" lon="20.14587099663913249969482421875">
        <ele>1446.5999755859375</ele>
        <time>2026-06-15T08:37:03.000Z</time>
        <extensions>
          <ns3:TrackPointExtension>
            <ns3:atemp>23.0</ns3:atemp>
          </ns3:TrackPointExtension>
        </extensions>
      </trkpt>
      <trkpt lat="42.59215825237333774566650390625" lon="20.14583193697035312652587890625">
        <ele>1446.800048828125</ele>
        <time>2026-06-15T08:37:04.000Z</time>
        <extensions>
          <ns3:TrackPointExtension>
            <ns3:atemp>23.0</ns3:atemp>
          </ns3:TrackPointExtension>
        </extensions>
      </trkpt>
      <trkpt lat="42.59214903227984905242919921875" lon="20.14579287730157375335693359375">
        <ele>1447</ele>
        <time>2026-06-15T08:37:05.000Z</time>
        <extensions>
          <ns3:TrackPointExtension>
            <ns3:atemp>23.0</ns3:atemp>
          </ns3:TrackPointExtension>
        </extensions>
      </trkpt>
      <trkpt lat="42.5921375490725040435791015625" lon="20.14575499109923839569091796875">
        <ele>1447.199951171875</ele>
        <time>2026-06-15T08:37:06.000Z</time>
        <extensions>
          <ns3:TrackPointExtension>
            <ns3:atemp>23.0</ns3:atemp>
          </ns3:TrackPointExtension>
        </extensions>
      </trkpt>
      <trkpt lat="42.59212673641741275787353515625" lon="20.1457183621823787689208984375">
        <ele>1447.4000244140625</ele>
        <time>2026-06-15T08:37:07.000Z</time>
        <extensions>
          <ns3:TrackPointExtension>
            <ns3:atemp>23.0</ns3:atemp>
          </ns3:TrackPointExtension>
        </extensions>
      </trkpt>
      <trkpt lat="42.59211114607751369476318359375" lon="20.145680643618106842041015625">
        <ele>1447.5999755859375</ele>
        <time>2026-06-15T08:37:08.000Z</time>
        <extensions>
          <ns3:TrackPointExtension>
            <ns3:atemp>23.0</ns3:atemp>
          </ns3:TrackPointExtension>
        </extensions>
      </trkpt>
      <trkpt lat="42.59209421463310718536376953125" lon="20.14564569108188152313232421875">
        <ele>1447.800048828125</ele>
        <time>2026-06-15T08:37:09.000Z</time>
        <extensions>
          <ns3:TrackPointExtension>
            <ns3:atemp>23.0</ns3:atemp>
          </ns3:TrackPointExtension>
        </extensions>
      </trkpt>
      <trkpt lat="42.592074684798717498779296875" lon="20.1456073857843875885009765625">
        <ele>1448</ele>
        <time>2026-06-15T08:37:10.000Z</time>
        <extensions>
          <ns3:TrackPointExtension>
            <ns3:atemp>23.0</ns3:atemp>
          </ns3:TrackPointExtension>
        </extensions>
      </trkpt>
      <trkpt lat="42.59205565787851810455322265625" lon="20.14557394199073314666748046875">
        <ele>1448.199951171875</ele>
        <time>2026-06-15T08:37:11.000Z</time>
        <extensions>
          <ns3:TrackPointExtension>
            <ns3:atemp>23.0</ns3:atemp>
          </ns3:TrackPointExtension>
        </extensions>
      </trkpt>
      <trkpt lat="42.59203285910189151763916015625" lon="20.14553488232195377349853515625">
        <ele>1448.5999755859375</ele>
        <time>2026-06-15T08:37:12.000Z</time>
        <extensions>
          <ns3:TrackPointExtension>
            <ns3:atemp>23.0</ns3:atemp>
          </ns3:TrackPointExtension>
        </extensions>
      </trkpt>
      <trkpt lat="42.59200754575431346893310546875" lon="20.1455021090805530548095703125">
        <ele>1448.800048828125</ele>
        <time>2026-06-15T08:37:13.000Z</time>
        <extensions>
          <ns3:TrackPointExtension>
            <ns3:atemp>23.0</ns3:atemp>
          </ns3:TrackPointExtension>
        </extensions>
      </trkpt>
      <trkpt lat="42.5919779576361179351806640625" lon="20.14548023231327533721923828125">
        <ele>1449</ele>
        <time>2026-06-15T08:37:14.000Z</time>
        <extensions>
          <ns3:TrackPointExtension>
            <ns3:atemp>23.0</ns3:atemp>
          </ns3:TrackPointExtension>
        </extensions>
      </trkpt>
      <trkpt lat="42.5919518060982227325439453125" lon="20.14545994810760021209716796875">
        <ele>1449.199951171875</ele>
        <time>2026-06-15T08:37:15.000Z</time>
        <extensions>
          <ns3:TrackPointExtension>
            <ns3:atemp>23.0</ns3:atemp>
          </ns3:TrackPointExtension>
        </extensions>
      </trkpt>
      <trkpt lat="42.59192825295031070709228515625" lon="20.1454363949596881866455078125">
        <ele>1449.4000244140625</ele>
        <time>2026-06-15T08:37:16.000Z</time>
        <extensions>
          <ns3:TrackPointExtension>
            <ns3:atemp>23.0</ns3:atemp>
          </ns3:TrackPointExtension>
        </extensions>
      </trkpt>
      <trkpt lat="42.5919052027165889739990234375" lon="20.14541334472596645355224609375">
        <ele>1449.4000244140625</ele>
        <time>2026-06-15T08:37:17.000Z</time>
        <extensions>
          <ns3:TrackPointExtension>
            <ns3:atemp>23.0</ns3:atemp>
          </ns3:TrackPointExtension>
        </extensions>
      </trkpt>
      <trkpt lat="42.59188667871057987213134765625" lon="20.14538417570292949676513671875">
        <ele>1449.5999755859375</ele>
        <time>2026-06-15T08:37:18.000Z</time>
        <extensions>
          <ns3:TrackPointExtension>
            <ns3:atemp>23.0</ns3:atemp>
          </ns3:TrackPointExtension>
        </extensions>
      </trkpt>
      <trkpt lat="42.5918713398277759552001953125" lon="20.1453530788421630859375">
        <ele>1449.800048828125</ele>
        <time>2026-06-15T08:37:19.000Z</time>
        <extensions>
          <ns3:TrackPointExtension>
            <ns3:atemp>23.0</ns3:atemp>
          </ns3:TrackPointExtension>
        </extensions>
      </trkpt>
      <trkpt lat="42.5918552465736865997314453125" lon="20.14532466419041156768798828125">
        <ele>1450</ele>
        <time>2026-06-15T08:37:20.000Z</time>
        <extensions>
          <ns3:TrackPointExtension>
            <ns3:atemp>23.0</ns3:atemp>
          </ns3:TrackPointExtension>
        </extensions>
      </trkpt>
      <trkpt lat="42.59183638729155063629150390625" lon="20.14529700390994548797607421875">
        <ele>1450.199951171875</ele>
        <time>2026-06-15T08:37:21.000Z</time>
        <extensions>
          <ns3:TrackPointExtension>
            <ns3:atemp>23.0</ns3:atemp>
          </ns3:TrackPointExtension>
        </extensions>
      </trkpt>
      <trkpt lat="42.59181492961943149566650390625" lon="20.14527102001011371612548828125">
        <ele>1450.199951171875</ele>
        <time>2026-06-15T08:37:22.000Z</time>
        <extensions>
          <ns3:TrackPointExtension>
            <ns3:atemp>23.0</ns3:atemp>
          </ns3:TrackPointExtension>
        </extensions>
      </trkpt>
      <trkpt lat="42.5917945615947246551513671875" lon="20.14525023289024829864501953125">
        <ele>1450.4000244140625</ele>
        <time>2026-06-15T08:37:23.000Z</time>
        <extensions>
          <ns3:TrackPointExtension>
            <ns3:atemp>23.0</ns3:atemp>
          </ns3:TrackPointExtension>
        </extensions>
      </trkpt>
      <trkpt lat="42.5917774625122547149658203125" lon="20.1452248357236385345458984375">
        <ele>1450.5999755859375</ele>
        <time>2026-06-15T08:37:24.000Z</time>
        <extensions>
          <ns3:TrackPointExtension>
            <ns3:atemp>23.0</ns3:atemp>
          </ns3:TrackPointExtension>
        </extensions>
      </trkpt>
      <trkpt lat="42.59175759740173816680908203125" lon="20.14519927091896533966064453125">
        <ele>1450.800048828125</ele>
        <time>2026-06-15T08:37:25.000Z</time>
        <extensions>
          <ns3:TrackPointExtension>
            <ns3:atemp>23.0</ns3:atemp>
          </ns3:TrackPointExtension>
        </extensions>
      </trkpt>
      <trkpt lat="42.59173647500574588775634765625" lon="20.1451768912374973297119140625">
        <ele>1450.800048828125</ele>
        <time>2026-06-15T08:37:26.000Z</time>
        <extensions>
          <ns3:TrackPointExtension>
            <ns3:atemp>23.0</ns3:atemp>
          </ns3:TrackPointExtension>
        </extensions>
      </trkpt>
      <trkpt lat="42.5917174480855464935302734375" lon="20.14515551738440990447998046875">
        <ele>1451</ele>
        <time>2026-06-15T08:37:27.000Z</time>
        <extensions>
          <ns3:TrackPointExtension>
            <ns3:atemp>23.0</ns3:atemp>
          </ns3:TrackPointExtension>
        </extensions>
      </trkpt>
      <trkpt lat="42.59169355966150760650634765625" lon="20.14513271860778331756591796875">
        <ele>1451</ele>
        <time>2026-06-15T08:37:28.000Z</time>
        <extensions>
          <ns3:TrackPointExtension>
            <ns3:atemp>23.0</ns3:atemp>
          </ns3:TrackPointExtension>
        </extensions>
      </trkpt>
      <trkpt lat="42.5916715152561664581298828125" lon="20.14511126093566417694091796875">
        <ele>1451.199951171875</ele>
        <time>2026-06-15T08:37:29.000Z</time>
        <extensions>
          <ns3:TrackPointExtension>
            <ns3:atemp>23.0</ns3:atemp>
          </ns3:TrackPointExtension>
        </extensions>
      </trkpt>
      <trkpt lat="42.59165097959339618682861328125" lon="20.14508393593132495880126953125">
        <ele>1451.4000244140625</ele>
        <time>2026-06-15T08:37:30.000Z</time>
        <extensions>
          <ns3:TrackPointExtension>
            <ns3:atemp>23.0</ns3:atemp>
          </ns3:TrackPointExtension>
        </extensions>
      </trkpt>
      <trkpt lat="42.5916279293596744537353515625" lon="20.14505627565085887908935546875">
        <ele>1451.5999755859375</ele>
        <time>2026-06-15T08:37:31.000Z</time>
        <extensions>
          <ns3:TrackPointExtension>
            <ns3:atemp>23.0</ns3:atemp>
          </ns3:TrackPointExtension>
        </extensions>
      </trkpt>
      <trkpt lat="42.59160353802144527435302734375" lon="20.14502358622848987579345703125">
        <ele>1451.5999755859375</ele>
        <time>2026-06-15T08:37:32.000Z</time>
        <extensions>
          <ns3:TrackPointExtension>
            <ns3:atemp>23.0</ns3:atemp>
          </ns3:TrackPointExtension>
        </extensions>
      </trkpt>
      <trkpt lat="42.5915746204555034637451171875" lon="20.14499307610094547271728515625">
        <ele>1451.800048828125</ele>
        <time>2026-06-15T08:37:33.000Z</time>
        <extensions>
          <ns3:TrackPointExtension>
            <ns3:atemp>23.0</ns3:atemp>
          </ns3:TrackPointExtension>
        </extensions>
      </trkpt>
      <trkpt lat="42.5915447808802127838134765625" lon="20.14496491290628910064697265625">
        <ele>1452</ele>
        <time>2026-06-15T08:37:34.000Z</time>
        <extensions>
          <ns3:TrackPointExtension>
            <ns3:atemp>23.0</ns3:atemp>
          </ns3:TrackPointExtension>
        </extensions>
      </trkpt>
      <trkpt lat="42.59151351638138294219970703125" lon="20.14493674971163272857666015625">
        <ele>1452.199951171875</ele>
        <time>2026-06-15T08:37:35.000Z</time>
        <extensions>
          <ns3:TrackPointExtension>
            <ns3:atemp>23.0</ns3:atemp>
          </ns3:TrackPointExtension>
        </extensions>
      </trkpt>
      <trkpt lat="42.59148635901510715484619140625" lon="20.14491411857306957244873046875">
        <ele>1452.199951171875</ele>
        <time>2026-06-15T08:37:36.000Z</time>
        <extensions>
          <ns3:TrackPointExtension>
            <ns3:atemp>23.0</ns3:atemp>
          </ns3:TrackPointExtension>
        </extensions>
      </trkpt>
      <trkpt lat="42.5914569385349750518798828125" lon="20.14489366672933101654052734375">
        <ele>1452.4000244140625</ele>
        <time>2026-06-15T08:37:37.000Z</time>
        <extensions>
          <ns3:TrackPointExtension>
            <ns3:atemp>23.0</ns3:atemp>
          </ns3:TrackPointExtension>
        </extensions>
      </trkpt>
      <trkpt lat="42.59142718277871608734130859375" lon="20.14487036503851413726806640625">
        <ele>1452.5999755859375</ele>
        <time>2026-06-15T08:37:38.000Z</time>
        <extensions>
          <ns3:TrackPointExtension>
            <ns3:atemp>23.0</ns3:atemp>
          </ns3:TrackPointExtension>
        </extensions>
      </trkpt>
      <trkpt lat="42.591399438679218292236328125" lon="20.14484815299510955810546875">
        <ele>1452.800048828125</ele>
        <time>2026-06-15T08:37:39.000Z</time>
        <extensions>
          <ns3:TrackPointExtension>
            <ns3:atemp>23.0</ns3:atemp>
          </ns3:TrackPointExtension>
        </extensions>
      </trkpt>
      <trkpt lat="42.5913674198091030120849609375" lon="20.14482661150395870208740234375">
        <ele>1453</ele>
        <time>2026-06-15T08:37:40.000Z</time>
        <extensions>
          <ns3:TrackPointExtension>
            <ns3:atemp>23.0</ns3:atemp>
          </ns3:TrackPointExtension>
        </extensions>
      </trkpt>
      <trkpt lat="42.591336406767368316650390625" lon="20.14480657875537872314453125">
        <ele>1453.199951171875</ele>
        <time>2026-06-15T08:37:41.000Z</time>
        <extensions>
          <ns3:TrackPointExtension>
            <ns3:atemp>23.0</ns3:atemp>
          </ns3:TrackPointExtension>
        </extensions>
      </trkpt>
      <trkpt lat="42.5913047231733798980712890625" lon="20.14478771947324275970458984375">
        <ele>1453.4000244140625</ele>
        <time>2026-06-15T08:37:42.000Z</time>
        <extensions>
          <ns3:TrackPointExtension>
            <ns3:atemp>23.0</ns3:atemp>
          </ns3:TrackPointExtension>
        </extensions>
      </trkpt>
      <trkpt lat="42.5912758894264698028564453125" lon="20.144769363105297088623046875">
        <ele>1453.800048828125</ele>
        <time>2026-06-15T08:37:43.000Z</time>
        <extensions>
          <ns3:TrackPointExtension>
            <ns3:atemp>23.0</ns3:atemp>
          </ns3:TrackPointExtension>
        </extensions>
      </trkpt>
      <trkpt lat="42.59124764241278171539306640625" lon="20.14475318603217601776123046875">
        <ele>1454</ele>
        <time>2026-06-15T08:37:44.000Z</time>
        <extensions>
          <ns3:TrackPointExtension>
            <ns3:atemp>23.0</ns3:atemp>
          </ns3:TrackPointExtension>
        </extensions>
      </trkpt>
      <trkpt lat="42.59121746756136417388916015625" lon="20.1447363384068012237548828125">
        <ele>1454.199951171875</ele>
        <time>2026-06-15T08:37:45.000Z</time>
        <extensions>
          <ns3:TrackPointExtension>
            <ns3:atemp>23.0</ns3:atemp>
          </ns3:TrackPointExtension>
        </extensions>
      </trkpt>
      <trkpt lat="42.59118922054767608642578125" lon="20.1447192393243312835693359375">
        <ele>1454.4000244140625</ele>
        <time>2026-06-15T08:37:46.000Z</time>
        <extensions>
          <ns3:TrackPointExtension>
            <ns3:atemp>23.0</ns3:atemp>
          </ns3:TrackPointExtension>
        </extensions>
      </trkpt>
      <trkpt lat="42.59115812368690967559814453125" lon="20.1446991227567195892333984375">
        <ele>1454.800048828125</ele>
        <time>2026-06-15T08:37:47.000Z</time>
        <extensions>
          <ns3:TrackPointExtension>
            <ns3:atemp>23.0</ns3:atemp>
          </ns3:TrackPointExtension>
        </extensions>
      </trkpt>
      <trkpt lat="42.59113096632063388824462890625" lon="20.14467556960880756378173828125">
        <ele>1455</ele>
        <time>2026-06-15T08:37:48.000Z</time>
        <extensions>
          <ns3:TrackPointExtension>
            <ns3:atemp>23.0</ns3:atemp>
          </ns3:TrackPointExtension>
        </extensions>
      </trkpt>
      <trkpt lat="42.59110095910727977752685546875" lon="20.1446538604795932769775390625">
        <ele>1455.199951171875</ele>
        <time>2026-06-15T08:37:49.000Z</time>
        <extensions>
          <ns3:TrackPointExtension>
            <ns3:atemp>23.0</ns3:atemp>
          </ns3:TrackPointExtension>
        </extensions>
      </trkpt>
      <trkpt lat="42.5910710357129573822021484375" lon="20.144634246826171875">
        <ele>1455.4000244140625</ele>
        <time>2026-06-15T08:37:50.000Z</time>
        <extensions>
          <ns3:TrackPointExtension>
            <ns3:atemp>23.0</ns3:atemp>
          </ns3:TrackPointExtension>
        </extensions>
      </trkpt>
      <trkpt lat="42.59104161523282527923583984375" lon="20.14461438171565532684326171875">
        <ele>1455.5999755859375</ele>
        <time>2026-06-15T08:37:51.000Z</time>
        <extensions>
          <ns3:TrackPointExtension>
            <ns3:atemp>23.0</ns3:atemp>
          </ns3:TrackPointExtension>
        </extensions>
      </trkpt>
      <trkpt lat="42.5910130329430103302001953125" lon="20.14459476806223392486572265625">
        <ele>1455.800048828125</ele>
        <time>2026-06-15T08:37:52.000Z</time>
        <extensions>
          <ns3:TrackPointExtension>
            <ns3:atemp>23.0</ns3:atemp>
          </ns3:TrackPointExtension>
        </extensions>
      </trkpt>
      <trkpt lat="42.5909848697483539581298828125" lon="20.14456660486757755279541015625">
        <ele>1456</ele>
        <time>2026-06-15T08:37:53.000Z</time>
        <extensions>
          <ns3:TrackPointExtension>
            <ns3:atemp>23.0</ns3:atemp>
          </ns3:TrackPointExtension>
        </extensions>
      </trkpt>
      <trkpt lat="42.5909543596208095550537109375" lon="20.14454313553869724273681640625">
        <ele>1456.199951171875</ele>
        <time>2026-06-15T08:37:54.000Z</time>
        <extensions>
          <ns3:TrackPointExtension>
            <ns3:atemp>23.0</ns3:atemp>
          </ns3:TrackPointExtension>
        </extensions>
      </trkpt>
      <trkpt lat="42.590928040444850921630859375" lon="20.14451061375439167022705078125">
        <ele>1456.4000244140625</ele>
        <time>2026-06-15T08:37:55.000Z</time>
        <extensions>
          <ns3:TrackPointExtension>
            <ns3:atemp>23.0</ns3:atemp>
          </ns3:TrackPointExtension>
        </extensions>
      </trkpt>
      <trkpt lat="42.590901553630828857421875" lon="20.14447658322751522064208984375">
        <ele>1456.800048828125</ele>
        <time>2026-06-15T08:37:56.000Z</time>
        <extensions>
          <ns3:TrackPointExtension>
            <ns3:atemp>23.0</ns3:atemp>
          </ns3:TrackPointExtension>
        </extensions>
      </trkpt>
      <trkpt lat="42.59087397716939449310302734375" lon="20.1444456540048122406005859375">
        <ele>1457</ele>
        <time>2026-06-15T08:37:57.000Z</time>
        <extensions>
          <ns3:TrackPointExtension>
            <ns3:atemp>23.0</ns3:atemp>
          </ns3:TrackPointExtension>
        </extensions>
      </trkpt>
      <trkpt lat="42.59084832854568958282470703125" lon="20.144415311515331268310546875">
        <ele>1457.4000244140625</ele>
        <time>2026-06-15T08:37:58.000Z</time>
        <extensions>
          <ns3:TrackPointExtension>
            <ns3:atemp>23.0</ns3:atemp>
          </ns3:TrackPointExtension>
        </extensions>
      </trkpt>
      <trkpt lat="42.590828798711299896240234375" lon="20.14438957907259464263916015625">
        <ele>1457.5999755859375</ele>
        <time>2026-06-15T08:37:59.000Z</time>
        <extensions>
          <ns3:TrackPointExtension>
            <ns3:atemp>23.0</ns3:atemp>
          </ns3:TrackPointExtension>
        </extensions>
      </trkpt>
      <trkpt lat="42.59081027470529079437255859375" lon="20.144360326230525970458984375">
        <ele>1458</ele>
        <time>2026-06-15T08:38:00.000Z</time>
        <extensions>
          <ns3:TrackPointExtension>
            <ns3:atemp>23.0</ns3:atemp>
          </ns3:TrackPointExtension>
        </extensions>
      </trkpt>
      <trkpt lat="42.59079183451831340789794921875" lon="20.144329480826854705810546875">
        <ele>1458.199951171875</ele>
        <time>2026-06-15T08:38:01.000Z</time>
        <extensions>
          <ns3:TrackPointExtension>
            <ns3:atemp>23.0</ns3:atemp>
          </ns3:TrackPointExtension>
        </extensions>
      </trkpt>
      <trkpt lat="42.59077213704586029052734375" lon="20.14429687522351741790771484375">
        <ele>1458.5999755859375</ele>
        <time>2026-06-15T08:38:02.000Z</time>
        <extensions>
          <ns3:TrackPointExtension>
            <ns3:atemp>23.0</ns3:atemp>
          </ns3:TrackPointExtension>
        </extensions>
      </trkpt>
      <trkpt lat="42.5907505117356777191162109375" lon="20.1442659460008144378662109375">
        <ele>1458.800048828125</ele>
        <time>2026-06-15T08:38:03.000Z</time>
        <extensions>
          <ns3:TrackPointExtension>
            <ns3:atemp>23.0</ns3:atemp>
          </ns3:TrackPointExtension>
        </extensions>
      </trkpt>
      <trkpt lat="42.59073265828192234039306640625" lon="20.14423535205423831939697265625">
        <ele>1459.199951171875</ele>
        <time>2026-06-15T08:38:04.000Z</time>
        <extensions>
          <ns3:TrackPointExtension>
            <ns3:atemp>23.0</ns3:atemp>
          </ns3:TrackPointExtension>
        </extensions>
      </trkpt>
      <trkpt lat="42.5907146371901035308837890625" lon="20.14420484192669391632080078125">
        <ele>1459.5999755859375</ele>
        <time>2026-06-15T08:38:05.000Z</time>
        <extensions>
          <ns3:TrackPointExtension>
            <ns3:atemp>23.0</ns3:atemp>
          </ns3:TrackPointExtension>
        </extensions>
      </trkpt>
      <trkpt lat="42.59069527499377727508544921875" lon="20.14417282305657863616943359375">
        <ele>1460</ele>
        <time>2026-06-15T08:38:06.000Z</time>
        <extensions>
          <ns3:TrackPointExtension>
            <ns3:atemp>23.0</ns3:atemp>
          </ns3:TrackPointExtension>
        </extensions>
      </trkpt>
      <trkpt lat="42.5906767509877681732177734375" lon="20.144139714539051055908203125">
        <ele>1460.199951171875</ele>
        <time>2026-06-15T08:38:07.000Z</time>
        <extensions>
          <ns3:TrackPointExtension>
            <ns3:atemp>23.0</ns3:atemp>
          </ns3:TrackPointExtension>
        </extensions>
      </trkpt>
      <trkpt lat="42.5906599871814250946044921875" lon="20.144105516374111175537109375">
        <ele>1460.5999755859375</ele>
        <time>2026-06-15T08:38:08.000Z</time>
        <extensions>
          <ns3:TrackPointExtension>
            <ns3:atemp>23.0</ns3:atemp>
          </ns3:TrackPointExtension>
        </extensions>
      </trkpt>
      <trkpt lat="42.59064096026122570037841796875" lon="20.14407324604690074920654296875">
        <ele>1461</ele>
        <time>2026-06-15T08:38:09.000Z</time>
        <extensions>
          <ns3:TrackPointExtension>
            <ns3:atemp>23.0</ns3:atemp>
          </ns3:TrackPointExtension>
        </extensions>
      </trkpt>
      <trkpt lat="42.59061992168426513671875" lon="20.1440399698913097381591796875">
        <ele>1461.199951171875</ele>
        <time>2026-06-15T08:38:10.000Z</time>
        <extensions>
          <ns3:TrackPointExtension>
            <ns3:atemp>23.0</ns3:atemp>
          </ns3:TrackPointExtension>
        </extensions>
      </trkpt>
      <trkpt lat="42.590601481497287750244140625" lon="20.144008286297321319580078125">
        <ele>1461.5999755859375</ele>
        <time>2026-06-15T08:38:11.000Z</time>
        <extensions>
          <ns3:TrackPointExtension>
            <ns3:atemp>23.0</ns3:atemp>
          </ns3:TrackPointExtension>
        </extensions>
      </trkpt>
      <trkpt lat="42.59058144874870777130126953125" lon="20.14397869817912578582763671875">
        <ele>1462</ele>
        <time>2026-06-15T08:38:12.000Z</time>
        <extensions>
          <ns3:TrackPointExtension>
            <ns3:atemp>23.0</ns3:atemp>
          </ns3:TrackPointExtension>
        </extensions>
      </trkpt>
      <trkpt lat="42.59056149981915950775146484375" lon="20.14394693076610565185546875">
        <ele>1462.199951171875</ele>
        <time>2026-06-15T08:38:13.000Z</time>
        <extensions>
          <ns3:TrackPointExtension>
            <ns3:atemp>23.0</ns3:atemp>
          </ns3:TrackPointExtension>
        </extensions>
      </trkpt>
      <trkpt lat="42.59054188616573810577392578125" lon="20.14391315169632434844970703125">
        <ele>1462.5999755859375</ele>
        <time>2026-06-15T08:38:14.000Z</time>
        <extensions>
          <ns3:TrackPointExtension>
            <ns3:atemp>23.0</ns3:atemp>
          </ns3:TrackPointExtension>
        </extensions>
      </trkpt>
      <trkpt lat="42.59051657281816005706787109375" lon="20.1438857428729534149169921875">
        <ele>1463</ele>
        <time>2026-06-15T08:38:15.000Z</time>
        <extensions>
          <ns3:TrackPointExtension>
            <ns3:atemp>23.0</ns3:atemp>
          </ns3:TrackPointExtension>
        </extensions>
      </trkpt>
      <trkpt lat="42.5904926843941211700439453125" lon="20.1438535563647747039794921875">
        <ele>1463.199951171875</ele>
        <time>2026-06-15T08:38:16.000Z</time>
        <extensions>
          <ns3:TrackPointExtension>
            <ns3:atemp>23.0</ns3:atemp>
          </ns3:TrackPointExtension>
        </extensions>
      </trkpt>
      <trkpt lat="42.59046896360814571380615234375" lon="20.14381860382854938507080078125">
        <ele>1463.5999755859375</ele>
        <time>2026-06-15T08:38:17.000Z</time>
        <extensions>
          <ns3:TrackPointExtension>
            <ns3:atemp>23.0</ns3:atemp>
          </ns3:TrackPointExtension>
        </extensions>
      </trkpt>
      <trkpt lat="42.5904444046318531036376953125" lon="20.1437875069677829742431640625">
        <ele>1464</ele>
        <time>2026-06-15T08:38:18.000Z</time>
        <extensions>
          <ns3:TrackPointExtension>
            <ns3:atemp>23.0</ns3:atemp>
          </ns3:TrackPointExtension>
        </extensions>
      </trkpt>
      <trkpt lat="42.5904185883700847625732421875" lon="20.143759511411190032958984375">
        <ele>1464.199951171875</ele>
        <time>2026-06-15T08:38:19.000Z</time>
        <extensions>
          <ns3:TrackPointExtension>
            <ns3:atemp>23.0</ns3:atemp>
          </ns3:TrackPointExtension>
        </extensions>
      </trkpt>
      <trkpt lat="42.59039319120347499847412109375" lon="20.14373947866261005401611328125">
        <ele>1464.5999755859375</ele>
        <time>2026-06-15T08:38:20.000Z</time>
        <extensions>
          <ns3:TrackPointExtension>
            <ns3:atemp>23.0</ns3:atemp>
          </ns3:TrackPointExtension>
        </extensions>
      </trkpt>
      <trkpt lat="42.59036921896040439605712890625" lon="20.143717937171459197998046875">
        <ele>1465</ele>
        <time>2026-06-15T08:38:21.000Z</time>
        <extensions>
          <ns3:TrackPointExtension>
            <ns3:atemp>23.0</ns3:atemp>
          </ns3:TrackPointExtension>
        </extensions>
      </trkpt>
      <trkpt lat="42.59034390561282634735107421875" lon="20.14369354583323001861572265625">
        <ele>1465.199951171875</ele>
        <time>2026-06-15T08:38:22.000Z</time>
        <extensions>
          <ns3:TrackPointExtension>
            <ns3:atemp>23.0</ns3:atemp>
          </ns3:TrackPointExtension>
        </extensions>
      </trkpt>
      <trkpt lat="42.5903180055320262908935546875" lon="20.1436673104763031005859375">
        <ele>1465.5999755859375</ele>
        <time>2026-06-15T08:38:23.000Z</time>
        <extensions>
          <ns3:TrackPointExtension>
            <ns3:atemp>23.0</ns3:atemp>
          </ns3:TrackPointExtension>
        </extensions>
      </trkpt>
      <trkpt lat="42.59029478766024112701416015625" lon="20.1436446793377399444580078125">
        <ele>1466</ele>
        <time>2026-06-15T08:38:24.000Z</time>
        <extensions>
          <ns3:TrackPointExtension>
            <ns3:atemp>23.0</ns3:atemp>
          </ns3:TrackPointExtension>
        </extensions>
      </trkpt>
      <trkpt lat="42.59027349762618541717529296875" lon="20.14361794106662273406982421875">
        <ele>1466.199951171875</ele>
        <time>2026-06-15T08:38:25.000Z</time>
        <extensions>
          <ns3:TrackPointExtension>
            <ns3:atemp>23.0</ns3:atemp>
          </ns3:TrackPointExtension>
        </extensions>
      </trkpt>
      <trkpt lat="42.59025086648762226104736328125" lon="20.1435930468142032623291015625">
        <ele>1466.5999755859375</ele>
        <time>2026-06-15T08:38:26.000Z</time>
        <extensions>
          <ns3:TrackPointExtension>
            <ns3:atemp>23.0</ns3:atemp>
          </ns3:TrackPointExtension>
        </extensions>
      </trkpt>
      <trkpt lat="42.5902291573584079742431640625" lon="20.1435729302465915679931640625">
        <ele>1467</ele>
        <time>2026-06-15T08:38:27.000Z</time>
        <extensions>
          <ns3:TrackPointExtension>
            <ns3:atemp>23.0</ns3:atemp>
          </ns3:TrackPointExtension>
        </extensions>
      </trkpt>
      <trkpt lat="42.59020761586725711822509765625" lon="20.1435477845370769500732421875">
        <ele>1467.4000244140625</ele>
        <time>2026-06-15T08:38:28.000Z</time>
        <extensions>
          <ns3:TrackPointExtension>
            <ns3:atemp>23.0</ns3:atemp>
          </ns3:TrackPointExtension>
        </extensions>
      </trkpt>
      <trkpt lat="42.59018632583320140838623046875" lon="20.14352205209434032440185546875">
        <ele>1467.800048828125</ele>
        <time>2026-06-15T08:38:29.000Z</time>
        <extensions>
          <ns3:TrackPointExtension>
            <ns3:atemp>23.0</ns3:atemp>
          </ns3:TrackPointExtension>
        </extensions>
      </trkpt>
      <trkpt lat="42.59016520343720912933349609375" lon="20.143496990203857421875">
        <ele>1468</ele>
        <time>2026-06-15T08:38:30.000Z</time>
        <extensions>
          <ns3:TrackPointExtension>
            <ns3:atemp>23.0</ns3:atemp>
          </ns3:TrackPointExtension>
        </extensions>
      </trkpt>
      <trkpt lat="42.59014575742185115814208984375" lon="20.1434736885130405426025390625">
        <ele>1468.5999755859375</ele>
        <time>2026-06-15T08:38:31.000Z</time>
        <extensions>
          <ns3:TrackPointExtension>
            <ns3:atemp>23.0</ns3:atemp>
          </ns3:TrackPointExtension>
        </extensions>
      </trkpt>
      <trkpt lat="42.5901275686919689178466796875" lon="20.1434465311467647552490234375">
        <ele>1468.800048828125</ele>
        <time>2026-06-15T08:38:32.000Z</time>
        <extensions>
          <ns3:TrackPointExtension>
            <ns3:atemp>23.0</ns3:atemp>
          </ns3:TrackPointExtension>
        </extensions>
      </trkpt>
      <trkpt lat="42.5901104696094989776611328125" lon="20.1434146799147129058837890625">
        <ele>1469.199951171875</ele>
        <time>2026-06-15T08:38:33.000Z</time>
        <extensions>
          <ns3:TrackPointExtension>
            <ns3:atemp>23.0</ns3:atemp>
          </ns3:TrackPointExtension>
        </extensions>
      </trkpt>
      <trkpt lat="42.590091191232204437255859375" lon="20.1433821581304073333740234375">
        <ele>1469.4000244140625</ele>
        <time>2026-06-15T08:38:34.000Z</time>
        <extensions>
          <ns3:TrackPointExtension>
            <ns3:atemp>23.0</ns3:atemp>
          </ns3:TrackPointExtension>
        </extensions>
      </trkpt>
      <trkpt lat="42.59007350541651248931884765625" lon="20.14334888197481632232666015625">
        <ele>1469.800048828125</ele>
        <time>2026-06-15T08:38:35.000Z</time>
        <extensions>
          <ns3:TrackPointExtension>
            <ns3:atemp>23.0</ns3:atemp>
          </ns3:TrackPointExtension>
        </extensions>
      </trkpt>
      <trkpt lat="42.59005825035274028778076171875" lon="20.14331736601889133453369140625">
        <ele>1470</ele>
        <time>2026-06-15T08:38:36.000Z</time>
        <extensions>
          <ns3:TrackPointExtension>
            <ns3:atemp>23.0</ns3:atemp>
          </ns3:TrackPointExtension>
        </extensions>
      </trkpt>
      <trkpt lat="42.5900474376976490020751953125" lon="20.14328383840620517730712890625">
        <ele>1470.4000244140625</ele>
        <time>2026-06-15T08:38:37.000Z</time>
        <extensions>
          <ns3:TrackPointExtension>
            <ns3:atemp>23.0</ns3:atemp>
          </ns3:TrackPointExtension>
        </extensions>
      </trkpt>
      <trkpt lat="42.59003528393805027008056640625" lon="20.14324997551739215850830078125">
        <ele>1470.5999755859375</ele>
        <time>2026-06-15T08:38:38.000Z</time>
        <extensions>
          <ns3:TrackPointExtension>
            <ns3:atemp>23.0</ns3:atemp>
          </ns3:TrackPointExtension>
        </extensions>
      </trkpt>
      <trkpt lat="42.59002572856843471527099609375" lon="20.1432178728282451629638671875">
        <ele>1471</ele>
        <time>2026-06-15T08:38:39.000Z</time>
        <extensions>
          <ns3:TrackPointExtension>
            <ns3:atemp>23.0</ns3:atemp>
          </ns3:TrackPointExtension>
        </extensions>
      </trkpt>
      <trkpt lat="42.590022794902324676513671875" lon="20.14318912290036678314208984375">
        <ele>1471.199951171875</ele>
        <time>2026-06-15T08:38:40.000Z</time>
        <extensions>
          <ns3:TrackPointExtension>
            <ns3:atemp>23.0</ns3:atemp>
          </ns3:TrackPointExtension>
        </extensions>
      </trkpt>
      <trkpt lat="42.590018771588802337646484375" lon="20.14315475709736347198486328125">
        <ele>1471.5999755859375</ele>
        <time>2026-06-15T08:38:41.000Z</time>
        <extensions>
          <ns3:TrackPointExtension>
            <ns3:atemp>23.0</ns3:atemp>
          </ns3:TrackPointExtension>
        </extensions>
      </trkpt>
      <trkpt lat="42.59001709520816802978515625" lon="20.143129527568817138671875">
        <ele>1472</ele>
        <time>2026-06-15T08:38:42.000Z</time>
        <extensions>
          <ns3:TrackPointExtension>
            <ns3:atemp>23.0</ns3:atemp>
          </ns3:TrackPointExtension>
        </extensions>
      </trkpt>
      <trkpt lat="42.5900209508836269378662109375" lon="20.14309893362224102020263671875">
        <ele>1472.199951171875</ele>
        <time>2026-06-15T08:38:43.000Z</time>
        <extensions>
          <ns3:TrackPointExtension>
            <ns3:atemp>23.0</ns3:atemp>
          </ns3:TrackPointExtension>
        </extensions>
      </trkpt>
      <trkpt lat="42.5900239683687686920166015625" lon="20.14306875877082347869873046875">
        <ele>1472.4000244140625</ele>
        <time>2026-06-15T08:38:44.000Z</time>
        <extensions>
          <ns3:TrackPointExtension>
            <ns3:atemp>23.0</ns3:atemp>
          </ns3:TrackPointExtension>
        </extensions>
      </trkpt>
      <trkpt lat="42.5900303386151790618896484375" lon="20.14303389005362987518310546875">
        <ele>1472.5999755859375</ele>
        <time>2026-06-15T08:38:45.000Z</time>
        <extensions>
          <ns3:TrackPointExtension>
            <ns3:atemp>23.0</ns3:atemp>
          </ns3:TrackPointExtension>
        </extensions>
      </trkpt>
      <trkpt lat="42.59003360755741596221923828125" lon="20.1430009491741657257080078125">
        <ele>1472.800048828125</ele>
        <time>2026-06-15T08:38:46.000Z</time>
        <extensions>
          <ns3:TrackPointExtension>
            <ns3:atemp>23.0</ns3:atemp>
          </ns3:TrackPointExtension>
        </extensions>
      </trkpt>
      <trkpt lat="42.59003645740449428558349609375" lon="20.14296599663794040679931640625">
        <ele>1473</ele>
        <time>2026-06-15T08:38:47.000Z</time>
        <extensions>
          <ns3:TrackPointExtension>
            <ns3:atemp>23.0</ns3:atemp>
          </ns3:TrackPointExtension>
        </extensions>
      </trkpt>
      <trkpt lat="42.590036876499652862548828125" lon="20.1429258473217487335205078125">
        <ele>1473.4000244140625</ele>
        <time>2026-06-15T08:38:48.000Z</time>
        <extensions>
          <ns3:TrackPointExtension>
            <ns3:atemp>23.0</ns3:atemp>
          </ns3:TrackPointExtension>
        </extensions>
      </trkpt>
      <trkpt lat="42.59003318846225738525390625" lon="20.14288184233009815216064453125">
        <ele>1473.5999755859375</ele>
        <time>2026-06-15T08:38:49.000Z</time>
        <extensions>
          <ns3:TrackPointExtension>
            <ns3:atemp>23.0</ns3:atemp>
          </ns3:TrackPointExtension>
        </extensions>
      </trkpt>
      <trkpt lat="42.5900273211300373077392578125" lon="20.1428393460810184478759765625">
        <ele>1473.800048828125</ele>
        <time>2026-06-15T08:38:50.000Z</time>
        <extensions>
          <ns3:TrackPointExtension>
            <ns3:atemp>23.0</ns3:atemp>
          </ns3:TrackPointExtension>
        </extensions>
      </trkpt>
      <trkpt lat="42.59002380073070526123046875" lon="20.14280565083026885986328125">
        <ele>1474</ele>
        <time>2026-06-15T08:38:51.000Z</time>
        <extensions>
          <ns3:TrackPointExtension>
            <ns3:atemp>23.0</ns3:atemp>
          </ns3:TrackPointExtension>
        </extensions>
      </trkpt>
      <trkpt lat="42.5900231301784515380859375" lon="20.14277614653110504150390625">
        <ele>1474.4000244140625</ele>
        <time>2026-06-15T08:38:52.000Z</time>
        <extensions>
          <ns3:TrackPointExtension>
            <ns3:atemp>23.0</ns3:atemp>
          </ns3:TrackPointExtension>
        </extensions>
      </trkpt>
      <trkpt lat="42.590018101036548614501953125" lon="20.14274857006967067718505859375">
        <ele>1474.5999755859375</ele>
        <time>2026-06-15T08:38:53.000Z</time>
        <extensions>
          <ns3:TrackPointExtension>
            <ns3:atemp>23.0</ns3:atemp>
          </ns3:TrackPointExtension>
        </extensions>
      </trkpt>
      <trkpt lat="42.59001064114272594451904296875" lon="20.1427162997424602508544921875">
        <ele>1475</ele>
        <time>2026-06-15T08:38:54.000Z</time>
        <extensions>
          <ns3:TrackPointExtension>
            <ns3:atemp>23.0</ns3:atemp>
          </ns3:TrackPointExtension>
        </extensions>
      </trkpt>
      <trkpt lat="42.5900041870772838592529296875" lon="20.1426841132342815399169921875">
        <ele>1475.4000244140625</ele>
        <time>2026-06-15T08:38:55.000Z</time>
        <extensions>
          <ns3:TrackPointExtension>
            <ns3:atemp>23.0</ns3:atemp>
          </ns3:TrackPointExtension>
        </extensions>
      </trkpt>
      <trkpt lat="42.59000058285892009735107421875" lon="20.14265066944062709808349609375">
        <ele>1475.5999755859375</ele>
        <time>2026-06-15T08:38:56.000Z</time>
        <extensions>
          <ns3:TrackPointExtension>
            <ns3:atemp>23.0</ns3:atemp>
          </ns3:TrackPointExtension>
        </extensions>
      </trkpt>
      <trkpt lat="42.5900008343160152435302734375" lon="20.14262166805565357208251953125">
        <ele>1475.800048828125</ele>
        <time>2026-06-15T08:38:57.000Z</time>
        <extensions>
          <ns3:TrackPointExtension>
            <ns3:atemp>23.0</ns3:atemp>
          </ns3:TrackPointExtension>
        </extensions>
      </trkpt>
      <trkpt lat="42.5899991579353809356689453125" lon="20.14259970746934413909912109375">
        <ele>1476</ele>
        <time>2026-06-15T08:38:58.000Z</time>
        <extensions>
          <ns3:TrackPointExtension>
            <ns3:atemp>23.0</ns3:atemp>
          </ns3:TrackPointExtension>
        </extensions>
      </trkpt>
      <trkpt lat="42.590002678334712982177734375" lon="20.1425744779407978057861328125">
        <ele>1476.4000244140625</ele>
        <time>2026-06-15T08:38:59.000Z</time>
        <extensions>
          <ns3:TrackPointExtension>
            <ns3:atemp>22.0</ns3:atemp>
          </ns3:TrackPointExtension>
        </extensions>
      </trkpt>
      <trkpt lat="42.5900021754205226898193359375" lon="20.14254304580390453338623046875">
        <ele>1476.5999755859375</ele>
        <time>2026-06-15T08:39:00.000Z</time>
        <extensions>
          <ns3:TrackPointExtension>
            <ns3:atemp>22.0</ns3:atemp>
          </ns3:TrackPointExtension>
        </extensions>
      </trkpt>
      <trkpt lat="42.5900025106966495513916015625" lon="20.14251421205699443817138671875">
        <ele>1476.800048828125</ele>
        <time>2026-06-15T08:39:01.000Z</time>
        <extensions>
          <ns3:TrackPointExtension>
            <ns3:atemp>22.0</ns3:atemp>
          </ns3:TrackPointExtension>
        </extensions>
      </trkpt>
      <trkpt lat="42.59000091813504695892333984375" lon="20.1424836181104183197021484375">
        <ele>1477</ele>
        <time>2026-06-15T08:39:02.000Z</time>
        <extensions>
          <ns3:TrackPointExtension>
            <ns3:atemp>22.0</ns3:atemp>
          </ns3:TrackPointExtension>
        </extensions>
      </trkpt>
      <trkpt lat="42.59000108577311038970947265625" lon="20.14245118014514446258544921875">
        <ele>1477.199951171875</ele>
        <time>2026-06-15T08:39:03.000Z</time>
        <extensions>
          <ns3:TrackPointExtension>
            <ns3:atemp>22.0</ns3:atemp>
          </ns3:TrackPointExtension>
        </extensions>
      </trkpt>
      <trkpt lat="42.59000443853437900543212890625" lon="20.14241765253245830535888671875">
        <ele>1477.5999755859375</ele>
        <time>2026-06-15T08:39:04.000Z</time>
        <extensions>
          <ns3:TrackPointExtension>
            <ns3:atemp>22.0</ns3:atemp>
          </ns3:TrackPointExtension>
        </extensions>
      </trkpt>
      <trkpt lat="42.5900051929056644439697265625" lon="20.1423793472349643707275390625">
        <ele>1477.800048828125</ele>
        <time>2026-06-15T08:39:05.000Z</time>
        <extensions>
          <ns3:TrackPointExtension>
            <ns3:atemp>22.0</ns3:atemp>
          </ns3:TrackPointExtension>
        </extensions>
      </trkpt>
      <trkpt lat="42.59000611491501331329345703125" lon="20.1423371024429798126220703125">
        <ele>1478.199951171875</ele>
        <time>2026-06-15T08:39:06.000Z</time>
        <extensions>
          <ns3:TrackPointExtension>
            <ns3:atemp>22.0</ns3:atemp>
          </ns3:TrackPointExtension>
        </extensions>
      </trkpt>
      <trkpt lat="42.590008713304996490478515625" lon="20.1422961987555027008056640625">
        <ele>1478.4000244140625</ele>
        <time>2026-06-15T08:39:07.000Z</time>
        <extensions>
          <ns3:TrackPointExtension>
            <ns3:atemp>22.0</ns3:atemp>
          </ns3:TrackPointExtension>
        </extensions>
      </trkpt>
      <trkpt lat="42.5900108925998210906982421875" lon="20.142259486019611358642578125">
        <ele>1478.800048828125</ele>
        <time>2026-06-15T08:39:08.000Z</time>
        <extensions>
          <ns3:TrackPointExtension>
            <ns3:atemp>22.0</ns3:atemp>
          </ns3:TrackPointExtension>
        </extensions>
      </trkpt>
      <trkpt lat="42.5900169275701045989990234375" lon="20.14222352765500545501708984375">
        <ele>1479</ele>
        <time>2026-06-15T08:39:09.000Z</time>
        <extensions>
          <ns3:TrackPointExtension>
            <ns3:atemp>22.0</ns3:atemp>
          </ns3:TrackPointExtension>
        </extensions>
      </trkpt>
      <trkpt lat="42.59002111852169036865234375" lon="20.14218748547136783599853515625">
        <ele>1479.199951171875</ele>
        <time>2026-06-15T08:39:10.000Z</time>
        <extensions>
          <ns3:TrackPointExtension>
            <ns3:atemp>22.0</ns3:atemp>
          </ns3:TrackPointExtension>
        </extensions>
      </trkpt>
      <trkpt lat="42.59002187289297580718994140625" lon="20.14215010218322277069091796875">
        <ele>1479.5999755859375</ele>
        <time>2026-06-15T08:39:11.000Z</time>
        <extensions>
          <ns3:TrackPointExtension>
            <ns3:atemp>22.0</ns3:atemp>
          </ns3:TrackPointExtension>
        </extensions>
      </trkpt>
      <trkpt lat="42.59002204053103923797607421875" lon="20.14211229979991912841796875">
        <ele>1479.800048828125</ele>
        <time>2026-06-15T08:39:12.000Z</time>
        <extensions>
          <ns3:TrackPointExtension>
            <ns3:atemp>22.0</ns3:atemp>
          </ns3:TrackPointExtension>
        </extensions>
      </trkpt>
      <trkpt lat="42.59001868776977062225341796875" lon="20.14207072556018829345703125">
        <ele>1480</ele>
        <time>2026-06-15T08:39:13.000Z</time>
        <extensions>
          <ns3:TrackPointExtension>
            <ns3:atemp>22.0</ns3:atemp>
          </ns3:TrackPointExtension>
        </extensions>
      </trkpt>
      <trkpt lat="42.59001575410366058349609375" lon="20.1420283131301403045654296875">
        <ele>1480.4000244140625</ele>
        <time>2026-06-15T08:39:14.000Z</time>
        <extensions>
          <ns3:TrackPointExtension>
            <ns3:atemp>22.0</ns3:atemp>
          </ns3:TrackPointExtension>
        </extensions>
      </trkpt>
      <trkpt lat="42.59001466445624828338623046875" lon="20.14199000783264636993408203125">
        <ele>1480.5999755859375</ele>
        <time>2026-06-15T08:39:15.000Z</time>
        <extensions>
          <ns3:TrackPointExtension>
            <ns3:atemp>22.0</ns3:atemp>
          </ns3:TrackPointExtension>
        </extensions>
      </trkpt>
      <trkpt lat="42.59001583792269229888916015625" lon="20.1419488526880741119384765625">
        <ele>1481</ele>
        <time>2026-06-15T08:39:16.000Z</time>
        <extensions>
          <ns3:TrackPointExtension>
            <ns3:atemp>22.0</ns3:atemp>
          </ns3:TrackPointExtension>
        </extensions>
      </trkpt>
      <trkpt lat="42.590015418827533721923828125" lon="20.14190903864800930023193359375">
        <ele>1481.199951171875</ele>
        <time>2026-06-15T08:39:17.000Z</time>
        <extensions>
          <ns3:TrackPointExtension>
            <ns3:atemp>22.0</ns3:atemp>
          </ns3:TrackPointExtension>
        </extensions>
      </trkpt>
      <trkpt lat="42.59001382626593112945556640625" lon="20.14187165535986423492431640625">
        <ele>1481.5999755859375</ele>
        <time>2026-06-15T08:39:18.000Z</time>
        <extensions>
          <ns3:TrackPointExtension>
            <ns3:atemp>22.0</ns3:atemp>
          </ns3:TrackPointExtension>
        </extensions>
      </trkpt>
      <trkpt lat="42.59001013822853565216064453125" lon="20.141831338405609130859375">
        <ele>1481.800048828125</ele>
        <time>2026-06-15T08:39:19.000Z</time>
        <extensions>
          <ns3:TrackPointExtension>
            <ns3:atemp>22.0</ns3:atemp>
          </ns3:TrackPointExtension>
        </extensions>
      </trkpt>
      <trkpt lat="42.58999840356409549713134765625" lon="20.14179714024066925048828125">
        <ele>1482.199951171875</ele>
        <time>2026-06-15T08:39:20.000Z</time>
        <extensions>
          <ns3:TrackPointExtension>
            <ns3:atemp>22.0</ns3:atemp>
          </ns3:TrackPointExtension>
        </extensions>
      </trkpt>
      <trkpt lat="42.589985243976116180419921875" lon="20.14176403172314167022705078125">
        <ele>1482.4000244140625</ele>
        <time>2026-06-15T08:39:21.000Z</time>
        <extensions>
          <ns3:TrackPointExtension>
            <ns3:atemp>22.0</ns3:atemp>
          </ns3:TrackPointExtension>
        </extensions>
      </trkpt>
      <trkpt lat="42.589968480169773101806640625" lon="20.141731761395931243896484375">
        <ele>1482.5999755859375</ele>
        <time>2026-06-15T08:39:22.000Z</time>
        <extensions>
          <ns3:TrackPointExtension>
            <ns3:atemp>22.0</ns3:atemp>
          </ns3:TrackPointExtension>
        </extensions>
      </trkpt>
      <trkpt lat="42.58995196782052516937255859375" lon="20.1417017541825771331787109375">
        <ele>1482.800048828125</ele>
        <time>2026-06-15T08:39:23.000Z</time>
        <extensions>
          <ns3:TrackPointExtension>
            <ns3:atemp>22.0</ns3:atemp>
          </ns3:TrackPointExtension>
        </extensions>
      </trkpt>
      <trkpt lat="42.58993503637611865997314453125" lon="20.14167518354952335357666015625">
        <ele>1483</ele>
        <time>2026-06-15T08:39:24.000Z</time>
        <extensions>
          <ns3:TrackPointExtension>
            <ns3:atemp>22.0</ns3:atemp>
          </ns3:TrackPointExtension>
        </extensions>
      </trkpt>
      <trkpt lat="42.589913494884967803955078125" lon="20.1416494511067867279052734375">
        <ele>1483.199951171875</ele>
        <time>2026-06-15T08:39:25.000Z</time>
        <extensions>
          <ns3:TrackPointExtension>
            <ns3:atemp>22.0</ns3:atemp>
          </ns3:TrackPointExtension>
        </extensions>
      </trkpt>
      <trkpt lat="42.58989077992737293243408203125" lon="20.14162455685436725616455078125">
        <ele>1483.4000244140625</ele>
        <time>2026-06-15T08:39:26.000Z</time>
        <extensions>
          <ns3:TrackPointExtension>
            <ns3:atemp>22.0</ns3:atemp>
          </ns3:TrackPointExtension>
        </extensions>
      </trkpt>
      <trkpt lat="42.58986764587461948394775390625" lon="20.1416020095348358154296875">
        <ele>1483.800048828125</ele>
        <time>2026-06-15T08:39:27.000Z</time>
        <extensions>
          <ns3:TrackPointExtension>
            <ns3:atemp>22.0</ns3:atemp>
          </ns3:TrackPointExtension>
        </extensions>
      </trkpt>
      <trkpt lat="42.58984602056443691253662109375" lon="20.1415793783962726593017578125">
        <ele>1484</ele>
        <time>2026-06-15T08:39:28.000Z</time>
        <extensions>
          <ns3:TrackPointExtension>
            <ns3:atemp>22.0</ns3:atemp>
          </ns3:TrackPointExtension>
        </extensions>
      </trkpt>
      <trkpt lat="42.5898261554539203643798828125" lon="20.1415508799254894256591796875">
        <ele>1484.199951171875</ele>
        <time>2026-06-15T08:39:29.000Z</time>
        <extensions>
          <ns3:TrackPointExtension>
            <ns3:atemp>22.0</ns3:atemp>
          </ns3:TrackPointExtension>
        </extensions>
      </trkpt>
      <trkpt lat="42.589800171554088592529296875" lon="20.14152757823467254638671875">
        <ele>1484.199951171875</ele>
        <time>2026-06-15T08:39:30.000Z</time>
        <extensions>
          <ns3:TrackPointExtension>
            <ns3:atemp>22.0</ns3:atemp>
          </ns3:TrackPointExtension>
        </extensions>
      </trkpt>
      <trkpt lat="42.58977611549198627471923828125" lon="20.14150888659060001373291015625">
        <ele>1484.4000244140625</ele>
        <time>2026-06-15T08:39:31.000Z</time>
        <extensions>
          <ns3:TrackPointExtension>
            <ns3:atemp>22.0</ns3:atemp>
          </ns3:TrackPointExtension>
        </extensions>
      </trkpt>
      <trkpt lat="42.58975113742053508758544921875" lon="20.14148927293717861175537109375">
        <ele>1484.4000244140625</ele>
        <time>2026-06-15T08:39:32.000Z</time>
        <extensions>
          <ns3:TrackPointExtension>
            <ns3:atemp>22.0</ns3:atemp>
          </ns3:TrackPointExtension>
        </extensions>
      </trkpt>
      <trkpt lat="42.58973001502454280853271484375" lon="20.141464881598949432373046875">
        <ele>1484.5999755859375</ele>
        <time>2026-06-15T08:39:33.000Z</time>
        <extensions>
          <ns3:TrackPointExtension>
            <ns3:atemp>22.0</ns3:atemp>
          </ns3:TrackPointExtension>
        </extensions>
      </trkpt>
      <trkpt lat="42.58971375413239002227783203125" lon="20.14144233427941799163818359375">
        <ele>1484.5999755859375</ele>
        <time>2026-06-15T08:39:34.000Z</time>
        <extensions>
          <ns3:TrackPointExtension>
            <ns3:atemp>22.0</ns3:atemp>
          </ns3:TrackPointExtension>
        </extensions>
      </trkpt>
      <trkpt lat="42.589698918163776397705078125" lon="20.14141752384603023529052734375">
        <ele>1484.800048828125</ele>
        <time>2026-06-15T08:39:35.000Z</time>
        <extensions>
          <ns3:TrackPointExtension>
            <ns3:atemp>22.0</ns3:atemp>
          </ns3:TrackPointExtension>
        </extensions>
      </trkpt>
      <trkpt lat="42.58968139998614788055419921875" lon="20.1413981616497039794921875">
        <ele>1485</ele>
        <time>2026-06-15T08:39:36.000Z</time>
        <extensions>
          <ns3:TrackPointExtension>
            <ns3:atemp>22.0</ns3:atemp>
          </ns3:TrackPointExtension>
        </extensions>
      </trkpt>
      <trkpt lat="42.58966078050434589385986328125" lon="20.14136941172182559967041015625">
        <ele>1485.199951171875</ele>
        <time>2026-06-15T08:39:37.000Z</time>
        <extensions>
          <ns3:TrackPointExtension>
            <ns3:atemp>22.0</ns3:atemp>
          </ns3:TrackPointExtension>
        </extensions>
      </trkpt>
      <trkpt lat="42.58964435197412967681884765625" lon="20.14133169315755367279052734375">
        <ele>1485.4000244140625</ele>
        <time>2026-06-15T08:39:38.000Z</time>
        <extensions>
          <ns3:TrackPointExtension>
            <ns3:atemp>22.0</ns3:atemp>
          </ns3:TrackPointExtension>
        </extensions>
      </trkpt>
      <trkpt lat="42.58963094092905521392822265625" lon="20.141294561326503753662109375">
        <ele>1485.5999755859375</ele>
        <time>2026-06-15T08:39:39.000Z</time>
        <extensions>
          <ns3:TrackPointExtension>
            <ns3:atemp>22.0</ns3:atemp>
          </ns3:TrackPointExtension>
        </extensions>
      </trkpt>
      <trkpt lat="42.589619122445583343505859375" lon="20.14125826768577098846435546875">
        <ele>1485.800048828125</ele>
        <time>2026-06-15T08:39:40.000Z</time>
        <extensions>
          <ns3:TrackPointExtension>
            <ns3:atemp>22.0</ns3:atemp>
          </ns3:TrackPointExtension>
        </extensions>
      </trkpt>
      <trkpt lat="42.58960428647696971893310546875" lon="20.14122339896857738494873046875">
        <ele>1486</ele>
        <time>2026-06-15T08:39:41.000Z</time>
        <extensions>
          <ns3:TrackPointExtension>
            <ns3:atemp>22.0</ns3:atemp>
          </ns3:TrackPointExtension>
        </extensions>
      </trkpt>
      <trkpt lat="42.5895928032696247100830078125" lon="20.14118350110948085784912109375">
        <ele>1486.199951171875</ele>
        <time>2026-06-15T08:39:42.000Z</time>
        <extensions>
          <ns3:TrackPointExtension>
            <ns3:atemp>22.0</ns3:atemp>
          </ns3:TrackPointExtension>
        </extensions>
      </trkpt>
      <trkpt lat="42.58958685211837291717529296875" lon="20.1411391608417034149169921875">
        <ele>1486.199951171875</ele>
        <time>2026-06-15T08:39:43.000Z</time>
        <extensions>
          <ns3:TrackPointExtension>
            <ns3:atemp>22.0</ns3:atemp>
          </ns3:TrackPointExtension>
        </extensions>
      </trkpt>
      <trkpt lat="42.5895832479000091552734375" lon="20.14110085554420948028564453125">
        <ele>1486.4000244140625</ele>
        <time>2026-06-15T08:39:44.000Z</time>
        <extensions>
          <ns3:TrackPointExtension>
            <ns3:atemp>22.0</ns3:atemp>
          </ns3:TrackPointExtension>
        </extensions>
      </trkpt>
      <trkpt lat="42.5895797275006771087646484375" lon="20.141060538589954376220703125">
        <ele>1486.4000244140625</ele>
        <time>2026-06-15T08:39:45.000Z</time>
        <extensions>
          <ns3:TrackPointExtension>
            <ns3:atemp>22.0</ns3:atemp>
          </ns3:TrackPointExtension>
        </extensions>
      </trkpt>
      <trkpt lat="42.58957763202488422393798828125" lon="20.14102022163569927215576171875">
        <ele>1486.5999755859375</ele>
        <time>2026-06-15T08:39:46.000Z</time>
        <extensions>
          <ns3:TrackPointExtension>
            <ns3:atemp>22.0</ns3:atemp>
          </ns3:TrackPointExtension>
        </extensions>
      </trkpt>
      <trkpt lat="42.58957587182521820068359375" lon="20.14098317362368106842041015625">
        <ele>1486.800048828125</ele>
        <time>2026-06-15T08:39:47.000Z</time>
        <extensions>
          <ns3:TrackPointExtension>
            <ns3:atemp>22.0</ns3:atemp>
          </ns3:TrackPointExtension>
        </extensions>
      </trkpt>
      <trkpt lat="42.589576207101345062255859375" lon="20.1409450359642505645751953125">
        <ele>1487</ele>
        <time>2026-06-15T08:39:48.000Z</time>
        <extensions>
          <ns3:TrackPointExtension>
            <ns3:atemp>22.0</ns3:atemp>
          </ns3:TrackPointExtension>
        </extensions>
      </trkpt>
      <trkpt lat="42.58957947604358196258544921875" lon="20.14090798795223236083984375">
        <ele>1487.199951171875</ele>
        <time>2026-06-15T08:39:49.000Z</time>
        <extensions>
          <ns3:TrackPointExtension>
            <ns3:atemp>22.0</ns3:atemp>
          </ns3:TrackPointExtension>
        </extensions>
      </trkpt>
      <trkpt lat="42.589578889310359954833984375" lon="20.14087337069213390350341796875">
        <ele>1487.4000244140625</ele>
        <time>2026-06-15T08:39:50.000Z</time>
        <extensions>
          <ns3:TrackPointExtension>
            <ns3:atemp>22.0</ns3:atemp>
          </ns3:TrackPointExtension>
        </extensions>
      </trkpt>
      <trkpt lat="42.5895805656909942626953125" lon="20.140837915241718292236328125">
        <ele>1487.5999755859375</ele>
        <time>2026-06-15T08:39:51.000Z</time>
        <extensions>
          <ns3:TrackPointExtension>
            <ns3:atemp>22.0</ns3:atemp>
          </ns3:TrackPointExtension>
        </extensions>
      </trkpt>
      <trkpt lat="42.58958199061453342437744140625" lon="20.14079860411584377288818359375">
        <ele>1487.800048828125</ele>
        <time>2026-06-15T08:39:52.000Z</time>
        <extensions>
          <ns3:TrackPointExtension>
            <ns3:atemp>22.0</ns3:atemp>
          </ns3:TrackPointExtension>
        </extensions>
      </trkpt>
      <trkpt lat="42.58958257734775543212890625" lon="20.1407579518854618072509765625">
        <ele>1488</ele>
        <time>2026-06-15T08:39:53.000Z</time>
        <extensions>
          <ns3:TrackPointExtension>
            <ns3:atemp>22.0</ns3:atemp>
          </ns3:TrackPointExtension>
        </extensions>
      </trkpt>
      <trkpt lat="42.589580230414867401123046875" lon="20.14071612618863582611083984375">
        <ele>1488.4000244140625</ele>
        <time>2026-06-15T08:39:54.000Z</time>
        <extensions>
          <ns3:TrackPointExtension>
            <ns3:atemp>22.0</ns3:atemp>
          </ns3:TrackPointExtension>
        </extensions>
      </trkpt>
      <trkpt lat="42.5895807333290576934814453125" lon="20.14067572541534900665283203125">
        <ele>1488.5999755859375</ele>
        <time>2026-06-15T08:39:55.000Z</time>
        <extensions>
          <ns3:TrackPointExtension>
            <ns3:atemp>22.0</ns3:atemp>
          </ns3:TrackPointExtension>
        </extensions>
      </trkpt>
      <trkpt lat="42.58958048187196254730224609375" lon="20.1406345702707767486572265625">
        <ele>1488.800048828125</ele>
        <time>2026-06-15T08:39:56.000Z</time>
        <extensions>
          <ns3:TrackPointExtension>
            <ns3:atemp>22.0</ns3:atemp>
          </ns3:TrackPointExtension>
        </extensions>
      </trkpt>
      <trkpt lat="42.58958299644291400909423828125" lon="20.14059458859264850616455078125">
        <ele>1489.199951171875</ele>
        <time>2026-06-15T08:39:57.000Z</time>
        <extensions>
          <ns3:TrackPointExtension>
            <ns3:atemp>22.0</ns3:atemp>
          </ns3:TrackPointExtension>
        </extensions>
      </trkpt>
      <trkpt lat="42.589580900967121124267578125" lon="20.140559636056423187255859375">
        <ele>1489.4000244140625</ele>
        <time>2026-06-15T08:39:58.000Z</time>
        <extensions>
          <ns3:TrackPointExtension>
            <ns3:atemp>22.0</ns3:atemp>
          </ns3:TrackPointExtension>
        </extensions>
      </trkpt>
      <trkpt lat="42.58958115242421627044677734375" lon="20.14052334241569042205810546875">
        <ele>1489.5999755859375</ele>
        <time>2026-06-15T08:39:59.000Z</time>
        <extensions>
          <ns3:TrackPointExtension>
            <ns3:atemp>22.0</ns3:atemp>
          </ns3:TrackPointExtension>
        </extensions>
      </trkpt>
      <trkpt lat="42.589582912623882293701171875" lon="20.140480510890483856201171875">
        <ele>1489.800048828125</ele>
        <time>2026-06-15T08:40:00.000Z</time>
        <extensions>
          <ns3:TrackPointExtension>
            <ns3:atemp>22.0</ns3:atemp>
          </ns3:TrackPointExtension>
        </extensions>
      </trkpt>
      <trkpt lat="42.58958232589066028594970703125" lon="20.14043885283172130584716796875">
        <ele>1490.199951171875</ele>
        <time>2026-06-15T08:40:01.000Z</time>
        <extensions>
          <ns3:TrackPointExtension>
            <ns3:atemp>22.0</ns3:atemp>
          </ns3:TrackPointExtension>
        </extensions>
      </trkpt>
      <trkpt lat="42.58958299644291400909423828125" lon="20.1403976976871490478515625">
        <ele>1490.4000244140625</ele>
        <time>2026-06-15T08:40:02.000Z</time>
        <extensions>
          <ns3:TrackPointExtension>
            <ns3:atemp>22.0</ns3:atemp>
          </ns3:TrackPointExtension>
        </extensions>
      </trkpt>
      <trkpt lat="42.58958752267062664031982421875" lon="20.14035922475159168243408203125">
        <ele>1490.5999755859375</ele>
        <time>2026-06-15T08:40:03.000Z</time>
        <extensions>
          <ns3:TrackPointExtension>
            <ns3:atemp>22.0</ns3:atemp>
          </ns3:TrackPointExtension>
        </extensions>
      </trkpt>
      <trkpt lat="42.5895881094038486480712890625" lon="20.14032200910151004791259765625">
        <ele>1490.800048828125</ele>
        <time>2026-06-15T08:40:04.000Z</time>
        <extensions>
          <ns3:TrackPointExtension>
            <ns3:atemp>22.0</ns3:atemp>
          </ns3:TrackPointExtension>
        </extensions>
      </trkpt>
      <trkpt lat="42.58959171362221240997314453125" lon="20.14028630219399929046630859375">
        <ele>1491</ele>
        <time>2026-06-15T08:40:05.000Z</time>
        <extensions>
          <ns3:TrackPointExtension>
            <ns3:atemp>22.0</ns3:atemp>
          </ns3:TrackPointExtension>
        </extensions>
      </trkpt>
      <trkpt lat="42.5895951502025127410888671875" lon="20.14024774543941020965576171875">
        <ele>1491.199951171875</ele>
        <time>2026-06-15T08:40:06.000Z</time>
        <extensions>
          <ns3:TrackPointExtension>
            <ns3:atemp>22.0</ns3:atemp>
          </ns3:TrackPointExtension>
        </extensions>
      </trkpt>
      <trkpt lat="42.5895954854786396026611328125" lon="20.14021170325577259063720703125">
        <ele>1491.5999755859375</ele>
        <time>2026-06-15T08:40:07.000Z</time>
        <extensions>
          <ns3:TrackPointExtension>
            <ns3:atemp>22.0</ns3:atemp>
          </ns3:TrackPointExtension>
        </extensions>
      </trkpt>
      <trkpt lat="42.5895981676876544952392578125" lon="20.1401745714247226715087890625">
        <ele>1491.800048828125</ele>
        <time>2026-06-15T08:40:08.000Z</time>
        <extensions>
          <ns3:TrackPointExtension>
            <ns3:atemp>22.0</ns3:atemp>
          </ns3:TrackPointExtension>
        </extensions>
      </trkpt>
      <trkpt lat="42.58959858678281307220458984375" lon="20.14013442210853099822998046875">
        <ele>1492.199951171875</ele>
        <time>2026-06-15T08:40:09.000Z</time>
        <extensions>
          <ns3:TrackPointExtension>
            <ns3:atemp>22.0</ns3:atemp>
          </ns3:TrackPointExtension>
        </extensions>
      </trkpt>
      <trkpt lat="42.5896001793444156646728515625" lon="20.14009435661137104034423828125">
        <ele>1492.4000244140625</ele>
        <time>2026-06-15T08:40:10.000Z</time>
        <extensions>
          <ns3:TrackPointExtension>
            <ns3:atemp>22.0</ns3:atemp>
          </ns3:TrackPointExtension>
        </extensions>
      </trkpt>
      <trkpt lat="42.58960269391536712646484375" lon="20.14005613513290882110595703125">
        <ele>1492.5999755859375</ele>
        <time>2026-06-15T08:40:11.000Z</time>
        <extensions>
          <ns3:TrackPointExtension>
            <ns3:atemp>22.0</ns3:atemp>
          </ns3:TrackPointExtension>
        </extensions>
      </trkpt>
      <trkpt lat="42.5896021910011768341064453125" lon="20.1400122977793216705322265625">
        <ele>1492.800048828125</ele>
        <time>2026-06-15T08:40:12.000Z</time>
        <extensions>
          <ns3:TrackPointExtension>
            <ns3:atemp>22.0</ns3:atemp>
          </ns3:TrackPointExtension>
        </extensions>
      </trkpt>
      <trkpt lat="42.58960026316344738006591796875" lon="20.13997323811054229736328125">
        <ele>1493.199951171875</ele>
        <time>2026-06-15T08:40:13.000Z</time>
        <extensions>
          <ns3:TrackPointExtension>
            <ns3:atemp>22.0</ns3:atemp>
          </ns3:TrackPointExtension>
        </extensions>
      </trkpt>
      <trkpt lat="42.58960001170635223388671875" lon="20.1399371959269046783447265625">
        <ele>1493.4000244140625</ele>
        <time>2026-06-15T08:40:14.000Z</time>
        <extensions>
          <ns3:TrackPointExtension>
            <ns3:atemp>22.0</ns3:atemp>
          </ns3:TrackPointExtension>
        </extensions>
      </trkpt>
      <trkpt lat="42.58960445411503314971923828125" lon="20.1398966275155544281005859375">
        <ele>1493.5999755859375</ele>
        <time>2026-06-15T08:40:15.000Z</time>
        <extensions>
          <ns3:TrackPointExtension>
            <ns3:atemp>22.0</ns3:atemp>
          </ns3:TrackPointExtension>
        </extensions>
      </trkpt>
      <trkpt lat="42.589608393609523773193359375" lon="20.1398599147796630859375">
        <ele>1494</ele>
        <time>2026-06-15T08:40:16.000Z</time>
        <extensions>
          <ns3:TrackPointExtension>
            <ns3:atemp>22.0</ns3:atemp>
          </ns3:TrackPointExtension>
        </extensions>
      </trkpt>
      <trkpt lat="42.5896166078746318817138671875" lon="20.1398295722901821136474609375">
        <ele>1494.4000244140625</ele>
        <time>2026-06-15T08:40:17.000Z</time>
        <extensions>
          <ns3:TrackPointExtension>
            <ns3:atemp>22.0</ns3:atemp>
          </ns3:TrackPointExtension>
        </extensions>
      </trkpt>
      <trkpt lat="42.58962021209299564361572265625" lon="20.139807946979999542236328125">
        <ele>1494.800048828125</ele>
        <time>2026-06-15T08:40:18.000Z</time>
        <extensions>
          <ns3:TrackPointExtension>
            <ns3:atemp>22.0</ns3:atemp>
          </ns3:TrackPointExtension>
        </extensions>
      </trkpt>
      <trkpt lat="42.58963286876678466796875" lon="20.13978690840303897857666015625">
        <ele>1495.199951171875</ele>
        <time>2026-06-15T08:40:19.000Z</time>
        <extensions>
          <ns3:TrackPointExtension>
            <ns3:atemp>22.0</ns3:atemp>
          </ns3:TrackPointExtension>
        </extensions>
      </trkpt>
      <trkpt lat="42.58964871056377887725830078125" lon="20.1397651992738246917724609375">
        <ele>1495.5999755859375</ele>
        <time>2026-06-15T08:40:20.000Z</time>
        <extensions>
          <ns3:TrackPointExtension>
            <ns3:atemp>22.0</ns3:atemp>
          </ns3:TrackPointExtension>
        </extensions>
      </trkpt>
      <trkpt lat="42.5896608643233776092529296875" lon="20.13974047265946865081787109375">
        <ele>1496</ele>
        <time>2026-06-15T08:40:21.000Z</time>
        <extensions>
          <ns3:TrackPointExtension>
            <ns3:atemp>22.0</ns3:atemp>
          </ns3:TrackPointExtension>
        </extensions>
      </trkpt>
      <trkpt lat="42.5896712578833103179931640625" lon="20.1397085376083850860595703125">
        <ele>1496.199951171875</ele>
        <time>2026-06-15T08:40:22.000Z</time>
        <extensions>
          <ns3:TrackPointExtension>
            <ns3:atemp>22.0</ns3:atemp>
          </ns3:TrackPointExtension>
        </extensions>
      </trkpt>
      <trkpt lat="42.58968139998614788055419921875" lon="20.1396813802421092987060546875">
        <ele>1496.5999755859375</ele>
        <time>2026-06-15T08:40:23.000Z</time>
        <extensions>
          <ns3:TrackPointExtension>
            <ns3:atemp>22.0</ns3:atemp>
          </ns3:TrackPointExtension>
        </extensions>
      </trkpt>
      <trkpt lat="42.5896880216896533966064453125" lon="20.13965070247650146484375">
        <ele>1497</ele>
        <time>2026-06-15T08:40:24.000Z</time>
        <extensions>
          <ns3:TrackPointExtension>
            <ns3:atemp>22.0</ns3:atemp>
          </ns3:TrackPointExtension>
        </extensions>
      </trkpt>
      <trkpt lat="42.58969699032604694366455078125" lon="20.13961809687316417694091796875">
        <ele>1497</ele>
        <time>2026-06-15T08:40:25.000Z</time>
        <extensions>
          <ns3:TrackPointExtension>
            <ns3:atemp>22.0</ns3:atemp>
          </ns3:TrackPointExtension>
        </extensions>
      </trkpt>
      <trkpt lat="42.5897118262946605682373046875" lon="20.1395898498594760894775390625">
        <ele>1497.199951171875</ele>
        <time>2026-06-15T08:40:26.000Z</time>
        <extensions>
          <ns3:TrackPointExtension>
            <ns3:atemp>22.0</ns3:atemp>
          </ns3:TrackPointExtension>
        </extensions>
      </trkpt>
      <trkpt lat="42.58972766809165477752685546875" lon="20.13955992646515369415283203125">
        <ele>1497.4000244140625</ele>
        <time>2026-06-15T08:40:27.000Z</time>
        <extensions>
          <ns3:TrackPointExtension>
            <ns3:atemp>22.0</ns3:atemp>
          </ns3:TrackPointExtension>
        </extensions>
      </trkpt>
      <trkpt lat="42.5897456891834735870361328125" lon="20.13953226618468761444091796875">
        <ele>1497.5999755859375</ele>
        <time>2026-06-15T08:40:28.000Z</time>
        <extensions>
          <ns3:TrackPointExtension>
            <ns3:atemp>22.0</ns3:atemp>
          </ns3:TrackPointExtension>
        </extensions>
      </trkpt>
      <trkpt lat="42.5897607766091823577880859375" lon="20.1395073719322681427001953125">
        <ele>1498</ele>
        <time>2026-06-15T08:40:29.000Z</time>
        <extensions>
          <ns3:TrackPointExtension>
            <ns3:atemp>22.0</ns3:atemp>
          </ns3:TrackPointExtension>
        </extensions>
      </trkpt>
      <trkpt lat="42.589771337807178497314453125" lon="20.1394805498421192169189453125">
        <ele>1498.4000244140625</ele>
        <time>2026-06-15T08:40:30.000Z</time>
        <extensions>
          <ns3:TrackPointExtension>
            <ns3:atemp>22.0</ns3:atemp>
          </ns3:TrackPointExtension>
        </extensions>
      </trkpt>
      <trkpt lat="42.58978307247161865234375" lon="20.13945548795163631439208984375">
        <ele>1498.5999755859375</ele>
        <time>2026-06-15T08:40:31.000Z</time>
        <extensions>
          <ns3:TrackPointExtension>
            <ns3:atemp>22.0</ns3:atemp>
          </ns3:TrackPointExtension>
        </extensions>
      </trkpt>
      <trkpt lat="42.5897929631173610687255859375" lon="20.1394302584230899810791015625">
        <ele>1498.800048828125</ele>
        <time>2026-06-15T08:40:32.000Z</time>
        <extensions>
          <ns3:TrackPointExtension>
            <ns3:atemp>22.0</ns3:atemp>
          </ns3:TrackPointExtension>
        </extensions>
      </trkpt>
      <trkpt lat="42.5898050330579280853271484375" lon="20.1394098065793514251708984375">
        <ele>1499</ele>
        <time>2026-06-15T08:40:33.000Z</time>
        <extensions>
          <ns3:TrackPointExtension>
            <ns3:atemp>22.0</ns3:atemp>
          </ns3:TrackPointExtension>
        </extensions>
      </trkpt>
      <trkpt lat="42.58982053957879543304443359375" lon="20.1393913663923740386962890625">
        <ele>1499.4000244140625</ele>
        <time>2026-06-15T08:40:34.000Z</time>
        <extensions>
          <ns3:TrackPointExtension>
            <ns3:atemp>22.0</ns3:atemp>
          </ns3:TrackPointExtension>
        </extensions>
      </trkpt>
      <trkpt lat="42.5898392312228679656982421875" lon="20.13937049545347690582275390625">
        <ele>1499.5999755859375</ele>
        <time>2026-06-15T08:40:35.000Z</time>
        <extensions>
          <ns3:TrackPointExtension>
            <ns3:atemp>22.0</ns3:atemp>
          </ns3:TrackPointExtension>
        </extensions>
      </trkpt>
      <trkpt lat="42.5898603536188602447509765625" lon="20.13934702612459659576416015625">
        <ele>1499.800048828125</ele>
        <time>2026-06-15T08:40:36.000Z</time>
        <extensions>
          <ns3:TrackPointExtension>
            <ns3:atemp>22.0</ns3:atemp>
          </ns3:TrackPointExtension>
        </extensions>
      </trkpt>
      <trkpt lat="42.58988223038613796234130859375" lon="20.13932640664279460906982421875">
        <ele>1499.800048828125</ele>
        <time>2026-06-15T08:40:37.000Z</time>
        <extensions>
          <ns3:TrackPointExtension>
            <ns3:atemp>22.0</ns3:atemp>
          </ns3:TrackPointExtension>
        </extensions>
      </trkpt>
      <trkpt lat="42.5899079628288745880126953125" lon="20.13932120986282825469970703125">
        <ele>1500</ele>
        <time>2026-06-15T08:40:38.000Z</time>
        <extensions>
          <ns3:TrackPointExtension>
            <ns3:atemp>22.0</ns3:atemp>
          </ns3:TrackPointExtension>
        </extensions>
      </trkpt>
      <trkpt lat="42.5899324379861354827880859375" lon="20.13932674191892147064208984375">
        <ele>1500</ele>
        <time>2026-06-15T08:40:39.000Z</time>
        <extensions>
          <ns3:TrackPointExtension>
            <ns3:atemp>22.0</ns3:atemp>
          </ns3:TrackPointExtension>
        </extensions>
      </trkpt>
      <trkpt lat="42.58994945324957370758056640625" lon="20.13932975940406322479248046875">
        <ele>1500</ele>
        <time>2026-06-15T08:40:40.000Z</time>
        <extensions>
          <ns3:TrackPointExtension>
            <ns3:atemp>22.0</ns3:atemp>
          </ns3:TrackPointExtension>
        </extensions>
      </trkpt>
      <trkpt lat="42.58996479213237762451171875" lon="20.13933797366917133331298828125">
        <ele>1500.199951171875</ele>
        <time>2026-06-15T08:40:41.000Z</time>
        <extensions>
          <ns3:TrackPointExtension>
            <ns3:atemp>22.0</ns3:atemp>
          </ns3:TrackPointExtension>
        </extensions>
      </trkpt>
      <trkpt lat="42.589979879558086395263671875" lon="20.13933411799371242523193359375">
        <ele>1500.199951171875</ele>
        <time>2026-06-15T08:40:42.000Z</time>
        <extensions>
          <ns3:TrackPointExtension>
            <ns3:atemp>22.0</ns3:atemp>
          </ns3:TrackPointExtension>
        </extensions>
      </trkpt>
      <trkpt lat="42.5899954698979854583740234375" lon="20.1393236406147480010986328125">
        <ele>1500.199951171875</ele>
        <time>2026-06-15T08:40:43.000Z</time>
        <extensions>
          <ns3:TrackPointExtension>
            <ns3:atemp>22.0</ns3:atemp>
          </ns3:TrackPointExtension>
        </extensions>
      </trkpt>
      <trkpt lat="42.59001173079013824462890625" lon="20.13931131921708583831787109375">
        <ele>1500.4000244140625</ele>
        <time>2026-06-15T08:40:44.000Z</time>
        <extensions>
          <ns3:TrackPointExtension>
            <ns3:atemp>22.0</ns3:atemp>
          </ns3:TrackPointExtension>
        </extensions>
      </trkpt>
      <trkpt lat="42.590024806559085845947265625" lon="20.13930176384747028350830078125">
        <ele>1500.5999755859375</ele>
        <time>2026-06-15T08:40:45.000Z</time>
        <extensions>
          <ns3:TrackPointExtension>
            <ns3:atemp>22.0</ns3:atemp>
          </ns3:TrackPointExtension>
        </extensions>
      </trkpt>
      <trkpt lat="42.59004182182252407073974609375" lon="20.13929874636232852935791015625">
        <ele>1500.800048828125</ele>
        <time>2026-06-15T08:40:46.000Z</time>
        <extensions>
          <ns3:TrackPointExtension>
            <ns3:atemp>22.0</ns3:atemp>
          </ns3:TrackPointExtension>
        </extensions>
      </trkpt>
      <trkpt lat="42.59006160311400890350341796875" lon="20.1393001712858676910400390625">
        <ele>1500.800048828125</ele>
        <time>2026-06-15T08:40:47.000Z</time>
        <extensions>
          <ns3:TrackPointExtension>
            <ns3:atemp>22.0</ns3:atemp>
          </ns3:TrackPointExtension>
        </extensions>
      </trkpt>
      <trkpt lat="42.590085826814174652099609375" lon="20.1393038593232631683349609375">
        <ele>1500.800048828125</ele>
        <time>2026-06-15T08:40:48.000Z</time>
        <extensions>
          <ns3:TrackPointExtension>
            <ns3:atemp>22.0</ns3:atemp>
          </ns3:TrackPointExtension>
        </extensions>
      </trkpt>
      <trkpt lat="42.59011424146592617034912109375" lon="20.139298997819423675537109375">
        <ele>1501</ele>
        <time>2026-06-15T08:40:49.000Z</time>
        <extensions>
          <ns3:TrackPointExtension>
            <ns3:atemp>22.0</ns3:atemp>
          </ns3:TrackPointExtension>
        </extensions>
      </trkpt>
      <trkpt lat="42.59014290757477283477783203125" lon="20.1392904482781887054443359375">
        <ele>1501.199951171875</ele>
        <time>2026-06-15T08:40:50.000Z</time>
        <extensions>
          <ns3:TrackPointExtension>
            <ns3:atemp>22.0</ns3:atemp>
          </ns3:TrackPointExtension>
        </extensions>
      </trkpt>
      <trkpt lat="42.59017341770231723785400390625" lon="20.1392830722033977508544921875">
        <ele>1501.5999755859375</ele>
        <time>2026-06-15T08:40:51.000Z</time>
        <extensions>
          <ns3:TrackPointExtension>
            <ns3:atemp>22.0</ns3:atemp>
          </ns3:TrackPointExtension>
        </extensions>
      </trkpt>
      <trkpt lat="42.590201832354068756103515625" lon="20.139279551804065704345703125">
        <ele>1502.199951171875</ele>
        <time>2026-06-15T08:40:52.000Z</time>
        <extensions>
          <ns3:TrackPointExtension>
            <ns3:atemp>22.0</ns3:atemp>
          </ns3:TrackPointExtension>
        </extensions>
      </trkpt>
      <trkpt lat="42.5902211107313632965087890625" lon="20.1392840780317783355712890625">
        <ele>1502.5999755859375</ele>
        <time>2026-06-15T08:40:53.000Z</time>
        <extensions>
          <ns3:TrackPointExtension>
            <ns3:atemp>22.0</ns3:atemp>
          </ns3:TrackPointExtension>
        </extensions>
      </trkpt>
      <trkpt lat="42.5902355276048183441162109375" lon="20.1392770372331142425537109375">
        <ele>1503</ele>
        <time>2026-06-15T08:40:54.000Z</time>
        <extensions>
          <ns3:TrackPointExtension>
            <ns3:atemp>22.0</ns3:atemp>
          </ns3:TrackPointExtension>
        </extensions>
      </trkpt>
      <trkpt lat="42.59025053121149539947509765625" lon="20.13927477411925792694091796875">
        <ele>1503.5999755859375</ele>
        <time>2026-06-15T08:40:55.000Z</time>
        <extensions>
          <ns3:TrackPointExtension>
            <ns3:atemp>22.0</ns3:atemp>
          </ns3:TrackPointExtension>
        </extensions>
      </trkpt>
      <trkpt lat="42.590264864265918731689453125" lon="20.13927008025348186492919921875">
        <ele>1503.800048828125</ele>
        <time>2026-06-15T08:40:56.000Z</time>
        <extensions>
          <ns3:TrackPointExtension>
            <ns3:atemp>22.0</ns3:atemp>
          </ns3:TrackPointExtension>
        </extensions>
      </trkpt>
      <trkpt lat="42.59027592837810516357421875" lon="20.139256417751312255859375">
        <ele>1504.199951171875</ele>
        <time>2026-06-15T08:40:57.000Z</time>
        <extensions>
          <ns3:TrackPointExtension>
            <ns3:atemp>22.0</ns3:atemp>
          </ns3:TrackPointExtension>
        </extensions>
      </trkpt>
      <trkpt lat="42.59027995169162750244140625" lon="20.13925440609455108642578125">
        <ele>1504.4000244140625</ele>
        <time>2026-06-15T08:40:58.000Z</time>
        <extensions>
          <ns3:TrackPointExtension>
            <ns3:atemp>22.0</ns3:atemp>
          </ns3:TrackPointExtension>
        </extensions>
      </trkpt>
      <trkpt lat="42.59027995169162750244140625" lon="20.13925440609455108642578125">
        <ele>1504.5999755859375</ele>
        <time>2026-06-15T08:40:59.000Z</time>
        <extensions>
          <ns3:TrackPointExtension>
            <ns3:atemp>22.0</ns3:atemp>
          </ns3:TrackPointExtension>
        </extensions>
      </trkpt>
      <trkpt lat="42.59027970023453235626220703125" lon="20.13925440609455108642578125">
        <ele>1504.800048828125</ele>
        <time>2026-06-15T08:41:00.000Z</time>
        <extensions>
          <ns3:TrackPointExtension>
            <ns3:atemp>22.0</ns3:atemp>
          </ns3:TrackPointExtension>
        </extensions>
      </trkpt>
      <trkpt lat="42.59028129279613494873046875" lon="20.13924811966717243194580078125">
        <ele>1505</ele>
        <time>2026-06-15T08:41:01.000Z</time>
        <extensions>
          <ns3:TrackPointExtension>
            <ns3:atemp>22.0</ns3:atemp>
          </ns3:TrackPointExtension>
        </extensions>
      </trkpt>
      <trkpt lat="42.59028975851833820343017578125" lon="20.13923604972660541534423828125">
        <ele>1505</ele>
        <time>2026-06-15T08:41:02.000Z</time>
        <extensions>
          <ns3:TrackPointExtension>
            <ns3:atemp>22.0</ns3:atemp>
          </ns3:TrackPointExtension>
        </extensions>
      </trkpt>
      <trkpt lat="42.59030233137309551239013671875" lon="20.13922490179538726806640625">
        <ele>1505.199951171875</ele>
        <time>2026-06-15T08:41:03.000Z</time>
        <extensions>
          <ns3:TrackPointExtension>
            <ns3:atemp>22.0</ns3:atemp>
          </ns3:TrackPointExtension>
        </extensions>
      </trkpt>
      <trkpt lat="42.590317837893962860107421875" lon="20.13921677134931087493896484375">
        <ele>1505.199951171875</ele>
        <time>2026-06-15T08:41:04.000Z</time>
        <extensions>
          <ns3:TrackPointExtension>
            <ns3:atemp>22.0</ns3:atemp>
          </ns3:TrackPointExtension>
        </extensions>
      </trkpt>
      <trkpt lat="42.59033367969095706939697265625" lon="20.1392096467316150665283203125">
        <ele>1505.199951171875</ele>
        <time>2026-06-15T08:41:05.000Z</time>
        <extensions>
          <ns3:TrackPointExtension>
            <ns3:atemp>22.0</ns3:atemp>
          </ns3:TrackPointExtension>
        </extensions>
      </trkpt>
      <trkpt lat="42.59035010822117328643798828125" lon="20.1392014324665069580078125">
        <ele>1505.4000244140625</ele>
        <time>2026-06-15T08:41:06.000Z</time>
        <extensions>
          <ns3:TrackPointExtension>
            <ns3:atemp>22.0</ns3:atemp>
          </ns3:TrackPointExtension>
        </extensions>
      </trkpt>
      <trkpt lat="42.5903693027794361114501953125" lon="20.13918978162109851837158203125">
        <ele>1505.4000244140625</ele>
        <time>2026-06-15T08:41:07.000Z</time>
        <extensions>
          <ns3:TrackPointExtension>
            <ns3:atemp>22.0</ns3:atemp>
          </ns3:TrackPointExtension>
        </extensions>
      </trkpt>
      <trkpt lat="42.59038724005222320556640625" lon="20.13917301781475543975830078125">
        <ele>1505.5999755859375</ele>
        <time>2026-06-15T08:41:08.000Z</time>
        <extensions>
          <ns3:TrackPointExtension>
            <ns3:atemp>22.0</ns3:atemp>
          </ns3:TrackPointExtension>
        </extensions>
      </trkpt>
      <trkpt lat="42.5904065184295177459716796875" lon="20.13915172778069972991943359375">
        <ele>1505.800048828125</ele>
        <time>2026-06-15T08:41:09.000Z</time>
        <extensions>
          <ns3:TrackPointExtension>
            <ns3:atemp>22.0</ns3:atemp>
          </ns3:TrackPointExtension>
        </extensions>
      </trkpt>
      <trkpt lat="42.59042747318744659423828125" lon="20.139129348099231719970703125">
        <ele>1506.199951171875</ele>
        <time>2026-06-15T08:41:10.000Z</time>
        <extensions>
          <ns3:TrackPointExtension>
            <ns3:atemp>22.0</ns3:atemp>
          </ns3:TrackPointExtension>
        </extensions>
      </trkpt>
      <trkpt lat="42.59045085869729518890380859375" lon="20.13910244219005107879638671875">
        <ele>1506.4000244140625</ele>
        <time>2026-06-15T08:41:11.000Z</time>
        <extensions>
          <ns3:TrackPointExtension>
            <ns3:atemp>22.0</ns3:atemp>
          </ns3:TrackPointExtension>
        </extensions>
      </trkpt>
      <trkpt lat="42.59047038853168487548828125" lon="20.1390738599002361297607421875">
        <ele>1506.5999755859375</ele>
        <time>2026-06-15T08:41:12.000Z</time>
        <extensions>
          <ns3:TrackPointExtension>
            <ns3:atemp>22.0</ns3:atemp>
          </ns3:TrackPointExtension>
        </extensions>
      </trkpt>
      <trkpt lat="42.590491510927677154541015625" lon="20.13904712162911891937255859375">
        <ele>1507</ele>
        <time>2026-06-15T08:41:13.000Z</time>
        <extensions>
          <ns3:TrackPointExtension>
            <ns3:atemp>22.0</ns3:atemp>
          </ns3:TrackPointExtension>
        </extensions>
      </trkpt>
      <trkpt lat="42.59051405824720859527587890625" lon="20.13902214355766773223876953125">
        <ele>1507.199951171875</ele>
        <time>2026-06-15T08:41:14.000Z</time>
        <extensions>
          <ns3:TrackPointExtension>
            <ns3:atemp>22.0</ns3:atemp>
          </ns3:TrackPointExtension>
        </extensions>
      </trkpt>
      <trkpt lat="42.590536437928676605224609375" lon="20.138994567096233367919921875">
        <ele>1507.5999755859375</ele>
        <time>2026-06-15T08:41:15.000Z</time>
        <extensions>
          <ns3:TrackPointExtension>
            <ns3:atemp>22.0</ns3:atemp>
          </ns3:TrackPointExtension>
        </extensions>
      </trkpt>
      <trkpt lat="42.590558230876922607421875" lon="20.13896598480641841888427734375">
        <ele>1507.800048828125</ele>
        <time>2026-06-15T08:41:16.000Z</time>
        <extensions>
          <ns3:TrackPointExtension>
            <ns3:atemp>22.0</ns3:atemp>
          </ns3:TrackPointExtension>
        </extensions>
      </trkpt>
      <trkpt lat="42.590578012168407440185546875" lon="20.13893329538404941558837890625">
        <ele>1508</ele>
        <time>2026-06-15T08:41:17.000Z</time>
        <extensions>
          <ns3:TrackPointExtension>
            <ns3:atemp>22.0</ns3:atemp>
          </ns3:TrackPointExtension>
        </extensions>
      </trkpt>
      <trkpt lat="42.59059620089828968048095703125" lon="20.13890328817069530487060546875">
        <ele>1508.4000244140625</ele>
        <time>2026-06-15T08:41:18.000Z</time>
        <extensions>
          <ns3:TrackPointExtension>
            <ns3:atemp>22.0</ns3:atemp>
          </ns3:TrackPointExtension>
        </extensions>
      </trkpt>
      <trkpt lat="42.59061254560947418212890625" lon="20.138875544071197509765625">
        <ele>1508.5999755859375</ele>
        <time>2026-06-15T08:41:19.000Z</time>
        <extensions>
          <ns3:TrackPointExtension>
            <ns3:atemp>22.0</ns3:atemp>
          </ns3:TrackPointExtension>
        </extensions>
      </trkpt>
      <trkpt lat="42.59062587283551692962646484375" lon="20.138847716152667999267578125">
        <ele>1509</ele>
        <time>2026-06-15T08:41:20.000Z</time>
        <extensions>
          <ns3:TrackPointExtension>
            <ns3:atemp>22.0</ns3:atemp>
          </ns3:TrackPointExtension>
        </extensions>
      </trkpt>
      <trkpt lat="42.5906375236809253692626953125" lon="20.13881712220609188079833984375">
        <ele>1509.199951171875</ele>
        <time>2026-06-15T08:41:21.000Z</time>
        <extensions>
          <ns3:TrackPointExtension>
            <ns3:atemp>22.0</ns3:atemp>
          </ns3:TrackPointExtension>
        </extensions>
      </trkpt>
      <trkpt lat="42.59064934216439723968505859375" lon="20.13878057710826396942138671875">
        <ele>1509.5999755859375</ele>
        <time>2026-06-15T08:41:22.000Z</time>
        <extensions>
          <ns3:TrackPointExtension>
            <ns3:atemp>22.0</ns3:atemp>
          </ns3:TrackPointExtension>
        </extensions>
      </trkpt>
      <trkpt lat="42.5906532816588878631591796875" lon="20.1387439481914043426513671875">
        <ele>1509.800048828125</ele>
        <time>2026-06-15T08:41:23.000Z</time>
        <extensions>
          <ns3:TrackPointExtension>
            <ns3:atemp>22.0</ns3:atemp>
          </ns3:TrackPointExtension>
        </extensions>
      </trkpt>
      <trkpt lat="42.59066007100045680999755859375" lon="20.138707570731639862060546875">
        <ele>1510</ele>
        <time>2026-06-15T08:41:24.000Z</time>
        <extensions>
          <ns3:TrackPointExtension>
            <ns3:atemp>22.0</ns3:atemp>
          </ns3:TrackPointExtension>
        </extensions>
      </trkpt>
      <trkpt lat="42.59066862054169178009033203125" lon="20.13867395929992198944091796875">
        <ele>1510.4000244140625</ele>
        <time>2026-06-15T08:41:25.000Z</time>
        <extensions>
          <ns3:TrackPointExtension>
            <ns3:atemp>22.0</ns3:atemp>
          </ns3:TrackPointExtension>
        </extensions>
      </trkpt>
      <trkpt lat="42.59067314676940441131591796875" lon="20.13863774947822093963623046875">
        <ele>1510.5999755859375</ele>
        <time>2026-06-15T08:41:26.000Z</time>
        <extensions>
          <ns3:TrackPointExtension>
            <ns3:atemp>22.0</ns3:atemp>
          </ns3:TrackPointExtension>
        </extensions>
      </trkpt>
      <trkpt lat="42.59067691862583160400390625" lon="20.1386021263897418975830078125">
        <ele>1510.5999755859375</ele>
        <time>2026-06-15T08:41:27.000Z</time>
        <extensions>
          <ns3:TrackPointExtension>
            <ns3:atemp>22.0</ns3:atemp>
          </ns3:TrackPointExtension>
        </extensions>
      </trkpt>
      <trkpt lat="42.5906827859580516815185546875" lon="20.1385649107396602630615234375">
        <ele>1510.800048828125</ele>
        <time>2026-06-15T08:41:28.000Z</time>
        <extensions>
          <ns3:TrackPointExtension>
            <ns3:atemp>22.0</ns3:atemp>
          </ns3:TrackPointExtension>
        </extensions>
      </trkpt>
      <trkpt lat="42.590685300529003143310546875" lon="20.138528533279895782470703125">
        <ele>1511</ele>
        <time>2026-06-15T08:41:29.000Z</time>
        <extensions>
          <ns3:TrackPointExtension>
            <ns3:atemp>22.0</ns3:atemp>
          </ns3:TrackPointExtension>
        </extensions>
      </trkpt>
      <trkpt lat="42.59068001993000507354736328125" lon="20.1384911499917507171630859375">
        <ele>1511.199951171875</ele>
        <time>2026-06-15T08:41:30.000Z</time>
        <extensions>
          <ns3:TrackPointExtension>
            <ns3:atemp>22.0</ns3:atemp>
          </ns3:TrackPointExtension>
        </extensions>
      </trkpt>
      <trkpt lat="42.590676583349704742431640625" lon="20.13845083303749561309814453125">
        <ele>1511.5999755859375</ele>
        <time>2026-06-15T08:41:31.000Z</time>
        <extensions>
          <ns3:TrackPointExtension>
            <ns3:atemp>22.0</ns3:atemp>
          </ns3:TrackPointExtension>
        </extensions>
      </trkpt>
      <trkpt lat="42.5906697101891040802001953125" lon="20.13840942643582820892333984375">
        <ele>1511.800048828125</ele>
        <time>2026-06-15T08:41:32.000Z</time>
        <extensions>
          <ns3:TrackPointExtension>
            <ns3:atemp>22.0</ns3:atemp>
          </ns3:TrackPointExtension>
        </extensions>
      </trkpt>
      <trkpt lat="42.59065990336239337921142578125" lon="20.138366259634494781494140625">
        <ele>1512</ele>
        <time>2026-06-15T08:41:33.000Z</time>
        <extensions>
          <ns3:TrackPointExtension>
            <ns3:atemp>22.0</ns3:atemp>
          </ns3:TrackPointExtension>
        </extensions>
      </trkpt>
      <trkpt lat="42.5906499288976192474365234375" lon="20.1383318938314914703369140625">
        <ele>1512.199951171875</ele>
        <time>2026-06-15T08:41:34.000Z</time>
        <extensions>
          <ns3:TrackPointExtension>
            <ns3:atemp>22.0</ns3:atemp>
          </ns3:TrackPointExtension>
        </extensions>
      </trkpt>
      <trkpt lat="42.5906400382518768310546875" lon="20.13829794712364673614501953125">
        <ele>1512.5999755859375</ele>
        <time>2026-06-15T08:41:35.000Z</time>
        <extensions>
          <ns3:TrackPointExtension>
            <ns3:atemp>22.0</ns3:atemp>
          </ns3:TrackPointExtension>
        </extensions>
      </trkpt>
      <trkpt lat="42.5906284712255001068115234375" lon="20.13826123438775539398193359375">
        <ele>1512.800048828125</ele>
        <time>2026-06-15T08:41:36.000Z</time>
        <extensions>
          <ns3:TrackPointExtension>
            <ns3:atemp>22.0</ns3:atemp>
          </ns3:TrackPointExtension>
        </extensions>
      </trkpt>
      <trkpt lat="42.59061363525688648223876953125" lon="20.13822712004184722900390625">
        <ele>1513</ele>
        <time>2026-06-15T08:41:37.000Z</time>
        <extensions>
          <ns3:TrackPointExtension>
            <ns3:atemp>22.0</ns3:atemp>
          </ns3:TrackPointExtension>
        </extensions>
      </trkpt>
      <trkpt lat="42.59059703908860683441162109375" lon="20.13819367624819278717041015625">
        <ele>1513</ele>
        <time>2026-06-15T08:41:38.000Z</time>
        <extensions>
          <ns3:TrackPointExtension>
            <ns3:atemp>22.0</ns3:atemp>
          </ns3:TrackPointExtension>
        </extensions>
      </trkpt>
      <trkpt lat="42.5905832089483737945556640625" lon="20.1381572149693965911865234375">
        <ele>1513.4000244140625</ele>
        <time>2026-06-15T08:41:39.000Z</time>
        <extensions>
          <ns3:TrackPointExtension>
            <ns3:atemp>22.0</ns3:atemp>
          </ns3:TrackPointExtension>
        </extensions>
      </trkpt>
      <trkpt lat="42.59056569077074527740478515625" lon="20.1381210051476955413818359375">
        <ele>1513.5999755859375</ele>
        <time>2026-06-15T08:41:40.000Z</time>
        <extensions>
          <ns3:TrackPointExtension>
            <ns3:atemp>22.0</ns3:atemp>
          </ns3:TrackPointExtension>
        </extensions>
      </trkpt>
      <trkpt lat="42.59055010043084621429443359375" lon="20.1380834542214870452880859375">
        <ele>1513.800048828125</ele>
        <time>2026-06-15T08:41:41.000Z</time>
        <extensions>
          <ns3:TrackPointExtension>
            <ns3:atemp>22.0</ns3:atemp>
          </ns3:TrackPointExtension>
        </extensions>
      </trkpt>
      <trkpt lat="42.59053342044353485107421875" lon="20.13804481364786624908447265625">
        <ele>1514.199951171875</ele>
        <time>2026-06-15T08:41:42.000Z</time>
        <extensions>
          <ns3:TrackPointExtension>
            <ns3:atemp>22.0</ns3:atemp>
          </ns3:TrackPointExtension>
        </extensions>
      </trkpt>
      <trkpt lat="42.59052160196006298065185546875" lon="20.1380073465406894683837890625">
        <ele>1514.4000244140625</ele>
        <time>2026-06-15T08:41:43.000Z</time>
        <extensions>
          <ns3:TrackPointExtension>
            <ns3:atemp>22.0</ns3:atemp>
          </ns3:TrackPointExtension>
        </extensions>
      </trkpt>
      <trkpt lat="42.5905117951333522796630859375" lon="20.13797256164252758026123046875">
        <ele>1514.5999755859375</ele>
        <time>2026-06-15T08:41:44.000Z</time>
        <extensions>
          <ns3:TrackPointExtension>
            <ns3:atemp>22.0</ns3:atemp>
          </ns3:TrackPointExtension>
        </extensions>
      </trkpt>
      <trkpt lat="42.5905091129243373870849609375" lon="20.1379362680017948150634765625">
        <ele>1514.800048828125</ele>
        <time>2026-06-15T08:41:45.000Z</time>
        <extensions>
          <ns3:TrackPointExtension>
            <ns3:atemp>22.0</ns3:atemp>
          </ns3:TrackPointExtension>
        </extensions>
      </trkpt>
      <trkpt lat="42.59050391614437103271484375" lon="20.1378960348665714263916015625">
        <ele>1515</ele>
        <time>2026-06-15T08:41:46.000Z</time>
        <extensions>
          <ns3:TrackPointExtension>
            <ns3:atemp>22.0</ns3:atemp>
          </ns3:TrackPointExtension>
        </extensions>
      </trkpt>
      <trkpt lat="42.59050399996340274810791015625" lon="20.13785404153168201446533203125">
        <ele>1515.4000244140625</ele>
        <time>2026-06-15T08:41:47.000Z</time>
        <extensions>
          <ns3:TrackPointExtension>
            <ns3:atemp>22.0</ns3:atemp>
          </ns3:TrackPointExtension>
        </extensions>
      </trkpt>
      <trkpt lat="42.5905087776482105255126953125" lon="20.13781313784420490264892578125">
        <ele>1515.5999755859375</ele>
        <time>2026-06-15T08:41:48.000Z</time>
        <extensions>
          <ns3:TrackPointExtension>
            <ns3:atemp>22.0</ns3:atemp>
          </ns3:TrackPointExtension>
        </extensions>
      </trkpt>
      <trkpt lat="42.5905168242752552032470703125" lon="20.13777407817542552947998046875">
        <ele>1515.800048828125</ele>
        <time>2026-06-15T08:41:49.000Z</time>
        <extensions>
          <ns3:TrackPointExtension>
            <ns3:atemp>22.0</ns3:atemp>
          </ns3:TrackPointExtension>
        </extensions>
      </trkpt>
      <trkpt lat="42.59052512235939502716064453125" lon="20.1377387903630733489990234375">
        <ele>1516</ele>
        <time>2026-06-15T08:41:50.000Z</time>
        <extensions>
          <ns3:TrackPointExtension>
            <ns3:atemp>22.0</ns3:atemp>
          </ns3:TrackPointExtension>
        </extensions>
      </trkpt>
      <trkpt lat="42.59052897803485393524169921875" lon="20.1377005688846111297607421875">
        <ele>1516.4000244140625</ele>
        <time>2026-06-15T08:41:51.000Z</time>
        <extensions>
          <ns3:TrackPointExtension>
            <ns3:atemp>22.0</ns3:atemp>
          </ns3:TrackPointExtension>
        </extensions>
      </trkpt>
      <trkpt lat="42.5905278883874416351318359375" lon="20.13766075484454631805419921875">
        <ele>1516.5999755859375</ele>
        <time>2026-06-15T08:41:52.000Z</time>
        <extensions>
          <ns3:TrackPointExtension>
            <ns3:atemp>22.0</ns3:atemp>
          </ns3:TrackPointExtension>
        </extensions>
      </trkpt>
      <trkpt lat="42.59052981622517108917236328125" lon="20.1376160793006420135498046875">
        <ele>1517</ele>
        <time>2026-06-15T08:41:53.000Z</time>
        <extensions>
          <ns3:TrackPointExtension>
            <ns3:atemp>22.0</ns3:atemp>
          </ns3:TrackPointExtension>
        </extensions>
      </trkpt>
      <trkpt lat="42.59053166024386882781982421875" lon="20.1375748403370380401611328125">
        <ele>1517.4000244140625</ele>
        <time>2026-06-15T08:41:54.000Z</time>
        <extensions>
          <ns3:TrackPointExtension>
            <ns3:atemp>22.0</ns3:atemp>
          </ns3:TrackPointExtension>
        </extensions>
      </trkpt>
      <trkpt lat="42.590533755719661712646484375" lon="20.13753334991633892059326171875">
        <ele>1517.5999755859375</ele>
        <time>2026-06-15T08:41:55.000Z</time>
        <extensions>
          <ns3:TrackPointExtension>
            <ns3:atemp>22.0</ns3:atemp>
          </ns3:TrackPointExtension>
        </extensions>
      </trkpt>
      <trkpt lat="42.59053434245288372039794921875" lon="20.1374928653240203857421875">
        <ele>1517.800048828125</ele>
        <time>2026-06-15T08:41:56.000Z</time>
        <extensions>
          <ns3:TrackPointExtension>
            <ns3:atemp>22.0</ns3:atemp>
          </ns3:TrackPointExtension>
        </extensions>
      </trkpt>
      <trkpt lat="42.59053333662450313568115234375" lon="20.13745187781751155853271484375">
        <ele>1518.199951171875</ele>
        <time>2026-06-15T08:41:57.000Z</time>
        <extensions>
          <ns3:TrackPointExtension>
            <ns3:atemp>22.0</ns3:atemp>
          </ns3:TrackPointExtension>
        </extensions>
      </trkpt>
      <trkpt lat="42.5905305705964565277099609375" lon="20.13741080649197101593017578125">
        <ele>1518.5999755859375</ele>
        <time>2026-06-15T08:41:58.000Z</time>
        <extensions>
          <ns3:TrackPointExtension>
            <ns3:atemp>22.0</ns3:atemp>
          </ns3:TrackPointExtension>
        </extensions>
      </trkpt>
      <trkpt lat="42.590523697435855865478515625" lon="20.13737007044255733489990234375">
        <ele>1518.800048828125</ele>
        <time>2026-06-15T08:41:59.000Z</time>
        <extensions>
          <ns3:TrackPointExtension>
            <ns3:atemp>22.0</ns3:atemp>
          </ns3:TrackPointExtension>
        </extensions>
      </trkpt>
      <trkpt lat="42.5905174948275089263916015625" lon="20.137330926954746246337890625">
        <ele>1519.199951171875</ele>
        <time>2026-06-15T08:42:00.000Z</time>
        <extensions>
          <ns3:TrackPointExtension>
            <ns3:atemp>22.0</ns3:atemp>
          </ns3:TrackPointExtension>
        </extensions>
      </trkpt>
      <trkpt lat="42.590512968599796295166015625" lon="20.13728843070566654205322265625">
        <ele>1519.4000244140625</ele>
        <time>2026-06-15T08:42:01.000Z</time>
        <extensions>
          <ns3:TrackPointExtension>
            <ns3:atemp>22.0</ns3:atemp>
          </ns3:TrackPointExtension>
        </extensions>
      </trkpt>
      <trkpt lat="42.59050634689629077911376953125" lon="20.13724786229431629180908203125">
        <ele>1519.5999755859375</ele>
        <time>2026-06-15T08:42:02.000Z</time>
        <extensions>
          <ns3:TrackPointExtension>
            <ns3:atemp>22.0</ns3:atemp>
          </ns3:TrackPointExtension>
        </extensions>
      </trkpt>
      <trkpt lat="42.59049930609762668609619140625" lon="20.13721056282520294189453125">
        <ele>1519.800048828125</ele>
        <time>2026-06-15T08:42:03.000Z</time>
        <extensions>
          <ns3:TrackPointExtension>
            <ns3:atemp>22.0</ns3:atemp>
          </ns3:TrackPointExtension>
        </extensions>
      </trkpt>
      <trkpt lat="42.59049226529896259307861328125" lon="20.13716898858547210693359375">
        <ele>1520.199951171875</ele>
        <time>2026-06-15T08:42:04.000Z</time>
        <extensions>
          <ns3:TrackPointExtension>
            <ns3:atemp>22.0</ns3:atemp>
          </ns3:TrackPointExtension>
        </extensions>
      </trkpt>
      <trkpt lat="42.590484805405139923095703125" lon="20.1371254026889801025390625">
        <ele>1520.4000244140625</ele>
        <time>2026-06-15T08:42:05.000Z</time>
        <extensions>
          <ns3:TrackPointExtension>
            <ns3:atemp>22.0</ns3:atemp>
          </ns3:TrackPointExtension>
        </extensions>
      </trkpt>
      <trkpt lat="42.59047432802617549896240234375" lon="20.13708760030567646026611328125">
        <ele>1520.5999755859375</ele>
        <time>2026-06-15T08:42:06.000Z</time>
        <extensions>
          <ns3:TrackPointExtension>
            <ns3:atemp>22.0</ns3:atemp>
          </ns3:TrackPointExtension>
        </extensions>
      </trkpt>
      <trkpt lat="42.590465359389781951904296875" lon="20.1370476186275482177734375">
        <ele>1521</ele>
        <time>2026-06-15T08:42:07.000Z</time>
        <extensions>
          <ns3:TrackPointExtension>
            <ns3:atemp>22.0</ns3:atemp>
          </ns3:TrackPointExtension>
        </extensions>
      </trkpt>
      <trkpt lat="42.5904541276395320892333984375" lon="20.1370047032833099365234375">
        <ele>1521.199951171875</ele>
        <time>2026-06-15T08:42:08.000Z</time>
        <extensions>
          <ns3:TrackPointExtension>
            <ns3:atemp>22.0</ns3:atemp>
          </ns3:TrackPointExtension>
        </extensions>
      </trkpt>
      <trkpt lat="42.5904427282512187957763671875" lon="20.1369659788906574249267578125">
        <ele>1521.4000244140625</ele>
        <time>2026-06-15T08:42:09.000Z</time>
        <extensions>
          <ns3:TrackPointExtension>
            <ns3:atemp>22.0</ns3:atemp>
          </ns3:TrackPointExtension>
        </extensions>
      </trkpt>
      <trkpt lat="42.59042671881616115570068359375" lon="20.13692800886929035186767578125">
        <ele>1521.800048828125</ele>
        <time>2026-06-15T08:42:10.000Z</time>
        <extensions>
          <ns3:TrackPointExtension>
            <ns3:atemp>22.0</ns3:atemp>
          </ns3:TrackPointExtension>
        </extensions>
      </trkpt>
      <trkpt lat="42.59041079320013523101806640625" lon="20.1368935592472553253173828125">
        <ele>1522</ele>
        <time>2026-06-15T08:42:11.000Z</time>
        <extensions>
          <ns3:TrackPointExtension>
            <ns3:atemp>22.0</ns3:atemp>
          </ns3:TrackPointExtension>
        </extensions>
      </trkpt>
      <trkpt lat="42.5903941132128238677978515625" lon="20.136863552033901214599609375">
        <ele>1522.199951171875</ele>
        <time>2026-06-15T08:42:12.000Z</time>
        <extensions>
          <ns3:TrackPointExtension>
            <ns3:atemp>22.0</ns3:atemp>
          </ns3:TrackPointExtension>
        </extensions>
      </trkpt>
      <trkpt lat="42.59037517011165618896484375" lon="20.1368285156786441802978515625">
        <ele>1522.4000244140625</ele>
        <time>2026-06-15T08:42:13.000Z</time>
        <extensions>
          <ns3:TrackPointExtension>
            <ns3:atemp>22.0</ns3:atemp>
          </ns3:TrackPointExtension>
        </extensions>
      </trkpt>
      <trkpt lat="42.590354047715663909912109375" lon="20.1367963291704654693603515625">
        <ele>1522.800048828125</ele>
        <time>2026-06-15T08:42:14.000Z</time>
        <extensions>
          <ns3:TrackPointExtension>
            <ns3:atemp>22.0</ns3:atemp>
          </ns3:TrackPointExtension>
        </extensions>
      </trkpt>
      <trkpt lat="42.590331248939037322998046875" lon="20.1367715187370777130126953125">
        <ele>1523</ele>
        <time>2026-06-15T08:42:15.000Z</time>
        <extensions>
          <ns3:TrackPointExtension>
            <ns3:atemp>22.0</ns3:atemp>
          </ns3:TrackPointExtension>
        </extensions>
      </trkpt>
      <trkpt lat="42.59030970744788646697998046875" lon="20.1367418467998504638671875">
        <ele>1523.4000244140625</ele>
        <time>2026-06-15T08:42:16.000Z</time>
        <extensions>
          <ns3:TrackPointExtension>
            <ns3:atemp>22.0</ns3:atemp>
          </ns3:TrackPointExtension>
        </extensions>
      </trkpt>
      <trkpt lat="42.59028531610965728759765625" lon="20.13671074993908405303955078125">
        <ele>1523.5999755859375</ele>
        <time>2026-06-15T08:42:17.000Z</time>
        <extensions>
          <ns3:TrackPointExtension>
            <ns3:atemp>22.0</ns3:atemp>
          </ns3:TrackPointExtension>
        </extensions>
      </trkpt>
      <trkpt lat="42.59026310406625270843505859375" lon="20.1366779766976833343505859375">
        <ele>1523.800048828125</ele>
        <time>2026-06-15T08:42:18.000Z</time>
        <extensions>
          <ns3:TrackPointExtension>
            <ns3:atemp>22.0</ns3:atemp>
          </ns3:TrackPointExtension>
        </extensions>
      </trkpt>
      <trkpt lat="42.590238042175769805908203125" lon="20.1366464607417583465576171875">
        <ele>1523.800048828125</ele>
        <time>2026-06-15T08:42:19.000Z</time>
        <extensions>
          <ns3:TrackPointExtension>
            <ns3:atemp>22.0</ns3:atemp>
          </ns3:TrackPointExtension>
        </extensions>
      </trkpt>
      <trkpt lat="42.590214572846889495849609375" lon="20.136618800461292266845703125">
        <ele>1524</ele>
        <time>2026-06-15T08:42:20.000Z</time>
        <extensions>
          <ns3:TrackPointExtension>
            <ns3:atemp>22.0</ns3:atemp>
          </ns3:TrackPointExtension>
        </extensions>
      </trkpt>
      <trkpt lat="42.59019076824188232421875" lon="20.136596001684665679931640625">
        <ele>1524.199951171875</ele>
        <time>2026-06-15T08:42:21.000Z</time>
        <extensions>
          <ns3:TrackPointExtension>
            <ns3:atemp>22.0</ns3:atemp>
          </ns3:TrackPointExtension>
        </extensions>
      </trkpt>
      <trkpt lat="42.5901639461517333984375" lon="20.13657378964126110076904296875">
        <ele>1524.4000244140625</ele>
        <time>2026-06-15T08:42:22.000Z</time>
        <extensions>
          <ns3:TrackPointExtension>
            <ns3:atemp>22.0</ns3:atemp>
          </ns3:TrackPointExtension>
        </extensions>
      </trkpt>
      <trkpt lat="42.5901406444609165191650390625" lon="20.13654964976012706756591796875">
        <ele>1524.5999755859375</ele>
        <time>2026-06-15T08:42:23.000Z</time>
        <extensions>
          <ns3:TrackPointExtension>
            <ns3:atemp>22.0</ns3:atemp>
          </ns3:TrackPointExtension>
        </extensions>
      </trkpt>
      <trkpt lat="42.59011524729430675506591796875" lon="20.1365230791270732879638671875">
        <ele>1524.800048828125</ele>
        <time>2026-06-15T08:42:24.000Z</time>
        <extensions>
          <ns3:TrackPointExtension>
            <ns3:atemp>22.0</ns3:atemp>
          </ns3:TrackPointExtension>
        </extensions>
      </trkpt>
      <trkpt lat="42.59009110741317272186279296875" lon="20.13649466447532176971435546875">
        <ele>1525</ele>
        <time>2026-06-15T08:42:25.000Z</time>
        <extensions>
          <ns3:TrackPointExtension>
            <ns3:atemp>22.0</ns3:atemp>
          </ns3:TrackPointExtension>
        </extensions>
      </trkpt>
      <trkpt lat="42.59006914682686328887939453125" lon="20.136458538472652435302734375">
        <ele>1525.199951171875</ele>
        <time>2026-06-15T08:42:26.000Z</time>
        <extensions>
          <ns3:TrackPointExtension>
            <ns3:atemp>22.0</ns3:atemp>
          </ns3:TrackPointExtension>
        </extensions>
      </trkpt>
      <trkpt lat="42.59004601277410984039306640625" lon="20.13642341829836368560791015625">
        <ele>1525.5999755859375</ele>
        <time>2026-06-15T08:42:27.000Z</time>
        <extensions>
          <ns3:TrackPointExtension>
            <ns3:atemp>22.0</ns3:atemp>
          </ns3:TrackPointExtension>
        </extensions>
      </trkpt>
      <trkpt lat="42.59002220816910266876220703125" lon="20.13638888485729694366455078125">
        <ele>1525.800048828125</ele>
        <time>2026-06-15T08:42:28.000Z</time>
        <extensions>
          <ns3:TrackPointExtension>
            <ns3:atemp>22.0</ns3:atemp>
          </ns3:TrackPointExtension>
        </extensions>
      </trkpt>
      <trkpt lat="42.5900051929056644439697265625" lon="20.13634865172207355499267578125">
        <ele>1526</ele>
        <time>2026-06-15T08:42:29.000Z</time>
        <extensions>
          <ns3:TrackPointExtension>
            <ns3:atemp>22.0</ns3:atemp>
          </ns3:TrackPointExtension>
        </extensions>
      </trkpt>
      <trkpt lat="42.58998666889965534210205078125" lon="20.1363091729581356048583984375">
        <ele>1526.4000244140625</ele>
        <time>2026-06-15T08:42:30.000Z</time>
        <extensions>
          <ns3:TrackPointExtension>
            <ns3:atemp>22.0</ns3:atemp>
          </ns3:TrackPointExtension>
        </extensions>
      </trkpt>
      <trkpt lat="42.58997241966426372528076171875" lon="20.13626768253743648529052734375">
        <ele>1526.5999755859375</ele>
        <time>2026-06-15T08:42:31.000Z</time>
        <extensions>
          <ns3:TrackPointExtension>
            <ns3:atemp>22.0</ns3:atemp>
          </ns3:TrackPointExtension>
        </extensions>
      </trkpt>
      <trkpt lat="42.5899582542479038238525390625" lon="20.13622887432575225830078125">
        <ele>1527</ele>
        <time>2026-06-15T08:42:32.000Z</time>
        <extensions>
          <ns3:TrackPointExtension>
            <ns3:atemp>22.0</ns3:atemp>
          </ns3:TrackPointExtension>
        </extensions>
      </trkpt>
      <trkpt lat="42.5899461843073368072509765625" lon="20.13618185184895992279052734375">
        <ele>1527.199951171875</ele>
        <time>2026-06-15T08:42:33.000Z</time>
        <extensions>
          <ns3:TrackPointExtension>
            <ns3:atemp>22.0</ns3:atemp>
          </ns3:TrackPointExtension>
        </extensions>
      </trkpt>
      <trkpt lat="42.58993721567094326019287109375" lon="20.13613591901957988739013671875">
        <ele>1527.5999755859375</ele>
        <time>2026-06-15T08:42:34.000Z</time>
        <extensions>
          <ns3:TrackPointExtension>
            <ns3:atemp>22.0</ns3:atemp>
          </ns3:TrackPointExtension>
        </extensions>
      </trkpt>
      <trkpt lat="42.58993252180516719818115234375" lon="20.13609266839921474456787109375">
        <ele>1527.800048828125</ele>
        <time>2026-06-15T08:42:35.000Z</time>
        <extensions>
          <ns3:TrackPointExtension>
            <ns3:atemp>22.0</ns3:atemp>
          </ns3:TrackPointExtension>
        </extensions>
      </trkpt>
      <trkpt lat="42.5899321027100086212158203125" lon="20.13604153878986835479736328125">
        <ele>1528</ele>
        <time>2026-06-15T08:42:36.000Z</time>
        <extensions>
          <ns3:TrackPointExtension>
            <ns3:atemp>22.0</ns3:atemp>
          </ns3:TrackPointExtension>
        </extensions>
      </trkpt>
      <trkpt lat="42.5899404846131801605224609375" lon="20.13599476777017116546630859375">
        <ele>1528.4000244140625</ele>
        <time>2026-06-15T08:42:37.000Z</time>
        <extensions>
          <ns3:TrackPointExtension>
            <ns3:atemp>22.0</ns3:atemp>
          </ns3:TrackPointExtension>
        </extensions>
      </trkpt>
      <trkpt lat="42.58994878269731998443603515625" lon="20.13595168478786945343017578125">
        <ele>1528.800048828125</ele>
        <time>2026-06-15T08:42:38.000Z</time>
        <extensions>
          <ns3:TrackPointExtension>
            <ns3:atemp>22.0</ns3:atemp>
          </ns3:TrackPointExtension>
        </extensions>
      </trkpt>
      <trkpt lat="42.5899622775614261627197265625" lon="20.135910026729106903076171875">
        <ele>1529</ele>
        <time>2026-06-15T08:42:39.000Z</time>
        <extensions>
          <ns3:TrackPointExtension>
            <ns3:atemp>22.0</ns3:atemp>
          </ns3:TrackPointExtension>
        </extensions>
      </trkpt>
      <trkpt lat="42.58997820317745208740234375" lon="20.13586920686066150665283203125">
        <ele>1529.4000244140625</ele>
        <time>2026-06-15T08:42:40.000Z</time>
        <extensions>
          <ns3:TrackPointExtension>
            <ns3:atemp>22.0</ns3:atemp>
          </ns3:TrackPointExtension>
        </extensions>
      </trkpt>
      <trkpt lat="42.58999253623187541961669921875" lon="20.13583031482994556427001953125">
        <ele>1529.800048828125</ele>
        <time>2026-06-15T08:42:41.000Z</time>
        <extensions>
          <ns3:TrackPointExtension>
            <ns3:atemp>22.0</ns3:atemp>
          </ns3:TrackPointExtension>
        </extensions>
      </trkpt>
      <trkpt lat="42.59001173079013824462890625" lon="20.13579569756984710693359375">
        <ele>1530.199951171875</ele>
        <time>2026-06-15T08:42:42.000Z</time>
        <extensions>
          <ns3:TrackPointExtension>
            <ns3:atemp>22.0</ns3:atemp>
          </ns3:TrackPointExtension>
        </extensions>
      </trkpt>
      <trkpt lat="42.590032182633876800537109375" lon="20.1357603259384632110595703125">
        <ele>1530.5999755859375</ele>
        <time>2026-06-15T08:42:43.000Z</time>
        <extensions>
          <ns3:TrackPointExtension>
            <ns3:atemp>22.0</ns3:atemp>
          </ns3:TrackPointExtension>
        </extensions>
      </trkpt>
      <trkpt lat="42.5900499522686004638671875" lon="20.13571984134614467620849609375">
        <ele>1530.800048828125</ele>
        <time>2026-06-15T08:42:44.000Z</time>
        <extensions>
          <ns3:TrackPointExtension>
            <ns3:atemp>22.0</ns3:atemp>
          </ns3:TrackPointExtension>
        </extensions>
      </trkpt>
      <trkpt lat="42.590067386627197265625" lon="20.13568782247602939605712890625">
        <ele>1531.199951171875</ele>
        <time>2026-06-15T08:42:45.000Z</time>
        <extensions>
          <ns3:TrackPointExtension>
            <ns3:atemp>22.0</ns3:atemp>
          </ns3:TrackPointExtension>
        </extensions>
      </trkpt>
      <trkpt lat="42.59008339606225490570068359375" lon="20.13565714471042156219482421875">
        <ele>1531.4000244140625</ele>
        <time>2026-06-15T08:42:46.000Z</time>
        <extensions>
          <ns3:TrackPointExtension>
            <ns3:atemp>22.0</ns3:atemp>
          </ns3:TrackPointExtension>
        </extensions>
      </trkpt>
      <trkpt lat="42.590102590620517730712890625" lon="20.13562981970608234405517578125">
        <ele>1531.5999755859375</ele>
        <time>2026-06-15T08:42:47.000Z</time>
        <extensions>
          <ns3:TrackPointExtension>
            <ns3:atemp>22.0</ns3:atemp>
          </ns3:TrackPointExtension>
        </extensions>
      </trkpt>
      <trkpt lat="42.59012597613036632537841796875" lon="20.13559780083596706390380859375">
        <ele>1531.800048828125</ele>
        <time>2026-06-15T08:42:48.000Z</time>
        <extensions>
          <ns3:TrackPointExtension>
            <ns3:atemp>22.0</ns3:atemp>
          </ns3:TrackPointExtension>
        </extensions>
      </trkpt>
      <trkpt lat="42.590147517621517181396484375" lon="20.1355683803558349609375">
        <ele>1531.800048828125</ele>
        <time>2026-06-15T08:42:49.000Z</time>
        <extensions>
          <ns3:TrackPointExtension>
            <ns3:atemp>22.0</ns3:atemp>
          </ns3:TrackPointExtension>
        </extensions>
      </trkpt>
      <trkpt lat="42.5901604257524013519287109375" lon="20.1355450786650180816650390625">
        <ele>1532</ele>
        <time>2026-06-15T08:42:50.000Z</time>
        <extensions>
          <ns3:TrackPointExtension>
            <ns3:atemp>22.0</ns3:atemp>
          </ns3:TrackPointExtension>
        </extensions>
      </trkpt>
      <trkpt lat="42.590175010263919830322265625" lon="20.1355212740600109100341796875">
        <ele>1532.199951171875</ele>
        <time>2026-06-15T08:42:51.000Z</time>
        <extensions>
          <ns3:TrackPointExtension>
            <ns3:atemp>22.0</ns3:atemp>
          </ns3:TrackPointExtension>
        </extensions>
      </trkpt>
      <trkpt lat="42.5901885889470577239990234375" lon="20.13549839146435260772705078125">
        <ele>1532.4000244140625</ele>
        <time>2026-06-15T08:42:52.000Z</time>
        <extensions>
          <ns3:TrackPointExtension>
            <ns3:atemp>22.0</ns3:atemp>
          </ns3:TrackPointExtension>
        </extensions>
      </trkpt>
      <trkpt lat="42.590209543704986572265625" lon="20.13547777198255062103271484375">
        <ele>1532.800048828125</ele>
        <time>2026-06-15T08:42:53.000Z</time>
        <extensions>
          <ns3:TrackPointExtension>
            <ns3:atemp>22.0</ns3:atemp>
          </ns3:TrackPointExtension>
        </extensions>
      </trkpt>
      <trkpt lat="42.5902304984629154205322265625" lon="20.1354543864727020263671875">
        <ele>1533</ele>
        <time>2026-06-15T08:42:54.000Z</time>
        <extensions>
          <ns3:TrackPointExtension>
            <ns3:atemp>22.0</ns3:atemp>
          </ns3:TrackPointExtension>
        </extensions>
      </trkpt>
      <trkpt lat="42.59025690145790576934814453125" lon="20.135431922972202301025390625">
        <ele>1533.199951171875</ele>
        <time>2026-06-15T08:42:55.000Z</time>
        <extensions>
          <ns3:TrackPointExtension>
            <ns3:atemp>22.0</ns3:atemp>
          </ns3:TrackPointExtension>
        </extensions>
      </trkpt>
      <trkpt lat="42.59028472937643527984619140625" lon="20.13540736399590969085693359375">
        <ele>1533.199951171875</ele>
        <time>2026-06-15T08:42:56.000Z</time>
        <extensions>
          <ns3:TrackPointExtension>
            <ns3:atemp>22.0</ns3:atemp>
          </ns3:TrackPointExtension>
        </extensions>
      </trkpt>
      <trkpt lat="42.5903146527707576751708984375" lon="20.13537735678255558013916015625">
        <ele>1533.199951171875</ele>
        <time>2026-06-15T08:42:57.000Z</time>
        <extensions>
          <ns3:TrackPointExtension>
            <ns3:atemp>22.0</ns3:atemp>
          </ns3:TrackPointExtension>
        </extensions>
      </trkpt>
      <trkpt lat="42.590339966118335723876953125" lon="20.13534114696085453033447265625">
        <ele>1533.4000244140625</ele>
        <time>2026-06-15T08:42:58.000Z</time>
        <extensions>
          <ns3:TrackPointExtension>
            <ns3:atemp>22.0</ns3:atemp>
          </ns3:TrackPointExtension>
        </extensions>
      </trkpt>
      <trkpt lat="42.59036486037075519561767578125" lon="20.1353030093014240264892578125">
        <ele>1533.4000244140625</ele>
        <time>2026-06-15T08:42:59.000Z</time>
        <extensions>
          <ns3:TrackPointExtension>
            <ns3:atemp>22.0</ns3:atemp>
          </ns3:TrackPointExtension>
        </extensions>
      </trkpt>
      <trkpt lat="42.590387575328350067138671875" lon="20.13526990078389644622802734375">
        <ele>1533.5999755859375</ele>
        <time>2026-06-15T08:43:00.000Z</time>
        <extensions>
          <ns3:TrackPointExtension>
            <ns3:atemp>22.0</ns3:atemp>
          </ns3:TrackPointExtension>
        </extensions>
      </trkpt>
      <trkpt lat="42.5904088653624057769775390625" lon="20.1352386362850666046142578125">
        <ele>1533.800048828125</ele>
        <time>2026-06-15T08:43:01.000Z</time>
        <extensions>
          <ns3:TrackPointExtension>
            <ns3:atemp>22.0</ns3:atemp>
          </ns3:TrackPointExtension>
        </extensions>
      </trkpt>
      <trkpt lat="42.59042822755873203277587890625" lon="20.13520401902496814727783203125">
        <ele>1534</ele>
        <time>2026-06-15T08:43:02.000Z</time>
        <extensions>
          <ns3:TrackPointExtension>
            <ns3:atemp>22.0</ns3:atemp>
          </ns3:TrackPointExtension>
        </extensions>
      </trkpt>
      <trkpt lat="42.5904514454305171966552734375" lon="20.135168395936489105224609375">
        <ele>1534.199951171875</ele>
        <time>2026-06-15T08:43:03.000Z</time>
        <extensions>
          <ns3:TrackPointExtension>
            <ns3:atemp>22.0</ns3:atemp>
          </ns3:TrackPointExtension>
        </extensions>
      </trkpt>
      <trkpt lat="42.59047483094036579132080078125" lon="20.13513109646737575531005859375">
        <ele>1534.4000244140625</ele>
        <time>2026-06-15T08:43:04.000Z</time>
        <extensions>
          <ns3:TrackPointExtension>
            <ns3:atemp>22.0</ns3:atemp>
          </ns3:TrackPointExtension>
        </extensions>
      </trkpt>
      <trkpt lat="42.59049209766089916229248046875" lon="20.1350901089608669281005859375">
        <ele>1534.4000244140625</ele>
        <time>2026-06-15T08:43:05.000Z</time>
        <extensions>
          <ns3:TrackPointExtension>
            <ns3:atemp>22.0</ns3:atemp>
          </ns3:TrackPointExtension>
        </extensions>
      </trkpt>
      <trkpt lat="42.59050634689629077911376953125" lon="20.13504811562597751617431640625">
        <ele>1534.5999755859375</ele>
        <time>2026-06-15T08:43:06.000Z</time>
        <extensions>
          <ns3:TrackPointExtension>
            <ns3:atemp>22.0</ns3:atemp>
          </ns3:TrackPointExtension>
        </extensions>
      </trkpt>
      <trkpt lat="42.5905205123126506805419921875" lon="20.13500318862497806549072265625">
        <ele>1534.800048828125</ele>
        <time>2026-06-15T08:43:07.000Z</time>
        <extensions>
          <ns3:TrackPointExtension>
            <ns3:atemp>22.0</ns3:atemp>
          </ns3:TrackPointExtension>
        </extensions>
      </trkpt>
      <trkpt lat="42.59053115732967853546142578125" lon="20.13496211729943752288818359375">
        <ele>1535</ele>
        <time>2026-06-15T08:43:08.000Z</time>
        <extensions>
          <ns3:TrackPointExtension>
            <ns3:atemp>22.0</ns3:atemp>
          </ns3:TrackPointExtension>
        </extensions>
      </trkpt>
      <trkpt lat="42.5905396230518817901611328125" lon="20.13491702266037464141845703125">
        <ele>1535</ele>
        <time>2026-06-15T08:43:09.000Z</time>
        <extensions>
          <ns3:TrackPointExtension>
            <ns3:atemp>22.0</ns3:atemp>
          </ns3:TrackPointExtension>
        </extensions>
      </trkpt>
      <trkpt lat="42.59054373018443584442138671875" lon="20.13486689887940883636474609375">
        <ele>1535.199951171875</ele>
        <time>2026-06-15T08:43:10.000Z</time>
        <extensions>
          <ns3:TrackPointExtension>
            <ns3:atemp>22.0</ns3:atemp>
          </ns3:TrackPointExtension>
        </extensions>
      </trkpt>
      <trkpt lat="42.59054892696440219879150390625" lon="20.13482180424034595489501953125">
        <ele>1535.199951171875</ele>
        <time>2026-06-15T08:43:11.000Z</time>
        <extensions>
          <ns3:TrackPointExtension>
            <ns3:atemp>22.0</ns3:atemp>
          </ns3:TrackPointExtension>
        </extensions>
      </trkpt>
      <trkpt lat="42.5905577279627323150634765625" lon="20.13477738015353679656982421875">
        <ele>1535.4000244140625</ele>
        <time>2026-06-15T08:43:12.000Z</time>
        <extensions>
          <ns3:TrackPointExtension>
            <ns3:atemp>22.0</ns3:atemp>
          </ns3:TrackPointExtension>
        </extensions>
      </trkpt>
      <trkpt lat="42.590571977198123931884765625" lon="20.13473379425704479217529296875">
        <ele>1535.5999755859375</ele>
        <time>2026-06-15T08:43:13.000Z</time>
        <extensions>
          <ns3:TrackPointExtension>
            <ns3:atemp>22.0</ns3:atemp>
          </ns3:TrackPointExtension>
        </extensions>
      </trkpt>
      <trkpt lat="42.59058882482349872589111328125" lon="20.134695656597614288330078125">
        <ele>1535.800048828125</ele>
        <time>2026-06-15T08:43:14.000Z</time>
        <extensions>
          <ns3:TrackPointExtension>
            <ns3:atemp>22.0</ns3:atemp>
          </ns3:TrackPointExtension>
        </extensions>
      </trkpt>
      <trkpt lat="42.5906024873256683349609375" lon="20.13465383090078830718994140625">
        <ele>1536</ele>
        <time>2026-06-15T08:43:15.000Z</time>
        <extensions>
          <ns3:TrackPointExtension>
            <ns3:atemp>22.0</ns3:atemp>
          </ns3:TrackPointExtension>
        </extensions>
      </trkpt>
      <trkpt lat="42.59062017314136028289794921875" lon="20.1346153579652309417724609375">
        <ele>1536.4000244140625</ele>
        <time>2026-06-15T08:43:16.000Z</time>
        <extensions>
          <ns3:TrackPointExtension>
            <ns3:atemp>22.0</ns3:atemp>
          </ns3:TrackPointExtension>
        </extensions>
      </trkpt>
      <trkpt lat="42.5906395353376865386962890625" lon="20.13458375819027423858642578125">
        <ele>1536.5999755859375</ele>
        <time>2026-06-15T08:43:17.000Z</time>
        <extensions>
          <ns3:TrackPointExtension>
            <ns3:atemp>22.0</ns3:atemp>
          </ns3:TrackPointExtension>
        </extensions>
      </trkpt>
      <trkpt lat="42.590662501752376556396484375" lon="20.1345586962997913360595703125">
        <ele>1536.800048828125</ele>
        <time>2026-06-15T08:43:18.000Z</time>
        <extensions>
          <ns3:TrackPointExtension>
            <ns3:atemp>22.0</ns3:atemp>
          </ns3:TrackPointExtension>
        </extensions>
      </trkpt>
      <trkpt lat="42.5906856358051300048828125" lon="20.13453095220029354095458984375">
        <ele>1537.199951171875</ele>
        <time>2026-06-15T08:43:19.000Z</time>
        <extensions>
          <ns3:TrackPointExtension>
            <ns3:atemp>22.0</ns3:atemp>
          </ns3:TrackPointExtension>
        </extensions>
      </trkpt>
      <trkpt lat="42.590713798999786376953125" lon="20.1345048844814300537109375">
        <ele>1537.4000244140625</ele>
        <time>2026-06-15T08:43:20.000Z</time>
        <extensions>
          <ns3:TrackPointExtension>
            <ns3:atemp>22.0</ns3:atemp>
          </ns3:TrackPointExtension>
        </extensions>
      </trkpt>
      <trkpt lat="42.59074489586055278778076171875" lon="20.134485773742198944091796875">
        <ele>1537.5999755859375</ele>
        <time>2026-06-15T08:43:21.000Z</time>
        <extensions>
          <ns3:TrackPointExtension>
            <ns3:atemp>22.0</ns3:atemp>
          </ns3:TrackPointExtension>
        </extensions>
      </trkpt>
      <trkpt lat="42.59077590890228748321533203125" lon="20.13446867465972900390625">
        <ele>1537.800048828125</ele>
        <time>2026-06-15T08:43:22.000Z</time>
        <extensions>
          <ns3:TrackPointExtension>
            <ns3:atemp>22.0</ns3:atemp>
          </ns3:TrackPointExtension>
        </extensions>
      </trkpt>
      <trkpt lat="42.59080591611564159393310546875" lon="20.13445132412016391754150390625">
        <ele>1538</ele>
        <time>2026-06-15T08:43:23.000Z</time>
        <extensions>
          <ns3:TrackPointExtension>
            <ns3:atemp>22.0</ns3:atemp>
          </ns3:TrackPointExtension>
        </extensions>
      </trkpt>
      <trkpt lat="42.590834833681583404541015625" lon="20.1344366557896137237548828125">
        <ele>1538.199951171875</ele>
        <time>2026-06-15T08:43:24.000Z</time>
        <extensions>
          <ns3:TrackPointExtension>
            <ns3:atemp>22.0</ns3:atemp>
          </ns3:TrackPointExtension>
        </extensions>
      </trkpt>
      <trkpt lat="42.59086408652365207672119140625" lon="20.13442215509712696075439453125">
        <ele>1538.4000244140625</ele>
        <time>2026-06-15T08:43:25.000Z</time>
        <extensions>
          <ns3:TrackPointExtension>
            <ns3:atemp>22.0</ns3:atemp>
          </ns3:TrackPointExtension>
        </extensions>
      </trkpt>
      <trkpt lat="42.59089275263249874114990234375" lon="20.13441167771816253662109375">
        <ele>1538.5999755859375</ele>
        <time>2026-06-15T08:43:26.000Z</time>
        <extensions>
          <ns3:TrackPointExtension>
            <ns3:atemp>22.0</ns3:atemp>
          </ns3:TrackPointExtension>
        </extensions>
      </trkpt>
      <trkpt lat="42.59092343039810657501220703125" lon="20.13440170325338840484619140625">
        <ele>1538.800048828125</ele>
        <time>2026-06-15T08:43:27.000Z</time>
        <extensions>
          <ns3:TrackPointExtension>
            <ns3:atemp>22.0</ns3:atemp>
          </ns3:TrackPointExtension>
        </extensions>
      </trkpt>
      <trkpt lat="42.59095394052565097808837890625" lon="20.13438661582767963409423828125">
        <ele>1539.199951171875</ele>
        <time>2026-06-15T08:43:28.000Z</time>
        <extensions>
          <ns3:TrackPointExtension>
            <ns3:atemp>22.0</ns3:atemp>
          </ns3:TrackPointExtension>
        </extensions>
      </trkpt>
      <trkpt lat="42.59098227135837078094482421875" lon="20.13436180539429187774658203125">
        <ele>1539.4000244140625</ele>
        <time>2026-06-15T08:43:29.000Z</time>
        <extensions>
          <ns3:TrackPointExtension>
            <ns3:atemp>22.0</ns3:atemp>
          </ns3:TrackPointExtension>
        </extensions>
      </trkpt>
      <trkpt lat="42.59101412259042263031005859375" lon="20.134343616664409637451171875">
        <ele>1539.5999755859375</ele>
        <time>2026-06-15T08:43:30.000Z</time>
        <extensions>
          <ns3:TrackPointExtension>
            <ns3:atemp>22.0</ns3:atemp>
          </ns3:TrackPointExtension>
        </extensions>
      </trkpt>
      <trkpt lat="42.5910475663840770721435546875" lon="20.1343359053134918212890625">
        <ele>1540</ele>
        <time>2026-06-15T08:43:31.000Z</time>
        <extensions>
          <ns3:TrackPointExtension>
            <ns3:atemp>22.0</ns3:atemp>
          </ns3:TrackPointExtension>
        </extensions>
      </trkpt>
      <trkpt lat="42.59107983671128749847412109375" lon="20.1343251764774322509765625">
        <ele>1540.199951171875</ele>
        <time>2026-06-15T08:43:32.000Z</time>
        <extensions>
          <ns3:TrackPointExtension>
            <ns3:atemp>22.0</ns3:atemp>
          </ns3:TrackPointExtension>
        </extensions>
      </trkpt>
      <trkpt lat="42.591111101210117340087890625" lon="20.13431654311716556549072265625">
        <ele>1540.5999755859375</ele>
        <time>2026-06-15T08:43:33.000Z</time>
        <extensions>
          <ns3:TrackPointExtension>
            <ns3:atemp>22.0</ns3:atemp>
          </ns3:TrackPointExtension>
        </extensions>
      </trkpt>
      <trkpt lat="42.59114655666053295135498046875" lon="20.1343105919659137725830078125">
        <ele>1540.800048828125</ele>
        <time>2026-06-15T08:43:34.000Z</time>
        <extensions>
          <ns3:TrackPointExtension>
            <ns3:atemp>22.0</ns3:atemp>
          </ns3:TrackPointExtension>
        </extensions>
      </trkpt>
      <trkpt lat="42.5911863707005977630615234375" lon="20.1343099214136600494384765625">
        <ele>1541.199951171875</ele>
        <time>2026-06-15T08:43:35.000Z</time>
        <extensions>
          <ns3:TrackPointExtension>
            <ns3:atemp>22.0</ns3:atemp>
          </ns3:TrackPointExtension>
        </extensions>
      </trkpt>
      <trkpt lat="42.59122216142714023590087890625" lon="20.1343156211078166961669921875">
        <ele>1541.4000244140625</ele>
        <time>2026-06-15T08:43:36.000Z</time>
        <extensions>
          <ns3:TrackPointExtension>
            <ns3:atemp>22.0</ns3:atemp>
          </ns3:TrackPointExtension>
        </extensions>
      </trkpt>
      <trkpt lat="42.59125719778239727020263671875" lon="20.13432760722935199737548828125">
        <ele>1541.800048828125</ele>
        <time>2026-06-15T08:43:37.000Z</time>
        <extensions>
          <ns3:TrackPointExtension>
            <ns3:atemp>22.0</ns3:atemp>
          </ns3:TrackPointExtension>
        </extensions>
      </trkpt>
      <trkpt lat="42.59129106067121028900146484375" lon="20.13433297164738178253173828125">
        <ele>1542.199951171875</ele>
        <time>2026-06-15T08:43:38.000Z</time>
        <extensions>
          <ns3:TrackPointExtension>
            <ns3:atemp>22.0</ns3:atemp>
          </ns3:TrackPointExtension>
        </extensions>
      </trkpt>
      <trkpt lat="42.591324336826801300048828125" lon="20.13433414511382579803466796875">
        <ele>1542.4000244140625</ele>
        <time>2026-06-15T08:43:39.000Z</time>
        <extensions>
          <ns3:TrackPointExtension>
            <ns3:atemp>22.0</ns3:atemp>
          </ns3:TrackPointExtension>
        </extensions>
      </trkpt>
      <trkpt lat="42.59136146865785121917724609375" lon="20.13433448038995265960693359375">
        <ele>1542.800048828125</ele>
        <time>2026-06-15T08:43:40.000Z</time>
        <extensions>
          <ns3:TrackPointExtension>
            <ns3:atemp>22.0</ns3:atemp>
          </ns3:TrackPointExtension>
        </extensions>
      </trkpt>
      <trkpt lat="42.59139834903180599212646484375" lon="20.13433548621833324432373046875">
        <ele>1543</ele>
        <time>2026-06-15T08:43:41.000Z</time>
        <extensions>
          <ns3:TrackPointExtension>
            <ns3:atemp>22.0</ns3:atemp>
          </ns3:TrackPointExtension>
        </extensions>
      </trkpt>
      <trkpt lat="42.591432966291904449462890625" lon="20.13433833606541156768798828125">
        <ele>1543.4000244140625</ele>
        <time>2026-06-15T08:43:42.000Z</time>
        <extensions>
          <ns3:TrackPointExtension>
            <ns3:atemp>22.0</ns3:atemp>
          </ns3:TrackPointExtension>
        </extensions>
      </trkpt>
      <trkpt lat="42.5914690084755420684814453125" lon="20.1343414373695850372314453125">
        <ele>1543.5999755859375</ele>
        <time>2026-06-15T08:43:43.000Z</time>
        <extensions>
          <ns3:TrackPointExtension>
            <ns3:atemp>22.0</ns3:atemp>
          </ns3:TrackPointExtension>
        </extensions>
      </trkpt>
      <trkpt lat="42.5915052182972431182861328125" lon="20.13433934189379215240478515625">
        <ele>1544</ele>
        <time>2026-06-15T08:43:44.000Z</time>
        <extensions>
          <ns3:TrackPointExtension>
            <ns3:atemp>22.0</ns3:atemp>
          </ns3:TrackPointExtension>
        </extensions>
      </trkpt>
      <trkpt lat="42.5915407575666904449462890625" lon="20.13433665968477725982666015625">
        <ele>1544.199951171875</ele>
        <time>2026-06-15T08:43:45.000Z</time>
        <extensions>
          <ns3:TrackPointExtension>
            <ns3:atemp>22.0</ns3:atemp>
          </ns3:TrackPointExtension>
        </extensions>
      </trkpt>
      <trkpt lat="42.5915762968361377716064453125" lon="20.13433414511382579803466796875">
        <ele>1544.5999755859375</ele>
        <time>2026-06-15T08:43:46.000Z</time>
        <extensions>
          <ns3:TrackPointExtension>
            <ns3:atemp>22.0</ns3:atemp>
          </ns3:TrackPointExtension>
        </extensions>
      </trkpt>
      <trkpt lat="42.59161476977169513702392578125" lon="20.13432743959128856658935546875">
        <ele>1544.800048828125</ele>
        <time>2026-06-15T08:43:47.000Z</time>
        <extensions>
          <ns3:TrackPointExtension>
            <ns3:atemp>22.0</ns3:atemp>
          </ns3:TrackPointExtension>
        </extensions>
      </trkpt>
      <trkpt lat="42.5916487164795398712158203125" lon="20.13432358391582965850830078125">
        <ele>1545.199951171875</ele>
        <time>2026-06-15T08:43:48.000Z</time>
        <extensions>
          <ns3:TrackPointExtension>
            <ns3:atemp>22.0</ns3:atemp>
          </ns3:TrackPointExtension>
        </extensions>
      </trkpt>
      <trkpt lat="42.59167964570224285125732421875" lon="20.13431654311716556549072265625">
        <ele>1545.5999755859375</ele>
        <time>2026-06-15T08:43:49.000Z</time>
        <extensions>
          <ns3:TrackPointExtension>
            <ns3:atemp>22.0</ns3:atemp>
          </ns3:TrackPointExtension>
        </extensions>
      </trkpt>
      <trkpt lat="42.59170831181108951568603515625" lon="20.134305059909820556640625">
        <ele>1545.800048828125</ele>
        <time>2026-06-15T08:43:50.000Z</time>
        <extensions>
          <ns3:TrackPointExtension>
            <ns3:atemp>22.0</ns3:atemp>
          </ns3:TrackPointExtension>
        </extensions>
      </trkpt>
      <trkpt lat="42.59174200706183910369873046875" lon="20.13429424725472927093505859375">
        <ele>1546</ele>
        <time>2026-06-15T08:43:51.000Z</time>
        <extensions>
          <ns3:TrackPointExtension>
            <ns3:atemp>22.0</ns3:atemp>
          </ns3:TrackPointExtension>
        </extensions>
      </trkpt>
      <trkpt lat="42.5917714275419712066650390625" lon="20.1342837698757648468017578125">
        <ele>1546.4000244140625</ele>
        <time>2026-06-15T08:43:52.000Z</time>
        <extensions>
          <ns3:TrackPointExtension>
            <ns3:atemp>22.0</ns3:atemp>
          </ns3:TrackPointExtension>
        </extensions>
      </trkpt>
      <trkpt lat="42.591795735061168670654296875" lon="20.13427379541099071502685546875">
        <ele>1546.5999755859375</ele>
        <time>2026-06-15T08:43:53.000Z</time>
        <extensions>
          <ns3:TrackPointExtension>
            <ns3:atemp>22.0</ns3:atemp>
          </ns3:TrackPointExtension>
        </extensions>
      </trkpt>
      <trkpt lat="42.59181995876133441925048828125" lon="20.13426172547042369842529296875">
        <ele>1546.800048828125</ele>
        <time>2026-06-15T08:43:54.000Z</time>
        <extensions>
          <ns3:TrackPointExtension>
            <ns3:atemp>22.0</ns3:atemp>
          </ns3:TrackPointExtension>
        </extensions>
      </trkpt>
      <trkpt lat="42.5918428413569927215576171875" lon="20.13425434939563274383544921875">
        <ele>1547.199951171875</ele>
        <time>2026-06-15T08:43:55.000Z</time>
        <extensions>
          <ns3:TrackPointExtension>
            <ns3:atemp>22.0</ns3:atemp>
          </ns3:TrackPointExtension>
        </extensions>
      </trkpt>
      <trkpt lat="42.591868154704570770263671875" lon="20.1342408545315265655517578125">
        <ele>1547.4000244140625</ele>
        <time>2026-06-15T08:43:56.000Z</time>
        <extensions>
          <ns3:TrackPointExtension>
            <ns3:atemp>22.0</ns3:atemp>
          </ns3:TrackPointExtension>
        </extensions>
      </trkpt>
      <trkpt lat="42.59189472533762454986572265625" lon="20.134222917258739471435546875">
        <ele>1547.5999755859375</ele>
        <time>2026-06-15T08:43:57.000Z</time>
        <extensions>
          <ns3:TrackPointExtension>
            <ns3:atemp>22.0</ns3:atemp>
          </ns3:TrackPointExtension>
        </extensions>
      </trkpt>
      <trkpt lat="42.59192322380840778350830078125" lon="20.13420539908111095428466796875">
        <ele>1548</ele>
        <time>2026-06-15T08:43:58.000Z</time>
        <extensions>
          <ns3:TrackPointExtension>
            <ns3:atemp>22.0</ns3:atemp>
          </ns3:TrackPointExtension>
        </extensions>
      </trkpt>
      <trkpt lat="42.5919489562511444091796875" lon="20.13418813236057758331298828125">
        <ele>1548.199951171875</ele>
        <time>2026-06-15T08:43:59.000Z</time>
        <extensions>
          <ns3:TrackPointExtension>
            <ns3:atemp>22.0</ns3:atemp>
          </ns3:TrackPointExtension>
        </extensions>
      </trkpt>
      <trkpt lat="42.59197284467518329620361328125" lon="20.13417136855423450469970703125">
        <ele>1548.4000244140625</ele>
        <time>2026-06-15T08:44:00.000Z</time>
        <extensions>
          <ns3:TrackPointExtension>
            <ns3:atemp>22.0</ns3:atemp>
          </ns3:TrackPointExtension>
        </extensions>
      </trkpt>
      <trkpt lat="42.5919977389276027679443359375" lon="20.1341546885669231414794921875">
        <ele>1548.5999755859375</ele>
        <time>2026-06-15T08:44:01.000Z</time>
        <extensions>
          <ns3:TrackPointExtension>
            <ns3:atemp>22.0</ns3:atemp>
          </ns3:TrackPointExtension>
        </extensions>
      </trkpt>
      <trkpt lat="42.59202665649354457855224609375" lon="20.13413616456091403961181640625">
        <ele>1548.800048828125</ele>
        <time>2026-06-15T08:44:02.000Z</time>
        <extensions>
          <ns3:TrackPointExtension>
            <ns3:atemp>22.0</ns3:atemp>
          </ns3:TrackPointExtension>
        </extensions>
      </trkpt>
      <trkpt lat="42.59205716662108898162841796875" lon="20.134116970002651214599609375">
        <ele>1548.800048828125</ele>
        <time>2026-06-15T08:44:03.000Z</time>
        <extensions>
          <ns3:TrackPointExtension>
            <ns3:atemp>22.0</ns3:atemp>
          </ns3:TrackPointExtension>
        </extensions>
      </trkpt>
      <trkpt lat="42.59208298288285732269287109375" lon="20.1340936683118343353271484375">
        <ele>1549</ele>
        <time>2026-06-15T08:44:04.000Z</time>
        <extensions>
          <ns3:TrackPointExtension>
            <ns3:atemp>22.0</ns3:atemp>
          </ns3:TrackPointExtension>
        </extensions>
      </trkpt>
      <trkpt lat="42.59210997261106967926025390625" lon="20.1340715400874614715576171875">
        <ele>1549.199951171875</ele>
        <time>2026-06-15T08:44:05.000Z</time>
        <extensions>
          <ns3:TrackPointExtension>
            <ns3:atemp>22.0</ns3:atemp>
          </ns3:TrackPointExtension>
        </extensions>
      </trkpt>
      <trkpt lat="42.59213545359671115875244140625" lon="20.1340490765869617462158203125">
        <ele>1549.199951171875</ele>
        <time>2026-06-15T08:44:06.000Z</time>
        <extensions>
          <ns3:TrackPointExtension>
            <ns3:atemp>22.0</ns3:atemp>
          </ns3:TrackPointExtension>
        </extensions>
      </trkpt>
      <trkpt lat="42.5921647064387798309326171875" lon="20.1340326480567455291748046875">
        <ele>1549.199951171875</ele>
        <time>2026-06-15T08:44:07.000Z</time>
        <extensions>
          <ns3:TrackPointExtension>
            <ns3:atemp>22.0</ns3:atemp>
          </ns3:TrackPointExtension>
        </extensions>
      </trkpt>
      <trkpt lat="42.5921932049095630645751953125" lon="20.1340086758136749267578125">
        <ele>1549.199951171875</ele>
        <time>2026-06-15T08:44:08.000Z</time>
        <extensions>
          <ns3:TrackPointExtension>
            <ns3:atemp>22.0</ns3:atemp>
          </ns3:TrackPointExtension>
        </extensions>
      </trkpt>
      <trkpt lat="42.59222161956131458282470703125" lon="20.13398646377027034759521484375">
        <ele>1549.4000244140625</ele>
        <time>2026-06-15T08:44:09.000Z</time>
        <extensions>
          <ns3:TrackPointExtension>
            <ns3:atemp>22.0</ns3:atemp>
          </ns3:TrackPointExtension>
        </extensions>
      </trkpt>
      <trkpt lat="42.59224777109920978546142578125" lon="20.133960060775279998779296875">
        <ele>1549.5999755859375</ele>
        <time>2026-06-15T08:44:10.000Z</time>
        <extensions>
          <ns3:TrackPointExtension>
            <ns3:atemp>22.0</ns3:atemp>
          </ns3:TrackPointExtension>
        </extensions>
      </trkpt>
      <trkpt lat="42.59227291680872440338134765625" lon="20.1339287124574184417724609375">
        <ele>1549.800048828125</ele>
        <time>2026-06-15T08:44:11.000Z</time>
        <extensions>
          <ns3:TrackPointExtension>
            <ns3:atemp>22.0</ns3:atemp>
          </ns3:TrackPointExtension>
        </extensions>
      </trkpt>
      <trkpt lat="42.5923004932701587677001953125" lon="20.1339002139866352081298828125">
        <ele>1550.199951171875</ele>
        <time>2026-06-15T08:44:12.000Z</time>
        <extensions>
          <ns3:TrackPointExtension>
            <ns3:atemp>22.0</ns3:atemp>
          </ns3:TrackPointExtension>
        </extensions>
      </trkpt>
      <trkpt lat="42.592328824102878570556640625" lon="20.133870542049407958984375">
        <ele>1550.5999755859375</ele>
        <time>2026-06-15T08:44:13.000Z</time>
        <extensions>
          <ns3:TrackPointExtension>
            <ns3:atemp>22.0</ns3:atemp>
          </ns3:TrackPointExtension>
        </extensions>
      </trkpt>
      <trkpt lat="42.59235958568751811981201171875" lon="20.13383768498897552490234375">
        <ele>1550.800048828125</ele>
        <time>2026-06-15T08:44:14.000Z</time>
        <extensions>
          <ns3:TrackPointExtension>
            <ns3:atemp>22.0</ns3:atemp>
          </ns3:TrackPointExtension>
        </extensions>
      </trkpt>
      <trkpt lat="42.59239017963409423828125" lon="20.13380524702370166778564453125">
        <ele>1551.199951171875</ele>
        <time>2026-06-15T08:44:15.000Z</time>
        <extensions>
          <ns3:TrackPointExtension>
            <ns3:atemp>22.0</ns3:atemp>
          </ns3:TrackPointExtension>
        </extensions>
      </trkpt>
      <trkpt lat="42.59241892956197261810302734375" lon="20.13378228060901165008544921875">
        <ele>1551.4000244140625</ele>
        <time>2026-06-15T08:44:16.000Z</time>
        <extensions>
          <ns3:TrackPointExtension>
            <ns3:atemp>22.0</ns3:atemp>
          </ns3:TrackPointExtension>
        </extensions>
      </trkpt>
      <trkpt lat="42.59244675748050212860107421875" lon="20.13375730253756046295166015625">
        <ele>1551.5999755859375</ele>
        <time>2026-06-15T08:44:17.000Z</time>
        <extensions>
          <ns3:TrackPointExtension>
            <ns3:atemp>22.0</ns3:atemp>
          </ns3:TrackPointExtension>
        </extensions>
      </trkpt>
      <trkpt lat="42.59247341193258762359619140625" lon="20.13373282738029956817626953125">
        <ele>1551.800048828125</ele>
        <time>2026-06-15T08:44:18.000Z</time>
        <extensions>
          <ns3:TrackPointExtension>
            <ns3:atemp>22.0</ns3:atemp>
          </ns3:TrackPointExtension>
        </extensions>
      </trkpt>
      <trkpt lat="42.592495121061801910400390625" lon="20.1337020657956600189208984375">
        <ele>1551.800048828125</ele>
        <time>2026-06-15T08:44:19.000Z</time>
        <extensions>
          <ns3:TrackPointExtension>
            <ns3:atemp>22.0</ns3:atemp>
          </ns3:TrackPointExtension>
        </extensions>
      </trkpt>
      <trkpt lat="42.59251817129552364349365234375" lon="20.1336728967726230621337890625">
        <ele>1552</ele>
        <time>2026-06-15T08:44:20.000Z</time>
        <extensions>
          <ns3:TrackPointExtension>
            <ns3:atemp>22.0</ns3:atemp>
          </ns3:TrackPointExtension>
        </extensions>
      </trkpt>
      <trkpt lat="42.59254264645278453826904296875" lon="20.1336430571973323822021484375">
        <ele>1552.199951171875</ele>
        <time>2026-06-15T08:44:21.000Z</time>
        <extensions>
          <ns3:TrackPointExtension>
            <ns3:atemp>22.0</ns3:atemp>
          </ns3:TrackPointExtension>
        </extensions>
      </trkpt>
      <trkpt lat="42.5925658643245697021484375" lon="20.13360944576561450958251953125">
        <ele>1552.4000244140625</ele>
        <time>2026-06-15T08:44:22.000Z</time>
        <extensions>
          <ns3:TrackPointExtension>
            <ns3:atemp>22.0</ns3:atemp>
          </ns3:TrackPointExtension>
        </extensions>
      </trkpt>
      <trkpt lat="42.592590339481830596923828125" lon="20.13357457704842090606689453125">
        <ele>1552.800048828125</ele>
        <time>2026-06-15T08:44:23.000Z</time>
        <extensions>
          <ns3:TrackPointExtension>
            <ns3:atemp>22.0</ns3:atemp>
          </ns3:TrackPointExtension>
        </extensions>
      </trkpt>
      <trkpt lat="42.59261204861104488372802734375" lon="20.13353937305510044097900390625">
        <ele>1553</ele>
        <time>2026-06-15T08:44:24.000Z</time>
        <extensions>
          <ns3:TrackPointExtension>
            <ns3:atemp>22.0</ns3:atemp>
          </ns3:TrackPointExtension>
        </extensions>
      </trkpt>
      <trkpt lat="42.59263417683541774749755859375" lon="20.13349746353924274444580078125">
        <ele>1553.199951171875</ele>
        <time>2026-06-15T08:44:25.000Z</time>
        <extensions>
          <ns3:TrackPointExtension>
            <ns3:atemp>22.0</ns3:atemp>
          </ns3:TrackPointExtension>
        </extensions>
      </trkpt>
      <trkpt lat="42.59265915490686893463134765625" lon="20.13346494175493717193603515625">
        <ele>1553.5999755859375</ele>
        <time>2026-06-15T08:44:26.000Z</time>
        <extensions>
          <ns3:TrackPointExtension>
            <ns3:atemp>22.0</ns3:atemp>
          </ns3:TrackPointExtension>
        </extensions>
      </trkpt>
      <trkpt lat="42.59268631227314472198486328125" lon="20.1334311626851558685302734375">
        <ele>1554</ele>
        <time>2026-06-15T08:44:27.000Z</time>
        <extensions>
          <ns3:TrackPointExtension>
            <ns3:atemp>22.0</ns3:atemp>
          </ns3:TrackPointExtension>
        </extensions>
      </trkpt>
      <trkpt lat="42.5927112065255641937255859375" lon="20.13339771889150142669677734375">
        <ele>1554.199951171875</ele>
        <time>2026-06-15T08:44:28.000Z</time>
        <extensions>
          <ns3:TrackPointExtension>
            <ns3:atemp>22.0</ns3:atemp>
          </ns3:TrackPointExtension>
        </extensions>
      </trkpt>
      <trkpt lat="42.59273392148315906524658203125" lon="20.133356563746929168701171875">
        <ele>1554.4000244140625</ele>
        <time>2026-06-15T08:44:29.000Z</time>
        <extensions>
          <ns3:TrackPointExtension>
            <ns3:atemp>22.0</ns3:atemp>
          </ns3:TrackPointExtension>
        </extensions>
      </trkpt>
      <trkpt lat="42.59275957010686397552490234375" lon="20.13331540860235691070556640625">
        <ele>1554.5999755859375</ele>
        <time>2026-06-15T08:44:30.000Z</time>
        <extensions>
          <ns3:TrackPointExtension>
            <ns3:atemp>22.0</ns3:atemp>
          </ns3:TrackPointExtension>
        </extensions>
      </trkpt>
      <trkpt lat="42.5927816145122051239013671875" lon="20.13327618129551410675048828125">
        <ele>1554.800048828125</ele>
        <time>2026-06-15T08:44:31.000Z</time>
        <extensions>
          <ns3:TrackPointExtension>
            <ns3:atemp>22.0</ns3:atemp>
          </ns3:TrackPointExtension>
        </extensions>
      </trkpt>
      <trkpt lat="42.59280567057430744171142578125" lon="20.1332343555986881256103515625">
        <ele>1555</ele>
        <time>2026-06-15T08:44:32.000Z</time>
        <extensions>
          <ns3:TrackPointExtension>
            <ns3:atemp>22.0</ns3:atemp>
          </ns3:TrackPointExtension>
        </extensions>
      </trkpt>
      <trkpt lat="42.59282746352255344390869140625" lon="20.13319202698767185211181640625">
        <ele>1555.199951171875</ele>
        <time>2026-06-15T08:44:33.000Z</time>
        <extensions>
          <ns3:TrackPointExtension>
            <ns3:atemp>22.0</ns3:atemp>
          </ns3:TrackPointExtension>
        </extensions>
      </trkpt>
      <trkpt lat="42.5928456522524356842041015625" lon="20.1331535540521144866943359375">
        <ele>1555.4000244140625</ele>
        <time>2026-06-15T08:44:34.000Z</time>
        <extensions>
          <ns3:TrackPointExtension>
            <ns3:atemp>22.0</ns3:atemp>
          </ns3:TrackPointExtension>
        </extensions>
      </trkpt>
      <trkpt lat="42.59286568500101566314697265625" lon="20.133114159107208251953125">
        <ele>1555.5999755859375</ele>
        <time>2026-06-15T08:44:35.000Z</time>
        <extensions>
          <ns3:TrackPointExtension>
            <ns3:atemp>22.0</ns3:atemp>
          </ns3:TrackPointExtension>
        </extensions>
      </trkpt>
      <trkpt lat="42.5928835384547710418701171875" lon="20.133069567382335662841796875">
        <ele>1555.800048828125</ele>
        <time>2026-06-15T08:44:36.000Z</time>
        <extensions>
          <ns3:TrackPointExtension>
            <ns3:atemp>22.0</ns3:atemp>
          </ns3:TrackPointExtension>
        </extensions>
      </trkpt>
      <trkpt lat="42.59290306828916072845458984375" lon="20.1330231316387653350830078125">
        <ele>1556</ele>
        <time>2026-06-15T08:44:37.000Z</time>
        <extensions>
          <ns3:TrackPointExtension>
            <ns3:atemp>22.0</ns3:atemp>
          </ns3:TrackPointExtension>
        </extensions>
      </trkpt>
      <trkpt lat="42.59292117320001125335693359375" lon="20.13297535479068756103515625">
        <ele>1556.199951171875</ele>
        <time>2026-06-15T08:44:38.000Z</time>
        <extensions>
          <ns3:TrackPointExtension>
            <ns3:atemp>22.0</ns3:atemp>
          </ns3:TrackPointExtension>
        </extensions>
      </trkpt>
      <trkpt lat="42.592937685549259185791015625" lon="20.13292816467583179473876953125">
        <ele>1556.4000244140625</ele>
        <time>2026-06-15T08:44:39.000Z</time>
        <extensions>
          <ns3:TrackPointExtension>
            <ns3:atemp>22.0</ns3:atemp>
          </ns3:TrackPointExtension>
        </extensions>
      </trkpt>
      <trkpt lat="42.5929536111652851104736328125" lon="20.13288223184645175933837890625">
        <ele>1556.800048828125</ele>
        <time>2026-06-15T08:44:40.000Z</time>
        <extensions>
          <ns3:TrackPointExtension>
            <ns3:atemp>22.0</ns3:atemp>
          </ns3:TrackPointExtension>
        </extensions>
      </trkpt>
      <trkpt lat="42.59296576492488384246826171875" lon="20.1328347064554691314697265625">
        <ele>1557</ele>
        <time>2026-06-15T08:44:41.000Z</time>
        <extensions>
          <ns3:TrackPointExtension>
            <ns3:atemp>22.0</ns3:atemp>
          </ns3:TrackPointExtension>
        </extensions>
      </trkpt>
      <trkpt lat="42.592971883714199066162109375" lon="20.13278718106448650360107421875">
        <ele>1557.199951171875</ele>
        <time>2026-06-15T08:44:42.000Z</time>
        <extensions>
          <ns3:TrackPointExtension>
            <ns3:atemp>22.0</ns3:atemp>
          </ns3:TrackPointExtension>
        </extensions>
      </trkpt>
      <trkpt lat="42.59298755787312984466552734375" lon="20.1327418349683284759521484375">
        <ele>1557.4000244140625</ele>
        <time>2026-06-15T08:44:43.000Z</time>
        <extensions>
          <ns3:TrackPointExtension>
            <ns3:atemp>22.0</ns3:atemp>
          </ns3:TrackPointExtension>
        </extensions>
      </trkpt>
      <trkpt lat="42.59300147183239459991455078125" lon="20.1326959021389484405517578125">
        <ele>1557.5999755859375</ele>
        <time>2026-06-15T08:44:44.000Z</time>
        <extensions>
          <ns3:TrackPointExtension>
            <ns3:atemp>22.0</ns3:atemp>
          </ns3:TrackPointExtension>
        </extensions>
      </trkpt>
      <trkpt lat="42.593011446297168731689453125" lon="20.132651142776012420654296875">
        <ele>1557.800048828125</ele>
        <time>2026-06-15T08:44:45.000Z</time>
        <extensions>
          <ns3:TrackPointExtension>
            <ns3:atemp>22.0</ns3:atemp>
          </ns3:TrackPointExtension>
        </extensions>
      </trkpt>
      <trkpt lat="42.5930240191519260406494140625" lon="20.13260713778436183929443359375">
        <ele>1558</ele>
        <time>2026-06-15T08:44:46.000Z</time>
        <extensions>
          <ns3:TrackPointExtension>
            <ns3:atemp>22.0</ns3:atemp>
          </ns3:TrackPointExtension>
        </extensions>
      </trkpt>
      <trkpt lat="42.59303684346377849578857421875" lon="20.13256095349788665771484375">
        <ele>1558.199951171875</ele>
        <time>2026-06-15T08:44:47.000Z</time>
        <extensions>
          <ns3:TrackPointExtension>
            <ns3:atemp>22.0</ns3:atemp>
          </ns3:TrackPointExtension>
        </extensions>
      </trkpt>
      <trkpt lat="42.59305243380367755889892578125" lon="20.13251602649688720703125">
        <ele>1558.5999755859375</ele>
        <time>2026-06-15T08:44:48.000Z</time>
        <extensions>
          <ns3:TrackPointExtension>
            <ns3:atemp>22.0</ns3:atemp>
          </ns3:TrackPointExtension>
        </extensions>
      </trkpt>
      <trkpt lat="42.5930652581155300140380859375" lon="20.13246917165815830230712890625">
        <ele>1558.800048828125</ele>
        <time>2026-06-15T08:44:49.000Z</time>
        <extensions>
          <ns3:TrackPointExtension>
            <ns3:atemp>22.0</ns3:atemp>
          </ns3:TrackPointExtension>
        </extensions>
      </trkpt>
      <trkpt lat="42.59307682514190673828125" lon="20.1324219815433025360107421875">
        <ele>1559</ele>
        <time>2026-06-15T08:44:50.000Z</time>
        <extensions>
          <ns3:TrackPointExtension>
            <ns3:atemp>22.0</ns3:atemp>
          </ns3:TrackPointExtension>
        </extensions>
      </trkpt>
      <trkpt lat="42.59309199638664722442626953125" lon="20.132383592426776885986328125">
        <ele>1559.199951171875</ele>
        <time>2026-06-15T08:44:51.000Z</time>
        <extensions>
          <ns3:TrackPointExtension>
            <ns3:atemp>22.0</ns3:atemp>
          </ns3:TrackPointExtension>
        </extensions>
      </trkpt>
      <trkpt lat="42.5931068323552608489990234375" lon="20.13233874924480915069580078125">
        <ele>1559.5999755859375</ele>
        <time>2026-06-15T08:44:52.000Z</time>
        <extensions>
          <ns3:TrackPointExtension>
            <ns3:atemp>22.0</ns3:atemp>
          </ns3:TrackPointExtension>
        </extensions>
      </trkpt>
      <trkpt lat="42.5931212492287158966064453125" lon="20.1322920620441436767578125">
        <ele>1559.800048828125</ele>
        <time>2026-06-15T08:44:53.000Z</time>
        <extensions>
          <ns3:TrackPointExtension>
            <ns3:atemp>22.0</ns3:atemp>
          </ns3:TrackPointExtension>
        </extensions>
      </trkpt>
      <trkpt lat="42.5931309722363948822021484375" lon="20.13224101625382900238037109375">
        <ele>1560.199951171875</ele>
        <time>2026-06-15T08:44:54.000Z</time>
        <extensions>
          <ns3:TrackPointExtension>
            <ns3:atemp>22.0</ns3:atemp>
          </ns3:TrackPointExtension>
        </extensions>
      </trkpt>
      <trkpt lat="42.59314497001469135284423828125" lon="20.1321936585009098052978515625">
        <ele>1560.5999755859375</ele>
        <time>2026-06-15T08:44:55.000Z</time>
        <extensions>
          <ns3:TrackPointExtension>
            <ns3:atemp>22.0</ns3:atemp>
          </ns3:TrackPointExtension>
        </extensions>
      </trkpt>
      <trkpt lat="42.5931557826697826385498046875" lon="20.13214579783380031585693359375">
        <ele>1560.800048828125</ele>
        <time>2026-06-15T08:44:56.000Z</time>
        <extensions>
          <ns3:TrackPointExtension>
            <ns3:atemp>22.0</ns3:atemp>
          </ns3:TrackPointExtension>
        </extensions>
      </trkpt>
      <trkpt lat="42.59316642768681049346923828125" lon="20.13209936209022998809814453125">
        <ele>1561</ele>
        <time>2026-06-15T08:44:57.000Z</time>
        <extensions>
          <ns3:TrackPointExtension>
            <ns3:atemp>22.0</ns3:atemp>
          </ns3:TrackPointExtension>
        </extensions>
      </trkpt>
      <trkpt lat="42.59317732416093349456787109375" lon="20.1320533454418182373046875">
        <ele>1561.4000244140625</ele>
        <time>2026-06-15T08:44:58.000Z</time>
        <extensions>
          <ns3:TrackPointExtension>
            <ns3:atemp>22.0</ns3:atemp>
          </ns3:TrackPointExtension>
        </extensions>
      </trkpt>
      <trkpt lat="42.59318838827311992645263671875" lon="20.132008083164691925048828125">
        <ele>1561.5999755859375</ele>
        <time>2026-06-15T08:44:59.000Z</time>
        <extensions>
          <ns3:TrackPointExtension>
            <ns3:atemp>22.0</ns3:atemp>
          </ns3:TrackPointExtension>
        </extensions>
      </trkpt>
      <trkpt lat="42.593200206756591796875" lon="20.13196106068789958953857421875">
        <ele>1562</ele>
        <time>2026-06-15T08:45:00.000Z</time>
        <extensions>
          <ns3:TrackPointExtension>
            <ns3:atemp>22.0</ns3:atemp>
          </ns3:TrackPointExtension>
        </extensions>
      </trkpt>
      <trkpt lat="42.59320984594523906707763671875" lon="20.13191496022045612335205078125">
        <ele>1562.199951171875</ele>
        <time>2026-06-15T08:45:01.000Z</time>
        <extensions>
          <ns3:TrackPointExtension>
            <ns3:atemp>22.0</ns3:atemp>
          </ns3:TrackPointExtension>
        </extensions>
      </trkpt>
      <trkpt lat="42.593217976391315460205078125" lon="20.13186785392463207244873046875">
        <ele>1562.4000244140625</ele>
        <time>2026-06-15T08:45:02.000Z</time>
        <extensions>
          <ns3:TrackPointExtension>
            <ns3:atemp>22.0</ns3:atemp>
          </ns3:TrackPointExtension>
        </extensions>
      </trkpt>
      <trkpt lat="42.59322728030383586883544921875" lon="20.1318231783807277679443359375">
        <ele>1562.800048828125</ele>
        <time>2026-06-15T08:45:03.000Z</time>
        <extensions>
          <ns3:TrackPointExtension>
            <ns3:atemp>22.0</ns3:atemp>
          </ns3:TrackPointExtension>
        </extensions>
      </trkpt>
      <trkpt lat="42.59323867969214916229248046875" lon="20.13177573680877685546875">
        <ele>1563</ele>
        <time>2026-06-15T08:45:04.000Z</time>
        <extensions>
          <ns3:TrackPointExtension>
            <ns3:atemp>22.0</ns3:atemp>
          </ns3:TrackPointExtension>
        </extensions>
      </trkpt>
      <trkpt lat="42.593250833451747894287109375" lon="20.1317289657890796661376953125">
        <ele>1563.199951171875</ele>
        <time>2026-06-15T08:45:05.000Z</time>
        <extensions>
          <ns3:TrackPointExtension>
            <ns3:atemp>22.0</ns3:atemp>
          </ns3:TrackPointExtension>
        </extensions>
      </trkpt>
      <trkpt lat="42.59326030500233173370361328125" lon="20.1316880621016025543212890625">
        <ele>1563.5999755859375</ele>
        <time>2026-06-15T08:45:06.000Z</time>
        <extensions>
          <ns3:TrackPointExtension>
            <ns3:atemp>22.0</ns3:atemp>
          </ns3:TrackPointExtension>
        </extensions>
      </trkpt>
      <trkpt lat="42.593268938362598419189453125" lon="20.1316434703767299652099609375">
        <ele>1564</ele>
        <time>2026-06-15T08:45:07.000Z</time>
        <extensions>
          <ns3:TrackPointExtension>
            <ns3:atemp>22.0</ns3:atemp>
          </ns3:TrackPointExtension>
        </extensions>
      </trkpt>
      <trkpt lat="42.59327857755124568939208984375" lon="20.131599046289920806884765625">
        <ele>1564.199951171875</ele>
        <time>2026-06-15T08:45:08.000Z</time>
        <extensions>
          <ns3:TrackPointExtension>
            <ns3:atemp>22.0</ns3:atemp>
          </ns3:TrackPointExtension>
        </extensions>
      </trkpt>
      <trkpt lat="42.5932878814637660980224609375" lon="20.13155420310795307159423828125">
        <ele>1564.5999755859375</ele>
        <time>2026-06-15T08:45:09.000Z</time>
        <extensions>
          <ns3:TrackPointExtension>
            <ns3:atemp>22.0</ns3:atemp>
          </ns3:TrackPointExtension>
        </extensions>
      </trkpt>
      <trkpt lat="42.59330104105174541473388671875" lon="20.13151078484952449798583984375">
        <ele>1564.800048828125</ele>
        <time>2026-06-15T08:45:10.000Z</time>
        <extensions>
          <ns3:TrackPointExtension>
            <ns3:atemp>22.0</ns3:atemp>
          </ns3:TrackPointExtension>
        </extensions>
      </trkpt>
      <trkpt lat="42.593311853706836700439453125" lon="20.1314687915146350860595703125">
        <ele>1565.199951171875</ele>
        <time>2026-06-15T08:45:11.000Z</time>
        <extensions>
          <ns3:TrackPointExtension>
            <ns3:atemp>22.0</ns3:atemp>
          </ns3:TrackPointExtension>
        </extensions>
      </trkpt>
      <trkpt lat="42.5933220796287059783935546875" lon="20.1314221881330013275146484375">
        <ele>1565.5999755859375</ele>
        <time>2026-06-15T08:45:12.000Z</time>
        <extensions>
          <ns3:TrackPointExtension>
            <ns3:atemp>22.0</ns3:atemp>
          </ns3:TrackPointExtension>
        </extensions>
      </trkpt>
      <trkpt lat="42.59333021007478237152099609375" lon="20.1313755847513675689697265625">
        <ele>1565.800048828125</ele>
        <time>2026-06-15T08:45:13.000Z</time>
        <extensions>
          <ns3:TrackPointExtension>
            <ns3:atemp>22.0</ns3:atemp>
          </ns3:TrackPointExtension>
        </extensions>
      </trkpt>
      <trkpt lat="42.59334244765341281890869140625" lon="20.1313336752355098724365234375">
        <ele>1566.199951171875</ele>
        <time>2026-06-15T08:45:14.000Z</time>
        <extensions>
          <ns3:TrackPointExtension>
            <ns3:atemp>22.0</ns3:atemp>
          </ns3:TrackPointExtension>
        </extensions>
      </trkpt>
      <trkpt lat="42.59335183538496494293212890625" lon="20.13129486702382564544677734375">
        <ele>1566.4000244140625</ele>
        <time>2026-06-15T08:45:15.000Z</time>
        <extensions>
          <ns3:TrackPointExtension>
            <ns3:atemp>22.0</ns3:atemp>
          </ns3:TrackPointExtension>
        </extensions>
      </trkpt>
      <trkpt lat="42.59335770271718502044677734375" lon="20.13125916011631488800048828125">
        <ele>1566.5999755859375</ele>
        <time>2026-06-15T08:45:16.000Z</time>
        <extensions>
          <ns3:TrackPointExtension>
            <ns3:atemp>22.0</ns3:atemp>
          </ns3:TrackPointExtension>
        </extensions>
      </trkpt>
      <trkpt lat="42.59336457587778568267822265625" lon="20.13122362084686756134033203125">
        <ele>1567</ele>
        <time>2026-06-15T08:45:17.000Z</time>
        <extensions>
          <ns3:TrackPointExtension>
            <ns3:atemp>22.0</ns3:atemp>
          </ns3:TrackPointExtension>
        </extensions>
      </trkpt>
      <trkpt lat="42.5933760590851306915283203125" lon="20.13118204660713672637939453125">
        <ele>1567.199951171875</ele>
        <time>2026-06-15T08:45:18.000Z</time>
        <extensions>
          <ns3:TrackPointExtension>
            <ns3:atemp>22.0</ns3:atemp>
          </ns3:TrackPointExtension>
        </extensions>
      </trkpt>
      <trkpt lat="42.59338603354990482330322265625" lon="20.13113779015839099884033203125">
        <ele>1567.5999755859375</ele>
        <time>2026-06-15T08:45:19.000Z</time>
        <extensions>
          <ns3:TrackPointExtension>
            <ns3:atemp>22.0</ns3:atemp>
          </ns3:TrackPointExtension>
        </extensions>
      </trkpt>
      <trkpt lat="42.5933965109288692474365234375" lon="20.1310919411480426788330078125">
        <ele>1568</ele>
        <time>2026-06-15T08:45:20.000Z</time>
        <extensions>
          <ns3:TrackPointExtension>
            <ns3:atemp>22.0</ns3:atemp>
          </ns3:TrackPointExtension>
        </extensions>
      </trkpt>
      <trkpt lat="42.5934038870036602020263671875" lon="20.13104760088026523590087890625">
        <ele>1568.199951171875</ele>
        <time>2026-06-15T08:45:21.000Z</time>
        <extensions>
          <ns3:TrackPointExtension>
            <ns3:atemp>22.0</ns3:atemp>
          </ns3:TrackPointExtension>
        </extensions>
      </trkpt>
      <trkpt lat="42.59341143071651458740234375" lon="20.13100124895572662353515625">
        <ele>1568.5999755859375</ele>
        <time>2026-06-15T08:45:22.000Z</time>
        <extensions>
          <ns3:TrackPointExtension>
            <ns3:atemp>22.0</ns3:atemp>
          </ns3:TrackPointExtension>
        </extensions>
      </trkpt>
      <trkpt lat="42.59341771714389324188232421875" lon="20.1309591718018054962158203125">
        <ele>1569</ele>
        <time>2026-06-15T08:45:23.000Z</time>
        <extensions>
          <ns3:TrackPointExtension>
            <ns3:atemp>22.0</ns3:atemp>
          </ns3:TrackPointExtension>
        </extensions>
      </trkpt>
      <trkpt lat="42.59342341683804988861083984375" lon="20.13091650791466236114501953125">
        <ele>1569.4000244140625</ele>
        <time>2026-06-15T08:45:24.000Z</time>
        <extensions>
          <ns3:TrackPointExtension>
            <ns3:atemp>22.0</ns3:atemp>
          </ns3:TrackPointExtension>
        </extensions>
      </trkpt>
      <trkpt lat="42.59342618286609649658203125" lon="20.1308766938745975494384765625">
        <ele>1569.5999755859375</ele>
        <time>2026-06-15T08:45:25.000Z</time>
        <extensions>
          <ns3:TrackPointExtension>
            <ns3:atemp>22.0</ns3:atemp>
          </ns3:TrackPointExtension>
        </extensions>
      </trkpt>
      <trkpt lat="42.59342878125607967376708984375" lon="20.1308394782245159149169921875">
        <ele>1569.800048828125</ele>
        <time>2026-06-15T08:45:26.000Z</time>
        <extensions>
          <ns3:TrackPointExtension>
            <ns3:atemp>22.0</ns3:atemp>
          </ns3:TrackPointExtension>
        </extensions>
      </trkpt>
      <trkpt lat="42.5934303738176822662353515625" lon="20.130797736346721649169921875">
        <ele>1570.199951171875</ele>
        <time>2026-06-15T08:45:27.000Z</time>
        <extensions>
          <ns3:TrackPointExtension>
            <ns3:atemp>22.0</ns3:atemp>
          </ns3:TrackPointExtension>
        </extensions>
      </trkpt>
      <trkpt lat="42.5934280268847942352294921875" lon="20.130750797688961029052734375">
        <ele>1570.4000244140625</ele>
        <time>2026-06-15T08:45:28.000Z</time>
        <extensions>
          <ns3:TrackPointExtension>
            <ns3:atemp>22.0</ns3:atemp>
          </ns3:TrackPointExtension>
        </extensions>
      </trkpt>
      <trkpt lat="42.593427859246730804443359375" lon="20.1307006739079952239990234375">
        <ele>1570.800048828125</ele>
        <time>2026-06-15T08:45:29.000Z</time>
        <extensions>
          <ns3:TrackPointExtension>
            <ns3:atemp>22.0</ns3:atemp>
          </ns3:TrackPointExtension>
        </extensions>
      </trkpt>
      <trkpt lat="42.5934266857802867889404296875" lon="20.130652897059917449951171875">
        <ele>1571</ele>
        <time>2026-06-15T08:45:30.000Z</time>
        <extensions>
          <ns3:TrackPointExtension>
            <ns3:atemp>22.0</ns3:atemp>
          </ns3:TrackPointExtension>
        </extensions>
      </trkpt>
      <trkpt lat="42.59342425502836704254150390625" lon="20.130605287849903106689453125">
        <ele>1571.4000244140625</ele>
        <time>2026-06-15T08:45:31.000Z</time>
        <extensions>
          <ns3:TrackPointExtension>
            <ns3:atemp>22.0</ns3:atemp>
          </ns3:TrackPointExtension>
        </extensions>
      </trkpt>
      <trkpt lat="42.5934223271906375885009765625" lon="20.130559019744396209716796875">
        <ele>1571.5999755859375</ele>
        <time>2026-06-15T08:45:32.000Z</time>
        <extensions>
          <ns3:TrackPointExtension>
            <ns3:atemp>22.0</ns3:atemp>
          </ns3:TrackPointExtension>
        </extensions>
      </trkpt>
      <trkpt lat="42.593419812619686126708984375" lon="20.13051417656242847442626953125">
        <ele>1571.800048828125</ele>
        <time>2026-06-15T08:45:33.000Z</time>
        <extensions>
          <ns3:TrackPointExtension>
            <ns3:atemp>22.0</ns3:atemp>
          </ns3:TrackPointExtension>
        </extensions>
      </trkpt>
      <trkpt lat="42.593415789306163787841796875" lon="20.1304703392088413238525390625">
        <ele>1572.199951171875</ele>
        <time>2026-06-15T08:45:34.000Z</time>
        <extensions>
          <ns3:TrackPointExtension>
            <ns3:atemp>22.0</ns3:atemp>
          </ns3:TrackPointExtension>
        </extensions>
      </trkpt>
      <trkpt lat="42.593414783477783203125" lon="20.13042834587395191192626953125">
        <ele>1572.4000244140625</ele>
        <time>2026-06-15T08:45:35.000Z</time>
        <extensions>
          <ns3:TrackPointExtension>
            <ns3:atemp>22.0</ns3:atemp>
          </ns3:TrackPointExtension>
        </extensions>
      </trkpt>
      <trkpt lat="42.5934115983545780181884765625" lon="20.13038241304457187652587890625">
        <ele>1572.5999755859375</ele>
        <time>2026-06-15T08:45:36.000Z</time>
        <extensions>
          <ns3:TrackPointExtension>
            <ns3:atemp>22.0</ns3:atemp>
          </ns3:TrackPointExtension>
        </extensions>
      </trkpt>
      <trkpt lat="42.59340606629848480224609375" lon="20.13033606112003326416015625">
        <ele>1573</ele>
        <time>2026-06-15T08:45:37.000Z</time>
        <extensions>
          <ns3:TrackPointExtension>
            <ns3:atemp>22.0</ns3:atemp>
          </ns3:TrackPointExtension>
        </extensions>
      </trkpt>
      <trkpt lat="42.59340204298496246337890625" lon="20.13029574416577816009521484375">
        <ele>1573.199951171875</ele>
        <time>2026-06-15T08:45:38.000Z</time>
        <extensions>
          <ns3:TrackPointExtension>
            <ns3:atemp>22.0</ns3:atemp>
          </ns3:TrackPointExtension>
        </extensions>
      </trkpt>
      <trkpt lat="42.593395002186298370361328125" lon="20.1302510686218738555908203125">
        <ele>1573.5999755859375</ele>
        <time>2026-06-15T08:45:39.000Z</time>
        <extensions>
          <ns3:TrackPointExtension>
            <ns3:atemp>22.0</ns3:atemp>
          </ns3:TrackPointExtension>
        </extensions>
      </trkpt>
      <trkpt lat="42.59338335134088993072509765625" lon="20.13020991347730159759521484375">
        <ele>1573.800048828125</ele>
        <time>2026-06-15T08:45:40.000Z</time>
        <extensions>
          <ns3:TrackPointExtension>
            <ns3:atemp>22.0</ns3:atemp>
          </ns3:TrackPointExtension>
        </extensions>
      </trkpt>
      <trkpt lat="42.59337111376225948333740234375" lon="20.13016305863857269287109375">
        <ele>1574</ele>
        <time>2026-06-15T08:45:41.000Z</time>
        <extensions>
          <ns3:TrackPointExtension>
            <ns3:atemp>22.0</ns3:atemp>
          </ns3:TrackPointExtension>
        </extensions>
      </trkpt>
      <trkpt lat="42.5933606363832950592041015625" lon="20.1301182992756366729736328125">
        <ele>1574.199951171875</ele>
        <time>2026-06-15T08:45:42.000Z</time>
        <extensions>
          <ns3:TrackPointExtension>
            <ns3:atemp>22.0</ns3:atemp>
          </ns3:TrackPointExtension>
        </extensions>
      </trkpt>
      <trkpt lat="42.59334982372820377349853515625" lon="20.13007630594074726104736328125">
        <ele>1574.4000244140625</ele>
        <time>2026-06-15T08:45:43.000Z</time>
        <extensions>
          <ns3:TrackPointExtension>
            <ns3:atemp>22.0</ns3:atemp>
          </ns3:TrackPointExtension>
        </extensions>
      </trkpt>
      <trkpt lat="42.59334110654890537261962890625" lon="20.13003154657781124114990234375">
        <ele>1574.5999755859375</ele>
        <time>2026-06-15T08:45:44.000Z</time>
        <extensions>
          <ns3:TrackPointExtension>
            <ns3:atemp>22.0</ns3:atemp>
          </ns3:TrackPointExtension>
        </extensions>
      </trkpt>
      <trkpt lat="42.5933267734944820404052734375" lon="20.12998494319617748260498046875">
        <ele>1575</ele>
        <time>2026-06-15T08:45:45.000Z</time>
        <extensions>
          <ns3:TrackPointExtension>
            <ns3:atemp>22.0</ns3:atemp>
          </ns3:TrackPointExtension>
        </extensions>
      </trkpt>
      <trkpt lat="42.59331344626843929290771484375" lon="20.12993909418582916259765625">
        <ele>1575.4000244140625</ele>
        <time>2026-06-15T08:45:46.000Z</time>
        <extensions>
          <ns3:TrackPointExtension>
            <ns3:atemp>22.0</ns3:atemp>
          </ns3:TrackPointExtension>
        </extensions>
      </trkpt>
      <trkpt lat="42.5932999514043331146240234375" lon="20.12989215552806854248046875">
        <ele>1575.5999755859375</ele>
        <time>2026-06-15T08:45:47.000Z</time>
        <extensions>
          <ns3:TrackPointExtension>
            <ns3:atemp>22.0</ns3:atemp>
          </ns3:TrackPointExtension>
        </extensions>
      </trkpt>
      <trkpt lat="42.59328444488346576690673828125" lon="20.129845552146434783935546875">
        <ele>1575.800048828125</ele>
        <time>2026-06-15T08:45:48.000Z</time>
        <extensions>
          <ns3:TrackPointExtension>
            <ns3:atemp>22.0</ns3:atemp>
          </ns3:TrackPointExtension>
        </extensions>
      </trkpt>
      <trkpt lat="42.59326935745775699615478515625" lon="20.1298001222312450408935546875">
        <ele>1576</ele>
        <time>2026-06-15T08:45:49.000Z</time>
        <extensions>
          <ns3:TrackPointExtension>
            <ns3:atemp>22.0</ns3:atemp>
          </ns3:TrackPointExtension>
        </extensions>
      </trkpt>
      <trkpt lat="42.59325427003204822540283203125" lon="20.12975812889635562896728515625">
        <ele>1576.199951171875</ele>
        <time>2026-06-15T08:45:50.000Z</time>
        <extensions>
          <ns3:TrackPointExtension>
            <ns3:atemp>22.0</ns3:atemp>
          </ns3:TrackPointExtension>
        </extensions>
      </trkpt>
      <trkpt lat="42.5932359136641025543212890625" lon="20.1297136209905147552490234375">
        <ele>1576.4000244140625</ele>
        <time>2026-06-15T08:45:51.000Z</time>
        <extensions>
          <ns3:TrackPointExtension>
            <ns3:atemp>22.0</ns3:atemp>
          </ns3:TrackPointExtension>
        </extensions>
      </trkpt>
      <trkpt lat="42.5932204909622669219970703125" lon="20.1296703703701496124267578125">
        <ele>1576.5999755859375</ele>
        <time>2026-06-15T08:45:52.000Z</time>
        <extensions>
          <ns3:TrackPointExtension>
            <ns3:atemp>22.0</ns3:atemp>
          </ns3:TrackPointExtension>
        </extensions>
      </trkpt>
      <trkpt lat="42.59320565499365329742431640625" lon="20.12962795794010162353515625">
        <ele>1576.5999755859375</ele>
        <time>2026-06-15T08:45:53.000Z</time>
        <extensions>
          <ns3:TrackPointExtension>
            <ns3:atemp>22.0</ns3:atemp>
          </ns3:TrackPointExtension>
        </extensions>
      </trkpt>
      <trkpt lat="42.5931936688721179962158203125" lon="20.1295838691294193267822265625">
        <ele>1577</ele>
        <time>2026-06-15T08:45:54.000Z</time>
        <extensions>
          <ns3:TrackPointExtension>
            <ns3:atemp>22.0</ns3:atemp>
          </ns3:TrackPointExtension>
        </extensions>
      </trkpt>
      <trkpt lat="42.5931849516928195953369140625" lon="20.12953651137650012969970703125">
        <ele>1577.199951171875</ele>
        <time>2026-06-15T08:45:55.000Z</time>
        <extensions>
          <ns3:TrackPointExtension>
            <ns3:atemp>22.0</ns3:atemp>
          </ns3:TrackPointExtension>
        </extensions>
      </trkpt>
      <trkpt lat="42.593180425465106964111328125" lon="20.12948638759553432464599609375">
        <ele>1577.4000244140625</ele>
        <time>2026-06-15T08:45:56.000Z</time>
        <extensions>
          <ns3:TrackPointExtension>
            <ns3:atemp>22.0</ns3:atemp>
          </ns3:TrackPointExtension>
        </extensions>
      </trkpt>
      <trkpt lat="42.59318201802670955657958984375" lon="20.129435174167156219482421875">
        <ele>1577.800048828125</ele>
        <time>2026-06-15T08:45:57.000Z</time>
        <extensions>
          <ns3:TrackPointExtension>
            <ns3:atemp>22.0</ns3:atemp>
          </ns3:TrackPointExtension>
        </extensions>
      </trkpt>
      <trkpt lat="42.5931881368160247802734375" lon="20.12938932515680789947509765625">
        <ele>1578</ele>
        <time>2026-06-15T08:45:58.000Z</time>
        <extensions>
          <ns3:TrackPointExtension>
            <ns3:atemp>22.0</ns3:atemp>
          </ns3:TrackPointExtension>
        </extensions>
      </trkpt>
      <trkpt lat="42.5931988656520843505859375" lon="20.1293424703180789947509765625">
        <ele>1578.4000244140625</ele>
        <time>2026-06-15T08:45:59.000Z</time>
        <extensions>
          <ns3:TrackPointExtension>
            <ns3:atemp>22.0</ns3:atemp>
          </ns3:TrackPointExtension>
        </extensions>
      </trkpt>
      <trkpt lat="42.5932137854397296905517578125" lon="20.12929813005030155181884765625">
        <ele>1578.800048828125</ele>
        <time>2026-06-15T08:46:00.000Z</time>
        <extensions>
          <ns3:TrackPointExtension>
            <ns3:atemp>22.0</ns3:atemp>
          </ns3:TrackPointExtension>
        </extensions>
      </trkpt>
      <trkpt lat="42.59323306381702423095703125" lon="20.1292559690773487091064453125">
        <ele>1579.199951171875</ele>
        <time>2026-06-15T08:46:01.000Z</time>
        <extensions>
          <ns3:TrackPointExtension>
            <ns3:atemp>22.0</ns3:atemp>
          </ns3:TrackPointExtension>
        </extensions>
      </trkpt>
      <trkpt lat="42.59325192309916019439697265625" lon="20.12921934016048908233642578125">
        <ele>1579.800048828125</ele>
        <time>2026-06-15T08:46:02.000Z</time>
        <extensions>
          <ns3:TrackPointExtension>
            <ns3:atemp>22.0</ns3:atemp>
          </ns3:TrackPointExtension>
        </extensions>
      </trkpt>
      <trkpt lat="42.59328067302703857421875" lon="20.12919067405164241790771484375">
        <ele>1580.199951171875</ele>
        <time>2026-06-15T08:46:03.000Z</time>
        <extensions>
          <ns3:TrackPointExtension>
            <ns3:atemp>22.0</ns3:atemp>
          </ns3:TrackPointExtension>
        </extensions>
      </trkpt>
      <trkpt lat="42.5933123566210269927978515625" lon="20.12917273677885532379150390625">
        <ele>1580.5999755859375</ele>
        <time>2026-06-15T08:46:04.000Z</time>
        <extensions>
          <ns3:TrackPointExtension>
            <ns3:atemp>22.0</ns3:atemp>
          </ns3:TrackPointExtension>
        </extensions>
      </trkpt>
      <trkpt lat="42.59333892725408077239990234375" lon="20.12915614061057567596435546875">
        <ele>1580.800048828125</ele>
        <time>2026-06-15T08:46:05.000Z</time>
        <extensions>
          <ns3:TrackPointExtension>
            <ns3:atemp>22.0</ns3:atemp>
          </ns3:TrackPointExtension>
        </extensions>
      </trkpt>
      <trkpt lat="42.5933616422116756439208984375" lon="20.12914021499454975128173828125">
        <ele>1581.199951171875</ele>
        <time>2026-06-15T08:46:06.000Z</time>
        <extensions>
          <ns3:TrackPointExtension>
            <ns3:atemp>22.0</ns3:atemp>
          </ns3:TrackPointExtension>
        </extensions>
      </trkpt>
      <trkpt lat="42.5933864526450634002685546875" lon="20.12912563048303127288818359375">
        <ele>1581.5999755859375</ele>
        <time>2026-06-15T08:46:07.000Z</time>
        <extensions>
          <ns3:TrackPointExtension>
            <ns3:atemp>22.0</ns3:atemp>
          </ns3:TrackPointExtension>
        </extensions>
      </trkpt>
      <trkpt lat="42.59341143071651458740234375" lon="20.12910752557218074798583984375">
        <ele>1581.800048828125</ele>
        <time>2026-06-15T08:46:08.000Z</time>
        <extensions>
          <ns3:TrackPointExtension>
            <ns3:atemp>22.0</ns3:atemp>
          </ns3:TrackPointExtension>
        </extensions>
      </trkpt>
      <trkpt lat="42.5934337265789508819580078125" lon="20.129091851413249969482421875">
        <ele>1582.199951171875</ele>
        <time>2026-06-15T08:46:09.000Z</time>
        <extensions>
          <ns3:TrackPointExtension>
            <ns3:atemp>22.0</ns3:atemp>
          </ns3:TrackPointExtension>
        </extensions>
      </trkpt>
      <trkpt lat="42.5934531725943088531494140625" lon="20.12907483614981174468994140625">
        <ele>1582.4000244140625</ele>
        <time>2026-06-15T08:46:10.000Z</time>
        <extensions>
          <ns3:TrackPointExtension>
            <ns3:atemp>22.0</ns3:atemp>
          </ns3:TrackPointExtension>
        </extensions>
      </trkpt>
      <trkpt lat="42.593476809561252593994140625" lon="20.12906125746667385101318359375">
        <ele>1582.4000244140625</ele>
        <time>2026-06-15T08:46:11.000Z</time>
        <extensions>
          <ns3:TrackPointExtension>
            <ns3:atemp>22.0</ns3:atemp>
          </ns3:TrackPointExtension>
        </extensions>
      </trkpt>
      <trkpt lat="42.59350673295557498931884765625" lon="20.1290534622967243194580078125">
        <ele>1582.5999755859375</ele>
        <time>2026-06-15T08:46:12.000Z</time>
        <extensions>
          <ns3:TrackPointExtension>
            <ns3:atemp>22.0</ns3:atemp>
          </ns3:TrackPointExtension>
        </extensions>
      </trkpt>
      <trkpt lat="42.5935410149395465850830078125" lon="20.1290521211922168731689453125">
        <ele>1582.5999755859375</ele>
        <time>2026-06-15T08:46:13.000Z</time>
        <extensions>
          <ns3:TrackPointExtension>
            <ns3:atemp>22.0</ns3:atemp>
          </ns3:TrackPointExtension>
        </extensions>
      </trkpt>
      <trkpt lat="42.59357512928545475006103515625" lon="20.12904264964163303375244140625">
        <ele>1582.800048828125</ele>
        <time>2026-06-15T08:46:14.000Z</time>
        <extensions>
          <ns3:TrackPointExtension>
            <ns3:atemp>22.0</ns3:atemp>
          </ns3:TrackPointExtension>
        </extensions>
      </trkpt>
      <trkpt lat="42.59360580705106258392333984375" lon="20.129026807844638824462890625">
        <ele>1583</ele>
        <time>2026-06-15T08:46:15.000Z</time>
        <extensions>
          <ns3:TrackPointExtension>
            <ns3:atemp>22.0</ns3:atemp>
          </ns3:TrackPointExtension>
        </extensions>
      </trkpt>
      <trkpt lat="42.59363212622702121734619140625" lon="20.12900392524898052215576171875">
        <ele>1583.199951171875</ele>
        <time>2026-06-15T08:46:16.000Z</time>
        <extensions>
          <ns3:TrackPointExtension>
            <ns3:atemp>22.0</ns3:atemp>
          </ns3:TrackPointExtension>
        </extensions>
      </trkpt>
      <trkpt lat="42.5936593674123287200927734375" lon="20.12897877953946590423583984375">
        <ele>1583.4000244140625</ele>
        <time>2026-06-15T08:46:17.000Z</time>
        <extensions>
          <ns3:TrackPointExtension>
            <ns3:atemp>22.0</ns3:atemp>
          </ns3:TrackPointExtension>
        </extensions>
      </trkpt>
      <trkpt lat="42.5936892069876194000244140625" lon="20.12895547784864902496337890625">
        <ele>1583.800048828125</ele>
        <time>2026-06-15T08:46:18.000Z</time>
        <extensions>
          <ns3:TrackPointExtension>
            <ns3:atemp>22.0</ns3:atemp>
          </ns3:TrackPointExtension>
        </extensions>
      </trkpt>
      <trkpt lat="42.59372013621032238006591796875" lon="20.1289314217865467071533203125">
        <ele>1584</ele>
        <time>2026-06-15T08:46:19.000Z</time>
        <extensions>
          <ns3:TrackPointExtension>
            <ns3:atemp>22.0</ns3:atemp>
          </ns3:TrackPointExtension>
        </extensions>
      </trkpt>
      <trkpt lat="42.5937525741755962371826171875" lon="20.12890937738120555877685546875">
        <ele>1584.199951171875</ele>
        <time>2026-06-15T08:46:20.000Z</time>
        <extensions>
          <ns3:TrackPointExtension>
            <ns3:atemp>22.0</ns3:atemp>
          </ns3:TrackPointExtension>
        </extensions>
      </trkpt>
      <trkpt lat="42.593787275254726409912109375" lon="20.12888859026134014129638671875">
        <ele>1584.5999755859375</ele>
        <time>2026-06-15T08:46:21.000Z</time>
        <extensions>
          <ns3:TrackPointExtension>
            <ns3:atemp>22.0</ns3:atemp>
          </ns3:TrackPointExtension>
        </extensions>
      </trkpt>
      <trkpt lat="42.59382021613419055938720703125" lon="20.1288630254566669464111328125">
        <ele>1584.800048828125</ele>
        <time>2026-06-15T08:46:22.000Z</time>
        <extensions>
          <ns3:TrackPointExtension>
            <ns3:atemp>22.0</ns3:atemp>
          </ns3:TrackPointExtension>
        </extensions>
      </trkpt>
      <trkpt lat="42.59385206736624240875244140625" lon="20.128838382661342620849609375">
        <ele>1585</ele>
        <time>2026-06-15T08:46:23.000Z</time>
        <extensions>
          <ns3:TrackPointExtension>
            <ns3:atemp>22.0</ns3:atemp>
          </ns3:TrackPointExtension>
        </extensions>
      </trkpt>
      <trkpt lat="42.593883834779262542724609375" lon="20.128811895847320556640625">
        <ele>1585.199951171875</ele>
        <time>2026-06-15T08:46:24.000Z</time>
        <extensions>
          <ns3:TrackPointExtension>
            <ns3:atemp>22.0</ns3:atemp>
          </ns3:TrackPointExtension>
        </extensions>
      </trkpt>
      <trkpt lat="42.59391392581164836883544921875" lon="20.12878817506134510040283203125">
        <ele>1585.4000244140625</ele>
        <time>2026-06-15T08:46:25.000Z</time>
        <extensions>
          <ns3:TrackPointExtension>
            <ns3:atemp>22.0</ns3:atemp>
          </ns3:TrackPointExtension>
        </extensions>
      </trkpt>
      <trkpt lat="42.593945525586605072021484375" lon="20.12876520864665508270263671875">
        <ele>1585.5999755859375</ele>
        <time>2026-06-15T08:46:26.000Z</time>
        <extensions>
          <ns3:TrackPointExtension>
            <ns3:atemp>22.0</ns3:atemp>
          </ns3:TrackPointExtension>
        </extensions>
      </trkpt>
      <trkpt lat="42.59397578425705432891845703125" lon="20.1287434995174407958984375">
        <ele>1585.800048828125</ele>
        <time>2026-06-15T08:46:27.000Z</time>
        <extensions>
          <ns3:TrackPointExtension>
            <ns3:atemp>22.0</ns3:atemp>
          </ns3:TrackPointExtension>
        </extensions>
      </trkpt>
      <trkpt lat="42.59400545619428157806396484375" lon="20.12872162275016307830810546875">
        <ele>1586</ele>
        <time>2026-06-15T08:46:28.000Z</time>
        <extensions>
          <ns3:TrackPointExtension>
            <ns3:atemp>22.0</ns3:atemp>
          </ns3:TrackPointExtension>
        </extensions>
      </trkpt>
      <trkpt lat="42.59403261356055736541748046875" lon="20.12869656085968017578125">
        <ele>1586.4000244140625</ele>
        <time>2026-06-15T08:46:29.000Z</time>
        <extensions>
          <ns3:TrackPointExtension>
            <ns3:atemp>22.0</ns3:atemp>
          </ns3:TrackPointExtension>
        </extensions>
      </trkpt>
      <trkpt lat="42.5940598547458648681640625" lon="20.12867049314081668853759765625">
        <ele>1586.800048828125</ele>
        <time>2026-06-15T08:46:30.000Z</time>
        <extensions>
          <ns3:TrackPointExtension>
            <ns3:atemp>22.0</ns3:atemp>
          </ns3:TrackPointExtension>
        </extensions>
      </trkpt>
      <trkpt lat="42.59408843703567981719970703125" lon="20.12864467687904834747314453125">
        <ele>1587</ele>
        <time>2026-06-15T08:46:31.000Z</time>
        <extensions>
          <ns3:TrackPointExtension>
            <ns3:atemp>22.0</ns3:atemp>
          </ns3:TrackPointExtension>
        </extensions>
      </trkpt>
      <trkpt lat="42.594117186963558197021484375" lon="20.1286226324737071990966796875">
        <ele>1587.199951171875</ele>
        <time>2026-06-15T08:46:32.000Z</time>
        <extensions>
          <ns3:TrackPointExtension>
            <ns3:atemp>22.0</ns3:atemp>
          </ns3:TrackPointExtension>
        </extensions>
      </trkpt>
      <trkpt lat="42.5941455177962779998779296875" lon="20.12859974987804889678955078125">
        <ele>1587.4000244140625</ele>
        <time>2026-06-15T08:46:33.000Z</time>
        <extensions>
          <ns3:TrackPointExtension>
            <ns3:atemp>22.0</ns3:atemp>
          </ns3:TrackPointExtension>
        </extensions>
      </trkpt>
      <trkpt lat="42.59417460300028324127197265625" lon="20.12857644818723201751708984375">
        <ele>1587.5999755859375</ele>
        <time>2026-06-15T08:46:34.000Z</time>
        <extensions>
          <ns3:TrackPointExtension>
            <ns3:atemp>22.0</ns3:atemp>
          </ns3:TrackPointExtension>
        </extensions>
      </trkpt>
      <trkpt lat="42.5942008383572101593017578125" lon="20.12855297885835170745849609375">
        <ele>1587.800048828125</ele>
        <time>2026-06-15T08:46:35.000Z</time>
        <extensions>
          <ns3:TrackPointExtension>
            <ns3:atemp>22.0</ns3:atemp>
          </ns3:TrackPointExtension>
        </extensions>
      </trkpt>
      <trkpt lat="42.594227492809295654296875" lon="20.12852867133915424346923828125">
        <ele>1588</ele>
        <time>2026-06-15T08:46:36.000Z</time>
        <extensions>
          <ns3:TrackPointExtension>
            <ns3:atemp>22.0</ns3:atemp>
          </ns3:TrackPointExtension>
        </extensions>
      </trkpt>
      <trkpt lat="42.594253979623317718505859375" lon="20.12850436381995677947998046875">
        <ele>1588.199951171875</ele>
        <time>2026-06-15T08:46:37.000Z</time>
        <extensions>
          <ns3:TrackPointExtension>
            <ns3:atemp>22.0</ns3:atemp>
          </ns3:TrackPointExtension>
        </extensions>
      </trkpt>
      <trkpt lat="42.5942759402096271514892578125" lon="20.1284781284630298614501953125">
        <ele>1588.4000244140625</ele>
        <time>2026-06-15T08:46:38.000Z</time>
        <extensions>
          <ns3:TrackPointExtension>
            <ns3:atemp>22.0</ns3:atemp>
          </ns3:TrackPointExtension>
        </extensions>
      </trkpt>
      <trkpt lat="42.59429899044334888458251953125" lon="20.12845046818256378173828125">
        <ele>1588.5999755859375</ele>
        <time>2026-06-15T08:46:39.000Z</time>
        <extensions>
          <ns3:TrackPointExtension>
            <ns3:atemp>22.0</ns3:atemp>
          </ns3:TrackPointExtension>
        </extensions>
      </trkpt>
      <trkpt lat="42.59432514198124408721923828125" lon="20.1284238137304782867431640625">
        <ele>1588.800048828125</ele>
        <time>2026-06-15T08:46:40.000Z</time>
        <extensions>
          <ns3:TrackPointExtension>
            <ns3:atemp>22.0</ns3:atemp>
          </ns3:TrackPointExtension>
        </extensions>
      </trkpt>
      <trkpt lat="42.5943522155284881591796875" lon="20.1284010149538516998291015625">
        <ele>1589</ele>
        <time>2026-06-15T08:46:41.000Z</time>
        <extensions>
          <ns3:TrackPointExtension>
            <ns3:atemp>22.0</ns3:atemp>
          </ns3:TrackPointExtension>
        </extensions>
      </trkpt>
      <trkpt lat="42.5943808816373348236083984375" lon="20.12837679125368595123291015625">
        <ele>1589</ele>
        <time>2026-06-15T08:46:42.000Z</time>
        <extensions>
          <ns3:TrackPointExtension>
            <ns3:atemp>22.0</ns3:atemp>
          </ns3:TrackPointExtension>
        </extensions>
      </trkpt>
      <trkpt lat="42.59441080503165721893310546875" lon="20.128350220620632171630859375">
        <ele>1589</ele>
        <time>2026-06-15T08:46:43.000Z</time>
        <extensions>
          <ns3:TrackPointExtension>
            <ns3:atemp>22.0</ns3:atemp>
          </ns3:TrackPointExtension>
        </extensions>
      </trkpt>
      <trkpt lat="42.59444165043532848358154296875" lon="20.12832499109208583831787109375">
        <ele>1589.199951171875</ele>
        <time>2026-06-15T08:46:44.000Z</time>
        <extensions>
          <ns3:TrackPointExtension>
            <ns3:atemp>22.0</ns3:atemp>
          </ns3:TrackPointExtension>
        </extensions>
      </trkpt>
      <trkpt lat="42.5944747589528560638427734375" lon="20.1283014379441738128662109375">
        <ele>1589.199951171875</ele>
        <time>2026-06-15T08:46:45.000Z</time>
        <extensions>
          <ns3:TrackPointExtension>
            <ns3:atemp>22.0</ns3:atemp>
          </ns3:TrackPointExtension>
        </extensions>
      </trkpt>
      <trkpt lat="42.594507448375225067138671875" lon="20.1282767951488494873046875">
        <ele>1589.199951171875</ele>
        <time>2026-06-15T08:46:46.000Z</time>
        <extensions>
          <ns3:TrackPointExtension>
            <ns3:atemp>22.0</ns3:atemp>
          </ns3:TrackPointExtension>
        </extensions>
      </trkpt>
      <trkpt lat="42.59453921578824520111083984375" lon="20.12825340963900089263916015625">
        <ele>1589.4000244140625</ele>
        <time>2026-06-15T08:46:47.000Z</time>
        <extensions>
          <ns3:TrackPointExtension>
            <ns3:atemp>22.0</ns3:atemp>
          </ns3:TrackPointExtension>
        </extensions>
      </trkpt>
      <trkpt lat="42.59456955827772617340087890625" lon="20.1282290183007717132568359375">
        <ele>1589.5999755859375</ele>
        <time>2026-06-15T08:46:48.000Z</time>
        <extensions>
          <ns3:TrackPointExtension>
            <ns3:atemp>22.0</ns3:atemp>
          </ns3:TrackPointExtension>
        </extensions>
      </trkpt>
      <trkpt lat="42.59459671564400196075439453125" lon="20.1282032020390033721923828125">
        <ele>1590</ele>
        <time>2026-06-15T08:46:49.000Z</time>
        <extensions>
          <ns3:TrackPointExtension>
            <ns3:atemp>22.0</ns3:atemp>
          </ns3:TrackPointExtension>
        </extensions>
      </trkpt>
      <trkpt lat="42.594626806676387786865234375" lon="20.12818266637623310089111328125">
        <ele>1590.199951171875</ele>
        <time>2026-06-15T08:46:50.000Z</time>
        <extensions>
          <ns3:TrackPointExtension>
            <ns3:atemp>22.0</ns3:atemp>
          </ns3:TrackPointExtension>
        </extensions>
      </trkpt>
      <trkpt lat="42.59465463459491729736328125" lon="20.1281622983515262603759765625">
        <ele>1590.800048828125</ele>
        <time>2026-06-15T08:46:51.000Z</time>
        <extensions>
          <ns3:TrackPointExtension>
            <ns3:atemp>22.0</ns3:atemp>
          </ns3:TrackPointExtension>
        </extensions>
      </trkpt>
      <trkpt lat="42.5946816243231296539306640625" lon="20.12813623063266277313232421875">
        <ele>1591</ele>
        <time>2026-06-15T08:46:52.000Z</time>
        <extensions>
          <ns3:TrackPointExtension>
            <ns3:atemp>22.0</ns3:atemp>
          </ns3:TrackPointExtension>
        </extensions>
      </trkpt>
      <trkpt lat="42.594709955155849456787109375" lon="20.12811125256121158599853515625">
        <ele>1591.4000244140625</ele>
        <time>2026-06-15T08:46:53.000Z</time>
        <extensions>
          <ns3:TrackPointExtension>
            <ns3:atemp>22.0</ns3:atemp>
          </ns3:TrackPointExtension>
        </extensions>
      </trkpt>
      <trkpt lat="42.59474004618823528289794921875" lon="20.1280890405178070068359375">
        <ele>1591.5999755859375</ele>
        <time>2026-06-15T08:46:54.000Z</time>
        <extensions>
          <ns3:TrackPointExtension>
            <ns3:atemp>22.0</ns3:atemp>
          </ns3:TrackPointExtension>
        </extensions>
      </trkpt>
      <trkpt lat="42.59476921521127223968505859375" lon="20.12806833721697330474853515625">
        <ele>1591.800048828125</ele>
        <time>2026-06-15T08:46:55.000Z</time>
        <extensions>
          <ns3:TrackPointExtension>
            <ns3:atemp>22.0</ns3:atemp>
          </ns3:TrackPointExtension>
        </extensions>
      </trkpt>
      <trkpt lat="42.59479771368205547332763671875" lon="20.12804855592548847198486328125">
        <ele>1592</ele>
        <time>2026-06-15T08:46:56.000Z</time>
        <extensions>
          <ns3:TrackPointExtension>
            <ns3:atemp>22.0</ns3:atemp>
          </ns3:TrackPointExtension>
        </extensions>
      </trkpt>
      <trkpt lat="42.59481959044933319091796875" lon="20.12802693061530590057373046875">
        <ele>1592.4000244140625</ele>
        <time>2026-06-15T08:46:57.000Z</time>
        <extensions>
          <ns3:TrackPointExtension>
            <ns3:atemp>22.0</ns3:atemp>
          </ns3:TrackPointExtension>
        </extensions>
      </trkpt>
      <trkpt lat="42.59484264068305492401123046875" lon="20.12800631113350391387939453125">
        <ele>1592.800048828125</ele>
        <time>2026-06-15T08:46:58.000Z</time>
        <extensions>
          <ns3:TrackPointExtension>
            <ns3:atemp>22.0</ns3:atemp>
          </ns3:TrackPointExtension>
        </extensions>
      </trkpt>
      <trkpt lat="42.59487080387771129608154296875" lon="20.127984769642353057861328125">
        <ele>1593.199951171875</ele>
        <time>2026-06-15T08:46:59.000Z</time>
        <extensions>
          <ns3:TrackPointExtension>
            <ns3:atemp>22.0</ns3:atemp>
          </ns3:TrackPointExtension>
        </extensions>
      </trkpt>
      <trkpt lat="42.594898380339145660400390625" lon="20.127961635589599609375">
        <ele>1593.5999755859375</ele>
        <time>2026-06-15T08:47:00.000Z</time>
        <extensions>
          <ns3:TrackPointExtension>
            <ns3:atemp>22.0</ns3:atemp>
          </ns3:TrackPointExtension>
        </extensions>
      </trkpt>
      <trkpt lat="42.59492696262896060943603515625" lon="20.1279376633465290069580078125">
        <ele>1593.800048828125</ele>
        <time>2026-06-15T08:47:01.000Z</time>
        <extensions>
          <ns3:TrackPointExtension>
            <ns3:atemp>22.0</ns3:atemp>
          </ns3:TrackPointExtension>
        </extensions>
      </trkpt>
      <trkpt lat="42.594957388937473297119140625" lon="20.12791276909410953521728515625">
        <ele>1594.199951171875</ele>
        <time>2026-06-15T08:47:02.000Z</time>
        <extensions>
          <ns3:TrackPointExtension>
            <ns3:atemp>22.0</ns3:atemp>
          </ns3:TrackPointExtension>
        </extensions>
      </trkpt>
      <trkpt lat="42.59498697705566883087158203125" lon="20.1278917305171489715576171875">
        <ele>1594.4000244140625</ele>
        <time>2026-06-15T08:47:03.000Z</time>
        <extensions>
          <ns3:TrackPointExtension>
            <ns3:atemp>22.0</ns3:atemp>
          </ns3:TrackPointExtension>
        </extensions>
      </trkpt>
      <trkpt lat="42.59501731954514980316162109375" lon="20.12787245213985443115234375">
        <ele>1594.800048828125</ele>
        <time>2026-06-15T08:47:04.000Z</time>
        <extensions>
          <ns3:TrackPointExtension>
            <ns3:atemp>22.0</ns3:atemp>
          </ns3:TrackPointExtension>
        </extensions>
      </trkpt>
      <trkpt lat="42.59504917077720165252685546875" lon="20.12785057537257671356201171875">
        <ele>1595</ele>
        <time>2026-06-15T08:47:05.000Z</time>
        <extensions>
          <ns3:TrackPointExtension>
            <ns3:atemp>22.0</ns3:atemp>
          </ns3:TrackPointExtension>
        </extensions>
      </trkpt>
      <trkpt lat="42.59507968090474605560302734375" lon="20.12783221900463104248046875">
        <ele>1595.199951171875</ele>
        <time>2026-06-15T08:47:06.000Z</time>
        <extensions>
          <ns3:TrackPointExtension>
            <ns3:atemp>22.0</ns3:atemp>
          </ns3:TrackPointExtension>
        </extensions>
      </trkpt>
      <trkpt lat="42.595110274851322174072265625" lon="20.12781302444636821746826171875">
        <ele>1595.199951171875</ele>
        <time>2026-06-15T08:47:07.000Z</time>
        <extensions>
          <ns3:TrackPointExtension>
            <ns3:atemp>22.0</ns3:atemp>
          </ns3:TrackPointExtension>
        </extensions>
      </trkpt>
      <trkpt lat="42.59513936005532741546630859375" lon="20.127794332802295684814453125">
        <ele>1595.4000244140625</ele>
        <time>2026-06-15T08:47:08.000Z</time>
        <extensions>
          <ns3:TrackPointExtension>
            <ns3:atemp>22.0</ns3:atemp>
          </ns3:TrackPointExtension>
        </extensions>
      </trkpt>
      <trkpt lat="42.595167942345142364501953125" lon="20.1277740485966205596923828125">
        <ele>1595.800048828125</ele>
        <time>2026-06-15T08:47:09.000Z</time>
        <extensions>
          <ns3:TrackPointExtension>
            <ns3:atemp>22.0</ns3:atemp>
          </ns3:TrackPointExtension>
        </extensions>
      </trkpt>
      <trkpt lat="42.5951971113681793212890625" lon="20.127755105495452880859375">
        <ele>1596</ele>
        <time>2026-06-15T08:47:10.000Z</time>
        <extensions>
          <ns3:TrackPointExtension>
            <ns3:atemp>22.0</ns3:atemp>
          </ns3:TrackPointExtension>
        </extensions>
      </trkpt>
      <trkpt lat="42.595228962600231170654296875" lon="20.1277411915361881256103515625">
        <ele>1596.199951171875</ele>
        <time>2026-06-15T08:47:11.000Z</time>
        <extensions>
          <ns3:TrackPointExtension>
            <ns3:atemp>22.0</ns3:atemp>
          </ns3:TrackPointExtension>
        </extensions>
      </trkpt>
      <trkpt lat="42.59525704197585582733154296875" lon="20.12772602029144763946533203125">
        <ele>1596.5999755859375</ele>
        <time>2026-06-15T08:47:12.000Z</time>
        <extensions>
          <ns3:TrackPointExtension>
            <ns3:atemp>22.0</ns3:atemp>
          </ns3:TrackPointExtension>
        </extensions>
      </trkpt>
      <trkpt lat="42.595287300646305084228515625" lon="20.12770741246640682220458984375">
        <ele>1597</ele>
        <time>2026-06-15T08:47:13.000Z</time>
        <extensions>
          <ns3:TrackPointExtension>
            <ns3:atemp>22.0</ns3:atemp>
          </ns3:TrackPointExtension>
        </extensions>
      </trkpt>
      <trkpt lat="42.5953146256506443023681640625" lon="20.127688385546207427978515625">
        <ele>1597.199951171875</ele>
        <time>2026-06-15T08:47:14.000Z</time>
        <extensions>
          <ns3:TrackPointExtension>
            <ns3:atemp>22.0</ns3:atemp>
          </ns3:TrackPointExtension>
        </extensions>
      </trkpt>
      <trkpt lat="42.59534128010272979736328125" lon="20.12766986154019832611083984375">
        <ele>1597.5999755859375</ele>
        <time>2026-06-15T08:47:15.000Z</time>
        <extensions>
          <ns3:TrackPointExtension>
            <ns3:atemp>22.0</ns3:atemp>
          </ns3:TrackPointExtension>
        </extensions>
      </trkpt>
      <trkpt lat="42.59536667726933956146240234375" lon="20.12764857150614261627197265625">
        <ele>1597.800048828125</ele>
        <time>2026-06-15T08:47:16.000Z</time>
        <extensions>
          <ns3:TrackPointExtension>
            <ns3:atemp>22.0</ns3:atemp>
          </ns3:TrackPointExtension>
        </extensions>
      </trkpt>
      <trkpt lat="42.5953934155404567718505859375" lon="20.1276282034814357757568359375">
        <ele>1598.199951171875</ele>
        <time>2026-06-15T08:47:17.000Z</time>
        <extensions>
          <ns3:TrackPointExtension>
            <ns3:atemp>22.0</ns3:atemp>
          </ns3:TrackPointExtension>
        </extensions>
      </trkpt>
      <trkpt lat="42.595419399440288543701171875" lon="20.127599202096462249755859375">
        <ele>1598.5999755859375</ele>
        <time>2026-06-15T08:47:18.000Z</time>
        <extensions>
          <ns3:TrackPointExtension>
            <ns3:atemp>22.0</ns3:atemp>
          </ns3:TrackPointExtension>
        </extensions>
      </trkpt>
      <trkpt lat="42.59544580243527889251708984375" lon="20.12756693176925182342529296875">
        <ele>1599</ele>
        <time>2026-06-15T08:47:19.000Z</time>
        <extensions>
          <ns3:TrackPointExtension>
            <ns3:atemp>22.0</ns3:atemp>
          </ns3:TrackPointExtension>
        </extensions>
      </trkpt>
      <trkpt lat="42.59547178633511066436767578125" lon="20.12753373943269252777099609375">
        <ele>1599.5999755859375</ele>
        <time>2026-06-15T08:47:20.000Z</time>
        <extensions>
          <ns3:TrackPointExtension>
            <ns3:atemp>22.0</ns3:atemp>
          </ns3:TrackPointExtension>
        </extensions>
      </trkpt>
      <trkpt lat="42.595495171844959259033203125" lon="20.12750021182000637054443359375">
        <ele>1600.199951171875</ele>
        <time>2026-06-15T08:47:21.000Z</time>
        <extensions>
          <ns3:TrackPointExtension>
            <ns3:atemp>22.0</ns3:atemp>
          </ns3:TrackPointExtension>
        </extensions>
      </trkpt>
      <trkpt lat="42.5955161266028881072998046875" lon="20.12746785767376422882080078125">
        <ele>1600.5999755859375</ele>
        <time>2026-06-15T08:47:22.000Z</time>
        <extensions>
          <ns3:TrackPointExtension>
            <ns3:atemp>22.0</ns3:atemp>
          </ns3:TrackPointExtension>
        </extensions>
      </trkpt>
      <trkpt lat="42.59553548879921436309814453125" lon="20.12743164785206317901611328125">
        <ele>1601.199951171875</ele>
        <time>2026-06-15T08:47:23.000Z</time>
        <extensions>
          <ns3:TrackPointExtension>
            <ns3:atemp>22.0</ns3:atemp>
          </ns3:TrackPointExtension>
        </extensions>
      </trkpt>
      <trkpt lat="42.59555107913911342620849609375" lon="20.12739342637360095977783203125">
        <ele>1601.800048828125</ele>
        <time>2026-06-15T08:47:24.000Z</time>
        <extensions>
          <ns3:TrackPointExtension>
            <ns3:atemp>22.0</ns3:atemp>
          </ns3:TrackPointExtension>
        </extensions>
      </trkpt>
      <trkpt lat="42.595563232898712158203125" lon="20.12735704891383647918701171875">
        <ele>1602</ele>
        <time>2026-06-15T08:47:25.000Z</time>
        <extensions>
          <ns3:TrackPointExtension>
            <ns3:atemp>22.0</ns3:atemp>
          </ns3:TrackPointExtension>
        </extensions>
      </trkpt>
      <trkpt lat="42.59557706303894519805908203125" lon="20.12732167728245258331298828125">
        <ele>1602.4000244140625</ele>
        <time>2026-06-15T08:47:26.000Z</time>
        <extensions>
          <ns3:TrackPointExtension>
            <ns3:atemp>22.0</ns3:atemp>
          </ns3:TrackPointExtension>
        </extensions>
      </trkpt>
      <trkpt lat="42.59558930061757564544677734375" lon="20.1272808574140071868896484375">
        <ele>1602.800048828125</ele>
        <time>2026-06-15T08:47:27.000Z</time>
        <extensions>
          <ns3:TrackPointExtension>
            <ns3:atemp>22.0</ns3:atemp>
          </ns3:TrackPointExtension>
        </extensions>
      </trkpt>
      <trkpt lat="42.59560070000588893890380859375" lon="20.1272399537265300750732421875">
        <ele>1603</ele>
        <time>2026-06-15T08:47:28.000Z</time>
        <extensions>
          <ns3:TrackPointExtension>
            <ns3:atemp>22.0</ns3:atemp>
          </ns3:TrackPointExtension>
        </extensions>
      </trkpt>
      <trkpt lat="42.59561209939420223236083984375" lon="20.1272024028003215789794921875">
        <ele>1603.5999755859375</ele>
        <time>2026-06-15T08:47:29.000Z</time>
        <extensions>
          <ns3:TrackPointExtension>
            <ns3:atemp>22.0</ns3:atemp>
          </ns3:TrackPointExtension>
        </extensions>
      </trkpt>
      <trkpt lat="42.595619894564151763916015625" lon="20.1271638460457324981689453125">
        <ele>1604</ele>
        <time>2026-06-15T08:47:30.000Z</time>
        <extensions>
          <ns3:TrackPointExtension>
            <ns3:atemp>22.0</ns3:atemp>
          </ns3:TrackPointExtension>
        </extensions>
      </trkpt>
      <trkpt lat="42.5956324674189090728759765625" lon="20.12712277472019195556640625">
        <ele>1604.4000244140625</ele>
        <time>2026-06-15T08:47:31.000Z</time>
        <extensions>
          <ns3:TrackPointExtension>
            <ns3:atemp>22.0</ns3:atemp>
          </ns3:TrackPointExtension>
        </extensions>
      </trkpt>
      <trkpt lat="42.59564193896949291229248046875" lon="20.127088241279125213623046875">
        <ele>1604.800048828125</ele>
        <time>2026-06-15T08:47:32.000Z</time>
        <extensions>
          <ns3:TrackPointExtension>
            <ns3:atemp>22.0</ns3:atemp>
          </ns3:TrackPointExtension>
        </extensions>
      </trkpt>
      <trkpt lat="42.5956530869007110595703125" lon="20.127047337591648101806640625">
        <ele>1605</ele>
        <time>2026-06-15T08:47:33.000Z</time>
        <extensions>
          <ns3:TrackPointExtension>
            <ns3:atemp>22.0</ns3:atemp>
          </ns3:TrackPointExtension>
        </extensions>
      </trkpt>
      <trkpt lat="42.59566356427967548370361328125" lon="20.12700651772320270538330078125">
        <ele>1605.4000244140625</ele>
        <time>2026-06-15T08:47:34.000Z</time>
        <extensions>
          <ns3:TrackPointExtension>
            <ns3:atemp>22.0</ns3:atemp>
          </ns3:TrackPointExtension>
        </extensions>
      </trkpt>
      <trkpt lat="42.59567244909703731536865234375" lon="20.126968212425708770751953125">
        <ele>1606</ele>
        <time>2026-06-15T08:47:35.000Z</time>
        <extensions>
          <ns3:TrackPointExtension>
            <ns3:atemp>22.0</ns3:atemp>
          </ns3:TrackPointExtension>
        </extensions>
      </trkpt>
      <trkpt lat="42.59568233974277973175048828125" lon="20.12692772783339023590087890625">
        <ele>1606.4000244140625</ele>
        <time>2026-06-15T08:47:36.000Z</time>
        <extensions>
          <ns3:TrackPointExtension>
            <ns3:atemp>22.0</ns3:atemp>
          </ns3:TrackPointExtension>
        </extensions>
      </trkpt>
      <trkpt lat="42.595694996416568756103515625" lon="20.1268909312784671783447265625">
        <ele>1606.800048828125</ele>
        <time>2026-06-15T08:47:37.000Z</time>
        <extensions>
          <ns3:TrackPointExtension>
            <ns3:atemp>22.0</ns3:atemp>
          </ns3:TrackPointExtension>
        </extensions>
      </trkpt>
      <trkpt lat="42.595706395804882049560546875" lon="20.12684994377195835113525390625">
        <ele>1607.199951171875</ele>
        <time>2026-06-15T08:47:38.000Z</time>
        <extensions>
          <ns3:TrackPointExtension>
            <ns3:atemp>22.0</ns3:atemp>
          </ns3:TrackPointExtension>
        </extensions>
      </trkpt>
      <trkpt lat="42.5957166217267513275146484375" lon="20.12681507505476474761962890625">
        <ele>1607.5999755859375</ele>
        <time>2026-06-15T08:47:39.000Z</time>
        <extensions>
          <ns3:TrackPointExtension>
            <ns3:atemp>22.0</ns3:atemp>
          </ns3:TrackPointExtension>
        </extensions>
      </trkpt>
      <trkpt lat="42.59572885930538177490234375" lon="20.12677769176661968231201171875">
        <ele>1607.800048828125</ele>
        <time>2026-06-15T08:47:40.000Z</time>
        <extensions>
          <ns3:TrackPointExtension>
            <ns3:atemp>22.0</ns3:atemp>
          </ns3:TrackPointExtension>
        </extensions>
      </trkpt>
      <trkpt lat="42.59573824703693389892578125" lon="20.126740224659442901611328125">
        <ele>1608.4000244140625</ele>
        <time>2026-06-15T08:47:41.000Z</time>
        <extensions>
          <ns3:TrackPointExtension>
            <ns3:atemp>22.0</ns3:atemp>
          </ns3:TrackPointExtension>
        </extensions>
      </trkpt>
      <trkpt lat="42.59574805386364459991455078125" lon="20.1267077028751373291015625">
        <ele>1608.800048828125</ele>
        <time>2026-06-15T08:47:42.000Z</time>
        <extensions>
          <ns3:TrackPointExtension>
            <ns3:atemp>22.0</ns3:atemp>
          </ns3:TrackPointExtension>
        </extensions>
      </trkpt>
      <trkpt lat="42.59575962089002132415771484375" lon="20.12667082250118255615234375">
        <ele>1609.199951171875</ele>
        <time>2026-06-15T08:47:43.000Z</time>
        <extensions>
          <ns3:TrackPointExtension>
            <ns3:atemp>22.0</ns3:atemp>
          </ns3:TrackPointExtension>
        </extensions>
      </trkpt>
      <trkpt lat="42.595772780478000640869140625" lon="20.12663352303206920623779296875">
        <ele>1609.5999755859375</ele>
        <time>2026-06-15T08:47:44.000Z</time>
        <extensions>
          <ns3:TrackPointExtension>
            <ns3:atemp>22.0</ns3:atemp>
          </ns3:TrackPointExtension>
        </extensions>
      </trkpt>
      <trkpt lat="42.59578677825629711151123046875" lon="20.1265982352197170257568359375">
        <ele>1610</ele>
        <time>2026-06-15T08:47:45.000Z</time>
        <extensions>
          <ns3:TrackPointExtension>
            <ns3:atemp>22.0</ns3:atemp>
          </ns3:TrackPointExtension>
        </extensions>
      </trkpt>
      <trkpt lat="42.59580153040587902069091796875" lon="20.1265600137412548065185546875">
        <ele>1610.5999755859375</ele>
        <time>2026-06-15T08:47:46.000Z</time>
        <extensions>
          <ns3:TrackPointExtension>
            <ns3:atemp>22.0</ns3:atemp>
          </ns3:TrackPointExtension>
        </extensions>
      </trkpt>
      <trkpt lat="42.59581343270838260650634765625" lon="20.12651785276830196380615234375">
        <ele>1611</ele>
        <time>2026-06-15T08:47:47.000Z</time>
        <extensions>
          <ns3:TrackPointExtension>
            <ns3:atemp>22.0</ns3:atemp>
          </ns3:TrackPointExtension>
        </extensions>
      </trkpt>
      <trkpt lat="42.5958205573260784149169921875" lon="20.1264731772243976593017578125">
        <ele>1611.199951171875</ele>
        <time>2026-06-15T08:47:48.000Z</time>
        <extensions>
          <ns3:TrackPointExtension>
            <ns3:atemp>22.0</ns3:atemp>
          </ns3:TrackPointExtension>
        </extensions>
      </trkpt>
      <trkpt lat="42.5958259217441082000732421875" lon="20.1264341175556182861328125">
        <ele>1611.4000244140625</ele>
        <time>2026-06-15T08:47:49.000Z</time>
        <extensions>
          <ns3:TrackPointExtension>
            <ns3:atemp>22.0</ns3:atemp>
          </ns3:TrackPointExtension>
        </extensions>
      </trkpt>
      <trkpt lat="42.59582885541021823883056640625" lon="20.12639681808650493621826171875">
        <ele>1611.5999755859375</ele>
        <time>2026-06-15T08:47:50.000Z</time>
        <extensions>
          <ns3:TrackPointExtension>
            <ns3:atemp>22.0</ns3:atemp>
          </ns3:TrackPointExtension>
        </extensions>
      </trkpt>
      <trkpt lat="42.595830447971820831298828125" lon="20.12635566294193267822265625">
        <ele>1611.5999755859375</ele>
        <time>2026-06-15T08:47:51.000Z</time>
        <extensions>
          <ns3:TrackPointExtension>
            <ns3:atemp>22.0</ns3:atemp>
          </ns3:TrackPointExtension>
        </extensions>
      </trkpt>
      <trkpt lat="42.595833130180835723876953125" lon="20.12631945312023162841796875">
        <ele>1611.800048828125</ele>
        <time>2026-06-15T08:47:52.000Z</time>
        <extensions>
          <ns3:TrackPointExtension>
            <ns3:atemp>22.0</ns3:atemp>
          </ns3:TrackPointExtension>
        </extensions>
      </trkpt>
      <trkpt lat="42.59584193117916584014892578125" lon="20.12627787888050079345703125">
        <ele>1612.199951171875</ele>
        <time>2026-06-15T08:47:53.000Z</time>
        <extensions>
          <ns3:TrackPointExtension>
            <ns3:atemp>22.0</ns3:atemp>
          </ns3:TrackPointExtension>
        </extensions>
      </trkpt>
      <trkpt lat="42.59585492312908172607421875" lon="20.126237981021404266357421875">
        <ele>1612.5999755859375</ele>
        <time>2026-06-15T08:47:54.000Z</time>
        <extensions>
          <ns3:TrackPointExtension>
            <ns3:atemp>22.0</ns3:atemp>
          </ns3:TrackPointExtension>
        </extensions>
      </trkpt>
      <trkpt lat="42.59586657397449016571044921875" lon="20.12619799934327602386474609375">
        <ele>1613.199951171875</ele>
        <time>2026-06-15T08:47:55.000Z</time>
        <extensions>
          <ns3:TrackPointExtension>
            <ns3:atemp>22.0</ns3:atemp>
          </ns3:TrackPointExtension>
        </extensions>
      </trkpt>
      <trkpt lat="42.59588149376213550567626953125" lon="20.126161538064479827880859375">
        <ele>1613.5999755859375</ele>
        <time>2026-06-15T08:47:56.000Z</time>
        <extensions>
          <ns3:TrackPointExtension>
            <ns3:atemp>22.0</ns3:atemp>
          </ns3:TrackPointExtension>
        </extensions>
      </trkpt>
      <trkpt lat="42.59589171968400478363037109375" lon="20.12612759135663509368896484375">
        <ele>1614.199951171875</ele>
        <time>2026-06-15T08:47:57.000Z</time>
        <extensions>
          <ns3:TrackPointExtension>
            <ns3:atemp>22.0</ns3:atemp>
          </ns3:TrackPointExtension>
        </extensions>
      </trkpt>
      <trkpt lat="42.59590311907231807708740234375" lon="20.1260926388204097747802734375">
        <ele>1614.5999755859375</ele>
        <time>2026-06-15T08:47:58.000Z</time>
        <extensions>
          <ns3:TrackPointExtension>
            <ns3:atemp>22.0</ns3:atemp>
          </ns3:TrackPointExtension>
        </extensions>
      </trkpt>
      <trkpt lat="42.59591183625161647796630859375" lon="20.1260554231703281402587890625">
        <ele>1615</ele>
        <time>2026-06-15T08:47:59.000Z</time>
        <extensions>
          <ns3:TrackPointExtension>
            <ns3:atemp>22.0</ns3:atemp>
          </ns3:TrackPointExtension>
        </extensions>
      </trkpt>
      <trkpt lat="42.5959197990596294403076171875" lon="20.1260165311396121978759765625">
        <ele>1615.4000244140625</ele>
        <time>2026-06-15T08:48:00.000Z</time>
        <extensions>
          <ns3:TrackPointExtension>
            <ns3:atemp>22.0</ns3:atemp>
          </ns3:TrackPointExtension>
        </extensions>
      </trkpt>
      <trkpt lat="42.5959248282015323638916015625" lon="20.12597872875630855560302734375">
        <ele>1615.5999755859375</ele>
        <time>2026-06-15T08:48:01.000Z</time>
        <extensions>
          <ns3:TrackPointExtension>
            <ns3:atemp>22.0</ns3:atemp>
          </ns3:TrackPointExtension>
        </extensions>
      </trkpt>
      <trkpt lat="42.59593429975211620330810546875" lon="20.12593883089721202850341796875">
        <ele>1616</ele>
        <time>2026-06-15T08:48:02.000Z</time>
        <extensions>
          <ns3:TrackPointExtension>
            <ns3:atemp>22.0</ns3:atemp>
          </ns3:TrackPointExtension>
        </extensions>
      </trkpt>
      <trkpt lat="42.5959419272840023040771484375" lon="20.1259008608758449554443359375">
        <ele>1616.199951171875</ele>
        <time>2026-06-15T08:48:03.000Z</time>
        <extensions>
          <ns3:TrackPointExtension>
            <ns3:atemp>22.0</ns3:atemp>
          </ns3:TrackPointExtension>
        </extensions>
      </trkpt>
      <trkpt lat="42.59595709852874279022216796875" lon="20.12586624361574649810791015625">
        <ele>1616.4000244140625</ele>
        <time>2026-06-15T08:48:04.000Z</time>
        <extensions>
          <ns3:TrackPointExtension>
            <ns3:atemp>22.0</ns3:atemp>
          </ns3:TrackPointExtension>
        </extensions>
      </trkpt>
      <trkpt lat="42.5959697552025318145751953125" lon="20.12582919560372829437255859375">
        <ele>1616.800048828125</ele>
        <time>2026-06-15T08:48:05.000Z</time>
        <extensions>
          <ns3:TrackPointExtension>
            <ns3:atemp>22.0</ns3:atemp>
          </ns3:TrackPointExtension>
        </extensions>
      </trkpt>
      <trkpt lat="42.59597822092473506927490234375" lon="20.125790722668170928955078125">
        <ele>1617.199951171875</ele>
        <time>2026-06-15T08:48:06.000Z</time>
        <extensions>
          <ns3:TrackPointExtension>
            <ns3:atemp>22.0</ns3:atemp>
          </ns3:TrackPointExtension>
        </extensions>
      </trkpt>
      <trkpt lat="42.5959883630275726318359375" lon="20.12575577013194561004638671875">
        <ele>1617.5999755859375</ele>
        <time>2026-06-15T08:48:07.000Z</time>
        <extensions>
          <ns3:TrackPointExtension>
            <ns3:atemp>22.0</ns3:atemp>
          </ns3:TrackPointExtension>
        </extensions>
      </trkpt>
      <trkpt lat="42.59600152261555194854736328125" lon="20.12572173960506916046142578125">
        <ele>1618.199951171875</ele>
        <time>2026-06-15T08:48:08.000Z</time>
        <extensions>
          <ns3:TrackPointExtension>
            <ns3:atemp>22.0</ns3:atemp>
          </ns3:TrackPointExtension>
        </extensions>
      </trkpt>
      <trkpt lat="42.5960130058228969573974609375" lon="20.1256839372217655181884765625">
        <ele>1618.5999755859375</ele>
        <time>2026-06-15T08:48:09.000Z</time>
        <extensions>
          <ns3:TrackPointExtension>
            <ns3:atemp>22.0</ns3:atemp>
          </ns3:TrackPointExtension>
        </extensions>
      </trkpt>
      <trkpt lat="42.59602532722055912017822265625" lon="20.1256473921239376068115234375">
        <ele>1619</ele>
        <time>2026-06-15T08:48:10.000Z</time>
        <extensions>
          <ns3:TrackPointExtension>
            <ns3:atemp>22.0</ns3:atemp>
          </ns3:TrackPointExtension>
        </extensions>
      </trkpt>
      <trkpt lat="42.59603823535144329071044921875" lon="20.12560942210257053375244140625">
        <ele>1619.4000244140625</ele>
        <time>2026-06-15T08:48:11.000Z</time>
        <extensions>
          <ns3:TrackPointExtension>
            <ns3:atemp>22.0</ns3:atemp>
          </ns3:TrackPointExtension>
        </extensions>
      </trkpt>
      <trkpt lat="42.5960495509207248687744140625" lon="20.1255763135850429534912109375">
        <ele>1619.800048828125</ele>
        <time>2026-06-15T08:48:12.000Z</time>
        <extensions>
          <ns3:TrackPointExtension>
            <ns3:atemp>22.0</ns3:atemp>
          </ns3:TrackPointExtension>
        </extensions>
      </trkpt>
      <trkpt lat="42.59606011211872100830078125" lon="20.12553800828754901885986328125">
        <ele>1620.4000244140625</ele>
        <time>2026-06-15T08:48:13.000Z</time>
        <extensions>
          <ns3:TrackPointExtension>
            <ns3:atemp>22.0</ns3:atemp>
          </ns3:TrackPointExtension>
        </extensions>
      </trkpt>
      <trkpt lat="42.5960726849734783172607421875" lon="20.1255060732364654541015625">
        <ele>1620.800048828125</ele>
        <time>2026-06-15T08:48:14.000Z</time>
        <extensions>
          <ns3:TrackPointExtension>
            <ns3:atemp>22.0</ns3:atemp>
          </ns3:TrackPointExtension>
        </extensions>
      </trkpt>
      <trkpt lat="42.59608483873307704925537109375" lon="20.12547346763312816619873046875">
        <ele>1621.199951171875</ele>
        <time>2026-06-15T08:48:15.000Z</time>
        <extensions>
          <ns3:TrackPointExtension>
            <ns3:atemp>22.0</ns3:atemp>
          </ns3:TrackPointExtension>
        </extensions>
      </trkpt>
      <trkpt lat="42.59609841741621494293212890625" lon="20.12543893419206142425537109375">
        <ele>1621.4000244140625</ele>
        <time>2026-06-15T08:48:16.000Z</time>
        <extensions>
          <ns3:TrackPointExtension>
            <ns3:atemp>22.0</ns3:atemp>
          </ns3:TrackPointExtension>
        </extensions>
      </trkpt>
      <trkpt lat="42.5961109064519405364990234375" lon="20.12540389783680438995361328125">
        <ele>1621.800048828125</ele>
        <time>2026-06-15T08:48:17.000Z</time>
        <extensions>
          <ns3:TrackPointExtension>
            <ns3:atemp>22.0</ns3:atemp>
          </ns3:TrackPointExtension>
        </extensions>
      </trkpt>
      <trkpt lat="42.59612322784960269927978515625" lon="20.1253674365580081939697265625">
        <ele>1622.4000244140625</ele>
        <time>2026-06-15T08:48:18.000Z</time>
        <extensions>
          <ns3:TrackPointExtension>
            <ns3:atemp>22.0</ns3:atemp>
          </ns3:TrackPointExtension>
        </extensions>
      </trkpt>
      <trkpt lat="42.59613613598048686981201171875" lon="20.12533281929790973663330078125">
        <ele>1622.800048828125</ele>
        <time>2026-06-15T08:48:19.000Z</time>
        <extensions>
          <ns3:TrackPointExtension>
            <ns3:atemp>22.0</ns3:atemp>
          </ns3:TrackPointExtension>
        </extensions>
      </trkpt>
      <trkpt lat="42.59615105576813220977783203125" lon="20.12529878877103328704833984375">
        <ele>1623</ele>
        <time>2026-06-15T08:48:20.000Z</time>
        <extensions>
          <ns3:TrackPointExtension>
            <ns3:atemp>22.0</ns3:atemp>
          </ns3:TrackPointExtension>
        </extensions>
      </trkpt>
      <trkpt lat="42.59616698138415813446044921875" lon="20.1252628304064273834228515625">
        <ele>1623.4000244140625</ele>
        <time>2026-06-15T08:48:21.000Z</time>
        <extensions>
          <ns3:TrackPointExtension>
            <ns3:atemp>22.0</ns3:atemp>
          </ns3:TrackPointExtension>
        </extensions>
      </trkpt>
      <trkpt lat="42.5961829908192157745361328125" lon="20.12522653676569461822509765625">
        <ele>1623.5999755859375</ele>
        <time>2026-06-15T08:48:22.000Z</time>
        <extensions>
          <ns3:TrackPointExtension>
            <ns3:atemp>22.0</ns3:atemp>
          </ns3:TrackPointExtension>
        </extensions>
      </trkpt>
      <trkpt lat="42.59619799442589282989501953125" lon="20.12519217096269130706787109375">
        <ele>1623.800048828125</ele>
        <time>2026-06-15T08:48:23.000Z</time>
        <extensions>
          <ns3:TrackPointExtension>
            <ns3:atemp>22.0</ns3:atemp>
          </ns3:TrackPointExtension>
        </extensions>
      </trkpt>
      <trkpt lat="42.59621190838515758514404296875" lon="20.12515679933130741119384765625">
        <ele>1624.199951171875</ele>
        <time>2026-06-15T08:48:24.000Z</time>
        <extensions>
          <ns3:TrackPointExtension>
            <ns3:atemp>22.0</ns3:atemp>
          </ns3:TrackPointExtension>
        </extensions>
      </trkpt>
      <trkpt lat="42.59622666053473949432373046875" lon="20.125120170414447784423828125">
        <ele>1624.5999755859375</ele>
        <time>2026-06-15T08:48:25.000Z</time>
        <extensions>
          <ns3:TrackPointExtension>
            <ns3:atemp>22.0</ns3:atemp>
          </ns3:TrackPointExtension>
        </extensions>
      </trkpt>
      <trkpt lat="42.59624325670301914215087890625" lon="20.12508295476436614990234375">
        <ele>1625</ele>
        <time>2026-06-15T08:48:26.000Z</time>
        <extensions>
          <ns3:TrackPointExtension>
            <ns3:atemp>22.0</ns3:atemp>
          </ns3:TrackPointExtension>
        </extensions>
      </trkpt>
      <trkpt lat="42.596255578100681304931640625" lon="20.12504699639976024627685546875">
        <ele>1625.199951171875</ele>
        <time>2026-06-15T08:48:27.000Z</time>
        <extensions>
          <ns3:TrackPointExtension>
            <ns3:atemp>22.0</ns3:atemp>
          </ns3:TrackPointExtension>
        </extensions>
      </trkpt>
      <trkpt lat="42.59627074934542179107666015625" lon="20.1250157319009304046630859375">
        <ele>1625.5999755859375</ele>
        <time>2026-06-15T08:48:28.000Z</time>
        <extensions>
          <ns3:TrackPointExtension>
            <ns3:atemp>22.0</ns3:atemp>
          </ns3:TrackPointExtension>
        </extensions>
      </trkpt>
      <trkpt lat="42.596289776265621185302734375" lon="20.1249754987657070159912109375">
        <ele>1626</ele>
        <time>2026-06-15T08:48:29.000Z</time>
        <extensions>
          <ns3:TrackPointExtension>
            <ns3:atemp>22.0</ns3:atemp>
          </ns3:TrackPointExtension>
        </extensions>
      </trkpt>
      <trkpt lat="42.59630553424358367919921875" lon="20.12493870221078395843505859375">
        <ele>1626.199951171875</ele>
        <time>2026-06-15T08:48:30.000Z</time>
        <extensions>
          <ns3:TrackPointExtension>
            <ns3:atemp>22.0</ns3:atemp>
          </ns3:TrackPointExtension>
        </extensions>
      </trkpt>
      <trkpt lat="42.59631969965994358062744140625" lon="20.1249027438461780548095703125">
        <ele>1626.5999755859375</ele>
        <time>2026-06-15T08:48:31.000Z</time>
        <extensions>
          <ns3:TrackPointExtension>
            <ns3:atemp>22.0</ns3:atemp>
          </ns3:TrackPointExtension>
        </extensions>
      </trkpt>
      <trkpt lat="42.59633663110435009002685546875" lon="20.12486544437706470489501953125">
        <ele>1627</ele>
        <time>2026-06-15T08:48:32.000Z</time>
        <extensions>
          <ns3:TrackPointExtension>
            <ns3:atemp>22.0</ns3:atemp>
          </ns3:TrackPointExtension>
        </extensions>
      </trkpt>
      <trkpt lat="42.59635456837713718414306640625" lon="20.1248269714415073394775390625">
        <ele>1627.4000244140625</ele>
        <time>2026-06-15T08:48:33.000Z</time>
        <extensions>
          <ns3:TrackPointExtension>
            <ns3:atemp>22.0</ns3:atemp>
          </ns3:TrackPointExtension>
        </extensions>
      </trkpt>
      <trkpt lat="42.596370913088321685791015625" lon="20.124788917601108551025390625">
        <ele>1627.800048828125</ele>
        <time>2026-06-15T08:48:34.000Z</time>
        <extensions>
          <ns3:TrackPointExtension>
            <ns3:atemp>22.0</ns3:atemp>
          </ns3:TrackPointExtension>
        </extensions>
      </trkpt>
      <trkpt lat="42.596387676894664764404296875" lon="20.1247538812458515167236328125">
        <ele>1628</ele>
        <time>2026-06-15T08:48:35.000Z</time>
        <extensions>
          <ns3:TrackPointExtension>
            <ns3:atemp>22.0</ns3:atemp>
          </ns3:TrackPointExtension>
        </extensions>
      </trkpt>
      <trkpt lat="42.59640770964324474334716796875" lon="20.1247159950435161590576171875">
        <ele>1628.4000244140625</ele>
        <time>2026-06-15T08:48:36.000Z</time>
        <extensions>
          <ns3:TrackPointExtension>
            <ns3:atemp>22.0</ns3:atemp>
          </ns3:TrackPointExtension>
        </extensions>
      </trkpt>
      <trkpt lat="42.59642598219215869903564453125" lon="20.1246799528598785400390625">
        <ele>1628.800048828125</ele>
        <time>2026-06-15T08:48:37.000Z</time>
        <extensions>
          <ns3:TrackPointExtension>
            <ns3:atemp>22.0</ns3:atemp>
          </ns3:TrackPointExtension>
        </extensions>
      </trkpt>
      <trkpt lat="42.59644241072237491607666015625" lon="20.12464483268558979034423828125">
        <ele>1629.199951171875</ele>
        <time>2026-06-15T08:48:38.000Z</time>
        <extensions>
          <ns3:TrackPointExtension>
            <ns3:atemp>22.0</ns3:atemp>
          </ns3:TrackPointExtension>
        </extensions>
      </trkpt>
      <trkpt lat="42.59645783342421054840087890625" lon="20.12460811994969844818115234375">
        <ele>1629.5999755859375</ele>
        <time>2026-06-15T08:48:39.000Z</time>
        <extensions>
          <ns3:TrackPointExtension>
            <ns3:atemp>22.0</ns3:atemp>
          </ns3:TrackPointExtension>
        </extensions>
      </trkpt>
      <trkpt lat="42.5964736752212047576904296875" lon="20.124570317566394805908203125">
        <ele>1630</ele>
        <time>2026-06-15T08:48:40.000Z</time>
        <extensions>
          <ns3:TrackPointExtension>
            <ns3:atemp>22.0</ns3:atemp>
          </ns3:TrackPointExtension>
        </extensions>
      </trkpt>
      <trkpt lat="42.5964877568185329437255859375" lon="20.124531090259552001953125">
        <ele>1630.199951171875</ele>
        <time>2026-06-15T08:48:41.000Z</time>
        <extensions>
          <ns3:TrackPointExtension>
            <ns3:atemp>22.0</ns3:atemp>
          </ns3:TrackPointExtension>
        </extensions>
      </trkpt>
      <trkpt lat="42.59649991057813167572021484375" lon="20.12449228204786777496337890625">
        <ele>1630.4000244140625</ele>
        <time>2026-06-15T08:48:42.000Z</time>
        <extensions>
          <ns3:TrackPointExtension>
            <ns3:atemp>22.0</ns3:atemp>
          </ns3:TrackPointExtension>
        </extensions>
      </trkpt>
      <trkpt lat="42.5965095497667789459228515625" lon="20.124456323683261871337890625">
        <ele>1630.800048828125</ele>
        <time>2026-06-15T08:48:43.000Z</time>
        <extensions>
          <ns3:TrackPointExtension>
            <ns3:atemp>22.0</ns3:atemp>
          </ns3:TrackPointExtension>
        </extensions>
      </trkpt>
      <trkpt lat="42.59652086533606052398681640625" lon="20.1244189403951168060302734375">
        <ele>1631</ele>
        <time>2026-06-15T08:48:44.000Z</time>
        <extensions>
          <ns3:TrackPointExtension>
            <ns3:atemp>22.0</ns3:atemp>
          </ns3:TrackPointExtension>
        </extensions>
      </trkpt>
      <trkpt lat="42.59653125889599323272705078125" lon="20.1243810541927814483642578125">
        <ele>1631.4000244140625</ele>
        <time>2026-06-15T08:48:45.000Z</time>
        <extensions>
          <ns3:TrackPointExtension>
            <ns3:atemp>22.0</ns3:atemp>
          </ns3:TrackPointExtension>
        </extensions>
      </trkpt>
      <trkpt lat="42.596542574465274810791015625" lon="20.12434492819011211395263671875">
        <ele>1631.800048828125</ele>
        <time>2026-06-15T08:48:46.000Z</time>
        <extensions>
          <ns3:TrackPointExtension>
            <ns3:atemp>22.0</ns3:atemp>
          </ns3:TrackPointExtension>
        </extensions>
      </trkpt>
      <trkpt lat="42.5965538062155246734619140625" lon="20.12430435977876186370849609375">
        <ele>1632</ele>
        <time>2026-06-15T08:48:47.000Z</time>
        <extensions>
          <ns3:TrackPointExtension>
            <ns3:atemp>22.0</ns3:atemp>
          </ns3:TrackPointExtension>
        </extensions>
      </trkpt>
      <trkpt lat="42.5965652056038379669189453125" lon="20.12426211498677730560302734375">
        <ele>1632.4000244140625</ele>
        <time>2026-06-15T08:48:48.000Z</time>
        <extensions>
          <ns3:TrackPointExtension>
            <ns3:atemp>22.0</ns3:atemp>
          </ns3:TrackPointExtension>
        </extensions>
      </trkpt>
      <trkpt lat="42.596577107906341552734375" lon="20.1242211274802684783935546875">
        <ele>1632.5999755859375</ele>
        <time>2026-06-15T08:48:49.000Z</time>
        <extensions>
          <ns3:TrackPointExtension>
            <ns3:atemp>22.0</ns3:atemp>
          </ns3:TrackPointExtension>
        </extensions>
      </trkpt>
      <trkpt lat="42.59659177623689174652099609375" lon="20.12418013997375965118408203125">
        <ele>1633</ele>
        <time>2026-06-15T08:48:50.000Z</time>
        <extensions>
          <ns3:TrackPointExtension>
            <ns3:atemp>22.0</ns3:atemp>
          </ns3:TrackPointExtension>
        </extensions>
      </trkpt>
      <trkpt lat="42.59660870768129825592041015625" lon="20.12413957156240940093994140625">
        <ele>1633.5999755859375</ele>
        <time>2026-06-15T08:48:51.000Z</time>
        <extensions>
          <ns3:TrackPointExtension>
            <ns3:atemp>22.0</ns3:atemp>
          </ns3:TrackPointExtension>
        </extensions>
      </trkpt>
      <trkpt lat="42.5966258905827999114990234375" lon="20.124099589884281158447265625">
        <ele>1634</ele>
        <time>2026-06-15T08:48:52.000Z</time>
        <extensions>
          <ns3:TrackPointExtension>
            <ns3:atemp>22.0</ns3:atemp>
          </ns3:TrackPointExtension>
        </extensions>
      </trkpt>
      <trkpt lat="42.59664190001785755157470703125" lon="20.12406212277710437774658203125">
        <ele>1634.4000244140625</ele>
        <time>2026-06-15T08:48:53.000Z</time>
        <extensions>
          <ns3:TrackPointExtension>
            <ns3:atemp>22.0</ns3:atemp>
          </ns3:TrackPointExtension>
        </extensions>
      </trkpt>
      <trkpt lat="42.5966597534716129302978515625" lon="20.1240253262221813201904296875">
        <ele>1634.800048828125</ele>
        <time>2026-06-15T08:48:54.000Z</time>
        <extensions>
          <ns3:TrackPointExtension>
            <ns3:atemp>22.0</ns3:atemp>
          </ns3:TrackPointExtension>
        </extensions>
      </trkpt>
      <trkpt lat="42.59667727164924144744873046875" lon="20.12399221770465373992919921875">
        <ele>1635.199951171875</ele>
        <time>2026-06-15T08:48:55.000Z</time>
        <extensions>
          <ns3:TrackPointExtension>
            <ns3:atemp>22.0</ns3:atemp>
          </ns3:TrackPointExtension>
        </extensions>
      </trkpt>
      <trkpt lat="42.59669889695942401885986328125" lon="20.12395801953971385955810546875">
        <ele>1635.5999755859375</ele>
        <time>2026-06-15T08:48:56.000Z</time>
        <extensions>
          <ns3:TrackPointExtension>
            <ns3:atemp>22.0</ns3:atemp>
          </ns3:TrackPointExtension>
        </extensions>
      </trkpt>
      <trkpt lat="42.59672136045992374420166015625" lon="20.1239240728318691253662109375">
        <ele>1636</ele>
        <time>2026-06-15T08:48:57.000Z</time>
        <extensions>
          <ns3:TrackPointExtension>
            <ns3:atemp>22.0</ns3:atemp>
          </ns3:TrackPointExtension>
        </extensions>
      </trkpt>
      <trkpt lat="42.59673845954239368438720703125" lon="20.123891718685626983642578125">
        <ele>1636.199951171875</ele>
        <time>2026-06-15T08:48:58.000Z</time>
        <extensions>
          <ns3:TrackPointExtension>
            <ns3:atemp>22.0</ns3:atemp>
          </ns3:TrackPointExtension>
        </extensions>
      </trkpt>
      <trkpt lat="42.59676042012870311737060546875" lon="20.12385911308228969573974609375">
        <ele>1636.4000244140625</ele>
        <time>2026-06-15T08:48:59.000Z</time>
        <extensions>
          <ns3:TrackPointExtension>
            <ns3:atemp>22.0</ns3:atemp>
          </ns3:TrackPointExtension>
        </extensions>
      </trkpt>
      <trkpt lat="42.59678020142018795013427734375" lon="20.1238275133073329925537109375">
        <ele>1636.800048828125</ele>
        <time>2026-06-15T08:49:00.000Z</time>
        <extensions>
          <ns3:TrackPointExtension>
            <ns3:atemp>22.0</ns3:atemp>
          </ns3:TrackPointExtension>
        </extensions>
      </trkpt>
      <trkpt lat="42.596801407635211944580078125" lon="20.12379239313304424285888671875">
        <ele>1637.199951171875</ele>
        <time>2026-06-15T08:49:01.000Z</time>
        <extensions>
          <ns3:TrackPointExtension>
            <ns3:atemp>22.0</ns3:atemp>
          </ns3:TrackPointExtension>
        </extensions>
      </trkpt>
      <trkpt lat="42.5968267209827899932861328125" lon="20.1237607933580875396728515625">
        <ele>1637.5999755859375</ele>
        <time>2026-06-15T08:49:02.000Z</time>
        <extensions>
          <ns3:TrackPointExtension>
            <ns3:atemp>22.0</ns3:atemp>
          </ns3:TrackPointExtension>
        </extensions>
      </trkpt>
      <trkpt lat="42.5968520343303680419921875" lon="20.1237326301634311676025390625">
        <ele>1638</ele>
        <time>2026-06-15T08:49:03.000Z</time>
        <extensions>
          <ns3:TrackPointExtension>
            <ns3:atemp>22.0</ns3:atemp>
          </ns3:TrackPointExtension>
        </extensions>
      </trkpt>
      <trkpt lat="42.5968780182301998138427734375" lon="20.12370455078780651092529296875">
        <ele>1638.199951171875</ele>
        <time>2026-06-15T08:49:04.000Z</time>
        <extensions>
          <ns3:TrackPointExtension>
            <ns3:atemp>22.0</ns3:atemp>
          </ns3:TrackPointExtension>
        </extensions>
      </trkpt>
      <trkpt lat="42.59690626524388790130615234375" lon="20.12367990799248218536376953125">
        <ele>1638.4000244140625</ele>
        <time>2026-06-15T08:49:05.000Z</time>
        <extensions>
          <ns3:TrackPointExtension>
            <ns3:atemp>22.0</ns3:atemp>
          </ns3:TrackPointExtension>
        </extensions>
      </trkpt>
      <trkpt lat="42.5969340093433856964111328125" lon="20.1236581988632678985595703125">
        <ele>1638.800048828125</ele>
        <time>2026-06-15T08:49:06.000Z</time>
        <extensions>
          <ns3:TrackPointExtension>
            <ns3:atemp>22.0</ns3:atemp>
          </ns3:TrackPointExtension>
        </extensions>
      </trkpt>
      <trkpt lat="42.5969620048999786376953125" lon="20.12363263405859470367431640625">
        <ele>1639</ele>
        <time>2026-06-15T08:49:07.000Z</time>
        <extensions>
          <ns3:TrackPointExtension>
            <ns3:atemp>22.0</ns3:atemp>
          </ns3:TrackPointExtension>
        </extensions>
      </trkpt>
      <trkpt lat="42.59698756970465183258056640625" lon="20.123604722321033477783203125">
        <ele>1639.199951171875</ele>
        <time>2026-06-15T08:49:08.000Z</time>
        <extensions>
          <ns3:TrackPointExtension>
            <ns3:atemp>22.0</ns3:atemp>
          </ns3:TrackPointExtension>
        </extensions>
      </trkpt>
      <trkpt lat="42.59701472707092761993408203125" lon="20.123575888574123382568359375">
        <ele>1639.4000244140625</ele>
        <time>2026-06-15T08:49:09.000Z</time>
        <extensions>
          <ns3:TrackPointExtension>
            <ns3:atemp>22.0</ns3:atemp>
          </ns3:TrackPointExtension>
        </extensions>
      </trkpt>
      <trkpt lat="42.59703568182885646820068359375" lon="20.123550407588481903076171875">
        <ele>1639.800048828125</ele>
        <time>2026-06-15T08:49:10.000Z</time>
        <extensions>
          <ns3:TrackPointExtension>
            <ns3:atemp>22.0</ns3:atemp>
          </ns3:TrackPointExtension>
        </extensions>
      </trkpt>
      <trkpt lat="42.59705496020615100860595703125" lon="20.12352702207863330841064453125">
        <ele>1640</ele>
        <time>2026-06-15T08:49:11.000Z</time>
        <extensions>
          <ns3:TrackPointExtension>
            <ns3:atemp>22.0</ns3:atemp>
          </ns3:TrackPointExtension>
        </extensions>
      </trkpt>
      <trkpt lat="42.5970775075256824493408203125" lon="20.12350053526461124420166015625">
        <ele>1640.4000244140625</ele>
        <time>2026-06-15T08:49:12.000Z</time>
        <extensions>
          <ns3:TrackPointExtension>
            <ns3:atemp>22.0</ns3:atemp>
          </ns3:TrackPointExtension>
        </extensions>
      </trkpt>
      <trkpt lat="42.597101144492626190185546875" lon="20.12347522191703319549560546875">
        <ele>1640.800048828125</ele>
        <time>2026-06-15T08:49:13.000Z</time>
        <extensions>
          <ns3:TrackPointExtension>
            <ns3:atemp>22.0</ns3:atemp>
          </ns3:TrackPointExtension>
        </extensions>
      </trkpt>
      <trkpt lat="42.5971261225640773773193359375" lon="20.1234473101794719696044921875">
        <ele>1641.199951171875</ele>
        <time>2026-06-15T08:49:14.000Z</time>
        <extensions>
          <ns3:TrackPointExtension>
            <ns3:atemp>22.0</ns3:atemp>
          </ns3:TrackPointExtension>
        </extensions>
      </trkpt>
      <trkpt lat="42.59715436957776546478271484375" lon="20.12341872788965702056884765625">
        <ele>1641.5999755859375</ele>
        <time>2026-06-15T08:49:15.000Z</time>
        <extensions>
          <ns3:TrackPointExtension>
            <ns3:atemp>22.0</ns3:atemp>
          </ns3:TrackPointExtension>
        </extensions>
      </trkpt>
      <trkpt lat="42.5971807725727558135986328125" lon="20.12338687665760517120361328125">
        <ele>1641.800048828125</ele>
        <time>2026-06-15T08:49:16.000Z</time>
        <extensions>
          <ns3:TrackPointExtension>
            <ns3:atemp>22.0</ns3:atemp>
          </ns3:TrackPointExtension>
        </extensions>
      </trkpt>
      <trkpt lat="42.597209103405475616455078125" lon="20.1233551092445850372314453125">
        <ele>1642.4000244140625</ele>
        <time>2026-06-15T08:49:17.000Z</time>
        <extensions>
          <ns3:TrackPointExtension>
            <ns3:atemp>22.0</ns3:atemp>
          </ns3:TrackPointExtension>
        </extensions>
      </trkpt>
      <trkpt lat="42.59723760187625885009765625" lon="20.123328454792499542236328125">
        <ele>1642.800048828125</ele>
        <time>2026-06-15T08:49:18.000Z</time>
        <extensions>
          <ns3:TrackPointExtension>
            <ns3:atemp>22.0</ns3:atemp>
          </ns3:TrackPointExtension>
        </extensions>
      </trkpt>
      <trkpt lat="42.59726467542350292205810546875" lon="20.1232987828552722930908203125">
        <ele>1643</ele>
        <time>2026-06-15T08:49:19.000Z</time>
        <extensions>
          <ns3:TrackPointExtension>
            <ns3:atemp>22.0</ns3:atemp>
          </ns3:TrackPointExtension>
        </extensions>
      </trkpt>
      <trkpt lat="42.597290910780429840087890625" lon="20.12327237986028194427490234375">
        <ele>1643.4000244140625</ele>
        <time>2026-06-15T08:49:20.000Z</time>
        <extensions>
          <ns3:TrackPointExtension>
            <ns3:atemp>22.0</ns3:atemp>
          </ns3:TrackPointExtension>
        </extensions>
      </trkpt>
      <trkpt lat="42.597317732870578765869140625" lon="20.1232468150556087493896484375">
        <ele>1643.800048828125</ele>
        <time>2026-06-15T08:49:21.000Z</time>
        <extensions>
          <ns3:TrackPointExtension>
            <ns3:atemp>22.0</ns3:atemp>
          </ns3:TrackPointExtension>
        </extensions>
      </trkpt>
      <trkpt lat="42.5973428785800933837890625" lon="20.1232233457267284393310546875">
        <ele>1644</ele>
        <time>2026-06-15T08:49:22.000Z</time>
        <extensions>
          <ns3:TrackPointExtension>
            <ns3:atemp>22.0</ns3:atemp>
          </ns3:TrackPointExtension>
        </extensions>
      </trkpt>
      <trkpt lat="42.59736710228025913238525390625" lon="20.123197026550769805908203125">
        <ele>1644.199951171875</ele>
        <time>2026-06-15T08:49:23.000Z</time>
        <extensions>
          <ns3:TrackPointExtension>
            <ns3:atemp>22.0</ns3:atemp>
          </ns3:TrackPointExtension>
        </extensions>
      </trkpt>
      <trkpt lat="42.597391493618488311767578125" lon="20.12317313812673091888427734375">
        <ele>1644.5999755859375</ele>
        <time>2026-06-15T08:49:24.000Z</time>
        <extensions>
          <ns3:TrackPointExtension>
            <ns3:atemp>22.0</ns3:atemp>
          </ns3:TrackPointExtension>
        </extensions>
      </trkpt>
      <trkpt lat="42.59741730988025665283203125" lon="20.1231512613594532012939453125">
        <ele>1645</ele>
        <time>2026-06-15T08:49:25.000Z</time>
        <extensions>
          <ns3:TrackPointExtension>
            <ns3:atemp>22.0</ns3:atemp>
          </ns3:TrackPointExtension>
        </extensions>
      </trkpt>
      <trkpt lat="42.597445137798786163330078125" lon="20.12313139624893665313720703125">
        <ele>1645.199951171875</ele>
        <time>2026-06-15T08:49:26.000Z</time>
        <extensions>
          <ns3:TrackPointExtension>
            <ns3:atemp>22.0</ns3:atemp>
          </ns3:TrackPointExtension>
        </extensions>
      </trkpt>
      <trkpt lat="42.59747422300279140472412109375" lon="20.123107172548770904541015625">
        <ele>1645.5999755859375</ele>
        <time>2026-06-15T08:49:27.000Z</time>
        <extensions>
          <ns3:TrackPointExtension>
            <ns3:atemp>22.0</ns3:atemp>
          </ns3:TrackPointExtension>
        </extensions>
      </trkpt>
      <trkpt lat="42.5975019671022891998291015625" lon="20.1230821944773197174072265625">
        <ele>1646</ele>
        <time>2026-06-15T08:49:28.000Z</time>
        <extensions>
          <ns3:TrackPointExtension>
            <ns3:atemp>22.0</ns3:atemp>
          </ns3:TrackPointExtension>
        </extensions>
      </trkpt>
      <trkpt lat="42.5975287891924381256103515625" lon="20.12305864132940769195556640625">
        <ele>1646.199951171875</ele>
        <time>2026-06-15T08:49:29.000Z</time>
        <extensions>
          <ns3:TrackPointExtension>
            <ns3:atemp>22.0</ns3:atemp>
          </ns3:TrackPointExtension>
        </extensions>
      </trkpt>
      <trkpt lat="42.5975572876632213592529296875" lon="20.12303508818149566650390625">
        <ele>1646.5999755859375</ele>
        <time>2026-06-15T08:49:30.000Z</time>
        <extensions>
          <ns3:TrackPointExtension>
            <ns3:atemp>22.0</ns3:atemp>
          </ns3:TrackPointExtension>
        </extensions>
      </trkpt>
      <trkpt lat="42.59758251719176769256591796875" lon="20.12301421724259853363037109375">
        <ele>1646.800048828125</ele>
        <time>2026-06-15T08:49:31.000Z</time>
        <extensions>
          <ns3:TrackPointExtension>
            <ns3:atemp>22.0</ns3:atemp>
          </ns3:TrackPointExtension>
        </extensions>
      </trkpt>
      <trkpt lat="42.59760632179677486419677734375" lon="20.12299024499952793121337890625">
        <ele>1647</ele>
        <time>2026-06-15T08:49:32.000Z</time>
        <extensions>
          <ns3:TrackPointExtension>
            <ns3:atemp>22.0</ns3:atemp>
          </ns3:TrackPointExtension>
        </extensions>
      </trkpt>
      <trkpt lat="42.5976303778588771820068359375" lon="20.122964344918727874755859375">
        <ele>1647.4000244140625</ele>
        <time>2026-06-15T08:49:33.000Z</time>
        <extensions>
          <ns3:TrackPointExtension>
            <ns3:atemp>22.0</ns3:atemp>
          </ns3:TrackPointExtension>
        </extensions>
      </trkpt>
      <trkpt lat="42.5976568646728992462158203125" lon="20.122936181724071502685546875">
        <ele>1647.5999755859375</ele>
        <time>2026-06-15T08:49:34.000Z</time>
        <extensions>
          <ns3:TrackPointExtension>
            <ns3:atemp>22.0</ns3:atemp>
          </ns3:TrackPointExtension>
        </extensions>
      </trkpt>
      <trkpt lat="42.59768377058207988739013671875" lon="20.1229118742048740386962890625">
        <ele>1648</ele>
        <time>2026-06-15T08:49:35.000Z</time>
        <extensions>
          <ns3:TrackPointExtension>
            <ns3:atemp>22.0</ns3:atemp>
          </ns3:TrackPointExtension>
        </extensions>
      </trkpt>
      <trkpt lat="42.59770874865353107452392578125" lon="20.12288161553442478179931640625">
        <ele>1648.199951171875</ele>
        <time>2026-06-15T08:49:36.000Z</time>
        <extensions>
          <ns3:TrackPointExtension>
            <ns3:atemp>22.0</ns3:atemp>
          </ns3:TrackPointExtension>
        </extensions>
      </trkpt>
      <trkpt lat="42.597726099193096160888671875" lon="20.12284825555980205535888671875">
        <ele>1648.4000244140625</ele>
        <time>2026-06-15T08:49:37.000Z</time>
        <extensions>
          <ns3:TrackPointExtension>
            <ns3:atemp>22.0</ns3:atemp>
          </ns3:TrackPointExtension>
        </extensions>
      </trkpt>
      <trkpt lat="42.59774931706488132476806640625" lon="20.12281472794711589813232421875">
        <ele>1648.800048828125</ele>
        <time>2026-06-15T08:49:38.000Z</time>
        <extensions>
          <ns3:TrackPointExtension>
            <ns3:atemp>22.0</ns3:atemp>
          </ns3:TrackPointExtension>
        </extensions>
      </trkpt>
      <trkpt lat="42.5977721996605396270751953125" lon="20.1227841340005397796630859375">
        <ele>1649</ele>
        <time>2026-06-15T08:49:39.000Z</time>
        <extensions>
          <ns3:TrackPointExtension>
            <ns3:atemp>22.0</ns3:atemp>
          </ns3:TrackPointExtension>
        </extensions>
      </trkpt>
      <trkpt lat="42.59779122658073902130126953125" lon="20.12275387533009052276611328125">
        <ele>1649.4000244140625</ele>
        <time>2026-06-15T08:49:40.000Z</time>
        <extensions>
          <ns3:TrackPointExtension>
            <ns3:atemp>22.0</ns3:atemp>
          </ns3:TrackPointExtension>
        </extensions>
      </trkpt>
      <trkpt lat="42.59780882857739925384521484375" lon="20.12272655032575130462646484375">
        <ele>1649.800048828125</ele>
        <time>2026-06-15T08:49:41.000Z</time>
        <extensions>
          <ns3:TrackPointExtension>
            <ns3:atemp>22.0</ns3:atemp>
          </ns3:TrackPointExtension>
        </extensions>
      </trkpt>
      <trkpt lat="42.597827017307281494140625" lon="20.12269151397049427032470703125">
        <ele>1650</ele>
        <time>2026-06-15T08:49:42.000Z</time>
        <extensions>
          <ns3:TrackPointExtension>
            <ns3:atemp>22.0</ns3:atemp>
          </ns3:TrackPointExtension>
        </extensions>
      </trkpt>
      <trkpt lat="42.59784520603716373443603515625" lon="20.1226600818336009979248046875">
        <ele>1650.199951171875</ele>
        <time>2026-06-15T08:49:43.000Z</time>
        <extensions>
          <ns3:TrackPointExtension>
            <ns3:atemp>22.0</ns3:atemp>
          </ns3:TrackPointExtension>
        </extensions>
      </trkpt>
      <trkpt lat="42.59786129929125308990478515625" lon="20.122629739344120025634765625">
        <ele>1650.5999755859375</ele>
        <time>2026-06-15T08:49:44.000Z</time>
        <extensions>
          <ns3:TrackPointExtension>
            <ns3:atemp>22.0</ns3:atemp>
          </ns3:TrackPointExtension>
        </extensions>
      </trkpt>
      <trkpt lat="42.5978734530508518218994140625" lon="20.122600235044956207275390625">
        <ele>1651</ele>
        <time>2026-06-15T08:49:45.000Z</time>
        <extensions>
          <ns3:TrackPointExtension>
            <ns3:atemp>22.0</ns3:atemp>
          </ns3:TrackPointExtension>
        </extensions>
      </trkpt>
      <trkpt lat="42.59788627736270427703857421875" lon="20.1225650310516357421875">
        <ele>1651.199951171875</ele>
        <time>2026-06-15T08:49:46.000Z</time>
        <extensions>
          <ns3:TrackPointExtension>
            <ns3:atemp>22.0</ns3:atemp>
          </ns3:TrackPointExtension>
        </extensions>
      </trkpt>
      <trkpt lat="42.59789876639842987060546875" lon="20.1225316710770130157470703125">
        <ele>1651.5999755859375</ele>
        <time>2026-06-15T08:49:47.000Z</time>
        <extensions>
          <ns3:TrackPointExtension>
            <ns3:atemp>22.0</ns3:atemp>
          </ns3:TrackPointExtension>
        </extensions>
      </trkpt>
      <trkpt lat="42.59791058488190174102783203125" lon="20.12249487452208995819091796875">
        <ele>1652</ele>
        <time>2026-06-15T08:49:48.000Z</time>
        <extensions>
          <ns3:TrackPointExtension>
            <ns3:atemp>22.0</ns3:atemp>
          </ns3:TrackPointExtension>
        </extensions>
      </trkpt>
      <trkpt lat="42.597919888794422149658203125" lon="20.12245816178619861602783203125">
        <ele>1652.199951171875</ele>
        <time>2026-06-15T08:49:49.000Z</time>
        <extensions>
          <ns3:TrackPointExtension>
            <ns3:atemp>22.0</ns3:atemp>
          </ns3:TrackPointExtension>
        </extensions>
      </trkpt>
      <trkpt lat="42.59792516939342021942138671875" lon="20.1224237121641635894775390625">
        <ele>1652.5999755859375</ele>
        <time>2026-06-15T08:49:50.000Z</time>
        <extensions>
          <ns3:TrackPointExtension>
            <ns3:atemp>22.0</ns3:atemp>
          </ns3:TrackPointExtension>
        </extensions>
      </trkpt>
      <trkpt lat="42.5979321263730525970458984375" lon="20.12238909490406513214111328125">
        <ele>1653</ele>
        <time>2026-06-15T08:49:51.000Z</time>
        <extensions>
          <ns3:TrackPointExtension>
            <ns3:atemp>22.0</ns3:atemp>
          </ns3:TrackPointExtension>
        </extensions>
      </trkpt>
      <trkpt lat="42.597942352294921875" lon="20.12235254980623722076416015625">
        <ele>1653.4000244140625</ele>
        <time>2026-06-15T08:49:52.000Z</time>
        <extensions>
          <ns3:TrackPointExtension>
            <ns3:atemp>22.0</ns3:atemp>
          </ns3:TrackPointExtension>
        </extensions>
      </trkpt>
      <trkpt lat="42.5979505665600299835205078125" lon="20.12231181375682353973388671875">
        <ele>1653.5999755859375</ele>
        <time>2026-06-15T08:49:53.000Z</time>
        <extensions>
          <ns3:TrackPointExtension>
            <ns3:atemp>22.0</ns3:atemp>
          </ns3:TrackPointExtension>
        </extensions>
      </trkpt>
      <trkpt lat="42.597957439720630645751953125" lon="20.122275017201900482177734375">
        <ele>1654</ele>
        <time>2026-06-15T08:49:54.000Z</time>
        <extensions>
          <ns3:TrackPointExtension>
            <ns3:atemp>22.0</ns3:atemp>
          </ns3:TrackPointExtension>
        </extensions>
      </trkpt>
      <trkpt lat="42.5979646481573581695556640625" lon="20.122242160141468048095703125">
        <ele>1654.4000244140625</ele>
        <time>2026-06-15T08:49:55.000Z</time>
        <extensions>
          <ns3:TrackPointExtension>
            <ns3:atemp>22.0</ns3:atemp>
          </ns3:TrackPointExtension>
        </extensions>
      </trkpt>
      <trkpt lat="42.5979737006127834320068359375" lon="20.12221039272844791412353515625">
        <ele>1654.5999755859375</ele>
        <time>2026-06-15T08:49:56.000Z</time>
        <extensions>
          <ns3:TrackPointExtension>
            <ns3:atemp>22.0</ns3:atemp>
          </ns3:TrackPointExtension>
        </extensions>
      </trkpt>
      <trkpt lat="42.597982250154018402099609375" lon="20.1221759431064128875732421875">
        <ele>1654.800048828125</ele>
        <time>2026-06-15T08:49:57.000Z</time>
        <extensions>
          <ns3:TrackPointExtension>
            <ns3:atemp>22.0</ns3:atemp>
          </ns3:TrackPointExtension>
        </extensions>
      </trkpt>
      <trkpt lat="42.5979881174862384796142578125" lon="20.12214551679790019989013671875">
        <ele>1655.199951171875</ele>
        <time>2026-06-15T08:49:58.000Z</time>
        <extensions>
          <ns3:TrackPointExtension>
            <ns3:atemp>22.0</ns3:atemp>
          </ns3:TrackPointExtension>
        </extensions>
      </trkpt>
      <trkpt lat="42.59799306280910968780517578125" lon="20.12211433611810207366943359375">
        <ele>1655.4000244140625</ele>
        <time>2026-06-15T08:49:59.000Z</time>
        <extensions>
          <ns3:TrackPointExtension>
            <ns3:atemp>22.0</ns3:atemp>
          </ns3:TrackPointExtension>
        </extensions>
      </trkpt>
      <trkpt lat="42.597999684512615203857421875" lon="20.1220807246863842010498046875">
        <ele>1656</ele>
        <time>2026-06-15T08:50:00.000Z</time>
        <extensions>
          <ns3:TrackPointExtension>
            <ns3:atemp>22.0</ns3:atemp>
          </ns3:TrackPointExtension>
        </extensions>
      </trkpt>
      <trkpt lat="42.59800965897738933563232421875" lon="20.12204627506434917449951171875">
        <ele>1656.199951171875</ele>
        <time>2026-06-15T08:50:01.000Z</time>
        <extensions>
          <ns3:TrackPointExtension>
            <ns3:atemp>22.0</ns3:atemp>
          </ns3:TrackPointExtension>
        </extensions>
      </trkpt>
      <trkpt lat="42.5980192981660366058349609375" lon="20.12200972996652126312255859375">
        <ele>1656.5999755859375</ele>
        <time>2026-06-15T08:50:02.000Z</time>
        <extensions>
          <ns3:TrackPointExtension>
            <ns3:atemp>22.0</ns3:atemp>
          </ns3:TrackPointExtension>
        </extensions>
      </trkpt>
      <trkpt lat="42.5980290211737155914306640625" lon="20.1219717599451541900634765625">
        <ele>1657</ele>
        <time>2026-06-15T08:50:03.000Z</time>
        <extensions>
          <ns3:TrackPointExtension>
            <ns3:atemp>22.0</ns3:atemp>
          </ns3:TrackPointExtension>
        </extensions>
      </trkpt>
      <trkpt lat="42.59803715161979198455810546875" lon="20.12193613685667514801025390625">
        <ele>1657.199951171875</ele>
        <time>2026-06-15T08:50:04.000Z</time>
        <extensions>
          <ns3:TrackPointExtension>
            <ns3:atemp>22.0</ns3:atemp>
          </ns3:TrackPointExtension>
        </extensions>
      </trkpt>
      <trkpt lat="42.59804687462747097015380859375" lon="20.12190009467303752899169921875">
        <ele>1657.4000244140625</ele>
        <time>2026-06-15T08:50:05.000Z</time>
        <extensions>
          <ns3:TrackPointExtension>
            <ns3:atemp>22.0</ns3:atemp>
          </ns3:TrackPointExtension>
        </extensions>
      </trkpt>
      <trkpt lat="42.59805324487388134002685546875" lon="20.121863298118114471435546875">
        <ele>1657.800048828125</ele>
        <time>2026-06-15T08:50:06.000Z</time>
        <extensions>
          <ns3:TrackPointExtension>
            <ns3:atemp>22.0</ns3:atemp>
          </ns3:TrackPointExtension>
        </extensions>
      </trkpt>
      <trkpt lat="42.59806330315768718719482421875" lon="20.12182733975350856781005859375">
        <ele>1658</ele>
        <time>2026-06-15T08:50:07.000Z</time>
        <extensions>
          <ns3:TrackPointExtension>
            <ns3:atemp>22.0</ns3:atemp>
          </ns3:TrackPointExtension>
        </extensions>
      </trkpt>
      <trkpt lat="42.59807302616536617279052734375" lon="20.12179054319858551025390625">
        <ele>1658.199951171875</ele>
        <time>2026-06-15T08:50:08.000Z</time>
        <extensions>
          <ns3:TrackPointExtension>
            <ns3:atemp>22.0</ns3:atemp>
          </ns3:TrackPointExtension>
        </extensions>
      </trkpt>
      <trkpt lat="42.59808526374399662017822265625" lon="20.12175626121461391448974609375">
        <ele>1658.5999755859375</ele>
        <time>2026-06-15T08:50:09.000Z</time>
        <extensions>
          <ns3:TrackPointExtension>
            <ns3:atemp>22.0</ns3:atemp>
          </ns3:TrackPointExtension>
        </extensions>
      </trkpt>
      <trkpt lat="42.59809800423681735992431640625" lon="20.1217192970216274261474609375">
        <ele>1658.800048828125</ele>
        <time>2026-06-15T08:50:10.000Z</time>
        <extensions>
          <ns3:TrackPointExtension>
            <ns3:atemp>22.0</ns3:atemp>
          </ns3:TrackPointExtension>
        </extensions>
      </trkpt>
      <trkpt lat="42.5981153547763824462890625" lon="20.12168451212346553802490234375">
        <ele>1659.4000244140625</ele>
        <time>2026-06-15T08:50:11.000Z</time>
        <extensions>
          <ns3:TrackPointExtension>
            <ns3:atemp>22.0</ns3:atemp>
          </ns3:TrackPointExtension>
        </extensions>
      </trkpt>
      <trkpt lat="42.5981289334595203399658203125" lon="20.12164972722530364990234375">
        <ele>1659.800048828125</ele>
        <time>2026-06-15T08:50:12.000Z</time>
        <extensions>
          <ns3:TrackPointExtension>
            <ns3:atemp>22.0</ns3:atemp>
          </ns3:TrackPointExtension>
        </extensions>
      </trkpt>
      <trkpt lat="42.59814410470426082611083984375" lon="20.12161561287939548492431640625">
        <ele>1660.199951171875</ele>
        <time>2026-06-15T08:50:13.000Z</time>
        <extensions>
          <ns3:TrackPointExtension>
            <ns3:atemp>22.0</ns3:atemp>
          </ns3:TrackPointExtension>
        </extensions>
      </trkpt>
      <trkpt lat="42.59816070087254047393798828125" lon="20.1215845160186290740966796875">
        <ele>1660.5999755859375</ele>
        <time>2026-06-15T08:50:14.000Z</time>
        <extensions>
          <ns3:TrackPointExtension>
            <ns3:atemp>22.0</ns3:atemp>
          </ns3:TrackPointExtension>
        </extensions>
      </trkpt>
      <trkpt lat="42.59816925041377544403076171875" lon="20.12155006639659404754638671875">
        <ele>1660.800048828125</ele>
        <time>2026-06-15T08:50:15.000Z</time>
        <extensions>
          <ns3:TrackPointExtension>
            <ns3:atemp>22.0</ns3:atemp>
          </ns3:TrackPointExtension>
        </extensions>
      </trkpt>
      <trkpt lat="42.5981798954308032989501953125" lon="20.1215149462223052978515625">
        <ele>1661.199951171875</ele>
        <time>2026-06-15T08:50:16.000Z</time>
        <extensions>
          <ns3:TrackPointExtension>
            <ns3:atemp>22.0</ns3:atemp>
          </ns3:TrackPointExtension>
        </extensions>
      </trkpt>
      <trkpt lat="42.598193474113941192626953125" lon="20.121480412781238555908203125">
        <ele>1661.4000244140625</ele>
        <time>2026-06-15T08:50:17.000Z</time>
        <extensions>
          <ns3:TrackPointExtension>
            <ns3:atemp>22.0</ns3:atemp>
          </ns3:TrackPointExtension>
        </extensions>
      </trkpt>
      <trkpt lat="42.59820831008255481719970703125" lon="20.12144696898758411407470703125">
        <ele>1661.800048828125</ele>
        <time>2026-06-15T08:50:18.000Z</time>
        <extensions>
          <ns3:TrackPointExtension>
            <ns3:atemp>22.0</ns3:atemp>
          </ns3:TrackPointExtension>
        </extensions>
      </trkpt>
      <trkpt lat="42.5982204638421535491943359375" lon="20.121412016451358795166015625">
        <ele>1662</ele>
        <time>2026-06-15T08:50:19.000Z</time>
        <extensions>
          <ns3:TrackPointExtension>
            <ns3:atemp>22.0</ns3:atemp>
          </ns3:TrackPointExtension>
        </extensions>
      </trkpt>
      <trkpt lat="42.59823597036302089691162109375" lon="20.1213769800961017608642578125">
        <ele>1662.4000244140625</ele>
        <time>2026-06-15T08:50:20.000Z</time>
        <extensions>
          <ns3:TrackPointExtension>
            <ns3:atemp>22.0</ns3:atemp>
          </ns3:TrackPointExtension>
        </extensions>
      </trkpt>
      <trkpt lat="42.598245441913604736328125" lon="20.12134437449276447296142578125">
        <ele>1662.800048828125</ele>
        <time>2026-06-15T08:50:21.000Z</time>
        <extensions>
          <ns3:TrackPointExtension>
            <ns3:atemp>22.0</ns3:atemp>
          </ns3:TrackPointExtension>
        </extensions>
      </trkpt>
      <trkpt lat="42.59825675748288631439208984375" lon="20.12131151743233203887939453125">
        <ele>1663.199951171875</ele>
        <time>2026-06-15T08:50:22.000Z</time>
        <extensions>
          <ns3:TrackPointExtension>
            <ns3:atemp>22.0</ns3:atemp>
          </ns3:TrackPointExtension>
        </extensions>
      </trkpt>
      <trkpt lat="42.59827000088989734649658203125" lon="20.1212824322283267974853515625">
        <ele>1663.5999755859375</ele>
        <time>2026-06-15T08:50:23.000Z</time>
        <extensions>
          <ns3:TrackPointExtension>
            <ns3:atemp>22.0</ns3:atemp>
          </ns3:TrackPointExtension>
        </extensions>
      </trkpt>
      <trkpt lat="42.59828039444983005523681640625" lon="20.12124949134886264801025390625">
        <ele>1663.800048828125</ele>
        <time>2026-06-15T08:50:24.000Z</time>
        <extensions>
          <ns3:TrackPointExtension>
            <ns3:atemp>22.0</ns3:atemp>
          </ns3:TrackPointExtension>
        </extensions>
      </trkpt>
      <trkpt lat="42.5982928834855556488037109375" lon="20.12121596373617649078369140625">
        <ele>1664</ele>
        <time>2026-06-15T08:50:25.000Z</time>
        <extensions>
          <ns3:TrackPointExtension>
            <ns3:atemp>22.0</ns3:atemp>
          </ns3:TrackPointExtension>
        </extensions>
      </trkpt>
      <trkpt lat="42.59830486960709095001220703125" lon="20.121181346476078033447265625">
        <ele>1664.4000244140625</ele>
        <time>2026-06-15T08:50:26.000Z</time>
        <extensions>
          <ns3:TrackPointExtension>
            <ns3:atemp>22.0</ns3:atemp>
          </ns3:TrackPointExtension>
        </extensions>
      </trkpt>
      <trkpt lat="42.5983197055757045745849609375" lon="20.12114354409277439117431640625">
        <ele>1664.800048828125</ele>
        <time>2026-06-15T08:50:27.000Z</time>
        <extensions>
          <ns3:TrackPointExtension>
            <ns3:atemp>22.0</ns3:atemp>
          </ns3:TrackPointExtension>
        </extensions>
      </trkpt>
      <trkpt lat="42.59833806194365024566650390625" lon="20.12110364623367786407470703125">
        <ele>1665.199951171875</ele>
        <time>2026-06-15T08:50:28.000Z</time>
        <extensions>
          <ns3:TrackPointExtension>
            <ns3:atemp>22.0</ns3:atemp>
          </ns3:TrackPointExtension>
        </extensions>
      </trkpt>
      <trkpt lat="42.5983579270541667938232421875" lon="20.12107045389711856842041015625">
        <ele>1665.5999755859375</ele>
        <time>2026-06-15T08:50:29.000Z</time>
        <extensions>
          <ns3:TrackPointExtension>
            <ns3:atemp>22.0</ns3:atemp>
          </ns3:TrackPointExtension>
        </extensions>
      </trkpt>
      <trkpt lat="42.59837888181209564208984375" lon="20.12103726156055927276611328125">
        <ele>1666</ele>
        <time>2026-06-15T08:50:30.000Z</time>
        <extensions>
          <ns3:TrackPointExtension>
            <ns3:atemp>22.0</ns3:atemp>
          </ns3:TrackPointExtension>
        </extensions>
      </trkpt>
      <trkpt lat="42.59839891456067562103271484375" lon="20.121006667613983154296875">
        <ele>1666.4000244140625</ele>
        <time>2026-06-15T08:50:31.000Z</time>
        <extensions>
          <ns3:TrackPointExtension>
            <ns3:atemp>22.0</ns3:atemp>
          </ns3:TrackPointExtension>
        </extensions>
      </trkpt>
      <trkpt lat="42.59841718710958957672119140625" lon="20.12097875587642192840576171875">
        <ele>1666.800048828125</ele>
        <time>2026-06-15T08:50:32.000Z</time>
        <extensions>
          <ns3:TrackPointExtension>
            <ns3:atemp>22.0</ns3:atemp>
          </ns3:TrackPointExtension>
        </extensions>
      </trkpt>
      <trkpt lat="42.5984370522201061248779296875" lon="20.1209495030343532562255859375">
        <ele>1667.4000244140625</ele>
        <time>2026-06-15T08:50:33.000Z</time>
        <extensions>
          <ns3:TrackPointExtension>
            <ns3:atemp>22.0</ns3:atemp>
          </ns3:TrackPointExtension>
        </extensions>
      </trkpt>
      <trkpt lat="42.598459683358669281005859375" lon="20.12092192657291889190673828125">
        <ele>1667.800048828125</ele>
        <time>2026-06-15T08:50:34.000Z</time>
        <extensions>
          <ns3:TrackPointExtension>
            <ns3:atemp>22.0</ns3:atemp>
          </ns3:TrackPointExtension>
        </extensions>
      </trkpt>
      <trkpt lat="42.59848457761108875274658203125" lon="20.12089669704437255859375">
        <ele>1668</ele>
        <time>2026-06-15T08:50:35.000Z</time>
        <extensions>
          <ns3:TrackPointExtension>
            <ns3:atemp>22.0</ns3:atemp>
          </ns3:TrackPointExtension>
        </extensions>
      </trkpt>
      <trkpt lat="42.598509974777698516845703125" lon="20.12086920440196990966796875">
        <ele>1668.4000244140625</ele>
        <time>2026-06-15T08:50:36.000Z</time>
        <extensions>
          <ns3:TrackPointExtension>
            <ns3:atemp>22.0</ns3:atemp>
          </ns3:TrackPointExtension>
        </extensions>
      </trkpt>
      <trkpt lat="42.59853704832494258880615234375" lon="20.1208412088453769683837890625">
        <ele>1668.800048828125</ele>
        <time>2026-06-15T08:50:37.000Z</time>
        <extensions>
          <ns3:TrackPointExtension>
            <ns3:atemp>22.0</ns3:atemp>
          </ns3:TrackPointExtension>
        </extensions>
      </trkpt>
      <trkpt lat="42.59856303222477436065673828125" lon="20.120813213288784027099609375">
        <ele>1669.199951171875</ele>
        <time>2026-06-15T08:50:38.000Z</time>
        <extensions>
          <ns3:TrackPointExtension>
            <ns3:atemp>22.0</ns3:atemp>
          </ns3:TrackPointExtension>
        </extensions>
      </trkpt>
      <trkpt lat="42.59859077632427215576171875" lon="20.1207899115979671478271484375">
        <ele>1669.5999755859375</ele>
        <time>2026-06-15T08:50:39.000Z</time>
        <extensions>
          <ns3:TrackPointExtension>
            <ns3:atemp>22.0</ns3:atemp>
          </ns3:TrackPointExtension>
        </extensions>
      </trkpt>
      <trkpt lat="42.598617263138294219970703125" lon="20.12076753191649913787841796875">
        <ele>1669.800048828125</ele>
        <time>2026-06-15T08:50:40.000Z</time>
        <extensions>
          <ns3:TrackPointExtension>
            <ns3:atemp>22.0</ns3:atemp>
          </ns3:TrackPointExtension>
        </extensions>
      </trkpt>
      <trkpt lat="42.59864249266684055328369140625" lon="20.1207466609776020050048828125">
        <ele>1670.199951171875</ele>
        <time>2026-06-15T08:50:41.000Z</time>
        <extensions>
          <ns3:TrackPointExtension>
            <ns3:atemp>22.0</ns3:atemp>
          </ns3:TrackPointExtension>
        </extensions>
      </trkpt>
      <trkpt lat="42.5986636988818645477294921875" lon="20.12072428129613399505615234375">
        <ele>1670.5999755859375</ele>
        <time>2026-06-15T08:50:42.000Z</time>
        <extensions>
          <ns3:TrackPointExtension>
            <ns3:atemp>22.0</ns3:atemp>
          </ns3:TrackPointExtension>
        </extensions>
      </trkpt>
      <trkpt lat="42.5986858271062374114990234375" lon="20.12069947086274623870849609375">
        <ele>1671</ele>
        <time>2026-06-15T08:50:43.000Z</time>
        <extensions>
          <ns3:TrackPointExtension>
            <ns3:atemp>22.0</ns3:atemp>
          </ns3:TrackPointExtension>
        </extensions>
      </trkpt>
      <trkpt lat="42.5987069495022296905517578125" lon="20.12067139148712158203125">
        <ele>1671.4000244140625</ele>
        <time>2026-06-15T08:50:44.000Z</time>
        <extensions>
          <ns3:TrackPointExtension>
            <ns3:atemp>22.0</ns3:atemp>
          </ns3:TrackPointExtension>
        </extensions>
      </trkpt>
      <trkpt lat="42.59872865863144397735595703125" lon="20.120638869702816009521484375">
        <ele>1671.800048828125</ele>
        <time>2026-06-15T08:50:45.000Z</time>
        <extensions>
          <ns3:TrackPointExtension>
            <ns3:atemp>22.0</ns3:atemp>
          </ns3:TrackPointExtension>
        </extensions>
      </trkpt>
      <trkpt lat="42.59875304996967315673828125" lon="20.12060710228979587554931640625">
        <ele>1672.199951171875</ele>
        <time>2026-06-15T08:50:46.000Z</time>
        <extensions>
          <ns3:TrackPointExtension>
            <ns3:atemp>22.0</ns3:atemp>
          </ns3:TrackPointExtension>
        </extensions>
      </trkpt>
      <trkpt lat="42.5987740047276020050048828125" lon="20.120575167238712310791015625">
        <ele>1672.4000244140625</ele>
        <time>2026-06-15T08:50:47.000Z</time>
        <extensions>
          <ns3:TrackPointExtension>
            <ns3:atemp>22.0</ns3:atemp>
          </ns3:TrackPointExtension>
        </extensions>
      </trkpt>
      <trkpt lat="42.59879420511424541473388671875" lon="20.12054272927343845367431640625">
        <ele>1672.800048828125</ele>
        <time>2026-06-15T08:50:48.000Z</time>
        <extensions>
          <ns3:TrackPointExtension>
            <ns3:atemp>22.0</ns3:atemp>
          </ns3:TrackPointExtension>
        </extensions>
      </trkpt>
      <trkpt lat="42.598813064396381378173828125" lon="20.12050635181367397308349609375">
        <ele>1673.199951171875</ele>
        <time>2026-06-15T08:50:49.000Z</time>
        <extensions>
          <ns3:TrackPointExtension>
            <ns3:atemp>22.0</ns3:atemp>
          </ns3:TrackPointExtension>
        </extensions>
      </trkpt>
      <trkpt lat="42.5988306663930416107177734375" lon="20.1204677112400531768798828125">
        <ele>1673.5999755859375</ele>
        <time>2026-06-15T08:50:50.000Z</time>
        <extensions>
          <ns3:TrackPointExtension>
            <ns3:atemp>22.0</ns3:atemp>
          </ns3:TrackPointExtension>
        </extensions>
      </trkpt>
      <trkpt lat="42.59884667582809925079345703125" lon="20.12042932212352752685546875">
        <ele>1674</ele>
        <time>2026-06-15T08:50:51.000Z</time>
        <extensions>
          <ns3:TrackPointExtension>
            <ns3:atemp>22.0</ns3:atemp>
          </ns3:TrackPointExtension>
        </extensions>
      </trkpt>
      <trkpt lat="42.59886478073894977569580078125" lon="20.12039369903504848480224609375">
        <ele>1674.4000244140625</ele>
        <time>2026-06-15T08:50:52.000Z</time>
        <extensions>
          <ns3:TrackPointExtension>
            <ns3:atemp>22.0</ns3:atemp>
          </ns3:TrackPointExtension>
        </extensions>
      </trkpt>
      <trkpt lat="42.59888305328786373138427734375" lon="20.120359249413013458251953125">
        <ele>1674.800048828125</ele>
        <time>2026-06-15T08:50:53.000Z</time>
        <extensions>
          <ns3:TrackPointExtension>
            <ns3:atemp>22.0</ns3:atemp>
          </ns3:TrackPointExtension>
        </extensions>
      </trkpt>
      <trkpt lat="42.5989010743796825408935546875" lon="20.1203240454196929931640625">
        <ele>1675.199951171875</ele>
        <time>2026-06-15T08:50:54.000Z</time>
        <extensions>
          <ns3:TrackPointExtension>
            <ns3:atemp>22.0</ns3:atemp>
          </ns3:TrackPointExtension>
        </extensions>
      </trkpt>
      <trkpt lat="42.5989146530628204345703125" lon="20.1202863268554210662841796875">
        <ele>1675.5999755859375</ele>
        <time>2026-06-15T08:50:55.000Z</time>
        <extensions>
          <ns3:TrackPointExtension>
            <ns3:atemp>22.0</ns3:atemp>
          </ns3:TrackPointExtension>
        </extensions>
      </trkpt>
      <trkpt lat="42.59892496280372142791748046875" lon="20.12024299241602420806884765625">
        <ele>1676</ele>
        <time>2026-06-15T08:50:56.000Z</time>
        <extensions>
          <ns3:TrackPointExtension>
            <ns3:atemp>22.0</ns3:atemp>
          </ns3:TrackPointExtension>
        </extensions>
      </trkpt>
      <trkpt lat="42.59893250651657581329345703125" lon="20.12020259164273738861083984375">
        <ele>1676.199951171875</ele>
        <time>2026-06-15T08:50:57.000Z</time>
        <extensions>
          <ns3:TrackPointExtension>
            <ns3:atemp>22.0</ns3:atemp>
          </ns3:TrackPointExtension>
        </extensions>
      </trkpt>
      <trkpt lat="42.598937787115573883056640625" lon="20.12016185559332370758056640625">
        <ele>1676.4000244140625</ele>
        <time>2026-06-15T08:50:58.000Z</time>
        <extensions>
          <ns3:TrackPointExtension>
            <ns3:atemp>22.0</ns3:atemp>
          </ns3:TrackPointExtension>
        </extensions>
      </trkpt>
      <trkpt lat="42.5989453308284282684326171875" lon="20.1201223768293857574462890625">
        <ele>1676.4000244140625</ele>
        <time>2026-06-15T08:50:59.000Z</time>
        <extensions>
          <ns3:TrackPointExtension>
            <ns3:atemp>22.0</ns3:atemp>
          </ns3:TrackPointExtension>
        </extensions>
      </trkpt>
      <trkpt lat="42.59895094670355319976806640625" lon="20.12007853947579860687255859375">
        <ele>1676.5999755859375</ele>
        <time>2026-06-15T08:51:00.000Z</time>
        <extensions>
          <ns3:TrackPointExtension>
            <ns3:atemp>22.0</ns3:atemp>
          </ns3:TrackPointExtension>
        </extensions>
      </trkpt>
      <trkpt lat="42.59895564056932926177978515625" lon="20.1200368814170360565185546875">
        <ele>1677</ele>
        <time>2026-06-15T08:51:01.000Z</time>
        <extensions>
          <ns3:TrackPointExtension>
            <ns3:atemp>22.0</ns3:atemp>
          </ns3:TrackPointExtension>
        </extensions>
      </trkpt>
      <trkpt lat="42.5989624299108982086181640625" lon="20.11999790556728839874267578125">
        <ele>1677.199951171875</ele>
        <time>2026-06-15T08:51:02.000Z</time>
        <extensions>
          <ns3:TrackPointExtension>
            <ns3:atemp>22.0</ns3:atemp>
          </ns3:TrackPointExtension>
        </extensions>
      </trkpt>
      <trkpt lat="42.5989704765379428863525390625" lon="20.1199604384601116180419921875">
        <ele>1677.4000244140625</ele>
        <time>2026-06-15T08:51:03.000Z</time>
        <extensions>
          <ns3:TrackPointExtension>
            <ns3:atemp>22.0</ns3:atemp>
          </ns3:TrackPointExtension>
        </extensions>
      </trkpt>
      <trkpt lat="42.59897693060338497161865234375" lon="20.119923055171966552734375">
        <ele>1677.800048828125</ele>
        <time>2026-06-15T08:51:04.000Z</time>
        <extensions>
          <ns3:TrackPointExtension>
            <ns3:atemp>22.0</ns3:atemp>
          </ns3:TrackPointExtension>
        </extensions>
      </trkpt>
      <trkpt lat="42.5989848934113979339599609375" lon="20.11988776735961437225341796875">
        <ele>1678</ele>
        <time>2026-06-15T08:51:05.000Z</time>
        <extensions>
          <ns3:TrackPointExtension>
            <ns3:atemp>22.0</ns3:atemp>
          </ns3:TrackPointExtension>
        </extensions>
      </trkpt>
      <trkpt lat="42.59899419732391834259033203125" lon="20.11984753422439098358154296875">
        <ele>1678.199951171875</ele>
        <time>2026-06-15T08:51:06.000Z</time>
        <extensions>
          <ns3:TrackPointExtension>
            <ns3:atemp>22.0</ns3:atemp>
          </ns3:TrackPointExtension>
        </extensions>
      </trkpt>
      <trkpt lat="42.59899847209453582763671875" lon="20.119804702699184417724609375">
        <ele>1678.4000244140625</ele>
        <time>2026-06-15T08:51:07.000Z</time>
        <extensions>
          <ns3:TrackPointExtension>
            <ns3:atemp>22.0</ns3:atemp>
          </ns3:TrackPointExtension>
        </extensions>
      </trkpt>
      <trkpt lat="42.5990023277699947357177734375" lon="20.1197622902691364288330078125">
        <ele>1678.5999755859375</ele>
        <time>2026-06-15T08:51:08.000Z</time>
        <extensions>
          <ns3:TrackPointExtension>
            <ns3:atemp>22.0</ns3:atemp>
          </ns3:TrackPointExtension>
        </extensions>
      </trkpt>
      <trkpt lat="42.599006853997707366943359375" lon="20.11972398497164249420166015625">
        <ele>1678.800048828125</ele>
        <time>2026-06-15T08:51:09.000Z</time>
        <extensions>
          <ns3:TrackPointExtension>
            <ns3:atemp>22.0</ns3:atemp>
          </ns3:TrackPointExtension>
        </extensions>
      </trkpt>
      <trkpt lat="42.59901129640638828277587890625" lon="20.11968500912189483642578125">
        <ele>1679</ele>
        <time>2026-06-15T08:51:10.000Z</time>
        <extensions>
          <ns3:TrackPointExtension>
            <ns3:atemp>22.0</ns3:atemp>
          </ns3:TrackPointExtension>
        </extensions>
      </trkpt>
      <trkpt lat="42.5990184210240840911865234375" lon="20.11964452452957630157470703125">
        <ele>1679.199951171875</ele>
        <time>2026-06-15T08:51:11.000Z</time>
        <extensions>
          <ns3:TrackPointExtension>
            <ns3:atemp>22.0</ns3:atemp>
          </ns3:TrackPointExtension>
        </extensions>
      </trkpt>
      <trkpt lat="42.5990237854421138763427734375" lon="20.11960546486079692840576171875">
        <ele>1679.5999755859375</ele>
        <time>2026-06-15T08:51:12.000Z</time>
        <extensions>
          <ns3:TrackPointExtension>
            <ns3:atemp>22.0</ns3:atemp>
          </ns3:TrackPointExtension>
        </extensions>
      </trkpt>
      <trkpt lat="42.599029652774333953857421875" lon="20.119567327201366424560546875">
        <ele>1679.800048828125</ele>
        <time>2026-06-15T08:51:13.000Z</time>
        <extensions>
          <ns3:TrackPointExtension>
            <ns3:atemp>22.0</ns3:atemp>
          </ns3:TrackPointExtension>
        </extensions>
      </trkpt>
      <trkpt lat="42.59903811849653720855712890625" lon="20.11953069828450679779052734375">
        <ele>1680</ele>
        <time>2026-06-15T08:51:14.000Z</time>
        <extensions>
          <ns3:TrackPointExtension>
            <ns3:atemp>22.0</ns3:atemp>
          </ns3:TrackPointExtension>
        </extensions>
      </trkpt>
      <trkpt lat="42.5990415550768375396728515625" lon="20.1194897107779979705810546875">
        <ele>1680.4000244140625</ele>
        <time>2026-06-15T08:51:15.000Z</time>
        <extensions>
          <ns3:TrackPointExtension>
            <ns3:atemp>22.0</ns3:atemp>
          </ns3:TrackPointExtension>
        </extensions>
      </trkpt>
      <trkpt lat="42.59904834441840648651123046875" lon="20.11944763362407684326171875">
        <ele>1680.800048828125</ele>
        <time>2026-06-15T08:51:16.000Z</time>
        <extensions>
          <ns3:TrackPointExtension>
            <ns3:atemp>22.0</ns3:atemp>
          </ns3:TrackPointExtension>
        </extensions>
      </trkpt>
      <trkpt lat="42.5990563072264194488525390625" lon="20.11940337717533111572265625">
        <ele>1681.199951171875</ele>
        <time>2026-06-15T08:51:17.000Z</time>
        <extensions>
          <ns3:TrackPointExtension>
            <ns3:atemp>22.0</ns3:atemp>
          </ns3:TrackPointExtension>
        </extensions>
      </trkpt>
      <trkpt lat="42.59906427003443241119384765625" lon="20.119364820420742034912109375">
        <ele>1681.800048828125</ele>
        <time>2026-06-15T08:51:18.000Z</time>
        <extensions>
          <ns3:TrackPointExtension>
            <ns3:atemp>22.0</ns3:atemp>
          </ns3:TrackPointExtension>
        </extensions>
      </trkpt>
      <trkpt lat="42.59907064028084278106689453125" lon="20.11932433582842350006103515625">
        <ele>1682.199951171875</ele>
        <time>2026-06-15T08:51:19.000Z</time>
        <extensions>
          <ns3:TrackPointExtension>
            <ns3:atemp>22.0</ns3:atemp>
          </ns3:TrackPointExtension>
        </extensions>
      </trkpt>
      <trkpt lat="42.59907759726047515869140625" lon="20.1192831806838512420654296875">
        <ele>1682.4000244140625</ele>
        <time>2026-06-15T08:51:20.000Z</time>
        <extensions>
          <ns3:TrackPointExtension>
            <ns3:atemp>22.0</ns3:atemp>
          </ns3:TrackPointExtension>
        </extensions>
      </trkpt>
      <trkpt lat="42.59908673353493213653564453125" lon="20.1192399300634860992431640625">
        <ele>1682.800048828125</ele>
        <time>2026-06-15T08:51:21.000Z</time>
        <extensions>
          <ns3:TrackPointExtension>
            <ns3:atemp>22.0</ns3:atemp>
          </ns3:TrackPointExtension>
        </extensions>
      </trkpt>
      <trkpt lat="42.59909612126648426055908203125" lon="20.11919818818569183349609375">
        <ele>1683</ele>
        <time>2026-06-15T08:51:22.000Z</time>
        <extensions>
          <ns3:TrackPointExtension>
            <ns3:atemp>22.0</ns3:atemp>
          </ns3:TrackPointExtension>
        </extensions>
      </trkpt>
      <trkpt lat="42.5991019047796726226806640625" lon="20.1191572844982147216796875">
        <ele>1683.199951171875</ele>
        <time>2026-06-15T08:51:23.000Z</time>
        <extensions>
          <ns3:TrackPointExtension>
            <ns3:atemp>22.0</ns3:atemp>
          </ns3:TrackPointExtension>
        </extensions>
      </trkpt>
      <trkpt lat="42.59910869412124156951904296875" lon="20.1191195659339427947998046875">
        <ele>1683.4000244140625</ele>
        <time>2026-06-15T08:51:24.000Z</time>
        <extensions>
          <ns3:TrackPointExtension>
            <ns3:atemp>22.0</ns3:atemp>
          </ns3:TrackPointExtension>
        </extensions>
      </trkpt>
      <trkpt lat="42.59911741130053997039794921875" lon="20.11907975189387798309326171875">
        <ele>1683.800048828125</ele>
        <time>2026-06-15T08:51:25.000Z</time>
        <extensions>
          <ns3:TrackPointExtension>
            <ns3:atemp>22.0</ns3:atemp>
          </ns3:TrackPointExtension>
        </extensions>
      </trkpt>
      <trkpt lat="42.59912361390888690948486328125" lon="20.1190377585589885711669921875">
        <ele>1684.199951171875</ele>
        <time>2026-06-15T08:51:26.000Z</time>
        <extensions>
          <ns3:TrackPointExtension>
            <ns3:atemp>22.0</ns3:atemp>
          </ns3:TrackPointExtension>
        </extensions>
      </trkpt>
      <trkpt lat="42.59912998415529727935791015625" lon="20.11899576522409915924072265625">
        <ele>1684.5999755859375</ele>
        <time>2026-06-15T08:51:27.000Z</time>
        <extensions>
          <ns3:TrackPointExtension>
            <ns3:atemp>22.0</ns3:atemp>
          </ns3:TrackPointExtension>
        </extensions>
      </trkpt>
      <trkpt lat="42.5991381146013736724853515625" lon="20.11895737610757350921630859375">
        <ele>1685</ele>
        <time>2026-06-15T08:51:28.000Z</time>
        <extensions>
          <ns3:TrackPointExtension>
            <ns3:atemp>22.0</ns3:atemp>
          </ns3:TrackPointExtension>
        </extensions>
      </trkpt>
      <trkpt lat="42.599145658314228057861328125" lon="20.11892166920006275177001953125">
        <ele>1685.5999755859375</ele>
        <time>2026-06-15T08:51:29.000Z</time>
        <extensions>
          <ns3:TrackPointExtension>
            <ns3:atemp>22.0</ns3:atemp>
          </ns3:TrackPointExtension>
        </extensions>
      </trkpt>
      <trkpt lat="42.59915135800838470458984375" lon="20.1188821904361248016357421875">
        <ele>1686</ele>
        <time>2026-06-15T08:51:30.000Z</time>
        <extensions>
          <ns3:TrackPointExtension>
            <ns3:atemp>22.0</ns3:atemp>
          </ns3:TrackPointExtension>
        </extensions>
      </trkpt>
      <trkpt lat="42.59915730915963649749755859375" lon="20.11884170584380626678466796875">
        <ele>1686.199951171875</ele>
        <time>2026-06-15T08:51:31.000Z</time>
        <extensions>
          <ns3:TrackPointExtension>
            <ns3:atemp>22.0</ns3:atemp>
          </ns3:TrackPointExtension>
        </extensions>
      </trkpt>
      <trkpt lat="42.59916351176798343658447265625" lon="20.118803568184375762939453125">
        <ele>1686.5999755859375</ele>
        <time>2026-06-15T08:51:32.000Z</time>
        <extensions>
          <ns3:TrackPointExtension>
            <ns3:atemp>22.0</ns3:atemp>
          </ns3:TrackPointExtension>
        </extensions>
      </trkpt>
      <trkpt lat="42.59917206130921840667724609375" lon="20.11876232922077178955078125">
        <ele>1686.800048828125</ele>
        <time>2026-06-15T08:51:33.000Z</time>
        <extensions>
          <ns3:TrackPointExtension>
            <ns3:atemp>22.0</ns3:atemp>
          </ns3:TrackPointExtension>
        </extensions>
      </trkpt>
      <trkpt lat="42.59917994029819965362548828125" lon="20.11872075498104095458984375">
        <ele>1687.199951171875</ele>
        <time>2026-06-15T08:51:34.000Z</time>
        <extensions>
          <ns3:TrackPointExtension>
            <ns3:atemp>22.0</ns3:atemp>
          </ns3:TrackPointExtension>
        </extensions>
      </trkpt>
      <trkpt lat="42.59918890893459320068359375" lon="20.11868144385516643524169921875">
        <ele>1687.4000244140625</ele>
        <time>2026-06-15T08:51:35.000Z</time>
        <extensions>
          <ns3:TrackPointExtension>
            <ns3:atemp>22.0</ns3:atemp>
          </ns3:TrackPointExtension>
        </extensions>
      </trkpt>
      <trkpt lat="42.599197961390018463134765625" lon="20.11864204891026020050048828125">
        <ele>1687.800048828125</ele>
        <time>2026-06-15T08:51:36.000Z</time>
        <extensions>
          <ns3:TrackPointExtension>
            <ns3:atemp>22.0</ns3:atemp>
          </ns3:TrackPointExtension>
        </extensions>
      </trkpt>
      <trkpt lat="42.5992051698267459869384765625" lon="20.11859980411827564239501953125">
        <ele>1688.199951171875</ele>
        <time>2026-06-15T08:51:37.000Z</time>
        <extensions>
          <ns3:TrackPointExtension>
            <ns3:atemp>22.0</ns3:atemp>
          </ns3:TrackPointExtension>
        </extensions>
      </trkpt>
      <trkpt lat="42.599211037158966064453125" lon="20.11856175027787685394287109375">
        <ele>1688.5999755859375</ele>
        <time>2026-06-15T08:51:38.000Z</time>
        <extensions>
          <ns3:TrackPointExtension>
            <ns3:atemp>22.0</ns3:atemp>
          </ns3:TrackPointExtension>
        </extensions>
      </trkpt>
      <trkpt lat="42.599218748509883880615234375" lon="20.11852285824716091156005859375">
        <ele>1689</ele>
        <time>2026-06-15T08:51:39.000Z</time>
        <extensions>
          <ns3:TrackPointExtension>
            <ns3:atemp>22.0</ns3:atemp>
          </ns3:TrackPointExtension>
        </extensions>
      </trkpt>
      <trkpt lat="42.5992266274988651275634765625" lon="20.11848530732095241546630859375">
        <ele>1689.4000244140625</ele>
        <time>2026-06-15T08:51:40.000Z</time>
        <extensions>
          <ns3:TrackPointExtension>
            <ns3:atemp>22.0</ns3:atemp>
          </ns3:TrackPointExtension>
        </extensions>
      </trkpt>
      <trkpt lat="42.5992340035736560821533203125" lon="20.11845027096569538116455078125">
        <ele>1689.5999755859375</ele>
        <time>2026-06-15T08:51:41.000Z</time>
        <extensions>
          <ns3:TrackPointExtension>
            <ns3:atemp>22.0</ns3:atemp>
          </ns3:TrackPointExtension>
        </extensions>
      </trkpt>
      <trkpt lat="42.59924213401973247528076171875" lon="20.11841020546853542327880859375">
        <ele>1690</ele>
        <time>2026-06-15T08:51:42.000Z</time>
        <extensions>
          <ns3:TrackPointExtension>
            <ns3:atemp>22.0</ns3:atemp>
          </ns3:TrackPointExtension>
        </extensions>
      </trkpt>
      <trkpt lat="42.5992474146187305450439453125" lon="20.118380449712276458740234375">
        <ele>1690.4000244140625</ele>
        <time>2026-06-15T08:51:43.000Z</time>
        <extensions>
          <ns3:TrackPointExtension>
            <ns3:atemp>22.0</ns3:atemp>
          </ns3:TrackPointExtension>
        </extensions>
      </trkpt>
      <trkpt lat="42.59925219230353832244873046875" lon="20.11835337616503238677978515625">
        <ele>1690.800048828125</ele>
        <time>2026-06-15T08:51:44.000Z</time>
        <extensions>
          <ns3:TrackPointExtension>
            <ns3:atemp>22.0</ns3:atemp>
          </ns3:TrackPointExtension>
        </extensions>
      </trkpt>
      <trkpt lat="42.599253617227077484130859375" lon="20.11832118965685367584228515625">
        <ele>1691.199951171875</ele>
        <time>2026-06-15T08:51:45.000Z</time>
        <extensions>
          <ns3:TrackPointExtension>
            <ns3:atemp>22.0</ns3:atemp>
          </ns3:TrackPointExtension>
        </extensions>
      </trkpt>
      <trkpt lat="42.5992541201412677764892578125" lon="20.118287242949008941650390625">
        <ele>1691.199951171875</ele>
        <time>2026-06-15T08:51:46.000Z</time>
        <extensions>
          <ns3:TrackPointExtension>
            <ns3:atemp>22.0</ns3:atemp>
          </ns3:TrackPointExtension>
        </extensions>
      </trkpt>
      <trkpt lat="42.599254287779331207275390625" lon="20.118251033127307891845703125">
        <ele>1691.4000244140625</ele>
        <time>2026-06-15T08:51:47.000Z</time>
        <extensions>
          <ns3:TrackPointExtension>
            <ns3:atemp>22.0</ns3:atemp>
          </ns3:TrackPointExtension>
        </extensions>
      </trkpt>
      <trkpt lat="42.59925554506480693817138671875" lon="20.118219517171382904052734375">
        <ele>1691.4000244140625</ele>
        <time>2026-06-15T08:51:48.000Z</time>
        <extensions>
          <ns3:TrackPointExtension>
            <ns3:atemp>22.0</ns3:atemp>
          </ns3:TrackPointExtension>
        </extensions>
      </trkpt>
      <trkpt lat="42.5992517732083797454833984375" lon="20.11819512583315372467041015625">
        <ele>1691.4000244140625</ele>
        <time>2026-06-15T08:51:49.000Z</time>
        <extensions>
          <ns3:TrackPointExtension>
            <ns3:atemp>22.0</ns3:atemp>
          </ns3:TrackPointExtension>
        </extensions>
      </trkpt>
      <trkpt lat="42.59925101883709430694580078125" lon="20.11817626655101776123046875">
        <ele>1691.5999755859375</ele>
        <time>2026-06-15T08:51:50.000Z</time>
        <extensions>
          <ns3:TrackPointExtension>
            <ns3:atemp>22.0</ns3:atemp>
          </ns3:TrackPointExtension>
        </extensions>
      </trkpt>
      <trkpt lat="42.59925386868417263031005859375" lon="20.11815656907856464385986328125">
        <ele>1691.800048828125</ele>
        <time>2026-06-15T08:51:51.000Z</time>
        <extensions>
          <ns3:TrackPointExtension>
            <ns3:atemp>22.0</ns3:atemp>
          </ns3:TrackPointExtension>
        </extensions>
      </trkpt>
      <trkpt lat="42.59925370104610919952392578125" lon="20.11813444085419178009033203125">
        <ele>1692</ele>
        <time>2026-06-15T08:51:52.000Z</time>
        <extensions>
          <ns3:TrackPointExtension>
            <ns3:atemp>22.0</ns3:atemp>
          </ns3:TrackPointExtension>
        </extensions>
      </trkpt>
      <trkpt lat="42.59925655089318752288818359375" lon="20.11811130680143833160400390625">
        <ele>1692.199951171875</ele>
        <time>2026-06-15T08:51:53.000Z</time>
        <extensions>
          <ns3:TrackPointExtension>
            <ns3:atemp>22.0</ns3:atemp>
          </ns3:TrackPointExtension>
        </extensions>
      </trkpt>
      <trkpt lat="42.59926266968250274658203125" lon="20.11808565817773342132568359375">
        <ele>1692.4000244140625</ele>
        <time>2026-06-15T08:51:54.000Z</time>
        <extensions>
          <ns3:TrackPointExtension>
            <ns3:atemp>22.0</ns3:atemp>
          </ns3:TrackPointExtension>
        </extensions>
      </trkpt>
      <trkpt lat="42.59927096776664257049560546875" lon="20.11805690824985504150390625">
        <ele>1692.4000244140625</ele>
        <time>2026-06-15T08:51:55.000Z</time>
        <extensions>
          <ns3:TrackPointExtension>
            <ns3:atemp>22.0</ns3:atemp>
          </ns3:TrackPointExtension>
        </extensions>
      </trkpt>
      <trkpt lat="42.5992785952985286712646484375" lon="20.11802614666521549224853515625">
        <ele>1692.5999755859375</ele>
        <time>2026-06-15T08:51:56.000Z</time>
        <extensions>
          <ns3:TrackPointExtension>
            <ns3:atemp>22.0</ns3:atemp>
          </ns3:TrackPointExtension>
        </extensions>
      </trkpt>
      <trkpt lat="42.59927867911756038665771484375" lon="20.11798775754868984222412109375">
        <ele>1692.800048828125</ele>
        <time>2026-06-15T08:51:57.000Z</time>
        <extensions>
          <ns3:TrackPointExtension>
            <ns3:atemp>22.0</ns3:atemp>
          </ns3:TrackPointExtension>
        </extensions>
      </trkpt>
      <trkpt lat="42.5992832891643047332763671875" lon="20.11794785968959331512451171875">
        <ele>1693</ele>
        <time>2026-06-15T08:51:58.000Z</time>
        <extensions>
          <ns3:TrackPointExtension>
            <ns3:atemp>22.0</ns3:atemp>
          </ns3:TrackPointExtension>
        </extensions>
      </trkpt>
      <trkpt lat="42.59928949177265167236328125" lon="20.11790695600211620330810546875">
        <ele>1693.199951171875</ele>
        <time>2026-06-15T08:51:59.000Z</time>
        <extensions>
          <ns3:TrackPointExtension>
            <ns3:atemp>22.0</ns3:atemp>
          </ns3:TrackPointExtension>
        </extensions>
      </trkpt>
      <trkpt lat="42.59929946623742580413818359375" lon="20.11786756105720996856689453125">
        <ele>1693.4000244140625</ele>
        <time>2026-06-15T08:52:00.000Z</time>
        <extensions>
          <ns3:TrackPointExtension>
            <ns3:atemp>22.0</ns3:atemp>
          </ns3:TrackPointExtension>
        </extensions>
      </trkpt>
      <trkpt lat="42.5993077643215656280517578125" lon="20.11783185414969921112060546875">
        <ele>1693.5999755859375</ele>
        <time>2026-06-15T08:52:01.000Z</time>
        <extensions>
          <ns3:TrackPointExtension>
            <ns3:atemp>22.0</ns3:atemp>
          </ns3:TrackPointExtension>
        </extensions>
      </trkpt>
      <trkpt lat="42.59931497275829315185546875" lon="20.11779405176639556884765625">
        <ele>1694</ele>
        <time>2026-06-15T08:52:02.000Z</time>
        <extensions>
          <ns3:TrackPointExtension>
            <ns3:atemp>22.0</ns3:atemp>
          </ns3:TrackPointExtension>
        </extensions>
      </trkpt>
      <trkpt lat="42.59932142682373523712158203125" lon="20.117754824459552764892578125">
        <ele>1694.199951171875</ele>
        <time>2026-06-15T08:52:03.000Z</time>
        <extensions>
          <ns3:TrackPointExtension>
            <ns3:atemp>22.0</ns3:atemp>
          </ns3:TrackPointExtension>
        </extensions>
      </trkpt>
      <trkpt lat="42.59933014400303363800048828125" lon="20.11771366931498050689697265625">
        <ele>1694.5999755859375</ele>
        <time>2026-06-15T08:52:04.000Z</time>
        <extensions>
          <ns3:TrackPointExtension>
            <ns3:atemp>22.0</ns3:atemp>
          </ns3:TrackPointExtension>
        </extensions>
      </trkpt>
      <trkpt lat="42.5993384420871734619140625" lon="20.11767745949327945709228515625">
        <ele>1694.800048828125</ele>
        <time>2026-06-15T08:52:05.000Z</time>
        <extensions>
          <ns3:TrackPointExtension>
            <ns3:atemp>22.0</ns3:atemp>
          </ns3:TrackPointExtension>
        </extensions>
      </trkpt>
      <trkpt lat="42.59934690780937671661376953125" lon="20.11763823218643665313720703125">
        <ele>1695.199951171875</ele>
        <time>2026-06-15T08:52:06.000Z</time>
        <extensions>
          <ns3:TrackPointExtension>
            <ns3:atemp>22.0</ns3:atemp>
          </ns3:TrackPointExtension>
        </extensions>
      </trkpt>
      <trkpt lat="42.59935252368450164794921875" lon="20.117599256336688995361328125">
        <ele>1695.4000244140625</ele>
        <time>2026-06-15T08:52:07.000Z</time>
        <extensions>
          <ns3:TrackPointExtension>
            <ns3:atemp>22.0</ns3:atemp>
          </ns3:TrackPointExtension>
        </extensions>
      </trkpt>
      <trkpt lat="42.5993610732257366180419921875" lon="20.11756111867725849151611328125">
        <ele>1695.800048828125</ele>
        <time>2026-06-15T08:52:08.000Z</time>
        <extensions>
          <ns3:TrackPointExtension>
            <ns3:atemp>22.0</ns3:atemp>
          </ns3:TrackPointExtension>
        </extensions>
      </trkpt>
      <trkpt lat="42.599366605281829833984375" lon="20.117520131170749664306640625">
        <ele>1696.199951171875</ele>
        <time>2026-06-15T08:52:09.000Z</time>
        <extensions>
          <ns3:TrackPointExtension>
            <ns3:atemp>22.0</ns3:atemp>
          </ns3:TrackPointExtension>
        </extensions>
      </trkpt>
      <trkpt lat="42.59936937130987644195556640625" lon="20.1174767129123210906982421875">
        <ele>1696.5999755859375</ele>
        <time>2026-06-15T08:52:10.000Z</time>
        <extensions>
          <ns3:TrackPointExtension>
            <ns3:atemp>22.0</ns3:atemp>
          </ns3:TrackPointExtension>
        </extensions>
      </trkpt>
      <trkpt lat="42.59937272407114505767822265625" lon="20.11743555776774883270263671875">
        <ele>1696.800048828125</ele>
        <time>2026-06-15T08:52:11.000Z</time>
        <extensions>
          <ns3:TrackPointExtension>
            <ns3:atemp>22.0</ns3:atemp>
          </ns3:TrackPointExtension>
        </extensions>
      </trkpt>
      <trkpt lat="42.5993701256811618804931640625" lon="20.11739633046090602874755859375">
        <ele>1697.199951171875</ele>
        <time>2026-06-15T08:52:12.000Z</time>
        <extensions>
          <ns3:TrackPointExtension>
            <ns3:atemp>22.0</ns3:atemp>
          </ns3:TrackPointExtension>
        </extensions>
      </trkpt>
      <trkpt lat="42.59937188588082790374755859375" lon="20.11735894717276096343994140625">
        <ele>1697.5999755859375</ele>
        <time>2026-06-15T08:52:13.000Z</time>
        <extensions>
          <ns3:TrackPointExtension>
            <ns3:atemp>22.0</ns3:atemp>
          </ns3:TrackPointExtension>
        </extensions>
      </trkpt>
      <trkpt lat="42.5993761606514453887939453125" lon="20.11732189916074275970458984375">
        <ele>1697.800048828125</ele>
        <time>2026-06-15T08:52:14.000Z</time>
        <extensions>
          <ns3:TrackPointExtension>
            <ns3:atemp>22.0</ns3:atemp>
          </ns3:TrackPointExtension>
        </extensions>
      </trkpt>
      <trkpt lat="42.59937289170920848846435546875" lon="20.1172797381877899169921875">
        <ele>1698</ele>
        <time>2026-06-15T08:52:15.000Z</time>
        <extensions>
          <ns3:TrackPointExtension>
            <ns3:atemp>22.0</ns3:atemp>
          </ns3:TrackPointExtension>
        </extensions>
      </trkpt>
      <trkpt lat="42.59936853311955928802490234375" lon="20.1172353141009807586669921875">
        <ele>1698.199951171875</ele>
        <time>2026-06-15T08:52:16.000Z</time>
        <extensions>
          <ns3:TrackPointExtension>
            <ns3:atemp>22.0</ns3:atemp>
          </ns3:TrackPointExtension>
        </extensions>
      </trkpt>
      <trkpt lat="42.59936325252056121826171875" lon="20.11719181202352046966552734375">
        <ele>1698.4000244140625</ele>
        <time>2026-06-15T08:52:17.000Z</time>
        <extensions>
          <ns3:TrackPointExtension>
            <ns3:atemp>22.0</ns3:atemp>
          </ns3:TrackPointExtension>
        </extensions>
      </trkpt>
      <trkpt lat="42.59936199523508548736572265625" lon="20.11715233325958251953125">
        <ele>1698.5999755859375</ele>
        <time>2026-06-15T08:52:18.000Z</time>
        <extensions>
          <ns3:TrackPointExtension>
            <ns3:atemp>22.0</ns3:atemp>
          </ns3:TrackPointExtension>
        </extensions>
      </trkpt>
      <trkpt lat="42.59935788810253143310546875" lon="20.11711704544723033905029296875">
        <ele>1698.800048828125</ele>
        <time>2026-06-15T08:52:19.000Z</time>
        <extensions>
          <ns3:TrackPointExtension>
            <ns3:atemp>22.0</ns3:atemp>
          </ns3:TrackPointExtension>
        </extensions>
      </trkpt>
      <trkpt lat="42.59934992529451847076416015625" lon="20.11707731522619724273681640625">
        <ele>1699</ele>
        <time>2026-06-15T08:52:20.000Z</time>
        <extensions>
          <ns3:TrackPointExtension>
            <ns3:atemp>22.0</ns3:atemp>
          </ns3:TrackPointExtension>
        </extensions>
      </trkpt>
      <trkpt lat="42.59933886118233203887939453125" lon="20.1170348189771175384521484375">
        <ele>1699.4000244140625</ele>
        <time>2026-06-15T08:52:21.000Z</time>
        <extensions>
          <ns3:TrackPointExtension>
            <ns3:atemp>22.0</ns3:atemp>
          </ns3:TrackPointExtension>
        </extensions>
      </trkpt>
      <trkpt lat="42.59932704269886016845703125" lon="20.11699383147060871124267578125">
        <ele>1699.5999755859375</ele>
        <time>2026-06-15T08:52:22.000Z</time>
        <extensions>
          <ns3:TrackPointExtension>
            <ns3:atemp>22.0</ns3:atemp>
          </ns3:TrackPointExtension>
        </extensions>
      </trkpt>
      <trkpt lat="42.5993154756724834442138671875" lon="20.1169578731060028076171875">
        <ele>1699.800048828125</ele>
        <time>2026-06-15T08:52:23.000Z</time>
        <extensions>
          <ns3:TrackPointExtension>
            <ns3:atemp>22.0</ns3:atemp>
          </ns3:TrackPointExtension>
        </extensions>
      </trkpt>
      <trkpt lat="42.599307261407375335693359375" lon="20.1169194839894771575927734375">
        <ele>1700</ele>
        <time>2026-06-15T08:52:24.000Z</time>
        <extensions>
          <ns3:TrackPointExtension>
            <ns3:atemp>22.0</ns3:atemp>
          </ns3:TrackPointExtension>
        </extensions>
      </trkpt>
      <trkpt lat="42.5992970354855060577392578125" lon="20.116877742111682891845703125">
        <ele>1700.4000244140625</ele>
        <time>2026-06-15T08:52:25.000Z</time>
        <extensions>
          <ns3:TrackPointExtension>
            <ns3:atemp>22.0</ns3:atemp>
          </ns3:TrackPointExtension>
        </extensions>
      </trkpt>
      <trkpt lat="42.59928412735462188720703125" lon="20.11683809570968151092529296875">
        <ele>1700.5999755859375</ele>
        <time>2026-06-15T08:52:26.000Z</time>
        <extensions>
          <ns3:TrackPointExtension>
            <ns3:atemp>22.0</ns3:atemp>
          </ns3:TrackPointExtension>
        </extensions>
      </trkpt>
      <trkpt lat="42.5992715544998645782470703125" lon="20.11680205352604389190673828125">
        <ele>1701</ele>
        <time>2026-06-15T08:52:27.000Z</time>
        <extensions>
          <ns3:TrackPointExtension>
            <ns3:atemp>22.0</ns3:atemp>
          </ns3:TrackPointExtension>
        </extensions>
      </trkpt>
      <trkpt lat="42.599259652197360992431640625" lon="20.1167647540569305419921875">
        <ele>1701.199951171875</ele>
        <time>2026-06-15T08:52:28.000Z</time>
        <extensions>
          <ns3:TrackPointExtension>
            <ns3:atemp>22.0</ns3:atemp>
          </ns3:TrackPointExtension>
        </extensions>
      </trkpt>
      <trkpt lat="42.59925185702741146087646484375" lon="20.11672561056911945343017578125">
        <ele>1701.5999755859375</ele>
        <time>2026-06-15T08:52:29.000Z</time>
        <extensions>
          <ns3:TrackPointExtension>
            <ns3:atemp>22.0</ns3:atemp>
          </ns3:TrackPointExtension>
        </extensions>
      </trkpt>
      <trkpt lat="42.59924330748617649078369140625" lon="20.1166896522045135498046875">
        <ele>1702</ele>
        <time>2026-06-15T08:52:30.000Z</time>
        <extensions>
          <ns3:TrackPointExtension>
            <ns3:atemp>22.0</ns3:atemp>
          </ns3:TrackPointExtension>
        </extensions>
      </trkpt>
      <trkpt lat="42.59923157282173633575439453125" lon="20.11665335856378078460693359375">
        <ele>1702.4000244140625</ele>
        <time>2026-06-15T08:52:31.000Z</time>
        <extensions>
          <ns3:TrackPointExtension>
            <ns3:atemp>22.0</ns3:atemp>
          </ns3:TrackPointExtension>
        </extensions>
      </trkpt>
      <trkpt lat="42.59922168217599391937255859375" lon="20.11661781929433345794677734375">
        <ele>1702.5999755859375</ele>
        <time>2026-06-15T08:52:32.000Z</time>
        <extensions>
          <ns3:TrackPointExtension>
            <ns3:atemp>22.0</ns3:atemp>
          </ns3:TrackPointExtension>
        </extensions>
      </trkpt>
      <trkpt lat="42.59921112097799777984619140625" lon="20.11657297611236572265625">
        <ele>1702.800048828125</ele>
        <time>2026-06-15T08:52:33.000Z</time>
        <extensions>
          <ns3:TrackPointExtension>
            <ns3:atemp>22.0</ns3:atemp>
          </ns3:TrackPointExtension>
        </extensions>
      </trkpt>
      <trkpt lat="42.59920206852257251739501953125" lon="20.11652746237814426422119140625">
        <ele>1703</ele>
        <time>2026-06-15T08:52:34.000Z</time>
        <extensions>
          <ns3:TrackPointExtension>
            <ns3:atemp>22.0</ns3:atemp>
          </ns3:TrackPointExtension>
        </extensions>
      </trkpt>
      <trkpt lat="42.59919293224811553955078125" lon="20.11648739688098430633544921875">
        <ele>1703.4000244140625</ele>
        <time>2026-06-15T08:52:35.000Z</time>
        <extensions>
          <ns3:TrackPointExtension>
            <ns3:atemp>22.0</ns3:atemp>
          </ns3:TrackPointExtension>
        </extensions>
      </trkpt>
      <trkpt lat="42.59918488562107086181640625" lon="20.11644490063190460205078125">
        <ele>1703.800048828125</ele>
        <time>2026-06-15T08:52:36.000Z</time>
        <extensions>
          <ns3:TrackPointExtension>
            <ns3:atemp>22.0</ns3:atemp>
          </ns3:TrackPointExtension>
        </extensions>
      </trkpt>
      <trkpt lat="42.59917759336531162261962890625" lon="20.1163974590599536895751953125">
        <ele>1704</ele>
        <time>2026-06-15T08:52:37.000Z</time>
        <extensions>
          <ns3:TrackPointExtension>
            <ns3:atemp>22.0</ns3:atemp>
          </ns3:TrackPointExtension>
        </extensions>
      </trkpt>
      <trkpt lat="42.59916921146214008331298828125" lon="20.1163555495440959930419921875">
        <ele>1704.199951171875</ele>
        <time>2026-06-15T08:52:38.000Z</time>
        <extensions>
          <ns3:TrackPointExtension>
            <ns3:atemp>22.0</ns3:atemp>
          </ns3:TrackPointExtension>
        </extensions>
      </trkpt>
      <trkpt lat="42.59916066192090511322021484375" lon="20.11631523258984088897705078125">
        <ele>1704.5999755859375</ele>
        <time>2026-06-15T08:52:39.000Z</time>
        <extensions>
          <ns3:TrackPointExtension>
            <ns3:atemp>22.0</ns3:atemp>
          </ns3:TrackPointExtension>
        </extensions>
      </trkpt>
      <trkpt lat="42.599152028560638427734375" lon="20.11627332307398319244384765625">
        <ele>1705</ele>
        <time>2026-06-15T08:52:40.000Z</time>
        <extensions>
          <ns3:TrackPointExtension>
            <ns3:atemp>22.0</ns3:atemp>
          </ns3:TrackPointExtension>
        </extensions>
      </trkpt>
      <trkpt lat="42.59914733469486236572265625" lon="20.11623124592006206512451171875">
        <ele>1705.4000244140625</ele>
        <time>2026-06-15T08:52:41.000Z</time>
        <extensions>
          <ns3:TrackPointExtension>
            <ns3:atemp>22.0</ns3:atemp>
          </ns3:TrackPointExtension>
        </extensions>
      </trkpt>
      <trkpt lat="42.599144987761974334716796875" lon="20.11618606746196746826171875">
        <ele>1705.800048828125</ele>
        <time>2026-06-15T08:52:42.000Z</time>
        <extensions>
          <ns3:TrackPointExtension>
            <ns3:atemp>22.0</ns3:atemp>
          </ns3:TrackPointExtension>
        </extensions>
      </trkpt>
      <trkpt lat="42.59914331138134002685546875" lon="20.1161382906138896942138671875">
        <ele>1706.199951171875</ele>
        <time>2026-06-15T08:52:43.000Z</time>
        <extensions>
          <ns3:TrackPointExtension>
            <ns3:atemp>22.0</ns3:atemp>
          </ns3:TrackPointExtension>
        </extensions>
      </trkpt>
      <trkpt lat="42.599144317209720611572265625" lon="20.11609210632741451263427734375">
        <ele>1706.5999755859375</ele>
        <time>2026-06-15T08:52:44.000Z</time>
        <extensions>
          <ns3:TrackPointExtension>
            <ns3:atemp>22.0</ns3:atemp>
          </ns3:TrackPointExtension>
        </extensions>
      </trkpt>
      <trkpt lat="42.59914473630487918853759765625" lon="20.116050951182842254638671875">
        <ele>1706.800048828125</ele>
        <time>2026-06-15T08:52:45.000Z</time>
        <extensions>
          <ns3:TrackPointExtension>
            <ns3:atemp>22.0</ns3:atemp>
          </ns3:TrackPointExtension>
        </extensions>
      </trkpt>
      <trkpt lat="42.5991434790194034576416015625" lon="20.1160025037825107574462890625">
        <ele>1707.199951171875</ele>
        <time>2026-06-15T08:52:46.000Z</time>
        <extensions>
          <ns3:TrackPointExtension>
            <ns3:atemp>22.0</ns3:atemp>
          </ns3:TrackPointExtension>
        </extensions>
      </trkpt>
      <trkpt lat="42.599146999418735504150390625" lon="20.11596084572374820709228515625">
        <ele>1707.5999755859375</ele>
        <time>2026-06-15T08:52:47.000Z</time>
        <extensions>
          <ns3:TrackPointExtension>
            <ns3:atemp>22.0</ns3:atemp>
          </ns3:TrackPointExtension>
        </extensions>
      </trkpt>
      <trkpt lat="42.59915261529386043548583984375" lon="20.11591977439820766448974609375">
        <ele>1707.800048828125</ele>
        <time>2026-06-15T08:52:48.000Z</time>
        <extensions>
          <ns3:TrackPointExtension>
            <ns3:atemp>22.0</ns3:atemp>
          </ns3:TrackPointExtension>
        </extensions>
      </trkpt>
      <trkpt lat="42.5991560518741607666015625" lon="20.11587887071073055267333984375">
        <ele>1708.199951171875</ele>
        <time>2026-06-15T08:52:49.000Z</time>
        <extensions>
          <ns3:TrackPointExtension>
            <ns3:atemp>22.0</ns3:atemp>
          </ns3:TrackPointExtension>
        </extensions>
      </trkpt>
      <trkpt lat="42.59915898554027080535888671875" lon="20.11583729647099971771240234375">
        <ele>1708.4000244140625</ele>
        <time>2026-06-15T08:52:50.000Z</time>
        <extensions>
          <ns3:TrackPointExtension>
            <ns3:atemp>22.0</ns3:atemp>
          </ns3:TrackPointExtension>
        </extensions>
      </trkpt>
      <trkpt lat="42.59916502051055431365966796875" lon="20.115796141326427459716796875">
        <ele>1708.800048828125</ele>
        <time>2026-06-15T08:52:51.000Z</time>
        <extensions>
          <ns3:TrackPointExtension>
            <ns3:atemp>22.0</ns3:atemp>
          </ns3:TrackPointExtension>
        </extensions>
      </trkpt>
      <trkpt lat="42.5991652719676494598388671875" lon="20.115758590400218963623046875">
        <ele>1709.4000244140625</ele>
        <time>2026-06-15T08:52:52.000Z</time>
        <extensions>
          <ns3:TrackPointExtension>
            <ns3:atemp>22.0</ns3:atemp>
          </ns3:TrackPointExtension>
        </extensions>
      </trkpt>
      <trkpt lat="42.59917105548083782196044921875" lon="20.115717016160488128662109375">
        <ele>1709.800048828125</ele>
        <time>2026-06-15T08:52:53.000Z</time>
        <extensions>
          <ns3:TrackPointExtension>
            <ns3:atemp>22.0</ns3:atemp>
          </ns3:TrackPointExtension>
        </extensions>
      </trkpt>
      <trkpt lat="42.59917239658534526824951171875" lon="20.11567351408302783966064453125">
        <ele>1710.199951171875</ele>
        <time>2026-06-15T08:52:54.000Z</time>
        <extensions>
          <ns3:TrackPointExtension>
            <ns3:atemp>22.0</ns3:atemp>
          </ns3:TrackPointExtension>
        </extensions>
      </trkpt>
      <trkpt lat="42.59917172603309154510498046875" lon="20.1156328618526458740234375">
        <ele>1710.5999755859375</ele>
        <time>2026-06-15T08:52:55.000Z</time>
        <extensions>
          <ns3:TrackPointExtension>
            <ns3:atemp>22.0</ns3:atemp>
          </ns3:TrackPointExtension>
        </extensions>
      </trkpt>
      <trkpt lat="42.599170468747615814208984375" lon="20.1155944727361202239990234375">
        <ele>1711</ele>
        <time>2026-06-15T08:52:56.000Z</time>
        <extensions>
          <ns3:TrackPointExtension>
            <ns3:atemp>22.0</ns3:atemp>
          </ns3:TrackPointExtension>
        </extensions>
      </trkpt>
      <trkpt lat="42.5991666130721569061279296875" lon="20.11555532924830913543701171875">
        <ele>1711.4000244140625</ele>
        <time>2026-06-15T08:52:57.000Z</time>
        <extensions>
          <ns3:TrackPointExtension>
            <ns3:atemp>22.0</ns3:atemp>
          </ns3:TrackPointExtension>
        </extensions>
      </trkpt>
      <trkpt lat="42.5991649366915225982666015625" lon="20.11551258154213428497314453125">
        <ele>1711.4000244140625</ele>
        <time>2026-06-15T08:52:58.000Z</time>
        <extensions>
          <ns3:TrackPointExtension>
            <ns3:atemp>22.0</ns3:atemp>
          </ns3:TrackPointExtension>
        </extensions>
      </trkpt>
      <trkpt lat="42.599161751568317413330078125" lon="20.1154674030840396881103515625">
        <ele>1711.5999755859375</ele>
        <time>2026-06-15T08:52:59.000Z</time>
        <extensions>
          <ns3:TrackPointExtension>
            <ns3:atemp>22.0</ns3:atemp>
          </ns3:TrackPointExtension>
        </extensions>
      </trkpt>
      <trkpt lat="42.5991562195122241973876953125" lon="20.11542641557753086090087890625">
        <ele>1712</ele>
        <time>2026-06-15T08:53:00.000Z</time>
        <extensions>
          <ns3:TrackPointExtension>
            <ns3:atemp>22.0</ns3:atemp>
          </ns3:TrackPointExtension>
        </extensions>
      </trkpt>
      <trkpt lat="42.5991508550941944122314453125" lon="20.11538668535649776458740234375">
        <ele>1712.199951171875</ele>
        <time>2026-06-15T08:53:01.000Z</time>
        <extensions>
          <ns3:TrackPointExtension>
            <ns3:atemp>22.0</ns3:atemp>
          </ns3:TrackPointExtension>
        </extensions>
      </trkpt>
      <trkpt lat="42.59914607740938663482666015625" lon="20.11534561403095722198486328125">
        <ele>1712.800048828125</ele>
        <time>2026-06-15T08:53:02.000Z</time>
        <extensions>
          <ns3:TrackPointExtension>
            <ns3:atemp>22.0</ns3:atemp>
          </ns3:TrackPointExtension>
        </extensions>
      </trkpt>
      <trkpt lat="42.59913886897265911102294921875" lon="20.1153041236102581024169921875">
        <ele>1713.199951171875</ele>
        <time>2026-06-15T08:53:03.000Z</time>
        <extensions>
          <ns3:TrackPointExtension>
            <ns3:atemp>22.0</ns3:atemp>
          </ns3:TrackPointExtension>
        </extensions>
      </trkpt>
      <trkpt lat="42.59913249872624874114990234375" lon="20.1152669079601764678955078125">
        <ele>1713.5999755859375</ele>
        <time>2026-06-15T08:53:04.000Z</time>
        <extensions>
          <ns3:TrackPointExtension>
            <ns3:atemp>22.0</ns3:atemp>
          </ns3:TrackPointExtension>
        </extensions>
      </trkpt>
      <trkpt lat="42.5991270504891872406005859375" lon="20.11522441171109676361083984375">
        <ele>1714</ele>
        <time>2026-06-15T08:53:05.000Z</time>
        <extensions>
          <ns3:TrackPointExtension>
            <ns3:atemp>22.0</ns3:atemp>
          </ns3:TrackPointExtension>
        </extensions>
      </trkpt>
      <trkpt lat="42.59911917150020599365234375" lon="20.1151844300329685211181640625">
        <ele>1714.4000244140625</ele>
        <time>2026-06-15T08:53:06.000Z</time>
        <extensions>
          <ns3:TrackPointExtension>
            <ns3:atemp>22.0</ns3:atemp>
          </ns3:TrackPointExtension>
        </extensions>
      </trkpt>
      <trkpt lat="42.59911221452057361602783203125" lon="20.11514310725033283233642578125">
        <ele>1715</ele>
        <time>2026-06-15T08:53:07.000Z</time>
        <extensions>
          <ns3:TrackPointExtension>
            <ns3:atemp>22.0</ns3:atemp>
          </ns3:TrackPointExtension>
        </extensions>
      </trkpt>
      <trkpt lat="42.599104084074497222900390625" lon="20.11510035954415798187255859375">
        <ele>1715.4000244140625</ele>
        <time>2026-06-15T08:53:08.000Z</time>
        <extensions>
          <ns3:TrackPointExtension>
            <ns3:atemp>22.0</ns3:atemp>
          </ns3:TrackPointExtension>
        </extensions>
      </trkpt>
      <trkpt lat="42.59909612126648426055908203125" lon="20.11505945585668087005615234375">
        <ele>1715.800048828125</ele>
        <time>2026-06-15T08:53:09.000Z</time>
        <extensions>
          <ns3:TrackPointExtension>
            <ns3:atemp>22.0</ns3:atemp>
          </ns3:TrackPointExtension>
        </extensions>
      </trkpt>
      <trkpt lat="42.5990891642868518829345703125" lon="20.11501788161695003509521484375">
        <ele>1716.199951171875</ele>
        <time>2026-06-15T08:53:10.000Z</time>
        <extensions>
          <ns3:TrackPointExtension>
            <ns3:atemp>22.0</ns3:atemp>
          </ns3:TrackPointExtension>
        </extensions>
      </trkpt>
      <trkpt lat="42.59908053092658519744873046875" lon="20.11497639119625091552734375">
        <ele>1716.5999755859375</ele>
        <time>2026-06-15T08:53:11.000Z</time>
        <extensions>
          <ns3:TrackPointExtension>
            <ns3:atemp>22.0</ns3:atemp>
          </ns3:TrackPointExtension>
        </extensions>
      </trkpt>
      <trkpt lat="42.5990724004805088043212890625" lon="20.1149339787662029266357421875">
        <ele>1717</ele>
        <time>2026-06-15T08:53:12.000Z</time>
        <extensions>
          <ns3:TrackPointExtension>
            <ns3:atemp>22.0</ns3:atemp>
          </ns3:TrackPointExtension>
        </extensions>
      </trkpt>
      <trkpt lat="42.5990640185773372650146484375" lon="20.1148903928697109222412109375">
        <ele>1717.5999755859375</ele>
        <time>2026-06-15T08:53:13.000Z</time>
        <extensions>
          <ns3:TrackPointExtension>
            <ns3:atemp>22.0</ns3:atemp>
          </ns3:TrackPointExtension>
        </extensions>
      </trkpt>
      <trkpt lat="42.59905387647449970245361328125" lon="20.11484471149742603302001953125">
        <ele>1718</ele>
        <time>2026-06-15T08:53:14.000Z</time>
        <extensions>
          <ns3:TrackPointExtension>
            <ns3:atemp>22.0</ns3:atemp>
          </ns3:TrackPointExtension>
        </extensions>
      </trkpt>
      <trkpt lat="42.5990433990955352783203125" lon="20.11479936540126800537109375">
        <ele>1718.199951171875</ele>
        <time>2026-06-15T08:53:15.000Z</time>
        <extensions>
          <ns3:TrackPointExtension>
            <ns3:atemp>22.0</ns3:atemp>
          </ns3:TrackPointExtension>
        </extensions>
      </trkpt>
      <trkpt lat="42.59903308935463428497314453125" lon="20.11475703679025173187255859375">
        <ele>1718.4000244140625</ele>
        <time>2026-06-15T08:53:16.000Z</time>
        <extensions>
          <ns3:TrackPointExtension>
            <ns3:atemp>22.0</ns3:atemp>
          </ns3:TrackPointExtension>
        </extensions>
      </trkpt>
      <trkpt lat="42.59902336634695529937744140625" lon="20.11471688747406005859375">
        <ele>1718.800048828125</ele>
        <time>2026-06-15T08:53:17.000Z</time>
        <extensions>
          <ns3:TrackPointExtension>
            <ns3:atemp>22.0</ns3:atemp>
          </ns3:TrackPointExtension>
        </extensions>
      </trkpt>
      <trkpt lat="42.5990138947963714599609375" lon="20.114676654338836669921875">
        <ele>1719.4000244140625</ele>
        <time>2026-06-15T08:53:18.000Z</time>
        <extensions>
          <ns3:TrackPointExtension>
            <ns3:atemp>22.0</ns3:atemp>
          </ns3:TrackPointExtension>
        </extensions>
      </trkpt>
      <trkpt lat="42.59900459088385105133056640625" lon="20.11463348753750324249267578125">
        <ele>1719.5999755859375</ele>
        <time>2026-06-15T08:53:19.000Z</time>
        <extensions>
          <ns3:TrackPointExtension>
            <ns3:atemp>22.0</ns3:atemp>
          </ns3:TrackPointExtension>
        </extensions>
      </trkpt>
      <trkpt lat="42.59899587370455265045166015625" lon="20.114589817821979522705078125">
        <ele>1720</ele>
        <time>2026-06-15T08:53:20.000Z</time>
        <extensions>
          <ns3:TrackPointExtension>
            <ns3:atemp>22.0</ns3:atemp>
          </ns3:TrackPointExtension>
        </extensions>
      </trkpt>
      <trkpt lat="42.5989869050681591033935546875" lon="20.11454732157289981842041015625">
        <ele>1720.4000244140625</ele>
        <time>2026-06-15T08:53:21.000Z</time>
        <extensions>
          <ns3:TrackPointExtension>
            <ns3:atemp>22.0</ns3:atemp>
          </ns3:TrackPointExtension>
        </extensions>
      </trkpt>
      <trkpt lat="42.5989771820604801177978515625" lon="20.114506669342517852783203125">
        <ele>1720.800048828125</ele>
        <time>2026-06-15T08:53:22.000Z</time>
        <extensions>
          <ns3:TrackPointExtension>
            <ns3:atemp>22.0</ns3:atemp>
          </ns3:TrackPointExtension>
        </extensions>
      </trkpt>
      <trkpt lat="42.59896687231957912445068359375" lon="20.1144655980169773101806640625">
        <ele>1721.4000244140625</ele>
        <time>2026-06-15T08:53:23.000Z</time>
        <extensions>
          <ns3:TrackPointExtension>
            <ns3:atemp>22.0</ns3:atemp>
          </ns3:TrackPointExtension>
        </extensions>
      </trkpt>
      <trkpt lat="42.59895798750221729278564453125" lon="20.11442377232015132904052734375">
        <ele>1721.800048828125</ele>
        <time>2026-06-15T08:53:24.000Z</time>
        <extensions>
          <ns3:TrackPointExtension>
            <ns3:atemp>22.0</ns3:atemp>
          </ns3:TrackPointExtension>
        </extensions>
      </trkpt>
      <trkpt lat="42.598949186503887176513671875" lon="20.114385969936847686767578125">
        <ele>1722.199951171875</ele>
        <time>2026-06-15T08:53:25.000Z</time>
        <extensions>
          <ns3:TrackPointExtension>
            <ns3:atemp>22.0</ns3:atemp>
          </ns3:TrackPointExtension>
        </extensions>
      </trkpt>
      <trkpt lat="42.598941139876842498779296875" lon="20.114346407353878021240234375">
        <ele>1722.5999755859375</ele>
        <time>2026-06-15T08:53:26.000Z</time>
        <extensions>
          <ns3:TrackPointExtension>
            <ns3:atemp>22.0</ns3:atemp>
          </ns3:TrackPointExtension>
        </extensions>
      </trkpt>
      <trkpt lat="42.598933093249797821044921875" lon="20.11430860497057437896728515625">
        <ele>1722.800048828125</ele>
        <time>2026-06-15T08:53:27.000Z</time>
        <extensions>
          <ns3:TrackPointExtension>
            <ns3:atemp>22.0</ns3:atemp>
          </ns3:TrackPointExtension>
        </extensions>
      </trkpt>
      <trkpt lat="42.59892546571791172027587890625" lon="20.11426753364503383636474609375">
        <ele>1723.199951171875</ele>
        <time>2026-06-15T08:53:28.000Z</time>
        <extensions>
          <ns3:TrackPointExtension>
            <ns3:atemp>22.0</ns3:atemp>
          </ns3:TrackPointExtension>
        </extensions>
      </trkpt>
      <trkpt lat="42.59891674853861331939697265625" lon="20.11422713287174701690673828125">
        <ele>1723.800048828125</ele>
        <time>2026-06-15T08:53:29.000Z</time>
        <extensions>
          <ns3:TrackPointExtension>
            <ns3:atemp>22.0</ns3:atemp>
          </ns3:TrackPointExtension>
        </extensions>
      </trkpt>
      <trkpt lat="42.5989111326634883880615234375" lon="20.1141856424510478973388671875">
        <ele>1724.199951171875</ele>
        <time>2026-06-15T08:53:30.000Z</time>
        <extensions>
          <ns3:TrackPointExtension>
            <ns3:atemp>22.0</ns3:atemp>
          </ns3:TrackPointExtension>
        </extensions>
      </trkpt>
      <trkpt lat="42.5989030860364437103271484375" lon="20.114147923886775970458984375">
        <ele>1724.800048828125</ele>
        <time>2026-06-15T08:53:31.000Z</time>
        <extensions>
          <ns3:TrackPointExtension>
            <ns3:atemp>22.0</ns3:atemp>
          </ns3:TrackPointExtension>
        </extensions>
      </trkpt>
      <trkpt lat="42.5988957099616527557373046875" lon="20.11410609818994998931884765625">
        <ele>1725.199951171875</ele>
        <time>2026-06-15T08:53:32.000Z</time>
        <extensions>
          <ns3:TrackPointExtension>
            <ns3:atemp>22.0</ns3:atemp>
          </ns3:TrackPointExtension>
        </extensions>
      </trkpt>
      <trkpt lat="42.59888590313494205474853515625" lon="20.1140622608363628387451171875">
        <ele>1725.800048828125</ele>
        <time>2026-06-15T08:53:33.000Z</time>
        <extensions>
          <ns3:TrackPointExtension>
            <ns3:atemp>22.0</ns3:atemp>
          </ns3:TrackPointExtension>
        </extensions>
      </trkpt>
      <trkpt lat="42.598879449069499969482421875" lon="20.11401507072150707244873046875">
        <ele>1726.199951171875</ele>
        <time>2026-06-15T08:53:34.000Z</time>
        <extensions>
          <ns3:TrackPointExtension>
            <ns3:atemp>22.0</ns3:atemp>
          </ns3:TrackPointExtension>
        </extensions>
      </trkpt>
      <trkpt lat="42.59886972606182098388671875" lon="20.11397324502468109130859375">
        <ele>1726.5999755859375</ele>
        <time>2026-06-15T08:53:35.000Z</time>
        <extensions>
          <ns3:TrackPointExtension>
            <ns3:atemp>22.0</ns3:atemp>
          </ns3:TrackPointExtension>
        </extensions>
      </trkpt>
      <trkpt lat="42.598862014710903167724609375" lon="20.11393644846975803375244140625">
        <ele>1727</ele>
        <time>2026-06-15T08:53:36.000Z</time>
        <extensions>
          <ns3:TrackPointExtension>
            <ns3:atemp>22.0</ns3:atemp>
          </ns3:TrackPointExtension>
        </extensions>
      </trkpt>
      <trkpt lat="42.5988543033599853515625" lon="20.11389655061066150665283203125">
        <ele>1727.4000244140625</ele>
        <time>2026-06-15T08:53:37.000Z</time>
        <extensions>
          <ns3:TrackPointExtension>
            <ns3:atemp>22.0</ns3:atemp>
          </ns3:TrackPointExtension>
        </extensions>
      </trkpt>
      <trkpt lat="42.598845921456813812255859375" lon="20.113856904208660125732421875">
        <ele>1727.800048828125</ele>
        <time>2026-06-15T08:53:38.000Z</time>
        <extensions>
          <ns3:TrackPointExtension>
            <ns3:atemp>22.0</ns3:atemp>
          </ns3:TrackPointExtension>
        </extensions>
      </trkpt>
      <trkpt lat="42.59883913211524486541748046875" lon="20.11381809599697589874267578125">
        <ele>1728.199951171875</ele>
        <time>2026-06-15T08:53:39.000Z</time>
        <extensions>
          <ns3:TrackPointExtension>
            <ns3:atemp>22.0</ns3:atemp>
          </ns3:TrackPointExtension>
        </extensions>
      </trkpt>
      <trkpt lat="42.59883075021207332611083984375" lon="20.11377744376659393310546875">
        <ele>1728.5999755859375</ele>
        <time>2026-06-15T08:53:40.000Z</time>
        <extensions>
          <ns3:TrackPointExtension>
            <ns3:atemp>22.0</ns3:atemp>
          </ns3:TrackPointExtension>
        </extensions>
      </trkpt>
      <trkpt lat="42.59882186539471149444580078125" lon="20.1137346960604190826416015625">
        <ele>1729.199951171875</ele>
        <time>2026-06-15T08:53:41.000Z</time>
        <extensions>
          <ns3:TrackPointExtension>
            <ns3:atemp>22.0</ns3:atemp>
          </ns3:TrackPointExtension>
        </extensions>
      </trkpt>
      <trkpt lat="42.59881348349153995513916015625" lon="20.1136927865445613861083984375">
        <ele>1729.4000244140625</ele>
        <time>2026-06-15T08:53:42.000Z</time>
        <extensions>
          <ns3:TrackPointExtension>
            <ns3:atemp>22.0</ns3:atemp>
          </ns3:TrackPointExtension>
        </extensions>
      </trkpt>
      <trkpt lat="42.59880644269287586212158203125" lon="20.1136562414467334747314453125">
        <ele>1729.800048828125</ele>
        <time>2026-06-15T08:53:43.000Z</time>
        <extensions>
          <ns3:TrackPointExtension>
            <ns3:atemp>22.0</ns3:atemp>
          </ns3:TrackPointExtension>
        </extensions>
      </trkpt>
      <trkpt lat="42.598801665008068084716796875" lon="20.11360905133187770843505859375">
        <ele>1730.199951171875</ele>
        <time>2026-06-15T08:53:44.000Z</time>
        <extensions>
          <ns3:TrackPointExtension>
            <ns3:atemp>22.0</ns3:atemp>
          </ns3:TrackPointExtension>
        </extensions>
      </trkpt>
      <trkpt lat="42.59879286400973796844482421875" lon="20.11357233859598636627197265625">
        <ele>1730.800048828125</ele>
        <time>2026-06-15T08:53:45.000Z</time>
        <extensions>
          <ns3:TrackPointExtension>
            <ns3:atemp>22.0</ns3:atemp>
          </ns3:TrackPointExtension>
        </extensions>
      </trkpt>
      <trkpt lat="42.5987880863249301910400390625" lon="20.11353026144206523895263671875">
        <ele>1731.199951171875</ele>
        <time>2026-06-15T08:53:46.000Z</time>
        <extensions>
          <ns3:TrackPointExtension>
            <ns3:atemp>22.0</ns3:atemp>
          </ns3:TrackPointExtension>
        </extensions>
      </trkpt>
      <trkpt lat="42.5987810455262660980224609375" lon="20.1134875975549221038818359375">
        <ele>1731.5999755859375</ele>
        <time>2026-06-15T08:53:47.000Z</time>
        <extensions>
          <ns3:TrackPointExtension>
            <ns3:atemp>22.0</ns3:atemp>
          </ns3:TrackPointExtension>
        </extensions>
      </trkpt>
      <trkpt lat="42.5987776927649974822998046875" lon="20.1134388148784637451171875">
        <ele>1731.800048828125</ele>
        <time>2026-06-15T08:53:48.000Z</time>
        <extensions>
          <ns3:TrackPointExtension>
            <ns3:atemp>22.0</ns3:atemp>
          </ns3:TrackPointExtension>
        </extensions>
      </trkpt>
      <trkpt lat="42.59877341799437999725341796875" lon="20.1133890263736248016357421875">
        <ele>1732.199951171875</ele>
        <time>2026-06-15T08:53:49.000Z</time>
        <extensions>
          <ns3:TrackPointExtension>
            <ns3:atemp>22.0</ns3:atemp>
          </ns3:TrackPointExtension>
        </extensions>
      </trkpt>
      <trkpt lat="42.59876939468085765838623046875" lon="20.11333647184073925018310546875">
        <ele>1732.5999755859375</ele>
        <time>2026-06-15T08:53:50.000Z</time>
        <extensions>
          <ns3:TrackPointExtension>
            <ns3:atemp>22.0</ns3:atemp>
          </ns3:TrackPointExtension>
        </extensions>
      </trkpt>
      <trkpt lat="42.5987671315670013427734375" lon="20.11328852735459804534912109375">
        <ele>1732.800048828125</ele>
        <time>2026-06-15T08:53:51.000Z</time>
        <extensions>
          <ns3:TrackPointExtension>
            <ns3:atemp>22.0</ns3:atemp>
          </ns3:TrackPointExtension>
        </extensions>
      </trkpt>
      <trkpt lat="42.598763443529605865478515625" lon="20.11324007995426654815673828125">
        <ele>1733.199951171875</ele>
        <time>2026-06-15T08:53:52.000Z</time>
        <extensions>
          <ns3:TrackPointExtension>
            <ns3:atemp>22.0</ns3:atemp>
          </ns3:TrackPointExtension>
        </extensions>
      </trkpt>
      <trkpt lat="42.59876218624413013458251953125" lon="20.1131949014961719512939453125">
        <ele>1733.4000244140625</ele>
        <time>2026-06-15T08:53:53.000Z</time>
        <extensions>
          <ns3:TrackPointExtension>
            <ns3:atemp>22.0</ns3:atemp>
          </ns3:TrackPointExtension>
        </extensions>
      </trkpt>
      <trkpt lat="42.598762102425098419189453125" lon="20.11315056122839450836181640625">
        <ele>1733.800048828125</ele>
        <time>2026-06-15T08:53:54.000Z</time>
        <extensions>
          <ns3:TrackPointExtension>
            <ns3:atemp>22.0</ns3:atemp>
          </ns3:TrackPointExtension>
        </extensions>
      </trkpt>
      <trkpt lat="42.598762772977352142333984375" lon="20.11310563422739505767822265625">
        <ele>1734.199951171875</ele>
        <time>2026-06-15T08:53:55.000Z</time>
        <extensions>
          <ns3:TrackPointExtension>
            <ns3:atemp>22.0</ns3:atemp>
          </ns3:TrackPointExtension>
        </extensions>
      </trkpt>
      <trkpt lat="42.59876134805381298065185546875" lon="20.11306204833090305328369140625">
        <ele>1734.5999755859375</ele>
        <time>2026-06-15T08:53:56.000Z</time>
        <extensions>
          <ns3:TrackPointExtension>
            <ns3:atemp>22.0</ns3:atemp>
          </ns3:TrackPointExtension>
        </extensions>
      </trkpt>
      <trkpt lat="42.59876218624413013458251953125" lon="20.113023407757282257080078125">
        <ele>1735</ele>
        <time>2026-06-15T08:53:57.000Z</time>
        <extensions>
          <ns3:TrackPointExtension>
            <ns3:atemp>22.0</ns3:atemp>
          </ns3:TrackPointExtension>
        </extensions>
      </trkpt>
      <trkpt lat="42.598761431872844696044921875" lon="20.1129820011556148529052734375">
        <ele>1735.4000244140625</ele>
        <time>2026-06-15T08:53:58.000Z</time>
        <extensions>
          <ns3:TrackPointExtension>
            <ns3:atemp>22.0</ns3:atemp>
          </ns3:TrackPointExtension>
        </extensions>
      </trkpt>
      <trkpt lat="42.5987602584064006805419921875" lon="20.1129390858113765716552734375">
        <ele>1735.5999755859375</ele>
        <time>2026-06-15T08:53:59.000Z</time>
        <extensions>
          <ns3:TrackPointExtension>
            <ns3:atemp>22.0</ns3:atemp>
          </ns3:TrackPointExtension>
        </extensions>
      </trkpt>
      <trkpt lat="42.59875774383544921875" lon="20.1128943264484405517578125">
        <ele>1736</ele>
        <time>2026-06-15T08:54:00.000Z</time>
        <extensions>
          <ns3:TrackPointExtension>
            <ns3:atemp>22.0</ns3:atemp>
          </ns3:TrackPointExtension>
        </extensions>
      </trkpt>
      <trkpt lat="42.5987548939883708953857421875" lon="20.11285367421805858612060546875">
        <ele>1736.5999755859375</ele>
        <time>2026-06-15T08:54:01.000Z</time>
        <extensions>
          <ns3:TrackPointExtension>
            <ns3:atemp>22.0</ns3:atemp>
          </ns3:TrackPointExtension>
        </extensions>
      </trkpt>
      <trkpt lat="42.5987532176077365875244140625" lon="20.112812183797359466552734375">
        <ele>1737</ele>
        <time>2026-06-15T08:54:02.000Z</time>
        <extensions>
          <ns3:TrackPointExtension>
            <ns3:atemp>22.0</ns3:atemp>
          </ns3:TrackPointExtension>
        </extensions>
      </trkpt>
      <trkpt lat="42.5987491942942142486572265625" lon="20.11277002282440662384033203125">
        <ele>1737.4000244140625</ele>
        <time>2026-06-15T08:54:03.000Z</time>
        <extensions>
          <ns3:TrackPointExtension>
            <ns3:atemp>22.0</ns3:atemp>
          </ns3:TrackPointExtension>
        </extensions>
      </trkpt>
      <trkpt lat="42.59874525479972362518310546875" lon="20.112722329795360565185546875">
        <ele>1737.5999755859375</ele>
        <time>2026-06-15T08:54:04.000Z</time>
        <extensions>
          <ns3:TrackPointExtension>
            <ns3:atemp>22.0</ns3:atemp>
          </ns3:TrackPointExtension>
        </extensions>
      </trkpt>
      <trkpt lat="42.5987434946000576019287109375" lon="20.11267513968050479888916015625">
        <ele>1737.800048828125</ele>
        <time>2026-06-15T08:54:05.000Z</time>
        <extensions>
          <ns3:TrackPointExtension>
            <ns3:atemp>22.0</ns3:atemp>
          </ns3:TrackPointExtension>
        </extensions>
      </trkpt>
      <trkpt lat="42.59874089621007442474365234375" lon="20.11262635700404644012451171875">
        <ele>1738.199951171875</ele>
        <time>2026-06-15T08:54:06.000Z</time>
        <extensions>
          <ns3:TrackPointExtension>
            <ns3:atemp>22.0</ns3:atemp>
          </ns3:TrackPointExtension>
        </extensions>
      </trkpt>
      <trkpt lat="42.5987391360104084014892578125" lon="20.11257707141339778900146484375">
        <ele>1738.5999755859375</ele>
        <time>2026-06-15T08:54:07.000Z</time>
        <extensions>
          <ns3:TrackPointExtension>
            <ns3:atemp>22.0</ns3:atemp>
          </ns3:TrackPointExtension>
        </extensions>
      </trkpt>
      <trkpt lat="42.5987322628498077392578125" lon="20.11252677999436855316162109375">
        <ele>1738.800048828125</ele>
        <time>2026-06-15T08:54:08.000Z</time>
        <extensions>
          <ns3:TrackPointExtension>
            <ns3:atemp>22.0</ns3:atemp>
          </ns3:TrackPointExtension>
        </extensions>
      </trkpt>
      <trkpt lat="42.5987268984317779541015625" lon="20.11248269118368625640869140625">
        <ele>1739.199951171875</ele>
        <time>2026-06-15T08:54:09.000Z</time>
        <extensions>
          <ns3:TrackPointExtension>
            <ns3:atemp>22.0</ns3:atemp>
          </ns3:TrackPointExtension>
        </extensions>
      </trkpt>
      <trkpt lat="42.5987200252711772918701171875" lon="20.11243877001106739044189453125">
        <ele>1739.5999755859375</ele>
        <time>2026-06-15T08:54:10.000Z</time>
        <extensions>
          <ns3:TrackPointExtension>
            <ns3:atemp>22.0</ns3:atemp>
          </ns3:TrackPointExtension>
        </extensions>
      </trkpt>
      <trkpt lat="42.59871122427284717559814453125" lon="20.112394429743289947509765625">
        <ele>1740</ele>
        <time>2026-06-15T08:54:11.000Z</time>
        <extensions>
          <ns3:TrackPointExtension>
            <ns3:atemp>22.0</ns3:atemp>
          </ns3:TrackPointExtension>
        </extensions>
      </trkpt>
      <trkpt lat="42.59870200417935848236083984375" lon="20.11235260404646396636962890625">
        <ele>1740.4000244140625</ele>
        <time>2026-06-15T08:54:12.000Z</time>
        <extensions>
          <ns3:TrackPointExtension>
            <ns3:atemp>22.0</ns3:atemp>
          </ns3:TrackPointExtension>
        </extensions>
      </trkpt>
      <trkpt lat="42.5986942090094089508056640625" lon="20.11230600066483020782470703125">
        <ele>1740.5999755859375</ele>
        <time>2026-06-15T08:54:13.000Z</time>
        <extensions>
          <ns3:TrackPointExtension>
            <ns3:atemp>22.0</ns3:atemp>
          </ns3:TrackPointExtension>
        </extensions>
      </trkpt>
      <trkpt lat="42.59868792258203029632568359375" lon="20.112263672053813934326171875">
        <ele>1741</ele>
        <time>2026-06-15T08:54:14.000Z</time>
        <extensions>
          <ns3:TrackPointExtension>
            <ns3:atemp>22.0</ns3:atemp>
          </ns3:TrackPointExtension>
        </extensions>
      </trkpt>
      <trkpt lat="42.59867794811725616455078125" lon="20.11221908032894134521484375">
        <ele>1741.4000244140625</ele>
        <time>2026-06-15T08:54:15.000Z</time>
        <extensions>
          <ns3:TrackPointExtension>
            <ns3:atemp>22.0</ns3:atemp>
          </ns3:TrackPointExtension>
        </extensions>
      </trkpt>
      <trkpt lat="42.5986704044044017791748046875" lon="20.11216954328119754791259765625">
        <ele>1741.5999755859375</ele>
        <time>2026-06-15T08:54:16.000Z</time>
        <extensions>
          <ns3:TrackPointExtension>
            <ns3:atemp>22.0</ns3:atemp>
          </ns3:TrackPointExtension>
        </extensions>
      </trkpt>
      <trkpt lat="42.5986657105386257171630859375" lon="20.1121200062334537506103515625">
        <ele>1742</ele>
        <time>2026-06-15T08:54:17.000Z</time>
        <extensions>
          <ns3:TrackPointExtension>
            <ns3:atemp>22.0</ns3:atemp>
          </ns3:TrackPointExtension>
        </extensions>
      </trkpt>
      <trkpt lat="42.598660849034786224365234375" lon="20.11207365430891513824462890625">
        <ele>1742.4000244140625</ele>
        <time>2026-06-15T08:54:18.000Z</time>
        <extensions>
          <ns3:TrackPointExtension>
            <ns3:atemp>22.0</ns3:atemp>
          </ns3:TrackPointExtension>
        </extensions>
      </trkpt>
      <trkpt lat="42.5986536405980587005615234375" lon="20.1120257936418056488037109375">
        <ele>1742.5999755859375</ele>
        <time>2026-06-15T08:54:19.000Z</time>
        <extensions>
          <ns3:TrackPointExtension>
            <ns3:atemp>22.0</ns3:atemp>
          </ns3:TrackPointExtension>
        </extensions>
      </trkpt>
      <trkpt lat="42.598646096885204315185546875" lon="20.11197726242244243621826171875">
        <ele>1742.800048828125</ele>
        <time>2026-06-15T08:54:20.000Z</time>
        <extensions>
          <ns3:TrackPointExtension>
            <ns3:atemp>22.0</ns3:atemp>
          </ns3:TrackPointExtension>
        </extensions>
      </trkpt>
      <trkpt lat="42.598639391362667083740234375" lon="20.1119345985352993011474609375">
        <ele>1742.800048828125</ele>
        <time>2026-06-15T08:54:21.000Z</time>
        <extensions>
          <ns3:TrackPointExtension>
            <ns3:atemp>22.0</ns3:atemp>
          </ns3:TrackPointExtension>
        </extensions>
      </trkpt>
      <trkpt lat="42.5986325182020664215087890625" lon="20.1118933595716953277587890625">
        <ele>1742.800048828125</ele>
        <time>2026-06-15T08:54:22.000Z</time>
        <extensions>
          <ns3:TrackPointExtension>
            <ns3:atemp>22.0</ns3:atemp>
          </ns3:TrackPointExtension>
        </extensions>
      </trkpt>
      <trkpt lat="42.598627321422100067138671875" lon="20.111851952970027923583984375">
        <ele>1742.800048828125</ele>
        <time>2026-06-15T08:54:23.000Z</time>
        <extensions>
          <ns3:TrackPointExtension>
            <ns3:atemp>22.0</ns3:atemp>
          </ns3:TrackPointExtension>
        </extensions>
      </trkpt>
      <trkpt lat="42.5986201129853725433349609375" lon="20.11180979199707508087158203125">
        <ele>1743</ele>
        <time>2026-06-15T08:54:24.000Z</time>
        <extensions>
          <ns3:TrackPointExtension>
            <ns3:atemp>22.0</ns3:atemp>
          </ns3:TrackPointExtension>
        </extensions>
      </trkpt>
      <trkpt lat="42.5986100547015666961669921875" lon="20.11176955886185169219970703125">
        <ele>1743.199951171875</ele>
        <time>2026-06-15T08:54:25.000Z</time>
        <extensions>
          <ns3:TrackPointExtension>
            <ns3:atemp>22.0</ns3:atemp>
          </ns3:TrackPointExtension>
        </extensions>
      </trkpt>
      <trkpt lat="42.598600499331951141357421875" lon="20.111727900803089141845703125">
        <ele>1743.5999755859375</ele>
        <time>2026-06-15T08:54:26.000Z</time>
        <extensions>
          <ns3:TrackPointExtension>
            <ns3:atemp>22.0</ns3:atemp>
          </ns3:TrackPointExtension>
        </extensions>
      </trkpt>
      <trkpt lat="42.5985885970294475555419921875" lon="20.11168800294399261474609375">
        <ele>1744.199951171875</ele>
        <time>2026-06-15T08:54:27.000Z</time>
        <extensions>
          <ns3:TrackPointExtension>
            <ns3:atemp>22.0</ns3:atemp>
          </ns3:TrackPointExtension>
        </extensions>
      </trkpt>
      <trkpt lat="42.59858071804046630859375" lon="20.1116455905139446258544921875">
        <ele>1744.5999755859375</ele>
        <time>2026-06-15T08:54:28.000Z</time>
        <extensions>
          <ns3:TrackPointExtension>
            <ns3:atemp>22.0</ns3:atemp>
          </ns3:TrackPointExtension>
        </extensions>
      </trkpt>
      <trkpt lat="42.59857174940407276153564453125" lon="20.11160762049257755279541015625">
        <ele>1745</ele>
        <time>2026-06-15T08:54:29.000Z</time>
        <extensions>
          <ns3:TrackPointExtension>
            <ns3:atemp>22.0</ns3:atemp>
          </ns3:TrackPointExtension>
        </extensions>
      </trkpt>
      <trkpt lat="42.5985621102154254913330078125" lon="20.11156235821545124053955078125">
        <ele>1745.4000244140625</ele>
        <time>2026-06-15T08:54:30.000Z</time>
        <extensions>
          <ns3:TrackPointExtension>
            <ns3:atemp>22.0</ns3:atemp>
          </ns3:TrackPointExtension>
        </extensions>
      </trkpt>
      <trkpt lat="42.59855096228420734405517578125" lon="20.1115151681005954742431640625">
        <ele>1745.5999755859375</ele>
        <time>2026-06-15T08:54:31.000Z</time>
        <extensions>
          <ns3:TrackPointExtension>
            <ns3:atemp>22.0</ns3:atemp>
          </ns3:TrackPointExtension>
        </extensions>
      </trkpt>
      <trkpt lat="42.59853889234364032745361328125" lon="20.1114702410995960235595703125">
        <ele>1745.800048828125</ele>
        <time>2026-06-15T08:54:32.000Z</time>
        <extensions>
          <ns3:TrackPointExtension>
            <ns3:atemp>22.0</ns3:atemp>
          </ns3:TrackPointExtension>
        </extensions>
      </trkpt>
      <trkpt lat="42.598526738584041595458984375" lon="20.11142891831696033477783203125">
        <ele>1746</ele>
        <time>2026-06-15T08:54:33.000Z</time>
        <extensions>
          <ns3:TrackPointExtension>
            <ns3:atemp>22.0</ns3:atemp>
          </ns3:TrackPointExtension>
        </extensions>
      </trkpt>
      <trkpt lat="42.5985150039196014404296875" lon="20.111387930810451507568359375">
        <ele>1746.4000244140625</ele>
        <time>2026-06-15T08:54:34.000Z</time>
        <extensions>
          <ns3:TrackPointExtension>
            <ns3:atemp>22.0</ns3:atemp>
          </ns3:TrackPointExtension>
        </extensions>
      </trkpt>
      <trkpt lat="42.59850352071225643157958984375" lon="20.111346356570720672607421875">
        <ele>1746.5999755859375</ele>
        <time>2026-06-15T08:54:35.000Z</time>
        <extensions>
          <ns3:TrackPointExtension>
            <ns3:atemp>22.0</ns3:atemp>
          </ns3:TrackPointExtension>
        </extensions>
      </trkpt>
      <trkpt lat="42.59848860092461109161376953125" lon="20.11130989529192447662353515625">
        <ele>1747</ele>
        <time>2026-06-15T08:54:36.000Z</time>
        <extensions>
          <ns3:TrackPointExtension>
            <ns3:atemp>22.0</ns3:atemp>
          </ns3:TrackPointExtension>
        </extensions>
      </trkpt>
      <trkpt lat="42.59846831671893596649169921875" lon="20.11127293109893798828125">
        <ele>1747.199951171875</ele>
        <time>2026-06-15T08:54:37.000Z</time>
        <extensions>
          <ns3:TrackPointExtension>
            <ns3:atemp>22.0</ns3:atemp>
          </ns3:TrackPointExtension>
        </extensions>
      </trkpt>
      <trkpt lat="42.59844937361776828765869140625" lon="20.1112340390682220458984375">
        <ele>1747.5999755859375</ele>
        <time>2026-06-15T08:54:38.000Z</time>
        <extensions>
          <ns3:TrackPointExtension>
            <ns3:atemp>22.0</ns3:atemp>
          </ns3:TrackPointExtension>
        </extensions>
      </trkpt>
      <trkpt lat="42.5984300114214420318603515625" lon="20.11119707487523555755615234375">
        <ele>1747.800048828125</ele>
        <time>2026-06-15T08:54:39.000Z</time>
        <extensions>
          <ns3:TrackPointExtension>
            <ns3:atemp>22.0</ns3:atemp>
          </ns3:TrackPointExtension>
        </extensions>
      </trkpt>
      <trkpt lat="42.5984145887196063995361328125" lon="20.11115558445453643798828125">
        <ele>1748</ele>
        <time>2026-06-15T08:54:40.000Z</time>
        <extensions>
          <ns3:TrackPointExtension>
            <ns3:atemp>22.0</ns3:atemp>
          </ns3:TrackPointExtension>
        </extensions>
      </trkpt>
      <trkpt lat="42.59839639998972415924072265625" lon="20.11111845262348651885986328125">
        <ele>1748.199951171875</ele>
        <time>2026-06-15T08:54:41.000Z</time>
        <extensions>
          <ns3:TrackPointExtension>
            <ns3:atemp>22.0</ns3:atemp>
          </ns3:TrackPointExtension>
        </extensions>
      </trkpt>
      <trkpt lat="42.59837527759373188018798828125" lon="20.111076124012470245361328125">
        <ele>1748.5999755859375</ele>
        <time>2026-06-15T08:54:42.000Z</time>
        <extensions>
          <ns3:TrackPointExtension>
            <ns3:atemp>22.0</ns3:atemp>
          </ns3:TrackPointExtension>
        </extensions>
      </trkpt>
      <trkpt lat="42.59835532866418361663818359375" lon="20.1110357232391834259033203125">
        <ele>1748.800048828125</ele>
        <time>2026-06-15T08:54:43.000Z</time>
        <extensions>
          <ns3:TrackPointExtension>
            <ns3:atemp>22.0</ns3:atemp>
          </ns3:TrackPointExtension>
        </extensions>
      </trkpt>
      <trkpt lat="42.59834242053329944610595703125" lon="20.11099942959845066070556640625">
        <ele>1749.199951171875</ele>
        <time>2026-06-15T08:54:44.000Z</time>
        <extensions>
          <ns3:TrackPointExtension>
            <ns3:atemp>22.0</ns3:atemp>
          </ns3:TrackPointExtension>
        </extensions>
      </trkpt>
      <trkpt lat="42.5983304344117641448974609375" lon="20.110962800681591033935546875">
        <ele>1749.4000244140625</ele>
        <time>2026-06-15T08:54:45.000Z</time>
        <extensions>
          <ns3:TrackPointExtension>
            <ns3:atemp>22.0</ns3:atemp>
          </ns3:TrackPointExtension>
        </extensions>
      </trkpt>
      <trkpt lat="42.598323561251163482666015625" lon="20.110936649143695831298828125">
        <ele>1749.5999755859375</ele>
        <time>2026-06-15T08:54:46.000Z</time>
        <extensions>
          <ns3:TrackPointExtension>
            <ns3:atemp>22.0</ns3:atemp>
          </ns3:TrackPointExtension>
        </extensions>
      </trkpt>
      <trkpt lat="42.59831140749156475067138671875" lon="20.1109002716839313507080078125">
        <ele>1749.5999755859375</ele>
        <time>2026-06-15T08:54:47.000Z</time>
        <extensions>
          <ns3:TrackPointExtension>
            <ns3:atemp>22.0</ns3:atemp>
          </ns3:TrackPointExtension>
        </extensions>
      </trkpt>
      <trkpt lat="42.59829883463680744171142578125" lon="20.1108654029667377471923828125">
        <ele>1749.800048828125</ele>
        <time>2026-06-15T08:54:48.000Z</time>
        <extensions>
          <ns3:TrackPointExtension>
            <ns3:atemp>22.0</ns3:atemp>
          </ns3:TrackPointExtension>
        </extensions>
      </trkpt>
      <trkpt lat="42.59828542359173297882080078125" lon="20.11082927696406841278076171875">
        <ele>1750</ele>
        <time>2026-06-15T08:54:49.000Z</time>
        <extensions>
          <ns3:TrackPointExtension>
            <ns3:atemp>22.0</ns3:atemp>
          </ns3:TrackPointExtension>
        </extensions>
      </trkpt>
      <trkpt lat="42.59827301837503910064697265625" lon="20.11079641990363597869873046875">
        <ele>1750</ele>
        <time>2026-06-15T08:54:50.000Z</time>
        <extensions>
          <ns3:TrackPointExtension>
            <ns3:atemp>22.0</ns3:atemp>
          </ns3:TrackPointExtension>
        </extensions>
      </trkpt>
      <trkpt lat="42.598261535167694091796875" lon="20.11075685732066631317138671875">
        <ele>1750.199951171875</ele>
        <time>2026-06-15T08:54:51.000Z</time>
        <extensions>
          <ns3:TrackPointExtension>
            <ns3:atemp>22.0</ns3:atemp>
          </ns3:TrackPointExtension>
        </extensions>
      </trkpt>
      <trkpt lat="42.598249800503253936767578125" lon="20.11071612127125263214111328125">
        <ele>1750.4000244140625</ele>
        <time>2026-06-15T08:54:52.000Z</time>
        <extensions>
          <ns3:TrackPointExtension>
            <ns3:atemp>22.0</ns3:atemp>
          </ns3:TrackPointExtension>
        </extensions>
      </trkpt>
      <trkpt lat="42.59823940694332122802734375" lon="20.110679827630519866943359375">
        <ele>1750.4000244140625</ele>
        <time>2026-06-15T08:54:53.000Z</time>
        <extensions>
          <ns3:TrackPointExtension>
            <ns3:atemp>22.0</ns3:atemp>
          </ns3:TrackPointExtension>
        </extensions>
      </trkpt>
      <trkpt lat="42.598227001726627349853515625" lon="20.11063900776207447052001953125">
        <ele>1750.5999755859375</ele>
        <time>2026-06-15T08:54:54.000Z</time>
        <extensions>
          <ns3:TrackPointExtension>
            <ns3:atemp>22.0</ns3:atemp>
          </ns3:TrackPointExtension>
        </extensions>
      </trkpt>
      <trkpt lat="42.5982137583196163177490234375" lon="20.11060313321650028228759765625">
        <ele>1750.800048828125</ele>
        <time>2026-06-15T08:54:55.000Z</time>
        <extensions>
          <ns3:TrackPointExtension>
            <ns3:atemp>22.0</ns3:atemp>
          </ns3:TrackPointExtension>
        </extensions>
      </trkpt>
      <trkpt lat="42.59820512495934963226318359375" lon="20.1105706952512264251708984375">
        <ele>1751.199951171875</ele>
        <time>2026-06-15T08:54:56.000Z</time>
        <extensions>
          <ns3:TrackPointExtension>
            <ns3:atemp>22.0</ns3:atemp>
          </ns3:TrackPointExtension>
        </extensions>
      </trkpt>
      <trkpt lat="42.59819523431360721588134765625" lon="20.11053599417209625244140625">
        <ele>1751.199951171875</ele>
        <time>2026-06-15T08:54:57.000Z</time>
        <extensions>
          <ns3:TrackPointExtension>
            <ns3:atemp>22.0</ns3:atemp>
          </ns3:TrackPointExtension>
        </extensions>
      </trkpt>
      <trkpt lat="42.59818903170526027679443359375" lon="20.11049416847527027130126953125">
        <ele>1751.4000244140625</ele>
        <time>2026-06-15T08:54:58.000Z</time>
        <extensions>
          <ns3:TrackPointExtension>
            <ns3:atemp>22.0</ns3:atemp>
          </ns3:TrackPointExtension>
        </extensions>
      </trkpt>
      <trkpt lat="42.59817997924983501434326171875" lon="20.11045611463487148284912109375">
        <ele>1751.5999755859375</ele>
        <time>2026-06-15T08:54:59.000Z</time>
        <extensions>
          <ns3:TrackPointExtension>
            <ns3:atemp>22.0</ns3:atemp>
          </ns3:TrackPointExtension>
        </extensions>
      </trkpt>
      <trkpt lat="42.5981681607663631439208984375" lon="20.11041462421417236328125">
        <ele>1751.800048828125</ele>
        <time>2026-06-15T08:55:00.000Z</time>
        <extensions>
          <ns3:TrackPointExtension>
            <ns3:atemp>22.0</ns3:atemp>
          </ns3:TrackPointExtension>
        </extensions>
      </trkpt>
      <trkpt lat="42.5981607846915721893310546875" lon="20.1103725470602512359619140625">
        <ele>1751.800048828125</ele>
        <time>2026-06-15T08:55:01.000Z</time>
        <extensions>
          <ns3:TrackPointExtension>
            <ns3:atemp>22.0</ns3:atemp>
          </ns3:TrackPointExtension>
        </extensions>
      </trkpt>
      <trkpt lat="42.59815265424549579620361328125" lon="20.11032544076442718505859375">
        <ele>1752</ele>
        <time>2026-06-15T08:55:02.000Z</time>
        <extensions>
          <ns3:TrackPointExtension>
            <ns3:atemp>22.0</ns3:atemp>
          </ns3:TrackPointExtension>
        </extensions>
      </trkpt>
      <trkpt lat="42.598145194351673126220703125" lon="20.11028244160115718841552734375">
        <ele>1752.199951171875</ele>
        <time>2026-06-15T08:55:03.000Z</time>
        <extensions>
          <ns3:TrackPointExtension>
            <ns3:atemp>22.0</ns3:atemp>
          </ns3:TrackPointExtension>
        </extensions>
      </trkpt>
      <trkpt lat="42.59813488461077213287353515625" lon="20.11024296283721923828125">
        <ele>1752.4000244140625</ele>
        <time>2026-06-15T08:55:04.000Z</time>
        <extensions>
          <ns3:TrackPointExtension>
            <ns3:atemp>22.0</ns3:atemp>
          </ns3:TrackPointExtension>
        </extensions>
      </trkpt>
      <trkpt lat="42.598129771649837493896484375" lon="20.11019803583621978759765625">
        <ele>1752.5999755859375</ele>
        <time>2026-06-15T08:55:05.000Z</time>
        <extensions>
          <ns3:TrackPointExtension>
            <ns3:atemp>22.0</ns3:atemp>
          </ns3:TrackPointExtension>
        </extensions>
      </trkpt>
      <trkpt lat="42.5981259159743785858154296875" lon="20.11015486903488636016845703125">
        <ele>1752.800048828125</ele>
        <time>2026-06-15T08:55:06.000Z</time>
        <extensions>
          <ns3:TrackPointExtension>
            <ns3:atemp>22.0</ns3:atemp>
          </ns3:TrackPointExtension>
        </extensions>
      </trkpt>
      <trkpt lat="42.5981205515563488006591796875" lon="20.110114552080631256103515625">
        <ele>1753</ele>
        <time>2026-06-15T08:55:07.000Z</time>
        <extensions>
          <ns3:TrackPointExtension>
            <ns3:atemp>22.0</ns3:atemp>
          </ns3:TrackPointExtension>
        </extensions>
      </trkpt>
      <trkpt lat="42.59811812080442905426025390625" lon="20.11007306165993213653564453125">
        <ele>1753.199951171875</ele>
        <time>2026-06-15T08:55:08.000Z</time>
        <extensions>
          <ns3:TrackPointExtension>
            <ns3:atemp>22.0</ns3:atemp>
          </ns3:TrackPointExtension>
        </extensions>
      </trkpt>
      <trkpt lat="42.5981155224144458770751953125" lon="20.1100270450115203857421875">
        <ele>1753.4000244140625</ele>
        <time>2026-06-15T08:55:09.000Z</time>
        <extensions>
          <ns3:TrackPointExtension>
            <ns3:atemp>22.0</ns3:atemp>
          </ns3:TrackPointExtension>
        </extensions>
      </trkpt>
      <trkpt lat="42.59811602532863616943359375" lon="20.1099812798202037811279296875">
        <ele>1753.5999755859375</ele>
        <time>2026-06-15T08:55:10.000Z</time>
        <extensions>
          <ns3:TrackPointExtension>
            <ns3:atemp>22.0</ns3:atemp>
          </ns3:TrackPointExtension>
        </extensions>
      </trkpt>
      <trkpt lat="42.598113007843494415283203125" lon="20.1099385321140289306640625">
        <ele>1753.800048828125</ele>
        <time>2026-06-15T08:55:11.000Z</time>
        <extensions>
          <ns3:TrackPointExtension>
            <ns3:atemp>22.0</ns3:atemp>
          </ns3:TrackPointExtension>
        </extensions>
      </trkpt>
      <trkpt lat="42.59811242111027240753173828125" lon="20.1098951138556003570556640625">
        <ele>1754</ele>
        <time>2026-06-15T08:55:12.000Z</time>
        <extensions>
          <ns3:TrackPointExtension>
            <ns3:atemp>22.0</ns3:atemp>
          </ns3:TrackPointExtension>
        </extensions>
      </trkpt>
      <trkpt lat="42.5981188751757144927978515625" lon="20.1098505221307277679443359375">
        <ele>1754.199951171875</ele>
        <time>2026-06-15T08:55:13.000Z</time>
        <extensions>
          <ns3:TrackPointExtension>
            <ns3:atemp>22.0</ns3:atemp>
          </ns3:TrackPointExtension>
        </extensions>
      </trkpt>
      <trkpt lat="42.5981255806982517242431640625" lon="20.1098097860813140869140625">
        <ele>1754.4000244140625</ele>
        <time>2026-06-15T08:55:14.000Z</time>
        <extensions>
          <ns3:TrackPointExtension>
            <ns3:atemp>22.0</ns3:atemp>
          </ns3:TrackPointExtension>
        </extensions>
      </trkpt>
      <trkpt lat="42.59813253767788410186767578125" lon="20.10976578108966350555419921875">
        <ele>1754.800048828125</ele>
        <time>2026-06-15T08:55:15.000Z</time>
        <extensions>
          <ns3:TrackPointExtension>
            <ns3:atemp>22.0</ns3:atemp>
          </ns3:TrackPointExtension>
        </extensions>
      </trkpt>
      <trkpt lat="42.59814058430492877960205078125" lon="20.1097187586128711700439453125">
        <ele>1755.199951171875</ele>
        <time>2026-06-15T08:55:16.000Z</time>
        <extensions>
          <ns3:TrackPointExtension>
            <ns3:atemp>22.0</ns3:atemp>
          </ns3:TrackPointExtension>
        </extensions>
      </trkpt>
      <trkpt lat="42.59814728982746601104736328125" lon="20.10967559181153774261474609375">
        <ele>1755.4000244140625</ele>
        <time>2026-06-15T08:55:17.000Z</time>
        <extensions>
          <ns3:TrackPointExtension>
            <ns3:atemp>22.0</ns3:atemp>
          </ns3:TrackPointExtension>
        </extensions>
      </trkpt>
      <trkpt lat="42.59815265424549579620361328125" lon="20.10963686741888523101806640625">
        <ele>1755.800048828125</ele>
        <time>2026-06-15T08:55:18.000Z</time>
        <extensions>
          <ns3:TrackPointExtension>
            <ns3:atemp>22.0</ns3:atemp>
          </ns3:TrackPointExtension>
        </extensions>
      </trkpt>
      <trkpt lat="42.5981564261019229888916015625" lon="20.10959831066429615020751953125">
        <ele>1756.199951171875</ele>
        <time>2026-06-15T08:55:19.000Z</time>
        <extensions>
          <ns3:TrackPointExtension>
            <ns3:atemp>22.0</ns3:atemp>
          </ns3:TrackPointExtension>
        </extensions>
      </trkpt>
      <trkpt lat="42.5981594435870647430419921875" lon="20.10955522768199443817138671875">
        <ele>1756.5999755859375</ele>
        <time>2026-06-15T08:55:20.000Z</time>
        <extensions>
          <ns3:TrackPointExtension>
            <ns3:atemp>22.0</ns3:atemp>
          </ns3:TrackPointExtension>
        </extensions>
      </trkpt>
      <trkpt lat="42.59816070087254047393798828125" lon="20.10951197706162929534912109375">
        <ele>1757</ele>
        <time>2026-06-15T08:55:21.000Z</time>
        <extensions>
          <ns3:TrackPointExtension>
            <ns3:atemp>22.0</ns3:atemp>
          </ns3:TrackPointExtension>
        </extensions>
      </trkpt>
      <trkpt lat="42.59816053323447704315185546875" lon="20.10946855880320072174072265625">
        <ele>1757.5999755859375</ele>
        <time>2026-06-15T08:55:22.000Z</time>
        <extensions>
          <ns3:TrackPointExtension>
            <ns3:atemp>22.0</ns3:atemp>
          </ns3:TrackPointExtension>
        </extensions>
      </trkpt>
      <trkpt lat="42.59816003032028675079345703125" lon="20.10942866094410419464111328125">
        <ele>1758</ele>
        <time>2026-06-15T08:55:23.000Z</time>
        <extensions>
          <ns3:TrackPointExtension>
            <ns3:atemp>22.0</ns3:atemp>
          </ns3:TrackPointExtension>
        </extensions>
      </trkpt>
      <trkpt lat="42.59815701283514499664306640625" lon="20.109387673437595367431640625">
        <ele>1758.199951171875</ele>
        <time>2026-06-15T08:55:24.000Z</time>
        <extensions>
          <ns3:TrackPointExtension>
            <ns3:atemp>22.0</ns3:atemp>
          </ns3:TrackPointExtension>
        </extensions>
      </trkpt>
      <trkpt lat="42.59815332479774951934814453125" lon="20.10934869758784770965576171875">
        <ele>1758.800048828125</ele>
        <time>2026-06-15T08:55:25.000Z</time>
        <extensions>
          <ns3:TrackPointExtension>
            <ns3:atemp>22.0</ns3:atemp>
          </ns3:TrackPointExtension>
        </extensions>
      </trkpt>
      <trkpt lat="42.598149217665195465087890625" lon="20.1093144156038761138916015625">
        <ele>1759</ele>
        <time>2026-06-15T08:55:26.000Z</time>
        <extensions>
          <ns3:TrackPointExtension>
            <ns3:atemp>22.0</ns3:atemp>
          </ns3:TrackPointExtension>
        </extensions>
      </trkpt>
      <trkpt lat="42.59814024902880191802978515625" lon="20.1092731766402721405029296875">
        <ele>1759.4000244140625</ele>
        <time>2026-06-15T08:55:27.000Z</time>
        <extensions>
          <ns3:TrackPointExtension>
            <ns3:atemp>22.0</ns3:atemp>
          </ns3:TrackPointExtension>
        </extensions>
      </trkpt>
      <trkpt lat="42.5981296040117740631103515625" lon="20.1092319376766681671142578125">
        <ele>1759.800048828125</ele>
        <time>2026-06-15T08:55:28.000Z</time>
        <extensions>
          <ns3:TrackPointExtension>
            <ns3:atemp>22.0</ns3:atemp>
          </ns3:TrackPointExtension>
        </extensions>
      </trkpt>
      <trkpt lat="42.5981234014034271240234375" lon="20.1091957278549671173095703125">
        <ele>1760.199951171875</ele>
        <time>2026-06-15T08:55:29.000Z</time>
        <extensions>
          <ns3:TrackPointExtension>
            <ns3:atemp>22.0</ns3:atemp>
          </ns3:TrackPointExtension>
        </extensions>
      </trkpt>
      <trkpt lat="42.5981145165860652923583984375" lon="20.1091575063765048980712890625">
        <ele>1760.5999755859375</ele>
        <time>2026-06-15T08:55:30.000Z</time>
        <extensions>
          <ns3:TrackPointExtension>
            <ns3:atemp>22.0</ns3:atemp>
          </ns3:TrackPointExtension>
        </extensions>
      </trkpt>
      <trkpt lat="42.598105967044830322265625" lon="20.1091182790696620941162109375">
        <ele>1761.199951171875</ele>
        <time>2026-06-15T08:55:31.000Z</time>
        <extensions>
          <ns3:TrackPointExtension>
            <ns3:atemp>22.0</ns3:atemp>
          </ns3:TrackPointExtension>
        </extensions>
      </trkpt>
      <trkpt lat="42.598099596798419952392578125" lon="20.10907896794378757476806640625">
        <ele>1761.800048828125</ele>
        <time>2026-06-15T08:55:32.000Z</time>
        <extensions>
          <ns3:TrackPointExtension>
            <ns3:atemp>22.0</ns3:atemp>
          </ns3:TrackPointExtension>
        </extensions>
      </trkpt>
      <trkpt lat="42.59808844886720180511474609375" lon="20.109043009579181671142578125">
        <ele>1762.199951171875</ele>
        <time>2026-06-15T08:55:33.000Z</time>
        <extensions>
          <ns3:TrackPointExtension>
            <ns3:atemp>22.0</ns3:atemp>
          </ns3:TrackPointExtension>
        </extensions>
      </trkpt>
      <trkpt lat="42.5980779714882373809814453125" lon="20.109006129205226898193359375">
        <ele>1762.5999755859375</ele>
        <time>2026-06-15T08:55:34.000Z</time>
        <extensions>
          <ns3:TrackPointExtension>
            <ns3:atemp>22.0</ns3:atemp>
          </ns3:TrackPointExtension>
        </extensions>
      </trkpt>
      <trkpt lat="42.598068751394748687744140625" lon="20.1089653931558132171630859375">
        <ele>1762.800048828125</ele>
        <time>2026-06-15T08:55:35.000Z</time>
        <extensions>
          <ns3:TrackPointExtension>
            <ns3:atemp>22.0</ns3:atemp>
          </ns3:TrackPointExtension>
        </extensions>
      </trkpt>
      <trkpt lat="42.598060034215450286865234375" lon="20.10892800986766815185546875">
        <ele>1763.199951171875</ele>
        <time>2026-06-15T08:55:36.000Z</time>
        <extensions>
          <ns3:TrackPointExtension>
            <ns3:atemp>22.0</ns3:atemp>
          </ns3:TrackPointExtension>
        </extensions>
      </trkpt>
      <trkpt lat="42.59804905392229557037353515625" lon="20.108889453113079071044921875">
        <ele>1763.5999755859375</ele>
        <time>2026-06-15T08:55:37.000Z</time>
        <extensions>
          <ns3:TrackPointExtension>
            <ns3:atemp>22.0</ns3:atemp>
          </ns3:TrackPointExtension>
        </extensions>
      </trkpt>
      <trkpt lat="42.59803715161979198455810546875" lon="20.1088503934442996978759765625">
        <ele>1764</ele>
        <time>2026-06-15T08:55:38.000Z</time>
        <extensions>
          <ns3:TrackPointExtension>
            <ns3:atemp>22.0</ns3:atemp>
          </ns3:TrackPointExtension>
        </extensions>
      </trkpt>
      <trkpt lat="42.59802214801311492919921875" lon="20.1088118366897106170654296875">
        <ele>1764.4000244140625</ele>
        <time>2026-06-15T08:55:39.000Z</time>
        <extensions>
          <ns3:TrackPointExtension>
            <ns3:atemp>22.0</ns3:atemp>
          </ns3:TrackPointExtension>
        </extensions>
      </trkpt>
      <trkpt lat="42.598009742796421051025390625" lon="20.1087722741067409515380859375">
        <ele>1764.800048828125</ele>
        <time>2026-06-15T08:55:40.000Z</time>
        <extensions>
          <ns3:TrackPointExtension>
            <ns3:atemp>22.0</ns3:atemp>
          </ns3:TrackPointExtension>
        </extensions>
      </trkpt>
      <trkpt lat="42.59799842722713947296142578125" lon="20.10873128660023212432861328125">
        <ele>1765</ele>
        <time>2026-06-15T08:55:41.000Z</time>
        <extensions>
          <ns3:TrackPointExtension>
            <ns3:atemp>22.0</ns3:atemp>
          </ns3:TrackPointExtension>
        </extensions>
      </trkpt>
      <trkpt lat="42.59798551909625530242919921875" lon="20.1086948253214359283447265625">
        <ele>1765.4000244140625</ele>
        <time>2026-06-15T08:55:42.000Z</time>
        <extensions>
          <ns3:TrackPointExtension>
            <ns3:atemp>22.0</ns3:atemp>
          </ns3:TrackPointExtension>
        </extensions>
      </trkpt>
      <trkpt lat="42.59797227568924427032470703125" lon="20.10865668766200542449951171875">
        <ele>1765.5999755859375</ele>
        <time>2026-06-15T08:55:43.000Z</time>
        <extensions>
          <ns3:TrackPointExtension>
            <ns3:atemp>22.0</ns3:atemp>
          </ns3:TrackPointExtension>
        </extensions>
      </trkpt>
      <trkpt lat="42.5979582779109477996826171875" lon="20.1086193881928920745849609375">
        <ele>1766</ele>
        <time>2026-06-15T08:55:44.000Z</time>
        <extensions>
          <ns3:TrackPointExtension>
            <ns3:atemp>22.0</ns3:atemp>
          </ns3:TrackPointExtension>
        </extensions>
      </trkpt>
      <trkpt lat="42.59794645942747592926025390625" lon="20.1085818372666835784912109375">
        <ele>1766.4000244140625</ele>
        <time>2026-06-15T08:55:45.000Z</time>
        <extensions>
          <ns3:TrackPointExtension>
            <ns3:atemp>22.0</ns3:atemp>
          </ns3:TrackPointExtension>
        </extensions>
      </trkpt>
      <trkpt lat="42.59793304838240146636962890625" lon="20.108538083732128143310546875">
        <ele>1767</ele>
        <time>2026-06-15T08:55:46.000Z</time>
        <extensions>
          <ns3:TrackPointExtension>
            <ns3:atemp>22.0</ns3:atemp>
          </ns3:TrackPointExtension>
        </extensions>
      </trkpt>
      <trkpt lat="42.59791930206120014190673828125" lon="20.10849617421627044677734375">
        <ele>1767.199951171875</ele>
        <time>2026-06-15T08:55:47.000Z</time>
        <extensions>
          <ns3:TrackPointExtension>
            <ns3:atemp>22.0</ns3:atemp>
          </ns3:TrackPointExtension>
        </extensions>
      </trkpt>
      <trkpt lat="42.5979039631783962249755859375" lon="20.1084574498236179351806640625">
        <ele>1767.5999755859375</ele>
        <time>2026-06-15T08:55:48.000Z</time>
        <extensions>
          <ns3:TrackPointExtension>
            <ns3:atemp>22.0</ns3:atemp>
          </ns3:TrackPointExtension>
        </extensions>
      </trkpt>
      <trkpt lat="42.597887702286243438720703125" lon="20.108417384326457977294921875">
        <ele>1767.800048828125</ele>
        <time>2026-06-15T08:55:49.000Z</time>
        <extensions>
          <ns3:TrackPointExtension>
            <ns3:atemp>22.0</ns3:atemp>
          </ns3:TrackPointExtension>
        </extensions>
      </trkpt>
      <trkpt lat="42.59786817245185375213623046875" lon="20.1083813421428203582763671875">
        <ele>1768.199951171875</ele>
        <time>2026-06-15T08:55:50.000Z</time>
        <extensions>
          <ns3:TrackPointExtension>
            <ns3:atemp>22.0</ns3:atemp>
          </ns3:TrackPointExtension>
        </extensions>
      </trkpt>
      <trkpt lat="42.59784956462681293487548828125" lon="20.10834320448338985443115234375">
        <ele>1768.5999755859375</ele>
        <time>2026-06-15T08:55:51.000Z</time>
        <extensions>
          <ns3:TrackPointExtension>
            <ns3:atemp>22.0</ns3:atemp>
          </ns3:TrackPointExtension>
        </extensions>
      </trkpt>
      <trkpt lat="42.59783028624951839447021484375" lon="20.10831051506102085113525390625">
        <ele>1769</ele>
        <time>2026-06-15T08:55:52.000Z</time>
        <extensions>
          <ns3:TrackPointExtension>
            <ns3:atemp>22.0</ns3:atemp>
          </ns3:TrackPointExtension>
        </extensions>
      </trkpt>
      <trkpt lat="42.5978100858628749847412109375" lon="20.10827262885868549346923828125">
        <ele>1769.199951171875</ele>
        <time>2026-06-15T08:55:53.000Z</time>
        <extensions>
          <ns3:TrackPointExtension>
            <ns3:atemp>22.0</ns3:atemp>
          </ns3:TrackPointExtension>
        </extensions>
      </trkpt>
      <trkpt lat="42.59779139421880245208740234375" lon="20.10823675431311130523681640625">
        <ele>1769.5999755859375</ele>
        <time>2026-06-15T08:55:54.000Z</time>
        <extensions>
          <ns3:TrackPointExtension>
            <ns3:atemp>22.0</ns3:atemp>
          </ns3:TrackPointExtension>
        </extensions>
      </trkpt>
      <trkpt lat="42.59777261875569820404052734375" lon="20.10819702409207820892333984375">
        <ele>1769.800048828125</ele>
        <time>2026-06-15T08:55:55.000Z</time>
        <extensions>
          <ns3:TrackPointExtension>
            <ns3:atemp>22.0</ns3:atemp>
          </ns3:TrackPointExtension>
        </extensions>
      </trkpt>
      <trkpt lat="42.59775392711162567138671875" lon="20.108158551156520843505859375">
        <ele>1770.199951171875</ele>
        <time>2026-06-15T08:55:56.000Z</time>
        <extensions>
          <ns3:TrackPointExtension>
            <ns3:atemp>22.0</ns3:atemp>
          </ns3:TrackPointExtension>
        </extensions>
      </trkpt>
      <trkpt lat="42.5977343134582042694091796875" lon="20.10812292806804180145263671875">
        <ele>1770.800048828125</ele>
        <time>2026-06-15T08:55:57.000Z</time>
        <extensions>
          <ns3:TrackPointExtension>
            <ns3:atemp>22.0</ns3:atemp>
          </ns3:TrackPointExtension>
        </extensions>
      </trkpt>
      <trkpt lat="42.59772065095603466033935546875" lon="20.10808269493281841278076171875">
        <ele>1771.199951171875</ele>
        <time>2026-06-15T08:55:58.000Z</time>
        <extensions>
          <ns3:TrackPointExtension>
            <ns3:atemp>22.0</ns3:atemp>
          </ns3:TrackPointExtension>
        </extensions>
      </trkpt>
      <trkpt lat="42.59770506061613559722900390625" lon="20.10804145596921443939208984375">
        <ele>1771.4000244140625</ele>
        <time>2026-06-15T08:55:59.000Z</time>
        <extensions>
          <ns3:TrackPointExtension>
            <ns3:atemp>22.0</ns3:atemp>
          </ns3:TrackPointExtension>
        </extensions>
      </trkpt>
      <trkpt lat="42.59769533760845661163330078125" lon="20.10799569077789783477783203125">
        <ele>1771.800048828125</ele>
        <time>2026-06-15T08:56:00.000Z</time>
        <extensions>
          <ns3:TrackPointExtension>
            <ns3:atemp>22.0</ns3:atemp>
          </ns3:TrackPointExtension>
        </extensions>
      </trkpt>
      <trkpt lat="42.597686536610126495361328125" lon="20.10794690810143947601318359375">
        <ele>1772</ele>
        <time>2026-06-15T08:56:01.000Z</time>
        <extensions>
          <ns3:TrackPointExtension>
            <ns3:atemp>22.0</ns3:atemp>
          </ns3:TrackPointExtension>
        </extensions>
      </trkpt>
      <trkpt lat="42.59767740033566951751708984375" lon="20.10790198110044002532958984375">
        <ele>1772.4000244140625</ele>
        <time>2026-06-15T08:56:02.000Z</time>
        <extensions>
          <ns3:TrackPointExtension>
            <ns3:atemp>22.0</ns3:atemp>
          </ns3:TrackPointExtension>
        </extensions>
      </trkpt>
      <trkpt lat="42.597675137221813201904296875" lon="20.10785638354718685150146484375">
        <ele>1772.800048828125</ele>
        <time>2026-06-15T08:56:03.000Z</time>
        <extensions>
          <ns3:TrackPointExtension>
            <ns3:atemp>22.0</ns3:atemp>
          </ns3:TrackPointExtension>
        </extensions>
      </trkpt>
      <trkpt lat="42.59767387993633747100830078125" lon="20.10780760087072849273681640625">
        <ele>1773.199951171875</ele>
        <time>2026-06-15T08:56:04.000Z</time>
        <extensions>
          <ns3:TrackPointExtension>
            <ns3:atemp>22.0</ns3:atemp>
          </ns3:TrackPointExtension>
        </extensions>
      </trkpt>
      <trkpt lat="42.59767103008925914764404296875" lon="20.10775881819427013397216796875">
        <ele>1773.5999755859375</ele>
        <time>2026-06-15T08:56:05.000Z</time>
        <extensions>
          <ns3:TrackPointExtension>
            <ns3:atemp>22.0</ns3:atemp>
          </ns3:TrackPointExtension>
        </extensions>
      </trkpt>
      <trkpt lat="42.59766809642314910888671875" lon="20.10770819149911403656005859375">
        <ele>1774</ele>
        <time>2026-06-15T08:56:06.000Z</time>
        <extensions>
          <ns3:TrackPointExtension>
            <ns3:atemp>22.0</ns3:atemp>
          </ns3:TrackPointExtension>
        </extensions>
      </trkpt>
      <trkpt lat="42.597673125565052032470703125" lon="20.10766200721263885498046875">
        <ele>1774.4000244140625</ele>
        <time>2026-06-15T08:56:07.000Z</time>
        <extensions>
          <ns3:TrackPointExtension>
            <ns3:atemp>22.0</ns3:atemp>
          </ns3:TrackPointExtension>
        </extensions>
      </trkpt>
      <trkpt lat="42.59767455048859119415283203125" lon="20.10761716403067111968994140625">
        <ele>1774.800048828125</ele>
        <time>2026-06-15T08:56:08.000Z</time>
        <extensions>
          <ns3:TrackPointExtension>
            <ns3:atemp>22.0</ns3:atemp>
          </ns3:TrackPointExtension>
        </extensions>
      </trkpt>
      <trkpt lat="42.5976763106882572174072265625" lon="20.107577182352542877197265625">
        <ele>1775.199951171875</ele>
        <time>2026-06-15T08:56:09.000Z</time>
        <extensions>
          <ns3:TrackPointExtension>
            <ns3:atemp>22.0</ns3:atemp>
          </ns3:TrackPointExtension>
        </extensions>
      </trkpt>
      <trkpt lat="42.59767572395503520965576171875" lon="20.10753619484603404998779296875">
        <ele>1775.4000244140625</ele>
        <time>2026-06-15T08:56:10.000Z</time>
        <extensions>
          <ns3:TrackPointExtension>
            <ns3:atemp>22.0</ns3:atemp>
          </ns3:TrackPointExtension>
        </extensions>
      </trkpt>
      <trkpt lat="42.5976742990314960479736328125" lon="20.1074935309588909149169921875">
        <ele>1775.800048828125</ele>
        <time>2026-06-15T08:56:11.000Z</time>
        <extensions>
          <ns3:TrackPointExtension>
            <ns3:atemp>22.0</ns3:atemp>
          </ns3:TrackPointExtension>
        </extensions>
      </trkpt>
      <trkpt lat="42.59767136536538600921630859375" lon="20.1074492745101451873779296875">
        <ele>1776</ele>
        <time>2026-06-15T08:56:12.000Z</time>
        <extensions>
          <ns3:TrackPointExtension>
            <ns3:atemp>22.0</ns3:atemp>
          </ns3:TrackPointExtension>
        </extensions>
      </trkpt>
      <trkpt lat="42.59766407310962677001953125" lon="20.1074077002704143524169921875">
        <ele>1776</ele>
        <time>2026-06-15T08:56:13.000Z</time>
        <extensions>
          <ns3:TrackPointExtension>
            <ns3:atemp>22.0</ns3:atemp>
          </ns3:TrackPointExtension>
        </extensions>
      </trkpt>
      <trkpt lat="42.597657702863216400146484375" lon="20.10736336000263690948486328125">
        <ele>1776.199951171875</ele>
        <time>2026-06-15T08:56:14.000Z</time>
        <extensions>
          <ns3:TrackPointExtension>
            <ns3:atemp>22.0</ns3:atemp>
          </ns3:TrackPointExtension>
        </extensions>
      </trkpt>
      <trkpt lat="42.59764471091330051422119140625" lon="20.1073180139064788818359375">
        <ele>1776.4000244140625</ele>
        <time>2026-06-15T08:56:15.000Z</time>
        <extensions>
          <ns3:TrackPointExtension>
            <ns3:atemp>22.0</ns3:atemp>
          </ns3:TrackPointExtension>
        </extensions>
      </trkpt>
      <trkpt lat="42.59763264097273349761962890625" lon="20.10727635584771633148193359375">
        <ele>1776.800048828125</ele>
        <time>2026-06-15T08:56:16.000Z</time>
        <extensions>
          <ns3:TrackPointExtension>
            <ns3:atemp>22.0</ns3:atemp>
          </ns3:TrackPointExtension>
        </extensions>
      </trkpt>
      <trkpt lat="42.5976164638996124267578125" lon="20.10723696090281009674072265625">
        <ele>1777.199951171875</ele>
        <time>2026-06-15T08:56:17.000Z</time>
        <extensions>
          <ns3:TrackPointExtension>
            <ns3:atemp>22.0</ns3:atemp>
          </ns3:TrackPointExtension>
        </extensions>
      </trkpt>
      <trkpt lat="42.59759995155036449432373046875" lon="20.10719932615756988525390625">
        <ele>1777.800048828125</ele>
        <time>2026-06-15T08:56:18.000Z</time>
        <extensions>
          <ns3:TrackPointExtension>
            <ns3:atemp>22.0</ns3:atemp>
          </ns3:TrackPointExtension>
        </extensions>
      </trkpt>
      <trkpt lat="42.5975777395069599151611328125" lon="20.1071595959365367889404296875">
        <ele>1778.199951171875</ele>
        <time>2026-06-15T08:56:19.000Z</time>
        <extensions>
          <ns3:TrackPointExtension>
            <ns3:atemp>22.0</ns3:atemp>
          </ns3:TrackPointExtension>
        </extensions>
      </trkpt>
      <trkpt lat="42.59755871258676052093505859375" lon="20.10712715797126293182373046875">
        <ele>1778.5999755859375</ele>
        <time>2026-06-15T08:56:20.000Z</time>
        <extensions>
          <ns3:TrackPointExtension>
            <ns3:atemp>22.0</ns3:atemp>
          </ns3:TrackPointExtension>
        </extensions>
      </trkpt>
      <trkpt lat="42.59753792546689510345458984375" lon="20.10709698311984539031982421875">
        <ele>1779.199951171875</ele>
        <time>2026-06-15T08:56:21.000Z</time>
        <extensions>
          <ns3:TrackPointExtension>
            <ns3:atemp>22.0</ns3:atemp>
          </ns3:TrackPointExtension>
        </extensions>
      </trkpt>
      <trkpt lat="42.597510516643524169921875" lon="20.1070670597255229949951171875">
        <ele>1779.5999755859375</ele>
        <time>2026-06-15T08:56:22.000Z</time>
        <extensions>
          <ns3:TrackPointExtension>
            <ns3:atemp>22.0</ns3:atemp>
          </ns3:TrackPointExtension>
        </extensions>
      </trkpt>
      <trkpt lat="42.597479335963726043701171875" lon="20.10703797452151775360107421875">
        <ele>1779.800048828125</ele>
        <time>2026-06-15T08:56:23.000Z</time>
        <extensions>
          <ns3:TrackPointExtension>
            <ns3:atemp>22.0</ns3:atemp>
          </ns3:TrackPointExtension>
        </extensions>
      </trkpt>
      <trkpt lat="42.59744974784553050994873046875" lon="20.10700779967010021209716796875">
        <ele>1780</ele>
        <time>2026-06-15T08:56:24.000Z</time>
        <extensions>
          <ns3:TrackPointExtension>
            <ns3:atemp>22.0</ns3:atemp>
          </ns3:TrackPointExtension>
        </extensions>
      </trkpt>
      <trkpt lat="42.59742091409862041473388671875" lon="20.10697670280933380126953125">
        <ele>1780</ele>
        <time>2026-06-15T08:56:25.000Z</time>
        <extensions>
          <ns3:TrackPointExtension>
            <ns3:atemp>22.0</ns3:atemp>
          </ns3:TrackPointExtension>
        </extensions>
      </trkpt>
      <trkpt lat="42.597392499446868896484375" lon="20.10694409720599651336669921875">
        <ele>1780.199951171875</ele>
        <time>2026-06-15T08:56:26.000Z</time>
        <extensions>
          <ns3:TrackPointExtension>
            <ns3:atemp>22.0</ns3:atemp>
          </ns3:TrackPointExtension>
        </extensions>
      </trkpt>
      <trkpt lat="42.59736391715705394744873046875" lon="20.10691509582102298736572265625">
        <ele>1780.4000244140625</ele>
        <time>2026-06-15T08:56:27.000Z</time>
        <extensions>
          <ns3:TrackPointExtension>
            <ns3:atemp>22.0</ns3:atemp>
          </ns3:TrackPointExtension>
        </extensions>
      </trkpt>
      <trkpt lat="42.59733357466757297515869140625" lon="20.10688542388379573822021484375">
        <ele>1780.800048828125</ele>
        <time>2026-06-15T08:56:28.000Z</time>
        <extensions>
          <ns3:TrackPointExtension>
            <ns3:atemp>22.0</ns3:atemp>
          </ns3:TrackPointExtension>
        </extensions>
      </trkpt>
      <trkpt lat="42.59729929268360137939453125" lon="20.10685910470783710479736328125">
        <ele>1781.199951171875</ele>
        <time>2026-06-15T08:56:29.000Z</time>
        <extensions>
          <ns3:TrackPointExtension>
            <ns3:atemp>22.0</ns3:atemp>
          </ns3:TrackPointExtension>
        </extensions>
      </trkpt>
      <trkpt lat="42.597272135317325592041015625" lon="20.106825493276119232177734375">
        <ele>1781.5999755859375</ele>
        <time>2026-06-15T08:56:30.000Z</time>
        <extensions>
          <ns3:TrackPointExtension>
            <ns3:atemp>22.0</ns3:atemp>
          </ns3:TrackPointExtension>
        </extensions>
      </trkpt>
      <trkpt lat="42.59724296629428863525390625" lon="20.10679506696760654449462890625">
        <ele>1781.800048828125</ele>
        <time>2026-06-15T08:56:31.000Z</time>
        <extensions>
          <ns3:TrackPointExtension>
            <ns3:atemp>22.0</ns3:atemp>
          </ns3:TrackPointExtension>
        </extensions>
      </trkpt>
      <trkpt lat="42.59721505455672740936279296875" lon="20.106763131916522979736328125">
        <ele>1782.199951171875</ele>
        <time>2026-06-15T08:56:32.000Z</time>
        <extensions>
          <ns3:TrackPointExtension>
            <ns3:atemp>22.0</ns3:atemp>
          </ns3:TrackPointExtension>
        </extensions>
      </trkpt>
      <trkpt lat="42.597184963524341583251953125" lon="20.10673220269381999969482421875">
        <ele>1782.5999755859375</ele>
        <time>2026-06-15T08:56:33.000Z</time>
        <extensions>
          <ns3:TrackPointExtension>
            <ns3:atemp>22.0</ns3:atemp>
          </ns3:TrackPointExtension>
        </extensions>
      </trkpt>
      <trkpt lat="42.59715721942484378814697265625" lon="20.10670152492821216583251953125">
        <ele>1783</ele>
        <time>2026-06-15T08:56:34.000Z</time>
        <extensions>
          <ns3:TrackPointExtension>
            <ns3:atemp>22.0</ns3:atemp>
          </ns3:TrackPointExtension>
        </extensions>
      </trkpt>
      <trkpt lat="42.5971304811537265777587890625" lon="20.10667135007679462432861328125">
        <ele>1783.4000244140625</ele>
        <time>2026-06-15T08:56:35.000Z</time>
        <extensions>
          <ns3:TrackPointExtension>
            <ns3:atemp>22.0</ns3:atemp>
          </ns3:TrackPointExtension>
        </extensions>
      </trkpt>
      <trkpt lat="42.59710642509162425994873046875" lon="20.10663698427379131317138671875">
        <ele>1784</ele>
        <time>2026-06-15T08:56:36.000Z</time>
        <extensions>
          <ns3:TrackPointExtension>
            <ns3:atemp>22.0</ns3:atemp>
          </ns3:TrackPointExtension>
        </extensions>
      </trkpt>
      <trkpt lat="42.5970822013914585113525390625" lon="20.1066023670136928558349609375">
        <ele>1784.4000244140625</ele>
        <time>2026-06-15T08:56:37.000Z</time>
        <extensions>
          <ns3:TrackPointExtension>
            <ns3:atemp>22.0</ns3:atemp>
          </ns3:TrackPointExtension>
        </extensions>
      </trkpt>
      <trkpt lat="42.5970612466335296630859375" lon="20.10657026432454586029052734375">
        <ele>1784.800048828125</ele>
        <time>2026-06-15T08:56:38.000Z</time>
        <extensions>
          <ns3:TrackPointExtension>
            <ns3:atemp>22.0</ns3:atemp>
          </ns3:TrackPointExtension>
        </extensions>
      </trkpt>
      <trkpt lat="42.59704238735139369964599609375" lon="20.106535814702510833740234375">
        <ele>1785.199951171875</ele>
        <time>2026-06-15T08:56:39.000Z</time>
        <extensions>
          <ns3:TrackPointExtension>
            <ns3:atemp>22.0</ns3:atemp>
          </ns3:TrackPointExtension>
        </extensions>
      </trkpt>
      <trkpt lat="42.59702512063086032867431640625" lon="20.1064999401569366455078125">
        <ele>1785.5999755859375</ele>
        <time>2026-06-15T08:56:40.000Z</time>
        <extensions>
          <ns3:TrackPointExtension>
            <ns3:atemp>22.0</ns3:atemp>
          </ns3:TrackPointExtension>
        </extensions>
      </trkpt>
      <trkpt lat="42.59700818918645381927490234375" lon="20.10645979084074497222900390625">
        <ele>1785.800048828125</ele>
        <time>2026-06-15T08:56:41.000Z</time>
        <extensions>
          <ns3:TrackPointExtension>
            <ns3:atemp>22.0</ns3:atemp>
          </ns3:TrackPointExtension>
        </extensions>
      </trkpt>
      <trkpt lat="42.5969910062849521636962890625" lon="20.106420814990997314453125">
        <ele>1786.199951171875</ele>
        <time>2026-06-15T08:56:42.000Z</time>
        <extensions>
          <ns3:TrackPointExtension>
            <ns3:atemp>22.0</ns3:atemp>
          </ns3:TrackPointExtension>
        </extensions>
      </trkpt>
      <trkpt lat="42.5969754159450531005859375" lon="20.10638385079801082611083984375">
        <ele>1786.5999755859375</ele>
        <time>2026-06-15T08:56:43.000Z</time>
        <extensions>
          <ns3:TrackPointExtension>
            <ns3:atemp>22.0</ns3:atemp>
          </ns3:TrackPointExtension>
        </extensions>
      </trkpt>
      <trkpt lat="42.5969620048999786376953125" lon="20.10634562931954860687255859375">
        <ele>1786.800048828125</ele>
        <time>2026-06-15T08:56:44.000Z</time>
        <extensions>
          <ns3:TrackPointExtension>
            <ns3:atemp>22.0</ns3:atemp>
          </ns3:TrackPointExtension>
        </extensions>
      </trkpt>
      <trkpt lat="42.596948258578777313232421875" lon="20.1063029654324054718017578125">
        <ele>1787.199951171875</ele>
        <time>2026-06-15T08:56:45.000Z</time>
        <extensions>
          <ns3:TrackPointExtension>
            <ns3:atemp>22.0</ns3:atemp>
          </ns3:TrackPointExtension>
        </extensions>
      </trkpt>
      <trkpt lat="42.5969325006008148193359375" lon="20.1062667556107044219970703125">
        <ele>1787.4000244140625</ele>
        <time>2026-06-15T08:56:46.000Z</time>
        <extensions>
          <ns3:TrackPointExtension>
            <ns3:atemp>22.0</ns3:atemp>
          </ns3:TrackPointExtension>
        </extensions>
      </trkpt>
      <trkpt lat="42.59691774845123291015625" lon="20.1062302105128765106201171875">
        <ele>1787.800048828125</ele>
        <time>2026-06-15T08:56:47.000Z</time>
        <extensions>
          <ns3:TrackPointExtension>
            <ns3:atemp>22.0</ns3:atemp>
          </ns3:TrackPointExtension>
        </extensions>
      </trkpt>
      <trkpt lat="42.59690324775874614715576171875" lon="20.10619324631989002227783203125">
        <ele>1788</ele>
        <time>2026-06-15T08:56:48.000Z</time>
        <extensions>
          <ns3:TrackPointExtension>
            <ns3:atemp>22.0</ns3:atemp>
          </ns3:TrackPointExtension>
        </extensions>
      </trkpt>
      <trkpt lat="42.5968895852565765380859375" lon="20.10615888051688671112060546875">
        <ele>1788.4000244140625</ele>
        <time>2026-06-15T08:56:49.000Z</time>
        <extensions>
          <ns3:TrackPointExtension>
            <ns3:atemp>22.0</ns3:atemp>
          </ns3:TrackPointExtension>
        </extensions>
      </trkpt>
      <trkpt lat="42.59687541984021663665771484375" lon="20.10612451471388339996337890625">
        <ele>1788.5999755859375</ele>
        <time>2026-06-15T08:56:50.000Z</time>
        <extensions>
          <ns3:TrackPointExtension>
            <ns3:atemp>22.0</ns3:atemp>
          </ns3:TrackPointExtension>
        </extensions>
      </trkpt>
      <trkpt lat="42.59686804376542568206787109375" lon="20.1060962677001953125">
        <ele>1789.199951171875</ele>
        <time>2026-06-15T08:56:51.000Z</time>
        <extensions>
          <ns3:TrackPointExtension>
            <ns3:atemp>22.0</ns3:atemp>
          </ns3:TrackPointExtension>
        </extensions>
      </trkpt>
      <trkpt lat="42.59685882367193698883056640625" lon="20.1060659252107143402099609375">
        <ele>1789.5999755859375</ele>
        <time>2026-06-15T08:56:52.000Z</time>
        <extensions>
          <ns3:TrackPointExtension>
            <ns3:atemp>23.0</ns3:atemp>
          </ns3:TrackPointExtension>
        </extensions>
      </trkpt>
      <trkpt lat="42.59684868156909942626953125" lon="20.10603868402540683746337890625">
        <ele>1790</ele>
        <time>2026-06-15T08:56:53.000Z</time>
        <extensions>
          <ns3:TrackPointExtension>
            <ns3:atemp>23.0</ns3:atemp>
          </ns3:TrackPointExtension>
        </extensions>
      </trkpt>
      <trkpt lat="42.59683183394372463226318359375" lon="20.1060075871646404266357421875">
        <ele>1790.4000244140625</ele>
        <time>2026-06-15T08:56:54.000Z</time>
        <extensions>
          <ns3:TrackPointExtension>
            <ns3:atemp>23.0</ns3:atemp>
          </ns3:TrackPointExtension>
        </extensions>
      </trkpt>
      <trkpt lat="42.59681624360382556915283203125" lon="20.10597447864711284637451171875">
        <ele>1790.5999755859375</ele>
        <time>2026-06-15T08:56:55.000Z</time>
        <extensions>
          <ns3:TrackPointExtension>
            <ns3:atemp>23.0</ns3:atemp>
          </ns3:TrackPointExtension>
        </extensions>
      </trkpt>
      <trkpt lat="42.5968002341687679290771484375" lon="20.10594463907182216644287109375">
        <ele>1791</ele>
        <time>2026-06-15T08:56:56.000Z</time>
        <extensions>
          <ns3:TrackPointExtension>
            <ns3:atemp>23.0</ns3:atemp>
          </ns3:TrackPointExtension>
        </extensions>
      </trkpt>
      <trkpt lat="42.59678028523921966552734375" lon="20.1059160567820072174072265625">
        <ele>1791.199951171875</ele>
        <time>2026-06-15T08:56:57.000Z</time>
        <extensions>
          <ns3:TrackPointExtension>
            <ns3:atemp>23.0</ns3:atemp>
          </ns3:TrackPointExtension>
        </extensions>
      </trkpt>
      <trkpt lat="42.5967593304812908172607421875" lon="20.105882696807384490966796875">
        <ele>1791.199951171875</ele>
        <time>2026-06-15T08:56:58.000Z</time>
        <extensions>
          <ns3:TrackPointExtension>
            <ns3:atemp>23.0</ns3:atemp>
          </ns3:TrackPointExtension>
        </extensions>
      </trkpt>
      <trkpt lat="42.59673996828496456146240234375" lon="20.1058516837656497955322265625">
        <ele>1791.5999755859375</ele>
        <time>2026-06-15T08:56:59.000Z</time>
        <extensions>
          <ns3:TrackPointExtension>
            <ns3:atemp>23.0</ns3:atemp>
          </ns3:TrackPointExtension>
        </extensions>
      </trkpt>
      <trkpt lat="42.596717588603496551513671875" lon="20.10582343675196170806884765625">
        <ele>1791.800048828125</ele>
        <time>2026-06-15T08:57:00.000Z</time>
        <extensions>
          <ns3:TrackPointExtension>
            <ns3:atemp>23.0</ns3:atemp>
          </ns3:TrackPointExtension>
        </extensions>
      </trkpt>
      <trkpt lat="42.59669671766459941864013671875" lon="20.1057940162718296051025390625">
        <ele>1791.800048828125</ele>
        <time>2026-06-15T08:57:01.000Z</time>
        <extensions>
          <ns3:TrackPointExtension>
            <ns3:atemp>23.0</ns3:atemp>
          </ns3:TrackPointExtension>
        </extensions>
      </trkpt>
      <trkpt lat="42.5966768525540828704833984375" lon="20.1057655178010463714599609375">
        <ele>1792</ele>
        <time>2026-06-15T08:57:02.000Z</time>
        <extensions>
          <ns3:TrackPointExtension>
            <ns3:atemp>22.0</ns3:atemp>
          </ns3:TrackPointExtension>
        </extensions>
      </trkpt>
      <trkpt lat="42.5966550596058368682861328125" lon="20.10573643259704113006591796875">
        <ele>1792.199951171875</ele>
        <time>2026-06-15T08:57:03.000Z</time>
        <extensions>
          <ns3:TrackPointExtension>
            <ns3:atemp>22.0</ns3:atemp>
          </ns3:TrackPointExtension>
        </extensions>
      </trkpt>
      <trkpt lat="42.59663402102887630462646484375" lon="20.1057038269937038421630859375">
        <ele>1792.5999755859375</ele>
        <time>2026-06-15T08:57:04.000Z</time>
        <extensions>
          <ns3:TrackPointExtension>
            <ns3:atemp>22.0</ns3:atemp>
          </ns3:TrackPointExtension>
        </extensions>
      </trkpt>
      <trkpt lat="42.5966114737093448638916015625" lon="20.105674825608730316162109375">
        <ele>1792.800048828125</ele>
        <time>2026-06-15T08:57:05.000Z</time>
        <extensions>
          <ns3:TrackPointExtension>
            <ns3:atemp>22.0</ns3:atemp>
          </ns3:TrackPointExtension>
        </extensions>
      </trkpt>
      <trkpt lat="42.59658825583755970001220703125" lon="20.10564456693828105926513671875">
        <ele>1793.199951171875</ele>
        <time>2026-06-15T08:57:06.000Z</time>
        <extensions>
          <ns3:TrackPointExtension>
            <ns3:atemp>22.0</ns3:atemp>
          </ns3:TrackPointExtension>
        </extensions>
      </trkpt>
      <trkpt lat="42.59656327776610851287841796875" lon="20.10561682283878326416015625">
        <ele>1793.4000244140625</ele>
        <time>2026-06-15T08:57:07.000Z</time>
        <extensions>
          <ns3:TrackPointExtension>
            <ns3:atemp>22.0</ns3:atemp>
          </ns3:TrackPointExtension>
        </extensions>
      </trkpt>
      <trkpt lat="42.596537880599498748779296875" lon="20.10559176094830036163330078125">
        <ele>1793.800048828125</ele>
        <time>2026-06-15T08:57:08.000Z</time>
        <extensions>
          <ns3:TrackPointExtension>
            <ns3:atemp>23.0</ns3:atemp>
          </ns3:TrackPointExtension>
        </extensions>
      </trkpt>
      <trkpt lat="42.59651265107095241546630859375" lon="20.10556527413427829742431640625">
        <ele>1794.199951171875</ele>
        <time>2026-06-15T08:57:09.000Z</time>
        <extensions>
          <ns3:TrackPointExtension>
            <ns3:atemp>23.0</ns3:atemp>
          </ns3:TrackPointExtension>
        </extensions>
      </trkpt>
      <trkpt lat="42.59649136103689670562744140625" lon="20.10554230771958827972412109375">
        <ele>1794.5999755859375</ele>
        <time>2026-06-15T08:57:10.000Z</time>
        <extensions>
          <ns3:TrackPointExtension>
            <ns3:atemp>22.0</ns3:atemp>
          </ns3:TrackPointExtension>
        </extensions>
      </trkpt>
      <trkpt lat="42.5964652933180332183837890625" lon="20.1055184192955493927001953125">
        <ele>1794.800048828125</ele>
        <time>2026-06-15T08:57:11.000Z</time>
        <extensions>
          <ns3:TrackPointExtension>
            <ns3:atemp>23.0</ns3:atemp>
          </ns3:TrackPointExtension>
        </extensions>
      </trkpt>
      <trkpt lat="42.59643788449466228485107421875" lon="20.105494447052478790283203125">
        <ele>1795.199951171875</ele>
        <time>2026-06-15T08:57:12.000Z</time>
        <extensions>
          <ns3:TrackPointExtension>
            <ns3:atemp>23.0</ns3:atemp>
          </ns3:TrackPointExtension>
        </extensions>
      </trkpt>
      <trkpt lat="42.59641072712838649749755859375" lon="20.10547240264713764190673828125">
        <ele>1795.4000244140625</ele>
        <time>2026-06-15T08:57:13.000Z</time>
        <extensions>
          <ns3:TrackPointExtension>
            <ns3:atemp>23.0</ns3:atemp>
          </ns3:TrackPointExtension>
        </extensions>
      </trkpt>
      <trkpt lat="42.596383988857269287109375" lon="20.1054486818611621856689453125">
        <ele>1795.5999755859375</ele>
        <time>2026-06-15T08:57:14.000Z</time>
        <extensions>
          <ns3:TrackPointExtension>
            <ns3:atemp>22.0</ns3:atemp>
          </ns3:TrackPointExtension>
        </extensions>
      </trkpt>
      <trkpt lat="42.59635389782488346099853515625" lon="20.105431415140628814697265625">
        <ele>1795.800048828125</ele>
        <time>2026-06-15T08:57:15.000Z</time>
        <extensions>
          <ns3:TrackPointExtension>
            <ns3:atemp>22.0</ns3:atemp>
          </ns3:TrackPointExtension>
        </extensions>
      </trkpt>
      <trkpt lat="42.59632430970668792724609375" lon="20.105413310229778289794921875">
        <ele>1796</ele>
        <time>2026-06-15T08:57:16.000Z</time>
        <extensions>
          <ns3:TrackPointExtension>
            <ns3:atemp>23.0</ns3:atemp>
          </ns3:TrackPointExtension>
        </extensions>
      </trkpt>
      <trkpt lat="42.59629555977880954742431640625" lon="20.1053933613002300262451171875">
        <ele>1796.199951171875</ele>
        <time>2026-06-15T08:57:17.000Z</time>
        <extensions>
          <ns3:TrackPointExtension>
            <ns3:atemp>22.0</ns3:atemp>
          </ns3:TrackPointExtension>
        </extensions>
      </trkpt>
      <trkpt lat="42.59626756422221660614013671875" lon="20.1053742505609989166259765625">
        <ele>1796.5999755859375</ele>
        <time>2026-06-15T08:57:18.000Z</time>
        <extensions>
          <ns3:TrackPointExtension>
            <ns3:atemp>23.0</ns3:atemp>
          </ns3:TrackPointExtension>
        </extensions>
      </trkpt>
      <trkpt lat="42.596241496503353118896484375" lon="20.105353295803070068359375">
        <ele>1796.800048828125</ele>
        <time>2026-06-15T08:57:19.000Z</time>
        <extensions>
          <ns3:TrackPointExtension>
            <ns3:atemp>22.0</ns3:atemp>
          </ns3:TrackPointExtension>
        </extensions>
      </trkpt>
      <trkpt lat="42.59621542878448963165283203125" lon="20.10533594526350498199462890625">
        <ele>1797.199951171875</ele>
        <time>2026-06-15T08:57:20.000Z</time>
        <extensions>
          <ns3:TrackPointExtension>
            <ns3:atemp>22.0</ns3:atemp>
          </ns3:TrackPointExtension>
        </extensions>
      </trkpt>
      <trkpt lat="42.59618877433240413665771484375" lon="20.1053182594478130340576171875">
        <ele>1797.4000244140625</ele>
        <time>2026-06-15T08:57:21.000Z</time>
        <extensions>
          <ns3:TrackPointExtension>
            <ns3:atemp>22.0</ns3:atemp>
          </ns3:TrackPointExtension>
        </extensions>
      </trkpt>
      <trkpt lat="42.596158348023891448974609375" lon="20.10530057363212108612060546875">
        <ele>1797.5999755859375</ele>
        <time>2026-06-15T08:57:22.000Z</time>
        <extensions>
          <ns3:TrackPointExtension>
            <ns3:atemp>22.0</ns3:atemp>
          </ns3:TrackPointExtension>
        </extensions>
      </trkpt>
      <trkpt lat="42.596128843724727630615234375" lon="20.10528422892093658447265625">
        <ele>1798</ele>
        <time>2026-06-15T08:57:23.000Z</time>
        <extensions>
          <ns3:TrackPointExtension>
            <ns3:atemp>22.0</ns3:atemp>
          </ns3:TrackPointExtension>
        </extensions>
      </trkpt>
      <trkpt lat="42.59609774686396121978759765625" lon="20.1052688062191009521484375">
        <ele>1798.199951171875</ele>
        <time>2026-06-15T08:57:24.000Z</time>
        <extensions>
          <ns3:TrackPointExtension>
            <ns3:atemp>22.0</ns3:atemp>
          </ns3:TrackPointExtension>
        </extensions>
      </trkpt>
      <trkpt lat="42.596069164574146270751953125" lon="20.10524977929890155792236328125">
        <ele>1798.5999755859375</ele>
        <time>2026-06-15T08:57:25.000Z</time>
        <extensions>
          <ns3:TrackPointExtension>
            <ns3:atemp>23.0</ns3:atemp>
          </ns3:TrackPointExtension>
        </extensions>
      </trkpt>
      <trkpt lat="42.5960404984652996063232421875" lon="20.10522882454097270965576171875">
        <ele>1799</ele>
        <time>2026-06-15T08:57:26.000Z</time>
        <extensions>
          <ns3:TrackPointExtension>
            <ns3:atemp>23.0</ns3:atemp>
          </ns3:TrackPointExtension>
        </extensions>
      </trkpt>
      <trkpt lat="42.59601275436580181121826171875" lon="20.10520887561142444610595703125">
        <ele>1799.199951171875</ele>
        <time>2026-06-15T08:57:27.000Z</time>
        <extensions>
          <ns3:TrackPointExtension>
            <ns3:atemp>22.0</ns3:atemp>
          </ns3:TrackPointExtension>
        </extensions>
      </trkpt>
      <trkpt lat="42.5959883630275726318359375" lon="20.10518607683479785919189453125">
        <ele>1799.5999755859375</ele>
        <time>2026-06-15T08:57:28.000Z</time>
        <extensions>
          <ns3:TrackPointExtension>
            <ns3:atemp>22.0</ns3:atemp>
          </ns3:TrackPointExtension>
        </extensions>
      </trkpt>
      <trkpt lat="42.59596564806997776031494140625" lon="20.1051650382578372955322265625">
        <ele>1800</ele>
        <time>2026-06-15T08:57:29.000Z</time>
        <extensions>
          <ns3:TrackPointExtension>
            <ns3:atemp>23.0</ns3:atemp>
          </ns3:TrackPointExtension>
        </extensions>
      </trkpt>
      <trkpt lat="42.595938742160797119140625" lon="20.10514399968087673187255859375">
        <ele>1800.4000244140625</ele>
        <time>2026-06-15T08:57:30.000Z</time>
        <extensions>
          <ns3:TrackPointExtension>
            <ns3:atemp>23.0</ns3:atemp>
          </ns3:TrackPointExtension>
        </extensions>
      </trkpt>
      <trkpt lat="42.5959114171564579010009765625" lon="20.1051186025142669677734375">
        <ele>1800.5999755859375</ele>
        <time>2026-06-15T08:57:31.000Z</time>
        <extensions>
          <ns3:TrackPointExtension>
            <ns3:atemp>23.0</ns3:atemp>
          </ns3:TrackPointExtension>
        </extensions>
      </trkpt>
      <trkpt lat="42.59588451124727725982666015625" lon="20.105095468461513519287109375">
        <ele>1800.800048828125</ele>
        <time>2026-06-15T08:57:32.000Z</time>
        <extensions>
          <ns3:TrackPointExtension>
            <ns3:atemp>23.0</ns3:atemp>
          </ns3:TrackPointExtension>
        </extensions>
      </trkpt>
      <trkpt lat="42.59585852734744548797607421875" lon="20.10507057420909404754638671875">
        <ele>1801</ele>
        <time>2026-06-15T08:57:33.000Z</time>
        <extensions>
          <ns3:TrackPointExtension>
            <ns3:atemp>23.0</ns3:atemp>
          </ns3:TrackPointExtension>
        </extensions>
      </trkpt>
      <trkpt lat="42.595833800733089447021484375" lon="20.105044841766357421875">
        <ele>1801.199951171875</ele>
        <time>2026-06-15T08:57:34.000Z</time>
        <extensions>
          <ns3:TrackPointExtension>
            <ns3:atemp>23.0</ns3:atemp>
          </ns3:TrackPointExtension>
        </extensions>
      </trkpt>
      <trkpt lat="42.59580739773809909820556640625" lon="20.10501977987587451934814453125">
        <ele>1801.199951171875</ele>
        <time>2026-06-15T08:57:35.000Z</time>
        <extensions>
          <ns3:TrackPointExtension>
            <ns3:atemp>23.0</ns3:atemp>
          </ns3:TrackPointExtension>
        </extensions>
      </trkpt>
      <trkpt lat="42.5957833416759967803955078125" lon="20.1049923710525035858154296875">
        <ele>1801.4000244140625</ele>
        <time>2026-06-15T08:57:36.000Z</time>
        <extensions>
          <ns3:TrackPointExtension>
            <ns3:atemp>22.0</ns3:atemp>
          </ns3:TrackPointExtension>
        </extensions>
      </trkpt>
      <trkpt lat="42.59576263837516307830810546875" lon="20.10496244765818119049072265625">
        <ele>1801.5999755859375</ele>
        <time>2026-06-15T08:57:37.000Z</time>
        <extensions>
          <ns3:TrackPointExtension>
            <ns3:atemp>22.0</ns3:atemp>
          </ns3:TrackPointExtension>
        </extensions>
      </trkpt>
      <trkpt lat="42.595737241208553314208984375" lon="20.10493327863514423370361328125">
        <ele>1802</ele>
        <time>2026-06-15T08:57:38.000Z</time>
        <extensions>
          <ns3:TrackPointExtension>
            <ns3:atemp>22.0</ns3:atemp>
          </ns3:TrackPointExtension>
        </extensions>
      </trkpt>
      <trkpt lat="42.59571678936481475830078125" lon="20.104905031621456146240234375">
        <ele>1802.199951171875</ele>
        <time>2026-06-15T08:57:39.000Z</time>
        <extensions>
          <ns3:TrackPointExtension>
            <ns3:atemp>23.0</ns3:atemp>
          </ns3:TrackPointExtension>
        </extensions>
      </trkpt>
      <trkpt lat="42.59569709189236164093017578125" lon="20.10487385094165802001953125">
        <ele>1802.4000244140625</ele>
        <time>2026-06-15T08:57:40.000Z</time>
        <extensions>
          <ns3:TrackPointExtension>
            <ns3:atemp>23.0</ns3:atemp>
          </ns3:TrackPointExtension>
        </extensions>
      </trkpt>
      <trkpt lat="42.59567848406732082366943359375" lon="20.1048408262431621551513671875">
        <ele>1802.800048828125</ele>
        <time>2026-06-15T08:57:41.000Z</time>
        <extensions>
          <ns3:TrackPointExtension>
            <ns3:atemp>23.0</ns3:atemp>
          </ns3:TrackPointExtension>
        </extensions>
      </trkpt>
      <trkpt lat="42.5956609658896923065185546875" lon="20.10480335913598537445068359375">
        <ele>1803</ele>
        <time>2026-06-15T08:57:42.000Z</time>
        <extensions>
          <ns3:TrackPointExtension>
            <ns3:atemp>23.0</ns3:atemp>
          </ns3:TrackPointExtension>
        </extensions>
      </trkpt>
      <trkpt lat="42.59564747102558612823486328125" lon="20.104770250618457794189453125">
        <ele>1803.199951171875</ele>
        <time>2026-06-15T08:57:43.000Z</time>
        <extensions>
          <ns3:TrackPointExtension>
            <ns3:atemp>22.0</ns3:atemp>
          </ns3:TrackPointExtension>
        </extensions>
      </trkpt>
      <trkpt lat="42.59562567807734012603759765625" lon="20.1047337055206298828125">
        <ele>1803.5999755859375</ele>
        <time>2026-06-15T08:57:44.000Z</time>
        <extensions>
          <ns3:TrackPointExtension>
            <ns3:atemp>22.0</ns3:atemp>
          </ns3:TrackPointExtension>
        </extensions>
      </trkpt>
      <trkpt lat="42.59560170583426952362060546875" lon="20.10470109991729259490966796875">
        <ele>1804</ele>
        <time>2026-06-15T08:57:45.000Z</time>
        <extensions>
          <ns3:TrackPointExtension>
            <ns3:atemp>22.0</ns3:atemp>
          </ns3:TrackPointExtension>
        </extensions>
      </trkpt>
      <trkpt lat="42.59557873941957950592041015625" lon="20.10466740466654300689697265625">
        <ele>1804.4000244140625</ele>
        <time>2026-06-15T08:57:46.000Z</time>
        <extensions>
          <ns3:TrackPointExtension>
            <ns3:atemp>22.0</ns3:atemp>
          </ns3:TrackPointExtension>
        </extensions>
      </trkpt>
      <trkpt lat="42.59555585682392120361328125" lon="20.10463840328156948089599609375">
        <ele>1804.800048828125</ele>
        <time>2026-06-15T08:57:47.000Z</time>
        <extensions>
          <ns3:TrackPointExtension>
            <ns3:atemp>22.0</ns3:atemp>
          </ns3:TrackPointExtension>
        </extensions>
      </trkpt>
      <trkpt lat="42.5955342315137386322021484375" lon="20.1046074740588665008544921875">
        <ele>1805.199951171875</ele>
        <time>2026-06-15T08:57:48.000Z</time>
        <extensions>
          <ns3:TrackPointExtension>
            <ns3:atemp>22.0</ns3:atemp>
          </ns3:TrackPointExtension>
        </extensions>
      </trkpt>
      <trkpt lat="42.59551294147968292236328125" lon="20.10458023287355899810791015625">
        <ele>1805.5999755859375</ele>
        <time>2026-06-15T08:57:49.000Z</time>
        <extensions>
          <ns3:TrackPointExtension>
            <ns3:atemp>22.0</ns3:atemp>
          </ns3:TrackPointExtension>
        </extensions>
      </trkpt>
      <trkpt lat="42.595491819083690643310546875" lon="20.1045524887740612030029296875">
        <ele>1806</ele>
        <time>2026-06-15T08:57:50.000Z</time>
        <extensions>
          <ns3:TrackPointExtension>
            <ns3:atemp>22.0</ns3:atemp>
          </ns3:TrackPointExtension>
        </extensions>
      </trkpt>
      <trkpt lat="42.595468349754810333251953125" lon="20.10452608577907085418701171875">
        <ele>1806.5999755859375</ele>
        <time>2026-06-15T08:57:51.000Z</time>
        <extensions>
          <ns3:TrackPointExtension>
            <ns3:atemp>22.0</ns3:atemp>
          </ns3:TrackPointExtension>
        </extensions>
      </trkpt>
      <trkpt lat="42.5954433716833591461181640625" lon="20.1045035384595394134521484375">
        <ele>1806.800048828125</ele>
        <time>2026-06-15T08:57:52.000Z</time>
        <extensions>
          <ns3:TrackPointExtension>
            <ns3:atemp>22.0</ns3:atemp>
          </ns3:TrackPointExtension>
        </extensions>
      </trkpt>
      <trkpt lat="42.5954188965260982513427734375" lon="20.10448451153934001922607421875">
        <ele>1807.199951171875</ele>
        <time>2026-06-15T08:57:53.000Z</time>
        <extensions>
          <ns3:TrackPointExtension>
            <ns3:atemp>22.0</ns3:atemp>
          </ns3:TrackPointExtension>
        </extensions>
      </trkpt>
      <trkpt lat="42.59539383463561534881591796875" lon="20.10447151958942413330078125">
        <ele>1807.5999755859375</ele>
        <time>2026-06-15T08:57:54.000Z</time>
        <extensions>
          <ns3:TrackPointExtension>
            <ns3:atemp>22.0</ns3:atemp>
          </ns3:TrackPointExtension>
        </extensions>
      </trkpt>
      <trkpt lat="42.59536944329738616943359375" lon="20.1044602878391742706298828125">
        <ele>1808</ele>
        <time>2026-06-15T08:57:55.000Z</time>
        <extensions>
          <ns3:TrackPointExtension>
            <ns3:atemp>22.0</ns3:atemp>
          </ns3:TrackPointExtension>
        </extensions>
      </trkpt>
      <trkpt lat="42.595340274274349212646484375" lon="20.10444201529026031494140625">
        <ele>1808.5999755859375</ele>
        <time>2026-06-15T08:57:56.000Z</time>
        <extensions>
          <ns3:TrackPointExtension>
            <ns3:atemp>22.0</ns3:atemp>
          </ns3:TrackPointExtension>
        </extensions>
      </trkpt>
      <trkpt lat="42.5953132845461368560791015625" lon="20.1044220663607120513916015625">
        <ele>1809</ele>
        <time>2026-06-15T08:57:57.000Z</time>
        <extensions>
          <ns3:TrackPointExtension>
            <ns3:atemp>22.0</ns3:atemp>
          </ns3:TrackPointExtension>
        </extensions>
      </trkpt>
      <trkpt lat="42.59528671391308307647705078125" lon="20.104402117431163787841796875">
        <ele>1809.5999755859375</ele>
        <time>2026-06-15T08:57:58.000Z</time>
        <extensions>
          <ns3:TrackPointExtension>
            <ns3:atemp>23.0</ns3:atemp>
          </ns3:TrackPointExtension>
        </extensions>
      </trkpt>
      <trkpt lat="42.59525922127068042755126953125" lon="20.104383341968059539794921875">
        <ele>1810.199951171875</ele>
        <time>2026-06-15T08:57:59.000Z</time>
        <extensions>
          <ns3:TrackPointExtension>
            <ns3:atemp>23.0</ns3:atemp>
          </ns3:TrackPointExtension>
        </extensions>
      </trkpt>
      <trkpt lat="42.59523156099021434783935546875" lon="20.1043597050011157989501953125">
        <ele>1810.4000244140625</ele>
        <time>2026-06-15T08:58:00.000Z</time>
        <extensions>
          <ns3:TrackPointExtension>
            <ns3:atemp>23.0</ns3:atemp>
          </ns3:TrackPointExtension>
        </extensions>
      </trkpt>
      <trkpt lat="42.59520289488136768341064453125" lon="20.104343108832836151123046875">
        <ele>1810.800048828125</ele>
        <time>2026-06-15T08:58:01.000Z</time>
        <extensions>
          <ns3:TrackPointExtension>
            <ns3:atemp>23.0</ns3:atemp>
          </ns3:TrackPointExtension>
        </extensions>
      </trkpt>
      <trkpt lat="42.59517154656350612640380859375" lon="20.10432508774101734161376953125">
        <ele>1811.199951171875</ele>
        <time>2026-06-15T08:58:02.000Z</time>
        <extensions>
          <ns3:TrackPointExtension>
            <ns3:atemp>23.0</ns3:atemp>
          </ns3:TrackPointExtension>
        </extensions>
      </trkpt>
      <trkpt lat="42.5951436348259449005126953125" lon="20.104304887354373931884765625">
        <ele>1811.4000244140625</ele>
        <time>2026-06-15T08:58:03.000Z</time>
        <extensions>
          <ns3:TrackPointExtension>
            <ns3:atemp>22.0</ns3:atemp>
          </ns3:TrackPointExtension>
        </extensions>
      </trkpt>
      <trkpt lat="42.5951158069074153900146484375" lon="20.1042856089770793914794921875">
        <ele>1811.800048828125</ele>
        <time>2026-06-15T08:58:04.000Z</time>
        <extensions>
          <ns3:TrackPointExtension>
            <ns3:atemp>22.0</ns3:atemp>
          </ns3:TrackPointExtension>
        </extensions>
      </trkpt>
      <trkpt lat="42.595091164112091064453125" lon="20.10426364839076995849609375">
        <ele>1812.199951171875</ele>
        <time>2026-06-15T08:58:05.000Z</time>
        <extensions>
          <ns3:TrackPointExtension>
            <ns3:atemp>22.0</ns3:atemp>
          </ns3:TrackPointExtension>
        </extensions>
      </trkpt>
      <trkpt lat="42.595061995089054107666015625" lon="20.10424881242215633392333984375">
        <ele>1812.800048828125</ele>
        <time>2026-06-15T08:58:06.000Z</time>
        <extensions>
          <ns3:TrackPointExtension>
            <ns3:atemp>22.0</ns3:atemp>
          </ns3:TrackPointExtension>
        </extensions>
      </trkpt>
      <trkpt lat="42.59503827430307865142822265625" lon="20.1042373292148113250732421875">
        <ele>1813</ele>
        <time>2026-06-15T08:58:07.000Z</time>
        <extensions>
          <ns3:TrackPointExtension>
            <ns3:atemp>22.0</ns3:atemp>
          </ns3:TrackPointExtension>
        </extensions>
      </trkpt>
      <trkpt lat="42.59501983411610126495361328125" lon="20.10422484017908573150634765625">
        <ele>1813.4000244140625</ele>
        <time>2026-06-15T08:58:08.000Z</time>
        <extensions>
          <ns3:TrackPointExtension>
            <ns3:atemp>22.0</ns3:atemp>
          </ns3:TrackPointExtension>
        </extensions>
      </trkpt>
      <trkpt lat="42.594998963177204132080078125" lon="20.1042098365724086761474609375">
        <ele>1813.5999755859375</ele>
        <time>2026-06-15T08:58:09.000Z</time>
        <extensions>
          <ns3:TrackPointExtension>
            <ns3:atemp>22.0</ns3:atemp>
          </ns3:TrackPointExtension>
        </extensions>
      </trkpt>
      <trkpt lat="42.5949850492179393768310546875" lon="20.10418611578643321990966796875">
        <ele>1814</ele>
        <time>2026-06-15T08:58:10.000Z</time>
        <extensions>
          <ns3:TrackPointExtension>
            <ns3:atemp>22.0</ns3:atemp>
          </ns3:TrackPointExtension>
        </extensions>
      </trkpt>
      <trkpt lat="42.59496987797319889068603515625" lon="20.1041585393249988555908203125">
        <ele>1814.4000244140625</ele>
        <time>2026-06-15T08:58:11.000Z</time>
        <extensions>
          <ns3:TrackPointExtension>
            <ns3:atemp>22.0</ns3:atemp>
          </ns3:TrackPointExtension>
        </extensions>
      </trkpt>
      <trkpt lat="42.59495361708104610443115234375" lon="20.1041357405483722686767578125">
        <ele>1814.800048828125</ele>
        <time>2026-06-15T08:58:12.000Z</time>
        <extensions>
          <ns3:TrackPointExtension>
            <ns3:atemp>22.0</ns3:atemp>
          </ns3:TrackPointExtension>
        </extensions>
      </trkpt>
      <trkpt lat="42.5949314050376415252685546875" lon="20.10412174277007579803466796875">
        <ele>1815</ele>
        <time>2026-06-15T08:58:13.000Z</time>
        <extensions>
          <ns3:TrackPointExtension>
            <ns3:atemp>22.0</ns3:atemp>
          </ns3:TrackPointExtension>
        </extensions>
      </trkpt>
      <trkpt lat="42.5949099473655223846435546875" lon="20.104109086096286773681640625">
        <ele>1815.4000244140625</ele>
        <time>2026-06-15T08:58:14.000Z</time>
        <extensions>
          <ns3:TrackPointExtension>
            <ns3:atemp>22.0</ns3:atemp>
          </ns3:TrackPointExtension>
        </extensions>
      </trkpt>
      <trkpt lat="42.59489066898822784423828125" lon="20.10409441776573657989501953125">
        <ele>1815.5999755859375</ele>
        <time>2026-06-15T08:58:15.000Z</time>
        <extensions>
          <ns3:TrackPointExtension>
            <ns3:atemp>22.0</ns3:atemp>
          </ns3:TrackPointExtension>
        </extensions>
      </trkpt>
      <trkpt lat="42.59487667120993137359619140625" lon="20.1040824316442012786865234375">
        <ele>1815.800048828125</ele>
        <time>2026-06-15T08:58:16.000Z</time>
        <extensions>
          <ns3:TrackPointExtension>
            <ns3:atemp>22.0</ns3:atemp>
          </ns3:TrackPointExtension>
        </extensions>
      </trkpt>
      <trkpt lat="42.5948663614690303802490234375" lon="20.10406927205622196197509765625">
        <ele>1816</ele>
        <time>2026-06-15T08:58:17.000Z</time>
        <extensions>
          <ns3:TrackPointExtension>
            <ns3:atemp>22.0</ns3:atemp>
          </ns3:TrackPointExtension>
        </extensions>
      </trkpt>
      <trkpt lat="42.5948512740433216094970703125" lon="20.10405720211565494537353515625">
        <ele>1816.199951171875</ele>
        <time>2026-06-15T08:58:18.000Z</time>
        <extensions>
          <ns3:TrackPointExtension>
            <ns3:atemp>22.0</ns3:atemp>
          </ns3:TrackPointExtension>
        </extensions>
      </trkpt>
      <trkpt lat="42.594833336770534515380859375" lon="20.10404647327959537506103515625">
        <ele>1816.4000244140625</ele>
        <time>2026-06-15T08:58:19.000Z</time>
        <extensions>
          <ns3:TrackPointExtension>
            <ns3:atemp>22.0</ns3:atemp>
          </ns3:TrackPointExtension>
        </extensions>
      </trkpt>
      <trkpt lat="42.5948130525648593902587890625" lon="20.1040361635386943817138671875">
        <ele>1816.5999755859375</ele>
        <time>2026-06-15T08:58:20.000Z</time>
        <extensions>
          <ns3:TrackPointExtension>
            <ns3:atemp>22.0</ns3:atemp>
          </ns3:TrackPointExtension>
        </extensions>
      </trkpt>
      <trkpt lat="42.59479218162596225738525390625" lon="20.1040269434452056884765625">
        <ele>1816.800048828125</ele>
        <time>2026-06-15T08:58:21.000Z</time>
        <extensions>
          <ns3:TrackPointExtension>
            <ns3:atemp>22.0</ns3:atemp>
          </ns3:TrackPointExtension>
        </extensions>
      </trkpt>
      <trkpt lat="42.59477122686803340911865234375" lon="20.10401696898043155670166015625">
        <ele>1817</ele>
        <time>2026-06-15T08:58:22.000Z</time>
        <extensions>
          <ns3:TrackPointExtension>
            <ns3:atemp>22.0</ns3:atemp>
          </ns3:TrackPointExtension>
        </extensions>
      </trkpt>
      <trkpt lat="42.5947513617575168609619140625" lon="20.104006826877593994140625">
        <ele>1817.199951171875</ele>
        <time>2026-06-15T08:58:23.000Z</time>
        <extensions>
          <ns3:TrackPointExtension>
            <ns3:atemp>22.0</ns3:atemp>
          </ns3:TrackPointExtension>
        </extensions>
      </trkpt>
      <trkpt lat="42.594727389514446258544921875" lon="20.1039932481944561004638671875">
        <ele>1817.4000244140625</ele>
        <time>2026-06-15T08:58:24.000Z</time>
        <extensions>
          <ns3:TrackPointExtension>
            <ns3:atemp>22.0</ns3:atemp>
          </ns3:TrackPointExtension>
        </extensions>
      </trkpt>
      <trkpt lat="42.5947044230997562408447265625" lon="20.10398059152066707611083984375">
        <ele>1817.5999755859375</ele>
        <time>2026-06-15T08:58:25.000Z</time>
        <extensions>
          <ns3:TrackPointExtension>
            <ns3:atemp>22.0</ns3:atemp>
          </ns3:TrackPointExtension>
        </extensions>
      </trkpt>
      <trkpt lat="42.59468170814216136932373046875" lon="20.10396659374237060546875">
        <ele>1817.800048828125</ele>
        <time>2026-06-15T08:58:26.000Z</time>
        <extensions>
          <ns3:TrackPointExtension>
            <ns3:atemp>22.0</ns3:atemp>
          </ns3:TrackPointExtension>
        </extensions>
      </trkpt>
      <trkpt lat="42.5946581549942493438720703125" lon="20.10394823737442493438720703125">
        <ele>1818</ele>
        <time>2026-06-15T08:58:27.000Z</time>
        <extensions>
          <ns3:TrackPointExtension>
            <ns3:atemp>22.0</ns3:atemp>
          </ns3:TrackPointExtension>
        </extensions>
      </trkpt>
      <trkpt lat="42.59463259018957614898681640625" lon="20.10393063537776470184326171875">
        <ele>1818.199951171875</ele>
        <time>2026-06-15T08:58:28.000Z</time>
        <extensions>
          <ns3:TrackPointExtension>
            <ns3:atemp>22.0</ns3:atemp>
          </ns3:TrackPointExtension>
        </extensions>
      </trkpt>
      <trkpt lat="42.59460727684199810028076171875" lon="20.10391286574304103851318359375">
        <ele>1818.4000244140625</ele>
        <time>2026-06-15T08:58:29.000Z</time>
        <extensions>
          <ns3:TrackPointExtension>
            <ns3:atemp>22.0</ns3:atemp>
          </ns3:TrackPointExtension>
        </extensions>
      </trkpt>
      <trkpt lat="42.59458531625568866729736328125" lon="20.10388805530965328216552734375">
        <ele>1818.5999755859375</ele>
        <time>2026-06-15T08:58:30.000Z</time>
        <extensions>
          <ns3:TrackPointExtension>
            <ns3:atemp>22.0</ns3:atemp>
          </ns3:TrackPointExtension>
        </extensions>
      </trkpt>
      <trkpt lat="42.594560422003269195556640625" lon="20.10386810638010501861572265625">
        <ele>1818.800048828125</ele>
        <time>2026-06-15T08:58:31.000Z</time>
        <extensions>
          <ns3:TrackPointExtension>
            <ns3:atemp>22.0</ns3:atemp>
          </ns3:TrackPointExtension>
        </extensions>
      </trkpt>
      <trkpt lat="42.59453519247472286224365234375" lon="20.10385016910731792449951171875">
        <ele>1819.199951171875</ele>
        <time>2026-06-15T08:58:32.000Z</time>
        <extensions>
          <ns3:TrackPointExtension>
            <ns3:atemp>22.0</ns3:atemp>
          </ns3:TrackPointExtension>
        </extensions>
      </trkpt>
      <trkpt lat="42.5945131480693817138671875" lon="20.10383139364421367645263671875">
        <ele>1819.4000244140625</ele>
        <time>2026-06-15T08:58:33.000Z</time>
        <extensions>
          <ns3:TrackPointExtension>
            <ns3:atemp>22.0</ns3:atemp>
          </ns3:TrackPointExtension>
        </extensions>
      </trkpt>
      <trkpt lat="42.59448967874050140380859375" lon="20.1038111932575702667236328125">
        <ele>1819.800048828125</ele>
        <time>2026-06-15T08:58:34.000Z</time>
        <extensions>
          <ns3:TrackPointExtension>
            <ns3:atemp>22.0</ns3:atemp>
          </ns3:TrackPointExtension>
        </extensions>
      </trkpt>
      <trkpt lat="42.5944673828780651092529296875" lon="20.10379451327025890350341796875">
        <ele>1820</ele>
        <time>2026-06-15T08:58:35.000Z</time>
        <extensions>
          <ns3:TrackPointExtension>
            <ns3:atemp>22.0</ns3:atemp>
          </ns3:TrackPointExtension>
        </extensions>
      </trkpt>
      <trkpt lat="42.59444366209208965301513671875" lon="20.103777833282947540283203125">
        <ele>1820.4000244140625</ele>
        <time>2026-06-15T08:58:36.000Z</time>
        <extensions>
          <ns3:TrackPointExtension>
            <ns3:atemp>22.0</ns3:atemp>
          </ns3:TrackPointExtension>
        </extensions>
      </trkpt>
      <trkpt lat="42.5944157503545284271240234375" lon="20.103760063648223876953125">
        <ele>1820.800048828125</ele>
        <time>2026-06-15T08:58:37.000Z</time>
        <extensions>
          <ns3:TrackPointExtension>
            <ns3:atemp>22.0</ns3:atemp>
          </ns3:TrackPointExtension>
        </extensions>
      </trkpt>
      <trkpt lat="42.594386748969554901123046875" lon="20.103744305670261383056640625">
        <ele>1821.199951171875</ele>
        <time>2026-06-15T08:58:38.000Z</time>
        <extensions>
          <ns3:TrackPointExtension>
            <ns3:atemp>22.0</ns3:atemp>
          </ns3:TrackPointExtension>
        </extensions>
      </trkpt>
      <trkpt lat="42.59436001069843769073486328125" lon="20.10372779332101345062255859375">
        <ele>1821.5999755859375</ele>
        <time>2026-06-15T08:58:39.000Z</time>
        <extensions>
          <ns3:TrackPointExtension>
            <ns3:atemp>22.0</ns3:atemp>
          </ns3:TrackPointExtension>
        </extensions>
      </trkpt>
      <trkpt lat="42.5943332724273204803466796875" lon="20.10371404699981212615966796875">
        <ele>1821.800048828125</ele>
        <time>2026-06-15T08:58:40.000Z</time>
        <extensions>
          <ns3:TrackPointExtension>
            <ns3:atemp>22.0</ns3:atemp>
          </ns3:TrackPointExtension>
        </extensions>
      </trkpt>
      <trkpt lat="42.59430988691747188568115234375" lon="20.10369543917477130889892578125">
        <ele>1822.199951171875</ele>
        <time>2026-06-15T08:58:41.000Z</time>
        <extensions>
          <ns3:TrackPointExtension>
            <ns3:atemp>22.0</ns3:atemp>
          </ns3:TrackPointExtension>
        </extensions>
      </trkpt>
      <trkpt lat="42.594286836683750152587890625" lon="20.103678591549396514892578125">
        <ele>1822.4000244140625</ele>
        <time>2026-06-15T08:58:42.000Z</time>
        <extensions>
          <ns3:TrackPointExtension>
            <ns3:atemp>22.0</ns3:atemp>
          </ns3:TrackPointExtension>
        </extensions>
      </trkpt>
      <trkpt lat="42.59426361881196498870849609375" lon="20.1036646775901317596435546875">
        <ele>1822.5999755859375</ele>
        <time>2026-06-15T08:58:43.000Z</time>
        <extensions>
          <ns3:TrackPointExtension>
            <ns3:atemp>22.0</ns3:atemp>
          </ns3:TrackPointExtension>
        </extensions>
      </trkpt>
      <trkpt lat="42.59423713199794292449951171875" lon="20.1036462374031543731689453125">
        <ele>1822.800048828125</ele>
        <time>2026-06-15T08:58:44.000Z</time>
        <extensions>
          <ns3:TrackPointExtension>
            <ns3:atemp>22.0</ns3:atemp>
          </ns3:TrackPointExtension>
        </extensions>
      </trkpt>
      <trkpt lat="42.59420746006071567535400390625" lon="20.103630311787128448486328125">
        <ele>1823</ele>
        <time>2026-06-15T08:58:45.000Z</time>
        <extensions>
          <ns3:TrackPointExtension>
            <ns3:atemp>22.0</ns3:atemp>
          </ns3:TrackPointExtension>
        </extensions>
      </trkpt>
      <trkpt lat="42.5941773690283298492431640625" lon="20.10361162014305591583251953125">
        <ele>1823</ele>
        <time>2026-06-15T08:58:46.000Z</time>
        <extensions>
          <ns3:TrackPointExtension>
            <ns3:atemp>22.0</ns3:atemp>
          </ns3:TrackPointExtension>
        </extensions>
      </trkpt>
      <trkpt lat="42.59414677508175373077392578125" lon="20.1035919226706027984619140625">
        <ele>1823.199951171875</ele>
        <time>2026-06-15T08:58:47.000Z</time>
        <extensions>
          <ns3:TrackPointExtension>
            <ns3:atemp>22.0</ns3:atemp>
          </ns3:TrackPointExtension>
        </extensions>
      </trkpt>
      <trkpt lat="42.5941183604300022125244140625" lon="20.1035758294165134429931640625">
        <ele>1823.5999755859375</ele>
        <time>2026-06-15T08:58:48.000Z</time>
        <extensions>
          <ns3:TrackPointExtension>
            <ns3:atemp>22.0</ns3:atemp>
          </ns3:TrackPointExtension>
        </extensions>
      </trkpt>
      <trkpt lat="42.59408994577825069427490234375" lon="20.10355948470532894134521484375">
        <ele>1823.800048828125</ele>
        <time>2026-06-15T08:58:49.000Z</time>
        <extensions>
          <ns3:TrackPointExtension>
            <ns3:atemp>22.0</ns3:atemp>
          </ns3:TrackPointExtension>
        </extensions>
      </trkpt>
      <trkpt lat="42.59406396187841892242431640625" lon="20.10354422964155673980712890625">
        <ele>1824</ele>
        <time>2026-06-15T08:58:50.000Z</time>
        <extensions>
          <ns3:TrackPointExtension>
            <ns3:atemp>22.0</ns3:atemp>
          </ns3:TrackPointExtension>
        </extensions>
      </trkpt>
      <trkpt lat="42.5940345413982868194580078125" lon="20.10353316552937030792236328125">
        <ele>1824.199951171875</ele>
        <time>2026-06-15T08:58:51.000Z</time>
        <extensions>
          <ns3:TrackPointExtension>
            <ns3:atemp>22.0</ns3:atemp>
          </ns3:TrackPointExtension>
        </extensions>
      </trkpt>
      <trkpt lat="42.59400897659361362457275390625" lon="20.103513300418853759765625">
        <ele>1824.5999755859375</ele>
        <time>2026-06-15T08:58:52.000Z</time>
        <extensions>
          <ns3:TrackPointExtension>
            <ns3:atemp>22.0</ns3:atemp>
          </ns3:TrackPointExtension>
        </extensions>
      </trkpt>
      <trkpt lat="42.59398165158927440643310546875" lon="20.1034930162131786346435546875">
        <ele>1825</ele>
        <time>2026-06-15T08:58:53.000Z</time>
        <extensions>
          <ns3:TrackPointExtension>
            <ns3:atemp>22.0</ns3:atemp>
          </ns3:TrackPointExtension>
        </extensions>
      </trkpt>
      <trkpt lat="42.59395323693752288818359375" lon="20.10347801260650157928466796875">
        <ele>1825.199951171875</ele>
        <time>2026-06-15T08:58:54.000Z</time>
        <extensions>
          <ns3:TrackPointExtension>
            <ns3:atemp>22.0</ns3:atemp>
          </ns3:TrackPointExtension>
        </extensions>
      </trkpt>
      <trkpt lat="42.5939282588660717010498046875" lon="20.10346041060984134674072265625">
        <ele>1825.4000244140625</ele>
        <time>2026-06-15T08:58:55.000Z</time>
        <extensions>
          <ns3:TrackPointExtension>
            <ns3:atemp>22.0</ns3:atemp>
          </ns3:TrackPointExtension>
        </extensions>
      </trkpt>
      <trkpt lat="42.59390336461365222930908203125" lon="20.103443898260593414306640625">
        <ele>1825.800048828125</ele>
        <time>2026-06-15T08:58:56.000Z</time>
        <extensions>
          <ns3:TrackPointExtension>
            <ns3:atemp>22.0</ns3:atemp>
          </ns3:TrackPointExtension>
        </extensions>
      </trkpt>
      <trkpt lat="42.593877799808979034423828125" lon="20.1034256257116794586181640625">
        <ele>1826</ele>
        <time>2026-06-15T08:58:57.000Z</time>
        <extensions>
          <ns3:TrackPointExtension>
            <ns3:atemp>22.0</ns3:atemp>
          </ns3:TrackPointExtension>
        </extensions>
      </trkpt>
      <trkpt lat="42.59385055862367153167724609375" lon="20.10340861044824123382568359375">
        <ele>1826.199951171875</ele>
        <time>2026-06-15T08:58:58.000Z</time>
        <extensions>
          <ns3:TrackPointExtension>
            <ns3:atemp>22.0</ns3:atemp>
          </ns3:TrackPointExtension>
        </extensions>
      </trkpt>
      <trkpt lat="42.59382239542901515960693359375" lon="20.10339503176510334014892578125">
        <ele>1826.4000244140625</ele>
        <time>2026-06-15T08:58:59.000Z</time>
        <extensions>
          <ns3:TrackPointExtension>
            <ns3:atemp>22.0</ns3:atemp>
          </ns3:TrackPointExtension>
        </extensions>
      </trkpt>
      <trkpt lat="42.59379574097692966461181640625" lon="20.10337508283555507659912109375">
        <ele>1826.4000244140625</ele>
        <time>2026-06-15T08:59:00.000Z</time>
        <extensions>
          <ns3:TrackPointExtension>
            <ns3:atemp>22.0</ns3:atemp>
          </ns3:TrackPointExtension>
        </extensions>
      </trkpt>
      <trkpt lat="42.5937656499445438385009765625" lon="20.1033644378185272216796875">
        <ele>1826.5999755859375</ele>
        <time>2026-06-15T08:59:01.000Z</time>
        <extensions>
          <ns3:TrackPointExtension>
            <ns3:atemp>22.0</ns3:atemp>
          </ns3:TrackPointExtension>
        </extensions>
      </trkpt>
      <trkpt lat="42.593739666044712066650390625" lon="20.10334960184991359710693359375">
        <ele>1826.800048828125</ele>
        <time>2026-06-15T08:59:02.000Z</time>
        <extensions>
          <ns3:TrackPointExtension>
            <ns3:atemp>22.0</ns3:atemp>
          </ns3:TrackPointExtension>
        </extensions>
      </trkpt>
      <trkpt lat="42.593713514506816864013671875" lon="20.10333116166293621063232421875">
        <ele>1827</ele>
        <time>2026-06-15T08:59:03.000Z</time>
        <extensions>
          <ns3:TrackPointExtension>
            <ns3:atemp>22.0</ns3:atemp>
          </ns3:TrackPointExtension>
        </extensions>
      </trkpt>
      <trkpt lat="42.593686692416667938232421875" lon="20.10331288911402225494384765625">
        <ele>1827.4000244140625</ele>
        <time>2026-06-15T08:59:04.000Z</time>
        <extensions>
          <ns3:TrackPointExtension>
            <ns3:atemp>22.0</ns3:atemp>
          </ns3:TrackPointExtension>
        </extensions>
      </trkpt>
      <trkpt lat="42.5936597026884555816650390625" lon="20.103295706212520599365234375">
        <ele>1827.5999755859375</ele>
        <time>2026-06-15T08:59:05.000Z</time>
        <extensions>
          <ns3:TrackPointExtension>
            <ns3:atemp>22.0</ns3:atemp>
          </ns3:TrackPointExtension>
        </extensions>
      </trkpt>
      <trkpt lat="42.59363648481667041778564453125" lon="20.10327802039682865142822265625">
        <ele>1828</ele>
        <time>2026-06-15T08:59:06.000Z</time>
        <extensions>
          <ns3:TrackPointExtension>
            <ns3:atemp>22.0</ns3:atemp>
          </ns3:TrackPointExtension>
        </extensions>
      </trkpt>
      <trkpt lat="42.5936127640306949615478515625" lon="20.1032599993050098419189453125">
        <ele>1828.199951171875</ele>
        <time>2026-06-15T08:59:07.000Z</time>
        <extensions>
          <ns3:TrackPointExtension>
            <ns3:atemp>22.0</ns3:atemp>
          </ns3:TrackPointExtension>
        </extensions>
      </trkpt>
      <trkpt lat="42.59359323419630527496337890625" lon="20.1032415591180324554443359375">
        <ele>1828.4000244140625</ele>
        <time>2026-06-15T08:59:08.000Z</time>
        <extensions>
          <ns3:TrackPointExtension>
            <ns3:atemp>22.0</ns3:atemp>
          </ns3:TrackPointExtension>
        </extensions>
      </trkpt>
      <trkpt lat="42.59357546456158161163330078125" lon="20.10322521440684795379638671875">
        <ele>1828.800048828125</ele>
        <time>2026-06-15T08:59:09.000Z</time>
        <extensions>
          <ns3:TrackPointExtension>
            <ns3:atemp>22.0</ns3:atemp>
          </ns3:TrackPointExtension>
        </extensions>
      </trkpt>
      <trkpt lat="42.59355300106108188629150390625" lon="20.1032140664756298065185546875">
        <ele>1829</ele>
        <time>2026-06-15T08:59:10.000Z</time>
        <extensions>
          <ns3:TrackPointExtension>
            <ns3:atemp>22.0</ns3:atemp>
          </ns3:TrackPointExtension>
        </extensions>
      </trkpt>
      <trkpt lat="42.5935309566557407379150390625" lon="20.10320409201085567474365234375">
        <ele>1829.4000244140625</ele>
        <time>2026-06-15T08:59:11.000Z</time>
        <extensions>
          <ns3:TrackPointExtension>
            <ns3:atemp>22.0</ns3:atemp>
          </ns3:TrackPointExtension>
        </extensions>
      </trkpt>
      <trkpt lat="42.5935094989836215972900390625" lon="20.1031926088035106658935546875">
        <ele>1829.5999755859375</ele>
        <time>2026-06-15T08:59:12.000Z</time>
        <extensions>
          <ns3:TrackPointExtension>
            <ns3:atemp>22.0</ns3:atemp>
          </ns3:TrackPointExtension>
        </extensions>
      </trkpt>
      <trkpt lat="42.59348913095891475677490234375" lon="20.10317794047296047210693359375">
        <ele>1830</ele>
        <time>2026-06-15T08:59:13.000Z</time>
        <extensions>
          <ns3:TrackPointExtension>
            <ns3:atemp>22.0</ns3:atemp>
          </ns3:TrackPointExtension>
        </extensions>
      </trkpt>
      <trkpt lat="42.59347052313387393951416015625" lon="20.1031614281237125396728515625">
        <ele>1830.4000244140625</ele>
        <time>2026-06-15T08:59:14.000Z</time>
        <extensions>
          <ns3:TrackPointExtension>
            <ns3:atemp>22.0</ns3:atemp>
          </ns3:TrackPointExtension>
        </extensions>
      </trkpt>
      <trkpt lat="42.5934478081762790679931640625" lon="20.10314541868865489959716796875">
        <ele>1830.4000244140625</ele>
        <time>2026-06-15T08:59:15.000Z</time>
        <extensions>
          <ns3:TrackPointExtension>
            <ns3:atemp>22.0</ns3:atemp>
          </ns3:TrackPointExtension>
        </extensions>
      </trkpt>
      <trkpt lat="42.59342459030449390411376953125" lon="20.1031262241303920745849609375">
        <ele>1830.5999755859375</ele>
        <time>2026-06-15T08:59:16.000Z</time>
        <extensions>
          <ns3:TrackPointExtension>
            <ns3:atemp>22.0</ns3:atemp>
          </ns3:TrackPointExtension>
        </extensions>
      </trkpt>
      <trkpt lat="42.59339860640466213226318359375" lon="20.10311256162822246551513671875">
        <ele>1830.800048828125</ele>
        <time>2026-06-15T08:59:17.000Z</time>
        <extensions>
          <ns3:TrackPointExtension>
            <ns3:atemp>22.0</ns3:atemp>
          </ns3:TrackPointExtension>
        </extensions>
      </trkpt>
      <trkpt lat="42.59337396360933780670166015625" lon="20.10310015641152858734130859375">
        <ele>1831</ele>
        <time>2026-06-15T08:59:18.000Z</time>
        <extensions>
          <ns3:TrackPointExtension>
            <ns3:atemp>22.0</ns3:atemp>
          </ns3:TrackPointExtension>
        </extensions>
      </trkpt>
      <trkpt lat="42.59335108101367950439453125" lon="20.10309462435543537139892578125">
        <ele>1831.199951171875</ele>
        <time>2026-06-15T08:59:19.000Z</time>
        <extensions>
          <ns3:TrackPointExtension>
            <ns3:atemp>22.0</ns3:atemp>
          </ns3:TrackPointExtension>
        </extensions>
      </trkpt>
      <trkpt lat="42.59332350455224514007568359375" lon="20.10308490134775638580322265625">
        <ele>1831.4000244140625</ele>
        <time>2026-06-15T08:59:20.000Z</time>
        <extensions>
          <ns3:TrackPointExtension>
            <ns3:atemp>22.0</ns3:atemp>
          </ns3:TrackPointExtension>
        </extensions>
      </trkpt>
      <trkpt lat="42.59330011904239654541015625" lon="20.103066377341747283935546875">
        <ele>1831.800048828125</ele>
        <time>2026-06-15T08:59:21.000Z</time>
        <extensions>
          <ns3:TrackPointExtension>
            <ns3:atemp>22.0</ns3:atemp>
          </ns3:TrackPointExtension>
        </extensions>
      </trkpt>
      <trkpt lat="42.5932731293141841888427734375" lon="20.1030531339347362518310546875">
        <ele>1832</ele>
        <time>2026-06-15T08:59:22.000Z</time>
        <extensions>
          <ns3:TrackPointExtension>
            <ns3:atemp>22.0</ns3:atemp>
          </ns3:TrackPointExtension>
        </extensions>
      </trkpt>
      <trkpt lat="42.59324957616627216339111328125" lon="20.103040225803852081298828125">
        <ele>1832.4000244140625</ele>
        <time>2026-06-15T08:59:23.000Z</time>
        <extensions>
          <ns3:TrackPointExtension>
            <ns3:atemp>22.0</ns3:atemp>
          </ns3:TrackPointExtension>
        </extensions>
      </trkpt>
      <trkpt lat="42.59322292171418666839599609375" lon="20.1030269823968410491943359375">
        <ele>1832.5999755859375</ele>
        <time>2026-06-15T08:59:24.000Z</time>
        <extensions>
          <ns3:TrackPointExtension>
            <ns3:atemp>22.0</ns3:atemp>
          </ns3:TrackPointExtension>
        </extensions>
      </trkpt>
      <trkpt lat="42.59319819509983062744140625" lon="20.103014074265956878662109375">
        <ele>1833</ele>
        <time>2026-06-15T08:59:25.000Z</time>
        <extensions>
          <ns3:TrackPointExtension>
            <ns3:atemp>22.0</ns3:atemp>
          </ns3:TrackPointExtension>
        </extensions>
      </trkpt>
      <trkpt lat="42.593173049390316009521484375" lon="20.1030008308589458465576171875">
        <ele>1833.4000244140625</ele>
        <time>2026-06-15T08:59:26.000Z</time>
        <extensions>
          <ns3:TrackPointExtension>
            <ns3:atemp>22.0</ns3:atemp>
          </ns3:TrackPointExtension>
        </extensions>
      </trkpt>
      <trkpt lat="42.59314899332821369171142578125" lon="20.1029864139854907989501953125">
        <ele>1833.5999755859375</ele>
        <time>2026-06-15T08:59:27.000Z</time>
        <extensions>
          <ns3:TrackPointExtension>
            <ns3:atemp>22.0</ns3:atemp>
          </ns3:TrackPointExtension>
        </extensions>
      </trkpt>
      <trkpt lat="42.5931242667138576507568359375" lon="20.10297861881554126739501953125">
        <ele>1834</ele>
        <time>2026-06-15T08:59:28.000Z</time>
        <extensions>
          <ns3:TrackPointExtension>
            <ns3:atemp>22.0</ns3:atemp>
          </ns3:TrackPointExtension>
        </extensions>
      </trkpt>
      <trkpt lat="42.59309954009950160980224609375" lon="20.10296638123691082000732421875">
        <ele>1834.199951171875</ele>
        <time>2026-06-15T08:59:29.000Z</time>
        <extensions>
          <ns3:TrackPointExtension>
            <ns3:atemp>22.0</ns3:atemp>
          </ns3:TrackPointExtension>
        </extensions>
      </trkpt>
      <trkpt lat="42.593071460723876953125" lon="20.1029451750218868255615234375">
        <ele>1834.4000244140625</ele>
        <time>2026-06-15T08:59:30.000Z</time>
        <extensions>
          <ns3:TrackPointExtension>
            <ns3:atemp>22.0</ns3:atemp>
          </ns3:TrackPointExtension>
        </extensions>
      </trkpt>
      <trkpt lat="42.59304262697696685791015625" lon="20.10292832739651203155517578125">
        <ele>1834.800048828125</ele>
        <time>2026-06-15T08:59:31.000Z</time>
        <extensions>
          <ns3:TrackPointExtension>
            <ns3:atemp>22.0</ns3:atemp>
          </ns3:TrackPointExtension>
        </extensions>
      </trkpt>
      <trkpt lat="42.59301446378231048583984375" lon="20.1029116474092006683349609375">
        <ele>1835</ele>
        <time>2026-06-15T08:59:32.000Z</time>
        <extensions>
          <ns3:TrackPointExtension>
            <ns3:atemp>22.0</ns3:atemp>
          </ns3:TrackPointExtension>
        </extensions>
      </trkpt>
      <trkpt lat="42.59299158118665218353271484375" lon="20.10288625024259090423583984375">
        <ele>1835.4000244140625</ele>
        <time>2026-06-15T08:59:33.000Z</time>
        <extensions>
          <ns3:TrackPointExtension>
            <ns3:atemp>22.0</ns3:atemp>
          </ns3:TrackPointExtension>
        </extensions>
      </trkpt>
      <trkpt lat="42.5929693691432476043701171875" lon="20.102859176695346832275390625">
        <ele>1835.5999755859375</ele>
        <time>2026-06-15T08:59:34.000Z</time>
        <extensions>
          <ns3:TrackPointExtension>
            <ns3:atemp>22.0</ns3:atemp>
          </ns3:TrackPointExtension>
        </extensions>
      </trkpt>
      <trkpt lat="42.5929452292621135711669921875" lon="20.10283763520419597625732421875">
        <ele>1836</ele>
        <time>2026-06-15T08:59:35.000Z</time>
        <extensions>
          <ns3:TrackPointExtension>
            <ns3:atemp>22.0</ns3:atemp>
          </ns3:TrackPointExtension>
        </extensions>
      </trkpt>
      <trkpt lat="42.59292033500969409942626953125" lon="20.10282807983458042144775390625">
        <ele>1836.4000244140625</ele>
        <time>2026-06-15T08:59:36.000Z</time>
        <extensions>
          <ns3:TrackPointExtension>
            <ns3:atemp>22.0</ns3:atemp>
          </ns3:TrackPointExtension>
        </extensions>
      </trkpt>
      <trkpt lat="42.592894099652767181396484375" lon="20.10282238014042377471923828125">
        <ele>1836.5999755859375</ele>
        <time>2026-06-15T08:59:37.000Z</time>
        <extensions>
          <ns3:TrackPointExtension>
            <ns3:atemp>22.0</ns3:atemp>
          </ns3:TrackPointExtension>
        </extensions>
      </trkpt>
      <trkpt lat="42.592864930629730224609375" lon="20.10281148366630077362060546875">
        <ele>1836.800048828125</ele>
        <time>2026-06-15T08:59:38.000Z</time>
        <extensions>
          <ns3:TrackPointExtension>
            <ns3:atemp>22.0</ns3:atemp>
          </ns3:TrackPointExtension>
        </extensions>
      </trkpt>
      <trkpt lat="42.59283618070185184478759765625" lon="20.10279589332640171051025390625">
        <ele>1837.199951171875</ele>
        <time>2026-06-15T08:59:39.000Z</time>
        <extensions>
          <ns3:TrackPointExtension>
            <ns3:atemp>22.0</ns3:atemp>
          </ns3:TrackPointExtension>
        </extensions>
      </trkpt>
      <trkpt lat="42.59280684404075145721435546875" lon="20.10278172791004180908203125">
        <ele>1837.4000244140625</ele>
        <time>2026-06-15T08:59:40.000Z</time>
        <extensions>
          <ns3:TrackPointExtension>
            <ns3:atemp>22.0</ns3:atemp>
          </ns3:TrackPointExtension>
        </extensions>
      </trkpt>
      <trkpt lat="42.592779435217380523681640625" lon="20.10276823304593563079833984375">
        <ele>1837.800048828125</ele>
        <time>2026-06-15T08:59:41.000Z</time>
        <extensions>
          <ns3:TrackPointExtension>
            <ns3:atemp>22.0</ns3:atemp>
          </ns3:TrackPointExtension>
        </extensions>
      </trkpt>
      <trkpt lat="42.59275085292756557464599609375" lon="20.1027540676295757293701171875">
        <ele>1838.199951171875</ele>
        <time>2026-06-15T08:59:42.000Z</time>
        <extensions>
          <ns3:TrackPointExtension>
            <ns3:atemp>22.0</ns3:atemp>
          </ns3:TrackPointExtension>
        </extensions>
      </trkpt>
      <trkpt lat="42.59272151626646518707275390625" lon="20.10274141095578670501708984375">
        <ele>1838.5999755859375</ele>
        <time>2026-06-15T08:59:43.000Z</time>
        <extensions>
          <ns3:TrackPointExtension>
            <ns3:atemp>22.0</ns3:atemp>
          </ns3:TrackPointExtension>
        </extensions>
      </trkpt>
      <trkpt lat="42.5926920957863330841064453125" lon="20.1027262397110462188720703125">
        <ele>1839</ele>
        <time>2026-06-15T08:59:44.000Z</time>
        <extensions>
          <ns3:TrackPointExtension>
            <ns3:atemp>22.0</ns3:atemp>
          </ns3:TrackPointExtension>
        </extensions>
      </trkpt>
      <trkpt lat="42.59266921319067478179931640625" lon="20.10270796716213226318359375">
        <ele>1839.4000244140625</ele>
        <time>2026-06-15T08:59:45.000Z</time>
        <extensions>
          <ns3:TrackPointExtension>
            <ns3:atemp>22.0</ns3:atemp>
          </ns3:TrackPointExtension>
        </extensions>
      </trkpt>
      <trkpt lat="42.59264431893825531005859375" lon="20.102694891393184661865234375">
        <ele>1839.800048828125</ele>
        <time>2026-06-15T08:59:46.000Z</time>
        <extensions>
          <ns3:TrackPointExtension>
            <ns3:atemp>22.0</ns3:atemp>
          </ns3:TrackPointExtension>
        </extensions>
      </trkpt>
      <trkpt lat="42.59261741302907466888427734375" lon="20.102682150900363922119140625">
        <ele>1840</ele>
        <time>2026-06-15T08:59:47.000Z</time>
        <extensions>
          <ns3:TrackPointExtension>
            <ns3:atemp>22.0</ns3:atemp>
          </ns3:TrackPointExtension>
        </extensions>
      </trkpt>
      <trkpt lat="42.59258841164410114288330078125" lon="20.102668739855289459228515625">
        <ele>1840.4000244140625</ele>
        <time>2026-06-15T08:59:48.000Z</time>
        <extensions>
          <ns3:TrackPointExtension>
            <ns3:atemp>22.0</ns3:atemp>
          </ns3:TrackPointExtension>
        </extensions>
      </trkpt>
      <trkpt lat="42.59256242774426937103271484375" lon="20.10265591554343700408935546875">
        <ele>1840.800048828125</ele>
        <time>2026-06-15T08:59:49.000Z</time>
        <extensions>
          <ns3:TrackPointExtension>
            <ns3:atemp>22.0</ns3:atemp>
          </ns3:TrackPointExtension>
        </extensions>
      </trkpt>
      <trkpt lat="42.592532001435756683349609375" lon="20.10265189222991466522216796875">
        <ele>1841</ele>
        <time>2026-06-15T08:59:50.000Z</time>
        <extensions>
          <ns3:TrackPointExtension>
            <ns3:atemp>22.0</ns3:atemp>
          </ns3:TrackPointExtension>
        </extensions>
      </trkpt>
      <trkpt lat="42.59249947965145111083984375" lon="20.102650634944438934326171875">
        <ele>1841.199951171875</ele>
        <time>2026-06-15T08:59:51.000Z</time>
        <extensions>
          <ns3:TrackPointExtension>
            <ns3:atemp>22.0</ns3:atemp>
          </ns3:TrackPointExtension>
        </extensions>
      </trkpt>
      <trkpt lat="42.59247123263776302337646484375" lon="20.1026390679180622100830078125">
        <ele>1841.800048828125</ele>
        <time>2026-06-15T08:59:52.000Z</time>
        <extensions>
          <ns3:TrackPointExtension>
            <ns3:atemp>22.0</ns3:atemp>
          </ns3:TrackPointExtension>
        </extensions>
      </trkpt>
      <trkpt lat="42.59244290180504322052001953125" lon="20.10262657888233661651611328125">
        <ele>1842.199951171875</ele>
        <time>2026-06-15T08:59:53.000Z</time>
        <extensions>
          <ns3:TrackPointExtension>
            <ns3:atemp>22.0</ns3:atemp>
          </ns3:TrackPointExtension>
        </extensions>
      </trkpt>
      <trkpt lat="42.592414654791355133056640625" lon="20.10262054391205310821533203125">
        <ele>1842.5999755859375</ele>
        <time>2026-06-15T08:59:54.000Z</time>
        <extensions>
          <ns3:TrackPointExtension>
            <ns3:atemp>22.0</ns3:atemp>
          </ns3:TrackPointExtension>
        </extensions>
      </trkpt>
      <trkpt lat="42.5923861563205718994140625" lon="20.1026075519621372222900390625">
        <ele>1843.199951171875</ele>
        <time>2026-06-15T08:59:55.000Z</time>
        <extensions>
          <ns3:TrackPointExtension>
            <ns3:atemp>22.0</ns3:atemp>
          </ns3:TrackPointExtension>
        </extensions>
      </trkpt>
      <trkpt lat="42.59235707111656665802001953125" lon="20.1025914587080478668212890625">
        <ele>1843.800048828125</ele>
        <time>2026-06-15T08:59:56.000Z</time>
        <extensions>
          <ns3:TrackPointExtension>
            <ns3:atemp>22.0</ns3:atemp>
          </ns3:TrackPointExtension>
        </extensions>
      </trkpt>
      <trkpt lat="42.59232781827449798583984375" lon="20.1025746949017047882080078125">
        <ele>1844.4000244140625</ele>
        <time>2026-06-15T08:59:57.000Z</time>
        <extensions>
          <ns3:TrackPointExtension>
            <ns3:atemp>22.0</ns3:atemp>
          </ns3:TrackPointExtension>
        </extensions>
      </trkpt>
      <trkpt lat="42.592299990355968475341796875" lon="20.1025592721998691558837890625">
        <ele>1844.800048828125</ele>
        <time>2026-06-15T08:59:58.000Z</time>
        <extensions>
          <ns3:TrackPointExtension>
            <ns3:atemp>22.0</ns3:atemp>
          </ns3:TrackPointExtension>
        </extensions>
      </trkpt>
      <trkpt lat="42.59227056987583637237548828125" lon="20.10254435241222381591796875">
        <ele>1845.199951171875</ele>
        <time>2026-06-15T08:59:59.000Z</time>
        <extensions>
          <ns3:TrackPointExtension>
            <ns3:atemp>22.0</ns3:atemp>
          </ns3:TrackPointExtension>
        </extensions>
      </trkpt>
      <trkpt lat="42.5922428257763385772705078125" lon="20.1025304384529590606689453125">
        <ele>1845.4000244140625</ele>
        <time>2026-06-15T09:00:00.000Z</time>
        <extensions>
          <ns3:TrackPointExtension>
            <ns3:atemp>22.0</ns3:atemp>
          </ns3:TrackPointExtension>
        </extensions>
      </trkpt>
      <trkpt lat="42.59221726097166538238525390625" lon="20.1025168597698211669921875">
        <ele>1846</ele>
        <time>2026-06-15T09:00:01.000Z</time>
        <extensions>
          <ns3:TrackPointExtension>
            <ns3:atemp>22.0</ns3:atemp>
          </ns3:TrackPointExtension>
        </extensions>
      </trkpt>
      <trkpt lat="42.59219580329954624176025390625" lon="20.10249950923025608062744140625">
        <ele>1846.4000244140625</ele>
        <time>2026-06-15T09:00:02.000Z</time>
        <extensions>
          <ns3:TrackPointExtension>
            <ns3:atemp>22.0</ns3:atemp>
          </ns3:TrackPointExtension>
        </extensions>
      </trkpt>
      <trkpt lat="42.59217560291290283203125" lon="20.10248157195746898651123046875">
        <ele>1846.5999755859375</ele>
        <time>2026-06-15T09:00:03.000Z</time>
        <extensions>
          <ns3:TrackPointExtension>
            <ns3:atemp>22.0</ns3:atemp>
          </ns3:TrackPointExtension>
        </extensions>
      </trkpt>
      <trkpt lat="42.59215288795530796051025390625" lon="20.1024637185037136077880859375">
        <ele>1847</ele>
        <time>2026-06-15T09:00:04.000Z</time>
        <extensions>
          <ns3:TrackPointExtension>
            <ns3:atemp>22.0</ns3:atemp>
          </ns3:TrackPointExtension>
        </extensions>
      </trkpt>
      <trkpt lat="42.59213310666382312774658203125" lon="20.10244133882224559783935546875">
        <ele>1847.4000244140625</ele>
        <time>2026-06-15T09:00:05.000Z</time>
        <extensions>
          <ns3:TrackPointExtension>
            <ns3:atemp>22.0</ns3:atemp>
          </ns3:TrackPointExtension>
        </extensions>
      </trkpt>
      <trkpt lat="42.59211449883878231048583984375" lon="20.10241820476949214935302734375">
        <ele>1847.800048828125</ele>
        <time>2026-06-15T09:00:06.000Z</time>
        <extensions>
          <ns3:TrackPointExtension>
            <ns3:atemp>22.0</ns3:atemp>
          </ns3:TrackPointExtension>
        </extensions>
      </trkpt>
      <trkpt lat="42.5920999981462955474853515625" lon="20.10239339433610439300537109375">
        <ele>1848</ele>
        <time>2026-06-15T09:00:07.000Z</time>
        <extensions>
          <ns3:TrackPointExtension>
            <ns3:atemp>22.0</ns3:atemp>
          </ns3:TrackPointExtension>
        </extensions>
      </trkpt>
      <trkpt lat="42.59208281524479389190673828125" lon="20.10236908681690692901611328125">
        <ele>1848.4000244140625</ele>
        <time>2026-06-15T09:00:08.000Z</time>
        <extensions>
          <ns3:TrackPointExtension>
            <ns3:atemp>22.0</ns3:atemp>
          </ns3:TrackPointExtension>
        </extensions>
      </trkpt>
      <trkpt lat="42.59206437505781650543212890625" lon="20.1023416779935359954833984375">
        <ele>1848.5999755859375</ele>
        <time>2026-06-15T09:00:09.000Z</time>
        <extensions>
          <ns3:TrackPointExtension>
            <ns3:atemp>22.0</ns3:atemp>
          </ns3:TrackPointExtension>
        </extensions>
      </trkpt>
      <trkpt lat="42.59205012582242488861083984375" lon="20.10230823419988155364990234375">
        <ele>1849</ele>
        <time>2026-06-15T09:00:10.000Z</time>
        <extensions>
          <ns3:TrackPointExtension>
            <ns3:atemp>22.0</ns3:atemp>
          </ns3:TrackPointExtension>
        </extensions>
      </trkpt>
      <trkpt lat="42.592035792768001556396484375" lon="20.10227839462459087371826171875">
        <ele>1849.199951171875</ele>
        <time>2026-06-15T09:00:11.000Z</time>
        <extensions>
          <ns3:TrackPointExtension>
            <ns3:atemp>22.0</ns3:atemp>
          </ns3:TrackPointExtension>
        </extensions>
      </trkpt>
      <trkpt lat="42.59202715940773487091064453125" lon="20.1022474654018878936767578125">
        <ele>1849.4000244140625</ele>
        <time>2026-06-15T09:00:12.000Z</time>
        <extensions>
          <ns3:TrackPointExtension>
            <ns3:atemp>22.0</ns3:atemp>
          </ns3:TrackPointExtension>
        </extensions>
      </trkpt>
      <trkpt lat="42.5920165143907070159912109375" lon="20.10221016593277454376220703125">
        <ele>1849.800048828125</ele>
        <time>2026-06-15T09:00:13.000Z</time>
        <extensions>
          <ns3:TrackPointExtension>
            <ns3:atemp>22.0</ns3:atemp>
          </ns3:TrackPointExtension>
        </extensions>
      </trkpt>
      <trkpt lat="42.592004276812076568603515625" lon="20.102180577814579010009765625">
        <ele>1850.199951171875</ele>
        <time>2026-06-15T09:00:14.000Z</time>
        <extensions>
          <ns3:TrackPointExtension>
            <ns3:atemp>22.0</ns3:atemp>
          </ns3:TrackPointExtension>
        </extensions>
      </trkpt>
      <trkpt lat="42.591992877423763275146484375" lon="20.10214411653578281402587890625">
        <ele>1850.4000244140625</ele>
        <time>2026-06-15T09:00:15.000Z</time>
        <extensions>
          <ns3:TrackPointExtension>
            <ns3:atemp>22.0</ns3:atemp>
          </ns3:TrackPointExtension>
        </extensions>
      </trkpt>
      <trkpt lat="42.5919843278825283050537109375" lon="20.102106817066669464111328125">
        <ele>1850.5999755859375</ele>
        <time>2026-06-15T09:00:16.000Z</time>
        <extensions>
          <ns3:TrackPointExtension>
            <ns3:atemp>22.0</ns3:atemp>
          </ns3:TrackPointExtension>
        </extensions>
      </trkpt>
      <trkpt lat="42.59197711944580078125" lon="20.102070271968841552734375">
        <ele>1850.800048828125</ele>
        <time>2026-06-15T09:00:17.000Z</time>
        <extensions>
          <ns3:TrackPointExtension>
            <ns3:atemp>22.0</ns3:atemp>
          </ns3:TrackPointExtension>
        </extensions>
      </trkpt>
      <trkpt lat="42.59197368286550045013427734375" lon="20.102032721042633056640625">
        <ele>1851.199951171875</ele>
        <time>2026-06-15T09:00:18.000Z</time>
        <extensions>
          <ns3:TrackPointExtension>
            <ns3:atemp>22.0</ns3:atemp>
          </ns3:TrackPointExtension>
        </extensions>
      </trkpt>
      <trkpt lat="42.5919739343225955963134765625" lon="20.10199240408837795257568359375">
        <ele>1851.4000244140625</ele>
        <time>2026-06-15T09:00:19.000Z</time>
        <extensions>
          <ns3:TrackPointExtension>
            <ns3:atemp>22.0</ns3:atemp>
          </ns3:TrackPointExtension>
        </extensions>
      </trkpt>
      <trkpt lat="42.5919762812554836273193359375" lon="20.10195024311542510986328125">
        <ele>1851.5999755859375</ele>
        <time>2026-06-15T09:00:20.000Z</time>
        <extensions>
          <ns3:TrackPointExtension>
            <ns3:atemp>22.0</ns3:atemp>
          </ns3:TrackPointExtension>
        </extensions>
      </trkpt>
      <trkpt lat="42.59197418577969074249267578125" lon="20.101908333599567413330078125">
        <ele>1851.800048828125</ele>
        <time>2026-06-15T09:00:21.000Z</time>
        <extensions>
          <ns3:TrackPointExtension>
            <ns3:atemp>22.0</ns3:atemp>
          </ns3:TrackPointExtension>
        </extensions>
      </trkpt>
      <trkpt lat="42.5919712521135807037353515625" lon="20.1018655858933925628662109375">
        <ele>1852</ele>
        <time>2026-06-15T09:00:22.000Z</time>
        <extensions>
          <ns3:TrackPointExtension>
            <ns3:atemp>22.0</ns3:atemp>
          </ns3:TrackPointExtension>
        </extensions>
      </trkpt>
      <trkpt lat="42.59196580387651920318603515625" lon="20.10182392783463001251220703125">
        <ele>1852.4000244140625</ele>
        <time>2026-06-15T09:00:23.000Z</time>
        <extensions>
          <ns3:TrackPointExtension>
            <ns3:atemp>22.0</ns3:atemp>
          </ns3:TrackPointExtension>
        </extensions>
      </trkpt>
      <trkpt lat="42.59195742197334766387939453125" lon="20.10178470052778720855712890625">
        <ele>1852.5999755859375</ele>
        <time>2026-06-15T09:00:24.000Z</time>
        <extensions>
          <ns3:TrackPointExtension>
            <ns3:atemp>22.0</ns3:atemp>
          </ns3:TrackPointExtension>
        </extensions>
      </trkpt>
      <trkpt lat="42.59195096790790557861328125" lon="20.10174262337386608123779296875">
        <ele>1852.800048828125</ele>
        <time>2026-06-15T09:00:25.000Z</time>
        <extensions>
          <ns3:TrackPointExtension>
            <ns3:atemp>22.0</ns3:atemp>
          </ns3:TrackPointExtension>
        </extensions>
      </trkpt>
      <trkpt lat="42.5919451005756855010986328125" lon="20.10169534943997859954833984375">
        <ele>1853</ele>
        <time>2026-06-15T09:00:26.000Z</time>
        <extensions>
          <ns3:TrackPointExtension>
            <ns3:atemp>22.0</ns3:atemp>
          </ns3:TrackPointExtension>
        </extensions>
      </trkpt>
      <trkpt lat="42.59193898178637027740478515625" lon="20.1016483269631862640380859375">
        <ele>1853.199951171875</ele>
        <time>2026-06-15T09:00:27.000Z</time>
        <extensions>
          <ns3:TrackPointExtension>
            <ns3:atemp>22.0</ns3:atemp>
          </ns3:TrackPointExtension>
        </extensions>
      </trkpt>
      <trkpt lat="42.5919333659112453460693359375" lon="20.10160448960959911346435546875">
        <ele>1853.4000244140625</ele>
        <time>2026-06-15T09:00:28.000Z</time>
        <extensions>
          <ns3:TrackPointExtension>
            <ns3:atemp>22.0</ns3:atemp>
          </ns3:TrackPointExtension>
        </extensions>
      </trkpt>
      <trkpt lat="42.5919236429035663604736328125" lon="20.10156475938856601715087890625">
        <ele>1853.4000244140625</ele>
        <time>2026-06-15T09:00:29.000Z</time>
        <extensions>
          <ns3:TrackPointExtension>
            <ns3:atemp>22.0</ns3:atemp>
          </ns3:TrackPointExtension>
        </extensions>
      </trkpt>
      <trkpt lat="42.5919132493436336517333984375" lon="20.10152704082429409027099609375">
        <ele>1853.5999755859375</ele>
        <time>2026-06-15T09:00:30.000Z</time>
        <extensions>
          <ns3:TrackPointExtension>
            <ns3:atemp>22.0</ns3:atemp>
          </ns3:TrackPointExtension>
        </extensions>
      </trkpt>
      <trkpt lat="42.59190763346850872039794921875" lon="20.10148731060326099395751953125">
        <ele>1853.5999755859375</ele>
        <time>2026-06-15T09:00:31.000Z</time>
        <extensions>
          <ns3:TrackPointExtension>
            <ns3:atemp>22.0</ns3:atemp>
          </ns3:TrackPointExtension>
        </extensions>
      </trkpt>
      <trkpt lat="42.59190729819238185882568359375" lon="20.10144439525902271270751953125">
        <ele>1853.800048828125</ele>
        <time>2026-06-15T09:00:32.000Z</time>
        <extensions>
          <ns3:TrackPointExtension>
            <ns3:atemp>22.0</ns3:atemp>
          </ns3:TrackPointExtension>
        </extensions>
      </trkpt>
      <trkpt lat="42.591902352869510650634765625" lon="20.10140240192413330078125">
        <ele>1854</ele>
        <time>2026-06-15T09:00:33.000Z</time>
        <extensions>
          <ns3:TrackPointExtension>
            <ns3:atemp>22.0</ns3:atemp>
          </ns3:TrackPointExtension>
        </extensions>
      </trkpt>
      <trkpt lat="42.59189598262310028076171875" lon="20.1013603247702121734619140625">
        <ele>1854.199951171875</ele>
        <time>2026-06-15T09:00:34.000Z</time>
        <extensions>
          <ns3:TrackPointExtension>
            <ns3:atemp>22.0</ns3:atemp>
          </ns3:TrackPointExtension>
        </extensions>
      </trkpt>
      <trkpt lat="42.59188969619572162628173828125" lon="20.1013143919408321380615234375">
        <ele>1854.199951171875</ele>
        <time>2026-06-15T09:00:35.000Z</time>
        <extensions>
          <ns3:TrackPointExtension>
            <ns3:atemp>22.0</ns3:atemp>
          </ns3:TrackPointExtension>
        </extensions>
      </trkpt>
      <trkpt lat="42.59188382886350154876708984375" lon="20.10126896202564239501953125">
        <ele>1854.4000244140625</ele>
        <time>2026-06-15T09:00:36.000Z</time>
        <extensions>
          <ns3:TrackPointExtension>
            <ns3:atemp>22.0</ns3:atemp>
          </ns3:TrackPointExtension>
        </extensions>
      </trkpt>
      <trkpt lat="42.5918777100741863250732421875" lon="20.10122646577656269073486328125">
        <ele>1854.4000244140625</ele>
        <time>2026-06-15T09:00:37.000Z</time>
        <extensions>
          <ns3:TrackPointExtension>
            <ns3:atemp>22.0</ns3:atemp>
          </ns3:TrackPointExtension>
        </extensions>
      </trkpt>
      <trkpt lat="42.591867148876190185546875" lon="20.101184807717800140380859375">
        <ele>1854.5999755859375</ele>
        <time>2026-06-15T09:00:38.000Z</time>
        <extensions>
          <ns3:TrackPointExtension>
            <ns3:atemp>22.0</ns3:atemp>
          </ns3:TrackPointExtension>
        </extensions>
      </trkpt>
      <trkpt lat="42.591857425868511199951171875" lon="20.10114289820194244384765625">
        <ele>1855</ele>
        <time>2026-06-15T09:00:39.000Z</time>
        <extensions>
          <ns3:TrackPointExtension>
            <ns3:atemp>22.0</ns3:atemp>
          </ns3:TrackPointExtension>
        </extensions>
      </trkpt>
      <trkpt lat="42.59184912778437137603759765625" lon="20.1011033356189727783203125">
        <ele>1855.199951171875</ele>
        <time>2026-06-15T09:00:40.000Z</time>
        <extensions>
          <ns3:TrackPointExtension>
            <ns3:atemp>22.0</ns3:atemp>
          </ns3:TrackPointExtension>
        </extensions>
      </trkpt>
      <trkpt lat="42.591846026480197906494140625" lon="20.101061426103115081787109375">
        <ele>1855.5999755859375</ele>
        <time>2026-06-15T09:00:41.000Z</time>
        <extensions>
          <ns3:TrackPointExtension>
            <ns3:atemp>22.0</ns3:atemp>
          </ns3:TrackPointExtension>
        </extensions>
      </trkpt>
      <trkpt lat="42.591851390898227691650390625" lon="20.101027227938175201416015625">
        <ele>1855.800048828125</ele>
        <time>2026-06-15T09:00:42.000Z</time>
        <extensions>
          <ns3:TrackPointExtension>
            <ns3:atemp>22.0</ns3:atemp>
          </ns3:TrackPointExtension>
        </extensions>
      </trkpt>
      <trkpt lat="42.591862119734287261962890625" lon="20.10101146996021270751953125">
        <ele>1856</ele>
        <time>2026-06-15T09:00:43.000Z</time>
        <extensions>
          <ns3:TrackPointExtension>
            <ns3:atemp>22.0</ns3:atemp>
          </ns3:TrackPointExtension>
        </extensions>
      </trkpt>
      <trkpt lat="42.5918733514845371246337890625" lon="20.10099462233483791351318359375">
        <ele>1856.199951171875</ele>
        <time>2026-06-15T09:00:44.000Z</time>
        <extensions>
          <ns3:TrackPointExtension>
            <ns3:atemp>22.0</ns3:atemp>
          </ns3:TrackPointExtension>
        </extensions>
      </trkpt>
      <trkpt lat="42.59187745861709117889404296875" lon="20.100987665355205535888671875">
        <ele>1856.5999755859375</ele>
        <time>2026-06-15T09:00:45.000Z</time>
        <extensions>
          <ns3:TrackPointExtension>
            <ns3:atemp>22.0</ns3:atemp>
          </ns3:TrackPointExtension>
        </extensions>
      </trkpt>
      <trkpt lat="42.59187444113194942474365234375" lon="20.10098406113684177398681640625">
        <ele>1856.800048828125</ele>
        <time>2026-06-15T09:00:46.000Z</time>
        <extensions>
          <ns3:TrackPointExtension>
            <ns3:atemp>22.0</ns3:atemp>
          </ns3:TrackPointExtension>
        </extensions>
      </trkpt>
      <trkpt lat="42.59187452495098114013671875" lon="20.10098406113684177398681640625">
        <ele>1857</ele>
        <time>2026-06-15T09:00:47.000Z</time>
        <extensions>
          <ns3:TrackPointExtension>
            <ns3:atemp>22.0</ns3:atemp>
          </ns3:TrackPointExtension>
        </extensions>
      </trkpt>
      <trkpt lat="42.5918746925890445709228515625" lon="20.10098397731781005859375">
        <ele>1857</ele>
        <time>2026-06-15T09:00:48.000Z</time>
        <extensions>
          <ns3:TrackPointExtension>
            <ns3:atemp>22.0</ns3:atemp>
          </ns3:TrackPointExtension>
        </extensions>
      </trkpt>
      <trkpt lat="42.5918857567012310028076171875" lon="20.10098406113684177398681640625">
        <ele>1857</ele>
        <time>2026-06-15T09:00:49.000Z</time>
        <extensions>
          <ns3:TrackPointExtension>
            <ns3:atemp>22.0</ns3:atemp>
          </ns3:TrackPointExtension>
        </extensions>
      </trkpt>
      <trkpt lat="42.5918891094624996185302734375" lon="20.1009774394333362579345703125">
        <ele>1856.800048828125</ele>
        <time>2026-06-15T09:00:50.000Z</time>
        <extensions>
          <ns3:TrackPointExtension>
            <ns3:atemp>22.0</ns3:atemp>
          </ns3:TrackPointExtension>
        </extensions>
      </trkpt>
      <trkpt lat="42.59189330041408538818359375" lon="20.1009781099855899810791015625">
        <ele>1856.800048828125</ele>
        <time>2026-06-15T09:00:51.000Z</time>
        <extensions>
          <ns3:TrackPointExtension>
            <ns3:atemp>22.0</ns3:atemp>
          </ns3:TrackPointExtension>
        </extensions>
      </trkpt>
      <trkpt lat="42.59189330041408538818359375" lon="20.10097819380462169647216796875">
        <ele>1856.5999755859375</ele>
        <time>2026-06-15T09:00:52.000Z</time>
        <extensions>
          <ns3:TrackPointExtension>
            <ns3:atemp>22.0</ns3:atemp>
          </ns3:TrackPointExtension>
        </extensions>
      </trkpt>
      <trkpt lat="42.59189330041408538818359375" lon="20.10097819380462169647216796875">
        <ele>1856.800048828125</ele>
        <time>2026-06-15T09:00:53.000Z</time>
        <extensions>
          <ns3:TrackPointExtension>
            <ns3:atemp>22.0</ns3:atemp>
          </ns3:TrackPointExtension>
        </extensions>
      </trkpt>
      <trkpt lat="42.59189330041408538818359375" lon="20.10097819380462169647216796875">
        <ele>1856.800048828125</ele>
        <time>2026-06-15T09:00:54.000Z</time>
        <extensions>
          <ns3:TrackPointExtension>
            <ns3:atemp>22.0</ns3:atemp>
          </ns3:TrackPointExtension>
        </extensions>
      </trkpt>
      <trkpt lat="42.59189330041408538818359375" lon="20.10097819380462169647216796875">
        <ele>1856.800048828125</ele>
        <time>2026-06-15T09:00:55.000Z</time>
        <extensions>
          <ns3:TrackPointExtension>
            <ns3:atemp>22.0</ns3:atemp>
          </ns3:TrackPointExtension>
        </extensions>
      </trkpt>
      <trkpt lat="42.59189330041408538818359375" lon="20.10097819380462169647216796875">
        <ele>1856.5999755859375</ele>
        <time>2026-06-15T09:00:56.000Z</time>
        <extensions>
          <ns3:TrackPointExtension>
            <ns3:atemp>22.0</ns3:atemp>
          </ns3:TrackPointExtension>
        </extensions>
      </trkpt>
      <trkpt lat="42.59189330041408538818359375" lon="20.10097819380462169647216796875">
        <ele>1856.5999755859375</ele>
        <time>2026-06-15T09:00:57.000Z</time>
        <extensions>
          <ns3:TrackPointExtension>
            <ns3:atemp>22.0</ns3:atemp>
          </ns3:TrackPointExtension>
        </extensions>
      </trkpt>
      <trkpt lat="42.59189330041408538818359375" lon="20.10097819380462169647216796875">
        <ele>1856.5999755859375</ele>
        <time>2026-06-15T09:00:58.000Z</time>
        <extensions>
          <ns3:TrackPointExtension>
            <ns3:atemp>22.0</ns3:atemp>
          </ns3:TrackPointExtension>
        </extensions>
      </trkpt>
      <trkpt lat="42.59189330041408538818359375" lon="20.10097819380462169647216796875">
        <ele>1856.5999755859375</ele>
        <time>2026-06-15T09:00:59.000Z</time>
        <extensions>
          <ns3:TrackPointExtension>
            <ns3:atemp>22.0</ns3:atemp>
          </ns3:TrackPointExtension>
        </extensions>
      </trkpt>
      <trkpt lat="42.59189330041408538818359375" lon="20.10097819380462169647216796875">
        <ele>1856.5999755859375</ele>
        <time>2026-06-15T09:01:00.000Z</time>
        <extensions>
          <ns3:TrackPointExtension>
            <ns3:atemp>22.0</ns3:atemp>
          </ns3:TrackPointExtension>
        </extensions>
      </trkpt>
      <trkpt lat="42.59189330041408538818359375" lon="20.10097819380462169647216796875">
        <ele>1856.5999755859375</ele>
        <time>2026-06-15T09:01:01.000Z</time>
        <extensions>
          <ns3:TrackPointExtension>
            <ns3:atemp>22.0</ns3:atemp>
          </ns3:TrackPointExtension>
        </extensions>
      </trkpt>
      <trkpt lat="42.59189330041408538818359375" lon="20.10097819380462169647216796875">
        <ele>1856.5999755859375</ele>
        <time>2026-06-15T09:01:02.000Z</time>
        <extensions>
          <ns3:TrackPointExtension>
            <ns3:atemp>22.0</ns3:atemp>
          </ns3:TrackPointExtension>
        </extensions>
      </trkpt>
      <trkpt lat="42.59189330041408538818359375" lon="20.10097819380462169647216796875">
        <ele>1856.5999755859375</ele>
        <time>2026-06-15T09:01:03.000Z</time>
        <extensions>
          <ns3:TrackPointExtension>
            <ns3:atemp>22.0</ns3:atemp>
          </ns3:TrackPointExtension>
        </extensions>
      </trkpt>
      <trkpt lat="42.59189330041408538818359375" lon="20.10097819380462169647216796875">
        <ele>1856.5999755859375</ele>
        <time>2026-06-15T09:01:04.000Z</time>
        <extensions>
          <ns3:TrackPointExtension>
            <ns3:atemp>22.0</ns3:atemp>
          </ns3:TrackPointExtension>
        </extensions>
      </trkpt>
      <trkpt lat="42.59189330041408538818359375" lon="20.10097819380462169647216796875">
        <ele>1856.5999755859375</ele>
        <time>2026-06-15T09:01:05.000Z</time>
        <extensions>
          <ns3:TrackPointExtension>
            <ns3:atemp>22.0</ns3:atemp>
          </ns3:TrackPointExtension>
        </extensions>
      </trkpt>
      <trkpt lat="42.59189330041408538818359375" lon="20.10097819380462169647216796875">
        <ele>1856.800048828125</ele>
        <time>2026-06-15T09:01:06.000Z</time>
        <extensions>
          <ns3:TrackPointExtension>
            <ns3:atemp>22.0</ns3:atemp>
          </ns3:TrackPointExtension>
        </extensions>
      </trkpt>
      <trkpt lat="42.59189330041408538818359375" lon="20.10097819380462169647216796875">
        <ele>1856.800048828125</ele>
        <time>2026-06-15T09:01:07.000Z</time>
        <extensions>
          <ns3:TrackPointExtension>
            <ns3:atemp>22.0</ns3:atemp>
          </ns3:TrackPointExtension>
        </extensions>
      </trkpt>
      <trkpt lat="42.59189330041408538818359375" lon="20.10097819380462169647216796875">
        <ele>1857</ele>
        <time>2026-06-15T09:01:08.000Z</time>
        <extensions>
          <ns3:TrackPointExtension>
            <ns3:atemp>22.0</ns3:atemp>
          </ns3:TrackPointExtension>
        </extensions>
      </trkpt>
      <trkpt lat="42.59189330041408538818359375" lon="20.10097819380462169647216796875">
        <ele>1857</ele>
        <time>2026-06-15T09:01:09.000Z</time>
        <extensions>
          <ns3:TrackPointExtension>
            <ns3:atemp>22.0</ns3:atemp>
          </ns3:TrackPointExtension>
        </extensions>
      </trkpt>
      <trkpt lat="42.59189330041408538818359375" lon="20.10097819380462169647216796875">
        <ele>1857</ele>
        <time>2026-06-15T09:01:10.000Z</time>
        <extensions>
          <ns3:TrackPointExtension>
            <ns3:atemp>22.0</ns3:atemp>
          </ns3:TrackPointExtension>
        </extensions>
      </trkpt>
      <trkpt lat="42.59189330041408538818359375" lon="20.10097819380462169647216796875">
        <ele>1856.800048828125</ele>
        <time>2026-06-15T09:01:11.000Z</time>
        <extensions>
          <ns3:TrackPointExtension>
            <ns3:atemp>22.0</ns3:atemp>
          </ns3:TrackPointExtension>
        </extensions>
      </trkpt>
      <trkpt lat="42.59189330041408538818359375" lon="20.10097819380462169647216796875">
        <ele>1856.800048828125</ele>
        <time>2026-06-15T09:01:12.000Z</time>
        <extensions>
          <ns3:TrackPointExtension>
            <ns3:atemp>22.0</ns3:atemp>
          </ns3:TrackPointExtension>
        </extensions>
      </trkpt>
      <trkpt lat="42.59189330041408538818359375" lon="20.10097819380462169647216796875">
        <ele>1856.5999755859375</ele>
        <time>2026-06-15T09:01:13.000Z</time>
        <extensions>
          <ns3:TrackPointExtension>
            <ns3:atemp>22.0</ns3:atemp>
          </ns3:TrackPointExtension>
        </extensions>
      </trkpt>
      <trkpt lat="42.59189330041408538818359375" lon="20.10097819380462169647216796875">
        <ele>1856.5999755859375</ele>
        <time>2026-06-15T09:01:14.000Z</time>
        <extensions>
          <ns3:TrackPointExtension>
            <ns3:atemp>22.0</ns3:atemp>
          </ns3:TrackPointExtension>
        </extensions>
      </trkpt>
      <trkpt lat="42.59189330041408538818359375" lon="20.10097819380462169647216796875">
        <ele>1856.4000244140625</ele>
        <time>2026-06-15T09:01:15.000Z</time>
        <extensions>
          <ns3:TrackPointExtension>
            <ns3:atemp>22.0</ns3:atemp>
          </ns3:TrackPointExtension>
        </extensions>
      </trkpt>
      <trkpt lat="42.59189330041408538818359375" lon="20.10097819380462169647216796875">
        <ele>1856.4000244140625</ele>
        <time>2026-06-15T09:01:16.000Z</time>
        <extensions>
          <ns3:TrackPointExtension>
            <ns3:atemp>22.0</ns3:atemp>
          </ns3:TrackPointExtension>
        </extensions>
      </trkpt>
      <trkpt lat="42.59189330041408538818359375" lon="20.10097819380462169647216796875">
        <ele>1856.4000244140625</ele>
        <time>2026-06-15T09:01:17.000Z</time>
        <extensions>
          <ns3:TrackPointExtension>
            <ns3:atemp>22.0</ns3:atemp>
          </ns3:TrackPointExtension>
        </extensions>
      </trkpt>
      <trkpt lat="42.59189330041408538818359375" lon="20.10097819380462169647216796875">
        <ele>1856.199951171875</ele>
        <time>2026-06-15T09:01:18.000Z</time>
        <extensions>
          <ns3:TrackPointExtension>
            <ns3:atemp>22.0</ns3:atemp>
          </ns3:TrackPointExtension>
        </extensions>
      </trkpt>
      <trkpt lat="42.59189330041408538818359375" lon="20.10097819380462169647216796875">
        <ele>1856.199951171875</ele>
        <time>2026-06-15T09:01:19.000Z</time>
        <extensions>
          <ns3:TrackPointExtension>
            <ns3:atemp>22.0</ns3:atemp>
          </ns3:TrackPointExtension>
        </extensions>
      </trkpt>
      <trkpt lat="42.59189330041408538818359375" lon="20.10097819380462169647216796875">
        <ele>1856.199951171875</ele>
        <time>2026-06-15T09:01:20.000Z</time>
        <extensions>
          <ns3:TrackPointExtension>
            <ns3:atemp>22.0</ns3:atemp>
          </ns3:TrackPointExtension>
        </extensions>
      </trkpt>
      <trkpt lat="42.59189330041408538818359375" lon="20.10097819380462169647216796875">
        <ele>1856.199951171875</ele>
        <time>2026-06-15T09:01:21.000Z</time>
        <extensions>
          <ns3:TrackPointExtension>
            <ns3:atemp>22.0</ns3:atemp>
          </ns3:TrackPointExtension>
        </extensions>
      </trkpt>
      <trkpt lat="42.59189330041408538818359375" lon="20.10097819380462169647216796875">
        <ele>1856</ele>
        <time>2026-06-15T09:01:22.000Z</time>
        <extensions>
          <ns3:TrackPointExtension>
            <ns3:atemp>22.0</ns3:atemp>
          </ns3:TrackPointExtension>
        </extensions>
      </trkpt>
      <trkpt lat="42.59189330041408538818359375" lon="20.10097819380462169647216796875">
        <ele>1856</ele>
        <time>2026-06-15T09:01:23.000Z</time>
        <extensions>
          <ns3:TrackPointExtension>
            <ns3:atemp>22.0</ns3:atemp>
          </ns3:TrackPointExtension>
        </extensions>
      </trkpt>
      <trkpt lat="42.59189330041408538818359375" lon="20.10097819380462169647216796875">
        <ele>1856</ele>
        <time>2026-06-15T09:01:24.000Z</time>
        <extensions>
          <ns3:TrackPointExtension>
            <ns3:atemp>22.0</ns3:atemp>
          </ns3:TrackPointExtension>
        </extensions>
      </trkpt>
      <trkpt lat="42.59189330041408538818359375" lon="20.10097819380462169647216796875">
        <ele>1856</ele>
        <time>2026-06-15T09:01:25.000Z</time>
        <extensions>
          <ns3:TrackPointExtension>
            <ns3:atemp>22.0</ns3:atemp>
          </ns3:TrackPointExtension>
        </extensions>
      </trkpt>
      <trkpt lat="42.59189330041408538818359375" lon="20.10097819380462169647216796875">
        <ele>1856</ele>
        <time>2026-06-15T09:01:26.000Z</time>
        <extensions>
          <ns3:TrackPointExtension>
            <ns3:atemp>22.0</ns3:atemp>
          </ns3:TrackPointExtension>
        </extensions>
      </trkpt>
      <trkpt lat="42.59189330041408538818359375" lon="20.10097819380462169647216796875">
        <ele>1856</ele>
        <time>2026-06-15T09:01:27.000Z</time>
        <extensions>
          <ns3:TrackPointExtension>
            <ns3:atemp>22.0</ns3:atemp>
          </ns3:TrackPointExtension>
        </extensions>
      </trkpt>
      <trkpt lat="42.59189330041408538818359375" lon="20.10097819380462169647216796875">
        <ele>1856</ele>
        <time>2026-06-15T09:01:28.000Z</time>
        <extensions>
          <ns3:TrackPointExtension>
            <ns3:atemp>22.0</ns3:atemp>
          </ns3:TrackPointExtension>
        </extensions>
      </trkpt>
      <trkpt lat="42.59189330041408538818359375" lon="20.10097819380462169647216796875">
        <ele>1856</ele>
        <time>2026-06-15T09:01:29.000Z</time>
        <extensions>
          <ns3:TrackPointExtension>
            <ns3:atemp>22.0</ns3:atemp>
          </ns3:TrackPointExtension>
        </extensions>
      </trkpt>
      <trkpt lat="42.59189330041408538818359375" lon="20.10097819380462169647216796875">
        <ele>1856.199951171875</ele>
        <time>2026-06-15T09:01:30.000Z</time>
        <extensions>
          <ns3:TrackPointExtension>
            <ns3:atemp>22.0</ns3:atemp>
          </ns3:TrackPointExtension>
        </extensions>
      </trkpt>
      <trkpt lat="42.59189330041408538818359375" lon="20.10097819380462169647216796875">
        <ele>1856.199951171875</ele>
        <time>2026-06-15T09:01:31.000Z</time>
        <extensions>
          <ns3:TrackPointExtension>
            <ns3:atemp>22.0</ns3:atemp>
          </ns3:TrackPointExtension>
        </extensions>
      </trkpt>
      <trkpt lat="42.59189330041408538818359375" lon="20.10097819380462169647216796875">
        <ele>1856.199951171875</ele>
        <time>2026-06-15T09:01:32.000Z</time>
        <extensions>
          <ns3:TrackPointExtension>
            <ns3:atemp>22.0</ns3:atemp>
          </ns3:TrackPointExtension>
        </extensions>
      </trkpt>
      <trkpt lat="42.59189330041408538818359375" lon="20.10097819380462169647216796875">
        <ele>1856.199951171875</ele>
        <time>2026-06-15T09:01:33.000Z</time>
        <extensions>
          <ns3:TrackPointExtension>
            <ns3:atemp>22.0</ns3:atemp>
          </ns3:TrackPointExtension>
        </extensions>
      </trkpt>
      <trkpt lat="42.59189330041408538818359375" lon="20.10097819380462169647216796875">
        <ele>1856.199951171875</ele>
        <time>2026-06-15T09:01:34.000Z</time>
        <extensions>
          <ns3:TrackPointExtension>
            <ns3:atemp>22.0</ns3:atemp>
          </ns3:TrackPointExtension>
        </extensions>
      </trkpt>
      <trkpt lat="42.59189330041408538818359375" lon="20.10097819380462169647216796875">
        <ele>1856.199951171875</ele>
        <time>2026-06-15T09:01:35.000Z</time>
        <extensions>
          <ns3:TrackPointExtension>
            <ns3:atemp>22.0</ns3:atemp>
          </ns3:TrackPointExtension>
        </extensions>
      </trkpt>
      <trkpt lat="42.59189330041408538818359375" lon="20.10097819380462169647216796875">
        <ele>1856.4000244140625</ele>
        <time>2026-06-15T09:01:36.000Z</time>
        <extensions>
          <ns3:TrackPointExtension>
            <ns3:atemp>22.0</ns3:atemp>
          </ns3:TrackPointExtension>
        </extensions>
      </trkpt>
      <trkpt lat="42.59189330041408538818359375" lon="20.10097819380462169647216796875">
        <ele>1856.4000244140625</ele>
        <time>2026-06-15T09:01:37.000Z</time>
        <extensions>
          <ns3:TrackPointExtension>
            <ns3:atemp>22.0</ns3:atemp>
          </ns3:TrackPointExtension>
        </extensions>
      </trkpt>
      <trkpt lat="42.59189330041408538818359375" lon="20.10097819380462169647216796875">
        <ele>1856.4000244140625</ele>
        <time>2026-06-15T09:01:38.000Z</time>
        <extensions>
          <ns3:TrackPointExtension>
            <ns3:atemp>22.0</ns3:atemp>
          </ns3:TrackPointExtension>
        </extensions>
      </trkpt>
      <trkpt lat="42.59189330041408538818359375" lon="20.10097819380462169647216796875">
        <ele>1856.4000244140625</ele>
        <time>2026-06-15T09:01:39.000Z</time>
        <extensions>
          <ns3:TrackPointExtension>
            <ns3:atemp>22.0</ns3:atemp>
          </ns3:TrackPointExtension>
        </extensions>
      </trkpt>
      <trkpt lat="42.59189330041408538818359375" lon="20.10097819380462169647216796875">
        <ele>1856.4000244140625</ele>
        <time>2026-06-15T09:01:40.000Z</time>
        <extensions>
          <ns3:TrackPointExtension>
            <ns3:atemp>22.0</ns3:atemp>
          </ns3:TrackPointExtension>
        </extensions>
      </trkpt>
      <trkpt lat="42.59189330041408538818359375" lon="20.10097819380462169647216796875">
        <ele>1856.199951171875</ele>
        <time>2026-06-15T09:01:41.000Z</time>
        <extensions>
          <ns3:TrackPointExtension>
            <ns3:atemp>22.0</ns3:atemp>
          </ns3:TrackPointExtension>
        </extensions>
      </trkpt>
      <trkpt lat="42.59189330041408538818359375" lon="20.10097819380462169647216796875">
        <ele>1856.199951171875</ele>
        <time>2026-06-15T09:01:42.000Z</time>
        <extensions>
          <ns3:TrackPointExtension>
            <ns3:atemp>22.0</ns3:atemp>
          </ns3:TrackPointExtension>
        </extensions>
      </trkpt>
      <trkpt lat="42.59189330041408538818359375" lon="20.10097819380462169647216796875">
        <ele>1856.199951171875</ele>
        <time>2026-06-15T09:01:43.000Z</time>
        <extensions>
          <ns3:TrackPointExtension>
            <ns3:atemp>22.0</ns3:atemp>
          </ns3:TrackPointExtension>
        </extensions>
      </trkpt>
      <trkpt lat="42.59189330041408538818359375" lon="20.10097819380462169647216796875">
        <ele>1856.199951171875</ele>
        <time>2026-06-15T09:01:44.000Z</time>
        <extensions>
          <ns3:TrackPointExtension>
            <ns3:atemp>22.0</ns3:atemp>
          </ns3:TrackPointExtension>
        </extensions>
      </trkpt>
      <trkpt lat="42.59189330041408538818359375" lon="20.10097819380462169647216796875">
        <ele>1856.199951171875</ele>
        <time>2026-06-15T09:01:45.000Z</time>
        <extensions>
          <ns3:TrackPointExtension>
            <ns3:atemp>22.0</ns3:atemp>
          </ns3:TrackPointExtension>
        </extensions>
      </trkpt>
      <trkpt lat="42.59189330041408538818359375" lon="20.10097819380462169647216796875">
        <ele>1856.199951171875</ele>
        <time>2026-06-15T09:01:46.000Z</time>
        <extensions>
          <ns3:TrackPointExtension>
            <ns3:atemp>22.0</ns3:atemp>
          </ns3:TrackPointExtension>
        </extensions>
      </trkpt>
      <trkpt lat="42.59189330041408538818359375" lon="20.10097819380462169647216796875">
        <ele>1856.199951171875</ele>
        <time>2026-06-15T09:01:47.000Z</time>
        <extensions>
          <ns3:TrackPointExtension>
            <ns3:atemp>22.0</ns3:atemp>
          </ns3:TrackPointExtension>
        </extensions>
      </trkpt>
      <trkpt lat="42.59189330041408538818359375" lon="20.10097819380462169647216796875">
        <ele>1856.199951171875</ele>
        <time>2026-06-15T09:01:48.000Z</time>
        <extensions>
          <ns3:TrackPointExtension>
            <ns3:atemp>22.0</ns3:atemp>
          </ns3:TrackPointExtension>
        </extensions>
      </trkpt>
      <trkpt lat="42.59189330041408538818359375" lon="20.10097819380462169647216796875">
        <ele>1856.199951171875</ele>
        <time>2026-06-15T09:01:49.000Z</time>
        <extensions>
          <ns3:TrackPointExtension>
            <ns3:atemp>22.0</ns3:atemp>
          </ns3:TrackPointExtension>
        </extensions>
      </trkpt>
      <trkpt lat="42.59189330041408538818359375" lon="20.10097819380462169647216796875">
        <ele>1856.199951171875</ele>
        <time>2026-06-15T09:01:50.000Z</time>
        <extensions>
          <ns3:TrackPointExtension>
            <ns3:atemp>22.0</ns3:atemp>
          </ns3:TrackPointExtension>
        </extensions>
      </trkpt>
      <trkpt lat="42.59189330041408538818359375" lon="20.10097819380462169647216796875">
        <ele>1856</ele>
        <time>2026-06-15T09:01:51.000Z</time>
        <extensions>
          <ns3:TrackPointExtension>
            <ns3:atemp>22.0</ns3:atemp>
          </ns3:TrackPointExtension>
        </extensions>
      </trkpt>
      <trkpt lat="42.59189330041408538818359375" lon="20.10097819380462169647216796875">
        <ele>1856</ele>
        <time>2026-06-15T09:01:52.000Z</time>
        <extensions>
          <ns3:TrackPointExtension>
            <ns3:atemp>22.0</ns3:atemp>
          </ns3:TrackPointExtension>
        </extensions>
      </trkpt>
      <trkpt lat="42.59189330041408538818359375" lon="20.10097819380462169647216796875">
        <ele>1856</ele>
        <time>2026-06-15T09:01:53.000Z</time>
        <extensions>
          <ns3:TrackPointExtension>
            <ns3:atemp>22.0</ns3:atemp>
          </ns3:TrackPointExtension>
        </extensions>
      </trkpt>
      <trkpt lat="42.59189330041408538818359375" lon="20.10097819380462169647216796875">
        <ele>1856</ele>
        <time>2026-06-15T09:01:54.000Z</time>
        <extensions>
          <ns3:TrackPointExtension>
            <ns3:atemp>22.0</ns3:atemp>
          </ns3:TrackPointExtension>
        </extensions>
      </trkpt>
      <trkpt lat="42.59189330041408538818359375" lon="20.10097819380462169647216796875">
        <ele>1855.800048828125</ele>
        <time>2026-06-15T09:01:55.000Z</time>
        <extensions>
          <ns3:TrackPointExtension>
            <ns3:atemp>22.0</ns3:atemp>
          </ns3:TrackPointExtension>
        </extensions>
      </trkpt>
      <trkpt lat="42.59189330041408538818359375" lon="20.10097819380462169647216796875">
        <ele>1855.800048828125</ele>
        <time>2026-06-15T09:01:56.000Z</time>
        <extensions>
          <ns3:TrackPointExtension>
            <ns3:atemp>22.0</ns3:atemp>
          </ns3:TrackPointExtension>
        </extensions>
      </trkpt>
      <trkpt lat="42.59189330041408538818359375" lon="20.10097819380462169647216796875">
        <ele>1855.800048828125</ele>
        <time>2026-06-15T09:01:57.000Z</time>
        <extensions>
          <ns3:TrackPointExtension>
            <ns3:atemp>22.0</ns3:atemp>
          </ns3:TrackPointExtension>
        </extensions>
      </trkpt>
      <trkpt lat="42.59189330041408538818359375" lon="20.10097819380462169647216796875">
        <ele>1855.800048828125</ele>
        <time>2026-06-15T09:01:58.000Z</time>
        <extensions>
          <ns3:TrackPointExtension>
            <ns3:atemp>22.0</ns3:atemp>
          </ns3:TrackPointExtension>
        </extensions>
      </trkpt>
      <trkpt lat="42.59189170785248279571533203125" lon="20.10097970254719257354736328125">
        <ele>1855.5999755859375</ele>
        <time>2026-06-15T09:01:59.000Z</time>
        <extensions>
          <ns3:TrackPointExtension>
            <ns3:atemp>22.0</ns3:atemp>
          </ns3:TrackPointExtension>
        </extensions>
      </trkpt>
      <trkpt lat="42.59188718162477016448974609375" lon="20.10098624043166637420654296875">
        <ele>1855.5999755859375</ele>
        <time>2026-06-15T09:02:00.000Z</time>
        <extensions>
          <ns3:TrackPointExtension>
            <ns3:atemp>22.0</ns3:atemp>
          </ns3:TrackPointExtension>
        </extensions>
      </trkpt>
      <trkpt lat="42.59189330041408538818359375" lon="20.10097819380462169647216796875">
        <ele>1855.4000244140625</ele>
        <time>2026-06-15T09:02:01.000Z</time>
        <extensions>
          <ns3:TrackPointExtension>
            <ns3:atemp>22.0</ns3:atemp>
          </ns3:TrackPointExtension>
        </extensions>
      </trkpt>
      <trkpt lat="42.59189330041408538818359375" lon="20.10097819380462169647216796875">
        <ele>1855.199951171875</ele>
        <time>2026-06-15T09:02:02.000Z</time>
        <extensions>
          <ns3:TrackPointExtension>
            <ns3:atemp>22.0</ns3:atemp>
          </ns3:TrackPointExtension>
        </extensions>
      </trkpt>
      <trkpt lat="42.59189330041408538818359375" lon="20.10097819380462169647216796875">
        <ele>1855</ele>
        <time>2026-06-15T09:02:03.000Z</time>
        <extensions>
          <ns3:TrackPointExtension>
            <ns3:atemp>22.0</ns3:atemp>
          </ns3:TrackPointExtension>
        </extensions>
      </trkpt>
      <trkpt lat="42.59189330041408538818359375" lon="20.10097819380462169647216796875">
        <ele>1855</ele>
        <time>2026-06-15T09:02:04.000Z</time>
        <extensions>
          <ns3:TrackPointExtension>
            <ns3:atemp>22.0</ns3:atemp>
          </ns3:TrackPointExtension>
        </extensions>
      </trkpt>
      <trkpt lat="42.59189330041408538818359375" lon="20.10097819380462169647216796875">
        <ele>1855</ele>
        <time>2026-06-15T09:02:05.000Z</time>
        <extensions>
          <ns3:TrackPointExtension>
            <ns3:atemp>22.0</ns3:atemp>
          </ns3:TrackPointExtension>
        </extensions>
      </trkpt>
      <trkpt lat="42.59189330041408538818359375" lon="20.10097819380462169647216796875">
        <ele>1855</ele>
        <time>2026-06-15T09:02:06.000Z</time>
        <extensions>
          <ns3:TrackPointExtension>
            <ns3:atemp>22.0</ns3:atemp>
          </ns3:TrackPointExtension>
        </extensions>
      </trkpt>
      <trkpt lat="42.59189330041408538818359375" lon="20.10097819380462169647216796875">
        <ele>1855.199951171875</ele>
        <time>2026-06-15T09:02:07.000Z</time>
        <extensions>
          <ns3:TrackPointExtension>
            <ns3:atemp>22.0</ns3:atemp>
          </ns3:TrackPointExtension>
        </extensions>
      </trkpt>
      <trkpt lat="42.59189330041408538818359375" lon="20.10097819380462169647216796875">
        <ele>1855.199951171875</ele>
        <time>2026-06-15T09:02:08.000Z</time>
        <extensions>
          <ns3:TrackPointExtension>
            <ns3:atemp>22.0</ns3:atemp>
          </ns3:TrackPointExtension>
        </extensions>
      </trkpt>
      <trkpt lat="42.59189330041408538818359375" lon="20.10097819380462169647216796875">
        <ele>1855.199951171875</ele>
        <time>2026-06-15T09:02:09.000Z</time>
        <extensions>
          <ns3:TrackPointExtension>
            <ns3:atemp>22.0</ns3:atemp>
          </ns3:TrackPointExtension>
        </extensions>
      </trkpt>
      <trkpt lat="42.59189330041408538818359375" lon="20.10097819380462169647216796875">
        <ele>1855.4000244140625</ele>
        <time>2026-06-15T09:02:10.000Z</time>
        <extensions>
          <ns3:TrackPointExtension>
            <ns3:atemp>22.0</ns3:atemp>
          </ns3:TrackPointExtension>
        </extensions>
      </trkpt>
      <trkpt lat="42.59189330041408538818359375" lon="20.10097819380462169647216796875">
        <ele>1855.4000244140625</ele>
        <time>2026-06-15T09:02:11.000Z</time>
        <extensions>
          <ns3:TrackPointExtension>
            <ns3:atemp>22.0</ns3:atemp>
          </ns3:TrackPointExtension>
        </extensions>
      </trkpt>
      <trkpt lat="42.59189330041408538818359375" lon="20.10097819380462169647216796875">
        <ele>1855.4000244140625</ele>
        <time>2026-06-15T09:02:12.000Z</time>
        <extensions>
          <ns3:TrackPointExtension>
            <ns3:atemp>22.0</ns3:atemp>
          </ns3:TrackPointExtension>
        </extensions>
      </trkpt>
      <trkpt lat="42.59189330041408538818359375" lon="20.10097819380462169647216796875">
        <ele>1855.5999755859375</ele>
        <time>2026-06-15T09:02:13.000Z</time>
        <extensions>
          <ns3:TrackPointExtension>
            <ns3:atemp>22.0</ns3:atemp>
          </ns3:TrackPointExtension>
        </extensions>
      </trkpt>
      <trkpt lat="42.59189330041408538818359375" lon="20.10097819380462169647216796875">
        <ele>1855.800048828125</ele>
        <time>2026-06-15T09:02:14.000Z</time>
        <extensions>
          <ns3:TrackPointExtension>
            <ns3:atemp>22.0</ns3:atemp>
          </ns3:TrackPointExtension>
        </extensions>
      </trkpt>
      <trkpt lat="42.59189330041408538818359375" lon="20.10097819380462169647216796875">
        <ele>1855.800048828125</ele>
        <time>2026-06-15T09:02:15.000Z</time>
        <extensions>
          <ns3:TrackPointExtension>
            <ns3:atemp>22.0</ns3:atemp>
          </ns3:TrackPointExtension>
        </extensions>
      </trkpt>
      <trkpt lat="42.59189330041408538818359375" lon="20.10097819380462169647216796875">
        <ele>1855.800048828125</ele>
        <time>2026-06-15T09:02:16.000Z</time>
        <extensions>
          <ns3:TrackPointExtension>
            <ns3:atemp>22.0</ns3:atemp>
          </ns3:TrackPointExtension>
        </extensions>
      </trkpt>
      <trkpt lat="42.59189330041408538818359375" lon="20.10097819380462169647216796875">
        <ele>1855.800048828125</ele>
        <time>2026-06-15T09:02:17.000Z</time>
        <extensions>
          <ns3:TrackPointExtension>
            <ns3:atemp>22.0</ns3:atemp>
          </ns3:TrackPointExtension>
        </extensions>
      </trkpt>
      <trkpt lat="42.59189330041408538818359375" lon="20.10097819380462169647216796875">
        <ele>1855.800048828125</ele>
        <time>2026-06-15T09:02:18.000Z</time>
        <extensions>
          <ns3:TrackPointExtension>
            <ns3:atemp>22.0</ns3:atemp>
          </ns3:TrackPointExtension>
        </extensions>
      </trkpt>
      <trkpt lat="42.59189330041408538818359375" lon="20.10097819380462169647216796875">
        <ele>1855.5999755859375</ele>
        <time>2026-06-15T09:02:19.000Z</time>
        <extensions>
          <ns3:TrackPointExtension>
            <ns3:atemp>22.0</ns3:atemp>
          </ns3:TrackPointExtension>
        </extensions>
      </trkpt>
      <trkpt lat="42.59189330041408538818359375" lon="20.10097819380462169647216796875">
        <ele>1855.5999755859375</ele>
        <time>2026-06-15T09:02:20.000Z</time>
        <extensions>
          <ns3:TrackPointExtension>
            <ns3:atemp>22.0</ns3:atemp>
          </ns3:TrackPointExtension>
        </extensions>
      </trkpt>
      <trkpt lat="42.59189330041408538818359375" lon="20.10097819380462169647216796875">
        <ele>1855.5999755859375</ele>
        <time>2026-06-15T09:02:21.000Z</time>
        <extensions>
          <ns3:TrackPointExtension>
            <ns3:atemp>22.0</ns3:atemp>
          </ns3:TrackPointExtension>
        </extensions>
      </trkpt>
      <trkpt lat="42.59189330041408538818359375" lon="20.10097819380462169647216796875">
        <ele>1855.5999755859375</ele>
        <time>2026-06-15T09:02:22.000Z</time>
        <extensions>
          <ns3:TrackPointExtension>
            <ns3:atemp>22.0</ns3:atemp>
          </ns3:TrackPointExtension>
        </extensions>
      </trkpt>
      <trkpt lat="42.59189330041408538818359375" lon="20.10097819380462169647216796875">
        <ele>1855.5999755859375</ele>
        <time>2026-06-15T09:02:23.000Z</time>
        <extensions>
          <ns3:TrackPointExtension>
            <ns3:atemp>22.0</ns3:atemp>
          </ns3:TrackPointExtension>
        </extensions>
      </trkpt>
      <trkpt lat="42.59189330041408538818359375" lon="20.10097819380462169647216796875">
        <ele>1855.5999755859375</ele>
        <time>2026-06-15T09:02:24.000Z</time>
        <extensions>
          <ns3:TrackPointExtension>
            <ns3:atemp>22.0</ns3:atemp>
          </ns3:TrackPointExtension>
        </extensions>
      </trkpt>
      <trkpt lat="42.59189330041408538818359375" lon="20.10097819380462169647216796875">
        <ele>1855.5999755859375</ele>
        <time>2026-06-15T09:02:25.000Z</time>
        <extensions>
          <ns3:TrackPointExtension>
            <ns3:atemp>22.0</ns3:atemp>
          </ns3:TrackPointExtension>
        </extensions>
      </trkpt>
      <trkpt lat="42.59189330041408538818359375" lon="20.10097819380462169647216796875">
        <ele>1855.5999755859375</ele>
        <time>2026-06-15T09:02:26.000Z</time>
        <extensions>
          <ns3:TrackPointExtension>
            <ns3:atemp>22.0</ns3:atemp>
          </ns3:TrackPointExtension>
        </extensions>
      </trkpt>
      <trkpt lat="42.59189330041408538818359375" lon="20.10097819380462169647216796875">
        <ele>1855.5999755859375</ele>
        <time>2026-06-15T09:02:27.000Z</time>
        <extensions>
          <ns3:TrackPointExtension>
            <ns3:atemp>22.0</ns3:atemp>
          </ns3:TrackPointExtension>
        </extensions>
      </trkpt>
      <trkpt lat="42.59189330041408538818359375" lon="20.10097819380462169647216796875">
        <ele>1855.5999755859375</ele>
        <time>2026-06-15T09:02:28.000Z</time>
        <extensions>
          <ns3:TrackPointExtension>
            <ns3:atemp>22.0</ns3:atemp>
          </ns3:TrackPointExtension>
        </extensions>
      </trkpt>
      <trkpt lat="42.59189330041408538818359375" lon="20.10097819380462169647216796875">
        <ele>1855.5999755859375</ele>
        <time>2026-06-15T09:02:29.000Z</time>
        <extensions>
          <ns3:TrackPointExtension>
            <ns3:atemp>22.0</ns3:atemp>
          </ns3:TrackPointExtension>
        </extensions>
      </trkpt>
      <trkpt lat="42.59189330041408538818359375" lon="20.10097819380462169647216796875">
        <ele>1855.5999755859375</ele>
        <time>2026-06-15T09:02:30.000Z</time>
        <extensions>
          <ns3:TrackPointExtension>
            <ns3:atemp>22.0</ns3:atemp>
          </ns3:TrackPointExtension>
        </extensions>
      </trkpt>
      <trkpt lat="42.59189330041408538818359375" lon="20.10097819380462169647216796875">
        <ele>1855.5999755859375</ele>
        <time>2026-06-15T09:02:31.000Z</time>
        <extensions>
          <ns3:TrackPointExtension>
            <ns3:atemp>22.0</ns3:atemp>
          </ns3:TrackPointExtension>
        </extensions>
      </trkpt>
      <trkpt lat="42.59189330041408538818359375" lon="20.10097819380462169647216796875">
        <ele>1855.5999755859375</ele>
        <time>2026-06-15T09:02:32.000Z</time>
        <extensions>
          <ns3:TrackPointExtension>
            <ns3:atemp>22.0</ns3:atemp>
          </ns3:TrackPointExtension>
        </extensions>
      </trkpt>
      <trkpt lat="42.59189330041408538818359375" lon="20.10097819380462169647216796875">
        <ele>1855.5999755859375</ele>
        <time>2026-06-15T09:02:33.000Z</time>
        <extensions>
          <ns3:TrackPointExtension>
            <ns3:atemp>22.0</ns3:atemp>
          </ns3:TrackPointExtension>
        </extensions>
      </trkpt>
      <trkpt lat="42.59189330041408538818359375" lon="20.10097819380462169647216796875">
        <ele>1855.5999755859375</ele>
        <time>2026-06-15T09:02:34.000Z</time>
        <extensions>
          <ns3:TrackPointExtension>
            <ns3:atemp>22.0</ns3:atemp>
          </ns3:TrackPointExtension>
        </extensions>
      </trkpt>
      <trkpt lat="42.59189330041408538818359375" lon="20.10097819380462169647216796875">
        <ele>1855.5999755859375</ele>
        <time>2026-06-15T09:02:35.000Z</time>
        <extensions>
          <ns3:TrackPointExtension>
            <ns3:atemp>22.0</ns3:atemp>
          </ns3:TrackPointExtension>
        </extensions>
      </trkpt>
      <trkpt lat="42.59189330041408538818359375" lon="20.10097819380462169647216796875">
        <ele>1855.5999755859375</ele>
        <time>2026-06-15T09:02:36.000Z</time>
        <extensions>
          <ns3:TrackPointExtension>
            <ns3:atemp>22.0</ns3:atemp>
          </ns3:TrackPointExtension>
        </extensions>
      </trkpt>
      <trkpt lat="42.59189330041408538818359375" lon="20.10097819380462169647216796875">
        <ele>1855.5999755859375</ele>
        <time>2026-06-15T09:02:37.000Z</time>
        <extensions>
          <ns3:TrackPointExtension>
            <ns3:atemp>22.0</ns3:atemp>
          </ns3:TrackPointExtension>
        </extensions>
      </trkpt>
      <trkpt lat="42.59189330041408538818359375" lon="20.10097819380462169647216796875">
        <ele>1855.5999755859375</ele>
        <time>2026-06-15T09:02:38.000Z</time>
        <extensions>
          <ns3:TrackPointExtension>
            <ns3:atemp>22.0</ns3:atemp>
          </ns3:TrackPointExtension>
        </extensions>
      </trkpt>
      <trkpt lat="42.59189330041408538818359375" lon="20.10097819380462169647216796875">
        <ele>1855.5999755859375</ele>
        <time>2026-06-15T09:02:39.000Z</time>
        <extensions>
          <ns3:TrackPointExtension>
            <ns3:atemp>22.0</ns3:atemp>
          </ns3:TrackPointExtension>
        </extensions>
      </trkpt>
      <trkpt lat="42.59189330041408538818359375" lon="20.10097819380462169647216796875">
        <ele>1855.5999755859375</ele>
        <time>2026-06-15T09:02:40.000Z</time>
        <extensions>
          <ns3:TrackPointExtension>
            <ns3:atemp>22.0</ns3:atemp>
          </ns3:TrackPointExtension>
        </extensions>
      </trkpt>
      <trkpt lat="42.59189330041408538818359375" lon="20.10097819380462169647216796875">
        <ele>1855.5999755859375</ele>
        <time>2026-06-15T09:02:41.000Z</time>
        <extensions>
          <ns3:TrackPointExtension>
            <ns3:atemp>22.0</ns3:atemp>
          </ns3:TrackPointExtension>
        </extensions>
      </trkpt>
      <trkpt lat="42.59189330041408538818359375" lon="20.10097819380462169647216796875">
        <ele>1855.5999755859375</ele>
        <time>2026-06-15T09:02:42.000Z</time>
        <extensions>
          <ns3:TrackPointExtension>
            <ns3:atemp>22.0</ns3:atemp>
          </ns3:TrackPointExtension>
        </extensions>
      </trkpt>
      <trkpt lat="42.59189330041408538818359375" lon="20.10097819380462169647216796875">
        <ele>1855.5999755859375</ele>
        <time>2026-06-15T09:02:43.000Z</time>
        <extensions>
          <ns3:TrackPointExtension>
            <ns3:atemp>22.0</ns3:atemp>
          </ns3:TrackPointExtension>
        </extensions>
      </trkpt>
      <trkpt lat="42.59189330041408538818359375" lon="20.10097819380462169647216796875">
        <ele>1855.5999755859375</ele>
        <time>2026-06-15T09:02:44.000Z</time>
        <extensions>
          <ns3:TrackPointExtension>
            <ns3:atemp>22.0</ns3:atemp>
          </ns3:TrackPointExtension>
        </extensions>
      </trkpt>
      <trkpt lat="42.59189330041408538818359375" lon="20.10097819380462169647216796875">
        <ele>1855.5999755859375</ele>
        <time>2026-06-15T09:02:45.000Z</time>
        <extensions>
          <ns3:TrackPointExtension>
            <ns3:atemp>22.0</ns3:atemp>
          </ns3:TrackPointExtension>
        </extensions>
      </trkpt>
      <trkpt lat="42.59189330041408538818359375" lon="20.10097819380462169647216796875">
        <ele>1855.5999755859375</ele>
        <time>2026-06-15T09:02:46.000Z</time>
        <extensions>
          <ns3:TrackPointExtension>
            <ns3:atemp>22.0</ns3:atemp>
          </ns3:TrackPointExtension>
        </extensions>
      </trkpt>
      <trkpt lat="42.59189330041408538818359375" lon="20.10097819380462169647216796875">
        <ele>1855.5999755859375</ele>
        <time>2026-06-15T09:02:47.000Z</time>
        <extensions>
          <ns3:TrackPointExtension>
            <ns3:atemp>22.0</ns3:atemp>
          </ns3:TrackPointExtension>
        </extensions>
      </trkpt>
      <trkpt lat="42.59189330041408538818359375" lon="20.10097819380462169647216796875">
        <ele>1855.5999755859375</ele>
        <time>2026-06-15T09:02:48.000Z</time>
        <extensions>
          <ns3:TrackPointExtension>
            <ns3:atemp>22.0</ns3:atemp>
          </ns3:TrackPointExtension>
        </extensions>
      </trkpt>
      <trkpt lat="42.59189330041408538818359375" lon="20.10097819380462169647216796875">
        <ele>1855.5999755859375</ele>
        <time>2026-06-15T09:02:49.000Z</time>
        <extensions>
          <ns3:TrackPointExtension>
            <ns3:atemp>22.0</ns3:atemp>
          </ns3:TrackPointExtension>
        </extensions>
      </trkpt>
      <trkpt lat="42.59189330041408538818359375" lon="20.10097819380462169647216796875">
        <ele>1855.5999755859375</ele>
        <time>2026-06-15T09:02:50.000Z</time>
        <extensions>
          <ns3:TrackPointExtension>
            <ns3:atemp>22.0</ns3:atemp>
          </ns3:TrackPointExtension>
        </extensions>
      </trkpt>
      <trkpt lat="42.59189330041408538818359375" lon="20.10097819380462169647216796875">
        <ele>1855.5999755859375</ele>
        <time>2026-06-15T09:02:51.000Z</time>
        <extensions>
          <ns3:TrackPointExtension>
            <ns3:atemp>22.0</ns3:atemp>
          </ns3:TrackPointExtension>
        </extensions>
      </trkpt>
      <trkpt lat="42.59189330041408538818359375" lon="20.10097819380462169647216796875">
        <ele>1855.5999755859375</ele>
        <time>2026-06-15T09:02:52.000Z</time>
        <extensions>
          <ns3:TrackPointExtension>
            <ns3:atemp>22.0</ns3:atemp>
          </ns3:TrackPointExtension>
        </extensions>
      </trkpt>
      <trkpt lat="42.59189330041408538818359375" lon="20.10097819380462169647216796875">
        <ele>1855.5999755859375</ele>
        <time>2026-06-15T09:02:53.000Z</time>
        <extensions>
          <ns3:TrackPointExtension>
            <ns3:atemp>22.0</ns3:atemp>
          </ns3:TrackPointExtension>
        </extensions>
      </trkpt>
      <trkpt lat="42.59189330041408538818359375" lon="20.10097819380462169647216796875">
        <ele>1855.5999755859375</ele>
        <time>2026-06-15T09:02:54.000Z</time>
        <extensions>
          <ns3:TrackPointExtension>
            <ns3:atemp>22.0</ns3:atemp>
          </ns3:TrackPointExtension>
        </extensions>
      </trkpt>
      <trkpt lat="42.59189330041408538818359375" lon="20.10097819380462169647216796875">
        <ele>1855.5999755859375</ele>
        <time>2026-06-15T09:02:55.000Z</time>
        <extensions>
          <ns3:TrackPointExtension>
            <ns3:atemp>22.0</ns3:atemp>
          </ns3:TrackPointExtension>
        </extensions>
      </trkpt>
      <trkpt lat="42.59189330041408538818359375" lon="20.10097819380462169647216796875">
        <ele>1855.5999755859375</ele>
        <time>2026-06-15T09:02:56.000Z</time>
        <extensions>
          <ns3:TrackPointExtension>
            <ns3:atemp>22.0</ns3:atemp>
          </ns3:TrackPointExtension>
        </extensions>
      </trkpt>
      <trkpt lat="42.59189330041408538818359375" lon="20.10097819380462169647216796875">
        <ele>1855.5999755859375</ele>
        <time>2026-06-15T09:02:57.000Z</time>
        <extensions>
          <ns3:TrackPointExtension>
            <ns3:atemp>22.0</ns3:atemp>
          </ns3:TrackPointExtension>
        </extensions>
      </trkpt>
      <trkpt lat="42.59189330041408538818359375" lon="20.10097819380462169647216796875">
        <ele>1855.5999755859375</ele>
        <time>2026-06-15T09:02:58.000Z</time>
        <extensions>
          <ns3:TrackPointExtension>
            <ns3:atemp>22.0</ns3:atemp>
          </ns3:TrackPointExtension>
        </extensions>
      </trkpt>
      <trkpt lat="42.59189330041408538818359375" lon="20.10097819380462169647216796875">
        <ele>1855.5999755859375</ele>
        <time>2026-06-15T09:02:59.000Z</time>
        <extensions>
          <ns3:TrackPointExtension>
            <ns3:atemp>22.0</ns3:atemp>
          </ns3:TrackPointExtension>
        </extensions>
      </trkpt>
      <trkpt lat="42.59189330041408538818359375" lon="20.10097819380462169647216796875">
        <ele>1855.5999755859375</ele>
        <time>2026-06-15T09:03:00.000Z</time>
        <extensions>
          <ns3:TrackPointExtension>
            <ns3:atemp>22.0</ns3:atemp>
          </ns3:TrackPointExtension>
        </extensions>
      </trkpt>
      <trkpt lat="42.59189330041408538818359375" lon="20.10097819380462169647216796875">
        <ele>1855.5999755859375</ele>
        <time>2026-06-15T09:03:01.000Z</time>
        <extensions>
          <ns3:TrackPointExtension>
            <ns3:atemp>22.0</ns3:atemp>
          </ns3:TrackPointExtension>
        </extensions>
      </trkpt>
      <trkpt lat="42.59189330041408538818359375" lon="20.10097819380462169647216796875">
        <ele>1855.5999755859375</ele>
        <time>2026-06-15T09:03:02.000Z</time>
        <extensions>
          <ns3:TrackPointExtension>
            <ns3:atemp>22.0</ns3:atemp>
          </ns3:TrackPointExtension>
        </extensions>
      </trkpt>
      <trkpt lat="42.59189330041408538818359375" lon="20.10097819380462169647216796875">
        <ele>1855.5999755859375</ele>
        <time>2026-06-15T09:03:03.000Z</time>
        <extensions>
          <ns3:TrackPointExtension>
            <ns3:atemp>22.0</ns3:atemp>
          </ns3:TrackPointExtension>
        </extensions>
      </trkpt>
      <trkpt lat="42.59189330041408538818359375" lon="20.10097819380462169647216796875">
        <ele>1855.5999755859375</ele>
        <time>2026-06-15T09:03:04.000Z</time>
        <extensions>
          <ns3:TrackPointExtension>
            <ns3:atemp>22.0</ns3:atemp>
          </ns3:TrackPointExtension>
        </extensions>
      </trkpt>
      <trkpt lat="42.59189330041408538818359375" lon="20.10097819380462169647216796875">
        <ele>1855.5999755859375</ele>
        <time>2026-06-15T09:03:05.000Z</time>
        <extensions>
          <ns3:TrackPointExtension>
            <ns3:atemp>22.0</ns3:atemp>
          </ns3:TrackPointExtension>
        </extensions>
      </trkpt>
      <trkpt lat="42.59189330041408538818359375" lon="20.10097819380462169647216796875">
        <ele>1855.5999755859375</ele>
        <time>2026-06-15T09:03:06.000Z</time>
        <extensions>
          <ns3:TrackPointExtension>
            <ns3:atemp>22.0</ns3:atemp>
          </ns3:TrackPointExtension>
        </extensions>
      </trkpt>
      <trkpt lat="42.59189330041408538818359375" lon="20.10097819380462169647216796875">
        <ele>1855.5999755859375</ele>
        <time>2026-06-15T09:03:07.000Z</time>
        <extensions>
          <ns3:TrackPointExtension>
            <ns3:atemp>22.0</ns3:atemp>
          </ns3:TrackPointExtension>
        </extensions>
      </trkpt>
      <trkpt lat="42.59189330041408538818359375" lon="20.10097819380462169647216796875">
        <ele>1855.5999755859375</ele>
        <time>2026-06-15T09:03:08.000Z</time>
        <extensions>
          <ns3:TrackPointExtension>
            <ns3:atemp>22.0</ns3:atemp>
          </ns3:TrackPointExtension>
        </extensions>
      </trkpt>
      <trkpt lat="42.59189330041408538818359375" lon="20.10097819380462169647216796875">
        <ele>1855.5999755859375</ele>
        <time>2026-06-15T09:03:09.000Z</time>
        <extensions>
          <ns3:TrackPointExtension>
            <ns3:atemp>22.0</ns3:atemp>
          </ns3:TrackPointExtension>
        </extensions>
      </trkpt>
      <trkpt lat="42.59189330041408538818359375" lon="20.10097819380462169647216796875">
        <ele>1855.5999755859375</ele>
        <time>2026-06-15T09:03:10.000Z</time>
        <extensions>
          <ns3:TrackPointExtension>
            <ns3:atemp>22.0</ns3:atemp>
          </ns3:TrackPointExtension>
        </extensions>
      </trkpt>
      <trkpt lat="42.59189330041408538818359375" lon="20.10097819380462169647216796875">
        <ele>1855.5999755859375</ele>
        <time>2026-06-15T09:03:11.000Z</time>
        <extensions>
          <ns3:TrackPointExtension>
            <ns3:atemp>22.0</ns3:atemp>
          </ns3:TrackPointExtension>
        </extensions>
      </trkpt>
      <trkpt lat="42.59189330041408538818359375" lon="20.10097819380462169647216796875">
        <ele>1855.4000244140625</ele>
        <time>2026-06-15T09:03:12.000Z</time>
        <extensions>
          <ns3:TrackPointExtension>
            <ns3:atemp>22.0</ns3:atemp>
          </ns3:TrackPointExtension>
        </extensions>
      </trkpt>
      <trkpt lat="42.59189330041408538818359375" lon="20.10097819380462169647216796875">
        <ele>1855.4000244140625</ele>
        <time>2026-06-15T09:03:13.000Z</time>
        <extensions>
          <ns3:TrackPointExtension>
            <ns3:atemp>22.0</ns3:atemp>
          </ns3:TrackPointExtension>
        </extensions>
      </trkpt>
      <trkpt lat="42.59189330041408538818359375" lon="20.10097819380462169647216796875">
        <ele>1855.4000244140625</ele>
        <time>2026-06-15T09:03:14.000Z</time>
        <extensions>
          <ns3:TrackPointExtension>
            <ns3:atemp>22.0</ns3:atemp>
          </ns3:TrackPointExtension>
        </extensions>
      </trkpt>
      <trkpt lat="42.59189330041408538818359375" lon="20.10097819380462169647216796875">
        <ele>1855.4000244140625</ele>
        <time>2026-06-15T09:03:15.000Z</time>
        <extensions>
          <ns3:TrackPointExtension>
            <ns3:atemp>22.0</ns3:atemp>
          </ns3:TrackPointExtension>
        </extensions>
      </trkpt>
      <trkpt lat="42.59189330041408538818359375" lon="20.10097819380462169647216796875">
        <ele>1855.4000244140625</ele>
        <time>2026-06-15T09:03:16.000Z</time>
        <extensions>
          <ns3:TrackPointExtension>
            <ns3:atemp>22.0</ns3:atemp>
          </ns3:TrackPointExtension>
        </extensions>
      </trkpt>
      <trkpt lat="42.59189330041408538818359375" lon="20.10097819380462169647216796875">
        <ele>1855.4000244140625</ele>
        <time>2026-06-15T09:03:17.000Z</time>
        <extensions>
          <ns3:TrackPointExtension>
            <ns3:atemp>22.0</ns3:atemp>
          </ns3:TrackPointExtension>
        </extensions>
      </trkpt>
      <trkpt lat="42.59189330041408538818359375" lon="20.10097819380462169647216796875">
        <ele>1855.4000244140625</ele>
        <time>2026-06-15T09:03:18.000Z</time>
        <extensions>
          <ns3:TrackPointExtension>
            <ns3:atemp>22.0</ns3:atemp>
          </ns3:TrackPointExtension>
        </extensions>
      </trkpt>
      <trkpt lat="42.59189330041408538818359375" lon="20.10097819380462169647216796875">
        <ele>1855.4000244140625</ele>
        <time>2026-06-15T09:03:19.000Z</time>
        <extensions>
          <ns3:TrackPointExtension>
            <ns3:atemp>22.0</ns3:atemp>
          </ns3:TrackPointExtension>
        </extensions>
      </trkpt>
      <trkpt lat="42.59189330041408538818359375" lon="20.10097819380462169647216796875">
        <ele>1855.4000244140625</ele>
        <time>2026-06-15T09:03:20.000Z</time>
        <extensions>
          <ns3:TrackPointExtension>
            <ns3:atemp>22.0</ns3:atemp>
          </ns3:TrackPointExtension>
        </extensions>
      </trkpt>
      <trkpt lat="42.59189330041408538818359375" lon="20.10097819380462169647216796875">
        <ele>1855.4000244140625</ele>
        <time>2026-06-15T09:03:21.000Z</time>
        <extensions>
          <ns3:TrackPointExtension>
            <ns3:atemp>22.0</ns3:atemp>
          </ns3:TrackPointExtension>
        </extensions>
      </trkpt>
      <trkpt lat="42.59189330041408538818359375" lon="20.10097819380462169647216796875">
        <ele>1855.199951171875</ele>
        <time>2026-06-15T09:03:22.000Z</time>
        <extensions>
          <ns3:TrackPointExtension>
            <ns3:atemp>22.0</ns3:atemp>
          </ns3:TrackPointExtension>
        </extensions>
      </trkpt>
      <trkpt lat="42.59189330041408538818359375" lon="20.10097819380462169647216796875">
        <ele>1855.199951171875</ele>
        <time>2026-06-15T09:03:23.000Z</time>
        <extensions>
          <ns3:TrackPointExtension>
            <ns3:atemp>22.0</ns3:atemp>
          </ns3:TrackPointExtension>
        </extensions>
      </trkpt>
      <trkpt lat="42.59189330041408538818359375" lon="20.10097819380462169647216796875">
        <ele>1855.4000244140625</ele>
        <time>2026-06-15T09:03:24.000Z</time>
        <extensions>
          <ns3:TrackPointExtension>
            <ns3:atemp>22.0</ns3:atemp>
          </ns3:TrackPointExtension>
        </extensions>
      </trkpt>
      <trkpt lat="42.59189330041408538818359375" lon="20.10097819380462169647216796875">
        <ele>1855.4000244140625</ele>
        <time>2026-06-15T09:03:25.000Z</time>
        <extensions>
          <ns3:TrackPointExtension>
            <ns3:atemp>22.0</ns3:atemp>
          </ns3:TrackPointExtension>
        </extensions>
      </trkpt>
      <trkpt lat="42.59189330041408538818359375" lon="20.10097819380462169647216796875">
        <ele>1855.4000244140625</ele>
        <time>2026-06-15T09:03:26.000Z</time>
        <extensions>
          <ns3:TrackPointExtension>
            <ns3:atemp>22.0</ns3:atemp>
          </ns3:TrackPointExtension>
        </extensions>
      </trkpt>
      <trkpt lat="42.59189330041408538818359375" lon="20.10097819380462169647216796875">
        <ele>1855.4000244140625</ele>
        <time>2026-06-15T09:03:27.000Z</time>
        <extensions>
          <ns3:TrackPointExtension>
            <ns3:atemp>22.0</ns3:atemp>
          </ns3:TrackPointExtension>
        </extensions>
      </trkpt>
      <trkpt lat="42.59189330041408538818359375" lon="20.10097819380462169647216796875">
        <ele>1855.4000244140625</ele>
        <time>2026-06-15T09:03:28.000Z</time>
        <extensions>
          <ns3:TrackPointExtension>
            <ns3:atemp>22.0</ns3:atemp>
          </ns3:TrackPointExtension>
        </extensions>
      </trkpt>
      <trkpt lat="42.5918867625296115875244140625" lon="20.10098456405103206634521484375">
        <ele>1855.199951171875</ele>
        <time>2026-06-15T09:03:29.000Z</time>
        <extensions>
          <ns3:TrackPointExtension>
            <ns3:atemp>22.0</ns3:atemp>
          </ns3:TrackPointExtension>
        </extensions>
      </trkpt>
      <trkpt lat="42.59189330041408538818359375" lon="20.10097819380462169647216796875">
        <ele>1855.199951171875</ele>
        <time>2026-06-15T09:03:30.000Z</time>
        <extensions>
          <ns3:TrackPointExtension>
            <ns3:atemp>22.0</ns3:atemp>
          </ns3:TrackPointExtension>
        </extensions>
      </trkpt>
      <trkpt lat="42.59189330041408538818359375" lon="20.10097819380462169647216796875">
        <ele>1855</ele>
        <time>2026-06-15T09:03:31.000Z</time>
        <extensions>
          <ns3:TrackPointExtension>
            <ns3:atemp>22.0</ns3:atemp>
          </ns3:TrackPointExtension>
        </extensions>
      </trkpt>
      <trkpt lat="42.59189330041408538818359375" lon="20.10097819380462169647216796875">
        <ele>1855</ele>
        <time>2026-06-15T09:03:32.000Z</time>
        <extensions>
          <ns3:TrackPointExtension>
            <ns3:atemp>22.0</ns3:atemp>
          </ns3:TrackPointExtension>
        </extensions>
      </trkpt>
      <trkpt lat="42.59189330041408538818359375" lon="20.10097819380462169647216796875">
        <ele>1855</ele>
        <time>2026-06-15T09:03:33.000Z</time>
        <extensions>
          <ns3:TrackPointExtension>
            <ns3:atemp>22.0</ns3:atemp>
          </ns3:TrackPointExtension>
        </extensions>
      </trkpt>
      <trkpt lat="42.59189330041408538818359375" lon="20.10097819380462169647216796875">
        <ele>1855</ele>
        <time>2026-06-15T09:03:34.000Z</time>
        <extensions>
          <ns3:TrackPointExtension>
            <ns3:atemp>22.0</ns3:atemp>
          </ns3:TrackPointExtension>
        </extensions>
      </trkpt>
      <trkpt lat="42.59189330041408538818359375" lon="20.10097819380462169647216796875">
        <ele>1855.199951171875</ele>
        <time>2026-06-15T09:03:35.000Z</time>
        <extensions>
          <ns3:TrackPointExtension>
            <ns3:atemp>22.0</ns3:atemp>
          </ns3:TrackPointExtension>
        </extensions>
      </trkpt>
      <trkpt lat="42.59189330041408538818359375" lon="20.10097819380462169647216796875">
        <ele>1855.4000244140625</ele>
        <time>2026-06-15T09:03:36.000Z</time>
        <extensions>
          <ns3:TrackPointExtension>
            <ns3:atemp>22.0</ns3:atemp>
          </ns3:TrackPointExtension>
        </extensions>
      </trkpt>
      <trkpt lat="42.59189330041408538818359375" lon="20.10097819380462169647216796875">
        <ele>1855.5999755859375</ele>
        <time>2026-06-15T09:03:37.000Z</time>
        <extensions>
          <ns3:TrackPointExtension>
            <ns3:atemp>22.0</ns3:atemp>
          </ns3:TrackPointExtension>
        </extensions>
      </trkpt>
      <trkpt lat="42.59189330041408538818359375" lon="20.10097819380462169647216796875">
        <ele>1855.800048828125</ele>
        <time>2026-06-15T09:03:38.000Z</time>
        <extensions>
          <ns3:TrackPointExtension>
            <ns3:atemp>22.0</ns3:atemp>
          </ns3:TrackPointExtension>
        </extensions>
      </trkpt>
      <trkpt lat="42.59189330041408538818359375" lon="20.10097819380462169647216796875">
        <ele>1856</ele>
        <time>2026-06-15T09:03:39.000Z</time>
        <extensions>
          <ns3:TrackPointExtension>
            <ns3:atemp>22.0</ns3:atemp>
          </ns3:TrackPointExtension>
        </extensions>
      </trkpt>
      <trkpt lat="42.59189330041408538818359375" lon="20.10097819380462169647216796875">
        <ele>1856</ele>
        <time>2026-06-15T09:03:40.000Z</time>
        <extensions>
          <ns3:TrackPointExtension>
            <ns3:atemp>22.0</ns3:atemp>
          </ns3:TrackPointExtension>
        </extensions>
      </trkpt>
      <trkpt lat="42.59189330041408538818359375" lon="20.10097819380462169647216796875">
        <ele>1856</ele>
        <time>2026-06-15T09:03:41.000Z</time>
        <extensions>
          <ns3:TrackPointExtension>
            <ns3:atemp>22.0</ns3:atemp>
          </ns3:TrackPointExtension>
        </extensions>
      </trkpt>
      <trkpt lat="42.59189330041408538818359375" lon="20.10097819380462169647216796875">
        <ele>1856</ele>
        <time>2026-06-15T09:03:42.000Z</time>
        <extensions>
          <ns3:TrackPointExtension>
            <ns3:atemp>22.0</ns3:atemp>
          </ns3:TrackPointExtension>
        </extensions>
      </trkpt>
      <trkpt lat="42.59189330041408538818359375" lon="20.10097819380462169647216796875">
        <ele>1856.199951171875</ele>
        <time>2026-06-15T09:03:43.000Z</time>
        <extensions>
          <ns3:TrackPointExtension>
            <ns3:atemp>22.0</ns3:atemp>
          </ns3:TrackPointExtension>
        </extensions>
      </trkpt>
      <trkpt lat="42.59189330041408538818359375" lon="20.10097819380462169647216796875">
        <ele>1856.199951171875</ele>
        <time>2026-06-15T09:03:44.000Z</time>
        <extensions>
          <ns3:TrackPointExtension>
            <ns3:atemp>22.0</ns3:atemp>
          </ns3:TrackPointExtension>
        </extensions>
      </trkpt>
      <trkpt lat="42.59189330041408538818359375" lon="20.10097819380462169647216796875">
        <ele>1856</ele>
        <time>2026-06-15T09:03:45.000Z</time>
        <extensions>
          <ns3:TrackPointExtension>
            <ns3:atemp>22.0</ns3:atemp>
          </ns3:TrackPointExtension>
        </extensions>
      </trkpt>
      <trkpt lat="42.59189330041408538818359375" lon="20.10097819380462169647216796875">
        <ele>1855.800048828125</ele>
        <time>2026-06-15T09:03:46.000Z</time>
        <extensions>
          <ns3:TrackPointExtension>
            <ns3:atemp>22.0</ns3:atemp>
          </ns3:TrackPointExtension>
        </extensions>
      </trkpt>
      <trkpt lat="42.59189330041408538818359375" lon="20.10097819380462169647216796875">
        <ele>1855.5999755859375</ele>
        <time>2026-06-15T09:03:47.000Z</time>
        <extensions>
          <ns3:TrackPointExtension>
            <ns3:atemp>22.0</ns3:atemp>
          </ns3:TrackPointExtension>
        </extensions>
      </trkpt>
      <trkpt lat="42.59189330041408538818359375" lon="20.10097819380462169647216796875">
        <ele>1855.5999755859375</ele>
        <time>2026-06-15T09:03:48.000Z</time>
        <extensions>
          <ns3:TrackPointExtension>
            <ns3:atemp>22.0</ns3:atemp>
          </ns3:TrackPointExtension>
        </extensions>
      </trkpt>
      <trkpt lat="42.59189330041408538818359375" lon="20.10097819380462169647216796875">
        <ele>1855.4000244140625</ele>
        <time>2026-06-15T09:03:49.000Z</time>
        <extensions>
          <ns3:TrackPointExtension>
            <ns3:atemp>22.0</ns3:atemp>
          </ns3:TrackPointExtension>
        </extensions>
      </trkpt>
      <trkpt lat="42.59189330041408538818359375" lon="20.10097819380462169647216796875">
        <ele>1855.4000244140625</ele>
        <time>2026-06-15T09:03:50.000Z</time>
        <extensions>
          <ns3:TrackPointExtension>
            <ns3:atemp>22.0</ns3:atemp>
          </ns3:TrackPointExtension>
        </extensions>
      </trkpt>
      <trkpt lat="42.59189330041408538818359375" lon="20.10097819380462169647216796875">
        <ele>1855.199951171875</ele>
        <time>2026-06-15T09:03:51.000Z</time>
        <extensions>
          <ns3:TrackPointExtension>
            <ns3:atemp>22.0</ns3:atemp>
          </ns3:TrackPointExtension>
        </extensions>
      </trkpt>
      <trkpt lat="42.59189330041408538818359375" lon="20.10097819380462169647216796875">
        <ele>1855.199951171875</ele>
        <time>2026-06-15T09:03:52.000Z</time>
        <extensions>
          <ns3:TrackPointExtension>
            <ns3:atemp>22.0</ns3:atemp>
          </ns3:TrackPointExtension>
        </extensions>
      </trkpt>
      <trkpt lat="42.59189330041408538818359375" lon="20.10097819380462169647216796875">
        <ele>1855</ele>
        <time>2026-06-15T09:03:53.000Z</time>
        <extensions>
          <ns3:TrackPointExtension>
            <ns3:atemp>22.0</ns3:atemp>
          </ns3:TrackPointExtension>
        </extensions>
      </trkpt>
      <trkpt lat="42.59189330041408538818359375" lon="20.10097819380462169647216796875">
        <ele>1855</ele>
        <time>2026-06-15T09:03:54.000Z</time>
        <extensions>
          <ns3:TrackPointExtension>
            <ns3:atemp>22.0</ns3:atemp>
          </ns3:TrackPointExtension>
        </extensions>
      </trkpt>
      <trkpt lat="42.59189330041408538818359375" lon="20.10097819380462169647216796875">
        <ele>1855</ele>
        <time>2026-06-15T09:03:55.000Z</time>
        <extensions>
          <ns3:TrackPointExtension>
            <ns3:atemp>22.0</ns3:atemp>
          </ns3:TrackPointExtension>
        </extensions>
      </trkpt>
      <trkpt lat="42.59189330041408538818359375" lon="20.10097819380462169647216796875">
        <ele>1855</ele>
        <time>2026-06-15T09:03:56.000Z</time>
        <extensions>
          <ns3:TrackPointExtension>
            <ns3:atemp>22.0</ns3:atemp>
          </ns3:TrackPointExtension>
        </extensions>
      </trkpt>
      <trkpt lat="42.59189330041408538818359375" lon="20.10097819380462169647216796875">
        <ele>1855.199951171875</ele>
        <time>2026-06-15T09:03:57.000Z</time>
        <extensions>
          <ns3:TrackPointExtension>
            <ns3:atemp>22.0</ns3:atemp>
          </ns3:TrackPointExtension>
        </extensions>
      </trkpt>
      <trkpt lat="42.59189330041408538818359375" lon="20.10097819380462169647216796875">
        <ele>1855.4000244140625</ele>
        <time>2026-06-15T09:03:58.000Z</time>
        <extensions>
          <ns3:TrackPointExtension>
            <ns3:atemp>22.0</ns3:atemp>
          </ns3:TrackPointExtension>
        </extensions>
      </trkpt>
      <trkpt lat="42.59189330041408538818359375" lon="20.10097819380462169647216796875">
        <ele>1855.5999755859375</ele>
        <time>2026-06-15T09:03:59.000Z</time>
        <extensions>
          <ns3:TrackPointExtension>
            <ns3:atemp>22.0</ns3:atemp>
          </ns3:TrackPointExtension>
        </extensions>
      </trkpt>
      <trkpt lat="42.59189330041408538818359375" lon="20.10097819380462169647216796875">
        <ele>1855.5999755859375</ele>
        <time>2026-06-15T09:04:00.000Z</time>
        <extensions>
          <ns3:TrackPointExtension>
            <ns3:atemp>22.0</ns3:atemp>
          </ns3:TrackPointExtension>
        </extensions>
      </trkpt>
      <trkpt lat="42.59189330041408538818359375" lon="20.10097819380462169647216796875">
        <ele>1855.800048828125</ele>
        <time>2026-06-15T09:04:01.000Z</time>
        <extensions>
          <ns3:TrackPointExtension>
            <ns3:atemp>22.0</ns3:atemp>
          </ns3:TrackPointExtension>
        </extensions>
      </trkpt>
      <trkpt lat="42.59189330041408538818359375" lon="20.10097819380462169647216796875">
        <ele>1855.800048828125</ele>
        <time>2026-06-15T09:04:02.000Z</time>
        <extensions>
          <ns3:TrackPointExtension>
            <ns3:atemp>22.0</ns3:atemp>
          </ns3:TrackPointExtension>
        </extensions>
      </trkpt>
      <trkpt lat="42.59189330041408538818359375" lon="20.10097819380462169647216796875">
        <ele>1855.800048828125</ele>
        <time>2026-06-15T09:04:03.000Z</time>
        <extensions>
          <ns3:TrackPointExtension>
            <ns3:atemp>22.0</ns3:atemp>
          </ns3:TrackPointExtension>
        </extensions>
      </trkpt>
      <trkpt lat="42.59189330041408538818359375" lon="20.10097819380462169647216796875">
        <ele>1855.800048828125</ele>
        <time>2026-06-15T09:04:04.000Z</time>
        <extensions>
          <ns3:TrackPointExtension>
            <ns3:atemp>22.0</ns3:atemp>
          </ns3:TrackPointExtension>
        </extensions>
      </trkpt>
      <trkpt lat="42.59189330041408538818359375" lon="20.10097819380462169647216796875">
        <ele>1855.800048828125</ele>
        <time>2026-06-15T09:04:05.000Z</time>
        <extensions>
          <ns3:TrackPointExtension>
            <ns3:atemp>22.0</ns3:atemp>
          </ns3:TrackPointExtension>
        </extensions>
      </trkpt>
      <trkpt lat="42.59189330041408538818359375" lon="20.10097819380462169647216796875">
        <ele>1856</ele>
        <time>2026-06-15T09:04:06.000Z</time>
        <extensions>
          <ns3:TrackPointExtension>
            <ns3:atemp>22.0</ns3:atemp>
          </ns3:TrackPointExtension>
        </extensions>
      </trkpt>
      <trkpt lat="42.59189330041408538818359375" lon="20.10097819380462169647216796875">
        <ele>1856</ele>
        <time>2026-06-15T09:04:07.000Z</time>
        <extensions>
          <ns3:TrackPointExtension>
            <ns3:atemp>22.0</ns3:atemp>
          </ns3:TrackPointExtension>
        </extensions>
      </trkpt>
      <trkpt lat="42.59189330041408538818359375" lon="20.10097819380462169647216796875">
        <ele>1856</ele>
        <time>2026-06-15T09:04:08.000Z</time>
        <extensions>
          <ns3:TrackPointExtension>
            <ns3:atemp>22.0</ns3:atemp>
          </ns3:TrackPointExtension>
        </extensions>
      </trkpt>
      <trkpt lat="42.59189330041408538818359375" lon="20.10097819380462169647216796875">
        <ele>1856</ele>
        <time>2026-06-15T09:04:09.000Z</time>
        <extensions>
          <ns3:TrackPointExtension>
            <ns3:atemp>22.0</ns3:atemp>
          </ns3:TrackPointExtension>
        </extensions>
      </trkpt>
      <trkpt lat="42.59189330041408538818359375" lon="20.10097819380462169647216796875">
        <ele>1856</ele>
        <time>2026-06-15T09:04:10.000Z</time>
        <extensions>
          <ns3:TrackPointExtension>
            <ns3:atemp>22.0</ns3:atemp>
          </ns3:TrackPointExtension>
        </extensions>
      </trkpt>
      <trkpt lat="42.59189330041408538818359375" lon="20.10097819380462169647216796875">
        <ele>1856</ele>
        <time>2026-06-15T09:04:11.000Z</time>
        <extensions>
          <ns3:TrackPointExtension>
            <ns3:atemp>22.0</ns3:atemp>
          </ns3:TrackPointExtension>
        </extensions>
      </trkpt>
      <trkpt lat="42.59189330041408538818359375" lon="20.10097819380462169647216796875">
        <ele>1856</ele>
        <time>2026-06-15T09:04:12.000Z</time>
        <extensions>
          <ns3:TrackPointExtension>
            <ns3:atemp>22.0</ns3:atemp>
          </ns3:TrackPointExtension>
        </extensions>
      </trkpt>
      <trkpt lat="42.59189330041408538818359375" lon="20.10097819380462169647216796875">
        <ele>1856</ele>
        <time>2026-06-15T09:04:13.000Z</time>
        <extensions>
          <ns3:TrackPointExtension>
            <ns3:atemp>22.0</ns3:atemp>
          </ns3:TrackPointExtension>
        </extensions>
      </trkpt>
      <trkpt lat="42.59189330041408538818359375" lon="20.10097819380462169647216796875">
        <ele>1856</ele>
        <time>2026-06-15T09:04:14.000Z</time>
        <extensions>
          <ns3:TrackPointExtension>
            <ns3:atemp>22.0</ns3:atemp>
          </ns3:TrackPointExtension>
        </extensions>
      </trkpt>
      <trkpt lat="42.59188567288219928741455078125" lon="20.1009854860603809356689453125">
        <ele>1856.199951171875</ele>
        <time>2026-06-15T09:04:15.000Z</time>
        <extensions>
          <ns3:TrackPointExtension>
            <ns3:atemp>22.0</ns3:atemp>
          </ns3:TrackPointExtension>
        </extensions>
      </trkpt>
      <trkpt lat="42.59189330041408538818359375" lon="20.10097819380462169647216796875">
        <ele>1856.199951171875</ele>
        <time>2026-06-15T09:04:16.000Z</time>
        <extensions>
          <ns3:TrackPointExtension>
            <ns3:atemp>22.0</ns3:atemp>
          </ns3:TrackPointExtension>
        </extensions>
      </trkpt>
      <trkpt lat="42.59189330041408538818359375" lon="20.10097819380462169647216796875">
        <ele>1856.199951171875</ele>
        <time>2026-06-15T09:04:17.000Z</time>
        <extensions>
          <ns3:TrackPointExtension>
            <ns3:atemp>22.0</ns3:atemp>
          </ns3:TrackPointExtension>
        </extensions>
      </trkpt>
      <trkpt lat="42.59189330041408538818359375" lon="20.10097819380462169647216796875">
        <ele>1856.199951171875</ele>
        <time>2026-06-15T09:04:18.000Z</time>
        <extensions>
          <ns3:TrackPointExtension>
            <ns3:atemp>22.0</ns3:atemp>
          </ns3:TrackPointExtension>
        </extensions>
      </trkpt>
      <trkpt lat="42.59189330041408538818359375" lon="20.10097819380462169647216796875">
        <ele>1856</ele>
        <time>2026-06-15T09:04:19.000Z</time>
        <extensions>
          <ns3:TrackPointExtension>
            <ns3:atemp>22.0</ns3:atemp>
          </ns3:TrackPointExtension>
        </extensions>
      </trkpt>
      <trkpt lat="42.59189330041408538818359375" lon="20.10097819380462169647216796875">
        <ele>1856</ele>
        <time>2026-06-15T09:04:20.000Z</time>
        <extensions>
          <ns3:TrackPointExtension>
            <ns3:atemp>22.0</ns3:atemp>
          </ns3:TrackPointExtension>
        </extensions>
      </trkpt>
      <trkpt lat="42.59189330041408538818359375" lon="20.10097819380462169647216796875">
        <ele>1855.800048828125</ele>
        <time>2026-06-15T09:04:21.000Z</time>
        <extensions>
          <ns3:TrackPointExtension>
            <ns3:atemp>22.0</ns3:atemp>
          </ns3:TrackPointExtension>
        </extensions>
      </trkpt>
      <trkpt lat="42.59189330041408538818359375" lon="20.10097819380462169647216796875">
        <ele>1855.800048828125</ele>
        <time>2026-06-15T09:04:22.000Z</time>
        <extensions>
          <ns3:TrackPointExtension>
            <ns3:atemp>22.0</ns3:atemp>
          </ns3:TrackPointExtension>
        </extensions>
      </trkpt>
      <trkpt lat="42.59189330041408538818359375" lon="20.10097819380462169647216796875">
        <ele>1855.5999755859375</ele>
        <time>2026-06-15T09:04:23.000Z</time>
        <extensions>
          <ns3:TrackPointExtension>
            <ns3:atemp>22.0</ns3:atemp>
          </ns3:TrackPointExtension>
        </extensions>
      </trkpt>
      <trkpt lat="42.59189330041408538818359375" lon="20.10097819380462169647216796875">
        <ele>1855.5999755859375</ele>
        <time>2026-06-15T09:04:24.000Z</time>
        <extensions>
          <ns3:TrackPointExtension>
            <ns3:atemp>22.0</ns3:atemp>
          </ns3:TrackPointExtension>
        </extensions>
      </trkpt>
      <trkpt lat="42.59189330041408538818359375" lon="20.10097819380462169647216796875">
        <ele>1855.800048828125</ele>
        <time>2026-06-15T09:04:25.000Z</time>
        <extensions>
          <ns3:TrackPointExtension>
            <ns3:atemp>22.0</ns3:atemp>
          </ns3:TrackPointExtension>
        </extensions>
      </trkpt>
      <trkpt lat="42.59189330041408538818359375" lon="20.10097819380462169647216796875">
        <ele>1855.800048828125</ele>
        <time>2026-06-15T09:04:26.000Z</time>
        <extensions>
          <ns3:TrackPointExtension>
            <ns3:atemp>22.0</ns3:atemp>
          </ns3:TrackPointExtension>
        </extensions>
      </trkpt>
      <trkpt lat="42.59189330041408538818359375" lon="20.10097819380462169647216796875">
        <ele>1855.800048828125</ele>
        <time>2026-06-15T09:04:27.000Z</time>
        <extensions>
          <ns3:TrackPointExtension>
            <ns3:atemp>22.0</ns3:atemp>
          </ns3:TrackPointExtension>
        </extensions>
      </trkpt>
      <trkpt lat="42.59189330041408538818359375" lon="20.10097819380462169647216796875">
        <ele>1855.800048828125</ele>
        <time>2026-06-15T09:04:28.000Z</time>
        <extensions>
          <ns3:TrackPointExtension>
            <ns3:atemp>22.0</ns3:atemp>
          </ns3:TrackPointExtension>
        </extensions>
      </trkpt>
      <trkpt lat="42.59189330041408538818359375" lon="20.10097819380462169647216796875">
        <ele>1855.800048828125</ele>
        <time>2026-06-15T09:04:29.000Z</time>
        <extensions>
          <ns3:TrackPointExtension>
            <ns3:atemp>22.0</ns3:atemp>
          </ns3:TrackPointExtension>
        </extensions>
      </trkpt>
      <trkpt lat="42.59189330041408538818359375" lon="20.10097819380462169647216796875">
        <ele>1855.800048828125</ele>
        <time>2026-06-15T09:04:30.000Z</time>
        <extensions>
          <ns3:TrackPointExtension>
            <ns3:atemp>22.0</ns3:atemp>
          </ns3:TrackPointExtension>
        </extensions>
      </trkpt>
      <trkpt lat="42.59189330041408538818359375" lon="20.10097819380462169647216796875">
        <ele>1855.800048828125</ele>
        <time>2026-06-15T09:04:31.000Z</time>
        <extensions>
          <ns3:TrackPointExtension>
            <ns3:atemp>22.0</ns3:atemp>
          </ns3:TrackPointExtension>
        </extensions>
      </trkpt>
      <trkpt lat="42.59189330041408538818359375" lon="20.10097819380462169647216796875">
        <ele>1855.800048828125</ele>
        <time>2026-06-15T09:04:32.000Z</time>
        <extensions>
          <ns3:TrackPointExtension>
            <ns3:atemp>22.0</ns3:atemp>
          </ns3:TrackPointExtension>
        </extensions>
      </trkpt>
      <trkpt lat="42.59189330041408538818359375" lon="20.10097819380462169647216796875">
        <ele>1855.5999755859375</ele>
        <time>2026-06-15T09:04:33.000Z</time>
        <extensions>
          <ns3:TrackPointExtension>
            <ns3:atemp>22.0</ns3:atemp>
          </ns3:TrackPointExtension>
        </extensions>
      </trkpt>
      <trkpt lat="42.59189330041408538818359375" lon="20.10097819380462169647216796875">
        <ele>1855.5999755859375</ele>
        <time>2026-06-15T09:04:34.000Z</time>
        <extensions>
          <ns3:TrackPointExtension>
            <ns3:atemp>22.0</ns3:atemp>
          </ns3:TrackPointExtension>
        </extensions>
      </trkpt>
      <trkpt lat="42.59189330041408538818359375" lon="20.10097819380462169647216796875">
        <ele>1855.5999755859375</ele>
        <time>2026-06-15T09:04:35.000Z</time>
        <extensions>
          <ns3:TrackPointExtension>
            <ns3:atemp>22.0</ns3:atemp>
          </ns3:TrackPointExtension>
        </extensions>
      </trkpt>
      <trkpt lat="42.59189330041408538818359375" lon="20.10097819380462169647216796875">
        <ele>1855.5999755859375</ele>
        <time>2026-06-15T09:04:36.000Z</time>
        <extensions>
          <ns3:TrackPointExtension>
            <ns3:atemp>22.0</ns3:atemp>
          </ns3:TrackPointExtension>
        </extensions>
      </trkpt>
      <trkpt lat="42.59189330041408538818359375" lon="20.10097819380462169647216796875">
        <ele>1855.5999755859375</ele>
        <time>2026-06-15T09:04:37.000Z</time>
        <extensions>
          <ns3:TrackPointExtension>
            <ns3:atemp>22.0</ns3:atemp>
          </ns3:TrackPointExtension>
        </extensions>
      </trkpt>
      <trkpt lat="42.59189330041408538818359375" lon="20.10097819380462169647216796875">
        <ele>1855.5999755859375</ele>
        <time>2026-06-15T09:04:38.000Z</time>
        <extensions>
          <ns3:TrackPointExtension>
            <ns3:atemp>22.0</ns3:atemp>
          </ns3:TrackPointExtension>
        </extensions>
      </trkpt>
      <trkpt lat="42.59189330041408538818359375" lon="20.10097819380462169647216796875">
        <ele>1855.5999755859375</ele>
        <time>2026-06-15T09:04:39.000Z</time>
        <extensions>
          <ns3:TrackPointExtension>
            <ns3:atemp>22.0</ns3:atemp>
          </ns3:TrackPointExtension>
        </extensions>
      </trkpt>
      <trkpt lat="42.59189330041408538818359375" lon="20.10097819380462169647216796875">
        <ele>1855.5999755859375</ele>
        <time>2026-06-15T09:04:40.000Z</time>
        <extensions>
          <ns3:TrackPointExtension>
            <ns3:atemp>22.0</ns3:atemp>
          </ns3:TrackPointExtension>
        </extensions>
      </trkpt>
      <trkpt lat="42.59189330041408538818359375" lon="20.10097819380462169647216796875">
        <ele>1855.5999755859375</ele>
        <time>2026-06-15T09:04:41.000Z</time>
        <extensions>
          <ns3:TrackPointExtension>
            <ns3:atemp>22.0</ns3:atemp>
          </ns3:TrackPointExtension>
        </extensions>
      </trkpt>
      <trkpt lat="42.59189330041408538818359375" lon="20.10097819380462169647216796875">
        <ele>1855.800048828125</ele>
        <time>2026-06-15T09:04:42.000Z</time>
        <extensions>
          <ns3:TrackPointExtension>
            <ns3:atemp>22.0</ns3:atemp>
          </ns3:TrackPointExtension>
        </extensions>
      </trkpt>
      <trkpt lat="42.59189330041408538818359375" lon="20.10097819380462169647216796875">
        <ele>1855.5999755859375</ele>
        <time>2026-06-15T09:04:43.000Z</time>
        <extensions>
          <ns3:TrackPointExtension>
            <ns3:atemp>22.0</ns3:atemp>
          </ns3:TrackPointExtension>
        </extensions>
      </trkpt>
      <trkpt lat="42.59189330041408538818359375" lon="20.10097819380462169647216796875">
        <ele>1855.5999755859375</ele>
        <time>2026-06-15T09:04:44.000Z</time>
        <extensions>
          <ns3:TrackPointExtension>
            <ns3:atemp>22.0</ns3:atemp>
          </ns3:TrackPointExtension>
        </extensions>
      </trkpt>
      <trkpt lat="42.59189330041408538818359375" lon="20.10097819380462169647216796875">
        <ele>1855.5999755859375</ele>
        <time>2026-06-15T09:04:45.000Z</time>
        <extensions>
          <ns3:TrackPointExtension>
            <ns3:atemp>22.0</ns3:atemp>
          </ns3:TrackPointExtension>
        </extensions>
      </trkpt>
      <trkpt lat="42.59189330041408538818359375" lon="20.10097819380462169647216796875">
        <ele>1855.5999755859375</ele>
        <time>2026-06-15T09:04:46.000Z</time>
        <extensions>
          <ns3:TrackPointExtension>
            <ns3:atemp>22.0</ns3:atemp>
          </ns3:TrackPointExtension>
        </extensions>
      </trkpt>
      <trkpt lat="42.59189330041408538818359375" lon="20.10097819380462169647216796875">
        <ele>1855.5999755859375</ele>
        <time>2026-06-15T09:04:47.000Z</time>
        <extensions>
          <ns3:TrackPointExtension>
            <ns3:atemp>22.0</ns3:atemp>
          </ns3:TrackPointExtension>
        </extensions>
      </trkpt>
      <trkpt lat="42.59189330041408538818359375" lon="20.10097819380462169647216796875">
        <ele>1855.5999755859375</ele>
        <time>2026-06-15T09:04:48.000Z</time>
        <extensions>
          <ns3:TrackPointExtension>
            <ns3:atemp>22.0</ns3:atemp>
          </ns3:TrackPointExtension>
        </extensions>
      </trkpt>
      <trkpt lat="42.59189330041408538818359375" lon="20.10097819380462169647216796875">
        <ele>1855.5999755859375</ele>
        <time>2026-06-15T09:04:49.000Z</time>
        <extensions>
          <ns3:TrackPointExtension>
            <ns3:atemp>22.0</ns3:atemp>
          </ns3:TrackPointExtension>
        </extensions>
      </trkpt>
      <trkpt lat="42.59189330041408538818359375" lon="20.10097819380462169647216796875">
        <ele>1855.5999755859375</ele>
        <time>2026-06-15T09:04:50.000Z</time>
        <extensions>
          <ns3:TrackPointExtension>
            <ns3:atemp>22.0</ns3:atemp>
          </ns3:TrackPointExtension>
        </extensions>
      </trkpt>
      <trkpt lat="42.59189330041408538818359375" lon="20.10097819380462169647216796875">
        <ele>1855.5999755859375</ele>
        <time>2026-06-15T09:04:51.000Z</time>
        <extensions>
          <ns3:TrackPointExtension>
            <ns3:atemp>22.0</ns3:atemp>
          </ns3:TrackPointExtension>
        </extensions>
      </trkpt>
      <trkpt lat="42.59189330041408538818359375" lon="20.10097819380462169647216796875">
        <ele>1855.5999755859375</ele>
        <time>2026-06-15T09:04:52.000Z</time>
        <extensions>
          <ns3:TrackPointExtension>
            <ns3:atemp>22.0</ns3:atemp>
          </ns3:TrackPointExtension>
        </extensions>
      </trkpt>
      <trkpt lat="42.59189330041408538818359375" lon="20.10097819380462169647216796875">
        <ele>1855.5999755859375</ele>
        <time>2026-06-15T09:04:53.000Z</time>
        <extensions>
          <ns3:TrackPointExtension>
            <ns3:atemp>22.0</ns3:atemp>
          </ns3:TrackPointExtension>
        </extensions>
      </trkpt>
      <trkpt lat="42.59189330041408538818359375" lon="20.10097819380462169647216796875">
        <ele>1855.5999755859375</ele>
        <time>2026-06-15T09:04:54.000Z</time>
        <extensions>
          <ns3:TrackPointExtension>
            <ns3:atemp>22.0</ns3:atemp>
          </ns3:TrackPointExtension>
        </extensions>
      </trkpt>
      <trkpt lat="42.59189330041408538818359375" lon="20.10097819380462169647216796875">
        <ele>1855.5999755859375</ele>
        <time>2026-06-15T09:04:55.000Z</time>
        <extensions>
          <ns3:TrackPointExtension>
            <ns3:atemp>22.0</ns3:atemp>
          </ns3:TrackPointExtension>
        </extensions>
      </trkpt>
      <trkpt lat="42.59189330041408538818359375" lon="20.10097819380462169647216796875">
        <ele>1855.5999755859375</ele>
        <time>2026-06-15T09:04:56.000Z</time>
        <extensions>
          <ns3:TrackPointExtension>
            <ns3:atemp>22.0</ns3:atemp>
          </ns3:TrackPointExtension>
        </extensions>
      </trkpt>
      <trkpt lat="42.59189330041408538818359375" lon="20.10097819380462169647216796875">
        <ele>1855.5999755859375</ele>
        <time>2026-06-15T09:04:57.000Z</time>
        <extensions>
          <ns3:TrackPointExtension>
            <ns3:atemp>22.0</ns3:atemp>
          </ns3:TrackPointExtension>
        </extensions>
      </trkpt>
      <trkpt lat="42.59189330041408538818359375" lon="20.10097819380462169647216796875">
        <ele>1855.5999755859375</ele>
        <time>2026-06-15T09:04:58.000Z</time>
        <extensions>
          <ns3:TrackPointExtension>
            <ns3:atemp>22.0</ns3:atemp>
          </ns3:TrackPointExtension>
        </extensions>
      </trkpt>
      <trkpt lat="42.59189330041408538818359375" lon="20.10097819380462169647216796875">
        <ele>1855.5999755859375</ele>
        <time>2026-06-15T09:04:59.000Z</time>
        <extensions>
          <ns3:TrackPointExtension>
            <ns3:atemp>22.0</ns3:atemp>
          </ns3:TrackPointExtension>
        </extensions>
      </trkpt>
      <trkpt lat="42.59189330041408538818359375" lon="20.10097819380462169647216796875">
        <ele>1855.5999755859375</ele>
        <time>2026-06-15T09:05:00.000Z</time>
        <extensions>
          <ns3:TrackPointExtension>
            <ns3:atemp>22.0</ns3:atemp>
          </ns3:TrackPointExtension>
        </extensions>
      </trkpt>
      <trkpt lat="42.59189330041408538818359375" lon="20.10097819380462169647216796875">
        <ele>1855.5999755859375</ele>
        <time>2026-06-15T09:05:01.000Z</time>
        <extensions>
          <ns3:TrackPointExtension>
            <ns3:atemp>22.0</ns3:atemp>
          </ns3:TrackPointExtension>
        </extensions>
      </trkpt>
      <trkpt lat="42.59189330041408538818359375" lon="20.10097819380462169647216796875">
        <ele>1855.5999755859375</ele>
        <time>2026-06-15T09:05:02.000Z</time>
        <extensions>
          <ns3:TrackPointExtension>
            <ns3:atemp>22.0</ns3:atemp>
          </ns3:TrackPointExtension>
        </extensions>
      </trkpt>
      <trkpt lat="42.59189330041408538818359375" lon="20.10097819380462169647216796875">
        <ele>1855.5999755859375</ele>
        <time>2026-06-15T09:05:03.000Z</time>
        <extensions>
          <ns3:TrackPointExtension>
            <ns3:atemp>22.0</ns3:atemp>
          </ns3:TrackPointExtension>
        </extensions>
      </trkpt>
      <trkpt lat="42.59189330041408538818359375" lon="20.10097819380462169647216796875">
        <ele>1855.5999755859375</ele>
        <time>2026-06-15T09:05:04.000Z</time>
        <extensions>
          <ns3:TrackPointExtension>
            <ns3:atemp>22.0</ns3:atemp>
          </ns3:TrackPointExtension>
        </extensions>
      </trkpt>
      <trkpt lat="42.59189330041408538818359375" lon="20.10097819380462169647216796875">
        <ele>1855.5999755859375</ele>
        <time>2026-06-15T09:05:05.000Z</time>
        <extensions>
          <ns3:TrackPointExtension>
            <ns3:atemp>22.0</ns3:atemp>
          </ns3:TrackPointExtension>
        </extensions>
      </trkpt>
      <trkpt lat="42.59189330041408538818359375" lon="20.10097819380462169647216796875">
        <ele>1855.5999755859375</ele>
        <time>2026-06-15T09:05:06.000Z</time>
        <extensions>
          <ns3:TrackPointExtension>
            <ns3:atemp>22.0</ns3:atemp>
          </ns3:TrackPointExtension>
        </extensions>
      </trkpt>
      <trkpt lat="42.59189330041408538818359375" lon="20.10097819380462169647216796875">
        <ele>1855.5999755859375</ele>
        <time>2026-06-15T09:05:07.000Z</time>
        <extensions>
          <ns3:TrackPointExtension>
            <ns3:atemp>22.0</ns3:atemp>
          </ns3:TrackPointExtension>
        </extensions>
      </trkpt>
      <trkpt lat="42.59189330041408538818359375" lon="20.10097819380462169647216796875">
        <ele>1855.5999755859375</ele>
        <time>2026-06-15T09:05:08.000Z</time>
        <extensions>
          <ns3:TrackPointExtension>
            <ns3:atemp>22.0</ns3:atemp>
          </ns3:TrackPointExtension>
        </extensions>
      </trkpt>
      <trkpt lat="42.59189330041408538818359375" lon="20.10097819380462169647216796875">
        <ele>1855.5999755859375</ele>
        <time>2026-06-15T09:05:09.000Z</time>
        <extensions>
          <ns3:TrackPointExtension>
            <ns3:atemp>22.0</ns3:atemp>
          </ns3:TrackPointExtension>
        </extensions>
      </trkpt>
      <trkpt lat="42.59189330041408538818359375" lon="20.10097819380462169647216796875">
        <ele>1855.5999755859375</ele>
        <time>2026-06-15T09:05:10.000Z</time>
        <extensions>
          <ns3:TrackPointExtension>
            <ns3:atemp>22.0</ns3:atemp>
          </ns3:TrackPointExtension>
        </extensions>
      </trkpt>
      <trkpt lat="42.59189330041408538818359375" lon="20.10097819380462169647216796875">
        <ele>1855.5999755859375</ele>
        <time>2026-06-15T09:05:11.000Z</time>
        <extensions>
          <ns3:TrackPointExtension>
            <ns3:atemp>22.0</ns3:atemp>
          </ns3:TrackPointExtension>
        </extensions>
      </trkpt>
      <trkpt lat="42.59189330041408538818359375" lon="20.10097819380462169647216796875">
        <ele>1855.5999755859375</ele>
        <time>2026-06-15T09:05:12.000Z</time>
        <extensions>
          <ns3:TrackPointExtension>
            <ns3:atemp>22.0</ns3:atemp>
          </ns3:TrackPointExtension>
        </extensions>
      </trkpt>
      <trkpt lat="42.59189330041408538818359375" lon="20.10097819380462169647216796875">
        <ele>1855.5999755859375</ele>
        <time>2026-06-15T09:05:13.000Z</time>
        <extensions>
          <ns3:TrackPointExtension>
            <ns3:atemp>22.0</ns3:atemp>
          </ns3:TrackPointExtension>
        </extensions>
      </trkpt>
      <trkpt lat="42.59189330041408538818359375" lon="20.10097819380462169647216796875">
        <ele>1855.5999755859375</ele>
        <time>2026-06-15T09:05:14.000Z</time>
        <extensions>
          <ns3:TrackPointExtension>
            <ns3:atemp>22.0</ns3:atemp>
          </ns3:TrackPointExtension>
        </extensions>
      </trkpt>
      <trkpt lat="42.59189330041408538818359375" lon="20.10097819380462169647216796875">
        <ele>1855.5999755859375</ele>
        <time>2026-06-15T09:05:15.000Z</time>
        <extensions>
          <ns3:TrackPointExtension>
            <ns3:atemp>22.0</ns3:atemp>
          </ns3:TrackPointExtension>
        </extensions>
      </trkpt>
      <trkpt lat="42.59189330041408538818359375" lon="20.10097819380462169647216796875">
        <ele>1855.5999755859375</ele>
        <time>2026-06-15T09:05:16.000Z</time>
        <extensions>
          <ns3:TrackPointExtension>
            <ns3:atemp>22.0</ns3:atemp>
          </ns3:TrackPointExtension>
        </extensions>
      </trkpt>
      <trkpt lat="42.59189330041408538818359375" lon="20.10097819380462169647216796875">
        <ele>1855.5999755859375</ele>
        <time>2026-06-15T09:05:17.000Z</time>
        <extensions>
          <ns3:TrackPointExtension>
            <ns3:atemp>22.0</ns3:atemp>
          </ns3:TrackPointExtension>
        </extensions>
      </trkpt>
      <trkpt lat="42.59189330041408538818359375" lon="20.10097819380462169647216796875">
        <ele>1855.5999755859375</ele>
        <time>2026-06-15T09:05:18.000Z</time>
        <extensions>
          <ns3:TrackPointExtension>
            <ns3:atemp>22.0</ns3:atemp>
          </ns3:TrackPointExtension>
        </extensions>
      </trkpt>
      <trkpt lat="42.59189330041408538818359375" lon="20.10097819380462169647216796875">
        <ele>1855.5999755859375</ele>
        <time>2026-06-15T09:05:19.000Z</time>
        <extensions>
          <ns3:TrackPointExtension>
            <ns3:atemp>22.0</ns3:atemp>
          </ns3:TrackPointExtension>
        </extensions>
      </trkpt>
      <trkpt lat="42.59189330041408538818359375" lon="20.10097819380462169647216796875">
        <ele>1855.5999755859375</ele>
        <time>2026-06-15T09:05:20.000Z</time>
        <extensions>
          <ns3:TrackPointExtension>
            <ns3:atemp>22.0</ns3:atemp>
          </ns3:TrackPointExtension>
        </extensions>
      </trkpt>
      <trkpt lat="42.59189330041408538818359375" lon="20.10097819380462169647216796875">
        <ele>1855.5999755859375</ele>
        <time>2026-06-15T09:05:21.000Z</time>
        <extensions>
          <ns3:TrackPointExtension>
            <ns3:atemp>22.0</ns3:atemp>
          </ns3:TrackPointExtension>
        </extensions>
      </trkpt>
      <trkpt lat="42.59189330041408538818359375" lon="20.10097819380462169647216796875">
        <ele>1855.5999755859375</ele>
        <time>2026-06-15T09:05:22.000Z</time>
        <extensions>
          <ns3:TrackPointExtension>
            <ns3:atemp>22.0</ns3:atemp>
          </ns3:TrackPointExtension>
        </extensions>
      </trkpt>
      <trkpt lat="42.59189330041408538818359375" lon="20.10097819380462169647216796875">
        <ele>1855.5999755859375</ele>
        <time>2026-06-15T09:05:23.000Z</time>
        <extensions>
          <ns3:TrackPointExtension>
            <ns3:atemp>22.0</ns3:atemp>
          </ns3:TrackPointExtension>
        </extensions>
      </trkpt>
      <trkpt lat="42.59189330041408538818359375" lon="20.10097819380462169647216796875">
        <ele>1855.5999755859375</ele>
        <time>2026-06-15T09:05:24.000Z</time>
        <extensions>
          <ns3:TrackPointExtension>
            <ns3:atemp>22.0</ns3:atemp>
          </ns3:TrackPointExtension>
        </extensions>
      </trkpt>
      <trkpt lat="42.59189330041408538818359375" lon="20.10097819380462169647216796875">
        <ele>1855.5999755859375</ele>
        <time>2026-06-15T09:05:25.000Z</time>
        <extensions>
          <ns3:TrackPointExtension>
            <ns3:atemp>22.0</ns3:atemp>
          </ns3:TrackPointExtension>
        </extensions>
      </trkpt>
      <trkpt lat="42.59189330041408538818359375" lon="20.10097819380462169647216796875">
        <ele>1855.5999755859375</ele>
        <time>2026-06-15T09:05:26.000Z</time>
        <extensions>
          <ns3:TrackPointExtension>
            <ns3:atemp>22.0</ns3:atemp>
          </ns3:TrackPointExtension>
        </extensions>
      </trkpt>
      <trkpt lat="42.59189330041408538818359375" lon="20.10097819380462169647216796875">
        <ele>1855.5999755859375</ele>
        <time>2026-06-15T09:05:27.000Z</time>
        <extensions>
          <ns3:TrackPointExtension>
            <ns3:atemp>22.0</ns3:atemp>
          </ns3:TrackPointExtension>
        </extensions>
      </trkpt>
      <trkpt lat="42.59189330041408538818359375" lon="20.10097819380462169647216796875">
        <ele>1855.5999755859375</ele>
        <time>2026-06-15T09:05:28.000Z</time>
        <extensions>
          <ns3:TrackPointExtension>
            <ns3:atemp>22.0</ns3:atemp>
          </ns3:TrackPointExtension>
        </extensions>
      </trkpt>
      <trkpt lat="42.59189330041408538818359375" lon="20.10097819380462169647216796875">
        <ele>1855.5999755859375</ele>
        <time>2026-06-15T09:05:29.000Z</time>
        <extensions>
          <ns3:TrackPointExtension>
            <ns3:atemp>22.0</ns3:atemp>
          </ns3:TrackPointExtension>
        </extensions>
      </trkpt>
      <trkpt lat="42.59189330041408538818359375" lon="20.10097819380462169647216796875">
        <ele>1855.5999755859375</ele>
        <time>2026-06-15T09:05:30.000Z</time>
        <extensions>
          <ns3:TrackPointExtension>
            <ns3:atemp>22.0</ns3:atemp>
          </ns3:TrackPointExtension>
        </extensions>
      </trkpt>
      <trkpt lat="42.59189330041408538818359375" lon="20.10097819380462169647216796875">
        <ele>1855.5999755859375</ele>
        <time>2026-06-15T09:05:31.000Z</time>
        <extensions>
          <ns3:TrackPointExtension>
            <ns3:atemp>22.0</ns3:atemp>
          </ns3:TrackPointExtension>
        </extensions>
      </trkpt>
      <trkpt lat="42.59189330041408538818359375" lon="20.10097819380462169647216796875">
        <ele>1855.5999755859375</ele>
        <time>2026-06-15T09:05:32.000Z</time>
        <extensions>
          <ns3:TrackPointExtension>
            <ns3:atemp>22.0</ns3:atemp>
          </ns3:TrackPointExtension>
        </extensions>
      </trkpt>
      <trkpt lat="42.59189330041408538818359375" lon="20.10097819380462169647216796875">
        <ele>1855.5999755859375</ele>
        <time>2026-06-15T09:05:33.000Z</time>
        <extensions>
          <ns3:TrackPointExtension>
            <ns3:atemp>22.0</ns3:atemp>
          </ns3:TrackPointExtension>
        </extensions>
      </trkpt>
      <trkpt lat="42.59189330041408538818359375" lon="20.10097819380462169647216796875">
        <ele>1855.5999755859375</ele>
        <time>2026-06-15T09:05:34.000Z</time>
        <extensions>
          <ns3:TrackPointExtension>
            <ns3:atemp>22.0</ns3:atemp>
          </ns3:TrackPointExtension>
        </extensions>
      </trkpt>
      <trkpt lat="42.59189330041408538818359375" lon="20.10097819380462169647216796875">
        <ele>1855.5999755859375</ele>
        <time>2026-06-15T09:05:35.000Z</time>
        <extensions>
          <ns3:TrackPointExtension>
            <ns3:atemp>22.0</ns3:atemp>
          </ns3:TrackPointExtension>
        </extensions>
      </trkpt>
      <trkpt lat="42.59189330041408538818359375" lon="20.10097819380462169647216796875">
        <ele>1855.5999755859375</ele>
        <time>2026-06-15T09:05:36.000Z</time>
        <extensions>
          <ns3:TrackPointExtension>
            <ns3:atemp>22.0</ns3:atemp>
          </ns3:TrackPointExtension>
        </extensions>
      </trkpt>
      <trkpt lat="42.59189330041408538818359375" lon="20.10097819380462169647216796875">
        <ele>1855.5999755859375</ele>
        <time>2026-06-15T09:05:37.000Z</time>
        <extensions>
          <ns3:TrackPointExtension>
            <ns3:atemp>22.0</ns3:atemp>
          </ns3:TrackPointExtension>
        </extensions>
      </trkpt>
      <trkpt lat="42.59189330041408538818359375" lon="20.10097819380462169647216796875">
        <ele>1855.5999755859375</ele>
        <time>2026-06-15T09:05:38.000Z</time>
        <extensions>
          <ns3:TrackPointExtension>
            <ns3:atemp>22.0</ns3:atemp>
          </ns3:TrackPointExtension>
        </extensions>
      </trkpt>
      <trkpt lat="42.59189330041408538818359375" lon="20.10097819380462169647216796875">
        <ele>1855.5999755859375</ele>
        <time>2026-06-15T09:05:39.000Z</time>
        <extensions>
          <ns3:TrackPointExtension>
            <ns3:atemp>22.0</ns3:atemp>
          </ns3:TrackPointExtension>
        </extensions>
      </trkpt>
      <trkpt lat="42.59189330041408538818359375" lon="20.10097819380462169647216796875">
        <ele>1855.5999755859375</ele>
        <time>2026-06-15T09:05:40.000Z</time>
        <extensions>
          <ns3:TrackPointExtension>
            <ns3:atemp>22.0</ns3:atemp>
          </ns3:TrackPointExtension>
        </extensions>
      </trkpt>
      <trkpt lat="42.59189330041408538818359375" lon="20.10097819380462169647216796875">
        <ele>1855.5999755859375</ele>
        <time>2026-06-15T09:05:41.000Z</time>
        <extensions>
          <ns3:TrackPointExtension>
            <ns3:atemp>22.0</ns3:atemp>
          </ns3:TrackPointExtension>
        </extensions>
      </trkpt>
      <trkpt lat="42.59189330041408538818359375" lon="20.10097819380462169647216796875">
        <ele>1855.5999755859375</ele>
        <time>2026-06-15T09:05:42.000Z</time>
        <extensions>
          <ns3:TrackPointExtension>
            <ns3:atemp>22.0</ns3:atemp>
          </ns3:TrackPointExtension>
        </extensions>
      </trkpt>
      <trkpt lat="42.59189330041408538818359375" lon="20.10097819380462169647216796875">
        <ele>1855.5999755859375</ele>
        <time>2026-06-15T09:05:43.000Z</time>
        <extensions>
          <ns3:TrackPointExtension>
            <ns3:atemp>22.0</ns3:atemp>
          </ns3:TrackPointExtension>
        </extensions>
      </trkpt>
      <trkpt lat="42.59189330041408538818359375" lon="20.10097819380462169647216796875">
        <ele>1855.5999755859375</ele>
        <time>2026-06-15T09:05:44.000Z</time>
        <extensions>
          <ns3:TrackPointExtension>
            <ns3:atemp>22.0</ns3:atemp>
          </ns3:TrackPointExtension>
        </extensions>
      </trkpt>
      <trkpt lat="42.59189330041408538818359375" lon="20.10097819380462169647216796875">
        <ele>1855.5999755859375</ele>
        <time>2026-06-15T09:05:45.000Z</time>
        <extensions>
          <ns3:TrackPointExtension>
            <ns3:atemp>22.0</ns3:atemp>
          </ns3:TrackPointExtension>
        </extensions>
      </trkpt>
      <trkpt lat="42.59189330041408538818359375" lon="20.10097819380462169647216796875">
        <ele>1855.5999755859375</ele>
        <time>2026-06-15T09:05:46.000Z</time>
        <extensions>
          <ns3:TrackPointExtension>
            <ns3:atemp>22.0</ns3:atemp>
          </ns3:TrackPointExtension>
        </extensions>
      </trkpt>
      <trkpt lat="42.59189330041408538818359375" lon="20.10097819380462169647216796875">
        <ele>1855.5999755859375</ele>
        <time>2026-06-15T09:05:47.000Z</time>
        <extensions>
          <ns3:TrackPointExtension>
            <ns3:atemp>22.0</ns3:atemp>
          </ns3:TrackPointExtension>
        </extensions>
      </trkpt>
      <trkpt lat="42.59189330041408538818359375" lon="20.10097819380462169647216796875">
        <ele>1855.5999755859375</ele>
        <time>2026-06-15T09:05:48.000Z</time>
        <extensions>
          <ns3:TrackPointExtension>
            <ns3:atemp>22.0</ns3:atemp>
          </ns3:TrackPointExtension>
        </extensions>
      </trkpt>
      <trkpt lat="42.59189330041408538818359375" lon="20.10097819380462169647216796875">
        <ele>1855.5999755859375</ele>
        <time>2026-06-15T09:05:49.000Z</time>
        <extensions>
          <ns3:TrackPointExtension>
            <ns3:atemp>22.0</ns3:atemp>
          </ns3:TrackPointExtension>
        </extensions>
      </trkpt>
      <trkpt lat="42.59189330041408538818359375" lon="20.10097819380462169647216796875">
        <ele>1855.5999755859375</ele>
        <time>2026-06-15T09:05:50.000Z</time>
        <extensions>
          <ns3:TrackPointExtension>
            <ns3:atemp>22.0</ns3:atemp>
          </ns3:TrackPointExtension>
        </extensions>
      </trkpt>
      <trkpt lat="42.59189330041408538818359375" lon="20.10097819380462169647216796875">
        <ele>1855.5999755859375</ele>
        <time>2026-06-15T09:05:51.000Z</time>
        <extensions>
          <ns3:TrackPointExtension>
            <ns3:atemp>22.0</ns3:atemp>
          </ns3:TrackPointExtension>
        </extensions>
      </trkpt>
      <trkpt lat="42.59189330041408538818359375" lon="20.10097819380462169647216796875">
        <ele>1855.5999755859375</ele>
        <time>2026-06-15T09:05:52.000Z</time>
        <extensions>
          <ns3:TrackPointExtension>
            <ns3:atemp>22.0</ns3:atemp>
          </ns3:TrackPointExtension>
        </extensions>
      </trkpt>
      <trkpt lat="42.59189330041408538818359375" lon="20.10097819380462169647216796875">
        <ele>1855.5999755859375</ele>
        <time>2026-06-15T09:05:53.000Z</time>
        <extensions>
          <ns3:TrackPointExtension>
            <ns3:atemp>22.0</ns3:atemp>
          </ns3:TrackPointExtension>
        </extensions>
      </trkpt>
      <trkpt lat="42.59189330041408538818359375" lon="20.10097819380462169647216796875">
        <ele>1855.5999755859375</ele>
        <time>2026-06-15T09:05:54.000Z</time>
        <extensions>
          <ns3:TrackPointExtension>
            <ns3:atemp>22.0</ns3:atemp>
          </ns3:TrackPointExtension>
        </extensions>
      </trkpt>
      <trkpt lat="42.59189330041408538818359375" lon="20.10097819380462169647216796875">
        <ele>1855.5999755859375</ele>
        <time>2026-06-15T09:05:55.000Z</time>
        <extensions>
          <ns3:TrackPointExtension>
            <ns3:atemp>22.0</ns3:atemp>
          </ns3:TrackPointExtension>
        </extensions>
      </trkpt>
      <trkpt lat="42.59189330041408538818359375" lon="20.10097819380462169647216796875">
        <ele>1855.5999755859375</ele>
        <time>2026-06-15T09:05:56.000Z</time>
        <extensions>
          <ns3:TrackPointExtension>
            <ns3:atemp>22.0</ns3:atemp>
          </ns3:TrackPointExtension>
        </extensions>
      </trkpt>
      <trkpt lat="42.59189330041408538818359375" lon="20.10097819380462169647216796875">
        <ele>1855.5999755859375</ele>
        <time>2026-06-15T09:05:57.000Z</time>
        <extensions>
          <ns3:TrackPointExtension>
            <ns3:atemp>22.0</ns3:atemp>
          </ns3:TrackPointExtension>
        </extensions>
      </trkpt>
      <trkpt lat="42.59189330041408538818359375" lon="20.10097819380462169647216796875">
        <ele>1855.5999755859375</ele>
        <time>2026-06-15T09:05:58.000Z</time>
        <extensions>
          <ns3:TrackPointExtension>
            <ns3:atemp>22.0</ns3:atemp>
          </ns3:TrackPointExtension>
        </extensions>
      </trkpt>
      <trkpt lat="42.59189330041408538818359375" lon="20.10097819380462169647216796875">
        <ele>1855.5999755859375</ele>
        <time>2026-06-15T09:05:59.000Z</time>
        <extensions>
          <ns3:TrackPointExtension>
            <ns3:atemp>22.0</ns3:atemp>
          </ns3:TrackPointExtension>
        </extensions>
      </trkpt>
      <trkpt lat="42.59189330041408538818359375" lon="20.10097819380462169647216796875">
        <ele>1855.5999755859375</ele>
        <time>2026-06-15T09:06:00.000Z</time>
        <extensions>
          <ns3:TrackPointExtension>
            <ns3:atemp>22.0</ns3:atemp>
          </ns3:TrackPointExtension>
        </extensions>
      </trkpt>
      <trkpt lat="42.59189330041408538818359375" lon="20.10097819380462169647216796875">
        <ele>1855.5999755859375</ele>
        <time>2026-06-15T09:06:01.000Z</time>
        <extensions>
          <ns3:TrackPointExtension>
            <ns3:atemp>22.0</ns3:atemp>
          </ns3:TrackPointExtension>
        </extensions>
      </trkpt>
      <trkpt lat="42.59189330041408538818359375" lon="20.10097819380462169647216796875">
        <ele>1855.5999755859375</ele>
        <time>2026-06-15T09:06:02.000Z</time>
        <extensions>
          <ns3:TrackPointExtension>
            <ns3:atemp>22.0</ns3:atemp>
          </ns3:TrackPointExtension>
        </extensions>
      </trkpt>
      <trkpt lat="42.59189330041408538818359375" lon="20.10097819380462169647216796875">
        <ele>1855.5999755859375</ele>
        <time>2026-06-15T09:06:03.000Z</time>
        <extensions>
          <ns3:TrackPointExtension>
            <ns3:atemp>22.0</ns3:atemp>
          </ns3:TrackPointExtension>
        </extensions>
      </trkpt>
      <trkpt lat="42.59189330041408538818359375" lon="20.10097819380462169647216796875">
        <ele>1855.5999755859375</ele>
        <time>2026-06-15T09:06:04.000Z</time>
        <extensions>
          <ns3:TrackPointExtension>
            <ns3:atemp>22.0</ns3:atemp>
          </ns3:TrackPointExtension>
        </extensions>
      </trkpt>
      <trkpt lat="42.59189330041408538818359375" lon="20.10097819380462169647216796875">
        <ele>1855.5999755859375</ele>
        <time>2026-06-15T09:06:05.000Z</time>
        <extensions>
          <ns3:TrackPointExtension>
            <ns3:atemp>22.0</ns3:atemp>
          </ns3:TrackPointExtension>
        </extensions>
      </trkpt>
      <trkpt lat="42.59189330041408538818359375" lon="20.10097819380462169647216796875">
        <ele>1855.5999755859375</ele>
        <time>2026-06-15T09:06:06.000Z</time>
        <extensions>
          <ns3:TrackPointExtension>
            <ns3:atemp>22.0</ns3:atemp>
          </ns3:TrackPointExtension>
        </extensions>
      </trkpt>
      <trkpt lat="42.59189330041408538818359375" lon="20.10097819380462169647216796875">
        <ele>1855.5999755859375</ele>
        <time>2026-06-15T09:06:07.000Z</time>
        <extensions>
          <ns3:TrackPointExtension>
            <ns3:atemp>22.0</ns3:atemp>
          </ns3:TrackPointExtension>
        </extensions>
      </trkpt>
      <trkpt lat="42.59189330041408538818359375" lon="20.10097819380462169647216796875">
        <ele>1855.5999755859375</ele>
        <time>2026-06-15T09:06:08.000Z</time>
        <extensions>
          <ns3:TrackPointExtension>
            <ns3:atemp>22.0</ns3:atemp>
          </ns3:TrackPointExtension>
        </extensions>
      </trkpt>
      <trkpt lat="42.59189330041408538818359375" lon="20.10097819380462169647216796875">
        <ele>1855.5999755859375</ele>
        <time>2026-06-15T09:06:09.000Z</time>
        <extensions>
          <ns3:TrackPointExtension>
            <ns3:atemp>22.0</ns3:atemp>
          </ns3:TrackPointExtension>
        </extensions>
      </trkpt>
      <trkpt lat="42.59189330041408538818359375" lon="20.10097819380462169647216796875">
        <ele>1855.5999755859375</ele>
        <time>2026-06-15T09:06:10.000Z</time>
        <extensions>
          <ns3:TrackPointExtension>
            <ns3:atemp>22.0</ns3:atemp>
          </ns3:TrackPointExtension>
        </extensions>
      </trkpt>
      <trkpt lat="42.59189330041408538818359375" lon="20.10097819380462169647216796875">
        <ele>1855.5999755859375</ele>
        <time>2026-06-15T09:06:11.000Z</time>
        <extensions>
          <ns3:TrackPointExtension>
            <ns3:atemp>22.0</ns3:atemp>
          </ns3:TrackPointExtension>
        </extensions>
      </trkpt>
      <trkpt lat="42.59189330041408538818359375" lon="20.10097819380462169647216796875">
        <ele>1855.5999755859375</ele>
        <time>2026-06-15T09:06:12.000Z</time>
        <extensions>
          <ns3:TrackPointExtension>
            <ns3:atemp>22.0</ns3:atemp>
          </ns3:TrackPointExtension>
        </extensions>
      </trkpt>
      <trkpt lat="42.59189330041408538818359375" lon="20.10097819380462169647216796875">
        <ele>1855.5999755859375</ele>
        <time>2026-06-15T09:06:13.000Z</time>
        <extensions>
          <ns3:TrackPointExtension>
            <ns3:atemp>22.0</ns3:atemp>
          </ns3:TrackPointExtension>
        </extensions>
      </trkpt>
      <trkpt lat="42.59189330041408538818359375" lon="20.10097819380462169647216796875">
        <ele>1855.5999755859375</ele>
        <time>2026-06-15T09:06:14.000Z</time>
        <extensions>
          <ns3:TrackPointExtension>
            <ns3:atemp>22.0</ns3:atemp>
          </ns3:TrackPointExtension>
        </extensions>
      </trkpt>
      <trkpt lat="42.59189330041408538818359375" lon="20.10097819380462169647216796875">
        <ele>1855.5999755859375</ele>
        <time>2026-06-15T09:06:15.000Z</time>
        <extensions>
          <ns3:TrackPointExtension>
            <ns3:atemp>22.0</ns3:atemp>
          </ns3:TrackPointExtension>
        </extensions>
      </trkpt>
      <trkpt lat="42.59189330041408538818359375" lon="20.10097819380462169647216796875">
        <ele>1855.5999755859375</ele>
        <time>2026-06-15T09:06:16.000Z</time>
        <extensions>
          <ns3:TrackPointExtension>
            <ns3:atemp>22.0</ns3:atemp>
          </ns3:TrackPointExtension>
        </extensions>
      </trkpt>
      <trkpt lat="42.59189330041408538818359375" lon="20.10097819380462169647216796875">
        <ele>1855.5999755859375</ele>
        <time>2026-06-15T09:06:17.000Z</time>
        <extensions>
          <ns3:TrackPointExtension>
            <ns3:atemp>22.0</ns3:atemp>
          </ns3:TrackPointExtension>
        </extensions>
      </trkpt>
      <trkpt lat="42.59189330041408538818359375" lon="20.10097819380462169647216796875">
        <ele>1855.5999755859375</ele>
        <time>2026-06-15T09:06:18.000Z</time>
        <extensions>
          <ns3:TrackPointExtension>
            <ns3:atemp>22.0</ns3:atemp>
          </ns3:TrackPointExtension>
        </extensions>
      </trkpt>
      <trkpt lat="42.59189330041408538818359375" lon="20.10097819380462169647216796875">
        <ele>1855.5999755859375</ele>
        <time>2026-06-15T09:06:19.000Z</time>
        <extensions>
          <ns3:TrackPointExtension>
            <ns3:atemp>22.0</ns3:atemp>
          </ns3:TrackPointExtension>
        </extensions>
      </trkpt>
      <trkpt lat="42.59189330041408538818359375" lon="20.10097819380462169647216796875">
        <ele>1855.5999755859375</ele>
        <time>2026-06-15T09:06:20.000Z</time>
        <extensions>
          <ns3:TrackPointExtension>
            <ns3:atemp>22.0</ns3:atemp>
          </ns3:TrackPointExtension>
        </extensions>
      </trkpt>
      <trkpt lat="42.59189330041408538818359375" lon="20.10097819380462169647216796875">
        <ele>1855.5999755859375</ele>
        <time>2026-06-15T09:06:21.000Z</time>
        <extensions>
          <ns3:TrackPointExtension>
            <ns3:atemp>22.0</ns3:atemp>
          </ns3:TrackPointExtension>
        </extensions>
      </trkpt>
      <trkpt lat="42.59189330041408538818359375" lon="20.10097819380462169647216796875">
        <ele>1855.5999755859375</ele>
        <time>2026-06-15T09:06:22.000Z</time>
        <extensions>
          <ns3:TrackPointExtension>
            <ns3:atemp>22.0</ns3:atemp>
          </ns3:TrackPointExtension>
        </extensions>
      </trkpt>
      <trkpt lat="42.59189330041408538818359375" lon="20.10097819380462169647216796875">
        <ele>1855.5999755859375</ele>
        <time>2026-06-15T09:06:23.000Z</time>
        <extensions>
          <ns3:TrackPointExtension>
            <ns3:atemp>22.0</ns3:atemp>
          </ns3:TrackPointExtension>
        </extensions>
      </trkpt>
      <trkpt lat="42.59189330041408538818359375" lon="20.10097819380462169647216796875">
        <ele>1855.5999755859375</ele>
        <time>2026-06-15T09:06:24.000Z</time>
        <extensions>
          <ns3:TrackPointExtension>
            <ns3:atemp>22.0</ns3:atemp>
          </ns3:TrackPointExtension>
        </extensions>
      </trkpt>
      <trkpt lat="42.59189330041408538818359375" lon="20.10097819380462169647216796875">
        <ele>1855.5999755859375</ele>
        <time>2026-06-15T09:06:25.000Z</time>
        <extensions>
          <ns3:TrackPointExtension>
            <ns3:atemp>22.0</ns3:atemp>
          </ns3:TrackPointExtension>
        </extensions>
      </trkpt>
      <trkpt lat="42.59189330041408538818359375" lon="20.10097819380462169647216796875">
        <ele>1855.5999755859375</ele>
        <time>2026-06-15T09:06:26.000Z</time>
        <extensions>
          <ns3:TrackPointExtension>
            <ns3:atemp>22.0</ns3:atemp>
          </ns3:TrackPointExtension>
        </extensions>
      </trkpt>
      <trkpt lat="42.59189330041408538818359375" lon="20.10097819380462169647216796875">
        <ele>1855.5999755859375</ele>
        <time>2026-06-15T09:06:27.000Z</time>
        <extensions>
          <ns3:TrackPointExtension>
            <ns3:atemp>22.0</ns3:atemp>
          </ns3:TrackPointExtension>
        </extensions>
      </trkpt>
      <trkpt lat="42.59189330041408538818359375" lon="20.10097819380462169647216796875">
        <ele>1855.5999755859375</ele>
        <time>2026-06-15T09:06:28.000Z</time>
        <extensions>
          <ns3:TrackPointExtension>
            <ns3:atemp>22.0</ns3:atemp>
          </ns3:TrackPointExtension>
        </extensions>
      </trkpt>
      <trkpt lat="42.59189330041408538818359375" lon="20.10097819380462169647216796875">
        <ele>1855.5999755859375</ele>
        <time>2026-06-15T09:06:29.000Z</time>
        <extensions>
          <ns3:TrackPointExtension>
            <ns3:atemp>22.0</ns3:atemp>
          </ns3:TrackPointExtension>
        </extensions>
      </trkpt>
      <trkpt lat="42.59189330041408538818359375" lon="20.10097819380462169647216796875">
        <ele>1855.5999755859375</ele>
        <time>2026-06-15T09:06:30.000Z</time>
        <extensions>
          <ns3:TrackPointExtension>
            <ns3:atemp>22.0</ns3:atemp>
          </ns3:TrackPointExtension>
        </extensions>
      </trkpt>
      <trkpt lat="42.59189330041408538818359375" lon="20.10097819380462169647216796875">
        <ele>1855.5999755859375</ele>
        <time>2026-06-15T09:06:31.000Z</time>
        <extensions>
          <ns3:TrackPointExtension>
            <ns3:atemp>22.0</ns3:atemp>
          </ns3:TrackPointExtension>
        </extensions>
      </trkpt>
      <trkpt lat="42.59189330041408538818359375" lon="20.10097819380462169647216796875">
        <ele>1855.5999755859375</ele>
        <time>2026-06-15T09:06:32.000Z</time>
        <extensions>
          <ns3:TrackPointExtension>
            <ns3:atemp>22.0</ns3:atemp>
          </ns3:TrackPointExtension>
        </extensions>
      </trkpt>
      <trkpt lat="42.59189330041408538818359375" lon="20.10097819380462169647216796875">
        <ele>1855.5999755859375</ele>
        <time>2026-06-15T09:06:33.000Z</time>
        <extensions>
          <ns3:TrackPointExtension>
            <ns3:atemp>22.0</ns3:atemp>
          </ns3:TrackPointExtension>
        </extensions>
      </trkpt>
      <trkpt lat="42.59189330041408538818359375" lon="20.10097819380462169647216796875">
        <ele>1855.5999755859375</ele>
        <time>2026-06-15T09:06:34.000Z</time>
        <extensions>
          <ns3:TrackPointExtension>
            <ns3:atemp>22.0</ns3:atemp>
          </ns3:TrackPointExtension>
        </extensions>
      </trkpt>
      <trkpt lat="42.59189330041408538818359375" lon="20.10097819380462169647216796875">
        <ele>1855.5999755859375</ele>
        <time>2026-06-15T09:06:35.000Z</time>
        <extensions>
          <ns3:TrackPointExtension>
            <ns3:atemp>22.0</ns3:atemp>
          </ns3:TrackPointExtension>
        </extensions>
      </trkpt>
      <trkpt lat="42.59189330041408538818359375" lon="20.10097819380462169647216796875">
        <ele>1855.5999755859375</ele>
        <time>2026-06-15T09:06:36.000Z</time>
        <extensions>
          <ns3:TrackPointExtension>
            <ns3:atemp>22.0</ns3:atemp>
          </ns3:TrackPointExtension>
        </extensions>
      </trkpt>
      <trkpt lat="42.59189330041408538818359375" lon="20.10097819380462169647216796875">
        <ele>1855.5999755859375</ele>
        <time>2026-06-15T09:06:37.000Z</time>
        <extensions>
          <ns3:TrackPointExtension>
            <ns3:atemp>22.0</ns3:atemp>
          </ns3:TrackPointExtension>
        </extensions>
      </trkpt>
      <trkpt lat="42.59189330041408538818359375" lon="20.10097819380462169647216796875">
        <ele>1855.5999755859375</ele>
        <time>2026-06-15T09:06:38.000Z</time>
        <extensions>
          <ns3:TrackPointExtension>
            <ns3:atemp>22.0</ns3:atemp>
          </ns3:TrackPointExtension>
        </extensions>
      </trkpt>
      <trkpt lat="42.59189330041408538818359375" lon="20.10097819380462169647216796875">
        <ele>1855.5999755859375</ele>
        <time>2026-06-15T09:06:39.000Z</time>
        <extensions>
          <ns3:TrackPointExtension>
            <ns3:atemp>22.0</ns3:atemp>
          </ns3:TrackPointExtension>
        </extensions>
      </trkpt>
      <trkpt lat="42.59189330041408538818359375" lon="20.10097819380462169647216796875">
        <ele>1855.5999755859375</ele>
        <time>2026-06-15T09:06:40.000Z</time>
        <extensions>
          <ns3:TrackPointExtension>
            <ns3:atemp>22.0</ns3:atemp>
          </ns3:TrackPointExtension>
        </extensions>
      </trkpt>
      <trkpt lat="42.59189330041408538818359375" lon="20.10097819380462169647216796875">
        <ele>1855.5999755859375</ele>
        <time>2026-06-15T09:06:41.000Z</time>
        <extensions>
          <ns3:TrackPointExtension>
            <ns3:atemp>22.0</ns3:atemp>
          </ns3:TrackPointExtension>
        </extensions>
      </trkpt>
      <trkpt lat="42.59189330041408538818359375" lon="20.10097819380462169647216796875">
        <ele>1855.5999755859375</ele>
        <time>2026-06-15T09:06:42.000Z</time>
        <extensions>
          <ns3:TrackPointExtension>
            <ns3:atemp>22.0</ns3:atemp>
          </ns3:TrackPointExtension>
        </extensions>
      </trkpt>
      <trkpt lat="42.59189330041408538818359375" lon="20.10097819380462169647216796875">
        <ele>1855.5999755859375</ele>
        <time>2026-06-15T09:06:43.000Z</time>
        <extensions>
          <ns3:TrackPointExtension>
            <ns3:atemp>22.0</ns3:atemp>
          </ns3:TrackPointExtension>
        </extensions>
      </trkpt>
      <trkpt lat="42.59189330041408538818359375" lon="20.10097819380462169647216796875">
        <ele>1855.5999755859375</ele>
        <time>2026-06-15T09:06:44.000Z</time>
        <extensions>
          <ns3:TrackPointExtension>
            <ns3:atemp>22.0</ns3:atemp>
          </ns3:TrackPointExtension>
        </extensions>
      </trkpt>
      <trkpt lat="42.59189330041408538818359375" lon="20.10097819380462169647216796875">
        <ele>1855.5999755859375</ele>
        <time>2026-06-15T09:06:45.000Z</time>
        <extensions>
          <ns3:TrackPointExtension>
            <ns3:atemp>22.0</ns3:atemp>
          </ns3:TrackPointExtension>
        </extensions>
      </trkpt>
      <trkpt lat="42.59189330041408538818359375" lon="20.10097819380462169647216796875">
        <ele>1855.5999755859375</ele>
        <time>2026-06-15T09:06:46.000Z</time>
        <extensions>
          <ns3:TrackPointExtension>
            <ns3:atemp>22.0</ns3:atemp>
          </ns3:TrackPointExtension>
        </extensions>
      </trkpt>
      <trkpt lat="42.59189330041408538818359375" lon="20.10097819380462169647216796875">
        <ele>1855.5999755859375</ele>
        <time>2026-06-15T09:06:47.000Z</time>
        <extensions>
          <ns3:TrackPointExtension>
            <ns3:atemp>22.0</ns3:atemp>
          </ns3:TrackPointExtension>
        </extensions>
      </trkpt>
      <trkpt lat="42.59189330041408538818359375" lon="20.10097819380462169647216796875">
        <ele>1855.5999755859375</ele>
        <time>2026-06-15T09:06:48.000Z</time>
        <extensions>
          <ns3:TrackPointExtension>
            <ns3:atemp>22.0</ns3:atemp>
          </ns3:TrackPointExtension>
        </extensions>
      </trkpt>
      <trkpt lat="42.59189330041408538818359375" lon="20.10097819380462169647216796875">
        <ele>1855.5999755859375</ele>
        <time>2026-06-15T09:06:49.000Z</time>
        <extensions>
          <ns3:TrackPointExtension>
            <ns3:atemp>22.0</ns3:atemp>
          </ns3:TrackPointExtension>
        </extensions>
      </trkpt>
      <trkpt lat="42.59189330041408538818359375" lon="20.10097819380462169647216796875">
        <ele>1855.5999755859375</ele>
        <time>2026-06-15T09:06:50.000Z</time>
        <extensions>
          <ns3:TrackPointExtension>
            <ns3:atemp>22.0</ns3:atemp>
          </ns3:TrackPointExtension>
        </extensions>
      </trkpt>
      <trkpt lat="42.59189330041408538818359375" lon="20.10097819380462169647216796875">
        <ele>1855.5999755859375</ele>
        <time>2026-06-15T09:06:51.000Z</time>
        <extensions>
          <ns3:TrackPointExtension>
            <ns3:atemp>22.0</ns3:atemp>
          </ns3:TrackPointExtension>
        </extensions>
      </trkpt>
      <trkpt lat="42.59189330041408538818359375" lon="20.10097819380462169647216796875">
        <ele>1855.5999755859375</ele>
        <time>2026-06-15T09:06:52.000Z</time>
        <extensions>
          <ns3:TrackPointExtension>
            <ns3:atemp>22.0</ns3:atemp>
          </ns3:TrackPointExtension>
        </extensions>
      </trkpt>
      <trkpt lat="42.59189330041408538818359375" lon="20.10097819380462169647216796875">
        <ele>1855.5999755859375</ele>
        <time>2026-06-15T09:06:53.000Z</time>
        <extensions>
          <ns3:TrackPointExtension>
            <ns3:atemp>22.0</ns3:atemp>
          </ns3:TrackPointExtension>
        </extensions>
      </trkpt>
      <trkpt lat="42.59189330041408538818359375" lon="20.10097819380462169647216796875">
        <ele>1855.5999755859375</ele>
        <time>2026-06-15T09:06:54.000Z</time>
        <extensions>
          <ns3:TrackPointExtension>
            <ns3:atemp>22.0</ns3:atemp>
          </ns3:TrackPointExtension>
        </extensions>
      </trkpt>
      <trkpt lat="42.59189330041408538818359375" lon="20.10097819380462169647216796875">
        <ele>1855.5999755859375</ele>
        <time>2026-06-15T09:06:55.000Z</time>
        <extensions>
          <ns3:TrackPointExtension>
            <ns3:atemp>22.0</ns3:atemp>
          </ns3:TrackPointExtension>
        </extensions>
      </trkpt>
      <trkpt lat="42.59189330041408538818359375" lon="20.10097819380462169647216796875">
        <ele>1855.5999755859375</ele>
        <time>2026-06-15T09:06:56.000Z</time>
        <extensions>
          <ns3:TrackPointExtension>
            <ns3:atemp>22.0</ns3:atemp>
          </ns3:TrackPointExtension>
        </extensions>
      </trkpt>
      <trkpt lat="42.59189330041408538818359375" lon="20.10097819380462169647216796875">
        <ele>1855.5999755859375</ele>
        <time>2026-06-15T09:06:57.000Z</time>
        <extensions>
          <ns3:TrackPointExtension>
            <ns3:atemp>22.0</ns3:atemp>
          </ns3:TrackPointExtension>
        </extensions>
      </trkpt>
      <trkpt lat="42.59189330041408538818359375" lon="20.10097819380462169647216796875">
        <ele>1855.5999755859375</ele>
        <time>2026-06-15T09:06:58.000Z</time>
        <extensions>
          <ns3:TrackPointExtension>
            <ns3:atemp>22.0</ns3:atemp>
          </ns3:TrackPointExtension>
        </extensions>
      </trkpt>
      <trkpt lat="42.59189330041408538818359375" lon="20.10097819380462169647216796875">
        <ele>1855.5999755859375</ele>
        <time>2026-06-15T09:06:59.000Z</time>
        <extensions>
          <ns3:TrackPointExtension>
            <ns3:atemp>22.0</ns3:atemp>
          </ns3:TrackPointExtension>
        </extensions>
      </trkpt>
      <trkpt lat="42.59189330041408538818359375" lon="20.10097819380462169647216796875">
        <ele>1855.5999755859375</ele>
        <time>2026-06-15T09:07:00.000Z</time>
        <extensions>
          <ns3:TrackPointExtension>
            <ns3:atemp>22.0</ns3:atemp>
          </ns3:TrackPointExtension>
        </extensions>
      </trkpt>
      <trkpt lat="42.59189330041408538818359375" lon="20.10097819380462169647216796875">
        <ele>1855.5999755859375</ele>
        <time>2026-06-15T09:07:01.000Z</time>
        <extensions>
          <ns3:TrackPointExtension>
            <ns3:atemp>22.0</ns3:atemp>
          </ns3:TrackPointExtension>
        </extensions>
      </trkpt>
      <trkpt lat="42.59189330041408538818359375" lon="20.10097819380462169647216796875">
        <ele>1855.5999755859375</ele>
        <time>2026-06-15T09:07:02.000Z</time>
        <extensions>
          <ns3:TrackPointExtension>
            <ns3:atemp>22.0</ns3:atemp>
          </ns3:TrackPointExtension>
        </extensions>
      </trkpt>
      <trkpt lat="42.59189330041408538818359375" lon="20.10097819380462169647216796875">
        <ele>1855.5999755859375</ele>
        <time>2026-06-15T09:07:03.000Z</time>
        <extensions>
          <ns3:TrackPointExtension>
            <ns3:atemp>22.0</ns3:atemp>
          </ns3:TrackPointExtension>
        </extensions>
      </trkpt>
      <trkpt lat="42.59189330041408538818359375" lon="20.10097819380462169647216796875">
        <ele>1855.5999755859375</ele>
        <time>2026-06-15T09:07:04.000Z</time>
        <extensions>
          <ns3:TrackPointExtension>
            <ns3:atemp>22.0</ns3:atemp>
          </ns3:TrackPointExtension>
        </extensions>
      </trkpt>
      <trkpt lat="42.59189330041408538818359375" lon="20.10097819380462169647216796875">
        <ele>1855.5999755859375</ele>
        <time>2026-06-15T09:07:05.000Z</time>
        <extensions>
          <ns3:TrackPointExtension>
            <ns3:atemp>22.0</ns3:atemp>
          </ns3:TrackPointExtension>
        </extensions>
      </trkpt>
      <trkpt lat="42.59189330041408538818359375" lon="20.10097819380462169647216796875">
        <ele>1855.5999755859375</ele>
        <time>2026-06-15T09:07:06.000Z</time>
        <extensions>
          <ns3:TrackPointExtension>
            <ns3:atemp>22.0</ns3:atemp>
          </ns3:TrackPointExtension>
        </extensions>
      </trkpt>
      <trkpt lat="42.59189330041408538818359375" lon="20.10097819380462169647216796875">
        <ele>1855.5999755859375</ele>
        <time>2026-06-15T09:07:07.000Z</time>
        <extensions>
          <ns3:TrackPointExtension>
            <ns3:atemp>22.0</ns3:atemp>
          </ns3:TrackPointExtension>
        </extensions>
      </trkpt>
      <trkpt lat="42.59189330041408538818359375" lon="20.10097819380462169647216796875">
        <ele>1855.5999755859375</ele>
        <time>2026-06-15T09:07:08.000Z</time>
        <extensions>
          <ns3:TrackPointExtension>
            <ns3:atemp>22.0</ns3:atemp>
          </ns3:TrackPointExtension>
        </extensions>
      </trkpt>
      <trkpt lat="42.59189330041408538818359375" lon="20.10097819380462169647216796875">
        <ele>1855.5999755859375</ele>
        <time>2026-06-15T09:07:09.000Z</time>
        <extensions>
          <ns3:TrackPointExtension>
            <ns3:atemp>22.0</ns3:atemp>
          </ns3:TrackPointExtension>
        </extensions>
      </trkpt>
      <trkpt lat="42.59189330041408538818359375" lon="20.10097819380462169647216796875">
        <ele>1855.5999755859375</ele>
        <time>2026-06-15T09:07:10.000Z</time>
        <extensions>
          <ns3:TrackPointExtension>
            <ns3:atemp>22.0</ns3:atemp>
          </ns3:TrackPointExtension>
        </extensions>
      </trkpt>
      <trkpt lat="42.59189330041408538818359375" lon="20.10097819380462169647216796875">
        <ele>1855.5999755859375</ele>
        <time>2026-06-15T09:07:11.000Z</time>
        <extensions>
          <ns3:TrackPointExtension>
            <ns3:atemp>22.0</ns3:atemp>
          </ns3:TrackPointExtension>
        </extensions>
      </trkpt>
      <trkpt lat="42.59189330041408538818359375" lon="20.10097819380462169647216796875">
        <ele>1855.5999755859375</ele>
        <time>2026-06-15T09:07:12.000Z</time>
        <extensions>
          <ns3:TrackPointExtension>
            <ns3:atemp>22.0</ns3:atemp>
          </ns3:TrackPointExtension>
        </extensions>
      </trkpt>
      <trkpt lat="42.59189330041408538818359375" lon="20.10097819380462169647216796875">
        <ele>1855.5999755859375</ele>
        <time>2026-06-15T09:07:13.000Z</time>
        <extensions>
          <ns3:TrackPointExtension>
            <ns3:atemp>22.0</ns3:atemp>
          </ns3:TrackPointExtension>
        </extensions>
      </trkpt>
      <trkpt lat="42.59189330041408538818359375" lon="20.10097819380462169647216796875">
        <ele>1855.5999755859375</ele>
        <time>2026-06-15T09:07:14.000Z</time>
        <extensions>
          <ns3:TrackPointExtension>
            <ns3:atemp>22.0</ns3:atemp>
          </ns3:TrackPointExtension>
        </extensions>
      </trkpt>
      <trkpt lat="42.59189330041408538818359375" lon="20.10097819380462169647216796875">
        <ele>1855.5999755859375</ele>
        <time>2026-06-15T09:07:15.000Z</time>
        <extensions>
          <ns3:TrackPointExtension>
            <ns3:atemp>22.0</ns3:atemp>
          </ns3:TrackPointExtension>
        </extensions>
      </trkpt>
      <trkpt lat="42.59189330041408538818359375" lon="20.10097819380462169647216796875">
        <ele>1855.5999755859375</ele>
        <time>2026-06-15T09:07:16.000Z</time>
        <extensions>
          <ns3:TrackPointExtension>
            <ns3:atemp>22.0</ns3:atemp>
          </ns3:TrackPointExtension>
        </extensions>
      </trkpt>
      <trkpt lat="42.59189330041408538818359375" lon="20.10097819380462169647216796875">
        <ele>1855.5999755859375</ele>
        <time>2026-06-15T09:07:17.000Z</time>
        <extensions>
          <ns3:TrackPointExtension>
            <ns3:atemp>22.0</ns3:atemp>
          </ns3:TrackPointExtension>
        </extensions>
      </trkpt>
      <trkpt lat="42.59189330041408538818359375" lon="20.10097819380462169647216796875">
        <ele>1855.5999755859375</ele>
        <time>2026-06-15T09:07:18.000Z</time>
        <extensions>
          <ns3:TrackPointExtension>
            <ns3:atemp>22.0</ns3:atemp>
          </ns3:TrackPointExtension>
        </extensions>
      </trkpt>
      <trkpt lat="42.59189330041408538818359375" lon="20.10097819380462169647216796875">
        <ele>1855.5999755859375</ele>
        <time>2026-06-15T09:07:19.000Z</time>
        <extensions>
          <ns3:TrackPointExtension>
            <ns3:atemp>22.0</ns3:atemp>
          </ns3:TrackPointExtension>
        </extensions>
      </trkpt>
      <trkpt lat="42.59189330041408538818359375" lon="20.10097819380462169647216796875">
        <ele>1855.5999755859375</ele>
        <time>2026-06-15T09:07:20.000Z</time>
        <extensions>
          <ns3:TrackPointExtension>
            <ns3:atemp>22.0</ns3:atemp>
          </ns3:TrackPointExtension>
        </extensions>
      </trkpt>
      <trkpt lat="42.59189330041408538818359375" lon="20.10097819380462169647216796875">
        <ele>1855.5999755859375</ele>
        <time>2026-06-15T09:07:21.000Z</time>
        <extensions>
          <ns3:TrackPointExtension>
            <ns3:atemp>22.0</ns3:atemp>
          </ns3:TrackPointExtension>
        </extensions>
      </trkpt>
      <trkpt lat="42.59189330041408538818359375" lon="20.10097819380462169647216796875">
        <ele>1855.5999755859375</ele>
        <time>2026-06-15T09:07:22.000Z</time>
        <extensions>
          <ns3:TrackPointExtension>
            <ns3:atemp>22.0</ns3:atemp>
          </ns3:TrackPointExtension>
        </extensions>
      </trkpt>
      <trkpt lat="42.59189330041408538818359375" lon="20.10097819380462169647216796875">
        <ele>1855.5999755859375</ele>
        <time>2026-06-15T09:07:23.000Z</time>
        <extensions>
          <ns3:TrackPointExtension>
            <ns3:atemp>22.0</ns3:atemp>
          </ns3:TrackPointExtension>
        </extensions>
      </trkpt>
      <trkpt lat="42.59189330041408538818359375" lon="20.10097819380462169647216796875">
        <ele>1855.5999755859375</ele>
        <time>2026-06-15T09:07:24.000Z</time>
        <extensions>
          <ns3:TrackPointExtension>
            <ns3:atemp>22.0</ns3:atemp>
          </ns3:TrackPointExtension>
        </extensions>
      </trkpt>
      <trkpt lat="42.59189330041408538818359375" lon="20.10097819380462169647216796875">
        <ele>1855.5999755859375</ele>
        <time>2026-06-15T09:07:25.000Z</time>
        <extensions>
          <ns3:TrackPointExtension>
            <ns3:atemp>22.0</ns3:atemp>
          </ns3:TrackPointExtension>
        </extensions>
      </trkpt>
      <trkpt lat="42.59189330041408538818359375" lon="20.10097819380462169647216796875">
        <ele>1855.5999755859375</ele>
        <time>2026-06-15T09:07:26.000Z</time>
        <extensions>
          <ns3:TrackPointExtension>
            <ns3:atemp>22.0</ns3:atemp>
          </ns3:TrackPointExtension>
        </extensions>
      </trkpt>
      <trkpt lat="42.59189330041408538818359375" lon="20.10097819380462169647216796875">
        <ele>1855.5999755859375</ele>
        <time>2026-06-15T09:07:27.000Z</time>
        <extensions>
          <ns3:TrackPointExtension>
            <ns3:atemp>22.0</ns3:atemp>
          </ns3:TrackPointExtension>
        </extensions>
      </trkpt>
      <trkpt lat="42.59189330041408538818359375" lon="20.10097819380462169647216796875">
        <ele>1855.5999755859375</ele>
        <time>2026-06-15T09:07:28.000Z</time>
        <extensions>
          <ns3:TrackPointExtension>
            <ns3:atemp>22.0</ns3:atemp>
          </ns3:TrackPointExtension>
        </extensions>
      </trkpt>
      <trkpt lat="42.59189330041408538818359375" lon="20.10097819380462169647216796875">
        <ele>1855.5999755859375</ele>
        <time>2026-06-15T09:07:29.000Z</time>
        <extensions>
          <ns3:TrackPointExtension>
            <ns3:atemp>22.0</ns3:atemp>
          </ns3:TrackPointExtension>
        </extensions>
      </trkpt>
      <trkpt lat="42.59189330041408538818359375" lon="20.10097819380462169647216796875">
        <ele>1855.5999755859375</ele>
        <time>2026-06-15T09:07:30.000Z</time>
        <extensions>
          <ns3:TrackPointExtension>
            <ns3:atemp>22.0</ns3:atemp>
          </ns3:TrackPointExtension>
        </extensions>
      </trkpt>
      <trkpt lat="42.59189330041408538818359375" lon="20.10097819380462169647216796875">
        <ele>1855.5999755859375</ele>
        <time>2026-06-15T09:07:31.000Z</time>
        <extensions>
          <ns3:TrackPointExtension>
            <ns3:atemp>22.0</ns3:atemp>
          </ns3:TrackPointExtension>
        </extensions>
      </trkpt>
      <trkpt lat="42.59189330041408538818359375" lon="20.10097819380462169647216796875">
        <ele>1855.5999755859375</ele>
        <time>2026-06-15T09:07:32.000Z</time>
        <extensions>
          <ns3:TrackPointExtension>
            <ns3:atemp>22.0</ns3:atemp>
          </ns3:TrackPointExtension>
        </extensions>
      </trkpt>
      <trkpt lat="42.59189330041408538818359375" lon="20.10097819380462169647216796875">
        <ele>1855.5999755859375</ele>
        <time>2026-06-15T09:07:33.000Z</time>
        <extensions>
          <ns3:TrackPointExtension>
            <ns3:atemp>22.0</ns3:atemp>
          </ns3:TrackPointExtension>
        </extensions>
      </trkpt>
      <trkpt lat="42.59189330041408538818359375" lon="20.10097819380462169647216796875">
        <ele>1855.5999755859375</ele>
        <time>2026-06-15T09:07:34.000Z</time>
        <extensions>
          <ns3:TrackPointExtension>
            <ns3:atemp>22.0</ns3:atemp>
          </ns3:TrackPointExtension>
        </extensions>
      </trkpt>
      <trkpt lat="42.59189330041408538818359375" lon="20.10097819380462169647216796875">
        <ele>1855.5999755859375</ele>
        <time>2026-06-15T09:07:35.000Z</time>
        <extensions>
          <ns3:TrackPointExtension>
            <ns3:atemp>22.0</ns3:atemp>
          </ns3:TrackPointExtension>
        </extensions>
      </trkpt>
      <trkpt lat="42.59189330041408538818359375" lon="20.10097819380462169647216796875">
        <ele>1855.5999755859375</ele>
        <time>2026-06-15T09:07:36.000Z</time>
        <extensions>
          <ns3:TrackPointExtension>
            <ns3:atemp>22.0</ns3:atemp>
          </ns3:TrackPointExtension>
        </extensions>
      </trkpt>
      <trkpt lat="42.591886930167675018310546875" lon="20.1009853184223175048828125">
        <ele>1855.5999755859375</ele>
        <time>2026-06-15T09:07:37.000Z</time>
        <extensions>
          <ns3:TrackPointExtension>
            <ns3:atemp>22.0</ns3:atemp>
          </ns3:TrackPointExtension>
        </extensions>
      </trkpt>
      <trkpt lat="42.59189330041408538818359375" lon="20.10097819380462169647216796875">
        <ele>1855.5999755859375</ele>
        <time>2026-06-15T09:07:38.000Z</time>
        <extensions>
          <ns3:TrackPointExtension>
            <ns3:atemp>22.0</ns3:atemp>
          </ns3:TrackPointExtension>
        </extensions>
      </trkpt>
      <trkpt lat="42.59188801981508731842041015625" lon="20.10097852908074855804443359375">
        <ele>1855.5999755859375</ele>
        <time>2026-06-15T09:07:39.000Z</time>
        <extensions>
          <ns3:TrackPointExtension>
            <ns3:atemp>22.0</ns3:atemp>
          </ns3:TrackPointExtension>
        </extensions>
      </trkpt>
      <trkpt lat="42.59189330041408538818359375" lon="20.10097819380462169647216796875">
        <ele>1855.5999755859375</ele>
        <time>2026-06-15T09:07:40.000Z</time>
        <extensions>
          <ns3:TrackPointExtension>
            <ns3:atemp>22.0</ns3:atemp>
          </ns3:TrackPointExtension>
        </extensions>
      </trkpt>
      <trkpt lat="42.59189330041408538818359375" lon="20.10097819380462169647216796875">
        <ele>1855.5999755859375</ele>
        <time>2026-06-15T09:07:41.000Z</time>
        <extensions>
          <ns3:TrackPointExtension>
            <ns3:atemp>22.0</ns3:atemp>
          </ns3:TrackPointExtension>
        </extensions>
      </trkpt>
      <trkpt lat="42.59189330041408538818359375" lon="20.10097819380462169647216796875">
        <ele>1855.5999755859375</ele>
        <time>2026-06-15T09:07:42.000Z</time>
        <extensions>
          <ns3:TrackPointExtension>
            <ns3:atemp>22.0</ns3:atemp>
          </ns3:TrackPointExtension>
        </extensions>
      </trkpt>
      <trkpt lat="42.59189330041408538818359375" lon="20.10097819380462169647216796875">
        <ele>1855.5999755859375</ele>
        <time>2026-06-15T09:07:43.000Z</time>
        <extensions>
          <ns3:TrackPointExtension>
            <ns3:atemp>22.0</ns3:atemp>
          </ns3:TrackPointExtension>
        </extensions>
      </trkpt>
      <trkpt lat="42.59189330041408538818359375" lon="20.10097819380462169647216796875">
        <ele>1855.5999755859375</ele>
        <time>2026-06-15T09:07:44.000Z</time>
        <extensions>
          <ns3:TrackPointExtension>
            <ns3:atemp>22.0</ns3:atemp>
          </ns3:TrackPointExtension>
        </extensions>
      </trkpt>
      <trkpt lat="42.59189330041408538818359375" lon="20.10097819380462169647216796875">
        <ele>1855.5999755859375</ele>
        <time>2026-06-15T09:07:45.000Z</time>
        <extensions>
          <ns3:TrackPointExtension>
            <ns3:atemp>22.0</ns3:atemp>
          </ns3:TrackPointExtension>
        </extensions>
      </trkpt>
      <trkpt lat="42.59189330041408538818359375" lon="20.10097819380462169647216796875">
        <ele>1855.5999755859375</ele>
        <time>2026-06-15T09:07:46.000Z</time>
        <extensions>
          <ns3:TrackPointExtension>
            <ns3:atemp>22.0</ns3:atemp>
          </ns3:TrackPointExtension>
        </extensions>
      </trkpt>
      <trkpt lat="42.59189330041408538818359375" lon="20.10097819380462169647216796875">
        <ele>1855.5999755859375</ele>
        <time>2026-06-15T09:07:47.000Z</time>
        <extensions>
          <ns3:TrackPointExtension>
            <ns3:atemp>22.0</ns3:atemp>
          </ns3:TrackPointExtension>
        </extensions>
      </trkpt>
      <trkpt lat="42.59189330041408538818359375" lon="20.10097819380462169647216796875">
        <ele>1855.5999755859375</ele>
        <time>2026-06-15T09:07:48.000Z</time>
        <extensions>
          <ns3:TrackPointExtension>
            <ns3:atemp>22.0</ns3:atemp>
          </ns3:TrackPointExtension>
        </extensions>
      </trkpt>
      <trkpt lat="42.59189330041408538818359375" lon="20.10097819380462169647216796875">
        <ele>1855.5999755859375</ele>
        <time>2026-06-15T09:07:49.000Z</time>
        <extensions>
          <ns3:TrackPointExtension>
            <ns3:atemp>22.0</ns3:atemp>
          </ns3:TrackPointExtension>
        </extensions>
      </trkpt>
      <trkpt lat="42.59189330041408538818359375" lon="20.10097819380462169647216796875">
        <ele>1855.5999755859375</ele>
        <time>2026-06-15T09:07:50.000Z</time>
        <extensions>
          <ns3:TrackPointExtension>
            <ns3:atemp>22.0</ns3:atemp>
          </ns3:TrackPointExtension>
        </extensions>
      </trkpt>
      <trkpt lat="42.59189330041408538818359375" lon="20.10097819380462169647216796875">
        <ele>1855.5999755859375</ele>
        <time>2026-06-15T09:07:51.000Z</time>
        <extensions>
          <ns3:TrackPointExtension>
            <ns3:atemp>22.0</ns3:atemp>
          </ns3:TrackPointExtension>
        </extensions>
      </trkpt>
      <trkpt lat="42.59189330041408538818359375" lon="20.10097819380462169647216796875">
        <ele>1855.5999755859375</ele>
        <time>2026-06-15T09:07:52.000Z</time>
        <extensions>
          <ns3:TrackPointExtension>
            <ns3:atemp>22.0</ns3:atemp>
          </ns3:TrackPointExtension>
        </extensions>
      </trkpt>
      <trkpt lat="42.59189330041408538818359375" lon="20.10097819380462169647216796875">
        <ele>1855.5999755859375</ele>
        <time>2026-06-15T09:07:53.000Z</time>
        <extensions>
          <ns3:TrackPointExtension>
            <ns3:atemp>22.0</ns3:atemp>
          </ns3:TrackPointExtension>
        </extensions>
      </trkpt>
      <trkpt lat="42.59189330041408538818359375" lon="20.10097819380462169647216796875">
        <ele>1855.5999755859375</ele>
        <time>2026-06-15T09:07:54.000Z</time>
        <extensions>
          <ns3:TrackPointExtension>
            <ns3:atemp>22.0</ns3:atemp>
          </ns3:TrackPointExtension>
        </extensions>
      </trkpt>
      <trkpt lat="42.59189330041408538818359375" lon="20.10097819380462169647216796875">
        <ele>1855.5999755859375</ele>
        <time>2026-06-15T09:07:55.000Z</time>
        <extensions>
          <ns3:TrackPointExtension>
            <ns3:atemp>22.0</ns3:atemp>
          </ns3:TrackPointExtension>
        </extensions>
      </trkpt>
      <trkpt lat="42.59189120493829250335693359375" lon="20.10097132064402103424072265625">
        <ele>1855.5999755859375</ele>
        <time>2026-06-15T09:07:56.000Z</time>
        <extensions>
          <ns3:TrackPointExtension>
            <ns3:atemp>22.0</ns3:atemp>
          </ns3:TrackPointExtension>
        </extensions>
      </trkpt>
      <trkpt lat="42.5918897800147533416748046875" lon="20.100970901548862457275390625">
        <ele>1855.5999755859375</ele>
        <time>2026-06-15T09:07:57.000Z</time>
        <extensions>
          <ns3:TrackPointExtension>
            <ns3:atemp>22.0</ns3:atemp>
          </ns3:TrackPointExtension>
        </extensions>
      </trkpt>
      <trkpt lat="42.59189330041408538818359375" lon="20.10097819380462169647216796875">
        <ele>1855.5999755859375</ele>
        <time>2026-06-15T09:07:58.000Z</time>
        <extensions>
          <ns3:TrackPointExtension>
            <ns3:atemp>22.0</ns3:atemp>
          </ns3:TrackPointExtension>
        </extensions>
      </trkpt>
      <trkpt lat="42.59188919328153133392333984375" lon="20.10096989572048187255859375">
        <ele>1855.5999755859375</ele>
        <time>2026-06-15T09:07:59.000Z</time>
        <extensions>
          <ns3:TrackPointExtension>
            <ns3:atemp>22.0</ns3:atemp>
          </ns3:TrackPointExtension>
        </extensions>
      </trkpt>
      <trkpt lat="42.5918891094624996185302734375" lon="20.1009584963321685791015625">
        <ele>1855.5999755859375</ele>
        <time>2026-06-15T09:08:00.000Z</time>
        <extensions>
          <ns3:TrackPointExtension>
            <ns3:atemp>22.0</ns3:atemp>
          </ns3:TrackPointExtension>
        </extensions>
      </trkpt>
      <trkpt lat="42.591886930167675018310546875" lon="20.10093930177390575408935546875">
        <ele>1855.5999755859375</ele>
        <time>2026-06-15T09:08:01.000Z</time>
        <extensions>
          <ns3:TrackPointExtension>
            <ns3:atemp>22.0</ns3:atemp>
          </ns3:TrackPointExtension>
        </extensions>
      </trkpt>
      <trkpt lat="42.59189103730022907257080078125" lon="20.10091465897858142852783203125">
        <ele>1855.5999755859375</ele>
        <time>2026-06-15T09:08:02.000Z</time>
        <extensions>
          <ns3:TrackPointExtension>
            <ns3:atemp>22.0</ns3:atemp>
          </ns3:TrackPointExtension>
        </extensions>
      </trkpt>
      <trkpt lat="42.59190059266984462738037109375" lon="20.10089118964970111846923828125">
        <ele>1855.5999755859375</ele>
        <time>2026-06-15T09:08:03.000Z</time>
        <extensions>
          <ns3:TrackPointExtension>
            <ns3:atemp>22.0</ns3:atemp>
          </ns3:TrackPointExtension>
        </extensions>
      </trkpt>
      <trkpt lat="42.59191014803946018218994140625" lon="20.1008674688637256622314453125">
        <ele>1855.5999755859375</ele>
        <time>2026-06-15T09:08:04.000Z</time>
        <extensions>
          <ns3:TrackPointExtension>
            <ns3:atemp>22.0</ns3:atemp>
          </ns3:TrackPointExtension>
        </extensions>
      </trkpt>
      <trkpt lat="42.591919787228107452392578125" lon="20.10084341280162334442138671875">
        <ele>1855.5999755859375</ele>
        <time>2026-06-15T09:08:05.000Z</time>
        <extensions>
          <ns3:TrackPointExtension>
            <ns3:atemp>22.0</ns3:atemp>
          </ns3:TrackPointExtension>
        </extensions>
      </trkpt>
      <trkpt lat="42.59192674420773983001708984375" lon="20.1008217036724090576171875">
        <ele>1856</ele>
        <time>2026-06-15T09:08:06.000Z</time>
        <extensions>
          <ns3:TrackPointExtension>
            <ns3:atemp>22.0</ns3:atemp>
          </ns3:TrackPointExtension>
        </extensions>
      </trkpt>
      <trkpt lat="42.591931186616420745849609375" lon="20.10080234147608280181884765625">
        <ele>1856.199951171875</ele>
        <time>2026-06-15T09:08:07.000Z</time>
        <extensions>
          <ns3:TrackPointExtension>
            <ns3:atemp>22.0</ns3:atemp>
          </ns3:TrackPointExtension>
        </extensions>
      </trkpt>
      <trkpt lat="42.591931186616420745849609375" lon="20.10077702812850475311279296875">
        <ele>1856.199951171875</ele>
        <time>2026-06-15T09:08:08.000Z</time>
        <extensions>
          <ns3:TrackPointExtension>
            <ns3:atemp>22.0</ns3:atemp>
          </ns3:TrackPointExtension>
        </extensions>
      </trkpt>
      <trkpt lat="42.59193487465381622314453125" lon="20.10075054131448268890380859375">
        <ele>1856.4000244140625</ele>
        <time>2026-06-15T09:08:09.000Z</time>
        <extensions>
          <ns3:TrackPointExtension>
            <ns3:atemp>22.0</ns3:atemp>
          </ns3:TrackPointExtension>
        </extensions>
      </trkpt>
      <trkpt lat="42.5919382274150848388671875" lon="20.1007229648530483245849609375">
        <ele>1856.5999755859375</ele>
        <time>2026-06-15T09:08:10.000Z</time>
        <extensions>
          <ns3:TrackPointExtension>
            <ns3:atemp>22.0</ns3:atemp>
          </ns3:TrackPointExtension>
        </extensions>
      </trkpt>
      <trkpt lat="42.59194158017635345458984375" lon="20.10069656185805797576904296875">
        <ele>1856.5999755859375</ele>
        <time>2026-06-15T09:08:11.000Z</time>
        <extensions>
          <ns3:TrackPointExtension>
            <ns3:atemp>22.0</ns3:atemp>
          </ns3:TrackPointExtension>
        </extensions>
      </trkpt>
      <trkpt lat="42.591945938766002655029296875" lon="20.1006693206727504730224609375">
        <ele>1856.5999755859375</ele>
        <time>2026-06-15T09:08:12.000Z</time>
        <extensions>
          <ns3:TrackPointExtension>
            <ns3:atemp>22.0</ns3:atemp>
          </ns3:TrackPointExtension>
        </extensions>
      </trkpt>
      <trkpt lat="42.59194904007017612457275390625" lon="20.10064375586807727813720703125">
        <ele>1856.800048828125</ele>
        <time>2026-06-15T09:08:13.000Z</time>
        <extensions>
          <ns3:TrackPointExtension>
            <ns3:atemp>22.0</ns3:atemp>
          </ns3:TrackPointExtension>
        </extensions>
      </trkpt>
      <trkpt lat="42.59195608086884021759033203125" lon="20.1006178557872772216796875">
        <ele>1857</ele>
        <time>2026-06-15T09:08:14.000Z</time>
        <extensions>
          <ns3:TrackPointExtension>
            <ns3:atemp>22.0</ns3:atemp>
          </ns3:TrackPointExtension>
        </extensions>
      </trkpt>
      <trkpt lat="42.59196094237267971038818359375" lon="20.10059312917292118072509765625">
        <ele>1857.199951171875</ele>
        <time>2026-06-15T09:08:15.000Z</time>
        <extensions>
          <ns3:TrackPointExtension>
            <ns3:atemp>22.0</ns3:atemp>
          </ns3:TrackPointExtension>
        </extensions>
      </trkpt>
      <trkpt lat="42.59196395985782146453857421875" lon="20.10056647472083568572998046875">
        <ele>1857.4000244140625</ele>
        <time>2026-06-15T09:08:16.000Z</time>
        <extensions>
          <ns3:TrackPointExtension>
            <ns3:atemp>22.0</ns3:atemp>
          </ns3:TrackPointExtension>
        </extensions>
      </trkpt>
      <trkpt lat="42.59196865372359752655029296875" lon="20.10054283775389194488525390625">
        <ele>1857.800048828125</ele>
        <time>2026-06-15T09:08:17.000Z</time>
        <extensions>
          <ns3:TrackPointExtension>
            <ns3:atemp>22.0</ns3:atemp>
          </ns3:TrackPointExtension>
        </extensions>
      </trkpt>
      <trkpt lat="42.59197644889354705810546875" lon="20.100522972643375396728515625">
        <ele>1858</ele>
        <time>2026-06-15T09:08:18.000Z</time>
        <extensions>
          <ns3:TrackPointExtension>
            <ns3:atemp>22.0</ns3:atemp>
          </ns3:TrackPointExtension>
        </extensions>
      </trkpt>
      <trkpt lat="42.591985166072845458984375" lon="20.10050092823803424835205078125">
        <ele>1858.199951171875</ele>
        <time>2026-06-15T09:08:19.000Z</time>
        <extensions>
          <ns3:TrackPointExtension>
            <ns3:atemp>22.0</ns3:atemp>
          </ns3:TrackPointExtension>
        </extensions>
      </trkpt>
      <trkpt lat="42.59199195541441440582275390625" lon="20.1004810631275177001953125">
        <ele>1858.4000244140625</ele>
        <time>2026-06-15T09:08:20.000Z</time>
        <extensions>
          <ns3:TrackPointExtension>
            <ns3:atemp>22.0</ns3:atemp>
          </ns3:TrackPointExtension>
        </extensions>
      </trkpt>
      <trkpt lat="42.592000253498554229736328125" lon="20.10046371258795261383056640625">
        <ele>1858.800048828125</ele>
        <time>2026-06-15T09:08:21.000Z</time>
        <extensions>
          <ns3:TrackPointExtension>
            <ns3:atemp>22.0</ns3:atemp>
          </ns3:TrackPointExtension>
        </extensions>
      </trkpt>
      <trkpt lat="42.59200855158269405364990234375" lon="20.1004433445632457733154296875">
        <ele>1858.800048828125</ele>
        <time>2026-06-15T09:08:22.000Z</time>
        <extensions>
          <ns3:TrackPointExtension>
            <ns3:atemp>22.0</ns3:atemp>
          </ns3:TrackPointExtension>
        </extensions>
      </trkpt>
      <trkpt lat="42.5920171849429607391357421875" lon="20.1004279218614101409912109375">
        <ele>1859</ele>
        <time>2026-06-15T09:08:23.000Z</time>
        <extensions>
          <ns3:TrackPointExtension>
            <ns3:atemp>22.0</ns3:atemp>
          </ns3:TrackPointExtension>
        </extensions>
      </trkpt>
      <trkpt lat="42.5920285843312740325927734375" lon="20.10041392408311367034912109375">
        <ele>1859</ele>
        <time>2026-06-15T09:08:24.000Z</time>
        <extensions>
          <ns3:TrackPointExtension>
            <ns3:atemp>22.0</ns3:atemp>
          </ns3:TrackPointExtension>
        </extensions>
      </trkpt>
      <trkpt lat="42.59203939698636531829833984375" lon="20.10040252469480037689208984375">
        <ele>1859.199951171875</ele>
        <time>2026-06-15T09:08:25.000Z</time>
        <extensions>
          <ns3:TrackPointExtension>
            <ns3:atemp>22.0</ns3:atemp>
          </ns3:TrackPointExtension>
        </extensions>
      </trkpt>
      <trkpt lat="42.592049874365329742431640625" lon="20.10038995184004306793212890625">
        <ele>1859.4000244140625</ele>
        <time>2026-06-15T09:08:26.000Z</time>
        <extensions>
          <ns3:TrackPointExtension>
            <ns3:atemp>22.0</ns3:atemp>
          </ns3:TrackPointExtension>
        </extensions>
      </trkpt>
      <trkpt lat="42.5920611061155796051025390625" lon="20.10038140229880809783935546875">
        <ele>1859.5999755859375</ele>
        <time>2026-06-15T09:08:27.000Z</time>
        <extensions>
          <ns3:TrackPointExtension>
            <ns3:atemp>22.0</ns3:atemp>
          </ns3:TrackPointExtension>
        </extensions>
      </trkpt>
      <trkpt lat="42.59207443334162235260009765625" lon="20.10037570260465145111083984375">
        <ele>1859.800048828125</ele>
        <time>2026-06-15T09:08:28.000Z</time>
        <extensions>
          <ns3:TrackPointExtension>
            <ns3:atemp>22.0</ns3:atemp>
          </ns3:TrackPointExtension>
        </extensions>
      </trkpt>
      <trkpt lat="42.592084072530269622802734375" lon="20.10036505758762359619140625">
        <ele>1860.199951171875</ele>
        <time>2026-06-15T09:08:29.000Z</time>
        <extensions>
          <ns3:TrackPointExtension>
            <ns3:atemp>22.0</ns3:atemp>
          </ns3:TrackPointExtension>
        </extensions>
      </trkpt>
      <trkpt lat="42.59207979775965213775634765625" lon="20.10036480613052845001220703125">
        <ele>1860.4000244140625</ele>
        <time>2026-06-15T09:08:30.000Z</time>
        <extensions>
          <ns3:TrackPointExtension>
            <ns3:atemp>22.0</ns3:atemp>
          </ns3:TrackPointExtension>
        </extensions>
      </trkpt>
      <trkpt lat="42.59207979775965213775634765625" lon="20.100364722311496734619140625">
        <ele>1860.5999755859375</ele>
        <time>2026-06-15T09:08:31.000Z</time>
        <extensions>
          <ns3:TrackPointExtension>
            <ns3:atemp>22.0</ns3:atemp>
          </ns3:TrackPointExtension>
        </extensions>
      </trkpt>
      <trkpt lat="42.59208130650222301483154296875" lon="20.10035910643637180328369140625">
        <ele>1860.800048828125</ele>
        <time>2026-06-15T09:08:32.000Z</time>
        <extensions>
          <ns3:TrackPointExtension>
            <ns3:atemp>22.0</ns3:atemp>
          </ns3:TrackPointExtension>
        </extensions>
      </trkpt>
      <trkpt lat="42.59208130650222301483154296875" lon="20.10035910643637180328369140625">
        <ele>1861</ele>
        <time>2026-06-15T09:08:33.000Z</time>
        <extensions>
          <ns3:TrackPointExtension>
            <ns3:atemp>22.0</ns3:atemp>
          </ns3:TrackPointExtension>
        </extensions>
      </trkpt>
      <trkpt lat="42.59208130650222301483154296875" lon="20.10035910643637180328369140625">
        <ele>1861</ele>
        <time>2026-06-15T09:08:34.000Z</time>
        <extensions>
          <ns3:TrackPointExtension>
            <ns3:atemp>22.0</ns3:atemp>
          </ns3:TrackPointExtension>
        </extensions>
      </trkpt>
      <trkpt lat="42.59208130650222301483154296875" lon="20.10035910643637180328369140625">
        <ele>1861</ele>
        <time>2026-06-15T09:08:35.000Z</time>
        <extensions>
          <ns3:TrackPointExtension>
            <ns3:atemp>22.0</ns3:atemp>
          </ns3:TrackPointExtension>
        </extensions>
      </trkpt>
      <trkpt lat="42.59208130650222301483154296875" lon="20.10035910643637180328369140625">
        <ele>1860.800048828125</ele>
        <time>2026-06-15T09:08:36.000Z</time>
        <extensions>
          <ns3:TrackPointExtension>
            <ns3:atemp>22.0</ns3:atemp>
          </ns3:TrackPointExtension>
        </extensions>
      </trkpt>
      <trkpt lat="42.59208130650222301483154296875" lon="20.10035910643637180328369140625">
        <ele>1860.800048828125</ele>
        <time>2026-06-15T09:08:37.000Z</time>
        <extensions>
          <ns3:TrackPointExtension>
            <ns3:atemp>22.0</ns3:atemp>
          </ns3:TrackPointExtension>
        </extensions>
      </trkpt>
      <trkpt lat="42.59208130650222301483154296875" lon="20.10035910643637180328369140625">
        <ele>1860.5999755859375</ele>
        <time>2026-06-15T09:08:38.000Z</time>
        <extensions>
          <ns3:TrackPointExtension>
            <ns3:atemp>22.0</ns3:atemp>
          </ns3:TrackPointExtension>
        </extensions>
      </trkpt>
      <trkpt lat="42.59208130650222301483154296875" lon="20.10035910643637180328369140625">
        <ele>1860.5999755859375</ele>
        <time>2026-06-15T09:08:39.000Z</time>
        <extensions>
          <ns3:TrackPointExtension>
            <ns3:atemp>22.0</ns3:atemp>
          </ns3:TrackPointExtension>
        </extensions>
      </trkpt>
      <trkpt lat="42.59208130650222301483154296875" lon="20.10035910643637180328369140625">
        <ele>1860.5999755859375</ele>
        <time>2026-06-15T09:08:40.000Z</time>
        <extensions>
          <ns3:TrackPointExtension>
            <ns3:atemp>22.0</ns3:atemp>
          </ns3:TrackPointExtension>
        </extensions>
      </trkpt>
      <trkpt lat="42.59208130650222301483154296875" lon="20.10035910643637180328369140625">
        <ele>1860.5999755859375</ele>
        <time>2026-06-15T09:08:41.000Z</time>
        <extensions>
          <ns3:TrackPointExtension>
            <ns3:atemp>22.0</ns3:atemp>
          </ns3:TrackPointExtension>
        </extensions>
      </trkpt>
      <trkpt lat="42.59208130650222301483154296875" lon="20.10035910643637180328369140625">
        <ele>1860.5999755859375</ele>
        <time>2026-06-15T09:08:42.000Z</time>
        <extensions>
          <ns3:TrackPointExtension>
            <ns3:atemp>22.0</ns3:atemp>
          </ns3:TrackPointExtension>
        </extensions>
      </trkpt>
      <trkpt lat="42.59208130650222301483154296875" lon="20.10035910643637180328369140625">
        <ele>1860.4000244140625</ele>
        <time>2026-06-15T09:08:43.000Z</time>
        <extensions>
          <ns3:TrackPointExtension>
            <ns3:atemp>22.0</ns3:atemp>
          </ns3:TrackPointExtension>
        </extensions>
      </trkpt>
      <trkpt lat="42.59208130650222301483154296875" lon="20.10035910643637180328369140625">
        <ele>1860.4000244140625</ele>
        <time>2026-06-15T09:08:44.000Z</time>
        <extensions>
          <ns3:TrackPointExtension>
            <ns3:atemp>22.0</ns3:atemp>
          </ns3:TrackPointExtension>
        </extensions>
      </trkpt>
      <trkpt lat="42.59208130650222301483154296875" lon="20.10035910643637180328369140625">
        <ele>1860.4000244140625</ele>
        <time>2026-06-15T09:08:45.000Z</time>
        <extensions>
          <ns3:TrackPointExtension>
            <ns3:atemp>22.0</ns3:atemp>
          </ns3:TrackPointExtension>
        </extensions>
      </trkpt>
      <trkpt lat="42.59208130650222301483154296875" lon="20.10035910643637180328369140625">
        <ele>1860.4000244140625</ele>
        <time>2026-06-15T09:08:46.000Z</time>
        <extensions>
          <ns3:TrackPointExtension>
            <ns3:atemp>22.0</ns3:atemp>
          </ns3:TrackPointExtension>
        </extensions>
      </trkpt>
      <trkpt lat="42.59208130650222301483154296875" lon="20.10035910643637180328369140625">
        <ele>1860.4000244140625</ele>
        <time>2026-06-15T09:08:47.000Z</time>
        <extensions>
          <ns3:TrackPointExtension>
            <ns3:atemp>22.0</ns3:atemp>
          </ns3:TrackPointExtension>
        </extensions>
      </trkpt>
      <trkpt lat="42.59208130650222301483154296875" lon="20.10035910643637180328369140625">
        <ele>1860.4000244140625</ele>
        <time>2026-06-15T09:08:48.000Z</time>
        <extensions>
          <ns3:TrackPointExtension>
            <ns3:atemp>22.0</ns3:atemp>
          </ns3:TrackPointExtension>
        </extensions>
      </trkpt>
      <trkpt lat="42.59208130650222301483154296875" lon="20.10035910643637180328369140625">
        <ele>1860.4000244140625</ele>
        <time>2026-06-15T09:08:49.000Z</time>
        <extensions>
          <ns3:TrackPointExtension>
            <ns3:atemp>22.0</ns3:atemp>
          </ns3:TrackPointExtension>
        </extensions>
      </trkpt>
      <trkpt lat="42.59208130650222301483154296875" lon="20.10035910643637180328369140625">
        <ele>1860.4000244140625</ele>
        <time>2026-06-15T09:08:50.000Z</time>
        <extensions>
          <ns3:TrackPointExtension>
            <ns3:atemp>22.0</ns3:atemp>
          </ns3:TrackPointExtension>
        </extensions>
      </trkpt>
      <trkpt lat="42.59208130650222301483154296875" lon="20.10035910643637180328369140625">
        <ele>1860.4000244140625</ele>
        <time>2026-06-15T09:08:51.000Z</time>
        <extensions>
          <ns3:TrackPointExtension>
            <ns3:atemp>21.0</ns3:atemp>
          </ns3:TrackPointExtension>
        </extensions>
      </trkpt>
      <trkpt lat="42.59208130650222301483154296875" lon="20.10035910643637180328369140625">
        <ele>1860.199951171875</ele>
        <time>2026-06-15T09:08:52.000Z</time>
        <extensions>
          <ns3:TrackPointExtension>
            <ns3:atemp>21.0</ns3:atemp>
          </ns3:TrackPointExtension>
        </extensions>
      </trkpt>
      <trkpt lat="42.59208130650222301483154296875" lon="20.10035910643637180328369140625">
        <ele>1860.199951171875</ele>
        <time>2026-06-15T09:08:53.000Z</time>
        <extensions>
          <ns3:TrackPointExtension>
            <ns3:atemp>21.0</ns3:atemp>
          </ns3:TrackPointExtension>
        </extensions>
      </trkpt>
      <trkpt lat="42.59208130650222301483154296875" lon="20.10035910643637180328369140625">
        <ele>1860.199951171875</ele>
        <time>2026-06-15T09:08:54.000Z</time>
        <extensions>
          <ns3:TrackPointExtension>
            <ns3:atemp>21.0</ns3:atemp>
          </ns3:TrackPointExtension>
        </extensions>
      </trkpt>
      <trkpt lat="42.59208130650222301483154296875" lon="20.10035910643637180328369140625">
        <ele>1860.199951171875</ele>
        <time>2026-06-15T09:08:55.000Z</time>
        <extensions>
          <ns3:TrackPointExtension>
            <ns3:atemp>21.0</ns3:atemp>
          </ns3:TrackPointExtension>
        </extensions>
      </trkpt>
      <trkpt lat="42.59208130650222301483154296875" lon="20.10035910643637180328369140625">
        <ele>1860.199951171875</ele>
        <time>2026-06-15T09:08:56.000Z</time>
        <extensions>
          <ns3:TrackPointExtension>
            <ns3:atemp>21.0</ns3:atemp>
          </ns3:TrackPointExtension>
        </extensions>
      </trkpt>
      <trkpt lat="42.59208130650222301483154296875" lon="20.10035910643637180328369140625">
        <ele>1860.199951171875</ele>
        <time>2026-06-15T09:08:57.000Z</time>
        <extensions>
          <ns3:TrackPointExtension>
            <ns3:atemp>21.0</ns3:atemp>
          </ns3:TrackPointExtension>
        </extensions>
      </trkpt>
      <trkpt lat="42.59208130650222301483154296875" lon="20.10035910643637180328369140625">
        <ele>1860</ele>
        <time>2026-06-15T09:08:58.000Z</time>
        <extensions>
          <ns3:TrackPointExtension>
            <ns3:atemp>21.0</ns3:atemp>
          </ns3:TrackPointExtension>
        </extensions>
      </trkpt>
      <trkpt lat="42.59208130650222301483154296875" lon="20.10035910643637180328369140625">
        <ele>1860</ele>
        <time>2026-06-15T09:08:59.000Z</time>
        <extensions>
          <ns3:TrackPointExtension>
            <ns3:atemp>21.0</ns3:atemp>
          </ns3:TrackPointExtension>
        </extensions>
      </trkpt>
      <trkpt lat="42.59208130650222301483154296875" lon="20.10035910643637180328369140625">
        <ele>1860</ele>
        <time>2026-06-15T09:09:00.000Z</time>
        <extensions>
          <ns3:TrackPointExtension>
            <ns3:atemp>21.0</ns3:atemp>
          </ns3:TrackPointExtension>
        </extensions>
      </trkpt>
      <trkpt lat="42.59208130650222301483154296875" lon="20.10035910643637180328369140625">
        <ele>1860.199951171875</ele>
        <time>2026-06-15T09:09:01.000Z</time>
        <extensions>
          <ns3:TrackPointExtension>
            <ns3:atemp>22.0</ns3:atemp>
          </ns3:TrackPointExtension>
        </extensions>
      </trkpt>
      <trkpt lat="42.59208130650222301483154296875" lon="20.10035910643637180328369140625">
        <ele>1860.199951171875</ele>
        <time>2026-06-15T09:09:02.000Z</time>
        <extensions>
          <ns3:TrackPointExtension>
            <ns3:atemp>21.0</ns3:atemp>
          </ns3:TrackPointExtension>
        </extensions>
      </trkpt>
      <trkpt lat="42.59208130650222301483154296875" lon="20.10035910643637180328369140625">
        <ele>1860.199951171875</ele>
        <time>2026-06-15T09:09:03.000Z</time>
        <extensions>
          <ns3:TrackPointExtension>
            <ns3:atemp>22.0</ns3:atemp>
          </ns3:TrackPointExtension>
        </extensions>
      </trkpt>
      <trkpt lat="42.59208130650222301483154296875" lon="20.10035910643637180328369140625">
        <ele>1860.199951171875</ele>
        <time>2026-06-15T09:09:04.000Z</time>
        <extensions>
          <ns3:TrackPointExtension>
            <ns3:atemp>22.0</ns3:atemp>
          </ns3:TrackPointExtension>
        </extensions>
      </trkpt>
      <trkpt lat="42.59208130650222301483154296875" lon="20.10035910643637180328369140625">
        <ele>1860.199951171875</ele>
        <time>2026-06-15T09:09:05.000Z</time>
        <extensions>
          <ns3:TrackPointExtension>
            <ns3:atemp>22.0</ns3:atemp>
          </ns3:TrackPointExtension>
        </extensions>
      </trkpt>
      <trkpt lat="42.59208130650222301483154296875" lon="20.10035910643637180328369140625">
        <ele>1860</ele>
        <time>2026-06-15T09:09:06.000Z</time>
        <extensions>
          <ns3:TrackPointExtension>
            <ns3:atemp>22.0</ns3:atemp>
          </ns3:TrackPointExtension>
        </extensions>
      </trkpt>
      <trkpt lat="42.59208130650222301483154296875" lon="20.10035910643637180328369140625">
        <ele>1860</ele>
        <time>2026-06-15T09:09:07.000Z</time>
        <extensions>
          <ns3:TrackPointExtension>
            <ns3:atemp>22.0</ns3:atemp>
          </ns3:TrackPointExtension>
        </extensions>
      </trkpt>
      <trkpt lat="42.59208130650222301483154296875" lon="20.10035910643637180328369140625">
        <ele>1859.800048828125</ele>
        <time>2026-06-15T09:09:08.000Z</time>
        <extensions>
          <ns3:TrackPointExtension>
            <ns3:atemp>22.0</ns3:atemp>
          </ns3:TrackPointExtension>
        </extensions>
      </trkpt>
      <trkpt lat="42.59208130650222301483154296875" lon="20.10035910643637180328369140625">
        <ele>1859.800048828125</ele>
        <time>2026-06-15T09:09:09.000Z</time>
        <extensions>
          <ns3:TrackPointExtension>
            <ns3:atemp>22.0</ns3:atemp>
          </ns3:TrackPointExtension>
        </extensions>
      </trkpt>
      <trkpt lat="42.59208130650222301483154296875" lon="20.10035910643637180328369140625">
        <ele>1859.800048828125</ele>
        <time>2026-06-15T09:09:10.000Z</time>
        <extensions>
          <ns3:TrackPointExtension>
            <ns3:atemp>22.0</ns3:atemp>
          </ns3:TrackPointExtension>
        </extensions>
      </trkpt>
      <trkpt lat="42.59208130650222301483154296875" lon="20.10035910643637180328369140625">
        <ele>1859.800048828125</ele>
        <time>2026-06-15T09:09:11.000Z</time>
        <extensions>
          <ns3:TrackPointExtension>
            <ns3:atemp>21.0</ns3:atemp>
          </ns3:TrackPointExtension>
        </extensions>
      </trkpt>
      <trkpt lat="42.59208130650222301483154296875" lon="20.10035910643637180328369140625">
        <ele>1859.5999755859375</ele>
        <time>2026-06-15T09:09:12.000Z</time>
        <extensions>
          <ns3:TrackPointExtension>
            <ns3:atemp>21.0</ns3:atemp>
          </ns3:TrackPointExtension>
        </extensions>
      </trkpt>
      <trkpt lat="42.59208130650222301483154296875" lon="20.10035910643637180328369140625">
        <ele>1859.5999755859375</ele>
        <time>2026-06-15T09:09:13.000Z</time>
        <extensions>
          <ns3:TrackPointExtension>
            <ns3:atemp>21.0</ns3:atemp>
          </ns3:TrackPointExtension>
        </extensions>
      </trkpt>
      <trkpt lat="42.59208130650222301483154296875" lon="20.10035910643637180328369140625">
        <ele>1859.5999755859375</ele>
        <time>2026-06-15T09:09:14.000Z</time>
        <extensions>
          <ns3:TrackPointExtension>
            <ns3:atemp>21.0</ns3:atemp>
          </ns3:TrackPointExtension>
        </extensions>
      </trkpt>
      <trkpt lat="42.59208130650222301483154296875" lon="20.10035910643637180328369140625">
        <ele>1859.5999755859375</ele>
        <time>2026-06-15T09:09:15.000Z</time>
        <extensions>
          <ns3:TrackPointExtension>
            <ns3:atemp>21.0</ns3:atemp>
          </ns3:TrackPointExtension>
        </extensions>
      </trkpt>
      <trkpt lat="42.59208130650222301483154296875" lon="20.10035910643637180328369140625">
        <ele>1859.4000244140625</ele>
        <time>2026-06-15T09:09:16.000Z</time>
        <extensions>
          <ns3:TrackPointExtension>
            <ns3:atemp>21.0</ns3:atemp>
          </ns3:TrackPointExtension>
        </extensions>
      </trkpt>
      <trkpt lat="42.59208130650222301483154296875" lon="20.10035910643637180328369140625">
        <ele>1859.4000244140625</ele>
        <time>2026-06-15T09:09:17.000Z</time>
        <extensions>
          <ns3:TrackPointExtension>
            <ns3:atemp>21.0</ns3:atemp>
          </ns3:TrackPointExtension>
        </extensions>
      </trkpt>
      <trkpt lat="42.59208130650222301483154296875" lon="20.10035910643637180328369140625">
        <ele>1859.4000244140625</ele>
        <time>2026-06-15T09:09:18.000Z</time>
        <extensions>
          <ns3:TrackPointExtension>
            <ns3:atemp>21.0</ns3:atemp>
          </ns3:TrackPointExtension>
        </extensions>
      </trkpt>
      <trkpt lat="42.59208130650222301483154296875" lon="20.10035910643637180328369140625">
        <ele>1859.4000244140625</ele>
        <time>2026-06-15T09:09:19.000Z</time>
        <extensions>
          <ns3:TrackPointExtension>
            <ns3:atemp>21.0</ns3:atemp>
          </ns3:TrackPointExtension>
        </extensions>
      </trkpt>
      <trkpt lat="42.59208130650222301483154296875" lon="20.10035910643637180328369140625">
        <ele>1859.4000244140625</ele>
        <time>2026-06-15T09:09:20.000Z</time>
        <extensions>
          <ns3:TrackPointExtension>
            <ns3:atemp>21.0</ns3:atemp>
          </ns3:TrackPointExtension>
        </extensions>
      </trkpt>
      <trkpt lat="42.59208130650222301483154296875" lon="20.10035910643637180328369140625">
        <ele>1859.4000244140625</ele>
        <time>2026-06-15T09:09:21.000Z</time>
        <extensions>
          <ns3:TrackPointExtension>
            <ns3:atemp>21.0</ns3:atemp>
          </ns3:TrackPointExtension>
        </extensions>
      </trkpt>
      <trkpt lat="42.59208130650222301483154296875" lon="20.10035910643637180328369140625">
        <ele>1859.4000244140625</ele>
        <time>2026-06-15T09:09:22.000Z</time>
        <extensions>
          <ns3:TrackPointExtension>
            <ns3:atemp>21.0</ns3:atemp>
          </ns3:TrackPointExtension>
        </extensions>
      </trkpt>
      <trkpt lat="42.59208130650222301483154296875" lon="20.10035910643637180328369140625">
        <ele>1859.4000244140625</ele>
        <time>2026-06-15T09:09:23.000Z</time>
        <extensions>
          <ns3:TrackPointExtension>
            <ns3:atemp>21.0</ns3:atemp>
          </ns3:TrackPointExtension>
        </extensions>
      </trkpt>
      <trkpt lat="42.59208130650222301483154296875" lon="20.10035910643637180328369140625">
        <ele>1859.4000244140625</ele>
        <time>2026-06-15T09:09:24.000Z</time>
        <extensions>
          <ns3:TrackPointExtension>
            <ns3:atemp>21.0</ns3:atemp>
          </ns3:TrackPointExtension>
        </extensions>
      </trkpt>
      <trkpt lat="42.59208130650222301483154296875" lon="20.10035910643637180328369140625">
        <ele>1859.4000244140625</ele>
        <time>2026-06-15T09:09:25.000Z</time>
        <extensions>
          <ns3:TrackPointExtension>
            <ns3:atemp>21.0</ns3:atemp>
          </ns3:TrackPointExtension>
        </extensions>
      </trkpt>
      <trkpt lat="42.59208130650222301483154296875" lon="20.10035910643637180328369140625">
        <ele>1859.4000244140625</ele>
        <time>2026-06-15T09:09:26.000Z</time>
        <extensions>
          <ns3:TrackPointExtension>
            <ns3:atemp>21.0</ns3:atemp>
          </ns3:TrackPointExtension>
        </extensions>
      </trkpt>
      <trkpt lat="42.59208130650222301483154296875" lon="20.10035910643637180328369140625">
        <ele>1859.4000244140625</ele>
        <time>2026-06-15T09:09:27.000Z</time>
        <extensions>
          <ns3:TrackPointExtension>
            <ns3:atemp>21.0</ns3:atemp>
          </ns3:TrackPointExtension>
        </extensions>
      </trkpt>
      <trkpt lat="42.59208130650222301483154296875" lon="20.10035910643637180328369140625">
        <ele>1859.4000244140625</ele>
        <time>2026-06-15T09:09:28.000Z</time>
        <extensions>
          <ns3:TrackPointExtension>
            <ns3:atemp>21.0</ns3:atemp>
          </ns3:TrackPointExtension>
        </extensions>
      </trkpt>
      <trkpt lat="42.59208130650222301483154296875" lon="20.10035910643637180328369140625">
        <ele>1859.5999755859375</ele>
        <time>2026-06-15T09:09:29.000Z</time>
        <extensions>
          <ns3:TrackPointExtension>
            <ns3:atemp>21.0</ns3:atemp>
          </ns3:TrackPointExtension>
        </extensions>
      </trkpt>
      <trkpt lat="42.59208130650222301483154296875" lon="20.10035910643637180328369140625">
        <ele>1859.5999755859375</ele>
        <time>2026-06-15T09:09:30.000Z</time>
        <extensions>
          <ns3:TrackPointExtension>
            <ns3:atemp>21.0</ns3:atemp>
          </ns3:TrackPointExtension>
        </extensions>
      </trkpt>
      <trkpt lat="42.59208130650222301483154296875" lon="20.10035910643637180328369140625">
        <ele>1859.5999755859375</ele>
        <time>2026-06-15T09:09:31.000Z</time>
        <extensions>
          <ns3:TrackPointExtension>
            <ns3:atemp>21.0</ns3:atemp>
          </ns3:TrackPointExtension>
        </extensions>
      </trkpt>
      <trkpt lat="42.59208130650222301483154296875" lon="20.10035910643637180328369140625">
        <ele>1859.5999755859375</ele>
        <time>2026-06-15T09:09:32.000Z</time>
        <extensions>
          <ns3:TrackPointExtension>
            <ns3:atemp>21.0</ns3:atemp>
          </ns3:TrackPointExtension>
        </extensions>
      </trkpt>
      <trkpt lat="42.59208130650222301483154296875" lon="20.10035910643637180328369140625">
        <ele>1859.5999755859375</ele>
        <time>2026-06-15T09:09:33.000Z</time>
        <extensions>
          <ns3:TrackPointExtension>
            <ns3:atemp>21.0</ns3:atemp>
          </ns3:TrackPointExtension>
        </extensions>
      </trkpt>
      <trkpt lat="42.59208130650222301483154296875" lon="20.10035910643637180328369140625">
        <ele>1859.5999755859375</ele>
        <time>2026-06-15T09:09:34.000Z</time>
        <extensions>
          <ns3:TrackPointExtension>
            <ns3:atemp>21.0</ns3:atemp>
          </ns3:TrackPointExtension>
        </extensions>
      </trkpt>
      <trkpt lat="42.59208130650222301483154296875" lon="20.10035910643637180328369140625">
        <ele>1859.4000244140625</ele>
        <time>2026-06-15T09:09:35.000Z</time>
        <extensions>
          <ns3:TrackPointExtension>
            <ns3:atemp>21.0</ns3:atemp>
          </ns3:TrackPointExtension>
        </extensions>
      </trkpt>
      <trkpt lat="42.59208130650222301483154296875" lon="20.10035910643637180328369140625">
        <ele>1859.4000244140625</ele>
        <time>2026-06-15T09:09:36.000Z</time>
        <extensions>
          <ns3:TrackPointExtension>
            <ns3:atemp>21.0</ns3:atemp>
          </ns3:TrackPointExtension>
        </extensions>
      </trkpt>
      <trkpt lat="42.59208130650222301483154296875" lon="20.10035910643637180328369140625">
        <ele>1859.4000244140625</ele>
        <time>2026-06-15T09:09:37.000Z</time>
        <extensions>
          <ns3:TrackPointExtension>
            <ns3:atemp>21.0</ns3:atemp>
          </ns3:TrackPointExtension>
        </extensions>
      </trkpt>
      <trkpt lat="42.59208130650222301483154296875" lon="20.10035910643637180328369140625">
        <ele>1859.4000244140625</ele>
        <time>2026-06-15T09:09:38.000Z</time>
        <extensions>
          <ns3:TrackPointExtension>
            <ns3:atemp>21.0</ns3:atemp>
          </ns3:TrackPointExtension>
        </extensions>
      </trkpt>
      <trkpt lat="42.59208130650222301483154296875" lon="20.10035910643637180328369140625">
        <ele>1859.4000244140625</ele>
        <time>2026-06-15T09:09:39.000Z</time>
        <extensions>
          <ns3:TrackPointExtension>
            <ns3:atemp>21.0</ns3:atemp>
          </ns3:TrackPointExtension>
        </extensions>
      </trkpt>
      <trkpt lat="42.59208130650222301483154296875" lon="20.10035910643637180328369140625">
        <ele>1859.4000244140625</ele>
        <time>2026-06-15T09:09:40.000Z</time>
        <extensions>
          <ns3:TrackPointExtension>
            <ns3:atemp>21.0</ns3:atemp>
          </ns3:TrackPointExtension>
        </extensions>
      </trkpt>
      <trkpt lat="42.59208130650222301483154296875" lon="20.10035910643637180328369140625">
        <ele>1859.4000244140625</ele>
        <time>2026-06-15T09:09:41.000Z</time>
        <extensions>
          <ns3:TrackPointExtension>
            <ns3:atemp>21.0</ns3:atemp>
          </ns3:TrackPointExtension>
        </extensions>
      </trkpt>
      <trkpt lat="42.59208130650222301483154296875" lon="20.10035910643637180328369140625">
        <ele>1859.4000244140625</ele>
        <time>2026-06-15T09:09:42.000Z</time>
        <extensions>
          <ns3:TrackPointExtension>
            <ns3:atemp>21.0</ns3:atemp>
          </ns3:TrackPointExtension>
        </extensions>
      </trkpt>
      <trkpt lat="42.59208130650222301483154296875" lon="20.10035910643637180328369140625">
        <ele>1859.4000244140625</ele>
        <time>2026-06-15T09:09:43.000Z</time>
        <extensions>
          <ns3:TrackPointExtension>
            <ns3:atemp>21.0</ns3:atemp>
          </ns3:TrackPointExtension>
        </extensions>
      </trkpt>
      <trkpt lat="42.59208130650222301483154296875" lon="20.10035910643637180328369140625">
        <ele>1859.4000244140625</ele>
        <time>2026-06-15T09:09:44.000Z</time>
        <extensions>
          <ns3:TrackPointExtension>
            <ns3:atemp>21.0</ns3:atemp>
          </ns3:TrackPointExtension>
        </extensions>
      </trkpt>
      <trkpt lat="42.59208130650222301483154296875" lon="20.10035910643637180328369140625">
        <ele>1859.4000244140625</ele>
        <time>2026-06-15T09:09:45.000Z</time>
        <extensions>
          <ns3:TrackPointExtension>
            <ns3:atemp>21.0</ns3:atemp>
          </ns3:TrackPointExtension>
        </extensions>
      </trkpt>
      <trkpt lat="42.59208130650222301483154296875" lon="20.10035910643637180328369140625">
        <ele>1859.4000244140625</ele>
        <time>2026-06-15T09:09:46.000Z</time>
        <extensions>
          <ns3:TrackPointExtension>
            <ns3:atemp>21.0</ns3:atemp>
          </ns3:TrackPointExtension>
        </extensions>
      </trkpt>
      <trkpt lat="42.59208130650222301483154296875" lon="20.10035910643637180328369140625">
        <ele>1859.4000244140625</ele>
        <time>2026-06-15T09:09:47.000Z</time>
        <extensions>
          <ns3:TrackPointExtension>
            <ns3:atemp>21.0</ns3:atemp>
          </ns3:TrackPointExtension>
        </extensions>
      </trkpt>
      <trkpt lat="42.59208130650222301483154296875" lon="20.10035910643637180328369140625">
        <ele>1859.4000244140625</ele>
        <time>2026-06-15T09:09:48.000Z</time>
        <extensions>
          <ns3:TrackPointExtension>
            <ns3:atemp>21.0</ns3:atemp>
          </ns3:TrackPointExtension>
        </extensions>
      </trkpt>
      <trkpt lat="42.59208130650222301483154296875" lon="20.10035910643637180328369140625">
        <ele>1859.4000244140625</ele>
        <time>2026-06-15T09:09:49.000Z</time>
        <extensions>
          <ns3:TrackPointExtension>
            <ns3:atemp>21.0</ns3:atemp>
          </ns3:TrackPointExtension>
        </extensions>
      </trkpt>
      <trkpt lat="42.59208130650222301483154296875" lon="20.10035910643637180328369140625">
        <ele>1859.4000244140625</ele>
        <time>2026-06-15T09:09:50.000Z</time>
        <extensions>
          <ns3:TrackPointExtension>
            <ns3:atemp>21.0</ns3:atemp>
          </ns3:TrackPointExtension>
        </extensions>
      </trkpt>
      <trkpt lat="42.59208130650222301483154296875" lon="20.10035910643637180328369140625">
        <ele>1859.5999755859375</ele>
        <time>2026-06-15T09:09:51.000Z</time>
        <extensions>
          <ns3:TrackPointExtension>
            <ns3:atemp>21.0</ns3:atemp>
          </ns3:TrackPointExtension>
        </extensions>
      </trkpt>
      <trkpt lat="42.59208130650222301483154296875" lon="20.10035910643637180328369140625">
        <ele>1859.5999755859375</ele>
        <time>2026-06-15T09:09:52.000Z</time>
        <extensions>
          <ns3:TrackPointExtension>
            <ns3:atemp>21.0</ns3:atemp>
          </ns3:TrackPointExtension>
        </extensions>
      </trkpt>
      <trkpt lat="42.59208130650222301483154296875" lon="20.10035910643637180328369140625">
        <ele>1859.5999755859375</ele>
        <time>2026-06-15T09:09:53.000Z</time>
        <extensions>
          <ns3:TrackPointExtension>
            <ns3:atemp>21.0</ns3:atemp>
          </ns3:TrackPointExtension>
        </extensions>
      </trkpt>
      <trkpt lat="42.59208130650222301483154296875" lon="20.10035910643637180328369140625">
        <ele>1859.5999755859375</ele>
        <time>2026-06-15T09:09:54.000Z</time>
        <extensions>
          <ns3:TrackPointExtension>
            <ns3:atemp>21.0</ns3:atemp>
          </ns3:TrackPointExtension>
        </extensions>
      </trkpt>
      <trkpt lat="42.59208130650222301483154296875" lon="20.10035910643637180328369140625">
        <ele>1859.5999755859375</ele>
        <time>2026-06-15T09:09:55.000Z</time>
        <extensions>
          <ns3:TrackPointExtension>
            <ns3:atemp>21.0</ns3:atemp>
          </ns3:TrackPointExtension>
        </extensions>
      </trkpt>
      <trkpt lat="42.59208130650222301483154296875" lon="20.10035910643637180328369140625">
        <ele>1859.5999755859375</ele>
        <time>2026-06-15T09:09:56.000Z</time>
        <extensions>
          <ns3:TrackPointExtension>
            <ns3:atemp>21.0</ns3:atemp>
          </ns3:TrackPointExtension>
        </extensions>
      </trkpt>
      <trkpt lat="42.59208130650222301483154296875" lon="20.10035910643637180328369140625">
        <ele>1859.5999755859375</ele>
        <time>2026-06-15T09:09:57.000Z</time>
        <extensions>
          <ns3:TrackPointExtension>
            <ns3:atemp>21.0</ns3:atemp>
          </ns3:TrackPointExtension>
        </extensions>
      </trkpt>
      <trkpt lat="42.59208130650222301483154296875" lon="20.10035910643637180328369140625">
        <ele>1859.5999755859375</ele>
        <time>2026-06-15T09:09:58.000Z</time>
        <extensions>
          <ns3:TrackPointExtension>
            <ns3:atemp>21.0</ns3:atemp>
          </ns3:TrackPointExtension>
        </extensions>
      </trkpt>
      <trkpt lat="42.59208130650222301483154296875" lon="20.10035910643637180328369140625">
        <ele>1859.5999755859375</ele>
        <time>2026-06-15T09:09:59.000Z</time>
        <extensions>
          <ns3:TrackPointExtension>
            <ns3:atemp>21.0</ns3:atemp>
          </ns3:TrackPointExtension>
        </extensions>
      </trkpt>
      <trkpt lat="42.59208130650222301483154296875" lon="20.10035910643637180328369140625">
        <ele>1859.5999755859375</ele>
        <time>2026-06-15T09:10:00.000Z</time>
        <extensions>
          <ns3:TrackPointExtension>
            <ns3:atemp>21.0</ns3:atemp>
          </ns3:TrackPointExtension>
        </extensions>
      </trkpt>
      <trkpt lat="42.59208130650222301483154296875" lon="20.10035910643637180328369140625">
        <ele>1859.5999755859375</ele>
        <time>2026-06-15T09:10:01.000Z</time>
        <extensions>
          <ns3:TrackPointExtension>
            <ns3:atemp>21.0</ns3:atemp>
          </ns3:TrackPointExtension>
        </extensions>
      </trkpt>
      <trkpt lat="42.59208130650222301483154296875" lon="20.10035910643637180328369140625">
        <ele>1859.5999755859375</ele>
        <time>2026-06-15T09:10:02.000Z</time>
        <extensions>
          <ns3:TrackPointExtension>
            <ns3:atemp>21.0</ns3:atemp>
          </ns3:TrackPointExtension>
        </extensions>
      </trkpt>
      <trkpt lat="42.59208130650222301483154296875" lon="20.10035910643637180328369140625">
        <ele>1859.5999755859375</ele>
        <time>2026-06-15T09:10:03.000Z</time>
        <extensions>
          <ns3:TrackPointExtension>
            <ns3:atemp>21.0</ns3:atemp>
          </ns3:TrackPointExtension>
        </extensions>
      </trkpt>
      <trkpt lat="42.59208130650222301483154296875" lon="20.10035910643637180328369140625">
        <ele>1859.5999755859375</ele>
        <time>2026-06-15T09:10:04.000Z</time>
        <extensions>
          <ns3:TrackPointExtension>
            <ns3:atemp>21.0</ns3:atemp>
          </ns3:TrackPointExtension>
        </extensions>
      </trkpt>
      <trkpt lat="42.59208130650222301483154296875" lon="20.10035910643637180328369140625">
        <ele>1859.5999755859375</ele>
        <time>2026-06-15T09:10:05.000Z</time>
        <extensions>
          <ns3:TrackPointExtension>
            <ns3:atemp>21.0</ns3:atemp>
          </ns3:TrackPointExtension>
        </extensions>
      </trkpt>
      <trkpt lat="42.59208130650222301483154296875" lon="20.10035910643637180328369140625">
        <ele>1859.5999755859375</ele>
        <time>2026-06-15T09:10:06.000Z</time>
        <extensions>
          <ns3:TrackPointExtension>
            <ns3:atemp>21.0</ns3:atemp>
          </ns3:TrackPointExtension>
        </extensions>
      </trkpt>
      <trkpt lat="42.59208130650222301483154296875" lon="20.10035910643637180328369140625">
        <ele>1859.5999755859375</ele>
        <time>2026-06-15T09:10:07.000Z</time>
        <extensions>
          <ns3:TrackPointExtension>
            <ns3:atemp>21.0</ns3:atemp>
          </ns3:TrackPointExtension>
        </extensions>
      </trkpt>
      <trkpt lat="42.59208130650222301483154296875" lon="20.10035910643637180328369140625">
        <ele>1859.5999755859375</ele>
        <time>2026-06-15T09:10:08.000Z</time>
        <extensions>
          <ns3:TrackPointExtension>
            <ns3:atemp>21.0</ns3:atemp>
          </ns3:TrackPointExtension>
        </extensions>
      </trkpt>
      <trkpt lat="42.59208130650222301483154296875" lon="20.10035910643637180328369140625">
        <ele>1859.800048828125</ele>
        <time>2026-06-15T09:10:09.000Z</time>
        <extensions>
          <ns3:TrackPointExtension>
            <ns3:atemp>21.0</ns3:atemp>
          </ns3:TrackPointExtension>
        </extensions>
      </trkpt>
      <trkpt lat="42.59208130650222301483154296875" lon="20.10035910643637180328369140625">
        <ele>1859.800048828125</ele>
        <time>2026-06-15T09:10:10.000Z</time>
        <extensions>
          <ns3:TrackPointExtension>
            <ns3:atemp>21.0</ns3:atemp>
          </ns3:TrackPointExtension>
        </extensions>
      </trkpt>
      <trkpt lat="42.59208130650222301483154296875" lon="20.10035910643637180328369140625">
        <ele>1859.800048828125</ele>
        <time>2026-06-15T09:10:11.000Z</time>
        <extensions>
          <ns3:TrackPointExtension>
            <ns3:atemp>21.0</ns3:atemp>
          </ns3:TrackPointExtension>
        </extensions>
      </trkpt>
      <trkpt lat="42.59208130650222301483154296875" lon="20.10035910643637180328369140625">
        <ele>1859.800048828125</ele>
        <time>2026-06-15T09:10:12.000Z</time>
        <extensions>
          <ns3:TrackPointExtension>
            <ns3:atemp>21.0</ns3:atemp>
          </ns3:TrackPointExtension>
        </extensions>
      </trkpt>
      <trkpt lat="42.59208130650222301483154296875" lon="20.10035910643637180328369140625">
        <ele>1859.800048828125</ele>
        <time>2026-06-15T09:10:13.000Z</time>
        <extensions>
          <ns3:TrackPointExtension>
            <ns3:atemp>21.0</ns3:atemp>
          </ns3:TrackPointExtension>
        </extensions>
      </trkpt>
      <trkpt lat="42.59208130650222301483154296875" lon="20.10035910643637180328369140625">
        <ele>1859.800048828125</ele>
        <time>2026-06-15T09:10:14.000Z</time>
        <extensions>
          <ns3:TrackPointExtension>
            <ns3:atemp>21.0</ns3:atemp>
          </ns3:TrackPointExtension>
        </extensions>
      </trkpt>
      <trkpt lat="42.59208130650222301483154296875" lon="20.10035910643637180328369140625">
        <ele>1859.800048828125</ele>
        <time>2026-06-15T09:10:15.000Z</time>
        <extensions>
          <ns3:TrackPointExtension>
            <ns3:atemp>21.0</ns3:atemp>
          </ns3:TrackPointExtension>
        </extensions>
      </trkpt>
      <trkpt lat="42.59208130650222301483154296875" lon="20.10035910643637180328369140625">
        <ele>1859.800048828125</ele>
        <time>2026-06-15T09:10:16.000Z</time>
        <extensions>
          <ns3:TrackPointExtension>
            <ns3:atemp>21.0</ns3:atemp>
          </ns3:TrackPointExtension>
        </extensions>
      </trkpt>
      <trkpt lat="42.59208130650222301483154296875" lon="20.10035910643637180328369140625">
        <ele>1859.800048828125</ele>
        <time>2026-06-15T09:10:17.000Z</time>
        <extensions>
          <ns3:TrackPointExtension>
            <ns3:atemp>21.0</ns3:atemp>
          </ns3:TrackPointExtension>
        </extensions>
      </trkpt>
      <trkpt lat="42.59208130650222301483154296875" lon="20.10035910643637180328369140625">
        <ele>1859.800048828125</ele>
        <time>2026-06-15T09:10:18.000Z</time>
        <extensions>
          <ns3:TrackPointExtension>
            <ns3:atemp>21.0</ns3:atemp>
          </ns3:TrackPointExtension>
        </extensions>
      </trkpt>
      <trkpt lat="42.59208130650222301483154296875" lon="20.10035910643637180328369140625">
        <ele>1859.800048828125</ele>
        <time>2026-06-15T09:10:19.000Z</time>
        <extensions>
          <ns3:TrackPointExtension>
            <ns3:atemp>21.0</ns3:atemp>
          </ns3:TrackPointExtension>
        </extensions>
      </trkpt>
      <trkpt lat="42.59208130650222301483154296875" lon="20.10035910643637180328369140625">
        <ele>1859.800048828125</ele>
        <time>2026-06-15T09:10:20.000Z</time>
        <extensions>
          <ns3:TrackPointExtension>
            <ns3:atemp>21.0</ns3:atemp>
          </ns3:TrackPointExtension>
        </extensions>
      </trkpt>
      <trkpt lat="42.59208130650222301483154296875" lon="20.10035910643637180328369140625">
        <ele>1859.800048828125</ele>
        <time>2026-06-15T09:10:21.000Z</time>
        <extensions>
          <ns3:TrackPointExtension>
            <ns3:atemp>21.0</ns3:atemp>
          </ns3:TrackPointExtension>
        </extensions>
      </trkpt>
      <trkpt lat="42.59208130650222301483154296875" lon="20.10035910643637180328369140625">
        <ele>1859.800048828125</ele>
        <time>2026-06-15T09:10:22.000Z</time>
        <extensions>
          <ns3:TrackPointExtension>
            <ns3:atemp>21.0</ns3:atemp>
          </ns3:TrackPointExtension>
        </extensions>
      </trkpt>
      <trkpt lat="42.59208130650222301483154296875" lon="20.10035910643637180328369140625">
        <ele>1859.800048828125</ele>
        <time>2026-06-15T09:10:23.000Z</time>
        <extensions>
          <ns3:TrackPointExtension>
            <ns3:atemp>21.0</ns3:atemp>
          </ns3:TrackPointExtension>
        </extensions>
      </trkpt>
      <trkpt lat="42.59208130650222301483154296875" lon="20.10035910643637180328369140625">
        <ele>1859.800048828125</ele>
        <time>2026-06-15T09:10:24.000Z</time>
        <extensions>
          <ns3:TrackPointExtension>
            <ns3:atemp>21.0</ns3:atemp>
          </ns3:TrackPointExtension>
        </extensions>
      </trkpt>
      <trkpt lat="42.59208130650222301483154296875" lon="20.10035910643637180328369140625">
        <ele>1859.800048828125</ele>
        <time>2026-06-15T09:10:25.000Z</time>
        <extensions>
          <ns3:TrackPointExtension>
            <ns3:atemp>21.0</ns3:atemp>
          </ns3:TrackPointExtension>
        </extensions>
      </trkpt>
      <trkpt lat="42.59208130650222301483154296875" lon="20.10035910643637180328369140625">
        <ele>1860</ele>
        <time>2026-06-15T09:10:26.000Z</time>
        <extensions>
          <ns3:TrackPointExtension>
            <ns3:atemp>21.0</ns3:atemp>
          </ns3:TrackPointExtension>
        </extensions>
      </trkpt>
      <trkpt lat="42.59208130650222301483154296875" lon="20.10035910643637180328369140625">
        <ele>1860</ele>
        <time>2026-06-15T09:10:27.000Z</time>
        <extensions>
          <ns3:TrackPointExtension>
            <ns3:atemp>21.0</ns3:atemp>
          </ns3:TrackPointExtension>
        </extensions>
      </trkpt>
      <trkpt lat="42.59208130650222301483154296875" lon="20.10035910643637180328369140625">
        <ele>1860</ele>
        <time>2026-06-15T09:10:28.000Z</time>
        <extensions>
          <ns3:TrackPointExtension>
            <ns3:atemp>21.0</ns3:atemp>
          </ns3:TrackPointExtension>
        </extensions>
      </trkpt>
      <trkpt lat="42.59208130650222301483154296875" lon="20.10035910643637180328369140625">
        <ele>1860</ele>
        <time>2026-06-15T09:10:29.000Z</time>
        <extensions>
          <ns3:TrackPointExtension>
            <ns3:atemp>21.0</ns3:atemp>
          </ns3:TrackPointExtension>
        </extensions>
      </trkpt>
      <trkpt lat="42.59208130650222301483154296875" lon="20.10035910643637180328369140625">
        <ele>1860</ele>
        <time>2026-06-15T09:10:30.000Z</time>
        <extensions>
          <ns3:TrackPointExtension>
            <ns3:atemp>21.0</ns3:atemp>
          </ns3:TrackPointExtension>
        </extensions>
      </trkpt>
      <trkpt lat="42.59208130650222301483154296875" lon="20.10035910643637180328369140625">
        <ele>1860</ele>
        <time>2026-06-15T09:10:31.000Z</time>
        <extensions>
          <ns3:TrackPointExtension>
            <ns3:atemp>21.0</ns3:atemp>
          </ns3:TrackPointExtension>
        </extensions>
      </trkpt>
      <trkpt lat="42.59208130650222301483154296875" lon="20.10035910643637180328369140625">
        <ele>1860</ele>
        <time>2026-06-15T09:10:32.000Z</time>
        <extensions>
          <ns3:TrackPointExtension>
            <ns3:atemp>21.0</ns3:atemp>
          </ns3:TrackPointExtension>
        </extensions>
      </trkpt>
      <trkpt lat="42.59208130650222301483154296875" lon="20.10035910643637180328369140625">
        <ele>1860</ele>
        <time>2026-06-15T09:10:33.000Z</time>
        <extensions>
          <ns3:TrackPointExtension>
            <ns3:atemp>21.0</ns3:atemp>
          </ns3:TrackPointExtension>
        </extensions>
      </trkpt>
      <trkpt lat="42.59208130650222301483154296875" lon="20.10035910643637180328369140625">
        <ele>1860</ele>
        <time>2026-06-15T09:10:34.000Z</time>
        <extensions>
          <ns3:TrackPointExtension>
            <ns3:atemp>21.0</ns3:atemp>
          </ns3:TrackPointExtension>
        </extensions>
      </trkpt>
      <trkpt lat="42.59208130650222301483154296875" lon="20.10035910643637180328369140625">
        <ele>1860</ele>
        <time>2026-06-15T09:10:35.000Z</time>
        <extensions>
          <ns3:TrackPointExtension>
            <ns3:atemp>21.0</ns3:atemp>
          </ns3:TrackPointExtension>
        </extensions>
      </trkpt>
      <trkpt lat="42.59208130650222301483154296875" lon="20.10035910643637180328369140625">
        <ele>1860</ele>
        <time>2026-06-15T09:10:36.000Z</time>
        <extensions>
          <ns3:TrackPointExtension>
            <ns3:atemp>21.0</ns3:atemp>
          </ns3:TrackPointExtension>
        </extensions>
      </trkpt>
      <trkpt lat="42.59208130650222301483154296875" lon="20.10035910643637180328369140625">
        <ele>1860</ele>
        <time>2026-06-15T09:10:37.000Z</time>
        <extensions>
          <ns3:TrackPointExtension>
            <ns3:atemp>21.0</ns3:atemp>
          </ns3:TrackPointExtension>
        </extensions>
      </trkpt>
      <trkpt lat="42.59208130650222301483154296875" lon="20.10035910643637180328369140625">
        <ele>1860</ele>
        <time>2026-06-15T09:10:38.000Z</time>
        <extensions>
          <ns3:TrackPointExtension>
            <ns3:atemp>21.0</ns3:atemp>
          </ns3:TrackPointExtension>
        </extensions>
      </trkpt>
      <trkpt lat="42.59208130650222301483154296875" lon="20.10035910643637180328369140625">
        <ele>1860</ele>
        <time>2026-06-15T09:10:39.000Z</time>
        <extensions>
          <ns3:TrackPointExtension>
            <ns3:atemp>21.0</ns3:atemp>
          </ns3:TrackPointExtension>
        </extensions>
      </trkpt>
      <trkpt lat="42.59208130650222301483154296875" lon="20.10035910643637180328369140625">
        <ele>1860</ele>
        <time>2026-06-15T09:10:40.000Z</time>
        <extensions>
          <ns3:TrackPointExtension>
            <ns3:atemp>21.0</ns3:atemp>
          </ns3:TrackPointExtension>
        </extensions>
      </trkpt>
      <trkpt lat="42.59208130650222301483154296875" lon="20.10035910643637180328369140625">
        <ele>1860</ele>
        <time>2026-06-15T09:10:41.000Z</time>
        <extensions>
          <ns3:TrackPointExtension>
            <ns3:atemp>21.0</ns3:atemp>
          </ns3:TrackPointExtension>
        </extensions>
      </trkpt>
      <trkpt lat="42.59208130650222301483154296875" lon="20.10035910643637180328369140625">
        <ele>1860</ele>
        <time>2026-06-15T09:10:42.000Z</time>
        <extensions>
          <ns3:TrackPointExtension>
            <ns3:atemp>21.0</ns3:atemp>
          </ns3:TrackPointExtension>
        </extensions>
      </trkpt>
      <trkpt lat="42.59208130650222301483154296875" lon="20.10035910643637180328369140625">
        <ele>1860</ele>
        <time>2026-06-15T09:10:43.000Z</time>
        <extensions>
          <ns3:TrackPointExtension>
            <ns3:atemp>21.0</ns3:atemp>
          </ns3:TrackPointExtension>
        </extensions>
      </trkpt>
      <trkpt lat="42.59208130650222301483154296875" lon="20.10035910643637180328369140625">
        <ele>1860</ele>
        <time>2026-06-15T09:10:44.000Z</time>
        <extensions>
          <ns3:TrackPointExtension>
            <ns3:atemp>21.0</ns3:atemp>
          </ns3:TrackPointExtension>
        </extensions>
      </trkpt>
      <trkpt lat="42.59208130650222301483154296875" lon="20.10035910643637180328369140625">
        <ele>1860</ele>
        <time>2026-06-15T09:10:45.000Z</time>
        <extensions>
          <ns3:TrackPointExtension>
            <ns3:atemp>21.0</ns3:atemp>
          </ns3:TrackPointExtension>
        </extensions>
      </trkpt>
      <trkpt lat="42.59208130650222301483154296875" lon="20.10035910643637180328369140625">
        <ele>1860</ele>
        <time>2026-06-15T09:10:46.000Z</time>
        <extensions>
          <ns3:TrackPointExtension>
            <ns3:atemp>21.0</ns3:atemp>
          </ns3:TrackPointExtension>
        </extensions>
      </trkpt>
      <trkpt lat="42.59208130650222301483154296875" lon="20.10035910643637180328369140625">
        <ele>1860</ele>
        <time>2026-06-15T09:10:47.000Z</time>
        <extensions>
          <ns3:TrackPointExtension>
            <ns3:atemp>21.0</ns3:atemp>
          </ns3:TrackPointExtension>
        </extensions>
      </trkpt>
      <trkpt lat="42.59208130650222301483154296875" lon="20.10035910643637180328369140625">
        <ele>1860</ele>
        <time>2026-06-15T09:10:48.000Z</time>
        <extensions>
          <ns3:TrackPointExtension>
            <ns3:atemp>21.0</ns3:atemp>
          </ns3:TrackPointExtension>
        </extensions>
      </trkpt>
      <trkpt lat="42.59208130650222301483154296875" lon="20.10035910643637180328369140625">
        <ele>1860</ele>
        <time>2026-06-15T09:10:49.000Z</time>
        <extensions>
          <ns3:TrackPointExtension>
            <ns3:atemp>21.0</ns3:atemp>
          </ns3:TrackPointExtension>
        </extensions>
      </trkpt>
      <trkpt lat="42.59208130650222301483154296875" lon="20.10035910643637180328369140625">
        <ele>1859.800048828125</ele>
        <time>2026-06-15T09:10:50.000Z</time>
        <extensions>
          <ns3:TrackPointExtension>
            <ns3:atemp>21.0</ns3:atemp>
          </ns3:TrackPointExtension>
        </extensions>
      </trkpt>
      <trkpt lat="42.59208130650222301483154296875" lon="20.10035910643637180328369140625">
        <ele>1859.800048828125</ele>
        <time>2026-06-15T09:10:51.000Z</time>
        <extensions>
          <ns3:TrackPointExtension>
            <ns3:atemp>21.0</ns3:atemp>
          </ns3:TrackPointExtension>
        </extensions>
      </trkpt>
      <trkpt lat="42.59208130650222301483154296875" lon="20.10035910643637180328369140625">
        <ele>1859.800048828125</ele>
        <time>2026-06-15T09:10:52.000Z</time>
        <extensions>
          <ns3:TrackPointExtension>
            <ns3:atemp>21.0</ns3:atemp>
          </ns3:TrackPointExtension>
        </extensions>
      </trkpt>
      <trkpt lat="42.59208130650222301483154296875" lon="20.10035910643637180328369140625">
        <ele>1859.800048828125</ele>
        <time>2026-06-15T09:10:53.000Z</time>
        <extensions>
          <ns3:TrackPointExtension>
            <ns3:atemp>21.0</ns3:atemp>
          </ns3:TrackPointExtension>
        </extensions>
      </trkpt>
      <trkpt lat="42.59208130650222301483154296875" lon="20.10035910643637180328369140625">
        <ele>1859.5999755859375</ele>
        <time>2026-06-15T09:10:54.000Z</time>
        <extensions>
          <ns3:TrackPointExtension>
            <ns3:atemp>21.0</ns3:atemp>
          </ns3:TrackPointExtension>
        </extensions>
      </trkpt>
      <trkpt lat="42.59208130650222301483154296875" lon="20.10035910643637180328369140625">
        <ele>1859.5999755859375</ele>
        <time>2026-06-15T09:10:55.000Z</time>
        <extensions>
          <ns3:TrackPointExtension>
            <ns3:atemp>21.0</ns3:atemp>
          </ns3:TrackPointExtension>
        </extensions>
      </trkpt>
      <trkpt lat="42.59208130650222301483154296875" lon="20.10035910643637180328369140625">
        <ele>1859.5999755859375</ele>
        <time>2026-06-15T09:10:56.000Z</time>
        <extensions>
          <ns3:TrackPointExtension>
            <ns3:atemp>21.0</ns3:atemp>
          </ns3:TrackPointExtension>
        </extensions>
      </trkpt>
      <trkpt lat="42.59208130650222301483154296875" lon="20.10035910643637180328369140625">
        <ele>1859.4000244140625</ele>
        <time>2026-06-15T09:10:57.000Z</time>
        <extensions>
          <ns3:TrackPointExtension>
            <ns3:atemp>21.0</ns3:atemp>
          </ns3:TrackPointExtension>
        </extensions>
      </trkpt>
      <trkpt lat="42.59208130650222301483154296875" lon="20.10035910643637180328369140625">
        <ele>1859.4000244140625</ele>
        <time>2026-06-15T09:10:58.000Z</time>
        <extensions>
          <ns3:TrackPointExtension>
            <ns3:atemp>21.0</ns3:atemp>
          </ns3:TrackPointExtension>
        </extensions>
      </trkpt>
      <trkpt lat="42.59208130650222301483154296875" lon="20.10035910643637180328369140625">
        <ele>1859.4000244140625</ele>
        <time>2026-06-15T09:10:59.000Z</time>
        <extensions>
          <ns3:TrackPointExtension>
            <ns3:atemp>21.0</ns3:atemp>
          </ns3:TrackPointExtension>
        </extensions>
      </trkpt>
      <trkpt lat="42.59208130650222301483154296875" lon="20.10035910643637180328369140625">
        <ele>1859.4000244140625</ele>
        <time>2026-06-15T09:11:00.000Z</time>
        <extensions>
          <ns3:TrackPointExtension>
            <ns3:atemp>21.0</ns3:atemp>
          </ns3:TrackPointExtension>
        </extensions>
      </trkpt>
      <trkpt lat="42.59208130650222301483154296875" lon="20.10035910643637180328369140625">
        <ele>1859.4000244140625</ele>
        <time>2026-06-15T09:11:01.000Z</time>
        <extensions>
          <ns3:TrackPointExtension>
            <ns3:atemp>21.0</ns3:atemp>
          </ns3:TrackPointExtension>
        </extensions>
      </trkpt>
      <trkpt lat="42.59208130650222301483154296875" lon="20.10035910643637180328369140625">
        <ele>1859.4000244140625</ele>
        <time>2026-06-15T09:11:02.000Z</time>
        <extensions>
          <ns3:TrackPointExtension>
            <ns3:atemp>21.0</ns3:atemp>
          </ns3:TrackPointExtension>
        </extensions>
      </trkpt>
      <trkpt lat="42.59208130650222301483154296875" lon="20.10035910643637180328369140625">
        <ele>1859.4000244140625</ele>
        <time>2026-06-15T09:11:03.000Z</time>
        <extensions>
          <ns3:TrackPointExtension>
            <ns3:atemp>21.0</ns3:atemp>
          </ns3:TrackPointExtension>
        </extensions>
      </trkpt>
      <trkpt lat="42.59208130650222301483154296875" lon="20.10035910643637180328369140625">
        <ele>1859.199951171875</ele>
        <time>2026-06-15T09:11:04.000Z</time>
        <extensions>
          <ns3:TrackPointExtension>
            <ns3:atemp>21.0</ns3:atemp>
          </ns3:TrackPointExtension>
        </extensions>
      </trkpt>
      <trkpt lat="42.59208130650222301483154296875" lon="20.10035910643637180328369140625">
        <ele>1859.199951171875</ele>
        <time>2026-06-15T09:11:05.000Z</time>
        <extensions>
          <ns3:TrackPointExtension>
            <ns3:atemp>21.0</ns3:atemp>
          </ns3:TrackPointExtension>
        </extensions>
      </trkpt>
      <trkpt lat="42.59208130650222301483154296875" lon="20.10035910643637180328369140625">
        <ele>1859.199951171875</ele>
        <time>2026-06-15T09:11:06.000Z</time>
        <extensions>
          <ns3:TrackPointExtension>
            <ns3:atemp>21.0</ns3:atemp>
          </ns3:TrackPointExtension>
        </extensions>
      </trkpt>
      <trkpt lat="42.59208130650222301483154296875" lon="20.10035910643637180328369140625">
        <ele>1859.4000244140625</ele>
        <time>2026-06-15T09:11:07.000Z</time>
        <extensions>
          <ns3:TrackPointExtension>
            <ns3:atemp>21.0</ns3:atemp>
          </ns3:TrackPointExtension>
        </extensions>
      </trkpt>
      <trkpt lat="42.59208130650222301483154296875" lon="20.10035910643637180328369140625">
        <ele>1859.4000244140625</ele>
        <time>2026-06-15T09:11:08.000Z</time>
        <extensions>
          <ns3:TrackPointExtension>
            <ns3:atemp>21.0</ns3:atemp>
          </ns3:TrackPointExtension>
        </extensions>
      </trkpt>
      <trkpt lat="42.59208130650222301483154296875" lon="20.10035910643637180328369140625">
        <ele>1859.4000244140625</ele>
        <time>2026-06-15T09:11:09.000Z</time>
        <extensions>
          <ns3:TrackPointExtension>
            <ns3:atemp>21.0</ns3:atemp>
          </ns3:TrackPointExtension>
        </extensions>
      </trkpt>
      <trkpt lat="42.59208130650222301483154296875" lon="20.10035910643637180328369140625">
        <ele>1859.4000244140625</ele>
        <time>2026-06-15T09:11:10.000Z</time>
        <extensions>
          <ns3:TrackPointExtension>
            <ns3:atemp>21.0</ns3:atemp>
          </ns3:TrackPointExtension>
        </extensions>
      </trkpt>
      <trkpt lat="42.59208130650222301483154296875" lon="20.10035910643637180328369140625">
        <ele>1859.199951171875</ele>
        <time>2026-06-15T09:11:11.000Z</time>
        <extensions>
          <ns3:TrackPointExtension>
            <ns3:atemp>21.0</ns3:atemp>
          </ns3:TrackPointExtension>
        </extensions>
      </trkpt>
      <trkpt lat="42.59208130650222301483154296875" lon="20.10035910643637180328369140625">
        <ele>1859.199951171875</ele>
        <time>2026-06-15T09:11:12.000Z</time>
        <extensions>
          <ns3:TrackPointExtension>
            <ns3:atemp>21.0</ns3:atemp>
          </ns3:TrackPointExtension>
        </extensions>
      </trkpt>
      <trkpt lat="42.59208130650222301483154296875" lon="20.10035910643637180328369140625">
        <ele>1859.199951171875</ele>
        <time>2026-06-15T09:11:13.000Z</time>
        <extensions>
          <ns3:TrackPointExtension>
            <ns3:atemp>21.0</ns3:atemp>
          </ns3:TrackPointExtension>
        </extensions>
      </trkpt>
      <trkpt lat="42.59208130650222301483154296875" lon="20.10035910643637180328369140625">
        <ele>1859.199951171875</ele>
        <time>2026-06-15T09:11:14.000Z</time>
        <extensions>
          <ns3:TrackPointExtension>
            <ns3:atemp>21.0</ns3:atemp>
          </ns3:TrackPointExtension>
        </extensions>
      </trkpt>
      <trkpt lat="42.59208130650222301483154296875" lon="20.10035910643637180328369140625">
        <ele>1859.199951171875</ele>
        <time>2026-06-15T09:11:15.000Z</time>
        <extensions>
          <ns3:TrackPointExtension>
            <ns3:atemp>21.0</ns3:atemp>
          </ns3:TrackPointExtension>
        </extensions>
      </trkpt>
      <trkpt lat="42.59208130650222301483154296875" lon="20.10035910643637180328369140625">
        <ele>1859.199951171875</ele>
        <time>2026-06-15T09:11:16.000Z</time>
        <extensions>
          <ns3:TrackPointExtension>
            <ns3:atemp>21.0</ns3:atemp>
          </ns3:TrackPointExtension>
        </extensions>
      </trkpt>
      <trkpt lat="42.59208130650222301483154296875" lon="20.10035910643637180328369140625">
        <ele>1859.199951171875</ele>
        <time>2026-06-15T09:11:17.000Z</time>
        <extensions>
          <ns3:TrackPointExtension>
            <ns3:atemp>21.0</ns3:atemp>
          </ns3:TrackPointExtension>
        </extensions>
      </trkpt>
      <trkpt lat="42.59208130650222301483154296875" lon="20.10035910643637180328369140625">
        <ele>1859.199951171875</ele>
        <time>2026-06-15T09:11:18.000Z</time>
        <extensions>
          <ns3:TrackPointExtension>
            <ns3:atemp>21.0</ns3:atemp>
          </ns3:TrackPointExtension>
        </extensions>
      </trkpt>
      <trkpt lat="42.59208130650222301483154296875" lon="20.10035910643637180328369140625">
        <ele>1859.199951171875</ele>
        <time>2026-06-15T09:11:19.000Z</time>
        <extensions>
          <ns3:TrackPointExtension>
            <ns3:atemp>21.0</ns3:atemp>
          </ns3:TrackPointExtension>
        </extensions>
      </trkpt>
      <trkpt lat="42.59208130650222301483154296875" lon="20.10035910643637180328369140625">
        <ele>1859.199951171875</ele>
        <time>2026-06-15T09:11:20.000Z</time>
        <extensions>
          <ns3:TrackPointExtension>
            <ns3:atemp>21.0</ns3:atemp>
          </ns3:TrackPointExtension>
        </extensions>
      </trkpt>
      <trkpt lat="42.59208130650222301483154296875" lon="20.10035910643637180328369140625">
        <ele>1859.199951171875</ele>
        <time>2026-06-15T09:11:21.000Z</time>
        <extensions>
          <ns3:TrackPointExtension>
            <ns3:atemp>21.0</ns3:atemp>
          </ns3:TrackPointExtension>
        </extensions>
      </trkpt>
      <trkpt lat="42.59208130650222301483154296875" lon="20.10035910643637180328369140625">
        <ele>1859.199951171875</ele>
        <time>2026-06-15T09:11:22.000Z</time>
        <extensions>
          <ns3:TrackPointExtension>
            <ns3:atemp>21.0</ns3:atemp>
          </ns3:TrackPointExtension>
        </extensions>
      </trkpt>
      <trkpt lat="42.59208130650222301483154296875" lon="20.10035910643637180328369140625">
        <ele>1859</ele>
        <time>2026-06-15T09:11:23.000Z</time>
        <extensions>
          <ns3:TrackPointExtension>
            <ns3:atemp>21.0</ns3:atemp>
          </ns3:TrackPointExtension>
        </extensions>
      </trkpt>
      <trkpt lat="42.59208130650222301483154296875" lon="20.10035910643637180328369140625">
        <ele>1859</ele>
        <time>2026-06-15T09:11:24.000Z</time>
        <extensions>
          <ns3:TrackPointExtension>
            <ns3:atemp>21.0</ns3:atemp>
          </ns3:TrackPointExtension>
        </extensions>
      </trkpt>
      <trkpt lat="42.59208130650222301483154296875" lon="20.10035910643637180328369140625">
        <ele>1859</ele>
        <time>2026-06-15T09:11:25.000Z</time>
        <extensions>
          <ns3:TrackPointExtension>
            <ns3:atemp>21.0</ns3:atemp>
          </ns3:TrackPointExtension>
        </extensions>
      </trkpt>
      <trkpt lat="42.59208130650222301483154296875" lon="20.10035910643637180328369140625">
        <ele>1859</ele>
        <time>2026-06-15T09:11:26.000Z</time>
        <extensions>
          <ns3:TrackPointExtension>
            <ns3:atemp>21.0</ns3:atemp>
          </ns3:TrackPointExtension>
        </extensions>
      </trkpt>
      <trkpt lat="42.59208130650222301483154296875" lon="20.10035910643637180328369140625">
        <ele>1859</ele>
        <time>2026-06-15T09:11:27.000Z</time>
        <extensions>
          <ns3:TrackPointExtension>
            <ns3:atemp>21.0</ns3:atemp>
          </ns3:TrackPointExtension>
        </extensions>
      </trkpt>
      <trkpt lat="42.59208130650222301483154296875" lon="20.10035910643637180328369140625">
        <ele>1859</ele>
        <time>2026-06-15T09:11:28.000Z</time>
        <extensions>
          <ns3:TrackPointExtension>
            <ns3:atemp>21.0</ns3:atemp>
          </ns3:TrackPointExtension>
        </extensions>
      </trkpt>
      <trkpt lat="42.59208130650222301483154296875" lon="20.10035910643637180328369140625">
        <ele>1859</ele>
        <time>2026-06-15T09:11:29.000Z</time>
        <extensions>
          <ns3:TrackPointExtension>
            <ns3:atemp>21.0</ns3:atemp>
          </ns3:TrackPointExtension>
        </extensions>
      </trkpt>
      <trkpt lat="42.59208130650222301483154296875" lon="20.10035910643637180328369140625">
        <ele>1859</ele>
        <time>2026-06-15T09:11:30.000Z</time>
        <extensions>
          <ns3:TrackPointExtension>
            <ns3:atemp>21.0</ns3:atemp>
          </ns3:TrackPointExtension>
        </extensions>
      </trkpt>
      <trkpt lat="42.59208130650222301483154296875" lon="20.10035910643637180328369140625">
        <ele>1859</ele>
        <time>2026-06-15T09:11:31.000Z</time>
        <extensions>
          <ns3:TrackPointExtension>
            <ns3:atemp>21.0</ns3:atemp>
          </ns3:TrackPointExtension>
        </extensions>
      </trkpt>
      <trkpt lat="42.59208130650222301483154296875" lon="20.10035910643637180328369140625">
        <ele>1859</ele>
        <time>2026-06-15T09:11:32.000Z</time>
        <extensions>
          <ns3:TrackPointExtension>
            <ns3:atemp>21.0</ns3:atemp>
          </ns3:TrackPointExtension>
        </extensions>
      </trkpt>
      <trkpt lat="42.59208130650222301483154296875" lon="20.10035910643637180328369140625">
        <ele>1859</ele>
        <time>2026-06-15T09:11:33.000Z</time>
        <extensions>
          <ns3:TrackPointExtension>
            <ns3:atemp>21.0</ns3:atemp>
          </ns3:TrackPointExtension>
        </extensions>
      </trkpt>
      <trkpt lat="42.59208130650222301483154296875" lon="20.10035910643637180328369140625">
        <ele>1859</ele>
        <time>2026-06-15T09:11:34.000Z</time>
        <extensions>
          <ns3:TrackPointExtension>
            <ns3:atemp>21.0</ns3:atemp>
          </ns3:TrackPointExtension>
        </extensions>
      </trkpt>
      <trkpt lat="42.59208130650222301483154296875" lon="20.10035910643637180328369140625">
        <ele>1859</ele>
        <time>2026-06-15T09:11:35.000Z</time>
        <extensions>
          <ns3:TrackPointExtension>
            <ns3:atemp>21.0</ns3:atemp>
          </ns3:TrackPointExtension>
        </extensions>
      </trkpt>
      <trkpt lat="42.59208130650222301483154296875" lon="20.10035910643637180328369140625">
        <ele>1859</ele>
        <time>2026-06-15T09:11:36.000Z</time>
        <extensions>
          <ns3:TrackPointExtension>
            <ns3:atemp>21.0</ns3:atemp>
          </ns3:TrackPointExtension>
        </extensions>
      </trkpt>
      <trkpt lat="42.59208130650222301483154296875" lon="20.10035910643637180328369140625">
        <ele>1859</ele>
        <time>2026-06-15T09:11:37.000Z</time>
        <extensions>
          <ns3:TrackPointExtension>
            <ns3:atemp>21.0</ns3:atemp>
          </ns3:TrackPointExtension>
        </extensions>
      </trkpt>
      <trkpt lat="42.59208130650222301483154296875" lon="20.10035910643637180328369140625">
        <ele>1859</ele>
        <time>2026-06-15T09:11:38.000Z</time>
        <extensions>
          <ns3:TrackPointExtension>
            <ns3:atemp>21.0</ns3:atemp>
          </ns3:TrackPointExtension>
        </extensions>
      </trkpt>
      <trkpt lat="42.59208130650222301483154296875" lon="20.10035910643637180328369140625">
        <ele>1859</ele>
        <time>2026-06-15T09:11:39.000Z</time>
        <extensions>
          <ns3:TrackPointExtension>
            <ns3:atemp>21.0</ns3:atemp>
          </ns3:TrackPointExtension>
        </extensions>
      </trkpt>
      <trkpt lat="42.59208130650222301483154296875" lon="20.10035910643637180328369140625">
        <ele>1859</ele>
        <time>2026-06-15T09:11:40.000Z</time>
        <extensions>
          <ns3:TrackPointExtension>
            <ns3:atemp>21.0</ns3:atemp>
          </ns3:TrackPointExtension>
        </extensions>
      </trkpt>
      <trkpt lat="42.59208130650222301483154296875" lon="20.10035910643637180328369140625">
        <ele>1859</ele>
        <time>2026-06-15T09:11:41.000Z</time>
        <extensions>
          <ns3:TrackPointExtension>
            <ns3:atemp>21.0</ns3:atemp>
          </ns3:TrackPointExtension>
        </extensions>
      </trkpt>
      <trkpt lat="42.59208130650222301483154296875" lon="20.10035910643637180328369140625">
        <ele>1859</ele>
        <time>2026-06-15T09:11:42.000Z</time>
        <extensions>
          <ns3:TrackPointExtension>
            <ns3:atemp>21.0</ns3:atemp>
          </ns3:TrackPointExtension>
        </extensions>
      </trkpt>
      <trkpt lat="42.59208130650222301483154296875" lon="20.10035910643637180328369140625">
        <ele>1859</ele>
        <time>2026-06-15T09:11:43.000Z</time>
        <extensions>
          <ns3:TrackPointExtension>
            <ns3:atemp>21.0</ns3:atemp>
          </ns3:TrackPointExtension>
        </extensions>
      </trkpt>
      <trkpt lat="42.59208130650222301483154296875" lon="20.10035910643637180328369140625">
        <ele>1859</ele>
        <time>2026-06-15T09:11:44.000Z</time>
        <extensions>
          <ns3:TrackPointExtension>
            <ns3:atemp>21.0</ns3:atemp>
          </ns3:TrackPointExtension>
        </extensions>
      </trkpt>
      <trkpt lat="42.59208130650222301483154296875" lon="20.10035910643637180328369140625">
        <ele>1859</ele>
        <time>2026-06-15T09:11:45.000Z</time>
        <extensions>
          <ns3:TrackPointExtension>
            <ns3:atemp>21.0</ns3:atemp>
          </ns3:TrackPointExtension>
        </extensions>
      </trkpt>
      <trkpt lat="42.59208130650222301483154296875" lon="20.10035910643637180328369140625">
        <ele>1859</ele>
        <time>2026-06-15T09:11:46.000Z</time>
        <extensions>
          <ns3:TrackPointExtension>
            <ns3:atemp>21.0</ns3:atemp>
          </ns3:TrackPointExtension>
        </extensions>
      </trkpt>
      <trkpt lat="42.59208130650222301483154296875" lon="20.10035910643637180328369140625">
        <ele>1859</ele>
        <time>2026-06-15T09:11:47.000Z</time>
        <extensions>
          <ns3:TrackPointExtension>
            <ns3:atemp>21.0</ns3:atemp>
          </ns3:TrackPointExtension>
        </extensions>
      </trkpt>
      <trkpt lat="42.59208130650222301483154296875" lon="20.10035910643637180328369140625">
        <ele>1859</ele>
        <time>2026-06-15T09:11:48.000Z</time>
        <extensions>
          <ns3:TrackPointExtension>
            <ns3:atemp>21.0</ns3:atemp>
          </ns3:TrackPointExtension>
        </extensions>
      </trkpt>
      <trkpt lat="42.59208130650222301483154296875" lon="20.10035910643637180328369140625">
        <ele>1859</ele>
        <time>2026-06-15T09:11:49.000Z</time>
        <extensions>
          <ns3:TrackPointExtension>
            <ns3:atemp>21.0</ns3:atemp>
          </ns3:TrackPointExtension>
        </extensions>
      </trkpt>
      <trkpt lat="42.59208130650222301483154296875" lon="20.10035910643637180328369140625">
        <ele>1859.199951171875</ele>
        <time>2026-06-15T09:11:50.000Z</time>
        <extensions>
          <ns3:TrackPointExtension>
            <ns3:atemp>21.0</ns3:atemp>
          </ns3:TrackPointExtension>
        </extensions>
      </trkpt>
      <trkpt lat="42.59208130650222301483154296875" lon="20.10035910643637180328369140625">
        <ele>1859.199951171875</ele>
        <time>2026-06-15T09:11:51.000Z</time>
        <extensions>
          <ns3:TrackPointExtension>
            <ns3:atemp>21.0</ns3:atemp>
          </ns3:TrackPointExtension>
        </extensions>
      </trkpt>
      <trkpt lat="42.59208130650222301483154296875" lon="20.10035910643637180328369140625">
        <ele>1859.199951171875</ele>
        <time>2026-06-15T09:11:52.000Z</time>
        <extensions>
          <ns3:TrackPointExtension>
            <ns3:atemp>21.0</ns3:atemp>
          </ns3:TrackPointExtension>
        </extensions>
      </trkpt>
      <trkpt lat="42.59208130650222301483154296875" lon="20.10035910643637180328369140625">
        <ele>1859.4000244140625</ele>
        <time>2026-06-15T09:11:53.000Z</time>
        <extensions>
          <ns3:TrackPointExtension>
            <ns3:atemp>21.0</ns3:atemp>
          </ns3:TrackPointExtension>
        </extensions>
      </trkpt>
      <trkpt lat="42.59208130650222301483154296875" lon="20.10035910643637180328369140625">
        <ele>1859.4000244140625</ele>
        <time>2026-06-15T09:11:54.000Z</time>
        <extensions>
          <ns3:TrackPointExtension>
            <ns3:atemp>21.0</ns3:atemp>
          </ns3:TrackPointExtension>
        </extensions>
      </trkpt>
      <trkpt lat="42.59208130650222301483154296875" lon="20.10035910643637180328369140625">
        <ele>1859.199951171875</ele>
        <time>2026-06-15T09:11:55.000Z</time>
        <extensions>
          <ns3:TrackPointExtension>
            <ns3:atemp>21.0</ns3:atemp>
          </ns3:TrackPointExtension>
        </extensions>
      </trkpt>
      <trkpt lat="42.59208130650222301483154296875" lon="20.10035910643637180328369140625">
        <ele>1859.199951171875</ele>
        <time>2026-06-15T09:11:56.000Z</time>
        <extensions>
          <ns3:TrackPointExtension>
            <ns3:atemp>21.0</ns3:atemp>
          </ns3:TrackPointExtension>
        </extensions>
      </trkpt>
      <trkpt lat="42.59208130650222301483154296875" lon="20.10035910643637180328369140625">
        <ele>1859.199951171875</ele>
        <time>2026-06-15T09:11:57.000Z</time>
        <extensions>
          <ns3:TrackPointExtension>
            <ns3:atemp>21.0</ns3:atemp>
          </ns3:TrackPointExtension>
        </extensions>
      </trkpt>
      <trkpt lat="42.59208130650222301483154296875" lon="20.10035910643637180328369140625">
        <ele>1859.199951171875</ele>
        <time>2026-06-15T09:11:58.000Z</time>
        <extensions>
          <ns3:TrackPointExtension>
            <ns3:atemp>21.0</ns3:atemp>
          </ns3:TrackPointExtension>
        </extensions>
      </trkpt>
      <trkpt lat="42.59208130650222301483154296875" lon="20.10035910643637180328369140625">
        <ele>1859.199951171875</ele>
        <time>2026-06-15T09:11:59.000Z</time>
        <extensions>
          <ns3:TrackPointExtension>
            <ns3:atemp>21.0</ns3:atemp>
          </ns3:TrackPointExtension>
        </extensions>
      </trkpt>
      <trkpt lat="42.59208130650222301483154296875" lon="20.10035910643637180328369140625">
        <ele>1859.199951171875</ele>
        <time>2026-06-15T09:12:00.000Z</time>
        <extensions>
          <ns3:TrackPointExtension>
            <ns3:atemp>21.0</ns3:atemp>
          </ns3:TrackPointExtension>
        </extensions>
      </trkpt>
      <trkpt lat="42.59208130650222301483154296875" lon="20.10035910643637180328369140625">
        <ele>1859.199951171875</ele>
        <time>2026-06-15T09:12:01.000Z</time>
        <extensions>
          <ns3:TrackPointExtension>
            <ns3:atemp>21.0</ns3:atemp>
          </ns3:TrackPointExtension>
        </extensions>
      </trkpt>
      <trkpt lat="42.59208130650222301483154296875" lon="20.10035910643637180328369140625">
        <ele>1859.199951171875</ele>
        <time>2026-06-15T09:12:02.000Z</time>
        <extensions>
          <ns3:TrackPointExtension>
            <ns3:atemp>21.0</ns3:atemp>
          </ns3:TrackPointExtension>
        </extensions>
      </trkpt>
      <trkpt lat="42.59208130650222301483154296875" lon="20.10035910643637180328369140625">
        <ele>1859.199951171875</ele>
        <time>2026-06-15T09:12:03.000Z</time>
        <extensions>
          <ns3:TrackPointExtension>
            <ns3:atemp>21.0</ns3:atemp>
          </ns3:TrackPointExtension>
        </extensions>
      </trkpt>
      <trkpt lat="42.59208130650222301483154296875" lon="20.10035910643637180328369140625">
        <ele>1859.199951171875</ele>
        <time>2026-06-15T09:12:04.000Z</time>
        <extensions>
          <ns3:TrackPointExtension>
            <ns3:atemp>21.0</ns3:atemp>
          </ns3:TrackPointExtension>
        </extensions>
      </trkpt>
      <trkpt lat="42.59208130650222301483154296875" lon="20.10035910643637180328369140625">
        <ele>1859.199951171875</ele>
        <time>2026-06-15T09:12:05.000Z</time>
        <extensions>
          <ns3:TrackPointExtension>
            <ns3:atemp>21.0</ns3:atemp>
          </ns3:TrackPointExtension>
        </extensions>
      </trkpt>
      <trkpt lat="42.59208130650222301483154296875" lon="20.10035910643637180328369140625">
        <ele>1859.199951171875</ele>
        <time>2026-06-15T09:12:06.000Z</time>
        <extensions>
          <ns3:TrackPointExtension>
            <ns3:atemp>21.0</ns3:atemp>
          </ns3:TrackPointExtension>
        </extensions>
      </trkpt>
      <trkpt lat="42.59208130650222301483154296875" lon="20.10035910643637180328369140625">
        <ele>1859.199951171875</ele>
        <time>2026-06-15T09:12:07.000Z</time>
        <extensions>
          <ns3:TrackPointExtension>
            <ns3:atemp>21.0</ns3:atemp>
          </ns3:TrackPointExtension>
        </extensions>
      </trkpt>
      <trkpt lat="42.59208130650222301483154296875" lon="20.10035910643637180328369140625">
        <ele>1859.199951171875</ele>
        <time>2026-06-15T09:12:08.000Z</time>
        <extensions>
          <ns3:TrackPointExtension>
            <ns3:atemp>21.0</ns3:atemp>
          </ns3:TrackPointExtension>
        </extensions>
      </trkpt>
      <trkpt lat="42.59208130650222301483154296875" lon="20.10035910643637180328369140625">
        <ele>1859.199951171875</ele>
        <time>2026-06-15T09:12:09.000Z</time>
        <extensions>
          <ns3:TrackPointExtension>
            <ns3:atemp>21.0</ns3:atemp>
          </ns3:TrackPointExtension>
        </extensions>
      </trkpt>
      <trkpt lat="42.59208130650222301483154296875" lon="20.10035910643637180328369140625">
        <ele>1859.199951171875</ele>
        <time>2026-06-15T09:12:10.000Z</time>
        <extensions>
          <ns3:TrackPointExtension>
            <ns3:atemp>21.0</ns3:atemp>
          </ns3:TrackPointExtension>
        </extensions>
      </trkpt>
      <trkpt lat="42.59208130650222301483154296875" lon="20.10035910643637180328369140625">
        <ele>1859.199951171875</ele>
        <time>2026-06-15T09:12:11.000Z</time>
        <extensions>
          <ns3:TrackPointExtension>
            <ns3:atemp>21.0</ns3:atemp>
          </ns3:TrackPointExtension>
        </extensions>
      </trkpt>
      <trkpt lat="42.59208130650222301483154296875" lon="20.10035910643637180328369140625">
        <ele>1859.199951171875</ele>
        <time>2026-06-15T09:12:12.000Z</time>
        <extensions>
          <ns3:TrackPointExtension>
            <ns3:atemp>21.0</ns3:atemp>
          </ns3:TrackPointExtension>
        </extensions>
      </trkpt>
      <trkpt lat="42.59208130650222301483154296875" lon="20.10035910643637180328369140625">
        <ele>1859.199951171875</ele>
        <time>2026-06-15T09:12:13.000Z</time>
        <extensions>
          <ns3:TrackPointExtension>
            <ns3:atemp>21.0</ns3:atemp>
          </ns3:TrackPointExtension>
        </extensions>
      </trkpt>
      <trkpt lat="42.59208130650222301483154296875" lon="20.10035910643637180328369140625">
        <ele>1859.199951171875</ele>
        <time>2026-06-15T09:12:14.000Z</time>
        <extensions>
          <ns3:TrackPointExtension>
            <ns3:atemp>21.0</ns3:atemp>
          </ns3:TrackPointExtension>
        </extensions>
      </trkpt>
      <trkpt lat="42.59208130650222301483154296875" lon="20.10035910643637180328369140625">
        <ele>1859.199951171875</ele>
        <time>2026-06-15T09:12:15.000Z</time>
        <extensions>
          <ns3:TrackPointExtension>
            <ns3:atemp>21.0</ns3:atemp>
          </ns3:TrackPointExtension>
        </extensions>
      </trkpt>
      <trkpt lat="42.59208130650222301483154296875" lon="20.10035910643637180328369140625">
        <ele>1859.199951171875</ele>
        <time>2026-06-15T09:12:16.000Z</time>
        <extensions>
          <ns3:TrackPointExtension>
            <ns3:atemp>21.0</ns3:atemp>
          </ns3:TrackPointExtension>
        </extensions>
      </trkpt>
      <trkpt lat="42.59208130650222301483154296875" lon="20.10035910643637180328369140625">
        <ele>1859.199951171875</ele>
        <time>2026-06-15T09:12:17.000Z</time>
        <extensions>
          <ns3:TrackPointExtension>
            <ns3:atemp>21.0</ns3:atemp>
          </ns3:TrackPointExtension>
        </extensions>
      </trkpt>
      <trkpt lat="42.59208130650222301483154296875" lon="20.10035910643637180328369140625">
        <ele>1859.199951171875</ele>
        <time>2026-06-15T09:12:18.000Z</time>
        <extensions>
          <ns3:TrackPointExtension>
            <ns3:atemp>21.0</ns3:atemp>
          </ns3:TrackPointExtension>
        </extensions>
      </trkpt>
      <trkpt lat="42.59208130650222301483154296875" lon="20.10035910643637180328369140625">
        <ele>1859.199951171875</ele>
        <time>2026-06-15T09:12:19.000Z</time>
        <extensions>
          <ns3:TrackPointExtension>
            <ns3:atemp>21.0</ns3:atemp>
          </ns3:TrackPointExtension>
        </extensions>
      </trkpt>
      <trkpt lat="42.59208130650222301483154296875" lon="20.10035910643637180328369140625">
        <ele>1859.199951171875</ele>
        <time>2026-06-15T09:12:20.000Z</time>
        <extensions>
          <ns3:TrackPointExtension>
            <ns3:atemp>21.0</ns3:atemp>
          </ns3:TrackPointExtension>
        </extensions>
      </trkpt>
      <trkpt lat="42.59208130650222301483154296875" lon="20.10035910643637180328369140625">
        <ele>1859.199951171875</ele>
        <time>2026-06-15T09:12:21.000Z</time>
        <extensions>
          <ns3:TrackPointExtension>
            <ns3:atemp>21.0</ns3:atemp>
          </ns3:TrackPointExtension>
        </extensions>
      </trkpt>
      <trkpt lat="42.59208130650222301483154296875" lon="20.10035910643637180328369140625">
        <ele>1859.199951171875</ele>
        <time>2026-06-15T09:12:22.000Z</time>
        <extensions>
          <ns3:TrackPointExtension>
            <ns3:atemp>21.0</ns3:atemp>
          </ns3:TrackPointExtension>
        </extensions>
      </trkpt>
      <trkpt lat="42.59208130650222301483154296875" lon="20.10035910643637180328369140625">
        <ele>1859.199951171875</ele>
        <time>2026-06-15T09:12:23.000Z</time>
        <extensions>
          <ns3:TrackPointExtension>
            <ns3:atemp>21.0</ns3:atemp>
          </ns3:TrackPointExtension>
        </extensions>
      </trkpt>
      <trkpt lat="42.59208130650222301483154296875" lon="20.10035910643637180328369140625">
        <ele>1859.199951171875</ele>
        <time>2026-06-15T09:12:24.000Z</time>
        <extensions>
          <ns3:TrackPointExtension>
            <ns3:atemp>21.0</ns3:atemp>
          </ns3:TrackPointExtension>
        </extensions>
      </trkpt>
      <trkpt lat="42.59208130650222301483154296875" lon="20.10035910643637180328369140625">
        <ele>1859.199951171875</ele>
        <time>2026-06-15T09:12:25.000Z</time>
        <extensions>
          <ns3:TrackPointExtension>
            <ns3:atemp>21.0</ns3:atemp>
          </ns3:TrackPointExtension>
        </extensions>
      </trkpt>
      <trkpt lat="42.59208130650222301483154296875" lon="20.10035910643637180328369140625">
        <ele>1859.199951171875</ele>
        <time>2026-06-15T09:12:26.000Z</time>
        <extensions>
          <ns3:TrackPointExtension>
            <ns3:atemp>21.0</ns3:atemp>
          </ns3:TrackPointExtension>
        </extensions>
      </trkpt>
      <trkpt lat="42.59208130650222301483154296875" lon="20.10035910643637180328369140625">
        <ele>1859.199951171875</ele>
        <time>2026-06-15T09:12:27.000Z</time>
        <extensions>
          <ns3:TrackPointExtension>
            <ns3:atemp>21.0</ns3:atemp>
          </ns3:TrackPointExtension>
        </extensions>
      </trkpt>
      <trkpt lat="42.59208130650222301483154296875" lon="20.10035910643637180328369140625">
        <ele>1859.199951171875</ele>
        <time>2026-06-15T09:12:28.000Z</time>
        <extensions>
          <ns3:TrackPointExtension>
            <ns3:atemp>21.0</ns3:atemp>
          </ns3:TrackPointExtension>
        </extensions>
      </trkpt>
      <trkpt lat="42.59208130650222301483154296875" lon="20.10035910643637180328369140625">
        <ele>1859.4000244140625</ele>
        <time>2026-06-15T09:12:29.000Z</time>
        <extensions>
          <ns3:TrackPointExtension>
            <ns3:atemp>21.0</ns3:atemp>
          </ns3:TrackPointExtension>
        </extensions>
      </trkpt>
      <trkpt lat="42.59208130650222301483154296875" lon="20.10035910643637180328369140625">
        <ele>1859.4000244140625</ele>
        <time>2026-06-15T09:12:30.000Z</time>
        <extensions>
          <ns3:TrackPointExtension>
            <ns3:atemp>21.0</ns3:atemp>
          </ns3:TrackPointExtension>
        </extensions>
      </trkpt>
      <trkpt lat="42.59208130650222301483154296875" lon="20.10035910643637180328369140625">
        <ele>1859.4000244140625</ele>
        <time>2026-06-15T09:12:31.000Z</time>
        <extensions>
          <ns3:TrackPointExtension>
            <ns3:atemp>21.0</ns3:atemp>
          </ns3:TrackPointExtension>
        </extensions>
      </trkpt>
      <trkpt lat="42.59208130650222301483154296875" lon="20.10035910643637180328369140625">
        <ele>1859.199951171875</ele>
        <time>2026-06-15T09:12:32.000Z</time>
        <extensions>
          <ns3:TrackPointExtension>
            <ns3:atemp>21.0</ns3:atemp>
          </ns3:TrackPointExtension>
        </extensions>
      </trkpt>
      <trkpt lat="42.59208130650222301483154296875" lon="20.10035910643637180328369140625">
        <ele>1859.199951171875</ele>
        <time>2026-06-15T09:12:33.000Z</time>
        <extensions>
          <ns3:TrackPointExtension>
            <ns3:atemp>21.0</ns3:atemp>
          </ns3:TrackPointExtension>
        </extensions>
      </trkpt>
      <trkpt lat="42.59208130650222301483154296875" lon="20.10035910643637180328369140625">
        <ele>1859.199951171875</ele>
        <time>2026-06-15T09:12:34.000Z</time>
        <extensions>
          <ns3:TrackPointExtension>
            <ns3:atemp>21.0</ns3:atemp>
          </ns3:TrackPointExtension>
        </extensions>
      </trkpt>
      <trkpt lat="42.59208130650222301483154296875" lon="20.10035910643637180328369140625">
        <ele>1859.199951171875</ele>
        <time>2026-06-15T09:12:35.000Z</time>
        <extensions>
          <ns3:TrackPointExtension>
            <ns3:atemp>21.0</ns3:atemp>
          </ns3:TrackPointExtension>
        </extensions>
      </trkpt>
      <trkpt lat="42.59208130650222301483154296875" lon="20.10035910643637180328369140625">
        <ele>1859.199951171875</ele>
        <time>2026-06-15T09:12:36.000Z</time>
        <extensions>
          <ns3:TrackPointExtension>
            <ns3:atemp>21.0</ns3:atemp>
          </ns3:TrackPointExtension>
        </extensions>
      </trkpt>
      <trkpt lat="42.59208130650222301483154296875" lon="20.10035910643637180328369140625">
        <ele>1859.199951171875</ele>
        <time>2026-06-15T09:12:37.000Z</time>
        <extensions>
          <ns3:TrackPointExtension>
            <ns3:atemp>21.0</ns3:atemp>
          </ns3:TrackPointExtension>
        </extensions>
      </trkpt>
      <trkpt lat="42.59208130650222301483154296875" lon="20.10035910643637180328369140625">
        <ele>1859.199951171875</ele>
        <time>2026-06-15T09:12:38.000Z</time>
        <extensions>
          <ns3:TrackPointExtension>
            <ns3:atemp>21.0</ns3:atemp>
          </ns3:TrackPointExtension>
        </extensions>
      </trkpt>
      <trkpt lat="42.59208130650222301483154296875" lon="20.10035910643637180328369140625">
        <ele>1859.199951171875</ele>
        <time>2026-06-15T09:12:39.000Z</time>
        <extensions>
          <ns3:TrackPointExtension>
            <ns3:atemp>21.0</ns3:atemp>
          </ns3:TrackPointExtension>
        </extensions>
      </trkpt>
      <trkpt lat="42.59208130650222301483154296875" lon="20.10035910643637180328369140625">
        <ele>1859.199951171875</ele>
        <time>2026-06-15T09:12:40.000Z</time>
        <extensions>
          <ns3:TrackPointExtension>
            <ns3:atemp>21.0</ns3:atemp>
          </ns3:TrackPointExtension>
        </extensions>
      </trkpt>
      <trkpt lat="42.59208130650222301483154296875" lon="20.10035910643637180328369140625">
        <ele>1859.199951171875</ele>
        <time>2026-06-15T09:12:41.000Z</time>
        <extensions>
          <ns3:TrackPointExtension>
            <ns3:atemp>21.0</ns3:atemp>
          </ns3:TrackPointExtension>
        </extensions>
      </trkpt>
      <trkpt lat="42.59208130650222301483154296875" lon="20.10035910643637180328369140625">
        <ele>1859.199951171875</ele>
        <time>2026-06-15T09:12:42.000Z</time>
        <extensions>
          <ns3:TrackPointExtension>
            <ns3:atemp>21.0</ns3:atemp>
          </ns3:TrackPointExtension>
        </extensions>
      </trkpt>
      <trkpt lat="42.59208130650222301483154296875" lon="20.10035910643637180328369140625">
        <ele>1859.199951171875</ele>
        <time>2026-06-15T09:12:43.000Z</time>
        <extensions>
          <ns3:TrackPointExtension>
            <ns3:atemp>21.0</ns3:atemp>
          </ns3:TrackPointExtension>
        </extensions>
      </trkpt>
      <trkpt lat="42.59208130650222301483154296875" lon="20.10035910643637180328369140625">
        <ele>1859.199951171875</ele>
        <time>2026-06-15T09:12:44.000Z</time>
        <extensions>
          <ns3:TrackPointExtension>
            <ns3:atemp>21.0</ns3:atemp>
          </ns3:TrackPointExtension>
        </extensions>
      </trkpt>
      <trkpt lat="42.59208130650222301483154296875" lon="20.10035910643637180328369140625">
        <ele>1859.199951171875</ele>
        <time>2026-06-15T09:12:45.000Z</time>
        <extensions>
          <ns3:TrackPointExtension>
            <ns3:atemp>21.0</ns3:atemp>
          </ns3:TrackPointExtension>
        </extensions>
      </trkpt>
      <trkpt lat="42.59208130650222301483154296875" lon="20.10035910643637180328369140625">
        <ele>1859.199951171875</ele>
        <time>2026-06-15T09:12:46.000Z</time>
        <extensions>
          <ns3:TrackPointExtension>
            <ns3:atemp>21.0</ns3:atemp>
          </ns3:TrackPointExtension>
        </extensions>
      </trkpt>
      <trkpt lat="42.59208130650222301483154296875" lon="20.10035910643637180328369140625">
        <ele>1859.199951171875</ele>
        <time>2026-06-15T09:12:47.000Z</time>
        <extensions>
          <ns3:TrackPointExtension>
            <ns3:atemp>21.0</ns3:atemp>
          </ns3:TrackPointExtension>
        </extensions>
      </trkpt>
      <trkpt lat="42.59208130650222301483154296875" lon="20.10035910643637180328369140625">
        <ele>1859.199951171875</ele>
        <time>2026-06-15T09:12:48.000Z</time>
        <extensions>
          <ns3:TrackPointExtension>
            <ns3:atemp>21.0</ns3:atemp>
          </ns3:TrackPointExtension>
        </extensions>
      </trkpt>
      <trkpt lat="42.59208130650222301483154296875" lon="20.10035910643637180328369140625">
        <ele>1859.199951171875</ele>
        <time>2026-06-15T09:12:49.000Z</time>
        <extensions>
          <ns3:TrackPointExtension>
            <ns3:atemp>21.0</ns3:atemp>
          </ns3:TrackPointExtension>
        </extensions>
      </trkpt>
      <trkpt lat="42.59208130650222301483154296875" lon="20.10035910643637180328369140625">
        <ele>1859.199951171875</ele>
        <time>2026-06-15T09:12:50.000Z</time>
        <extensions>
          <ns3:TrackPointExtension>
            <ns3:atemp>21.0</ns3:atemp>
          </ns3:TrackPointExtension>
        </extensions>
      </trkpt>
      <trkpt lat="42.59208130650222301483154296875" lon="20.10035910643637180328369140625">
        <ele>1859.199951171875</ele>
        <time>2026-06-15T09:12:51.000Z</time>
        <extensions>
          <ns3:TrackPointExtension>
            <ns3:atemp>21.0</ns3:atemp>
          </ns3:TrackPointExtension>
        </extensions>
      </trkpt>
      <trkpt lat="42.59208130650222301483154296875" lon="20.10035910643637180328369140625">
        <ele>1859.199951171875</ele>
        <time>2026-06-15T09:12:52.000Z</time>
        <extensions>
          <ns3:TrackPointExtension>
            <ns3:atemp>21.0</ns3:atemp>
          </ns3:TrackPointExtension>
        </extensions>
      </trkpt>
      <trkpt lat="42.59208130650222301483154296875" lon="20.10035910643637180328369140625">
        <ele>1859.199951171875</ele>
        <time>2026-06-15T09:12:53.000Z</time>
        <extensions>
          <ns3:TrackPointExtension>
            <ns3:atemp>21.0</ns3:atemp>
          </ns3:TrackPointExtension>
        </extensions>
      </trkpt>
      <trkpt lat="42.59208130650222301483154296875" lon="20.10035910643637180328369140625">
        <ele>1859.199951171875</ele>
        <time>2026-06-15T09:12:54.000Z</time>
        <extensions>
          <ns3:TrackPointExtension>
            <ns3:atemp>21.0</ns3:atemp>
          </ns3:TrackPointExtension>
        </extensions>
      </trkpt>
      <trkpt lat="42.59208130650222301483154296875" lon="20.10035910643637180328369140625">
        <ele>1859.199951171875</ele>
        <time>2026-06-15T09:12:55.000Z</time>
        <extensions>
          <ns3:TrackPointExtension>
            <ns3:atemp>21.0</ns3:atemp>
          </ns3:TrackPointExtension>
        </extensions>
      </trkpt>
      <trkpt lat="42.59208130650222301483154296875" lon="20.10035910643637180328369140625">
        <ele>1859.199951171875</ele>
        <time>2026-06-15T09:12:56.000Z</time>
        <extensions>
          <ns3:TrackPointExtension>
            <ns3:atemp>21.0</ns3:atemp>
          </ns3:TrackPointExtension>
        </extensions>
      </trkpt>
      <trkpt lat="42.59208130650222301483154296875" lon="20.10035910643637180328369140625">
        <ele>1859.199951171875</ele>
        <time>2026-06-15T09:12:57.000Z</time>
        <extensions>
          <ns3:TrackPointExtension>
            <ns3:atemp>21.0</ns3:atemp>
          </ns3:TrackPointExtension>
        </extensions>
      </trkpt>
      <trkpt lat="42.59208130650222301483154296875" lon="20.10035910643637180328369140625">
        <ele>1859.199951171875</ele>
        <time>2026-06-15T09:12:58.000Z</time>
        <extensions>
          <ns3:TrackPointExtension>
            <ns3:atemp>21.0</ns3:atemp>
          </ns3:TrackPointExtension>
        </extensions>
      </trkpt>
      <trkpt lat="42.59208130650222301483154296875" lon="20.10035910643637180328369140625">
        <ele>1859.199951171875</ele>
        <time>2026-06-15T09:12:59.000Z</time>
        <extensions>
          <ns3:TrackPointExtension>
            <ns3:atemp>21.0</ns3:atemp>
          </ns3:TrackPointExtension>
        </extensions>
      </trkpt>
      <trkpt lat="42.59208130650222301483154296875" lon="20.10035910643637180328369140625">
        <ele>1859.199951171875</ele>
        <time>2026-06-15T09:13:00.000Z</time>
        <extensions>
          <ns3:TrackPointExtension>
            <ns3:atemp>21.0</ns3:atemp>
          </ns3:TrackPointExtension>
        </extensions>
      </trkpt>
      <trkpt lat="42.59208130650222301483154296875" lon="20.10035910643637180328369140625">
        <ele>1859.199951171875</ele>
        <time>2026-06-15T09:13:01.000Z</time>
        <extensions>
          <ns3:TrackPointExtension>
            <ns3:atemp>21.0</ns3:atemp>
          </ns3:TrackPointExtension>
        </extensions>
      </trkpt>
      <trkpt lat="42.59208130650222301483154296875" lon="20.10035910643637180328369140625">
        <ele>1859.199951171875</ele>
        <time>2026-06-15T09:13:02.000Z</time>
        <extensions>
          <ns3:TrackPointExtension>
            <ns3:atemp>21.0</ns3:atemp>
          </ns3:TrackPointExtension>
        </extensions>
      </trkpt>
      <trkpt lat="42.59208130650222301483154296875" lon="20.10035910643637180328369140625">
        <ele>1859.199951171875</ele>
        <time>2026-06-15T09:13:03.000Z</time>
        <extensions>
          <ns3:TrackPointExtension>
            <ns3:atemp>21.0</ns3:atemp>
          </ns3:TrackPointExtension>
        </extensions>
      </trkpt>
      <trkpt lat="42.59208130650222301483154296875" lon="20.10035910643637180328369140625">
        <ele>1859.199951171875</ele>
        <time>2026-06-15T09:13:04.000Z</time>
        <extensions>
          <ns3:TrackPointExtension>
            <ns3:atemp>21.0</ns3:atemp>
          </ns3:TrackPointExtension>
        </extensions>
      </trkpt>
      <trkpt lat="42.59208130650222301483154296875" lon="20.10035910643637180328369140625">
        <ele>1859.199951171875</ele>
        <time>2026-06-15T09:13:05.000Z</time>
        <extensions>
          <ns3:TrackPointExtension>
            <ns3:atemp>21.0</ns3:atemp>
          </ns3:TrackPointExtension>
        </extensions>
      </trkpt>
      <trkpt lat="42.59208130650222301483154296875" lon="20.10035910643637180328369140625">
        <ele>1859.199951171875</ele>
        <time>2026-06-15T09:13:06.000Z</time>
        <extensions>
          <ns3:TrackPointExtension>
            <ns3:atemp>21.0</ns3:atemp>
          </ns3:TrackPointExtension>
        </extensions>
      </trkpt>
      <trkpt lat="42.59208130650222301483154296875" lon="20.10035910643637180328369140625">
        <ele>1859.199951171875</ele>
        <time>2026-06-15T09:13:07.000Z</time>
        <extensions>
          <ns3:TrackPointExtension>
            <ns3:atemp>21.0</ns3:atemp>
          </ns3:TrackPointExtension>
        </extensions>
      </trkpt>
      <trkpt lat="42.59208130650222301483154296875" lon="20.10035910643637180328369140625">
        <ele>1859.199951171875</ele>
        <time>2026-06-15T09:13:08.000Z</time>
        <extensions>
          <ns3:TrackPointExtension>
            <ns3:atemp>21.0</ns3:atemp>
          </ns3:TrackPointExtension>
        </extensions>
      </trkpt>
      <trkpt lat="42.59208130650222301483154296875" lon="20.10035910643637180328369140625">
        <ele>1859.199951171875</ele>
        <time>2026-06-15T09:13:09.000Z</time>
        <extensions>
          <ns3:TrackPointExtension>
            <ns3:atemp>21.0</ns3:atemp>
          </ns3:TrackPointExtension>
        </extensions>
      </trkpt>
      <trkpt lat="42.59208130650222301483154296875" lon="20.10035910643637180328369140625">
        <ele>1859.199951171875</ele>
        <time>2026-06-15T09:13:10.000Z</time>
        <extensions>
          <ns3:TrackPointExtension>
            <ns3:atemp>21.0</ns3:atemp>
          </ns3:TrackPointExtension>
        </extensions>
      </trkpt>
      <trkpt lat="42.59208130650222301483154296875" lon="20.10035910643637180328369140625">
        <ele>1859.199951171875</ele>
        <time>2026-06-15T09:13:11.000Z</time>
        <extensions>
          <ns3:TrackPointExtension>
            <ns3:atemp>21.0</ns3:atemp>
          </ns3:TrackPointExtension>
        </extensions>
      </trkpt>
      <trkpt lat="42.59208130650222301483154296875" lon="20.10035910643637180328369140625">
        <ele>1859.199951171875</ele>
        <time>2026-06-15T09:13:12.000Z</time>
        <extensions>
          <ns3:TrackPointExtension>
            <ns3:atemp>21.0</ns3:atemp>
          </ns3:TrackPointExtension>
        </extensions>
      </trkpt>
      <trkpt lat="42.59208130650222301483154296875" lon="20.10035910643637180328369140625">
        <ele>1859.199951171875</ele>
        <time>2026-06-15T09:13:13.000Z</time>
        <extensions>
          <ns3:TrackPointExtension>
            <ns3:atemp>21.0</ns3:atemp>
          </ns3:TrackPointExtension>
        </extensions>
      </trkpt>
      <trkpt lat="42.59208130650222301483154296875" lon="20.10035910643637180328369140625">
        <ele>1859.199951171875</ele>
        <time>2026-06-15T09:13:14.000Z</time>
        <extensions>
          <ns3:TrackPointExtension>
            <ns3:atemp>21.0</ns3:atemp>
          </ns3:TrackPointExtension>
        </extensions>
      </trkpt>
      <trkpt lat="42.59208130650222301483154296875" lon="20.10035910643637180328369140625">
        <ele>1859.199951171875</ele>
        <time>2026-06-15T09:13:15.000Z</time>
        <extensions>
          <ns3:TrackPointExtension>
            <ns3:atemp>21.0</ns3:atemp>
          </ns3:TrackPointExtension>
        </extensions>
      </trkpt>
      <trkpt lat="42.59208130650222301483154296875" lon="20.10035910643637180328369140625">
        <ele>1859.199951171875</ele>
        <time>2026-06-15T09:13:16.000Z</time>
        <extensions>
          <ns3:TrackPointExtension>
            <ns3:atemp>21.0</ns3:atemp>
          </ns3:TrackPointExtension>
        </extensions>
      </trkpt>
      <trkpt lat="42.59208130650222301483154296875" lon="20.10035910643637180328369140625">
        <ele>1859.199951171875</ele>
        <time>2026-06-15T09:13:17.000Z</time>
        <extensions>
          <ns3:TrackPointExtension>
            <ns3:atemp>21.0</ns3:atemp>
          </ns3:TrackPointExtension>
        </extensions>
      </trkpt>
      <trkpt lat="42.59208130650222301483154296875" lon="20.10035910643637180328369140625">
        <ele>1859.199951171875</ele>
        <time>2026-06-15T09:13:18.000Z</time>
        <extensions>
          <ns3:TrackPointExtension>
            <ns3:atemp>21.0</ns3:atemp>
          </ns3:TrackPointExtension>
        </extensions>
      </trkpt>
      <trkpt lat="42.59208130650222301483154296875" lon="20.10035910643637180328369140625">
        <ele>1859.199951171875</ele>
        <time>2026-06-15T09:13:19.000Z</time>
        <extensions>
          <ns3:TrackPointExtension>
            <ns3:atemp>21.0</ns3:atemp>
          </ns3:TrackPointExtension>
        </extensions>
      </trkpt>
      <trkpt lat="42.59208130650222301483154296875" lon="20.10035910643637180328369140625">
        <ele>1859.199951171875</ele>
        <time>2026-06-15T09:13:20.000Z</time>
        <extensions>
          <ns3:TrackPointExtension>
            <ns3:atemp>21.0</ns3:atemp>
          </ns3:TrackPointExtension>
        </extensions>
      </trkpt>
      <trkpt lat="42.59208130650222301483154296875" lon="20.10035910643637180328369140625">
        <ele>1859.199951171875</ele>
        <time>2026-06-15T09:13:21.000Z</time>
        <extensions>
          <ns3:TrackPointExtension>
            <ns3:atemp>21.0</ns3:atemp>
          </ns3:TrackPointExtension>
        </extensions>
      </trkpt>
      <trkpt lat="42.59208130650222301483154296875" lon="20.10035910643637180328369140625">
        <ele>1859.199951171875</ele>
        <time>2026-06-15T09:13:22.000Z</time>
        <extensions>
          <ns3:TrackPointExtension>
            <ns3:atemp>21.0</ns3:atemp>
          </ns3:TrackPointExtension>
        </extensions>
      </trkpt>
      <trkpt lat="42.59208130650222301483154296875" lon="20.10035910643637180328369140625">
        <ele>1859.199951171875</ele>
        <time>2026-06-15T09:13:23.000Z</time>
        <extensions>
          <ns3:TrackPointExtension>
            <ns3:atemp>21.0</ns3:atemp>
          </ns3:TrackPointExtension>
        </extensions>
      </trkpt>
      <trkpt lat="42.59208130650222301483154296875" lon="20.10035910643637180328369140625">
        <ele>1859.199951171875</ele>
        <time>2026-06-15T09:13:24.000Z</time>
        <extensions>
          <ns3:TrackPointExtension>
            <ns3:atemp>21.0</ns3:atemp>
          </ns3:TrackPointExtension>
        </extensions>
      </trkpt>
      <trkpt lat="42.59208130650222301483154296875" lon="20.10035910643637180328369140625">
        <ele>1859.199951171875</ele>
        <time>2026-06-15T09:13:25.000Z</time>
        <extensions>
          <ns3:TrackPointExtension>
            <ns3:atemp>21.0</ns3:atemp>
          </ns3:TrackPointExtension>
        </extensions>
      </trkpt>
      <trkpt lat="42.59208130650222301483154296875" lon="20.10035910643637180328369140625">
        <ele>1859.199951171875</ele>
        <time>2026-06-15T09:13:26.000Z</time>
        <extensions>
          <ns3:TrackPointExtension>
            <ns3:atemp>21.0</ns3:atemp>
          </ns3:TrackPointExtension>
        </extensions>
      </trkpt>
      <trkpt lat="42.59208130650222301483154296875" lon="20.10035910643637180328369140625">
        <ele>1859.199951171875</ele>
        <time>2026-06-15T09:13:27.000Z</time>
        <extensions>
          <ns3:TrackPointExtension>
            <ns3:atemp>21.0</ns3:atemp>
          </ns3:TrackPointExtension>
        </extensions>
      </trkpt>
      <trkpt lat="42.59208130650222301483154296875" lon="20.10035910643637180328369140625">
        <ele>1859.199951171875</ele>
        <time>2026-06-15T09:13:28.000Z</time>
        <extensions>
          <ns3:TrackPointExtension>
            <ns3:atemp>21.0</ns3:atemp>
          </ns3:TrackPointExtension>
        </extensions>
      </trkpt>
      <trkpt lat="42.59208130650222301483154296875" lon="20.10035910643637180328369140625">
        <ele>1859.199951171875</ele>
        <time>2026-06-15T09:13:29.000Z</time>
        <extensions>
          <ns3:TrackPointExtension>
            <ns3:atemp>21.0</ns3:atemp>
          </ns3:TrackPointExtension>
        </extensions>
      </trkpt>
      <trkpt lat="42.59208130650222301483154296875" lon="20.10035910643637180328369140625">
        <ele>1859.199951171875</ele>
        <time>2026-06-15T09:13:30.000Z</time>
        <extensions>
          <ns3:TrackPointExtension>
            <ns3:atemp>21.0</ns3:atemp>
          </ns3:TrackPointExtension>
        </extensions>
      </trkpt>
      <trkpt lat="42.59208130650222301483154296875" lon="20.10035910643637180328369140625">
        <ele>1859.199951171875</ele>
        <time>2026-06-15T09:13:31.000Z</time>
        <extensions>
          <ns3:TrackPointExtension>
            <ns3:atemp>21.0</ns3:atemp>
          </ns3:TrackPointExtension>
        </extensions>
      </trkpt>
      <trkpt lat="42.59208130650222301483154296875" lon="20.10035910643637180328369140625">
        <ele>1859.199951171875</ele>
        <time>2026-06-15T09:13:32.000Z</time>
        <extensions>
          <ns3:TrackPointExtension>
            <ns3:atemp>21.0</ns3:atemp>
          </ns3:TrackPointExtension>
        </extensions>
      </trkpt>
      <trkpt lat="42.59208130650222301483154296875" lon="20.10035910643637180328369140625">
        <ele>1859.199951171875</ele>
        <time>2026-06-15T09:13:33.000Z</time>
        <extensions>
          <ns3:TrackPointExtension>
            <ns3:atemp>21.0</ns3:atemp>
          </ns3:TrackPointExtension>
        </extensions>
      </trkpt>
      <trkpt lat="42.59208130650222301483154296875" lon="20.10035910643637180328369140625">
        <ele>1859.199951171875</ele>
        <time>2026-06-15T09:13:34.000Z</time>
        <extensions>
          <ns3:TrackPointExtension>
            <ns3:atemp>21.0</ns3:atemp>
          </ns3:TrackPointExtension>
        </extensions>
      </trkpt>
      <trkpt lat="42.59208130650222301483154296875" lon="20.10035910643637180328369140625">
        <ele>1859.199951171875</ele>
        <time>2026-06-15T09:13:35.000Z</time>
        <extensions>
          <ns3:TrackPointExtension>
            <ns3:atemp>21.0</ns3:atemp>
          </ns3:TrackPointExtension>
        </extensions>
      </trkpt>
      <trkpt lat="42.59208130650222301483154296875" lon="20.10035910643637180328369140625">
        <ele>1859.199951171875</ele>
        <time>2026-06-15T09:13:36.000Z</time>
        <extensions>
          <ns3:TrackPointExtension>
            <ns3:atemp>21.0</ns3:atemp>
          </ns3:TrackPointExtension>
        </extensions>
      </trkpt>
      <trkpt lat="42.59208130650222301483154296875" lon="20.10035910643637180328369140625">
        <ele>1859.199951171875</ele>
        <time>2026-06-15T09:13:37.000Z</time>
        <extensions>
          <ns3:TrackPointExtension>
            <ns3:atemp>21.0</ns3:atemp>
          </ns3:TrackPointExtension>
        </extensions>
      </trkpt>
      <trkpt lat="42.59208130650222301483154296875" lon="20.10035910643637180328369140625">
        <ele>1859.199951171875</ele>
        <time>2026-06-15T09:13:38.000Z</time>
        <extensions>
          <ns3:TrackPointExtension>
            <ns3:atemp>21.0</ns3:atemp>
          </ns3:TrackPointExtension>
        </extensions>
      </trkpt>
      <trkpt lat="42.59208130650222301483154296875" lon="20.10035910643637180328369140625">
        <ele>1859.199951171875</ele>
        <time>2026-06-15T09:13:39.000Z</time>
        <extensions>
          <ns3:TrackPointExtension>
            <ns3:atemp>21.0</ns3:atemp>
          </ns3:TrackPointExtension>
        </extensions>
      </trkpt>
      <trkpt lat="42.59208130650222301483154296875" lon="20.10035910643637180328369140625">
        <ele>1859.199951171875</ele>
        <time>2026-06-15T09:13:40.000Z</time>
        <extensions>
          <ns3:TrackPointExtension>
            <ns3:atemp>21.0</ns3:atemp>
          </ns3:TrackPointExtension>
        </extensions>
      </trkpt>
      <trkpt lat="42.59208130650222301483154296875" lon="20.10035910643637180328369140625">
        <ele>1859.199951171875</ele>
        <time>2026-06-15T09:13:41.000Z</time>
        <extensions>
          <ns3:TrackPointExtension>
            <ns3:atemp>21.0</ns3:atemp>
          </ns3:TrackPointExtension>
        </extensions>
      </trkpt>
      <trkpt lat="42.59208130650222301483154296875" lon="20.10035910643637180328369140625">
        <ele>1859.199951171875</ele>
        <time>2026-06-15T09:13:42.000Z</time>
        <extensions>
          <ns3:TrackPointExtension>
            <ns3:atemp>21.0</ns3:atemp>
          </ns3:TrackPointExtension>
        </extensions>
      </trkpt>
      <trkpt lat="42.59208130650222301483154296875" lon="20.10035910643637180328369140625">
        <ele>1859.199951171875</ele>
        <time>2026-06-15T09:13:43.000Z</time>
        <extensions>
          <ns3:TrackPointExtension>
            <ns3:atemp>21.0</ns3:atemp>
          </ns3:TrackPointExtension>
        </extensions>
      </trkpt>
      <trkpt lat="42.59208130650222301483154296875" lon="20.10035910643637180328369140625">
        <ele>1859.199951171875</ele>
        <time>2026-06-15T09:13:44.000Z</time>
        <extensions>
          <ns3:TrackPointExtension>
            <ns3:atemp>21.0</ns3:atemp>
          </ns3:TrackPointExtension>
        </extensions>
      </trkpt>
      <trkpt lat="42.59208130650222301483154296875" lon="20.10035910643637180328369140625">
        <ele>1859.199951171875</ele>
        <time>2026-06-15T09:13:45.000Z</time>
        <extensions>
          <ns3:TrackPointExtension>
            <ns3:atemp>21.0</ns3:atemp>
          </ns3:TrackPointExtension>
        </extensions>
      </trkpt>
      <trkpt lat="42.59208130650222301483154296875" lon="20.10035910643637180328369140625">
        <ele>1859.199951171875</ele>
        <time>2026-06-15T09:13:46.000Z</time>
        <extensions>
          <ns3:TrackPointExtension>
            <ns3:atemp>21.0</ns3:atemp>
          </ns3:TrackPointExtension>
        </extensions>
      </trkpt>
      <trkpt lat="42.59208130650222301483154296875" lon="20.10035910643637180328369140625">
        <ele>1859.199951171875</ele>
        <time>2026-06-15T09:13:47.000Z</time>
        <extensions>
          <ns3:TrackPointExtension>
            <ns3:atemp>21.0</ns3:atemp>
          </ns3:TrackPointExtension>
        </extensions>
      </trkpt>
      <trkpt lat="42.59208130650222301483154296875" lon="20.10035910643637180328369140625">
        <ele>1859.199951171875</ele>
        <time>2026-06-15T09:13:48.000Z</time>
        <extensions>
          <ns3:TrackPointExtension>
            <ns3:atemp>21.0</ns3:atemp>
          </ns3:TrackPointExtension>
        </extensions>
      </trkpt>
      <trkpt lat="42.59208130650222301483154296875" lon="20.10035910643637180328369140625">
        <ele>1859.199951171875</ele>
        <time>2026-06-15T09:13:49.000Z</time>
        <extensions>
          <ns3:TrackPointExtension>
            <ns3:atemp>21.0</ns3:atemp>
          </ns3:TrackPointExtension>
        </extensions>
      </trkpt>
      <trkpt lat="42.59208130650222301483154296875" lon="20.10035910643637180328369140625">
        <ele>1859.199951171875</ele>
        <time>2026-06-15T09:13:50.000Z</time>
        <extensions>
          <ns3:TrackPointExtension>
            <ns3:atemp>21.0</ns3:atemp>
          </ns3:TrackPointExtension>
        </extensions>
      </trkpt>
      <trkpt lat="42.59208130650222301483154296875" lon="20.10035910643637180328369140625">
        <ele>1859.199951171875</ele>
        <time>2026-06-15T09:13:51.000Z</time>
        <extensions>
          <ns3:TrackPointExtension>
            <ns3:atemp>21.0</ns3:atemp>
          </ns3:TrackPointExtension>
        </extensions>
      </trkpt>
      <trkpt lat="42.59208130650222301483154296875" lon="20.10035910643637180328369140625">
        <ele>1859.199951171875</ele>
        <time>2026-06-15T09:13:52.000Z</time>
        <extensions>
          <ns3:TrackPointExtension>
            <ns3:atemp>21.0</ns3:atemp>
          </ns3:TrackPointExtension>
        </extensions>
      </trkpt>
      <trkpt lat="42.59208130650222301483154296875" lon="20.10035910643637180328369140625">
        <ele>1859.199951171875</ele>
        <time>2026-06-15T09:13:53.000Z</time>
        <extensions>
          <ns3:TrackPointExtension>
            <ns3:atemp>21.0</ns3:atemp>
          </ns3:TrackPointExtension>
        </extensions>
      </trkpt>
      <trkpt lat="42.59208130650222301483154296875" lon="20.10035910643637180328369140625">
        <ele>1859.199951171875</ele>
        <time>2026-06-15T09:13:54.000Z</time>
        <extensions>
          <ns3:TrackPointExtension>
            <ns3:atemp>21.0</ns3:atemp>
          </ns3:TrackPointExtension>
        </extensions>
      </trkpt>
      <trkpt lat="42.59208130650222301483154296875" lon="20.10035910643637180328369140625">
        <ele>1859.199951171875</ele>
        <time>2026-06-15T09:13:55.000Z</time>
        <extensions>
          <ns3:TrackPointExtension>
            <ns3:atemp>21.0</ns3:atemp>
          </ns3:TrackPointExtension>
        </extensions>
      </trkpt>
      <trkpt lat="42.59208130650222301483154296875" lon="20.10035910643637180328369140625">
        <ele>1859.199951171875</ele>
        <time>2026-06-15T09:13:56.000Z</time>
        <extensions>
          <ns3:TrackPointExtension>
            <ns3:atemp>21.0</ns3:atemp>
          </ns3:TrackPointExtension>
        </extensions>
      </trkpt>
      <trkpt lat="42.59208130650222301483154296875" lon="20.10035910643637180328369140625">
        <ele>1859.199951171875</ele>
        <time>2026-06-15T09:13:57.000Z</time>
        <extensions>
          <ns3:TrackPointExtension>
            <ns3:atemp>21.0</ns3:atemp>
          </ns3:TrackPointExtension>
        </extensions>
      </trkpt>
      <trkpt lat="42.59208130650222301483154296875" lon="20.10035910643637180328369140625">
        <ele>1859.199951171875</ele>
        <time>2026-06-15T09:13:58.000Z</time>
        <extensions>
          <ns3:TrackPointExtension>
            <ns3:atemp>21.0</ns3:atemp>
          </ns3:TrackPointExtension>
        </extensions>
      </trkpt>
      <trkpt lat="42.59208130650222301483154296875" lon="20.10035910643637180328369140625">
        <ele>1859.199951171875</ele>
        <time>2026-06-15T09:13:59.000Z</time>
        <extensions>
          <ns3:TrackPointExtension>
            <ns3:atemp>21.0</ns3:atemp>
          </ns3:TrackPointExtension>
        </extensions>
      </trkpt>
      <trkpt lat="42.59208130650222301483154296875" lon="20.10035910643637180328369140625">
        <ele>1859.199951171875</ele>
        <time>2026-06-15T09:14:00.000Z</time>
        <extensions>
          <ns3:TrackPointExtension>
            <ns3:atemp>21.0</ns3:atemp>
          </ns3:TrackPointExtension>
        </extensions>
      </trkpt>
      <trkpt lat="42.59208130650222301483154296875" lon="20.10035910643637180328369140625">
        <ele>1859.199951171875</ele>
        <time>2026-06-15T09:14:01.000Z</time>
        <extensions>
          <ns3:TrackPointExtension>
            <ns3:atemp>21.0</ns3:atemp>
          </ns3:TrackPointExtension>
        </extensions>
      </trkpt>
      <trkpt lat="42.59208130650222301483154296875" lon="20.10035910643637180328369140625">
        <ele>1859.199951171875</ele>
        <time>2026-06-15T09:14:02.000Z</time>
        <extensions>
          <ns3:TrackPointExtension>
            <ns3:atemp>21.0</ns3:atemp>
          </ns3:TrackPointExtension>
        </extensions>
      </trkpt>
      <trkpt lat="42.59208130650222301483154296875" lon="20.10035910643637180328369140625">
        <ele>1859.199951171875</ele>
        <time>2026-06-15T09:14:03.000Z</time>
        <extensions>
          <ns3:TrackPointExtension>
            <ns3:atemp>21.0</ns3:atemp>
          </ns3:TrackPointExtension>
        </extensions>
      </trkpt>
      <trkpt lat="42.59208130650222301483154296875" lon="20.10035910643637180328369140625">
        <ele>1859.199951171875</ele>
        <time>2026-06-15T09:14:04.000Z</time>
        <extensions>
          <ns3:TrackPointExtension>
            <ns3:atemp>21.0</ns3:atemp>
          </ns3:TrackPointExtension>
        </extensions>
      </trkpt>
      <trkpt lat="42.59208130650222301483154296875" lon="20.10035910643637180328369140625">
        <ele>1859.199951171875</ele>
        <time>2026-06-15T09:14:05.000Z</time>
        <extensions>
          <ns3:TrackPointExtension>
            <ns3:atemp>21.0</ns3:atemp>
          </ns3:TrackPointExtension>
        </extensions>
      </trkpt>
      <trkpt lat="42.59208130650222301483154296875" lon="20.10035910643637180328369140625">
        <ele>1859.199951171875</ele>
        <time>2026-06-15T09:14:06.000Z</time>
        <extensions>
          <ns3:TrackPointExtension>
            <ns3:atemp>21.0</ns3:atemp>
          </ns3:TrackPointExtension>
        </extensions>
      </trkpt>
      <trkpt lat="42.59208130650222301483154296875" lon="20.10035910643637180328369140625">
        <ele>1859.199951171875</ele>
        <time>2026-06-15T09:14:07.000Z</time>
        <extensions>
          <ns3:TrackPointExtension>
            <ns3:atemp>21.0</ns3:atemp>
          </ns3:TrackPointExtension>
        </extensions>
      </trkpt>
      <trkpt lat="42.59208130650222301483154296875" lon="20.10035910643637180328369140625">
        <ele>1859.199951171875</ele>
        <time>2026-06-15T09:14:08.000Z</time>
        <extensions>
          <ns3:TrackPointExtension>
            <ns3:atemp>21.0</ns3:atemp>
          </ns3:TrackPointExtension>
        </extensions>
      </trkpt>
      <trkpt lat="42.59208130650222301483154296875" lon="20.10035910643637180328369140625">
        <ele>1859.199951171875</ele>
        <time>2026-06-15T09:14:09.000Z</time>
        <extensions>
          <ns3:TrackPointExtension>
            <ns3:atemp>21.0</ns3:atemp>
          </ns3:TrackPointExtension>
        </extensions>
      </trkpt>
      <trkpt lat="42.59208130650222301483154296875" lon="20.10035910643637180328369140625">
        <ele>1859.199951171875</ele>
        <time>2026-06-15T09:14:10.000Z</time>
        <extensions>
          <ns3:TrackPointExtension>
            <ns3:atemp>21.0</ns3:atemp>
          </ns3:TrackPointExtension>
        </extensions>
      </trkpt>
      <trkpt lat="42.59208130650222301483154296875" lon="20.10035910643637180328369140625">
        <ele>1859.199951171875</ele>
        <time>2026-06-15T09:14:11.000Z</time>
        <extensions>
          <ns3:TrackPointExtension>
            <ns3:atemp>21.0</ns3:atemp>
          </ns3:TrackPointExtension>
        </extensions>
      </trkpt>
      <trkpt lat="42.59208130650222301483154296875" lon="20.10035910643637180328369140625">
        <ele>1859.199951171875</ele>
        <time>2026-06-15T09:14:12.000Z</time>
        <extensions>
          <ns3:TrackPointExtension>
            <ns3:atemp>21.0</ns3:atemp>
          </ns3:TrackPointExtension>
        </extensions>
      </trkpt>
      <trkpt lat="42.59208130650222301483154296875" lon="20.10035910643637180328369140625">
        <ele>1859.199951171875</ele>
        <time>2026-06-15T09:14:13.000Z</time>
        <extensions>
          <ns3:TrackPointExtension>
            <ns3:atemp>21.0</ns3:atemp>
          </ns3:TrackPointExtension>
        </extensions>
      </trkpt>
      <trkpt lat="42.59208130650222301483154296875" lon="20.10035910643637180328369140625">
        <ele>1859.199951171875</ele>
        <time>2026-06-15T09:14:14.000Z</time>
        <extensions>
          <ns3:TrackPointExtension>
            <ns3:atemp>21.0</ns3:atemp>
          </ns3:TrackPointExtension>
        </extensions>
      </trkpt>
      <trkpt lat="42.59208130650222301483154296875" lon="20.10035910643637180328369140625">
        <ele>1859.199951171875</ele>
        <time>2026-06-15T09:14:15.000Z</time>
        <extensions>
          <ns3:TrackPointExtension>
            <ns3:atemp>21.0</ns3:atemp>
          </ns3:TrackPointExtension>
        </extensions>
      </trkpt>
      <trkpt lat="42.59208130650222301483154296875" lon="20.10035910643637180328369140625">
        <ele>1859.199951171875</ele>
        <time>2026-06-15T09:14:16.000Z</time>
        <extensions>
          <ns3:TrackPointExtension>
            <ns3:atemp>21.0</ns3:atemp>
          </ns3:TrackPointExtension>
        </extensions>
      </trkpt>
      <trkpt lat="42.59208130650222301483154296875" lon="20.10035910643637180328369140625">
        <ele>1859.199951171875</ele>
        <time>2026-06-15T09:14:17.000Z</time>
        <extensions>
          <ns3:TrackPointExtension>
            <ns3:atemp>21.0</ns3:atemp>
          </ns3:TrackPointExtension>
        </extensions>
      </trkpt>
      <trkpt lat="42.59208130650222301483154296875" lon="20.10035910643637180328369140625">
        <ele>1859.199951171875</ele>
        <time>2026-06-15T09:14:18.000Z</time>
        <extensions>
          <ns3:TrackPointExtension>
            <ns3:atemp>21.0</ns3:atemp>
          </ns3:TrackPointExtension>
        </extensions>
      </trkpt>
      <trkpt lat="42.59208130650222301483154296875" lon="20.10035910643637180328369140625">
        <ele>1859.199951171875</ele>
        <time>2026-06-15T09:14:19.000Z</time>
        <extensions>
          <ns3:TrackPointExtension>
            <ns3:atemp>21.0</ns3:atemp>
          </ns3:TrackPointExtension>
        </extensions>
      </trkpt>
      <trkpt lat="42.59208130650222301483154296875" lon="20.10035910643637180328369140625">
        <ele>1859.199951171875</ele>
        <time>2026-06-15T09:14:20.000Z</time>
        <extensions>
          <ns3:TrackPointExtension>
            <ns3:atemp>21.0</ns3:atemp>
          </ns3:TrackPointExtension>
        </extensions>
      </trkpt>
      <trkpt lat="42.59208130650222301483154296875" lon="20.10035910643637180328369140625">
        <ele>1859.199951171875</ele>
        <time>2026-06-15T09:14:21.000Z</time>
        <extensions>
          <ns3:TrackPointExtension>
            <ns3:atemp>21.0</ns3:atemp>
          </ns3:TrackPointExtension>
        </extensions>
      </trkpt>
      <trkpt lat="42.59208130650222301483154296875" lon="20.10035910643637180328369140625">
        <ele>1859.199951171875</ele>
        <time>2026-06-15T09:14:22.000Z</time>
        <extensions>
          <ns3:TrackPointExtension>
            <ns3:atemp>21.0</ns3:atemp>
          </ns3:TrackPointExtension>
        </extensions>
      </trkpt>
      <trkpt lat="42.59208130650222301483154296875" lon="20.10035910643637180328369140625">
        <ele>1859.199951171875</ele>
        <time>2026-06-15T09:14:23.000Z</time>
        <extensions>
          <ns3:TrackPointExtension>
            <ns3:atemp>21.0</ns3:atemp>
          </ns3:TrackPointExtension>
        </extensions>
      </trkpt>
      <trkpt lat="42.59208130650222301483154296875" lon="20.10035910643637180328369140625">
        <ele>1859.199951171875</ele>
        <time>2026-06-15T09:14:24.000Z</time>
        <extensions>
          <ns3:TrackPointExtension>
            <ns3:atemp>21.0</ns3:atemp>
          </ns3:TrackPointExtension>
        </extensions>
      </trkpt>
      <trkpt lat="42.59208130650222301483154296875" lon="20.10035910643637180328369140625">
        <ele>1859.199951171875</ele>
        <time>2026-06-15T09:14:25.000Z</time>
        <extensions>
          <ns3:TrackPointExtension>
            <ns3:atemp>21.0</ns3:atemp>
          </ns3:TrackPointExtension>
        </extensions>
      </trkpt>
      <trkpt lat="42.59208130650222301483154296875" lon="20.10035910643637180328369140625">
        <ele>1859.199951171875</ele>
        <time>2026-06-15T09:14:26.000Z</time>
        <extensions>
          <ns3:TrackPointExtension>
            <ns3:atemp>21.0</ns3:atemp>
          </ns3:TrackPointExtension>
        </extensions>
      </trkpt>
      <trkpt lat="42.59208130650222301483154296875" lon="20.10035910643637180328369140625">
        <ele>1859.199951171875</ele>
        <time>2026-06-15T09:14:27.000Z</time>
        <extensions>
          <ns3:TrackPointExtension>
            <ns3:atemp>21.0</ns3:atemp>
          </ns3:TrackPointExtension>
        </extensions>
      </trkpt>
      <trkpt lat="42.59208130650222301483154296875" lon="20.10035910643637180328369140625">
        <ele>1859.199951171875</ele>
        <time>2026-06-15T09:14:28.000Z</time>
        <extensions>
          <ns3:TrackPointExtension>
            <ns3:atemp>21.0</ns3:atemp>
          </ns3:TrackPointExtension>
        </extensions>
      </trkpt>
      <trkpt lat="42.59208130650222301483154296875" lon="20.10035910643637180328369140625">
        <ele>1859.199951171875</ele>
        <time>2026-06-15T09:14:29.000Z</time>
        <extensions>
          <ns3:TrackPointExtension>
            <ns3:atemp>21.0</ns3:atemp>
          </ns3:TrackPointExtension>
        </extensions>
      </trkpt>
      <trkpt lat="42.59208130650222301483154296875" lon="20.10035910643637180328369140625">
        <ele>1859.199951171875</ele>
        <time>2026-06-15T09:14:30.000Z</time>
        <extensions>
          <ns3:TrackPointExtension>
            <ns3:atemp>21.0</ns3:atemp>
          </ns3:TrackPointExtension>
        </extensions>
      </trkpt>
      <trkpt lat="42.59208130650222301483154296875" lon="20.10035910643637180328369140625">
        <ele>1859.199951171875</ele>
        <time>2026-06-15T09:14:31.000Z</time>
        <extensions>
          <ns3:TrackPointExtension>
            <ns3:atemp>21.0</ns3:atemp>
          </ns3:TrackPointExtension>
        </extensions>
      </trkpt>
      <trkpt lat="42.59208130650222301483154296875" lon="20.10035910643637180328369140625">
        <ele>1859.199951171875</ele>
        <time>2026-06-15T09:14:32.000Z</time>
        <extensions>
          <ns3:TrackPointExtension>
            <ns3:atemp>21.0</ns3:atemp>
          </ns3:TrackPointExtension>
        </extensions>
      </trkpt>
      <trkpt lat="42.59208130650222301483154296875" lon="20.10035910643637180328369140625">
        <ele>1859.199951171875</ele>
        <time>2026-06-15T09:14:33.000Z</time>
        <extensions>
          <ns3:TrackPointExtension>
            <ns3:atemp>21.0</ns3:atemp>
          </ns3:TrackPointExtension>
        </extensions>
      </trkpt>
      <trkpt lat="42.59208130650222301483154296875" lon="20.10035910643637180328369140625">
        <ele>1859.199951171875</ele>
        <time>2026-06-15T09:14:34.000Z</time>
        <extensions>
          <ns3:TrackPointExtension>
            <ns3:atemp>21.0</ns3:atemp>
          </ns3:TrackPointExtension>
        </extensions>
      </trkpt>
      <trkpt lat="42.59208130650222301483154296875" lon="20.10035910643637180328369140625">
        <ele>1859.199951171875</ele>
        <time>2026-06-15T09:14:35.000Z</time>
        <extensions>
          <ns3:TrackPointExtension>
            <ns3:atemp>21.0</ns3:atemp>
          </ns3:TrackPointExtension>
        </extensions>
      </trkpt>
      <trkpt lat="42.59208130650222301483154296875" lon="20.10035910643637180328369140625">
        <ele>1859.199951171875</ele>
        <time>2026-06-15T09:14:36.000Z</time>
        <extensions>
          <ns3:TrackPointExtension>
            <ns3:atemp>21.0</ns3:atemp>
          </ns3:TrackPointExtension>
        </extensions>
      </trkpt>
      <trkpt lat="42.59208130650222301483154296875" lon="20.10035910643637180328369140625">
        <ele>1859.199951171875</ele>
        <time>2026-06-15T09:14:37.000Z</time>
        <extensions>
          <ns3:TrackPointExtension>
            <ns3:atemp>21.0</ns3:atemp>
          </ns3:TrackPointExtension>
        </extensions>
      </trkpt>
      <trkpt lat="42.59208130650222301483154296875" lon="20.10035910643637180328369140625">
        <ele>1859.199951171875</ele>
        <time>2026-06-15T09:14:38.000Z</time>
        <extensions>
          <ns3:TrackPointExtension>
            <ns3:atemp>21.0</ns3:atemp>
          </ns3:TrackPointExtension>
        </extensions>
      </trkpt>
      <trkpt lat="42.59208130650222301483154296875" lon="20.10035910643637180328369140625">
        <ele>1859.199951171875</ele>
        <time>2026-06-15T09:14:39.000Z</time>
        <extensions>
          <ns3:TrackPointExtension>
            <ns3:atemp>21.0</ns3:atemp>
          </ns3:TrackPointExtension>
        </extensions>
      </trkpt>
      <trkpt lat="42.59208130650222301483154296875" lon="20.10035910643637180328369140625">
        <ele>1859.199951171875</ele>
        <time>2026-06-15T09:14:40.000Z</time>
        <extensions>
          <ns3:TrackPointExtension>
            <ns3:atemp>21.0</ns3:atemp>
          </ns3:TrackPointExtension>
        </extensions>
      </trkpt>
      <trkpt lat="42.59208130650222301483154296875" lon="20.10035910643637180328369140625">
        <ele>1859.199951171875</ele>
        <time>2026-06-15T09:14:41.000Z</time>
        <extensions>
          <ns3:TrackPointExtension>
            <ns3:atemp>21.0</ns3:atemp>
          </ns3:TrackPointExtension>
        </extensions>
      </trkpt>
      <trkpt lat="42.59208130650222301483154296875" lon="20.10035910643637180328369140625">
        <ele>1859.199951171875</ele>
        <time>2026-06-15T09:14:42.000Z</time>
        <extensions>
          <ns3:TrackPointExtension>
            <ns3:atemp>21.0</ns3:atemp>
          </ns3:TrackPointExtension>
        </extensions>
      </trkpt>
      <trkpt lat="42.59208130650222301483154296875" lon="20.10035910643637180328369140625">
        <ele>1859.199951171875</ele>
        <time>2026-06-15T09:14:43.000Z</time>
        <extensions>
          <ns3:TrackPointExtension>
            <ns3:atemp>21.0</ns3:atemp>
          </ns3:TrackPointExtension>
        </extensions>
      </trkpt>
      <trkpt lat="42.59208130650222301483154296875" lon="20.10035910643637180328369140625">
        <ele>1859.199951171875</ele>
        <time>2026-06-15T09:14:44.000Z</time>
        <extensions>
          <ns3:TrackPointExtension>
            <ns3:atemp>21.0</ns3:atemp>
          </ns3:TrackPointExtension>
        </extensions>
      </trkpt>
      <trkpt lat="42.59208130650222301483154296875" lon="20.10035910643637180328369140625">
        <ele>1859.199951171875</ele>
        <time>2026-06-15T09:14:45.000Z</time>
        <extensions>
          <ns3:TrackPointExtension>
            <ns3:atemp>21.0</ns3:atemp>
          </ns3:TrackPointExtension>
        </extensions>
      </trkpt>
      <trkpt lat="42.59208130650222301483154296875" lon="20.10035910643637180328369140625">
        <ele>1859.199951171875</ele>
        <time>2026-06-15T09:14:46.000Z</time>
        <extensions>
          <ns3:TrackPointExtension>
            <ns3:atemp>21.0</ns3:atemp>
          </ns3:TrackPointExtension>
        </extensions>
      </trkpt>
      <trkpt lat="42.59208130650222301483154296875" lon="20.10035910643637180328369140625">
        <ele>1859.199951171875</ele>
        <time>2026-06-15T09:14:47.000Z</time>
        <extensions>
          <ns3:TrackPointExtension>
            <ns3:atemp>21.0</ns3:atemp>
          </ns3:TrackPointExtension>
        </extensions>
      </trkpt>
      <trkpt lat="42.59208130650222301483154296875" lon="20.10035910643637180328369140625">
        <ele>1859.199951171875</ele>
        <time>2026-06-15T09:14:48.000Z</time>
        <extensions>
          <ns3:TrackPointExtension>
            <ns3:atemp>21.0</ns3:atemp>
          </ns3:TrackPointExtension>
        </extensions>
      </trkpt>
      <trkpt lat="42.59208130650222301483154296875" lon="20.10035910643637180328369140625">
        <ele>1859.199951171875</ele>
        <time>2026-06-15T09:14:49.000Z</time>
        <extensions>
          <ns3:TrackPointExtension>
            <ns3:atemp>21.0</ns3:atemp>
          </ns3:TrackPointExtension>
        </extensions>
      </trkpt>
      <trkpt lat="42.59208130650222301483154296875" lon="20.10035910643637180328369140625">
        <ele>1859.199951171875</ele>
        <time>2026-06-15T09:14:50.000Z</time>
        <extensions>
          <ns3:TrackPointExtension>
            <ns3:atemp>21.0</ns3:atemp>
          </ns3:TrackPointExtension>
        </extensions>
      </trkpt>
      <trkpt lat="42.59208130650222301483154296875" lon="20.10035910643637180328369140625">
        <ele>1859.199951171875</ele>
        <time>2026-06-15T09:14:51.000Z</time>
        <extensions>
          <ns3:TrackPointExtension>
            <ns3:atemp>21.0</ns3:atemp>
          </ns3:TrackPointExtension>
        </extensions>
      </trkpt>
      <trkpt lat="42.59208130650222301483154296875" lon="20.10035910643637180328369140625">
        <ele>1859.199951171875</ele>
        <time>2026-06-15T09:14:52.000Z</time>
        <extensions>
          <ns3:TrackPointExtension>
            <ns3:atemp>21.0</ns3:atemp>
          </ns3:TrackPointExtension>
        </extensions>
      </trkpt>
      <trkpt lat="42.59208130650222301483154296875" lon="20.10035910643637180328369140625">
        <ele>1859.199951171875</ele>
        <time>2026-06-15T09:14:53.000Z</time>
        <extensions>
          <ns3:TrackPointExtension>
            <ns3:atemp>21.0</ns3:atemp>
          </ns3:TrackPointExtension>
        </extensions>
      </trkpt>
      <trkpt lat="42.59208130650222301483154296875" lon="20.10035910643637180328369140625">
        <ele>1859.199951171875</ele>
        <time>2026-06-15T09:14:54.000Z</time>
        <extensions>
          <ns3:TrackPointExtension>
            <ns3:atemp>21.0</ns3:atemp>
          </ns3:TrackPointExtension>
        </extensions>
      </trkpt>
      <trkpt lat="42.59208130650222301483154296875" lon="20.10035910643637180328369140625">
        <ele>1859.199951171875</ele>
        <time>2026-06-15T09:14:55.000Z</time>
        <extensions>
          <ns3:TrackPointExtension>
            <ns3:atemp>21.0</ns3:atemp>
          </ns3:TrackPointExtension>
        </extensions>
      </trkpt>
      <trkpt lat="42.59208130650222301483154296875" lon="20.10035910643637180328369140625">
        <ele>1859.199951171875</ele>
        <time>2026-06-15T09:14:56.000Z</time>
        <extensions>
          <ns3:TrackPointExtension>
            <ns3:atemp>21.0</ns3:atemp>
          </ns3:TrackPointExtension>
        </extensions>
      </trkpt>
      <trkpt lat="42.59208130650222301483154296875" lon="20.10035910643637180328369140625">
        <ele>1859.199951171875</ele>
        <time>2026-06-15T09:14:57.000Z</time>
        <extensions>
          <ns3:TrackPointExtension>
            <ns3:atemp>21.0</ns3:atemp>
          </ns3:TrackPointExtension>
        </extensions>
      </trkpt>
      <trkpt lat="42.59208130650222301483154296875" lon="20.10035910643637180328369140625">
        <ele>1859.199951171875</ele>
        <time>2026-06-15T09:14:58.000Z</time>
        <extensions>
          <ns3:TrackPointExtension>
            <ns3:atemp>21.0</ns3:atemp>
          </ns3:TrackPointExtension>
        </extensions>
      </trkpt>
      <trkpt lat="42.59208130650222301483154296875" lon="20.10035910643637180328369140625">
        <ele>1859.199951171875</ele>
        <time>2026-06-15T09:14:59.000Z</time>
        <extensions>
          <ns3:TrackPointExtension>
            <ns3:atemp>21.0</ns3:atemp>
          </ns3:TrackPointExtension>
        </extensions>
      </trkpt>
      <trkpt lat="42.59208130650222301483154296875" lon="20.10035910643637180328369140625">
        <ele>1859.199951171875</ele>
        <time>2026-06-15T09:15:00.000Z</time>
        <extensions>
          <ns3:TrackPointExtension>
            <ns3:atemp>21.0</ns3:atemp>
          </ns3:TrackPointExtension>
        </extensions>
      </trkpt>
      <trkpt lat="42.59208130650222301483154296875" lon="20.10035910643637180328369140625">
        <ele>1859.199951171875</ele>
        <time>2026-06-15T09:15:01.000Z</time>
        <extensions>
          <ns3:TrackPointExtension>
            <ns3:atemp>21.0</ns3:atemp>
          </ns3:TrackPointExtension>
        </extensions>
      </trkpt>
      <trkpt lat="42.59208130650222301483154296875" lon="20.10035910643637180328369140625">
        <ele>1859.199951171875</ele>
        <time>2026-06-15T09:15:02.000Z</time>
        <extensions>
          <ns3:TrackPointExtension>
            <ns3:atemp>21.0</ns3:atemp>
          </ns3:TrackPointExtension>
        </extensions>
      </trkpt>
      <trkpt lat="42.59208130650222301483154296875" lon="20.10035910643637180328369140625">
        <ele>1859.199951171875</ele>
        <time>2026-06-15T09:15:03.000Z</time>
        <extensions>
          <ns3:TrackPointExtension>
            <ns3:atemp>21.0</ns3:atemp>
          </ns3:TrackPointExtension>
        </extensions>
      </trkpt>
      <trkpt lat="42.59208130650222301483154296875" lon="20.10035910643637180328369140625">
        <ele>1859.199951171875</ele>
        <time>2026-06-15T09:15:04.000Z</time>
        <extensions>
          <ns3:TrackPointExtension>
            <ns3:atemp>21.0</ns3:atemp>
          </ns3:TrackPointExtension>
        </extensions>
      </trkpt>
      <trkpt lat="42.59208130650222301483154296875" lon="20.10035910643637180328369140625">
        <ele>1859.199951171875</ele>
        <time>2026-06-15T09:15:05.000Z</time>
        <extensions>
          <ns3:TrackPointExtension>
            <ns3:atemp>21.0</ns3:atemp>
          </ns3:TrackPointExtension>
        </extensions>
      </trkpt>
      <trkpt lat="42.59208130650222301483154296875" lon="20.10035910643637180328369140625">
        <ele>1859.199951171875</ele>
        <time>2026-06-15T09:15:06.000Z</time>
        <extensions>
          <ns3:TrackPointExtension>
            <ns3:atemp>21.0</ns3:atemp>
          </ns3:TrackPointExtension>
        </extensions>
      </trkpt>
      <trkpt lat="42.59208130650222301483154296875" lon="20.10035910643637180328369140625">
        <ele>1859.199951171875</ele>
        <time>2026-06-15T09:15:07.000Z</time>
        <extensions>
          <ns3:TrackPointExtension>
            <ns3:atemp>21.0</ns3:atemp>
          </ns3:TrackPointExtension>
        </extensions>
      </trkpt>
      <trkpt lat="42.59208130650222301483154296875" lon="20.10035910643637180328369140625">
        <ele>1859.199951171875</ele>
        <time>2026-06-15T09:15:08.000Z</time>
        <extensions>
          <ns3:TrackPointExtension>
            <ns3:atemp>21.0</ns3:atemp>
          </ns3:TrackPointExtension>
        </extensions>
      </trkpt>
      <trkpt lat="42.59208130650222301483154296875" lon="20.10035910643637180328369140625">
        <ele>1859.199951171875</ele>
        <time>2026-06-15T09:15:09.000Z</time>
        <extensions>
          <ns3:TrackPointExtension>
            <ns3:atemp>21.0</ns3:atemp>
          </ns3:TrackPointExtension>
        </extensions>
      </trkpt>
      <trkpt lat="42.59208130650222301483154296875" lon="20.10035910643637180328369140625">
        <ele>1859.199951171875</ele>
        <time>2026-06-15T09:15:10.000Z</time>
        <extensions>
          <ns3:TrackPointExtension>
            <ns3:atemp>21.0</ns3:atemp>
          </ns3:TrackPointExtension>
        </extensions>
      </trkpt>
      <trkpt lat="42.59208130650222301483154296875" lon="20.10035910643637180328369140625">
        <ele>1859.199951171875</ele>
        <time>2026-06-15T09:15:11.000Z</time>
        <extensions>
          <ns3:TrackPointExtension>
            <ns3:atemp>21.0</ns3:atemp>
          </ns3:TrackPointExtension>
        </extensions>
      </trkpt>
      <trkpt lat="42.59208130650222301483154296875" lon="20.10035910643637180328369140625">
        <ele>1859.199951171875</ele>
        <time>2026-06-15T09:15:12.000Z</time>
        <extensions>
          <ns3:TrackPointExtension>
            <ns3:atemp>21.0</ns3:atemp>
          </ns3:TrackPointExtension>
        </extensions>
      </trkpt>
      <trkpt lat="42.59208130650222301483154296875" lon="20.10035910643637180328369140625">
        <ele>1859.199951171875</ele>
        <time>2026-06-15T09:15:13.000Z</time>
        <extensions>
          <ns3:TrackPointExtension>
            <ns3:atemp>21.0</ns3:atemp>
          </ns3:TrackPointExtension>
        </extensions>
      </trkpt>
      <trkpt lat="42.59208130650222301483154296875" lon="20.10035910643637180328369140625">
        <ele>1859.199951171875</ele>
        <time>2026-06-15T09:15:14.000Z</time>
        <extensions>
          <ns3:TrackPointExtension>
            <ns3:atemp>21.0</ns3:atemp>
          </ns3:TrackPointExtension>
        </extensions>
      </trkpt>
      <trkpt lat="42.59208130650222301483154296875" lon="20.10035910643637180328369140625">
        <ele>1859.199951171875</ele>
        <time>2026-06-15T09:15:15.000Z</time>
        <extensions>
          <ns3:TrackPointExtension>
            <ns3:atemp>21.0</ns3:atemp>
          </ns3:TrackPointExtension>
        </extensions>
      </trkpt>
      <trkpt lat="42.59208130650222301483154296875" lon="20.10035910643637180328369140625">
        <ele>1859.199951171875</ele>
        <time>2026-06-15T09:15:16.000Z</time>
        <extensions>
          <ns3:TrackPointExtension>
            <ns3:atemp>21.0</ns3:atemp>
          </ns3:TrackPointExtension>
        </extensions>
      </trkpt>
      <trkpt lat="42.59208130650222301483154296875" lon="20.10035910643637180328369140625">
        <ele>1859.199951171875</ele>
        <time>2026-06-15T09:15:17.000Z</time>
        <extensions>
          <ns3:TrackPointExtension>
            <ns3:atemp>21.0</ns3:atemp>
          </ns3:TrackPointExtension>
        </extensions>
      </trkpt>
      <trkpt lat="42.59208130650222301483154296875" lon="20.10035910643637180328369140625">
        <ele>1859.199951171875</ele>
        <time>2026-06-15T09:15:18.000Z</time>
        <extensions>
          <ns3:TrackPointExtension>
            <ns3:atemp>21.0</ns3:atemp>
          </ns3:TrackPointExtension>
        </extensions>
      </trkpt>
      <trkpt lat="42.59208130650222301483154296875" lon="20.10035910643637180328369140625">
        <ele>1859.199951171875</ele>
        <time>2026-06-15T09:15:19.000Z</time>
        <extensions>
          <ns3:TrackPointExtension>
            <ns3:atemp>21.0</ns3:atemp>
          </ns3:TrackPointExtension>
        </extensions>
      </trkpt>
      <trkpt lat="42.59208130650222301483154296875" lon="20.10035910643637180328369140625">
        <ele>1859.199951171875</ele>
        <time>2026-06-15T09:15:20.000Z</time>
        <extensions>
          <ns3:TrackPointExtension>
            <ns3:atemp>21.0</ns3:atemp>
          </ns3:TrackPointExtension>
        </extensions>
      </trkpt>
      <trkpt lat="42.59208130650222301483154296875" lon="20.10035910643637180328369140625">
        <ele>1859.199951171875</ele>
        <time>2026-06-15T09:15:21.000Z</time>
        <extensions>
          <ns3:TrackPointExtension>
            <ns3:atemp>21.0</ns3:atemp>
          </ns3:TrackPointExtension>
        </extensions>
      </trkpt>
      <trkpt lat="42.59208130650222301483154296875" lon="20.10035910643637180328369140625">
        <ele>1859.199951171875</ele>
        <time>2026-06-15T09:15:22.000Z</time>
        <extensions>
          <ns3:TrackPointExtension>
            <ns3:atemp>21.0</ns3:atemp>
          </ns3:TrackPointExtension>
        </extensions>
      </trkpt>
      <trkpt lat="42.59208130650222301483154296875" lon="20.10035910643637180328369140625">
        <ele>1859.199951171875</ele>
        <time>2026-06-15T09:15:23.000Z</time>
        <extensions>
          <ns3:TrackPointExtension>
            <ns3:atemp>21.0</ns3:atemp>
          </ns3:TrackPointExtension>
        </extensions>
      </trkpt>
      <trkpt lat="42.59208130650222301483154296875" lon="20.10035910643637180328369140625">
        <ele>1859.199951171875</ele>
        <time>2026-06-15T09:15:24.000Z</time>
        <extensions>
          <ns3:TrackPointExtension>
            <ns3:atemp>21.0</ns3:atemp>
          </ns3:TrackPointExtension>
        </extensions>
      </trkpt>
      <trkpt lat="42.59208130650222301483154296875" lon="20.10035910643637180328369140625">
        <ele>1859.199951171875</ele>
        <time>2026-06-15T09:15:25.000Z</time>
        <extensions>
          <ns3:TrackPointExtension>
            <ns3:atemp>21.0</ns3:atemp>
          </ns3:TrackPointExtension>
        </extensions>
      </trkpt>
      <trkpt lat="42.59208130650222301483154296875" lon="20.10035910643637180328369140625">
        <ele>1859.199951171875</ele>
        <time>2026-06-15T09:15:26.000Z</time>
        <extensions>
          <ns3:TrackPointExtension>
            <ns3:atemp>21.0</ns3:atemp>
          </ns3:TrackPointExtension>
        </extensions>
      </trkpt>
      <trkpt lat="42.59208130650222301483154296875" lon="20.10035910643637180328369140625">
        <ele>1859.199951171875</ele>
        <time>2026-06-15T09:15:27.000Z</time>
        <extensions>
          <ns3:TrackPointExtension>
            <ns3:atemp>21.0</ns3:atemp>
          </ns3:TrackPointExtension>
        </extensions>
      </trkpt>
      <trkpt lat="42.59208130650222301483154296875" lon="20.10035910643637180328369140625">
        <ele>1859.199951171875</ele>
        <time>2026-06-15T09:15:28.000Z</time>
        <extensions>
          <ns3:TrackPointExtension>
            <ns3:atemp>21.0</ns3:atemp>
          </ns3:TrackPointExtension>
        </extensions>
      </trkpt>
      <trkpt lat="42.59208130650222301483154296875" lon="20.10035910643637180328369140625">
        <ele>1859.199951171875</ele>
        <time>2026-06-15T09:15:29.000Z</time>
        <extensions>
          <ns3:TrackPointExtension>
            <ns3:atemp>21.0</ns3:atemp>
          </ns3:TrackPointExtension>
        </extensions>
      </trkpt>
      <trkpt lat="42.59208130650222301483154296875" lon="20.10035910643637180328369140625">
        <ele>1859.199951171875</ele>
        <time>2026-06-15T09:15:30.000Z</time>
        <extensions>
          <ns3:TrackPointExtension>
            <ns3:atemp>21.0</ns3:atemp>
          </ns3:TrackPointExtension>
        </extensions>
      </trkpt>
      <trkpt lat="42.59208130650222301483154296875" lon="20.10035910643637180328369140625">
        <ele>1859.199951171875</ele>
        <time>2026-06-15T09:15:31.000Z</time>
        <extensions>
          <ns3:TrackPointExtension>
            <ns3:atemp>21.0</ns3:atemp>
          </ns3:TrackPointExtension>
        </extensions>
      </trkpt>
      <trkpt lat="42.59208130650222301483154296875" lon="20.10035910643637180328369140625">
        <ele>1859.199951171875</ele>
        <time>2026-06-15T09:15:32.000Z</time>
        <extensions>
          <ns3:TrackPointExtension>
            <ns3:atemp>21.0</ns3:atemp>
          </ns3:TrackPointExtension>
        </extensions>
      </trkpt>
      <trkpt lat="42.59208130650222301483154296875" lon="20.10035910643637180328369140625">
        <ele>1859.199951171875</ele>
        <time>2026-06-15T09:15:33.000Z</time>
        <extensions>
          <ns3:TrackPointExtension>
            <ns3:atemp>21.0</ns3:atemp>
          </ns3:TrackPointExtension>
        </extensions>
      </trkpt>
      <trkpt lat="42.59208130650222301483154296875" lon="20.10035910643637180328369140625">
        <ele>1859.199951171875</ele>
        <time>2026-06-15T09:15:34.000Z</time>
        <extensions>
          <ns3:TrackPointExtension>
            <ns3:atemp>21.0</ns3:atemp>
          </ns3:TrackPointExtension>
        </extensions>
      </trkpt>
      <trkpt lat="42.59208130650222301483154296875" lon="20.10035910643637180328369140625">
        <ele>1859.199951171875</ele>
        <time>2026-06-15T09:15:35.000Z</time>
        <extensions>
          <ns3:TrackPointExtension>
            <ns3:atemp>21.0</ns3:atemp>
          </ns3:TrackPointExtension>
        </extensions>
      </trkpt>
      <trkpt lat="42.59208130650222301483154296875" lon="20.10035910643637180328369140625">
        <ele>1859.199951171875</ele>
        <time>2026-06-15T09:15:36.000Z</time>
        <extensions>
          <ns3:TrackPointExtension>
            <ns3:atemp>21.0</ns3:atemp>
          </ns3:TrackPointExtension>
        </extensions>
      </trkpt>
      <trkpt lat="42.59208130650222301483154296875" lon="20.10035910643637180328369140625">
        <ele>1859.199951171875</ele>
        <time>2026-06-15T09:15:37.000Z</time>
        <extensions>
          <ns3:TrackPointExtension>
            <ns3:atemp>21.0</ns3:atemp>
          </ns3:TrackPointExtension>
        </extensions>
      </trkpt>
      <trkpt lat="42.59208130650222301483154296875" lon="20.10035910643637180328369140625">
        <ele>1859.199951171875</ele>
        <time>2026-06-15T09:15:38.000Z</time>
        <extensions>
          <ns3:TrackPointExtension>
            <ns3:atemp>21.0</ns3:atemp>
          </ns3:TrackPointExtension>
        </extensions>
      </trkpt>
      <trkpt lat="42.59208130650222301483154296875" lon="20.10035910643637180328369140625">
        <ele>1859.199951171875</ele>
        <time>2026-06-15T09:15:39.000Z</time>
        <extensions>
          <ns3:TrackPointExtension>
            <ns3:atemp>21.0</ns3:atemp>
          </ns3:TrackPointExtension>
        </extensions>
      </trkpt>
      <trkpt lat="42.59208130650222301483154296875" lon="20.10035910643637180328369140625">
        <ele>1859.199951171875</ele>
        <time>2026-06-15T09:15:40.000Z</time>
        <extensions>
          <ns3:TrackPointExtension>
            <ns3:atemp>21.0</ns3:atemp>
          </ns3:TrackPointExtension>
        </extensions>
      </trkpt>
      <trkpt lat="42.5920828990638256072998046875" lon="20.100355334579944610595703125">
        <ele>1859.199951171875</ele>
        <time>2026-06-15T09:15:41.000Z</time>
        <extensions>
          <ns3:TrackPointExtension>
            <ns3:atemp>21.0</ns3:atemp>
          </ns3:TrackPointExtension>
        </extensions>
      </trkpt>
      <trkpt lat="42.59208977222442626953125" lon="20.1003521494567394256591796875">
        <ele>1859.199951171875</ele>
        <time>2026-06-15T09:15:42.000Z</time>
        <extensions>
          <ns3:TrackPointExtension>
            <ns3:atemp>21.0</ns3:atemp>
          </ns3:TrackPointExtension>
        </extensions>
      </trkpt>
      <trkpt lat="42.59208130650222301483154296875" lon="20.10035910643637180328369140625">
        <ele>1859.199951171875</ele>
        <time>2026-06-15T09:15:43.000Z</time>
        <extensions>
          <ns3:TrackPointExtension>
            <ns3:atemp>21.0</ns3:atemp>
          </ns3:TrackPointExtension>
        </extensions>
      </trkpt>
      <trkpt lat="42.59208130650222301483154296875" lon="20.10035910643637180328369140625">
        <ele>1859.199951171875</ele>
        <time>2026-06-15T09:15:44.000Z</time>
        <extensions>
          <ns3:TrackPointExtension>
            <ns3:atemp>21.0</ns3:atemp>
          </ns3:TrackPointExtension>
        </extensions>
      </trkpt>
      <trkpt lat="42.5920875929296016693115234375" lon="20.10034770704805850982666015625">
        <ele>1859.199951171875</ele>
        <time>2026-06-15T09:15:45.000Z</time>
        <extensions>
          <ns3:TrackPointExtension>
            <ns3:atemp>21.0</ns3:atemp>
          </ns3:TrackPointExtension>
        </extensions>
      </trkpt>
      <trkpt lat="42.5920882634818553924560546875" lon="20.10033379308879375457763671875">
        <ele>1859.199951171875</ele>
        <time>2026-06-15T09:15:46.000Z</time>
        <extensions>
          <ns3:TrackPointExtension>
            <ns3:atemp>21.0</ns3:atemp>
          </ns3:TrackPointExtension>
        </extensions>
      </trkpt>
      <trkpt lat="42.5920882634818553924560546875" lon="20.1003243215382099151611328125">
        <ele>1859.199951171875</ele>
        <time>2026-06-15T09:15:47.000Z</time>
        <extensions>
          <ns3:TrackPointExtension>
            <ns3:atemp>21.0</ns3:atemp>
          </ns3:TrackPointExtension>
        </extensions>
      </trkpt>
      <trkpt lat="42.59208952076733112335205078125" lon="20.10032004676759243011474609375">
        <ele>1859.199951171875</ele>
        <time>2026-06-15T09:15:48.000Z</time>
        <extensions>
          <ns3:TrackPointExtension>
            <ns3:atemp>21.0</ns3:atemp>
          </ns3:TrackPointExtension>
        </extensions>
      </trkpt>
      <trkpt lat="42.5920936278998851776123046875" lon="20.1003176160156726837158203125">
        <ele>1859.199951171875</ele>
        <time>2026-06-15T09:15:49.000Z</time>
        <extensions>
          <ns3:TrackPointExtension>
            <ns3:atemp>21.0</ns3:atemp>
          </ns3:TrackPointExtension>
        </extensions>
      </trkpt>
      <trkpt lat="42.592094801366329193115234375" lon="20.10030395351350307464599609375">
        <ele>1859.199951171875</ele>
        <time>2026-06-15T09:15:50.000Z</time>
        <extensions>
          <ns3:TrackPointExtension>
            <ns3:atemp>21.0</ns3:atemp>
          </ns3:TrackPointExtension>
        </extensions>
      </trkpt>
      <trkpt lat="42.5920946337282657623291015625" lon="20.10029691271483898162841796875">
        <ele>1859.199951171875</ele>
        <time>2026-06-15T09:15:51.000Z</time>
        <extensions>
          <ns3:TrackPointExtension>
            <ns3:atemp>21.0</ns3:atemp>
          </ns3:TrackPointExtension>
        </extensions>
      </trkpt>
      <trkpt lat="42.5920946337282657623291015625" lon="20.100296996533870697021484375">
        <ele>1859.199951171875</ele>
        <time>2026-06-15T09:15:52.000Z</time>
        <extensions>
          <ns3:TrackPointExtension>
            <ns3:atemp>21.0</ns3:atemp>
          </ns3:TrackPointExtension>
        </extensions>
      </trkpt>
      <trkpt lat="42.5920946337282657623291015625" lon="20.100296996533870697021484375">
        <ele>1859.199951171875</ele>
        <time>2026-06-15T09:15:53.000Z</time>
        <extensions>
          <ns3:TrackPointExtension>
            <ns3:atemp>21.0</ns3:atemp>
          </ns3:TrackPointExtension>
        </extensions>
      </trkpt>
      <trkpt lat="42.5920946337282657623291015625" lon="20.100296996533870697021484375">
        <ele>1859.199951171875</ele>
        <time>2026-06-15T09:15:54.000Z</time>
        <extensions>
          <ns3:TrackPointExtension>
            <ns3:atemp>21.0</ns3:atemp>
          </ns3:TrackPointExtension>
        </extensions>
      </trkpt>
      <trkpt lat="42.5920946337282657623291015625" lon="20.100296996533870697021484375">
        <ele>1859.199951171875</ele>
        <time>2026-06-15T09:15:55.000Z</time>
        <extensions>
          <ns3:TrackPointExtension>
            <ns3:atemp>21.0</ns3:atemp>
          </ns3:TrackPointExtension>
        </extensions>
      </trkpt>
      <trkpt lat="42.5920946337282657623291015625" lon="20.100296996533870697021484375">
        <ele>1859.199951171875</ele>
        <time>2026-06-15T09:15:56.000Z</time>
        <extensions>
          <ns3:TrackPointExtension>
            <ns3:atemp>21.0</ns3:atemp>
          </ns3:TrackPointExtension>
        </extensions>
      </trkpt>
      <trkpt lat="42.5920946337282657623291015625" lon="20.100296996533870697021484375">
        <ele>1859.199951171875</ele>
        <time>2026-06-15T09:15:57.000Z</time>
        <extensions>
          <ns3:TrackPointExtension>
            <ns3:atemp>21.0</ns3:atemp>
          </ns3:TrackPointExtension>
        </extensions>
      </trkpt>
      <trkpt lat="42.5920946337282657623291015625" lon="20.100296996533870697021484375">
        <ele>1859.199951171875</ele>
        <time>2026-06-15T09:15:58.000Z</time>
        <extensions>
          <ns3:TrackPointExtension>
            <ns3:atemp>21.0</ns3:atemp>
          </ns3:TrackPointExtension>
        </extensions>
      </trkpt>
      <trkpt lat="42.5920946337282657623291015625" lon="20.100296996533870697021484375">
        <ele>1859.199951171875</ele>
        <time>2026-06-15T09:15:59.000Z</time>
        <extensions>
          <ns3:TrackPointExtension>
            <ns3:atemp>21.0</ns3:atemp>
          </ns3:TrackPointExtension>
        </extensions>
      </trkpt>
      <trkpt lat="42.5920946337282657623291015625" lon="20.100296996533870697021484375">
        <ele>1859.199951171875</ele>
        <time>2026-06-15T09:16:00.000Z</time>
        <extensions>
          <ns3:TrackPointExtension>
            <ns3:atemp>21.0</ns3:atemp>
          </ns3:TrackPointExtension>
        </extensions>
      </trkpt>
      <trkpt lat="42.5920946337282657623291015625" lon="20.100296996533870697021484375">
        <ele>1859.199951171875</ele>
        <time>2026-06-15T09:16:01.000Z</time>
        <extensions>
          <ns3:TrackPointExtension>
            <ns3:atemp>21.0</ns3:atemp>
          </ns3:TrackPointExtension>
        </extensions>
      </trkpt>
      <trkpt lat="42.5920946337282657623291015625" lon="20.100296996533870697021484375">
        <ele>1859.199951171875</ele>
        <time>2026-06-15T09:16:02.000Z</time>
        <extensions>
          <ns3:TrackPointExtension>
            <ns3:atemp>21.0</ns3:atemp>
          </ns3:TrackPointExtension>
        </extensions>
      </trkpt>
      <trkpt lat="42.5920946337282657623291015625" lon="20.100296996533870697021484375">
        <ele>1859.199951171875</ele>
        <time>2026-06-15T09:16:03.000Z</time>
        <extensions>
          <ns3:TrackPointExtension>
            <ns3:atemp>21.0</ns3:atemp>
          </ns3:TrackPointExtension>
        </extensions>
      </trkpt>
      <trkpt lat="42.5920946337282657623291015625" lon="20.100296996533870697021484375">
        <ele>1859.199951171875</ele>
        <time>2026-06-15T09:16:04.000Z</time>
        <extensions>
          <ns3:TrackPointExtension>
            <ns3:atemp>21.0</ns3:atemp>
          </ns3:TrackPointExtension>
        </extensions>
      </trkpt>
      <trkpt lat="42.5920946337282657623291015625" lon="20.100296996533870697021484375">
        <ele>1859.199951171875</ele>
        <time>2026-06-15T09:16:05.000Z</time>
        <extensions>
          <ns3:TrackPointExtension>
            <ns3:atemp>21.0</ns3:atemp>
          </ns3:TrackPointExtension>
        </extensions>
      </trkpt>
      <trkpt lat="42.5920946337282657623291015625" lon="20.100296996533870697021484375">
        <ele>1859.199951171875</ele>
        <time>2026-06-15T09:16:06.000Z</time>
        <extensions>
          <ns3:TrackPointExtension>
            <ns3:atemp>21.0</ns3:atemp>
          </ns3:TrackPointExtension>
        </extensions>
      </trkpt>
      <trkpt lat="42.5920946337282657623291015625" lon="20.100296996533870697021484375">
        <ele>1859.199951171875</ele>
        <time>2026-06-15T09:16:07.000Z</time>
        <extensions>
          <ns3:TrackPointExtension>
            <ns3:atemp>21.0</ns3:atemp>
          </ns3:TrackPointExtension>
        </extensions>
      </trkpt>
      <trkpt lat="42.5920946337282657623291015625" lon="20.100296996533870697021484375">
        <ele>1859.199951171875</ele>
        <time>2026-06-15T09:16:08.000Z</time>
        <extensions>
          <ns3:TrackPointExtension>
            <ns3:atemp>21.0</ns3:atemp>
          </ns3:TrackPointExtension>
        </extensions>
      </trkpt>
      <trkpt lat="42.5920946337282657623291015625" lon="20.100296996533870697021484375">
        <ele>1859.199951171875</ele>
        <time>2026-06-15T09:16:09.000Z</time>
        <extensions>
          <ns3:TrackPointExtension>
            <ns3:atemp>21.0</ns3:atemp>
          </ns3:TrackPointExtension>
        </extensions>
      </trkpt>
      <trkpt lat="42.5920946337282657623291015625" lon="20.100296996533870697021484375">
        <ele>1859.199951171875</ele>
        <time>2026-06-15T09:16:10.000Z</time>
        <extensions>
          <ns3:TrackPointExtension>
            <ns3:atemp>21.0</ns3:atemp>
          </ns3:TrackPointExtension>
        </extensions>
      </trkpt>
      <trkpt lat="42.5920946337282657623291015625" lon="20.100296996533870697021484375">
        <ele>1859.199951171875</ele>
        <time>2026-06-15T09:16:11.000Z</time>
        <extensions>
          <ns3:TrackPointExtension>
            <ns3:atemp>21.0</ns3:atemp>
          </ns3:TrackPointExtension>
        </extensions>
      </trkpt>
      <trkpt lat="42.5920946337282657623291015625" lon="20.100296996533870697021484375">
        <ele>1859.199951171875</ele>
        <time>2026-06-15T09:16:12.000Z</time>
        <extensions>
          <ns3:TrackPointExtension>
            <ns3:atemp>21.0</ns3:atemp>
          </ns3:TrackPointExtension>
        </extensions>
      </trkpt>
      <trkpt lat="42.5920946337282657623291015625" lon="20.100296996533870697021484375">
        <ele>1859.199951171875</ele>
        <time>2026-06-15T09:16:13.000Z</time>
        <extensions>
          <ns3:TrackPointExtension>
            <ns3:atemp>21.0</ns3:atemp>
          </ns3:TrackPointExtension>
        </extensions>
      </trkpt>
      <trkpt lat="42.5920946337282657623291015625" lon="20.100296996533870697021484375">
        <ele>1859.199951171875</ele>
        <time>2026-06-15T09:16:14.000Z</time>
        <extensions>
          <ns3:TrackPointExtension>
            <ns3:atemp>21.0</ns3:atemp>
          </ns3:TrackPointExtension>
        </extensions>
      </trkpt>
      <trkpt lat="42.5920946337282657623291015625" lon="20.100296996533870697021484375">
        <ele>1859.199951171875</ele>
        <time>2026-06-15T09:16:15.000Z</time>
        <extensions>
          <ns3:TrackPointExtension>
            <ns3:atemp>21.0</ns3:atemp>
          </ns3:TrackPointExtension>
        </extensions>
      </trkpt>
      <trkpt lat="42.5920946337282657623291015625" lon="20.100296996533870697021484375">
        <ele>1859.199951171875</ele>
        <time>2026-06-15T09:16:16.000Z</time>
        <extensions>
          <ns3:TrackPointExtension>
            <ns3:atemp>21.0</ns3:atemp>
          </ns3:TrackPointExtension>
        </extensions>
      </trkpt>
      <trkpt lat="42.5920946337282657623291015625" lon="20.100296996533870697021484375">
        <ele>1859.199951171875</ele>
        <time>2026-06-15T09:16:17.000Z</time>
        <extensions>
          <ns3:TrackPointExtension>
            <ns3:atemp>21.0</ns3:atemp>
          </ns3:TrackPointExtension>
        </extensions>
      </trkpt>
      <trkpt lat="42.5920946337282657623291015625" lon="20.100296996533870697021484375">
        <ele>1859.199951171875</ele>
        <time>2026-06-15T09:16:18.000Z</time>
        <extensions>
          <ns3:TrackPointExtension>
            <ns3:atemp>21.0</ns3:atemp>
          </ns3:TrackPointExtension>
        </extensions>
      </trkpt>
      <trkpt lat="42.5920946337282657623291015625" lon="20.100296996533870697021484375">
        <ele>1859.199951171875</ele>
        <time>2026-06-15T09:16:19.000Z</time>
        <extensions>
          <ns3:TrackPointExtension>
            <ns3:atemp>21.0</ns3:atemp>
          </ns3:TrackPointExtension>
        </extensions>
      </trkpt>
      <trkpt lat="42.5920946337282657623291015625" lon="20.100296996533870697021484375">
        <ele>1859.199951171875</ele>
        <time>2026-06-15T09:16:20.000Z</time>
        <extensions>
          <ns3:TrackPointExtension>
            <ns3:atemp>21.0</ns3:atemp>
          </ns3:TrackPointExtension>
        </extensions>
      </trkpt>
      <trkpt lat="42.5920946337282657623291015625" lon="20.100296996533870697021484375">
        <ele>1859.199951171875</ele>
        <time>2026-06-15T09:16:21.000Z</time>
        <extensions>
          <ns3:TrackPointExtension>
            <ns3:atemp>21.0</ns3:atemp>
          </ns3:TrackPointExtension>
        </extensions>
      </trkpt>
      <trkpt lat="42.5920946337282657623291015625" lon="20.100296996533870697021484375">
        <ele>1859.199951171875</ele>
        <time>2026-06-15T09:16:22.000Z</time>
        <extensions>
          <ns3:TrackPointExtension>
            <ns3:atemp>21.0</ns3:atemp>
          </ns3:TrackPointExtension>
        </extensions>
      </trkpt>
      <trkpt lat="42.5920946337282657623291015625" lon="20.100296996533870697021484375">
        <ele>1859.199951171875</ele>
        <time>2026-06-15T09:16:23.000Z</time>
        <extensions>
          <ns3:TrackPointExtension>
            <ns3:atemp>21.0</ns3:atemp>
          </ns3:TrackPointExtension>
        </extensions>
      </trkpt>
      <trkpt lat="42.5920946337282657623291015625" lon="20.100296996533870697021484375">
        <ele>1859.199951171875</ele>
        <time>2026-06-15T09:16:24.000Z</time>
        <extensions>
          <ns3:TrackPointExtension>
            <ns3:atemp>21.0</ns3:atemp>
          </ns3:TrackPointExtension>
        </extensions>
      </trkpt>
      <trkpt lat="42.5920946337282657623291015625" lon="20.100296996533870697021484375">
        <ele>1859.199951171875</ele>
        <time>2026-06-15T09:16:25.000Z</time>
        <extensions>
          <ns3:TrackPointExtension>
            <ns3:atemp>21.0</ns3:atemp>
          </ns3:TrackPointExtension>
        </extensions>
      </trkpt>
      <trkpt lat="42.5920946337282657623291015625" lon="20.100296996533870697021484375">
        <ele>1859.199951171875</ele>
        <time>2026-06-15T09:16:26.000Z</time>
        <extensions>
          <ns3:TrackPointExtension>
            <ns3:atemp>21.0</ns3:atemp>
          </ns3:TrackPointExtension>
        </extensions>
      </trkpt>
      <trkpt lat="42.5920946337282657623291015625" lon="20.100296996533870697021484375">
        <ele>1859.199951171875</ele>
        <time>2026-06-15T09:16:27.000Z</time>
        <extensions>
          <ns3:TrackPointExtension>
            <ns3:atemp>21.0</ns3:atemp>
          </ns3:TrackPointExtension>
        </extensions>
      </trkpt>
      <trkpt lat="42.5920946337282657623291015625" lon="20.10029909200966358184814453125">
        <ele>1859.199951171875</ele>
        <time>2026-06-15T09:16:28.000Z</time>
        <extensions>
          <ns3:TrackPointExtension>
            <ns3:atemp>21.0</ns3:atemp>
          </ns3:TrackPointExtension>
        </extensions>
      </trkpt>
      <trkpt lat="42.5920857489109039306640625" lon="20.10031543672084808349609375">
        <ele>1859.199951171875</ele>
        <time>2026-06-15T09:16:29.000Z</time>
        <extensions>
          <ns3:TrackPointExtension>
            <ns3:atemp>21.0</ns3:atemp>
          </ns3:TrackPointExtension>
        </extensions>
      </trkpt>
      <trkpt lat="42.59208633564412593841552734375" lon="20.1003162749111652374267578125">
        <ele>1859.199951171875</ele>
        <time>2026-06-15T09:16:30.000Z</time>
        <extensions>
          <ns3:TrackPointExtension>
            <ns3:atemp>21.0</ns3:atemp>
          </ns3:TrackPointExtension>
        </extensions>
      </trkpt>
      <trkpt lat="42.59208432398736476898193359375" lon="20.1003199629485607147216796875">
        <ele>1859.199951171875</ele>
        <time>2026-06-15T09:16:31.000Z</time>
        <extensions>
          <ns3:TrackPointExtension>
            <ns3:atemp>21.0</ns3:atemp>
          </ns3:TrackPointExtension>
        </extensions>
      </trkpt>
      <trkpt lat="42.592084072530269622802734375" lon="20.10032876394689083099365234375">
        <ele>1859.199951171875</ele>
        <time>2026-06-15T09:16:32.000Z</time>
        <extensions>
          <ns3:TrackPointExtension>
            <ns3:atemp>21.0</ns3:atemp>
          </ns3:TrackPointExtension>
        </extensions>
      </trkpt>
      <trkpt lat="42.59207879193127155303955078125" lon="20.100339911878108978271484375">
        <ele>1859.199951171875</ele>
        <time>2026-06-15T09:16:33.000Z</time>
        <extensions>
          <ns3:TrackPointExtension>
            <ns3:atemp>21.0</ns3:atemp>
          </ns3:TrackPointExtension>
        </extensions>
      </trkpt>
      <trkpt lat="42.592069320380687713623046875" lon="20.100350640714168548583984375">
        <ele>1859.199951171875</ele>
        <time>2026-06-15T09:16:34.000Z</time>
        <extensions>
          <ns3:TrackPointExtension>
            <ns3:atemp>21.0</ns3:atemp>
          </ns3:TrackPointExtension>
        </extensions>
      </trkpt>
      <trkpt lat="42.59205414913594722747802734375" lon="20.1003685779869556427001953125">
        <ele>1859</ele>
        <time>2026-06-15T09:16:35.000Z</time>
        <extensions>
          <ns3:TrackPointExtension>
            <ns3:atemp>21.0</ns3:atemp>
          </ns3:TrackPointExtension>
        </extensions>
      </trkpt>
      <trkpt lat="42.592032440006732940673828125" lon="20.10038961656391620635986328125">
        <ele>1858.800048828125</ele>
        <time>2026-06-15T09:16:36.000Z</time>
        <extensions>
          <ns3:TrackPointExtension>
            <ns3:atemp>21.0</ns3:atemp>
          </ns3:TrackPointExtension>
        </extensions>
      </trkpt>
      <trkpt lat="42.5920041091740131378173828125" lon="20.1004118286073207855224609375">
        <ele>1858.4000244140625</ele>
        <time>2026-06-15T09:16:37.000Z</time>
        <extensions>
          <ns3:TrackPointExtension>
            <ns3:atemp>21.0</ns3:atemp>
          </ns3:TrackPointExtension>
        </extensions>
      </trkpt>
      <trkpt lat="42.5919658876955509185791015625" lon="20.10043211281299591064453125">
        <ele>1857.800048828125</ele>
        <time>2026-06-15T09:16:38.000Z</time>
        <extensions>
          <ns3:TrackPointExtension>
            <ns3:atemp>21.0</ns3:atemp>
          </ns3:TrackPointExtension>
        </extensions>
      </trkpt>
      <trkpt lat="42.59192557074129581451416015625" lon="20.10045801289379596710205078125">
        <ele>1857.4000244140625</ele>
        <time>2026-06-15T09:16:39.000Z</time>
        <extensions>
          <ns3:TrackPointExtension>
            <ns3:atemp>21.0</ns3:atemp>
          </ns3:TrackPointExtension>
        </extensions>
      </trkpt>
      <trkpt lat="42.59188567288219928741455078125" lon="20.10048449970781803131103515625">
        <ele>1857</ele>
        <time>2026-06-15T09:16:40.000Z</time>
        <extensions>
          <ns3:TrackPointExtension>
            <ns3:atemp>21.0</ns3:atemp>
          </ns3:TrackPointExtension>
        </extensions>
      </trkpt>
      <trkpt lat="42.59186354465782642364501953125" lon="20.10051769204437732696533203125">
        <ele>1856.800048828125</ele>
        <time>2026-06-15T09:16:41.000Z</time>
        <extensions>
          <ns3:TrackPointExtension>
            <ns3:atemp>21.0</ns3:atemp>
          </ns3:TrackPointExtension>
        </extensions>
      </trkpt>
      <trkpt lat="42.5918604433536529541015625" lon="20.10055482387542724609375">
        <ele>1856.5999755859375</ele>
        <time>2026-06-15T09:16:42.000Z</time>
        <extensions>
          <ns3:TrackPointExtension>
            <ns3:atemp>21.0</ns3:atemp>
          </ns3:TrackPointExtension>
        </extensions>
      </trkpt>
      <trkpt lat="42.59186656214296817779541015625" lon="20.10058365762233734130859375">
        <ele>1856.4000244140625</ele>
        <time>2026-06-15T09:16:43.000Z</time>
        <extensions>
          <ns3:TrackPointExtension>
            <ns3:atemp>21.0</ns3:atemp>
          </ns3:TrackPointExtension>
        </extensions>
      </trkpt>
      <trkpt lat="42.59187527932226657867431640625" lon="20.10060016997158527374267578125">
        <ele>1856.199951171875</ele>
        <time>2026-06-15T09:16:44.000Z</time>
        <extensions>
          <ns3:TrackPointExtension>
            <ns3:atemp>21.0</ns3:atemp>
          </ns3:TrackPointExtension>
        </extensions>
      </trkpt>
      <trkpt lat="42.591889612376689910888671875" lon="20.10060654021799564361572265625">
        <ele>1856.199951171875</ele>
        <time>2026-06-15T09:16:45.000Z</time>
        <extensions>
          <ns3:TrackPointExtension>
            <ns3:atemp>21.0</ns3:atemp>
          </ns3:TrackPointExtension>
        </extensions>
      </trkpt>
      <trkpt lat="42.59189908392727375030517578125" lon="20.10060436092317104339599609375">
        <ele>1856.199951171875</ele>
        <time>2026-06-15T09:16:46.000Z</time>
        <extensions>
          <ns3:TrackPointExtension>
            <ns3:atemp>21.0</ns3:atemp>
          </ns3:TrackPointExtension>
        </extensions>
      </trkpt>
      <trkpt lat="42.5919060409069061279296875" lon="20.10060419328510761260986328125">
        <ele>1856</ele>
        <time>2026-06-15T09:16:47.000Z</time>
        <extensions>
          <ns3:TrackPointExtension>
            <ns3:atemp>21.0</ns3:atemp>
          </ns3:TrackPointExtension>
        </extensions>
      </trkpt>
      <trkpt lat="42.591910399496555328369140625" lon="20.1005982421338558197021484375">
        <ele>1855.800048828125</ele>
        <time>2026-06-15T09:16:48.000Z</time>
        <extensions>
          <ns3:TrackPointExtension>
            <ns3:atemp>21.0</ns3:atemp>
          </ns3:TrackPointExtension>
        </extensions>
      </trkpt>
      <trkpt lat="42.59191685356199741363525390625" lon="20.100586675107479095458984375">
        <ele>1855.5999755859375</ele>
        <time>2026-06-15T09:16:49.000Z</time>
        <extensions>
          <ns3:TrackPointExtension>
            <ns3:atemp>21.0</ns3:atemp>
          </ns3:TrackPointExtension>
        </extensions>
      </trkpt>
      <trkpt lat="42.59191475808620452880859375" lon="20.1005803048610687255859375">
        <ele>1855.5999755859375</ele>
        <time>2026-06-15T09:16:50.000Z</time>
        <extensions>
          <ns3:TrackPointExtension>
            <ns3:atemp>21.0</ns3:atemp>
          </ns3:TrackPointExtension>
        </extensions>
      </trkpt>
      <trkpt lat="42.59191215969622135162353515625" lon="20.100581645965576171875">
        <ele>1855.5999755859375</ele>
        <time>2026-06-15T09:16:51.000Z</time>
        <extensions>
          <ns3:TrackPointExtension>
            <ns3:atemp>21.0</ns3:atemp>
          </ns3:TrackPointExtension>
        </extensions>
      </trkpt>
      <trkpt lat="42.5919122435152530670166015625" lon="20.10058172978460788726806640625">
        <ele>1855.5999755859375</ele>
        <time>2026-06-15T09:16:52.000Z</time>
        <extensions>
          <ns3:TrackPointExtension>
            <ns3:atemp>21.0</ns3:atemp>
          </ns3:TrackPointExtension>
        </extensions>
      </trkpt>
      <trkpt lat="42.5919122435152530670166015625" lon="20.10058172978460788726806640625">
        <ele>1855.800048828125</ele>
        <time>2026-06-15T09:16:53.000Z</time>
        <extensions>
          <ns3:TrackPointExtension>
            <ns3:atemp>21.0</ns3:atemp>
          </ns3:TrackPointExtension>
        </extensions>
      </trkpt>
      <trkpt lat="42.5919122435152530670166015625" lon="20.10058172978460788726806640625">
        <ele>1855.800048828125</ele>
        <time>2026-06-15T09:16:54.000Z</time>
        <extensions>
          <ns3:TrackPointExtension>
            <ns3:atemp>21.0</ns3:atemp>
          </ns3:TrackPointExtension>
        </extensions>
      </trkpt>
      <trkpt lat="42.5919122435152530670166015625" lon="20.10058172978460788726806640625">
        <ele>1855.800048828125</ele>
        <time>2026-06-15T09:16:55.000Z</time>
        <extensions>
          <ns3:TrackPointExtension>
            <ns3:atemp>21.0</ns3:atemp>
          </ns3:TrackPointExtension>
        </extensions>
      </trkpt>
      <trkpt lat="42.5919122435152530670166015625" lon="20.10058172978460788726806640625">
        <ele>1855.800048828125</ele>
        <time>2026-06-15T09:16:56.000Z</time>
        <extensions>
          <ns3:TrackPointExtension>
            <ns3:atemp>21.0</ns3:atemp>
          </ns3:TrackPointExtension>
        </extensions>
      </trkpt>
      <trkpt lat="42.5919122435152530670166015625" lon="20.10058172978460788726806640625">
        <ele>1855.800048828125</ele>
        <time>2026-06-15T09:16:57.000Z</time>
        <extensions>
          <ns3:TrackPointExtension>
            <ns3:atemp>21.0</ns3:atemp>
          </ns3:TrackPointExtension>
        </extensions>
      </trkpt>
      <trkpt lat="42.5919122435152530670166015625" lon="20.10058172978460788726806640625">
        <ele>1855.5999755859375</ele>
        <time>2026-06-15T09:16:58.000Z</time>
        <extensions>
          <ns3:TrackPointExtension>
            <ns3:atemp>21.0</ns3:atemp>
          </ns3:TrackPointExtension>
        </extensions>
      </trkpt>
      <trkpt lat="42.5919122435152530670166015625" lon="20.10058172978460788726806640625">
        <ele>1855.5999755859375</ele>
        <time>2026-06-15T09:16:59.000Z</time>
        <extensions>
          <ns3:TrackPointExtension>
            <ns3:atemp>21.0</ns3:atemp>
          </ns3:TrackPointExtension>
        </extensions>
      </trkpt>
      <trkpt lat="42.5919122435152530670166015625" lon="20.10058172978460788726806640625">
        <ele>1855.5999755859375</ele>
        <time>2026-06-15T09:17:00.000Z</time>
        <extensions>
          <ns3:TrackPointExtension>
            <ns3:atemp>21.0</ns3:atemp>
          </ns3:TrackPointExtension>
        </extensions>
      </trkpt>
      <trkpt lat="42.5919122435152530670166015625" lon="20.10058172978460788726806640625">
        <ele>1855.5999755859375</ele>
        <time>2026-06-15T09:17:01.000Z</time>
        <extensions>
          <ns3:TrackPointExtension>
            <ns3:atemp>21.0</ns3:atemp>
          </ns3:TrackPointExtension>
        </extensions>
      </trkpt>
      <trkpt lat="42.5919122435152530670166015625" lon="20.10058172978460788726806640625">
        <ele>1855.5999755859375</ele>
        <time>2026-06-15T09:17:02.000Z</time>
        <extensions>
          <ns3:TrackPointExtension>
            <ns3:atemp>21.0</ns3:atemp>
          </ns3:TrackPointExtension>
        </extensions>
      </trkpt>
      <trkpt lat="42.5919122435152530670166015625" lon="20.10058172978460788726806640625">
        <ele>1855.5999755859375</ele>
        <time>2026-06-15T09:17:03.000Z</time>
        <extensions>
          <ns3:TrackPointExtension>
            <ns3:atemp>21.0</ns3:atemp>
          </ns3:TrackPointExtension>
        </extensions>
      </trkpt>
      <trkpt lat="42.5919122435152530670166015625" lon="20.10058172978460788726806640625">
        <ele>1855.4000244140625</ele>
        <time>2026-06-15T09:17:04.000Z</time>
        <extensions>
          <ns3:TrackPointExtension>
            <ns3:atemp>21.0</ns3:atemp>
          </ns3:TrackPointExtension>
        </extensions>
      </trkpt>
      <trkpt lat="42.5919122435152530670166015625" lon="20.10058172978460788726806640625">
        <ele>1855.4000244140625</ele>
        <time>2026-06-15T09:17:05.000Z</time>
        <extensions>
          <ns3:TrackPointExtension>
            <ns3:atemp>21.0</ns3:atemp>
          </ns3:TrackPointExtension>
        </extensions>
      </trkpt>
      <trkpt lat="42.5919122435152530670166015625" lon="20.10058172978460788726806640625">
        <ele>1855.4000244140625</ele>
        <time>2026-06-15T09:17:06.000Z</time>
        <extensions>
          <ns3:TrackPointExtension>
            <ns3:atemp>21.0</ns3:atemp>
          </ns3:TrackPointExtension>
        </extensions>
      </trkpt>
      <trkpt lat="42.5919122435152530670166015625" lon="20.10058172978460788726806640625">
        <ele>1855.199951171875</ele>
        <time>2026-06-15T09:17:07.000Z</time>
        <extensions>
          <ns3:TrackPointExtension>
            <ns3:atemp>21.0</ns3:atemp>
          </ns3:TrackPointExtension>
        </extensions>
      </trkpt>
      <trkpt lat="42.5919122435152530670166015625" lon="20.10058172978460788726806640625">
        <ele>1855.199951171875</ele>
        <time>2026-06-15T09:17:08.000Z</time>
        <extensions>
          <ns3:TrackPointExtension>
            <ns3:atemp>21.0</ns3:atemp>
          </ns3:TrackPointExtension>
        </extensions>
      </trkpt>
      <trkpt lat="42.5919122435152530670166015625" lon="20.10058172978460788726806640625">
        <ele>1855.199951171875</ele>
        <time>2026-06-15T09:17:09.000Z</time>
        <extensions>
          <ns3:TrackPointExtension>
            <ns3:atemp>21.0</ns3:atemp>
          </ns3:TrackPointExtension>
        </extensions>
      </trkpt>
      <trkpt lat="42.59191283024847507476806640625" lon="20.10058089159429073333740234375">
        <ele>1855.199951171875</ele>
        <time>2026-06-15T09:17:10.000Z</time>
        <extensions>
          <ns3:TrackPointExtension>
            <ns3:atemp>21.0</ns3:atemp>
          </ns3:TrackPointExtension>
        </extensions>
      </trkpt>
      <trkpt lat="42.5919246487319469451904296875" lon="20.10057686828076839447021484375">
        <ele>1855.199951171875</ele>
        <time>2026-06-15T09:17:11.000Z</time>
        <extensions>
          <ns3:TrackPointExtension>
            <ns3:atemp>21.0</ns3:atemp>
          </ns3:TrackPointExtension>
        </extensions>
      </trkpt>
      <trkpt lat="42.59194015525281429290771484375" lon="20.10056647472083568572998046875">
        <ele>1855.199951171875</ele>
        <time>2026-06-15T09:17:12.000Z</time>
        <extensions>
          <ns3:TrackPointExtension>
            <ns3:atemp>21.0</ns3:atemp>
          </ns3:TrackPointExtension>
        </extensions>
      </trkpt>
      <trkpt lat="42.591958343982696533203125" lon="20.1005509681999683380126953125">
        <ele>1855.199951171875</ele>
        <time>2026-06-15T09:17:13.000Z</time>
        <extensions>
          <ns3:TrackPointExtension>
            <ns3:atemp>21.0</ns3:atemp>
          </ns3:TrackPointExtension>
        </extensions>
      </trkpt>
      <trkpt lat="42.59197468869388103485107421875" lon="20.1005321927368640899658203125">
        <ele>1855.199951171875</ele>
        <time>2026-06-15T09:17:14.000Z</time>
        <extensions>
          <ns3:TrackPointExtension>
            <ns3:atemp>21.0</ns3:atemp>
          </ns3:TrackPointExtension>
        </extensions>
      </trkpt>
      <trkpt lat="42.59198659099638462066650390625" lon="20.10051299817860126495361328125">
        <ele>1855.199951171875</ele>
        <time>2026-06-15T09:17:15.000Z</time>
        <extensions>
          <ns3:TrackPointExtension>
            <ns3:atemp>21.0</ns3:atemp>
          </ns3:TrackPointExtension>
        </extensions>
      </trkpt>
      <trkpt lat="42.591995894908905029296875" lon="20.1004933007061481475830078125">
        <ele>1855.4000244140625</ele>
        <time>2026-06-15T09:17:16.000Z</time>
        <extensions>
          <ns3:TrackPointExtension>
            <ns3:atemp>21.0</ns3:atemp>
          </ns3:TrackPointExtension>
        </extensions>
      </trkpt>
      <trkpt lat="42.59200637228786945343017578125" lon="20.10046622715890407562255859375">
        <ele>1855.5999755859375</ele>
        <time>2026-06-15T09:17:17.000Z</time>
        <extensions>
          <ns3:TrackPointExtension>
            <ns3:atemp>21.0</ns3:atemp>
          </ns3:TrackPointExtension>
        </extensions>
      </trkpt>
      <trkpt lat="42.59201693348586559295654296875" lon="20.10044493712484836578369140625">
        <ele>1855.800048828125</ele>
        <time>2026-06-15T09:17:18.000Z</time>
        <extensions>
          <ns3:TrackPointExtension>
            <ns3:atemp>21.0</ns3:atemp>
          </ns3:TrackPointExtension>
        </extensions>
      </trkpt>
      <trkpt lat="42.5920289196074008941650390625" lon="20.10041727684438228607177734375">
        <ele>1856</ele>
        <time>2026-06-15T09:17:19.000Z</time>
        <extensions>
          <ns3:TrackPointExtension>
            <ns3:atemp>21.0</ns3:atemp>
          </ns3:TrackPointExtension>
        </extensions>
      </trkpt>
      <trkpt lat="42.592039816081523895263671875" lon="20.1003930531442165374755859375">
        <ele>1856.199951171875</ele>
        <time>2026-06-15T09:17:20.000Z</time>
        <extensions>
          <ns3:TrackPointExtension>
            <ns3:atemp>21.0</ns3:atemp>
          </ns3:TrackPointExtension>
        </extensions>
      </trkpt>
      <trkpt lat="42.592050544917583465576171875" lon="20.10037335567176342010498046875">
        <ele>1856.5999755859375</ele>
        <time>2026-06-15T09:17:21.000Z</time>
        <extensions>
          <ns3:TrackPointExtension>
            <ns3:atemp>21.0</ns3:atemp>
          </ns3:TrackPointExtension>
        </extensions>
      </trkpt>
      <trkpt lat="42.59206118993461132049560546875" lon="20.1003521494567394256591796875">
        <ele>1856.800048828125</ele>
        <time>2026-06-15T09:17:22.000Z</time>
        <extensions>
          <ns3:TrackPointExtension>
            <ns3:atemp>21.0</ns3:atemp>
          </ns3:TrackPointExtension>
        </extensions>
      </trkpt>
      <trkpt lat="42.5920708291232585906982421875" lon="20.10032842867076396942138671875">
        <ele>1857</ele>
        <time>2026-06-15T09:17:23.000Z</time>
        <extensions>
          <ns3:TrackPointExtension>
            <ns3:atemp>21.0</ns3:atemp>
          </ns3:TrackPointExtension>
        </extensions>
      </trkpt>
      <trkpt lat="42.5920785404741764068603515625" lon="20.10030269622802734375">
        <ele>1857</ele>
        <time>2026-06-15T09:17:24.000Z</time>
        <extensions>
          <ns3:TrackPointExtension>
            <ns3:atemp>21.0</ns3:atemp>
          </ns3:TrackPointExtension>
        </extensions>
      </trkpt>
      <trkpt lat="42.59208516217768192291259765625" lon="20.10027813725173473358154296875">
        <ele>1857</ele>
        <time>2026-06-15T09:17:25.000Z</time>
        <extensions>
          <ns3:TrackPointExtension>
            <ns3:atemp>21.0</ns3:atemp>
          </ns3:TrackPointExtension>
        </extensions>
      </trkpt>
      <trkpt lat="42.5920922867953777313232421875" lon="20.10025584138929843902587890625">
        <ele>1857</ele>
        <time>2026-06-15T09:17:26.000Z</time>
        <extensions>
          <ns3:TrackPointExtension>
            <ns3:atemp>21.0</ns3:atemp>
          </ns3:TrackPointExtension>
        </extensions>
      </trkpt>
      <trkpt lat="42.59210058487951755523681640625" lon="20.10022918693721294403076171875">
        <ele>1857.199951171875</ele>
        <time>2026-06-15T09:17:27.000Z</time>
        <extensions>
          <ns3:TrackPointExtension>
            <ns3:atemp>21.0</ns3:atemp>
          </ns3:TrackPointExtension>
        </extensions>
      </trkpt>
      <trkpt lat="42.5921063683927059173583984375" lon="20.10020772926509380340576171875">
        <ele>1857.4000244140625</ele>
        <time>2026-06-15T09:17:28.000Z</time>
        <extensions>
          <ns3:TrackPointExtension>
            <ns3:atemp>21.0</ns3:atemp>
          </ns3:TrackPointExtension>
        </extensions>
      </trkpt>
      <trkpt lat="42.59210787713527679443359375" lon="20.10018442757427692413330078125">
        <ele>1857.5999755859375</ele>
        <time>2026-06-15T09:17:29.000Z</time>
        <extensions>
          <ns3:TrackPointExtension>
            <ns3:atemp>21.0</ns3:atemp>
          </ns3:TrackPointExtension>
        </extensions>
      </trkpt>
      <trkpt lat="42.5921090506017208099365234375" lon="20.1001593656837940216064453125">
        <ele>1857.800048828125</ele>
        <time>2026-06-15T09:17:30.000Z</time>
        <extensions>
          <ns3:TrackPointExtension>
            <ns3:atemp>21.0</ns3:atemp>
          </ns3:TrackPointExtension>
        </extensions>
      </trkpt>
      <trkpt lat="42.5921197794377803802490234375" lon="20.100128687918186187744140625">
        <ele>1858</ele>
        <time>2026-06-15T09:17:31.000Z</time>
        <extensions>
          <ns3:TrackPointExtension>
            <ns3:atemp>21.0</ns3:atemp>
          </ns3:TrackPointExtension>
        </extensions>
      </trkpt>
      <trkpt lat="42.5921301729977130889892578125" lon="20.10009993799030780792236328125">
        <ele>1858.199951171875</ele>
        <time>2026-06-15T09:17:32.000Z</time>
        <extensions>
          <ns3:TrackPointExtension>
            <ns3:atemp>21.0</ns3:atemp>
          </ns3:TrackPointExtension>
        </extensions>
      </trkpt>
      <trkpt lat="42.59213277138769626617431640625" lon="20.1000658236443996429443359375">
        <ele>1858.5999755859375</ele>
        <time>2026-06-15T09:17:33.000Z</time>
        <extensions>
          <ns3:TrackPointExtension>
            <ns3:atemp>21.0</ns3:atemp>
          </ns3:TrackPointExtension>
        </extensions>
      </trkpt>
      <trkpt lat="42.5921217910945415496826171875" lon="20.10004176758229732513427734375">
        <ele>1858.800048828125</ele>
        <time>2026-06-15T09:17:34.000Z</time>
        <extensions>
          <ns3:TrackPointExtension>
            <ns3:atemp>21.0</ns3:atemp>
          </ns3:TrackPointExtension>
        </extensions>
      </trkpt>
      <trkpt lat="42.5921072065830230712890625" lon="20.10003271512687206268310546875">
        <ele>1859</ele>
        <time>2026-06-15T09:17:35.000Z</time>
        <extensions>
          <ns3:TrackPointExtension>
            <ns3:atemp>21.0</ns3:atemp>
          </ns3:TrackPointExtension>
        </extensions>
      </trkpt>
      <trkpt lat="42.59209639392793178558349609375" lon="20.1000396721065044403076171875">
        <ele>1859.199951171875</ele>
        <time>2026-06-15T09:17:36.000Z</time>
        <extensions>
          <ns3:TrackPointExtension>
            <ns3:atemp>21.0</ns3:atemp>
          </ns3:TrackPointExtension>
        </extensions>
      </trkpt>
      <trkpt lat="42.59209622628986835479736328125" lon="20.10005551390349864959716796875">
        <ele>1859.199951171875</ele>
        <time>2026-06-15T09:17:37.000Z</time>
        <extensions>
          <ns3:TrackPointExtension>
            <ns3:atemp>21.0</ns3:atemp>
          </ns3:TrackPointExtension>
        </extensions>
      </trkpt>
      <trkpt lat="42.59209983050823211669921875" lon="20.10008267126977443695068359375">
        <ele>1859.199951171875</ele>
        <time>2026-06-15T09:17:38.000Z</time>
        <extensions>
          <ns3:TrackPointExtension>
            <ns3:atemp>21.0</ns3:atemp>
          </ns3:TrackPointExtension>
        </extensions>
      </trkpt>
      <trkpt lat="42.59210444055497646331787109375" lon="20.1001154445111751556396484375">
        <ele>1859.199951171875</ele>
        <time>2026-06-15T09:17:39.000Z</time>
        <extensions>
          <ns3:TrackPointExtension>
            <ns3:atemp>21.0</ns3:atemp>
          </ns3:TrackPointExtension>
        </extensions>
      </trkpt>
      <trkpt lat="42.59210377000272274017333984375" lon="20.100153498351573944091796875">
        <ele>1859.199951171875</ele>
        <time>2026-06-15T09:17:40.000Z</time>
        <extensions>
          <ns3:TrackPointExtension>
            <ns3:atemp>21.0</ns3:atemp>
          </ns3:TrackPointExtension>
        </extensions>
      </trkpt>
      <trkpt lat="42.592099495232105255126953125" lon="20.10019867680966854095458984375">
        <ele>1859</ele>
        <time>2026-06-15T09:17:41.000Z</time>
        <extensions>
          <ns3:TrackPointExtension>
            <ns3:atemp>21.0</ns3:atemp>
          </ns3:TrackPointExtension>
        </extensions>
      </trkpt>
      <trkpt lat="42.59209102950990200042724609375" lon="20.10024511255323886871337890625">
        <ele>1858.4000244140625</ele>
        <time>2026-06-15T09:17:42.000Z</time>
        <extensions>
          <ns3:TrackPointExtension>
            <ns3:atemp>21.0</ns3:atemp>
          </ns3:TrackPointExtension>
        </extensions>
      </trkpt>
      <trkpt lat="42.5920812226831912994384765625" lon="20.1002844236791133880615234375">
        <ele>1858</ele>
        <time>2026-06-15T09:17:43.000Z</time>
        <extensions>
          <ns3:TrackPointExtension>
            <ns3:atemp>20.0</ns3:atemp>
          </ns3:TrackPointExtension>
        </extensions>
      </trkpt>
      <trkpt lat="42.59206739254295825958251953125" lon="20.10032407008111476898193359375">
        <ele>1857.5999755859375</ele>
        <time>2026-06-15T09:17:44.000Z</time>
        <extensions>
          <ns3:TrackPointExtension>
            <ns3:atemp>20.0</ns3:atemp>
          </ns3:TrackPointExtension>
        </extensions>
      </trkpt>
      <trkpt lat="42.592047192156314849853515625" lon="20.10036631487309932708740234375">
        <ele>1857</ele>
        <time>2026-06-15T09:17:45.000Z</time>
        <extensions>
          <ns3:TrackPointExtension>
            <ns3:atemp>21.0</ns3:atemp>
          </ns3:TrackPointExtension>
        </extensions>
      </trkpt>
      <trkpt lat="42.592019028961658477783203125" lon="20.10040420107543468475341796875">
        <ele>1856.4000244140625</ele>
        <time>2026-06-15T09:17:46.000Z</time>
        <extensions>
          <ns3:TrackPointExtension>
            <ns3:atemp>20.0</ns3:atemp>
          </ns3:TrackPointExtension>
        </extensions>
      </trkpt>
      <trkpt lat="42.59198357351124286651611328125" lon="20.10044527240097522735595703125">
        <ele>1856</ele>
        <time>2026-06-15T09:17:47.000Z</time>
        <extensions>
          <ns3:TrackPointExtension>
            <ns3:atemp>20.0</ns3:atemp>
          </ns3:TrackPointExtension>
        </extensions>
      </trkpt>
      <trkpt lat="42.59194132871925830841064453125" lon="20.1004864275455474853515625">
        <ele>1855.4000244140625</ele>
        <time>2026-06-15T09:17:48.000Z</time>
        <extensions>
          <ns3:TrackPointExtension>
            <ns3:atemp>20.0</ns3:atemp>
          </ns3:TrackPointExtension>
        </extensions>
      </trkpt>
      <trkpt lat="42.59189975447952747344970703125" lon="20.10052255354821681976318359375">
        <ele>1855</ele>
        <time>2026-06-15T09:17:49.000Z</time>
        <extensions>
          <ns3:TrackPointExtension>
            <ns3:atemp>20.0</ns3:atemp>
          </ns3:TrackPointExtension>
        </extensions>
      </trkpt>
      <trkpt lat="42.59185801260173320770263671875" lon="20.1005513034760951995849609375">
        <ele>1854.5999755859375</ele>
        <time>2026-06-15T09:17:50.000Z</time>
        <extensions>
          <ns3:TrackPointExtension>
            <ns3:atemp>20.0</ns3:atemp>
          </ns3:TrackPointExtension>
        </extensions>
      </trkpt>
      <trkpt lat="42.5918207131326198577880859375" lon="20.100569240748882293701171875">
        <ele>1854.4000244140625</ele>
        <time>2026-06-15T09:17:51.000Z</time>
        <extensions>
          <ns3:TrackPointExtension>
            <ns3:atemp>20.0</ns3:atemp>
          </ns3:TrackPointExtension>
        </extensions>
      </trkpt>
      <trkpt lat="42.591791041195392608642578125" lon="20.1005831547081470489501953125">
        <ele>1854.199951171875</ele>
        <time>2026-06-15T09:17:52.000Z</time>
        <extensions>
          <ns3:TrackPointExtension>
            <ns3:atemp>20.0</ns3:atemp>
          </ns3:TrackPointExtension>
        </extensions>
      </trkpt>
      <trkpt lat="42.59177905507385730743408203125" lon="20.100612156093120574951171875">
        <ele>1854.199951171875</ele>
        <time>2026-06-15T09:17:53.000Z</time>
        <extensions>
          <ns3:TrackPointExtension>
            <ns3:atemp>20.0</ns3:atemp>
          </ns3:TrackPointExtension>
        </extensions>
      </trkpt>
      <trkpt lat="42.5917834974825382232666015625" lon="20.1006428338587284088134765625">
        <ele>1854.199951171875</ele>
        <time>2026-06-15T09:17:54.000Z</time>
        <extensions>
          <ns3:TrackPointExtension>
            <ns3:atemp>20.0</ns3:atemp>
          </ns3:TrackPointExtension>
        </extensions>
      </trkpt>
      <trkpt lat="42.5917969085276126861572265625" lon="20.1006492041051387786865234375">
        <ele>1854.199951171875</ele>
        <time>2026-06-15T09:17:55.000Z</time>
        <extensions>
          <ns3:TrackPointExtension>
            <ns3:atemp>20.0</ns3:atemp>
          </ns3:TrackPointExtension>
        </extensions>
      </trkpt>
      <trkpt lat="42.59181140922009944915771484375" lon="20.1006339490413665771484375">
        <ele>1854.199951171875</ele>
        <time>2026-06-15T09:17:56.000Z</time>
        <extensions>
          <ns3:TrackPointExtension>
            <ns3:atemp>20.0</ns3:atemp>
          </ns3:TrackPointExtension>
        </extensions>
      </trkpt>
      <trkpt lat="42.5918274186551570892333984375" lon="20.10061911307275295257568359375">
        <ele>1854.199951171875</ele>
        <time>2026-06-15T09:17:57.000Z</time>
        <extensions>
          <ns3:TrackPointExtension>
            <ns3:atemp>20.0</ns3:atemp>
          </ns3:TrackPointExtension>
        </extensions>
      </trkpt>
      <trkpt lat="42.59184845723211765289306640625" lon="20.1005969010293483734130859375">
        <ele>1854.199951171875</ele>
        <time>2026-06-15T09:17:58.000Z</time>
        <extensions>
          <ns3:TrackPointExtension>
            <ns3:atemp>20.0</ns3:atemp>
          </ns3:TrackPointExtension>
        </extensions>
      </trkpt>
      <trkpt lat="42.59187058545649051666259765625" lon="20.10057351551949977874755859375">
        <ele>1854.199951171875</ele>
        <time>2026-06-15T09:17:59.000Z</time>
        <extensions>
          <ns3:TrackPointExtension>
            <ns3:atemp>20.0</ns3:atemp>
          </ns3:TrackPointExtension>
        </extensions>
      </trkpt>
      <trkpt lat="42.59189489297568798065185546875" lon="20.10055121965706348419189453125">
        <ele>1854.199951171875</ele>
        <time>2026-06-15T09:18:00.000Z</time>
        <extensions>
          <ns3:TrackPointExtension>
            <ns3:atemp>20.0</ns3:atemp>
          </ns3:TrackPointExtension>
        </extensions>
      </trkpt>
      <trkpt lat="42.59191341698169708251953125" lon="20.100533701479434967041015625">
        <ele>1854.199951171875</ele>
        <time>2026-06-15T09:18:01.000Z</time>
        <extensions>
          <ns3:TrackPointExtension>
            <ns3:atemp>20.0</ns3:atemp>
          </ns3:TrackPointExtension>
        </extensions>
      </trkpt>
      <trkpt lat="42.5919296778738498687744140625" lon="20.10051668621599674224853515625">
        <ele>1854.199951171875</ele>
        <time>2026-06-15T09:18:02.000Z</time>
        <extensions>
          <ns3:TrackPointExtension>
            <ns3:atemp>20.0</ns3:atemp>
          </ns3:TrackPointExtension>
        </extensions>
      </trkpt>
      <trkpt lat="42.59194828569889068603515625" lon="20.1005000062286853790283203125">
        <ele>1854.4000244140625</ele>
        <time>2026-06-15T09:18:03.000Z</time>
        <extensions>
          <ns3:TrackPointExtension>
            <ns3:atemp>20.0</ns3:atemp>
          </ns3:TrackPointExtension>
        </extensions>
      </trkpt>
      <trkpt lat="42.591968066990375518798828125" lon="20.10047896765172481536865234375">
        <ele>1854.5999755859375</ele>
        <time>2026-06-15T09:18:04.000Z</time>
        <extensions>
          <ns3:TrackPointExtension>
            <ns3:atemp>20.0</ns3:atemp>
          </ns3:TrackPointExtension>
        </extensions>
      </trkpt>
      <trkpt lat="42.59199011139571666717529296875" lon="20.1004594378173351287841796875">
        <ele>1854.5999755859375</ele>
        <time>2026-06-15T09:18:05.000Z</time>
        <extensions>
          <ns3:TrackPointExtension>
            <ns3:atemp>20.0</ns3:atemp>
          </ns3:TrackPointExtension>
        </extensions>
      </trkpt>
      <trkpt lat="42.59200938977301120758056640625" lon="20.10043772868812084197998046875">
        <ele>1854.800048828125</ele>
        <time>2026-06-15T09:18:06.000Z</time>
        <extensions>
          <ns3:TrackPointExtension>
            <ns3:atemp>20.0</ns3:atemp>
          </ns3:TrackPointExtension>
        </extensions>
      </trkpt>
      <trkpt lat="42.59202883578836917877197265625" lon="20.10041459463536739349365234375">
        <ele>1855</ele>
        <time>2026-06-15T09:18:07.000Z</time>
        <extensions>
          <ns3:TrackPointExtension>
            <ns3:atemp>20.0</ns3:atemp>
          </ns3:TrackPointExtension>
        </extensions>
      </trkpt>
      <trkpt lat="42.59204207919538021087646484375" lon="20.1003917120397090911865234375">
        <ele>1855.199951171875</ele>
        <time>2026-06-15T09:18:08.000Z</time>
        <extensions>
          <ns3:TrackPointExtension>
            <ns3:atemp>20.0</ns3:atemp>
          </ns3:TrackPointExtension>
        </extensions>
      </trkpt>
      <trkpt lat="42.59205582551658153533935546875" lon="20.1003618724644184112548828125">
        <ele>1855.4000244140625</ele>
        <time>2026-06-15T09:18:09.000Z</time>
        <extensions>
          <ns3:TrackPointExtension>
            <ns3:atemp>20.0</ns3:atemp>
          </ns3:TrackPointExtension>
        </extensions>
      </trkpt>
      <trkpt lat="42.5920694880187511444091796875" lon="20.1003337092697620391845703125">
        <ele>1855.4000244140625</ele>
        <time>2026-06-15T09:18:10.000Z</time>
        <extensions>
          <ns3:TrackPointExtension>
            <ns3:atemp>20.0</ns3:atemp>
          </ns3:TrackPointExtension>
        </extensions>
      </trkpt>
      <trkpt lat="42.5920805521309375762939453125" lon="20.10030747391283512115478515625">
        <ele>1855.800048828125</ele>
        <time>2026-06-15T09:18:11.000Z</time>
        <extensions>
          <ns3:TrackPointExtension>
            <ns3:atemp>20.0</ns3:atemp>
          </ns3:TrackPointExtension>
        </extensions>
      </trkpt>
      <trkpt lat="42.59209002368152141571044921875" lon="20.100276209414005279541015625">
        <ele>1856</ele>
        <time>2026-06-15T09:18:12.000Z</time>
        <extensions>
          <ns3:TrackPointExtension>
            <ns3:atemp>20.0</ns3:atemp>
          </ns3:TrackPointExtension>
        </extensions>
      </trkpt>
      <trkpt lat="42.592097818851470947265625" lon="20.10024310089647769927978515625">
        <ele>1856.199951171875</ele>
        <time>2026-06-15T09:18:13.000Z</time>
        <extensions>
          <ns3:TrackPointExtension>
            <ns3:atemp>20.0</ns3:atemp>
          </ns3:TrackPointExtension>
        </extensions>
      </trkpt>
      <trkpt lat="42.592102177441120147705078125" lon="20.10022021830081939697265625">
        <ele>1856.4000244140625</ele>
        <time>2026-06-15T09:18:14.000Z</time>
        <extensions>
          <ns3:TrackPointExtension>
            <ns3:atemp>20.0</ns3:atemp>
          </ns3:TrackPointExtension>
        </extensions>
      </trkpt>
      <trkpt lat="42.59210712276399135589599609375" lon="20.1001905463635921478271484375">
        <ele>1856.800048828125</ele>
        <time>2026-06-15T09:18:15.000Z</time>
        <extensions>
          <ns3:TrackPointExtension>
            <ns3:atemp>20.0</ns3:atemp>
          </ns3:TrackPointExtension>
        </extensions>
      </trkpt>
      <trkpt lat="42.59211332537233829498291015625" lon="20.100161544978618621826171875">
        <ele>1857</ele>
        <time>2026-06-15T09:18:16.000Z</time>
        <extensions>
          <ns3:TrackPointExtension>
            <ns3:atemp>20.0</ns3:atemp>
          </ns3:TrackPointExtension>
        </extensions>
      </trkpt>
      <trkpt lat="42.5921214558184146881103515625" lon="20.10013497434556484222412109375">
        <ele>1857.4000244140625</ele>
        <time>2026-06-15T09:18:17.000Z</time>
        <extensions>
          <ns3:TrackPointExtension>
            <ns3:atemp>20.0</ns3:atemp>
          </ns3:TrackPointExtension>
        </extensions>
      </trkpt>
      <trkpt lat="42.5921211205422878265380859375" lon="20.1001136004924774169921875">
        <ele>1857.800048828125</ele>
        <time>2026-06-15T09:18:18.000Z</time>
        <extensions>
          <ns3:TrackPointExtension>
            <ns3:atemp>20.0</ns3:atemp>
          </ns3:TrackPointExtension>
        </extensions>
      </trkpt>
      <trkpt lat="42.59211952798068523406982421875" lon="20.10009574703872203826904296875">
        <ele>1858.4000244140625</ele>
        <time>2026-06-15T09:18:19.000Z</time>
        <extensions>
          <ns3:TrackPointExtension>
            <ns3:atemp>20.0</ns3:atemp>
          </ns3:TrackPointExtension>
        </extensions>
      </trkpt>
      <trkpt lat="42.59211064316332340240478515625" lon="20.10009725578129291534423828125">
        <ele>1858.800048828125</ele>
        <time>2026-06-15T09:18:20.000Z</time>
        <extensions>
          <ns3:TrackPointExtension>
            <ns3:atemp>20.0</ns3:atemp>
          </ns3:TrackPointExtension>
        </extensions>
      </trkpt>
      <trkpt lat="42.59210930205881595611572265625" lon="20.10009817779064178466796875">
        <ele>1859</ele>
        <time>2026-06-15T09:18:21.000Z</time>
        <extensions>
          <ns3:TrackPointExtension>
            <ns3:atemp>20.0</ns3:atemp>
          </ns3:TrackPointExtension>
        </extensions>
      </trkpt>
      <trkpt lat="42.59210930205881595611572265625" lon="20.10009817779064178466796875">
        <ele>1859.4000244140625</ele>
        <time>2026-06-15T09:18:22.000Z</time>
        <extensions>
          <ns3:TrackPointExtension>
            <ns3:atemp>20.0</ns3:atemp>
          </ns3:TrackPointExtension>
        </extensions>
      </trkpt>
      <trkpt lat="42.59210930205881595611572265625" lon="20.10009817779064178466796875">
        <ele>1859.5999755859375</ele>
        <time>2026-06-15T09:18:23.000Z</time>
        <extensions>
          <ns3:TrackPointExtension>
            <ns3:atemp>20.0</ns3:atemp>
          </ns3:TrackPointExtension>
        </extensions>
      </trkpt>
      <trkpt lat="42.59210930205881595611572265625" lon="20.10009817779064178466796875">
        <ele>1859.5999755859375</ele>
        <time>2026-06-15T09:18:24.000Z</time>
        <extensions>
          <ns3:TrackPointExtension>
            <ns3:atemp>20.0</ns3:atemp>
          </ns3:TrackPointExtension>
        </extensions>
      </trkpt>
      <trkpt lat="42.59210930205881595611572265625" lon="20.10009817779064178466796875">
        <ele>1859.5999755859375</ele>
        <time>2026-06-15T09:18:25.000Z</time>
        <extensions>
          <ns3:TrackPointExtension>
            <ns3:atemp>20.0</ns3:atemp>
          </ns3:TrackPointExtension>
        </extensions>
      </trkpt>
      <trkpt lat="42.59210930205881595611572265625" lon="20.10009817779064178466796875">
        <ele>1859.4000244140625</ele>
        <time>2026-06-15T09:18:26.000Z</time>
        <extensions>
          <ns3:TrackPointExtension>
            <ns3:atemp>20.0</ns3:atemp>
          </ns3:TrackPointExtension>
        </extensions>
      </trkpt>
      <trkpt lat="42.59210930205881595611572265625" lon="20.10009817779064178466796875">
        <ele>1859.4000244140625</ele>
        <time>2026-06-15T09:18:27.000Z</time>
        <extensions>
          <ns3:TrackPointExtension>
            <ns3:atemp>20.0</ns3:atemp>
          </ns3:TrackPointExtension>
        </extensions>
      </trkpt>
      <trkpt lat="42.59210930205881595611572265625" lon="20.10009817779064178466796875">
        <ele>1859.4000244140625</ele>
        <time>2026-06-15T09:18:28.000Z</time>
        <extensions>
          <ns3:TrackPointExtension>
            <ns3:atemp>20.0</ns3:atemp>
          </ns3:TrackPointExtension>
        </extensions>
      </trkpt>
      <trkpt lat="42.59210930205881595611572265625" lon="20.10009817779064178466796875">
        <ele>1859.4000244140625</ele>
        <time>2026-06-15T09:18:29.000Z</time>
        <extensions>
          <ns3:TrackPointExtension>
            <ns3:atemp>20.0</ns3:atemp>
          </ns3:TrackPointExtension>
        </extensions>
      </trkpt>
      <trkpt lat="42.59210930205881595611572265625" lon="20.10009817779064178466796875">
        <ele>1859.4000244140625</ele>
        <time>2026-06-15T09:18:30.000Z</time>
        <extensions>
          <ns3:TrackPointExtension>
            <ns3:atemp>20.0</ns3:atemp>
          </ns3:TrackPointExtension>
        </extensions>
      </trkpt>
      <trkpt lat="42.59210930205881595611572265625" lon="20.10009817779064178466796875">
        <ele>1859.4000244140625</ele>
        <time>2026-06-15T09:18:31.000Z</time>
        <extensions>
          <ns3:TrackPointExtension>
            <ns3:atemp>20.0</ns3:atemp>
          </ns3:TrackPointExtension>
        </extensions>
      </trkpt>
      <trkpt lat="42.59210930205881595611572265625" lon="20.10009817779064178466796875">
        <ele>1859.4000244140625</ele>
        <time>2026-06-15T09:18:32.000Z</time>
        <extensions>
          <ns3:TrackPointExtension>
            <ns3:atemp>20.0</ns3:atemp>
          </ns3:TrackPointExtension>
        </extensions>
      </trkpt>
      <trkpt lat="42.59210930205881595611572265625" lon="20.10009817779064178466796875">
        <ele>1859.4000244140625</ele>
        <time>2026-06-15T09:18:33.000Z</time>
        <extensions>
          <ns3:TrackPointExtension>
            <ns3:atemp>20.0</ns3:atemp>
          </ns3:TrackPointExtension>
        </extensions>
      </trkpt>
      <trkpt lat="42.59210930205881595611572265625" lon="20.10009817779064178466796875">
        <ele>1859.5999755859375</ele>
        <time>2026-06-15T09:18:34.000Z</time>
        <extensions>
          <ns3:TrackPointExtension>
            <ns3:atemp>20.0</ns3:atemp>
          </ns3:TrackPointExtension>
        </extensions>
      </trkpt>
      <trkpt lat="42.59210930205881595611572265625" lon="20.10009817779064178466796875">
        <ele>1859.5999755859375</ele>
        <time>2026-06-15T09:18:35.000Z</time>
        <extensions>
          <ns3:TrackPointExtension>
            <ns3:atemp>20.0</ns3:atemp>
          </ns3:TrackPointExtension>
        </extensions>
      </trkpt>
      <trkpt lat="42.59210930205881595611572265625" lon="20.10009817779064178466796875">
        <ele>1859.5999755859375</ele>
        <time>2026-06-15T09:18:36.000Z</time>
        <extensions>
          <ns3:TrackPointExtension>
            <ns3:atemp>20.0</ns3:atemp>
          </ns3:TrackPointExtension>
        </extensions>
      </trkpt>
      <trkpt lat="42.59210930205881595611572265625" lon="20.10009817779064178466796875">
        <ele>1859.5999755859375</ele>
        <time>2026-06-15T09:18:37.000Z</time>
        <extensions>
          <ns3:TrackPointExtension>
            <ns3:atemp>20.0</ns3:atemp>
          </ns3:TrackPointExtension>
        </extensions>
      </trkpt>
      <trkpt lat="42.59210930205881595611572265625" lon="20.10009817779064178466796875">
        <ele>1859.800048828125</ele>
        <time>2026-06-15T09:18:38.000Z</time>
        <extensions>
          <ns3:TrackPointExtension>
            <ns3:atemp>20.0</ns3:atemp>
          </ns3:TrackPointExtension>
        </extensions>
      </trkpt>
      <trkpt lat="42.59210930205881595611572265625" lon="20.10009817779064178466796875">
        <ele>1859.800048828125</ele>
        <time>2026-06-15T09:18:39.000Z</time>
        <extensions>
          <ns3:TrackPointExtension>
            <ns3:atemp>20.0</ns3:atemp>
          </ns3:TrackPointExtension>
        </extensions>
      </trkpt>
      <trkpt lat="42.59210930205881595611572265625" lon="20.10009817779064178466796875">
        <ele>1859.800048828125</ele>
        <time>2026-06-15T09:18:40.000Z</time>
        <extensions>
          <ns3:TrackPointExtension>
            <ns3:atemp>20.0</ns3:atemp>
          </ns3:TrackPointExtension>
        </extensions>
      </trkpt>
      <trkpt lat="42.59210930205881595611572265625" lon="20.10009817779064178466796875">
        <ele>1859.800048828125</ele>
        <time>2026-06-15T09:18:41.000Z</time>
        <extensions>
          <ns3:TrackPointExtension>
            <ns3:atemp>20.0</ns3:atemp>
          </ns3:TrackPointExtension>
        </extensions>
      </trkpt>
      <trkpt lat="42.59210930205881595611572265625" lon="20.10009817779064178466796875">
        <ele>1859.800048828125</ele>
        <time>2026-06-15T09:18:42.000Z</time>
        <extensions>
          <ns3:TrackPointExtension>
            <ns3:atemp>20.0</ns3:atemp>
          </ns3:TrackPointExtension>
        </extensions>
      </trkpt>
      <trkpt lat="42.59210930205881595611572265625" lon="20.10009817779064178466796875">
        <ele>1859.800048828125</ele>
        <time>2026-06-15T09:18:43.000Z</time>
        <extensions>
          <ns3:TrackPointExtension>
            <ns3:atemp>20.0</ns3:atemp>
          </ns3:TrackPointExtension>
        </extensions>
      </trkpt>
      <trkpt lat="42.59210930205881595611572265625" lon="20.10009817779064178466796875">
        <ele>1859.800048828125</ele>
        <time>2026-06-15T09:18:44.000Z</time>
        <extensions>
          <ns3:TrackPointExtension>
            <ns3:atemp>20.0</ns3:atemp>
          </ns3:TrackPointExtension>
        </extensions>
      </trkpt>
      <trkpt lat="42.59210930205881595611572265625" lon="20.10009817779064178466796875">
        <ele>1859.800048828125</ele>
        <time>2026-06-15T09:18:45.000Z</time>
        <extensions>
          <ns3:TrackPointExtension>
            <ns3:atemp>20.0</ns3:atemp>
          </ns3:TrackPointExtension>
        </extensions>
      </trkpt>
      <trkpt lat="42.59210930205881595611572265625" lon="20.10009817779064178466796875">
        <ele>1860</ele>
        <time>2026-06-15T09:18:46.000Z</time>
        <extensions>
          <ns3:TrackPointExtension>
            <ns3:atemp>20.0</ns3:atemp>
          </ns3:TrackPointExtension>
        </extensions>
      </trkpt>
      <trkpt lat="42.59210930205881595611572265625" lon="20.10009817779064178466796875">
        <ele>1860</ele>
        <time>2026-06-15T09:18:47.000Z</time>
        <extensions>
          <ns3:TrackPointExtension>
            <ns3:atemp>20.0</ns3:atemp>
          </ns3:TrackPointExtension>
        </extensions>
      </trkpt>
      <trkpt lat="42.59210930205881595611572265625" lon="20.10009817779064178466796875">
        <ele>1860</ele>
        <time>2026-06-15T09:18:48.000Z</time>
        <extensions>
          <ns3:TrackPointExtension>
            <ns3:atemp>20.0</ns3:atemp>
          </ns3:TrackPointExtension>
        </extensions>
      </trkpt>
      <trkpt lat="42.59210930205881595611572265625" lon="20.10009817779064178466796875">
        <ele>1860</ele>
        <time>2026-06-15T09:18:49.000Z</time>
        <extensions>
          <ns3:TrackPointExtension>
            <ns3:atemp>20.0</ns3:atemp>
          </ns3:TrackPointExtension>
        </extensions>
      </trkpt>
      <trkpt lat="42.59210930205881595611572265625" lon="20.10009817779064178466796875">
        <ele>1860</ele>
        <time>2026-06-15T09:18:50.000Z</time>
        <extensions>
          <ns3:TrackPointExtension>
            <ns3:atemp>20.0</ns3:atemp>
          </ns3:TrackPointExtension>
        </extensions>
      </trkpt>
      <trkpt lat="42.59210930205881595611572265625" lon="20.10009817779064178466796875">
        <ele>1860</ele>
        <time>2026-06-15T09:18:51.000Z</time>
        <extensions>
          <ns3:TrackPointExtension>
            <ns3:atemp>20.0</ns3:atemp>
          </ns3:TrackPointExtension>
        </extensions>
      </trkpt>
      <trkpt lat="42.59210930205881595611572265625" lon="20.10009817779064178466796875">
        <ele>1860</ele>
        <time>2026-06-15T09:18:52.000Z</time>
        <extensions>
          <ns3:TrackPointExtension>
            <ns3:atemp>20.0</ns3:atemp>
          </ns3:TrackPointExtension>
        </extensions>
      </trkpt>
      <trkpt lat="42.59210930205881595611572265625" lon="20.10009817779064178466796875">
        <ele>1860</ele>
        <time>2026-06-15T09:18:53.000Z</time>
        <extensions>
          <ns3:TrackPointExtension>
            <ns3:atemp>20.0</ns3:atemp>
          </ns3:TrackPointExtension>
        </extensions>
      </trkpt>
      <trkpt lat="42.59210930205881595611572265625" lon="20.10009817779064178466796875">
        <ele>1860</ele>
        <time>2026-06-15T09:18:54.000Z</time>
        <extensions>
          <ns3:TrackPointExtension>
            <ns3:atemp>20.0</ns3:atemp>
          </ns3:TrackPointExtension>
        </extensions>
      </trkpt>
      <trkpt lat="42.59210930205881595611572265625" lon="20.10009817779064178466796875">
        <ele>1860</ele>
        <time>2026-06-15T09:18:55.000Z</time>
        <extensions>
          <ns3:TrackPointExtension>
            <ns3:atemp>20.0</ns3:atemp>
          </ns3:TrackPointExtension>
        </extensions>
      </trkpt>
      <trkpt lat="42.59210930205881595611572265625" lon="20.10009817779064178466796875">
        <ele>1860</ele>
        <time>2026-06-15T09:18:56.000Z</time>
        <extensions>
          <ns3:TrackPointExtension>
            <ns3:atemp>20.0</ns3:atemp>
          </ns3:TrackPointExtension>
        </extensions>
      </trkpt>
      <trkpt lat="42.59210930205881595611572265625" lon="20.10009817779064178466796875">
        <ele>1860</ele>
        <time>2026-06-15T09:18:57.000Z</time>
        <extensions>
          <ns3:TrackPointExtension>
            <ns3:atemp>20.0</ns3:atemp>
          </ns3:TrackPointExtension>
        </extensions>
      </trkpt>
      <trkpt lat="42.59210930205881595611572265625" lon="20.10009817779064178466796875">
        <ele>1860</ele>
        <time>2026-06-15T09:18:58.000Z</time>
        <extensions>
          <ns3:TrackPointExtension>
            <ns3:atemp>20.0</ns3:atemp>
          </ns3:TrackPointExtension>
        </extensions>
      </trkpt>
      <trkpt lat="42.59210930205881595611572265625" lon="20.10009817779064178466796875">
        <ele>1860</ele>
        <time>2026-06-15T09:18:59.000Z</time>
        <extensions>
          <ns3:TrackPointExtension>
            <ns3:atemp>20.0</ns3:atemp>
          </ns3:TrackPointExtension>
        </extensions>
      </trkpt>
      <trkpt lat="42.59210930205881595611572265625" lon="20.10009817779064178466796875">
        <ele>1860</ele>
        <time>2026-06-15T09:19:00.000Z</time>
        <extensions>
          <ns3:TrackPointExtension>
            <ns3:atemp>20.0</ns3:atemp>
          </ns3:TrackPointExtension>
        </extensions>
      </trkpt>
      <trkpt lat="42.59210930205881595611572265625" lon="20.10009817779064178466796875">
        <ele>1860</ele>
        <time>2026-06-15T09:19:01.000Z</time>
        <extensions>
          <ns3:TrackPointExtension>
            <ns3:atemp>20.0</ns3:atemp>
          </ns3:TrackPointExtension>
        </extensions>
      </trkpt>
      <trkpt lat="42.59210930205881595611572265625" lon="20.10009817779064178466796875">
        <ele>1860</ele>
        <time>2026-06-15T09:19:02.000Z</time>
        <extensions>
          <ns3:TrackPointExtension>
            <ns3:atemp>20.0</ns3:atemp>
          </ns3:TrackPointExtension>
        </extensions>
      </trkpt>
      <trkpt lat="42.59210930205881595611572265625" lon="20.10009817779064178466796875">
        <ele>1860</ele>
        <time>2026-06-15T09:19:03.000Z</time>
        <extensions>
          <ns3:TrackPointExtension>
            <ns3:atemp>20.0</ns3:atemp>
          </ns3:TrackPointExtension>
        </extensions>
      </trkpt>
      <trkpt lat="42.59210930205881595611572265625" lon="20.10009817779064178466796875">
        <ele>1860</ele>
        <time>2026-06-15T09:19:04.000Z</time>
        <extensions>
          <ns3:TrackPointExtension>
            <ns3:atemp>20.0</ns3:atemp>
          </ns3:TrackPointExtension>
        </extensions>
      </trkpt>
      <trkpt lat="42.59210930205881595611572265625" lon="20.10009817779064178466796875">
        <ele>1860</ele>
        <time>2026-06-15T09:19:05.000Z</time>
        <extensions>
          <ns3:TrackPointExtension>
            <ns3:atemp>20.0</ns3:atemp>
          </ns3:TrackPointExtension>
        </extensions>
      </trkpt>
      <trkpt lat="42.59210930205881595611572265625" lon="20.10009817779064178466796875">
        <ele>1860</ele>
        <time>2026-06-15T09:19:06.000Z</time>
        <extensions>
          <ns3:TrackPointExtension>
            <ns3:atemp>20.0</ns3:atemp>
          </ns3:TrackPointExtension>
        </extensions>
      </trkpt>
      <trkpt lat="42.59210930205881595611572265625" lon="20.10009817779064178466796875">
        <ele>1860</ele>
        <time>2026-06-15T09:19:07.000Z</time>
        <extensions>
          <ns3:TrackPointExtension>
            <ns3:atemp>20.0</ns3:atemp>
          </ns3:TrackPointExtension>
        </extensions>
      </trkpt>
      <trkpt lat="42.59210930205881595611572265625" lon="20.10009817779064178466796875">
        <ele>1860</ele>
        <time>2026-06-15T09:19:08.000Z</time>
        <extensions>
          <ns3:TrackPointExtension>
            <ns3:atemp>20.0</ns3:atemp>
          </ns3:TrackPointExtension>
        </extensions>
      </trkpt>
      <trkpt lat="42.59210930205881595611572265625" lon="20.10009817779064178466796875">
        <ele>1860</ele>
        <time>2026-06-15T09:19:09.000Z</time>
        <extensions>
          <ns3:TrackPointExtension>
            <ns3:atemp>20.0</ns3:atemp>
          </ns3:TrackPointExtension>
        </extensions>
      </trkpt>
      <trkpt lat="42.59210930205881595611572265625" lon="20.10009817779064178466796875">
        <ele>1860</ele>
        <time>2026-06-15T09:19:10.000Z</time>
        <extensions>
          <ns3:TrackPointExtension>
            <ns3:atemp>20.0</ns3:atemp>
          </ns3:TrackPointExtension>
        </extensions>
      </trkpt>
      <trkpt lat="42.59210930205881595611572265625" lon="20.10009817779064178466796875">
        <ele>1860</ele>
        <time>2026-06-15T09:19:11.000Z</time>
        <extensions>
          <ns3:TrackPointExtension>
            <ns3:atemp>20.0</ns3:atemp>
          </ns3:TrackPointExtension>
        </extensions>
      </trkpt>
      <trkpt lat="42.59210930205881595611572265625" lon="20.10009817779064178466796875">
        <ele>1860</ele>
        <time>2026-06-15T09:19:12.000Z</time>
        <extensions>
          <ns3:TrackPointExtension>
            <ns3:atemp>20.0</ns3:atemp>
          </ns3:TrackPointExtension>
        </extensions>
      </trkpt>
      <trkpt lat="42.59210930205881595611572265625" lon="20.10009817779064178466796875">
        <ele>1860</ele>
        <time>2026-06-15T09:19:13.000Z</time>
        <extensions>
          <ns3:TrackPointExtension>
            <ns3:atemp>20.0</ns3:atemp>
          </ns3:TrackPointExtension>
        </extensions>
      </trkpt>
      <trkpt lat="42.59210930205881595611572265625" lon="20.10009817779064178466796875">
        <ele>1860</ele>
        <time>2026-06-15T09:19:14.000Z</time>
        <extensions>
          <ns3:TrackPointExtension>
            <ns3:atemp>20.0</ns3:atemp>
          </ns3:TrackPointExtension>
        </extensions>
      </trkpt>
      <trkpt lat="42.59210930205881595611572265625" lon="20.10009817779064178466796875">
        <ele>1860</ele>
        <time>2026-06-15T09:19:15.000Z</time>
        <extensions>
          <ns3:TrackPointExtension>
            <ns3:atemp>20.0</ns3:atemp>
          </ns3:TrackPointExtension>
        </extensions>
      </trkpt>
      <trkpt lat="42.59210930205881595611572265625" lon="20.10009817779064178466796875">
        <ele>1860</ele>
        <time>2026-06-15T09:19:16.000Z</time>
        <extensions>
          <ns3:TrackPointExtension>
            <ns3:atemp>20.0</ns3:atemp>
          </ns3:TrackPointExtension>
        </extensions>
      </trkpt>
      <trkpt lat="42.59210930205881595611572265625" lon="20.10009817779064178466796875">
        <ele>1860.199951171875</ele>
        <time>2026-06-15T09:19:17.000Z</time>
        <extensions>
          <ns3:TrackPointExtension>
            <ns3:atemp>20.0</ns3:atemp>
          </ns3:TrackPointExtension>
        </extensions>
      </trkpt>
      <trkpt lat="42.59210930205881595611572265625" lon="20.10009817779064178466796875">
        <ele>1860.199951171875</ele>
        <time>2026-06-15T09:19:18.000Z</time>
        <extensions>
          <ns3:TrackPointExtension>
            <ns3:atemp>20.0</ns3:atemp>
          </ns3:TrackPointExtension>
        </extensions>
      </trkpt>
      <trkpt lat="42.59210930205881595611572265625" lon="20.10009817779064178466796875">
        <ele>1860.199951171875</ele>
        <time>2026-06-15T09:19:19.000Z</time>
        <extensions>
          <ns3:TrackPointExtension>
            <ns3:atemp>20.0</ns3:atemp>
          </ns3:TrackPointExtension>
        </extensions>
      </trkpt>
      <trkpt lat="42.59210930205881595611572265625" lon="20.10009817779064178466796875">
        <ele>1860.199951171875</ele>
        <time>2026-06-15T09:19:20.000Z</time>
        <extensions>
          <ns3:TrackPointExtension>
            <ns3:atemp>20.0</ns3:atemp>
          </ns3:TrackPointExtension>
        </extensions>
      </trkpt>
      <trkpt lat="42.59210930205881595611572265625" lon="20.10009817779064178466796875">
        <ele>1860</ele>
        <time>2026-06-15T09:19:21.000Z</time>
        <extensions>
          <ns3:TrackPointExtension>
            <ns3:atemp>20.0</ns3:atemp>
          </ns3:TrackPointExtension>
        </extensions>
      </trkpt>
      <trkpt lat="42.59210930205881595611572265625" lon="20.10009817779064178466796875">
        <ele>1860</ele>
        <time>2026-06-15T09:19:22.000Z</time>
        <extensions>
          <ns3:TrackPointExtension>
            <ns3:atemp>20.0</ns3:atemp>
          </ns3:TrackPointExtension>
        </extensions>
      </trkpt>
      <trkpt lat="42.59210930205881595611572265625" lon="20.10009817779064178466796875">
        <ele>1860</ele>
        <time>2026-06-15T09:19:23.000Z</time>
        <extensions>
          <ns3:TrackPointExtension>
            <ns3:atemp>20.0</ns3:atemp>
          </ns3:TrackPointExtension>
        </extensions>
      </trkpt>
      <trkpt lat="42.59210930205881595611572265625" lon="20.10009817779064178466796875">
        <ele>1860</ele>
        <time>2026-06-15T09:19:24.000Z</time>
        <extensions>
          <ns3:TrackPointExtension>
            <ns3:atemp>20.0</ns3:atemp>
          </ns3:TrackPointExtension>
        </extensions>
      </trkpt>
      <trkpt lat="42.59210930205881595611572265625" lon="20.10009817779064178466796875">
        <ele>1860</ele>
        <time>2026-06-15T09:19:25.000Z</time>
        <extensions>
          <ns3:TrackPointExtension>
            <ns3:atemp>20.0</ns3:atemp>
          </ns3:TrackPointExtension>
        </extensions>
      </trkpt>
      <trkpt lat="42.59210930205881595611572265625" lon="20.10009817779064178466796875">
        <ele>1860</ele>
        <time>2026-06-15T09:19:26.000Z</time>
        <extensions>
          <ns3:TrackPointExtension>
            <ns3:atemp>20.0</ns3:atemp>
          </ns3:TrackPointExtension>
        </extensions>
      </trkpt>
      <trkpt lat="42.59210930205881595611572265625" lon="20.10009817779064178466796875">
        <ele>1860</ele>
        <time>2026-06-15T09:19:27.000Z</time>
        <extensions>
          <ns3:TrackPointExtension>
            <ns3:atemp>20.0</ns3:atemp>
          </ns3:TrackPointExtension>
        </extensions>
      </trkpt>
      <trkpt lat="42.59210930205881595611572265625" lon="20.10009817779064178466796875">
        <ele>1860</ele>
        <time>2026-06-15T09:19:28.000Z</time>
        <extensions>
          <ns3:TrackPointExtension>
            <ns3:atemp>20.0</ns3:atemp>
          </ns3:TrackPointExtension>
        </extensions>
      </trkpt>
      <trkpt lat="42.59210930205881595611572265625" lon="20.10009817779064178466796875">
        <ele>1860</ele>
        <time>2026-06-15T09:19:29.000Z</time>
        <extensions>
          <ns3:TrackPointExtension>
            <ns3:atemp>20.0</ns3:atemp>
          </ns3:TrackPointExtension>
        </extensions>
      </trkpt>
      <trkpt lat="42.59210930205881595611572265625" lon="20.10009817779064178466796875">
        <ele>1860</ele>
        <time>2026-06-15T09:19:30.000Z</time>
        <extensions>
          <ns3:TrackPointExtension>
            <ns3:atemp>20.0</ns3:atemp>
          </ns3:TrackPointExtension>
        </extensions>
      </trkpt>
      <trkpt lat="42.59210930205881595611572265625" lon="20.10009817779064178466796875">
        <ele>1860</ele>
        <time>2026-06-15T09:19:31.000Z</time>
        <extensions>
          <ns3:TrackPointExtension>
            <ns3:atemp>20.0</ns3:atemp>
          </ns3:TrackPointExtension>
        </extensions>
      </trkpt>
      <trkpt lat="42.59210930205881595611572265625" lon="20.10009817779064178466796875">
        <ele>1860</ele>
        <time>2026-06-15T09:19:32.000Z</time>
        <extensions>
          <ns3:TrackPointExtension>
            <ns3:atemp>20.0</ns3:atemp>
          </ns3:TrackPointExtension>
        </extensions>
      </trkpt>
      <trkpt lat="42.59210930205881595611572265625" lon="20.10009817779064178466796875">
        <ele>1860</ele>
        <time>2026-06-15T09:19:33.000Z</time>
        <extensions>
          <ns3:TrackPointExtension>
            <ns3:atemp>20.0</ns3:atemp>
          </ns3:TrackPointExtension>
        </extensions>
      </trkpt>
      <trkpt lat="42.59210930205881595611572265625" lon="20.10009817779064178466796875">
        <ele>1860</ele>
        <time>2026-06-15T09:19:34.000Z</time>
        <extensions>
          <ns3:TrackPointExtension>
            <ns3:atemp>20.0</ns3:atemp>
          </ns3:TrackPointExtension>
        </extensions>
      </trkpt>
      <trkpt lat="42.59210930205881595611572265625" lon="20.10009817779064178466796875">
        <ele>1860</ele>
        <time>2026-06-15T09:19:35.000Z</time>
        <extensions>
          <ns3:TrackPointExtension>
            <ns3:atemp>20.0</ns3:atemp>
          </ns3:TrackPointExtension>
        </extensions>
      </trkpt>
      <trkpt lat="42.59210930205881595611572265625" lon="20.10009817779064178466796875">
        <ele>1860</ele>
        <time>2026-06-15T09:19:36.000Z</time>
        <extensions>
          <ns3:TrackPointExtension>
            <ns3:atemp>20.0</ns3:atemp>
          </ns3:TrackPointExtension>
        </extensions>
      </trkpt>
      <trkpt lat="42.59210930205881595611572265625" lon="20.10009817779064178466796875">
        <ele>1860</ele>
        <time>2026-06-15T09:19:37.000Z</time>
        <extensions>
          <ns3:TrackPointExtension>
            <ns3:atemp>20.0</ns3:atemp>
          </ns3:TrackPointExtension>
        </extensions>
      </trkpt>
      <trkpt lat="42.59210930205881595611572265625" lon="20.10009817779064178466796875">
        <ele>1860</ele>
        <time>2026-06-15T09:19:38.000Z</time>
        <extensions>
          <ns3:TrackPointExtension>
            <ns3:atemp>20.0</ns3:atemp>
          </ns3:TrackPointExtension>
        </extensions>
      </trkpt>
      <trkpt lat="42.59210930205881595611572265625" lon="20.10009817779064178466796875">
        <ele>1860</ele>
        <time>2026-06-15T09:19:39.000Z</time>
        <extensions>
          <ns3:TrackPointExtension>
            <ns3:atemp>20.0</ns3:atemp>
          </ns3:TrackPointExtension>
        </extensions>
      </trkpt>
      <trkpt lat="42.59210930205881595611572265625" lon="20.10009817779064178466796875">
        <ele>1860</ele>
        <time>2026-06-15T09:19:40.000Z</time>
        <extensions>
          <ns3:TrackPointExtension>
            <ns3:atemp>20.0</ns3:atemp>
          </ns3:TrackPointExtension>
        </extensions>
      </trkpt>
      <trkpt lat="42.59210930205881595611572265625" lon="20.10009817779064178466796875">
        <ele>1860</ele>
        <time>2026-06-15T09:19:41.000Z</time>
        <extensions>
          <ns3:TrackPointExtension>
            <ns3:atemp>20.0</ns3:atemp>
          </ns3:TrackPointExtension>
        </extensions>
      </trkpt>
      <trkpt lat="42.59210930205881595611572265625" lon="20.10009817779064178466796875">
        <ele>1860</ele>
        <time>2026-06-15T09:19:42.000Z</time>
        <extensions>
          <ns3:TrackPointExtension>
            <ns3:atemp>20.0</ns3:atemp>
          </ns3:TrackPointExtension>
        </extensions>
      </trkpt>
      <trkpt lat="42.59210930205881595611572265625" lon="20.10009817779064178466796875">
        <ele>1860</ele>
        <time>2026-06-15T09:19:43.000Z</time>
        <extensions>
          <ns3:TrackPointExtension>
            <ns3:atemp>20.0</ns3:atemp>
          </ns3:TrackPointExtension>
        </extensions>
      </trkpt>
      <trkpt lat="42.59210930205881595611572265625" lon="20.10009817779064178466796875">
        <ele>1860</ele>
        <time>2026-06-15T09:19:44.000Z</time>
        <extensions>
          <ns3:TrackPointExtension>
            <ns3:atemp>20.0</ns3:atemp>
          </ns3:TrackPointExtension>
        </extensions>
      </trkpt>
      <trkpt lat="42.59210930205881595611572265625" lon="20.10009817779064178466796875">
        <ele>1860</ele>
        <time>2026-06-15T09:19:45.000Z</time>
        <extensions>
          <ns3:TrackPointExtension>
            <ns3:atemp>20.0</ns3:atemp>
          </ns3:TrackPointExtension>
        </extensions>
      </trkpt>
      <trkpt lat="42.59210930205881595611572265625" lon="20.10009817779064178466796875">
        <ele>1860</ele>
        <time>2026-06-15T09:19:46.000Z</time>
        <extensions>
          <ns3:TrackPointExtension>
            <ns3:atemp>20.0</ns3:atemp>
          </ns3:TrackPointExtension>
        </extensions>
      </trkpt>
      <trkpt lat="42.59210930205881595611572265625" lon="20.10009817779064178466796875">
        <ele>1860</ele>
        <time>2026-06-15T09:19:47.000Z</time>
        <extensions>
          <ns3:TrackPointExtension>
            <ns3:atemp>20.0</ns3:atemp>
          </ns3:TrackPointExtension>
        </extensions>
      </trkpt>
      <trkpt lat="42.59210930205881595611572265625" lon="20.10009817779064178466796875">
        <ele>1860</ele>
        <time>2026-06-15T09:19:48.000Z</time>
        <extensions>
          <ns3:TrackPointExtension>
            <ns3:atemp>20.0</ns3:atemp>
          </ns3:TrackPointExtension>
        </extensions>
      </trkpt>
      <trkpt lat="42.59210930205881595611572265625" lon="20.10009817779064178466796875">
        <ele>1860</ele>
        <time>2026-06-15T09:19:49.000Z</time>
        <extensions>
          <ns3:TrackPointExtension>
            <ns3:atemp>20.0</ns3:atemp>
          </ns3:TrackPointExtension>
        </extensions>
      </trkpt>
      <trkpt lat="42.59210930205881595611572265625" lon="20.10009817779064178466796875">
        <ele>1860</ele>
        <time>2026-06-15T09:19:50.000Z</time>
        <extensions>
          <ns3:TrackPointExtension>
            <ns3:atemp>20.0</ns3:atemp>
          </ns3:TrackPointExtension>
        </extensions>
      </trkpt>
      <trkpt lat="42.59210930205881595611572265625" lon="20.10009817779064178466796875">
        <ele>1860</ele>
        <time>2026-06-15T09:19:51.000Z</time>
        <extensions>
          <ns3:TrackPointExtension>
            <ns3:atemp>20.0</ns3:atemp>
          </ns3:TrackPointExtension>
        </extensions>
      </trkpt>
      <trkpt lat="42.59210930205881595611572265625" lon="20.10009817779064178466796875">
        <ele>1860</ele>
        <time>2026-06-15T09:19:52.000Z</time>
        <extensions>
          <ns3:TrackPointExtension>
            <ns3:atemp>20.0</ns3:atemp>
          </ns3:TrackPointExtension>
        </extensions>
      </trkpt>
      <trkpt lat="42.59210930205881595611572265625" lon="20.10009817779064178466796875">
        <ele>1860</ele>
        <time>2026-06-15T09:19:53.000Z</time>
        <extensions>
          <ns3:TrackPointExtension>
            <ns3:atemp>20.0</ns3:atemp>
          </ns3:TrackPointExtension>
        </extensions>
      </trkpt>
      <trkpt lat="42.59210930205881595611572265625" lon="20.10009817779064178466796875">
        <ele>1860</ele>
        <time>2026-06-15T09:19:54.000Z</time>
        <extensions>
          <ns3:TrackPointExtension>
            <ns3:atemp>20.0</ns3:atemp>
          </ns3:TrackPointExtension>
        </extensions>
      </trkpt>
      <trkpt lat="42.59210930205881595611572265625" lon="20.10009817779064178466796875">
        <ele>1860</ele>
        <time>2026-06-15T09:19:55.000Z</time>
        <extensions>
          <ns3:TrackPointExtension>
            <ns3:atemp>20.0</ns3:atemp>
          </ns3:TrackPointExtension>
        </extensions>
      </trkpt>
      <trkpt lat="42.59210930205881595611572265625" lon="20.10009817779064178466796875">
        <ele>1860</ele>
        <time>2026-06-15T09:19:56.000Z</time>
        <extensions>
          <ns3:TrackPointExtension>
            <ns3:atemp>20.0</ns3:atemp>
          </ns3:TrackPointExtension>
        </extensions>
      </trkpt>
      <trkpt lat="42.59210930205881595611572265625" lon="20.10009817779064178466796875">
        <ele>1860</ele>
        <time>2026-06-15T09:19:57.000Z</time>
        <extensions>
          <ns3:TrackPointExtension>
            <ns3:atemp>20.0</ns3:atemp>
          </ns3:TrackPointExtension>
        </extensions>
      </trkpt>
      <trkpt lat="42.59210930205881595611572265625" lon="20.10009817779064178466796875">
        <ele>1860</ele>
        <time>2026-06-15T09:19:58.000Z</time>
        <extensions>
          <ns3:TrackPointExtension>
            <ns3:atemp>20.0</ns3:atemp>
          </ns3:TrackPointExtension>
        </extensions>
      </trkpt>
      <trkpt lat="42.59210930205881595611572265625" lon="20.10009817779064178466796875">
        <ele>1860</ele>
        <time>2026-06-15T09:19:59.000Z</time>
        <extensions>
          <ns3:TrackPointExtension>
            <ns3:atemp>20.0</ns3:atemp>
          </ns3:TrackPointExtension>
        </extensions>
      </trkpt>
      <trkpt lat="42.59210930205881595611572265625" lon="20.10009817779064178466796875">
        <ele>1860</ele>
        <time>2026-06-15T09:20:00.000Z</time>
        <extensions>
          <ns3:TrackPointExtension>
            <ns3:atemp>20.0</ns3:atemp>
          </ns3:TrackPointExtension>
        </extensions>
      </trkpt>
      <trkpt lat="42.59210930205881595611572265625" lon="20.10009817779064178466796875">
        <ele>1860</ele>
        <time>2026-06-15T09:20:01.000Z</time>
        <extensions>
          <ns3:TrackPointExtension>
            <ns3:atemp>20.0</ns3:atemp>
          </ns3:TrackPointExtension>
        </extensions>
      </trkpt>
      <trkpt lat="42.59210930205881595611572265625" lon="20.10009817779064178466796875">
        <ele>1860</ele>
        <time>2026-06-15T09:20:02.000Z</time>
        <extensions>
          <ns3:TrackPointExtension>
            <ns3:atemp>20.0</ns3:atemp>
          </ns3:TrackPointExtension>
        </extensions>
      </trkpt>
      <trkpt lat="42.59210930205881595611572265625" lon="20.10009817779064178466796875">
        <ele>1860</ele>
        <time>2026-06-15T09:20:03.000Z</time>
        <extensions>
          <ns3:TrackPointExtension>
            <ns3:atemp>20.0</ns3:atemp>
          </ns3:TrackPointExtension>
        </extensions>
      </trkpt>
      <trkpt lat="42.59210930205881595611572265625" lon="20.10009817779064178466796875">
        <ele>1860</ele>
        <time>2026-06-15T09:20:04.000Z</time>
        <extensions>
          <ns3:TrackPointExtension>
            <ns3:atemp>20.0</ns3:atemp>
          </ns3:TrackPointExtension>
        </extensions>
      </trkpt>
      <trkpt lat="42.59210930205881595611572265625" lon="20.10009817779064178466796875">
        <ele>1860</ele>
        <time>2026-06-15T09:20:05.000Z</time>
        <extensions>
          <ns3:TrackPointExtension>
            <ns3:atemp>20.0</ns3:atemp>
          </ns3:TrackPointExtension>
        </extensions>
      </trkpt>
      <trkpt lat="42.59210930205881595611572265625" lon="20.10009817779064178466796875">
        <ele>1860</ele>
        <time>2026-06-15T09:20:06.000Z</time>
        <extensions>
          <ns3:TrackPointExtension>
            <ns3:atemp>20.0</ns3:atemp>
          </ns3:TrackPointExtension>
        </extensions>
      </trkpt>
      <trkpt lat="42.59210930205881595611572265625" lon="20.10009817779064178466796875">
        <ele>1860</ele>
        <time>2026-06-15T09:20:07.000Z</time>
        <extensions>
          <ns3:TrackPointExtension>
            <ns3:atemp>20.0</ns3:atemp>
          </ns3:TrackPointExtension>
        </extensions>
      </trkpt>
      <trkpt lat="42.59210930205881595611572265625" lon="20.10009817779064178466796875">
        <ele>1860</ele>
        <time>2026-06-15T09:20:08.000Z</time>
        <extensions>
          <ns3:TrackPointExtension>
            <ns3:atemp>20.0</ns3:atemp>
          </ns3:TrackPointExtension>
        </extensions>
      </trkpt>
      <trkpt lat="42.59210930205881595611572265625" lon="20.10009817779064178466796875">
        <ele>1860</ele>
        <time>2026-06-15T09:20:09.000Z</time>
        <extensions>
          <ns3:TrackPointExtension>
            <ns3:atemp>20.0</ns3:atemp>
          </ns3:TrackPointExtension>
        </extensions>
      </trkpt>
      <trkpt lat="42.59210930205881595611572265625" lon="20.10009817779064178466796875">
        <ele>1860</ele>
        <time>2026-06-15T09:20:10.000Z</time>
        <extensions>
          <ns3:TrackPointExtension>
            <ns3:atemp>20.0</ns3:atemp>
          </ns3:TrackPointExtension>
        </extensions>
      </trkpt>
      <trkpt lat="42.59210930205881595611572265625" lon="20.10009817779064178466796875">
        <ele>1860</ele>
        <time>2026-06-15T09:20:11.000Z</time>
        <extensions>
          <ns3:TrackPointExtension>
            <ns3:atemp>20.0</ns3:atemp>
          </ns3:TrackPointExtension>
        </extensions>
      </trkpt>
      <trkpt lat="42.59210930205881595611572265625" lon="20.10009817779064178466796875">
        <ele>1860</ele>
        <time>2026-06-15T09:20:12.000Z</time>
        <extensions>
          <ns3:TrackPointExtension>
            <ns3:atemp>20.0</ns3:atemp>
          </ns3:TrackPointExtension>
        </extensions>
      </trkpt>
      <trkpt lat="42.59210930205881595611572265625" lon="20.10009817779064178466796875">
        <ele>1860</ele>
        <time>2026-06-15T09:20:13.000Z</time>
        <extensions>
          <ns3:TrackPointExtension>
            <ns3:atemp>20.0</ns3:atemp>
          </ns3:TrackPointExtension>
        </extensions>
      </trkpt>
      <trkpt lat="42.59210930205881595611572265625" lon="20.10009817779064178466796875">
        <ele>1860</ele>
        <time>2026-06-15T09:20:14.000Z</time>
        <extensions>
          <ns3:TrackPointExtension>
            <ns3:atemp>20.0</ns3:atemp>
          </ns3:TrackPointExtension>
        </extensions>
      </trkpt>
      <trkpt lat="42.59210930205881595611572265625" lon="20.10009817779064178466796875">
        <ele>1860</ele>
        <time>2026-06-15T09:20:15.000Z</time>
        <extensions>
          <ns3:TrackPointExtension>
            <ns3:atemp>20.0</ns3:atemp>
          </ns3:TrackPointExtension>
        </extensions>
      </trkpt>
      <trkpt lat="42.59210930205881595611572265625" lon="20.10009817779064178466796875">
        <ele>1860</ele>
        <time>2026-06-15T09:20:16.000Z</time>
        <extensions>
          <ns3:TrackPointExtension>
            <ns3:atemp>20.0</ns3:atemp>
          </ns3:TrackPointExtension>
        </extensions>
      </trkpt>
      <trkpt lat="42.59210930205881595611572265625" lon="20.10009817779064178466796875">
        <ele>1860</ele>
        <time>2026-06-15T09:20:17.000Z</time>
        <extensions>
          <ns3:TrackPointExtension>
            <ns3:atemp>20.0</ns3:atemp>
          </ns3:TrackPointExtension>
        </extensions>
      </trkpt>
      <trkpt lat="42.59210930205881595611572265625" lon="20.10009817779064178466796875">
        <ele>1860</ele>
        <time>2026-06-15T09:20:18.000Z</time>
        <extensions>
          <ns3:TrackPointExtension>
            <ns3:atemp>20.0</ns3:atemp>
          </ns3:TrackPointExtension>
        </extensions>
      </trkpt>
      <trkpt lat="42.59210930205881595611572265625" lon="20.10009817779064178466796875">
        <ele>1860</ele>
        <time>2026-06-15T09:20:19.000Z</time>
        <extensions>
          <ns3:TrackPointExtension>
            <ns3:atemp>20.0</ns3:atemp>
          </ns3:TrackPointExtension>
        </extensions>
      </trkpt>
      <trkpt lat="42.59210930205881595611572265625" lon="20.10009817779064178466796875">
        <ele>1860</ele>
        <time>2026-06-15T09:20:20.000Z</time>
        <extensions>
          <ns3:TrackPointExtension>
            <ns3:atemp>20.0</ns3:atemp>
          </ns3:TrackPointExtension>
        </extensions>
      </trkpt>
      <trkpt lat="42.59210930205881595611572265625" lon="20.10009817779064178466796875">
        <ele>1860</ele>
        <time>2026-06-15T09:20:21.000Z</time>
        <extensions>
          <ns3:TrackPointExtension>
            <ns3:atemp>20.0</ns3:atemp>
          </ns3:TrackPointExtension>
        </extensions>
      </trkpt>
      <trkpt lat="42.59210930205881595611572265625" lon="20.10009817779064178466796875">
        <ele>1860</ele>
        <time>2026-06-15T09:20:22.000Z</time>
        <extensions>
          <ns3:TrackPointExtension>
            <ns3:atemp>20.0</ns3:atemp>
          </ns3:TrackPointExtension>
        </extensions>
      </trkpt>
      <trkpt lat="42.59210930205881595611572265625" lon="20.10009817779064178466796875">
        <ele>1860</ele>
        <time>2026-06-15T09:20:23.000Z</time>
        <extensions>
          <ns3:TrackPointExtension>
            <ns3:atemp>20.0</ns3:atemp>
          </ns3:TrackPointExtension>
        </extensions>
      </trkpt>
      <trkpt lat="42.59210930205881595611572265625" lon="20.10009817779064178466796875">
        <ele>1860</ele>
        <time>2026-06-15T09:20:24.000Z</time>
        <extensions>
          <ns3:TrackPointExtension>
            <ns3:atemp>20.0</ns3:atemp>
          </ns3:TrackPointExtension>
        </extensions>
      </trkpt>
      <trkpt lat="42.59210930205881595611572265625" lon="20.10009817779064178466796875">
        <ele>1860</ele>
        <time>2026-06-15T09:20:25.000Z</time>
        <extensions>
          <ns3:TrackPointExtension>
            <ns3:atemp>20.0</ns3:atemp>
          </ns3:TrackPointExtension>
        </extensions>
      </trkpt>
      <trkpt lat="42.59210930205881595611572265625" lon="20.10009817779064178466796875">
        <ele>1860</ele>
        <time>2026-06-15T09:20:26.000Z</time>
        <extensions>
          <ns3:TrackPointExtension>
            <ns3:atemp>20.0</ns3:atemp>
          </ns3:TrackPointExtension>
        </extensions>
      </trkpt>
      <trkpt lat="42.59210930205881595611572265625" lon="20.10009817779064178466796875">
        <ele>1860</ele>
        <time>2026-06-15T09:20:27.000Z</time>
        <extensions>
          <ns3:TrackPointExtension>
            <ns3:atemp>20.0</ns3:atemp>
          </ns3:TrackPointExtension>
        </extensions>
      </trkpt>
      <trkpt lat="42.59210930205881595611572265625" lon="20.10009817779064178466796875">
        <ele>1860</ele>
        <time>2026-06-15T09:20:28.000Z</time>
        <extensions>
          <ns3:TrackPointExtension>
            <ns3:atemp>20.0</ns3:atemp>
          </ns3:TrackPointExtension>
        </extensions>
      </trkpt>
      <trkpt lat="42.59210930205881595611572265625" lon="20.10009817779064178466796875">
        <ele>1860</ele>
        <time>2026-06-15T09:20:29.000Z</time>
        <extensions>
          <ns3:TrackPointExtension>
            <ns3:atemp>20.0</ns3:atemp>
          </ns3:TrackPointExtension>
        </extensions>
      </trkpt>
      <trkpt lat="42.59210930205881595611572265625" lon="20.10009817779064178466796875">
        <ele>1860</ele>
        <time>2026-06-15T09:20:30.000Z</time>
        <extensions>
          <ns3:TrackPointExtension>
            <ns3:atemp>20.0</ns3:atemp>
          </ns3:TrackPointExtension>
        </extensions>
      </trkpt>
      <trkpt lat="42.59210930205881595611572265625" lon="20.10009817779064178466796875">
        <ele>1860</ele>
        <time>2026-06-15T09:20:31.000Z</time>
        <extensions>
          <ns3:TrackPointExtension>
            <ns3:atemp>20.0</ns3:atemp>
          </ns3:TrackPointExtension>
        </extensions>
      </trkpt>
      <trkpt lat="42.59210930205881595611572265625" lon="20.10009817779064178466796875">
        <ele>1860</ele>
        <time>2026-06-15T09:20:32.000Z</time>
        <extensions>
          <ns3:TrackPointExtension>
            <ns3:atemp>20.0</ns3:atemp>
          </ns3:TrackPointExtension>
        </extensions>
      </trkpt>
      <trkpt lat="42.59210930205881595611572265625" lon="20.10009817779064178466796875">
        <ele>1860</ele>
        <time>2026-06-15T09:20:33.000Z</time>
        <extensions>
          <ns3:TrackPointExtension>
            <ns3:atemp>20.0</ns3:atemp>
          </ns3:TrackPointExtension>
        </extensions>
      </trkpt>
      <trkpt lat="42.59210930205881595611572265625" lon="20.10009817779064178466796875">
        <ele>1860</ele>
        <time>2026-06-15T09:20:34.000Z</time>
        <extensions>
          <ns3:TrackPointExtension>
            <ns3:atemp>20.0</ns3:atemp>
          </ns3:TrackPointExtension>
        </extensions>
      </trkpt>
      <trkpt lat="42.59210930205881595611572265625" lon="20.10009817779064178466796875">
        <ele>1860</ele>
        <time>2026-06-15T09:20:35.000Z</time>
        <extensions>
          <ns3:TrackPointExtension>
            <ns3:atemp>20.0</ns3:atemp>
          </ns3:TrackPointExtension>
        </extensions>
      </trkpt>
      <trkpt lat="42.59210930205881595611572265625" lon="20.10009817779064178466796875">
        <ele>1860</ele>
        <time>2026-06-15T09:20:36.000Z</time>
        <extensions>
          <ns3:TrackPointExtension>
            <ns3:atemp>20.0</ns3:atemp>
          </ns3:TrackPointExtension>
        </extensions>
      </trkpt>
      <trkpt lat="42.59210930205881595611572265625" lon="20.10009817779064178466796875">
        <ele>1860</ele>
        <time>2026-06-15T09:20:37.000Z</time>
        <extensions>
          <ns3:TrackPointExtension>
            <ns3:atemp>20.0</ns3:atemp>
          </ns3:TrackPointExtension>
        </extensions>
      </trkpt>
      <trkpt lat="42.59210930205881595611572265625" lon="20.10009817779064178466796875">
        <ele>1860</ele>
        <time>2026-06-15T09:20:38.000Z</time>
        <extensions>
          <ns3:TrackPointExtension>
            <ns3:atemp>20.0</ns3:atemp>
          </ns3:TrackPointExtension>
        </extensions>
      </trkpt>
      <trkpt lat="42.59210930205881595611572265625" lon="20.10009817779064178466796875">
        <ele>1860</ele>
        <time>2026-06-15T09:20:39.000Z</time>
        <extensions>
          <ns3:TrackPointExtension>
            <ns3:atemp>20.0</ns3:atemp>
          </ns3:TrackPointExtension>
        </extensions>
      </trkpt>
      <trkpt lat="42.59210930205881595611572265625" lon="20.10009817779064178466796875">
        <ele>1860</ele>
        <time>2026-06-15T09:20:40.000Z</time>
        <extensions>
          <ns3:TrackPointExtension>
            <ns3:atemp>20.0</ns3:atemp>
          </ns3:TrackPointExtension>
        </extensions>
      </trkpt>
      <trkpt lat="42.59210930205881595611572265625" lon="20.10009817779064178466796875">
        <ele>1860</ele>
        <time>2026-06-15T09:20:41.000Z</time>
        <extensions>
          <ns3:TrackPointExtension>
            <ns3:atemp>20.0</ns3:atemp>
          </ns3:TrackPointExtension>
        </extensions>
      </trkpt>
      <trkpt lat="42.59210930205881595611572265625" lon="20.10009817779064178466796875">
        <ele>1860</ele>
        <time>2026-06-15T09:20:42.000Z</time>
        <extensions>
          <ns3:TrackPointExtension>
            <ns3:atemp>20.0</ns3:atemp>
          </ns3:TrackPointExtension>
        </extensions>
      </trkpt>
      <trkpt lat="42.59210930205881595611572265625" lon="20.10009817779064178466796875">
        <ele>1860</ele>
        <time>2026-06-15T09:20:43.000Z</time>
        <extensions>
          <ns3:TrackPointExtension>
            <ns3:atemp>20.0</ns3:atemp>
          </ns3:TrackPointExtension>
        </extensions>
      </trkpt>
      <trkpt lat="42.59210930205881595611572265625" lon="20.10009817779064178466796875">
        <ele>1860</ele>
        <time>2026-06-15T09:20:44.000Z</time>
        <extensions>
          <ns3:TrackPointExtension>
            <ns3:atemp>20.0</ns3:atemp>
          </ns3:TrackPointExtension>
        </extensions>
      </trkpt>
      <trkpt lat="42.59210930205881595611572265625" lon="20.10009817779064178466796875">
        <ele>1860</ele>
        <time>2026-06-15T09:20:45.000Z</time>
        <extensions>
          <ns3:TrackPointExtension>
            <ns3:atemp>20.0</ns3:atemp>
          </ns3:TrackPointExtension>
        </extensions>
      </trkpt>
      <trkpt lat="42.59210930205881595611572265625" lon="20.10009817779064178466796875">
        <ele>1860</ele>
        <time>2026-06-15T09:20:46.000Z</time>
        <extensions>
          <ns3:TrackPointExtension>
            <ns3:atemp>20.0</ns3:atemp>
          </ns3:TrackPointExtension>
        </extensions>
      </trkpt>
      <trkpt lat="42.59210930205881595611572265625" lon="20.10009817779064178466796875">
        <ele>1860</ele>
        <time>2026-06-15T09:20:47.000Z</time>
        <extensions>
          <ns3:TrackPointExtension>
            <ns3:atemp>20.0</ns3:atemp>
          </ns3:TrackPointExtension>
        </extensions>
      </trkpt>
      <trkpt lat="42.59210930205881595611572265625" lon="20.10009817779064178466796875">
        <ele>1860</ele>
        <time>2026-06-15T09:20:48.000Z</time>
        <extensions>
          <ns3:TrackPointExtension>
            <ns3:atemp>20.0</ns3:atemp>
          </ns3:TrackPointExtension>
        </extensions>
      </trkpt>
      <trkpt lat="42.59210930205881595611572265625" lon="20.10009817779064178466796875">
        <ele>1860</ele>
        <time>2026-06-15T09:20:49.000Z</time>
        <extensions>
          <ns3:TrackPointExtension>
            <ns3:atemp>20.0</ns3:atemp>
          </ns3:TrackPointExtension>
        </extensions>
      </trkpt>
      <trkpt lat="42.59210930205881595611572265625" lon="20.10009817779064178466796875">
        <ele>1860</ele>
        <time>2026-06-15T09:20:50.000Z</time>
        <extensions>
          <ns3:TrackPointExtension>
            <ns3:atemp>20.0</ns3:atemp>
          </ns3:TrackPointExtension>
        </extensions>
      </trkpt>
      <trkpt lat="42.59210930205881595611572265625" lon="20.10009817779064178466796875">
        <ele>1860</ele>
        <time>2026-06-15T09:20:51.000Z</time>
        <extensions>
          <ns3:TrackPointExtension>
            <ns3:atemp>20.0</ns3:atemp>
          </ns3:TrackPointExtension>
        </extensions>
      </trkpt>
      <trkpt lat="42.59210930205881595611572265625" lon="20.10009817779064178466796875">
        <ele>1860</ele>
        <time>2026-06-15T09:20:52.000Z</time>
        <extensions>
          <ns3:TrackPointExtension>
            <ns3:atemp>20.0</ns3:atemp>
          </ns3:TrackPointExtension>
        </extensions>
      </trkpt>
      <trkpt lat="42.59210930205881595611572265625" lon="20.10009817779064178466796875">
        <ele>1860</ele>
        <time>2026-06-15T09:20:53.000Z</time>
        <extensions>
          <ns3:TrackPointExtension>
            <ns3:atemp>20.0</ns3:atemp>
          </ns3:TrackPointExtension>
        </extensions>
      </trkpt>
      <trkpt lat="42.59210930205881595611572265625" lon="20.10009817779064178466796875">
        <ele>1860</ele>
        <time>2026-06-15T09:20:54.000Z</time>
        <extensions>
          <ns3:TrackPointExtension>
            <ns3:atemp>20.0</ns3:atemp>
          </ns3:TrackPointExtension>
        </extensions>
      </trkpt>
      <trkpt lat="42.59210930205881595611572265625" lon="20.10009817779064178466796875">
        <ele>1860</ele>
        <time>2026-06-15T09:20:55.000Z</time>
        <extensions>
          <ns3:TrackPointExtension>
            <ns3:atemp>20.0</ns3:atemp>
          </ns3:TrackPointExtension>
        </extensions>
      </trkpt>
      <trkpt lat="42.59210930205881595611572265625" lon="20.10009817779064178466796875">
        <ele>1860</ele>
        <time>2026-06-15T09:20:56.000Z</time>
        <extensions>
          <ns3:TrackPointExtension>
            <ns3:atemp>20.0</ns3:atemp>
          </ns3:TrackPointExtension>
        </extensions>
      </trkpt>
      <trkpt lat="42.59210930205881595611572265625" lon="20.10009817779064178466796875">
        <ele>1860</ele>
        <time>2026-06-15T09:20:57.000Z</time>
        <extensions>
          <ns3:TrackPointExtension>
            <ns3:atemp>20.0</ns3:atemp>
          </ns3:TrackPointExtension>
        </extensions>
      </trkpt>
      <trkpt lat="42.5921113975346088409423828125" lon="20.1000973396003246307373046875">
        <ele>1860</ele>
        <time>2026-06-15T09:20:58.000Z</time>
        <extensions>
          <ns3:TrackPointExtension>
            <ns3:atemp>20.0</ns3:atemp>
          </ns3:TrackPointExtension>
        </extensions>
      </trkpt>
      <trkpt lat="42.5921127386391162872314453125" lon="20.10010831989347934722900390625">
        <ele>1860</ele>
        <time>2026-06-15T09:20:59.000Z</time>
        <extensions>
          <ns3:TrackPointExtension>
            <ns3:atemp>20.0</ns3:atemp>
          </ns3:TrackPointExtension>
        </extensions>
      </trkpt>
      <trkpt lat="42.59210930205881595611572265625" lon="20.10009817779064178466796875">
        <ele>1860</ele>
        <time>2026-06-15T09:21:00.000Z</time>
        <extensions>
          <ns3:TrackPointExtension>
            <ns3:atemp>20.0</ns3:atemp>
          </ns3:TrackPointExtension>
        </extensions>
      </trkpt>
      <trkpt lat="42.59210930205881595611572265625" lon="20.10009817779064178466796875">
        <ele>1860</ele>
        <time>2026-06-15T09:21:01.000Z</time>
        <extensions>
          <ns3:TrackPointExtension>
            <ns3:atemp>20.0</ns3:atemp>
          </ns3:TrackPointExtension>
        </extensions>
      </trkpt>
      <trkpt lat="42.59210930205881595611572265625" lon="20.10009817779064178466796875">
        <ele>1860</ele>
        <time>2026-06-15T09:21:02.000Z</time>
        <extensions>
          <ns3:TrackPointExtension>
            <ns3:atemp>20.0</ns3:atemp>
          </ns3:TrackPointExtension>
        </extensions>
      </trkpt>
      <trkpt lat="42.59210930205881595611572265625" lon="20.10009817779064178466796875">
        <ele>1860</ele>
        <time>2026-06-15T09:21:03.000Z</time>
        <extensions>
          <ns3:TrackPointExtension>
            <ns3:atemp>20.0</ns3:atemp>
          </ns3:TrackPointExtension>
        </extensions>
      </trkpt>
      <trkpt lat="42.59210930205881595611572265625" lon="20.10009817779064178466796875">
        <ele>1860</ele>
        <time>2026-06-15T09:21:04.000Z</time>
        <extensions>
          <ns3:TrackPointExtension>
            <ns3:atemp>20.0</ns3:atemp>
          </ns3:TrackPointExtension>
        </extensions>
      </trkpt>
      <trkpt lat="42.59210930205881595611572265625" lon="20.10009817779064178466796875">
        <ele>1860</ele>
        <time>2026-06-15T09:21:05.000Z</time>
        <extensions>
          <ns3:TrackPointExtension>
            <ns3:atemp>20.0</ns3:atemp>
          </ns3:TrackPointExtension>
        </extensions>
      </trkpt>
      <trkpt lat="42.59210930205881595611572265625" lon="20.10009817779064178466796875">
        <ele>1860</ele>
        <time>2026-06-15T09:21:06.000Z</time>
        <extensions>
          <ns3:TrackPointExtension>
            <ns3:atemp>20.0</ns3:atemp>
          </ns3:TrackPointExtension>
        </extensions>
      </trkpt>
      <trkpt lat="42.59210930205881595611572265625" lon="20.10009817779064178466796875">
        <ele>1860</ele>
        <time>2026-06-15T09:21:07.000Z</time>
        <extensions>
          <ns3:TrackPointExtension>
            <ns3:atemp>20.0</ns3:atemp>
          </ns3:TrackPointExtension>
        </extensions>
      </trkpt>
      <trkpt lat="42.59210930205881595611572265625" lon="20.10009817779064178466796875">
        <ele>1860</ele>
        <time>2026-06-15T09:21:08.000Z</time>
        <extensions>
          <ns3:TrackPointExtension>
            <ns3:atemp>20.0</ns3:atemp>
          </ns3:TrackPointExtension>
        </extensions>
      </trkpt>
      <trkpt lat="42.59210930205881595611572265625" lon="20.10009817779064178466796875">
        <ele>1860</ele>
        <time>2026-06-15T09:21:09.000Z</time>
        <extensions>
          <ns3:TrackPointExtension>
            <ns3:atemp>20.0</ns3:atemp>
          </ns3:TrackPointExtension>
        </extensions>
      </trkpt>
      <trkpt lat="42.59210930205881595611572265625" lon="20.10009817779064178466796875">
        <ele>1860</ele>
        <time>2026-06-15T09:21:10.000Z</time>
        <extensions>
          <ns3:TrackPointExtension>
            <ns3:atemp>20.0</ns3:atemp>
          </ns3:TrackPointExtension>
        </extensions>
      </trkpt>
      <trkpt lat="42.59210930205881595611572265625" lon="20.10009817779064178466796875">
        <ele>1860</ele>
        <time>2026-06-15T09:21:11.000Z</time>
        <extensions>
          <ns3:TrackPointExtension>
            <ns3:atemp>20.0</ns3:atemp>
          </ns3:TrackPointExtension>
        </extensions>
      </trkpt>
      <trkpt lat="42.59210930205881595611572265625" lon="20.10009817779064178466796875">
        <ele>1860</ele>
        <time>2026-06-15T09:21:12.000Z</time>
        <extensions>
          <ns3:TrackPointExtension>
            <ns3:atemp>20.0</ns3:atemp>
          </ns3:TrackPointExtension>
        </extensions>
      </trkpt>
      <trkpt lat="42.59210930205881595611572265625" lon="20.10009817779064178466796875">
        <ele>1860</ele>
        <time>2026-06-15T09:21:13.000Z</time>
        <extensions>
          <ns3:TrackPointExtension>
            <ns3:atemp>20.0</ns3:atemp>
          </ns3:TrackPointExtension>
        </extensions>
      </trkpt>
      <trkpt lat="42.59210930205881595611572265625" lon="20.10009817779064178466796875">
        <ele>1860</ele>
        <time>2026-06-15T09:21:14.000Z</time>
        <extensions>
          <ns3:TrackPointExtension>
            <ns3:atemp>20.0</ns3:atemp>
          </ns3:TrackPointExtension>
        </extensions>
      </trkpt>
      <trkpt lat="42.59210930205881595611572265625" lon="20.10009817779064178466796875">
        <ele>1860</ele>
        <time>2026-06-15T09:21:15.000Z</time>
        <extensions>
          <ns3:TrackPointExtension>
            <ns3:atemp>20.0</ns3:atemp>
          </ns3:TrackPointExtension>
        </extensions>
      </trkpt>
      <trkpt lat="42.59210930205881595611572265625" lon="20.10009817779064178466796875">
        <ele>1860</ele>
        <time>2026-06-15T09:21:16.000Z</time>
        <extensions>
          <ns3:TrackPointExtension>
            <ns3:atemp>20.0</ns3:atemp>
          </ns3:TrackPointExtension>
        </extensions>
      </trkpt>
      <trkpt lat="42.59210930205881595611572265625" lon="20.10009817779064178466796875">
        <ele>1860</ele>
        <time>2026-06-15T09:21:17.000Z</time>
        <extensions>
          <ns3:TrackPointExtension>
            <ns3:atemp>20.0</ns3:atemp>
          </ns3:TrackPointExtension>
        </extensions>
      </trkpt>
      <trkpt lat="42.59210930205881595611572265625" lon="20.10009817779064178466796875">
        <ele>1860</ele>
        <time>2026-06-15T09:21:18.000Z</time>
        <extensions>
          <ns3:TrackPointExtension>
            <ns3:atemp>20.0</ns3:atemp>
          </ns3:TrackPointExtension>
        </extensions>
      </trkpt>
      <trkpt lat="42.59210930205881595611572265625" lon="20.10009817779064178466796875">
        <ele>1860</ele>
        <time>2026-06-15T09:21:19.000Z</time>
        <extensions>
          <ns3:TrackPointExtension>
            <ns3:atemp>20.0</ns3:atemp>
          </ns3:TrackPointExtension>
        </extensions>
      </trkpt>
      <trkpt lat="42.59210930205881595611572265625" lon="20.10009817779064178466796875">
        <ele>1860</ele>
        <time>2026-06-15T09:21:20.000Z</time>
        <extensions>
          <ns3:TrackPointExtension>
            <ns3:atemp>20.0</ns3:atemp>
          </ns3:TrackPointExtension>
        </extensions>
      </trkpt>
      <trkpt lat="42.59210930205881595611572265625" lon="20.10009817779064178466796875">
        <ele>1860</ele>
        <time>2026-06-15T09:21:21.000Z</time>
        <extensions>
          <ns3:TrackPointExtension>
            <ns3:atemp>20.0</ns3:atemp>
          </ns3:TrackPointExtension>
        </extensions>
      </trkpt>
      <trkpt lat="42.59210930205881595611572265625" lon="20.10009817779064178466796875">
        <ele>1860</ele>
        <time>2026-06-15T09:21:22.000Z</time>
        <extensions>
          <ns3:TrackPointExtension>
            <ns3:atemp>20.0</ns3:atemp>
          </ns3:TrackPointExtension>
        </extensions>
      </trkpt>
      <trkpt lat="42.59210930205881595611572265625" lon="20.10009817779064178466796875">
        <ele>1860</ele>
        <time>2026-06-15T09:21:23.000Z</time>
        <extensions>
          <ns3:TrackPointExtension>
            <ns3:atemp>20.0</ns3:atemp>
          </ns3:TrackPointExtension>
        </extensions>
      </trkpt>
      <trkpt lat="42.59210930205881595611572265625" lon="20.10009817779064178466796875">
        <ele>1860</ele>
        <time>2026-06-15T09:21:24.000Z</time>
        <extensions>
          <ns3:TrackPointExtension>
            <ns3:atemp>20.0</ns3:atemp>
          </ns3:TrackPointExtension>
        </extensions>
      </trkpt>
      <trkpt lat="42.59210930205881595611572265625" lon="20.10009817779064178466796875">
        <ele>1860</ele>
        <time>2026-06-15T09:21:25.000Z</time>
        <extensions>
          <ns3:TrackPointExtension>
            <ns3:atemp>20.0</ns3:atemp>
          </ns3:TrackPointExtension>
        </extensions>
      </trkpt>
      <trkpt lat="42.59210930205881595611572265625" lon="20.10009817779064178466796875">
        <ele>1860</ele>
        <time>2026-06-15T09:21:26.000Z</time>
        <extensions>
          <ns3:TrackPointExtension>
            <ns3:atemp>20.0</ns3:atemp>
          </ns3:TrackPointExtension>
        </extensions>
      </trkpt>
      <trkpt lat="42.5921152532100677490234375" lon="20.10010479949414730072021484375">
        <ele>1860</ele>
        <time>2026-06-15T09:21:27.000Z</time>
        <extensions>
          <ns3:TrackPointExtension>
            <ns3:atemp>20.0</ns3:atemp>
          </ns3:TrackPointExtension>
        </extensions>
      </trkpt>
      <trkpt lat="42.59210930205881595611572265625" lon="20.10009817779064178466796875">
        <ele>1860</ele>
        <time>2026-06-15T09:21:28.000Z</time>
        <extensions>
          <ns3:TrackPointExtension>
            <ns3:atemp>20.0</ns3:atemp>
          </ns3:TrackPointExtension>
        </extensions>
      </trkpt>
      <trkpt lat="42.59212153963744640350341796875" lon="20.1001040451228618621826171875">
        <ele>1860</ele>
        <time>2026-06-15T09:21:29.000Z</time>
        <extensions>
          <ns3:TrackPointExtension>
            <ns3:atemp>20.0</ns3:atemp>
          </ns3:TrackPointExtension>
        </extensions>
      </trkpt>
      <trkpt lat="42.59212036617100238800048828125" lon="20.1000975072383880615234375">
        <ele>1860</ele>
        <time>2026-06-15T09:21:30.000Z</time>
        <extensions>
          <ns3:TrackPointExtension>
            <ns3:atemp>20.0</ns3:atemp>
          </ns3:TrackPointExtension>
        </extensions>
      </trkpt>
      <trkpt lat="42.592115588486194610595703125" lon="20.1000829227268695831298828125">
        <ele>1860</ele>
        <time>2026-06-15T09:21:31.000Z</time>
        <extensions>
          <ns3:TrackPointExtension>
            <ns3:atemp>20.0</ns3:atemp>
          </ns3:TrackPointExtension>
        </extensions>
      </trkpt>
      <trkpt lat="42.5921080447733402252197265625" lon="20.10006523691117763519287109375">
        <ele>1860.199951171875</ele>
        <time>2026-06-15T09:21:32.000Z</time>
        <extensions>
          <ns3:TrackPointExtension>
            <ns3:atemp>20.0</ns3:atemp>
          </ns3:TrackPointExtension>
        </extensions>
      </trkpt>
      <trkpt lat="42.5920996628701686859130859375" lon="20.10003992356359958648681640625">
        <ele>1860.199951171875</ele>
        <time>2026-06-15T09:21:33.000Z</time>
        <extensions>
          <ns3:TrackPointExtension>
            <ns3:atemp>20.0</ns3:atemp>
          </ns3:TrackPointExtension>
        </extensions>
      </trkpt>
      <trkpt lat="42.5920939631760120391845703125" lon="20.1000138558447360992431640625">
        <ele>1860</ele>
        <time>2026-06-15T09:21:34.000Z</time>
        <extensions>
          <ns3:TrackPointExtension>
            <ns3:atemp>20.0</ns3:atemp>
          </ns3:TrackPointExtension>
        </extensions>
      </trkpt>
      <trkpt lat="42.59208197705447673797607421875" lon="20.09998259134590625762939453125">
        <ele>1860</ele>
        <time>2026-06-15T09:21:35.000Z</time>
        <extensions>
          <ns3:TrackPointExtension>
            <ns3:atemp>20.0</ns3:atemp>
          </ns3:TrackPointExtension>
        </extensions>
      </trkpt>
      <trkpt lat="42.59207074530422687530517578125" lon="20.09995467960834503173828125">
        <ele>1860</ele>
        <time>2026-06-15T09:21:36.000Z</time>
        <extensions>
          <ns3:TrackPointExtension>
            <ns3:atemp>20.0</ns3:atemp>
          </ns3:TrackPointExtension>
        </extensions>
      </trkpt>
      <trkpt lat="42.59206186048686504364013671875" lon="20.09992509149014949798583984375">
        <ele>1860.199951171875</ele>
        <time>2026-06-15T09:21:37.000Z</time>
        <extensions>
          <ns3:TrackPointExtension>
            <ns3:atemp>20.0</ns3:atemp>
          </ns3:TrackPointExtension>
        </extensions>
      </trkpt>
      <trkpt lat="42.59206051938235759735107421875" lon="20.09989625774323940277099609375">
        <ele>1860.199951171875</ele>
        <time>2026-06-15T09:21:38.000Z</time>
        <extensions>
          <ns3:TrackPointExtension>
            <ns3:atemp>20.0</ns3:atemp>
          </ns3:TrackPointExtension>
        </extensions>
      </trkpt>
      <trkpt lat="42.5920694880187511444091796875" lon="20.099866501986980438232421875">
        <ele>1860.4000244140625</ele>
        <time>2026-06-15T09:21:39.000Z</time>
        <extensions>
          <ns3:TrackPointExtension>
            <ns3:atemp>20.0</ns3:atemp>
          </ns3:TrackPointExtension>
        </extensions>
      </trkpt>
      <trkpt lat="42.59207996539771556854248046875" lon="20.0998401828110218048095703125">
        <ele>1860.5999755859375</ele>
        <time>2026-06-15T09:21:40.000Z</time>
        <extensions>
          <ns3:TrackPointExtension>
            <ns3:atemp>20.0</ns3:atemp>
          </ns3:TrackPointExtension>
        </extensions>
      </trkpt>
      <trkpt lat="42.5920949690043926239013671875" lon="20.09982216171920299530029296875">
        <ele>1861</ele>
        <time>2026-06-15T09:21:41.000Z</time>
        <extensions>
          <ns3:TrackPointExtension>
            <ns3:atemp>20.0</ns3:atemp>
          </ns3:TrackPointExtension>
        </extensions>
      </trkpt>
      <trkpt lat="42.59211282245814800262451171875" lon="20.0998116843402385711669921875">
        <ele>1861.199951171875</ele>
        <time>2026-06-15T09:21:42.000Z</time>
        <extensions>
          <ns3:TrackPointExtension>
            <ns3:atemp>20.0</ns3:atemp>
          </ns3:TrackPointExtension>
        </extensions>
      </trkpt>
      <trkpt lat="42.5921365432441234588623046875" lon="20.099806487560272216796875">
        <ele>1861.4000244140625</ele>
        <time>2026-06-15T09:21:43.000Z</time>
        <extensions>
          <ns3:TrackPointExtension>
            <ns3:atemp>20.0</ns3:atemp>
          </ns3:TrackPointExtension>
        </extensions>
      </trkpt>
      <trkpt lat="42.5921603478491306304931640625" lon="20.09979601018130779266357421875">
        <ele>1861.4000244140625</ele>
        <time>2026-06-15T09:21:44.000Z</time>
        <extensions>
          <ns3:TrackPointExtension>
            <ns3:atemp>20.0</ns3:atemp>
          </ns3:TrackPointExtension>
        </extensions>
      </trkpt>
      <trkpt lat="42.59218624792993068695068359375" lon="20.09979466907680034637451171875">
        <ele>1861.4000244140625</ele>
        <time>2026-06-15T09:21:45.000Z</time>
        <extensions>
          <ns3:TrackPointExtension>
            <ns3:atemp>20.0</ns3:atemp>
          </ns3:TrackPointExtension>
        </extensions>
      </trkpt>
      <trkpt lat="42.59220871143043041229248046875" lon="20.099796094000339508056640625">
        <ele>1861.4000244140625</ele>
        <time>2026-06-15T09:21:46.000Z</time>
        <extensions>
          <ns3:TrackPointExtension>
            <ns3:atemp>20.0</ns3:atemp>
          </ns3:TrackPointExtension>
        </extensions>
      </trkpt>
      <trkpt lat="42.59223368950188159942626953125" lon="20.099790059030055999755859375">
        <ele>1861.199951171875</ele>
        <time>2026-06-15T09:21:47.000Z</time>
        <extensions>
          <ns3:TrackPointExtension>
            <ns3:atemp>20.0</ns3:atemp>
          </ns3:TrackPointExtension>
        </extensions>
      </trkpt>
      <trkpt lat="42.59225514717400074005126953125" lon="20.09977270849049091339111328125">
        <ele>1861.199951171875</ele>
        <time>2026-06-15T09:21:48.000Z</time>
        <extensions>
          <ns3:TrackPointExtension>
            <ns3:atemp>20.0</ns3:atemp>
          </ns3:TrackPointExtension>
        </extensions>
      </trkpt>
      <trkpt lat="42.592260427772998809814453125" lon="20.09975208900868892669677734375">
        <ele>1861.4000244140625</ele>
        <time>2026-06-15T09:21:49.000Z</time>
        <extensions>
          <ns3:TrackPointExtension>
            <ns3:atemp>20.0</ns3:atemp>
          </ns3:TrackPointExtension>
        </extensions>
      </trkpt>
      <trkpt lat="42.5922547280788421630859375" lon="20.09973742067813873291015625">
        <ele>1861.4000244140625</ele>
        <time>2026-06-15T09:21:50.000Z</time>
        <extensions>
          <ns3:TrackPointExtension>
            <ns3:atemp>20.0</ns3:atemp>
          </ns3:TrackPointExtension>
        </extensions>
      </trkpt>
      <trkpt lat="42.5922465138137340545654296875" lon="20.09973465465009212493896484375">
        <ele>1861.5999755859375</ele>
        <time>2026-06-15T09:21:51.000Z</time>
        <extensions>
          <ns3:TrackPointExtension>
            <ns3:atemp>20.0</ns3:atemp>
          </ns3:TrackPointExtension>
        </extensions>
      </trkpt>
      <trkpt lat="42.59223318658769130706787109375" lon="20.09973163716495037078857421875">
        <ele>1861.5999755859375</ele>
        <time>2026-06-15T09:21:52.000Z</time>
        <extensions>
          <ns3:TrackPointExtension>
            <ns3:atemp>20.0</ns3:atemp>
          </ns3:TrackPointExtension>
        </extensions>
      </trkpt>
      <trkpt lat="42.59221625514328479766845703125" lon="20.09973683394491672515869140625">
        <ele>1861.5999755859375</ele>
        <time>2026-06-15T09:21:53.000Z</time>
        <extensions>
          <ns3:TrackPointExtension>
            <ns3:atemp>20.0</ns3:atemp>
          </ns3:TrackPointExtension>
        </extensions>
      </trkpt>
      <trkpt lat="42.59220737032592296600341796875" lon="20.0997442938387393951416015625">
        <ele>1861.4000244140625</ele>
        <time>2026-06-15T09:21:54.000Z</time>
        <extensions>
          <ns3:TrackPointExtension>
            <ns3:atemp>20.0</ns3:atemp>
          </ns3:TrackPointExtension>
        </extensions>
      </trkpt>
      <trkpt lat="42.59219949133694171905517578125" lon="20.099749155342578887939453125">
        <ele>1861.199951171875</ele>
        <time>2026-06-15T09:21:55.000Z</time>
        <extensions>
          <ns3:TrackPointExtension>
            <ns3:atemp>20.0</ns3:atemp>
          </ns3:TrackPointExtension>
        </extensions>
      </trkpt>
      <trkpt lat="42.59219714440405368804931640625" lon="20.09974949061870574951171875">
        <ele>1861.199951171875</ele>
        <time>2026-06-15T09:21:56.000Z</time>
        <extensions>
          <ns3:TrackPointExtension>
            <ns3:atemp>20.0</ns3:atemp>
          </ns3:TrackPointExtension>
        </extensions>
      </trkpt>
      <trkpt lat="42.59220234118402004241943359375" lon="20.0997486524283885955810546875">
        <ele>1861.199951171875</ele>
        <time>2026-06-15T09:21:57.000Z</time>
        <extensions>
          <ns3:TrackPointExtension>
            <ns3:atemp>20.0</ns3:atemp>
          </ns3:TrackPointExtension>
        </extensions>
      </trkpt>
      <trkpt lat="42.59220183826982975006103515625" lon="20.099758207798004150390625">
        <ele>1861.199951171875</ele>
        <time>2026-06-15T09:21:58.000Z</time>
        <extensions>
          <ns3:TrackPointExtension>
            <ns3:atemp>20.0</ns3:atemp>
          </ns3:TrackPointExtension>
        </extensions>
      </trkpt>
      <trkpt lat="42.59219379164278507232666015625" lon="20.09976214729249477386474609375">
        <ele>1861.4000244140625</ele>
        <time>2026-06-15T09:21:59.000Z</time>
        <extensions>
          <ns3:TrackPointExtension>
            <ns3:atemp>20.0</ns3:atemp>
          </ns3:TrackPointExtension>
        </extensions>
      </trkpt>
      <trkpt lat="42.59217216633260250091552734375" lon="20.099769942462444305419921875">
        <ele>1861.199951171875</ele>
        <time>2026-06-15T09:22:00.000Z</time>
        <extensions>
          <ns3:TrackPointExtension>
            <ns3:atemp>20.0</ns3:atemp>
          </ns3:TrackPointExtension>
        </extensions>
      </trkpt>
      <trkpt lat="42.59213796816766262054443359375" lon="20.09978578425943851470947265625">
        <ele>1861.199951171875</ele>
        <time>2026-06-15T09:22:01.000Z</time>
        <extensions>
          <ns3:TrackPointExtension>
            <ns3:atemp>20.0</ns3:atemp>
          </ns3:TrackPointExtension>
        </extensions>
      </trkpt>
      <trkpt lat="42.59210117161273956298828125" lon="20.09980581700801849365234375">
        <ele>1861</ele>
        <time>2026-06-15T09:22:02.000Z</time>
        <extensions>
          <ns3:TrackPointExtension>
            <ns3:atemp>20.0</ns3:atemp>
          </ns3:TrackPointExtension>
        </extensions>
      </trkpt>
      <trkpt lat="42.5920731760561466217041015625" lon="20.09983875788748264312744140625">
        <ele>1860.800048828125</ele>
        <time>2026-06-15T09:22:03.000Z</time>
        <extensions>
          <ns3:TrackPointExtension>
            <ns3:atemp>20.0</ns3:atemp>
          </ns3:TrackPointExtension>
        </extensions>
      </trkpt>
      <trkpt lat="42.5920604355633258819580078125" lon="20.09987848810851573944091796875">
        <ele>1860.5999755859375</ele>
        <time>2026-06-15T09:22:04.000Z</time>
        <extensions>
          <ns3:TrackPointExtension>
            <ns3:atemp>20.0</ns3:atemp>
          </ns3:TrackPointExtension>
        </extensions>
      </trkpt>
      <trkpt lat="42.59206169284880161285400390625" lon="20.099916793406009674072265625">
        <ele>1860.4000244140625</ele>
        <time>2026-06-15T09:22:05.000Z</time>
        <extensions>
          <ns3:TrackPointExtension>
            <ns3:atemp>20.0</ns3:atemp>
          </ns3:TrackPointExtension>
        </extensions>
      </trkpt>
      <trkpt lat="42.592070661485195159912109375" lon="20.09995040483772754669189453125">
        <ele>1860.4000244140625</ele>
        <time>2026-06-15T09:22:06.000Z</time>
        <extensions>
          <ns3:TrackPointExtension>
            <ns3:atemp>20.0</ns3:atemp>
          </ns3:TrackPointExtension>
        </extensions>
      </trkpt>
      <trkpt lat="42.5920805521309375762939453125" lon="20.09999231435358524322509765625">
        <ele>1860.199951171875</ele>
        <time>2026-06-15T09:22:07.000Z</time>
        <extensions>
          <ns3:TrackPointExtension>
            <ns3:atemp>20.0</ns3:atemp>
          </ns3:TrackPointExtension>
        </extensions>
      </trkpt>
      <trkpt lat="42.59209153242409229278564453125" lon="20.1000400073826313018798828125">
        <ele>1860.199951171875</ele>
        <time>2026-06-15T09:22:08.000Z</time>
        <extensions>
          <ns3:TrackPointExtension>
            <ns3:atemp>20.0</ns3:atemp>
          </ns3:TrackPointExtension>
        </extensions>
      </trkpt>
      <trkpt lat="42.59209924377501010894775390625" lon="20.10009222663938999176025390625">
        <ele>1859.800048828125</ele>
        <time>2026-06-15T09:22:09.000Z</time>
        <extensions>
          <ns3:TrackPointExtension>
            <ns3:atemp>20.0</ns3:atemp>
          </ns3:TrackPointExtension>
        </extensions>
      </trkpt>
      <trkpt lat="42.59209991432726383209228515625" lon="20.10013866238296031951904296875">
        <ele>1859.4000244140625</ele>
        <time>2026-06-15T09:22:10.000Z</time>
        <extensions>
          <ns3:TrackPointExtension>
            <ns3:atemp>20.0</ns3:atemp>
          </ns3:TrackPointExtension>
        </extensions>
      </trkpt>
      <trkpt lat="42.5920999981462955474853515625" lon="20.1001700945198535919189453125">
        <ele>1859</ele>
        <time>2026-06-15T09:22:11.000Z</time>
        <extensions>
          <ns3:TrackPointExtension>
            <ns3:atemp>20.0</ns3:atemp>
          </ns3:TrackPointExtension>
        </extensions>
      </trkpt>
      <trkpt lat="42.5921018421649932861328125" lon="20.10018928907811641693115234375">
        <ele>1858.800048828125</ele>
        <time>2026-06-15T09:22:12.000Z</time>
        <extensions>
          <ns3:TrackPointExtension>
            <ns3:atemp>20.0</ns3:atemp>
          </ns3:TrackPointExtension>
        </extensions>
      </trkpt>
      <trkpt lat="42.59210645221173763275146484375" lon="20.10020437650382518768310546875">
        <ele>1858.5999755859375</ele>
        <time>2026-06-15T09:22:13.000Z</time>
        <extensions>
          <ns3:TrackPointExtension>
            <ns3:atemp>20.0</ns3:atemp>
          </ns3:TrackPointExtension>
        </extensions>
      </trkpt>
      <trkpt lat="42.59210963733494281768798828125" lon="20.1002103276550769805908203125">
        <ele>1858.4000244140625</ele>
        <time>2026-06-15T09:22:14.000Z</time>
        <extensions>
          <ns3:TrackPointExtension>
            <ns3:atemp>20.0</ns3:atemp>
          </ns3:TrackPointExtension>
        </extensions>
      </trkpt>
      <trkpt lat="42.59211634285748004913330078125" lon="20.1002063043415546417236328125">
        <ele>1858.4000244140625</ele>
        <time>2026-06-15T09:22:15.000Z</time>
        <extensions>
          <ns3:TrackPointExtension>
            <ns3:atemp>20.0</ns3:atemp>
          </ns3:TrackPointExtension>
        </extensions>
      </trkpt>
      <trkpt lat="42.592115588486194610595703125" lon="20.1001975871622562408447265625">
        <ele>1858.4000244140625</ele>
        <time>2026-06-15T09:22:16.000Z</time>
        <extensions>
          <ns3:TrackPointExtension>
            <ns3:atemp>20.0</ns3:atemp>
          </ns3:TrackPointExtension>
        </extensions>
      </trkpt>
      <trkpt lat="42.59211366064846515655517578125" lon="20.10019632987678050994873046875">
        <ele>1858.4000244140625</ele>
        <time>2026-06-15T09:22:17.000Z</time>
        <extensions>
          <ns3:TrackPointExtension>
            <ns3:atemp>20.0</ns3:atemp>
          </ns3:TrackPointExtension>
        </extensions>
      </trkpt>
      <trkpt lat="42.59211366064846515655517578125" lon="20.10019632987678050994873046875">
        <ele>1858.5999755859375</ele>
        <time>2026-06-15T09:22:18.000Z</time>
        <extensions>
          <ns3:TrackPointExtension>
            <ns3:atemp>20.0</ns3:atemp>
          </ns3:TrackPointExtension>
        </extensions>
      </trkpt>
      <trkpt lat="42.59211366064846515655517578125" lon="20.10019632987678050994873046875">
        <ele>1858.5999755859375</ele>
        <time>2026-06-15T09:22:19.000Z</time>
        <extensions>
          <ns3:TrackPointExtension>
            <ns3:atemp>20.0</ns3:atemp>
          </ns3:TrackPointExtension>
        </extensions>
      </trkpt>
      <trkpt lat="42.59211366064846515655517578125" lon="20.10019632987678050994873046875">
        <ele>1858.5999755859375</ele>
        <time>2026-06-15T09:22:20.000Z</time>
        <extensions>
          <ns3:TrackPointExtension>
            <ns3:atemp>20.0</ns3:atemp>
          </ns3:TrackPointExtension>
        </extensions>
      </trkpt>
      <trkpt lat="42.59211366064846515655517578125" lon="20.10019632987678050994873046875">
        <ele>1858.5999755859375</ele>
        <time>2026-06-15T09:22:21.000Z</time>
        <extensions>
          <ns3:TrackPointExtension>
            <ns3:atemp>20.0</ns3:atemp>
          </ns3:TrackPointExtension>
        </extensions>
      </trkpt>
      <trkpt lat="42.59211366064846515655517578125" lon="20.10019632987678050994873046875">
        <ele>1858.4000244140625</ele>
        <time>2026-06-15T09:22:22.000Z</time>
        <extensions>
          <ns3:TrackPointExtension>
            <ns3:atemp>20.0</ns3:atemp>
          </ns3:TrackPointExtension>
        </extensions>
      </trkpt>
      <trkpt lat="42.59211366064846515655517578125" lon="20.10019632987678050994873046875">
        <ele>1858.4000244140625</ele>
        <time>2026-06-15T09:22:23.000Z</time>
        <extensions>
          <ns3:TrackPointExtension>
            <ns3:atemp>20.0</ns3:atemp>
          </ns3:TrackPointExtension>
        </extensions>
      </trkpt>
      <trkpt lat="42.59211366064846515655517578125" lon="20.10019632987678050994873046875">
        <ele>1858.4000244140625</ele>
        <time>2026-06-15T09:22:24.000Z</time>
        <extensions>
          <ns3:TrackPointExtension>
            <ns3:atemp>20.0</ns3:atemp>
          </ns3:TrackPointExtension>
        </extensions>
      </trkpt>
      <trkpt lat="42.59211366064846515655517578125" lon="20.10019632987678050994873046875">
        <ele>1858.4000244140625</ele>
        <time>2026-06-15T09:22:25.000Z</time>
        <extensions>
          <ns3:TrackPointExtension>
            <ns3:atemp>20.0</ns3:atemp>
          </ns3:TrackPointExtension>
        </extensions>
      </trkpt>
      <trkpt lat="42.59211366064846515655517578125" lon="20.10019632987678050994873046875">
        <ele>1858.4000244140625</ele>
        <time>2026-06-15T09:22:26.000Z</time>
        <extensions>
          <ns3:TrackPointExtension>
            <ns3:atemp>20.0</ns3:atemp>
          </ns3:TrackPointExtension>
        </extensions>
      </trkpt>
      <trkpt lat="42.59211366064846515655517578125" lon="20.10019632987678050994873046875">
        <ele>1858.4000244140625</ele>
        <time>2026-06-15T09:22:27.000Z</time>
        <extensions>
          <ns3:TrackPointExtension>
            <ns3:atemp>20.0</ns3:atemp>
          </ns3:TrackPointExtension>
        </extensions>
      </trkpt>
      <trkpt lat="42.59211366064846515655517578125" lon="20.10019632987678050994873046875">
        <ele>1858.4000244140625</ele>
        <time>2026-06-15T09:22:28.000Z</time>
        <extensions>
          <ns3:TrackPointExtension>
            <ns3:atemp>20.0</ns3:atemp>
          </ns3:TrackPointExtension>
        </extensions>
      </trkpt>
      <trkpt lat="42.59211366064846515655517578125" lon="20.10019632987678050994873046875">
        <ele>1858.4000244140625</ele>
        <time>2026-06-15T09:22:29.000Z</time>
        <extensions>
          <ns3:TrackPointExtension>
            <ns3:atemp>20.0</ns3:atemp>
          </ns3:TrackPointExtension>
        </extensions>
      </trkpt>
      <trkpt lat="42.59211366064846515655517578125" lon="20.10019632987678050994873046875">
        <ele>1858.5999755859375</ele>
        <time>2026-06-15T09:22:30.000Z</time>
        <extensions>
          <ns3:TrackPointExtension>
            <ns3:atemp>20.0</ns3:atemp>
          </ns3:TrackPointExtension>
        </extensions>
      </trkpt>
      <trkpt lat="42.59211366064846515655517578125" lon="20.10019632987678050994873046875">
        <ele>1858.5999755859375</ele>
        <time>2026-06-15T09:22:31.000Z</time>
        <extensions>
          <ns3:TrackPointExtension>
            <ns3:atemp>20.0</ns3:atemp>
          </ns3:TrackPointExtension>
        </extensions>
      </trkpt>
      <trkpt lat="42.59211366064846515655517578125" lon="20.10019632987678050994873046875">
        <ele>1858.5999755859375</ele>
        <time>2026-06-15T09:22:32.000Z</time>
        <extensions>
          <ns3:TrackPointExtension>
            <ns3:atemp>20.0</ns3:atemp>
          </ns3:TrackPointExtension>
        </extensions>
      </trkpt>
      <trkpt lat="42.59211366064846515655517578125" lon="20.10019632987678050994873046875">
        <ele>1858.800048828125</ele>
        <time>2026-06-15T09:22:33.000Z</time>
        <extensions>
          <ns3:TrackPointExtension>
            <ns3:atemp>20.0</ns3:atemp>
          </ns3:TrackPointExtension>
        </extensions>
      </trkpt>
      <trkpt lat="42.59211366064846515655517578125" lon="20.10019632987678050994873046875">
        <ele>1858.800048828125</ele>
        <time>2026-06-15T09:22:34.000Z</time>
        <extensions>
          <ns3:TrackPointExtension>
            <ns3:atemp>20.0</ns3:atemp>
          </ns3:TrackPointExtension>
        </extensions>
      </trkpt>
      <trkpt lat="42.59211366064846515655517578125" lon="20.10019632987678050994873046875">
        <ele>1858.800048828125</ele>
        <time>2026-06-15T09:22:35.000Z</time>
        <extensions>
          <ns3:TrackPointExtension>
            <ns3:atemp>20.0</ns3:atemp>
          </ns3:TrackPointExtension>
        </extensions>
      </trkpt>
      <trkpt lat="42.59211366064846515655517578125" lon="20.10019632987678050994873046875">
        <ele>1858.800048828125</ele>
        <time>2026-06-15T09:22:36.000Z</time>
        <extensions>
          <ns3:TrackPointExtension>
            <ns3:atemp>20.0</ns3:atemp>
          </ns3:TrackPointExtension>
        </extensions>
      </trkpt>
      <trkpt lat="42.59211366064846515655517578125" lon="20.10019632987678050994873046875">
        <ele>1858.800048828125</ele>
        <time>2026-06-15T09:22:37.000Z</time>
        <extensions>
          <ns3:TrackPointExtension>
            <ns3:atemp>20.0</ns3:atemp>
          </ns3:TrackPointExtension>
        </extensions>
      </trkpt>
      <trkpt lat="42.59211366064846515655517578125" lon="20.10019632987678050994873046875">
        <ele>1858.800048828125</ele>
        <time>2026-06-15T09:22:38.000Z</time>
        <extensions>
          <ns3:TrackPointExtension>
            <ns3:atemp>20.0</ns3:atemp>
          </ns3:TrackPointExtension>
        </extensions>
      </trkpt>
      <trkpt lat="42.59211366064846515655517578125" lon="20.10019632987678050994873046875">
        <ele>1859</ele>
        <time>2026-06-15T09:22:39.000Z</time>
        <extensions>
          <ns3:TrackPointExtension>
            <ns3:atemp>20.0</ns3:atemp>
          </ns3:TrackPointExtension>
        </extensions>
      </trkpt>
      <trkpt lat="42.59211366064846515655517578125" lon="20.10019632987678050994873046875">
        <ele>1859</ele>
        <time>2026-06-15T09:22:40.000Z</time>
        <extensions>
          <ns3:TrackPointExtension>
            <ns3:atemp>20.0</ns3:atemp>
          </ns3:TrackPointExtension>
        </extensions>
      </trkpt>
      <trkpt lat="42.59211366064846515655517578125" lon="20.10019632987678050994873046875">
        <ele>1859</ele>
        <time>2026-06-15T09:22:41.000Z</time>
        <extensions>
          <ns3:TrackPointExtension>
            <ns3:atemp>20.0</ns3:atemp>
          </ns3:TrackPointExtension>
        </extensions>
      </trkpt>
      <trkpt lat="42.59211366064846515655517578125" lon="20.10019632987678050994873046875">
        <ele>1859</ele>
        <time>2026-06-15T09:22:42.000Z</time>
        <extensions>
          <ns3:TrackPointExtension>
            <ns3:atemp>20.0</ns3:atemp>
          </ns3:TrackPointExtension>
        </extensions>
      </trkpt>
      <trkpt lat="42.59211366064846515655517578125" lon="20.10019632987678050994873046875">
        <ele>1859</ele>
        <time>2026-06-15T09:22:43.000Z</time>
        <extensions>
          <ns3:TrackPointExtension>
            <ns3:atemp>20.0</ns3:atemp>
          </ns3:TrackPointExtension>
        </extensions>
      </trkpt>
      <trkpt lat="42.59211366064846515655517578125" lon="20.10019632987678050994873046875">
        <ele>1859</ele>
        <time>2026-06-15T09:22:44.000Z</time>
        <extensions>
          <ns3:TrackPointExtension>
            <ns3:atemp>20.0</ns3:atemp>
          </ns3:TrackPointExtension>
        </extensions>
      </trkpt>
      <trkpt lat="42.59211366064846515655517578125" lon="20.10019632987678050994873046875">
        <ele>1859</ele>
        <time>2026-06-15T09:22:45.000Z</time>
        <extensions>
          <ns3:TrackPointExtension>
            <ns3:atemp>20.0</ns3:atemp>
          </ns3:TrackPointExtension>
        </extensions>
      </trkpt>
      <trkpt lat="42.59211366064846515655517578125" lon="20.10019632987678050994873046875">
        <ele>1859</ele>
        <time>2026-06-15T09:22:46.000Z</time>
        <extensions>
          <ns3:TrackPointExtension>
            <ns3:atemp>20.0</ns3:atemp>
          </ns3:TrackPointExtension>
        </extensions>
      </trkpt>
      <trkpt lat="42.59211366064846515655517578125" lon="20.10019632987678050994873046875">
        <ele>1859.199951171875</ele>
        <time>2026-06-15T09:22:47.000Z</time>
        <extensions>
          <ns3:TrackPointExtension>
            <ns3:atemp>20.0</ns3:atemp>
          </ns3:TrackPointExtension>
        </extensions>
      </trkpt>
      <trkpt lat="42.59211366064846515655517578125" lon="20.10019632987678050994873046875">
        <ele>1859.199951171875</ele>
        <time>2026-06-15T09:22:48.000Z</time>
        <extensions>
          <ns3:TrackPointExtension>
            <ns3:atemp>20.0</ns3:atemp>
          </ns3:TrackPointExtension>
        </extensions>
      </trkpt>
      <trkpt lat="42.59211366064846515655517578125" lon="20.10019632987678050994873046875">
        <ele>1859.199951171875</ele>
        <time>2026-06-15T09:22:49.000Z</time>
        <extensions>
          <ns3:TrackPointExtension>
            <ns3:atemp>20.0</ns3:atemp>
          </ns3:TrackPointExtension>
        </extensions>
      </trkpt>
      <trkpt lat="42.59211366064846515655517578125" lon="20.10019632987678050994873046875">
        <ele>1859.199951171875</ele>
        <time>2026-06-15T09:22:50.000Z</time>
        <extensions>
          <ns3:TrackPointExtension>
            <ns3:atemp>20.0</ns3:atemp>
          </ns3:TrackPointExtension>
        </extensions>
      </trkpt>
      <trkpt lat="42.59211366064846515655517578125" lon="20.10019632987678050994873046875">
        <ele>1859.199951171875</ele>
        <time>2026-06-15T09:22:51.000Z</time>
        <extensions>
          <ns3:TrackPointExtension>
            <ns3:atemp>20.0</ns3:atemp>
          </ns3:TrackPointExtension>
        </extensions>
      </trkpt>
      <trkpt lat="42.59211366064846515655517578125" lon="20.10019632987678050994873046875">
        <ele>1859.199951171875</ele>
        <time>2026-06-15T09:22:52.000Z</time>
        <extensions>
          <ns3:TrackPointExtension>
            <ns3:atemp>20.0</ns3:atemp>
          </ns3:TrackPointExtension>
        </extensions>
      </trkpt>
      <trkpt lat="42.59211366064846515655517578125" lon="20.10019632987678050994873046875">
        <ele>1859.199951171875</ele>
        <time>2026-06-15T09:22:53.000Z</time>
        <extensions>
          <ns3:TrackPointExtension>
            <ns3:atemp>20.0</ns3:atemp>
          </ns3:TrackPointExtension>
        </extensions>
      </trkpt>
      <trkpt lat="42.59211366064846515655517578125" lon="20.10019632987678050994873046875">
        <ele>1859.199951171875</ele>
        <time>2026-06-15T09:22:54.000Z</time>
        <extensions>
          <ns3:TrackPointExtension>
            <ns3:atemp>20.0</ns3:atemp>
          </ns3:TrackPointExtension>
        </extensions>
      </trkpt>
      <trkpt lat="42.59211366064846515655517578125" lon="20.10019632987678050994873046875">
        <ele>1859.199951171875</ele>
        <time>2026-06-15T09:22:55.000Z</time>
        <extensions>
          <ns3:TrackPointExtension>
            <ns3:atemp>20.0</ns3:atemp>
          </ns3:TrackPointExtension>
        </extensions>
      </trkpt>
      <trkpt lat="42.59211366064846515655517578125" lon="20.10019632987678050994873046875">
        <ele>1859.199951171875</ele>
        <time>2026-06-15T09:22:56.000Z</time>
        <extensions>
          <ns3:TrackPointExtension>
            <ns3:atemp>20.0</ns3:atemp>
          </ns3:TrackPointExtension>
        </extensions>
      </trkpt>
      <trkpt lat="42.59211366064846515655517578125" lon="20.10019632987678050994873046875">
        <ele>1859</ele>
        <time>2026-06-15T09:22:57.000Z</time>
        <extensions>
          <ns3:TrackPointExtension>
            <ns3:atemp>20.0</ns3:atemp>
          </ns3:TrackPointExtension>
        </extensions>
      </trkpt>
      <trkpt lat="42.59211366064846515655517578125" lon="20.10019632987678050994873046875">
        <ele>1859</ele>
        <time>2026-06-15T09:22:58.000Z</time>
        <extensions>
          <ns3:TrackPointExtension>
            <ns3:atemp>20.0</ns3:atemp>
          </ns3:TrackPointExtension>
        </extensions>
      </trkpt>
      <trkpt lat="42.59211366064846515655517578125" lon="20.10019632987678050994873046875">
        <ele>1859</ele>
        <time>2026-06-15T09:22:59.000Z</time>
        <extensions>
          <ns3:TrackPointExtension>
            <ns3:atemp>20.0</ns3:atemp>
          </ns3:TrackPointExtension>
        </extensions>
      </trkpt>
      <trkpt lat="42.59211366064846515655517578125" lon="20.10019632987678050994873046875">
        <ele>1859</ele>
        <time>2026-06-15T09:23:00.000Z</time>
        <extensions>
          <ns3:TrackPointExtension>
            <ns3:atemp>20.0</ns3:atemp>
          </ns3:TrackPointExtension>
        </extensions>
      </trkpt>
      <trkpt lat="42.59211366064846515655517578125" lon="20.10019632987678050994873046875">
        <ele>1859</ele>
        <time>2026-06-15T09:23:01.000Z</time>
        <extensions>
          <ns3:TrackPointExtension>
            <ns3:atemp>20.0</ns3:atemp>
          </ns3:TrackPointExtension>
        </extensions>
      </trkpt>
      <trkpt lat="42.59211366064846515655517578125" lon="20.10019632987678050994873046875">
        <ele>1859</ele>
        <time>2026-06-15T09:23:02.000Z</time>
        <extensions>
          <ns3:TrackPointExtension>
            <ns3:atemp>20.0</ns3:atemp>
          </ns3:TrackPointExtension>
        </extensions>
      </trkpt>
      <trkpt lat="42.59211366064846515655517578125" lon="20.10019632987678050994873046875">
        <ele>1859</ele>
        <time>2026-06-15T09:23:03.000Z</time>
        <extensions>
          <ns3:TrackPointExtension>
            <ns3:atemp>20.0</ns3:atemp>
          </ns3:TrackPointExtension>
        </extensions>
      </trkpt>
      <trkpt lat="42.59211366064846515655517578125" lon="20.10019632987678050994873046875">
        <ele>1859</ele>
        <time>2026-06-15T09:23:04.000Z</time>
        <extensions>
          <ns3:TrackPointExtension>
            <ns3:atemp>20.0</ns3:atemp>
          </ns3:TrackPointExtension>
        </extensions>
      </trkpt>
      <trkpt lat="42.59211366064846515655517578125" lon="20.10019632987678050994873046875">
        <ele>1859</ele>
        <time>2026-06-15T09:23:05.000Z</time>
        <extensions>
          <ns3:TrackPointExtension>
            <ns3:atemp>20.0</ns3:atemp>
          </ns3:TrackPointExtension>
        </extensions>
      </trkpt>
      <trkpt lat="42.59211366064846515655517578125" lon="20.10019632987678050994873046875">
        <ele>1859</ele>
        <time>2026-06-15T09:23:06.000Z</time>
        <extensions>
          <ns3:TrackPointExtension>
            <ns3:atemp>20.0</ns3:atemp>
          </ns3:TrackPointExtension>
        </extensions>
      </trkpt>
      <trkpt lat="42.59211366064846515655517578125" lon="20.10019632987678050994873046875">
        <ele>1859</ele>
        <time>2026-06-15T09:23:07.000Z</time>
        <extensions>
          <ns3:TrackPointExtension>
            <ns3:atemp>20.0</ns3:atemp>
          </ns3:TrackPointExtension>
        </extensions>
      </trkpt>
      <trkpt lat="42.59211366064846515655517578125" lon="20.10019632987678050994873046875">
        <ele>1859</ele>
        <time>2026-06-15T09:23:08.000Z</time>
        <extensions>
          <ns3:TrackPointExtension>
            <ns3:atemp>20.0</ns3:atemp>
          </ns3:TrackPointExtension>
        </extensions>
      </trkpt>
      <trkpt lat="42.59211366064846515655517578125" lon="20.10019632987678050994873046875">
        <ele>1859</ele>
        <time>2026-06-15T09:23:09.000Z</time>
        <extensions>
          <ns3:TrackPointExtension>
            <ns3:atemp>20.0</ns3:atemp>
          </ns3:TrackPointExtension>
        </extensions>
      </trkpt>
      <trkpt lat="42.59211366064846515655517578125" lon="20.10019632987678050994873046875">
        <ele>1858.800048828125</ele>
        <time>2026-06-15T09:23:10.000Z</time>
        <extensions>
          <ns3:TrackPointExtension>
            <ns3:atemp>20.0</ns3:atemp>
          </ns3:TrackPointExtension>
        </extensions>
      </trkpt>
      <trkpt lat="42.59211366064846515655517578125" lon="20.10019632987678050994873046875">
        <ele>1858.800048828125</ele>
        <time>2026-06-15T09:23:11.000Z</time>
        <extensions>
          <ns3:TrackPointExtension>
            <ns3:atemp>20.0</ns3:atemp>
          </ns3:TrackPointExtension>
        </extensions>
      </trkpt>
      <trkpt lat="42.59211366064846515655517578125" lon="20.10019632987678050994873046875">
        <ele>1858.800048828125</ele>
        <time>2026-06-15T09:23:12.000Z</time>
        <extensions>
          <ns3:TrackPointExtension>
            <ns3:atemp>20.0</ns3:atemp>
          </ns3:TrackPointExtension>
        </extensions>
      </trkpt>
      <trkpt lat="42.59211366064846515655517578125" lon="20.10019632987678050994873046875">
        <ele>1858.800048828125</ele>
        <time>2026-06-15T09:23:13.000Z</time>
        <extensions>
          <ns3:TrackPointExtension>
            <ns3:atemp>20.0</ns3:atemp>
          </ns3:TrackPointExtension>
        </extensions>
      </trkpt>
      <trkpt lat="42.59211366064846515655517578125" lon="20.10019632987678050994873046875">
        <ele>1858.800048828125</ele>
        <time>2026-06-15T09:23:14.000Z</time>
        <extensions>
          <ns3:TrackPointExtension>
            <ns3:atemp>20.0</ns3:atemp>
          </ns3:TrackPointExtension>
        </extensions>
      </trkpt>
      <trkpt lat="42.59211366064846515655517578125" lon="20.10019632987678050994873046875">
        <ele>1858.800048828125</ele>
        <time>2026-06-15T09:23:15.000Z</time>
        <extensions>
          <ns3:TrackPointExtension>
            <ns3:atemp>20.0</ns3:atemp>
          </ns3:TrackPointExtension>
        </extensions>
      </trkpt>
      <trkpt lat="42.59211366064846515655517578125" lon="20.10019632987678050994873046875">
        <ele>1859</ele>
        <time>2026-06-15T09:23:16.000Z</time>
        <extensions>
          <ns3:TrackPointExtension>
            <ns3:atemp>20.0</ns3:atemp>
          </ns3:TrackPointExtension>
        </extensions>
      </trkpt>
      <trkpt lat="42.59211366064846515655517578125" lon="20.10019632987678050994873046875">
        <ele>1859</ele>
        <time>2026-06-15T09:23:17.000Z</time>
        <extensions>
          <ns3:TrackPointExtension>
            <ns3:atemp>20.0</ns3:atemp>
          </ns3:TrackPointExtension>
        </extensions>
      </trkpt>
      <trkpt lat="42.59211366064846515655517578125" lon="20.10019632987678050994873046875">
        <ele>1859</ele>
        <time>2026-06-15T09:23:18.000Z</time>
        <extensions>
          <ns3:TrackPointExtension>
            <ns3:atemp>20.0</ns3:atemp>
          </ns3:TrackPointExtension>
        </extensions>
      </trkpt>
      <trkpt lat="42.59211366064846515655517578125" lon="20.10019632987678050994873046875">
        <ele>1859</ele>
        <time>2026-06-15T09:23:19.000Z</time>
        <extensions>
          <ns3:TrackPointExtension>
            <ns3:atemp>20.0</ns3:atemp>
          </ns3:TrackPointExtension>
        </extensions>
      </trkpt>
      <trkpt lat="42.59211366064846515655517578125" lon="20.10019632987678050994873046875">
        <ele>1859</ele>
        <time>2026-06-15T09:23:20.000Z</time>
        <extensions>
          <ns3:TrackPointExtension>
            <ns3:atemp>20.0</ns3:atemp>
          </ns3:TrackPointExtension>
        </extensions>
      </trkpt>
      <trkpt lat="42.59211366064846515655517578125" lon="20.10019632987678050994873046875">
        <ele>1859</ele>
        <time>2026-06-15T09:23:21.000Z</time>
        <extensions>
          <ns3:TrackPointExtension>
            <ns3:atemp>20.0</ns3:atemp>
          </ns3:TrackPointExtension>
        </extensions>
      </trkpt>
      <trkpt lat="42.59211366064846515655517578125" lon="20.10019632987678050994873046875">
        <ele>1859</ele>
        <time>2026-06-15T09:23:22.000Z</time>
        <extensions>
          <ns3:TrackPointExtension>
            <ns3:atemp>20.0</ns3:atemp>
          </ns3:TrackPointExtension>
        </extensions>
      </trkpt>
      <trkpt lat="42.59211366064846515655517578125" lon="20.10019632987678050994873046875">
        <ele>1859</ele>
        <time>2026-06-15T09:23:23.000Z</time>
        <extensions>
          <ns3:TrackPointExtension>
            <ns3:atemp>20.0</ns3:atemp>
          </ns3:TrackPointExtension>
        </extensions>
      </trkpt>
      <trkpt lat="42.59211366064846515655517578125" lon="20.10019632987678050994873046875">
        <ele>1859</ele>
        <time>2026-06-15T09:23:24.000Z</time>
        <extensions>
          <ns3:TrackPointExtension>
            <ns3:atemp>20.0</ns3:atemp>
          </ns3:TrackPointExtension>
        </extensions>
      </trkpt>
      <trkpt lat="42.59211366064846515655517578125" lon="20.10019632987678050994873046875">
        <ele>1858.800048828125</ele>
        <time>2026-06-15T09:23:25.000Z</time>
        <extensions>
          <ns3:TrackPointExtension>
            <ns3:atemp>20.0</ns3:atemp>
          </ns3:TrackPointExtension>
        </extensions>
      </trkpt>
      <trkpt lat="42.59211366064846515655517578125" lon="20.10019632987678050994873046875">
        <ele>1858.800048828125</ele>
        <time>2026-06-15T09:23:26.000Z</time>
        <extensions>
          <ns3:TrackPointExtension>
            <ns3:atemp>20.0</ns3:atemp>
          </ns3:TrackPointExtension>
        </extensions>
      </trkpt>
      <trkpt lat="42.59211366064846515655517578125" lon="20.10019632987678050994873046875">
        <ele>1858.800048828125</ele>
        <time>2026-06-15T09:23:27.000Z</time>
        <extensions>
          <ns3:TrackPointExtension>
            <ns3:atemp>20.0</ns3:atemp>
          </ns3:TrackPointExtension>
        </extensions>
      </trkpt>
      <trkpt lat="42.59211366064846515655517578125" lon="20.10019632987678050994873046875">
        <ele>1858.800048828125</ele>
        <time>2026-06-15T09:23:28.000Z</time>
        <extensions>
          <ns3:TrackPointExtension>
            <ns3:atemp>20.0</ns3:atemp>
          </ns3:TrackPointExtension>
        </extensions>
      </trkpt>
      <trkpt lat="42.59211366064846515655517578125" lon="20.10019632987678050994873046875">
        <ele>1858.800048828125</ele>
        <time>2026-06-15T09:23:29.000Z</time>
        <extensions>
          <ns3:TrackPointExtension>
            <ns3:atemp>20.0</ns3:atemp>
          </ns3:TrackPointExtension>
        </extensions>
      </trkpt>
      <trkpt lat="42.59211366064846515655517578125" lon="20.10019632987678050994873046875">
        <ele>1858.800048828125</ele>
        <time>2026-06-15T09:23:30.000Z</time>
        <extensions>
          <ns3:TrackPointExtension>
            <ns3:atemp>20.0</ns3:atemp>
          </ns3:TrackPointExtension>
        </extensions>
      </trkpt>
      <trkpt lat="42.59211366064846515655517578125" lon="20.10019632987678050994873046875">
        <ele>1859</ele>
        <time>2026-06-15T09:23:31.000Z</time>
        <extensions>
          <ns3:TrackPointExtension>
            <ns3:atemp>20.0</ns3:atemp>
          </ns3:TrackPointExtension>
        </extensions>
      </trkpt>
      <trkpt lat="42.59211366064846515655517578125" lon="20.10019632987678050994873046875">
        <ele>1859</ele>
        <time>2026-06-15T09:23:32.000Z</time>
        <extensions>
          <ns3:TrackPointExtension>
            <ns3:atemp>20.0</ns3:atemp>
          </ns3:TrackPointExtension>
        </extensions>
      </trkpt>
      <trkpt lat="42.59211366064846515655517578125" lon="20.10019632987678050994873046875">
        <ele>1859</ele>
        <time>2026-06-15T09:23:33.000Z</time>
        <extensions>
          <ns3:TrackPointExtension>
            <ns3:atemp>20.0</ns3:atemp>
          </ns3:TrackPointExtension>
        </extensions>
      </trkpt>
      <trkpt lat="42.59211366064846515655517578125" lon="20.10019632987678050994873046875">
        <ele>1859</ele>
        <time>2026-06-15T09:23:34.000Z</time>
        <extensions>
          <ns3:TrackPointExtension>
            <ns3:atemp>20.0</ns3:atemp>
          </ns3:TrackPointExtension>
        </extensions>
      </trkpt>
      <trkpt lat="42.59211366064846515655517578125" lon="20.10019632987678050994873046875">
        <ele>1859</ele>
        <time>2026-06-15T09:23:35.000Z</time>
        <extensions>
          <ns3:TrackPointExtension>
            <ns3:atemp>20.0</ns3:atemp>
          </ns3:TrackPointExtension>
        </extensions>
      </trkpt>
      <trkpt lat="42.59211366064846515655517578125" lon="20.10019632987678050994873046875">
        <ele>1859.199951171875</ele>
        <time>2026-06-15T09:23:36.000Z</time>
        <extensions>
          <ns3:TrackPointExtension>
            <ns3:atemp>20.0</ns3:atemp>
          </ns3:TrackPointExtension>
        </extensions>
      </trkpt>
      <trkpt lat="42.59211366064846515655517578125" lon="20.10019632987678050994873046875">
        <ele>1859.199951171875</ele>
        <time>2026-06-15T09:23:37.000Z</time>
        <extensions>
          <ns3:TrackPointExtension>
            <ns3:atemp>20.0</ns3:atemp>
          </ns3:TrackPointExtension>
        </extensions>
      </trkpt>
      <trkpt lat="42.59211366064846515655517578125" lon="20.10019632987678050994873046875">
        <ele>1859.199951171875</ele>
        <time>2026-06-15T09:23:38.000Z</time>
        <extensions>
          <ns3:TrackPointExtension>
            <ns3:atemp>20.0</ns3:atemp>
          </ns3:TrackPointExtension>
        </extensions>
      </trkpt>
      <trkpt lat="42.59211366064846515655517578125" lon="20.10019632987678050994873046875">
        <ele>1859.199951171875</ele>
        <time>2026-06-15T09:23:39.000Z</time>
        <extensions>
          <ns3:TrackPointExtension>
            <ns3:atemp>20.0</ns3:atemp>
          </ns3:TrackPointExtension>
        </extensions>
      </trkpt>
      <trkpt lat="42.59211366064846515655517578125" lon="20.10019632987678050994873046875">
        <ele>1859.199951171875</ele>
        <time>2026-06-15T09:23:40.000Z</time>
        <extensions>
          <ns3:TrackPointExtension>
            <ns3:atemp>20.0</ns3:atemp>
          </ns3:TrackPointExtension>
        </extensions>
      </trkpt>
      <trkpt lat="42.59211366064846515655517578125" lon="20.10019632987678050994873046875">
        <ele>1859.199951171875</ele>
        <time>2026-06-15T09:23:41.000Z</time>
        <extensions>
          <ns3:TrackPointExtension>
            <ns3:atemp>20.0</ns3:atemp>
          </ns3:TrackPointExtension>
        </extensions>
      </trkpt>
      <trkpt lat="42.59211366064846515655517578125" lon="20.10019632987678050994873046875">
        <ele>1859.199951171875</ele>
        <time>2026-06-15T09:23:42.000Z</time>
        <extensions>
          <ns3:TrackPointExtension>
            <ns3:atemp>20.0</ns3:atemp>
          </ns3:TrackPointExtension>
        </extensions>
      </trkpt>
      <trkpt lat="42.59211366064846515655517578125" lon="20.10019632987678050994873046875">
        <ele>1859.199951171875</ele>
        <time>2026-06-15T09:23:43.000Z</time>
        <extensions>
          <ns3:TrackPointExtension>
            <ns3:atemp>20.0</ns3:atemp>
          </ns3:TrackPointExtension>
        </extensions>
      </trkpt>
      <trkpt lat="42.59211366064846515655517578125" lon="20.10019632987678050994873046875">
        <ele>1859.199951171875</ele>
        <time>2026-06-15T09:23:44.000Z</time>
        <extensions>
          <ns3:TrackPointExtension>
            <ns3:atemp>20.0</ns3:atemp>
          </ns3:TrackPointExtension>
        </extensions>
      </trkpt>
      <trkpt lat="42.59211366064846515655517578125" lon="20.10019632987678050994873046875">
        <ele>1859.4000244140625</ele>
        <time>2026-06-15T09:23:45.000Z</time>
        <extensions>
          <ns3:TrackPointExtension>
            <ns3:atemp>20.0</ns3:atemp>
          </ns3:TrackPointExtension>
        </extensions>
      </trkpt>
      <trkpt lat="42.59211366064846515655517578125" lon="20.10019632987678050994873046875">
        <ele>1859.4000244140625</ele>
        <time>2026-06-15T09:23:46.000Z</time>
        <extensions>
          <ns3:TrackPointExtension>
            <ns3:atemp>20.0</ns3:atemp>
          </ns3:TrackPointExtension>
        </extensions>
      </trkpt>
      <trkpt lat="42.59211366064846515655517578125" lon="20.10019632987678050994873046875">
        <ele>1859.4000244140625</ele>
        <time>2026-06-15T09:23:47.000Z</time>
        <extensions>
          <ns3:TrackPointExtension>
            <ns3:atemp>20.0</ns3:atemp>
          </ns3:TrackPointExtension>
        </extensions>
      </trkpt>
      <trkpt lat="42.59211366064846515655517578125" lon="20.10019632987678050994873046875">
        <ele>1859.4000244140625</ele>
        <time>2026-06-15T09:23:48.000Z</time>
        <extensions>
          <ns3:TrackPointExtension>
            <ns3:atemp>20.0</ns3:atemp>
          </ns3:TrackPointExtension>
        </extensions>
      </trkpt>
      <trkpt lat="42.59211366064846515655517578125" lon="20.10019632987678050994873046875">
        <ele>1859.4000244140625</ele>
        <time>2026-06-15T09:23:49.000Z</time>
        <extensions>
          <ns3:TrackPointExtension>
            <ns3:atemp>20.0</ns3:atemp>
          </ns3:TrackPointExtension>
        </extensions>
      </trkpt>
      <trkpt lat="42.59211366064846515655517578125" lon="20.10019632987678050994873046875">
        <ele>1859.199951171875</ele>
        <time>2026-06-15T09:23:50.000Z</time>
        <extensions>
          <ns3:TrackPointExtension>
            <ns3:atemp>20.0</ns3:atemp>
          </ns3:TrackPointExtension>
        </extensions>
      </trkpt>
      <trkpt lat="42.59211366064846515655517578125" lon="20.10019632987678050994873046875">
        <ele>1859.199951171875</ele>
        <time>2026-06-15T09:23:51.000Z</time>
        <extensions>
          <ns3:TrackPointExtension>
            <ns3:atemp>20.0</ns3:atemp>
          </ns3:TrackPointExtension>
        </extensions>
      </trkpt>
      <trkpt lat="42.59211366064846515655517578125" lon="20.10019632987678050994873046875">
        <ele>1859.4000244140625</ele>
        <time>2026-06-15T09:23:52.000Z</time>
        <extensions>
          <ns3:TrackPointExtension>
            <ns3:atemp>20.0</ns3:atemp>
          </ns3:TrackPointExtension>
        </extensions>
      </trkpt>
      <trkpt lat="42.59211366064846515655517578125" lon="20.10019632987678050994873046875">
        <ele>1859.4000244140625</ele>
        <time>2026-06-15T09:23:53.000Z</time>
        <extensions>
          <ns3:TrackPointExtension>
            <ns3:atemp>20.0</ns3:atemp>
          </ns3:TrackPointExtension>
        </extensions>
      </trkpt>
      <trkpt lat="42.59211366064846515655517578125" lon="20.10019632987678050994873046875">
        <ele>1859.4000244140625</ele>
        <time>2026-06-15T09:23:54.000Z</time>
        <extensions>
          <ns3:TrackPointExtension>
            <ns3:atemp>20.0</ns3:atemp>
          </ns3:TrackPointExtension>
        </extensions>
      </trkpt>
      <trkpt lat="42.59211366064846515655517578125" lon="20.10019632987678050994873046875">
        <ele>1859.4000244140625</ele>
        <time>2026-06-15T09:23:55.000Z</time>
        <extensions>
          <ns3:TrackPointExtension>
            <ns3:atemp>20.0</ns3:atemp>
          </ns3:TrackPointExtension>
        </extensions>
      </trkpt>
      <trkpt lat="42.59211366064846515655517578125" lon="20.10019632987678050994873046875">
        <ele>1859.5999755859375</ele>
        <time>2026-06-15T09:23:56.000Z</time>
        <extensions>
          <ns3:TrackPointExtension>
            <ns3:atemp>20.0</ns3:atemp>
          </ns3:TrackPointExtension>
        </extensions>
      </trkpt>
      <trkpt lat="42.59211366064846515655517578125" lon="20.10019632987678050994873046875">
        <ele>1859.4000244140625</ele>
        <time>2026-06-15T09:23:57.000Z</time>
        <extensions>
          <ns3:TrackPointExtension>
            <ns3:atemp>20.0</ns3:atemp>
          </ns3:TrackPointExtension>
        </extensions>
      </trkpt>
      <trkpt lat="42.59211366064846515655517578125" lon="20.10019632987678050994873046875">
        <ele>1859.4000244140625</ele>
        <time>2026-06-15T09:23:58.000Z</time>
        <extensions>
          <ns3:TrackPointExtension>
            <ns3:atemp>20.0</ns3:atemp>
          </ns3:TrackPointExtension>
        </extensions>
      </trkpt>
      <trkpt lat="42.59211366064846515655517578125" lon="20.10019632987678050994873046875">
        <ele>1859.4000244140625</ele>
        <time>2026-06-15T09:23:59.000Z</time>
        <extensions>
          <ns3:TrackPointExtension>
            <ns3:atemp>20.0</ns3:atemp>
          </ns3:TrackPointExtension>
        </extensions>
      </trkpt>
      <trkpt lat="42.59211366064846515655517578125" lon="20.10019632987678050994873046875">
        <ele>1859.4000244140625</ele>
        <time>2026-06-15T09:24:00.000Z</time>
        <extensions>
          <ns3:TrackPointExtension>
            <ns3:atemp>20.0</ns3:atemp>
          </ns3:TrackPointExtension>
        </extensions>
      </trkpt>
      <trkpt lat="42.59211366064846515655517578125" lon="20.10019632987678050994873046875">
        <ele>1859.4000244140625</ele>
        <time>2026-06-15T09:24:01.000Z</time>
        <extensions>
          <ns3:TrackPointExtension>
            <ns3:atemp>20.0</ns3:atemp>
          </ns3:TrackPointExtension>
        </extensions>
      </trkpt>
      <trkpt lat="42.59211366064846515655517578125" lon="20.10019632987678050994873046875">
        <ele>1859.4000244140625</ele>
        <time>2026-06-15T09:24:02.000Z</time>
        <extensions>
          <ns3:TrackPointExtension>
            <ns3:atemp>20.0</ns3:atemp>
          </ns3:TrackPointExtension>
        </extensions>
      </trkpt>
      <trkpt lat="42.59211366064846515655517578125" lon="20.10019632987678050994873046875">
        <ele>1859.4000244140625</ele>
        <time>2026-06-15T09:24:03.000Z</time>
        <extensions>
          <ns3:TrackPointExtension>
            <ns3:atemp>20.0</ns3:atemp>
          </ns3:TrackPointExtension>
        </extensions>
      </trkpt>
      <trkpt lat="42.59211366064846515655517578125" lon="20.10019632987678050994873046875">
        <ele>1859.4000244140625</ele>
        <time>2026-06-15T09:24:04.000Z</time>
        <extensions>
          <ns3:TrackPointExtension>
            <ns3:atemp>20.0</ns3:atemp>
          </ns3:TrackPointExtension>
        </extensions>
      </trkpt>
      <trkpt lat="42.59211366064846515655517578125" lon="20.10019632987678050994873046875">
        <ele>1859.4000244140625</ele>
        <time>2026-06-15T09:24:05.000Z</time>
        <extensions>
          <ns3:TrackPointExtension>
            <ns3:atemp>20.0</ns3:atemp>
          </ns3:TrackPointExtension>
        </extensions>
      </trkpt>
      <trkpt lat="42.59211366064846515655517578125" lon="20.10019632987678050994873046875">
        <ele>1859.4000244140625</ele>
        <time>2026-06-15T09:24:06.000Z</time>
        <extensions>
          <ns3:TrackPointExtension>
            <ns3:atemp>20.0</ns3:atemp>
          </ns3:TrackPointExtension>
        </extensions>
      </trkpt>
      <trkpt lat="42.59211366064846515655517578125" lon="20.10019632987678050994873046875">
        <ele>1859.4000244140625</ele>
        <time>2026-06-15T09:24:07.000Z</time>
        <extensions>
          <ns3:TrackPointExtension>
            <ns3:atemp>20.0</ns3:atemp>
          </ns3:TrackPointExtension>
        </extensions>
      </trkpt>
      <trkpt lat="42.59211366064846515655517578125" lon="20.10019632987678050994873046875">
        <ele>1859.4000244140625</ele>
        <time>2026-06-15T09:24:08.000Z</time>
        <extensions>
          <ns3:TrackPointExtension>
            <ns3:atemp>20.0</ns3:atemp>
          </ns3:TrackPointExtension>
        </extensions>
      </trkpt>
      <trkpt lat="42.59211366064846515655517578125" lon="20.10019632987678050994873046875">
        <ele>1859.4000244140625</ele>
        <time>2026-06-15T09:24:09.000Z</time>
        <extensions>
          <ns3:TrackPointExtension>
            <ns3:atemp>20.0</ns3:atemp>
          </ns3:TrackPointExtension>
        </extensions>
      </trkpt>
      <trkpt lat="42.59211366064846515655517578125" lon="20.10019632987678050994873046875">
        <ele>1859.4000244140625</ele>
        <time>2026-06-15T09:24:10.000Z</time>
        <extensions>
          <ns3:TrackPointExtension>
            <ns3:atemp>20.0</ns3:atemp>
          </ns3:TrackPointExtension>
        </extensions>
      </trkpt>
      <trkpt lat="42.59211366064846515655517578125" lon="20.10019632987678050994873046875">
        <ele>1859.4000244140625</ele>
        <time>2026-06-15T09:24:11.000Z</time>
        <extensions>
          <ns3:TrackPointExtension>
            <ns3:atemp>20.0</ns3:atemp>
          </ns3:TrackPointExtension>
        </extensions>
      </trkpt>
      <trkpt lat="42.59211366064846515655517578125" lon="20.10019632987678050994873046875">
        <ele>1859.4000244140625</ele>
        <time>2026-06-15T09:24:12.000Z</time>
        <extensions>
          <ns3:TrackPointExtension>
            <ns3:atemp>20.0</ns3:atemp>
          </ns3:TrackPointExtension>
        </extensions>
      </trkpt>
      <trkpt lat="42.59211366064846515655517578125" lon="20.10019632987678050994873046875">
        <ele>1859.4000244140625</ele>
        <time>2026-06-15T09:24:13.000Z</time>
        <extensions>
          <ns3:TrackPointExtension>
            <ns3:atemp>20.0</ns3:atemp>
          </ns3:TrackPointExtension>
        </extensions>
      </trkpt>
      <trkpt lat="42.59211366064846515655517578125" lon="20.10019632987678050994873046875">
        <ele>1859.4000244140625</ele>
        <time>2026-06-15T09:24:14.000Z</time>
        <extensions>
          <ns3:TrackPointExtension>
            <ns3:atemp>20.0</ns3:atemp>
          </ns3:TrackPointExtension>
        </extensions>
      </trkpt>
      <trkpt lat="42.59211366064846515655517578125" lon="20.10019632987678050994873046875">
        <ele>1859.4000244140625</ele>
        <time>2026-06-15T09:24:15.000Z</time>
        <extensions>
          <ns3:TrackPointExtension>
            <ns3:atemp>20.0</ns3:atemp>
          </ns3:TrackPointExtension>
        </extensions>
      </trkpt>
      <trkpt lat="42.59211366064846515655517578125" lon="20.10019632987678050994873046875">
        <ele>1859.4000244140625</ele>
        <time>2026-06-15T09:24:16.000Z</time>
        <extensions>
          <ns3:TrackPointExtension>
            <ns3:atemp>20.0</ns3:atemp>
          </ns3:TrackPointExtension>
        </extensions>
      </trkpt>
      <trkpt lat="42.59211366064846515655517578125" lon="20.10019632987678050994873046875">
        <ele>1859.4000244140625</ele>
        <time>2026-06-15T09:24:17.000Z</time>
        <extensions>
          <ns3:TrackPointExtension>
            <ns3:atemp>20.0</ns3:atemp>
          </ns3:TrackPointExtension>
        </extensions>
      </trkpt>
      <trkpt lat="42.59211366064846515655517578125" lon="20.10019632987678050994873046875">
        <ele>1859.4000244140625</ele>
        <time>2026-06-15T09:24:18.000Z</time>
        <extensions>
          <ns3:TrackPointExtension>
            <ns3:atemp>20.0</ns3:atemp>
          </ns3:TrackPointExtension>
        </extensions>
      </trkpt>
      <trkpt lat="42.59211366064846515655517578125" lon="20.10019632987678050994873046875">
        <ele>1859.4000244140625</ele>
        <time>2026-06-15T09:24:19.000Z</time>
        <extensions>
          <ns3:TrackPointExtension>
            <ns3:atemp>20.0</ns3:atemp>
          </ns3:TrackPointExtension>
        </extensions>
      </trkpt>
      <trkpt lat="42.59211366064846515655517578125" lon="20.10019632987678050994873046875">
        <ele>1859.4000244140625</ele>
        <time>2026-06-15T09:24:20.000Z</time>
        <extensions>
          <ns3:TrackPointExtension>
            <ns3:atemp>20.0</ns3:atemp>
          </ns3:TrackPointExtension>
        </extensions>
      </trkpt>
      <trkpt lat="42.59211366064846515655517578125" lon="20.10019632987678050994873046875">
        <ele>1859.4000244140625</ele>
        <time>2026-06-15T09:24:21.000Z</time>
        <extensions>
          <ns3:TrackPointExtension>
            <ns3:atemp>20.0</ns3:atemp>
          </ns3:TrackPointExtension>
        </extensions>
      </trkpt>
      <trkpt lat="42.59211366064846515655517578125" lon="20.10019632987678050994873046875">
        <ele>1859.4000244140625</ele>
        <time>2026-06-15T09:24:22.000Z</time>
        <extensions>
          <ns3:TrackPointExtension>
            <ns3:atemp>20.0</ns3:atemp>
          </ns3:TrackPointExtension>
        </extensions>
      </trkpt>
      <trkpt lat="42.59211366064846515655517578125" lon="20.10019632987678050994873046875">
        <ele>1859.4000244140625</ele>
        <time>2026-06-15T09:24:23.000Z</time>
        <extensions>
          <ns3:TrackPointExtension>
            <ns3:atemp>20.0</ns3:atemp>
          </ns3:TrackPointExtension>
        </extensions>
      </trkpt>
      <trkpt lat="42.59211366064846515655517578125" lon="20.10019632987678050994873046875">
        <ele>1859.4000244140625</ele>
        <time>2026-06-15T09:24:24.000Z</time>
        <extensions>
          <ns3:TrackPointExtension>
            <ns3:atemp>20.0</ns3:atemp>
          </ns3:TrackPointExtension>
        </extensions>
      </trkpt>
      <trkpt lat="42.59211366064846515655517578125" lon="20.10019632987678050994873046875">
        <ele>1859.4000244140625</ele>
        <time>2026-06-15T09:24:25.000Z</time>
        <extensions>
          <ns3:TrackPointExtension>
            <ns3:atemp>20.0</ns3:atemp>
          </ns3:TrackPointExtension>
        </extensions>
      </trkpt>
      <trkpt lat="42.59211366064846515655517578125" lon="20.10019632987678050994873046875">
        <ele>1859.4000244140625</ele>
        <time>2026-06-15T09:24:26.000Z</time>
        <extensions>
          <ns3:TrackPointExtension>
            <ns3:atemp>20.0</ns3:atemp>
          </ns3:TrackPointExtension>
        </extensions>
      </trkpt>
      <trkpt lat="42.59211366064846515655517578125" lon="20.10019632987678050994873046875">
        <ele>1859.4000244140625</ele>
        <time>2026-06-15T09:24:27.000Z</time>
        <extensions>
          <ns3:TrackPointExtension>
            <ns3:atemp>20.0</ns3:atemp>
          </ns3:TrackPointExtension>
        </extensions>
      </trkpt>
      <trkpt lat="42.59211366064846515655517578125" lon="20.10019632987678050994873046875">
        <ele>1859.4000244140625</ele>
        <time>2026-06-15T09:24:28.000Z</time>
        <extensions>
          <ns3:TrackPointExtension>
            <ns3:atemp>20.0</ns3:atemp>
          </ns3:TrackPointExtension>
        </extensions>
      </trkpt>
      <trkpt lat="42.59211366064846515655517578125" lon="20.10019632987678050994873046875">
        <ele>1859.4000244140625</ele>
        <time>2026-06-15T09:24:29.000Z</time>
        <extensions>
          <ns3:TrackPointExtension>
            <ns3:atemp>20.0</ns3:atemp>
          </ns3:TrackPointExtension>
        </extensions>
      </trkpt>
      <trkpt lat="42.59211366064846515655517578125" lon="20.10019632987678050994873046875">
        <ele>1859.4000244140625</ele>
        <time>2026-06-15T09:24:30.000Z</time>
        <extensions>
          <ns3:TrackPointExtension>
            <ns3:atemp>20.0</ns3:atemp>
          </ns3:TrackPointExtension>
        </extensions>
      </trkpt>
      <trkpt lat="42.59211366064846515655517578125" lon="20.10019632987678050994873046875">
        <ele>1859.4000244140625</ele>
        <time>2026-06-15T09:24:31.000Z</time>
        <extensions>
          <ns3:TrackPointExtension>
            <ns3:atemp>20.0</ns3:atemp>
          </ns3:TrackPointExtension>
        </extensions>
      </trkpt>
      <trkpt lat="42.59211366064846515655517578125" lon="20.10019632987678050994873046875">
        <ele>1859.4000244140625</ele>
        <time>2026-06-15T09:24:32.000Z</time>
        <extensions>
          <ns3:TrackPointExtension>
            <ns3:atemp>20.0</ns3:atemp>
          </ns3:TrackPointExtension>
        </extensions>
      </trkpt>
      <trkpt lat="42.59211366064846515655517578125" lon="20.10019632987678050994873046875">
        <ele>1859.4000244140625</ele>
        <time>2026-06-15T09:24:33.000Z</time>
        <extensions>
          <ns3:TrackPointExtension>
            <ns3:atemp>20.0</ns3:atemp>
          </ns3:TrackPointExtension>
        </extensions>
      </trkpt>
      <trkpt lat="42.59211366064846515655517578125" lon="20.10019632987678050994873046875">
        <ele>1859.4000244140625</ele>
        <time>2026-06-15T09:24:34.000Z</time>
        <extensions>
          <ns3:TrackPointExtension>
            <ns3:atemp>20.0</ns3:atemp>
          </ns3:TrackPointExtension>
        </extensions>
      </trkpt>
      <trkpt lat="42.59211366064846515655517578125" lon="20.10019632987678050994873046875">
        <ele>1859.4000244140625</ele>
        <time>2026-06-15T09:24:35.000Z</time>
        <extensions>
          <ns3:TrackPointExtension>
            <ns3:atemp>20.0</ns3:atemp>
          </ns3:TrackPointExtension>
        </extensions>
      </trkpt>
      <trkpt lat="42.59211366064846515655517578125" lon="20.10019632987678050994873046875">
        <ele>1859.4000244140625</ele>
        <time>2026-06-15T09:24:36.000Z</time>
        <extensions>
          <ns3:TrackPointExtension>
            <ns3:atemp>20.0</ns3:atemp>
          </ns3:TrackPointExtension>
        </extensions>
      </trkpt>
      <trkpt lat="42.59211366064846515655517578125" lon="20.10019632987678050994873046875">
        <ele>1859.4000244140625</ele>
        <time>2026-06-15T09:24:37.000Z</time>
        <extensions>
          <ns3:TrackPointExtension>
            <ns3:atemp>20.0</ns3:atemp>
          </ns3:TrackPointExtension>
        </extensions>
      </trkpt>
      <trkpt lat="42.59211366064846515655517578125" lon="20.10019632987678050994873046875">
        <ele>1859.4000244140625</ele>
        <time>2026-06-15T09:24:38.000Z</time>
        <extensions>
          <ns3:TrackPointExtension>
            <ns3:atemp>20.0</ns3:atemp>
          </ns3:TrackPointExtension>
        </extensions>
      </trkpt>
      <trkpt lat="42.59211366064846515655517578125" lon="20.10019632987678050994873046875">
        <ele>1859.4000244140625</ele>
        <time>2026-06-15T09:24:39.000Z</time>
        <extensions>
          <ns3:TrackPointExtension>
            <ns3:atemp>20.0</ns3:atemp>
          </ns3:TrackPointExtension>
        </extensions>
      </trkpt>
      <trkpt lat="42.59211366064846515655517578125" lon="20.10019632987678050994873046875">
        <ele>1859.4000244140625</ele>
        <time>2026-06-15T09:24:40.000Z</time>
        <extensions>
          <ns3:TrackPointExtension>
            <ns3:atemp>20.0</ns3:atemp>
          </ns3:TrackPointExtension>
        </extensions>
      </trkpt>
      <trkpt lat="42.59211366064846515655517578125" lon="20.10019632987678050994873046875">
        <ele>1859.4000244140625</ele>
        <time>2026-06-15T09:24:41.000Z</time>
        <extensions>
          <ns3:TrackPointExtension>
            <ns3:atemp>20.0</ns3:atemp>
          </ns3:TrackPointExtension>
        </extensions>
      </trkpt>
      <trkpt lat="42.59211366064846515655517578125" lon="20.10019632987678050994873046875">
        <ele>1859.4000244140625</ele>
        <time>2026-06-15T09:24:42.000Z</time>
        <extensions>
          <ns3:TrackPointExtension>
            <ns3:atemp>20.0</ns3:atemp>
          </ns3:TrackPointExtension>
        </extensions>
      </trkpt>
      <trkpt lat="42.59211366064846515655517578125" lon="20.10019632987678050994873046875">
        <ele>1859.4000244140625</ele>
        <time>2026-06-15T09:24:43.000Z</time>
        <extensions>
          <ns3:TrackPointExtension>
            <ns3:atemp>20.0</ns3:atemp>
          </ns3:TrackPointExtension>
        </extensions>
      </trkpt>
      <trkpt lat="42.59211366064846515655517578125" lon="20.10019632987678050994873046875">
        <ele>1859.4000244140625</ele>
        <time>2026-06-15T09:24:44.000Z</time>
        <extensions>
          <ns3:TrackPointExtension>
            <ns3:atemp>20.0</ns3:atemp>
          </ns3:TrackPointExtension>
        </extensions>
      </trkpt>
      <trkpt lat="42.59211366064846515655517578125" lon="20.10019632987678050994873046875">
        <ele>1859.4000244140625</ele>
        <time>2026-06-15T09:24:45.000Z</time>
        <extensions>
          <ns3:TrackPointExtension>
            <ns3:atemp>20.0</ns3:atemp>
          </ns3:TrackPointExtension>
        </extensions>
      </trkpt>
      <trkpt lat="42.59211366064846515655517578125" lon="20.10019632987678050994873046875">
        <ele>1859.4000244140625</ele>
        <time>2026-06-15T09:24:46.000Z</time>
        <extensions>
          <ns3:TrackPointExtension>
            <ns3:atemp>20.0</ns3:atemp>
          </ns3:TrackPointExtension>
        </extensions>
      </trkpt>
      <trkpt lat="42.59211366064846515655517578125" lon="20.10019632987678050994873046875">
        <ele>1859.4000244140625</ele>
        <time>2026-06-15T09:24:47.000Z</time>
        <extensions>
          <ns3:TrackPointExtension>
            <ns3:atemp>20.0</ns3:atemp>
          </ns3:TrackPointExtension>
        </extensions>
      </trkpt>
      <trkpt lat="42.59211366064846515655517578125" lon="20.10019632987678050994873046875">
        <ele>1859.4000244140625</ele>
        <time>2026-06-15T09:24:48.000Z</time>
        <extensions>
          <ns3:TrackPointExtension>
            <ns3:atemp>20.0</ns3:atemp>
          </ns3:TrackPointExtension>
        </extensions>
      </trkpt>
      <trkpt lat="42.59211366064846515655517578125" lon="20.10019632987678050994873046875">
        <ele>1859.4000244140625</ele>
        <time>2026-06-15T09:24:49.000Z</time>
        <extensions>
          <ns3:TrackPointExtension>
            <ns3:atemp>20.0</ns3:atemp>
          </ns3:TrackPointExtension>
        </extensions>
      </trkpt>
      <trkpt lat="42.59211366064846515655517578125" lon="20.10019632987678050994873046875">
        <ele>1859.4000244140625</ele>
        <time>2026-06-15T09:24:50.000Z</time>
        <extensions>
          <ns3:TrackPointExtension>
            <ns3:atemp>20.0</ns3:atemp>
          </ns3:TrackPointExtension>
        </extensions>
      </trkpt>
      <trkpt lat="42.59211366064846515655517578125" lon="20.10019632987678050994873046875">
        <ele>1859.4000244140625</ele>
        <time>2026-06-15T09:24:51.000Z</time>
        <extensions>
          <ns3:TrackPointExtension>
            <ns3:atemp>20.0</ns3:atemp>
          </ns3:TrackPointExtension>
        </extensions>
      </trkpt>
      <trkpt lat="42.59211366064846515655517578125" lon="20.10019632987678050994873046875">
        <ele>1859.4000244140625</ele>
        <time>2026-06-15T09:24:52.000Z</time>
        <extensions>
          <ns3:TrackPointExtension>
            <ns3:atemp>20.0</ns3:atemp>
          </ns3:TrackPointExtension>
        </extensions>
      </trkpt>
      <trkpt lat="42.59211366064846515655517578125" lon="20.10019632987678050994873046875">
        <ele>1859.4000244140625</ele>
        <time>2026-06-15T09:24:53.000Z</time>
        <extensions>
          <ns3:TrackPointExtension>
            <ns3:atemp>20.0</ns3:atemp>
          </ns3:TrackPointExtension>
        </extensions>
      </trkpt>
      <trkpt lat="42.59211366064846515655517578125" lon="20.10019632987678050994873046875">
        <ele>1859.4000244140625</ele>
        <time>2026-06-15T09:24:54.000Z</time>
        <extensions>
          <ns3:TrackPointExtension>
            <ns3:atemp>20.0</ns3:atemp>
          </ns3:TrackPointExtension>
        </extensions>
      </trkpt>
      <trkpt lat="42.59211366064846515655517578125" lon="20.10019632987678050994873046875">
        <ele>1859.4000244140625</ele>
        <time>2026-06-15T09:24:55.000Z</time>
        <extensions>
          <ns3:TrackPointExtension>
            <ns3:atemp>20.0</ns3:atemp>
          </ns3:TrackPointExtension>
        </extensions>
      </trkpt>
      <trkpt lat="42.59211366064846515655517578125" lon="20.10019632987678050994873046875">
        <ele>1859.4000244140625</ele>
        <time>2026-06-15T09:24:56.000Z</time>
        <extensions>
          <ns3:TrackPointExtension>
            <ns3:atemp>20.0</ns3:atemp>
          </ns3:TrackPointExtension>
        </extensions>
      </trkpt>
      <trkpt lat="42.59211366064846515655517578125" lon="20.10019632987678050994873046875">
        <ele>1859.4000244140625</ele>
        <time>2026-06-15T09:24:57.000Z</time>
        <extensions>
          <ns3:TrackPointExtension>
            <ns3:atemp>20.0</ns3:atemp>
          </ns3:TrackPointExtension>
        </extensions>
      </trkpt>
      <trkpt lat="42.59211366064846515655517578125" lon="20.10019632987678050994873046875">
        <ele>1859.4000244140625</ele>
        <time>2026-06-15T09:24:58.000Z</time>
        <extensions>
          <ns3:TrackPointExtension>
            <ns3:atemp>20.0</ns3:atemp>
          </ns3:TrackPointExtension>
        </extensions>
      </trkpt>
      <trkpt lat="42.59211366064846515655517578125" lon="20.10019632987678050994873046875">
        <ele>1859.4000244140625</ele>
        <time>2026-06-15T09:24:59.000Z</time>
        <extensions>
          <ns3:TrackPointExtension>
            <ns3:atemp>20.0</ns3:atemp>
          </ns3:TrackPointExtension>
        </extensions>
      </trkpt>
      <trkpt lat="42.59211366064846515655517578125" lon="20.10019632987678050994873046875">
        <ele>1859.4000244140625</ele>
        <time>2026-06-15T09:25:00.000Z</time>
        <extensions>
          <ns3:TrackPointExtension>
            <ns3:atemp>20.0</ns3:atemp>
          </ns3:TrackPointExtension>
        </extensions>
      </trkpt>
      <trkpt lat="42.59211366064846515655517578125" lon="20.10019632987678050994873046875">
        <ele>1859.4000244140625</ele>
        <time>2026-06-15T09:25:01.000Z</time>
        <extensions>
          <ns3:TrackPointExtension>
            <ns3:atemp>20.0</ns3:atemp>
          </ns3:TrackPointExtension>
        </extensions>
      </trkpt>
      <trkpt lat="42.59211366064846515655517578125" lon="20.10019632987678050994873046875">
        <ele>1859.4000244140625</ele>
        <time>2026-06-15T09:25:02.000Z</time>
        <extensions>
          <ns3:TrackPointExtension>
            <ns3:atemp>20.0</ns3:atemp>
          </ns3:TrackPointExtension>
        </extensions>
      </trkpt>
      <trkpt lat="42.59211366064846515655517578125" lon="20.10019632987678050994873046875">
        <ele>1859.4000244140625</ele>
        <time>2026-06-15T09:25:03.000Z</time>
        <extensions>
          <ns3:TrackPointExtension>
            <ns3:atemp>20.0</ns3:atemp>
          </ns3:TrackPointExtension>
        </extensions>
      </trkpt>
      <trkpt lat="42.59211366064846515655517578125" lon="20.10019632987678050994873046875">
        <ele>1859.4000244140625</ele>
        <time>2026-06-15T09:25:04.000Z</time>
        <extensions>
          <ns3:TrackPointExtension>
            <ns3:atemp>20.0</ns3:atemp>
          </ns3:TrackPointExtension>
        </extensions>
      </trkpt>
      <trkpt lat="42.59211366064846515655517578125" lon="20.10019632987678050994873046875">
        <ele>1859.4000244140625</ele>
        <time>2026-06-15T09:25:05.000Z</time>
        <extensions>
          <ns3:TrackPointExtension>
            <ns3:atemp>20.0</ns3:atemp>
          </ns3:TrackPointExtension>
        </extensions>
      </trkpt>
      <trkpt lat="42.59211366064846515655517578125" lon="20.10019632987678050994873046875">
        <ele>1859.4000244140625</ele>
        <time>2026-06-15T09:25:06.000Z</time>
        <extensions>
          <ns3:TrackPointExtension>
            <ns3:atemp>20.0</ns3:atemp>
          </ns3:TrackPointExtension>
        </extensions>
      </trkpt>
      <trkpt lat="42.59211366064846515655517578125" lon="20.10019632987678050994873046875">
        <ele>1859.4000244140625</ele>
        <time>2026-06-15T09:25:07.000Z</time>
        <extensions>
          <ns3:TrackPointExtension>
            <ns3:atemp>20.0</ns3:atemp>
          </ns3:TrackPointExtension>
        </extensions>
      </trkpt>
      <trkpt lat="42.59211366064846515655517578125" lon="20.10019632987678050994873046875">
        <ele>1859.4000244140625</ele>
        <time>2026-06-15T09:25:08.000Z</time>
        <extensions>
          <ns3:TrackPointExtension>
            <ns3:atemp>20.0</ns3:atemp>
          </ns3:TrackPointExtension>
        </extensions>
      </trkpt>
      <trkpt lat="42.59211366064846515655517578125" lon="20.10019632987678050994873046875">
        <ele>1859.4000244140625</ele>
        <time>2026-06-15T09:25:09.000Z</time>
        <extensions>
          <ns3:TrackPointExtension>
            <ns3:atemp>20.0</ns3:atemp>
          </ns3:TrackPointExtension>
        </extensions>
      </trkpt>
      <trkpt lat="42.59211366064846515655517578125" lon="20.10019632987678050994873046875">
        <ele>1859.4000244140625</ele>
        <time>2026-06-15T09:25:10.000Z</time>
        <extensions>
          <ns3:TrackPointExtension>
            <ns3:atemp>20.0</ns3:atemp>
          </ns3:TrackPointExtension>
        </extensions>
      </trkpt>
      <trkpt lat="42.59211366064846515655517578125" lon="20.10019632987678050994873046875">
        <ele>1859.4000244140625</ele>
        <time>2026-06-15T09:25:11.000Z</time>
        <extensions>
          <ns3:TrackPointExtension>
            <ns3:atemp>20.0</ns3:atemp>
          </ns3:TrackPointExtension>
        </extensions>
      </trkpt>
      <trkpt lat="42.59211366064846515655517578125" lon="20.10019632987678050994873046875">
        <ele>1859.4000244140625</ele>
        <time>2026-06-15T09:25:12.000Z</time>
        <extensions>
          <ns3:TrackPointExtension>
            <ns3:atemp>20.0</ns3:atemp>
          </ns3:TrackPointExtension>
        </extensions>
      </trkpt>
      <trkpt lat="42.59211366064846515655517578125" lon="20.10019632987678050994873046875">
        <ele>1859.4000244140625</ele>
        <time>2026-06-15T09:25:13.000Z</time>
        <extensions>
          <ns3:TrackPointExtension>
            <ns3:atemp>20.0</ns3:atemp>
          </ns3:TrackPointExtension>
        </extensions>
      </trkpt>
      <trkpt lat="42.59211366064846515655517578125" lon="20.10019632987678050994873046875">
        <ele>1859.4000244140625</ele>
        <time>2026-06-15T09:25:14.000Z</time>
        <extensions>
          <ns3:TrackPointExtension>
            <ns3:atemp>20.0</ns3:atemp>
          </ns3:TrackPointExtension>
        </extensions>
      </trkpt>
      <trkpt lat="42.59211366064846515655517578125" lon="20.10019632987678050994873046875">
        <ele>1859.4000244140625</ele>
        <time>2026-06-15T09:25:15.000Z</time>
        <extensions>
          <ns3:TrackPointExtension>
            <ns3:atemp>20.0</ns3:atemp>
          </ns3:TrackPointExtension>
        </extensions>
      </trkpt>
      <trkpt lat="42.59211366064846515655517578125" lon="20.10019632987678050994873046875">
        <ele>1859.4000244140625</ele>
        <time>2026-06-15T09:25:16.000Z</time>
        <extensions>
          <ns3:TrackPointExtension>
            <ns3:atemp>20.0</ns3:atemp>
          </ns3:TrackPointExtension>
        </extensions>
      </trkpt>
      <trkpt lat="42.59211366064846515655517578125" lon="20.10019632987678050994873046875">
        <ele>1859.4000244140625</ele>
        <time>2026-06-15T09:25:17.000Z</time>
        <extensions>
          <ns3:TrackPointExtension>
            <ns3:atemp>20.0</ns3:atemp>
          </ns3:TrackPointExtension>
        </extensions>
      </trkpt>
      <trkpt lat="42.59211366064846515655517578125" lon="20.10019632987678050994873046875">
        <ele>1859.4000244140625</ele>
        <time>2026-06-15T09:25:18.000Z</time>
        <extensions>
          <ns3:TrackPointExtension>
            <ns3:atemp>20.0</ns3:atemp>
          </ns3:TrackPointExtension>
        </extensions>
      </trkpt>
      <trkpt lat="42.59211366064846515655517578125" lon="20.10019632987678050994873046875">
        <ele>1859.4000244140625</ele>
        <time>2026-06-15T09:25:19.000Z</time>
        <extensions>
          <ns3:TrackPointExtension>
            <ns3:atemp>20.0</ns3:atemp>
          </ns3:TrackPointExtension>
        </extensions>
      </trkpt>
      <trkpt lat="42.59211366064846515655517578125" lon="20.10019632987678050994873046875">
        <ele>1859.4000244140625</ele>
        <time>2026-06-15T09:25:20.000Z</time>
        <extensions>
          <ns3:TrackPointExtension>
            <ns3:atemp>20.0</ns3:atemp>
          </ns3:TrackPointExtension>
        </extensions>
      </trkpt>
      <trkpt lat="42.59211366064846515655517578125" lon="20.10019632987678050994873046875">
        <ele>1859.4000244140625</ele>
        <time>2026-06-15T09:25:21.000Z</time>
        <extensions>
          <ns3:TrackPointExtension>
            <ns3:atemp>20.0</ns3:atemp>
          </ns3:TrackPointExtension>
        </extensions>
      </trkpt>
      <trkpt lat="42.59211366064846515655517578125" lon="20.10019632987678050994873046875">
        <ele>1859.4000244140625</ele>
        <time>2026-06-15T09:25:22.000Z</time>
        <extensions>
          <ns3:TrackPointExtension>
            <ns3:atemp>20.0</ns3:atemp>
          </ns3:TrackPointExtension>
        </extensions>
      </trkpt>
      <trkpt lat="42.59211366064846515655517578125" lon="20.10019632987678050994873046875">
        <ele>1859.4000244140625</ele>
        <time>2026-06-15T09:25:23.000Z</time>
        <extensions>
          <ns3:TrackPointExtension>
            <ns3:atemp>20.0</ns3:atemp>
          </ns3:TrackPointExtension>
        </extensions>
      </trkpt>
      <trkpt lat="42.59211366064846515655517578125" lon="20.10019632987678050994873046875">
        <ele>1859.4000244140625</ele>
        <time>2026-06-15T09:25:24.000Z</time>
        <extensions>
          <ns3:TrackPointExtension>
            <ns3:atemp>20.0</ns3:atemp>
          </ns3:TrackPointExtension>
        </extensions>
      </trkpt>
      <trkpt lat="42.59211366064846515655517578125" lon="20.10019632987678050994873046875">
        <ele>1859.4000244140625</ele>
        <time>2026-06-15T09:25:25.000Z</time>
        <extensions>
          <ns3:TrackPointExtension>
            <ns3:atemp>20.0</ns3:atemp>
          </ns3:TrackPointExtension>
        </extensions>
      </trkpt>
      <trkpt lat="42.59211366064846515655517578125" lon="20.10019632987678050994873046875">
        <ele>1859.4000244140625</ele>
        <time>2026-06-15T09:25:26.000Z</time>
        <extensions>
          <ns3:TrackPointExtension>
            <ns3:atemp>20.0</ns3:atemp>
          </ns3:TrackPointExtension>
        </extensions>
      </trkpt>
      <trkpt lat="42.59211366064846515655517578125" lon="20.10019632987678050994873046875">
        <ele>1859.4000244140625</ele>
        <time>2026-06-15T09:25:27.000Z</time>
        <extensions>
          <ns3:TrackPointExtension>
            <ns3:atemp>20.0</ns3:atemp>
          </ns3:TrackPointExtension>
        </extensions>
      </trkpt>
      <trkpt lat="42.59211366064846515655517578125" lon="20.10019632987678050994873046875">
        <ele>1859.4000244140625</ele>
        <time>2026-06-15T09:25:28.000Z</time>
        <extensions>
          <ns3:TrackPointExtension>
            <ns3:atemp>20.0</ns3:atemp>
          </ns3:TrackPointExtension>
        </extensions>
      </trkpt>
      <trkpt lat="42.59211366064846515655517578125" lon="20.10019632987678050994873046875">
        <ele>1859.4000244140625</ele>
        <time>2026-06-15T09:25:29.000Z</time>
        <extensions>
          <ns3:TrackPointExtension>
            <ns3:atemp>20.0</ns3:atemp>
          </ns3:TrackPointExtension>
        </extensions>
      </trkpt>
      <trkpt lat="42.59211366064846515655517578125" lon="20.10019632987678050994873046875">
        <ele>1859.4000244140625</ele>
        <time>2026-06-15T09:25:30.000Z</time>
        <extensions>
          <ns3:TrackPointExtension>
            <ns3:atemp>20.0</ns3:atemp>
          </ns3:TrackPointExtension>
        </extensions>
      </trkpt>
      <trkpt lat="42.59211366064846515655517578125" lon="20.10019632987678050994873046875">
        <ele>1859.4000244140625</ele>
        <time>2026-06-15T09:25:31.000Z</time>
        <extensions>
          <ns3:TrackPointExtension>
            <ns3:atemp>20.0</ns3:atemp>
          </ns3:TrackPointExtension>
        </extensions>
      </trkpt>
      <trkpt lat="42.59211366064846515655517578125" lon="20.10019632987678050994873046875">
        <ele>1859.4000244140625</ele>
        <time>2026-06-15T09:25:32.000Z</time>
        <extensions>
          <ns3:TrackPointExtension>
            <ns3:atemp>20.0</ns3:atemp>
          </ns3:TrackPointExtension>
        </extensions>
      </trkpt>
      <trkpt lat="42.59211366064846515655517578125" lon="20.10019632987678050994873046875">
        <ele>1859.4000244140625</ele>
        <time>2026-06-15T09:25:33.000Z</time>
        <extensions>
          <ns3:TrackPointExtension>
            <ns3:atemp>20.0</ns3:atemp>
          </ns3:TrackPointExtension>
        </extensions>
      </trkpt>
      <trkpt lat="42.59211366064846515655517578125" lon="20.10019632987678050994873046875">
        <ele>1859.4000244140625</ele>
        <time>2026-06-15T09:25:34.000Z</time>
        <extensions>
          <ns3:TrackPointExtension>
            <ns3:atemp>20.0</ns3:atemp>
          </ns3:TrackPointExtension>
        </extensions>
      </trkpt>
      <trkpt lat="42.59211366064846515655517578125" lon="20.10019632987678050994873046875">
        <ele>1859.4000244140625</ele>
        <time>2026-06-15T09:25:35.000Z</time>
        <extensions>
          <ns3:TrackPointExtension>
            <ns3:atemp>20.0</ns3:atemp>
          </ns3:TrackPointExtension>
        </extensions>
      </trkpt>
      <trkpt lat="42.59211366064846515655517578125" lon="20.10019632987678050994873046875">
        <ele>1859.4000244140625</ele>
        <time>2026-06-15T09:25:36.000Z</time>
        <extensions>
          <ns3:TrackPointExtension>
            <ns3:atemp>20.0</ns3:atemp>
          </ns3:TrackPointExtension>
        </extensions>
      </trkpt>
      <trkpt lat="42.59211366064846515655517578125" lon="20.10019632987678050994873046875">
        <ele>1859.4000244140625</ele>
        <time>2026-06-15T09:25:37.000Z</time>
        <extensions>
          <ns3:TrackPointExtension>
            <ns3:atemp>20.0</ns3:atemp>
          </ns3:TrackPointExtension>
        </extensions>
      </trkpt>
      <trkpt lat="42.59211366064846515655517578125" lon="20.10019632987678050994873046875">
        <ele>1859.4000244140625</ele>
        <time>2026-06-15T09:25:38.000Z</time>
        <extensions>
          <ns3:TrackPointExtension>
            <ns3:atemp>20.0</ns3:atemp>
          </ns3:TrackPointExtension>
        </extensions>
      </trkpt>
      <trkpt lat="42.59211466647684574127197265625" lon="20.10019565932452678680419921875">
        <ele>1859.4000244140625</ele>
        <time>2026-06-15T09:25:39.000Z</time>
        <extensions>
          <ns3:TrackPointExtension>
            <ns3:atemp>20.0</ns3:atemp>
          </ns3:TrackPointExtension>
        </extensions>
      </trkpt>
      <trkpt lat="42.59211667813360691070556640625" lon="20.10019213892519474029541015625">
        <ele>1859.4000244140625</ele>
        <time>2026-06-15T09:25:40.000Z</time>
        <extensions>
          <ns3:TrackPointExtension>
            <ns3:atemp>20.0</ns3:atemp>
          </ns3:TrackPointExtension>
        </extensions>
      </trkpt>
      <trkpt lat="42.592119276523590087890625" lon="20.100192725658416748046875">
        <ele>1859.4000244140625</ele>
        <time>2026-06-15T09:25:41.000Z</time>
        <extensions>
          <ns3:TrackPointExtension>
            <ns3:atemp>20.0</ns3:atemp>
          </ns3:TrackPointExtension>
        </extensions>
      </trkpt>
      <trkpt lat="42.59211366064846515655517578125" lon="20.10019632987678050994873046875">
        <ele>1859.4000244140625</ele>
        <time>2026-06-15T09:25:42.000Z</time>
        <extensions>
          <ns3:TrackPointExtension>
            <ns3:atemp>20.0</ns3:atemp>
          </ns3:TrackPointExtension>
        </extensions>
      </trkpt>
      <trkpt lat="42.59211366064846515655517578125" lon="20.10019632987678050994873046875">
        <ele>1859.4000244140625</ele>
        <time>2026-06-15T09:25:43.000Z</time>
        <extensions>
          <ns3:TrackPointExtension>
            <ns3:atemp>20.0</ns3:atemp>
          </ns3:TrackPointExtension>
        </extensions>
      </trkpt>
      <trkpt lat="42.59211366064846515655517578125" lon="20.10019632987678050994873046875">
        <ele>1859.4000244140625</ele>
        <time>2026-06-15T09:25:44.000Z</time>
        <extensions>
          <ns3:TrackPointExtension>
            <ns3:atemp>20.0</ns3:atemp>
          </ns3:TrackPointExtension>
        </extensions>
      </trkpt>
      <trkpt lat="42.59211366064846515655517578125" lon="20.10019632987678050994873046875">
        <ele>1859.4000244140625</ele>
        <time>2026-06-15T09:25:45.000Z</time>
        <extensions>
          <ns3:TrackPointExtension>
            <ns3:atemp>20.0</ns3:atemp>
          </ns3:TrackPointExtension>
        </extensions>
      </trkpt>
      <trkpt lat="42.59211366064846515655517578125" lon="20.10019632987678050994873046875">
        <ele>1859.4000244140625</ele>
        <time>2026-06-15T09:25:46.000Z</time>
        <extensions>
          <ns3:TrackPointExtension>
            <ns3:atemp>20.0</ns3:atemp>
          </ns3:TrackPointExtension>
        </extensions>
      </trkpt>
      <trkpt lat="42.59211366064846515655517578125" lon="20.10019632987678050994873046875">
        <ele>1859.4000244140625</ele>
        <time>2026-06-15T09:25:47.000Z</time>
        <extensions>
          <ns3:TrackPointExtension>
            <ns3:atemp>20.0</ns3:atemp>
          </ns3:TrackPointExtension>
        </extensions>
      </trkpt>
      <trkpt lat="42.59211366064846515655517578125" lon="20.10019632987678050994873046875">
        <ele>1859.4000244140625</ele>
        <time>2026-06-15T09:25:48.000Z</time>
        <extensions>
          <ns3:TrackPointExtension>
            <ns3:atemp>20.0</ns3:atemp>
          </ns3:TrackPointExtension>
        </extensions>
      </trkpt>
      <trkpt lat="42.59211366064846515655517578125" lon="20.10019632987678050994873046875">
        <ele>1859.4000244140625</ele>
        <time>2026-06-15T09:25:49.000Z</time>
        <extensions>
          <ns3:TrackPointExtension>
            <ns3:atemp>20.0</ns3:atemp>
          </ns3:TrackPointExtension>
        </extensions>
      </trkpt>
      <trkpt lat="42.59211366064846515655517578125" lon="20.10019632987678050994873046875">
        <ele>1859.4000244140625</ele>
        <time>2026-06-15T09:25:50.000Z</time>
        <extensions>
          <ns3:TrackPointExtension>
            <ns3:atemp>20.0</ns3:atemp>
          </ns3:TrackPointExtension>
        </extensions>
      </trkpt>
      <trkpt lat="42.59211366064846515655517578125" lon="20.10019632987678050994873046875">
        <ele>1859.4000244140625</ele>
        <time>2026-06-15T09:25:51.000Z</time>
        <extensions>
          <ns3:TrackPointExtension>
            <ns3:atemp>20.0</ns3:atemp>
          </ns3:TrackPointExtension>
        </extensions>
      </trkpt>
      <trkpt lat="42.59211366064846515655517578125" lon="20.10019632987678050994873046875">
        <ele>1859.4000244140625</ele>
        <time>2026-06-15T09:25:52.000Z</time>
        <extensions>
          <ns3:TrackPointExtension>
            <ns3:atemp>20.0</ns3:atemp>
          </ns3:TrackPointExtension>
        </extensions>
      </trkpt>
      <trkpt lat="42.59211366064846515655517578125" lon="20.10019632987678050994873046875">
        <ele>1859.4000244140625</ele>
        <time>2026-06-15T09:25:53.000Z</time>
        <extensions>
          <ns3:TrackPointExtension>
            <ns3:atemp>20.0</ns3:atemp>
          </ns3:TrackPointExtension>
        </extensions>
      </trkpt>
      <trkpt lat="42.59211366064846515655517578125" lon="20.10019632987678050994873046875">
        <ele>1859.4000244140625</ele>
        <time>2026-06-15T09:25:54.000Z</time>
        <extensions>
          <ns3:TrackPointExtension>
            <ns3:atemp>20.0</ns3:atemp>
          </ns3:TrackPointExtension>
        </extensions>
      </trkpt>
      <trkpt lat="42.59211366064846515655517578125" lon="20.10019632987678050994873046875">
        <ele>1859.4000244140625</ele>
        <time>2026-06-15T09:25:55.000Z</time>
        <extensions>
          <ns3:TrackPointExtension>
            <ns3:atemp>20.0</ns3:atemp>
          </ns3:TrackPointExtension>
        </extensions>
      </trkpt>
      <trkpt lat="42.59211366064846515655517578125" lon="20.10019632987678050994873046875">
        <ele>1859.4000244140625</ele>
        <time>2026-06-15T09:25:56.000Z</time>
        <extensions>
          <ns3:TrackPointExtension>
            <ns3:atemp>20.0</ns3:atemp>
          </ns3:TrackPointExtension>
        </extensions>
      </trkpt>
      <trkpt lat="42.59211366064846515655517578125" lon="20.10019632987678050994873046875">
        <ele>1859.4000244140625</ele>
        <time>2026-06-15T09:25:57.000Z</time>
        <extensions>
          <ns3:TrackPointExtension>
            <ns3:atemp>20.0</ns3:atemp>
          </ns3:TrackPointExtension>
        </extensions>
      </trkpt>
      <trkpt lat="42.59211366064846515655517578125" lon="20.10019632987678050994873046875">
        <ele>1859.4000244140625</ele>
        <time>2026-06-15T09:25:58.000Z</time>
        <extensions>
          <ns3:TrackPointExtension>
            <ns3:atemp>20.0</ns3:atemp>
          </ns3:TrackPointExtension>
        </extensions>
      </trkpt>
      <trkpt lat="42.59211366064846515655517578125" lon="20.10019632987678050994873046875">
        <ele>1859.4000244140625</ele>
        <time>2026-06-15T09:25:59.000Z</time>
        <extensions>
          <ns3:TrackPointExtension>
            <ns3:atemp>20.0</ns3:atemp>
          </ns3:TrackPointExtension>
        </extensions>
      </trkpt>
      <trkpt lat="42.59211366064846515655517578125" lon="20.10019632987678050994873046875">
        <ele>1859.4000244140625</ele>
        <time>2026-06-15T09:26:00.000Z</time>
        <extensions>
          <ns3:TrackPointExtension>
            <ns3:atemp>20.0</ns3:atemp>
          </ns3:TrackPointExtension>
        </extensions>
      </trkpt>
      <trkpt lat="42.59211366064846515655517578125" lon="20.10019632987678050994873046875">
        <ele>1859.4000244140625</ele>
        <time>2026-06-15T09:26:01.000Z</time>
        <extensions>
          <ns3:TrackPointExtension>
            <ns3:atemp>20.0</ns3:atemp>
          </ns3:TrackPointExtension>
        </extensions>
      </trkpt>
      <trkpt lat="42.59211366064846515655517578125" lon="20.10019632987678050994873046875">
        <ele>1859.4000244140625</ele>
        <time>2026-06-15T09:26:02.000Z</time>
        <extensions>
          <ns3:TrackPointExtension>
            <ns3:atemp>20.0</ns3:atemp>
          </ns3:TrackPointExtension>
        </extensions>
      </trkpt>
      <trkpt lat="42.59211366064846515655517578125" lon="20.10019632987678050994873046875">
        <ele>1859.4000244140625</ele>
        <time>2026-06-15T09:26:03.000Z</time>
        <extensions>
          <ns3:TrackPointExtension>
            <ns3:atemp>20.0</ns3:atemp>
          </ns3:TrackPointExtension>
        </extensions>
      </trkpt>
      <trkpt lat="42.59211366064846515655517578125" lon="20.10019632987678050994873046875">
        <ele>1859.4000244140625</ele>
        <time>2026-06-15T09:26:04.000Z</time>
        <extensions>
          <ns3:TrackPointExtension>
            <ns3:atemp>20.0</ns3:atemp>
          </ns3:TrackPointExtension>
        </extensions>
      </trkpt>
      <trkpt lat="42.59211366064846515655517578125" lon="20.10019632987678050994873046875">
        <ele>1859.4000244140625</ele>
        <time>2026-06-15T09:26:05.000Z</time>
        <extensions>
          <ns3:TrackPointExtension>
            <ns3:atemp>20.0</ns3:atemp>
          </ns3:TrackPointExtension>
        </extensions>
      </trkpt>
      <trkpt lat="42.59211366064846515655517578125" lon="20.10019632987678050994873046875">
        <ele>1859.4000244140625</ele>
        <time>2026-06-15T09:26:06.000Z</time>
        <extensions>
          <ns3:TrackPointExtension>
            <ns3:atemp>20.0</ns3:atemp>
          </ns3:TrackPointExtension>
        </extensions>
      </trkpt>
      <trkpt lat="42.59211366064846515655517578125" lon="20.10019632987678050994873046875">
        <ele>1859.4000244140625</ele>
        <time>2026-06-15T09:26:07.000Z</time>
        <extensions>
          <ns3:TrackPointExtension>
            <ns3:atemp>20.0</ns3:atemp>
          </ns3:TrackPointExtension>
        </extensions>
      </trkpt>
      <trkpt lat="42.59211366064846515655517578125" lon="20.10019632987678050994873046875">
        <ele>1859.4000244140625</ele>
        <time>2026-06-15T09:26:08.000Z</time>
        <extensions>
          <ns3:TrackPointExtension>
            <ns3:atemp>20.0</ns3:atemp>
          </ns3:TrackPointExtension>
        </extensions>
      </trkpt>
      <trkpt lat="42.59211366064846515655517578125" lon="20.10019632987678050994873046875">
        <ele>1859.4000244140625</ele>
        <time>2026-06-15T09:26:09.000Z</time>
        <extensions>
          <ns3:TrackPointExtension>
            <ns3:atemp>20.0</ns3:atemp>
          </ns3:TrackPointExtension>
        </extensions>
      </trkpt>
      <trkpt lat="42.59211366064846515655517578125" lon="20.10019632987678050994873046875">
        <ele>1859.4000244140625</ele>
        <time>2026-06-15T09:26:10.000Z</time>
        <extensions>
          <ns3:TrackPointExtension>
            <ns3:atemp>20.0</ns3:atemp>
          </ns3:TrackPointExtension>
        </extensions>
      </trkpt>
      <trkpt lat="42.59211366064846515655517578125" lon="20.10019632987678050994873046875">
        <ele>1859.4000244140625</ele>
        <time>2026-06-15T09:26:11.000Z</time>
        <extensions>
          <ns3:TrackPointExtension>
            <ns3:atemp>20.0</ns3:atemp>
          </ns3:TrackPointExtension>
        </extensions>
      </trkpt>
      <trkpt lat="42.59211366064846515655517578125" lon="20.10019632987678050994873046875">
        <ele>1859.4000244140625</ele>
        <time>2026-06-15T09:26:12.000Z</time>
        <extensions>
          <ns3:TrackPointExtension>
            <ns3:atemp>20.0</ns3:atemp>
          </ns3:TrackPointExtension>
        </extensions>
      </trkpt>
      <trkpt lat="42.59211366064846515655517578125" lon="20.10019632987678050994873046875">
        <ele>1859.4000244140625</ele>
        <time>2026-06-15T09:26:13.000Z</time>
        <extensions>
          <ns3:TrackPointExtension>
            <ns3:atemp>20.0</ns3:atemp>
          </ns3:TrackPointExtension>
        </extensions>
      </trkpt>
      <trkpt lat="42.59211366064846515655517578125" lon="20.10019632987678050994873046875">
        <ele>1859.4000244140625</ele>
        <time>2026-06-15T09:26:14.000Z</time>
        <extensions>
          <ns3:TrackPointExtension>
            <ns3:atemp>20.0</ns3:atemp>
          </ns3:TrackPointExtension>
        </extensions>
      </trkpt>
      <trkpt lat="42.59211366064846515655517578125" lon="20.10019632987678050994873046875">
        <ele>1859.4000244140625</ele>
        <time>2026-06-15T09:26:15.000Z</time>
        <extensions>
          <ns3:TrackPointExtension>
            <ns3:atemp>20.0</ns3:atemp>
          </ns3:TrackPointExtension>
        </extensions>
      </trkpt>
      <trkpt lat="42.59211366064846515655517578125" lon="20.10019632987678050994873046875">
        <ele>1859.4000244140625</ele>
        <time>2026-06-15T09:26:16.000Z</time>
        <extensions>
          <ns3:TrackPointExtension>
            <ns3:atemp>20.0</ns3:atemp>
          </ns3:TrackPointExtension>
        </extensions>
      </trkpt>
      <trkpt lat="42.59211366064846515655517578125" lon="20.10019632987678050994873046875">
        <ele>1859.4000244140625</ele>
        <time>2026-06-15T09:26:17.000Z</time>
        <extensions>
          <ns3:TrackPointExtension>
            <ns3:atemp>20.0</ns3:atemp>
          </ns3:TrackPointExtension>
        </extensions>
      </trkpt>
      <trkpt lat="42.59211366064846515655517578125" lon="20.10019632987678050994873046875">
        <ele>1859.4000244140625</ele>
        <time>2026-06-15T09:26:18.000Z</time>
        <extensions>
          <ns3:TrackPointExtension>
            <ns3:atemp>20.0</ns3:atemp>
          </ns3:TrackPointExtension>
        </extensions>
      </trkpt>
      <trkpt lat="42.59211366064846515655517578125" lon="20.10019632987678050994873046875">
        <ele>1859.4000244140625</ele>
        <time>2026-06-15T09:26:19.000Z</time>
        <extensions>
          <ns3:TrackPointExtension>
            <ns3:atemp>21.0</ns3:atemp>
          </ns3:TrackPointExtension>
        </extensions>
      </trkpt>
      <trkpt lat="42.59211366064846515655517578125" lon="20.10019632987678050994873046875">
        <ele>1859.4000244140625</ele>
        <time>2026-06-15T09:26:20.000Z</time>
        <extensions>
          <ns3:TrackPointExtension>
            <ns3:atemp>20.0</ns3:atemp>
          </ns3:TrackPointExtension>
        </extensions>
      </trkpt>
      <trkpt lat="42.59211366064846515655517578125" lon="20.10019632987678050994873046875">
        <ele>1859.4000244140625</ele>
        <time>2026-06-15T09:26:21.000Z</time>
        <extensions>
          <ns3:TrackPointExtension>
            <ns3:atemp>20.0</ns3:atemp>
          </ns3:TrackPointExtension>
        </extensions>
      </trkpt>
      <trkpt lat="42.59211366064846515655517578125" lon="20.10019632987678050994873046875">
        <ele>1859.4000244140625</ele>
        <time>2026-06-15T09:26:22.000Z</time>
        <extensions>
          <ns3:TrackPointExtension>
            <ns3:atemp>20.0</ns3:atemp>
          </ns3:TrackPointExtension>
        </extensions>
      </trkpt>
      <trkpt lat="42.59211366064846515655517578125" lon="20.10019632987678050994873046875">
        <ele>1859.4000244140625</ele>
        <time>2026-06-15T09:26:23.000Z</time>
        <extensions>
          <ns3:TrackPointExtension>
            <ns3:atemp>20.0</ns3:atemp>
          </ns3:TrackPointExtension>
        </extensions>
      </trkpt>
      <trkpt lat="42.59211366064846515655517578125" lon="20.10019632987678050994873046875">
        <ele>1859.4000244140625</ele>
        <time>2026-06-15T09:26:24.000Z</time>
        <extensions>
          <ns3:TrackPointExtension>
            <ns3:atemp>20.0</ns3:atemp>
          </ns3:TrackPointExtension>
        </extensions>
      </trkpt>
      <trkpt lat="42.59211366064846515655517578125" lon="20.10019632987678050994873046875">
        <ele>1859.4000244140625</ele>
        <time>2026-06-15T09:26:25.000Z</time>
        <extensions>
          <ns3:TrackPointExtension>
            <ns3:atemp>20.0</ns3:atemp>
          </ns3:TrackPointExtension>
        </extensions>
      </trkpt>
      <trkpt lat="42.59211366064846515655517578125" lon="20.10019632987678050994873046875">
        <ele>1859.4000244140625</ele>
        <time>2026-06-15T09:26:26.000Z</time>
        <extensions>
          <ns3:TrackPointExtension>
            <ns3:atemp>20.0</ns3:atemp>
          </ns3:TrackPointExtension>
        </extensions>
      </trkpt>
      <trkpt lat="42.59211366064846515655517578125" lon="20.10019632987678050994873046875">
        <ele>1859.4000244140625</ele>
        <time>2026-06-15T09:26:27.000Z</time>
        <extensions>
          <ns3:TrackPointExtension>
            <ns3:atemp>20.0</ns3:atemp>
          </ns3:TrackPointExtension>
        </extensions>
      </trkpt>
      <trkpt lat="42.59211366064846515655517578125" lon="20.10019632987678050994873046875">
        <ele>1859.4000244140625</ele>
        <time>2026-06-15T09:26:28.000Z</time>
        <extensions>
          <ns3:TrackPointExtension>
            <ns3:atemp>20.0</ns3:atemp>
          </ns3:TrackPointExtension>
        </extensions>
      </trkpt>
      <trkpt lat="42.59211366064846515655517578125" lon="20.10019632987678050994873046875">
        <ele>1859.4000244140625</ele>
        <time>2026-06-15T09:26:29.000Z</time>
        <extensions>
          <ns3:TrackPointExtension>
            <ns3:atemp>20.0</ns3:atemp>
          </ns3:TrackPointExtension>
        </extensions>
      </trkpt>
      <trkpt lat="42.59211366064846515655517578125" lon="20.10019632987678050994873046875">
        <ele>1859.4000244140625</ele>
        <time>2026-06-15T09:26:30.000Z</time>
        <extensions>
          <ns3:TrackPointExtension>
            <ns3:atemp>20.0</ns3:atemp>
          </ns3:TrackPointExtension>
        </extensions>
      </trkpt>
      <trkpt lat="42.59211366064846515655517578125" lon="20.10019632987678050994873046875">
        <ele>1859.4000244140625</ele>
        <time>2026-06-15T09:26:31.000Z</time>
        <extensions>
          <ns3:TrackPointExtension>
            <ns3:atemp>20.0</ns3:atemp>
          </ns3:TrackPointExtension>
        </extensions>
      </trkpt>
      <trkpt lat="42.59211366064846515655517578125" lon="20.10019632987678050994873046875">
        <ele>1859.4000244140625</ele>
        <time>2026-06-15T09:26:32.000Z</time>
        <extensions>
          <ns3:TrackPointExtension>
            <ns3:atemp>20.0</ns3:atemp>
          </ns3:TrackPointExtension>
        </extensions>
      </trkpt>
      <trkpt lat="42.59211366064846515655517578125" lon="20.10019632987678050994873046875">
        <ele>1859.4000244140625</ele>
        <time>2026-06-15T09:26:33.000Z</time>
        <extensions>
          <ns3:TrackPointExtension>
            <ns3:atemp>20.0</ns3:atemp>
          </ns3:TrackPointExtension>
        </extensions>
      </trkpt>
      <trkpt lat="42.59211366064846515655517578125" lon="20.10019632987678050994873046875">
        <ele>1859.4000244140625</ele>
        <time>2026-06-15T09:26:34.000Z</time>
        <extensions>
          <ns3:TrackPointExtension>
            <ns3:atemp>20.0</ns3:atemp>
          </ns3:TrackPointExtension>
        </extensions>
      </trkpt>
      <trkpt lat="42.59211366064846515655517578125" lon="20.10019632987678050994873046875">
        <ele>1859.4000244140625</ele>
        <time>2026-06-15T09:26:35.000Z</time>
        <extensions>
          <ns3:TrackPointExtension>
            <ns3:atemp>20.0</ns3:atemp>
          </ns3:TrackPointExtension>
        </extensions>
      </trkpt>
      <trkpt lat="42.59211366064846515655517578125" lon="20.10019632987678050994873046875">
        <ele>1859.4000244140625</ele>
        <time>2026-06-15T09:26:36.000Z</time>
        <extensions>
          <ns3:TrackPointExtension>
            <ns3:atemp>20.0</ns3:atemp>
          </ns3:TrackPointExtension>
        </extensions>
      </trkpt>
      <trkpt lat="42.59211366064846515655517578125" lon="20.10019632987678050994873046875">
        <ele>1859.4000244140625</ele>
        <time>2026-06-15T09:26:37.000Z</time>
        <extensions>
          <ns3:TrackPointExtension>
            <ns3:atemp>20.0</ns3:atemp>
          </ns3:TrackPointExtension>
        </extensions>
      </trkpt>
      <trkpt lat="42.59211366064846515655517578125" lon="20.10019632987678050994873046875">
        <ele>1859.4000244140625</ele>
        <time>2026-06-15T09:26:38.000Z</time>
        <extensions>
          <ns3:TrackPointExtension>
            <ns3:atemp>20.0</ns3:atemp>
          </ns3:TrackPointExtension>
        </extensions>
      </trkpt>
      <trkpt lat="42.59211366064846515655517578125" lon="20.10019632987678050994873046875">
        <ele>1859.4000244140625</ele>
        <time>2026-06-15T09:26:39.000Z</time>
        <extensions>
          <ns3:TrackPointExtension>
            <ns3:atemp>20.0</ns3:atemp>
          </ns3:TrackPointExtension>
        </extensions>
      </trkpt>
      <trkpt lat="42.59211366064846515655517578125" lon="20.10019632987678050994873046875">
        <ele>1859.4000244140625</ele>
        <time>2026-06-15T09:26:40.000Z</time>
        <extensions>
          <ns3:TrackPointExtension>
            <ns3:atemp>20.0</ns3:atemp>
          </ns3:TrackPointExtension>
        </extensions>
      </trkpt>
      <trkpt lat="42.59211366064846515655517578125" lon="20.10019632987678050994873046875">
        <ele>1859.4000244140625</ele>
        <time>2026-06-15T09:26:41.000Z</time>
        <extensions>
          <ns3:TrackPointExtension>
            <ns3:atemp>20.0</ns3:atemp>
          </ns3:TrackPointExtension>
        </extensions>
      </trkpt>
      <trkpt lat="42.59211366064846515655517578125" lon="20.10019632987678050994873046875">
        <ele>1859.4000244140625</ele>
        <time>2026-06-15T09:26:42.000Z</time>
        <extensions>
          <ns3:TrackPointExtension>
            <ns3:atemp>21.0</ns3:atemp>
          </ns3:TrackPointExtension>
        </extensions>
      </trkpt>
      <trkpt lat="42.59211366064846515655517578125" lon="20.10019632987678050994873046875">
        <ele>1859.4000244140625</ele>
        <time>2026-06-15T09:26:43.000Z</time>
        <extensions>
          <ns3:TrackPointExtension>
            <ns3:atemp>20.0</ns3:atemp>
          </ns3:TrackPointExtension>
        </extensions>
      </trkpt>
      <trkpt lat="42.59211366064846515655517578125" lon="20.10019632987678050994873046875">
        <ele>1859.4000244140625</ele>
        <time>2026-06-15T09:26:44.000Z</time>
        <extensions>
          <ns3:TrackPointExtension>
            <ns3:atemp>20.0</ns3:atemp>
          </ns3:TrackPointExtension>
        </extensions>
      </trkpt>
      <trkpt lat="42.59211366064846515655517578125" lon="20.10019632987678050994873046875">
        <ele>1859.4000244140625</ele>
        <time>2026-06-15T09:26:45.000Z</time>
        <extensions>
          <ns3:TrackPointExtension>
            <ns3:atemp>20.0</ns3:atemp>
          </ns3:TrackPointExtension>
        </extensions>
      </trkpt>
      <trkpt lat="42.59211366064846515655517578125" lon="20.10019632987678050994873046875">
        <ele>1859.4000244140625</ele>
        <time>2026-06-15T09:26:46.000Z</time>
        <extensions>
          <ns3:TrackPointExtension>
            <ns3:atemp>21.0</ns3:atemp>
          </ns3:TrackPointExtension>
        </extensions>
      </trkpt>
      <trkpt lat="42.59211366064846515655517578125" lon="20.10019632987678050994873046875">
        <ele>1859.4000244140625</ele>
        <time>2026-06-15T09:26:47.000Z</time>
        <extensions>
          <ns3:TrackPointExtension>
            <ns3:atemp>21.0</ns3:atemp>
          </ns3:TrackPointExtension>
        </extensions>
      </trkpt>
      <trkpt lat="42.59211366064846515655517578125" lon="20.10019632987678050994873046875">
        <ele>1859.4000244140625</ele>
        <time>2026-06-15T09:26:48.000Z</time>
        <extensions>
          <ns3:TrackPointExtension>
            <ns3:atemp>20.0</ns3:atemp>
          </ns3:TrackPointExtension>
        </extensions>
      </trkpt>
      <trkpt lat="42.59211366064846515655517578125" lon="20.10019632987678050994873046875">
        <ele>1859.4000244140625</ele>
        <time>2026-06-15T09:26:49.000Z</time>
        <extensions>
          <ns3:TrackPointExtension>
            <ns3:atemp>21.0</ns3:atemp>
          </ns3:TrackPointExtension>
        </extensions>
      </trkpt>
      <trkpt lat="42.59211366064846515655517578125" lon="20.10019632987678050994873046875">
        <ele>1859.4000244140625</ele>
        <time>2026-06-15T09:26:50.000Z</time>
        <extensions>
          <ns3:TrackPointExtension>
            <ns3:atemp>20.0</ns3:atemp>
          </ns3:TrackPointExtension>
        </extensions>
      </trkpt>
      <trkpt lat="42.59211366064846515655517578125" lon="20.10019632987678050994873046875">
        <ele>1859.4000244140625</ele>
        <time>2026-06-15T09:26:51.000Z</time>
        <extensions>
          <ns3:TrackPointExtension>
            <ns3:atemp>21.0</ns3:atemp>
          </ns3:TrackPointExtension>
        </extensions>
      </trkpt>
      <trkpt lat="42.59211366064846515655517578125" lon="20.10019632987678050994873046875">
        <ele>1859.4000244140625</ele>
        <time>2026-06-15T09:26:52.000Z</time>
        <extensions>
          <ns3:TrackPointExtension>
            <ns3:atemp>21.0</ns3:atemp>
          </ns3:TrackPointExtension>
        </extensions>
      </trkpt>
      <trkpt lat="42.59211366064846515655517578125" lon="20.10019632987678050994873046875">
        <ele>1859.4000244140625</ele>
        <time>2026-06-15T09:26:53.000Z</time>
        <extensions>
          <ns3:TrackPointExtension>
            <ns3:atemp>20.0</ns3:atemp>
          </ns3:TrackPointExtension>
        </extensions>
      </trkpt>
      <trkpt lat="42.59211366064846515655517578125" lon="20.10019632987678050994873046875">
        <ele>1859.4000244140625</ele>
        <time>2026-06-15T09:26:54.000Z</time>
        <extensions>
          <ns3:TrackPointExtension>
            <ns3:atemp>20.0</ns3:atemp>
          </ns3:TrackPointExtension>
        </extensions>
      </trkpt>
      <trkpt lat="42.59211366064846515655517578125" lon="20.10019632987678050994873046875">
        <ele>1859.4000244140625</ele>
        <time>2026-06-15T09:26:55.000Z</time>
        <extensions>
          <ns3:TrackPointExtension>
            <ns3:atemp>20.0</ns3:atemp>
          </ns3:TrackPointExtension>
        </extensions>
      </trkpt>
      <trkpt lat="42.59211366064846515655517578125" lon="20.10019632987678050994873046875">
        <ele>1859.4000244140625</ele>
        <time>2026-06-15T09:26:56.000Z</time>
        <extensions>
          <ns3:TrackPointExtension>
            <ns3:atemp>20.0</ns3:atemp>
          </ns3:TrackPointExtension>
        </extensions>
      </trkpt>
      <trkpt lat="42.59211366064846515655517578125" lon="20.10019632987678050994873046875">
        <ele>1859.4000244140625</ele>
        <time>2026-06-15T09:26:57.000Z</time>
        <extensions>
          <ns3:TrackPointExtension>
            <ns3:atemp>21.0</ns3:atemp>
          </ns3:TrackPointExtension>
        </extensions>
      </trkpt>
      <trkpt lat="42.59211366064846515655517578125" lon="20.10019632987678050994873046875">
        <ele>1859.4000244140625</ele>
        <time>2026-06-15T09:26:58.000Z</time>
        <extensions>
          <ns3:TrackPointExtension>
            <ns3:atemp>21.0</ns3:atemp>
          </ns3:TrackPointExtension>
        </extensions>
      </trkpt>
      <trkpt lat="42.59211366064846515655517578125" lon="20.10019632987678050994873046875">
        <ele>1859.4000244140625</ele>
        <time>2026-06-15T09:26:59.000Z</time>
        <extensions>
          <ns3:TrackPointExtension>
            <ns3:atemp>21.0</ns3:atemp>
          </ns3:TrackPointExtension>
        </extensions>
      </trkpt>
      <trkpt lat="42.59211366064846515655517578125" lon="20.10019632987678050994873046875">
        <ele>1859.4000244140625</ele>
        <time>2026-06-15T09:27:00.000Z</time>
        <extensions>
          <ns3:TrackPointExtension>
            <ns3:atemp>21.0</ns3:atemp>
          </ns3:TrackPointExtension>
        </extensions>
      </trkpt>
      <trkpt lat="42.59211366064846515655517578125" lon="20.10019632987678050994873046875">
        <ele>1859.4000244140625</ele>
        <time>2026-06-15T09:27:01.000Z</time>
        <extensions>
          <ns3:TrackPointExtension>
            <ns3:atemp>21.0</ns3:atemp>
          </ns3:TrackPointExtension>
        </extensions>
      </trkpt>
      <trkpt lat="42.59211366064846515655517578125" lon="20.10019632987678050994873046875">
        <ele>1859.4000244140625</ele>
        <time>2026-06-15T09:27:02.000Z</time>
        <extensions>
          <ns3:TrackPointExtension>
            <ns3:atemp>21.0</ns3:atemp>
          </ns3:TrackPointExtension>
        </extensions>
      </trkpt>
      <trkpt lat="42.59211366064846515655517578125" lon="20.10019632987678050994873046875">
        <ele>1859.4000244140625</ele>
        <time>2026-06-15T09:27:03.000Z</time>
        <extensions>
          <ns3:TrackPointExtension>
            <ns3:atemp>21.0</ns3:atemp>
          </ns3:TrackPointExtension>
        </extensions>
      </trkpt>
      <trkpt lat="42.59211366064846515655517578125" lon="20.10019632987678050994873046875">
        <ele>1859.4000244140625</ele>
        <time>2026-06-15T09:27:04.000Z</time>
        <extensions>
          <ns3:TrackPointExtension>
            <ns3:atemp>21.0</ns3:atemp>
          </ns3:TrackPointExtension>
        </extensions>
      </trkpt>
      <trkpt lat="42.59211366064846515655517578125" lon="20.10019632987678050994873046875">
        <ele>1859.4000244140625</ele>
        <time>2026-06-15T09:27:05.000Z</time>
        <extensions>
          <ns3:TrackPointExtension>
            <ns3:atemp>21.0</ns3:atemp>
          </ns3:TrackPointExtension>
        </extensions>
      </trkpt>
      <trkpt lat="42.59211366064846515655517578125" lon="20.10019632987678050994873046875">
        <ele>1859.4000244140625</ele>
        <time>2026-06-15T09:27:06.000Z</time>
        <extensions>
          <ns3:TrackPointExtension>
            <ns3:atemp>21.0</ns3:atemp>
          </ns3:TrackPointExtension>
        </extensions>
      </trkpt>
      <trkpt lat="42.59211366064846515655517578125" lon="20.10019632987678050994873046875">
        <ele>1859.4000244140625</ele>
        <time>2026-06-15T09:27:07.000Z</time>
        <extensions>
          <ns3:TrackPointExtension>
            <ns3:atemp>21.0</ns3:atemp>
          </ns3:TrackPointExtension>
        </extensions>
      </trkpt>
      <trkpt lat="42.59211366064846515655517578125" lon="20.10019632987678050994873046875">
        <ele>1859.4000244140625</ele>
        <time>2026-06-15T09:27:08.000Z</time>
        <extensions>
          <ns3:TrackPointExtension>
            <ns3:atemp>21.0</ns3:atemp>
          </ns3:TrackPointExtension>
        </extensions>
      </trkpt>
      <trkpt lat="42.59211366064846515655517578125" lon="20.10019632987678050994873046875">
        <ele>1859.4000244140625</ele>
        <time>2026-06-15T09:27:09.000Z</time>
        <extensions>
          <ns3:TrackPointExtension>
            <ns3:atemp>21.0</ns3:atemp>
          </ns3:TrackPointExtension>
        </extensions>
      </trkpt>
      <trkpt lat="42.59211366064846515655517578125" lon="20.10019632987678050994873046875">
        <ele>1859.4000244140625</ele>
        <time>2026-06-15T09:27:10.000Z</time>
        <extensions>
          <ns3:TrackPointExtension>
            <ns3:atemp>21.0</ns3:atemp>
          </ns3:TrackPointExtension>
        </extensions>
      </trkpt>
      <trkpt lat="42.59211366064846515655517578125" lon="20.10019632987678050994873046875">
        <ele>1859.4000244140625</ele>
        <time>2026-06-15T09:27:11.000Z</time>
        <extensions>
          <ns3:TrackPointExtension>
            <ns3:atemp>20.0</ns3:atemp>
          </ns3:TrackPointExtension>
        </extensions>
      </trkpt>
      <trkpt lat="42.59211366064846515655517578125" lon="20.10019632987678050994873046875">
        <ele>1859.4000244140625</ele>
        <time>2026-06-15T09:27:12.000Z</time>
        <extensions>
          <ns3:TrackPointExtension>
            <ns3:atemp>21.0</ns3:atemp>
          </ns3:TrackPointExtension>
        </extensions>
      </trkpt>
      <trkpt lat="42.59211366064846515655517578125" lon="20.10019632987678050994873046875">
        <ele>1859.4000244140625</ele>
        <time>2026-06-15T09:27:13.000Z</time>
        <extensions>
          <ns3:TrackPointExtension>
            <ns3:atemp>21.0</ns3:atemp>
          </ns3:TrackPointExtension>
        </extensions>
      </trkpt>
      <trkpt lat="42.59211366064846515655517578125" lon="20.10019632987678050994873046875">
        <ele>1859.4000244140625</ele>
        <time>2026-06-15T09:27:14.000Z</time>
        <extensions>
          <ns3:TrackPointExtension>
            <ns3:atemp>21.0</ns3:atemp>
          </ns3:TrackPointExtension>
        </extensions>
      </trkpt>
      <trkpt lat="42.59211366064846515655517578125" lon="20.10019632987678050994873046875">
        <ele>1859.4000244140625</ele>
        <time>2026-06-15T09:27:15.000Z</time>
        <extensions>
          <ns3:TrackPointExtension>
            <ns3:atemp>21.0</ns3:atemp>
          </ns3:TrackPointExtension>
        </extensions>
      </trkpt>
      <trkpt lat="42.59211366064846515655517578125" lon="20.10019632987678050994873046875">
        <ele>1859.4000244140625</ele>
        <time>2026-06-15T09:27:16.000Z</time>
        <extensions>
          <ns3:TrackPointExtension>
            <ns3:atemp>21.0</ns3:atemp>
          </ns3:TrackPointExtension>
        </extensions>
      </trkpt>
      <trkpt lat="42.59211366064846515655517578125" lon="20.10019632987678050994873046875">
        <ele>1859.4000244140625</ele>
        <time>2026-06-15T09:27:17.000Z</time>
        <extensions>
          <ns3:TrackPointExtension>
            <ns3:atemp>21.0</ns3:atemp>
          </ns3:TrackPointExtension>
        </extensions>
      </trkpt>
      <trkpt lat="42.59211366064846515655517578125" lon="20.10019632987678050994873046875">
        <ele>1859.4000244140625</ele>
        <time>2026-06-15T09:27:18.000Z</time>
        <extensions>
          <ns3:TrackPointExtension>
            <ns3:atemp>21.0</ns3:atemp>
          </ns3:TrackPointExtension>
        </extensions>
      </trkpt>
      <trkpt lat="42.59211366064846515655517578125" lon="20.10019632987678050994873046875">
        <ele>1859.4000244140625</ele>
        <time>2026-06-15T09:27:19.000Z</time>
        <extensions>
          <ns3:TrackPointExtension>
            <ns3:atemp>21.0</ns3:atemp>
          </ns3:TrackPointExtension>
        </extensions>
      </trkpt>
      <trkpt lat="42.59211366064846515655517578125" lon="20.10019632987678050994873046875">
        <ele>1859.4000244140625</ele>
        <time>2026-06-15T09:27:20.000Z</time>
        <extensions>
          <ns3:TrackPointExtension>
            <ns3:atemp>21.0</ns3:atemp>
          </ns3:TrackPointExtension>
        </extensions>
      </trkpt>
      <trkpt lat="42.59211366064846515655517578125" lon="20.10019632987678050994873046875">
        <ele>1859.4000244140625</ele>
        <time>2026-06-15T09:27:21.000Z</time>
        <extensions>
          <ns3:TrackPointExtension>
            <ns3:atemp>21.0</ns3:atemp>
          </ns3:TrackPointExtension>
        </extensions>
      </trkpt>
      <trkpt lat="42.59211366064846515655517578125" lon="20.10019632987678050994873046875">
        <ele>1859.4000244140625</ele>
        <time>2026-06-15T09:27:22.000Z</time>
        <extensions>
          <ns3:TrackPointExtension>
            <ns3:atemp>21.0</ns3:atemp>
          </ns3:TrackPointExtension>
        </extensions>
      </trkpt>
      <trkpt lat="42.59211366064846515655517578125" lon="20.10019632987678050994873046875">
        <ele>1859.4000244140625</ele>
        <time>2026-06-15T09:27:23.000Z</time>
        <extensions>
          <ns3:TrackPointExtension>
            <ns3:atemp>21.0</ns3:atemp>
          </ns3:TrackPointExtension>
        </extensions>
      </trkpt>
      <trkpt lat="42.59211366064846515655517578125" lon="20.10019632987678050994873046875">
        <ele>1859.4000244140625</ele>
        <time>2026-06-15T09:27:24.000Z</time>
        <extensions>
          <ns3:TrackPointExtension>
            <ns3:atemp>21.0</ns3:atemp>
          </ns3:TrackPointExtension>
        </extensions>
      </trkpt>
      <trkpt lat="42.59211366064846515655517578125" lon="20.10019632987678050994873046875">
        <ele>1859.4000244140625</ele>
        <time>2026-06-15T09:27:25.000Z</time>
        <extensions>
          <ns3:TrackPointExtension>
            <ns3:atemp>21.0</ns3:atemp>
          </ns3:TrackPointExtension>
        </extensions>
      </trkpt>
      <trkpt lat="42.59211366064846515655517578125" lon="20.10019632987678050994873046875">
        <ele>1859.4000244140625</ele>
        <time>2026-06-15T09:27:26.000Z</time>
        <extensions>
          <ns3:TrackPointExtension>
            <ns3:atemp>21.0</ns3:atemp>
          </ns3:TrackPointExtension>
        </extensions>
      </trkpt>
      <trkpt lat="42.59211366064846515655517578125" lon="20.10019632987678050994873046875">
        <ele>1859.4000244140625</ele>
        <time>2026-06-15T09:27:27.000Z</time>
        <extensions>
          <ns3:TrackPointExtension>
            <ns3:atemp>21.0</ns3:atemp>
          </ns3:TrackPointExtension>
        </extensions>
      </trkpt>
      <trkpt lat="42.59211366064846515655517578125" lon="20.10019632987678050994873046875">
        <ele>1859.4000244140625</ele>
        <time>2026-06-15T09:27:28.000Z</time>
        <extensions>
          <ns3:TrackPointExtension>
            <ns3:atemp>21.0</ns3:atemp>
          </ns3:TrackPointExtension>
        </extensions>
      </trkpt>
      <trkpt lat="42.59211366064846515655517578125" lon="20.10019632987678050994873046875">
        <ele>1859.4000244140625</ele>
        <time>2026-06-15T09:27:29.000Z</time>
        <extensions>
          <ns3:TrackPointExtension>
            <ns3:atemp>21.0</ns3:atemp>
          </ns3:TrackPointExtension>
        </extensions>
      </trkpt>
      <trkpt lat="42.59211366064846515655517578125" lon="20.10019632987678050994873046875">
        <ele>1859.4000244140625</ele>
        <time>2026-06-15T09:27:30.000Z</time>
        <extensions>
          <ns3:TrackPointExtension>
            <ns3:atemp>21.0</ns3:atemp>
          </ns3:TrackPointExtension>
        </extensions>
      </trkpt>
      <trkpt lat="42.59211366064846515655517578125" lon="20.10019632987678050994873046875">
        <ele>1859.4000244140625</ele>
        <time>2026-06-15T09:27:31.000Z</time>
        <extensions>
          <ns3:TrackPointExtension>
            <ns3:atemp>21.0</ns3:atemp>
          </ns3:TrackPointExtension>
        </extensions>
      </trkpt>
      <trkpt lat="42.59211366064846515655517578125" lon="20.10019632987678050994873046875">
        <ele>1859.4000244140625</ele>
        <time>2026-06-15T09:27:32.000Z</time>
        <extensions>
          <ns3:TrackPointExtension>
            <ns3:atemp>21.0</ns3:atemp>
          </ns3:TrackPointExtension>
        </extensions>
      </trkpt>
      <trkpt lat="42.59211366064846515655517578125" lon="20.10019632987678050994873046875">
        <ele>1859.4000244140625</ele>
        <time>2026-06-15T09:27:33.000Z</time>
        <extensions>
          <ns3:TrackPointExtension>
            <ns3:atemp>21.0</ns3:atemp>
          </ns3:TrackPointExtension>
        </extensions>
      </trkpt>
      <trkpt lat="42.59211366064846515655517578125" lon="20.10019632987678050994873046875">
        <ele>1859.4000244140625</ele>
        <time>2026-06-15T09:27:34.000Z</time>
        <extensions>
          <ns3:TrackPointExtension>
            <ns3:atemp>21.0</ns3:atemp>
          </ns3:TrackPointExtension>
        </extensions>
      </trkpt>
      <trkpt lat="42.59211366064846515655517578125" lon="20.10019632987678050994873046875">
        <ele>1859.4000244140625</ele>
        <time>2026-06-15T09:27:35.000Z</time>
        <extensions>
          <ns3:TrackPointExtension>
            <ns3:atemp>21.0</ns3:atemp>
          </ns3:TrackPointExtension>
        </extensions>
      </trkpt>
      <trkpt lat="42.59211366064846515655517578125" lon="20.10019632987678050994873046875">
        <ele>1859.4000244140625</ele>
        <time>2026-06-15T09:27:36.000Z</time>
        <extensions>
          <ns3:TrackPointExtension>
            <ns3:atemp>21.0</ns3:atemp>
          </ns3:TrackPointExtension>
        </extensions>
      </trkpt>
      <trkpt lat="42.59211366064846515655517578125" lon="20.10019632987678050994873046875">
        <ele>1859.4000244140625</ele>
        <time>2026-06-15T09:27:37.000Z</time>
        <extensions>
          <ns3:TrackPointExtension>
            <ns3:atemp>21.0</ns3:atemp>
          </ns3:TrackPointExtension>
        </extensions>
      </trkpt>
      <trkpt lat="42.59211366064846515655517578125" lon="20.10019632987678050994873046875">
        <ele>1859.4000244140625</ele>
        <time>2026-06-15T09:27:38.000Z</time>
        <extensions>
          <ns3:TrackPointExtension>
            <ns3:atemp>21.0</ns3:atemp>
          </ns3:TrackPointExtension>
        </extensions>
      </trkpt>
      <trkpt lat="42.59211366064846515655517578125" lon="20.10019632987678050994873046875">
        <ele>1859.4000244140625</ele>
        <time>2026-06-15T09:27:39.000Z</time>
        <extensions>
          <ns3:TrackPointExtension>
            <ns3:atemp>21.0</ns3:atemp>
          </ns3:TrackPointExtension>
        </extensions>
      </trkpt>
      <trkpt lat="42.59211366064846515655517578125" lon="20.10019632987678050994873046875">
        <ele>1859.4000244140625</ele>
        <time>2026-06-15T09:27:40.000Z</time>
        <extensions>
          <ns3:TrackPointExtension>
            <ns3:atemp>21.0</ns3:atemp>
          </ns3:TrackPointExtension>
        </extensions>
      </trkpt>
      <trkpt lat="42.59211366064846515655517578125" lon="20.10019632987678050994873046875">
        <ele>1859.4000244140625</ele>
        <time>2026-06-15T09:27:41.000Z</time>
        <extensions>
          <ns3:TrackPointExtension>
            <ns3:atemp>21.0</ns3:atemp>
          </ns3:TrackPointExtension>
        </extensions>
      </trkpt>
      <trkpt lat="42.59211366064846515655517578125" lon="20.10019632987678050994873046875">
        <ele>1859.4000244140625</ele>
        <time>2026-06-15T09:27:42.000Z</time>
        <extensions>
          <ns3:TrackPointExtension>
            <ns3:atemp>21.0</ns3:atemp>
          </ns3:TrackPointExtension>
        </extensions>
      </trkpt>
      <trkpt lat="42.59211500175297260284423828125" lon="20.10019934736192226409912109375">
        <ele>1859.4000244140625</ele>
        <time>2026-06-15T09:27:43.000Z</time>
        <extensions>
          <ns3:TrackPointExtension>
            <ns3:atemp>21.0</ns3:atemp>
          </ns3:TrackPointExtension>
        </extensions>
      </trkpt>
      <trkpt lat="42.59211366064846515655517578125" lon="20.10019632987678050994873046875">
        <ele>1859.4000244140625</ele>
        <time>2026-06-15T09:27:44.000Z</time>
        <extensions>
          <ns3:TrackPointExtension>
            <ns3:atemp>21.0</ns3:atemp>
          </ns3:TrackPointExtension>
        </extensions>
      </trkpt>
      <trkpt lat="42.59211265482008457183837890625" lon="20.10019750334322452545166015625">
        <ele>1859.4000244140625</ele>
        <time>2026-06-15T09:27:45.000Z</time>
        <extensions>
          <ns3:TrackPointExtension>
            <ns3:atemp>21.0</ns3:atemp>
          </ns3:TrackPointExtension>
        </extensions>
      </trkpt>
      <trkpt lat="42.59210276417434215545654296875" lon="20.10019163601100444793701171875">
        <ele>1859.4000244140625</ele>
        <time>2026-06-15T09:27:46.000Z</time>
        <extensions>
          <ns3:TrackPointExtension>
            <ns3:atemp>21.0</ns3:atemp>
          </ns3:TrackPointExtension>
        </extensions>
      </trkpt>
      <trkpt lat="42.59210812859237194061279296875" lon="20.10017973370850086212158203125">
        <ele>1859.4000244140625</ele>
        <time>2026-06-15T09:27:47.000Z</time>
        <extensions>
          <ns3:TrackPointExtension>
            <ns3:atemp>21.0</ns3:atemp>
          </ns3:TrackPointExtension>
        </extensions>
      </trkpt>
      <trkpt lat="42.59210678748786449432373046875" lon="20.10017604567110538482666015625">
        <ele>1859.4000244140625</ele>
        <time>2026-06-15T09:27:48.000Z</time>
        <extensions>
          <ns3:TrackPointExtension>
            <ns3:atemp>21.0</ns3:atemp>
          </ns3:TrackPointExtension>
        </extensions>
      </trkpt>
      <trkpt lat="42.592104189097881317138671875" lon="20.1001801528036594390869140625">
        <ele>1859.4000244140625</ele>
        <time>2026-06-15T09:27:49.000Z</time>
        <extensions>
          <ns3:TrackPointExtension>
            <ns3:atemp>21.0</ns3:atemp>
          </ns3:TrackPointExtension>
        </extensions>
      </trkpt>
      <trkpt lat="42.59210117161273956298828125" lon="20.1001881994307041168212890625">
        <ele>1859.4000244140625</ele>
        <time>2026-06-15T09:27:50.000Z</time>
        <extensions>
          <ns3:TrackPointExtension>
            <ns3:atemp>21.0</ns3:atemp>
          </ns3:TrackPointExtension>
        </extensions>
      </trkpt>
      <trkpt lat="42.5921010039746761322021484375" lon="20.100200437009334564208984375">
        <ele>1859.4000244140625</ele>
        <time>2026-06-15T09:27:51.000Z</time>
        <extensions>
          <ns3:TrackPointExtension>
            <ns3:atemp>21.0</ns3:atemp>
          </ns3:TrackPointExtension>
        </extensions>
      </trkpt>
      <trkpt lat="42.59210175834596157073974609375" lon="20.1002096571028232574462890625">
        <ele>1859.4000244140625</ele>
        <time>2026-06-15T09:27:52.000Z</time>
        <extensions>
          <ns3:TrackPointExtension>
            <ns3:atemp>21.0</ns3:atemp>
          </ns3:TrackPointExtension>
        </extensions>
      </trkpt>
      <trkpt lat="42.59210024960339069366455078125" lon="20.10020957328379154205322265625">
        <ele>1859.4000244140625</ele>
        <time>2026-06-15T09:27:53.000Z</time>
        <extensions>
          <ns3:TrackPointExtension>
            <ns3:atemp>21.0</ns3:atemp>
          </ns3:TrackPointExtension>
        </extensions>
      </trkpt>
      <trkpt lat="42.592100165784358978271484375" lon="20.10020957328379154205322265625">
        <ele>1859.4000244140625</ele>
        <time>2026-06-15T09:27:54.000Z</time>
        <extensions>
          <ns3:TrackPointExtension>
            <ns3:atemp>21.0</ns3:atemp>
          </ns3:TrackPointExtension>
        </extensions>
      </trkpt>
      <trkpt lat="42.592100165784358978271484375" lon="20.10020957328379154205322265625">
        <ele>1859.4000244140625</ele>
        <time>2026-06-15T09:27:55.000Z</time>
        <extensions>
          <ns3:TrackPointExtension>
            <ns3:atemp>21.0</ns3:atemp>
          </ns3:TrackPointExtension>
        </extensions>
      </trkpt>
      <trkpt lat="42.59210008196532726287841796875" lon="20.10020957328379154205322265625">
        <ele>1859.4000244140625</ele>
        <time>2026-06-15T09:27:56.000Z</time>
        <extensions>
          <ns3:TrackPointExtension>
            <ns3:atemp>21.0</ns3:atemp>
          </ns3:TrackPointExtension>
        </extensions>
      </trkpt>
      <trkpt lat="42.592100165784358978271484375" lon="20.10020957328379154205322265625">
        <ele>1859.4000244140625</ele>
        <time>2026-06-15T09:27:57.000Z</time>
        <extensions>
          <ns3:TrackPointExtension>
            <ns3:atemp>21.0</ns3:atemp>
          </ns3:TrackPointExtension>
        </extensions>
      </trkpt>
      <trkpt lat="42.592100165784358978271484375" lon="20.10020957328379154205322265625">
        <ele>1859.4000244140625</ele>
        <time>2026-06-15T09:27:58.000Z</time>
        <extensions>
          <ns3:TrackPointExtension>
            <ns3:atemp>21.0</ns3:atemp>
          </ns3:TrackPointExtension>
        </extensions>
      </trkpt>
      <trkpt lat="42.59209848940372467041015625" lon="20.100210495293140411376953125">
        <ele>1859.4000244140625</ele>
        <time>2026-06-15T09:27:59.000Z</time>
        <extensions>
          <ns3:TrackPointExtension>
            <ns3:atemp>21.0</ns3:atemp>
          </ns3:TrackPointExtension>
        </extensions>
      </trkpt>
      <trkpt lat="42.59209907613694667816162109375" lon="20.1002304442226886749267578125">
        <ele>1859.4000244140625</ele>
        <time>2026-06-15T09:28:00.000Z</time>
        <extensions>
          <ns3:TrackPointExtension>
            <ns3:atemp>21.0</ns3:atemp>
          </ns3:TrackPointExtension>
        </extensions>
      </trkpt>
      <trkpt lat="42.592098824679851531982421875" lon="20.1002475433051586151123046875">
        <ele>1859.4000244140625</ele>
        <time>2026-06-15T09:28:01.000Z</time>
        <extensions>
          <ns3:TrackPointExtension>
            <ns3:atemp>21.0</ns3:atemp>
          </ns3:TrackPointExtension>
        </extensions>
      </trkpt>
      <trkpt lat="42.5920959748327732086181640625" lon="20.10026204399764537811279296875">
        <ele>1859.4000244140625</ele>
        <time>2026-06-15T09:28:02.000Z</time>
        <extensions>
          <ns3:TrackPointExtension>
            <ns3:atemp>21.0</ns3:atemp>
          </ns3:TrackPointExtension>
        </extensions>
      </trkpt>
      <trkpt lat="42.592088095843791961669921875" lon="20.10028551332652568817138671875">
        <ele>1859.199951171875</ele>
        <time>2026-06-15T09:28:03.000Z</time>
        <extensions>
          <ns3:TrackPointExtension>
            <ns3:atemp>21.0</ns3:atemp>
          </ns3:TrackPointExtension>
        </extensions>
      </trkpt>
      <trkpt lat="42.5920671410858631134033203125" lon="20.10031937621533870697021484375">
        <ele>1859</ele>
        <time>2026-06-15T09:28:04.000Z</time>
        <extensions>
          <ns3:TrackPointExtension>
            <ns3:atemp>21.0</ns3:atemp>
          </ns3:TrackPointExtension>
        </extensions>
      </trkpt>
      <trkpt lat="42.59203411638736724853515625" lon="20.100358016788959503173828125">
        <ele>1858.5999755859375</ele>
        <time>2026-06-15T09:28:05.000Z</time>
        <extensions>
          <ns3:TrackPointExtension>
            <ns3:atemp>21.0</ns3:atemp>
          </ns3:TrackPointExtension>
        </extensions>
      </trkpt>
      <trkpt lat="42.59199262596666812896728515625" lon="20.100405625998973846435546875">
        <ele>1858.199951171875</ele>
        <time>2026-06-15T09:28:06.000Z</time>
        <extensions>
          <ns3:TrackPointExtension>
            <ns3:atemp>21.0</ns3:atemp>
          </ns3:TrackPointExtension>
        </extensions>
      </trkpt>
      <trkpt lat="42.59194434620440006256103515625" lon="20.10044812224805355072021484375">
        <ele>1857.5999755859375</ele>
        <time>2026-06-15T09:28:07.000Z</time>
        <extensions>
          <ns3:TrackPointExtension>
            <ns3:atemp>21.0</ns3:atemp>
          </ns3:TrackPointExtension>
        </extensions>
      </trkpt>
      <trkpt lat="42.591890282928943634033203125" lon="20.10049204342067241668701171875">
        <ele>1857</ele>
        <time>2026-06-15T09:28:08.000Z</time>
        <extensions>
          <ns3:TrackPointExtension>
            <ns3:atemp>21.0</ns3:atemp>
          </ns3:TrackPointExtension>
        </extensions>
      </trkpt>
      <trkpt lat="42.59184359572827816009521484375" lon="20.10053562931716442108154296875">
        <ele>1856.4000244140625</ele>
        <time>2026-06-15T09:28:09.000Z</time>
        <extensions>
          <ns3:TrackPointExtension>
            <ns3:atemp>21.0</ns3:atemp>
          </ns3:TrackPointExtension>
        </extensions>
      </trkpt>
      <trkpt lat="42.59180403314530849456787109375" lon="20.1005794666707515716552734375">
        <ele>1856.199951171875</ele>
        <time>2026-06-15T09:28:10.000Z</time>
        <extensions>
          <ns3:TrackPointExtension>
            <ns3:atemp>21.0</ns3:atemp>
          </ns3:TrackPointExtension>
        </extensions>
      </trkpt>
      <trkpt lat="42.59177385829389095306396484375" lon="20.10062665678560733795166015625">
        <ele>1856.199951171875</ele>
        <time>2026-06-15T09:28:11.000Z</time>
        <extensions>
          <ns3:TrackPointExtension>
            <ns3:atemp>21.0</ns3:atemp>
          </ns3:TrackPointExtension>
        </extensions>
      </trkpt>
      <trkpt lat="42.591750137507915496826171875" lon="20.10066085495054721832275390625">
        <ele>1856.199951171875</ele>
        <time>2026-06-15T09:28:12.000Z</time>
        <extensions>
          <ns3:TrackPointExtension>
            <ns3:atemp>21.0</ns3:atemp>
          </ns3:TrackPointExtension>
        </extensions>
      </trkpt>
      <trkpt lat="42.5917308591306209564208984375" lon="20.10069689713418483734130859375">
        <ele>1856.4000244140625</ele>
        <time>2026-06-15T09:28:13.000Z</time>
        <extensions>
          <ns3:TrackPointExtension>
            <ns3:atemp>21.0</ns3:atemp>
          </ns3:TrackPointExtension>
        </extensions>
      </trkpt>
      <trkpt lat="42.59171426296234130859375" lon="20.1007333584129810333251953125">
        <ele>1856.5999755859375</ele>
        <time>2026-06-15T09:28:14.000Z</time>
        <extensions>
          <ns3:TrackPointExtension>
            <ns3:atemp>21.0</ns3:atemp>
          </ns3:TrackPointExtension>
        </extensions>
      </trkpt>
      <trkpt lat="42.59169540368020534515380859375" lon="20.10077317245304584503173828125">
        <ele>1856.800048828125</ele>
        <time>2026-06-15T09:28:15.000Z</time>
        <extensions>
          <ns3:TrackPointExtension>
            <ns3:atemp>21.0</ns3:atemp>
          </ns3:TrackPointExtension>
        </extensions>
      </trkpt>
      <trkpt lat="42.5916762091219425201416015625" lon="20.100820362567901611328125">
        <ele>1857</ele>
        <time>2026-06-15T09:28:16.000Z</time>
        <extensions>
          <ns3:TrackPointExtension>
            <ns3:atemp>21.0</ns3:atemp>
          </ns3:TrackPointExtension>
        </extensions>
      </trkpt>
      <trkpt lat="42.591662965714931488037109375" lon="20.10087090544402599334716796875">
        <ele>1857.199951171875</ele>
        <time>2026-06-15T09:28:17.000Z</time>
        <extensions>
          <ns3:TrackPointExtension>
            <ns3:atemp>21.0</ns3:atemp>
          </ns3:TrackPointExtension>
        </extensions>
      </trkpt>
      <trkpt lat="42.59164997376501560211181640625" lon="20.1009217835962772369384765625">
        <ele>1857.4000244140625</ele>
        <time>2026-06-15T09:28:18.000Z</time>
        <extensions>
          <ns3:TrackPointExtension>
            <ns3:atemp>21.0</ns3:atemp>
          </ns3:TrackPointExtension>
        </extensions>
      </trkpt>
      <trkpt lat="42.591636814177036285400390625" lon="20.10097970254719257354736328125">
        <ele>1857.5999755859375</ele>
        <time>2026-06-15T09:28:19.000Z</time>
        <extensions>
          <ns3:TrackPointExtension>
            <ns3:atemp>21.0</ns3:atemp>
          </ns3:TrackPointExtension>
        </extensions>
      </trkpt>
      <trkpt lat="42.5916326232254505157470703125" lon="20.101037286221981048583984375">
        <ele>1857.800048828125</ele>
        <time>2026-06-15T09:28:20.000Z</time>
        <extensions>
          <ns3:TrackPointExtension>
            <ns3:atemp>21.0</ns3:atemp>
          </ns3:TrackPointExtension>
        </extensions>
      </trkpt>
      <trkpt lat="42.59162717498838901519775390625" lon="20.1010964624583721160888671875">
        <ele>1858</ele>
        <time>2026-06-15T09:28:21.000Z</time>
        <extensions>
          <ns3:TrackPointExtension>
            <ns3:atemp>21.0</ns3:atemp>
          </ns3:TrackPointExtension>
        </extensions>
      </trkpt>
      <trkpt lat="42.59162331931293010711669921875" lon="20.10115094482898712158203125">
        <ele>1858.199951171875</ele>
        <time>2026-06-15T09:28:22.000Z</time>
        <extensions>
          <ns3:TrackPointExtension>
            <ns3:atemp>21.0</ns3:atemp>
          </ns3:TrackPointExtension>
        </extensions>
      </trkpt>
      <trkpt lat="42.59161594323813915252685546875" lon="20.1012047566473484039306640625">
        <ele>1858.4000244140625</ele>
        <time>2026-06-15T09:28:23.000Z</time>
        <extensions>
          <ns3:TrackPointExtension>
            <ns3:atemp>21.0</ns3:atemp>
          </ns3:TrackPointExtension>
        </extensions>
      </trkpt>
      <trkpt lat="42.591612674295902252197265625" lon="20.1012577302753925323486328125">
        <ele>1858.800048828125</ele>
        <time>2026-06-15T09:28:24.000Z</time>
        <extensions>
          <ns3:TrackPointExtension>
            <ns3:atemp>21.0</ns3:atemp>
          </ns3:TrackPointExtension>
        </extensions>
      </trkpt>
      <trkpt lat="42.59161979891359806060791015625" lon="20.101306177675724029541015625">
        <ele>1859</ele>
        <time>2026-06-15T09:28:25.000Z</time>
        <extensions>
          <ns3:TrackPointExtension>
            <ns3:atemp>21.0</ns3:atemp>
          </ns3:TrackPointExtension>
        </extensions>
      </trkpt>
      <trkpt lat="42.5916182063519954681396484375" lon="20.101353786885738372802734375">
        <ele>1859.4000244140625</ele>
        <time>2026-06-15T09:28:26.000Z</time>
        <extensions>
          <ns3:TrackPointExtension>
            <ns3:atemp>21.0</ns3:atemp>
          </ns3:TrackPointExtension>
        </extensions>
      </trkpt>
      <trkpt lat="42.5916138477623462677001953125" lon="20.101401396095752716064453125">
        <ele>1859.5999755859375</ele>
        <time>2026-06-15T09:28:27.000Z</time>
        <extensions>
          <ns3:TrackPointExtension>
            <ns3:atemp>21.0</ns3:atemp>
          </ns3:TrackPointExtension>
        </extensions>
      </trkpt>
      <trkpt lat="42.5916098244488239288330078125" lon="20.10144523344933986663818359375">
        <ele>1860</ele>
        <time>2026-06-15T09:28:28.000Z</time>
        <extensions>
          <ns3:TrackPointExtension>
            <ns3:atemp>21.0</ns3:atemp>
          </ns3:TrackPointExtension>
        </extensions>
      </trkpt>
      <trkpt lat="42.5916056334972381591796875" lon="20.10149024426937103271484375">
        <ele>1860.199951171875</ele>
        <time>2026-06-15T09:28:29.000Z</time>
        <extensions>
          <ns3:TrackPointExtension>
            <ns3:atemp>21.0</ns3:atemp>
          </ns3:TrackPointExtension>
        </extensions>
      </trkpt>
      <trkpt lat="42.59160102345049381256103515625" lon="20.1015351712703704833984375">
        <ele>1860.4000244140625</ele>
        <time>2026-06-15T09:28:30.000Z</time>
        <extensions>
          <ns3:TrackPointExtension>
            <ns3:atemp>21.0</ns3:atemp>
          </ns3:TrackPointExtension>
        </extensions>
      </trkpt>
      <trkpt lat="42.591593898832798004150390625" lon="20.10158219374716281890869140625">
        <ele>1860.800048828125</ele>
        <time>2026-06-15T09:28:31.000Z</time>
        <extensions>
          <ns3:TrackPointExtension>
            <ns3:atemp>21.0</ns3:atemp>
          </ns3:TrackPointExtension>
        </extensions>
      </trkpt>
      <trkpt lat="42.59158694185316562652587890625" lon="20.10163013823330402374267578125">
        <ele>1861</ele>
        <time>2026-06-15T09:28:32.000Z</time>
        <extensions>
          <ns3:TrackPointExtension>
            <ns3:atemp>21.0</ns3:atemp>
          </ns3:TrackPointExtension>
        </extensions>
      </trkpt>
      <trkpt lat="42.5915786437690258026123046875" lon="20.10167623870074748992919921875">
        <ele>1861.4000244140625</ele>
        <time>2026-06-15T09:28:33.000Z</time>
        <extensions>
          <ns3:TrackPointExtension>
            <ns3:atemp>21.0</ns3:atemp>
          </ns3:TrackPointExtension>
        </extensions>
      </trkpt>
      <trkpt lat="42.591566741466522216796875" lon="20.1017229259014129638671875">
        <ele>1861.5999755859375</ele>
        <time>2026-06-15T09:28:34.000Z</time>
        <extensions>
          <ns3:TrackPointExtension>
            <ns3:atemp>21.0</ns3:atemp>
          </ns3:TrackPointExtension>
        </extensions>
      </trkpt>
      <trkpt lat="42.5915471278131008148193359375" lon="20.1017656736075878143310546875">
        <ele>1861.800048828125</ele>
        <time>2026-06-15T09:28:35.000Z</time>
        <extensions>
          <ns3:TrackPointExtension>
            <ns3:atemp>21.0</ns3:atemp>
          </ns3:TrackPointExtension>
        </extensions>
      </trkpt>
      <trkpt lat="42.59153095073997974395751953125" lon="20.10180867277085781097412109375">
        <ele>1862</ele>
        <time>2026-06-15T09:28:36.000Z</time>
        <extensions>
          <ns3:TrackPointExtension>
            <ns3:atemp>21.0</ns3:atemp>
          </ns3:TrackPointExtension>
        </extensions>
      </trkpt>
      <trkpt lat="42.59152114391326904296875" lon="20.1018535159528255462646484375">
        <ele>1862.199951171875</ele>
        <time>2026-06-15T09:28:37.000Z</time>
        <extensions>
          <ns3:TrackPointExtension>
            <ns3:atemp>21.0</ns3:atemp>
          </ns3:TrackPointExtension>
        </extensions>
      </trkpt>
      <trkpt lat="42.5915146060287952423095703125" lon="20.10190196335315704345703125">
        <ele>1862.5999755859375</ele>
        <time>2026-06-15T09:28:38.000Z</time>
        <extensions>
          <ns3:TrackPointExtension>
            <ns3:atemp>21.0</ns3:atemp>
          </ns3:TrackPointExtension>
        </extensions>
      </trkpt>
      <trkpt lat="42.59151619859039783477783203125" lon="20.1019500754773616790771484375">
        <ele>1862.800048828125</ele>
        <time>2026-06-15T09:28:39.000Z</time>
        <extensions>
          <ns3:TrackPointExtension>
            <ns3:atemp>21.0</ns3:atemp>
          </ns3:TrackPointExtension>
        </extensions>
      </trkpt>
      <trkpt lat="42.5915159471333026885986328125" lon="20.10200078599154949188232421875">
        <ele>1863</ele>
        <time>2026-06-15T09:28:40.000Z</time>
        <extensions>
          <ns3:TrackPointExtension>
            <ns3:atemp>21.0</ns3:atemp>
          </ns3:TrackPointExtension>
        </extensions>
      </trkpt>
      <trkpt lat="42.591517455875873565673828125" lon="20.10205225087702274322509765625">
        <ele>1863.199951171875</ele>
        <time>2026-06-15T09:28:41.000Z</time>
        <extensions>
          <ns3:TrackPointExtension>
            <ns3:atemp>21.0</ns3:atemp>
          </ns3:TrackPointExtension>
        </extensions>
      </trkpt>
      <trkpt lat="42.59152072481811046600341796875" lon="20.102101452648639678955078125">
        <ele>1863.4000244140625</ele>
        <time>2026-06-15T09:28:42.000Z</time>
        <extensions>
          <ns3:TrackPointExtension>
            <ns3:atemp>21.0</ns3:atemp>
          </ns3:TrackPointExtension>
        </extensions>
      </trkpt>
      <trkpt lat="42.59153187274932861328125" lon="20.1021502353250980377197265625">
        <ele>1863.5999755859375</ele>
        <time>2026-06-15T09:28:43.000Z</time>
        <extensions>
          <ns3:TrackPointExtension>
            <ns3:atemp>21.0</ns3:atemp>
          </ns3:TrackPointExtension>
        </extensions>
      </trkpt>
      <trkpt lat="42.59154553525149822235107421875" lon="20.10219507850706577301025390625">
        <ele>1863.800048828125</ele>
        <time>2026-06-15T09:28:44.000Z</time>
        <extensions>
          <ns3:TrackPointExtension>
            <ns3:atemp>21.0</ns3:atemp>
          </ns3:TrackPointExtension>
        </extensions>
      </trkpt>
      <trkpt lat="42.59156162850558757781982421875" lon="20.10223212651908397674560546875">
        <ele>1864</ele>
        <time>2026-06-15T09:28:45.000Z</time>
        <extensions>
          <ns3:TrackPointExtension>
            <ns3:atemp>21.0</ns3:atemp>
          </ns3:TrackPointExtension>
        </extensions>
      </trkpt>
      <trkpt lat="42.5915726087987422943115234375" lon="20.10226833634078502655029296875">
        <ele>1864.199951171875</ele>
        <time>2026-06-15T09:28:46.000Z</time>
        <extensions>
          <ns3:TrackPointExtension>
            <ns3:atemp>21.0</ns3:atemp>
          </ns3:TrackPointExtension>
        </extensions>
      </trkpt>
      <trkpt lat="42.5915836729109287261962890625" lon="20.1023041270673274993896484375">
        <ele>1864.5999755859375</ele>
        <time>2026-06-15T09:28:47.000Z</time>
        <extensions>
          <ns3:TrackPointExtension>
            <ns3:atemp>21.0</ns3:atemp>
          </ns3:TrackPointExtension>
        </extensions>
      </trkpt>
      <trkpt lat="42.5915984250605106353759765625" lon="20.10233740322291851043701171875">
        <ele>1864.800048828125</ele>
        <time>2026-06-15T09:28:48.000Z</time>
        <extensions>
          <ns3:TrackPointExtension>
            <ns3:atemp>21.0</ns3:atemp>
          </ns3:TrackPointExtension>
        </extensions>
      </trkpt>
      <trkpt lat="42.59161435067653656005859375" lon="20.102365314960479736328125">
        <ele>1865.199951171875</ele>
        <time>2026-06-15T09:28:49.000Z</time>
        <extensions>
          <ns3:TrackPointExtension>
            <ns3:atemp>21.0</ns3:atemp>
          </ns3:TrackPointExtension>
        </extensions>
      </trkpt>
      <trkpt lat="42.591631449759006500244140625" lon="20.10239406488835811614990234375">
        <ele>1865.4000244140625</ele>
        <time>2026-06-15T09:28:50.000Z</time>
        <extensions>
          <ns3:TrackPointExtension>
            <ns3:atemp>21.0</ns3:atemp>
          </ns3:TrackPointExtension>
        </extensions>
      </trkpt>
      <trkpt lat="42.5916480459272861480712890625" lon="20.1024256646633148193359375">
        <ele>1865.800048828125</ele>
        <time>2026-06-15T09:28:51.000Z</time>
        <extensions>
          <ns3:TrackPointExtension>
            <ns3:atemp>21.0</ns3:atemp>
          </ns3:TrackPointExtension>
        </extensions>
      </trkpt>
      <trkpt lat="42.591664977371692657470703125" lon="20.10245977900922298431396484375">
        <ele>1866</ele>
        <time>2026-06-15T09:28:52.000Z</time>
        <extensions>
          <ns3:TrackPointExtension>
            <ns3:atemp>21.0</ns3:atemp>
          </ns3:TrackPointExtension>
        </extensions>
      </trkpt>
      <trkpt lat="42.59168232791125774383544921875" lon="20.102494396269321441650390625">
        <ele>1866.4000244140625</ele>
        <time>2026-06-15T09:28:53.000Z</time>
        <extensions>
          <ns3:TrackPointExtension>
            <ns3:atemp>21.0</ns3:atemp>
          </ns3:TrackPointExtension>
        </extensions>
      </trkpt>
      <trkpt lat="42.59169741533696651458740234375" lon="20.10252934880554676055908203125">
        <ele>1866.5999755859375</ele>
        <time>2026-06-15T09:28:54.000Z</time>
        <extensions>
          <ns3:TrackPointExtension>
            <ns3:atemp>21.0</ns3:atemp>
          </ns3:TrackPointExtension>
        </extensions>
      </trkpt>
      <trkpt lat="42.5917177833616733551025390625" lon="20.1025619544088840484619140625">
        <ele>1867</ele>
        <time>2026-06-15T09:28:55.000Z</time>
        <extensions>
          <ns3:TrackPointExtension>
            <ns3:atemp>21.0</ns3:atemp>
          </ns3:TrackPointExtension>
        </extensions>
      </trkpt>
      <trkpt lat="42.59173697791993618011474609375" lon="20.10258735157549381256103515625">
        <ele>1867.199951171875</ele>
        <time>2026-06-15T09:28:56.000Z</time>
        <extensions>
          <ns3:TrackPointExtension>
            <ns3:atemp>21.0</ns3:atemp>
          </ns3:TrackPointExtension>
        </extensions>
      </trkpt>
      <trkpt lat="42.59175290353596210479736328125" lon="20.10261408984661102294921875">
        <ele>1867.4000244140625</ele>
        <time>2026-06-15T09:28:57.000Z</time>
        <extensions>
          <ns3:TrackPointExtension>
            <ns3:atemp>21.0</ns3:atemp>
          </ns3:TrackPointExtension>
        </extensions>
      </trkpt>
      <trkpt lat="42.591770254075527191162109375" lon="20.1026474498212337493896484375">
        <ele>1867.5999755859375</ele>
        <time>2026-06-15T09:28:58.000Z</time>
        <extensions>
          <ns3:TrackPointExtension>
            <ns3:atemp>21.0</ns3:atemp>
          </ns3:TrackPointExtension>
        </extensions>
      </trkpt>
      <trkpt lat="42.5917845033109188079833984375" lon="20.102685503661632537841796875">
        <ele>1868</ele>
        <time>2026-06-15T09:28:59.000Z</time>
        <extensions>
          <ns3:TrackPointExtension>
            <ns3:atemp>21.0</ns3:atemp>
          </ns3:TrackPointExtension>
        </extensions>
      </trkpt>
      <trkpt lat="42.591800428926944732666015625" lon="20.102719031274318695068359375">
        <ele>1868.199951171875</ele>
        <time>2026-06-15T09:29:00.000Z</time>
        <extensions>
          <ns3:TrackPointExtension>
            <ns3:atemp>21.0</ns3:atemp>
          </ns3:TrackPointExtension>
        </extensions>
      </trkpt>
      <trkpt lat="42.5918161869049072265625" lon="20.10275180451571941375732421875">
        <ele>1868.4000244140625</ele>
        <time>2026-06-15T09:29:01.000Z</time>
        <extensions>
          <ns3:TrackPointExtension>
            <ns3:atemp>21.0</ns3:atemp>
          </ns3:TrackPointExtension>
        </extensions>
      </trkpt>
      <trkpt lat="42.59183152578771114349365234375" lon="20.1027845777571201324462890625">
        <ele>1868.800048828125</ele>
        <time>2026-06-15T09:29:02.000Z</time>
        <extensions>
          <ns3:TrackPointExtension>
            <ns3:atemp>21.0</ns3:atemp>
          </ns3:TrackPointExtension>
        </extensions>
      </trkpt>
      <trkpt lat="42.59184711612761020660400390625" lon="20.10282020084559917449951171875">
        <ele>1869</ele>
        <time>2026-06-15T09:29:03.000Z</time>
        <extensions>
          <ns3:TrackPointExtension>
            <ns3:atemp>21.0</ns3:atemp>
          </ns3:TrackPointExtension>
        </extensions>
      </trkpt>
      <trkpt lat="42.59186522103846073150634765625" lon="20.10285339318215847015380859375">
        <ele>1869.199951171875</ele>
        <time>2026-06-15T09:29:04.000Z</time>
        <extensions>
          <ns3:TrackPointExtension>
            <ns3:atemp>21.0</ns3:atemp>
          </ns3:TrackPointExtension>
        </extensions>
      </trkpt>
      <trkpt lat="42.5918850861489772796630859375" lon="20.102882646024227142333984375">
        <ele>1869.4000244140625</ele>
        <time>2026-06-15T09:29:05.000Z</time>
        <extensions>
          <ns3:TrackPointExtension>
            <ns3:atemp>21.0</ns3:atemp>
          </ns3:TrackPointExtension>
        </extensions>
      </trkpt>
      <trkpt lat="42.59190528653562068939208984375" lon="20.1029103063046932220458984375">
        <ele>1869.5999755859375</ele>
        <time>2026-06-15T09:29:06.000Z</time>
        <extensions>
          <ns3:TrackPointExtension>
            <ns3:atemp>21.0</ns3:atemp>
          </ns3:TrackPointExtension>
        </extensions>
      </trkpt>
      <trkpt lat="42.5919223017990589141845703125" lon="20.1029337756335735321044921875">
        <ele>1870</ele>
        <time>2026-06-15T09:29:07.000Z</time>
        <extensions>
          <ns3:TrackPointExtension>
            <ns3:atemp>21.0</ns3:atemp>
          </ns3:TrackPointExtension>
        </extensions>
      </trkpt>
      <trkpt lat="42.59194166399538516998291015625" lon="20.102958418428897857666015625">
        <ele>1870.199951171875</ele>
        <time>2026-06-15T09:29:08.000Z</time>
        <extensions>
          <ns3:TrackPointExtension>
            <ns3:atemp>21.0</ns3:atemp>
          </ns3:TrackPointExtension>
        </extensions>
      </trkpt>
      <trkpt lat="42.5919605232775211334228515625" lon="20.1029807142913341522216796875">
        <ele>1870.4000244140625</ele>
        <time>2026-06-15T09:29:09.000Z</time>
        <extensions>
          <ns3:TrackPointExtension>
            <ns3:atemp>21.0</ns3:atemp>
          </ns3:TrackPointExtension>
        </extensions>
      </trkpt>
      <trkpt lat="42.59197988547384738922119140625" lon="20.10300661437213420867919921875">
        <ele>1870.800048828125</ele>
        <time>2026-06-15T09:29:10.000Z</time>
        <extensions>
          <ns3:TrackPointExtension>
            <ns3:atemp>21.0</ns3:atemp>
          </ns3:TrackPointExtension>
        </extensions>
      </trkpt>
      <trkpt lat="42.5920014269649982452392578125" lon="20.10303108952939510345458984375">
        <ele>1871.199951171875</ele>
        <time>2026-06-15T09:29:11.000Z</time>
        <extensions>
          <ns3:TrackPointExtension>
            <ns3:atemp>21.0</ns3:atemp>
          </ns3:TrackPointExtension>
        </extensions>
      </trkpt>
      <trkpt lat="42.592019699513912200927734375" lon="20.10305263102054595947265625">
        <ele>1871.4000244140625</ele>
        <time>2026-06-15T09:29:12.000Z</time>
        <extensions>
          <ns3:TrackPointExtension>
            <ns3:atemp>21.0</ns3:atemp>
          </ns3:TrackPointExtension>
        </extensions>
      </trkpt>
      <trkpt lat="42.5920406542718410491943359375" lon="20.10307098738849163055419921875">
        <ele>1871.800048828125</ele>
        <time>2026-06-15T09:29:13.000Z</time>
        <extensions>
          <ns3:TrackPointExtension>
            <ns3:atemp>21.0</ns3:atemp>
          </ns3:TrackPointExtension>
        </extensions>
      </trkpt>
      <trkpt lat="42.592060603201389312744140625" lon="20.1030903495848178863525390625">
        <ele>1872</ele>
        <time>2026-06-15T09:29:14.000Z</time>
        <extensions>
          <ns3:TrackPointExtension>
            <ns3:atemp>21.0</ns3:atemp>
          </ns3:TrackPointExtension>
        </extensions>
      </trkpt>
      <trkpt lat="42.59207979775965213775634765625" lon="20.10311591438949108123779296875">
        <ele>1872.4000244140625</ele>
        <time>2026-06-15T09:29:15.000Z</time>
        <extensions>
          <ns3:TrackPointExtension>
            <ns3:atemp>21.0</ns3:atemp>
          </ns3:TrackPointExtension>
        </extensions>
      </trkpt>
      <trkpt lat="42.59209807030856609344482421875" lon="20.10313888080418109893798828125">
        <ele>1872.5999755859375</ele>
        <time>2026-06-15T09:29:16.000Z</time>
        <extensions>
          <ns3:TrackPointExtension>
            <ns3:atemp>21.0</ns3:atemp>
          </ns3:TrackPointExtension>
        </extensions>
      </trkpt>
      <trkpt lat="42.59211785160005092620849609375" lon="20.103157572448253631591796875">
        <ele>1873</ele>
        <time>2026-06-15T09:29:17.000Z</time>
        <extensions>
          <ns3:TrackPointExtension>
            <ns3:atemp>21.0</ns3:atemp>
          </ns3:TrackPointExtension>
        </extensions>
      </trkpt>
      <trkpt lat="42.5921372137963771820068359375" lon="20.10317509062588214874267578125">
        <ele>1873.4000244140625</ele>
        <time>2026-06-15T09:29:18.000Z</time>
        <extensions>
          <ns3:TrackPointExtension>
            <ns3:atemp>21.0</ns3:atemp>
          </ns3:TrackPointExtension>
        </extensions>
      </trkpt>
      <trkpt lat="42.592156827449798583984375" lon="20.10319872759282588958740234375">
        <ele>1873.5999755859375</ele>
        <time>2026-06-15T09:29:19.000Z</time>
        <extensions>
          <ns3:TrackPointExtension>
            <ns3:atemp>21.0</ns3:atemp>
          </ns3:TrackPointExtension>
        </extensions>
      </trkpt>
      <trkpt lat="42.59217870421707630157470703125" lon="20.10322437621653079986572265625">
        <ele>1874</ele>
        <time>2026-06-15T09:29:20.000Z</time>
        <extensions>
          <ns3:TrackPointExtension>
            <ns3:atemp>21.0</ns3:atemp>
          </ns3:TrackPointExtension>
        </extensions>
      </trkpt>
      <trkpt lat="42.59220200590789318084716796875" lon="20.10325287468731403350830078125">
        <ele>1874.4000244140625</ele>
        <time>2026-06-15T09:29:21.000Z</time>
        <extensions>
          <ns3:TrackPointExtension>
            <ns3:atemp>21.0</ns3:atemp>
          </ns3:TrackPointExtension>
        </extensions>
      </trkpt>
      <trkpt lat="42.5922247208654880523681640625" lon="20.10328154079616069793701171875">
        <ele>1874.5999755859375</ele>
        <time>2026-06-15T09:29:22.000Z</time>
        <extensions>
          <ns3:TrackPointExtension>
            <ns3:atemp>21.0</ns3:atemp>
          </ns3:TrackPointExtension>
        </extensions>
      </trkpt>
      <trkpt lat="42.59224777109920978546142578125" lon="20.103309787809848785400390625">
        <ele>1874.800048828125</ele>
        <time>2026-06-15T09:29:23.000Z</time>
        <extensions>
          <ns3:TrackPointExtension>
            <ns3:atemp>21.0</ns3:atemp>
          </ns3:TrackPointExtension>
        </extensions>
      </trkpt>
      <trkpt lat="42.59227006696164608001708984375" lon="20.10333820246160030364990234375">
        <ele>1875</ele>
        <time>2026-06-15T09:29:24.000Z</time>
        <extensions>
          <ns3:TrackPointExtension>
            <ns3:atemp>21.0</ns3:atemp>
          </ns3:TrackPointExtension>
        </extensions>
      </trkpt>
      <trkpt lat="42.59229370392858982086181640625" lon="20.10336351580917835235595703125">
        <ele>1875.199951171875</ele>
        <time>2026-06-15T09:29:25.000Z</time>
        <extensions>
          <ns3:TrackPointExtension>
            <ns3:atemp>21.0</ns3:atemp>
          </ns3:TrackPointExtension>
        </extensions>
      </trkpt>
      <trkpt lat="42.59231398813426494598388671875" lon="20.1033830456435680389404296875">
        <ele>1875.4000244140625</ele>
        <time>2026-06-15T09:29:26.000Z</time>
        <extensions>
          <ns3:TrackPointExtension>
            <ns3:atemp>21.0</ns3:atemp>
          </ns3:TrackPointExtension>
        </extensions>
      </trkpt>
      <trkpt lat="42.59233477525413036346435546875" lon="20.10340743698179721832275390625">
        <ele>1875.5999755859375</ele>
        <time>2026-06-15T09:29:27.000Z</time>
        <extensions>
          <ns3:TrackPointExtension>
            <ns3:atemp>21.0</ns3:atemp>
          </ns3:TrackPointExtension>
        </extensions>
      </trkpt>
      <trkpt lat="42.5923538021743297576904296875" lon="20.10343392379581928253173828125">
        <ele>1876</ele>
        <time>2026-06-15T09:29:28.000Z</time>
        <extensions>
          <ns3:TrackPointExtension>
            <ns3:atemp>21.0</ns3:atemp>
          </ns3:TrackPointExtension>
        </extensions>
      </trkpt>
      <trkpt lat="42.592372409999370574951171875" lon="20.10346569120883941650390625">
        <ele>1876.4000244140625</ele>
        <time>2026-06-15T09:29:29.000Z</time>
        <extensions>
          <ns3:TrackPointExtension>
            <ns3:atemp>20.0</ns3:atemp>
          </ns3:TrackPointExtension>
        </extensions>
      </trkpt>
      <trkpt lat="42.59239160455763339996337890625" lon="20.10349393822252750396728515625">
        <ele>1876.5999755859375</ele>
        <time>2026-06-15T09:29:30.000Z</time>
        <extensions>
          <ns3:TrackPointExtension>
            <ns3:atemp>21.0</ns3:atemp>
          </ns3:TrackPointExtension>
        </extensions>
      </trkpt>
      <trkpt lat="42.59241364896297454833984375" lon="20.1035195030272006988525390625">
        <ele>1877</ele>
        <time>2026-06-15T09:29:31.000Z</time>
        <extensions>
          <ns3:TrackPointExtension>
            <ns3:atemp>20.0</ns3:atemp>
          </ns3:TrackPointExtension>
        </extensions>
      </trkpt>
      <trkpt lat="42.59243653155863285064697265625" lon="20.10354137979447841644287109375">
        <ele>1877.199951171875</ele>
        <time>2026-06-15T09:29:32.000Z</time>
        <extensions>
          <ns3:TrackPointExtension>
            <ns3:atemp>21.0</ns3:atemp>
          </ns3:TrackPointExtension>
        </extensions>
      </trkpt>
      <trkpt lat="42.59246100671589374542236328125" lon="20.103563256561756134033203125">
        <ele>1877.4000244140625</ele>
        <time>2026-06-15T09:29:33.000Z</time>
        <extensions>
          <ns3:TrackPointExtension>
            <ns3:atemp>20.0</ns3:atemp>
          </ns3:TrackPointExtension>
        </extensions>
      </trkpt>
      <trkpt lat="42.592484392225742340087890625" lon="20.103588737547397613525390625">
        <ele>1877.800048828125</ele>
        <time>2026-06-15T09:29:34.000Z</time>
        <extensions>
          <ns3:TrackPointExtension>
            <ns3:atemp>20.0</ns3:atemp>
          </ns3:TrackPointExtension>
        </extensions>
      </trkpt>
      <trkpt lat="42.59250710718333721160888671875" lon="20.10361581109464168548583984375">
        <ele>1878</ele>
        <time>2026-06-15T09:29:35.000Z</time>
        <extensions>
          <ns3:TrackPointExtension>
            <ns3:atemp>21.0</ns3:atemp>
          </ns3:TrackPointExtension>
        </extensions>
      </trkpt>
      <trkpt lat="42.592528648674488067626953125" lon="20.10364196263253688812255859375">
        <ele>1878.4000244140625</ele>
        <time>2026-06-15T09:29:36.000Z</time>
        <extensions>
          <ns3:TrackPointExtension>
            <ns3:atemp>21.0</ns3:atemp>
          </ns3:TrackPointExtension>
        </extensions>
      </trkpt>
      <trkpt lat="42.592551447451114654541015625" lon="20.1036653481423854827880859375">
        <ele>1878.5999755859375</ele>
        <time>2026-06-15T09:29:37.000Z</time>
        <extensions>
          <ns3:TrackPointExtension>
            <ns3:atemp>20.0</ns3:atemp>
          </ns3:TrackPointExtension>
        </extensions>
      </trkpt>
      <trkpt lat="42.59257382713258266448974609375" lon="20.1036864705383777618408203125">
        <ele>1879</ele>
        <time>2026-06-15T09:29:38.000Z</time>
        <extensions>
          <ns3:TrackPointExtension>
            <ns3:atemp>20.0</ns3:atemp>
          </ns3:TrackPointExtension>
        </extensions>
      </trkpt>
      <trkpt lat="42.59259528480470180511474609375" lon="20.10371019132435321807861328125">
        <ele>1879.199951171875</ele>
        <time>2026-06-15T09:29:39.000Z</time>
        <extensions>
          <ns3:TrackPointExtension>
            <ns3:atemp>20.0</ns3:atemp>
          </ns3:TrackPointExtension>
        </extensions>
      </trkpt>
      <trkpt lat="42.59261691011488437652587890625" lon="20.1037300564348697662353515625">
        <ele>1879.5999755859375</ele>
        <time>2026-06-15T09:29:40.000Z</time>
        <extensions>
          <ns3:TrackPointExtension>
            <ns3:atemp>20.0</ns3:atemp>
          </ns3:TrackPointExtension>
        </extensions>
      </trkpt>
      <trkpt lat="42.59264163672924041748046875" lon="20.103749670088291168212890625">
        <ele>1879.800048828125</ele>
        <time>2026-06-15T09:29:41.000Z</time>
        <extensions>
          <ns3:TrackPointExtension>
            <ns3:atemp>20.0</ns3:atemp>
          </ns3:TrackPointExtension>
        </extensions>
      </trkpt>
      <trkpt lat="42.59266016073524951934814453125" lon="20.10377280414104461669921875">
        <ele>1880</ele>
        <time>2026-06-15T09:29:42.000Z</time>
        <extensions>
          <ns3:TrackPointExtension>
            <ns3:atemp>21.0</ns3:atemp>
          </ns3:TrackPointExtension>
        </extensions>
      </trkpt>
      <trkpt lat="42.5926756672561168670654296875" lon="20.10380222462117671966552734375">
        <ele>1880.199951171875</ele>
        <time>2026-06-15T09:29:43.000Z</time>
        <extensions>
          <ns3:TrackPointExtension>
            <ns3:atemp>21.0</ns3:atemp>
          </ns3:TrackPointExtension>
        </extensions>
      </trkpt>
      <trkpt lat="42.59269251488149166107177734375" lon="20.103830136358737945556640625">
        <ele>1880.4000244140625</ele>
        <time>2026-06-15T09:29:44.000Z</time>
        <extensions>
          <ns3:TrackPointExtension>
            <ns3:atemp>21.0</ns3:atemp>
          </ns3:TrackPointExtension>
        </extensions>
      </trkpt>
      <trkpt lat="42.59271003305912017822265625" lon="20.1038579642772674560546875">
        <ele>1880.5999755859375</ele>
        <time>2026-06-15T09:29:45.000Z</time>
        <extensions>
          <ns3:TrackPointExtension>
            <ns3:atemp>20.0</ns3:atemp>
          </ns3:TrackPointExtension>
        </extensions>
      </trkpt>
      <trkpt lat="42.59273157455027103424072265625" lon="20.1038852892816066741943359375">
        <ele>1880.800048828125</ele>
        <time>2026-06-15T09:29:46.000Z</time>
        <extensions>
          <ns3:TrackPointExtension>
            <ns3:atemp>20.0</ns3:atemp>
          </ns3:TrackPointExtension>
        </extensions>
      </trkpt>
      <trkpt lat="42.59275236167013645172119140625" lon="20.1039144583046436309814453125">
        <ele>1881.199951171875</ele>
        <time>2026-06-15T09:29:47.000Z</time>
        <extensions>
          <ns3:TrackPointExtension>
            <ns3:atemp>20.0</ns3:atemp>
          </ns3:TrackPointExtension>
        </extensions>
      </trkpt>
      <trkpt lat="42.59276770055294036865234375" lon="20.10394714772701263427734375">
        <ele>1881.4000244140625</ele>
        <time>2026-06-15T09:29:48.000Z</time>
        <extensions>
          <ns3:TrackPointExtension>
            <ns3:atemp>20.0</ns3:atemp>
          </ns3:TrackPointExtension>
        </extensions>
      </trkpt>
      <trkpt lat="42.59278337471187114715576171875" lon="20.1039781607687473297119140625">
        <ele>1881.800048828125</ele>
        <time>2026-06-15T09:29:49.000Z</time>
        <extensions>
          <ns3:TrackPointExtension>
            <ns3:atemp>20.0</ns3:atemp>
          </ns3:TrackPointExtension>
        </extensions>
      </trkpt>
      <trkpt lat="42.5927983783185482025146484375" lon="20.1040133647620677947998046875">
        <ele>1882</ele>
        <time>2026-06-15T09:29:50.000Z</time>
        <extensions>
          <ns3:TrackPointExtension>
            <ns3:atemp>20.0</ns3:atemp>
          </ns3:TrackPointExtension>
        </extensions>
      </trkpt>
      <trkpt lat="42.59281036444008350372314453125" lon="20.1040515862405300140380859375">
        <ele>1882.4000244140625</ele>
        <time>2026-06-15T09:29:51.000Z</time>
        <extensions>
          <ns3:TrackPointExtension>
            <ns3:atemp>20.0</ns3:atemp>
          </ns3:TrackPointExtension>
        </extensions>
      </trkpt>
      <trkpt lat="42.5928179919719696044921875" lon="20.10408930480480194091796875">
        <ele>1882.5999755859375</ele>
        <time>2026-06-15T09:29:52.000Z</time>
        <extensions>
          <ns3:TrackPointExtension>
            <ns3:atemp>20.0</ns3:atemp>
          </ns3:TrackPointExtension>
        </extensions>
      </trkpt>
      <trkpt lat="42.5928252004086971282958984375" lon="20.1041243411600589752197265625">
        <ele>1882.800048828125</ele>
        <time>2026-06-15T09:29:53.000Z</time>
        <extensions>
          <ns3:TrackPointExtension>
            <ns3:atemp>20.0</ns3:atemp>
          </ns3:TrackPointExtension>
        </extensions>
      </trkpt>
      <trkpt lat="42.5928335823118686676025390625" lon="20.10416465811431407928466796875">
        <ele>1883</ele>
        <time>2026-06-15T09:29:54.000Z</time>
        <extensions>
          <ns3:TrackPointExtension>
            <ns3:atemp>20.0</ns3:atemp>
          </ns3:TrackPointExtension>
        </extensions>
      </trkpt>
      <trkpt lat="42.5928372703492641448974609375" lon="20.10420732200145721435546875">
        <ele>1883.199951171875</ele>
        <time>2026-06-15T09:29:55.000Z</time>
        <extensions>
          <ns3:TrackPointExtension>
            <ns3:atemp>20.0</ns3:atemp>
          </ns3:TrackPointExtension>
        </extensions>
      </trkpt>
      <trkpt lat="42.59283936582505702972412109375" lon="20.1042467169463634490966796875">
        <ele>1883.4000244140625</ele>
        <time>2026-06-15T09:29:56.000Z</time>
        <extensions>
          <ns3:TrackPointExtension>
            <ns3:atemp>20.0</ns3:atemp>
          </ns3:TrackPointExtension>
        </extensions>
      </trkpt>
      <trkpt lat="42.59283852763473987579345703125" lon="20.10428586043417453765869140625">
        <ele>1883.5999755859375</ele>
        <time>2026-06-15T09:29:57.000Z</time>
        <extensions>
          <ns3:TrackPointExtension>
            <ns3:atemp>20.0</ns3:atemp>
          </ns3:TrackPointExtension>
        </extensions>
      </trkpt>
      <trkpt lat="42.59283986873924732208251953125" lon="20.1043278537690639495849609375">
        <ele>1883.800048828125</ele>
        <time>2026-06-15T09:29:58.000Z</time>
        <extensions>
          <ns3:TrackPointExtension>
            <ns3:atemp>20.0</ns3:atemp>
          </ns3:TrackPointExtension>
        </extensions>
      </trkpt>
      <trkpt lat="42.5928419642150402069091796875" lon="20.104367248713970184326171875">
        <ele>1884</ele>
        <time>2026-06-15T09:29:59.000Z</time>
        <extensions>
          <ns3:TrackPointExtension>
            <ns3:atemp>20.0</ns3:atemp>
          </ns3:TrackPointExtension>
        </extensions>
      </trkpt>
      <trkpt lat="42.59284003637731075286865234375" lon="20.10440672747790813446044921875">
        <ele>1884.199951171875</ele>
        <time>2026-06-15T09:30:00.000Z</time>
        <extensions>
          <ns3:TrackPointExtension>
            <ns3:atemp>20.0</ns3:atemp>
          </ns3:TrackPointExtension>
        </extensions>
      </trkpt>
      <trkpt lat="42.59283970110118389129638671875" lon="20.1044408418238162994384765625">
        <ele>1884.4000244140625</ele>
        <time>2026-06-15T09:30:01.000Z</time>
        <extensions>
          <ns3:TrackPointExtension>
            <ns3:atemp>20.0</ns3:atemp>
          </ns3:TrackPointExtension>
        </extensions>
      </trkpt>
      <trkpt lat="42.592840455472469329833984375" lon="20.10447529144585132598876953125">
        <ele>1884.5999755859375</ele>
        <time>2026-06-15T09:30:02.000Z</time>
        <extensions>
          <ns3:TrackPointExtension>
            <ns3:atemp>20.0</ns3:atemp>
          </ns3:TrackPointExtension>
        </extensions>
      </trkpt>
      <trkpt lat="42.5928394496440887451171875" lon="20.104514099657535552978515625">
        <ele>1884.800048828125</ele>
        <time>2026-06-15T09:30:03.000Z</time>
        <extensions>
          <ns3:TrackPointExtension>
            <ns3:atemp>20.0</ns3:atemp>
          </ns3:TrackPointExtension>
        </extensions>
      </trkpt>
      <trkpt lat="42.59283400140702724456787109375" lon="20.10455525480210781097412109375">
        <ele>1885</ele>
        <time>2026-06-15T09:30:04.000Z</time>
        <extensions>
          <ns3:TrackPointExtension>
            <ns3:atemp>20.0</ns3:atemp>
          </ns3:TrackPointExtension>
        </extensions>
      </trkpt>
      <trkpt lat="42.5928275473415851593017578125" lon="20.104591883718967437744140625">
        <ele>1885.4000244140625</ele>
        <time>2026-06-15T09:30:05.000Z</time>
        <extensions>
          <ns3:TrackPointExtension>
            <ns3:atemp>20.0</ns3:atemp>
          </ns3:TrackPointExtension>
        </extensions>
      </trkpt>
      <trkpt lat="42.59282394312322139739990234375" lon="20.10463354177772998809814453125">
        <ele>1885.5999755859375</ele>
        <time>2026-06-15T09:30:06.000Z</time>
        <extensions>
          <ns3:TrackPointExtension>
            <ns3:atemp>20.0</ns3:atemp>
          </ns3:TrackPointExtension>
        </extensions>
      </trkpt>
      <trkpt lat="42.5928206741809844970703125" lon="20.10467536747455596923828125">
        <ele>1885.800048828125</ele>
        <time>2026-06-15T09:30:07.000Z</time>
        <extensions>
          <ns3:TrackPointExtension>
            <ns3:atemp>20.0</ns3:atemp>
          </ns3:TrackPointExtension>
        </extensions>
      </trkpt>
      <trkpt lat="42.5928198359906673431396484375" lon="20.10471853427588939666748046875">
        <ele>1886</ele>
        <time>2026-06-15T09:30:08.000Z</time>
        <extensions>
          <ns3:TrackPointExtension>
            <ns3:atemp>20.0</ns3:atemp>
          </ns3:TrackPointExtension>
        </extensions>
      </trkpt>
      <trkpt lat="42.59282377548515796661376953125" lon="20.10475692339241504669189453125">
        <ele>1886.199951171875</ele>
        <time>2026-06-15T09:30:09.000Z</time>
        <extensions>
          <ns3:TrackPointExtension>
            <ns3:atemp>20.0</ns3:atemp>
          </ns3:TrackPointExtension>
        </extensions>
      </trkpt>
      <trkpt lat="42.592823691666126251220703125" lon="20.1047942228615283966064453125">
        <ele>1886.4000244140625</ele>
        <time>2026-06-15T09:30:10.000Z</time>
        <extensions>
          <ns3:TrackPointExtension>
            <ns3:atemp>20.0</ns3:atemp>
          </ns3:TrackPointExtension>
        </extensions>
      </trkpt>
      <trkpt lat="42.59282494895160198211669921875" lon="20.10483085177838802337646484375">
        <ele>1886.4000244140625</ele>
        <time>2026-06-15T09:30:11.000Z</time>
        <extensions>
          <ns3:TrackPointExtension>
            <ns3:atemp>20.0</ns3:atemp>
          </ns3:TrackPointExtension>
        </extensions>
      </trkpt>
      <trkpt lat="42.592821680009365081787109375" lon="20.10486840270459651947021484375">
        <ele>1886.800048828125</ele>
        <time>2026-06-15T09:30:12.000Z</time>
        <extensions>
          <ns3:TrackPointExtension>
            <ns3:atemp>20.0</ns3:atemp>
          </ns3:TrackPointExtension>
        </extensions>
      </trkpt>
      <trkpt lat="42.5928221829235553741455078125" lon="20.10491115041077136993408203125">
        <ele>1886.800048828125</ele>
        <time>2026-06-15T09:30:13.000Z</time>
        <extensions>
          <ns3:TrackPointExtension>
            <ns3:atemp>20.0</ns3:atemp>
          </ns3:TrackPointExtension>
        </extensions>
      </trkpt>
      <trkpt lat="42.59281757287681102752685546875" lon="20.10495163500308990478515625">
        <ele>1887</ele>
        <time>2026-06-15T09:30:14.000Z</time>
        <extensions>
          <ns3:TrackPointExtension>
            <ns3:atemp>20.0</ns3:atemp>
          </ns3:TrackPointExtension>
        </extensions>
      </trkpt>
      <trkpt lat="42.59281002916395664215087890625" lon="20.10498926974833011627197265625">
        <ele>1887.199951171875</ele>
        <time>2026-06-15T09:30:15.000Z</time>
        <extensions>
          <ns3:TrackPointExtension>
            <ns3:atemp>20.0</ns3:atemp>
          </ns3:TrackPointExtension>
        </extensions>
      </trkpt>
      <trkpt lat="42.59280064143240451812744140625" lon="20.10502564720809459686279296875">
        <ele>1887.4000244140625</ele>
        <time>2026-06-15T09:30:16.000Z</time>
        <extensions>
          <ns3:TrackPointExtension>
            <ns3:atemp>20.0</ns3:atemp>
          </ns3:TrackPointExtension>
        </extensions>
      </trkpt>
      <trkpt lat="42.592789493501186370849609375" lon="20.105060599744319915771484375">
        <ele>1887.5999755859375</ele>
        <time>2026-06-15T09:30:17.000Z</time>
        <extensions>
          <ns3:TrackPointExtension>
            <ns3:atemp>20.0</ns3:atemp>
          </ns3:TrackPointExtension>
        </extensions>
      </trkpt>
      <trkpt lat="42.5927772559225559234619140625" lon="20.10509102605283260345458984375">
        <ele>1888</ele>
        <time>2026-06-15T09:30:18.000Z</time>
        <extensions>
          <ns3:TrackPointExtension>
            <ns3:atemp>20.0</ns3:atemp>
          </ns3:TrackPointExtension>
        </extensions>
      </trkpt>
      <trkpt lat="42.59276091121137142181396484375" lon="20.1051207818090915679931640625">
        <ele>1888.199951171875</ele>
        <time>2026-06-15T09:30:19.000Z</time>
        <extensions>
          <ns3:TrackPointExtension>
            <ns3:atemp>20.0</ns3:atemp>
          </ns3:TrackPointExtension>
        </extensions>
      </trkpt>
      <trkpt lat="42.59274112991988658905029296875" lon="20.1051502861082553863525390625">
        <ele>1888.4000244140625</ele>
        <time>2026-06-15T09:30:20.000Z</time>
        <extensions>
          <ns3:TrackPointExtension>
            <ns3:atemp>20.0</ns3:atemp>
          </ns3:TrackPointExtension>
        </extensions>
      </trkpt>
      <trkpt lat="42.59272101335227489471435546875" lon="20.10518071241676807403564453125">
        <ele>1889</ele>
        <time>2026-06-15T09:30:21.000Z</time>
        <extensions>
          <ns3:TrackPointExtension>
            <ns3:atemp>20.0</ns3:atemp>
          </ns3:TrackPointExtension>
        </extensions>
      </trkpt>
      <trkpt lat="42.592699639499187469482421875" lon="20.10520585812628269195556640625">
        <ele>1889.4000244140625</ele>
        <time>2026-06-15T09:30:22.000Z</time>
        <extensions>
          <ns3:TrackPointExtension>
            <ns3:atemp>20.0</ns3:atemp>
          </ns3:TrackPointExtension>
        </extensions>
      </trkpt>
      <trkpt lat="42.59267508052289485931396484375" lon="20.1052273996174335479736328125">
        <ele>1889.5999755859375</ele>
        <time>2026-06-15T09:30:23.000Z</time>
        <extensions>
          <ns3:TrackPointExtension>
            <ns3:atemp>20.0</ns3:atemp>
          </ns3:TrackPointExtension>
        </extensions>
      </trkpt>
      <trkpt lat="42.59265278466045856475830078125" lon="20.10523863136768341064453125">
        <ele>1890</ele>
        <time>2026-06-15T09:30:24.000Z</time>
        <extensions>
          <ns3:TrackPointExtension>
            <ns3:atemp>20.0</ns3:atemp>
          </ns3:TrackPointExtension>
        </extensions>
      </trkpt>
      <trkpt lat="42.59262747131288051605224609375" lon="20.105253718793392181396484375">
        <ele>1890.199951171875</ele>
        <time>2026-06-15T09:30:25.000Z</time>
        <extensions>
          <ns3:TrackPointExtension>
            <ns3:atemp>20.0</ns3:atemp>
          </ns3:TrackPointExtension>
        </extensions>
      </trkpt>
      <trkpt lat="42.59260282851755619049072265625" lon="20.10525816120207309722900390625">
        <ele>1890.4000244140625</ele>
        <time>2026-06-15T09:30:26.000Z</time>
        <extensions>
          <ns3:TrackPointExtension>
            <ns3:atemp>20.0</ns3:atemp>
          </ns3:TrackPointExtension>
        </extensions>
      </trkpt>
      <trkpt lat="42.592576928436756134033203125" lon="20.1052619330585002899169921875">
        <ele>1890.5999755859375</ele>
        <time>2026-06-15T09:30:27.000Z</time>
        <extensions>
          <ns3:TrackPointExtension>
            <ns3:atemp>20.0</ns3:atemp>
          </ns3:TrackPointExtension>
        </extensions>
      </trkpt>
      <trkpt lat="42.59255203418433666229248046875" lon="20.10526637546718120574951171875">
        <ele>1891</ele>
        <time>2026-06-15T09:30:28.000Z</time>
        <extensions>
          <ns3:TrackPointExtension>
            <ns3:atemp>20.0</ns3:atemp>
          </ns3:TrackPointExtension>
        </extensions>
      </trkpt>
      <trkpt lat="42.592527978122234344482421875" lon="20.105261094868183135986328125">
        <ele>1891.199951171875</ele>
        <time>2026-06-15T09:30:29.000Z</time>
        <extensions>
          <ns3:TrackPointExtension>
            <ns3:atemp>20.0</ns3:atemp>
          </ns3:TrackPointExtension>
        </extensions>
      </trkpt>
      <trkpt lat="42.59250392206013202667236328125" lon="20.1052562333643436431884765625">
        <ele>1891.800048828125</ele>
        <time>2026-06-15T09:30:30.000Z</time>
        <extensions>
          <ns3:TrackPointExtension>
            <ns3:atemp>20.0</ns3:atemp>
          </ns3:TrackPointExtension>
        </extensions>
      </trkpt>
      <trkpt lat="42.59248112328350543975830078125" lon="20.1052485220134258270263671875">
        <ele>1892.199951171875</ele>
        <time>2026-06-15T09:30:31.000Z</time>
        <extensions>
          <ns3:TrackPointExtension>
            <ns3:atemp>20.0</ns3:atemp>
          </ns3:TrackPointExtension>
        </extensions>
      </trkpt>
      <trkpt lat="42.592457570135593414306640625" lon="20.1052505336701869964599609375">
        <ele>1892.5999755859375</ele>
        <time>2026-06-15T09:30:32.000Z</time>
        <extensions>
          <ns3:TrackPointExtension>
            <ns3:atemp>20.0</ns3:atemp>
          </ns3:TrackPointExtension>
        </extensions>
      </trkpt>
      <trkpt lat="42.592435441911220550537109375" lon="20.105258412659168243408203125">
        <ele>1892.800048828125</ele>
        <time>2026-06-15T09:30:33.000Z</time>
        <extensions>
          <ns3:TrackPointExtension>
            <ns3:atemp>20.0</ns3:atemp>
          </ns3:TrackPointExtension>
        </extensions>
      </trkpt>
      <trkpt lat="42.59241096675395965576171875" lon="20.10526084341108798980712890625">
        <ele>1893.199951171875</ele>
        <time>2026-06-15T09:30:34.000Z</time>
        <extensions>
          <ns3:TrackPointExtension>
            <ns3:atemp>20.0</ns3:atemp>
          </ns3:TrackPointExtension>
        </extensions>
      </trkpt>
      <trkpt lat="42.5923859886825084686279296875" lon="20.1052558980882167816162109375">
        <ele>1893.4000244140625</ele>
        <time>2026-06-15T09:30:35.000Z</time>
        <extensions>
          <ns3:TrackPointExtension>
            <ns3:atemp>20.0</ns3:atemp>
          </ns3:TrackPointExtension>
        </extensions>
      </trkpt>
      <trkpt lat="42.59236293844878673553466796875" lon="20.10524860583245754241943359375">
        <ele>1893.5999755859375</ele>
        <time>2026-06-15T09:30:36.000Z</time>
        <extensions>
          <ns3:TrackPointExtension>
            <ns3:atemp>20.0</ns3:atemp>
          </ns3:TrackPointExtension>
        </extensions>
      </trkpt>
      <trkpt lat="42.5923407264053821563720703125" lon="20.10523301549255847930908203125">
        <ele>1893.800048828125</ele>
        <time>2026-06-15T09:30:37.000Z</time>
        <extensions>
          <ns3:TrackPointExtension>
            <ns3:atemp>20.0</ns3:atemp>
          </ns3:TrackPointExtension>
        </extensions>
      </trkpt>
      <trkpt lat="42.592318765819072723388671875" lon="20.10521893389523029327392578125">
        <ele>1894.199951171875</ele>
        <time>2026-06-15T09:30:38.000Z</time>
        <extensions>
          <ns3:TrackPointExtension>
            <ns3:atemp>20.0</ns3:atemp>
          </ns3:TrackPointExtension>
        </extensions>
      </trkpt>
      <trkpt lat="42.592296637594699859619140625" lon="20.105202086269855499267578125">
        <ele>1894.5999755859375</ele>
        <time>2026-06-15T09:30:39.000Z</time>
        <extensions>
          <ns3:TrackPointExtension>
            <ns3:atemp>20.0</ns3:atemp>
          </ns3:TrackPointExtension>
        </extensions>
      </trkpt>
      <trkpt lat="42.5922743417322635650634765625" lon="20.1051878370344638824462890625">
        <ele>1894.800048828125</ele>
        <time>2026-06-15T09:30:40.000Z</time>
        <extensions>
          <ns3:TrackPointExtension>
            <ns3:atemp>20.0</ns3:atemp>
          </ns3:TrackPointExtension>
        </extensions>
      </trkpt>
      <trkpt lat="42.592253051698207855224609375" lon="20.1051737554371356964111328125">
        <ele>1895.199951171875</ele>
        <time>2026-06-15T09:30:41.000Z</time>
        <extensions>
          <ns3:TrackPointExtension>
            <ns3:atemp>20.0</ns3:atemp>
          </ns3:TrackPointExtension>
        </extensions>
      </trkpt>
      <trkpt lat="42.59222933091223239898681640625" lon="20.10516160167753696441650390625">
        <ele>1895.4000244140625</ele>
        <time>2026-06-15T09:30:42.000Z</time>
        <extensions>
          <ns3:TrackPointExtension>
            <ns3:atemp>20.0</ns3:atemp>
          </ns3:TrackPointExtension>
        </extensions>
      </trkpt>
      <trkpt lat="42.59220737032592296600341796875" lon="20.10514316149055957794189453125">
        <ele>1895.800048828125</ele>
        <time>2026-06-15T09:30:43.000Z</time>
        <extensions>
          <ns3:TrackPointExtension>
            <ns3:atemp>20.0</ns3:atemp>
          </ns3:TrackPointExtension>
        </extensions>
      </trkpt>
      <trkpt lat="42.59218825958669185638427734375" lon="20.10512321256101131439208984375">
        <ele>1896.199951171875</ele>
        <time>2026-06-15T09:30:44.000Z</time>
        <extensions>
          <ns3:TrackPointExtension>
            <ns3:atemp>20.0</ns3:atemp>
          </ns3:TrackPointExtension>
        </extensions>
      </trkpt>
      <trkpt lat="42.592165209352970123291015625" lon="20.10510510765016078948974609375">
        <ele>1896.4000244140625</ele>
        <time>2026-06-15T09:30:45.000Z</time>
        <extensions>
          <ns3:TrackPointExtension>
            <ns3:atemp>20.0</ns3:atemp>
          </ns3:TrackPointExtension>
        </extensions>
      </trkpt>
      <trkpt lat="42.5921439193189144134521484375" lon="20.10508842766284942626953125">
        <ele>1896.800048828125</ele>
        <time>2026-06-15T09:30:46.000Z</time>
        <extensions>
          <ns3:TrackPointExtension>
            <ns3:atemp>20.0</ns3:atemp>
          </ns3:TrackPointExtension>
        </extensions>
      </trkpt>
      <trkpt lat="42.592120282351970672607421875" lon="20.1050725020468235015869140625">
        <ele>1897</ele>
        <time>2026-06-15T09:30:47.000Z</time>
        <extensions>
          <ns3:TrackPointExtension>
            <ns3:atemp>20.0</ns3:atemp>
          </ns3:TrackPointExtension>
        </extensions>
      </trkpt>
      <trkpt lat="42.59209639392793178558349609375" lon="20.1050540618598461151123046875">
        <ele>1897.199951171875</ele>
        <time>2026-06-15T09:30:48.000Z</time>
        <extensions>
          <ns3:TrackPointExtension>
            <ns3:atemp>20.0</ns3:atemp>
          </ns3:TrackPointExtension>
        </extensions>
      </trkpt>
      <trkpt lat="42.59207543917000293731689453125" lon="20.10503612458705902099609375">
        <ele>1897.5999755859375</ele>
        <time>2026-06-15T09:30:49.000Z</time>
        <extensions>
          <ns3:TrackPointExtension>
            <ns3:atemp>20.0</ns3:atemp>
          </ns3:TrackPointExtension>
        </extensions>
      </trkpt>
      <trkpt lat="42.5920544005930423736572265625" lon="20.10502145625650882720947265625">
        <ele>1898</ele>
        <time>2026-06-15T09:30:50.000Z</time>
        <extensions>
          <ns3:TrackPointExtension>
            <ns3:atemp>20.0</ns3:atemp>
          </ns3:TrackPointExtension>
        </extensions>
      </trkpt>
      <trkpt lat="42.59203051216900348663330078125" lon="20.105004608631134033203125">
        <ele>1898.4000244140625</ele>
        <time>2026-06-15T09:30:51.000Z</time>
        <extensions>
          <ns3:TrackPointExtension>
            <ns3:atemp>20.0</ns3:atemp>
          </ns3:TrackPointExtension>
        </extensions>
      </trkpt>
      <trkpt lat="42.59200394153594970703125" lon="20.104987509548664093017578125">
        <ele>1898.5999755859375</ele>
        <time>2026-06-15T09:30:52.000Z</time>
        <extensions>
          <ns3:TrackPointExtension>
            <ns3:atemp>20.0</ns3:atemp>
          </ns3:TrackPointExtension>
        </extensions>
      </trkpt>
      <trkpt lat="42.59197904728353023529052734375" lon="20.10497166775166988372802734375">
        <ele>1899</ele>
        <time>2026-06-15T09:30:53.000Z</time>
        <extensions>
          <ns3:TrackPointExtension>
            <ns3:atemp>20.0</ns3:atemp>
          </ns3:TrackPointExtension>
        </extensions>
      </trkpt>
      <trkpt lat="42.5919528119266033172607421875" lon="20.10495557449758052825927734375">
        <ele>1899.199951171875</ele>
        <time>2026-06-15T09:30:54.000Z</time>
        <extensions>
          <ns3:TrackPointExtension>
            <ns3:atemp>20.0</ns3:atemp>
          </ns3:TrackPointExtension>
        </extensions>
      </trkpt>
      <trkpt lat="42.591929845511913299560546875" lon="20.10493646375834941864013671875">
        <ele>1899.5999755859375</ele>
        <time>2026-06-15T09:30:55.000Z</time>
        <extensions>
          <ns3:TrackPointExtension>
            <ns3:atemp>20.0</ns3:atemp>
          </ns3:TrackPointExtension>
        </extensions>
      </trkpt>
      <trkpt lat="42.59190528653562068939208984375" lon="20.104919113218784332275390625">
        <ele>1899.800048828125</ele>
        <time>2026-06-15T09:30:56.000Z</time>
        <extensions>
          <ns3:TrackPointExtension>
            <ns3:atemp>20.0</ns3:atemp>
          </ns3:TrackPointExtension>
        </extensions>
      </trkpt>
      <trkpt lat="42.5918805599212646484375" lon="20.10490000247955322265625">
        <ele>1900.199951171875</ele>
        <time>2026-06-15T09:30:57.000Z</time>
        <extensions>
          <ns3:TrackPointExtension>
            <ns3:atemp>20.0</ns3:atemp>
          </ns3:TrackPointExtension>
        </extensions>
      </trkpt>
      <trkpt lat="42.59185977280139923095703125" lon="20.104881227016448974609375">
        <ele>1900.4000244140625</ele>
        <time>2026-06-15T09:30:58.000Z</time>
        <extensions>
          <ns3:TrackPointExtension>
            <ns3:atemp>20.0</ns3:atemp>
          </ns3:TrackPointExtension>
        </extensions>
      </trkpt>
      <trkpt lat="42.59184007532894611358642578125" lon="20.10486270301043987274169921875">
        <ele>1900.5999755859375</ele>
        <time>2026-06-15T09:30:59.000Z</time>
        <extensions>
          <ns3:TrackPointExtension>
            <ns3:atemp>20.0</ns3:atemp>
          </ns3:TrackPointExtension>
        </extensions>
      </trkpt>
      <trkpt lat="42.5918190367519855499267578125" lon="20.10484241880476474761962890625">
        <ele>1901</ele>
        <time>2026-06-15T09:31:00.000Z</time>
        <extensions>
          <ns3:TrackPointExtension>
            <ns3:atemp>20.0</ns3:atemp>
          </ns3:TrackPointExtension>
        </extensions>
      </trkpt>
      <trkpt lat="42.5918005965650081634521484375" lon="20.10481995530426502227783203125">
        <ele>1901.199951171875</ele>
        <time>2026-06-15T09:31:01.000Z</time>
        <extensions>
          <ns3:TrackPointExtension>
            <ns3:atemp>20.0</ns3:atemp>
          </ns3:TrackPointExtension>
        </extensions>
      </trkpt>
      <trkpt lat="42.59178056381642818450927734375" lon="20.10479740798473358154296875">
        <ele>1901.5999755859375</ele>
        <time>2026-06-15T09:31:02.000Z</time>
        <extensions>
          <ns3:TrackPointExtension>
            <ns3:atemp>20.0</ns3:atemp>
          </ns3:TrackPointExtension>
        </extensions>
      </trkpt>
      <trkpt lat="42.59176279418170452117919921875" lon="20.10477326810359954833984375">
        <ele>1901.800048828125</ele>
        <time>2026-06-15T09:31:03.000Z</time>
        <extensions>
          <ns3:TrackPointExtension>
            <ns3:atemp>20.0</ns3:atemp>
          </ns3:TrackPointExtension>
        </extensions>
      </trkpt>
      <trkpt lat="42.59174183942377567291259765625" lon="20.1047489605844020843505859375">
        <ele>1902</ele>
        <time>2026-06-15T09:31:04.000Z</time>
        <extensions>
          <ns3:TrackPointExtension>
            <ns3:atemp>20.0</ns3:atemp>
          </ns3:TrackPointExtension>
        </extensions>
      </trkpt>
      <trkpt lat="42.59172071702778339385986328125" lon="20.104725323617458343505859375">
        <ele>1902.4000244140625</ele>
        <time>2026-06-15T09:31:05.000Z</time>
        <extensions>
          <ns3:TrackPointExtension>
            <ns3:atemp>20.0</ns3:atemp>
          </ns3:TrackPointExtension>
        </extensions>
      </trkpt>
      <trkpt lat="42.5917043723165988922119140625" lon="20.10470126755535602569580078125">
        <ele>1902.5999755859375</ele>
        <time>2026-06-15T09:31:06.000Z</time>
        <extensions>
          <ns3:TrackPointExtension>
            <ns3:atemp>20.0</ns3:atemp>
          </ns3:TrackPointExtension>
        </extensions>
      </trkpt>
      <trkpt lat="42.59168735705316066741943359375" lon="20.10467913933098316192626953125">
        <ele>1902.800048828125</ele>
        <time>2026-06-15T09:31:07.000Z</time>
        <extensions>
          <ns3:TrackPointExtension>
            <ns3:atemp>20.0</ns3:atemp>
          </ns3:TrackPointExtension>
        </extensions>
      </trkpt>
      <trkpt lat="42.5916711799800395965576171875" lon="20.1046544127166271209716796875">
        <ele>1903</ele>
        <time>2026-06-15T09:31:08.000Z</time>
        <extensions>
          <ns3:TrackPointExtension>
            <ns3:atemp>20.0</ns3:atemp>
          </ns3:TrackPointExtension>
        </extensions>
      </trkpt>
      <trkpt lat="42.59165449999272823333740234375" lon="20.104626081883907318115234375">
        <ele>1903.4000244140625</ele>
        <time>2026-06-15T09:31:09.000Z</time>
        <extensions>
          <ns3:TrackPointExtension>
            <ns3:atemp>20.0</ns3:atemp>
          </ns3:TrackPointExtension>
        </extensions>
      </trkpt>
      <trkpt lat="42.591640837490558624267578125" lon="20.10459733195602893829345703125">
        <ele>1903.5999755859375</ele>
        <time>2026-06-15T09:31:10.000Z</time>
        <extensions>
          <ns3:TrackPointExtension>
            <ns3:atemp>20.0</ns3:atemp>
          </ns3:TrackPointExtension>
        </extensions>
      </trkpt>
      <trkpt lat="42.5916302762925624847412109375" lon="20.1045658998191356658935546875">
        <ele>1904</ele>
        <time>2026-06-15T09:31:11.000Z</time>
        <extensions>
          <ns3:TrackPointExtension>
            <ns3:atemp>20.0</ns3:atemp>
          </ns3:TrackPointExtension>
        </extensions>
      </trkpt>
      <trkpt lat="42.59161728434264659881591796875" lon="20.10453714989125728607177734375">
        <ele>1904.4000244140625</ele>
        <time>2026-06-15T09:31:12.000Z</time>
        <extensions>
          <ns3:TrackPointExtension>
            <ns3:atemp>20.0</ns3:atemp>
          </ns3:TrackPointExtension>
        </extensions>
      </trkpt>
      <trkpt lat="42.59160789661109447479248046875" lon="20.1045097410678863525390625">
        <ele>1904.800048828125</ele>
        <time>2026-06-15T09:31:13.000Z</time>
        <extensions>
          <ns3:TrackPointExtension>
            <ns3:atemp>20.0</ns3:atemp>
          </ns3:TrackPointExtension>
        </extensions>
      </trkpt>
      <trkpt lat="42.59159984998404979705810546875" lon="20.10447864420711994171142578125">
        <ele>1905.199951171875</ele>
        <time>2026-06-15T09:31:14.000Z</time>
        <extensions>
          <ns3:TrackPointExtension>
            <ns3:atemp>20.0</ns3:atemp>
          </ns3:TrackPointExtension>
        </extensions>
      </trkpt>
      <trkpt lat="42.591587863862514495849609375" lon="20.104455761611461639404296875">
        <ele>1905.4000244140625</ele>
        <time>2026-06-15T09:31:15.000Z</time>
        <extensions>
          <ns3:TrackPointExtension>
            <ns3:atemp>20.0</ns3:atemp>
          </ns3:TrackPointExtension>
        </extensions>
      </trkpt>
      <trkpt lat="42.591574452817440032958984375" lon="20.10442952625453472137451171875">
        <ele>1905.5999755859375</ele>
        <time>2026-06-15T09:31:16.000Z</time>
        <extensions>
          <ns3:TrackPointExtension>
            <ns3:atemp>20.0</ns3:atemp>
          </ns3:TrackPointExtension>
        </extensions>
      </trkpt>
      <trkpt lat="42.59156280197203159332275390625" lon="20.10440505109727382659912109375">
        <ele>1906</ele>
        <time>2026-06-15T09:31:17.000Z</time>
        <extensions>
          <ns3:TrackPointExtension>
            <ns3:atemp>20.0</ns3:atemp>
          </ns3:TrackPointExtension>
        </extensions>
      </trkpt>
      <trkpt lat="42.5915524922311305999755859375" lon="20.10437387041747570037841796875">
        <ele>1906.199951171875</ele>
        <time>2026-06-15T09:31:18.000Z</time>
        <extensions>
          <ns3:TrackPointExtension>
            <ns3:atemp>20.0</ns3:atemp>
          </ns3:TrackPointExtension>
        </extensions>
      </trkpt>
      <trkpt lat="42.59154033847153186798095703125" lon="20.1043385826051235198974609375">
        <ele>1906.4000244140625</ele>
        <time>2026-06-15T09:31:19.000Z</time>
        <extensions>
          <ns3:TrackPointExtension>
            <ns3:atemp>20.0</ns3:atemp>
          </ns3:TrackPointExtension>
        </extensions>
      </trkpt>
      <trkpt lat="42.59153028018772602081298828125" lon="20.10430396534502506256103515625">
        <ele>1906.800048828125</ele>
        <time>2026-06-15T09:31:20.000Z</time>
        <extensions>
          <ns3:TrackPointExtension>
            <ns3:atemp>20.0</ns3:atemp>
          </ns3:TrackPointExtension>
        </extensions>
      </trkpt>
      <trkpt lat="42.5915192998945713043212890625" lon="20.10426758788526058197021484375">
        <ele>1907</ele>
        <time>2026-06-15T09:31:21.000Z</time>
        <extensions>
          <ns3:TrackPointExtension>
            <ns3:atemp>20.0</ns3:atemp>
          </ns3:TrackPointExtension>
        </extensions>
      </trkpt>
      <trkpt lat="42.59150865487754344940185546875" lon="20.104232467710971832275390625">
        <ele>1907.199951171875</ele>
        <time>2026-06-15T09:31:22.000Z</time>
        <extensions>
          <ns3:TrackPointExtension>
            <ns3:atemp>20.0</ns3:atemp>
          </ns3:TrackPointExtension>
        </extensions>
      </trkpt>
      <trkpt lat="42.59149968624114990234375" lon="20.104199945926666259765625">
        <ele>1907.4000244140625</ele>
        <time>2026-06-15T09:31:23.000Z</time>
        <extensions>
          <ns3:TrackPointExtension>
            <ns3:atemp>20.0</ns3:atemp>
          </ns3:TrackPointExtension>
        </extensions>
      </trkpt>
      <trkpt lat="42.591490633785724639892578125" lon="20.10416734032332897186279296875">
        <ele>1907.800048828125</ele>
        <time>2026-06-15T09:31:24.000Z</time>
        <extensions>
          <ns3:TrackPointExtension>
            <ns3:atemp>20.0</ns3:atemp>
          </ns3:TrackPointExtension>
        </extensions>
      </trkpt>
      <trkpt lat="42.59148032404482364654541015625" lon="20.10413532145321369171142578125">
        <ele>1908</ele>
        <time>2026-06-15T09:31:25.000Z</time>
        <extensions>
          <ns3:TrackPointExtension>
            <ns3:atemp>20.0</ns3:atemp>
          </ns3:TrackPointExtension>
        </extensions>
      </trkpt>
      <trkpt lat="42.5914680026471614837646484375" lon="20.10410732589662075042724609375">
        <ele>1908.4000244140625</ele>
        <time>2026-06-15T09:31:26.000Z</time>
        <extensions>
          <ns3:TrackPointExtension>
            <ns3:atemp>20.0</ns3:atemp>
          </ns3:TrackPointExtension>
        </extensions>
      </trkpt>
      <trkpt lat="42.59145618416368961334228515625" lon="20.10407480411231517791748046875">
        <ele>1908.5999755859375</ele>
        <time>2026-06-15T09:31:27.000Z</time>
        <extensions>
          <ns3:TrackPointExtension>
            <ns3:atemp>20.0</ns3:atemp>
          </ns3:TrackPointExtension>
        </extensions>
      </trkpt>
      <trkpt lat="42.5914438627660274505615234375" lon="20.104043371975421905517578125">
        <ele>1909</ele>
        <time>2026-06-15T09:31:28.000Z</time>
        <extensions>
          <ns3:TrackPointExtension>
            <ns3:atemp>20.0</ns3:atemp>
          </ns3:TrackPointExtension>
        </extensions>
      </trkpt>
      <trkpt lat="42.5914297811686992645263671875" lon="20.10401244275271892547607421875">
        <ele>1909.199951171875</ele>
        <time>2026-06-15T09:31:29.000Z</time>
        <extensions>
          <ns3:TrackPointExtension>
            <ns3:atemp>20.0</ns3:atemp>
          </ns3:TrackPointExtension>
        </extensions>
      </trkpt>
      <trkpt lat="42.591416202485561370849609375" lon="20.10398159734904766082763671875">
        <ele>1909.5999755859375</ele>
        <time>2026-06-15T09:31:30.000Z</time>
        <extensions>
          <ns3:TrackPointExtension>
            <ns3:atemp>20.0</ns3:atemp>
          </ns3:TrackPointExtension>
        </extensions>
      </trkpt>
      <trkpt lat="42.59140555746853351593017578125" lon="20.103955529630184173583984375">
        <ele>1909.800048828125</ele>
        <time>2026-06-15T09:31:31.000Z</time>
        <extensions>
          <ns3:TrackPointExtension>
            <ns3:atemp>20.0</ns3:atemp>
          </ns3:TrackPointExtension>
        </extensions>
      </trkpt>
      <trkpt lat="42.59139432571828365325927734375" lon="20.10392359457910060882568359375">
        <ele>1910.199951171875</ele>
        <time>2026-06-15T09:31:32.000Z</time>
        <extensions>
          <ns3:TrackPointExtension>
            <ns3:atemp>20.0</ns3:atemp>
          </ns3:TrackPointExtension>
        </extensions>
      </trkpt>
      <trkpt lat="42.59138292632997035980224609375" lon="20.10389291681349277496337890625">
        <ele>1910.4000244140625</ele>
        <time>2026-06-15T09:31:33.000Z</time>
        <extensions>
          <ns3:TrackPointExtension>
            <ns3:atemp>20.0</ns3:atemp>
          </ns3:TrackPointExtension>
        </extensions>
      </trkpt>
      <trkpt lat="42.5913707725703716278076171875" lon="20.103861652314662933349609375">
        <ele>1910.5999755859375</ele>
        <time>2026-06-15T09:31:34.000Z</time>
        <extensions>
          <ns3:TrackPointExtension>
            <ns3:atemp>20.0</ns3:atemp>
          </ns3:TrackPointExtension>
        </extensions>
      </trkpt>
      <trkpt lat="42.5913560204207897186279296875" lon="20.1038336567580699920654296875">
        <ele>1910.800048828125</ele>
        <time>2026-06-15T09:31:35.000Z</time>
        <extensions>
          <ns3:TrackPointExtension>
            <ns3:atemp>20.0</ns3:atemp>
          </ns3:TrackPointExtension>
        </extensions>
      </trkpt>
      <trkpt lat="42.59134118445217609405517578125" lon="20.10380364954471588134765625">
        <ele>1911.199951171875</ele>
        <time>2026-06-15T09:31:36.000Z</time>
        <extensions>
          <ns3:TrackPointExtension>
            <ns3:atemp>20.0</ns3:atemp>
          </ns3:TrackPointExtension>
        </extensions>
      </trkpt>
      <trkpt lat="42.5913265161216259002685546875" lon="20.10377624072134494781494140625">
        <ele>1911.4000244140625</ele>
        <time>2026-06-15T09:31:37.000Z</time>
        <extensions>
          <ns3:TrackPointExtension>
            <ns3:atemp>20.0</ns3:atemp>
          </ns3:TrackPointExtension>
        </extensions>
      </trkpt>
      <trkpt lat="42.59130966849625110626220703125" lon="20.1037495024502277374267578125">
        <ele>1911.5999755859375</ele>
        <time>2026-06-15T09:31:38.000Z</time>
        <extensions>
          <ns3:TrackPointExtension>
            <ns3:atemp>20.0</ns3:atemp>
          </ns3:TrackPointExtension>
        </extensions>
      </trkpt>
      <trkpt lat="42.59129357524216175079345703125" lon="20.10372276417911052703857421875">
        <ele>1911.5999755859375</ele>
        <time>2026-06-15T09:31:39.000Z</time>
        <extensions>
          <ns3:TrackPointExtension>
            <ns3:atemp>20.0</ns3:atemp>
          </ns3:TrackPointExtension>
        </extensions>
      </trkpt>
      <trkpt lat="42.59127731435000896453857421875" lon="20.10369367897510528564453125">
        <ele>1911.5999755859375</ele>
        <time>2026-06-15T09:31:40.000Z</time>
        <extensions>
          <ns3:TrackPointExtension>
            <ns3:atemp>20.0</ns3:atemp>
          </ns3:TrackPointExtension>
        </extensions>
      </trkpt>
      <trkpt lat="42.5912596285343170166015625" lon="20.103668868541717529296875">
        <ele>1911.5999755859375</ele>
        <time>2026-06-15T09:31:41.000Z</time>
        <extensions>
          <ns3:TrackPointExtension>
            <ns3:atemp>20.0</ns3:atemp>
          </ns3:TrackPointExtension>
        </extensions>
      </trkpt>
      <trkpt lat="42.59124009869992733001708984375" lon="20.103645063936710357666015625">
        <ele>1911.800048828125</ele>
        <time>2026-06-15T09:31:42.000Z</time>
        <extensions>
          <ns3:TrackPointExtension>
            <ns3:atemp>20.0</ns3:atemp>
          </ns3:TrackPointExtension>
        </extensions>
      </trkpt>
      <trkpt lat="42.591221071779727935791015625" lon="20.10362100787460803985595703125">
        <ele>1911.800048828125</ele>
        <time>2026-06-15T09:31:43.000Z</time>
        <extensions>
          <ns3:TrackPointExtension>
            <ns3:atemp>20.0</ns3:atemp>
          </ns3:TrackPointExtension>
        </extensions>
      </trkpt>
      <trkpt lat="42.5912001170217990875244140625" lon="20.103594101965427398681640625">
        <ele>1912</ele>
        <time>2026-06-15T09:31:44.000Z</time>
        <extensions>
          <ns3:TrackPointExtension>
            <ns3:atemp>20.0</ns3:atemp>
          </ns3:TrackPointExtension>
        </extensions>
      </trkpt>
      <trkpt lat="42.591180503368377685546875" lon="20.10357205756008625030517578125">
        <ele>1912.199951171875</ele>
        <time>2026-06-15T09:31:45.000Z</time>
        <extensions>
          <ns3:TrackPointExtension>
            <ns3:atemp>20.0</ns3:atemp>
          </ns3:TrackPointExtension>
        </extensions>
      </trkpt>
      <trkpt lat="42.59116080589592456817626953125" lon="20.1035495102405548095703125">
        <ele>1912.4000244140625</ele>
        <time>2026-06-15T09:31:46.000Z</time>
        <extensions>
          <ns3:TrackPointExtension>
            <ns3:atemp>20.0</ns3:atemp>
          </ns3:TrackPointExtension>
        </extensions>
      </trkpt>
      <trkpt lat="42.59114035405218601226806640625" lon="20.10352595709264278411865234375">
        <ele>1912.5999755859375</ele>
        <time>2026-06-15T09:31:47.000Z</time>
        <extensions>
          <ns3:TrackPointExtension>
            <ns3:atemp>20.0</ns3:atemp>
          </ns3:TrackPointExtension>
        </extensions>
      </trkpt>
      <trkpt lat="42.5911174714565277099609375" lon="20.10350634343922138214111328125">
        <ele>1912.800048828125</ele>
        <time>2026-06-15T09:31:48.000Z</time>
        <extensions>
          <ns3:TrackPointExtension>
            <ns3:atemp>20.0</ns3:atemp>
          </ns3:TrackPointExtension>
        </extensions>
      </trkpt>
      <trkpt lat="42.5910914875566959381103515625" lon="20.1034891605377197265625">
        <ele>1913</ele>
        <time>2026-06-15T09:31:49.000Z</time>
        <extensions>
          <ns3:TrackPointExtension>
            <ns3:atemp>20.0</ns3:atemp>
          </ns3:TrackPointExtension>
        </extensions>
      </trkpt>
      <trkpt lat="42.5910720415413379669189453125" lon="20.103469379246234893798828125">
        <ele>1913.199951171875</ele>
        <time>2026-06-15T09:31:50.000Z</time>
        <extensions>
          <ns3:TrackPointExtension>
            <ns3:atemp>20.0</ns3:atemp>
          </ns3:TrackPointExtension>
        </extensions>
      </trkpt>
      <trkpt lat="42.591051757335662841796875" lon="20.10345228016376495361328125">
        <ele>1913.4000244140625</ele>
        <time>2026-06-15T09:31:51.000Z</time>
        <extensions>
          <ns3:TrackPointExtension>
            <ns3:atemp>20.0</ns3:atemp>
          </ns3:TrackPointExtension>
        </extensions>
      </trkpt>
      <trkpt lat="42.5910291261970996856689453125" lon="20.10343174450099468231201171875">
        <ele>1913.4000244140625</ele>
        <time>2026-06-15T09:31:52.000Z</time>
        <extensions>
          <ns3:TrackPointExtension>
            <ns3:atemp>20.0</ns3:atemp>
          </ns3:TrackPointExtension>
        </extensions>
      </trkpt>
      <trkpt lat="42.591006495058536529541015625" lon="20.1034068502485752105712890625">
        <ele>1913.5999755859375</ele>
        <time>2026-06-15T09:31:53.000Z</time>
        <extensions>
          <ns3:TrackPointExtension>
            <ns3:atemp>20.0</ns3:atemp>
          </ns3:TrackPointExtension>
        </extensions>
      </trkpt>
      <trkpt lat="42.59098361246287822723388671875" lon="20.103384554386138916015625">
        <ele>1913.800048828125</ele>
        <time>2026-06-15T09:31:54.000Z</time>
        <extensions>
          <ns3:TrackPointExtension>
            <ns3:atemp>20.0</ns3:atemp>
          </ns3:TrackPointExtension>
        </extensions>
      </trkpt>
      <trkpt lat="42.59095980785787105560302734375" lon="20.1033662818372249603271484375">
        <ele>1914</ele>
        <time>2026-06-15T09:31:55.000Z</time>
        <extensions>
          <ns3:TrackPointExtension>
            <ns3:atemp>20.0</ns3:atemp>
          </ns3:TrackPointExtension>
        </extensions>
      </trkpt>
      <trkpt lat="42.5909345783293247222900390625" lon="20.103349350392818450927734375">
        <ele>1914.199951171875</ele>
        <time>2026-06-15T09:31:56.000Z</time>
        <extensions>
          <ns3:TrackPointExtension>
            <ns3:atemp>20.0</ns3:atemp>
          </ns3:TrackPointExtension>
        </extensions>
      </trkpt>
      <trkpt lat="42.59091102518141269683837890625" lon="20.1033347658812999725341796875">
        <ele>1914.4000244140625</ele>
        <time>2026-06-15T09:31:57.000Z</time>
        <extensions>
          <ns3:TrackPointExtension>
            <ns3:atemp>20.0</ns3:atemp>
          </ns3:TrackPointExtension>
        </extensions>
      </trkpt>
      <trkpt lat="42.59088386781513690948486328125" lon="20.10332219302654266357421875">
        <ele>1914.5999755859375</ele>
        <time>2026-06-15T09:31:58.000Z</time>
        <extensions>
          <ns3:TrackPointExtension>
            <ns3:atemp>20.0</ns3:atemp>
          </ns3:TrackPointExtension>
        </extensions>
      </trkpt>
      <trkpt lat="42.59086090140044689178466796875" lon="20.10330266319215297698974609375">
        <ele>1915</ele>
        <time>2026-06-15T09:31:59.000Z</time>
        <extensions>
          <ns3:TrackPointExtension>
            <ns3:atemp>20.0</ns3:atemp>
          </ns3:TrackPointExtension>
        </extensions>
      </trkpt>
      <trkpt lat="42.59083843789994716644287109375" lon="20.1032908447086811065673828125">
        <ele>1915.199951171875</ele>
        <time>2026-06-15T09:32:00.000Z</time>
        <extensions>
          <ns3:TrackPointExtension>
            <ns3:atemp>20.0</ns3:atemp>
          </ns3:TrackPointExtension>
        </extensions>
      </trkpt>
      <trkpt lat="42.5908132083714008331298828125" lon="20.10327818803489208221435546875">
        <ele>1915.5999755859375</ele>
        <time>2026-06-15T09:32:01.000Z</time>
        <extensions>
          <ns3:TrackPointExtension>
            <ns3:atemp>20.0</ns3:atemp>
          </ns3:TrackPointExtension>
        </extensions>
      </trkpt>
      <trkpt lat="42.59079049341380596160888671875" lon="20.10326511226594448089599609375">
        <ele>1916</ele>
        <time>2026-06-15T09:32:02.000Z</time>
        <extensions>
          <ns3:TrackPointExtension>
            <ns3:atemp>20.0</ns3:atemp>
          </ns3:TrackPointExtension>
        </extensions>
      </trkpt>
      <trkpt lat="42.590765766799449920654296875" lon="20.10324901901185512542724609375">
        <ele>1916.199951171875</ele>
        <time>2026-06-15T09:32:03.000Z</time>
        <extensions>
          <ns3:TrackPointExtension>
            <ns3:atemp>20.0</ns3:atemp>
          </ns3:TrackPointExtension>
        </extensions>
      </trkpt>
      <trkpt lat="42.59074087254703044891357421875" lon="20.10323342867195606231689453125">
        <ele>1916.4000244140625</ele>
        <time>2026-06-15T09:32:04.000Z</time>
        <extensions>
          <ns3:TrackPointExtension>
            <ns3:atemp>20.0</ns3:atemp>
          </ns3:TrackPointExtension>
        </extensions>
      </trkpt>
      <trkpt lat="42.59071505628526210784912109375" lon="20.10322152636945247650146484375">
        <ele>1916.4000244140625</ele>
        <time>2026-06-15T09:32:05.000Z</time>
        <extensions>
          <ns3:TrackPointExtension>
            <ns3:atemp>20.0</ns3:atemp>
          </ns3:TrackPointExtension>
        </extensions>
      </trkpt>
      <trkpt lat="42.5906888209283351898193359375" lon="20.1032090373337268829345703125">
        <ele>1916.5999755859375</ele>
        <time>2026-06-15T09:32:06.000Z</time>
        <extensions>
          <ns3:TrackPointExtension>
            <ns3:atemp>20.0</ns3:atemp>
          </ns3:TrackPointExtension>
        </extensions>
      </trkpt>
      <trkpt lat="42.59066325612366199493408203125" lon="20.10319755412638187408447265625">
        <ele>1916.800048828125</ele>
        <time>2026-06-15T09:32:07.000Z</time>
        <extensions>
          <ns3:TrackPointExtension>
            <ns3:atemp>20.0</ns3:atemp>
          </ns3:TrackPointExtension>
        </extensions>
      </trkpt>
      <trkpt lat="42.59063492529094219207763671875" lon="20.1031919382512569427490234375">
        <ele>1916.800048828125</ele>
        <time>2026-06-15T09:32:08.000Z</time>
        <extensions>
          <ns3:TrackPointExtension>
            <ns3:atemp>20.0</ns3:atemp>
          </ns3:TrackPointExtension>
        </extensions>
      </trkpt>
      <trkpt lat="42.5906046666204929351806640625" lon="20.103186406195163726806640625">
        <ele>1917</ele>
        <time>2026-06-15T09:32:09.000Z</time>
        <extensions>
          <ns3:TrackPointExtension>
            <ns3:atemp>20.0</ns3:atemp>
          </ns3:TrackPointExtension>
        </extensions>
      </trkpt>
      <trkpt lat="42.5905754975974559783935546875" lon="20.10317844338715076446533203125">
        <ele>1917.199951171875</ele>
        <time>2026-06-15T09:32:10.000Z</time>
        <extensions>
          <ns3:TrackPointExtension>
            <ns3:atemp>20.0</ns3:atemp>
          </ns3:TrackPointExtension>
        </extensions>
      </trkpt>
      <trkpt lat="42.590545825660228729248046875" lon="20.10317224077880382537841796875">
        <ele>1917.4000244140625</ele>
        <time>2026-06-15T09:32:11.000Z</time>
        <extensions>
          <ns3:TrackPointExtension>
            <ns3:atemp>20.0</ns3:atemp>
          </ns3:TrackPointExtension>
        </extensions>
      </trkpt>
      <trkpt lat="42.59051866829395294189453125" lon="20.10316193103790283203125">
        <ele>1917.4000244140625</ele>
        <time>2026-06-15T09:32:12.000Z</time>
        <extensions>
          <ns3:TrackPointExtension>
            <ns3:atemp>20.0</ns3:atemp>
          </ns3:TrackPointExtension>
        </extensions>
      </trkpt>
      <trkpt lat="42.59049276821315288543701171875" lon="20.10314977727830410003662109375">
        <ele>1917.5999755859375</ele>
        <time>2026-06-15T09:32:13.000Z</time>
        <extensions>
          <ns3:TrackPointExtension>
            <ns3:atemp>20.0</ns3:atemp>
          </ns3:TrackPointExtension>
        </extensions>
      </trkpt>
      <trkpt lat="42.5904678739607334136962890625" lon="20.10313971899449825286865234375">
        <ele>1917.800048828125</ele>
        <time>2026-06-15T09:32:14.000Z</time>
        <extensions>
          <ns3:TrackPointExtension>
            <ns3:atemp>20.0</ns3:atemp>
          </ns3:TrackPointExtension>
        </extensions>
      </trkpt>
      <trkpt lat="42.5904428958892822265625" lon="20.103127397596836090087890625">
        <ele>1918</ele>
        <time>2026-06-15T09:32:15.000Z</time>
        <extensions>
          <ns3:TrackPointExtension>
            <ns3:atemp>20.0</ns3:atemp>
          </ns3:TrackPointExtension>
        </extensions>
      </trkpt>
      <trkpt lat="42.590417079627513885498046875" lon="20.10311909951269626617431640625">
        <ele>1918.199951171875</ele>
        <time>2026-06-15T09:32:16.000Z</time>
        <extensions>
          <ns3:TrackPointExtension>
            <ns3:atemp>20.0</ns3:atemp>
          </ns3:TrackPointExtension>
        </extensions>
      </trkpt>
      <trkpt lat="42.59039101190865039825439453125" lon="20.10310820303857326507568359375">
        <ele>1918.199951171875</ele>
        <time>2026-06-15T09:32:17.000Z</time>
        <extensions>
          <ns3:TrackPointExtension>
            <ns3:atemp>20.0</ns3:atemp>
          </ns3:TrackPointExtension>
        </extensions>
      </trkpt>
      <trkpt lat="42.5903642736375331878662109375" lon="20.10309822857379913330078125">
        <ele>1918.4000244140625</ele>
        <time>2026-06-15T09:32:18.000Z</time>
        <extensions>
          <ns3:TrackPointExtension>
            <ns3:atemp>20.0</ns3:atemp>
          </ns3:TrackPointExtension>
        </extensions>
      </trkpt>
      <trkpt lat="42.59033703245222568511962890625" lon="20.10308925993740558624267578125">
        <ele>1918.5999755859375</ele>
        <time>2026-06-15T09:32:19.000Z</time>
        <extensions>
          <ns3:TrackPointExtension>
            <ns3:atemp>20.0</ns3:atemp>
          </ns3:TrackPointExtension>
        </extensions>
      </trkpt>
      <trkpt lat="42.5903096236288547515869140625" lon="20.10307869873940944671630859375">
        <ele>1918.800048828125</ele>
        <time>2026-06-15T09:32:20.000Z</time>
        <extensions>
          <ns3:TrackPointExtension>
            <ns3:atemp>20.0</ns3:atemp>
          </ns3:TrackPointExtension>
        </extensions>
      </trkpt>
      <trkpt lat="42.59028674103319644927978515625" lon="20.10306662879884243011474609375">
        <ele>1919</ele>
        <time>2026-06-15T09:32:21.000Z</time>
        <extensions>
          <ns3:TrackPointExtension>
            <ns3:atemp>20.0</ns3:atemp>
          </ns3:TrackPointExtension>
        </extensions>
      </trkpt>
      <trkpt lat="42.59026494808495044708251953125" lon="20.1030524633824825286865234375">
        <ele>1919.199951171875</ele>
        <time>2026-06-15T09:32:22.000Z</time>
        <extensions>
          <ns3:TrackPointExtension>
            <ns3:atemp>20.0</ns3:atemp>
          </ns3:TrackPointExtension>
        </extensions>
      </trkpt>
      <trkpt lat="42.59024030528962612152099609375" lon="20.10304181836545467376708984375">
        <ele>1919.5999755859375</ele>
        <time>2026-06-15T09:32:23.000Z</time>
        <extensions>
          <ns3:TrackPointExtension>
            <ns3:atemp>20.0</ns3:atemp>
          </ns3:TrackPointExtension>
        </extensions>
      </trkpt>
      <trkpt lat="42.590215243399143218994140625" lon="20.1030360348522663116455078125">
        <ele>1919.5999755859375</ele>
        <time>2026-06-15T09:32:24.000Z</time>
        <extensions>
          <ns3:TrackPointExtension>
            <ns3:atemp>20.0</ns3:atemp>
          </ns3:TrackPointExtension>
        </extensions>
      </trkpt>
      <trkpt lat="42.59018884040415287017822265625" lon="20.10303243063390254974365234375">
        <ele>1919.800048828125</ele>
        <time>2026-06-15T09:32:25.000Z</time>
        <extensions>
          <ns3:TrackPointExtension>
            <ns3:atemp>20.0</ns3:atemp>
          </ns3:TrackPointExtension>
        </extensions>
      </trkpt>
      <trkpt lat="42.5901637785136699676513671875" lon="20.1030299998819828033447265625">
        <ele>1920</ele>
        <time>2026-06-15T09:32:26.000Z</time>
        <extensions>
          <ns3:TrackPointExtension>
            <ns3:atemp>20.0</ns3:atemp>
          </ns3:TrackPointExtension>
        </extensions>
      </trkpt>
      <trkpt lat="42.590144164860248565673828125" lon="20.10302321054041385650634765625">
        <ele>1920</ele>
        <time>2026-06-15T09:32:27.000Z</time>
        <extensions>
          <ns3:TrackPointExtension>
            <ns3:atemp>20.0</ns3:atemp>
          </ns3:TrackPointExtension>
        </extensions>
      </trkpt>
      <trkpt lat="42.5901275686919689178466796875" lon="20.103012062609195709228515625">
        <ele>1920.199951171875</ele>
        <time>2026-06-15T09:32:28.000Z</time>
        <extensions>
          <ns3:TrackPointExtension>
            <ns3:atemp>20.0</ns3:atemp>
          </ns3:TrackPointExtension>
        </extensions>
      </trkpt>
      <trkpt lat="42.590111978352069854736328125" lon="20.103013403713703155517578125">
        <ele>1920.4000244140625</ele>
        <time>2026-06-15T09:32:29.000Z</time>
        <extensions>
          <ns3:TrackPointExtension>
            <ns3:atemp>20.0</ns3:atemp>
          </ns3:TrackPointExtension>
        </extensions>
      </trkpt>
      <trkpt lat="42.590092532336711883544921875" lon="20.103022120893001556396484375">
        <ele>1920.5999755859375</ele>
        <time>2026-06-15T09:32:30.000Z</time>
        <extensions>
          <ns3:TrackPointExtension>
            <ns3:atemp>20.0</ns3:atemp>
          </ns3:TrackPointExtension>
        </extensions>
      </trkpt>
      <trkpt lat="42.590075433254241943359375" lon="20.1030159182846546173095703125">
        <ele>1920.800048828125</ele>
        <time>2026-06-15T09:32:31.000Z</time>
        <extensions>
          <ns3:TrackPointExtension>
            <ns3:atemp>20.0</ns3:atemp>
          </ns3:TrackPointExtension>
        </extensions>
      </trkpt>
      <trkpt lat="42.59006202220916748046875" lon="20.1030063629150390625">
        <ele>1921</ele>
        <time>2026-06-15T09:32:32.000Z</time>
        <extensions>
          <ns3:TrackPointExtension>
            <ns3:atemp>20.0</ns3:atemp>
          </ns3:TrackPointExtension>
        </extensions>
      </trkpt>
      <trkpt lat="42.5900444202125072479248046875" lon="20.10299320332705974578857421875">
        <ele>1921.199951171875</ele>
        <time>2026-06-15T09:32:33.000Z</time>
        <extensions>
          <ns3:TrackPointExtension>
            <ns3:atemp>20.0</ns3:atemp>
          </ns3:TrackPointExtension>
        </extensions>
      </trkpt>
      <trkpt lat="42.590025477111339569091796875" lon="20.10298985056579113006591796875">
        <ele>1921.4000244140625</ele>
        <time>2026-06-15T09:32:34.000Z</time>
        <extensions>
          <ns3:TrackPointExtension>
            <ns3:atemp>20.0</ns3:atemp>
          </ns3:TrackPointExtension>
        </extensions>
      </trkpt>
      <trkpt lat="42.59000611491501331329345703125" lon="20.10298783890902996063232421875">
        <ele>1921.5999755859375</ele>
        <time>2026-06-15T09:32:35.000Z</time>
        <extensions>
          <ns3:TrackPointExtension>
            <ns3:atemp>20.0</ns3:atemp>
          </ns3:TrackPointExtension>
        </extensions>
      </trkpt>
      <trkpt lat="42.58998532779514789581298828125" lon="20.1029810495674610137939453125">
        <ele>1921.800048828125</ele>
        <time>2026-06-15T09:32:36.000Z</time>
        <extensions>
          <ns3:TrackPointExtension>
            <ns3:atemp>20.0</ns3:atemp>
          </ns3:TrackPointExtension>
        </extensions>
      </trkpt>
      <trkpt lat="42.58996747434139251708984375" lon="20.102975182235240936279296875">
        <ele>1921.800048828125</ele>
        <time>2026-06-15T09:32:37.000Z</time>
        <extensions>
          <ns3:TrackPointExtension>
            <ns3:atemp>20.0</ns3:atemp>
          </ns3:TrackPointExtension>
        </extensions>
      </trkpt>
      <trkpt lat="42.58995180018246173858642578125" lon="20.10297057218849658966064453125">
        <ele>1922</ele>
        <time>2026-06-15T09:32:38.000Z</time>
        <extensions>
          <ns3:TrackPointExtension>
            <ns3:atemp>20.0</ns3:atemp>
          </ns3:TrackPointExtension>
        </extensions>
      </trkpt>
      <trkpt lat="42.58993931114673614501953125" lon="20.102965794503688812255859375">
        <ele>1922.199951171875</ele>
        <time>2026-06-15T09:32:39.000Z</time>
        <extensions>
          <ns3:TrackPointExtension>
            <ns3:atemp>20.0</ns3:atemp>
          </ns3:TrackPointExtension>
        </extensions>
      </trkpt>
      <trkpt lat="42.5899294205009937286376953125" lon="20.10296051390469074249267578125">
        <ele>1922.199951171875</ele>
        <time>2026-06-15T09:32:40.000Z</time>
        <extensions>
          <ns3:TrackPointExtension>
            <ns3:atemp>20.0</ns3:atemp>
          </ns3:TrackPointExtension>
        </extensions>
      </trkpt>
      <trkpt lat="42.58993151597678661346435546875" lon="20.102957077324390411376953125">
        <ele>1922.4000244140625</ele>
        <time>2026-06-15T09:32:41.000Z</time>
        <extensions>
          <ns3:TrackPointExtension>
            <ns3:atemp>20.0</ns3:atemp>
          </ns3:TrackPointExtension>
        </extensions>
      </trkpt>
      <trkpt lat="42.58993151597678661346435546875" lon="20.102957077324390411376953125">
        <ele>1922.5999755859375</ele>
        <time>2026-06-15T09:32:42.000Z</time>
        <extensions>
          <ns3:TrackPointExtension>
            <ns3:atemp>20.0</ns3:atemp>
          </ns3:TrackPointExtension>
        </extensions>
      </trkpt>
      <trkpt lat="42.58993151597678661346435546875" lon="20.102957077324390411376953125">
        <ele>1922.800048828125</ele>
        <time>2026-06-15T09:32:43.000Z</time>
        <extensions>
          <ns3:TrackPointExtension>
            <ns3:atemp>20.0</ns3:atemp>
          </ns3:TrackPointExtension>
        </extensions>
      </trkpt>
      <trkpt lat="42.58993151597678661346435546875" lon="20.102957077324390411376953125">
        <ele>1922.800048828125</ele>
        <time>2026-06-15T09:32:44.000Z</time>
        <extensions>
          <ns3:TrackPointExtension>
            <ns3:atemp>20.0</ns3:atemp>
          </ns3:TrackPointExtension>
        </extensions>
      </trkpt>
      <trkpt lat="42.58993151597678661346435546875" lon="20.102957077324390411376953125">
        <ele>1923</ele>
        <time>2026-06-15T09:32:45.000Z</time>
        <extensions>
          <ns3:TrackPointExtension>
            <ns3:atemp>20.0</ns3:atemp>
          </ns3:TrackPointExtension>
        </extensions>
      </trkpt>
      <trkpt lat="42.58993151597678661346435546875" lon="20.102957077324390411376953125">
        <ele>1923</ele>
        <time>2026-06-15T09:32:46.000Z</time>
        <extensions>
          <ns3:TrackPointExtension>
            <ns3:atemp>20.0</ns3:atemp>
          </ns3:TrackPointExtension>
        </extensions>
      </trkpt>
      <trkpt lat="42.58993151597678661346435546875" lon="20.102957077324390411376953125">
        <ele>1923</ele>
        <time>2026-06-15T09:32:47.000Z</time>
        <extensions>
          <ns3:TrackPointExtension>
            <ns3:atemp>20.0</ns3:atemp>
          </ns3:TrackPointExtension>
        </extensions>
      </trkpt>
      <trkpt lat="42.58993151597678661346435546875" lon="20.102957077324390411376953125">
        <ele>1923</ele>
        <time>2026-06-15T09:32:48.000Z</time>
        <extensions>
          <ns3:TrackPointExtension>
            <ns3:atemp>20.0</ns3:atemp>
          </ns3:TrackPointExtension>
        </extensions>
      </trkpt>
      <trkpt lat="42.58993126451969146728515625" lon="20.10295732878148555755615234375">
        <ele>1923</ele>
        <time>2026-06-15T09:32:49.000Z</time>
        <extensions>
          <ns3:TrackPointExtension>
            <ns3:atemp>20.0</ns3:atemp>
          </ns3:TrackPointExtension>
        </extensions>
      </trkpt>
      <trkpt lat="42.58992279879748821258544921875" lon="20.10294207371771335601806640625">
        <ele>1923</ele>
        <time>2026-06-15T09:32:50.000Z</time>
        <extensions>
          <ns3:TrackPointExtension>
            <ns3:atemp>20.0</ns3:atemp>
          </ns3:TrackPointExtension>
        </extensions>
      </trkpt>
      <trkpt lat="42.58990972302854061126708984375" lon="20.1029203645884990692138671875">
        <ele>1923</ele>
        <time>2026-06-15T09:32:51.000Z</time>
        <extensions>
          <ns3:TrackPointExtension>
            <ns3:atemp>19.0</ns3:atemp>
          </ns3:TrackPointExtension>
        </extensions>
      </trkpt>
      <trkpt lat="42.5898905284702777862548828125" lon="20.1029022596776485443115234375">
        <ele>1923</ele>
        <time>2026-06-15T09:32:52.000Z</time>
        <extensions>
          <ns3:TrackPointExtension>
            <ns3:atemp>20.0</ns3:atemp>
          </ns3:TrackPointExtension>
        </extensions>
      </trkpt>
      <trkpt lat="42.5898670591413974761962890625" lon="20.102893374860286712646484375">
        <ele>1923.199951171875</ele>
        <time>2026-06-15T09:32:53.000Z</time>
        <extensions>
          <ns3:TrackPointExtension>
            <ns3:atemp>20.0</ns3:atemp>
          </ns3:TrackPointExtension>
        </extensions>
      </trkpt>
      <trkpt lat="42.58983872830867767333984375" lon="20.10289094410836696624755859375">
        <ele>1923.199951171875</ele>
        <time>2026-06-15T09:32:54.000Z</time>
        <extensions>
          <ns3:TrackPointExtension>
            <ns3:atemp>19.0</ns3:atemp>
          </ns3:TrackPointExtension>
        </extensions>
      </trkpt>
      <trkpt lat="42.5898083858191967010498046875" lon="20.1028838194906711578369140625">
        <ele>1923.199951171875</ele>
        <time>2026-06-15T09:32:55.000Z</time>
        <extensions>
          <ns3:TrackPointExtension>
            <ns3:atemp>19.0</ns3:atemp>
          </ns3:TrackPointExtension>
        </extensions>
      </trkpt>
      <trkpt lat="42.58977569639682769775390625" lon="20.1028761081397533416748046875">
        <ele>1923.4000244140625</ele>
        <time>2026-06-15T09:32:56.000Z</time>
        <extensions>
          <ns3:TrackPointExtension>
            <ns3:atemp>20.0</ns3:atemp>
          </ns3:TrackPointExtension>
        </extensions>
      </trkpt>
      <trkpt lat="42.589742504060268402099609375" lon="20.1028683967888355255126953125">
        <ele>1923.5999755859375</ele>
        <time>2026-06-15T09:32:57.000Z</time>
        <extensions>
          <ns3:TrackPointExtension>
            <ns3:atemp>20.0</ns3:atemp>
          </ns3:TrackPointExtension>
        </extensions>
      </trkpt>
      <trkpt lat="42.58970805443823337554931640625" lon="20.10286160744726657867431640625">
        <ele>1923.5999755859375</ele>
        <time>2026-06-15T09:32:58.000Z</time>
        <extensions>
          <ns3:TrackPointExtension>
            <ns3:atemp>20.0</ns3:atemp>
          </ns3:TrackPointExtension>
        </extensions>
      </trkpt>
      <trkpt lat="42.58967368863523006439208984375" lon="20.10285540483891963958740234375">
        <ele>1923.800048828125</ele>
        <time>2026-06-15T09:32:59.000Z</time>
        <extensions>
          <ns3:TrackPointExtension>
            <ns3:atemp>20.0</ns3:atemp>
          </ns3:TrackPointExtension>
        </extensions>
      </trkpt>
      <trkpt lat="42.58963798172771930694580078125" lon="20.10284953750669956207275390625">
        <ele>1924</ele>
        <time>2026-06-15T09:33:00.000Z</time>
        <extensions>
          <ns3:TrackPointExtension>
            <ns3:atemp>20.0</ns3:atemp>
          </ns3:TrackPointExtension>
        </extensions>
      </trkpt>
      <trkpt lat="42.58959992788732051849365234375" lon="20.10283830575644969940185546875">
        <ele>1924.4000244140625</ele>
        <time>2026-06-15T09:33:01.000Z</time>
        <extensions>
          <ns3:TrackPointExtension>
            <ns3:atemp>19.0</ns3:atemp>
          </ns3:TrackPointExtension>
        </extensions>
      </trkpt>
      <trkpt lat="42.58956170640885829925537109375" lon="20.10283595882356166839599609375">
        <ele>1924.5999755859375</ele>
        <time>2026-06-15T09:33:02.000Z</time>
        <extensions>
          <ns3:TrackPointExtension>
            <ns3:atemp>19.0</ns3:atemp>
          </ns3:TrackPointExtension>
        </extensions>
      </trkpt>
      <trkpt lat="42.5895217247307300567626953125" lon="20.10283528827130794525146484375">
        <ele>1924.800048828125</ele>
        <time>2026-06-15T09:33:03.000Z</time>
        <extensions>
          <ns3:TrackPointExtension>
            <ns3:atemp>19.0</ns3:atemp>
          </ns3:TrackPointExtension>
        </extensions>
      </trkpt>
      <trkpt lat="42.58948333561420440673828125" lon="20.10283134877681732177734375">
        <ele>1925</ele>
        <time>2026-06-15T09:33:04.000Z</time>
        <extensions>
          <ns3:TrackPointExtension>
            <ns3:atemp>19.0</ns3:atemp>
          </ns3:TrackPointExtension>
        </extensions>
      </trkpt>
      <trkpt lat="42.58944603614509105682373046875" lon="20.10282858274877071380615234375">
        <ele>1925.4000244140625</ele>
        <time>2026-06-15T09:33:05.000Z</time>
        <extensions>
          <ns3:TrackPointExtension>
            <ns3:atemp>19.0</ns3:atemp>
          </ns3:TrackPointExtension>
        </extensions>
      </trkpt>
      <trkpt lat="42.5894090719521045684814453125" lon="20.10281684808433055877685546875">
        <ele>1925.5999755859375</ele>
        <time>2026-06-15T09:33:06.000Z</time>
        <extensions>
          <ns3:TrackPointExtension>
            <ns3:atemp>19.0</ns3:atemp>
          </ns3:TrackPointExtension>
        </extensions>
      </trkpt>
      <trkpt lat="42.589372359216213226318359375" lon="20.1028050296008586883544921875">
        <ele>1926</ele>
        <time>2026-06-15T09:33:07.000Z</time>
        <extensions>
          <ns3:TrackPointExtension>
            <ns3:atemp>19.0</ns3:atemp>
          </ns3:TrackPointExtension>
        </extensions>
      </trkpt>
      <trkpt lat="42.58933556266129016876220703125" lon="20.1027958095073699951171875">
        <ele>1926.4000244140625</ele>
        <time>2026-06-15T09:33:08.000Z</time>
        <extensions>
          <ns3:TrackPointExtension>
            <ns3:atemp>19.0</ns3:atemp>
          </ns3:TrackPointExtension>
        </extensions>
      </trkpt>
      <trkpt lat="42.58929901756346225738525390625" lon="20.10279254056513309478759765625">
        <ele>1926.5999755859375</ele>
        <time>2026-06-15T09:33:09.000Z</time>
        <extensions>
          <ns3:TrackPointExtension>
            <ns3:atemp>19.0</ns3:atemp>
          </ns3:TrackPointExtension>
        </extensions>
      </trkpt>
      <trkpt lat="42.58926331065595149993896484375" lon="20.10279052890837192535400390625">
        <ele>1926.800048828125</ele>
        <time>2026-06-15T09:33:10.000Z</time>
        <extensions>
          <ns3:TrackPointExtension>
            <ns3:atemp>19.0</ns3:atemp>
          </ns3:TrackPointExtension>
        </extensions>
      </trkpt>
      <trkpt lat="42.58922844193875789642333984375" lon="20.10278700850903987884521484375">
        <ele>1927.199951171875</ele>
        <time>2026-06-15T09:33:11.000Z</time>
        <extensions>
          <ns3:TrackPointExtension>
            <ns3:atemp>19.0</ns3:atemp>
          </ns3:TrackPointExtension>
        </extensions>
      </trkpt>
      <trkpt lat="42.58919231593608856201171875" lon="20.1027822308242321014404296875">
        <ele>1927.5999755859375</ele>
        <time>2026-06-15T09:33:12.000Z</time>
        <extensions>
          <ns3:TrackPointExtension>
            <ns3:atemp>19.0</ns3:atemp>
          </ns3:TrackPointExtension>
        </extensions>
      </trkpt>
      <trkpt lat="42.5891562737524509429931640625" lon="20.10277502238750457763671875">
        <ele>1928</ele>
        <time>2026-06-15T09:33:13.000Z</time>
        <extensions>
          <ns3:TrackPointExtension>
            <ns3:atemp>19.0</ns3:atemp>
          </ns3:TrackPointExtension>
        </extensions>
      </trkpt>
      <trkpt lat="42.58912282995879650115966796875" lon="20.10276588611304759979248046875">
        <ele>1928.199951171875</ele>
        <time>2026-06-15T09:33:14.000Z</time>
        <extensions>
          <ns3:TrackPointExtension>
            <ns3:atemp>19.0</ns3:atemp>
          </ns3:TrackPointExtension>
        </extensions>
      </trkpt>
      <trkpt lat="42.5890898890793323516845703125" lon="20.10275281034409999847412109375">
        <ele>1928.5999755859375</ele>
        <time>2026-06-15T09:33:15.000Z</time>
        <extensions>
          <ns3:TrackPointExtension>
            <ns3:atemp>19.0</ns3:atemp>
          </ns3:TrackPointExtension>
        </extensions>
      </trkpt>
      <trkpt lat="42.58906113915145397186279296875" lon="20.1027349568903446197509765625">
        <ele>1929</ele>
        <time>2026-06-15T09:33:16.000Z</time>
        <extensions>
          <ns3:TrackPointExtension>
            <ns3:atemp>19.0</ns3:atemp>
          </ns3:TrackPointExtension>
        </extensions>
      </trkpt>
      <trkpt lat="42.58903716690838336944580078125" lon="20.1027161814272403717041015625">
        <ele>1929.199951171875</ele>
        <time>2026-06-15T09:33:17.000Z</time>
        <extensions>
          <ns3:TrackPointExtension>
            <ns3:atemp>19.0</ns3:atemp>
          </ns3:TrackPointExtension>
        </extensions>
      </trkpt>
      <trkpt lat="42.5890137813985347747802734375" lon="20.10269748978316783905029296875">
        <ele>1929.4000244140625</ele>
        <time>2026-06-15T09:33:18.000Z</time>
        <extensions>
          <ns3:TrackPointExtension>
            <ns3:atemp>19.0</ns3:atemp>
          </ns3:TrackPointExtension>
        </extensions>
      </trkpt>
      <trkpt lat="42.58899106644093990325927734375" lon="20.1026789657771587371826171875">
        <ele>1929.5999755859375</ele>
        <time>2026-06-15T09:33:19.000Z</time>
        <extensions>
          <ns3:TrackPointExtension>
            <ns3:atemp>19.0</ns3:atemp>
          </ns3:TrackPointExtension>
        </extensions>
      </trkpt>
      <trkpt lat="42.58896742947399616241455078125" lon="20.10265926830470561981201171875">
        <ele>1929.800048828125</ele>
        <time>2026-06-15T09:33:20.000Z</time>
        <extensions>
          <ns3:TrackPointExtension>
            <ns3:atemp>19.0</ns3:atemp>
          </ns3:TrackPointExtension>
        </extensions>
      </trkpt>
      <trkpt lat="42.58894647471606731414794921875" lon="20.10263060219585895538330078125">
        <ele>1930</ele>
        <time>2026-06-15T09:33:21.000Z</time>
        <extensions>
          <ns3:TrackPointExtension>
            <ns3:atemp>19.0</ns3:atemp>
          </ns3:TrackPointExtension>
        </extensions>
      </trkpt>
      <trkpt lat="42.5889289565384387969970703125" lon="20.10260126553475856781005859375">
        <ele>1930.199951171875</ele>
        <time>2026-06-15T09:33:22.000Z</time>
        <extensions>
          <ns3:TrackPointExtension>
            <ns3:atemp>19.0</ns3:atemp>
          </ns3:TrackPointExtension>
        </extensions>
      </trkpt>
      <trkpt lat="42.5889148749411106109619140625" lon="20.102569498121738433837890625">
        <ele>1930.5999755859375</ele>
        <time>2026-06-15T09:33:23.000Z</time>
        <extensions>
          <ns3:TrackPointExtension>
            <ns3:atemp>19.0</ns3:atemp>
          </ns3:TrackPointExtension>
        </extensions>
      </trkpt>
      <trkpt lat="42.58889785967767238616943359375" lon="20.10253353975713253021240234375">
        <ele>1930.800048828125</ele>
        <time>2026-06-15T09:33:24.000Z</time>
        <extensions>
          <ns3:TrackPointExtension>
            <ns3:atemp>19.0</ns3:atemp>
          </ns3:TrackPointExtension>
        </extensions>
      </trkpt>
      <trkpt lat="42.5888850353658199310302734375" lon="20.10249397717416286468505859375">
        <ele>1931</ele>
        <time>2026-06-15T09:33:25.000Z</time>
        <extensions>
          <ns3:TrackPointExtension>
            <ns3:atemp>19.0</ns3:atemp>
          </ns3:TrackPointExtension>
        </extensions>
      </trkpt>
      <trkpt lat="42.588873803615570068359375" lon="20.10246313177049160003662109375">
        <ele>1931.199951171875</ele>
        <time>2026-06-15T09:33:26.000Z</time>
        <extensions>
          <ns3:TrackPointExtension>
            <ns3:atemp>19.0</ns3:atemp>
          </ns3:TrackPointExtension>
        </extensions>
      </trkpt>
      <trkpt lat="42.58886299096047878265380859375" lon="20.10243060998618602752685546875">
        <ele>1931.4000244140625</ele>
        <time>2026-06-15T09:33:27.000Z</time>
        <extensions>
          <ns3:TrackPointExtension>
            <ns3:atemp>19.0</ns3:atemp>
          </ns3:TrackPointExtension>
        </extensions>
      </trkpt>
      <trkpt lat="42.588852681219577789306640625" lon="20.10239817202091217041015625">
        <ele>1931.5999755859375</ele>
        <time>2026-06-15T09:33:28.000Z</time>
        <extensions>
          <ns3:TrackPointExtension>
            <ns3:atemp>19.0</ns3:atemp>
          </ns3:TrackPointExtension>
        </extensions>
      </trkpt>
      <trkpt lat="42.58884404785931110382080078125" lon="20.10236506350338459014892578125">
        <ele>1931.800048828125</ele>
        <time>2026-06-15T09:33:29.000Z</time>
        <extensions>
          <ns3:TrackPointExtension>
            <ns3:atemp>19.0</ns3:atemp>
          </ns3:TrackPointExtension>
        </extensions>
      </trkpt>
      <trkpt lat="42.58883533068001270294189453125" lon="20.102333128452301025390625">
        <ele>1932.199951171875</ele>
        <time>2026-06-15T09:33:30.000Z</time>
        <extensions>
          <ns3:TrackPointExtension>
            <ns3:atemp>19.0</ns3:atemp>
          </ns3:TrackPointExtension>
        </extensions>
      </trkpt>
      <trkpt lat="42.588827200233936309814453125" lon="20.102303288877010345458984375">
        <ele>1932.4000244140625</ele>
        <time>2026-06-15T09:33:31.000Z</time>
        <extensions>
          <ns3:TrackPointExtension>
            <ns3:atemp>19.0</ns3:atemp>
          </ns3:TrackPointExtension>
        </extensions>
      </trkpt>
      <trkpt lat="42.5888193212449550628662109375" lon="20.10227018035948276519775390625">
        <ele>1932.5999755859375</ele>
        <time>2026-06-15T09:33:32.000Z</time>
        <extensions>
          <ns3:TrackPointExtension>
            <ns3:atemp>19.0</ns3:atemp>
          </ns3:TrackPointExtension>
        </extensions>
      </trkpt>
      <trkpt lat="42.5888107717037200927734375" lon="20.10223916731774806976318359375">
        <ele>1933</ele>
        <time>2026-06-15T09:33:33.000Z</time>
        <extensions>
          <ns3:TrackPointExtension>
            <ns3:atemp>19.0</ns3:atemp>
          </ns3:TrackPointExtension>
        </extensions>
      </trkpt>
      <trkpt lat="42.58879995904862880706787109375" lon="20.1022102497518062591552734375">
        <ele>1933.199951171875</ele>
        <time>2026-06-15T09:33:34.000Z</time>
        <extensions>
          <ns3:TrackPointExtension>
            <ns3:atemp>19.0</ns3:atemp>
          </ns3:TrackPointExtension>
        </extensions>
      </trkpt>
      <trkpt lat="42.5887871347367763519287109375" lon="20.1021762192249298095703125">
        <ele>1933.4000244140625</ele>
        <time>2026-06-15T09:33:35.000Z</time>
        <extensions>
          <ns3:TrackPointExtension>
            <ns3:atemp>19.0</ns3:atemp>
          </ns3:TrackPointExtension>
        </extensions>
      </trkpt>
      <trkpt lat="42.58877028711140155792236328125" lon="20.10214344598352909088134765625">
        <ele>1933.5999755859375</ele>
        <time>2026-06-15T09:33:36.000Z</time>
        <extensions>
          <ns3:TrackPointExtension>
            <ns3:atemp>19.0</ns3:atemp>
          </ns3:TrackPointExtension>
        </extensions>
      </trkpt>
      <trkpt lat="42.5887519307434558868408203125" lon="20.1021116785705089569091796875">
        <ele>1933.5999755859375</ele>
        <time>2026-06-15T09:33:37.000Z</time>
        <extensions>
          <ns3:TrackPointExtension>
            <ns3:atemp>19.0</ns3:atemp>
          </ns3:TrackPointExtension>
        </extensions>
      </trkpt>
      <trkpt lat="42.58873642422258853912353515625" lon="20.10207924060523509979248046875">
        <ele>1933.800048828125</ele>
        <time>2026-06-15T09:33:38.000Z</time>
        <extensions>
          <ns3:TrackPointExtension>
            <ns3:atemp>19.0</ns3:atemp>
          </ns3:TrackPointExtension>
        </extensions>
      </trkpt>
      <trkpt lat="42.58871798403561115264892578125" lon="20.102048814296722412109375">
        <ele>1933.800048828125</ele>
        <time>2026-06-15T09:33:39.000Z</time>
        <extensions>
          <ns3:TrackPointExtension>
            <ns3:atemp>19.0</ns3:atemp>
          </ns3:TrackPointExtension>
        </extensions>
      </trkpt>
      <trkpt lat="42.588698454201221466064453125" lon="20.1020231656730175018310546875">
        <ele>1934</ele>
        <time>2026-06-15T09:33:40.000Z</time>
        <extensions>
          <ns3:TrackPointExtension>
            <ns3:atemp>19.0</ns3:atemp>
          </ns3:TrackPointExtension>
        </extensions>
      </trkpt>
      <trkpt lat="42.58867942728102207183837890625" lon="20.1019938290119171142578125">
        <ele>1934.199951171875</ele>
        <time>2026-06-15T09:33:41.000Z</time>
        <extensions>
          <ns3:TrackPointExtension>
            <ns3:atemp>19.0</ns3:atemp>
          </ns3:TrackPointExtension>
        </extensions>
      </trkpt>
      <trkpt lat="42.58865847252309322357177734375" lon="20.10196541436016559600830078125">
        <ele>1934.5999755859375</ele>
        <time>2026-06-15T09:33:42.000Z</time>
        <extensions>
          <ns3:TrackPointExtension>
            <ns3:atemp>19.0</ns3:atemp>
          </ns3:TrackPointExtension>
        </extensions>
      </trkpt>
      <trkpt lat="42.588637433946132659912109375" lon="20.1019401848316192626953125">
        <ele>1935</ele>
        <time>2026-06-15T09:33:43.000Z</time>
        <extensions>
          <ns3:TrackPointExtension>
            <ns3:atemp>19.0</ns3:atemp>
          </ns3:TrackPointExtension>
        </extensions>
      </trkpt>
      <trkpt lat="42.588615976274013519287109375" lon="20.1019128598272800445556640625">
        <ele>1935.199951171875</ele>
        <time>2026-06-15T09:33:44.000Z</time>
        <extensions>
          <ns3:TrackPointExtension>
            <ns3:atemp>19.0</ns3:atemp>
          </ns3:TrackPointExtension>
        </extensions>
      </trkpt>
      <trkpt lat="42.58859242312610149383544921875" lon="20.10188519954681396484375">
        <ele>1935.5999755859375</ele>
        <time>2026-06-15T09:33:45.000Z</time>
        <extensions>
          <ns3:TrackPointExtension>
            <ns3:atemp>19.0</ns3:atemp>
          </ns3:TrackPointExtension>
        </extensions>
      </trkpt>
      <trkpt lat="42.5885692052543163299560546875" lon="20.10185913182795047760009765625">
        <ele>1935.800048828125</ele>
        <time>2026-06-15T09:33:46.000Z</time>
        <extensions>
          <ns3:TrackPointExtension>
            <ns3:atemp>19.0</ns3:atemp>
          </ns3:TrackPointExtension>
        </extensions>
      </trkpt>
      <trkpt lat="42.58854598738253116607666015625" lon="20.101843960583209991455078125">
        <ele>1936</ele>
        <time>2026-06-15T09:33:47.000Z</time>
        <extensions>
          <ns3:TrackPointExtension>
            <ns3:atemp>19.0</ns3:atemp>
          </ns3:TrackPointExtension>
        </extensions>
      </trkpt>
      <trkpt lat="42.588522434234619140625" lon="20.10182962752878665924072265625">
        <ele>1936.199951171875</ele>
        <time>2026-06-15T09:33:48.000Z</time>
        <extensions>
          <ns3:TrackPointExtension>
            <ns3:atemp>19.0</ns3:atemp>
          </ns3:TrackPointExtension>
        </extensions>
      </trkpt>
      <trkpt lat="42.58849653415381908416748046875" lon="20.10181655175983905792236328125">
        <ele>1936.4000244140625</ele>
        <time>2026-06-15T09:33:49.000Z</time>
        <extensions>
          <ns3:TrackPointExtension>
            <ns3:atemp>19.0</ns3:atemp>
          </ns3:TrackPointExtension>
        </extensions>
      </trkpt>
      <trkpt lat="42.5884682871401309967041015625" lon="20.10179995559155941009521484375">
        <ele>1936.800048828125</ele>
        <time>2026-06-15T09:33:50.000Z</time>
        <extensions>
          <ns3:TrackPointExtension>
            <ns3:atemp>19.0</ns3:atemp>
          </ns3:TrackPointExtension>
        </extensions>
      </trkpt>
      <trkpt lat="42.58844138123095035552978515625" lon="20.101784281432628631591796875">
        <ele>1937</ele>
        <time>2026-06-15T09:33:51.000Z</time>
        <extensions>
          <ns3:TrackPointExtension>
            <ns3:atemp>19.0</ns3:atemp>
          </ns3:TrackPointExtension>
        </extensions>
      </trkpt>
      <trkpt lat="42.58841439150273799896240234375" lon="20.1017700321972370147705078125">
        <ele>1937.4000244140625</ele>
        <time>2026-06-15T09:33:52.000Z</time>
        <extensions>
          <ns3:TrackPointExtension>
            <ns3:atemp>19.0</ns3:atemp>
          </ns3:TrackPointExtension>
        </extensions>
      </trkpt>
      <trkpt lat="42.58838639594614505767822265625" lon="20.10175821371376514434814453125">
        <ele>1937.5999755859375</ele>
        <time>2026-06-15T09:33:53.000Z</time>
        <extensions>
          <ns3:TrackPointExtension>
            <ns3:atemp>19.0</ns3:atemp>
          </ns3:TrackPointExtension>
        </extensions>
      </trkpt>
      <trkpt lat="42.58835613727569580078125" lon="20.10174639523029327392578125">
        <ele>1937.800048828125</ele>
        <time>2026-06-15T09:33:54.000Z</time>
        <extensions>
          <ns3:TrackPointExtension>
            <ns3:atemp>19.0</ns3:atemp>
          </ns3:TrackPointExtension>
        </extensions>
      </trkpt>
      <trkpt lat="42.588324286043643951416015625" lon="20.1017321459949016571044921875">
        <ele>1937.800048828125</ele>
        <time>2026-06-15T09:33:55.000Z</time>
        <extensions>
          <ns3:TrackPointExtension>
            <ns3:atemp>19.0</ns3:atemp>
          </ns3:TrackPointExtension>
        </extensions>
      </trkpt>
      <trkpt lat="42.5882915966212749481201171875" lon="20.10171228088438510894775390625">
        <ele>1938</ele>
        <time>2026-06-15T09:33:56.000Z</time>
        <extensions>
          <ns3:TrackPointExtension>
            <ns3:atemp>19.0</ns3:atemp>
          </ns3:TrackPointExtension>
        </extensions>
      </trkpt>
      <trkpt lat="42.58825932629406452178955078125" lon="20.10169317014515399932861328125">
        <ele>1938.199951171875</ele>
        <time>2026-06-15T09:33:57.000Z</time>
        <extensions>
          <ns3:TrackPointExtension>
            <ns3:atemp>19.0</ns3:atemp>
          </ns3:TrackPointExtension>
        </extensions>
      </trkpt>
      <trkpt lat="42.5882305763661861419677734375" lon="20.101675651967525482177734375">
        <ele>1938.4000244140625</ele>
        <time>2026-06-15T09:33:58.000Z</time>
        <extensions>
          <ns3:TrackPointExtension>
            <ns3:atemp>19.0</ns3:atemp>
          </ns3:TrackPointExtension>
        </extensions>
      </trkpt>
      <trkpt lat="42.58820819668471813201904296875" lon="20.10165897198021411895751953125">
        <ele>1938.800048828125</ele>
        <time>2026-06-15T09:33:59.000Z</time>
        <extensions>
          <ns3:TrackPointExtension>
            <ns3:atemp>19.0</ns3:atemp>
          </ns3:TrackPointExtension>
        </extensions>
      </trkpt>
      <trkpt lat="42.5881883315742015838623046875" lon="20.1016399450600147247314453125">
        <ele>1939.199951171875</ele>
        <time>2026-06-15T09:34:00.000Z</time>
        <extensions>
          <ns3:TrackPointExtension>
            <ns3:atemp>19.0</ns3:atemp>
          </ns3:TrackPointExtension>
        </extensions>
      </trkpt>
      <trkpt lat="42.588166706264019012451171875" lon="20.10162301361560821533203125">
        <ele>1939.4000244140625</ele>
        <time>2026-06-15T09:34:01.000Z</time>
        <extensions>
          <ns3:TrackPointExtension>
            <ns3:atemp>19.0</ns3:atemp>
          </ns3:TrackPointExtension>
        </extensions>
      </trkpt>
      <trkpt lat="42.5881437398493289947509765625" lon="20.1016090996563434600830078125">
        <ele>1939.5999755859375</ele>
        <time>2026-06-15T09:34:02.000Z</time>
        <extensions>
          <ns3:TrackPointExtension>
            <ns3:atemp>19.0</ns3:atemp>
          </ns3:TrackPointExtension>
        </extensions>
      </trkpt>
      <trkpt lat="42.58812001906335353851318359375" lon="20.10159241966903209686279296875">
        <ele>1939.800048828125</ele>
        <time>2026-06-15T09:34:03.000Z</time>
        <extensions>
          <ns3:TrackPointExtension>
            <ns3:atemp>19.0</ns3:atemp>
          </ns3:TrackPointExtension>
        </extensions>
      </trkpt>
      <trkpt lat="42.5880973041057586669921875" lon="20.101576410233974456787109375">
        <ele>1940</ele>
        <time>2026-06-15T09:34:04.000Z</time>
        <extensions>
          <ns3:TrackPointExtension>
            <ns3:atemp>19.0</ns3:atemp>
          </ns3:TrackPointExtension>
        </extensions>
      </trkpt>
      <trkpt lat="42.58807651698589324951171875" lon="20.1015588082373142242431640625">
        <ele>1940</ele>
        <time>2026-06-15T09:34:05.000Z</time>
        <extensions>
          <ns3:TrackPointExtension>
            <ns3:atemp>19.0</ns3:atemp>
          </ns3:TrackPointExtension>
        </extensions>
      </trkpt>
      <trkpt lat="42.588050700724124908447265625" lon="20.1015484146773815155029296875">
        <ele>1940.199951171875</ele>
        <time>2026-06-15T09:34:06.000Z</time>
        <extensions>
          <ns3:TrackPointExtension>
            <ns3:atemp>19.0</ns3:atemp>
          </ns3:TrackPointExtension>
        </extensions>
      </trkpt>
      <trkpt lat="42.5880270637571811676025390625" lon="20.10153123177587985992431640625">
        <ele>1940.4000244140625</ele>
        <time>2026-06-15T09:34:07.000Z</time>
        <extensions>
          <ns3:TrackPointExtension>
            <ns3:atemp>19.0</ns3:atemp>
          </ns3:TrackPointExtension>
        </extensions>
      </trkpt>
      <trkpt lat="42.588007450103759765625" lon="20.10150910355150699615478515625">
        <ele>1940.5999755859375</ele>
        <time>2026-06-15T09:34:08.000Z</time>
        <extensions>
          <ns3:TrackPointExtension>
            <ns3:atemp>19.0</ns3:atemp>
          </ns3:TrackPointExtension>
        </extensions>
      </trkpt>
      <trkpt lat="42.58798792026937007904052734375" lon="20.10148278437554836273193359375">
        <ele>1940.5999755859375</ele>
        <time>2026-06-15T09:34:09.000Z</time>
        <extensions>
          <ns3:TrackPointExtension>
            <ns3:atemp>19.0</ns3:atemp>
          </ns3:TrackPointExtension>
        </extensions>
      </trkpt>
      <trkpt lat="42.587969563901424407958984375" lon="20.1014572195708751678466796875">
        <ele>1940.800048828125</ele>
        <time>2026-06-15T09:34:10.000Z</time>
        <extensions>
          <ns3:TrackPointExtension>
            <ns3:atemp>19.0</ns3:atemp>
          </ns3:TrackPointExtension>
        </extensions>
      </trkpt>
      <trkpt lat="42.58794835768640041351318359375" lon="20.10142721235752105712890625">
        <ele>1941</ele>
        <time>2026-06-15T09:34:11.000Z</time>
        <extensions>
          <ns3:TrackPointExtension>
            <ns3:atemp>19.0</ns3:atemp>
          </ns3:TrackPointExtension>
        </extensions>
      </trkpt>
      <trkpt lat="42.5879274867475032806396484375" lon="20.10140307247638702392578125">
        <ele>1941</ele>
        <time>2026-06-15T09:34:12.000Z</time>
        <extensions>
          <ns3:TrackPointExtension>
            <ns3:atemp>19.0</ns3:atemp>
          </ns3:TrackPointExtension>
        </extensions>
      </trkpt>
      <trkpt lat="42.58790711872279644012451171875" lon="20.1013757474720478057861328125">
        <ele>1941.199951171875</ele>
        <time>2026-06-15T09:34:13.000Z</time>
        <extensions>
          <ns3:TrackPointExtension>
            <ns3:atemp>19.0</ns3:atemp>
          </ns3:TrackPointExtension>
        </extensions>
      </trkpt>
      <trkpt lat="42.58788968436419963836669921875" lon="20.10135001502931118011474609375">
        <ele>1941.5999755859375</ele>
        <time>2026-06-15T09:34:14.000Z</time>
        <extensions>
          <ns3:TrackPointExtension>
            <ns3:atemp>19.0</ns3:atemp>
          </ns3:TrackPointExtension>
        </extensions>
      </trkpt>
      <trkpt lat="42.5878714956343173980712890625" lon="20.1013224385678768157958984375">
        <ele>1941.800048828125</ele>
        <time>2026-06-15T09:34:15.000Z</time>
        <extensions>
          <ns3:TrackPointExtension>
            <ns3:atemp>19.0</ns3:atemp>
          </ns3:TrackPointExtension>
        </extensions>
      </trkpt>
      <trkpt lat="42.587855570018291473388671875" lon="20.10129285044968128204345703125">
        <ele>1942</ele>
        <time>2026-06-15T09:34:16.000Z</time>
        <extensions>
          <ns3:TrackPointExtension>
            <ns3:atemp>19.0</ns3:atemp>
          </ns3:TrackPointExtension>
        </extensions>
      </trkpt>
      <trkpt lat="42.58784090168774127960205078125" lon="20.10126368142664432525634765625">
        <ele>1942.199951171875</ele>
        <time>2026-06-15T09:34:17.000Z</time>
        <extensions>
          <ns3:TrackPointExtension>
            <ns3:atemp>19.0</ns3:atemp>
          </ns3:TrackPointExtension>
        </extensions>
      </trkpt>
      <trkpt lat="42.58782916702330112457275390625" lon="20.10123300366103649139404296875">
        <ele>1942.4000244140625</ele>
        <time>2026-06-15T09:34:18.000Z</time>
        <extensions>
          <ns3:TrackPointExtension>
            <ns3:atemp>19.0</ns3:atemp>
          </ns3:TrackPointExtension>
        </extensions>
      </trkpt>
      <trkpt lat="42.58781793527305126190185546875" lon="20.10120282880961894989013671875">
        <ele>1942.5999755859375</ele>
        <time>2026-06-15T09:34:19.000Z</time>
        <extensions>
          <ns3:TrackPointExtension>
            <ns3:atemp>19.0</ns3:atemp>
          </ns3:TrackPointExtension>
        </extensions>
      </trkpt>
      <trkpt lat="42.58780368603765964508056640625" lon="20.10117466561496257781982421875">
        <ele>1942.800048828125</ele>
        <time>2026-06-15T09:34:20.000Z</time>
        <extensions>
          <ns3:TrackPointExtension>
            <ns3:atemp>19.0</ns3:atemp>
          </ns3:TrackPointExtension>
        </extensions>
      </trkpt>
      <trkpt lat="42.587789185345172882080078125" lon="20.10114960372447967529296875">
        <ele>1943</ele>
        <time>2026-06-15T09:34:21.000Z</time>
        <extensions>
          <ns3:TrackPointExtension>
            <ns3:atemp>19.0</ns3:atemp>
          </ns3:TrackPointExtension>
        </extensions>
      </trkpt>
      <trkpt lat="42.587779127061367034912109375" lon="20.10112336836755275726318359375">
        <ele>1943.199951171875</ele>
        <time>2026-06-15T09:34:22.000Z</time>
        <extensions>
          <ns3:TrackPointExtension>
            <ns3:atemp>19.0</ns3:atemp>
          </ns3:TrackPointExtension>
        </extensions>
      </trkpt>
      <trkpt lat="42.58776999078691005706787109375" lon="20.10109587572515010833740234375">
        <ele>1943.4000244140625</ele>
        <time>2026-06-15T09:34:23.000Z</time>
        <extensions>
          <ns3:TrackPointExtension>
            <ns3:atemp>19.0</ns3:atemp>
          </ns3:TrackPointExtension>
        </extensions>
      </trkpt>
      <trkpt lat="42.5877611897885799407958984375" lon="20.10106888599693775177001953125">
        <ele>1943.800048828125</ele>
        <time>2026-06-15T09:34:24.000Z</time>
        <extensions>
          <ns3:TrackPointExtension>
            <ns3:atemp>19.0</ns3:atemp>
          </ns3:TrackPointExtension>
        </extensions>
      </trkpt>
      <trkpt lat="42.58775389753282070159912109375" lon="20.1010401360690593719482421875">
        <ele>1944</ele>
        <time>2026-06-15T09:34:25.000Z</time>
        <extensions>
          <ns3:TrackPointExtension>
            <ns3:atemp>19.0</ns3:atemp>
          </ns3:TrackPointExtension>
        </extensions>
      </trkpt>
      <trkpt lat="42.5877491198480129241943359375" lon="20.1010102964937686920166015625">
        <ele>1944.199951171875</ele>
        <time>2026-06-15T09:34:26.000Z</time>
        <extensions>
          <ns3:TrackPointExtension>
            <ns3:atemp>19.0</ns3:atemp>
          </ns3:TrackPointExtension>
        </extensions>
      </trkpt>
      <trkpt lat="42.58774233050644397735595703125" lon="20.10098062455654144287109375">
        <ele>1944.5999755859375</ele>
        <time>2026-06-15T09:34:27.000Z</time>
        <extensions>
          <ns3:TrackPointExtension>
            <ns3:atemp>19.0</ns3:atemp>
          </ns3:TrackPointExtension>
        </extensions>
      </trkpt>
      <trkpt lat="42.587734200060367584228515625" lon="20.100951455533504486083984375">
        <ele>1945</ele>
        <time>2026-06-15T09:34:28.000Z</time>
        <extensions>
          <ns3:TrackPointExtension>
            <ns3:atemp>19.0</ns3:atemp>
          </ns3:TrackPointExtension>
        </extensions>
      </trkpt>
      <trkpt lat="42.5877253152430057525634765625" lon="20.10092454962432384490966796875">
        <ele>1945.199951171875</ele>
        <time>2026-06-15T09:34:29.000Z</time>
        <extensions>
          <ns3:TrackPointExtension>
            <ns3:atemp>19.0</ns3:atemp>
          </ns3:TrackPointExtension>
        </extensions>
      </trkpt>
      <trkpt lat="42.58771802298724651336669921875" lon="20.10089755989611148834228515625">
        <ele>1945.4000244140625</ele>
        <time>2026-06-15T09:34:30.000Z</time>
        <extensions>
          <ns3:TrackPointExtension>
            <ns3:atemp>19.0</ns3:atemp>
          </ns3:TrackPointExtension>
        </extensions>
      </trkpt>
      <trkpt lat="42.58771332912147045135498046875" lon="20.100875683128833770751953125">
        <ele>1945.5999755859375</ele>
        <time>2026-06-15T09:34:31.000Z</time>
        <extensions>
          <ns3:TrackPointExtension>
            <ns3:atemp>19.0</ns3:atemp>
          </ns3:TrackPointExtension>
        </extensions>
      </trkpt>
      <trkpt lat="42.58771047927439212799072265625" lon="20.100852549076080322265625">
        <ele>1946</ele>
        <time>2026-06-15T09:34:32.000Z</time>
        <extensions>
          <ns3:TrackPointExtension>
            <ns3:atemp>19.0</ns3:atemp>
          </ns3:TrackPointExtension>
        </extensions>
      </trkpt>
      <trkpt lat="42.587708048522472381591796875" lon="20.1008232124149799346923828125">
        <ele>1946.199951171875</ele>
        <time>2026-06-15T09:34:33.000Z</time>
        <extensions>
          <ns3:TrackPointExtension>
            <ns3:atemp>19.0</ns3:atemp>
          </ns3:TrackPointExtension>
        </extensions>
      </trkpt>
      <trkpt lat="42.58770863525569438934326171875" lon="20.10079731233417987823486328125">
        <ele>1946.4000244140625</ele>
        <time>2026-06-15T09:34:34.000Z</time>
        <extensions>
          <ns3:TrackPointExtension>
            <ns3:atemp>19.0</ns3:atemp>
          </ns3:TrackPointExtension>
        </extensions>
      </trkpt>
      <trkpt lat="42.58770796470344066619873046875" lon="20.10077300481498241424560546875">
        <ele>1946.5999755859375</ele>
        <time>2026-06-15T09:34:35.000Z</time>
        <extensions>
          <ns3:TrackPointExtension>
            <ns3:atemp>19.0</ns3:atemp>
          </ns3:TrackPointExtension>
        </extensions>
      </trkpt>
      <trkpt lat="42.5876998342573642730712890625" lon="20.10075707919895648956298828125">
        <ele>1947</ele>
        <time>2026-06-15T09:34:36.000Z</time>
        <extensions>
          <ns3:TrackPointExtension>
            <ns3:atemp>19.0</ns3:atemp>
          </ns3:TrackPointExtension>
        </extensions>
      </trkpt>
      <trkpt lat="42.58769002743065357208251953125" lon="20.1007333584129810333251953125">
        <ele>1947.199951171875</ele>
        <time>2026-06-15T09:34:37.000Z</time>
        <extensions>
          <ns3:TrackPointExtension>
            <ns3:atemp>19.0</ns3:atemp>
          </ns3:TrackPointExtension>
        </extensions>
      </trkpt>
      <trkpt lat="42.58768214844167232513427734375" lon="20.10070041753351688385009765625">
        <ele>1947.199951171875</ele>
        <time>2026-06-15T09:34:38.000Z</time>
        <extensions>
          <ns3:TrackPointExtension>
            <ns3:atemp>19.0</ns3:atemp>
          </ns3:TrackPointExtension>
        </extensions>
      </trkpt>
      <trkpt lat="42.58767376653850078582763671875" lon="20.1006676442921161651611328125">
        <ele>1947.5999755859375</ele>
        <time>2026-06-15T09:34:39.000Z</time>
        <extensions>
          <ns3:TrackPointExtension>
            <ns3:atemp>19.0</ns3:atemp>
          </ns3:TrackPointExtension>
        </extensions>
      </trkpt>
      <trkpt lat="42.5876669771969318389892578125" lon="20.10063705034554004669189453125">
        <ele>1947.800048828125</ele>
        <time>2026-06-15T09:34:40.000Z</time>
        <extensions>
          <ns3:TrackPointExtension>
            <ns3:atemp>19.0</ns3:atemp>
          </ns3:TrackPointExtension>
        </extensions>
      </trkpt>
      <trkpt lat="42.587657757103443145751953125" lon="20.1006086356937885284423828125">
        <ele>1948.199951171875</ele>
        <time>2026-06-15T09:34:41.000Z</time>
        <extensions>
          <ns3:TrackPointExtension>
            <ns3:atemp>19.0</ns3:atemp>
          </ns3:TrackPointExtension>
        </extensions>
      </trkpt>
      <trkpt lat="42.58764761500060558319091796875" lon="20.10057837702333927154541015625">
        <ele>1948.4000244140625</ele>
        <time>2026-06-15T09:34:42.000Z</time>
        <extensions>
          <ns3:TrackPointExtension>
            <ns3:atemp>19.0</ns3:atemp>
          </ns3:TrackPointExtension>
        </extensions>
      </trkpt>
      <trkpt lat="42.58763755671679973602294921875" lon="20.1005452685058116912841796875">
        <ele>1948.800048828125</ele>
        <time>2026-06-15T09:34:43.000Z</time>
        <extensions>
          <ns3:TrackPointExtension>
            <ns3:atemp>19.0</ns3:atemp>
          </ns3:TrackPointExtension>
        </extensions>
      </trkpt>
      <trkpt lat="42.5876279175281524658203125" lon="20.10051182471215724945068359375">
        <ele>1949</ele>
        <time>2026-06-15T09:34:44.000Z</time>
        <extensions>
          <ns3:TrackPointExtension>
            <ns3:atemp>19.0</ns3:atemp>
          </ns3:TrackPointExtension>
        </extensions>
      </trkpt>
      <trkpt lat="42.58761517703533172607421875" lon="20.1004842482507228851318359375">
        <ele>1949.4000244140625</ele>
        <time>2026-06-15T09:34:45.000Z</time>
        <extensions>
          <ns3:TrackPointExtension>
            <ns3:atemp>19.0</ns3:atemp>
          </ns3:TrackPointExtension>
        </extensions>
      </trkpt>
      <trkpt lat="42.58760310709476470947265625" lon="20.100456587970256805419921875">
        <ele>1949.5999755859375</ele>
        <time>2026-06-15T09:34:46.000Z</time>
        <extensions>
          <ns3:TrackPointExtension>
            <ns3:atemp>19.0</ns3:atemp>
          </ns3:TrackPointExtension>
        </extensions>
      </trkpt>
      <trkpt lat="42.58759045042097568511962890625" lon="20.100429095327854156494140625">
        <ele>1949.800048828125</ele>
        <time>2026-06-15T09:34:47.000Z</time>
        <extensions>
          <ns3:TrackPointExtension>
            <ns3:atemp>19.0</ns3:atemp>
          </ns3:TrackPointExtension>
        </extensions>
      </trkpt>
      <trkpt lat="42.58757896721363067626953125" lon="20.10040252469480037689208984375">
        <ele>1950.199951171875</ele>
        <time>2026-06-15T09:34:48.000Z</time>
        <extensions>
          <ns3:TrackPointExtension>
            <ns3:atemp>19.0</ns3:atemp>
          </ns3:TrackPointExtension>
        </extensions>
      </trkpt>
      <trkpt lat="42.58756463415920734405517578125" lon="20.1003759540617465972900390625">
        <ele>1950.4000244140625</ele>
        <time>2026-06-15T09:34:49.000Z</time>
        <extensions>
          <ns3:TrackPointExtension>
            <ns3:atemp>19.0</ns3:atemp>
          </ns3:TrackPointExtension>
        </extensions>
      </trkpt>
      <trkpt lat="42.587549798190593719482421875" lon="20.10034904815256595611572265625">
        <ele>1950.800048828125</ele>
        <time>2026-06-15T09:34:50.000Z</time>
        <extensions>
          <ns3:TrackPointExtension>
            <ns3:atemp>19.0</ns3:atemp>
          </ns3:TrackPointExtension>
        </extensions>
      </trkpt>
      <trkpt lat="42.5875311903655529022216796875" lon="20.100324489176273345947265625">
        <ele>1951</ele>
        <time>2026-06-15T09:34:51.000Z</time>
        <extensions>
          <ns3:TrackPointExtension>
            <ns3:atemp>19.0</ns3:atemp>
          </ns3:TrackPointExtension>
        </extensions>
      </trkpt>
      <trkpt lat="42.587514929473400115966796875" lon="20.10030093602836132049560546875">
        <ele>1951.199951171875</ele>
        <time>2026-06-15T09:34:52.000Z</time>
        <extensions>
          <ns3:TrackPointExtension>
            <ns3:atemp>19.0</ns3:atemp>
          </ns3:TrackPointExtension>
        </extensions>
      </trkpt>
      <trkpt lat="42.58749975822865962982177734375" lon="20.100280232727527618408203125">
        <ele>1951.5999755859375</ele>
        <time>2026-06-15T09:34:53.000Z</time>
        <extensions>
          <ns3:TrackPointExtension>
            <ns3:atemp>19.0</ns3:atemp>
          </ns3:TrackPointExtension>
        </extensions>
      </trkpt>
      <trkpt lat="42.58748282678425312042236328125" lon="20.10025936178863048553466796875">
        <ele>1951.800048828125</ele>
        <time>2026-06-15T09:34:54.000Z</time>
        <extensions>
          <ns3:TrackPointExtension>
            <ns3:atemp>19.0</ns3:atemp>
          </ns3:TrackPointExtension>
        </extensions>
      </trkpt>
      <trkpt lat="42.58746338076889514923095703125" lon="20.10024343617260456085205078125">
        <ele>1951.800048828125</ele>
        <time>2026-06-15T09:34:55.000Z</time>
        <extensions>
          <ns3:TrackPointExtension>
            <ns3:atemp>19.0</ns3:atemp>
          </ns3:TrackPointExtension>
        </extensions>
      </trkpt>
      <trkpt lat="42.5874420069158077239990234375" lon="20.10022633709013462066650390625">
        <ele>1952.199951171875</ele>
        <time>2026-06-15T09:34:56.000Z</time>
        <extensions>
          <ns3:TrackPointExtension>
            <ns3:atemp>19.0</ns3:atemp>
          </ns3:TrackPointExtension>
        </extensions>
      </trkpt>
      <trkpt lat="42.58742247708141803741455078125" lon="20.1002109982073307037353515625">
        <ele>1952.4000244140625</ele>
        <time>2026-06-15T09:34:57.000Z</time>
        <extensions>
          <ns3:TrackPointExtension>
            <ns3:atemp>19.0</ns3:atemp>
          </ns3:TrackPointExtension>
        </extensions>
      </trkpt>
      <trkpt lat="42.58740621618926525115966796875" lon="20.1001902110874652862548828125">
        <ele>1952.5999755859375</ele>
        <time>2026-06-15T09:34:58.000Z</time>
        <extensions>
          <ns3:TrackPointExtension>
            <ns3:atemp>19.0</ns3:atemp>
          </ns3:TrackPointExtension>
        </extensions>
      </trkpt>
      <trkpt lat="42.5873920507729053497314453125" lon="20.100166909396648406982421875">
        <ele>1953</ele>
        <time>2026-06-15T09:34:59.000Z</time>
        <extensions>
          <ns3:TrackPointExtension>
            <ns3:atemp>19.0</ns3:atemp>
          </ns3:TrackPointExtension>
        </extensions>
      </trkpt>
      <trkpt lat="42.5873793102800846099853515625" lon="20.10014167986810207366943359375">
        <ele>1953.199951171875</ele>
        <time>2026-06-15T09:35:00.000Z</time>
        <extensions>
          <ns3:TrackPointExtension>
            <ns3:atemp>19.0</ns3:atemp>
          </ns3:TrackPointExtension>
        </extensions>
      </trkpt>
      <trkpt lat="42.58736229501664638519287109375" lon="20.1001184619963169097900390625">
        <ele>1953.4000244140625</ele>
        <time>2026-06-15T09:35:01.000Z</time>
        <extensions>
          <ns3:TrackPointExtension>
            <ns3:atemp>19.0</ns3:atemp>
          </ns3:TrackPointExtension>
        </extensions>
      </trkpt>
      <trkpt lat="42.58734620176255702972412109375" lon="20.1000929810106754302978515625">
        <ele>1953.800048828125</ele>
        <time>2026-06-15T09:35:02.000Z</time>
        <extensions>
          <ns3:TrackPointExtension>
            <ns3:atemp>19.0</ns3:atemp>
          </ns3:TrackPointExtension>
        </extensions>
      </trkpt>
      <trkpt lat="42.5873283483088016510009765625" lon="20.10007093660533428192138671875">
        <ele>1953.800048828125</ele>
        <time>2026-06-15T09:35:03.000Z</time>
        <extensions>
          <ns3:TrackPointExtension>
            <ns3:atemp>19.0</ns3:atemp>
          </ns3:TrackPointExtension>
        </extensions>
      </trkpt>
      <trkpt lat="42.58731367997825145721435546875" lon="20.1000490598380565643310546875">
        <ele>1954</ele>
        <time>2026-06-15T09:35:04.000Z</time>
        <extensions>
          <ns3:TrackPointExtension>
            <ns3:atemp>19.0</ns3:atemp>
          </ns3:TrackPointExtension>
        </extensions>
      </trkpt>
      <trkpt lat="42.5872998498380184173583984375" lon="20.10002835653722286224365234375">
        <ele>1954.199951171875</ele>
        <time>2026-06-15T09:35:05.000Z</time>
        <extensions>
          <ns3:TrackPointExtension>
            <ns3:atemp>19.0</ns3:atemp>
          </ns3:TrackPointExtension>
        </extensions>
      </trkpt>
      <trkpt lat="42.5872830860316753387451171875" lon="20.10000430047512054443359375">
        <ele>1954.4000244140625</ele>
        <time>2026-06-15T09:35:06.000Z</time>
        <extensions>
          <ns3:TrackPointExtension>
            <ns3:atemp>19.0</ns3:atemp>
          </ns3:TrackPointExtension>
        </extensions>
      </trkpt>
      <trkpt lat="42.5872643105685710906982421875" lon="20.0999853573739528656005859375">
        <ele>1954.5999755859375</ele>
        <time>2026-06-15T09:35:07.000Z</time>
        <extensions>
          <ns3:TrackPointExtension>
            <ns3:atemp>19.0</ns3:atemp>
          </ns3:TrackPointExtension>
        </extensions>
      </trkpt>
      <trkpt lat="42.58723924867808818817138671875" lon="20.0999746285378932952880859375">
        <ele>1954.800048828125</ele>
        <time>2026-06-15T09:35:08.000Z</time>
        <extensions>
          <ns3:TrackPointExtension>
            <ns3:atemp>19.0</ns3:atemp>
          </ns3:TrackPointExtension>
        </extensions>
      </trkpt>
      <trkpt lat="42.5872210599482059478759765625" lon="20.09995996020734310150146484375">
        <ele>1955</ele>
        <time>2026-06-15T09:35:09.000Z</time>
        <extensions>
          <ns3:TrackPointExtension>
            <ns3:atemp>19.0</ns3:atemp>
          </ns3:TrackPointExtension>
        </extensions>
      </trkpt>
      <trkpt lat="42.58720538578927516937255859375" lon="20.09993816725909709930419921875">
        <ele>1955.199951171875</ele>
        <time>2026-06-15T09:35:10.000Z</time>
        <extensions>
          <ns3:TrackPointExtension>
            <ns3:atemp>19.0</ns3:atemp>
          </ns3:TrackPointExtension>
        </extensions>
      </trkpt>
      <trkpt lat="42.587195076048374176025390625" lon="20.09991939179599285125732421875">
        <ele>1955.199951171875</ele>
        <time>2026-06-15T09:35:11.000Z</time>
        <extensions>
          <ns3:TrackPointExtension>
            <ns3:atemp>19.0</ns3:atemp>
          </ns3:TrackPointExtension>
        </extensions>
      </trkpt>
      <trkpt lat="42.58718493394553661346435546875" lon="20.099900029599666595458984375">
        <ele>1955.4000244140625</ele>
        <time>2026-06-15T09:35:12.000Z</time>
        <extensions>
          <ns3:TrackPointExtension>
            <ns3:atemp>19.0</ns3:atemp>
          </ns3:TrackPointExtension>
        </extensions>
      </trkpt>
      <trkpt lat="42.5871734507381916046142578125" lon="20.09988628327846527099609375">
        <ele>1955.5999755859375</ele>
        <time>2026-06-15T09:35:13.000Z</time>
        <extensions>
          <ns3:TrackPointExtension>
            <ns3:atemp>19.0</ns3:atemp>
          </ns3:TrackPointExtension>
        </extensions>
      </trkpt>
      <trkpt lat="42.58716330863535404205322265625" lon="20.099866501986980438232421875">
        <ele>1955.5999755859375</ele>
        <time>2026-06-15T09:35:14.000Z</time>
        <extensions>
          <ns3:TrackPointExtension>
            <ns3:atemp>19.0</ns3:atemp>
          </ns3:TrackPointExtension>
        </extensions>
      </trkpt>
      <trkpt lat="42.5871543399989604949951171875" lon="20.0998499058187007904052734375">
        <ele>1955.800048828125</ele>
        <time>2026-06-15T09:35:15.000Z</time>
        <extensions>
          <ns3:TrackPointExtension>
            <ns3:atemp>19.0</ns3:atemp>
          </ns3:TrackPointExtension>
        </extensions>
      </trkpt>
      <trkpt lat="42.587146125733852386474609375" lon="20.0998292863368988037109375">
        <ele>1955.800048828125</ele>
        <time>2026-06-15T09:35:16.000Z</time>
        <extensions>
          <ns3:TrackPointExtension>
            <ns3:atemp>19.0</ns3:atemp>
          </ns3:TrackPointExtension>
        </extensions>
      </trkpt>
      <trkpt lat="42.58713011629879474639892578125" lon="20.0998046435415744781494140625">
        <ele>1956</ele>
        <time>2026-06-15T09:35:17.000Z</time>
        <extensions>
          <ns3:TrackPointExtension>
            <ns3:atemp>19.0</ns3:atemp>
          </ns3:TrackPointExtension>
        </extensions>
      </trkpt>
      <trkpt lat="42.58711226284503936767578125" lon="20.09977924637496471405029296875">
        <ele>1956</ele>
        <time>2026-06-15T09:35:18.000Z</time>
        <extensions>
          <ns3:TrackPointExtension>
            <ns3:atemp>19.0</ns3:atemp>
          </ns3:TrackPointExtension>
        </extensions>
      </trkpt>
      <trkpt lat="42.58709155954420566558837890625" lon="20.09974689222872257232666015625">
        <ele>1956.199951171875</ele>
        <time>2026-06-15T09:35:19.000Z</time>
        <extensions>
          <ns3:TrackPointExtension>
            <ns3:atemp>19.0</ns3:atemp>
          </ns3:TrackPointExtension>
        </extensions>
      </trkpt>
      <trkpt lat="42.587073035538196563720703125" lon="20.099708922207355499267578125">
        <ele>1956.4000244140625</ele>
        <time>2026-06-15T09:35:20.000Z</time>
        <extensions>
          <ns3:TrackPointExtension>
            <ns3:atemp>19.0</ns3:atemp>
          </ns3:TrackPointExtension>
        </extensions>
      </trkpt>
      <trkpt lat="42.58705065585672855377197265625" lon="20.09967430494725704193115234375">
        <ele>1956.4000244140625</ele>
        <time>2026-06-15T09:35:21.000Z</time>
        <extensions>
          <ns3:TrackPointExtension>
            <ns3:atemp>19.0</ns3:atemp>
          </ns3:TrackPointExtension>
        </extensions>
      </trkpt>
      <trkpt lat="42.58702869527041912078857421875" lon="20.0996450521051883697509765625">
        <ele>1956.5999755859375</ele>
        <time>2026-06-15T09:35:22.000Z</time>
        <extensions>
          <ns3:TrackPointExtension>
            <ns3:atemp>19.0</ns3:atemp>
          </ns3:TrackPointExtension>
        </extensions>
      </trkpt>
      <trkpt lat="42.5870083272457122802734375" lon="20.09961680509150028228759765625">
        <ele>1957</ele>
        <time>2026-06-15T09:35:23.000Z</time>
        <extensions>
          <ns3:TrackPointExtension>
            <ns3:atemp>19.0</ns3:atemp>
          </ns3:TrackPointExtension>
        </extensions>
      </trkpt>
      <trkpt lat="42.5869960896670818328857421875" lon="20.09959249757230281829833984375">
        <ele>1957.199951171875</ele>
        <time>2026-06-15T09:35:24.000Z</time>
        <extensions>
          <ns3:TrackPointExtension>
            <ns3:atemp>19.0</ns3:atemp>
          </ns3:TrackPointExtension>
        </extensions>
      </trkpt>
      <trkpt lat="42.58698946796357631683349609375" lon="20.09956131689250469207763671875">
        <ele>1957.4000244140625</ele>
        <time>2026-06-15T09:35:25.000Z</time>
        <extensions>
          <ns3:TrackPointExtension>
            <ns3:atemp>19.0</ns3:atemp>
          </ns3:TrackPointExtension>
        </extensions>
      </trkpt>
      <trkpt lat="42.58697991259396076202392578125" lon="20.09953382425010204315185546875">
        <ele>1957.5999755859375</ele>
        <time>2026-06-15T09:35:26.000Z</time>
        <extensions>
          <ns3:TrackPointExtension>
            <ns3:atemp>19.0</ns3:atemp>
          </ns3:TrackPointExtension>
        </extensions>
      </trkpt>
      <trkpt lat="42.58696683682501316070556640625" lon="20.0995089299976825714111328125">
        <ele>1957.800048828125</ele>
        <time>2026-06-15T09:35:27.000Z</time>
        <extensions>
          <ns3:TrackPointExtension>
            <ns3:atemp>19.0</ns3:atemp>
          </ns3:TrackPointExtension>
        </extensions>
      </trkpt>
      <trkpt lat="42.5869494862854480743408203125" lon="20.09949090890586376190185546875">
        <ele>1958</ele>
        <time>2026-06-15T09:35:28.000Z</time>
        <extensions>
          <ns3:TrackPointExtension>
            <ns3:atemp>19.0</ns3:atemp>
          </ns3:TrackPointExtension>
        </extensions>
      </trkpt>
      <trkpt lat="42.58692853152751922607421875" lon="20.0994780845940113067626953125">
        <ele>1958.199951171875</ele>
        <time>2026-06-15T09:35:29.000Z</time>
        <extensions>
          <ns3:TrackPointExtension>
            <ns3:atemp>19.0</ns3:atemp>
          </ns3:TrackPointExtension>
        </extensions>
      </trkpt>
      <trkpt lat="42.58691201917827129364013671875" lon="20.09945302270352840423583984375">
        <ele>1958.4000244140625</ele>
        <time>2026-06-15T09:35:30.000Z</time>
        <extensions>
          <ns3:TrackPointExtension>
            <ns3:atemp>19.0</ns3:atemp>
          </ns3:TrackPointExtension>
        </extensions>
      </trkpt>
      <trkpt lat="42.58689961396157741546630859375" lon="20.0994220934808254241943359375">
        <ele>1958.800048828125</ele>
        <time>2026-06-15T09:35:31.000Z</time>
        <extensions>
          <ns3:TrackPointExtension>
            <ns3:atemp>19.0</ns3:atemp>
          </ns3:TrackPointExtension>
        </extensions>
      </trkpt>
      <trkpt lat="42.58688771165907382965087890625" lon="20.09939099662005901336669921875">
        <ele>1958.800048828125</ele>
        <time>2026-06-15T09:35:32.000Z</time>
        <extensions>
          <ns3:TrackPointExtension>
            <ns3:atemp>19.0</ns3:atemp>
          </ns3:TrackPointExtension>
        </extensions>
      </trkpt>
      <trkpt lat="42.5868700258433818817138671875" lon="20.099372304975986480712890625">
        <ele>1959</ele>
        <time>2026-06-15T09:35:33.000Z</time>
        <extensions>
          <ns3:TrackPointExtension>
            <ns3:atemp>19.0</ns3:atemp>
          </ns3:TrackPointExtension>
        </extensions>
      </trkpt>
      <trkpt lat="42.58685820735991001129150390625" lon="20.09935461916029453277587890625">
        <ele>1959.199951171875</ele>
        <time>2026-06-15T09:35:34.000Z</time>
        <extensions>
          <ns3:TrackPointExtension>
            <ns3:atemp>19.0</ns3:atemp>
          </ns3:TrackPointExtension>
        </extensions>
      </trkpt>
      <trkpt lat="42.5868420302867889404296875" lon="20.0993349216878414154052734375">
        <ele>1959.4000244140625</ele>
        <time>2026-06-15T09:35:35.000Z</time>
        <extensions>
          <ns3:TrackPointExtension>
            <ns3:atemp>19.0</ns3:atemp>
          </ns3:TrackPointExtension>
        </extensions>
      </trkpt>
      <trkpt lat="42.5868287868797779083251953125" lon="20.09931220673024654388427734375">
        <ele>1959.800048828125</ele>
        <time>2026-06-15T09:35:36.000Z</time>
        <extensions>
          <ns3:TrackPointExtension>
            <ns3:atemp>19.0</ns3:atemp>
          </ns3:TrackPointExtension>
        </extensions>
      </trkpt>
      <trkpt lat="42.5868113525211811065673828125" lon="20.09928454644978046417236328125">
        <ele>1960.199951171875</ele>
        <time>2026-06-15T09:35:37.000Z</time>
        <extensions>
          <ns3:TrackPointExtension>
            <ns3:atemp>19.0</ns3:atemp>
          </ns3:TrackPointExtension>
        </extensions>
      </trkpt>
      <trkpt lat="42.58678846992552280426025390625" lon="20.099259316921234130859375">
        <ele>1960.4000244140625</ele>
        <time>2026-06-15T09:35:38.000Z</time>
        <extensions>
          <ns3:TrackPointExtension>
            <ns3:atemp>19.0</ns3:atemp>
          </ns3:TrackPointExtension>
        </extensions>
      </trkpt>
      <trkpt lat="42.58676567114889621734619140625" lon="20.09923140518367290496826171875">
        <ele>1960.5999755859375</ele>
        <time>2026-06-15T09:35:39.000Z</time>
        <extensions>
          <ns3:TrackPointExtension>
            <ns3:atemp>19.0</ns3:atemp>
          </ns3:TrackPointExtension>
        </extensions>
      </trkpt>
      <trkpt lat="42.58674454875290393829345703125" lon="20.0992028228938579559326171875">
        <ele>1960.800048828125</ele>
        <time>2026-06-15T09:35:40.000Z</time>
        <extensions>
          <ns3:TrackPointExtension>
            <ns3:atemp>19.0</ns3:atemp>
          </ns3:TrackPointExtension>
        </extensions>
      </trkpt>
      <trkpt lat="42.58672359399497509002685546875" lon="20.09916837327182292938232421875">
        <ele>1960.800048828125</ele>
        <time>2026-06-15T09:35:41.000Z</time>
        <extensions>
          <ns3:TrackPointExtension>
            <ns3:atemp>19.0</ns3:atemp>
          </ns3:TrackPointExtension>
        </extensions>
      </trkpt>
      <trkpt lat="42.58670381270349025726318359375" lon="20.099131576716899871826171875">
        <ele>1961</ele>
        <time>2026-06-15T09:35:42.000Z</time>
        <extensions>
          <ns3:TrackPointExtension>
            <ns3:atemp>19.0</ns3:atemp>
          </ns3:TrackPointExtension>
        </extensions>
      </trkpt>
      <trkpt lat="42.586690485477447509765625" lon="20.09909779764711856842041015625">
        <ele>1961</ele>
        <time>2026-06-15T09:35:43.000Z</time>
        <extensions>
          <ns3:TrackPointExtension>
            <ns3:atemp>19.0</ns3:atemp>
          </ns3:TrackPointExtension>
        </extensions>
      </trkpt>
      <trkpt lat="42.58668084628880023956298828125" lon="20.0990670360624790191650390625">
        <ele>1961.199951171875</ele>
        <time>2026-06-15T09:35:44.000Z</time>
        <extensions>
          <ns3:TrackPointExtension>
            <ns3:atemp>19.0</ns3:atemp>
          </ns3:TrackPointExtension>
        </extensions>
      </trkpt>
      <trkpt lat="42.586670033633708953857421875" lon="20.09903736412525177001953125">
        <ele>1961.4000244140625</ele>
        <time>2026-06-15T09:35:45.000Z</time>
        <extensions>
          <ns3:TrackPointExtension>
            <ns3:atemp>19.0</ns3:atemp>
          </ns3:TrackPointExtension>
        </extensions>
      </trkpt>
      <trkpt lat="42.5866628251969814300537109375" lon="20.09900509379804134368896484375">
        <ele>1961.5999755859375</ele>
        <time>2026-06-15T09:35:46.000Z</time>
        <extensions>
          <ns3:TrackPointExtension>
            <ns3:atemp>19.0</ns3:atemp>
          </ns3:TrackPointExtension>
        </extensions>
      </trkpt>
      <trkpt lat="42.58665628731250762939453125" lon="20.09897307492792606353759765625">
        <ele>1961.800048828125</ele>
        <time>2026-06-15T09:35:47.000Z</time>
        <extensions>
          <ns3:TrackPointExtension>
            <ns3:atemp>19.0</ns3:atemp>
          </ns3:TrackPointExtension>
        </extensions>
      </trkpt>
      <trkpt lat="42.5866544432938098907470703125" lon="20.0989486835896968841552734375">
        <ele>1962</ele>
        <time>2026-06-15T09:35:48.000Z</time>
        <extensions>
          <ns3:TrackPointExtension>
            <ns3:atemp>19.0</ns3:atemp>
          </ns3:TrackPointExtension>
        </extensions>
      </trkpt>
      <trkpt lat="42.58665318600833415985107421875" lon="20.09893116541206836700439453125">
        <ele>1962.199951171875</ele>
        <time>2026-06-15T09:35:49.000Z</time>
        <extensions>
          <ns3:TrackPointExtension>
            <ns3:atemp>19.0</ns3:atemp>
          </ns3:TrackPointExtension>
        </extensions>
      </trkpt>
      <trkpt lat="42.586655952036380767822265625" lon="20.098915994167327880859375">
        <ele>1962.4000244140625</ele>
        <time>2026-06-15T09:35:50.000Z</time>
        <extensions>
          <ns3:TrackPointExtension>
            <ns3:atemp>19.0</ns3:atemp>
          </ns3:TrackPointExtension>
        </extensions>
      </trkpt>
      <trkpt lat="42.58666156791150569915771484375" lon="20.09889185428619384765625">
        <ele>1962.4000244140625</ele>
        <time>2026-06-15T09:35:51.000Z</time>
        <extensions>
          <ns3:TrackPointExtension>
            <ns3:atemp>19.0</ns3:atemp>
          </ns3:TrackPointExtension>
        </extensions>
      </trkpt>
      <trkpt lat="42.5866668485105037689208984375" lon="20.0988651998341083526611328125">
        <ele>1962.4000244140625</ele>
        <time>2026-06-15T09:35:52.000Z</time>
        <extensions>
          <ns3:TrackPointExtension>
            <ns3:atemp>19.0</ns3:atemp>
          </ns3:TrackPointExtension>
        </extensions>
      </trkpt>
      <trkpt lat="42.58667103946208953857421875" lon="20.09884424507617950439453125">
        <ele>1962.5999755859375</ele>
        <time>2026-06-15T09:35:53.000Z</time>
        <extensions>
          <ns3:TrackPointExtension>
            <ns3:atemp>19.0</ns3:atemp>
          </ns3:TrackPointExtension>
        </extensions>
      </trkpt>
      <trkpt lat="42.58667833171784877777099609375" lon="20.098819434642791748046875">
        <ele>1962.5999755859375</ele>
        <time>2026-06-15T09:35:54.000Z</time>
        <extensions>
          <ns3:TrackPointExtension>
            <ns3:atemp>19.0</ns3:atemp>
          </ns3:TrackPointExtension>
        </extensions>
      </trkpt>
      <trkpt lat="42.586691491305828094482421875" lon="20.098799653351306915283203125">
        <ele>1962.5999755859375</ele>
        <time>2026-06-15T09:35:55.000Z</time>
        <extensions>
          <ns3:TrackPointExtension>
            <ns3:atemp>19.0</ns3:atemp>
          </ns3:TrackPointExtension>
        </extensions>
      </trkpt>
      <trkpt lat="42.58671085350215435028076171875" lon="20.09877677075564861297607421875">
        <ele>1962.5999755859375</ele>
        <time>2026-06-15T09:35:56.000Z</time>
        <extensions>
          <ns3:TrackPointExtension>
            <ns3:atemp>19.0</ns3:atemp>
          </ns3:TrackPointExtension>
        </extensions>
      </trkpt>
      <trkpt lat="42.58673046715557575225830078125" lon="20.098750032484531402587890625">
        <ele>1962.800048828125</ele>
        <time>2026-06-15T09:35:57.000Z</time>
        <extensions>
          <ns3:TrackPointExtension>
            <ns3:atemp>19.0</ns3:atemp>
          </ns3:TrackPointExtension>
        </extensions>
      </trkpt>
      <trkpt lat="42.58674681186676025390625" lon="20.0987233780324459075927734375">
        <ele>1962.800048828125</ele>
        <time>2026-06-15T09:35:58.000Z</time>
        <extensions>
          <ns3:TrackPointExtension>
            <ns3:atemp>19.0</ns3:atemp>
          </ns3:TrackPointExtension>
        </extensions>
      </trkpt>
      <trkpt lat="42.58676852099597454071044921875" lon="20.098689682781696319580078125">
        <ele>1963</ele>
        <time>2026-06-15T09:35:59.000Z</time>
        <extensions>
          <ns3:TrackPointExtension>
            <ns3:atemp>19.0</ns3:atemp>
          </ns3:TrackPointExtension>
        </extensions>
      </trkpt>
      <trkpt lat="42.5867902301251888275146484375" lon="20.09866512380540370941162109375">
        <ele>1963</ele>
        <time>2026-06-15T09:36:00.000Z</time>
        <extensions>
          <ns3:TrackPointExtension>
            <ns3:atemp>19.0</ns3:atemp>
          </ns3:TrackPointExtension>
        </extensions>
      </trkpt>
      <trkpt lat="42.58681596256792545318603515625" lon="20.098644755780696868896484375">
        <ele>1963.199951171875</ele>
        <time>2026-06-15T09:36:01.000Z</time>
        <extensions>
          <ns3:TrackPointExtension>
            <ns3:atemp>19.0</ns3:atemp>
          </ns3:TrackPointExtension>
        </extensions>
      </trkpt>
      <trkpt lat="42.58684001863002777099609375" lon="20.09862455539405345916748046875">
        <ele>1963.4000244140625</ele>
        <time>2026-06-15T09:36:02.000Z</time>
        <extensions>
          <ns3:TrackPointExtension>
            <ns3:atemp>19.0</ns3:atemp>
          </ns3:TrackPointExtension>
        </extensions>
      </trkpt>
      <trkpt lat="42.5868680141866207122802734375" lon="20.0986050255596637725830078125">
        <ele>1963.5999755859375</ele>
        <time>2026-06-15T09:36:03.000Z</time>
        <extensions>
          <ns3:TrackPointExtension>
            <ns3:atemp>19.0</ns3:atemp>
          </ns3:TrackPointExtension>
        </extensions>
      </trkpt>
      <trkpt lat="42.5868941657245159149169921875" lon="20.09858801029622554779052734375">
        <ele>1964</ele>
        <time>2026-06-15T09:36:04.000Z</time>
        <extensions>
          <ns3:TrackPointExtension>
            <ns3:atemp>19.0</ns3:atemp>
          </ns3:TrackPointExtension>
        </extensions>
      </trkpt>
      <trkpt lat="42.5869206525385379791259765625" lon="20.0985735096037387847900390625">
        <ele>1964.199951171875</ele>
        <time>2026-06-15T09:36:05.000Z</time>
        <extensions>
          <ns3:TrackPointExtension>
            <ns3:atemp>19.0</ns3:atemp>
          </ns3:TrackPointExtension>
        </extensions>
      </trkpt>
      <trkpt lat="42.5869461335241794586181640625" lon="20.09855699725449085235595703125">
        <ele>1964.4000244140625</ele>
        <time>2026-06-15T09:36:06.000Z</time>
        <extensions>
          <ns3:TrackPointExtension>
            <ns3:atemp>19.0</ns3:atemp>
          </ns3:TrackPointExtension>
        </extensions>
      </trkpt>
      <trkpt lat="42.58696918375790119171142578125" lon="20.098535120487213134765625">
        <ele>1964.5999755859375</ele>
        <time>2026-06-15T09:36:07.000Z</time>
        <extensions>
          <ns3:TrackPointExtension>
            <ns3:atemp>19.0</ns3:atemp>
          </ns3:TrackPointExtension>
        </extensions>
      </trkpt>
      <trkpt lat="42.58698846213519573211669921875" lon="20.0985109806060791015625">
        <ele>1964.5999755859375</ele>
        <time>2026-06-15T09:36:08.000Z</time>
        <extensions>
          <ns3:TrackPointExtension>
            <ns3:atemp>19.0</ns3:atemp>
          </ns3:TrackPointExtension>
        </extensions>
      </trkpt>
      <trkpt lat="42.5870136916637420654296875" lon="20.098489187657833099365234375">
        <ele>1964.800048828125</ele>
        <time>2026-06-15T09:36:09.000Z</time>
        <extensions>
          <ns3:TrackPointExtension>
            <ns3:atemp>19.0</ns3:atemp>
          </ns3:TrackPointExtension>
        </extensions>
      </trkpt>
      <trkpt lat="42.58703774772584438323974609375" lon="20.0984675623476505279541015625">
        <ele>1965</ele>
        <time>2026-06-15T09:36:10.000Z</time>
        <extensions>
          <ns3:TrackPointExtension>
            <ns3:atemp>19.0</ns3:atemp>
          </ns3:TrackPointExtension>
        </extensions>
      </trkpt>
      <trkpt lat="42.5870607979595661163330078125" lon="20.098446272313594818115234375">
        <ele>1965</ele>
        <time>2026-06-15T09:36:11.000Z</time>
        <extensions>
          <ns3:TrackPointExtension>
            <ns3:atemp>19.0</ns3:atemp>
          </ns3:TrackPointExtension>
        </extensions>
      </trkpt>
      <trkpt lat="42.58708468638360500335693359375" lon="20.0984179414808750152587890625">
        <ele>1965.199951171875</ele>
        <time>2026-06-15T09:36:12.000Z</time>
        <extensions>
          <ns3:TrackPointExtension>
            <ns3:atemp>19.0</ns3:atemp>
          </ns3:TrackPointExtension>
        </extensions>
      </trkpt>
      <trkpt lat="42.58710689842700958251953125" lon="20.098389945924282073974609375">
        <ele>1965.4000244140625</ele>
        <time>2026-06-15T09:36:13.000Z</time>
        <extensions>
          <ns3:TrackPointExtension>
            <ns3:atemp>19.0</ns3:atemp>
          </ns3:TrackPointExtension>
        </extensions>
      </trkpt>
      <trkpt lat="42.58713103830814361572265625" lon="20.09836547076702117919921875">
        <ele>1965.800048828125</ele>
        <time>2026-06-15T09:36:14.000Z</time>
        <extensions>
          <ns3:TrackPointExtension>
            <ns3:atemp>19.0</ns3:atemp>
          </ns3:TrackPointExtension>
        </extensions>
      </trkpt>
      <trkpt lat="42.58715241216123104095458984375" lon="20.0983347930014133453369140625">
        <ele>1966</ele>
        <time>2026-06-15T09:36:15.000Z</time>
        <extensions>
          <ns3:TrackPointExtension>
            <ns3:atemp>19.0</ns3:atemp>
          </ns3:TrackPointExtension>
        </extensions>
      </trkpt>
      <trkpt lat="42.5871734507381916046142578125" lon="20.098304115235805511474609375">
        <ele>1966.199951171875</ele>
        <time>2026-06-15T09:36:16.000Z</time>
        <extensions>
          <ns3:TrackPointExtension>
            <ns3:atemp>19.0</ns3:atemp>
          </ns3:TrackPointExtension>
        </extensions>
      </trkpt>
      <trkpt lat="42.58719683624804019927978515625" lon="20.09827695786952972412109375">
        <ele>1966.4000244140625</ele>
        <time>2026-06-15T09:36:17.000Z</time>
        <extensions>
          <ns3:TrackPointExtension>
            <ns3:atemp>19.0</ns3:atemp>
          </ns3:TrackPointExtension>
        </extensions>
      </trkpt>
      <trkpt lat="42.58721946738660335540771484375" lon="20.0982536561787128448486328125">
        <ele>1966.800048828125</ele>
        <time>2026-06-15T09:36:18.000Z</time>
        <extensions>
          <ns3:TrackPointExtension>
            <ns3:atemp>19.0</ns3:atemp>
          </ns3:TrackPointExtension>
        </extensions>
      </trkpt>
      <trkpt lat="42.587242685258388519287109375" lon="20.098228342831134796142578125">
        <ele>1967</ele>
        <time>2026-06-15T09:36:19.000Z</time>
        <extensions>
          <ns3:TrackPointExtension>
            <ns3:atemp>19.0</ns3:atemp>
          </ns3:TrackPointExtension>
        </extensions>
      </trkpt>
      <trkpt lat="42.5872643105685710906982421875" lon="20.098201520740985870361328125">
        <ele>1967.199951171875</ele>
        <time>2026-06-15T09:36:20.000Z</time>
        <extensions>
          <ns3:TrackPointExtension>
            <ns3:atemp>19.0</ns3:atemp>
          </ns3:TrackPointExtension>
        </extensions>
      </trkpt>
      <trkpt lat="42.58728065527975559234619140625" lon="20.09817478246986865997314453125">
        <ele>1967.4000244140625</ele>
        <time>2026-06-15T09:36:21.000Z</time>
        <extensions>
          <ns3:TrackPointExtension>
            <ns3:atemp>19.0</ns3:atemp>
          </ns3:TrackPointExtension>
        </extensions>
      </trkpt>
      <trkpt lat="42.5872964970767498016357421875" lon="20.098140500485897064208984375">
        <ele>1967.4000244140625</ele>
        <time>2026-06-15T09:36:22.000Z</time>
        <extensions>
          <ns3:TrackPointExtension>
            <ns3:atemp>19.0</ns3:atemp>
          </ns3:TrackPointExtension>
        </extensions>
      </trkpt>
      <trkpt lat="42.58731552399694919586181640625" lon="20.0981046259403228759765625">
        <ele>1967.5999755859375</ele>
        <time>2026-06-15T09:36:23.000Z</time>
        <extensions>
          <ns3:TrackPointExtension>
            <ns3:atemp>19.0</ns3:atemp>
          </ns3:TrackPointExtension>
        </extensions>
      </trkpt>
      <trkpt lat="42.58732876740396022796630859375" lon="20.09807202033698558807373046875">
        <ele>1967.5999755859375</ele>
        <time>2026-06-15T09:36:24.000Z</time>
        <extensions>
          <ns3:TrackPointExtension>
            <ns3:atemp>19.0</ns3:atemp>
          </ns3:TrackPointExtension>
        </extensions>
      </trkpt>
      <trkpt lat="42.58733748458325862884521484375" lon="20.09804452769458293914794921875">
        <ele>1967.800048828125</ele>
        <time>2026-06-15T09:36:25.000Z</time>
        <extensions>
          <ns3:TrackPointExtension>
            <ns3:atemp>19.0</ns3:atemp>
          </ns3:TrackPointExtension>
        </extensions>
      </trkpt>
      <trkpt lat="42.58733983151614665985107421875" lon="20.098021142184734344482421875">
        <ele>1968</ele>
        <time>2026-06-15T09:36:26.000Z</time>
        <extensions>
          <ns3:TrackPointExtension>
            <ns3:atemp>19.0</ns3:atemp>
          </ns3:TrackPointExtension>
        </extensions>
      </trkpt>
      <trkpt lat="42.58734167553484439849853515625" lon="20.0979946553707122802734375">
        <ele>1968.4000244140625</ele>
        <time>2026-06-15T09:36:27.000Z</time>
        <extensions>
          <ns3:TrackPointExtension>
            <ns3:atemp>19.0</ns3:atemp>
          </ns3:TrackPointExtension>
        </extensions>
      </trkpt>
      <trkpt lat="42.58734402246773242950439453125" lon="20.09796741418540477752685546875">
        <ele>1968.5999755859375</ele>
        <time>2026-06-15T09:36:28.000Z</time>
        <extensions>
          <ns3:TrackPointExtension>
            <ns3:atemp>19.0</ns3:atemp>
          </ns3:TrackPointExtension>
        </extensions>
      </trkpt>
      <trkpt lat="42.587345279753208160400390625" lon="20.0979284383356571197509765625">
        <ele>1968.800048828125</ele>
        <time>2026-06-15T09:36:29.000Z</time>
        <extensions>
          <ns3:TrackPointExtension>
            <ns3:atemp>19.0</ns3:atemp>
          </ns3:TrackPointExtension>
        </extensions>
      </trkpt>
      <trkpt lat="42.58734502829611301422119140625" lon="20.0978846848011016845703125">
        <ele>1969</ele>
        <time>2026-06-15T09:36:30.000Z</time>
        <extensions>
          <ns3:TrackPointExtension>
            <ns3:atemp>19.0</ns3:atemp>
          </ns3:TrackPointExtension>
        </extensions>
      </trkpt>
      <trkpt lat="42.58734167553484439849853515625" lon="20.0978422723710536956787109375">
        <ele>1969.199951171875</ele>
        <time>2026-06-15T09:36:31.000Z</time>
        <extensions>
          <ns3:TrackPointExtension>
            <ns3:atemp>19.0</ns3:atemp>
          </ns3:TrackPointExtension>
        </extensions>
      </trkpt>
      <trkpt lat="42.5873328745365142822265625" lon="20.097794830799102783203125">
        <ele>1969.4000244140625</ele>
        <time>2026-06-15T09:36:32.000Z</time>
        <extensions>
          <ns3:TrackPointExtension>
            <ns3:atemp>19.0</ns3:atemp>
          </ns3:TrackPointExtension>
        </extensions>
      </trkpt>
      <trkpt lat="42.5873229838907718658447265625" lon="20.097748897969722747802734375">
        <ele>1969.4000244140625</ele>
        <time>2026-06-15T09:36:33.000Z</time>
        <extensions>
          <ns3:TrackPointExtension>
            <ns3:atemp>19.0</ns3:atemp>
          </ns3:TrackPointExtension>
        </extensions>
      </trkpt>
      <trkpt lat="42.58731267414987087249755859375" lon="20.0977024622261524200439453125">
        <ele>1969.5999755859375</ele>
        <time>2026-06-15T09:36:34.000Z</time>
        <extensions>
          <ns3:TrackPointExtension>
            <ns3:atemp>19.0</ns3:atemp>
          </ns3:TrackPointExtension>
        </extensions>
      </trkpt>
      <trkpt lat="42.5873075611889362335205078125" lon="20.0976615585386753082275390625">
        <ele>1969.800048828125</ele>
        <time>2026-06-15T09:36:35.000Z</time>
        <extensions>
          <ns3:TrackPointExtension>
            <ns3:atemp>19.0</ns3:atemp>
          </ns3:TrackPointExtension>
        </extensions>
      </trkpt>
      <trkpt lat="42.58730244822800159454345703125" lon="20.0976276956498622894287109375">
        <ele>1970.199951171875</ele>
        <time>2026-06-15T09:36:36.000Z</time>
        <extensions>
          <ns3:TrackPointExtension>
            <ns3:atemp>19.0</ns3:atemp>
          </ns3:TrackPointExtension>
        </extensions>
      </trkpt>
      <trkpt lat="42.58730144239962100982666015625" lon="20.09759793989360332489013671875">
        <ele>1970.4000244140625</ele>
        <time>2026-06-15T09:36:37.000Z</time>
        <extensions>
          <ns3:TrackPointExtension>
            <ns3:atemp>19.0</ns3:atemp>
          </ns3:TrackPointExtension>
        </extensions>
      </trkpt>
      <trkpt lat="42.58729909546673297882080078125" lon="20.097569189965724945068359375">
        <ele>1970.5999755859375</ele>
        <time>2026-06-15T09:36:38.000Z</time>
        <extensions>
          <ns3:TrackPointExtension>
            <ns3:atemp>19.0</ns3:atemp>
          </ns3:TrackPointExtension>
        </extensions>
      </trkpt>
      <trkpt lat="42.587297670543193817138671875" lon="20.09754513390362262725830078125">
        <ele>1970.800048828125</ele>
        <time>2026-06-15T09:36:39.000Z</time>
        <extensions>
          <ns3:TrackPointExtension>
            <ns3:atemp>19.0</ns3:atemp>
          </ns3:TrackPointExtension>
        </extensions>
      </trkpt>
      <trkpt lat="42.58729758672416210174560546875" lon="20.09752954356372356414794921875">
        <ele>1970.800048828125</ele>
        <time>2026-06-15T09:36:40.000Z</time>
        <extensions>
          <ns3:TrackPointExtension>
            <ns3:atemp>19.0</ns3:atemp>
          </ns3:TrackPointExtension>
        </extensions>
      </trkpt>
      <trkpt lat="42.58729322813451290130615234375" lon="20.097524262964725494384765625">
        <ele>1970.800048828125</ele>
        <time>2026-06-15T09:36:41.000Z</time>
        <extensions>
          <ns3:TrackPointExtension>
            <ns3:atemp>19.0</ns3:atemp>
          </ns3:TrackPointExtension>
        </extensions>
      </trkpt>
      <trkpt lat="42.5872911326587200164794921875" lon="20.09751143865287303924560546875">
        <ele>1970.800048828125</ele>
        <time>2026-06-15T09:36:42.000Z</time>
        <extensions>
          <ns3:TrackPointExtension>
            <ns3:atemp>19.0</ns3:atemp>
          </ns3:TrackPointExtension>
        </extensions>
      </trkpt>
      <trkpt lat="42.587293647229671478271484375" lon="20.09749836288392543792724609375">
        <ele>1970.5999755859375</ele>
        <time>2026-06-15T09:36:43.000Z</time>
        <extensions>
          <ns3:TrackPointExtension>
            <ns3:atemp>19.0</ns3:atemp>
          </ns3:TrackPointExtension>
        </extensions>
      </trkpt>
      <trkpt lat="42.587294317781925201416015625" lon="20.09748495183885097503662109375">
        <ele>1970.5999755859375</ele>
        <time>2026-06-15T09:36:44.000Z</time>
        <extensions>
          <ns3:TrackPointExtension>
            <ns3:atemp>19.0</ns3:atemp>
          </ns3:TrackPointExtension>
        </extensions>
      </trkpt>
      <trkpt lat="42.587296329438686370849609375" lon="20.09747154079377651214599609375">
        <ele>1970.4000244140625</ele>
        <time>2026-06-15T09:36:45.000Z</time>
        <extensions>
          <ns3:TrackPointExtension>
            <ns3:atemp>19.0</ns3:atemp>
          </ns3:TrackPointExtension>
        </extensions>
      </trkpt>
      <trkpt lat="42.5873032025992870330810546875" lon="20.09745159186422824859619140625">
        <ele>1970.199951171875</ele>
        <time>2026-06-15T09:36:46.000Z</time>
        <extensions>
          <ns3:TrackPointExtension>
            <ns3:atemp>19.0</ns3:atemp>
          </ns3:TrackPointExtension>
        </extensions>
      </trkpt>
      <trkpt lat="42.58731418289244174957275390625" lon="20.09741890244185924530029296875">
        <ele>1970.199951171875</ele>
        <time>2026-06-15T09:36:47.000Z</time>
        <extensions>
          <ns3:TrackPointExtension>
            <ns3:atemp>19.0</ns3:atemp>
          </ns3:TrackPointExtension>
        </extensions>
      </trkpt>
      <trkpt lat="42.5873270072042942047119140625" lon="20.0973911583423614501953125">
        <ele>1970</ele>
        <time>2026-06-15T09:36:48.000Z</time>
        <extensions>
          <ns3:TrackPointExtension>
            <ns3:atemp>19.0</ns3:atemp>
          </ns3:TrackPointExtension>
        </extensions>
      </trkpt>
      <trkpt lat="42.58734419010579586029052734375" lon="20.09735721163451671600341796875">
        <ele>1970</ele>
        <time>2026-06-15T09:36:49.000Z</time>
        <extensions>
          <ns3:TrackPointExtension>
            <ns3:atemp>19.0</ns3:atemp>
          </ns3:TrackPointExtension>
        </extensions>
      </trkpt>
      <trkpt lat="42.58736581541597843170166015625" lon="20.09733122773468494415283203125">
        <ele>1970</ele>
        <time>2026-06-15T09:36:50.000Z</time>
        <extensions>
          <ns3:TrackPointExtension>
            <ns3:atemp>19.0</ns3:atemp>
          </ns3:TrackPointExtension>
        </extensions>
      </trkpt>
      <trkpt lat="42.5873913802206516265869140625" lon="20.0973179005086421966552734375">
        <ele>1970</ele>
        <time>2026-06-15T09:36:51.000Z</time>
        <extensions>
          <ns3:TrackPointExtension>
            <ns3:atemp>19.0</ns3:atemp>
          </ns3:TrackPointExtension>
        </extensions>
      </trkpt>
      <trkpt lat="42.587419711053371429443359375" lon="20.09730733931064605712890625">
        <ele>1970.199951171875</ele>
        <time>2026-06-15T09:36:52.000Z</time>
        <extensions>
          <ns3:TrackPointExtension>
            <ns3:atemp>19.0</ns3:atemp>
          </ns3:TrackPointExtension>
        </extensions>
      </trkpt>
      <trkpt lat="42.5874446891248226165771484375" lon="20.09730407036840915679931640625">
        <ele>1970.4000244140625</ele>
        <time>2026-06-15T09:36:53.000Z</time>
        <extensions>
          <ns3:TrackPointExtension>
            <ns3:atemp>19.0</ns3:atemp>
          </ns3:TrackPointExtension>
        </extensions>
      </trkpt>
      <trkpt lat="42.58747193031013011932373046875" lon="20.0973034836351871490478515625">
        <ele>1970.5999755859375</ele>
        <time>2026-06-15T09:36:54.000Z</time>
        <extensions>
          <ns3:TrackPointExtension>
            <ns3:atemp>19.0</ns3:atemp>
          </ns3:TrackPointExtension>
        </extensions>
      </trkpt>
      <trkpt lat="42.58750176988542079925537109375" lon="20.0972964428365230560302734375">
        <ele>1970.800048828125</ele>
        <time>2026-06-15T09:36:55.000Z</time>
        <extensions>
          <ns3:TrackPointExtension>
            <ns3:atemp>19.0</ns3:atemp>
          </ns3:TrackPointExtension>
        </extensions>
      </trkpt>
      <trkpt lat="42.58753362111747264862060546875" lon="20.0972940959036350250244140625">
        <ele>1970.800048828125</ele>
        <time>2026-06-15T09:36:56.000Z</time>
        <extensions>
          <ns3:TrackPointExtension>
            <ns3:atemp>19.0</ns3:atemp>
          </ns3:TrackPointExtension>
        </extensions>
      </trkpt>
      <trkpt lat="42.58756463415920734405517578125" lon="20.0972890667617321014404296875">
        <ele>1971</ele>
        <time>2026-06-15T09:36:57.000Z</time>
        <extensions>
          <ns3:TrackPointExtension>
            <ns3:atemp>19.0</ns3:atemp>
          </ns3:TrackPointExtension>
        </extensions>
      </trkpt>
      <trkpt lat="42.587597407400608062744140625" lon="20.09728563018143177032470703125">
        <ele>1971</ele>
        <time>2026-06-15T09:36:58.000Z</time>
        <extensions>
          <ns3:TrackPointExtension>
            <ns3:atemp>19.0</ns3:atemp>
          </ns3:TrackPointExtension>
        </extensions>
      </trkpt>
      <trkpt lat="42.58763185702264308929443359375" lon="20.0972811877727508544921875">
        <ele>1971</ele>
        <time>2026-06-15T09:36:59.000Z</time>
        <extensions>
          <ns3:TrackPointExtension>
            <ns3:atemp>19.0</ns3:atemp>
          </ns3:TrackPointExtension>
        </extensions>
      </trkpt>
      <trkpt lat="42.58766555227339267730712890625" lon="20.0972704589366912841796875">
        <ele>1971.4000244140625</ele>
        <time>2026-06-15T09:37:00.000Z</time>
        <extensions>
          <ns3:TrackPointExtension>
            <ns3:atemp>19.0</ns3:atemp>
          </ns3:TrackPointExtension>
        </extensions>
      </trkpt>
      <trkpt lat="42.5876963138580322265625" lon="20.0972598977386951446533203125">
        <ele>1971.5999755859375</ele>
        <time>2026-06-15T09:37:01.000Z</time>
        <extensions>
          <ns3:TrackPointExtension>
            <ns3:atemp>19.0</ns3:atemp>
          </ns3:TrackPointExtension>
        </extensions>
      </trkpt>
      <trkpt lat="42.58772975765168666839599609375" lon="20.09725227020680904388427734375">
        <ele>1972.199951171875</ele>
        <time>2026-06-15T09:37:02.000Z</time>
        <extensions>
          <ns3:TrackPointExtension>
            <ns3:atemp>19.0</ns3:atemp>
          </ns3:TrackPointExtension>
        </extensions>
      </trkpt>
      <trkpt lat="42.5877621956169605255126953125" lon="20.09724154137074947357177734375">
        <ele>1972.4000244140625</ele>
        <time>2026-06-15T09:37:03.000Z</time>
        <extensions>
          <ns3:TrackPointExtension>
            <ns3:atemp>19.0</ns3:atemp>
          </ns3:TrackPointExtension>
        </extensions>
      </trkpt>
      <trkpt lat="42.58778759278357028961181640625" lon="20.0972320698201656341552734375">
        <ele>1973</ele>
        <time>2026-06-15T09:37:04.000Z</time>
        <extensions>
          <ns3:TrackPointExtension>
            <ns3:atemp>19.0</ns3:atemp>
          </ns3:TrackPointExtension>
        </extensions>
      </trkpt>
      <trkpt lat="42.58781458251178264617919921875" lon="20.09721773676574230194091796875">
        <ele>1973.4000244140625</ele>
        <time>2026-06-15T09:37:05.000Z</time>
        <extensions>
          <ns3:TrackPointExtension>
            <ns3:atemp>19.0</ns3:atemp>
          </ns3:TrackPointExtension>
        </extensions>
      </trkpt>
      <trkpt lat="42.58783989585936069488525390625" lon="20.09720901958644390106201171875">
        <ele>1973.800048828125</ele>
        <time>2026-06-15T09:37:06.000Z</time>
        <extensions>
          <ns3:TrackPointExtension>
            <ns3:atemp>19.0</ns3:atemp>
          </ns3:TrackPointExtension>
        </extensions>
      </trkpt>
      <trkpt lat="42.58786655031144618988037109375" lon="20.09719879366457462310791015625">
        <ele>1974</ele>
        <time>2026-06-15T09:37:07.000Z</time>
        <extensions>
          <ns3:TrackPointExtension>
            <ns3:atemp>19.0</ns3:atemp>
          </ns3:TrackPointExtension>
        </extensions>
      </trkpt>
      <trkpt lat="42.58789320476353168487548828125" lon="20.09718186222016811370849609375">
        <ele>1974.4000244140625</ele>
        <time>2026-06-15T09:37:08.000Z</time>
        <extensions>
          <ns3:TrackPointExtension>
            <ns3:atemp>19.0</ns3:atemp>
          </ns3:TrackPointExtension>
        </extensions>
      </trkpt>
      <trkpt lat="42.5879217870533466339111328125" lon="20.09716509841382503509521484375">
        <ele>1974.5999755859375</ele>
        <time>2026-06-15T09:37:09.000Z</time>
        <extensions>
          <ns3:TrackPointExtension>
            <ns3:atemp>19.0</ns3:atemp>
          </ns3:TrackPointExtension>
        </extensions>
      </trkpt>
      <trkpt lat="42.5879462622106075286865234375" lon="20.09714447893202304840087890625">
        <ele>1975</ele>
        <time>2026-06-15T09:37:10.000Z</time>
        <extensions>
          <ns3:TrackPointExtension>
            <ns3:atemp>19.0</ns3:atemp>
          </ns3:TrackPointExtension>
        </extensions>
      </trkpt>
      <trkpt lat="42.58796763606369495391845703125" lon="20.09711815975606441497802734375">
        <ele>1975.199951171875</ele>
        <time>2026-06-15T09:37:11.000Z</time>
        <extensions>
          <ns3:TrackPointExtension>
            <ns3:atemp>19.0</ns3:atemp>
          </ns3:TrackPointExtension>
        </extensions>
      </trkpt>
      <trkpt lat="42.587985657155513763427734375" lon="20.09708764962852001190185546875">
        <ele>1975.5999755859375</ele>
        <time>2026-06-15T09:37:12.000Z</time>
        <extensions>
          <ns3:TrackPointExtension>
            <ns3:atemp>19.0</ns3:atemp>
          </ns3:TrackPointExtension>
        </extensions>
      </trkpt>
      <trkpt lat="42.58800183422863483428955078125" lon="20.09705546312034130096435546875">
        <ele>1975.800048828125</ele>
        <time>2026-06-15T09:37:13.000Z</time>
        <extensions>
          <ns3:TrackPointExtension>
            <ns3:atemp>19.0</ns3:atemp>
          </ns3:TrackPointExtension>
        </extensions>
      </trkpt>
      <trkpt lat="42.588013149797916412353515625" lon="20.0970236957073211669921875">
        <ele>1976</ele>
        <time>2026-06-15T09:37:14.000Z</time>
        <extensions>
          <ns3:TrackPointExtension>
            <ns3:atemp>19.0</ns3:atemp>
          </ns3:TrackPointExtension>
        </extensions>
      </trkpt>
      <trkpt lat="42.58801759220659732818603515625" lon="20.09699444286525249481201171875">
        <ele>1976.199951171875</ele>
        <time>2026-06-15T09:37:15.000Z</time>
        <extensions>
          <ns3:TrackPointExtension>
            <ns3:atemp>19.0</ns3:atemp>
          </ns3:TrackPointExtension>
        </extensions>
      </trkpt>
      <trkpt lat="42.58801884949207305908203125" lon="20.09696133434772491455078125">
        <ele>1976.199951171875</ele>
        <time>2026-06-15T09:37:16.000Z</time>
        <extensions>
          <ns3:TrackPointExtension>
            <ns3:atemp>19.0</ns3:atemp>
          </ns3:TrackPointExtension>
        </extensions>
      </trkpt>
      <trkpt lat="42.58801725693047046661376953125" lon="20.09692688472568988800048828125">
        <ele>1976.4000244140625</ele>
        <time>2026-06-15T09:37:17.000Z</time>
        <extensions>
          <ns3:TrackPointExtension>
            <ns3:atemp>19.0</ns3:atemp>
          </ns3:TrackPointExtension>
        </extensions>
      </trkpt>
      <trkpt lat="42.5880139879882335662841796875" lon="20.09689503349363803863525390625">
        <ele>1976.5999755859375</ele>
        <time>2026-06-15T09:37:18.000Z</time>
        <extensions>
          <ns3:TrackPointExtension>
            <ns3:atemp>19.0</ns3:atemp>
          </ns3:TrackPointExtension>
        </extensions>
      </trkpt>
      <trkpt lat="42.588007450103759765625" lon="20.0968625955283641815185546875">
        <ele>1976.800048828125</ele>
        <time>2026-06-15T09:37:19.000Z</time>
        <extensions>
          <ns3:TrackPointExtension>
            <ns3:atemp>19.0</ns3:atemp>
          </ns3:TrackPointExtension>
        </extensions>
      </trkpt>
      <trkpt lat="42.5879989005625247955322265625" lon="20.0968283973634243011474609375">
        <ele>1977</ele>
        <time>2026-06-15T09:37:20.000Z</time>
        <extensions>
          <ns3:TrackPointExtension>
            <ns3:atemp>19.0</ns3:atemp>
          </ns3:TrackPointExtension>
        </extensions>
      </trkpt>
      <trkpt lat="42.5879898481070995330810546875" lon="20.09679662995040416717529296875">
        <ele>1977.199951171875</ele>
        <time>2026-06-15T09:37:21.000Z</time>
        <extensions>
          <ns3:TrackPointExtension>
            <ns3:atemp>19.0</ns3:atemp>
          </ns3:TrackPointExtension>
        </extensions>
      </trkpt>
      <trkpt lat="42.58798062801361083984375" lon="20.09676326997578144073486328125">
        <ele>1977.4000244140625</ele>
        <time>2026-06-15T09:37:22.000Z</time>
        <extensions>
          <ns3:TrackPointExtension>
            <ns3:atemp>19.0</ns3:atemp>
          </ns3:TrackPointExtension>
        </extensions>
      </trkpt>
      <trkpt lat="42.58796813897788524627685546875" lon="20.0967298261821269989013671875">
        <ele>1977.5999755859375</ele>
        <time>2026-06-15T09:37:23.000Z</time>
        <extensions>
          <ns3:TrackPointExtension>
            <ns3:atemp>19.0</ns3:atemp>
          </ns3:TrackPointExtension>
        </extensions>
      </trkpt>
      <trkpt lat="42.5879522971808910369873046875" lon="20.096698813140392303466796875">
        <ele>1977.800048828125</ele>
        <time>2026-06-15T09:37:24.000Z</time>
        <extensions>
          <ns3:TrackPointExtension>
            <ns3:atemp>19.0</ns3:atemp>
          </ns3:TrackPointExtension>
        </extensions>
      </trkpt>
      <trkpt lat="42.5879338569939136505126953125" lon="20.0966674648225307464599609375">
        <ele>1978</ele>
        <time>2026-06-15T09:37:25.000Z</time>
        <extensions>
          <ns3:TrackPointExtension>
            <ns3:atemp>19.0</ns3:atemp>
          </ns3:TrackPointExtension>
        </extensions>
      </trkpt>
      <trkpt lat="42.58791767992079257965087890625" lon="20.09663586504757404327392578125">
        <ele>1978.4000244140625</ele>
        <time>2026-06-15T09:37:26.000Z</time>
        <extensions>
          <ns3:TrackPointExtension>
            <ns3:atemp>19.0</ns3:atemp>
          </ns3:TrackPointExtension>
        </extensions>
      </trkpt>
      <trkpt lat="42.58790041320025920867919921875" lon="20.09660703130066394805908203125">
        <ele>1978.5999755859375</ele>
        <time>2026-06-15T09:37:27.000Z</time>
        <extensions>
          <ns3:TrackPointExtension>
            <ns3:atemp>19.0</ns3:atemp>
          </ns3:TrackPointExtension>
        </extensions>
      </trkpt>
      <trkpt lat="42.5878822244703769683837890625" lon="20.0965779460966587066650390625">
        <ele>1978.800048828125</ele>
        <time>2026-06-15T09:37:28.000Z</time>
        <extensions>
          <ns3:TrackPointExtension>
            <ns3:atemp>19.0</ns3:atemp>
          </ns3:TrackPointExtension>
        </extensions>
      </trkpt>
      <trkpt lat="42.5878621079027652740478515625" lon="20.0965543091297149658203125">
        <ele>1979.199951171875</ele>
        <time>2026-06-15T09:37:29.000Z</time>
        <extensions>
          <ns3:TrackPointExtension>
            <ns3:atemp>19.0</ns3:atemp>
          </ns3:TrackPointExtension>
        </extensions>
      </trkpt>
      <trkpt lat="42.5878399796783924102783203125" lon="20.0965259782969951629638671875">
        <ele>1979.4000244140625</ele>
        <time>2026-06-15T09:37:30.000Z</time>
        <extensions>
          <ns3:TrackPointExtension>
            <ns3:atemp>19.0</ns3:atemp>
          </ns3:TrackPointExtension>
        </extensions>
      </trkpt>
      <trkpt lat="42.58781625889241695404052734375" lon="20.096499659121036529541015625">
        <ele>1979.5999755859375</ele>
        <time>2026-06-15T09:37:31.000Z</time>
        <extensions>
          <ns3:TrackPointExtension>
            <ns3:atemp>19.0</ns3:atemp>
          </ns3:TrackPointExtension>
        </extensions>
      </trkpt>
      <trkpt lat="42.58780016563832759857177734375" lon="20.09647761471569538116455078125">
        <ele>1979.800048828125</ele>
        <time>2026-06-15T09:37:32.000Z</time>
        <extensions>
          <ns3:TrackPointExtension>
            <ns3:atemp>19.0</ns3:atemp>
          </ns3:TrackPointExtension>
        </extensions>
      </trkpt>
      <trkpt lat="42.587782479822635650634765625" lon="20.09646420367062091827392578125">
        <ele>1980</ele>
        <time>2026-06-15T09:37:33.000Z</time>
        <extensions>
          <ns3:TrackPointExtension>
            <ns3:atemp>19.0</ns3:atemp>
          </ns3:TrackPointExtension>
        </extensions>
      </trkpt>
      <trkpt lat="42.58776596747338771820068359375" lon="20.096451379358768463134765625">
        <ele>1980.199951171875</ele>
        <time>2026-06-15T09:37:34.000Z</time>
        <extensions>
          <ns3:TrackPointExtension>
            <ns3:atemp>19.0</ns3:atemp>
          </ns3:TrackPointExtension>
        </extensions>
      </trkpt>
      <trkpt lat="42.5877474434673786163330078125" lon="20.0964381359517574310302734375">
        <ele>1980.199951171875</ele>
        <time>2026-06-15T09:37:35.000Z</time>
        <extensions>
          <ns3:TrackPointExtension>
            <ns3:atemp>19.0</ns3:atemp>
          </ns3:TrackPointExtension>
        </extensions>
      </trkpt>
      <trkpt lat="42.587722130119800567626953125" lon="20.09641760028898715972900390625">
        <ele>1980.4000244140625</ele>
        <time>2026-06-15T09:37:36.000Z</time>
        <extensions>
          <ns3:TrackPointExtension>
            <ns3:atemp>19.0</ns3:atemp>
          </ns3:TrackPointExtension>
        </extensions>
      </trkpt>
      <trkpt lat="42.5877028517425060272216796875" lon="20.09639270603656768798828125">
        <ele>1980.5999755859375</ele>
        <time>2026-06-15T09:37:37.000Z</time>
        <extensions>
          <ns3:TrackPointExtension>
            <ns3:atemp>19.0</ns3:atemp>
          </ns3:TrackPointExtension>
        </extensions>
      </trkpt>
      <trkpt lat="42.58768231607973575592041015625" lon="20.09636588394641876220703125">
        <ele>1980.5999755859375</ele>
        <time>2026-06-15T09:37:38.000Z</time>
        <extensions>
          <ns3:TrackPointExtension>
            <ns3:atemp>19.0</ns3:atemp>
          </ns3:TrackPointExtension>
        </extensions>
      </trkpt>
      <trkpt lat="42.58766613900661468505859375" lon="20.0963395647704601287841796875">
        <ele>1980.800048828125</ele>
        <time>2026-06-15T09:37:39.000Z</time>
        <extensions>
          <ns3:TrackPointExtension>
            <ns3:atemp>19.0</ns3:atemp>
          </ns3:TrackPointExtension>
        </extensions>
      </trkpt>
      <trkpt lat="42.58764694444835186004638671875" lon="20.096313245594501495361328125">
        <ele>1981.199951171875</ele>
        <time>2026-06-15T09:37:40.000Z</time>
        <extensions>
          <ns3:TrackPointExtension>
            <ns3:atemp>19.0</ns3:atemp>
          </ns3:TrackPointExtension>
        </extensions>
      </trkpt>
      <trkpt lat="42.58762867189943790435791015625" lon="20.09628902189433574676513671875">
        <ele>1981.4000244140625</ele>
        <time>2026-06-15T09:37:41.000Z</time>
        <extensions>
          <ns3:TrackPointExtension>
            <ns3:atemp>19.0</ns3:atemp>
          </ns3:TrackPointExtension>
        </extensions>
      </trkpt>
      <trkpt lat="42.587610818445682525634765625" lon="20.09626303799450397491455078125">
        <ele>1981.800048828125</ele>
        <time>2026-06-15T09:37:42.000Z</time>
        <extensions>
          <ns3:TrackPointExtension>
            <ns3:atemp>19.0</ns3:atemp>
          </ns3:TrackPointExtension>
        </extensions>
      </trkpt>
      <trkpt lat="42.5875918753445148468017578125" lon="20.09623889811336994171142578125">
        <ele>1982</ele>
        <time>2026-06-15T09:37:43.000Z</time>
        <extensions>
          <ns3:TrackPointExtension>
            <ns3:atemp>19.0</ns3:atemp>
          </ns3:TrackPointExtension>
        </extensions>
      </trkpt>
      <trkpt lat="42.58756899274885654449462890625" lon="20.0962165184319019317626953125">
        <ele>1982.4000244140625</ele>
        <time>2026-06-15T09:37:44.000Z</time>
        <extensions>
          <ns3:TrackPointExtension>
            <ns3:atemp>19.0</ns3:atemp>
          </ns3:TrackPointExtension>
        </extensions>
      </trkpt>
      <trkpt lat="42.58754569105803966522216796875" lon="20.09620218537747859954833984375">
        <ele>1982.5999755859375</ele>
        <time>2026-06-15T09:37:45.000Z</time>
        <extensions>
          <ns3:TrackPointExtension>
            <ns3:atemp>19.0</ns3:atemp>
          </ns3:TrackPointExtension>
        </extensions>
      </trkpt>
      <trkpt lat="42.58752272464334964752197265625" lon="20.0961829908192157745361328125">
        <ele>1982.800048828125</ele>
        <time>2026-06-15T09:37:46.000Z</time>
        <extensions>
          <ns3:TrackPointExtension>
            <ns3:atemp>19.0</ns3:atemp>
          </ns3:TrackPointExtension>
        </extensions>
      </trkpt>
      <trkpt lat="42.58749892003834247589111328125" lon="20.096159689128398895263671875">
        <ele>1983</ele>
        <time>2026-06-15T09:37:47.000Z</time>
        <extensions>
          <ns3:TrackPointExtension>
            <ns3:atemp>19.0</ns3:atemp>
          </ns3:TrackPointExtension>
        </extensions>
      </trkpt>
      <trkpt lat="42.58747092448174953460693359375" lon="20.09613328613340854644775390625">
        <ele>1983.4000244140625</ele>
        <time>2026-06-15T09:37:48.000Z</time>
        <extensions>
          <ns3:TrackPointExtension>
            <ns3:atemp>19.0</ns3:atemp>
          </ns3:TrackPointExtension>
        </extensions>
      </trkpt>
      <trkpt lat="42.58744678460061550140380859375" lon="20.09610495530068874359130859375">
        <ele>1983.5999755859375</ele>
        <time>2026-06-15T09:37:49.000Z</time>
        <extensions>
          <ns3:TrackPointExtension>
            <ns3:atemp>19.0</ns3:atemp>
          </ns3:TrackPointExtension>
        </extensions>
      </trkpt>
      <trkpt lat="42.5874240696430206298828125" lon="20.09607159532606601715087890625">
        <ele>1983.5999755859375</ele>
        <time>2026-06-15T09:37:50.000Z</time>
        <extensions>
          <ns3:TrackPointExtension>
            <ns3:atemp>19.0</ns3:atemp>
          </ns3:TrackPointExtension>
        </extensions>
      </trkpt>
      <trkpt lat="42.58740051649510860443115234375" lon="20.0960388220846652984619140625">
        <ele>1983.800048828125</ele>
        <time>2026-06-15T09:37:51.000Z</time>
        <extensions>
          <ns3:TrackPointExtension>
            <ns3:atemp>19.0</ns3:atemp>
          </ns3:TrackPointExtension>
        </extensions>
      </trkpt>
      <trkpt lat="42.5873783044517040252685546875" lon="20.0960086472332477569580078125">
        <ele>1984</ele>
        <time>2026-06-15T09:37:52.000Z</time>
        <extensions>
          <ns3:TrackPointExtension>
            <ns3:atemp>19.0</ns3:atemp>
          </ns3:TrackPointExtension>
        </extensions>
      </trkpt>
      <trkpt lat="42.587356679141521453857421875" lon="20.09598241187632083892822265625">
        <ele>1984</ele>
        <time>2026-06-15T09:37:53.000Z</time>
        <extensions>
          <ns3:TrackPointExtension>
            <ns3:atemp>19.0</ns3:atemp>
          </ns3:TrackPointExtension>
        </extensions>
      </trkpt>
      <trkpt lat="42.5873360596597194671630859375" lon="20.09595508687198162078857421875">
        <ele>1984.199951171875</ele>
        <time>2026-06-15T09:37:54.000Z</time>
        <extensions>
          <ns3:TrackPointExtension>
            <ns3:atemp>19.0</ns3:atemp>
          </ns3:TrackPointExtension>
        </extensions>
      </trkpt>
      <trkpt lat="42.58731468580663204193115234375" lon="20.09593346156179904937744140625">
        <ele>1984.4000244140625</ele>
        <time>2026-06-15T09:37:55.000Z</time>
        <extensions>
          <ns3:TrackPointExtension>
            <ns3:atemp>19.0</ns3:atemp>
          </ns3:TrackPointExtension>
        </extensions>
      </trkpt>
      <trkpt lat="42.58729339577257633209228515625" lon="20.095916949212551116943359375">
        <ele>1984.5999755859375</ele>
        <time>2026-06-15T09:37:56.000Z</time>
        <extensions>
          <ns3:TrackPointExtension>
            <ns3:atemp>19.0</ns3:atemp>
          </ns3:TrackPointExtension>
        </extensions>
      </trkpt>
      <trkpt lat="42.58727478794753551483154296875" lon="20.095891468226909637451171875">
        <ele>1984.800048828125</ele>
        <time>2026-06-15T09:37:57.000Z</time>
        <extensions>
          <ns3:TrackPointExtension>
            <ns3:atemp>19.0</ns3:atemp>
          </ns3:TrackPointExtension>
        </extensions>
      </trkpt>
      <trkpt lat="42.5872565992176532745361328125" lon="20.09586640633642673492431640625">
        <ele>1985</ele>
        <time>2026-06-15T09:37:58.000Z</time>
        <extensions>
          <ns3:TrackPointExtension>
            <ns3:atemp>19.0</ns3:atemp>
          </ns3:TrackPointExtension>
        </extensions>
      </trkpt>
      <trkpt lat="42.58723924867808818817138671875" lon="20.0958403386175632476806640625">
        <ele>1985</ele>
        <time>2026-06-15T09:37:59.000Z</time>
        <extensions>
          <ns3:TrackPointExtension>
            <ns3:atemp>19.0</ns3:atemp>
          </ns3:TrackPointExtension>
        </extensions>
      </trkpt>
      <trkpt lat="42.58721879683434963226318359375" lon="20.09581594727933406829833984375">
        <ele>1985.199951171875</ele>
        <time>2026-06-15T09:38:00.000Z</time>
        <extensions>
          <ns3:TrackPointExtension>
            <ns3:atemp>19.0</ns3:atemp>
          </ns3:TrackPointExtension>
        </extensions>
      </trkpt>
      <trkpt lat="42.58720303885638713836669921875" lon="20.09579884819686412811279296875">
        <ele>1985.199951171875</ele>
        <time>2026-06-15T09:38:01.000Z</time>
        <extensions>
          <ns3:TrackPointExtension>
            <ns3:atemp>19.0</ns3:atemp>
          </ns3:TrackPointExtension>
        </extensions>
      </trkpt>
      <trkpt lat="42.58718862198293209075927734375" lon="20.0957877002656459808349609375">
        <ele>1985.4000244140625</ele>
        <time>2026-06-15T09:38:02.000Z</time>
        <extensions>
          <ns3:TrackPointExtension>
            <ns3:atemp>19.0</ns3:atemp>
          </ns3:TrackPointExtension>
        </extensions>
      </trkpt>
      <trkpt lat="42.5871746242046356201171875" lon="20.09577806107699871063232421875">
        <ele>1985.4000244140625</ele>
        <time>2026-06-15T09:38:03.000Z</time>
        <extensions>
          <ns3:TrackPointExtension>
            <ns3:atemp>19.0</ns3:atemp>
          </ns3:TrackPointExtension>
        </extensions>
      </trkpt>
      <trkpt lat="42.5871620513498783111572265625" lon="20.095764063298702239990234375">
        <ele>1985.4000244140625</ele>
        <time>2026-06-15T09:38:04.000Z</time>
        <extensions>
          <ns3:TrackPointExtension>
            <ns3:atemp>19.0</ns3:atemp>
          </ns3:TrackPointExtension>
        </extensions>
      </trkpt>
      <trkpt lat="42.5871529988944530487060546875" lon="20.09575341828167438507080078125">
        <ele>1985.5999755859375</ele>
        <time>2026-06-15T09:38:05.000Z</time>
        <extensions>
          <ns3:TrackPointExtension>
            <ns3:atemp>19.0</ns3:atemp>
          </ns3:TrackPointExtension>
        </extensions>
      </trkpt>
      <trkpt lat="42.5871422700583934783935546875" lon="20.09574335999786853790283203125">
        <ele>1985.5999755859375</ele>
        <time>2026-06-15T09:38:06.000Z</time>
        <extensions>
          <ns3:TrackPointExtension>
            <ns3:atemp>19.0</ns3:atemp>
          </ns3:TrackPointExtension>
        </extensions>
      </trkpt>
      <trkpt lat="42.58713095448911190032958984375" lon="20.09573179297149181365966796875">
        <ele>1985.5999755859375</ele>
        <time>2026-06-15T09:38:07.000Z</time>
        <extensions>
          <ns3:TrackPointExtension>
            <ns3:atemp>19.0</ns3:atemp>
          </ns3:TrackPointExtension>
        </extensions>
      </trkpt>
      <trkpt lat="42.58712022565305233001708984375" lon="20.095717795193195343017578125">
        <ele>1985.5999755859375</ele>
        <time>2026-06-15T09:38:08.000Z</time>
        <extensions>
          <ns3:TrackPointExtension>
            <ns3:atemp>19.0</ns3:atemp>
          </ns3:TrackPointExtension>
        </extensions>
      </trkpt>
      <trkpt lat="42.58711184374988079071044921875" lon="20.09570329450070858001708984375">
        <ele>1985.5999755859375</ele>
        <time>2026-06-15T09:38:09.000Z</time>
        <extensions>
          <ns3:TrackPointExtension>
            <ns3:atemp>19.0</ns3:atemp>
          </ns3:TrackPointExtension>
        </extensions>
      </trkpt>
      <trkpt lat="42.5871017016470432281494140625" lon="20.09569130837917327880859375">
        <ele>1985.800048828125</ele>
        <time>2026-06-15T09:38:10.000Z</time>
        <extensions>
          <ns3:TrackPointExtension>
            <ns3:atemp>19.0</ns3:atemp>
          </ns3:TrackPointExtension>
        </extensions>
      </trkpt>
      <trkpt lat="42.58708971552550792694091796875" lon="20.095682926476001739501953125">
        <ele>1985.800048828125</ele>
        <time>2026-06-15T09:38:11.000Z</time>
        <extensions>
          <ns3:TrackPointExtension>
            <ns3:atemp>19.0</ns3:atemp>
          </ns3:TrackPointExtension>
        </extensions>
      </trkpt>
      <trkpt lat="42.5870782323181629180908203125" lon="20.0956619717180728912353515625">
        <ele>1985.5999755859375</ele>
        <time>2026-06-15T09:38:12.000Z</time>
        <extensions>
          <ns3:TrackPointExtension>
            <ns3:atemp>19.0</ns3:atemp>
          </ns3:TrackPointExtension>
        </extensions>
      </trkpt>
      <trkpt lat="42.58707915432751178741455078125" lon="20.0956369936466217041015625">
        <ele>1985.5999755859375</ele>
        <time>2026-06-15T09:38:13.000Z</time>
        <extensions>
          <ns3:TrackPointExtension>
            <ns3:atemp>19.0</ns3:atemp>
          </ns3:TrackPointExtension>
        </extensions>
      </trkpt>
      <trkpt lat="42.58708451874554157257080078125" lon="20.09560908190906047821044921875">
        <ele>1985.5999755859375</ele>
        <time>2026-06-15T09:38:14.000Z</time>
        <extensions>
          <ns3:TrackPointExtension>
            <ns3:atemp>19.0</ns3:atemp>
          </ns3:TrackPointExtension>
        </extensions>
      </trkpt>
      <trkpt lat="42.5870986841619014739990234375" lon="20.09557756595313549041748046875">
        <ele>1985.5999755859375</ele>
        <time>2026-06-15T09:38:15.000Z</time>
        <extensions>
          <ns3:TrackPointExtension>
            <ns3:atemp>19.0</ns3:atemp>
          </ns3:TrackPointExtension>
        </extensions>
      </trkpt>
      <trkpt lat="42.5871194712817668914794921875" lon="20.09554856456816196441650390625">
        <ele>1985.4000244140625</ele>
        <time>2026-06-15T09:38:16.000Z</time>
        <extensions>
          <ns3:TrackPointExtension>
            <ns3:atemp>19.0</ns3:atemp>
          </ns3:TrackPointExtension>
        </extensions>
      </trkpt>
      <trkpt lat="42.58714537136256694793701171875" lon="20.09552325122058391571044921875">
        <ele>1985.4000244140625</ele>
        <time>2026-06-15T09:38:17.000Z</time>
        <extensions>
          <ns3:TrackPointExtension>
            <ns3:atemp>19.0</ns3:atemp>
          </ns3:TrackPointExtension>
        </extensions>
      </trkpt>
      <trkpt lat="42.58717001415789127349853515625" lon="20.09549726732075214385986328125">
        <ele>1985.5999755859375</ele>
        <time>2026-06-15T09:38:18.000Z</time>
        <extensions>
          <ns3:TrackPointExtension>
            <ns3:atemp>19.0</ns3:atemp>
          </ns3:TrackPointExtension>
        </extensions>
      </trkpt>
      <trkpt lat="42.58719415403902530670166015625" lon="20.095477402210235595703125">
        <ele>1985.5999755859375</ele>
        <time>2026-06-15T09:38:19.000Z</time>
        <extensions>
          <ns3:TrackPointExtension>
            <ns3:atemp>19.0</ns3:atemp>
          </ns3:TrackPointExtension>
        </extensions>
      </trkpt>
      <trkpt lat="42.587214522063732147216796875" lon="20.09545787237584590911865234375">
        <ele>1985.800048828125</ele>
        <time>2026-06-15T09:38:20.000Z</time>
        <extensions>
          <ns3:TrackPointExtension>
            <ns3:atemp>19.0</ns3:atemp>
          </ns3:TrackPointExtension>
        </extensions>
      </trkpt>
      <trkpt lat="42.58723539300262928009033203125" lon="20.09543641470372676849365234375">
        <ele>1986</ele>
        <time>2026-06-15T09:38:21.000Z</time>
        <extensions>
          <ns3:TrackPointExtension>
            <ns3:atemp>19.0</ns3:atemp>
          </ns3:TrackPointExtension>
        </extensions>
      </trkpt>
      <trkpt lat="42.587259113788604736328125" lon="20.09540833532810211181640625">
        <ele>1986.199951171875</ele>
        <time>2026-06-15T09:38:22.000Z</time>
        <extensions>
          <ns3:TrackPointExtension>
            <ns3:atemp>19.0</ns3:atemp>
          </ns3:TrackPointExtension>
        </extensions>
      </trkpt>
      <trkpt lat="42.587285935878753662109375" lon="20.09537673555314540863037109375">
        <ele>1986.199951171875</ele>
        <time>2026-06-15T09:38:23.000Z</time>
        <extensions>
          <ns3:TrackPointExtension>
            <ns3:atemp>19.0</ns3:atemp>
          </ns3:TrackPointExtension>
        </extensions>
      </trkpt>
      <trkpt lat="42.5873092375695705413818359375" lon="20.09534505195915699005126953125">
        <ele>1986.4000244140625</ele>
        <time>2026-06-15T09:38:24.000Z</time>
        <extensions>
          <ns3:TrackPointExtension>
            <ns3:atemp>19.0</ns3:atemp>
          </ns3:TrackPointExtension>
        </extensions>
      </trkpt>
      <trkpt lat="42.58733622729778289794921875" lon="20.0953163020312786102294921875">
        <ele>1986.4000244140625</ele>
        <time>2026-06-15T09:38:25.000Z</time>
        <extensions>
          <ns3:TrackPointExtension>
            <ns3:atemp>19.0</ns3:atemp>
          </ns3:TrackPointExtension>
        </extensions>
      </trkpt>
      <trkpt lat="42.5873648934066295623779296875" lon="20.095287300646305084228515625">
        <ele>1986.5999755859375</ele>
        <time>2026-06-15T09:38:26.000Z</time>
        <extensions>
          <ns3:TrackPointExtension>
            <ns3:atemp>19.0</ns3:atemp>
          </ns3:TrackPointExtension>
        </extensions>
      </trkpt>
      <trkpt lat="42.587386853992938995361328125" lon="20.0952582992613315582275390625">
        <ele>1986.800048828125</ele>
        <time>2026-06-15T09:38:27.000Z</time>
        <extensions>
          <ns3:TrackPointExtension>
            <ns3:atemp>19.0</ns3:atemp>
          </ns3:TrackPointExtension>
        </extensions>
      </trkpt>
      <trkpt lat="42.58740621618926525115966796875" lon="20.0952301360666751861572265625">
        <ele>1986.800048828125</ele>
        <time>2026-06-15T09:38:28.000Z</time>
        <extensions>
          <ns3:TrackPointExtension>
            <ns3:atemp>19.0</ns3:atemp>
          </ns3:TrackPointExtension>
        </extensions>
      </trkpt>
      <trkpt lat="42.58742264471948146820068359375" lon="20.09520457126200199127197265625">
        <ele>1987</ele>
        <time>2026-06-15T09:38:29.000Z</time>
        <extensions>
          <ns3:TrackPointExtension>
            <ns3:atemp>19.0</ns3:atemp>
          </ns3:TrackPointExtension>
        </extensions>
      </trkpt>
      <trkpt lat="42.587436139583587646484375" lon="20.095182359218597412109375">
        <ele>1987.199951171875</ele>
        <time>2026-06-15T09:38:30.000Z</time>
        <extensions>
          <ns3:TrackPointExtension>
            <ns3:atemp>19.0</ns3:atemp>
          </ns3:TrackPointExtension>
        </extensions>
      </trkpt>
      <trkpt lat="42.58745156228542327880859375" lon="20.0951590575277805328369140625">
        <ele>1987.4000244140625</ele>
        <time>2026-06-15T09:38:31.000Z</time>
        <extensions>
          <ns3:TrackPointExtension>
            <ns3:atemp>19.0</ns3:atemp>
          </ns3:TrackPointExtension>
        </extensions>
      </trkpt>
      <trkpt lat="42.587468661367893218994140625" lon="20.095131732523441314697265625">
        <ele>1987.4000244140625</ele>
        <time>2026-06-15T09:38:32.000Z</time>
        <extensions>
          <ns3:TrackPointExtension>
            <ns3:atemp>19.0</ns3:atemp>
          </ns3:TrackPointExtension>
        </extensions>
      </trkpt>
      <trkpt lat="42.58748249150812625885009765625" lon="20.09509879164397716522216796875">
        <ele>1987.5999755859375</ele>
        <time>2026-06-15T09:38:33.000Z</time>
        <extensions>
          <ns3:TrackPointExtension>
            <ns3:atemp>19.0</ns3:atemp>
          </ns3:TrackPointExtension>
        </extensions>
      </trkpt>
      <trkpt lat="42.5874943099915981292724609375" lon="20.09505637921392917633056640625">
        <ele>1987.4000244140625</ele>
        <time>2026-06-15T09:38:34.000Z</time>
        <extensions>
          <ns3:TrackPointExtension>
            <ns3:atemp>19.0</ns3:atemp>
          </ns3:TrackPointExtension>
        </extensions>
      </trkpt>
      <trkpt lat="42.587507553398609161376953125" lon="20.09501715190708637237548828125">
        <ele>1987.4000244140625</ele>
        <time>2026-06-15T09:38:35.000Z</time>
        <extensions>
          <ns3:TrackPointExtension>
            <ns3:atemp>19.0</ns3:atemp>
          </ns3:TrackPointExtension>
        </extensions>
      </trkpt>
      <trkpt lat="42.5875221379101276397705078125" lon="20.094978511333465576171875">
        <ele>1987.4000244140625</ele>
        <time>2026-06-15T09:38:36.000Z</time>
        <extensions>
          <ns3:TrackPointExtension>
            <ns3:atemp>19.0</ns3:atemp>
          </ns3:TrackPointExtension>
        </extensions>
      </trkpt>
      <trkpt lat="42.58753563277423381805419921875" lon="20.0949397869408130645751953125">
        <ele>1987.4000244140625</ele>
        <time>2026-06-15T09:38:37.000Z</time>
        <extensions>
          <ns3:TrackPointExtension>
            <ns3:atemp>19.0</ns3:atemp>
          </ns3:TrackPointExtension>
        </extensions>
      </trkpt>
      <trkpt lat="42.587549127638339996337890625" lon="20.09490751661360263824462890625">
        <ele>1987.5999755859375</ele>
        <time>2026-06-15T09:38:38.000Z</time>
        <extensions>
          <ns3:TrackPointExtension>
            <ns3:atemp>19.0</ns3:atemp>
          </ns3:TrackPointExtension>
        </extensions>
      </trkpt>
      <trkpt lat="42.587561197578907012939453125" lon="20.0948744080960750579833984375">
        <ele>1987.5999755859375</ele>
        <time>2026-06-15T09:38:39.000Z</time>
        <extensions>
          <ns3:TrackPointExtension>
            <ns3:atemp>19.0</ns3:atemp>
          </ns3:TrackPointExtension>
        </extensions>
      </trkpt>
      <trkpt lat="42.587571255862712860107421875" lon="20.09483476169407367706298828125">
        <ele>1987.800048828125</ele>
        <time>2026-06-15T09:38:40.000Z</time>
        <extensions>
          <ns3:TrackPointExtension>
            <ns3:atemp>19.0</ns3:atemp>
          </ns3:TrackPointExtension>
        </extensions>
      </trkpt>
      <trkpt lat="42.58758005686104297637939453125" lon="20.094796121120452880859375">
        <ele>1988</ele>
        <time>2026-06-15T09:38:41.000Z</time>
        <extensions>
          <ns3:TrackPointExtension>
            <ns3:atemp>19.0</ns3:atemp>
          </ns3:TrackPointExtension>
        </extensions>
      </trkpt>
      <trkpt lat="42.58759011514484882354736328125" lon="20.09475429542362689971923828125">
        <ele>1988</ele>
        <time>2026-06-15T09:38:42.000Z</time>
        <extensions>
          <ns3:TrackPointExtension>
            <ns3:atemp>19.0</ns3:atemp>
          </ns3:TrackPointExtension>
        </extensions>
      </trkpt>
      <trkpt lat="42.58759564720094203948974609375" lon="20.09471422992646694183349609375">
        <ele>1988</ele>
        <time>2026-06-15T09:38:43.000Z</time>
        <extensions>
          <ns3:TrackPointExtension>
            <ns3:atemp>19.0</ns3:atemp>
          </ns3:TrackPointExtension>
        </extensions>
      </trkpt>
      <trkpt lat="42.58759975433349609375" lon="20.094678103923797607421875">
        <ele>1988.199951171875</ele>
        <time>2026-06-15T09:38:44.000Z</time>
        <extensions>
          <ns3:TrackPointExtension>
            <ns3:atemp>19.0</ns3:atemp>
          </ns3:TrackPointExtension>
        </extensions>
      </trkpt>
      <trkpt lat="42.58760319091379642486572265625" lon="20.0946390442550182342529296875">
        <ele>1988.4000244140625</ele>
        <time>2026-06-15T09:38:45.000Z</time>
        <extensions>
          <ns3:TrackPointExtension>
            <ns3:atemp>19.0</ns3:atemp>
          </ns3:TrackPointExtension>
        </extensions>
      </trkpt>
      <trkpt lat="42.58760889060795307159423828125" lon="20.094599984586238861083984375">
        <ele>1988.5999755859375</ele>
        <time>2026-06-15T09:38:46.000Z</time>
        <extensions>
          <ns3:TrackPointExtension>
            <ns3:atemp>19.0</ns3:atemp>
          </ns3:TrackPointExtension>
        </extensions>
      </trkpt>
      <trkpt lat="42.58761475794017314910888671875" lon="20.0945612601935863494873046875">
        <ele>1988.800048828125</ele>
        <time>2026-06-15T09:38:47.000Z</time>
        <extensions>
          <ns3:TrackPointExtension>
            <ns3:atemp>19.0</ns3:atemp>
          </ns3:TrackPointExtension>
        </extensions>
      </trkpt>
      <trkpt lat="42.58762397803366184234619140625" lon="20.09452597238123416900634765625">
        <ele>1989</ele>
        <time>2026-06-15T09:38:48.000Z</time>
        <extensions>
          <ns3:TrackPointExtension>
            <ns3:atemp>19.0</ns3:atemp>
          </ns3:TrackPointExtension>
        </extensions>
      </trkpt>
      <trkpt lat="42.5876341201364994049072265625" lon="20.09448925964534282684326171875">
        <ele>1989.199951171875</ele>
        <time>2026-06-15T09:38:49.000Z</time>
        <extensions>
          <ns3:TrackPointExtension>
            <ns3:atemp>19.0</ns3:atemp>
          </ns3:TrackPointExtension>
        </extensions>
      </trkpt>
      <trkpt lat="42.587643004953861236572265625" lon="20.0944514572620391845703125">
        <ele>1989.4000244140625</ele>
        <time>2026-06-15T09:38:50.000Z</time>
        <extensions>
          <ns3:TrackPointExtension>
            <ns3:atemp>19.0</ns3:atemp>
          </ns3:TrackPointExtension>
        </extensions>
      </trkpt>
      <trkpt lat="42.5876545719802379608154296875" lon="20.094418935477733612060546875">
        <ele>1989.5999755859375</ele>
        <time>2026-06-15T09:38:51.000Z</time>
        <extensions>
          <ns3:TrackPointExtension>
            <ns3:atemp>19.0</ns3:atemp>
          </ns3:TrackPointExtension>
        </extensions>
      </trkpt>
      <trkpt lat="42.58767225779592990875244140625" lon="20.09438431821763515472412109375">
        <ele>1990</ele>
        <time>2026-06-15T09:38:52.000Z</time>
        <extensions>
          <ns3:TrackPointExtension>
            <ns3:atemp>19.0</ns3:atemp>
          </ns3:TrackPointExtension>
        </extensions>
      </trkpt>
      <trkpt lat="42.5876917876303195953369140625" lon="20.09434894658625125885009765625">
        <ele>1990</ele>
        <time>2026-06-15T09:38:53.000Z</time>
        <extensions>
          <ns3:TrackPointExtension>
            <ns3:atemp>19.0</ns3:atemp>
          </ns3:TrackPointExtension>
        </extensions>
      </trkpt>
      <trkpt lat="42.58771433494985103607177734375" lon="20.0943195261061191558837890625">
        <ele>1990.199951171875</ele>
        <time>2026-06-15T09:38:54.000Z</time>
        <extensions>
          <ns3:TrackPointExtension>
            <ns3:atemp>19.0</ns3:atemp>
          </ns3:TrackPointExtension>
        </extensions>
      </trkpt>
      <trkpt lat="42.58774115703999996185302734375" lon="20.09429664351046085357666015625">
        <ele>1990.199951171875</ele>
        <time>2026-06-15T09:38:55.000Z</time>
        <extensions>
          <ns3:TrackPointExtension>
            <ns3:atemp>19.0</ns3:atemp>
          </ns3:TrackPointExtension>
        </extensions>
      </trkpt>
      <trkpt lat="42.58776680566370487213134765625" lon="20.09427853859961032867431640625">
        <ele>1990.4000244140625</ele>
        <time>2026-06-15T09:38:56.000Z</time>
        <extensions>
          <ns3:TrackPointExtension>
            <ns3:atemp>19.0</ns3:atemp>
          </ns3:TrackPointExtension>
        </extensions>
      </trkpt>
      <trkpt lat="42.587795555591583251953125" lon="20.09426512755453586578369140625">
        <ele>1990.5999755859375</ele>
        <time>2026-06-15T09:38:57.000Z</time>
        <extensions>
          <ns3:TrackPointExtension>
            <ns3:atemp>19.0</ns3:atemp>
          </ns3:TrackPointExtension>
        </extensions>
      </trkpt>
      <trkpt lat="42.58782413788139820098876953125" lon="20.09425976313650608062744140625">
        <ele>1990.800048828125</ele>
        <time>2026-06-15T09:38:58.000Z</time>
        <extensions>
          <ns3:TrackPointExtension>
            <ns3:atemp>19.0</ns3:atemp>
          </ns3:TrackPointExtension>
        </extensions>
      </trkpt>
      <trkpt lat="42.5878520496189594268798828125" lon="20.094262696802616119384765625">
        <ele>1990.800048828125</ele>
        <time>2026-06-15T09:38:59.000Z</time>
        <extensions>
          <ns3:TrackPointExtension>
            <ns3:atemp>19.0</ns3:atemp>
          </ns3:TrackPointExtension>
        </extensions>
      </trkpt>
      <trkpt lat="42.58787929080426692962646484375" lon="20.09426143951714038848876953125">
        <ele>1990.800048828125</ele>
        <time>2026-06-15T09:39:00.000Z</time>
        <extensions>
          <ns3:TrackPointExtension>
            <ns3:atemp>19.0</ns3:atemp>
          </ns3:TrackPointExtension>
        </extensions>
      </trkpt>
      <trkpt lat="42.58790493942797183990478515625" lon="20.09425842203199863433837890625">
        <ele>1991</ele>
        <time>2026-06-15T09:39:01.000Z</time>
        <extensions>
          <ns3:TrackPointExtension>
            <ns3:atemp>19.0</ns3:atemp>
          </ns3:TrackPointExtension>
        </extensions>
      </trkpt>
      <trkpt lat="42.58793226443231105804443359375" lon="20.09426060132682323455810546875">
        <ele>1991</ele>
        <time>2026-06-15T09:39:02.000Z</time>
        <extensions>
          <ns3:TrackPointExtension>
            <ns3:atemp>19.0</ns3:atemp>
          </ns3:TrackPointExtension>
        </extensions>
      </trkpt>
      <trkpt lat="42.5879579968750476837158203125" lon="20.09426034986972808837890625">
        <ele>1991.199951171875</ele>
        <time>2026-06-15T09:39:03.000Z</time>
        <extensions>
          <ns3:TrackPointExtension>
            <ns3:atemp>19.0</ns3:atemp>
          </ns3:TrackPointExtension>
        </extensions>
      </trkpt>
      <trkpt lat="42.587983645498752593994140625" lon="20.0942598469555377960205078125">
        <ele>1991.199951171875</ele>
        <time>2026-06-15T09:39:04.000Z</time>
        <extensions>
          <ns3:TrackPointExtension>
            <ns3:atemp>19.0</ns3:atemp>
          </ns3:TrackPointExtension>
        </extensions>
      </trkpt>
      <trkpt lat="42.58801088668406009674072265625" lon="20.0942611880600452423095703125">
        <ele>1991.4000244140625</ele>
        <time>2026-06-15T09:39:05.000Z</time>
        <extensions>
          <ns3:TrackPointExtension>
            <ns3:atemp>19.0</ns3:atemp>
          </ns3:TrackPointExtension>
        </extensions>
      </trkpt>
      <trkpt lat="42.588039301335811614990234375" lon="20.09426194243133068084716796875">
        <ele>1991.4000244140625</ele>
        <time>2026-06-15T09:39:06.000Z</time>
        <extensions>
          <ns3:TrackPointExtension>
            <ns3:atemp>19.0</ns3:atemp>
          </ns3:TrackPointExtension>
        </extensions>
      </trkpt>
      <trkpt lat="42.58806369267404079437255859375" lon="20.09426278062164783477783203125">
        <ele>1991.5999755859375</ele>
        <time>2026-06-15T09:39:07.000Z</time>
        <extensions>
          <ns3:TrackPointExtension>
            <ns3:atemp>19.0</ns3:atemp>
          </ns3:TrackPointExtension>
        </extensions>
      </trkpt>
      <trkpt lat="42.58808515034615993499755859375" lon="20.09425825439393520355224609375">
        <ele>1991.800048828125</ele>
        <time>2026-06-15T09:39:08.000Z</time>
        <extensions>
          <ns3:TrackPointExtension>
            <ns3:atemp>19.0</ns3:atemp>
          </ns3:TrackPointExtension>
        </extensions>
      </trkpt>
      <trkpt lat="42.588107027113437652587890625" lon="20.09424802847206592559814453125">
        <ele>1992</ele>
        <time>2026-06-15T09:39:09.000Z</time>
        <extensions>
          <ns3:TrackPointExtension>
            <ns3:atemp>19.0</ns3:atemp>
          </ns3:TrackPointExtension>
        </extensions>
      </trkpt>
      <trkpt lat="42.58813175372779369354248046875" lon="20.094237886369228363037109375">
        <ele>1992.199951171875</ele>
        <time>2026-06-15T09:39:10.000Z</time>
        <extensions>
          <ns3:TrackPointExtension>
            <ns3:atemp>19.0</ns3:atemp>
          </ns3:TrackPointExtension>
        </extensions>
      </trkpt>
      <trkpt lat="42.58815924637019634246826171875" lon="20.09423277340829372406005859375">
        <ele>1992.4000244140625</ele>
        <time>2026-06-15T09:39:11.000Z</time>
        <extensions>
          <ns3:TrackPointExtension>
            <ns3:atemp>19.0</ns3:atemp>
          </ns3:TrackPointExtension>
        </extensions>
      </trkpt>
      <trkpt lat="42.58818523027002811431884765625" lon="20.0942259840667247772216796875">
        <ele>1992.4000244140625</ele>
        <time>2026-06-15T09:39:12.000Z</time>
        <extensions>
          <ns3:TrackPointExtension>
            <ns3:atemp>19.0</ns3:atemp>
          </ns3:TrackPointExtension>
        </extensions>
      </trkpt>
      <trkpt lat="42.5882114656269550323486328125" lon="20.0942206196486949920654296875">
        <ele>1992.5999755859375</ele>
        <time>2026-06-15T09:39:13.000Z</time>
        <extensions>
          <ns3:TrackPointExtension>
            <ns3:atemp>19.0</ns3:atemp>
          </ns3:TrackPointExtension>
        </extensions>
      </trkpt>
      <trkpt lat="42.58823686279356479644775390625" lon="20.094214417040348052978515625">
        <ele>1992.800048828125</ele>
        <time>2026-06-15T09:39:14.000Z</time>
        <extensions>
          <ns3:TrackPointExtension>
            <ns3:atemp>19.0</ns3:atemp>
          </ns3:TrackPointExtension>
        </extensions>
      </trkpt>
      <trkpt lat="42.58826234377920627593994140625" lon="20.09420829825103282928466796875">
        <ele>1992.800048828125</ele>
        <time>2026-06-15T09:39:15.000Z</time>
        <extensions>
          <ns3:TrackPointExtension>
            <ns3:atemp>19.0</ns3:atemp>
          </ns3:TrackPointExtension>
        </extensions>
      </trkpt>
      <trkpt lat="42.5882885791361331939697265625" lon="20.09420075453817844390869140625">
        <ele>1993</ele>
        <time>2026-06-15T09:39:16.000Z</time>
        <extensions>
          <ns3:TrackPointExtension>
            <ns3:atemp>19.0</ns3:atemp>
          </ns3:TrackPointExtension>
        </extensions>
      </trkpt>
      <trkpt lat="42.588310874998569488525390625" lon="20.09419471956789493560791015625">
        <ele>1993.199951171875</ele>
        <time>2026-06-15T09:39:17.000Z</time>
        <extensions>
          <ns3:TrackPointExtension>
            <ns3:atemp>19.0</ns3:atemp>
          </ns3:TrackPointExtension>
        </extensions>
      </trkpt>
      <trkpt lat="42.5883333384990692138671875" lon="20.09418600238859653472900390625">
        <ele>1993.4000244140625</ele>
        <time>2026-06-15T09:39:18.000Z</time>
        <extensions>
          <ns3:TrackPointExtension>
            <ns3:atemp>19.0</ns3:atemp>
          </ns3:TrackPointExtension>
        </extensions>
      </trkpt>
      <trkpt lat="42.588358819484710693359375" lon="20.09417762048542499542236328125">
        <ele>1993.5999755859375</ele>
        <time>2026-06-15T09:39:19.000Z</time>
        <extensions>
          <ns3:TrackPointExtension>
            <ns3:atemp>19.0</ns3:atemp>
          </ns3:TrackPointExtension>
        </extensions>
      </trkpt>
      <trkpt lat="42.5883861444890499114990234375" lon="20.09417057968676090240478515625">
        <ele>1994</ele>
        <time>2026-06-15T09:39:20.000Z</time>
        <extensions>
          <ns3:TrackPointExtension>
            <ns3:atemp>19.0</ns3:atemp>
          </ns3:TrackPointExtension>
        </extensions>
      </trkpt>
      <trkpt lat="42.58841321803629398345947265625" lon="20.09416756220161914825439453125">
        <ele>1994.199951171875</ele>
        <time>2026-06-15T09:39:21.000Z</time>
        <extensions>
          <ns3:TrackPointExtension>
            <ns3:atemp>19.0</ns3:atemp>
          </ns3:TrackPointExtension>
        </extensions>
      </trkpt>
      <trkpt lat="42.58844004012644290924072265625" lon="20.0941652990877628326416015625">
        <ele>1994.4000244140625</ele>
        <time>2026-06-15T09:39:22.000Z</time>
        <extensions>
          <ns3:TrackPointExtension>
            <ns3:atemp>19.0</ns3:atemp>
          </ns3:TrackPointExtension>
        </extensions>
      </trkpt>
      <trkpt lat="42.58846652694046497344970703125" lon="20.09417175315320491790771484375">
        <ele>1994.5999755859375</ele>
        <time>2026-06-15T09:39:23.000Z</time>
        <extensions>
          <ns3:TrackPointExtension>
            <ns3:atemp>19.0</ns3:atemp>
          </ns3:TrackPointExtension>
        </extensions>
      </trkpt>
      <trkpt lat="42.5884915888309478759765625" lon="20.09417996741831302642822265625">
        <ele>1994.5999755859375</ele>
        <time>2026-06-15T09:39:24.000Z</time>
        <extensions>
          <ns3:TrackPointExtension>
            <ns3:atemp>19.0</ns3:atemp>
          </ns3:TrackPointExtension>
        </extensions>
      </trkpt>
      <trkpt lat="42.588517405092716217041015625" lon="20.0941917859017848968505859375">
        <ele>1995</ele>
        <time>2026-06-15T09:39:25.000Z</time>
        <extensions>
          <ns3:TrackPointExtension>
            <ns3:atemp>19.0</ns3:atemp>
          </ns3:TrackPointExtension>
        </extensions>
      </trkpt>
      <trkpt lat="42.58854162879288196563720703125" lon="20.09419865906238555908203125">
        <ele>1995.199951171875</ele>
        <time>2026-06-15T09:39:26.000Z</time>
        <extensions>
          <ns3:TrackPointExtension>
            <ns3:atemp>19.0</ns3:atemp>
          </ns3:TrackPointExtension>
        </extensions>
      </trkpt>
      <trkpt lat="42.58856710977852344512939453125" lon="20.09420712478458881378173828125">
        <ele>1995.4000244140625</ele>
        <time>2026-06-15T09:39:27.000Z</time>
        <extensions>
          <ns3:TrackPointExtension>
            <ns3:atemp>19.0</ns3:atemp>
          </ns3:TrackPointExtension>
        </extensions>
      </trkpt>
      <trkpt lat="42.58859057910740375518798828125" lon="20.0942194461822509765625">
        <ele>1995.5999755859375</ele>
        <time>2026-06-15T09:39:28.000Z</time>
        <extensions>
          <ns3:TrackPointExtension>
            <ns3:atemp>19.0</ns3:atemp>
          </ns3:TrackPointExtension>
        </extensions>
      </trkpt>
      <trkpt lat="42.58861337788403034210205078125" lon="20.094232857227325439453125">
        <ele>1995.800048828125</ele>
        <time>2026-06-15T09:39:29.000Z</time>
        <extensions>
          <ns3:TrackPointExtension>
            <ns3:atemp>19.0</ns3:atemp>
          </ns3:TrackPointExtension>
        </extensions>
      </trkpt>
      <trkpt lat="42.5886391103267669677734375" lon="20.09424031712114810943603515625">
        <ele>1996</ele>
        <time>2026-06-15T09:39:30.000Z</time>
        <extensions>
          <ns3:TrackPointExtension>
            <ns3:atemp>19.0</ns3:atemp>
          </ns3:TrackPointExtension>
        </extensions>
      </trkpt>
      <trkpt lat="42.58866551332175731658935546875" lon="20.09424936957657337188720703125">
        <ele>1996.4000244140625</ele>
        <time>2026-06-15T09:39:31.000Z</time>
        <extensions>
          <ns3:TrackPointExtension>
            <ns3:atemp>19.0</ns3:atemp>
          </ns3:TrackPointExtension>
        </extensions>
      </trkpt>
      <trkpt lat="42.58868806064128875732421875" lon="20.09426303207874298095703125">
        <ele>1996.5999755859375</ele>
        <time>2026-06-15T09:39:32.000Z</time>
        <extensions>
          <ns3:TrackPointExtension>
            <ns3:atemp>19.0</ns3:atemp>
          </ns3:TrackPointExtension>
        </extensions>
      </trkpt>
      <trkpt lat="42.5887080095708370208740234375" lon="20.09427870623767375946044921875">
        <ele>1997</ele>
        <time>2026-06-15T09:39:33.000Z</time>
        <extensions>
          <ns3:TrackPointExtension>
            <ns3:atemp>19.0</ns3:atemp>
          </ns3:TrackPointExtension>
        </extensions>
      </trkpt>
      <trkpt lat="42.58873156271874904632568359375" lon="20.09428893215954303741455078125">
        <ele>1997.199951171875</ele>
        <time>2026-06-15T09:39:34.000Z</time>
        <extensions>
          <ns3:TrackPointExtension>
            <ns3:atemp>19.0</ns3:atemp>
          </ns3:TrackPointExtension>
        </extensions>
      </trkpt>
      <trkpt lat="42.58875754661858081817626953125" lon="20.094297230243682861328125">
        <ele>1997.5999755859375</ele>
        <time>2026-06-15T09:39:35.000Z</time>
        <extensions>
          <ns3:TrackPointExtension>
            <ns3:atemp>19.0</ns3:atemp>
          </ns3:TrackPointExtension>
        </extensions>
      </trkpt>
      <trkpt lat="42.58878319524228572845458984375" lon="20.09430728852748870849609375">
        <ele>1997.800048828125</ele>
        <time>2026-06-15T09:39:36.000Z</time>
        <extensions>
          <ns3:TrackPointExtension>
            <ns3:atemp>19.0</ns3:atemp>
          </ns3:TrackPointExtension>
        </extensions>
      </trkpt>
      <trkpt lat="42.5888106040656566619873046875" lon="20.09432011283934116363525390625">
        <ele>1998</ele>
        <time>2026-06-15T09:39:37.000Z</time>
        <extensions>
          <ns3:TrackPointExtension>
            <ns3:atemp>19.0</ns3:atemp>
          </ns3:TrackPointExtension>
        </extensions>
      </trkpt>
      <trkpt lat="42.5888367556035518646240234375" lon="20.09432514198124408721923828125">
        <ele>1998.4000244140625</ele>
        <time>2026-06-15T09:39:38.000Z</time>
        <extensions>
          <ns3:TrackPointExtension>
            <ns3:atemp>19.0</ns3:atemp>
          </ns3:TrackPointExtension>
        </extensions>
      </trkpt>
      <trkpt lat="42.5888639129698276519775390625" lon="20.09433084167540073394775390625">
        <ele>1998.5999755859375</ele>
        <time>2026-06-15T09:39:39.000Z</time>
        <extensions>
          <ns3:TrackPointExtension>
            <ns3:atemp>19.0</ns3:atemp>
          </ns3:TrackPointExtension>
        </extensions>
      </trkpt>
      <trkpt lat="42.58888931013643741607666015625" lon="20.094340145587921142578125">
        <ele>1998.800048828125</ele>
        <time>2026-06-15T09:39:40.000Z</time>
        <extensions>
          <ns3:TrackPointExtension>
            <ns3:atemp>19.0</ns3:atemp>
          </ns3:TrackPointExtension>
        </extensions>
      </trkpt>
      <trkpt lat="42.58891428820788860321044921875" lon="20.0943441689014434814453125">
        <ele>1999</ele>
        <time>2026-06-15T09:39:41.000Z</time>
        <extensions>
          <ns3:TrackPointExtension>
            <ns3:atemp>19.0</ns3:atemp>
          </ns3:TrackPointExtension>
        </extensions>
      </trkpt>
      <trkpt lat="42.58894060738384723663330078125" lon="20.09434894658625125885009765625">
        <ele>1999.199951171875</ele>
        <time>2026-06-15T09:39:42.000Z</time>
        <extensions>
          <ns3:TrackPointExtension>
            <ns3:atemp>19.0</ns3:atemp>
          </ns3:TrackPointExtension>
        </extensions>
      </trkpt>
      <trkpt lat="42.5889655016362667083740234375" lon="20.09435531683266162872314453125">
        <ele>1999.4000244140625</ele>
        <time>2026-06-15T09:39:43.000Z</time>
        <extensions>
          <ns3:TrackPointExtension>
            <ns3:atemp>19.0</ns3:atemp>
          </ns3:TrackPointExtension>
        </extensions>
      </trkpt>
      <trkpt lat="42.58899022825062274932861328125" lon="20.09435799904167652130126953125">
        <ele>1999.5999755859375</ele>
        <time>2026-06-15T09:39:44.000Z</time>
        <extensions>
          <ns3:TrackPointExtension>
            <ns3:atemp>19.0</ns3:atemp>
          </ns3:TrackPointExtension>
        </extensions>
      </trkpt>
      <trkpt lat="42.5890164636075496673583984375" lon="20.0943577475845813751220703125">
        <ele>2000</ele>
        <time>2026-06-15T09:39:45.000Z</time>
        <extensions>
          <ns3:TrackPointExtension>
            <ns3:atemp>19.0</ns3:atemp>
          </ns3:TrackPointExtension>
        </extensions>
      </trkpt>
      <trkpt lat="42.5890409387648105621337890625" lon="20.094358585774898529052734375">
        <ele>2000</ele>
        <time>2026-06-15T09:39:46.000Z</time>
        <extensions>
          <ns3:TrackPointExtension>
            <ns3:atemp>19.0</ns3:atemp>
          </ns3:TrackPointExtension>
        </extensions>
      </trkpt>
      <trkpt lat="42.58906516246497631072998046875" lon="20.09436093270778656005859375">
        <ele>2000.199951171875</ele>
        <time>2026-06-15T09:39:47.000Z</time>
        <extensions>
          <ns3:TrackPointExtension>
            <ns3:atemp>19.0</ns3:atemp>
          </ns3:TrackPointExtension>
        </extensions>
      </trkpt>
      <trkpt lat="42.5890885479748249053955078125" lon="20.09436361491680145263671875">
        <ele>2000.4000244140625</ele>
        <time>2026-06-15T09:39:48.000Z</time>
        <extensions>
          <ns3:TrackPointExtension>
            <ns3:atemp>19.0</ns3:atemp>
          </ns3:TrackPointExtension>
        </extensions>
      </trkpt>
      <trkpt lat="42.58910975418984889984130859375" lon="20.09436420165002346038818359375">
        <ele>2000.5999755859375</ele>
        <time>2026-06-15T09:39:49.000Z</time>
        <extensions>
          <ns3:TrackPointExtension>
            <ns3:atemp>19.0</ns3:atemp>
          </ns3:TrackPointExtension>
        </extensions>
      </trkpt>
      <trkpt lat="42.5891321338713169097900390625" lon="20.09436495602130889892578125">
        <ele>2000.800048828125</ele>
        <time>2026-06-15T09:39:50.000Z</time>
        <extensions>
          <ns3:TrackPointExtension>
            <ns3:atemp>19.0</ns3:atemp>
          </ns3:TrackPointExtension>
        </extensions>
      </trkpt>
      <trkpt lat="42.58915434591472148895263671875" lon="20.09436168707907199859619140625">
        <ele>2001</ele>
        <time>2026-06-15T09:39:51.000Z</time>
        <extensions>
          <ns3:TrackPointExtension>
            <ns3:atemp>19.0</ns3:atemp>
          </ns3:TrackPointExtension>
        </extensions>
      </trkpt>
      <trkpt lat="42.58917479775846004486083984375" lon="20.0943564064800739288330078125">
        <ele>2001.199951171875</ele>
        <time>2026-06-15T09:39:52.000Z</time>
        <extensions>
          <ns3:TrackPointExtension>
            <ns3:atemp>19.0</ns3:atemp>
          </ns3:TrackPointExtension>
        </extensions>
      </trkpt>
      <trkpt lat="42.5891898013651371002197265625" lon="20.09434207342565059661865234375">
        <ele>2001.199951171875</ele>
        <time>2026-06-15T09:39:53.000Z</time>
        <extensions>
          <ns3:TrackPointExtension>
            <ns3:atemp>19.0</ns3:atemp>
          </ns3:TrackPointExtension>
        </extensions>
      </trkpt>
      <trkpt lat="42.58919960819184780120849609375" lon="20.09431994520127773284912109375">
        <ele>2001.4000244140625</ele>
        <time>2026-06-15T09:39:54.000Z</time>
        <extensions>
          <ns3:TrackPointExtension>
            <ns3:atemp>19.0</ns3:atemp>
          </ns3:TrackPointExtension>
        </extensions>
      </trkpt>
      <trkpt lat="42.58920438587665557861328125" lon="20.09429060854017734527587890625">
        <ele>2001.4000244140625</ele>
        <time>2026-06-15T09:39:55.000Z</time>
        <extensions>
          <ns3:TrackPointExtension>
            <ns3:atemp>19.0</ns3:atemp>
          </ns3:TrackPointExtension>
        </extensions>
      </trkpt>
      <trkpt lat="42.58919843472540378570556640625" lon="20.0942610204219818115234375">
        <ele>2001.5999755859375</ele>
        <time>2026-06-15T09:39:56.000Z</time>
        <extensions>
          <ns3:TrackPointExtension>
            <ns3:atemp>19.0</ns3:atemp>
          </ns3:TrackPointExtension>
        </extensions>
      </trkpt>
      <trkpt lat="42.589179910719394683837890625" lon="20.09424534626305103302001953125">
        <ele>2001.5999755859375</ele>
        <time>2026-06-15T09:39:57.000Z</time>
        <extensions>
          <ns3:TrackPointExtension>
            <ns3:atemp>19.0</ns3:atemp>
          </ns3:TrackPointExtension>
        </extensions>
      </trkpt>
      <trkpt lat="42.58915652520954608917236328125" lon="20.0942363776266574859619140625">
        <ele>2001.800048828125</ele>
        <time>2026-06-15T09:39:58.000Z</time>
        <extensions>
          <ns3:TrackPointExtension>
            <ns3:atemp>19.0</ns3:atemp>
          </ns3:TrackPointExtension>
        </extensions>
      </trkpt>
      <trkpt lat="42.58913473226130008697509765625" lon="20.09423344396054744720458984375">
        <ele>2002</ele>
        <time>2026-06-15T09:39:59.000Z</time>
        <extensions>
          <ns3:TrackPointExtension>
            <ns3:atemp>19.0</ns3:atemp>
          </ns3:TrackPointExtension>
        </extensions>
      </trkpt>
      <trkpt lat="42.58911243639886379241943359375" lon="20.0942313484847545623779296875">
        <ele>2002.4000244140625</ele>
        <time>2026-06-15T09:40:00.000Z</time>
        <extensions>
          <ns3:TrackPointExtension>
            <ns3:atemp>19.0</ns3:atemp>
          </ns3:TrackPointExtension>
        </extensions>
      </trkpt>
      <trkpt lat="42.58909148164093494415283203125" lon="20.094223804771900177001953125">
        <ele>2002.800048828125</ele>
        <time>2026-06-15T09:40:01.000Z</time>
        <extensions>
          <ns3:TrackPointExtension>
            <ns3:atemp>19.0</ns3:atemp>
          </ns3:TrackPointExtension>
        </extensions>
      </trkpt>
      <trkpt lat="42.5890701077878475189208984375" lon="20.09421852417290210723876953125">
        <ele>2003</ele>
        <time>2026-06-15T09:40:02.000Z</time>
        <extensions>
          <ns3:TrackPointExtension>
            <ns3:atemp>19.0</ns3:atemp>
          </ns3:TrackPointExtension>
        </extensions>
      </trkpt>
      <trkpt lat="42.58904672227799892425537109375" lon="20.0942135788500308990478515625">
        <ele>2003.4000244140625</ele>
        <time>2026-06-15T09:40:03.000Z</time>
        <extensions>
          <ns3:TrackPointExtension>
            <ns3:atemp>19.0</ns3:atemp>
          </ns3:TrackPointExtension>
        </extensions>
      </trkpt>
      <trkpt lat="42.58902543224394321441650390625" lon="20.09420829825103282928466796875">
        <ele>2003.5999755859375</ele>
        <time>2026-06-15T09:40:04.000Z</time>
        <extensions>
          <ns3:TrackPointExtension>
            <ns3:atemp>19.0</ns3:atemp>
          </ns3:TrackPointExtension>
        </extensions>
      </trkpt>
      <trkpt lat="42.5890065729618072509765625" lon="20.09419924579560756683349609375">
        <ele>2004</ele>
        <time>2026-06-15T09:40:05.000Z</time>
        <extensions>
          <ns3:TrackPointExtension>
            <ns3:atemp>19.0</ns3:atemp>
          </ns3:TrackPointExtension>
        </extensions>
      </trkpt>
      <trkpt lat="42.58898603729903697967529296875" lon="20.09419036097824573516845703125">
        <ele>2004.4000244140625</ele>
        <time>2026-06-15T09:40:06.000Z</time>
        <extensions>
          <ns3:TrackPointExtension>
            <ns3:atemp>19.0</ns3:atemp>
          </ns3:TrackPointExtension>
        </extensions>
      </trkpt>
      <trkpt lat="42.58896558545529842376708984375" lon="20.09417795576155185699462890625">
        <ele>2004.5999755859375</ele>
        <time>2026-06-15T09:40:07.000Z</time>
        <extensions>
          <ns3:TrackPointExtension>
            <ns3:atemp>19.0</ns3:atemp>
          </ns3:TrackPointExtension>
        </extensions>
      </trkpt>
      <trkpt lat="42.58894689381122589111328125" lon="20.094160102307796478271484375">
        <ele>2005</ele>
        <time>2026-06-15T09:40:08.000Z</time>
        <extensions>
          <ns3:TrackPointExtension>
            <ns3:atemp>19.0</ns3:atemp>
          </ns3:TrackPointExtension>
        </extensions>
      </trkpt>
      <trkpt lat="42.58892501704394817352294921875" lon="20.09414367377758026123046875">
        <ele>2005.199951171875</ele>
        <time>2026-06-15T09:40:09.000Z</time>
        <extensions>
          <ns3:TrackPointExtension>
            <ns3:atemp>19.0</ns3:atemp>
          </ns3:TrackPointExtension>
        </extensions>
      </trkpt>
      <trkpt lat="42.58889970369637012481689453125" lon="20.09412816725671291351318359375">
        <ele>2005.4000244140625</ele>
        <time>2026-06-15T09:40:10.000Z</time>
        <extensions>
          <ns3:TrackPointExtension>
            <ns3:atemp>19.0</ns3:atemp>
          </ns3:TrackPointExtension>
        </extensions>
      </trkpt>
      <trkpt lat="42.58888117969036102294921875" lon="20.0941109843552112579345703125">
        <ele>2005.5999755859375</ele>
        <time>2026-06-15T09:40:11.000Z</time>
        <extensions>
          <ns3:TrackPointExtension>
            <ns3:atemp>19.0</ns3:atemp>
          </ns3:TrackPointExtension>
        </extensions>
      </trkpt>
      <trkpt lat="42.58886181749403476715087890625" lon="20.09409673511981964111328125">
        <ele>2005.800048828125</ele>
        <time>2026-06-15T09:40:12.000Z</time>
        <extensions>
          <ns3:TrackPointExtension>
            <ns3:atemp>19.0</ns3:atemp>
          </ns3:TrackPointExtension>
        </extensions>
      </trkpt>
      <trkpt lat="42.58884287439286708831787109375" lon="20.0940813124179840087890625">
        <ele>2006.199951171875</ele>
        <time>2026-06-15T09:40:13.000Z</time>
        <extensions>
          <ns3:TrackPointExtension>
            <ns3:atemp>19.0</ns3:atemp>
          </ns3:TrackPointExtension>
        </extensions>
      </trkpt>
      <trkpt lat="42.58882217109203338623046875" lon="20.09406195022165775299072265625">
        <ele>2006.4000244140625</ele>
        <time>2026-06-15T09:40:14.000Z</time>
        <extensions>
          <ns3:TrackPointExtension>
            <ns3:atemp>19.0</ns3:atemp>
          </ns3:TrackPointExtension>
        </extensions>
      </trkpt>
      <trkpt lat="42.58880146779119968414306640625" lon="20.09403772652149200439453125">
        <ele>2006.800048828125</ele>
        <time>2026-06-15T09:40:15.000Z</time>
        <extensions>
          <ns3:TrackPointExtension>
            <ns3:atemp>19.0</ns3:atemp>
          </ns3:TrackPointExtension>
        </extensions>
      </trkpt>
      <trkpt lat="42.5887797586619853973388671875" lon="20.09401249699294567108154296875">
        <ele>2007.199951171875</ele>
        <time>2026-06-15T09:40:16.000Z</time>
        <extensions>
          <ns3:TrackPointExtension>
            <ns3:atemp>19.0</ns3:atemp>
          </ns3:TrackPointExtension>
        </extensions>
      </trkpt>
      <trkpt lat="42.5887576304376125335693359375" lon="20.0939879380166530609130859375">
        <ele>2007.4000244140625</ele>
        <time>2026-06-15T09:40:17.000Z</time>
        <extensions>
          <ns3:TrackPointExtension>
            <ns3:atemp>19.0</ns3:atemp>
          </ns3:TrackPointExtension>
        </extensions>
      </trkpt>
      <trkpt lat="42.5887324847280979156494140625" lon="20.09396555833518505096435546875">
        <ele>2008</ele>
        <time>2026-06-15T09:40:18.000Z</time>
        <extensions>
          <ns3:TrackPointExtension>
            <ns3:atemp>19.0</ns3:atemp>
          </ns3:TrackPointExtension>
        </extensions>
      </trkpt>
      <trkpt lat="42.588705159723758697509765625" lon="20.0939440168440341949462890625">
        <ele>2008.199951171875</ele>
        <time>2026-06-15T09:40:19.000Z</time>
        <extensions>
          <ns3:TrackPointExtension>
            <ns3:atemp>19.0</ns3:atemp>
          </ns3:TrackPointExtension>
        </extensions>
      </trkpt>
      <trkpt lat="42.5886811874806880950927734375" lon="20.09391970932483673095703125">
        <ele>2008.5999755859375</ele>
        <time>2026-06-15T09:40:20.000Z</time>
        <extensions>
          <ns3:TrackPointExtension>
            <ns3:atemp>19.0</ns3:atemp>
          </ns3:TrackPointExtension>
        </extensions>
      </trkpt>
      <trkpt lat="42.58865729905664920806884765625" lon="20.09389816783368587493896484375">
        <ele>2008.800048828125</ele>
        <time>2026-06-15T09:40:21.000Z</time>
        <extensions>
          <ns3:TrackPointExtension>
            <ns3:atemp>19.0</ns3:atemp>
          </ns3:TrackPointExtension>
        </extensions>
      </trkpt>
      <trkpt lat="42.5886339135468006134033203125" lon="20.093875788152217864990234375">
        <ele>2009.199951171875</ele>
        <time>2026-06-15T09:40:22.000Z</time>
        <extensions>
          <ns3:TrackPointExtension>
            <ns3:atemp>19.0</ns3:atemp>
          </ns3:TrackPointExtension>
        </extensions>
      </trkpt>
      <trkpt lat="42.58861371316015720367431640625" lon="20.09384720586240291595458984375">
        <ele>2009.4000244140625</ele>
        <time>2026-06-15T09:40:23.000Z</time>
        <extensions>
          <ns3:TrackPointExtension>
            <ns3:atemp>19.0</ns3:atemp>
          </ns3:TrackPointExtension>
        </extensions>
      </trkpt>
      <trkpt lat="42.5885961949825286865234375" lon="20.09382507763803005218505859375">
        <ele>2009.5999755859375</ele>
        <time>2026-06-15T09:40:24.000Z</time>
        <extensions>
          <ns3:TrackPointExtension>
            <ns3:atemp>19.0</ns3:atemp>
          </ns3:TrackPointExtension>
        </extensions>
      </trkpt>
      <trkpt lat="42.58857616223394870758056640625" lon="20.09380831383168697357177734375">
        <ele>2010</ele>
        <time>2026-06-15T09:40:25.000Z</time>
        <extensions>
          <ns3:TrackPointExtension>
            <ns3:atemp>19.0</ns3:atemp>
          </ns3:TrackPointExtension>
        </extensions>
      </trkpt>
      <trkpt lat="42.58855336345732212066650390625" lon="20.09379121474921703338623046875">
        <ele>2010</ele>
        <time>2026-06-15T09:40:26.000Z</time>
        <extensions>
          <ns3:TrackPointExtension>
            <ns3:atemp>19.0</ns3:atemp>
          </ns3:TrackPointExtension>
        </extensions>
      </trkpt>
      <trkpt lat="42.58852536790072917938232421875" lon="20.093776546418666839599609375">
        <ele>2010.199951171875</ele>
        <time>2026-06-15T09:40:27.000Z</time>
        <extensions>
          <ns3:TrackPointExtension>
            <ns3:atemp>19.0</ns3:atemp>
          </ns3:TrackPointExtension>
        </extensions>
      </trkpt>
      <trkpt lat="42.588498294353485107421875" lon="20.09376439265906810760498046875">
        <ele>2010.4000244140625</ele>
        <time>2026-06-15T09:40:28.000Z</time>
        <extensions>
          <ns3:TrackPointExtension>
            <ns3:atemp>19.0</ns3:atemp>
          </ns3:TrackPointExtension>
        </extensions>
      </trkpt>
      <trkpt lat="42.5884702987968921661376953125" lon="20.0937485508620738983154296875">
        <ele>2010.800048828125</ele>
        <time>2026-06-15T09:40:29.000Z</time>
        <extensions>
          <ns3:TrackPointExtension>
            <ns3:atemp>19.0</ns3:atemp>
          </ns3:TrackPointExtension>
        </extensions>
      </trkpt>
      <trkpt lat="42.5884421356022357940673828125" lon="20.09373488835990428924560546875">
        <ele>2011</ele>
        <time>2026-06-15T09:40:30.000Z</time>
        <extensions>
          <ns3:TrackPointExtension>
            <ns3:atemp>19.0</ns3:atemp>
          </ns3:TrackPointExtension>
        </extensions>
      </trkpt>
      <trkpt lat="42.58841388858854770660400390625" lon="20.0937247462570667266845703125">
        <ele>2011.199951171875</ele>
        <time>2026-06-15T09:40:31.000Z</time>
        <extensions>
          <ns3:TrackPointExtension>
            <ns3:atemp>19.0</ns3:atemp>
          </ns3:TrackPointExtension>
        </extensions>
      </trkpt>
      <trkpt lat="42.58838740177452564239501953125" lon="20.0937180407345294952392578125">
        <ele>2011.4000244140625</ele>
        <time>2026-06-15T09:40:32.000Z</time>
        <extensions>
          <ns3:TrackPointExtension>
            <ns3:atemp>19.0</ns3:atemp>
          </ns3:TrackPointExtension>
        </extensions>
      </trkpt>
      <trkpt lat="42.58836217224597930908203125" lon="20.09371452033519744873046875">
        <ele>2011.800048828125</ele>
        <time>2026-06-15T09:40:33.000Z</time>
        <extensions>
          <ns3:TrackPointExtension>
            <ns3:atemp>19.0</ns3:atemp>
          </ns3:TrackPointExtension>
        </extensions>
      </trkpt>
      <trkpt lat="42.588342390954494476318359375" lon="20.09370689280331134796142578125">
        <ele>2012</ele>
        <time>2026-06-15T09:40:34.000Z</time>
        <extensions>
          <ns3:TrackPointExtension>
            <ns3:atemp>19.0</ns3:atemp>
          </ns3:TrackPointExtension>
        </extensions>
      </trkpt>
      <trkpt lat="42.58831523358821868896484375" lon="20.0936996005475521087646484375">
        <ele>2012.199951171875</ele>
        <time>2026-06-15T09:40:35.000Z</time>
        <extensions>
          <ns3:TrackPointExtension>
            <ns3:atemp>19.0</ns3:atemp>
          </ns3:TrackPointExtension>
        </extensions>
      </trkpt>
      <trkpt lat="42.588289417326450347900390625" lon="20.09369532577693462371826171875">
        <ele>2012.5999755859375</ele>
        <time>2026-06-15T09:40:36.000Z</time>
        <extensions>
          <ns3:TrackPointExtension>
            <ns3:atemp>19.0</ns3:atemp>
          </ns3:TrackPointExtension>
        </extensions>
      </trkpt>
      <trkpt lat="42.588259913027286529541015625" lon="20.09369297884404659271240234375">
        <ele>2012.800048828125</ele>
        <time>2026-06-15T09:40:37.000Z</time>
        <extensions>
          <ns3:TrackPointExtension>
            <ns3:atemp>19.0</ns3:atemp>
          </ns3:TrackPointExtension>
        </extensions>
      </trkpt>
      <trkpt lat="42.588230073451995849609375" lon="20.0936895422637462615966796875">
        <ele>2013</ele>
        <time>2026-06-15T09:40:38.000Z</time>
        <extensions>
          <ns3:TrackPointExtension>
            <ns3:atemp>19.0</ns3:atemp>
          </ns3:TrackPointExtension>
        </extensions>
      </trkpt>
      <trkpt lat="42.58819947950541973114013671875" lon="20.093685351312160491943359375">
        <ele>2013.199951171875</ele>
        <time>2026-06-15T09:40:39.000Z</time>
        <extensions>
          <ns3:TrackPointExtension>
            <ns3:atemp>19.0</ns3:atemp>
          </ns3:TrackPointExtension>
        </extensions>
      </trkpt>
      <trkpt lat="42.58816771209239959716796875" lon="20.093679986894130706787109375">
        <ele>2013.5999755859375</ele>
        <time>2026-06-15T09:40:40.000Z</time>
        <extensions>
          <ns3:TrackPointExtension>
            <ns3:atemp>19.0</ns3:atemp>
          </ns3:TrackPointExtension>
        </extensions>
      </trkpt>
      <trkpt lat="42.5881320051848888397216796875" lon="20.09367269463837146759033203125">
        <ele>2013.800048828125</ele>
        <time>2026-06-15T09:40:41.000Z</time>
        <extensions>
          <ns3:TrackPointExtension>
            <ns3:atemp>19.0</ns3:atemp>
          </ns3:TrackPointExtension>
        </extensions>
      </trkpt>
      <trkpt lat="42.58809621445834636688232421875" lon="20.09366347454488277435302734375">
        <ele>2014.4000244140625</ele>
        <time>2026-06-15T09:40:42.000Z</time>
        <extensions>
          <ns3:TrackPointExtension>
            <ns3:atemp>19.0</ns3:atemp>
          </ns3:TrackPointExtension>
        </extensions>
      </trkpt>
      <trkpt lat="42.58805816061794757843017578125" lon="20.09365643374621868133544921875">
        <ele>2014.5999755859375</ele>
        <time>2026-06-15T09:40:43.000Z</time>
        <extensions>
          <ns3:TrackPointExtension>
            <ns3:atemp>19.0</ns3:atemp>
          </ns3:TrackPointExtension>
        </extensions>
      </trkpt>
      <trkpt lat="42.588021866977214813232421875" lon="20.09364536963403224945068359375">
        <ele>2014.800048828125</ele>
        <time>2026-06-15T09:40:44.000Z</time>
        <extensions>
          <ns3:TrackPointExtension>
            <ns3:atemp>19.0</ns3:atemp>
          </ns3:TrackPointExtension>
        </extensions>
      </trkpt>
      <trkpt lat="42.5879861600697040557861328125" lon="20.0936372391879558563232421875">
        <ele>2015.199951171875</ele>
        <time>2026-06-15T09:40:45.000Z</time>
        <extensions>
          <ns3:TrackPointExtension>
            <ns3:atemp>19.0</ns3:atemp>
          </ns3:TrackPointExtension>
        </extensions>
      </trkpt>
      <trkpt lat="42.587951123714447021484375" lon="20.09362776763737201690673828125">
        <ele>2015.4000244140625</ele>
        <time>2026-06-15T09:40:46.000Z</time>
        <extensions>
          <ns3:TrackPointExtension>
            <ns3:atemp>19.0</ns3:atemp>
          </ns3:TrackPointExtension>
        </extensions>
      </trkpt>
      <trkpt lat="42.5879174284636974334716796875" lon="20.09361770935356616973876953125">
        <ele>2016</ele>
        <time>2026-06-15T09:40:47.000Z</time>
        <extensions>
          <ns3:TrackPointExtension>
            <ns3:atemp>19.0</ns3:atemp>
          </ns3:TrackPointExtension>
        </extensions>
      </trkpt>
      <trkpt lat="42.587886750698089599609375" lon="20.0936070643365383148193359375">
        <ele>2016.4000244140625</ele>
        <time>2026-06-15T09:40:48.000Z</time>
        <extensions>
          <ns3:TrackPointExtension>
            <ns3:atemp>19.0</ns3:atemp>
          </ns3:TrackPointExtension>
        </extensions>
      </trkpt>
      <trkpt lat="42.58785816840827465057373046875" lon="20.09359918534755706787109375">
        <ele>2016.800048828125</ele>
        <time>2026-06-15T09:40:49.000Z</time>
        <extensions>
          <ns3:TrackPointExtension>
            <ns3:atemp>19.0</ns3:atemp>
          </ns3:TrackPointExtension>
        </extensions>
      </trkpt>
      <trkpt lat="42.587830089032649993896484375" lon="20.09358770214021205902099609375">
        <ele>2017.199951171875</ele>
        <time>2026-06-15T09:40:50.000Z</time>
        <extensions>
          <ns3:TrackPointExtension>
            <ns3:atemp>19.0</ns3:atemp>
          </ns3:TrackPointExtension>
        </extensions>
      </trkpt>
      <trkpt lat="42.587799914181232452392578125" lon="20.093578398227691650390625">
        <ele>2017.4000244140625</ele>
        <time>2026-06-15T09:40:51.000Z</time>
        <extensions>
          <ns3:TrackPointExtension>
            <ns3:atemp>19.0</ns3:atemp>
          </ns3:TrackPointExtension>
        </extensions>
      </trkpt>
      <trkpt lat="42.58776663802564144134521484375" lon="20.093572698533535003662109375">
        <ele>2017.5999755859375</ele>
        <time>2026-06-15T09:40:52.000Z</time>
        <extensions>
          <ns3:TrackPointExtension>
            <ns3:atemp>19.0</ns3:atemp>
          </ns3:TrackPointExtension>
        </extensions>
      </trkpt>
      <trkpt lat="42.58773461915552616119384765625" lon="20.09356976486742496490478515625">
        <ele>2018</ele>
        <time>2026-06-15T09:40:53.000Z</time>
        <extensions>
          <ns3:TrackPointExtension>
            <ns3:atemp>19.0</ns3:atemp>
          </ns3:TrackPointExtension>
        </extensions>
      </trkpt>
      <trkpt lat="42.5877035222947597503662109375" lon="20.09357227943837642669677734375">
        <ele>2018.4000244140625</ele>
        <time>2026-06-15T09:40:54.000Z</time>
        <extensions>
          <ns3:TrackPointExtension>
            <ns3:atemp>19.0</ns3:atemp>
          </ns3:TrackPointExtension>
        </extensions>
      </trkpt>
      <trkpt lat="42.5876740179955959320068359375" lon="20.0935705192387104034423828125">
        <ele>2018.5999755859375</ele>
        <time>2026-06-15T09:40:55.000Z</time>
        <extensions>
          <ns3:TrackPointExtension>
            <ns3:atemp>19.0</ns3:atemp>
          </ns3:TrackPointExtension>
        </extensions>
      </trkpt>
      <trkpt lat="42.58764510042965412139892578125" lon="20.09356708265841007232666015625">
        <ele>2019</ele>
        <time>2026-06-15T09:40:56.000Z</time>
        <extensions>
          <ns3:TrackPointExtension>
            <ns3:atemp>19.0</ns3:atemp>
          </ns3:TrackPointExtension>
        </extensions>
      </trkpt>
      <trkpt lat="42.58761425502598285675048828125" lon="20.093562640249729156494140625">
        <ele>2019.199951171875</ele>
        <time>2026-06-15T09:40:57.000Z</time>
        <extensions>
          <ns3:TrackPointExtension>
            <ns3:atemp>19.0</ns3:atemp>
          </ns3:TrackPointExtension>
        </extensions>
      </trkpt>
      <trkpt lat="42.58758433163166046142578125" lon="20.09355367161333560943603515625">
        <ele>2019.5999755859375</ele>
        <time>2026-06-15T09:40:58.000Z</time>
        <extensions>
          <ns3:TrackPointExtension>
            <ns3:atemp>19.0</ns3:atemp>
          </ns3:TrackPointExtension>
        </extensions>
      </trkpt>
      <trkpt lat="42.58755348622798919677734375" lon="20.0935475528240203857421875">
        <ele>2019.5999755859375</ele>
        <time>2026-06-15T09:40:59.000Z</time>
        <extensions>
          <ns3:TrackPointExtension>
            <ns3:atemp>19.0</ns3:atemp>
          </ns3:TrackPointExtension>
        </extensions>
      </trkpt>
      <trkpt lat="42.5875244848430156707763671875" lon="20.09354461915791034698486328125">
        <ele>2020</ele>
        <time>2026-06-15T09:41:00.000Z</time>
        <extensions>
          <ns3:TrackPointExtension>
            <ns3:atemp>19.0</ns3:atemp>
          </ns3:TrackPointExtension>
        </extensions>
      </trkpt>
      <trkpt lat="42.58749791420996189117431640625" lon="20.09354495443403720855712890625">
        <ele>2020.199951171875</ele>
        <time>2026-06-15T09:41:01.000Z</time>
        <extensions>
          <ns3:TrackPointExtension>
            <ns3:atemp>19.0</ns3:atemp>
          </ns3:TrackPointExtension>
        </extensions>
      </trkpt>
      <trkpt lat="42.58747167885303497314453125" lon="20.093542523682117462158203125">
        <ele>2020.4000244140625</ele>
        <time>2026-06-15T09:41:02.000Z</time>
        <extensions>
          <ns3:TrackPointExtension>
            <ns3:atemp>19.0</ns3:atemp>
          </ns3:TrackPointExtension>
        </extensions>
      </trkpt>
      <trkpt lat="42.58744427002966403961181640625" lon="20.09353824891149997711181640625">
        <ele>2020.800048828125</ele>
        <time>2026-06-15T09:41:03.000Z</time>
        <extensions>
          <ns3:TrackPointExtension>
            <ns3:atemp>19.0</ns3:atemp>
          </ns3:TrackPointExtension>
        </extensions>
      </trkpt>
      <trkpt lat="42.58741711266338825225830078125" lon="20.09353824891149997711181640625">
        <ele>2021.199951171875</ele>
        <time>2026-06-15T09:41:04.000Z</time>
        <extensions>
          <ns3:TrackPointExtension>
            <ns3:atemp>19.0</ns3:atemp>
          </ns3:TrackPointExtension>
        </extensions>
      </trkpt>
      <trkpt lat="42.58739179931581020355224609375" lon="20.09353506378829479217529296875">
        <ele>2021.5999755859375</ele>
        <time>2026-06-15T09:41:05.000Z</time>
        <extensions>
          <ns3:TrackPointExtension>
            <ns3:atemp>19.0</ns3:atemp>
          </ns3:TrackPointExtension>
        </extensions>
      </trkpt>
      <trkpt lat="42.58736346848309040069580078125" lon="20.09353070519864559173583984375">
        <ele>2022</ele>
        <time>2026-06-15T09:41:06.000Z</time>
        <extensions>
          <ns3:TrackPointExtension>
            <ns3:atemp>19.0</ns3:atemp>
          </ns3:TrackPointExtension>
        </extensions>
      </trkpt>
      <trkpt lat="42.58733890950679779052734375" lon="20.09352735243737697601318359375">
        <ele>2022.4000244140625</ele>
        <time>2026-06-15T09:41:07.000Z</time>
        <extensions>
          <ns3:TrackPointExtension>
            <ns3:atemp>19.0</ns3:atemp>
          </ns3:TrackPointExtension>
        </extensions>
      </trkpt>
      <trkpt lat="42.5873114168643951416015625" lon="20.09352467022836208343505859375">
        <ele>2022.800048828125</ele>
        <time>2026-06-15T09:41:08.000Z</time>
        <extensions>
          <ns3:TrackPointExtension>
            <ns3:atemp>19.0</ns3:atemp>
          </ns3:TrackPointExtension>
        </extensions>
      </trkpt>
      <trkpt lat="42.5872857682406902313232421875" lon="20.09352182038128376007080078125">
        <ele>2023</ele>
        <time>2026-06-15T09:41:09.000Z</time>
        <extensions>
          <ns3:TrackPointExtension>
            <ns3:atemp>19.0</ns3:atemp>
          </ns3:TrackPointExtension>
        </extensions>
      </trkpt>
      <trkpt lat="42.58726120926439762115478515625" lon="20.09351737797260284423828125">
        <ele>2023.4000244140625</ele>
        <time>2026-06-15T09:41:10.000Z</time>
        <extensions>
          <ns3:TrackPointExtension>
            <ns3:atemp>19.0</ns3:atemp>
          </ns3:TrackPointExtension>
        </extensions>
      </trkpt>
      <trkpt lat="42.58723405189812183380126953125" lon="20.093510337173938751220703125">
        <ele>2023.800048828125</ele>
        <time>2026-06-15T09:41:11.000Z</time>
        <extensions>
          <ns3:TrackPointExtension>
            <ns3:atemp>19.0</ns3:atemp>
          </ns3:TrackPointExtension>
        </extensions>
      </trkpt>
      <trkpt lat="42.587204463779926300048828125" lon="20.09350120089948177337646484375">
        <ele>2024.199951171875</ele>
        <time>2026-06-15T09:41:12.000Z</time>
        <extensions>
          <ns3:TrackPointExtension>
            <ns3:atemp>19.0</ns3:atemp>
          </ns3:TrackPointExtension>
        </extensions>
      </trkpt>
      <trkpt lat="42.58717604912817478179931640625" lon="20.09349457919597625732421875">
        <ele>2024.4000244140625</ele>
        <time>2026-06-15T09:41:13.000Z</time>
        <extensions>
          <ns3:TrackPointExtension>
            <ns3:atemp>19.0</ns3:atemp>
          </ns3:TrackPointExtension>
        </extensions>
      </trkpt>
      <trkpt lat="42.58714838884770870208740234375" lon="20.09349030442535877227783203125">
        <ele>2024.5999755859375</ele>
        <time>2026-06-15T09:41:14.000Z</time>
        <extensions>
          <ns3:TrackPointExtension>
            <ns3:atemp>19.0</ns3:atemp>
          </ns3:TrackPointExtension>
        </extensions>
      </trkpt>
      <trkpt lat="42.58712257258594036102294921875" lon="20.09348192252218723297119140625">
        <ele>2025</ele>
        <time>2026-06-15T09:41:15.000Z</time>
        <extensions>
          <ns3:TrackPointExtension>
            <ns3:atemp>19.0</ns3:atemp>
          </ns3:TrackPointExtension>
        </extensions>
      </trkpt>
      <trkpt lat="42.58709792979061603546142578125" lon="20.0934749655425548553466796875">
        <ele>2025.199951171875</ele>
        <time>2026-06-15T09:41:16.000Z</time>
        <extensions>
          <ns3:TrackPointExtension>
            <ns3:atemp>19.0</ns3:atemp>
          </ns3:TrackPointExtension>
        </extensions>
      </trkpt>
      <trkpt lat="42.587071023881435394287109375" lon="20.09346733801066875457763671875">
        <ele>2025.4000244140625</ele>
        <time>2026-06-15T09:41:17.000Z</time>
        <extensions>
          <ns3:TrackPointExtension>
            <ns3:atemp>19.0</ns3:atemp>
          </ns3:TrackPointExtension>
        </extensions>
      </trkpt>
      <trkpt lat="42.58704411797225475311279296875" lon="20.093457363545894622802734375">
        <ele>2025.5999755859375</ele>
        <time>2026-06-15T09:41:18.000Z</time>
        <extensions>
          <ns3:TrackPointExtension>
            <ns3:atemp>19.0</ns3:atemp>
          </ns3:TrackPointExtension>
        </extensions>
      </trkpt>
      <trkpt lat="42.5870172120630741119384765625" lon="20.0934481434524059295654296875">
        <ele>2026</ele>
        <time>2026-06-15T09:41:19.000Z</time>
        <extensions>
          <ns3:TrackPointExtension>
            <ns3:atemp>19.0</ns3:atemp>
          </ns3:TrackPointExtension>
        </extensions>
      </trkpt>
      <trkpt lat="42.58699064143002033233642578125" lon="20.09343531914055347442626953125">
        <ele>2026.199951171875</ele>
        <time>2026-06-15T09:41:20.000Z</time>
        <extensions>
          <ns3:TrackPointExtension>
            <ns3:atemp>19.0</ns3:atemp>
          </ns3:TrackPointExtension>
        </extensions>
      </trkpt>
      <trkpt lat="42.5869669206440448760986328125" lon="20.09342081844806671142578125">
        <ele>2026.5999755859375</ele>
        <time>2026-06-15T09:41:21.000Z</time>
        <extensions>
          <ns3:TrackPointExtension>
            <ns3:atemp>19.0</ns3:atemp>
          </ns3:TrackPointExtension>
        </extensions>
      </trkpt>
      <trkpt lat="42.58694194257259368896484375" lon="20.09340615011751651763916015625">
        <ele>2026.800048828125</ele>
        <time>2026-06-15T09:41:22.000Z</time>
        <extensions>
          <ns3:TrackPointExtension>
            <ns3:atemp>19.0</ns3:atemp>
          </ns3:TrackPointExtension>
        </extensions>
      </trkpt>
      <trkpt lat="42.5869179703295230865478515625" lon="20.09338905103504657745361328125">
        <ele>2027.199951171875</ele>
        <time>2026-06-15T09:41:23.000Z</time>
        <extensions>
          <ns3:TrackPointExtension>
            <ns3:atemp>19.0</ns3:atemp>
          </ns3:TrackPointExtension>
        </extensions>
      </trkpt>
      <trkpt lat="42.58689458481967449188232421875" lon="20.0933753885328769683837890625">
        <ele>2027.4000244140625</ele>
        <time>2026-06-15T09:41:24.000Z</time>
        <extensions>
          <ns3:TrackPointExtension>
            <ns3:atemp>19.0</ns3:atemp>
          </ns3:TrackPointExtension>
        </extensions>
      </trkpt>
      <trkpt lat="42.58687220513820648193359375" lon="20.09335912764072418212890625">
        <ele>2027.5999755859375</ele>
        <time>2026-06-15T09:41:25.000Z</time>
        <extensions>
          <ns3:TrackPointExtension>
            <ns3:atemp>19.0</ns3:atemp>
          </ns3:TrackPointExtension>
        </extensions>
      </trkpt>
      <trkpt lat="42.58684630505740642547607421875" lon="20.0933415256440639495849609375">
        <ele>2028</ele>
        <time>2026-06-15T09:41:26.000Z</time>
        <extensions>
          <ns3:TrackPointExtension>
            <ns3:atemp>19.0</ns3:atemp>
          </ns3:TrackPointExtension>
        </extensions>
      </trkpt>
      <trkpt lat="42.586818896234035491943359375" lon="20.0933291204273700714111328125">
        <ele>2028.199951171875</ele>
        <time>2026-06-15T09:41:27.000Z</time>
        <extensions>
          <ns3:TrackPointExtension>
            <ns3:atemp>19.0</ns3:atemp>
          </ns3:TrackPointExtension>
        </extensions>
      </trkpt>
      <trkpt lat="42.5867932476103305816650390625" lon="20.093315206468105316162109375">
        <ele>2028.5999755859375</ele>
        <time>2026-06-15T09:41:28.000Z</time>
        <extensions>
          <ns3:TrackPointExtension>
            <ns3:atemp>19.0</ns3:atemp>
          </ns3:TrackPointExtension>
        </extensions>
      </trkpt>
      <trkpt lat="42.5867696106433868408203125" lon="20.09329877793788909912109375">
        <ele>2028.800048828125</ele>
        <time>2026-06-15T09:41:29.000Z</time>
        <extensions>
          <ns3:TrackPointExtension>
            <ns3:atemp>19.0</ns3:atemp>
          </ns3:TrackPointExtension>
        </extensions>
      </trkpt>
      <trkpt lat="42.58674672804772853851318359375" lon="20.0932820141315460205078125">
        <ele>2029.4000244140625</ele>
        <time>2026-06-15T09:41:30.000Z</time>
        <extensions>
          <ns3:TrackPointExtension>
            <ns3:atemp>19.0</ns3:atemp>
          </ns3:TrackPointExtension>
        </extensions>
      </trkpt>
      <trkpt lat="42.5867265276610851287841796875" lon="20.09326399303972721099853515625">
        <ele>2029.5999755859375</ele>
        <time>2026-06-15T09:41:31.000Z</time>
        <extensions>
          <ns3:TrackPointExtension>
            <ns3:atemp>19.0</ns3:atemp>
          </ns3:TrackPointExtension>
        </extensions>
      </trkpt>
      <trkpt lat="42.58670389652252197265625" lon="20.09324781596660614013671875">
        <ele>2030</ele>
        <time>2026-06-15T09:41:32.000Z</time>
        <extensions>
          <ns3:TrackPointExtension>
            <ns3:atemp>19.0</ns3:atemp>
          </ns3:TrackPointExtension>
        </extensions>
      </trkpt>
      <trkpt lat="42.5866832770407199859619140625" lon="20.09322895668447017669677734375">
        <ele>2030.4000244140625</ele>
        <time>2026-06-15T09:41:33.000Z</time>
        <extensions>
          <ns3:TrackPointExtension>
            <ns3:atemp>19.0</ns3:atemp>
          </ns3:TrackPointExtension>
        </extensions>
      </trkpt>
      <trkpt lat="42.58665989153087139129638671875" lon="20.09321034885942935943603515625">
        <ele>2030.5999755859375</ele>
        <time>2026-06-15T09:41:34.000Z</time>
        <extensions>
          <ns3:TrackPointExtension>
            <ns3:atemp>19.0</ns3:atemp>
          </ns3:TrackPointExtension>
        </extensions>
      </trkpt>
      <trkpt lat="42.5866346620023250579833984375" lon="20.09319224394857883453369140625">
        <ele>2030.800048828125</ele>
        <time>2026-06-15T09:41:35.000Z</time>
        <extensions>
          <ns3:TrackPointExtension>
            <ns3:atemp>19.0</ns3:atemp>
          </ns3:TrackPointExtension>
        </extensions>
      </trkpt>
      <trkpt lat="42.58661077357828617095947265625" lon="20.09317397139966487884521484375">
        <ele>2031.199951171875</ele>
        <time>2026-06-15T09:41:36.000Z</time>
        <extensions>
          <ns3:TrackPointExtension>
            <ns3:atemp>19.0</ns3:atemp>
          </ns3:TrackPointExtension>
        </extensions>
      </trkpt>
      <trkpt lat="42.58658780716359615325927734375" lon="20.09315486066043376922607421875">
        <ele>2031.5999755859375</ele>
        <time>2026-06-15T09:41:37.000Z</time>
        <extensions>
          <ns3:TrackPointExtension>
            <ns3:atemp>19.0</ns3:atemp>
          </ns3:TrackPointExtension>
        </extensions>
      </trkpt>
      <trkpt lat="42.5865649245679378509521484375" lon="20.09313248097896575927734375">
        <ele>2031.800048828125</ele>
        <time>2026-06-15T09:41:38.000Z</time>
        <extensions>
          <ns3:TrackPointExtension>
            <ns3:atemp>19.0</ns3:atemp>
          </ns3:TrackPointExtension>
        </extensions>
      </trkpt>
      <trkpt lat="42.58654120378196239471435546875" lon="20.09311043657362461090087890625">
        <ele>2032</ele>
        <time>2026-06-15T09:41:39.000Z</time>
        <extensions>
          <ns3:TrackPointExtension>
            <ns3:atemp>19.0</ns3:atemp>
          </ns3:TrackPointExtension>
        </extensions>
      </trkpt>
      <trkpt lat="42.5865183211863040924072265625" lon="20.09309015236794948577880859375">
        <ele>2032.4000244140625</ele>
        <time>2026-06-15T09:41:40.000Z</time>
        <extensions>
          <ns3:TrackPointExtension>
            <ns3:atemp>19.0</ns3:atemp>
          </ns3:TrackPointExtension>
        </extensions>
      </trkpt>
      <trkpt lat="42.58649803698062896728515625" lon="20.0930662639439105987548828125">
        <ele>2032.800048828125</ele>
        <time>2026-06-15T09:41:41.000Z</time>
        <extensions>
          <ns3:TrackPointExtension>
            <ns3:atemp>19.0</ns3:atemp>
          </ns3:TrackPointExtension>
        </extensions>
      </trkpt>
      <trkpt lat="42.58647699840366840362548828125" lon="20.093040950596332550048828125">
        <ele>2033.199951171875</ele>
        <time>2026-06-15T09:41:42.000Z</time>
        <extensions>
          <ns3:TrackPointExtension>
            <ns3:atemp>19.0</ns3:atemp>
          </ns3:TrackPointExtension>
        </extensions>
      </trkpt>
      <trkpt lat="42.58645520545542240142822265625" lon="20.09301756508648395538330078125">
        <ele>2033.4000244140625</ele>
        <time>2026-06-15T09:41:43.000Z</time>
        <extensions>
          <ns3:TrackPointExtension>
            <ns3:atemp>19.0</ns3:atemp>
          </ns3:TrackPointExtension>
        </extensions>
      </trkpt>
      <trkpt lat="42.58643341250717639923095703125" lon="20.09299443103373050689697265625">
        <ele>2033.800048828125</ele>
        <time>2026-06-15T09:41:44.000Z</time>
        <extensions>
          <ns3:TrackPointExtension>
            <ns3:atemp>19.0</ns3:atemp>
          </ns3:TrackPointExtension>
        </extensions>
      </trkpt>
      <trkpt lat="42.5864150561392307281494140625" lon="20.092966519296169281005859375">
        <ele>2034.199951171875</ele>
        <time>2026-06-15T09:41:45.000Z</time>
        <extensions>
          <ns3:TrackPointExtension>
            <ns3:atemp>19.0</ns3:atemp>
          </ns3:TrackPointExtension>
        </extensions>
      </trkpt>
      <trkpt lat="42.58639619685709476470947265625" lon="20.09293978102505207061767578125">
        <ele>2034.4000244140625</ele>
        <time>2026-06-15T09:41:46.000Z</time>
        <extensions>
          <ns3:TrackPointExtension>
            <ns3:atemp>19.0</ns3:atemp>
          </ns3:TrackPointExtension>
        </extensions>
      </trkpt>
      <trkpt lat="42.58637809194624423980712890625" lon="20.09291388094425201416015625">
        <ele>2034.5999755859375</ele>
        <time>2026-06-15T09:41:47.000Z</time>
        <extensions>
          <ns3:TrackPointExtension>
            <ns3:atemp>19.0</ns3:atemp>
          </ns3:TrackPointExtension>
        </extensions>
      </trkpt>
      <trkpt lat="42.586357891559600830078125" lon="20.09288798086345195770263671875">
        <ele>2035</ele>
        <time>2026-06-15T09:41:48.000Z</time>
        <extensions>
          <ns3:TrackPointExtension>
            <ns3:atemp>19.0</ns3:atemp>
          </ns3:TrackPointExtension>
        </extensions>
      </trkpt>
      <trkpt lat="42.5863389484584331512451171875" lon="20.09286132641136646270751953125">
        <ele>2035.199951171875</ele>
        <time>2026-06-15T09:41:49.000Z</time>
        <extensions>
          <ns3:TrackPointExtension>
            <ns3:atemp>19.0</ns3:atemp>
          </ns3:TrackPointExtension>
        </extensions>
      </trkpt>
      <trkpt lat="42.586320340633392333984375" lon="20.092836432158946990966796875">
        <ele>2035.4000244140625</ele>
        <time>2026-06-15T09:41:50.000Z</time>
        <extensions>
          <ns3:TrackPointExtension>
            <ns3:atemp>19.0</ns3:atemp>
          </ns3:TrackPointExtension>
        </extensions>
      </trkpt>
      <trkpt lat="42.586299888789653778076171875" lon="20.09280902333557605743408203125">
        <ele>2035.5999755859375</ele>
        <time>2026-06-15T09:41:51.000Z</time>
        <extensions>
          <ns3:TrackPointExtension>
            <ns3:atemp>19.0</ns3:atemp>
          </ns3:TrackPointExtension>
        </extensions>
      </trkpt>
      <trkpt lat="42.58628002367913722991943359375" lon="20.092780105769634246826171875">
        <ele>2036</ele>
        <time>2026-06-15T09:41:52.000Z</time>
        <extensions>
          <ns3:TrackPointExtension>
            <ns3:atemp>19.0</ns3:atemp>
          </ns3:TrackPointExtension>
        </extensions>
      </trkpt>
      <trkpt lat="42.58625663816928863525390625" lon="20.09275160729885101318359375">
        <ele>2036.199951171875</ele>
        <time>2026-06-15T09:41:53.000Z</time>
        <extensions>
          <ns3:TrackPointExtension>
            <ns3:atemp>19.0</ns3:atemp>
          </ns3:TrackPointExtension>
        </extensions>
      </trkpt>
      <trkpt lat="42.58623392321169376373291015625" lon="20.0927232764661312103271484375">
        <ele>2036.4000244140625</ele>
        <time>2026-06-15T09:41:54.000Z</time>
        <extensions>
          <ns3:TrackPointExtension>
            <ns3:atemp>19.0</ns3:atemp>
          </ns3:TrackPointExtension>
        </extensions>
      </trkpt>
      <trkpt lat="42.586215399205684661865234375" lon="20.0926951132714748382568359375">
        <ele>2036.5999755859375</ele>
        <time>2026-06-15T09:41:55.000Z</time>
        <extensions>
          <ns3:TrackPointExtension>
            <ns3:atemp>19.0</ns3:atemp>
          </ns3:TrackPointExtension>
        </extensions>
      </trkpt>
      <trkpt lat="42.58619653992354869842529296875" lon="20.0926666148006916046142578125">
        <ele>2036.5999755859375</ele>
        <time>2026-06-15T09:41:56.000Z</time>
        <extensions>
          <ns3:TrackPointExtension>
            <ns3:atemp>19.0</ns3:atemp>
          </ns3:TrackPointExtension>
        </extensions>
      </trkpt>
      <trkpt lat="42.58617541752755641937255859375" lon="20.09264021180570125579833984375">
        <ele>2037</ele>
        <time>2026-06-15T09:41:57.000Z</time>
        <extensions>
          <ns3:TrackPointExtension>
            <ns3:atemp>19.0</ns3:atemp>
          </ns3:TrackPointExtension>
        </extensions>
      </trkpt>
      <trkpt lat="42.586155720055103302001953125" lon="20.0926196761429309844970703125">
        <ele>2037.199951171875</ele>
        <time>2026-06-15T09:41:58.000Z</time>
        <extensions>
          <ns3:TrackPointExtension>
            <ns3:atemp>19.0</ns3:atemp>
          </ns3:TrackPointExtension>
        </extensions>
      </trkpt>
      <trkpt lat="42.58613736368715763092041015625" lon="20.09259662590920925140380859375">
        <ele>2037.4000244140625</ele>
        <time>2026-06-15T09:41:59.000Z</time>
        <extensions>
          <ns3:TrackPointExtension>
            <ns3:atemp>19.0</ns3:atemp>
          </ns3:TrackPointExtension>
        </extensions>
      </trkpt>
      <trkpt lat="42.58611909113824367523193359375" lon="20.09257466532289981842041015625">
        <ele>2037.800048828125</ele>
        <time>2026-06-15T09:42:00.000Z</time>
        <extensions>
          <ns3:TrackPointExtension>
            <ns3:atemp>19.0</ns3:atemp>
          </ns3:TrackPointExtension>
        </extensions>
      </trkpt>
      <trkpt lat="42.58609964512288570404052734375" lon="20.09255052544176578521728515625">
        <ele>2038</ele>
        <time>2026-06-15T09:42:01.000Z</time>
        <extensions>
          <ns3:TrackPointExtension>
            <ns3:atemp>19.0</ns3:atemp>
          </ns3:TrackPointExtension>
        </extensions>
      </trkpt>
      <trkpt lat="42.58607651107013225555419921875" lon="20.0925301574170589447021484375">
        <ele>2038.199951171875</ele>
        <time>2026-06-15T09:42:02.000Z</time>
        <extensions>
          <ns3:TrackPointExtension>
            <ns3:atemp>19.0</ns3:atemp>
          </ns3:TrackPointExtension>
        </extensions>
      </trkpt>
      <trkpt lat="42.58605186827480792999267578125" lon="20.09251163341104984283447265625">
        <ele>2038.4000244140625</ele>
        <time>2026-06-15T09:42:03.000Z</time>
        <extensions>
          <ns3:TrackPointExtension>
            <ns3:atemp>19.0</ns3:atemp>
          </ns3:TrackPointExtension>
        </extensions>
      </trkpt>
      <trkpt lat="42.58602940477430820465087890625" lon="20.0924902595579624176025390625">
        <ele>2038.800048828125</ele>
        <time>2026-06-15T09:42:04.000Z</time>
        <extensions>
          <ns3:TrackPointExtension>
            <ns3:atemp>19.0</ns3:atemp>
          </ns3:TrackPointExtension>
        </extensions>
      </trkpt>
      <trkpt lat="42.5860127247869968414306640625" lon="20.0924644432961940765380859375">
        <ele>2039</ele>
        <time>2026-06-15T09:42:05.000Z</time>
        <extensions>
          <ns3:TrackPointExtension>
            <ns3:atemp>19.0</ns3:atemp>
          </ns3:TrackPointExtension>
        </extensions>
      </trkpt>
      <trkpt lat="42.5859926082193851470947265625" lon="20.09244449436664581298828125">
        <ele>2039.199951171875</ele>
        <time>2026-06-15T09:42:06.000Z</time>
        <extensions>
          <ns3:TrackPointExtension>
            <ns3:atemp>19.0</ns3:atemp>
          </ns3:TrackPointExtension>
        </extensions>
      </trkpt>
      <trkpt lat="42.5859729945659637451171875" lon="20.0924309156835079193115234375">
        <ele>2039.4000244140625</ele>
        <time>2026-06-15T09:42:07.000Z</time>
        <extensions>
          <ns3:TrackPointExtension>
            <ns3:atemp>19.0</ns3:atemp>
          </ns3:TrackPointExtension>
        </extensions>
      </trkpt>
      <trkpt lat="42.5859527103602886199951171875" lon="20.092409960925579071044921875">
        <ele>2039.800048828125</ele>
        <time>2026-06-15T09:42:08.000Z</time>
        <extensions>
          <ns3:TrackPointExtension>
            <ns3:atemp>19.0</ns3:atemp>
          </ns3:TrackPointExtension>
        </extensions>
      </trkpt>
      <trkpt lat="42.5859382934868335723876953125" lon="20.09238808415830135345458984375">
        <ele>2040</ele>
        <time>2026-06-15T09:42:09.000Z</time>
        <extensions>
          <ns3:TrackPointExtension>
            <ns3:atemp>19.0</ns3:atemp>
          </ns3:TrackPointExtension>
        </extensions>
      </trkpt>
      <trkpt lat="42.58592228405177593231201171875" lon="20.09236427955329418182373046875">
        <ele>2040.199951171875</ele>
        <time>2026-06-15T09:42:10.000Z</time>
        <extensions>
          <ns3:TrackPointExtension>
            <ns3:atemp>19.0</ns3:atemp>
          </ns3:TrackPointExtension>
        </extensions>
      </trkpt>
      <trkpt lat="42.5859032571315765380859375" lon="20.0923424027860164642333984375">
        <ele>2040.4000244140625</ele>
        <time>2026-06-15T09:42:11.000Z</time>
        <extensions>
          <ns3:TrackPointExtension>
            <ns3:atemp>19.0</ns3:atemp>
          </ns3:TrackPointExtension>
        </extensions>
      </trkpt>
      <trkpt lat="42.58588188327848911285400390625" lon="20.09232119657099246978759765625">
        <ele>2040.800048828125</ele>
        <time>2026-06-15T09:42:12.000Z</time>
        <extensions>
          <ns3:TrackPointExtension>
            <ns3:atemp>19.0</ns3:atemp>
          </ns3:TrackPointExtension>
        </extensions>
      </trkpt>
      <trkpt lat="42.5858630239963531494140625" lon="20.09230099618434906005859375">
        <ele>2041</ele>
        <time>2026-06-15T09:42:13.000Z</time>
        <extensions>
          <ns3:TrackPointExtension>
            <ns3:atemp>19.0</ns3:atemp>
          </ns3:TrackPointExtension>
        </extensions>
      </trkpt>
      <trkpt lat="42.585840560495853424072265625" lon="20.09228087961673736572265625">
        <ele>2041.199951171875</ele>
        <time>2026-06-15T09:42:14.000Z</time>
        <extensions>
          <ns3:TrackPointExtension>
            <ns3:atemp>19.0</ns3:atemp>
          </ns3:TrackPointExtension>
        </extensions>
      </trkpt>
      <trkpt lat="42.58581818081438541412353515625" lon="20.0922612659633159637451171875">
        <ele>2041.4000244140625</ele>
        <time>2026-06-15T09:42:15.000Z</time>
        <extensions>
          <ns3:TrackPointExtension>
            <ns3:atemp>19.0</ns3:atemp>
          </ns3:TrackPointExtension>
        </extensions>
      </trkpt>
      <trkpt lat="42.58579529821872711181640625" lon="20.09223955683410167694091796875">
        <ele>2041.800048828125</ele>
        <time>2026-06-15T09:42:16.000Z</time>
        <extensions>
          <ns3:TrackPointExtension>
            <ns3:atemp>19.0</ns3:atemp>
          </ns3:TrackPointExtension>
        </extensions>
      </trkpt>
      <trkpt lat="42.5857776962220668792724609375" lon="20.09221876971423625946044921875">
        <ele>2042</ele>
        <time>2026-06-15T09:42:17.000Z</time>
        <extensions>
          <ns3:TrackPointExtension>
            <ns3:atemp>19.0</ns3:atemp>
          </ns3:TrackPointExtension>
        </extensions>
      </trkpt>
      <trkpt lat="42.58575749583542346954345703125" lon="20.09219781495630741119384765625">
        <ele>2042.199951171875</ele>
        <time>2026-06-15T09:42:18.000Z</time>
        <extensions>
          <ns3:TrackPointExtension>
            <ns3:atemp>19.0</ns3:atemp>
          </ns3:TrackPointExtension>
        </extensions>
      </trkpt>
      <trkpt lat="42.58573771454393863677978515625" lon="20.09218138642609119415283203125">
        <ele>2042.4000244140625</ele>
        <time>2026-06-15T09:42:19.000Z</time>
        <extensions>
          <ns3:TrackPointExtension>
            <ns3:atemp>19.0</ns3:atemp>
          </ns3:TrackPointExtension>
        </extensions>
      </trkpt>
      <trkpt lat="42.58571441285312175750732421875" lon="20.09216546081006526947021484375">
        <ele>2042.5999755859375</ele>
        <time>2026-06-15T09:42:20.000Z</time>
        <extensions>
          <ns3:TrackPointExtension>
            <ns3:atemp>19.0</ns3:atemp>
          </ns3:TrackPointExtension>
        </extensions>
      </trkpt>
      <trkpt lat="42.5856952182948589324951171875" lon="20.09214970283210277557373046875">
        <ele>2043</ele>
        <time>2026-06-15T09:42:21.000Z</time>
        <extensions>
          <ns3:TrackPointExtension>
            <ns3:atemp>19.0</ns3:atemp>
          </ns3:TrackPointExtension>
        </extensions>
      </trkpt>
      <trkpt lat="42.58567116223275661468505859375" lon="20.09213629178702831268310546875">
        <ele>2043.199951171875</ele>
        <time>2026-06-15T09:42:22.000Z</time>
        <extensions>
          <ns3:TrackPointExtension>
            <ns3:atemp>19.0</ns3:atemp>
          </ns3:TrackPointExtension>
        </extensions>
      </trkpt>
      <trkpt lat="42.58564501069486141204833984375" lon="20.0921234674751758575439453125">
        <ele>2043.4000244140625</ele>
        <time>2026-06-15T09:42:23.000Z</time>
        <extensions>
          <ns3:TrackPointExtension>
            <ns3:atemp>19.0</ns3:atemp>
          </ns3:TrackPointExtension>
        </extensions>
      </trkpt>
      <trkpt lat="42.5856187753379344940185546875" lon="20.0921107269823551177978515625">
        <ele>2043.800048828125</ele>
        <time>2026-06-15T09:42:24.000Z</time>
        <extensions>
          <ns3:TrackPointExtension>
            <ns3:atemp>19.0</ns3:atemp>
          </ns3:TrackPointExtension>
        </extensions>
      </trkpt>
      <trkpt lat="42.5855948030948638916015625" lon="20.0921010039746761322021484375">
        <ele>2043.800048828125</ele>
        <time>2026-06-15T09:42:25.000Z</time>
        <extensions>
          <ns3:TrackPointExtension>
            <ns3:atemp>19.0</ns3:atemp>
          </ns3:TrackPointExtension>
        </extensions>
      </trkpt>
      <trkpt lat="42.58557074703276157379150390625" lon="20.09209337644279003143310546875">
        <ele>2044.199951171875</ele>
        <time>2026-06-15T09:42:26.000Z</time>
        <extensions>
          <ns3:TrackPointExtension>
            <ns3:atemp>19.0</ns3:atemp>
          </ns3:TrackPointExtension>
        </extensions>
      </trkpt>
      <trkpt lat="42.5855473615229129791259765625" lon="20.0920892693102359771728515625">
        <ele>2044.4000244140625</ele>
        <time>2026-06-15T09:42:27.000Z</time>
        <extensions>
          <ns3:TrackPointExtension>
            <ns3:atemp>19.0</ns3:atemp>
          </ns3:TrackPointExtension>
        </extensions>
      </trkpt>
      <trkpt lat="42.5855242274701595306396484375" lon="20.09208097122609615325927734375">
        <ele>2044.5999755859375</ele>
        <time>2026-06-15T09:42:28.000Z</time>
        <extensions>
          <ns3:TrackPointExtension>
            <ns3:atemp>19.0</ns3:atemp>
          </ns3:TrackPointExtension>
        </extensions>
      </trkpt>
      <trkpt lat="42.58550084196031093597412109375" lon="20.09207426570355892181396484375">
        <ele>2044.800048828125</ele>
        <time>2026-06-15T09:42:29.000Z</time>
        <extensions>
          <ns3:TrackPointExtension>
            <ns3:atemp>19.0</ns3:atemp>
          </ns3:TrackPointExtension>
        </extensions>
      </trkpt>
      <trkpt lat="42.5854782946407794952392578125" lon="20.0920644588768482208251953125">
        <ele>2045.199951171875</ele>
        <time>2026-06-15T09:42:30.000Z</time>
        <extensions>
          <ns3:TrackPointExtension>
            <ns3:atemp>19.0</ns3:atemp>
          </ns3:TrackPointExtension>
        </extensions>
      </trkpt>
      <trkpt lat="42.5854561664164066314697265625" lon="20.0920537300407886505126953125">
        <ele>2045.4000244140625</ele>
        <time>2026-06-15T09:42:31.000Z</time>
        <extensions>
          <ns3:TrackPointExtension>
            <ns3:atemp>19.0</ns3:atemp>
          </ns3:TrackPointExtension>
        </extensions>
      </trkpt>
      <trkpt lat="42.58543345145881175994873046875" lon="20.092045180499553680419921875">
        <ele>2045.5999755859375</ele>
        <time>2026-06-15T09:42:32.000Z</time>
        <extensions>
          <ns3:TrackPointExtension>
            <ns3:atemp>19.0</ns3:atemp>
          </ns3:TrackPointExtension>
        </extensions>
      </trkpt>
      <trkpt lat="42.585408724844455718994140625" lon="20.0920393131673336029052734375">
        <ele>2045.5999755859375</ele>
        <time>2026-06-15T09:42:33.000Z</time>
        <extensions>
          <ns3:TrackPointExtension>
            <ns3:atemp>19.0</ns3:atemp>
          </ns3:TrackPointExtension>
        </extensions>
      </trkpt>
      <trkpt lat="42.58538550697267055511474609375" lon="20.09203420020639896392822265625">
        <ele>2045.800048828125</ele>
        <time>2026-06-15T09:42:34.000Z</time>
        <extensions>
          <ns3:TrackPointExtension>
            <ns3:atemp>19.0</ns3:atemp>
          </ns3:TrackPointExtension>
        </extensions>
      </trkpt>
      <trkpt lat="42.5853668153285980224609375" lon="20.0920259021222591400146484375">
        <ele>2046.199951171875</ele>
        <time>2026-06-15T09:42:35.000Z</time>
        <extensions>
          <ns3:TrackPointExtension>
            <ns3:atemp>19.0</ns3:atemp>
          </ns3:TrackPointExtension>
        </extensions>
      </trkpt>
      <trkpt lat="42.5853455252945423126220703125" lon="20.09202145971357822418212890625">
        <ele>2046.4000244140625</ele>
        <time>2026-06-15T09:42:36.000Z</time>
        <extensions>
          <ns3:TrackPointExtension>
            <ns3:atemp>19.0</ns3:atemp>
          </ns3:TrackPointExtension>
        </extensions>
      </trkpt>
      <trkpt lat="42.58532364852726459503173828125" lon="20.09201726876199245452880859375">
        <ele>2046.5999755859375</ele>
        <time>2026-06-15T09:42:37.000Z</time>
        <extensions>
          <ns3:TrackPointExtension>
            <ns3:atemp>19.0</ns3:atemp>
          </ns3:TrackPointExtension>
        </extensions>
      </trkpt>
      <trkpt lat="42.58530001156032085418701171875" lon="20.09201307781040668487548828125">
        <ele>2047</ele>
        <time>2026-06-15T09:42:38.000Z</time>
        <extensions>
          <ns3:TrackPointExtension>
            <ns3:atemp>19.0</ns3:atemp>
          </ns3:TrackPointExtension>
        </extensions>
      </trkpt>
      <trkpt lat="42.58527696132659912109375" lon="20.09201006032526493072509765625">
        <ele>2047.199951171875</ele>
        <time>2026-06-15T09:42:39.000Z</time>
        <extensions>
          <ns3:TrackPointExtension>
            <ns3:atemp>19.0</ns3:atemp>
          </ns3:TrackPointExtension>
        </extensions>
      </trkpt>
      <trkpt lat="42.58525340817868709564208984375" lon="20.09200704284012317657470703125">
        <ele>2047.199951171875</ele>
        <time>2026-06-15T09:42:40.000Z</time>
        <extensions>
          <ns3:TrackPointExtension>
            <ns3:atemp>19.0</ns3:atemp>
          </ns3:TrackPointExtension>
        </extensions>
      </trkpt>
      <trkpt lat="42.585233040153980255126953125" lon="20.09200452826917171478271484375">
        <ele>2047.4000244140625</ele>
        <time>2026-06-15T09:42:41.000Z</time>
        <extensions>
          <ns3:TrackPointExtension>
            <ns3:atemp>18.0</ns3:atemp>
          </ns3:TrackPointExtension>
        </extensions>
      </trkpt>
      <trkpt lat="42.5852117501199245452880859375" lon="20.09200536645948886871337890625">
        <ele>2047.5999755859375</ele>
        <time>2026-06-15T09:42:42.000Z</time>
        <extensions>
          <ns3:TrackPointExtension>
            <ns3:atemp>18.0</ns3:atemp>
          </ns3:TrackPointExtension>
        </extensions>
      </trkpt>
      <trkpt lat="42.58519557304680347442626953125" lon="20.09200000204145908355712890625">
        <ele>2048</ele>
        <time>2026-06-15T09:42:43.000Z</time>
        <extensions>
          <ns3:TrackPointExtension>
            <ns3:atemp>19.0</ns3:atemp>
          </ns3:TrackPointExtension>
        </extensions>
      </trkpt>
      <trkpt lat="42.585178725421428680419921875" lon="20.09199924767017364501953125">
        <ele>2048.199951171875</ele>
        <time>2026-06-15T09:42:44.000Z</time>
        <extensions>
          <ns3:TrackPointExtension>
            <ns3:atemp>19.0</ns3:atemp>
          </ns3:TrackPointExtension>
        </extensions>
      </trkpt>
      <trkpt lat="42.58516103960573673248291015625" lon="20.09200117550790309906005859375">
        <ele>2048.60009765625</ele>
        <time>2026-06-15T09:42:45.000Z</time>
        <extensions>
          <ns3:TrackPointExtension>
            <ns3:atemp>19.0</ns3:atemp>
          </ns3:TrackPointExtension>
        </extensions>
      </trkpt>
      <trkpt lat="42.58514326997101306915283203125" lon="20.09200134314596652984619140625">
        <ele>2049.199951171875</ele>
        <time>2026-06-15T09:42:46.000Z</time>
        <extensions>
          <ns3:TrackPointExtension>
            <ns3:atemp>19.0</ns3:atemp>
          </ns3:TrackPointExtension>
        </extensions>
      </trkpt>
      <trkpt lat="42.585124410688877105712890625" lon="20.09199731983244419097900390625">
        <ele>2049.60009765625</ele>
        <time>2026-06-15T09:42:47.000Z</time>
        <extensions>
          <ns3:TrackPointExtension>
            <ns3:atemp>19.0</ns3:atemp>
          </ns3:TrackPointExtension>
        </extensions>
      </trkpt>
      <trkpt lat="42.5851098261773586273193359375" lon="20.091986842453479766845703125">
        <ele>2050</ele>
        <time>2026-06-15T09:42:48.000Z</time>
        <extensions>
          <ns3:TrackPointExtension>
            <ns3:atemp>18.0</ns3:atemp>
          </ns3:TrackPointExtension>
        </extensions>
      </trkpt>
      <trkpt lat="42.58509716950356960296630859375" lon="20.09197837673127651214599609375">
        <ele>2050.199951171875</ele>
        <time>2026-06-15T09:42:49.000Z</time>
        <extensions>
          <ns3:TrackPointExtension>
            <ns3:atemp>19.0</ns3:atemp>
          </ns3:TrackPointExtension>
        </extensions>
      </trkpt>
      <trkpt lat="42.58508828468620777130126953125" lon="20.091966055333614349365234375">
        <ele>2050.39990234375</ele>
        <time>2026-06-15T09:42:50.000Z</time>
        <extensions>
          <ns3:TrackPointExtension>
            <ns3:atemp>19.0</ns3:atemp>
          </ns3:TrackPointExtension>
        </extensions>
      </trkpt>
      <trkpt lat="42.58507822640240192413330078125" lon="20.0919534824788570404052734375">
        <ele>2050.60009765625</ele>
        <time>2026-06-15T09:42:51.000Z</time>
        <extensions>
          <ns3:TrackPointExtension>
            <ns3:atemp>19.0</ns3:atemp>
          </ns3:TrackPointExtension>
        </extensions>
      </trkpt>
      <trkpt lat="42.5850752927362918853759765625" lon="20.09193353354930877685546875">
        <ele>2050.800048828125</ele>
        <time>2026-06-15T09:42:52.000Z</time>
        <extensions>
          <ns3:TrackPointExtension>
            <ns3:atemp>18.0</ns3:atemp>
          </ns3:TrackPointExtension>
        </extensions>
      </trkpt>
      <trkpt lat="42.58507646620273590087890625" lon="20.09190713055431842803955078125">
        <ele>2051</ele>
        <time>2026-06-15T09:42:53.000Z</time>
        <extensions>
          <ns3:TrackPointExtension>
            <ns3:atemp>18.0</ns3:atemp>
          </ns3:TrackPointExtension>
        </extensions>
      </trkpt>
      <trkpt lat="42.58507889695465564727783203125" lon="20.0918954797089099884033203125">
        <ele>2051.39990234375</ele>
        <time>2026-06-15T09:42:54.000Z</time>
        <extensions>
          <ns3:TrackPointExtension>
            <ns3:atemp>18.0</ns3:atemp>
          </ns3:TrackPointExtension>
        </extensions>
      </trkpt>
      <trkpt lat="42.5850806571543216705322265625" lon="20.09188416413962841033935546875">
        <ele>2051.60009765625</ele>
        <time>2026-06-15T09:42:55.000Z</time>
        <extensions>
          <ns3:TrackPointExtension>
            <ns3:atemp>18.0</ns3:atemp>
          </ns3:TrackPointExtension>
        </extensions>
      </trkpt>
      <trkpt lat="42.58509180508553981781005859375" lon="20.091868154704570770263671875">
        <ele>2052</ele>
        <time>2026-06-15T09:42:56.000Z</time>
        <extensions>
          <ns3:TrackPointExtension>
            <ns3:atemp>18.0</ns3:atemp>
          </ns3:TrackPointExtension>
        </extensions>
      </trkpt>
      <trkpt lat="42.5851118378341197967529296875" lon="20.091856084764003753662109375">
        <ele>2052.199951171875</ele>
        <time>2026-06-15T09:42:57.000Z</time>
        <extensions>
          <ns3:TrackPointExtension>
            <ns3:atemp>18.0</ns3:atemp>
          </ns3:TrackPointExtension>
        </extensions>
      </trkpt>
      <trkpt lat="42.58514218032360076904296875" lon="20.0918471999466419219970703125">
        <ele>2052.199951171875</ele>
        <time>2026-06-15T09:42:58.000Z</time>
        <extensions>
          <ns3:TrackPointExtension>
            <ns3:atemp>18.0</ns3:atemp>
          </ns3:TrackPointExtension>
        </extensions>
      </trkpt>
      <trkpt lat="42.58517294190824031829833984375" lon="20.0918478704988956451416015625">
        <ele>2052.39990234375</ele>
        <time>2026-06-15T09:42:59.000Z</time>
        <extensions>
          <ns3:TrackPointExtension>
            <ns3:atemp>18.0</ns3:atemp>
          </ns3:TrackPointExtension>
        </extensions>
      </trkpt>
      <trkpt lat="42.58519892580807209014892578125" lon="20.09184359572827816009521484375">
        <ele>2052.60009765625</ele>
        <time>2026-06-15T09:43:00.000Z</time>
        <extensions>
          <ns3:TrackPointExtension>
            <ns3:atemp>18.0</ns3:atemp>
          </ns3:TrackPointExtension>
        </extensions>
      </trkpt>
      <trkpt lat="42.58522625081241130828857421875" lon="20.09184242226183414459228515625">
        <ele>2052.800048828125</ele>
        <time>2026-06-15T09:43:01.000Z</time>
        <extensions>
          <ns3:TrackPointExtension>
            <ns3:atemp>18.0</ns3:atemp>
          </ns3:TrackPointExtension>
        </extensions>
      </trkpt>
      <trkpt lat="42.585252486169338226318359375" lon="20.0918351300060749053955078125">
        <ele>2053</ele>
        <time>2026-06-15T09:43:02.000Z</time>
        <extensions>
          <ns3:TrackPointExtension>
            <ns3:atemp>18.0</ns3:atemp>
          </ns3:TrackPointExtension>
        </extensions>
      </trkpt>
      <trkpt lat="42.585277296602725982666015625" lon="20.091829933226108551025390625">
        <ele>2053.199951171875</ele>
        <time>2026-06-15T09:43:03.000Z</time>
        <extensions>
          <ns3:TrackPointExtension>
            <ns3:atemp>18.0</ns3:atemp>
          </ns3:TrackPointExtension>
        </extensions>
      </trkpt>
      <trkpt lat="42.5853032805025577545166015625" lon="20.09182599373161792755126953125">
        <ele>2053.39990234375</ele>
        <time>2026-06-15T09:43:04.000Z</time>
        <extensions>
          <ns3:TrackPointExtension>
            <ns3:atemp>18.0</ns3:atemp>
          </ns3:TrackPointExtension>
        </extensions>
      </trkpt>
      <trkpt lat="42.5853301025927066802978515625" lon="20.09182532317936420440673828125">
        <ele>2053.60009765625</ele>
        <time>2026-06-15T09:43:05.000Z</time>
        <extensions>
          <ns3:TrackPointExtension>
            <ns3:atemp>18.0</ns3:atemp>
          </ns3:TrackPointExtension>
        </extensions>
      </trkpt>
      <trkpt lat="42.5853582657873630523681640625" lon="20.091824568808078765869140625">
        <ele>2054</ele>
        <time>2026-06-15T09:43:06.000Z</time>
        <extensions>
          <ns3:TrackPointExtension>
            <ns3:atemp>18.0</ns3:atemp>
          </ns3:TrackPointExtension>
        </extensions>
      </trkpt>
      <trkpt lat="42.5853867642581462860107421875" lon="20.09182163514196872711181640625">
        <ele>2054.199951171875</ele>
        <time>2026-06-15T09:43:07.000Z</time>
        <extensions>
          <ns3:TrackPointExtension>
            <ns3:atemp>18.0</ns3:atemp>
          </ns3:TrackPointExtension>
        </extensions>
      </trkpt>
      <trkpt lat="42.5854115746915340423583984375" lon="20.09182146750390529632568359375">
        <ele>2054.39990234375</ele>
        <time>2026-06-15T09:43:08.000Z</time>
        <extensions>
          <ns3:TrackPointExtension>
            <ns3:atemp>18.0</ns3:atemp>
          </ns3:TrackPointExtension>
        </extensions>
      </trkpt>
      <trkpt lat="42.58544116280972957611083984375" lon="20.091821216046810150146484375">
        <ele>2054.60009765625</ele>
        <time>2026-06-15T09:43:09.000Z</time>
        <extensions>
          <ns3:TrackPointExtension>
            <ns3:atemp>18.0</ns3:atemp>
          </ns3:TrackPointExtension>
        </extensions>
      </trkpt>
      <trkpt lat="42.58546597324311733245849609375" lon="20.091819204390048980712890625">
        <ele>2054.800048828125</ele>
        <time>2026-06-15T09:43:10.000Z</time>
        <extensions>
          <ns3:TrackPointExtension>
            <ns3:atemp>18.0</ns3:atemp>
          </ns3:TrackPointExtension>
        </extensions>
      </trkpt>
      <trkpt lat="42.585487179458141326904296875" lon="20.09182012639939785003662109375">
        <ele>2054.800048828125</ele>
        <time>2026-06-15T09:43:11.000Z</time>
        <extensions>
          <ns3:TrackPointExtension>
            <ns3:atemp>18.0</ns3:atemp>
          </ns3:TrackPointExtension>
        </extensions>
      </trkpt>
      <trkpt lat="42.585510648787021636962890625" lon="20.09181928820908069610595703125">
        <ele>2055</ele>
        <time>2026-06-15T09:43:12.000Z</time>
        <extensions>
          <ns3:TrackPointExtension>
            <ns3:atemp>18.0</ns3:atemp>
          </ns3:TrackPointExtension>
        </extensions>
      </trkpt>
      <trkpt lat="42.58553470484912395477294921875" lon="20.0918166898190975189208984375">
        <ele>2055.199951171875</ele>
        <time>2026-06-15T09:43:13.000Z</time>
        <extensions>
          <ns3:TrackPointExtension>
            <ns3:atemp>18.0</ns3:atemp>
          </ns3:TrackPointExtension>
        </extensions>
      </trkpt>
      <trkpt lat="42.58555599488317966461181640625" lon="20.09182029403746128082275390625">
        <ele>2055.39990234375</ele>
        <time>2026-06-15T09:43:14.000Z</time>
        <extensions>
          <ns3:TrackPointExtension>
            <ns3:atemp>18.0</ns3:atemp>
          </ns3:TrackPointExtension>
        </extensions>
      </trkpt>
      <trkpt lat="42.58558063767850399017333984375" lon="20.0918233953416347503662109375">
        <ele>2055.60009765625</ele>
        <time>2026-06-15T09:43:15.000Z</time>
        <extensions>
          <ns3:TrackPointExtension>
            <ns3:atemp>18.0</ns3:atemp>
          </ns3:TrackPointExtension>
        </extensions>
      </trkpt>
      <trkpt lat="42.5856053642928600311279296875" lon="20.09182096458971500396728515625">
        <ele>2055.800048828125</ele>
        <time>2026-06-15T09:43:16.000Z</time>
        <extensions>
          <ns3:TrackPointExtension>
            <ns3:atemp>18.0</ns3:atemp>
          </ns3:TrackPointExtension>
        </extensions>
      </trkpt>
      <trkpt lat="42.58563101291656494140625" lon="20.09181845001876354217529296875">
        <ele>2056</ele>
        <time>2026-06-15T09:43:17.000Z</time>
        <extensions>
          <ns3:TrackPointExtension>
            <ns3:atemp>18.0</ns3:atemp>
          </ns3:TrackPointExtension>
        </extensions>
      </trkpt>
      <trkpt lat="42.58565448224544525146484375" lon="20.0918126665055751800537109375">
        <ele>2056.199951171875</ele>
        <time>2026-06-15T09:43:18.000Z</time>
        <extensions>
          <ns3:TrackPointExtension>
            <ns3:atemp>18.0</ns3:atemp>
          </ns3:TrackPointExtension>
        </extensions>
      </trkpt>
      <trkpt lat="42.58568054996430873870849609375" lon="20.09181124158203601837158203125">
        <ele>2056.39990234375</ele>
        <time>2026-06-15T09:43:19.000Z</time>
        <extensions>
          <ns3:TrackPointExtension>
            <ns3:atemp>18.0</ns3:atemp>
          </ns3:TrackPointExtension>
        </extensions>
      </trkpt>
      <trkpt lat="42.5857062824070453643798828125" lon="20.091811157763004302978515625">
        <ele>2056.60009765625</ele>
        <time>2026-06-15T09:43:20.000Z</time>
        <extensions>
          <ns3:TrackPointExtension>
            <ns3:atemp>18.0</ns3:atemp>
          </ns3:TrackPointExtension>
        </extensions>
      </trkpt>
      <trkpt lat="42.58573033846914768218994140625" lon="20.09181509725749492645263671875">
        <ele>2056.800048828125</ele>
        <time>2026-06-15T09:43:21.000Z</time>
        <extensions>
          <ns3:TrackPointExtension>
            <ns3:atemp>18.0</ns3:atemp>
          </ns3:TrackPointExtension>
        </extensions>
      </trkpt>
      <trkpt lat="42.58575196377933025360107421875" lon="20.0918180309236049652099609375">
        <ele>2057.199951171875</ele>
        <time>2026-06-15T09:43:22.000Z</time>
        <extensions>
          <ns3:TrackPointExtension>
            <ns3:atemp>18.0</ns3:atemp>
          </ns3:TrackPointExtension>
        </extensions>
      </trkpt>
      <trkpt lat="42.58577518165111541748046875" lon="20.09182180278003215789794921875">
        <ele>2057.39990234375</ele>
        <time>2026-06-15T09:43:23.000Z</time>
        <extensions>
          <ns3:TrackPointExtension>
            <ns3:atemp>18.0</ns3:atemp>
          </ns3:TrackPointExtension>
        </extensions>
      </trkpt>
      <trkpt lat="42.5857968069612979888916015625" lon="20.091827251017093658447265625">
        <ele>2057.60009765625</ele>
        <time>2026-06-15T09:43:24.000Z</time>
        <extensions>
          <ns3:TrackPointExtension>
            <ns3:atemp>18.0</ns3:atemp>
          </ns3:TrackPointExtension>
        </extensions>
      </trkpt>
      <trkpt lat="42.58581751026213169097900390625" lon="20.0918304361402988433837890625">
        <ele>2057.800048828125</ele>
        <time>2026-06-15T09:43:25.000Z</time>
        <extensions>
          <ns3:TrackPointExtension>
            <ns3:atemp>18.0</ns3:atemp>
          </ns3:TrackPointExtension>
        </extensions>
      </trkpt>
      <trkpt lat="42.58584232069551944732666015625" lon="20.09183588437736034393310546875">
        <ele>2058</ele>
        <time>2026-06-15T09:43:26.000Z</time>
        <extensions>
          <ns3:TrackPointExtension>
            <ns3:atemp>18.0</ns3:atemp>
          </ns3:TrackPointExtension>
        </extensions>
      </trkpt>
      <trkpt lat="42.58586679585278034210205078125" lon="20.09184074588119983673095703125">
        <ele>2058.199951171875</ele>
        <time>2026-06-15T09:43:27.000Z</time>
        <extensions>
          <ns3:TrackPointExtension>
            <ns3:atemp>18.0</ns3:atemp>
          </ns3:TrackPointExtension>
        </extensions>
      </trkpt>
      <trkpt lat="42.5858873315155506134033203125" lon="20.0918451882898807525634765625">
        <ele>2058.60009765625</ele>
        <time>2026-06-15T09:43:28.000Z</time>
        <extensions>
          <ns3:TrackPointExtension>
            <ns3:atemp>18.0</ns3:atemp>
          </ns3:TrackPointExtension>
        </extensions>
      </trkpt>
      <trkpt lat="42.5859084539115428924560546875" lon="20.09185214526951313018798828125">
        <ele>2058.800048828125</ele>
        <time>2026-06-15T09:43:29.000Z</time>
        <extensions>
          <ns3:TrackPointExtension>
            <ns3:atemp>18.0</ns3:atemp>
          </ns3:TrackPointExtension>
        </extensions>
      </trkpt>
      <trkpt lat="42.5859299115836620330810546875" lon="20.09185885079205036163330078125">
        <ele>2059</ele>
        <time>2026-06-15T09:43:30.000Z</time>
        <extensions>
          <ns3:TrackPointExtension>
            <ns3:atemp>18.0</ns3:atemp>
          </ns3:TrackPointExtension>
        </extensions>
      </trkpt>
      <trkpt lat="42.58595145307481288909912109375" lon="20.09186756797134876251220703125">
        <ele>2059.39990234375</ele>
        <time>2026-06-15T09:43:31.000Z</time>
        <extensions>
          <ns3:TrackPointExtension>
            <ns3:atemp>18.0</ns3:atemp>
          </ns3:TrackPointExtension>
        </extensions>
      </trkpt>
      <trkpt lat="42.58597257547080516815185546875" lon="20.09187947027385234832763671875">
        <ele>2059.800048828125</ele>
        <time>2026-06-15T09:43:32.000Z</time>
        <extensions>
          <ns3:TrackPointExtension>
            <ns3:atemp>18.0</ns3:atemp>
          </ns3:TrackPointExtension>
        </extensions>
      </trkpt>
      <trkpt lat="42.58599403314292430877685546875" lon="20.091892965137958526611328125">
        <ele>2060</ele>
        <time>2026-06-15T09:43:33.000Z</time>
        <extensions>
          <ns3:TrackPointExtension>
            <ns3:atemp>18.0</ns3:atemp>
          </ns3:TrackPointExtension>
        </extensions>
      </trkpt>
      <trkpt lat="42.5860160775482654571533203125" lon="20.0919001735746860504150390625">
        <ele>2060.199951171875</ele>
        <time>2026-06-15T09:43:34.000Z</time>
        <extensions>
          <ns3:TrackPointExtension>
            <ns3:atemp>18.0</ns3:atemp>
          </ns3:TrackPointExtension>
        </extensions>
      </trkpt>
      <trkpt lat="42.58603912778198719024658203125" lon="20.09191232733428478240966796875">
        <ele>2060.39990234375</ele>
        <time>2026-06-15T09:43:35.000Z</time>
        <extensions>
          <ns3:TrackPointExtension>
            <ns3:atemp>18.0</ns3:atemp>
          </ns3:TrackPointExtension>
        </extensions>
      </trkpt>
      <trkpt lat="42.58605991490185260772705078125" lon="20.09192305617034435272216796875">
        <ele>2060.800048828125</ele>
        <time>2026-06-15T09:43:36.000Z</time>
        <extensions>
          <ns3:TrackPointExtension>
            <ns3:atemp>18.0</ns3:atemp>
          </ns3:TrackPointExtension>
        </extensions>
      </trkpt>
      <trkpt lat="42.58607969619333744049072265625" lon="20.0919337011873722076416015625">
        <ele>2061</ele>
        <time>2026-06-15T09:43:37.000Z</time>
        <extensions>
          <ns3:TrackPointExtension>
            <ns3:atemp>18.0</ns3:atemp>
          </ns3:TrackPointExtension>
        </extensions>
      </trkpt>
      <trkpt lat="42.5861012376844882965087890625" lon="20.0919457711279392242431640625">
        <ele>2061.39990234375</ele>
        <time>2026-06-15T09:43:38.000Z</time>
        <extensions>
          <ns3:TrackPointExtension>
            <ns3:atemp>18.0</ns3:atemp>
          </ns3:TrackPointExtension>
        </extensions>
      </trkpt>
      <trkpt lat="42.58612160570919513702392578125" lon="20.0919564999639987945556640625">
        <ele>2061.60009765625</ele>
        <time>2026-06-15T09:43:39.000Z</time>
        <extensions>
          <ns3:TrackPointExtension>
            <ns3:atemp>18.0</ns3:atemp>
          </ns3:TrackPointExtension>
        </extensions>
      </trkpt>
      <trkpt lat="42.58614256046712398529052734375" lon="20.09196228347718715667724609375">
        <ele>2061.800048828125</ele>
        <time>2026-06-15T09:43:40.000Z</time>
        <extensions>
          <ns3:TrackPointExtension>
            <ns3:atemp>18.0</ns3:atemp>
          </ns3:TrackPointExtension>
        </extensions>
      </trkpt>
      <trkpt lat="42.58616468869149684906005859375" lon="20.09197108447551727294921875">
        <ele>2062</ele>
        <time>2026-06-15T09:43:41.000Z</time>
        <extensions>
          <ns3:TrackPointExtension>
            <ns3:atemp>18.0</ns3:atemp>
          </ns3:TrackPointExtension>
        </extensions>
      </trkpt>
      <trkpt lat="42.58618379943072795867919921875" lon="20.091978795826435089111328125">
        <ele>2062.199951171875</ele>
        <time>2026-06-15T09:43:42.000Z</time>
        <extensions>
          <ns3:TrackPointExtension>
            <ns3:atemp>18.0</ns3:atemp>
          </ns3:TrackPointExtension>
        </extensions>
      </trkpt>
      <trkpt lat="42.58620391599833965301513671875" lon="20.09198156185448169708251953125">
        <ele>2062.39990234375</ele>
        <time>2026-06-15T09:43:43.000Z</time>
        <extensions>
          <ns3:TrackPointExtension>
            <ns3:atemp>18.0</ns3:atemp>
          </ns3:TrackPointExtension>
        </extensions>
      </trkpt>
      <trkpt lat="42.58622386492788791656494140625" lon="20.091984160244464874267578125">
        <ele>2062.60009765625</ele>
        <time>2026-06-15T09:43:44.000Z</time>
        <extensions>
          <ns3:TrackPointExtension>
            <ns3:atemp>18.0</ns3:atemp>
          </ns3:TrackPointExtension>
        </extensions>
      </trkpt>
      <trkpt lat="42.58624632842838764190673828125" lon="20.09198994375765323638916015625">
        <ele>2063</ele>
        <time>2026-06-15T09:43:45.000Z</time>
        <extensions>
          <ns3:TrackPointExtension>
            <ns3:atemp>18.0</ns3:atemp>
          </ns3:TrackPointExtension>
        </extensions>
      </trkpt>
      <trkpt lat="42.58626946248114109039306640625" lon="20.09199463762342929840087890625">
        <ele>2063.199951171875</ele>
        <time>2026-06-15T09:43:46.000Z</time>
        <extensions>
          <ns3:TrackPointExtension>
            <ns3:atemp>18.0</ns3:atemp>
          </ns3:TrackPointExtension>
        </extensions>
      </trkpt>
      <trkpt lat="42.58629511110484600067138671875" lon="20.09200192987918853759765625">
        <ele>2063.39990234375</ele>
        <time>2026-06-15T09:43:47.000Z</time>
        <extensions>
          <ns3:TrackPointExtension>
            <ns3:atemp>18.0</ns3:atemp>
          </ns3:TrackPointExtension>
        </extensions>
      </trkpt>
      <trkpt lat="42.586314976215362548828125" lon="20.09200871922075748443603515625">
        <ele>2063.60009765625</ele>
        <time>2026-06-15T09:43:48.000Z</time>
        <extensions>
          <ns3:TrackPointExtension>
            <ns3:atemp>18.0</ns3:atemp>
          </ns3:TrackPointExtension>
        </extensions>
      </trkpt>
      <trkpt lat="42.58633584715425968170166015625" lon="20.09201559238135814666748046875">
        <ele>2064</ele>
        <time>2026-06-15T09:43:49.000Z</time>
        <extensions>
          <ns3:TrackPointExtension>
            <ns3:atemp>18.0</ns3:atemp>
          </ns3:TrackPointExtension>
        </extensions>
      </trkpt>
      <trkpt lat="42.58635931648313999176025390625" lon="20.09202363900840282440185546875">
        <ele>2064.199951171875</ele>
        <time>2026-06-15T09:43:50.000Z</time>
        <extensions>
          <ns3:TrackPointExtension>
            <ns3:atemp>18.0</ns3:atemp>
          </ns3:TrackPointExtension>
        </extensions>
      </trkpt>
      <trkpt lat="42.58638094179332256317138671875" lon="20.0920305959880352020263671875">
        <ele>2064.39990234375</ele>
        <time>2026-06-15T09:43:51.000Z</time>
        <extensions>
          <ns3:TrackPointExtension>
            <ns3:atemp>18.0</ns3:atemp>
          </ns3:TrackPointExtension>
        </extensions>
      </trkpt>
      <trkpt lat="42.5864060036838054656982421875" lon="20.092038474977016448974609375">
        <ele>2064.60009765625</ele>
        <time>2026-06-15T09:43:52.000Z</time>
        <extensions>
          <ns3:TrackPointExtension>
            <ns3:atemp>18.0</ns3:atemp>
          </ns3:TrackPointExtension>
        </extensions>
      </trkpt>
      <trkpt lat="42.5864289700984954833984375" lon="20.09204752743244171142578125">
        <ele>2064.800048828125</ele>
        <time>2026-06-15T09:43:53.000Z</time>
        <extensions>
          <ns3:TrackPointExtension>
            <ns3:atemp>18.0</ns3:atemp>
          </ns3:TrackPointExtension>
        </extensions>
      </trkpt>
      <trkpt lat="42.5864522717893123626708984375" lon="20.0920570828020572662353515625">
        <ele>2065.199951171875</ele>
        <time>2026-06-15T09:43:54.000Z</time>
        <extensions>
          <ns3:TrackPointExtension>
            <ns3:atemp>18.0</ns3:atemp>
          </ns3:TrackPointExtension>
        </extensions>
      </trkpt>
      <trkpt lat="42.5864774174988269805908203125" lon="20.0920691527426242828369140625">
        <ele>2065.39990234375</ele>
        <time>2026-06-15T09:43:55.000Z</time>
        <extensions>
          <ns3:TrackPointExtension>
            <ns3:atemp>18.0</ns3:atemp>
          </ns3:TrackPointExtension>
        </extensions>
      </trkpt>
      <trkpt lat="42.58650231175124645233154296875" lon="20.09208264760673046112060546875">
        <ele>2065.800048828125</ele>
        <time>2026-06-15T09:43:56.000Z</time>
        <extensions>
          <ns3:TrackPointExtension>
            <ns3:atemp>18.0</ns3:atemp>
          </ns3:TrackPointExtension>
        </extensions>
      </trkpt>
      <trkpt lat="42.58652511052787303924560546875" lon="20.09209589101374149322509765625">
        <ele>2066</ele>
        <time>2026-06-15T09:43:57.000Z</time>
        <extensions>
          <ns3:TrackPointExtension>
            <ns3:atemp>18.0</ns3:atemp>
          </ns3:TrackPointExtension>
        </extensions>
      </trkpt>
      <trkpt lat="42.5865441374480724334716796875" lon="20.092110224068164825439453125">
        <ele>2066.39990234375</ele>
        <time>2026-06-15T09:43:58.000Z</time>
        <extensions>
          <ns3:TrackPointExtension>
            <ns3:atemp>18.0</ns3:atemp>
          </ns3:TrackPointExtension>
        </extensions>
      </trkpt>
      <trkpt lat="42.5865659303963184356689453125" lon="20.09212531149387359619140625">
        <ele>2066.60009765625</ele>
        <time>2026-06-15T09:43:59.000Z</time>
        <extensions>
          <ns3:TrackPointExtension>
            <ns3:atemp>18.0</ns3:atemp>
          </ns3:TrackPointExtension>
        </extensions>
      </trkpt>
      <trkpt lat="42.58658965118229389190673828125" lon="20.092140734195709228515625">
        <ele>2066.800048828125</ele>
        <time>2026-06-15T09:44:00.000Z</time>
        <extensions>
          <ns3:TrackPointExtension>
            <ns3:atemp>18.0</ns3:atemp>
          </ns3:TrackPointExtension>
        </extensions>
      </trkpt>
      <trkpt lat="42.5866158865392208099365234375" lon="20.09215691126883029937744140625">
        <ele>2067.199951171875</ele>
        <time>2026-06-15T09:44:01.000Z</time>
        <extensions>
          <ns3:TrackPointExtension>
            <ns3:atemp>18.0</ns3:atemp>
          </ns3:TrackPointExtension>
        </extensions>
      </trkpt>
      <trkpt lat="42.58663885295391082763671875" lon="20.09217887185513973236083984375">
        <ele>2067.60009765625</ele>
        <time>2026-06-15T09:44:02.000Z</time>
        <extensions>
          <ns3:TrackPointExtension>
            <ns3:atemp>18.0</ns3:atemp>
          </ns3:TrackPointExtension>
        </extensions>
      </trkpt>
      <trkpt lat="42.58666056208312511444091796875" lon="20.09220150299370288848876953125">
        <ele>2067.800048828125</ele>
        <time>2026-06-15T09:44:03.000Z</time>
        <extensions>
          <ns3:TrackPointExtension>
            <ns3:atemp>18.0</ns3:atemp>
          </ns3:TrackPointExtension>
        </extensions>
      </trkpt>
      <trkpt lat="42.586684785783290863037109375" lon="20.0922171771526336669921875">
        <ele>2068</ele>
        <time>2026-06-15T09:44:04.000Z</time>
        <extensions>
          <ns3:TrackPointExtension>
            <ns3:atemp>18.0</ns3:atemp>
          </ns3:TrackPointExtension>
        </extensions>
      </trkpt>
      <trkpt lat="42.58671219460666179656982421875" lon="20.09223083965480327606201171875">
        <ele>2068.199951171875</ele>
        <time>2026-06-15T09:44:05.000Z</time>
        <extensions>
          <ns3:TrackPointExtension>
            <ns3:atemp>18.0</ns3:atemp>
          </ns3:TrackPointExtension>
        </extensions>
      </trkpt>
      <trkpt lat="42.58673935197293758392333984375" lon="20.09224106557667255401611328125">
        <ele>2068.39990234375</ele>
        <time>2026-06-15T09:44:06.000Z</time>
        <extensions>
          <ns3:TrackPointExtension>
            <ns3:atemp>18.0</ns3:atemp>
          </ns3:TrackPointExtension>
        </extensions>
      </trkpt>
      <trkpt lat="42.5867681019008159637451171875" lon="20.092248022556304931640625">
        <ele>2068.60009765625</ele>
        <time>2026-06-15T09:44:07.000Z</time>
        <extensions>
          <ns3:TrackPointExtension>
            <ns3:atemp>18.0</ns3:atemp>
          </ns3:TrackPointExtension>
        </extensions>
      </trkpt>
      <trkpt lat="42.5867989473044872283935546875" lon="20.09225808084011077880859375">
        <ele>2068.800048828125</ele>
        <time>2026-06-15T09:44:08.000Z</time>
        <extensions>
          <ns3:TrackPointExtension>
            <ns3:atemp>18.0</ns3:atemp>
          </ns3:TrackPointExtension>
        </extensions>
      </trkpt>
      <trkpt lat="42.58682786487042903900146484375" lon="20.09227006696164608001708984375">
        <ele>2068.800048828125</ele>
        <time>2026-06-15T09:44:09.000Z</time>
        <extensions>
          <ns3:TrackPointExtension>
            <ns3:atemp>18.0</ns3:atemp>
          </ns3:TrackPointExtension>
        </extensions>
      </trkpt>
      <trkpt lat="42.58685904555022716522216796875" lon="20.09228850714862346649169921875">
        <ele>2068.800048828125</ele>
        <time>2026-06-15T09:44:10.000Z</time>
        <extensions>
          <ns3:TrackPointExtension>
            <ns3:atemp>18.0</ns3:atemp>
          </ns3:TrackPointExtension>
        </extensions>
      </trkpt>
      <trkpt lat="42.586891986429691314697265625" lon="20.09230510331690311431884765625">
        <ele>2068.800048828125</ele>
        <time>2026-06-15T09:44:11.000Z</time>
        <extensions>
          <ns3:TrackPointExtension>
            <ns3:atemp>18.0</ns3:atemp>
          </ns3:TrackPointExtension>
        </extensions>
      </trkpt>
      <trkpt lat="42.58692576549947261810302734375" lon="20.092316754162311553955078125">
        <ele>2068.800048828125</ele>
        <time>2026-06-15T09:44:12.000Z</time>
        <extensions>
          <ns3:TrackPointExtension>
            <ns3:atemp>18.0</ns3:atemp>
          </ns3:TrackPointExtension>
        </extensions>
      </trkpt>
      <trkpt lat="42.58695862255990505218505859375" lon="20.09232823736965656280517578125">
        <ele>2069</ele>
        <time>2026-06-15T09:44:13.000Z</time>
        <extensions>
          <ns3:TrackPointExtension>
            <ns3:atemp>18.0</ns3:atemp>
          </ns3:TrackPointExtension>
        </extensions>
      </trkpt>
      <trkpt lat="42.58698846213519573211669921875" lon="20.0923459231853485107421875">
        <ele>2069</ele>
        <time>2026-06-15T09:44:14.000Z</time>
        <extensions>
          <ns3:TrackPointExtension>
            <ns3:atemp>18.0</ns3:atemp>
          </ns3:TrackPointExtension>
        </extensions>
      </trkpt>
      <trkpt lat="42.5870163738727569580078125" lon="20.09236536920070648193359375">
        <ele>2069.39990234375</ele>
        <time>2026-06-15T09:44:15.000Z</time>
        <extensions>
          <ns3:TrackPointExtension>
            <ns3:atemp>18.0</ns3:atemp>
          </ns3:TrackPointExtension>
        </extensions>
      </trkpt>
      <trkpt lat="42.58704512380063533782958984375" lon="20.0923833064734935760498046875">
        <ele>2069.60009765625</ele>
        <time>2026-06-15T09:44:16.000Z</time>
        <extensions>
          <ns3:TrackPointExtension>
            <ns3:atemp>18.0</ns3:atemp>
          </ns3:TrackPointExtension>
        </extensions>
      </trkpt>
      <trkpt lat="42.5870742090046405792236328125" lon="20.0924064405262470245361328125">
        <ele>2069.800048828125</ele>
        <time>2026-06-15T09:44:17.000Z</time>
        <extensions>
          <ns3:TrackPointExtension>
            <ns3:atemp>18.0</ns3:atemp>
          </ns3:TrackPointExtension>
        </extensions>
      </trkpt>
      <trkpt lat="42.5871048867702484130859375" lon="20.092431418597698211669921875">
        <ele>2070</ele>
        <time>2026-06-15T09:44:18.000Z</time>
        <extensions>
          <ns3:TrackPointExtension>
            <ns3:atemp>18.0</ns3:atemp>
          </ns3:TrackPointExtension>
        </extensions>
      </trkpt>
      <trkpt lat="42.58713372051715850830078125" lon="20.0924587436020374298095703125">
        <ele>2070.39990234375</ele>
        <time>2026-06-15T09:44:19.000Z</time>
        <extensions>
          <ns3:TrackPointExtension>
            <ns3:atemp>18.0</ns3:atemp>
          </ns3:TrackPointExtension>
        </extensions>
      </trkpt>
      <trkpt lat="42.5871603749692440032958984375" lon="20.0924875773489475250244140625">
        <ele>2070.60009765625</ele>
        <time>2026-06-15T09:44:20.000Z</time>
        <extensions>
          <ns3:TrackPointExtension>
            <ns3:atemp>18.0</ns3:atemp>
          </ns3:TrackPointExtension>
        </extensions>
      </trkpt>
      <trkpt lat="42.5871831737458705902099609375" lon="20.09251414798200130462646484375">
        <ele>2071</ele>
        <time>2026-06-15T09:44:21.000Z</time>
        <extensions>
          <ns3:TrackPointExtension>
            <ns3:atemp>18.0</ns3:atemp>
          </ns3:TrackPointExtension>
        </extensions>
      </trkpt>
      <trkpt lat="42.5872066430747509002685546875" lon="20.092539377510547637939453125">
        <ele>2071.39990234375</ele>
        <time>2026-06-15T09:44:22.000Z</time>
        <extensions>
          <ns3:TrackPointExtension>
            <ns3:atemp>18.0</ns3:atemp>
          </ns3:TrackPointExtension>
        </extensions>
      </trkpt>
      <trkpt lat="42.587231285870075225830078125" lon="20.09256309829652309417724609375">
        <ele>2071.60009765625</ele>
        <time>2026-06-15T09:44:23.000Z</time>
        <extensions>
          <ns3:TrackPointExtension>
            <ns3:atemp>18.0</ns3:atemp>
          </ns3:TrackPointExtension>
        </extensions>
      </trkpt>
      <trkpt lat="42.58725618012249469757080078125" lon="20.0925921835005283355712890625">
        <ele>2071.800048828125</ele>
        <time>2026-06-15T09:44:24.000Z</time>
        <extensions>
          <ns3:TrackPointExtension>
            <ns3:atemp>18.0</ns3:atemp>
          </ns3:TrackPointExtension>
        </extensions>
      </trkpt>
      <trkpt lat="42.58728266693651676177978515625" lon="20.0926169939339160919189453125">
        <ele>2072.199951171875</ele>
        <time>2026-06-15T09:44:25.000Z</time>
        <extensions>
          <ns3:TrackPointExtension>
            <ns3:atemp>18.0</ns3:atemp>
          </ns3:TrackPointExtension>
        </extensions>
      </trkpt>
      <trkpt lat="42.58731166832149028778076171875" lon="20.0926367752254009246826171875">
        <ele>2072.60009765625</ele>
        <time>2026-06-15T09:44:26.000Z</time>
        <extensions>
          <ns3:TrackPointExtension>
            <ns3:atemp>18.0</ns3:atemp>
          </ns3:TrackPointExtension>
        </extensions>
      </trkpt>
      <trkpt lat="42.58733689785003662109375" lon="20.0926505215466022491455078125">
        <ele>2072.800048828125</ele>
        <time>2026-06-15T09:44:27.000Z</time>
        <extensions>
          <ns3:TrackPointExtension>
            <ns3:atemp>18.0</ns3:atemp>
          </ns3:TrackPointExtension>
        </extensions>
      </trkpt>
      <trkpt lat="42.58736162446439266204833984375" lon="20.0926619209349155426025390625">
        <ele>2073</ele>
        <time>2026-06-15T09:44:28.000Z</time>
        <extensions>
          <ns3:TrackPointExtension>
            <ns3:atemp>18.0</ns3:atemp>
          </ns3:TrackPointExtension>
        </extensions>
      </trkpt>
      <trkpt lat="42.5873900391161441802978515625" lon="20.0926736555993556976318359375">
        <ele>2073.199951171875</ele>
        <time>2026-06-15T09:44:29.000Z</time>
        <extensions>
          <ns3:TrackPointExtension>
            <ns3:atemp>18.0</ns3:atemp>
          </ns3:TrackPointExtension>
        </extensions>
      </trkpt>
      <trkpt lat="42.5874188728630542755126953125" lon="20.0926830433309078216552734375">
        <ele>2073.39990234375</ele>
        <time>2026-06-15T09:44:30.000Z</time>
        <extensions>
          <ns3:TrackPointExtension>
            <ns3:atemp>18.0</ns3:atemp>
          </ns3:TrackPointExtension>
        </extensions>
      </trkpt>
      <trkpt lat="42.5874463655054569244384765625" lon="20.09269570000469684600830078125">
        <ele>2073.39990234375</ele>
        <time>2026-06-15T09:44:31.000Z</time>
        <extensions>
          <ns3:TrackPointExtension>
            <ns3:atemp>18.0</ns3:atemp>
          </ns3:TrackPointExtension>
        </extensions>
      </trkpt>
      <trkpt lat="42.5874755345284938812255859375" lon="20.09270198643207550048828125">
        <ele>2073.60009765625</ele>
        <time>2026-06-15T09:44:32.000Z</time>
        <extensions>
          <ns3:TrackPointExtension>
            <ns3:atemp>18.0</ns3:atemp>
          </ns3:TrackPointExtension>
        </extensions>
      </trkpt>
      <trkpt lat="42.5875060446560382843017578125" lon="20.0927038304507732391357421875">
        <ele>2073.60009765625</ele>
        <time>2026-06-15T09:44:33.000Z</time>
        <extensions>
          <ns3:TrackPointExtension>
            <ns3:atemp>18.0</ns3:atemp>
          </ns3:TrackPointExtension>
        </extensions>
      </trkpt>
      <trkpt lat="42.5875340402126312255859375" lon="20.09270559065043926239013671875">
        <ele>2073.800048828125</ele>
        <time>2026-06-15T09:44:34.000Z</time>
        <extensions>
          <ns3:TrackPointExtension>
            <ns3:atemp>18.0</ns3:atemp>
          </ns3:TrackPointExtension>
        </extensions>
      </trkpt>
      <trkpt lat="42.58755910210311412811279296875" lon="20.0927135534584522247314453125">
        <ele>2073.800048828125</ele>
        <time>2026-06-15T09:44:35.000Z</time>
        <extensions>
          <ns3:TrackPointExtension>
            <ns3:atemp>18.0</ns3:atemp>
          </ns3:TrackPointExtension>
        </extensions>
      </trkpt>
      <trkpt lat="42.5875804759562015533447265625" lon="20.0927169062197208404541015625">
        <ele>2073.800048828125</ele>
        <time>2026-06-15T09:44:36.000Z</time>
        <extensions>
          <ns3:TrackPointExtension>
            <ns3:atemp>18.0</ns3:atemp>
          </ns3:TrackPointExtension>
        </extensions>
      </trkpt>
      <trkpt lat="42.5876009277999401092529296875" lon="20.09271715767681598663330078125">
        <ele>2073.800048828125</ele>
        <time>2026-06-15T09:44:37.000Z</time>
        <extensions>
          <ns3:TrackPointExtension>
            <ns3:atemp>18.0</ns3:atemp>
          </ns3:TrackPointExtension>
        </extensions>
      </trkpt>
      <trkpt lat="42.587620206177234649658203125" lon="20.0927142240107059478759765625">
        <ele>2074</ele>
        <time>2026-06-15T09:44:38.000Z</time>
        <extensions>
          <ns3:TrackPointExtension>
            <ns3:atemp>18.0</ns3:atemp>
          </ns3:TrackPointExtension>
        </extensions>
      </trkpt>
      <trkpt lat="42.5876386463642120361328125" lon="20.0927145592868328094482421875">
        <ele>2074</ele>
        <time>2026-06-15T09:44:39.000Z</time>
        <extensions>
          <ns3:TrackPointExtension>
            <ns3:atemp>18.0</ns3:atemp>
          </ns3:TrackPointExtension>
        </extensions>
      </trkpt>
      <trkpt lat="42.587656080722808837890625" lon="20.09271950460970401763916015625">
        <ele>2074</ele>
        <time>2026-06-15T09:44:40.000Z</time>
        <extensions>
          <ns3:TrackPointExtension>
            <ns3:atemp>18.0</ns3:atemp>
          </ns3:TrackPointExtension>
        </extensions>
      </trkpt>
      <trkpt lat="42.587668485939502716064453125" lon="20.0927279703319072723388671875">
        <ele>2073.800048828125</ele>
        <time>2026-06-15T09:44:41.000Z</time>
        <extensions>
          <ns3:TrackPointExtension>
            <ns3:atemp>18.0</ns3:atemp>
          </ns3:TrackPointExtension>
        </extensions>
      </trkpt>
      <trkpt lat="42.58766991086304187774658203125" lon="20.0927340053021907806396484375">
        <ele>2073.800048828125</ele>
        <time>2026-06-15T09:44:42.000Z</time>
        <extensions>
          <ns3:TrackPointExtension>
            <ns3:atemp>18.0</ns3:atemp>
          </ns3:TrackPointExtension>
        </extensions>
      </trkpt>
      <trkpt lat="42.587669827044010162353515625" lon="20.0927340053021907806396484375">
        <ele>2073.60009765625</ele>
        <time>2026-06-15T09:44:43.000Z</time>
        <extensions>
          <ns3:TrackPointExtension>
            <ns3:atemp>18.0</ns3:atemp>
          </ns3:TrackPointExtension>
        </extensions>
      </trkpt>
      <trkpt lat="42.587669827044010162353515625" lon="20.09273392148315906524658203125">
        <ele>2073.39990234375</ele>
        <time>2026-06-15T09:44:44.000Z</time>
        <extensions>
          <ns3:TrackPointExtension>
            <ns3:atemp>18.0</ns3:atemp>
          </ns3:TrackPointExtension>
        </extensions>
      </trkpt>
      <trkpt lat="42.587669827044010162353515625" lon="20.09273392148315906524658203125">
        <ele>2073.39990234375</ele>
        <time>2026-06-15T09:44:45.000Z</time>
        <extensions>
          <ns3:TrackPointExtension>
            <ns3:atemp>18.0</ns3:atemp>
          </ns3:TrackPointExtension>
        </extensions>
      </trkpt>
      <trkpt lat="42.587669827044010162353515625" lon="20.09273392148315906524658203125">
        <ele>2073.39990234375</ele>
        <time>2026-06-15T09:44:46.000Z</time>
        <extensions>
          <ns3:TrackPointExtension>
            <ns3:atemp>18.0</ns3:atemp>
          </ns3:TrackPointExtension>
        </extensions>
      </trkpt>
      <trkpt lat="42.587669827044010162353515625" lon="20.09273392148315906524658203125">
        <ele>2073.39990234375</ele>
        <time>2026-06-15T09:44:47.000Z</time>
        <extensions>
          <ns3:TrackPointExtension>
            <ns3:atemp>18.0</ns3:atemp>
          </ns3:TrackPointExtension>
        </extensions>
      </trkpt>
      <trkpt lat="42.587669827044010162353515625" lon="20.09273392148315906524658203125">
        <ele>2073.39990234375</ele>
        <time>2026-06-15T09:44:48.000Z</time>
        <extensions>
          <ns3:TrackPointExtension>
            <ns3:atemp>18.0</ns3:atemp>
          </ns3:TrackPointExtension>
        </extensions>
      </trkpt>
      <trkpt lat="42.587669827044010162353515625" lon="20.09273392148315906524658203125">
        <ele>2073.39990234375</ele>
        <time>2026-06-15T09:44:49.000Z</time>
        <extensions>
          <ns3:TrackPointExtension>
            <ns3:atemp>18.0</ns3:atemp>
          </ns3:TrackPointExtension>
        </extensions>
      </trkpt>
      <trkpt lat="42.587669827044010162353515625" lon="20.09273392148315906524658203125">
        <ele>2073.39990234375</ele>
        <time>2026-06-15T09:44:50.000Z</time>
        <extensions>
          <ns3:TrackPointExtension>
            <ns3:atemp>18.0</ns3:atemp>
          </ns3:TrackPointExtension>
        </extensions>
      </trkpt>
      <trkpt lat="42.587669827044010162353515625" lon="20.09273392148315906524658203125">
        <ele>2073.39990234375</ele>
        <time>2026-06-15T09:44:51.000Z</time>
        <extensions>
          <ns3:TrackPointExtension>
            <ns3:atemp>18.0</ns3:atemp>
          </ns3:TrackPointExtension>
        </extensions>
      </trkpt>
      <trkpt lat="42.587669827044010162353515625" lon="20.09273392148315906524658203125">
        <ele>2073.39990234375</ele>
        <time>2026-06-15T09:44:52.000Z</time>
        <extensions>
          <ns3:TrackPointExtension>
            <ns3:atemp>18.0</ns3:atemp>
          </ns3:TrackPointExtension>
        </extensions>
      </trkpt>
      <trkpt lat="42.587669827044010162353515625" lon="20.09273392148315906524658203125">
        <ele>2073.39990234375</ele>
        <time>2026-06-15T09:44:53.000Z</time>
        <extensions>
          <ns3:TrackPointExtension>
            <ns3:atemp>18.0</ns3:atemp>
          </ns3:TrackPointExtension>
        </extensions>
      </trkpt>
      <trkpt lat="42.587669827044010162353515625" lon="20.09273392148315906524658203125">
        <ele>2073.39990234375</ele>
        <time>2026-06-15T09:44:54.000Z</time>
        <extensions>
          <ns3:TrackPointExtension>
            <ns3:atemp>18.0</ns3:atemp>
          </ns3:TrackPointExtension>
        </extensions>
      </trkpt>
      <trkpt lat="42.587669827044010162353515625" lon="20.09273392148315906524658203125">
        <ele>2073.39990234375</ele>
        <time>2026-06-15T09:44:55.000Z</time>
        <extensions>
          <ns3:TrackPointExtension>
            <ns3:atemp>18.0</ns3:atemp>
          </ns3:TrackPointExtension>
        </extensions>
      </trkpt>
      <trkpt lat="42.587669827044010162353515625" lon="20.09273392148315906524658203125">
        <ele>2073.199951171875</ele>
        <time>2026-06-15T09:44:56.000Z</time>
        <extensions>
          <ns3:TrackPointExtension>
            <ns3:atemp>18.0</ns3:atemp>
          </ns3:TrackPointExtension>
        </extensions>
      </trkpt>
      <trkpt lat="42.587669827044010162353515625" lon="20.09273392148315906524658203125">
        <ele>2073.199951171875</ele>
        <time>2026-06-15T09:44:57.000Z</time>
        <extensions>
          <ns3:TrackPointExtension>
            <ns3:atemp>18.0</ns3:atemp>
          </ns3:TrackPointExtension>
        </extensions>
      </trkpt>
      <trkpt lat="42.587669827044010162353515625" lon="20.09273392148315906524658203125">
        <ele>2073.39990234375</ele>
        <time>2026-06-15T09:44:58.000Z</time>
        <extensions>
          <ns3:TrackPointExtension>
            <ns3:atemp>18.0</ns3:atemp>
          </ns3:TrackPointExtension>
        </extensions>
      </trkpt>
      <trkpt lat="42.587669827044010162353515625" lon="20.09273392148315906524658203125">
        <ele>2073.199951171875</ele>
        <time>2026-06-15T09:44:59.000Z</time>
        <extensions>
          <ns3:TrackPointExtension>
            <ns3:atemp>18.0</ns3:atemp>
          </ns3:TrackPointExtension>
        </extensions>
      </trkpt>
      <trkpt lat="42.587669827044010162353515625" lon="20.09273392148315906524658203125">
        <ele>2073.199951171875</ele>
        <time>2026-06-15T09:45:00.000Z</time>
        <extensions>
          <ns3:TrackPointExtension>
            <ns3:atemp>18.0</ns3:atemp>
          </ns3:TrackPointExtension>
        </extensions>
      </trkpt>
      <trkpt lat="42.587669827044010162353515625" lon="20.09273392148315906524658203125">
        <ele>2073.39990234375</ele>
        <time>2026-06-15T09:45:01.000Z</time>
        <extensions>
          <ns3:TrackPointExtension>
            <ns3:atemp>18.0</ns3:atemp>
          </ns3:TrackPointExtension>
        </extensions>
      </trkpt>
      <trkpt lat="42.587669827044010162353515625" lon="20.09273392148315906524658203125">
        <ele>2073.39990234375</ele>
        <time>2026-06-15T09:45:02.000Z</time>
        <extensions>
          <ns3:TrackPointExtension>
            <ns3:atemp>18.0</ns3:atemp>
          </ns3:TrackPointExtension>
        </extensions>
      </trkpt>
      <trkpt lat="42.587669827044010162353515625" lon="20.09273392148315906524658203125">
        <ele>2073.199951171875</ele>
        <time>2026-06-15T09:45:03.000Z</time>
        <extensions>
          <ns3:TrackPointExtension>
            <ns3:atemp>18.0</ns3:atemp>
          </ns3:TrackPointExtension>
        </extensions>
      </trkpt>
      <trkpt lat="42.5876683183014392852783203125" lon="20.09273341856896877288818359375">
        <ele>2073.199951171875</ele>
        <time>2026-06-15T09:45:04.000Z</time>
        <extensions>
          <ns3:TrackPointExtension>
            <ns3:atemp>18.0</ns3:atemp>
          </ns3:TrackPointExtension>
        </extensions>
      </trkpt>
      <trkpt lat="42.58765918202698230743408203125" lon="20.09272989816963672637939453125">
        <ele>2073.199951171875</ele>
        <time>2026-06-15T09:45:05.000Z</time>
        <extensions>
          <ns3:TrackPointExtension>
            <ns3:atemp>18.0</ns3:atemp>
          </ns3:TrackPointExtension>
        </extensions>
      </trkpt>
      <trkpt lat="42.58765616454184055328369140625" lon="20.09272755123674869537353515625">
        <ele>2073</ele>
        <time>2026-06-15T09:45:06.000Z</time>
        <extensions>
          <ns3:TrackPointExtension>
            <ns3:atemp>18.0</ns3:atemp>
          </ns3:TrackPointExtension>
        </extensions>
      </trkpt>
      <trkpt lat="42.58765582926571369171142578125" lon="20.0927267968654632568359375">
        <ele>2073</ele>
        <time>2026-06-15T09:45:07.000Z</time>
        <extensions>
          <ns3:TrackPointExtension>
            <ns3:atemp>18.0</ns3:atemp>
          </ns3:TrackPointExtension>
        </extensions>
      </trkpt>
      <trkpt lat="42.58765281178057193756103515625" lon="20.09272771887481212615966796875">
        <ele>2073</ele>
        <time>2026-06-15T09:45:08.000Z</time>
        <extensions>
          <ns3:TrackPointExtension>
            <ns3:atemp>18.0</ns3:atemp>
          </ns3:TrackPointExtension>
        </extensions>
      </trkpt>
      <trkpt lat="42.58765080012381076812744140625" lon="20.0927272997796535491943359375">
        <ele>2073.199951171875</ele>
        <time>2026-06-15T09:45:09.000Z</time>
        <extensions>
          <ns3:TrackPointExtension>
            <ns3:atemp>18.0</ns3:atemp>
          </ns3:TrackPointExtension>
        </extensions>
      </trkpt>
      <trkpt lat="42.58765080012381076812744140625" lon="20.0927272997796535491943359375">
        <ele>2073.199951171875</ele>
        <time>2026-06-15T09:45:10.000Z</time>
        <extensions>
          <ns3:TrackPointExtension>
            <ns3:atemp>18.0</ns3:atemp>
          </ns3:TrackPointExtension>
        </extensions>
      </trkpt>
      <trkpt lat="42.58765080012381076812744140625" lon="20.0927272997796535491943359375">
        <ele>2073.39990234375</ele>
        <time>2026-06-15T09:45:11.000Z</time>
        <extensions>
          <ns3:TrackPointExtension>
            <ns3:atemp>18.0</ns3:atemp>
          </ns3:TrackPointExtension>
        </extensions>
      </trkpt>
      <trkpt lat="42.58765080012381076812744140625" lon="20.0927272997796535491943359375">
        <ele>2073.60009765625</ele>
        <time>2026-06-15T09:45:12.000Z</time>
        <extensions>
          <ns3:TrackPointExtension>
            <ns3:atemp>18.0</ns3:atemp>
          </ns3:TrackPointExtension>
        </extensions>
      </trkpt>
      <trkpt lat="42.58765080012381076812744140625" lon="20.0927272997796535491943359375">
        <ele>2073.60009765625</ele>
        <time>2026-06-15T09:45:13.000Z</time>
        <extensions>
          <ns3:TrackPointExtension>
            <ns3:atemp>18.0</ns3:atemp>
          </ns3:TrackPointExtension>
        </extensions>
      </trkpt>
      <trkpt lat="42.58765080012381076812744140625" lon="20.0927272997796535491943359375">
        <ele>2073.60009765625</ele>
        <time>2026-06-15T09:45:14.000Z</time>
        <extensions>
          <ns3:TrackPointExtension>
            <ns3:atemp>18.0</ns3:atemp>
          </ns3:TrackPointExtension>
        </extensions>
      </trkpt>
      <trkpt lat="42.58765080012381076812744140625" lon="20.0927272997796535491943359375">
        <ele>2073.39990234375</ele>
        <time>2026-06-15T09:45:15.000Z</time>
        <extensions>
          <ns3:TrackPointExtension>
            <ns3:atemp>18.0</ns3:atemp>
          </ns3:TrackPointExtension>
        </extensions>
      </trkpt>
      <trkpt lat="42.58765080012381076812744140625" lon="20.0927272997796535491943359375">
        <ele>2073.199951171875</ele>
        <time>2026-06-15T09:45:16.000Z</time>
        <extensions>
          <ns3:TrackPointExtension>
            <ns3:atemp>18.0</ns3:atemp>
          </ns3:TrackPointExtension>
        </extensions>
      </trkpt>
      <trkpt lat="42.58765080012381076812744140625" lon="20.0927272997796535491943359375">
        <ele>2073.199951171875</ele>
        <time>2026-06-15T09:45:17.000Z</time>
        <extensions>
          <ns3:TrackPointExtension>
            <ns3:atemp>18.0</ns3:atemp>
          </ns3:TrackPointExtension>
        </extensions>
      </trkpt>
      <trkpt lat="42.58765080012381076812744140625" lon="20.0927272997796535491943359375">
        <ele>2073</ele>
        <time>2026-06-15T09:45:18.000Z</time>
        <extensions>
          <ns3:TrackPointExtension>
            <ns3:atemp>18.0</ns3:atemp>
          </ns3:TrackPointExtension>
        </extensions>
      </trkpt>
      <trkpt lat="42.58765080012381076812744140625" lon="20.0927272997796535491943359375">
        <ele>2073</ele>
        <time>2026-06-15T09:45:19.000Z</time>
        <extensions>
          <ns3:TrackPointExtension>
            <ns3:atemp>18.0</ns3:atemp>
          </ns3:TrackPointExtension>
        </extensions>
      </trkpt>
      <trkpt lat="42.58765080012381076812744140625" lon="20.0927272997796535491943359375">
        <ele>2073.199951171875</ele>
        <time>2026-06-15T09:45:20.000Z</time>
        <extensions>
          <ns3:TrackPointExtension>
            <ns3:atemp>18.0</ns3:atemp>
          </ns3:TrackPointExtension>
        </extensions>
      </trkpt>
      <trkpt lat="42.58765080012381076812744140625" lon="20.0927272997796535491943359375">
        <ele>2073.199951171875</ele>
        <time>2026-06-15T09:45:21.000Z</time>
        <extensions>
          <ns3:TrackPointExtension>
            <ns3:atemp>18.0</ns3:atemp>
          </ns3:TrackPointExtension>
        </extensions>
      </trkpt>
      <trkpt lat="42.58765080012381076812744140625" lon="20.0927272997796535491943359375">
        <ele>2073.39990234375</ele>
        <time>2026-06-15T09:45:22.000Z</time>
        <extensions>
          <ns3:TrackPointExtension>
            <ns3:atemp>18.0</ns3:atemp>
          </ns3:TrackPointExtension>
        </extensions>
      </trkpt>
      <trkpt lat="42.58765080012381076812744140625" lon="20.0927272997796535491943359375">
        <ele>2073.39990234375</ele>
        <time>2026-06-15T09:45:23.000Z</time>
        <extensions>
          <ns3:TrackPointExtension>
            <ns3:atemp>18.0</ns3:atemp>
          </ns3:TrackPointExtension>
        </extensions>
      </trkpt>
      <trkpt lat="42.58765080012381076812744140625" lon="20.0927272997796535491943359375">
        <ele>2073.39990234375</ele>
        <time>2026-06-15T09:45:24.000Z</time>
        <extensions>
          <ns3:TrackPointExtension>
            <ns3:atemp>18.0</ns3:atemp>
          </ns3:TrackPointExtension>
        </extensions>
      </trkpt>
      <trkpt lat="42.58765080012381076812744140625" lon="20.0927272997796535491943359375">
        <ele>2073.199951171875</ele>
        <time>2026-06-15T09:45:25.000Z</time>
        <extensions>
          <ns3:TrackPointExtension>
            <ns3:atemp>18.0</ns3:atemp>
          </ns3:TrackPointExtension>
        </extensions>
      </trkpt>
      <trkpt lat="42.58765247650444507598876953125" lon="20.09272403083741664886474609375">
        <ele>2073</ele>
        <time>2026-06-15T09:45:26.000Z</time>
        <extensions>
          <ns3:TrackPointExtension>
            <ns3:atemp>18.0</ns3:atemp>
          </ns3:TrackPointExtension>
        </extensions>
      </trkpt>
      <trkpt lat="42.58766739629209041595458984375" lon="20.09272654540836811065673828125">
        <ele>2073</ele>
        <time>2026-06-15T09:45:27.000Z</time>
        <extensions>
          <ns3:TrackPointExtension>
            <ns3:atemp>18.0</ns3:atemp>
          </ns3:TrackPointExtension>
        </extensions>
      </trkpt>
      <trkpt lat="42.5876767002046108245849609375" lon="20.0927366875112056732177734375">
        <ele>2072.800048828125</ele>
        <time>2026-06-15T09:45:28.000Z</time>
        <extensions>
          <ns3:TrackPointExtension>
            <ns3:atemp>18.0</ns3:atemp>
          </ns3:TrackPointExtension>
        </extensions>
      </trkpt>
      <trkpt lat="42.58768348954617977142333984375" lon="20.09274892508983612060546875">
        <ele>2072.800048828125</ele>
        <time>2026-06-15T09:45:29.000Z</time>
        <extensions>
          <ns3:TrackPointExtension>
            <ns3:atemp>18.0</ns3:atemp>
          </ns3:TrackPointExtension>
        </extensions>
      </trkpt>
      <trkpt lat="42.58768365718424320220947265625" lon="20.09274892508983612060546875">
        <ele>2072.800048828125</ele>
        <time>2026-06-15T09:45:30.000Z</time>
        <extensions>
          <ns3:TrackPointExtension>
            <ns3:atemp>18.0</ns3:atemp>
          </ns3:TrackPointExtension>
        </extensions>
      </trkpt>
      <trkpt lat="42.58768365718424320220947265625" lon="20.09274892508983612060546875">
        <ele>2072.800048828125</ele>
        <time>2026-06-15T09:45:31.000Z</time>
        <extensions>
          <ns3:TrackPointExtension>
            <ns3:atemp>18.0</ns3:atemp>
          </ns3:TrackPointExtension>
        </extensions>
      </trkpt>
      <trkpt lat="42.58768365718424320220947265625" lon="20.09274892508983612060546875">
        <ele>2072.800048828125</ele>
        <time>2026-06-15T09:45:32.000Z</time>
        <extensions>
          <ns3:TrackPointExtension>
            <ns3:atemp>18.0</ns3:atemp>
          </ns3:TrackPointExtension>
        </extensions>
      </trkpt>
      <trkpt lat="42.58768365718424320220947265625" lon="20.09274892508983612060546875">
        <ele>2072.800048828125</ele>
        <time>2026-06-15T09:45:33.000Z</time>
        <extensions>
          <ns3:TrackPointExtension>
            <ns3:atemp>18.0</ns3:atemp>
          </ns3:TrackPointExtension>
        </extensions>
      </trkpt>
      <trkpt lat="42.58768365718424320220947265625" lon="20.09274892508983612060546875">
        <ele>2072.60009765625</ele>
        <time>2026-06-15T09:45:34.000Z</time>
        <extensions>
          <ns3:TrackPointExtension>
            <ns3:atemp>18.0</ns3:atemp>
          </ns3:TrackPointExtension>
        </extensions>
      </trkpt>
      <trkpt lat="42.58768365718424320220947265625" lon="20.09274892508983612060546875">
        <ele>2072.60009765625</ele>
        <time>2026-06-15T09:45:35.000Z</time>
        <extensions>
          <ns3:TrackPointExtension>
            <ns3:atemp>18.0</ns3:atemp>
          </ns3:TrackPointExtension>
        </extensions>
      </trkpt>
      <trkpt lat="42.58768365718424320220947265625" lon="20.09274892508983612060546875">
        <ele>2072.60009765625</ele>
        <time>2026-06-15T09:45:36.000Z</time>
        <extensions>
          <ns3:TrackPointExtension>
            <ns3:atemp>18.0</ns3:atemp>
          </ns3:TrackPointExtension>
        </extensions>
      </trkpt>
      <trkpt lat="42.58768365718424320220947265625" lon="20.09274892508983612060546875">
        <ele>2072.60009765625</ele>
        <time>2026-06-15T09:45:37.000Z</time>
        <extensions>
          <ns3:TrackPointExtension>
            <ns3:atemp>18.0</ns3:atemp>
          </ns3:TrackPointExtension>
        </extensions>
      </trkpt>
      <trkpt lat="42.58768365718424320220947265625" lon="20.09274892508983612060546875">
        <ele>2072.60009765625</ele>
        <time>2026-06-15T09:45:38.000Z</time>
        <extensions>
          <ns3:TrackPointExtension>
            <ns3:atemp>18.0</ns3:atemp>
          </ns3:TrackPointExtension>
        </extensions>
      </trkpt>
      <trkpt lat="42.58768365718424320220947265625" lon="20.09274892508983612060546875">
        <ele>2072.60009765625</ele>
        <time>2026-06-15T09:45:39.000Z</time>
        <extensions>
          <ns3:TrackPointExtension>
            <ns3:atemp>18.0</ns3:atemp>
          </ns3:TrackPointExtension>
        </extensions>
      </trkpt>
      <trkpt lat="42.58768365718424320220947265625" lon="20.09274892508983612060546875">
        <ele>2072.39990234375</ele>
        <time>2026-06-15T09:45:40.000Z</time>
        <extensions>
          <ns3:TrackPointExtension>
            <ns3:atemp>18.0</ns3:atemp>
          </ns3:TrackPointExtension>
        </extensions>
      </trkpt>
      <trkpt lat="42.58768365718424320220947265625" lon="20.09274892508983612060546875">
        <ele>2072.39990234375</ele>
        <time>2026-06-15T09:45:41.000Z</time>
        <extensions>
          <ns3:TrackPointExtension>
            <ns3:atemp>18.0</ns3:atemp>
          </ns3:TrackPointExtension>
        </extensions>
      </trkpt>
      <trkpt lat="42.58768365718424320220947265625" lon="20.09274892508983612060546875">
        <ele>2072.39990234375</ele>
        <time>2026-06-15T09:45:42.000Z</time>
        <extensions>
          <ns3:TrackPointExtension>
            <ns3:atemp>18.0</ns3:atemp>
          </ns3:TrackPointExtension>
        </extensions>
      </trkpt>
      <trkpt lat="42.58768365718424320220947265625" lon="20.09274892508983612060546875">
        <ele>2072.39990234375</ele>
        <time>2026-06-15T09:45:43.000Z</time>
        <extensions>
          <ns3:TrackPointExtension>
            <ns3:atemp>18.0</ns3:atemp>
          </ns3:TrackPointExtension>
        </extensions>
      </trkpt>
      <trkpt lat="42.58768365718424320220947265625" lon="20.09274892508983612060546875">
        <ele>2072.39990234375</ele>
        <time>2026-06-15T09:45:44.000Z</time>
        <extensions>
          <ns3:TrackPointExtension>
            <ns3:atemp>18.0</ns3:atemp>
          </ns3:TrackPointExtension>
        </extensions>
      </trkpt>
      <trkpt lat="42.58768365718424320220947265625" lon="20.09274892508983612060546875">
        <ele>2072.199951171875</ele>
        <time>2026-06-15T09:45:45.000Z</time>
        <extensions>
          <ns3:TrackPointExtension>
            <ns3:atemp>18.0</ns3:atemp>
          </ns3:TrackPointExtension>
        </extensions>
      </trkpt>
      <trkpt lat="42.58768365718424320220947265625" lon="20.09274892508983612060546875">
        <ele>2072.199951171875</ele>
        <time>2026-06-15T09:45:46.000Z</time>
        <extensions>
          <ns3:TrackPointExtension>
            <ns3:atemp>18.0</ns3:atemp>
          </ns3:TrackPointExtension>
        </extensions>
      </trkpt>
      <trkpt lat="42.58768365718424320220947265625" lon="20.09274892508983612060546875">
        <ele>2072.199951171875</ele>
        <time>2026-06-15T09:45:47.000Z</time>
        <extensions>
          <ns3:TrackPointExtension>
            <ns3:atemp>18.0</ns3:atemp>
          </ns3:TrackPointExtension>
        </extensions>
      </trkpt>
      <trkpt lat="42.58768365718424320220947265625" lon="20.09274892508983612060546875">
        <ele>2072.199951171875</ele>
        <time>2026-06-15T09:45:48.000Z</time>
        <extensions>
          <ns3:TrackPointExtension>
            <ns3:atemp>18.0</ns3:atemp>
          </ns3:TrackPointExtension>
        </extensions>
      </trkpt>
      <trkpt lat="42.58768365718424320220947265625" lon="20.09274892508983612060546875">
        <ele>2072.199951171875</ele>
        <time>2026-06-15T09:45:49.000Z</time>
        <extensions>
          <ns3:TrackPointExtension>
            <ns3:atemp>18.0</ns3:atemp>
          </ns3:TrackPointExtension>
        </extensions>
      </trkpt>
      <trkpt lat="42.58768365718424320220947265625" lon="20.09274892508983612060546875">
        <ele>2072.199951171875</ele>
        <time>2026-06-15T09:45:50.000Z</time>
        <extensions>
          <ns3:TrackPointExtension>
            <ns3:atemp>18.0</ns3:atemp>
          </ns3:TrackPointExtension>
        </extensions>
      </trkpt>
      <trkpt lat="42.58768365718424320220947265625" lon="20.09274892508983612060546875">
        <ele>2072</ele>
        <time>2026-06-15T09:45:51.000Z</time>
        <extensions>
          <ns3:TrackPointExtension>
            <ns3:atemp>18.0</ns3:atemp>
          </ns3:TrackPointExtension>
        </extensions>
      </trkpt>
      <trkpt lat="42.58768365718424320220947265625" lon="20.09274892508983612060546875">
        <ele>2072</ele>
        <time>2026-06-15T09:45:52.000Z</time>
        <extensions>
          <ns3:TrackPointExtension>
            <ns3:atemp>18.0</ns3:atemp>
          </ns3:TrackPointExtension>
        </extensions>
      </trkpt>
      <trkpt lat="42.58768365718424320220947265625" lon="20.09274892508983612060546875">
        <ele>2072</ele>
        <time>2026-06-15T09:45:53.000Z</time>
        <extensions>
          <ns3:TrackPointExtension>
            <ns3:atemp>18.0</ns3:atemp>
          </ns3:TrackPointExtension>
        </extensions>
      </trkpt>
      <trkpt lat="42.58768365718424320220947265625" lon="20.09274892508983612060546875">
        <ele>2072</ele>
        <time>2026-06-15T09:45:54.000Z</time>
        <extensions>
          <ns3:TrackPointExtension>
            <ns3:atemp>18.0</ns3:atemp>
          </ns3:TrackPointExtension>
        </extensions>
      </trkpt>
      <trkpt lat="42.58768365718424320220947265625" lon="20.09274892508983612060546875">
        <ele>2071.800048828125</ele>
        <time>2026-06-15T09:45:55.000Z</time>
        <extensions>
          <ns3:TrackPointExtension>
            <ns3:atemp>18.0</ns3:atemp>
          </ns3:TrackPointExtension>
        </extensions>
      </trkpt>
      <trkpt lat="42.58768365718424320220947265625" lon="20.09274892508983612060546875">
        <ele>2071.800048828125</ele>
        <time>2026-06-15T09:45:56.000Z</time>
        <extensions>
          <ns3:TrackPointExtension>
            <ns3:atemp>18.0</ns3:atemp>
          </ns3:TrackPointExtension>
        </extensions>
      </trkpt>
      <trkpt lat="42.58768365718424320220947265625" lon="20.09274892508983612060546875">
        <ele>2071.800048828125</ele>
        <time>2026-06-15T09:45:57.000Z</time>
        <extensions>
          <ns3:TrackPointExtension>
            <ns3:atemp>18.0</ns3:atemp>
          </ns3:TrackPointExtension>
        </extensions>
      </trkpt>
      <trkpt lat="42.58768365718424320220947265625" lon="20.09274892508983612060546875">
        <ele>2071.800048828125</ele>
        <time>2026-06-15T09:45:58.000Z</time>
        <extensions>
          <ns3:TrackPointExtension>
            <ns3:atemp>18.0</ns3:atemp>
          </ns3:TrackPointExtension>
        </extensions>
      </trkpt>
      <trkpt lat="42.58768365718424320220947265625" lon="20.09274892508983612060546875">
        <ele>2071.800048828125</ele>
        <time>2026-06-15T09:45:59.000Z</time>
        <extensions>
          <ns3:TrackPointExtension>
            <ns3:atemp>18.0</ns3:atemp>
          </ns3:TrackPointExtension>
        </extensions>
      </trkpt>
      <trkpt lat="42.58768365718424320220947265625" lon="20.09274892508983612060546875">
        <ele>2071.800048828125</ele>
        <time>2026-06-15T09:46:00.000Z</time>
        <extensions>
          <ns3:TrackPointExtension>
            <ns3:atemp>18.0</ns3:atemp>
          </ns3:TrackPointExtension>
        </extensions>
      </trkpt>
      <trkpt lat="42.58768365718424320220947265625" lon="20.09274892508983612060546875">
        <ele>2071.800048828125</ele>
        <time>2026-06-15T09:46:01.000Z</time>
        <extensions>
          <ns3:TrackPointExtension>
            <ns3:atemp>18.0</ns3:atemp>
          </ns3:TrackPointExtension>
        </extensions>
      </trkpt>
      <trkpt lat="42.58768365718424320220947265625" lon="20.09274892508983612060546875">
        <ele>2071.800048828125</ele>
        <time>2026-06-15T09:46:02.000Z</time>
        <extensions>
          <ns3:TrackPointExtension>
            <ns3:atemp>18.0</ns3:atemp>
          </ns3:TrackPointExtension>
        </extensions>
      </trkpt>
      <trkpt lat="42.58768365718424320220947265625" lon="20.09274892508983612060546875">
        <ele>2071.800048828125</ele>
        <time>2026-06-15T09:46:03.000Z</time>
        <extensions>
          <ns3:TrackPointExtension>
            <ns3:atemp>18.0</ns3:atemp>
          </ns3:TrackPointExtension>
        </extensions>
      </trkpt>
      <trkpt lat="42.58769161999225616455078125" lon="20.09275135584175586700439453125">
        <ele>2071.800048828125</ele>
        <time>2026-06-15T09:46:04.000Z</time>
        <extensions>
          <ns3:TrackPointExtension>
            <ns3:atemp>18.0</ns3:atemp>
          </ns3:TrackPointExtension>
        </extensions>
      </trkpt>
      <trkpt lat="42.58769958280026912689208984375" lon="20.0927410461008548736572265625">
        <ele>2071.800048828125</ele>
        <time>2026-06-15T09:46:05.000Z</time>
        <extensions>
          <ns3:TrackPointExtension>
            <ns3:atemp>18.0</ns3:atemp>
          </ns3:TrackPointExtension>
        </extensions>
      </trkpt>
      <trkpt lat="42.58770746178925037384033203125" lon="20.0927319936454296112060546875">
        <ele>2071.800048828125</ele>
        <time>2026-06-15T09:46:06.000Z</time>
        <extensions>
          <ns3:TrackPointExtension>
            <ns3:atemp>18.0</ns3:atemp>
          </ns3:TrackPointExtension>
        </extensions>
      </trkpt>
      <trkpt lat="42.58771416731178760528564453125" lon="20.092727132141590118408203125">
        <ele>2072</ele>
        <time>2026-06-15T09:46:07.000Z</time>
        <extensions>
          <ns3:TrackPointExtension>
            <ns3:atemp>18.0</ns3:atemp>
          </ns3:TrackPointExtension>
        </extensions>
      </trkpt>
      <trkpt lat="42.58771416731178760528564453125" lon="20.092727132141590118408203125">
        <ele>2072</ele>
        <time>2026-06-15T09:46:08.000Z</time>
        <extensions>
          <ns3:TrackPointExtension>
            <ns3:atemp>18.0</ns3:atemp>
          </ns3:TrackPointExtension>
        </extensions>
      </trkpt>
      <trkpt lat="42.5877279974520206451416015625" lon="20.09272168390452861785888671875">
        <ele>2072</ele>
        <time>2026-06-15T09:46:09.000Z</time>
        <extensions>
          <ns3:TrackPointExtension>
            <ns3:atemp>18.0</ns3:atemp>
          </ns3:TrackPointExtension>
        </extensions>
      </trkpt>
      <trkpt lat="42.5877279974520206451416015625" lon="20.09272168390452861785888671875">
        <ele>2072.199951171875</ele>
        <time>2026-06-15T09:46:10.000Z</time>
        <extensions>
          <ns3:TrackPointExtension>
            <ns3:atemp>18.0</ns3:atemp>
          </ns3:TrackPointExtension>
        </extensions>
      </trkpt>
      <trkpt lat="42.58772917091846466064453125" lon="20.09272637777030467987060546875">
        <ele>2072.199951171875</ele>
        <time>2026-06-15T09:46:11.000Z</time>
        <extensions>
          <ns3:TrackPointExtension>
            <ns3:atemp>18.0</ns3:atemp>
          </ns3:TrackPointExtension>
        </extensions>
      </trkpt>
      <trkpt lat="42.58772925473749637603759765625" lon="20.09272621013224124908447265625">
        <ele>2072.199951171875</ele>
        <time>2026-06-15T09:46:12.000Z</time>
        <extensions>
          <ns3:TrackPointExtension>
            <ns3:atemp>18.0</ns3:atemp>
          </ns3:TrackPointExtension>
        </extensions>
      </trkpt>
      <trkpt lat="42.58772925473749637603759765625" lon="20.09272621013224124908447265625">
        <ele>2072</ele>
        <time>2026-06-15T09:46:13.000Z</time>
        <extensions>
          <ns3:TrackPointExtension>
            <ns3:atemp>18.0</ns3:atemp>
          </ns3:TrackPointExtension>
        </extensions>
      </trkpt>
      <trkpt lat="42.58772925473749637603759765625" lon="20.09272621013224124908447265625">
        <ele>2072</ele>
        <time>2026-06-15T09:46:14.000Z</time>
        <extensions>
          <ns3:TrackPointExtension>
            <ns3:atemp>18.0</ns3:atemp>
          </ns3:TrackPointExtension>
        </extensions>
      </trkpt>
      <trkpt lat="42.58772925473749637603759765625" lon="20.09272621013224124908447265625">
        <ele>2072.199951171875</ele>
        <time>2026-06-15T09:46:15.000Z</time>
        <extensions>
          <ns3:TrackPointExtension>
            <ns3:atemp>18.0</ns3:atemp>
          </ns3:TrackPointExtension>
        </extensions>
      </trkpt>
      <trkpt lat="42.5877296738326549530029296875" lon="20.092725791037082672119140625">
        <ele>2072.199951171875</ele>
        <time>2026-06-15T09:46:16.000Z</time>
        <extensions>
          <ns3:TrackPointExtension>
            <ns3:atemp>18.0</ns3:atemp>
          </ns3:TrackPointExtension>
        </extensions>
      </trkpt>
      <trkpt lat="42.58775825612246990203857421875" lon="20.0927393697202205657958984375">
        <ele>2072</ele>
        <time>2026-06-15T09:46:17.000Z</time>
        <extensions>
          <ns3:TrackPointExtension>
            <ns3:atemp>18.0</ns3:atemp>
          </ns3:TrackPointExtension>
        </extensions>
      </trkpt>
      <trkpt lat="42.5877682305872440338134765625" lon="20.09274624288082122802734375">
        <ele>2072</ele>
        <time>2026-06-15T09:46:18.000Z</time>
        <extensions>
          <ns3:TrackPointExtension>
            <ns3:atemp>18.0</ns3:atemp>
          </ns3:TrackPointExtension>
        </extensions>
      </trkpt>
      <trkpt lat="42.58777485229074954986572265625" lon="20.09275621734559535980224609375">
        <ele>2071.800048828125</ele>
        <time>2026-06-15T09:46:19.000Z</time>
        <extensions>
          <ns3:TrackPointExtension>
            <ns3:atemp>18.0</ns3:atemp>
          </ns3:TrackPointExtension>
        </extensions>
      </trkpt>
      <trkpt lat="42.5877729244530200958251953125" lon="20.09276309050619602203369140625">
        <ele>2071.800048828125</ele>
        <time>2026-06-15T09:46:20.000Z</time>
        <extensions>
          <ns3:TrackPointExtension>
            <ns3:atemp>18.0</ns3:atemp>
          </ns3:TrackPointExtension>
        </extensions>
      </trkpt>
      <trkpt lat="42.5877729244530200958251953125" lon="20.09276309050619602203369140625">
        <ele>2071.800048828125</ele>
        <time>2026-06-15T09:46:21.000Z</time>
        <extensions>
          <ns3:TrackPointExtension>
            <ns3:atemp>18.0</ns3:atemp>
          </ns3:TrackPointExtension>
        </extensions>
      </trkpt>
      <trkpt lat="42.5877752713859081268310546875" lon="20.0927604921162128448486328125">
        <ele>2071.800048828125</ele>
        <time>2026-06-15T09:46:22.000Z</time>
        <extensions>
          <ns3:TrackPointExtension>
            <ns3:atemp>18.0</ns3:atemp>
          </ns3:TrackPointExtension>
        </extensions>
      </trkpt>
      <trkpt lat="42.5877752713859081268310546875" lon="20.0927604921162128448486328125">
        <ele>2072</ele>
        <time>2026-06-15T09:46:23.000Z</time>
        <extensions>
          <ns3:TrackPointExtension>
            <ns3:atemp>18.0</ns3:atemp>
          </ns3:TrackPointExtension>
        </extensions>
      </trkpt>
      <trkpt lat="42.5877752713859081268310546875" lon="20.0927604921162128448486328125">
        <ele>2072</ele>
        <time>2026-06-15T09:46:24.000Z</time>
        <extensions>
          <ns3:TrackPointExtension>
            <ns3:atemp>18.0</ns3:atemp>
          </ns3:TrackPointExtension>
        </extensions>
      </trkpt>
      <trkpt lat="42.5877752713859081268310546875" lon="20.0927604921162128448486328125">
        <ele>2072</ele>
        <time>2026-06-15T09:46:25.000Z</time>
        <extensions>
          <ns3:TrackPointExtension>
            <ns3:atemp>18.0</ns3:atemp>
          </ns3:TrackPointExtension>
        </extensions>
      </trkpt>
      <trkpt lat="42.5877752713859081268310546875" lon="20.0927604921162128448486328125">
        <ele>2072</ele>
        <time>2026-06-15T09:46:26.000Z</time>
        <extensions>
          <ns3:TrackPointExtension>
            <ns3:atemp>18.0</ns3:atemp>
          </ns3:TrackPointExtension>
        </extensions>
      </trkpt>
      <trkpt lat="42.5877752713859081268310546875" lon="20.0927604921162128448486328125">
        <ele>2072</ele>
        <time>2026-06-15T09:46:27.000Z</time>
        <extensions>
          <ns3:TrackPointExtension>
            <ns3:atemp>18.0</ns3:atemp>
          </ns3:TrackPointExtension>
        </extensions>
      </trkpt>
      <trkpt lat="42.5877752713859081268310546875" lon="20.0927604921162128448486328125">
        <ele>2072</ele>
        <time>2026-06-15T09:46:28.000Z</time>
        <extensions>
          <ns3:TrackPointExtension>
            <ns3:atemp>18.0</ns3:atemp>
          </ns3:TrackPointExtension>
        </extensions>
      </trkpt>
      <trkpt lat="42.5877752713859081268310546875" lon="20.0927604921162128448486328125">
        <ele>2072</ele>
        <time>2026-06-15T09:46:29.000Z</time>
        <extensions>
          <ns3:TrackPointExtension>
            <ns3:atemp>18.0</ns3:atemp>
          </ns3:TrackPointExtension>
        </extensions>
      </trkpt>
      <trkpt lat="42.5877752713859081268310546875" lon="20.0927604921162128448486328125">
        <ele>2072</ele>
        <time>2026-06-15T09:46:30.000Z</time>
        <extensions>
          <ns3:TrackPointExtension>
            <ns3:atemp>18.0</ns3:atemp>
          </ns3:TrackPointExtension>
        </extensions>
      </trkpt>
      <trkpt lat="42.5877752713859081268310546875" lon="20.0927604921162128448486328125">
        <ele>2072</ele>
        <time>2026-06-15T09:46:31.000Z</time>
        <extensions>
          <ns3:TrackPointExtension>
            <ns3:atemp>18.0</ns3:atemp>
          </ns3:TrackPointExtension>
        </extensions>
      </trkpt>
      <trkpt lat="42.5877752713859081268310546875" lon="20.0927604921162128448486328125">
        <ele>2072.199951171875</ele>
        <time>2026-06-15T09:46:32.000Z</time>
        <extensions>
          <ns3:TrackPointExtension>
            <ns3:atemp>18.0</ns3:atemp>
          </ns3:TrackPointExtension>
        </extensions>
      </trkpt>
      <trkpt lat="42.5877752713859081268310546875" lon="20.0927604921162128448486328125">
        <ele>2072.199951171875</ele>
        <time>2026-06-15T09:46:33.000Z</time>
        <extensions>
          <ns3:TrackPointExtension>
            <ns3:atemp>18.0</ns3:atemp>
          </ns3:TrackPointExtension>
        </extensions>
      </trkpt>
      <trkpt lat="42.5877752713859081268310546875" lon="20.0927604921162128448486328125">
        <ele>2072.199951171875</ele>
        <time>2026-06-15T09:46:34.000Z</time>
        <extensions>
          <ns3:TrackPointExtension>
            <ns3:atemp>18.0</ns3:atemp>
          </ns3:TrackPointExtension>
        </extensions>
      </trkpt>
      <trkpt lat="42.5877752713859081268310546875" lon="20.0927604921162128448486328125">
        <ele>2072.199951171875</ele>
        <time>2026-06-15T09:46:35.000Z</time>
        <extensions>
          <ns3:TrackPointExtension>
            <ns3:atemp>18.0</ns3:atemp>
          </ns3:TrackPointExtension>
        </extensions>
      </trkpt>
      <trkpt lat="42.5877752713859081268310546875" lon="20.0927604921162128448486328125">
        <ele>2072.199951171875</ele>
        <time>2026-06-15T09:46:36.000Z</time>
        <extensions>
          <ns3:TrackPointExtension>
            <ns3:atemp>18.0</ns3:atemp>
          </ns3:TrackPointExtension>
        </extensions>
      </trkpt>
      <trkpt lat="42.5877752713859081268310546875" lon="20.0927604921162128448486328125">
        <ele>2072.199951171875</ele>
        <time>2026-06-15T09:46:37.000Z</time>
        <extensions>
          <ns3:TrackPointExtension>
            <ns3:atemp>18.0</ns3:atemp>
          </ns3:TrackPointExtension>
        </extensions>
      </trkpt>
      <trkpt lat="42.5877752713859081268310546875" lon="20.0927604921162128448486328125">
        <ele>2072.199951171875</ele>
        <time>2026-06-15T09:46:38.000Z</time>
        <extensions>
          <ns3:TrackPointExtension>
            <ns3:atemp>18.0</ns3:atemp>
          </ns3:TrackPointExtension>
        </extensions>
      </trkpt>
      <trkpt lat="42.5877752713859081268310546875" lon="20.0927604921162128448486328125">
        <ele>2072.199951171875</ele>
        <time>2026-06-15T09:46:39.000Z</time>
        <extensions>
          <ns3:TrackPointExtension>
            <ns3:atemp>18.0</ns3:atemp>
          </ns3:TrackPointExtension>
        </extensions>
      </trkpt>
      <trkpt lat="42.5877752713859081268310546875" lon="20.0927604921162128448486328125">
        <ele>2072</ele>
        <time>2026-06-15T09:46:40.000Z</time>
        <extensions>
          <ns3:TrackPointExtension>
            <ns3:atemp>18.0</ns3:atemp>
          </ns3:TrackPointExtension>
        </extensions>
      </trkpt>
      <trkpt lat="42.5877752713859081268310546875" lon="20.0927604921162128448486328125">
        <ele>2072</ele>
        <time>2026-06-15T09:46:41.000Z</time>
        <extensions>
          <ns3:TrackPointExtension>
            <ns3:atemp>18.0</ns3:atemp>
          </ns3:TrackPointExtension>
        </extensions>
      </trkpt>
      <trkpt lat="42.5877752713859081268310546875" lon="20.0927604921162128448486328125">
        <ele>2072</ele>
        <time>2026-06-15T09:46:42.000Z</time>
        <extensions>
          <ns3:TrackPointExtension>
            <ns3:atemp>18.0</ns3:atemp>
          </ns3:TrackPointExtension>
        </extensions>
      </trkpt>
      <trkpt lat="42.5877752713859081268310546875" lon="20.0927604921162128448486328125">
        <ele>2072</ele>
        <time>2026-06-15T09:46:43.000Z</time>
        <extensions>
          <ns3:TrackPointExtension>
            <ns3:atemp>18.0</ns3:atemp>
          </ns3:TrackPointExtension>
        </extensions>
      </trkpt>
      <trkpt lat="42.5877752713859081268310546875" lon="20.0927604921162128448486328125">
        <ele>2072</ele>
        <time>2026-06-15T09:46:44.000Z</time>
        <extensions>
          <ns3:TrackPointExtension>
            <ns3:atemp>18.0</ns3:atemp>
          </ns3:TrackPointExtension>
        </extensions>
      </trkpt>
      <trkpt lat="42.5877752713859081268310546875" lon="20.0927604921162128448486328125">
        <ele>2072</ele>
        <time>2026-06-15T09:46:45.000Z</time>
        <extensions>
          <ns3:TrackPointExtension>
            <ns3:atemp>18.0</ns3:atemp>
          </ns3:TrackPointExtension>
        </extensions>
      </trkpt>
      <trkpt lat="42.5877752713859081268310546875" lon="20.0927604921162128448486328125">
        <ele>2072</ele>
        <time>2026-06-15T09:46:46.000Z</time>
        <extensions>
          <ns3:TrackPointExtension>
            <ns3:atemp>18.0</ns3:atemp>
          </ns3:TrackPointExtension>
        </extensions>
      </trkpt>
      <trkpt lat="42.5877752713859081268310546875" lon="20.0927604921162128448486328125">
        <ele>2072</ele>
        <time>2026-06-15T09:46:47.000Z</time>
        <extensions>
          <ns3:TrackPointExtension>
            <ns3:atemp>18.0</ns3:atemp>
          </ns3:TrackPointExtension>
        </extensions>
      </trkpt>
      <trkpt lat="42.5877752713859081268310546875" lon="20.0927604921162128448486328125">
        <ele>2072</ele>
        <time>2026-06-15T09:46:48.000Z</time>
        <extensions>
          <ns3:TrackPointExtension>
            <ns3:atemp>18.0</ns3:atemp>
          </ns3:TrackPointExtension>
        </extensions>
      </trkpt>
      <trkpt lat="42.5877752713859081268310546875" lon="20.0927604921162128448486328125">
        <ele>2072</ele>
        <time>2026-06-15T09:46:49.000Z</time>
        <extensions>
          <ns3:TrackPointExtension>
            <ns3:atemp>18.0</ns3:atemp>
          </ns3:TrackPointExtension>
        </extensions>
      </trkpt>
      <trkpt lat="42.5877752713859081268310546875" lon="20.0927604921162128448486328125">
        <ele>2072</ele>
        <time>2026-06-15T09:46:50.000Z</time>
        <extensions>
          <ns3:TrackPointExtension>
            <ns3:atemp>18.0</ns3:atemp>
          </ns3:TrackPointExtension>
        </extensions>
      </trkpt>
      <trkpt lat="42.5877752713859081268310546875" lon="20.0927604921162128448486328125">
        <ele>2072</ele>
        <time>2026-06-15T09:46:51.000Z</time>
        <extensions>
          <ns3:TrackPointExtension>
            <ns3:atemp>18.0</ns3:atemp>
          </ns3:TrackPointExtension>
        </extensions>
      </trkpt>
      <trkpt lat="42.5877752713859081268310546875" lon="20.0927604921162128448486328125">
        <ele>2072</ele>
        <time>2026-06-15T09:46:52.000Z</time>
        <extensions>
          <ns3:TrackPointExtension>
            <ns3:atemp>18.0</ns3:atemp>
          </ns3:TrackPointExtension>
        </extensions>
      </trkpt>
      <trkpt lat="42.5877752713859081268310546875" lon="20.0927604921162128448486328125">
        <ele>2072</ele>
        <time>2026-06-15T09:46:53.000Z</time>
        <extensions>
          <ns3:TrackPointExtension>
            <ns3:atemp>18.0</ns3:atemp>
          </ns3:TrackPointExtension>
        </extensions>
      </trkpt>
      <trkpt lat="42.5877752713859081268310546875" lon="20.0927604921162128448486328125">
        <ele>2072</ele>
        <time>2026-06-15T09:46:54.000Z</time>
        <extensions>
          <ns3:TrackPointExtension>
            <ns3:atemp>18.0</ns3:atemp>
          </ns3:TrackPointExtension>
        </extensions>
      </trkpt>
      <trkpt lat="42.5877752713859081268310546875" lon="20.0927604921162128448486328125">
        <ele>2072</ele>
        <time>2026-06-15T09:46:55.000Z</time>
        <extensions>
          <ns3:TrackPointExtension>
            <ns3:atemp>18.0</ns3:atemp>
          </ns3:TrackPointExtension>
        </extensions>
      </trkpt>
      <trkpt lat="42.5877752713859081268310546875" lon="20.0927604921162128448486328125">
        <ele>2072</ele>
        <time>2026-06-15T09:46:56.000Z</time>
        <extensions>
          <ns3:TrackPointExtension>
            <ns3:atemp>18.0</ns3:atemp>
          </ns3:TrackPointExtension>
        </extensions>
      </trkpt>
      <trkpt lat="42.5877752713859081268310546875" lon="20.0927604921162128448486328125">
        <ele>2072</ele>
        <time>2026-06-15T09:46:57.000Z</time>
        <extensions>
          <ns3:TrackPointExtension>
            <ns3:atemp>18.0</ns3:atemp>
          </ns3:TrackPointExtension>
        </extensions>
      </trkpt>
      <trkpt lat="42.5877752713859081268310546875" lon="20.0927604921162128448486328125">
        <ele>2072</ele>
        <time>2026-06-15T09:46:58.000Z</time>
        <extensions>
          <ns3:TrackPointExtension>
            <ns3:atemp>18.0</ns3:atemp>
          </ns3:TrackPointExtension>
        </extensions>
      </trkpt>
      <trkpt lat="42.5877752713859081268310546875" lon="20.0927604921162128448486328125">
        <ele>2072</ele>
        <time>2026-06-15T09:46:59.000Z</time>
        <extensions>
          <ns3:TrackPointExtension>
            <ns3:atemp>18.0</ns3:atemp>
          </ns3:TrackPointExtension>
        </extensions>
      </trkpt>
      <trkpt lat="42.5877752713859081268310546875" lon="20.0927604921162128448486328125">
        <ele>2072</ele>
        <time>2026-06-15T09:47:00.000Z</time>
        <extensions>
          <ns3:TrackPointExtension>
            <ns3:atemp>18.0</ns3:atemp>
          </ns3:TrackPointExtension>
        </extensions>
      </trkpt>
      <trkpt lat="42.58777342736721038818359375" lon="20.0927604921162128448486328125">
        <ele>2072</ele>
        <time>2026-06-15T09:47:01.000Z</time>
        <extensions>
          <ns3:TrackPointExtension>
            <ns3:atemp>18.0</ns3:atemp>
          </ns3:TrackPointExtension>
        </extensions>
      </trkpt>
      <trkpt lat="42.587779462337493896484375" lon="20.0927655212581157684326171875">
        <ele>2072</ele>
        <time>2026-06-15T09:47:02.000Z</time>
        <extensions>
          <ns3:TrackPointExtension>
            <ns3:atemp>18.0</ns3:atemp>
          </ns3:TrackPointExtension>
        </extensions>
      </trkpt>
      <trkpt lat="42.587779462337493896484375" lon="20.0927655212581157684326171875">
        <ele>2074.199951171875</ele>
        <time>2026-06-15T09:47:03.000Z</time>
        <extensions>
          <ns3:TrackPointExtension>
            <ns3:atemp>18.0</ns3:atemp>
          </ns3:TrackPointExtension>
        </extensions>
      </trkpt>
      <trkpt lat="42.58783101104199886322021484375" lon="20.09275873191654682159423828125">
        <ele>2074.39990234375</ele>
        <time>2026-06-15T09:47:04.000Z</time>
        <extensions>
          <ns3:TrackPointExtension>
            <ns3:atemp>18.0</ns3:atemp>
          </ns3:TrackPointExtension>
        </extensions>
      </trkpt>
      <trkpt lat="42.58783101104199886322021484375" lon="20.09275873191654682159423828125">
        <ele>2074.39990234375</ele>
        <time>2026-06-15T09:47:05.000Z</time>
        <extensions>
          <ns3:TrackPointExtension>
            <ns3:atemp>18.0</ns3:atemp>
          </ns3:TrackPointExtension>
        </extensions>
      </trkpt>
      <trkpt lat="42.587902843952178955078125" lon="20.09274783544242382049560546875">
        <ele>2074.60009765625</ele>
        <time>2026-06-15T09:47:06.000Z</time>
        <extensions>
          <ns3:TrackPointExtension>
            <ns3:atemp>18.0</ns3:atemp>
          </ns3:TrackPointExtension>
        </extensions>
      </trkpt>
      <trkpt lat="42.58793972432613372802734375" lon="20.0927507691085338592529296875">
        <ele>2074.800048828125</ele>
        <time>2026-06-15T09:47:07.000Z</time>
        <extensions>
          <ns3:TrackPointExtension>
            <ns3:atemp>18.0</ns3:atemp>
          </ns3:TrackPointExtension>
        </extensions>
      </trkpt>
      <trkpt lat="42.58797350339591503143310546875" lon="20.09275521151721477508544921875">
        <ele>2074.800048828125</ele>
        <time>2026-06-15T09:47:08.000Z</time>
        <extensions>
          <ns3:TrackPointExtension>
            <ns3:atemp>18.0</ns3:atemp>
          </ns3:TrackPointExtension>
        </extensions>
      </trkpt>
      <trkpt lat="42.588003762066364288330078125" lon="20.09275697171688079833984375">
        <ele>2074.800048828125</ele>
        <time>2026-06-15T09:47:09.000Z</time>
        <extensions>
          <ns3:TrackPointExtension>
            <ns3:atemp>18.0</ns3:atemp>
          </ns3:TrackPointExtension>
        </extensions>
      </trkpt>
      <trkpt lat="42.58803091943264007568359375" lon="20.0927536189556121826171875">
        <ele>2075</ele>
        <time>2026-06-15T09:47:10.000Z</time>
        <extensions>
          <ns3:TrackPointExtension>
            <ns3:atemp>18.0</ns3:atemp>
          </ns3:TrackPointExtension>
        </extensions>
      </trkpt>
      <trkpt lat="42.58805547840893268585205078125" lon="20.09275219403207302093505859375">
        <ele>2075</ele>
        <time>2026-06-15T09:47:11.000Z</time>
        <extensions>
          <ns3:TrackPointExtension>
            <ns3:atemp>18.0</ns3:atemp>
          </ns3:TrackPointExtension>
        </extensions>
      </trkpt>
      <trkpt lat="42.588080875575542449951171875" lon="20.0927455723285675048828125">
        <ele>2075.199951171875</ele>
        <time>2026-06-15T09:47:12.000Z</time>
        <extensions>
          <ns3:TrackPointExtension>
            <ns3:atemp>18.0</ns3:atemp>
          </ns3:TrackPointExtension>
        </extensions>
      </trkpt>
      <trkpt lat="42.58810870349407196044921875" lon="20.09273928590118885040283203125">
        <ele>2075.199951171875</ele>
        <time>2026-06-15T09:47:13.000Z</time>
        <extensions>
          <ns3:TrackPointExtension>
            <ns3:atemp>18.0</ns3:atemp>
          </ns3:TrackPointExtension>
        </extensions>
      </trkpt>
      <trkpt lat="42.5881410576403141021728515625" lon="20.09273978881537914276123046875">
        <ele>2075.39990234375</ele>
        <time>2026-06-15T09:47:14.000Z</time>
        <extensions>
          <ns3:TrackPointExtension>
            <ns3:atemp>18.0</ns3:atemp>
          </ns3:TrackPointExtension>
        </extensions>
      </trkpt>
      <trkpt lat="42.58817399851977825164794921875" lon="20.09274180047214031219482421875">
        <ele>2075.39990234375</ele>
        <time>2026-06-15T09:47:15.000Z</time>
        <extensions>
          <ns3:TrackPointExtension>
            <ns3:atemp>18.0</ns3:atemp>
          </ns3:TrackPointExtension>
        </extensions>
      </trkpt>
      <trkpt lat="42.588208280503749847412109375" lon="20.09274364449083805084228515625">
        <ele>2075.39990234375</ele>
        <time>2026-06-15T09:47:16.000Z</time>
        <extensions>
          <ns3:TrackPointExtension>
            <ns3:atemp>18.0</ns3:atemp>
          </ns3:TrackPointExtension>
        </extensions>
      </trkpt>
      <trkpt lat="42.5882419757544994354248046875" lon="20.0927467457950115203857421875">
        <ele>2075.39990234375</ele>
        <time>2026-06-15T09:47:17.000Z</time>
        <extensions>
          <ns3:TrackPointExtension>
            <ns3:atemp>18.0</ns3:atemp>
          </ns3:TrackPointExtension>
        </extensions>
      </trkpt>
      <trkpt lat="42.5882419757544994354248046875" lon="20.0927467457950115203857421875">
        <ele>2075.39990234375</ele>
        <time>2026-06-15T09:47:18.000Z</time>
        <extensions>
          <ns3:TrackPointExtension>
            <ns3:atemp>18.0</ns3:atemp>
          </ns3:TrackPointExtension>
        </extensions>
      </trkpt>
      <trkpt lat="42.588307522237300872802734375" lon="20.09274959564208984375">
        <ele>2075.60009765625</ele>
        <time>2026-06-15T09:47:19.000Z</time>
        <extensions>
          <ns3:TrackPointExtension>
            <ns3:atemp>18.0</ns3:atemp>
          </ns3:TrackPointExtension>
        </extensions>
      </trkpt>
      <trkpt lat="42.5883387029170989990234375" lon="20.09274515323340892791748046875">
        <ele>2075.60009765625</ele>
        <time>2026-06-15T09:47:20.000Z</time>
        <extensions>
          <ns3:TrackPointExtension>
            <ns3:atemp>18.0</ns3:atemp>
          </ns3:TrackPointExtension>
        </extensions>
      </trkpt>
      <trkpt lat="42.58836996741592884063720703125" lon="20.09274532087147235870361328125">
        <ele>2075.60009765625</ele>
        <time>2026-06-15T09:47:21.000Z</time>
        <extensions>
          <ns3:TrackPointExtension>
            <ns3:atemp>18.0</ns3:atemp>
          </ns3:TrackPointExtension>
        </extensions>
      </trkpt>
      <trkpt lat="42.588401399552822113037109375" lon="20.09274465031921863555908203125">
        <ele>2075.60009765625</ele>
        <time>2026-06-15T09:47:22.000Z</time>
        <extensions>
          <ns3:TrackPointExtension>
            <ns3:atemp>18.0</ns3:atemp>
          </ns3:TrackPointExtension>
        </extensions>
      </trkpt>
      <trkpt lat="42.58843534626066684722900390625" lon="20.09274682961404323577880859375">
        <ele>2075.800048828125</ele>
        <time>2026-06-15T09:47:23.000Z</time>
        <extensions>
          <ns3:TrackPointExtension>
            <ns3:atemp>18.0</ns3:atemp>
          </ns3:TrackPointExtension>
        </extensions>
      </trkpt>
      <trkpt lat="42.5884686224162578582763671875" lon="20.09275353513658046722412109375">
        <ele>2075.800048828125</ele>
        <time>2026-06-15T09:47:24.000Z</time>
        <extensions>
          <ns3:TrackPointExtension>
            <ns3:atemp>18.0</ns3:atemp>
          </ns3:TrackPointExtension>
        </extensions>
      </trkpt>
      <trkpt lat="42.58850122801959514617919921875" lon="20.09275403805077075958251953125">
        <ele>2076</ele>
        <time>2026-06-15T09:47:25.000Z</time>
        <extensions>
          <ns3:TrackPointExtension>
            <ns3:atemp>18.0</ns3:atemp>
          </ns3:TrackPointExtension>
        </extensions>
      </trkpt>
      <trkpt lat="42.58850122801959514617919921875" lon="20.09275403805077075958251953125">
        <ele>2076</ele>
        <time>2026-06-15T09:47:26.000Z</time>
        <extensions>
          <ns3:TrackPointExtension>
            <ns3:atemp>18.0</ns3:atemp>
          </ns3:TrackPointExtension>
        </extensions>
      </trkpt>
      <trkpt lat="42.58856995962560176849365234375" lon="20.09276141412556171417236328125">
        <ele>2076</ele>
        <time>2026-06-15T09:47:27.000Z</time>
        <extensions>
          <ns3:TrackPointExtension>
            <ns3:atemp>18.0</ns3:atemp>
          </ns3:TrackPointExtension>
        </extensions>
      </trkpt>
      <trkpt lat="42.58860499598085880279541015625" lon="20.09276543743908405303955078125">
        <ele>2076.199951171875</ele>
        <time>2026-06-15T09:47:28.000Z</time>
        <extensions>
          <ns3:TrackPointExtension>
            <ns3:atemp>18.0</ns3:atemp>
          </ns3:TrackPointExtension>
        </extensions>
      </trkpt>
      <trkpt lat="42.58864053525030612945556640625" lon="20.09277415461838245391845703125">
        <ele>2076.199951171875</ele>
        <time>2026-06-15T09:47:29.000Z</time>
        <extensions>
          <ns3:TrackPointExtension>
            <ns3:atemp>18.0</ns3:atemp>
          </ns3:TrackPointExtension>
        </extensions>
      </trkpt>
      <trkpt lat="42.58867791853845119476318359375" lon="20.09277784265577793121337890625">
        <ele>2076.39990234375</ele>
        <time>2026-06-15T09:47:30.000Z</time>
        <extensions>
          <ns3:TrackPointExtension>
            <ns3:atemp>18.0</ns3:atemp>
          </ns3:TrackPointExtension>
        </extensions>
      </trkpt>
      <trkpt lat="42.58872033096849918365478515625" lon="20.09278035722672939300537109375">
        <ele>2076.39990234375</ele>
        <time>2026-06-15T09:47:31.000Z</time>
        <extensions>
          <ns3:TrackPointExtension>
            <ns3:atemp>18.0</ns3:atemp>
          </ns3:TrackPointExtension>
        </extensions>
      </trkpt>
      <trkpt lat="42.58876307867467403411865234375" lon="20.09278823621571063995361328125">
        <ele>2076.39990234375</ele>
        <time>2026-06-15T09:47:32.000Z</time>
        <extensions>
          <ns3:TrackPointExtension>
            <ns3:atemp>18.0</ns3:atemp>
          </ns3:TrackPointExtension>
        </extensions>
      </trkpt>
      <trkpt lat="42.58880532346665859222412109375" lon="20.09279728867113590240478515625">
        <ele>2076.39990234375</ele>
        <time>2026-06-15T09:47:33.000Z</time>
        <extensions>
          <ns3:TrackPointExtension>
            <ns3:atemp>18.0</ns3:atemp>
          </ns3:TrackPointExtension>
        </extensions>
      </trkpt>
      <trkpt lat="42.58884689770638942718505859375" lon="20.09280256927013397216796875">
        <ele>2076.39990234375</ele>
        <time>2026-06-15T09:47:34.000Z</time>
        <extensions>
          <ns3:TrackPointExtension>
            <ns3:atemp>18.0</ns3:atemp>
          </ns3:TrackPointExtension>
        </extensions>
      </trkpt>
      <trkpt lat="42.58888646028935909271240234375" lon="20.0928099453449249267578125">
        <ele>2076.39990234375</ele>
        <time>2026-06-15T09:47:35.000Z</time>
        <extensions>
          <ns3:TrackPointExtension>
            <ns3:atemp>18.0</ns3:atemp>
          </ns3:TrackPointExtension>
        </extensions>
      </trkpt>
      <trkpt lat="42.58892409503459930419921875" lon="20.09282042272388935089111328125">
        <ele>2076.39990234375</ele>
        <time>2026-06-15T09:47:36.000Z</time>
        <extensions>
          <ns3:TrackPointExtension>
            <ns3:atemp>18.0</ns3:atemp>
          </ns3:TrackPointExtension>
        </extensions>
      </trkpt>
      <trkpt lat="42.5889591313898563385009765625" lon="20.0928287208080291748046875">
        <ele>2076.60009765625</ele>
        <time>2026-06-15T09:47:37.000Z</time>
        <extensions>
          <ns3:TrackPointExtension>
            <ns3:atemp>18.0</ns3:atemp>
          </ns3:TrackPointExtension>
        </extensions>
      </trkpt>
      <trkpt lat="42.5889591313898563385009765625" lon="20.0928287208080291748046875">
        <ele>2076.60009765625</ele>
        <time>2026-06-15T09:47:38.000Z</time>
        <extensions>
          <ns3:TrackPointExtension>
            <ns3:atemp>18.0</ns3:atemp>
          </ns3:TrackPointExtension>
        </extensions>
      </trkpt>
      <trkpt lat="42.5890302099287509918212890625" lon="20.09284414350986480712890625">
        <ele>2076.800048828125</ele>
        <time>2026-06-15T09:47:39.000Z</time>
        <extensions>
          <ns3:TrackPointExtension>
            <ns3:atemp>18.0</ns3:atemp>
          </ns3:TrackPointExtension>
        </extensions>
      </trkpt>
      <trkpt lat="42.58906650356948375701904296875" lon="20.0928533636033535003662109375">
        <ele>2076.800048828125</ele>
        <time>2026-06-15T09:47:40.000Z</time>
        <extensions>
          <ns3:TrackPointExtension>
            <ns3:atemp>18.0</ns3:atemp>
          </ns3:TrackPointExtension>
        </extensions>
      </trkpt>
      <trkpt lat="42.58910338394343852996826171875" lon="20.09286350570619106292724609375">
        <ele>2076.800048828125</ele>
        <time>2026-06-15T09:47:41.000Z</time>
        <extensions>
          <ns3:TrackPointExtension>
            <ns3:atemp>18.0</ns3:atemp>
          </ns3:TrackPointExtension>
        </extensions>
      </trkpt>
      <trkpt lat="42.58913867175579071044921875" lon="20.09287230670452117919921875">
        <ele>2077</ele>
        <time>2026-06-15T09:47:42.000Z</time>
        <extensions>
          <ns3:TrackPointExtension>
            <ns3:atemp>18.0</ns3:atemp>
          </ns3:TrackPointExtension>
        </extensions>
      </trkpt>
      <trkpt lat="42.58917152881622314453125" lon="20.09287809021770954132080078125">
        <ele>2076.800048828125</ele>
        <time>2026-06-15T09:47:43.000Z</time>
        <extensions>
          <ns3:TrackPointExtension>
            <ns3:atemp>18.0</ns3:atemp>
          </ns3:TrackPointExtension>
        </extensions>
      </trkpt>
      <trkpt lat="42.589206062257289886474609375" lon="20.09288303554058074951171875">
        <ele>2076.800048828125</ele>
        <time>2026-06-15T09:47:44.000Z</time>
        <extensions>
          <ns3:TrackPointExtension>
            <ns3:atemp>18.0</ns3:atemp>
          </ns3:TrackPointExtension>
        </extensions>
      </trkpt>
      <trkpt lat="42.589241601526737213134765625" lon="20.09289066307246685028076171875">
        <ele>2077</ele>
        <time>2026-06-15T09:47:45.000Z</time>
        <extensions>
          <ns3:TrackPointExtension>
            <ns3:atemp>19.0</ns3:atemp>
          </ns3:TrackPointExtension>
        </extensions>
      </trkpt>
      <trkpt lat="42.58927688933908939361572265625" lon="20.0928942672908306121826171875">
        <ele>2077</ele>
        <time>2026-06-15T09:47:46.000Z</time>
        <extensions>
          <ns3:TrackPointExtension>
            <ns3:atemp>19.0</ns3:atemp>
          </ns3:TrackPointExtension>
        </extensions>
      </trkpt>
      <trkpt lat="42.5893150269985198974609375" lon="20.09289778769016265869140625">
        <ele>2077.199951171875</ele>
        <time>2026-06-15T09:47:47.000Z</time>
        <extensions>
          <ns3:TrackPointExtension>
            <ns3:atemp>19.0</ns3:atemp>
          </ns3:TrackPointExtension>
        </extensions>
      </trkpt>
      <trkpt lat="42.589351236820220947265625" lon="20.09290181100368499755859375">
        <ele>2077.199951171875</ele>
        <time>2026-06-15T09:47:48.000Z</time>
        <extensions>
          <ns3:TrackPointExtension>
            <ns3:atemp>19.0</ns3:atemp>
          </ns3:TrackPointExtension>
        </extensions>
      </trkpt>
      <trkpt lat="42.58938853628933429718017578125" lon="20.0929038226604461669921875">
        <ele>2077.199951171875</ele>
        <time>2026-06-15T09:47:49.000Z</time>
        <extensions>
          <ns3:TrackPointExtension>
            <ns3:atemp>19.0</ns3:atemp>
          </ns3:TrackPointExtension>
        </extensions>
      </trkpt>
      <trkpt lat="42.58942625485360622406005859375" lon="20.0929091870784759521484375">
        <ele>2077.39990234375</ele>
        <time>2026-06-15T09:47:50.000Z</time>
        <extensions>
          <ns3:TrackPointExtension>
            <ns3:atemp>19.0</ns3:atemp>
          </ns3:TrackPointExtension>
        </extensions>
      </trkpt>
      <trkpt lat="42.58946296758949756622314453125" lon="20.0929147191345691680908203125">
        <ele>2077.199951171875</ele>
        <time>2026-06-15T09:47:51.000Z</time>
        <extensions>
          <ns3:TrackPointExtension>
            <ns3:atemp>19.0</ns3:atemp>
          </ns3:TrackPointExtension>
        </extensions>
      </trkpt>
      <trkpt lat="42.58950001560151576995849609375" lon="20.092918574810028076171875">
        <ele>2077.199951171875</ele>
        <time>2026-06-15T09:47:52.000Z</time>
        <extensions>
          <ns3:TrackPointExtension>
            <ns3:atemp>19.0</ns3:atemp>
          </ns3:TrackPointExtension>
        </extensions>
      </trkpt>
      <trkpt lat="42.589536644518375396728515625" lon="20.09292058646678924560546875">
        <ele>2077.199951171875</ele>
        <time>2026-06-15T09:47:53.000Z</time>
        <extensions>
          <ns3:TrackPointExtension>
            <ns3:atemp>19.0</ns3:atemp>
          </ns3:TrackPointExtension>
        </extensions>
      </trkpt>
      <trkpt lat="42.5895730219781398773193359375" lon="20.09292653761804103851318359375">
        <ele>2077.199951171875</ele>
        <time>2026-06-15T09:47:54.000Z</time>
        <extensions>
          <ns3:TrackPointExtension>
            <ns3:atemp>19.0</ns3:atemp>
          </ns3:TrackPointExtension>
        </extensions>
      </trkpt>
      <trkpt lat="42.58960939943790435791015625" lon="20.092934332787990570068359375">
        <ele>2077.199951171875</ele>
        <time>2026-06-15T09:47:55.000Z</time>
        <extensions>
          <ns3:TrackPointExtension>
            <ns3:atemp>19.0</ns3:atemp>
          </ns3:TrackPointExtension>
        </extensions>
      </trkpt>
      <trkpt lat="42.589644603431224822998046875" lon="20.0929455645382404327392578125">
        <ele>2077.199951171875</ele>
        <time>2026-06-15T09:47:56.000Z</time>
        <extensions>
          <ns3:TrackPointExtension>
            <ns3:atemp>19.0</ns3:atemp>
          </ns3:TrackPointExtension>
        </extensions>
      </trkpt>
      <trkpt lat="42.589644603431224822998046875" lon="20.0929455645382404327392578125">
        <ele>2077.199951171875</ele>
        <time>2026-06-15T09:47:57.000Z</time>
        <extensions>
          <ns3:TrackPointExtension>
            <ns3:atemp>18.0</ns3:atemp>
          </ns3:TrackPointExtension>
        </extensions>
      </trkpt>
      <trkpt lat="42.589712999761104583740234375" lon="20.09296040050685405731201171875">
        <ele>2077.199951171875</ele>
        <time>2026-06-15T09:47:58.000Z</time>
        <extensions>
          <ns3:TrackPointExtension>
            <ns3:atemp>19.0</ns3:atemp>
          </ns3:TrackPointExtension>
        </extensions>
      </trkpt>
      <trkpt lat="42.58974728174507617950439453125" lon="20.09296492673456668853759765625">
        <ele>2077.199951171875</ele>
        <time>2026-06-15T09:47:59.000Z</time>
        <extensions>
          <ns3:TrackPointExtension>
            <ns3:atemp>19.0</ns3:atemp>
          </ns3:TrackPointExtension>
        </extensions>
      </trkpt>
      <trkpt lat="42.58978047408163547515869140625" lon="20.092968530952930450439453125">
        <ele>2077.199951171875</ele>
        <time>2026-06-15T09:48:00.000Z</time>
        <extensions>
          <ns3:TrackPointExtension>
            <ns3:atemp>19.0</ns3:atemp>
          </ns3:TrackPointExtension>
        </extensions>
      </trkpt>
      <trkpt lat="42.58981324732303619384765625" lon="20.09297112934291362762451171875">
        <ele>2077.199951171875</ele>
        <time>2026-06-15T09:48:01.000Z</time>
        <extensions>
          <ns3:TrackPointExtension>
            <ns3:atemp>19.0</ns3:atemp>
          </ns3:TrackPointExtension>
        </extensions>
      </trkpt>
      <trkpt lat="42.589845098555088043212890625" lon="20.09297766722738742828369140625">
        <ele>2077.39990234375</ele>
        <time>2026-06-15T09:48:02.000Z</time>
        <extensions>
          <ns3:TrackPointExtension>
            <ns3:atemp>19.0</ns3:atemp>
          </ns3:TrackPointExtension>
        </extensions>
      </trkpt>
      <trkpt lat="42.58987736888229846954345703125" lon="20.09298688732087612152099609375">
        <ele>2077.39990234375</ele>
        <time>2026-06-15T09:48:03.000Z</time>
        <extensions>
          <ns3:TrackPointExtension>
            <ns3:atemp>19.0</ns3:atemp>
          </ns3:TrackPointExtension>
        </extensions>
      </trkpt>
      <trkpt lat="42.58991056121885776519775390625" lon="20.0930003821849822998046875">
        <ele>2077.39990234375</ele>
        <time>2026-06-15T09:48:04.000Z</time>
        <extensions>
          <ns3:TrackPointExtension>
            <ns3:atemp>19.0</ns3:atemp>
          </ns3:TrackPointExtension>
        </extensions>
      </trkpt>
      <trkpt lat="42.58994199335575103759765625" lon="20.0930122844874858856201171875">
        <ele>2077.60009765625</ele>
        <time>2026-06-15T09:48:05.000Z</time>
        <extensions>
          <ns3:TrackPointExtension>
            <ns3:atemp>19.0</ns3:atemp>
          </ns3:TrackPointExtension>
        </extensions>
      </trkpt>
      <trkpt lat="42.58997392840683460235595703125" lon="20.09302561171352863311767578125">
        <ele>2077.60009765625</ele>
        <time>2026-06-15T09:48:06.000Z</time>
        <extensions>
          <ns3:TrackPointExtension>
            <ns3:atemp>19.0</ns3:atemp>
          </ns3:TrackPointExtension>
        </extensions>
      </trkpt>
      <trkpt lat="42.59000611491501331329345703125" lon="20.0930354185402393341064453125">
        <ele>2077.60009765625</ele>
        <time>2026-06-15T09:48:07.000Z</time>
        <extensions>
          <ns3:TrackPointExtension>
            <ns3:atemp>19.0</ns3:atemp>
          </ns3:TrackPointExtension>
        </extensions>
      </trkpt>
      <trkpt lat="42.59003930725157260894775390625" lon="20.09303717873990535736083984375">
        <ele>2077.60009765625</ele>
        <time>2026-06-15T09:48:08.000Z</time>
        <extensions>
          <ns3:TrackPointExtension>
            <ns3:atemp>19.0</ns3:atemp>
          </ns3:TrackPointExtension>
        </extensions>
      </trkpt>
      <trkpt lat="42.590073756873607635498046875" lon="20.093044303357601165771484375">
        <ele>2077.60009765625</ele>
        <time>2026-06-15T09:48:09.000Z</time>
        <extensions>
          <ns3:TrackPointExtension>
            <ns3:atemp>19.0</ns3:atemp>
          </ns3:TrackPointExtension>
        </extensions>
      </trkpt>
      <trkpt lat="42.59010468609631061553955078125" lon="20.09304572828114032745361328125">
        <ele>2077.800048828125</ele>
        <time>2026-06-15T09:48:10.000Z</time>
        <extensions>
          <ns3:TrackPointExtension>
            <ns3:atemp>19.0</ns3:atemp>
          </ns3:TrackPointExtension>
        </extensions>
      </trkpt>
      <trkpt lat="42.59013603441417217254638671875" lon="20.093049667775630950927734375">
        <ele>2077.800048828125</ele>
        <time>2026-06-15T09:48:11.000Z</time>
        <extensions>
          <ns3:TrackPointExtension>
            <ns3:atemp>19.0</ns3:atemp>
          </ns3:TrackPointExtension>
        </extensions>
      </trkpt>
      <trkpt lat="42.59016252122819423675537109375" lon="20.09305394254624843597412109375">
        <ele>2077.800048828125</ele>
        <time>2026-06-15T09:48:12.000Z</time>
        <extensions>
          <ns3:TrackPointExtension>
            <ns3:atemp>19.0</ns3:atemp>
          </ns3:TrackPointExtension>
        </extensions>
      </trkpt>
      <trkpt lat="42.59018766693770885467529296875" lon="20.0930625759065151214599609375">
        <ele>2077.800048828125</ele>
        <time>2026-06-15T09:48:13.000Z</time>
        <extensions>
          <ns3:TrackPointExtension>
            <ns3:atemp>19.0</ns3:atemp>
          </ns3:TrackPointExtension>
        </extensions>
      </trkpt>
      <trkpt lat="42.5902093760669231414794921875" lon="20.09306810796260833740234375">
        <ele>2077.800048828125</ele>
        <time>2026-06-15T09:48:14.000Z</time>
        <extensions>
          <ns3:TrackPointExtension>
            <ns3:atemp>18.0</ns3:atemp>
          </ns3:TrackPointExtension>
        </extensions>
      </trkpt>
      <trkpt lat="42.59022991172969341278076171875" lon="20.09307238273322582244873046875">
        <ele>2077.800048828125</ele>
        <time>2026-06-15T09:48:15.000Z</time>
        <extensions>
          <ns3:TrackPointExtension>
            <ns3:atemp>18.0</ns3:atemp>
          </ns3:TrackPointExtension>
        </extensions>
      </trkpt>
      <trkpt lat="42.59025086648762226104736328125" lon="20.09307053871452808380126953125">
        <ele>2077.800048828125</ele>
        <time>2026-06-15T09:48:16.000Z</time>
        <extensions>
          <ns3:TrackPointExtension>
            <ns3:atemp>19.0</ns3:atemp>
          </ns3:TrackPointExtension>
        </extensions>
      </trkpt>
      <trkpt lat="42.59027048014104366302490234375" lon="20.09306274354457855224609375">
        <ele>2077.800048828125</ele>
        <time>2026-06-15T09:48:17.000Z</time>
        <extensions>
          <ns3:TrackPointExtension>
            <ns3:atemp>19.0</ns3:atemp>
          </ns3:TrackPointExtension>
        </extensions>
      </trkpt>
      <trkpt lat="42.59028456173837184906005859375" lon="20.09304740466177463531494140625">
        <ele>2077.60009765625</ele>
        <time>2026-06-15T09:48:18.000Z</time>
        <extensions>
          <ns3:TrackPointExtension>
            <ns3:atemp>19.0</ns3:atemp>
          </ns3:TrackPointExtension>
        </extensions>
      </trkpt>
      <trkpt lat="42.590299732983112335205078125" lon="20.0930220074951648712158203125">
        <ele>2077.60009765625</ele>
        <time>2026-06-15T09:48:19.000Z</time>
        <extensions>
          <ns3:TrackPointExtension>
            <ns3:atemp>19.0</ns3:atemp>
          </ns3:TrackPointExtension>
        </extensions>
      </trkpt>
      <trkpt lat="42.59030434302985668182373046875" lon="20.09299661032855510711669921875">
        <ele>2077.39990234375</ele>
        <time>2026-06-15T09:48:20.000Z</time>
        <extensions>
          <ns3:TrackPointExtension>
            <ns3:atemp>18.0</ns3:atemp>
          </ns3:TrackPointExtension>
        </extensions>
      </trkpt>
      <trkpt lat="42.59030283428728580474853515625" lon="20.0929680280387401580810546875">
        <ele>2077.199951171875</ele>
        <time>2026-06-15T09:48:21.000Z</time>
        <extensions>
          <ns3:TrackPointExtension>
            <ns3:atemp>18.0</ns3:atemp>
          </ns3:TrackPointExtension>
        </extensions>
      </trkpt>
      <trkpt lat="42.59029344655573368072509765625" lon="20.0929435528814792633056640625">
        <ele>2077.199951171875</ele>
        <time>2026-06-15T09:48:22.000Z</time>
        <extensions>
          <ns3:TrackPointExtension>
            <ns3:atemp>18.0</ns3:atemp>
          </ns3:TrackPointExtension>
        </extensions>
      </trkpt>
      <trkpt lat="42.59027819149196147918701171875" lon="20.09291966445744037628173828125">
        <ele>2077.39990234375</ele>
        <time>2026-06-15T09:48:23.000Z</time>
        <extensions>
          <ns3:TrackPointExtension>
            <ns3:atemp>19.0</ns3:atemp>
          </ns3:TrackPointExtension>
        </extensions>
      </trkpt>
      <trkpt lat="42.59026654064655303955078125" lon="20.0929060019552707672119140625">
        <ele>2077.39990234375</ele>
        <time>2026-06-15T09:48:24.000Z</time>
        <extensions>
          <ns3:TrackPointExtension>
            <ns3:atemp>19.0</ns3:atemp>
          </ns3:TrackPointExtension>
        </extensions>
      </trkpt>
      <trkpt lat="42.59024986065924167633056640625" lon="20.09290960617363452911376953125">
        <ele>2077.60009765625</ele>
        <time>2026-06-15T09:48:25.000Z</time>
        <extensions>
          <ns3:TrackPointExtension>
            <ns3:atemp>19.0</ns3:atemp>
          </ns3:TrackPointExtension>
        </extensions>
      </trkpt>
      <trkpt lat="42.59023091755807399749755859375" lon="20.09290457703173160552978515625">
        <ele>2078</ele>
        <time>2026-06-15T09:48:26.000Z</time>
        <extensions>
          <ns3:TrackPointExtension>
            <ns3:atemp>19.0</ns3:atemp>
          </ns3:TrackPointExtension>
        </extensions>
      </trkpt>
      <trkpt lat="42.59020761586725711822509765625" lon="20.0929003022611141204833984375">
        <ele>2078.199951171875</ele>
        <time>2026-06-15T09:48:27.000Z</time>
        <extensions>
          <ns3:TrackPointExtension>
            <ns3:atemp>19.0</ns3:atemp>
          </ns3:TrackPointExtension>
        </extensions>
      </trkpt>
      <trkpt lat="42.59018666110932826995849609375" lon="20.0928976200520992279052734375">
        <ele>2078.39990234375</ele>
        <time>2026-06-15T09:48:28.000Z</time>
        <extensions>
          <ns3:TrackPointExtension>
            <ns3:atemp>19.0</ns3:atemp>
          </ns3:TrackPointExtension>
        </extensions>
      </trkpt>
      <trkpt lat="42.5901691429316997528076171875" lon="20.09289401583373546600341796875">
        <ele>2078.60009765625</ele>
        <time>2026-06-15T09:48:29.000Z</time>
        <extensions>
          <ns3:TrackPointExtension>
            <ns3:atemp>19.0</ns3:atemp>
          </ns3:TrackPointExtension>
        </extensions>
      </trkpt>
      <trkpt lat="42.59015196003019809722900390625" lon="20.092884041368961334228515625">
        <ele>2078.800048828125</ele>
        <time>2026-06-15T09:48:30.000Z</time>
        <extensions>
          <ns3:TrackPointExtension>
            <ns3:atemp>19.0</ns3:atemp>
          </ns3:TrackPointExtension>
        </extensions>
      </trkpt>
      <trkpt lat="42.59013318456709384918212890625" lon="20.09287490509450435638427734375">
        <ele>2079</ele>
        <time>2026-06-15T09:48:31.000Z</time>
        <extensions>
          <ns3:TrackPointExtension>
            <ns3:atemp>19.0</ns3:atemp>
          </ns3:TrackPointExtension>
        </extensions>
      </trkpt>
      <trkpt lat="42.59010988287627696990966796875" lon="20.0928609073162078857421875">
        <ele>2079.199951171875</ele>
        <time>2026-06-15T09:48:32.000Z</time>
        <extensions>
          <ns3:TrackPointExtension>
            <ns3:atemp>19.0</ns3:atemp>
          </ns3:TrackPointExtension>
        </extensions>
      </trkpt>
      <trkpt lat="42.59008674882352352142333984375" lon="20.092848837375640869140625">
        <ele>2079.60009765625</ele>
        <time>2026-06-15T09:48:33.000Z</time>
        <extensions>
          <ns3:TrackPointExtension>
            <ns3:atemp>19.0</ns3:atemp>
          </ns3:TrackPointExtension>
        </extensions>
      </trkpt>
      <trkpt lat="42.59006462059915065765380859375" lon="20.09283886291086673736572265625">
        <ele>2079.800048828125</ele>
        <time>2026-06-15T09:48:34.000Z</time>
        <extensions>
          <ns3:TrackPointExtension>
            <ns3:atemp>19.0</ns3:atemp>
          </ns3:TrackPointExtension>
        </extensions>
      </trkpt>
      <trkpt lat="42.5900427438318729400634765625" lon="20.0928262062370777130126953125">
        <ele>2080</ele>
        <time>2026-06-15T09:48:35.000Z</time>
        <extensions>
          <ns3:TrackPointExtension>
            <ns3:atemp>18.0</ns3:atemp>
          </ns3:TrackPointExtension>
        </extensions>
      </trkpt>
      <trkpt lat="42.5900212861597537994384765625" lon="20.09281455539166927337646484375">
        <ele>2080.199951171875</ele>
        <time>2026-06-15T09:48:36.000Z</time>
        <extensions>
          <ns3:TrackPointExtension>
            <ns3:atemp>18.0</ns3:atemp>
          </ns3:TrackPointExtension>
        </extensions>
      </trkpt>
      <trkpt lat="42.58999857120215892791748046875" lon="20.09280265308916568756103515625">
        <ele>2080.60009765625</ele>
        <time>2026-06-15T09:48:37.000Z</time>
        <extensions>
          <ns3:TrackPointExtension>
            <ns3:atemp>19.0</ns3:atemp>
          </ns3:TrackPointExtension>
        </extensions>
      </trkpt>
      <trkpt lat="42.58999857120215892791748046875" lon="20.09280265308916568756103515625">
        <ele>2081</ele>
        <time>2026-06-15T09:48:38.000Z</time>
        <extensions>
          <ns3:TrackPointExtension>
            <ns3:atemp>18.0</ns3:atemp>
          </ns3:TrackPointExtension>
        </extensions>
      </trkpt>
      <trkpt lat="42.58994760923087596893310546875" lon="20.092786811292171478271484375">
        <ele>2081.39990234375</ele>
        <time>2026-06-15T09:48:39.000Z</time>
        <extensions>
          <ns3:TrackPointExtension>
            <ns3:atemp>18.0</ns3:atemp>
          </ns3:TrackPointExtension>
        </extensions>
      </trkpt>
      <trkpt lat="42.58994760923087596893310546875" lon="20.092786811292171478271484375">
        <ele>2081.800048828125</ele>
        <time>2026-06-15T09:48:40.000Z</time>
        <extensions>
          <ns3:TrackPointExtension>
            <ns3:atemp>19.0</ns3:atemp>
          </ns3:TrackPointExtension>
        </extensions>
      </trkpt>
      <trkpt lat="42.58988575078547000885009765625" lon="20.092771053314208984375">
        <ele>2082.199951171875</ele>
        <time>2026-06-15T09:48:41.000Z</time>
        <extensions>
          <ns3:TrackPointExtension>
            <ns3:atemp>19.0</ns3:atemp>
          </ns3:TrackPointExtension>
        </extensions>
      </trkpt>
      <trkpt lat="42.58985138498246669769287109375" lon="20.0927534513175487518310546875">
        <ele>2082.60009765625</ele>
        <time>2026-06-15T09:48:42.000Z</time>
        <extensions>
          <ns3:TrackPointExtension>
            <ns3:atemp>19.0</ns3:atemp>
          </ns3:TrackPointExtension>
        </extensions>
      </trkpt>
      <trkpt lat="42.58985138498246669769287109375" lon="20.0927534513175487518310546875">
        <ele>2083</ele>
        <time>2026-06-15T09:48:43.000Z</time>
        <extensions>
          <ns3:TrackPointExtension>
            <ns3:atemp>19.0</ns3:atemp>
          </ns3:TrackPointExtension>
        </extensions>
      </trkpt>
      <trkpt lat="42.58981416933238506317138671875" lon="20.09273677133023738861083984375">
        <ele>2083.39990234375</ele>
        <time>2026-06-15T09:48:44.000Z</time>
        <extensions>
          <ns3:TrackPointExtension>
            <ns3:atemp>19.0</ns3:atemp>
          </ns3:TrackPointExtension>
        </extensions>
      </trkpt>
      <trkpt lat="42.5897805579006671905517578125" lon="20.0927219353616237640380859375">
        <ele>2083.800048828125</ele>
        <time>2026-06-15T09:48:45.000Z</time>
        <extensions>
          <ns3:TrackPointExtension>
            <ns3:atemp>19.0</ns3:atemp>
          </ns3:TrackPointExtension>
        </extensions>
      </trkpt>
      <trkpt lat="42.58975289762020111083984375" lon="20.09271196089684963226318359375">
        <ele>2084.39990234375</ele>
        <time>2026-06-15T09:48:46.000Z</time>
        <extensions>
          <ns3:TrackPointExtension>
            <ns3:atemp>19.0</ns3:atemp>
          </ns3:TrackPointExtension>
        </extensions>
      </trkpt>
      <trkpt lat="42.58972934447228908538818359375" lon="20.0927031598985195159912109375">
        <ele>2084.800048828125</ele>
        <time>2026-06-15T09:48:47.000Z</time>
        <extensions>
          <ns3:TrackPointExtension>
            <ns3:atemp>19.0</ns3:atemp>
          </ns3:TrackPointExtension>
        </extensions>
      </trkpt>
      <trkpt lat="42.58971132338047027587890625" lon="20.092696957290172576904296875">
        <ele>2085.199951171875</ele>
        <time>2026-06-15T09:48:48.000Z</time>
        <extensions>
          <ns3:TrackPointExtension>
            <ns3:atemp>19.0</ns3:atemp>
          </ns3:TrackPointExtension>
        </extensions>
      </trkpt>
      <trkpt lat="42.589694559574127197265625" lon="20.09269150905311107635498046875">
        <ele>2085.60009765625</ele>
        <time>2026-06-15T09:48:49.000Z</time>
        <extensions>
          <ns3:TrackPointExtension>
            <ns3:atemp>19.0</ns3:atemp>
          </ns3:TrackPointExtension>
        </extensions>
      </trkpt>
      <trkpt lat="42.5896782986819744110107421875" lon="20.09268966503441333770751953125">
        <ele>2086</ele>
        <time>2026-06-15T09:48:50.000Z</time>
        <extensions>
          <ns3:TrackPointExtension>
            <ns3:atemp>19.0</ns3:atemp>
          </ns3:TrackPointExtension>
        </extensions>
      </trkpt>
      <trkpt lat="42.58966346271336078643798828125" lon="20.09268111549317836761474609375">
        <ele>2086.39990234375</ele>
        <time>2026-06-15T09:48:51.000Z</time>
        <extensions>
          <ns3:TrackPointExtension>
            <ns3:atemp>19.0</ns3:atemp>
          </ns3:TrackPointExtension>
        </extensions>
      </trkpt>
      <trkpt lat="42.5896223075687885284423828125" lon="20.09267658926546573638916015625">
        <ele>2086.60009765625</ele>
        <time>2026-06-15T09:48:52.000Z</time>
        <extensions>
          <ns3:TrackPointExtension>
            <ns3:atemp>19.0</ns3:atemp>
          </ns3:TrackPointExtension>
        </extensions>
      </trkpt>
      <trkpt lat="42.5896028615534305572509765625" lon="20.09266753681004047393798828125">
        <ele>2086.800048828125</ele>
        <time>2026-06-15T09:48:53.000Z</time>
        <extensions>
          <ns3:TrackPointExtension>
            <ns3:atemp>19.0</ns3:atemp>
          </ns3:TrackPointExtension>
        </extensions>
      </trkpt>
      <trkpt lat="42.5895834155380725860595703125" lon="20.09265898726880550384521484375">
        <ele>2087</ele>
        <time>2026-06-15T09:48:54.000Z</time>
        <extensions>
          <ns3:TrackPointExtension>
            <ns3:atemp>19.0</ns3:atemp>
          </ns3:TrackPointExtension>
        </extensions>
      </trkpt>
      <trkpt lat="42.58955835364758968353271484375" lon="20.09264700114727020263671875">
        <ele>2087.199951171875</ele>
        <time>2026-06-15T09:48:55.000Z</time>
        <extensions>
          <ns3:TrackPointExtension>
            <ns3:atemp>19.0</ns3:atemp>
          </ns3:TrackPointExtension>
        </extensions>
      </trkpt>
      <trkpt lat="42.58953295648097991943359375" lon="20.0926329195499420166015625">
        <ele>2087.39990234375</ele>
        <time>2026-06-15T09:48:56.000Z</time>
        <extensions>
          <ns3:TrackPointExtension>
            <ns3:atemp>19.0</ns3:atemp>
          </ns3:TrackPointExtension>
        </extensions>
      </trkpt>
      <trkpt lat="42.58953295648097991943359375" lon="20.0926329195499420166015625">
        <ele>2087.60009765625</ele>
        <time>2026-06-15T09:48:57.000Z</time>
        <extensions>
          <ns3:TrackPointExtension>
            <ns3:atemp>19.0</ns3:atemp>
          </ns3:TrackPointExtension>
        </extensions>
      </trkpt>
      <trkpt lat="42.5894737802445888519287109375" lon="20.09261657483875751495361328125">
        <ele>2088</ele>
        <time>2026-06-15T09:48:58.000Z</time>
        <extensions>
          <ns3:TrackPointExtension>
            <ns3:atemp>19.0</ns3:atemp>
          </ns3:TrackPointExtension>
        </extensions>
      </trkpt>
      <trkpt lat="42.589451484382152557373046875" lon="20.09260316379368305206298828125">
        <ele>2088.199951171875</ele>
        <time>2026-06-15T09:48:59.000Z</time>
        <extensions>
          <ns3:TrackPointExtension>
            <ns3:atemp>19.0</ns3:atemp>
          </ns3:TrackPointExtension>
        </extensions>
      </trkpt>
      <trkpt lat="42.58942893706262111663818359375" lon="20.0925918482244014739990234375">
        <ele>2088.60009765625</ele>
        <time>2026-06-15T09:49:00.000Z</time>
        <extensions>
          <ns3:TrackPointExtension>
            <ns3:atemp>19.0</ns3:atemp>
          </ns3:TrackPointExtension>
        </extensions>
      </trkpt>
      <trkpt lat="42.58940479718148708343505859375" lon="20.09257684461772441864013671875">
        <ele>2089</ele>
        <time>2026-06-15T09:49:01.000Z</time>
        <extensions>
          <ns3:TrackPointExtension>
            <ns3:atemp>19.0</ns3:atemp>
          </ns3:TrackPointExtension>
        </extensions>
      </trkpt>
      <trkpt lat="42.58938300423324108123779296875" lon="20.0925616733729839324951171875">
        <ele>2089.199951171875</ele>
        <time>2026-06-15T09:49:02.000Z</time>
        <extensions>
          <ns3:TrackPointExtension>
            <ns3:atemp>19.0</ns3:atemp>
          </ns3:TrackPointExtension>
        </extensions>
      </trkpt>
      <trkpt lat="42.58938300423324108123779296875" lon="20.0925616733729839324951171875">
        <ele>2089.60009765625</ele>
        <time>2026-06-15T09:49:03.000Z</time>
        <extensions>
          <ns3:TrackPointExtension>
            <ns3:atemp>19.0</ns3:atemp>
          </ns3:TrackPointExtension>
        </extensions>
      </trkpt>
      <trkpt lat="42.5893601216375827789306640625" lon="20.09254499338567256927490234375">
        <ele>2089.800048828125</ele>
        <time>2026-06-15T09:49:04.000Z</time>
        <extensions>
          <ns3:TrackPointExtension>
            <ns3:atemp>19.0</ns3:atemp>
          </ns3:TrackPointExtension>
        </extensions>
      </trkpt>
      <trkpt lat="42.589311338961124420166015625" lon="20.09250844828784465789794921875">
        <ele>2089.800048828125</ele>
        <time>2026-06-15T09:49:05.000Z</time>
        <extensions>
          <ns3:TrackPointExtension>
            <ns3:atemp>19.0</ns3:atemp>
          </ns3:TrackPointExtension>
        </extensions>
      </trkpt>
      <trkpt lat="42.58928845636546611785888671875" lon="20.09249143302440643310546875">
        <ele>2090</ele>
        <time>2026-06-15T09:49:06.000Z</time>
        <extensions>
          <ns3:TrackPointExtension>
            <ns3:atemp>19.0</ns3:atemp>
          </ns3:TrackPointExtension>
        </extensions>
      </trkpt>
      <trkpt lat="42.589263729751110076904296875" lon="20.0924781896173954010009765625">
        <ele>2090.199951171875</ele>
        <time>2026-06-15T09:49:07.000Z</time>
        <extensions>
          <ns3:TrackPointExtension>
            <ns3:atemp>19.0</ns3:atemp>
          </ns3:TrackPointExtension>
        </extensions>
      </trkpt>
      <trkpt lat="42.5892394222319126129150390625" lon="20.09246318601071834564208984375">
        <ele>2090.60009765625</ele>
        <time>2026-06-15T09:49:08.000Z</time>
        <extensions>
          <ns3:TrackPointExtension>
            <ns3:atemp>19.0</ns3:atemp>
          </ns3:TrackPointExtension>
        </extensions>
      </trkpt>
      <trkpt lat="42.5892129354178905487060546875" lon="20.09244591929018497467041015625">
        <ele>2090.800048828125</ele>
        <time>2026-06-15T09:49:09.000Z</time>
        <extensions>
          <ns3:TrackPointExtension>
            <ns3:atemp>19.0</ns3:atemp>
          </ns3:TrackPointExtension>
        </extensions>
      </trkpt>
      <trkpt lat="42.58918703533709049224853515625" lon="20.092433430254459381103515625">
        <ele>2091.199951171875</ele>
        <time>2026-06-15T09:49:10.000Z</time>
        <extensions>
          <ns3:TrackPointExtension>
            <ns3:atemp>19.0</ns3:atemp>
          </ns3:TrackPointExtension>
        </extensions>
      </trkpt>
      <trkpt lat="42.58916147053241729736328125" lon="20.09242010302841663360595703125">
        <ele>2091.39990234375</ele>
        <time>2026-06-15T09:49:11.000Z</time>
        <extensions>
          <ns3:TrackPointExtension>
            <ns3:atemp>19.0</ns3:atemp>
          </ns3:TrackPointExtension>
        </extensions>
      </trkpt>
      <trkpt lat="42.58913422934710979461669921875" lon="20.0924061052501201629638671875">
        <ele>2091.800048828125</ele>
        <time>2026-06-15T09:49:12.000Z</time>
        <extensions>
          <ns3:TrackPointExtension>
            <ns3:atemp>19.0</ns3:atemp>
          </ns3:TrackPointExtension>
        </extensions>
      </trkpt>
      <trkpt lat="42.5891063176095485687255859375" lon="20.092392861843109130859375">
        <ele>2092</ele>
        <time>2026-06-15T09:49:13.000Z</time>
        <extensions>
          <ns3:TrackPointExtension>
            <ns3:atemp>19.0</ns3:atemp>
          </ns3:TrackPointExtension>
        </extensions>
      </trkpt>
      <trkpt lat="42.58907740004360675811767578125" lon="20.09237903170287609100341796875">
        <ele>2092.39990234375</ele>
        <time>2026-06-15T09:49:14.000Z</time>
        <extensions>
          <ns3:TrackPointExtension>
            <ns3:atemp>19.0</ns3:atemp>
          </ns3:TrackPointExtension>
        </extensions>
      </trkpt>
      <trkpt lat="42.58904923684895038604736328125" lon="20.09236897341907024383544921875">
        <ele>2092.800048828125</ele>
        <time>2026-06-15T09:49:15.000Z</time>
        <extensions>
          <ns3:TrackPointExtension>
            <ns3:atemp>19.0</ns3:atemp>
          </ns3:TrackPointExtension>
        </extensions>
      </trkpt>
      <trkpt lat="42.58902224712073802947998046875" lon="20.0923601724207401275634765625">
        <ele>2093</ele>
        <time>2026-06-15T09:49:16.000Z</time>
        <extensions>
          <ns3:TrackPointExtension>
            <ns3:atemp>19.0</ns3:atemp>
          </ns3:TrackPointExtension>
        </extensions>
      </trkpt>
      <trkpt lat="42.58899861015379428863525390625" lon="20.092345587909221649169921875">
        <ele>2093.39990234375</ele>
        <time>2026-06-15T09:49:17.000Z</time>
        <extensions>
          <ns3:TrackPointExtension>
            <ns3:atemp>19.0</ns3:atemp>
          </ns3:TrackPointExtension>
        </extensions>
      </trkpt>
      <trkpt lat="42.58897581137716770172119140625" lon="20.09232857264578342437744140625">
        <ele>2093.800048828125</ele>
        <time>2026-06-15T09:49:18.000Z</time>
        <extensions>
          <ns3:TrackPointExtension>
            <ns3:atemp>19.0</ns3:atemp>
          </ns3:TrackPointExtension>
        </extensions>
      </trkpt>
      <trkpt lat="42.5889504142105579376220703125" lon="20.0923137366771697998046875">
        <ele>2094</ele>
        <time>2026-06-15T09:49:19.000Z</time>
        <extensions>
          <ns3:TrackPointExtension>
            <ns3:atemp>19.0</ns3:atemp>
          </ns3:TrackPointExtension>
        </extensions>
      </trkpt>
      <trkpt lat="42.58892484940588474273681640625" lon="20.092301666736602783203125">
        <ele>2094.39990234375</ele>
        <time>2026-06-15T09:49:20.000Z</time>
        <extensions>
          <ns3:TrackPointExtension>
            <ns3:atemp>19.0</ns3:atemp>
          </ns3:TrackPointExtension>
        </extensions>
      </trkpt>
      <trkpt lat="42.58890054188668727874755859375" lon="20.09228884242475032806396484375">
        <ele>2094.60009765625</ele>
        <time>2026-06-15T09:49:21.000Z</time>
        <extensions>
          <ns3:TrackPointExtension>
            <ns3:atemp>19.0</ns3:atemp>
          </ns3:TrackPointExtension>
        </extensions>
      </trkpt>
      <trkpt lat="42.58887941949069499969482421875" lon="20.09227911941707134246826171875">
        <ele>2095</ele>
        <time>2026-06-15T09:49:22.000Z</time>
        <extensions>
          <ns3:TrackPointExtension>
            <ns3:atemp>19.0</ns3:atemp>
          </ns3:TrackPointExtension>
        </extensions>
      </trkpt>
      <trkpt lat="42.588856033980846405029296875" lon="20.09227090515196323394775390625">
        <ele>2095.199951171875</ele>
        <time>2026-06-15T09:49:23.000Z</time>
        <extensions>
          <ns3:TrackPointExtension>
            <ns3:atemp>19.0</ns3:atemp>
          </ns3:TrackPointExtension>
        </extensions>
      </trkpt>
      <trkpt lat="42.58883181028068065643310546875" lon="20.0922626070678234100341796875">
        <ele>2095.60009765625</ele>
        <time>2026-06-15T09:49:24.000Z</time>
        <extensions>
          <ns3:TrackPointExtension>
            <ns3:atemp>19.0</ns3:atemp>
          </ns3:TrackPointExtension>
        </extensions>
      </trkpt>
      <trkpt lat="42.58880649693310260772705078125" lon="20.092253722250461578369140625">
        <ele>2095.800048828125</ele>
        <time>2026-06-15T09:49:25.000Z</time>
        <extensions>
          <ns3:TrackPointExtension>
            <ns3:atemp>19.0</ns3:atemp>
          </ns3:TrackPointExtension>
        </extensions>
      </trkpt>
      <trkpt lat="42.5887814350426197052001953125" lon="20.0922438316047191619873046875">
        <ele>2096.199951171875</ele>
        <time>2026-06-15T09:49:26.000Z</time>
        <extensions>
          <ns3:TrackPointExtension>
            <ns3:atemp>19.0</ns3:atemp>
          </ns3:TrackPointExtension>
        </extensions>
      </trkpt>
      <trkpt lat="42.5887566246092319488525390625" lon="20.0922354497015476226806640625">
        <ele>2096.39990234375</ele>
        <time>2026-06-15T09:49:27.000Z</time>
        <extensions>
          <ns3:TrackPointExtension>
            <ns3:atemp>19.0</ns3:atemp>
          </ns3:TrackPointExtension>
        </extensions>
      </trkpt>
      <trkpt lat="42.5887274555861949920654296875" lon="20.0922290794551372528076171875">
        <ele>2096.800048828125</ele>
        <time>2026-06-15T09:49:28.000Z</time>
        <extensions>
          <ns3:TrackPointExtension>
            <ns3:atemp>19.0</ns3:atemp>
          </ns3:TrackPointExtension>
        </extensions>
      </trkpt>
      <trkpt lat="42.588699124753475189208984375" lon="20.09222195483744144439697265625">
        <ele>2097.199951171875</ele>
        <time>2026-06-15T09:49:29.000Z</time>
        <extensions>
          <ns3:TrackPointExtension>
            <ns3:atemp>19.0</ns3:atemp>
          </ns3:TrackPointExtension>
        </extensions>
      </trkpt>
      <trkpt lat="42.588673643767833709716796875" lon="20.09221223182976245880126953125">
        <ele>2097.39990234375</ele>
        <time>2026-06-15T09:49:30.000Z</time>
        <extensions>
          <ns3:TrackPointExtension>
            <ns3:atemp>19.0</ns3:atemp>
          </ns3:TrackPointExtension>
        </extensions>
      </trkpt>
      <trkpt lat="42.588673643767833709716796875" lon="20.09221223182976245880126953125">
        <ele>2097.60009765625</ele>
        <time>2026-06-15T09:49:31.000Z</time>
        <extensions>
          <ns3:TrackPointExtension>
            <ns3:atemp>19.0</ns3:atemp>
          </ns3:TrackPointExtension>
        </extensions>
      </trkpt>
      <trkpt lat="42.5886302255094051361083984375" lon="20.0922032631933689117431640625">
        <ele>2098</ele>
        <time>2026-06-15T09:49:32.000Z</time>
        <extensions>
          <ns3:TrackPointExtension>
            <ns3:atemp>19.0</ns3:atemp>
          </ns3:TrackPointExtension>
        </extensions>
      </trkpt>
      <trkpt lat="42.588603906333446502685546875" lon="20.09219110943377017974853515625">
        <ele>2098.199951171875</ele>
        <time>2026-06-15T09:49:33.000Z</time>
        <extensions>
          <ns3:TrackPointExtension>
            <ns3:atemp>19.0</ns3:atemp>
          </ns3:TrackPointExtension>
        </extensions>
      </trkpt>
      <trkpt lat="42.58857180364429950714111328125" lon="20.092183649539947509765625">
        <ele>2098.60009765625</ele>
        <time>2026-06-15T09:49:34.000Z</time>
        <extensions>
          <ns3:TrackPointExtension>
            <ns3:atemp>19.0</ns3:atemp>
          </ns3:TrackPointExtension>
        </extensions>
      </trkpt>
      <trkpt lat="42.58854347281157970428466796875" lon="20.09217401035130023956298828125">
        <ele>2098.800048828125</ele>
        <time>2026-06-15T09:49:35.000Z</time>
        <extensions>
          <ns3:TrackPointExtension>
            <ns3:atemp>19.0</ns3:atemp>
          </ns3:TrackPointExtension>
        </extensions>
      </trkpt>
      <trkpt lat="42.58851648308336734771728515625" lon="20.0921623595058917999267578125">
        <ele>2099</ele>
        <time>2026-06-15T09:49:36.000Z</time>
        <extensions>
          <ns3:TrackPointExtension>
            <ns3:atemp>19.0</ns3:atemp>
          </ns3:TrackPointExtension>
        </extensions>
      </trkpt>
      <trkpt lat="42.58848932571709156036376953125" lon="20.09215607307851314544677734375">
        <ele>2099.199951171875</ele>
        <time>2026-06-15T09:49:37.000Z</time>
        <extensions>
          <ns3:TrackPointExtension>
            <ns3:atemp>19.0</ns3:atemp>
          </ns3:TrackPointExtension>
        </extensions>
      </trkpt>
      <trkpt lat="42.58846485055983066558837890625" lon="20.09215070866048336029052734375">
        <ele>2099.60009765625</ele>
        <time>2026-06-15T09:49:38.000Z</time>
        <extensions>
          <ns3:TrackPointExtension>
            <ns3:atemp>19.0</ns3:atemp>
          </ns3:TrackPointExtension>
        </extensions>
      </trkpt>
      <trkpt lat="42.58843970485031604766845703125" lon="20.0921412371098995208740234375">
        <ele>2099.800048828125</ele>
        <time>2026-06-15T09:49:39.000Z</time>
        <extensions>
          <ns3:TrackPointExtension>
            <ns3:atemp>19.0</ns3:atemp>
          </ns3:TrackPointExtension>
        </extensions>
      </trkpt>
      <trkpt lat="42.58841455914080142974853515625" lon="20.09213277138769626617431640625">
        <ele>2100.39990234375</ele>
        <time>2026-06-15T09:49:40.000Z</time>
        <extensions>
          <ns3:TrackPointExtension>
            <ns3:atemp>19.0</ns3:atemp>
          </ns3:TrackPointExtension>
        </extensions>
      </trkpt>
      <trkpt lat="42.5883871503174304962158203125" lon="20.09212489239871501922607421875">
        <ele>2100.60009765625</ele>
        <time>2026-06-15T09:49:41.000Z</time>
        <extensions>
          <ns3:TrackPointExtension>
            <ns3:atemp>19.0</ns3:atemp>
          </ns3:TrackPointExtension>
        </extensions>
      </trkpt>
      <trkpt lat="42.58835949003696441650390625" lon="20.092118270695209503173828125">
        <ele>2101</ele>
        <time>2026-06-15T09:49:42.000Z</time>
        <extensions>
          <ns3:TrackPointExtension>
            <ns3:atemp>19.0</ns3:atemp>
          </ns3:TrackPointExtension>
        </extensions>
      </trkpt>
      <trkpt lat="42.5883308239281177520751953125" lon="20.09210997261106967926025390625">
        <ele>2101.39990234375</ele>
        <time>2026-06-15T09:49:43.000Z</time>
        <extensions>
          <ns3:TrackPointExtension>
            <ns3:atemp>19.0</ns3:atemp>
          </ns3:TrackPointExtension>
        </extensions>
      </trkpt>
      <trkpt lat="42.58830316364765167236328125" lon="20.09210410527884960174560546875">
        <ele>2101.800048828125</ele>
        <time>2026-06-15T09:49:44.000Z</time>
        <extensions>
          <ns3:TrackPointExtension>
            <ns3:atemp>19.0</ns3:atemp>
          </ns3:TrackPointExtension>
        </extensions>
      </trkpt>
      <trkpt lat="42.58827709592878818511962890625" lon="20.09209807030856609344482421875">
        <ele>2102.199951171875</ele>
        <time>2026-06-15T09:49:45.000Z</time>
        <extensions>
          <ns3:TrackPointExtension>
            <ns3:atemp>19.0</ns3:atemp>
          </ns3:TrackPointExtension>
        </extensions>
      </trkpt>
      <trkpt lat="42.5882493518292903900146484375" lon="20.0920936278998851776123046875">
        <ele>2102.60009765625</ele>
        <time>2026-06-15T09:49:46.000Z</time>
        <extensions>
          <ns3:TrackPointExtension>
            <ns3:atemp>19.0</ns3:atemp>
          </ns3:TrackPointExtension>
        </extensions>
      </trkpt>
      <trkpt lat="42.58822135627269744873046875" lon="20.0920889340341091156005859375">
        <ele>2102.800048828125</ele>
        <time>2026-06-15T09:49:47.000Z</time>
        <extensions>
          <ns3:TrackPointExtension>
            <ns3:atemp>19.0</ns3:atemp>
          </ns3:TrackPointExtension>
        </extensions>
      </trkpt>
      <trkpt lat="42.588196210563182830810546875" lon="20.092080049216747283935546875">
        <ele>2103.199951171875</ele>
        <time>2026-06-15T09:49:48.000Z</time>
        <extensions>
          <ns3:TrackPointExtension>
            <ns3:atemp>19.0</ns3:atemp>
          </ns3:TrackPointExtension>
        </extensions>
      </trkpt>
      <trkpt lat="42.5881697237491607666015625" lon="20.09207460097968578338623046875">
        <ele>2103.39990234375</ele>
        <time>2026-06-15T09:49:49.000Z</time>
        <extensions>
          <ns3:TrackPointExtension>
            <ns3:atemp>19.0</ns3:atemp>
          </ns3:TrackPointExtension>
        </extensions>
      </trkpt>
      <trkpt lat="42.58814348839223384857177734375" lon="20.09206898510456085205078125">
        <ele>2103.800048828125</ele>
        <time>2026-06-15T09:49:50.000Z</time>
        <extensions>
          <ns3:TrackPointExtension>
            <ns3:atemp>19.0</ns3:atemp>
          </ns3:TrackPointExtension>
        </extensions>
      </trkpt>
      <trkpt lat="42.58811901323497295379638671875" lon="20.092064626514911651611328125">
        <ele>2104.199951171875</ele>
        <time>2026-06-15T09:49:51.000Z</time>
        <extensions>
          <ns3:TrackPointExtension>
            <ns3:atemp>19.0</ns3:atemp>
          </ns3:TrackPointExtension>
        </extensions>
      </trkpt>
      <trkpt lat="42.58809755556285381317138671875" lon="20.09205901063978672027587890625">
        <ele>2104.60009765625</ele>
        <time>2026-06-15T09:49:52.000Z</time>
        <extensions>
          <ns3:TrackPointExtension>
            <ns3:atemp>19.0</ns3:atemp>
          </ns3:TrackPointExtension>
        </extensions>
      </trkpt>
      <trkpt lat="42.58807240985333919525146484375" lon="20.09205230511724948883056640625">
        <ele>2104.800048828125</ele>
        <time>2026-06-15T09:49:53.000Z</time>
        <extensions>
          <ns3:TrackPointExtension>
            <ns3:atemp>19.0</ns3:atemp>
          </ns3:TrackPointExtension>
        </extensions>
      </trkpt>
      <trkpt lat="42.58804340846836566925048828125" lon="20.0920440070331096649169921875">
        <ele>2105.199951171875</ele>
        <time>2026-06-15T09:49:54.000Z</time>
        <extensions>
          <ns3:TrackPointExtension>
            <ns3:atemp>19.0</ns3:atemp>
          </ns3:TrackPointExtension>
        </extensions>
      </trkpt>
      <trkpt lat="42.58801641874015331268310546875" lon="20.09203411638736724853515625">
        <ele>2105.60009765625</ele>
        <time>2026-06-15T09:49:55.000Z</time>
        <extensions>
          <ns3:TrackPointExtension>
            <ns3:atemp>19.0</ns3:atemp>
          </ns3:TrackPointExtension>
        </extensions>
      </trkpt>
      <trkpt lat="42.5879905186593532562255859375" lon="20.092025734484195709228515625">
        <ele>2105.800048828125</ele>
        <time>2026-06-15T09:49:56.000Z</time>
        <extensions>
          <ns3:TrackPointExtension>
            <ns3:atemp>19.0</ns3:atemp>
          </ns3:TrackPointExtension>
        </extensions>
      </trkpt>
      <trkpt lat="42.58796579204499721527099609375" lon="20.09201928041875362396240234375">
        <ele>2106.199951171875</ele>
        <time>2026-06-15T09:49:57.000Z</time>
        <extensions>
          <ns3:TrackPointExtension>
            <ns3:atemp>19.0</ns3:atemp>
          </ns3:TrackPointExtension>
        </extensions>
      </trkpt>
      <trkpt lat="42.58794081397354602813720703125" lon="20.092011652886867523193359375">
        <ele>2106.60009765625</ele>
        <time>2026-06-15T09:49:58.000Z</time>
        <extensions>
          <ns3:TrackPointExtension>
            <ns3:atemp>19.0</ns3:atemp>
          </ns3:TrackPointExtension>
        </extensions>
      </trkpt>
      <trkpt lat="42.58792002685368061065673828125" lon="20.0920054502785205841064453125">
        <ele>2107</ele>
        <time>2026-06-15T09:49:59.000Z</time>
        <extensions>
          <ns3:TrackPointExtension>
            <ns3:atemp>19.0</ns3:atemp>
          </ns3:TrackPointExtension>
        </extensions>
      </trkpt>
      <trkpt lat="42.58789504878222942352294921875" lon="20.0919957272708415985107421875">
        <ele>2107.39990234375</ele>
        <time>2026-06-15T09:50:00.000Z</time>
        <extensions>
          <ns3:TrackPointExtension>
            <ns3:atemp>19.0</ns3:atemp>
          </ns3:TrackPointExtension>
        </extensions>
      </trkpt>
      <trkpt lat="42.58786822669208049774169921875" lon="20.09198524989187717437744140625">
        <ele>2107.800048828125</ele>
        <time>2026-06-15T09:50:01.000Z</time>
        <extensions>
          <ns3:TrackPointExtension>
            <ns3:atemp>19.0</ns3:atemp>
          </ns3:TrackPointExtension>
        </extensions>
      </trkpt>
      <trkpt lat="42.5878453440964221954345703125" lon="20.0919739343225955963134765625">
        <ele>2108.60009765625</ele>
        <time>2026-06-15T09:50:02.000Z</time>
        <extensions>
          <ns3:TrackPointExtension>
            <ns3:atemp>19.0</ns3:atemp>
          </ns3:TrackPointExtension>
        </extensions>
      </trkpt>
      <trkpt lat="42.587824724614620208740234375" lon="20.091962032020092010498046875">
        <ele>2109</ele>
        <time>2026-06-15T09:50:03.000Z</time>
        <extensions>
          <ns3:TrackPointExtension>
            <ns3:atemp>19.0</ns3:atemp>
          </ns3:TrackPointExtension>
        </extensions>
      </trkpt>
      <trkpt lat="42.5877977348864078521728515625" lon="20.0919528119266033172607421875">
        <ele>2109.39990234375</ele>
        <time>2026-06-15T09:50:04.000Z</time>
        <extensions>
          <ns3:TrackPointExtension>
            <ns3:atemp>19.0</ns3:atemp>
          </ns3:TrackPointExtension>
        </extensions>
      </trkpt>
      <trkpt lat="42.5877722539007663726806640625" lon="20.09194694459438323974609375">
        <ele>2110</ele>
        <time>2026-06-15T09:50:05.000Z</time>
        <extensions>
          <ns3:TrackPointExtension>
            <ns3:atemp>19.0</ns3:atemp>
          </ns3:TrackPointExtension>
        </extensions>
      </trkpt>
      <trkpt lat="42.58774970658123493194580078125" lon="20.091935880482196807861328125">
        <ele>2110.39990234375</ele>
        <time>2026-06-15T09:50:06.000Z</time>
        <extensions>
          <ns3:TrackPointExtension>
            <ns3:atemp>19.0</ns3:atemp>
          </ns3:TrackPointExtension>
        </extensions>
      </trkpt>
      <trkpt lat="42.5877229683101177215576171875" lon="20.0919223017990589141845703125">
        <ele>2110.800048828125</ele>
        <time>2026-06-15T09:50:07.000Z</time>
        <extensions>
          <ns3:TrackPointExtension>
            <ns3:atemp>19.0</ns3:atemp>
          </ns3:TrackPointExtension>
        </extensions>
      </trkpt>
      <trkpt lat="42.58769690059125423431396484375" lon="20.091907046735286712646484375">
        <ele>2111.199951171875</ele>
        <time>2026-06-15T09:50:08.000Z</time>
        <extensions>
          <ns3:TrackPointExtension>
            <ns3:atemp>19.0</ns3:atemp>
          </ns3:TrackPointExtension>
        </extensions>
      </trkpt>
      <trkpt lat="42.58767376653850078582763671875" lon="20.0918877683579921722412109375">
        <ele>2111.60009765625</ele>
        <time>2026-06-15T09:50:09.000Z</time>
        <extensions>
          <ns3:TrackPointExtension>
            <ns3:atemp>19.0</ns3:atemp>
          </ns3:TrackPointExtension>
        </extensions>
      </trkpt>
      <trkpt lat="42.58764828555285930633544921875" lon="20.0918684899806976318359375">
        <ele>2112</ele>
        <time>2026-06-15T09:50:10.000Z</time>
        <extensions>
          <ns3:TrackPointExtension>
            <ns3:atemp>19.0</ns3:atemp>
          </ns3:TrackPointExtension>
        </extensions>
      </trkpt>
      <trkpt lat="42.58762196637690067291259765625" lon="20.09185465984046459197998046875">
        <ele>2112.39990234375</ele>
        <time>2026-06-15T09:50:11.000Z</time>
        <extensions>
          <ns3:TrackPointExtension>
            <ns3:atemp>19.0</ns3:atemp>
          </ns3:TrackPointExtension>
        </extensions>
      </trkpt>
      <trkpt lat="42.58759832940995693206787109375" lon="20.09183756075799465179443359375">
        <ele>2112.800048828125</ele>
        <time>2026-06-15T09:50:12.000Z</time>
        <extensions>
          <ns3:TrackPointExtension>
            <ns3:atemp>19.0</ns3:atemp>
          </ns3:TrackPointExtension>
        </extensions>
      </trkpt>
      <trkpt lat="42.5875757820904254913330078125" lon="20.0918166898190975189208984375">
        <ele>2113.199951171875</ele>
        <time>2026-06-15T09:50:13.000Z</time>
        <extensions>
          <ns3:TrackPointExtension>
            <ns3:atemp>19.0</ns3:atemp>
          </ns3:TrackPointExtension>
        </extensions>
      </trkpt>
      <trkpt lat="42.58755289949476718902587890625" lon="20.0917982496321201324462890625">
        <ele>2113.60009765625</ele>
        <time>2026-06-15T09:50:14.000Z</time>
        <extensions>
          <ns3:TrackPointExtension>
            <ns3:atemp>19.0</ns3:atemp>
          </ns3:TrackPointExtension>
        </extensions>
      </trkpt>
      <trkpt lat="42.58753043599426746368408203125" lon="20.09178341366350650787353515625">
        <ele>2114</ele>
        <time>2026-06-15T09:50:15.000Z</time>
        <extensions>
          <ns3:TrackPointExtension>
            <ns3:atemp>19.0</ns3:atemp>
          </ns3:TrackPointExtension>
        </extensions>
      </trkpt>
      <trkpt lat="42.587508894503116607666015625" lon="20.09176664985716342926025390625">
        <ele>2114.39990234375</ele>
        <time>2026-06-15T09:50:16.000Z</time>
        <extensions>
          <ns3:TrackPointExtension>
            <ns3:atemp>19.0</ns3:atemp>
          </ns3:TrackPointExtension>
        </extensions>
      </trkpt>
      <trkpt lat="42.587485425174236297607421875" lon="20.09174938313663005828857421875">
        <ele>2114.800048828125</ele>
        <time>2026-06-15T09:50:17.000Z</time>
        <extensions>
          <ns3:TrackPointExtension>
            <ns3:atemp>19.0</ns3:atemp>
          </ns3:TrackPointExtension>
        </extensions>
      </trkpt>
      <trkpt lat="42.5874641351401805877685546875" lon="20.0917308591306209564208984375">
        <ele>2115.199951171875</ele>
        <time>2026-06-15T09:50:18.000Z</time>
        <extensions>
          <ns3:TrackPointExtension>
            <ns3:atemp>19.0</ns3:atemp>
          </ns3:TrackPointExtension>
        </extensions>
      </trkpt>
      <trkpt lat="42.5874433480203151702880859375" lon="20.09171032346785068511962890625">
        <ele>2115.800048828125</ele>
        <time>2026-06-15T09:50:19.000Z</time>
        <extensions>
          <ns3:TrackPointExtension>
            <ns3:atemp>19.0</ns3:atemp>
          </ns3:TrackPointExtension>
        </extensions>
      </trkpt>
      <trkpt lat="42.58742348290979862213134765625" lon="20.091690458357334136962890625">
        <ele>2116.199951171875</ele>
        <time>2026-06-15T09:50:20.000Z</time>
        <extensions>
          <ns3:TrackPointExtension>
            <ns3:atemp>19.0</ns3:atemp>
          </ns3:TrackPointExtension>
        </extensions>
      </trkpt>
      <trkpt lat="42.5874027796089649200439453125" lon="20.0916700065135955810546875">
        <ele>2116.39990234375</ele>
        <time>2026-06-15T09:50:21.000Z</time>
        <extensions>
          <ns3:TrackPointExtension>
            <ns3:atemp>19.0</ns3:atemp>
          </ns3:TrackPointExtension>
        </extensions>
      </trkpt>
      <trkpt lat="42.58738190867006778717041015625" lon="20.09165148250758647918701171875">
        <ele>2116.800048828125</ele>
        <time>2026-06-15T09:50:22.000Z</time>
        <extensions>
          <ns3:TrackPointExtension>
            <ns3:atemp>19.0</ns3:atemp>
          </ns3:TrackPointExtension>
        </extensions>
      </trkpt>
      <trkpt lat="42.58736162446439266204833984375" lon="20.091630108654499053955078125">
        <ele>2117.199951171875</ele>
        <time>2026-06-15T09:50:23.000Z</time>
        <extensions>
          <ns3:TrackPointExtension>
            <ns3:atemp>19.0</ns3:atemp>
          </ns3:TrackPointExtension>
        </extensions>
      </trkpt>
      <trkpt lat="42.58733865804970264434814453125" lon="20.091607980430126190185546875">
        <ele>2117.60009765625</ele>
        <time>2026-06-15T09:50:24.000Z</time>
        <extensions>
          <ns3:TrackPointExtension>
            <ns3:atemp>19.0</ns3:atemp>
          </ns3:TrackPointExtension>
        </extensions>
      </trkpt>
      <trkpt lat="42.58731602691113948822021484375" lon="20.09157939814031124114990234375">
        <ele>2117.800048828125</ele>
        <time>2026-06-15T09:50:25.000Z</time>
        <extensions>
          <ns3:TrackPointExtension>
            <ns3:atemp>19.0</ns3:atemp>
          </ns3:TrackPointExtension>
        </extensions>
      </trkpt>
      <trkpt lat="42.58729289285838603973388671875" lon="20.09154905565083026885986328125">
        <ele>2118</ele>
        <time>2026-06-15T09:50:26.000Z</time>
        <extensions>
          <ns3:TrackPointExtension>
            <ns3:atemp>19.0</ns3:atemp>
          </ns3:TrackPointExtension>
        </extensions>
      </trkpt>
      <trkpt lat="42.58726540021598339080810546875" lon="20.09151888079941272735595703125">
        <ele>2118.39990234375</ele>
        <time>2026-06-15T09:50:27.000Z</time>
        <extensions>
          <ns3:TrackPointExtension>
            <ns3:atemp>19.0</ns3:atemp>
          </ns3:TrackPointExtension>
        </extensions>
      </trkpt>
      <trkpt lat="42.5872378237545490264892578125" lon="20.09149306453764438629150390625">
        <ele>2118.60009765625</ele>
        <time>2026-06-15T09:50:28.000Z</time>
        <extensions>
          <ns3:TrackPointExtension>
            <ns3:atemp>19.0</ns3:atemp>
          </ns3:TrackPointExtension>
        </extensions>
      </trkpt>
      <trkpt lat="42.5872116722166538238525390625" lon="20.09147110395133495330810546875">
        <ele>2119</ele>
        <time>2026-06-15T09:50:29.000Z</time>
        <extensions>
          <ns3:TrackPointExtension>
            <ns3:atemp>19.0</ns3:atemp>
          </ns3:TrackPointExtension>
        </extensions>
      </trkpt>
      <trkpt lat="42.587185017764568328857421875" lon="20.09144495241343975067138671875">
        <ele>2119.39990234375</ele>
        <time>2026-06-15T09:50:30.000Z</time>
        <extensions>
          <ns3:TrackPointExtension>
            <ns3:atemp>19.0</ns3:atemp>
          </ns3:TrackPointExtension>
        </extensions>
      </trkpt>
      <trkpt lat="42.5871560163795948028564453125" lon="20.09142349474132061004638671875">
        <ele>2119.800048828125</ele>
        <time>2026-06-15T09:50:31.000Z</time>
        <extensions>
          <ns3:TrackPointExtension>
            <ns3:atemp>19.0</ns3:atemp>
          </ns3:TrackPointExtension>
        </extensions>
      </trkpt>
      <trkpt lat="42.58712693117558956146240234375" lon="20.0914059765636920928955078125">
        <ele>2120.199951171875</ele>
        <time>2026-06-15T09:50:32.000Z</time>
        <extensions>
          <ns3:TrackPointExtension>
            <ns3:atemp>19.0</ns3:atemp>
          </ns3:TrackPointExtension>
        </extensions>
      </trkpt>
      <trkpt lat="42.58710086345672607421875" lon="20.09138175286352634429931640625">
        <ele>2120.39990234375</ele>
        <time>2026-06-15T09:50:33.000Z</time>
        <extensions>
          <ns3:TrackPointExtension>
            <ns3:atemp>19.0</ns3:atemp>
          </ns3:TrackPointExtension>
        </extensions>
      </trkpt>
      <trkpt lat="42.58707446046173572540283203125" lon="20.09136197157204151153564453125">
        <ele>2120.800048828125</ele>
        <time>2026-06-15T09:50:34.000Z</time>
        <extensions>
          <ns3:TrackPointExtension>
            <ns3:atemp>19.0</ns3:atemp>
          </ns3:TrackPointExtension>
        </extensions>
      </trkpt>
      <trkpt lat="42.58704788982868194580078125" lon="20.091341771185398101806640625">
        <ele>2121.199951171875</ele>
        <time>2026-06-15T09:50:35.000Z</time>
        <extensions>
          <ns3:TrackPointExtension>
            <ns3:atemp>19.0</ns3:atemp>
          </ns3:TrackPointExtension>
        </extensions>
      </trkpt>
      <trkpt lat="42.58702064864337444305419921875" lon="20.0913211517035961151123046875">
        <ele>2121.60009765625</ele>
        <time>2026-06-15T09:50:36.000Z</time>
        <extensions>
          <ns3:TrackPointExtension>
            <ns3:atemp>19.0</ns3:atemp>
          </ns3:TrackPointExtension>
        </extensions>
      </trkpt>
      <trkpt lat="42.58699365891516208648681640625" lon="20.09130053222179412841796875">
        <ele>2122</ele>
        <time>2026-06-15T09:50:37.000Z</time>
        <extensions>
          <ns3:TrackPointExtension>
            <ns3:atemp>19.0</ns3:atemp>
          </ns3:TrackPointExtension>
        </extensions>
      </trkpt>
      <trkpt lat="42.586967088282108306884765625" lon="20.091281421482563018798828125">
        <ele>2122.60009765625</ele>
        <time>2026-06-15T09:50:38.000Z</time>
        <extensions>
          <ns3:TrackPointExtension>
            <ns3:atemp>19.0</ns3:atemp>
          </ns3:TrackPointExtension>
        </extensions>
      </trkpt>
      <trkpt lat="42.58693951182067394256591796875" lon="20.091261975467205047607421875">
        <ele>2123</ele>
        <time>2026-06-15T09:50:39.000Z</time>
        <extensions>
          <ns3:TrackPointExtension>
            <ns3:atemp>19.0</ns3:atemp>
          </ns3:TrackPointExtension>
        </extensions>
      </trkpt>
      <trkpt lat="42.5869112648069858551025390625" lon="20.091239176690578460693359375">
        <ele>2123.39990234375</ele>
        <time>2026-06-15T09:50:40.000Z</time>
        <extensions>
          <ns3:TrackPointExtension>
            <ns3:atemp>19.0</ns3:atemp>
          </ns3:TrackPointExtension>
        </extensions>
      </trkpt>
      <trkpt lat="42.5868807546794414520263671875" lon="20.09122073650360107421875">
        <ele>2123.800048828125</ele>
        <time>2026-06-15T09:50:41.000Z</time>
        <extensions>
          <ns3:TrackPointExtension>
            <ns3:atemp>19.0</ns3:atemp>
          </ns3:TrackPointExtension>
        </extensions>
      </trkpt>
      <trkpt lat="42.58685049600899219512939453125" lon="20.0912054814398288726806640625">
        <ele>2124.199951171875</ele>
        <time>2026-06-15T09:50:42.000Z</time>
        <extensions>
          <ns3:TrackPointExtension>
            <ns3:atemp>19.0</ns3:atemp>
          </ns3:TrackPointExtension>
        </extensions>
      </trkpt>
      <trkpt lat="42.58682250045239925384521484375" lon="20.091190896928310394287109375">
        <ele>2124.60009765625</ele>
        <time>2026-06-15T09:50:43.000Z</time>
        <extensions>
          <ns3:TrackPointExtension>
            <ns3:atemp>19.0</ns3:atemp>
          </ns3:TrackPointExtension>
        </extensions>
      </trkpt>
      <trkpt lat="42.58679433725774288177490234375" lon="20.09117580950260162353515625">
        <ele>2125</ele>
        <time>2026-06-15T09:50:44.000Z</time>
        <extensions>
          <ns3:TrackPointExtension>
            <ns3:atemp>19.0</ns3:atemp>
          </ns3:TrackPointExtension>
        </extensions>
      </trkpt>
      <trkpt lat="42.58676516823470592498779296875" lon="20.09116248227655887603759765625">
        <ele>2125.39990234375</ele>
        <time>2026-06-15T09:50:45.000Z</time>
        <extensions>
          <ns3:TrackPointExtension>
            <ns3:atemp>19.0</ns3:atemp>
          </ns3:TrackPointExtension>
        </extensions>
      </trkpt>
      <trkpt lat="42.58673717267811298370361328125" lon="20.0911525078117847442626953125">
        <ele>2126</ele>
        <time>2026-06-15T09:50:46.000Z</time>
        <extensions>
          <ns3:TrackPointExtension>
            <ns3:atemp>19.0</ns3:atemp>
          </ns3:TrackPointExtension>
        </extensions>
      </trkpt>
      <trkpt lat="42.58670984767377376556396484375" lon="20.09114320389926433563232421875">
        <ele>2126.39990234375</ele>
        <time>2026-06-15T09:50:47.000Z</time>
        <extensions>
          <ns3:TrackPointExtension>
            <ns3:atemp>19.0</ns3:atemp>
          </ns3:TrackPointExtension>
        </extensions>
      </trkpt>
      <trkpt lat="42.5866846181452274322509765625" lon="20.0911310501396656036376953125">
        <ele>2126.800048828125</ele>
        <time>2026-06-15T09:50:48.000Z</time>
        <extensions>
          <ns3:TrackPointExtension>
            <ns3:atemp>19.0</ns3:atemp>
          </ns3:TrackPointExtension>
        </extensions>
      </trkpt>
      <trkpt lat="42.5866561196744441986083984375" lon="20.0911219976842403411865234375">
        <ele>2127.199951171875</ele>
        <time>2026-06-15T09:50:49.000Z</time>
        <extensions>
          <ns3:TrackPointExtension>
            <ns3:atemp>19.0</ns3:atemp>
          </ns3:TrackPointExtension>
        </extensions>
      </trkpt>
      <trkpt lat="42.58662921376526355743408203125" lon="20.091114453971385955810546875">
        <ele>2127.60009765625</ele>
        <time>2026-06-15T09:50:50.000Z</time>
        <extensions>
          <ns3:TrackPointExtension>
            <ns3:atemp>19.0</ns3:atemp>
          </ns3:TrackPointExtension>
        </extensions>
      </trkpt>
      <trkpt lat="42.586604990065097808837890625" lon="20.09110741317272186279296875">
        <ele>2127.800048828125</ele>
        <time>2026-06-15T09:50:51.000Z</time>
        <extensions>
          <ns3:TrackPointExtension>
            <ns3:atemp>19.0</ns3:atemp>
          </ns3:TrackPointExtension>
        </extensions>
      </trkpt>
      <trkpt lat="42.5865816883742809295654296875" lon="20.0910986959934234619140625">
        <ele>2128.39990234375</ele>
        <time>2026-06-15T09:50:52.000Z</time>
        <extensions>
          <ns3:TrackPointExtension>
            <ns3:atemp>19.0</ns3:atemp>
          </ns3:TrackPointExtension>
        </extensions>
      </trkpt>
      <trkpt lat="42.5865590572357177734375" lon="20.09109324775636196136474609375">
        <ele>2128.800048828125</ele>
        <time>2026-06-15T09:50:53.000Z</time>
        <extensions>
          <ns3:TrackPointExtension>
            <ns3:atemp>19.0</ns3:atemp>
          </ns3:TrackPointExtension>
        </extensions>
      </trkpt>
      <trkpt lat="42.5865384377539157867431640625" lon="20.09108855389058589935302734375">
        <ele>2129</ele>
        <time>2026-06-15T09:50:54.000Z</time>
        <extensions>
          <ns3:TrackPointExtension>
            <ns3:atemp>19.0</ns3:atemp>
          </ns3:TrackPointExtension>
        </extensions>
      </trkpt>
      <trkpt lat="42.5865136273205280303955078125" lon="20.09108084253966808319091796875">
        <ele>2129.39990234375</ele>
        <time>2026-06-15T09:50:55.000Z</time>
        <extensions>
          <ns3:TrackPointExtension>
            <ns3:atemp>19.0</ns3:atemp>
          </ns3:TrackPointExtension>
        </extensions>
      </trkpt>
      <trkpt lat="42.5864879786968231201171875" lon="20.09107329882681369781494140625">
        <ele>2129.800048828125</ele>
        <time>2026-06-15T09:50:56.000Z</time>
        <extensions>
          <ns3:TrackPointExtension>
            <ns3:atemp>19.0</ns3:atemp>
          </ns3:TrackPointExtension>
        </extensions>
      </trkpt>
      <trkpt lat="42.5864630006253719329833984375" lon="20.09106709621846675872802734375">
        <ele>2130.199951171875</ele>
        <time>2026-06-15T09:50:57.000Z</time>
        <extensions>
          <ns3:TrackPointExtension>
            <ns3:atemp>19.0</ns3:atemp>
          </ns3:TrackPointExtension>
        </extensions>
      </trkpt>
      <trkpt lat="42.58643995039165019989013671875" lon="20.09106156416237354278564453125">
        <ele>2130.60009765625</ele>
        <time>2026-06-15T09:50:58.000Z</time>
        <extensions>
          <ns3:TrackPointExtension>
            <ns3:atemp>19.0</ns3:atemp>
          </ns3:TrackPointExtension>
        </extensions>
      </trkpt>
      <trkpt lat="42.58641916327178478240966796875" lon="20.091055445373058319091796875">
        <ele>2131</ele>
        <time>2026-06-15T09:50:59.000Z</time>
        <extensions>
          <ns3:TrackPointExtension>
            <ns3:atemp>19.0</ns3:atemp>
          </ns3:TrackPointExtension>
        </extensions>
      </trkpt>
      <trkpt lat="42.5863946042954921722412109375" lon="20.09105217643082141876220703125">
        <ele>2131.39990234375</ele>
        <time>2026-06-15T09:51:00.000Z</time>
        <extensions>
          <ns3:TrackPointExtension>
            <ns3:atemp>19.0</ns3:atemp>
          </ns3:TrackPointExtension>
        </extensions>
      </trkpt>
      <trkpt lat="42.586368620395660400390625" lon="20.09104647673666477203369140625">
        <ele>2131.800048828125</ele>
        <time>2026-06-15T09:51:01.000Z</time>
        <extensions>
          <ns3:TrackPointExtension>
            <ns3:atemp>19.0</ns3:atemp>
          </ns3:TrackPointExtension>
        </extensions>
      </trkpt>
      <trkpt lat="42.58634515106678009033203125" lon="20.09103759191930294036865234375">
        <ele>2132.199951171875</ele>
        <time>2026-06-15T09:51:02.000Z</time>
        <extensions>
          <ns3:TrackPointExtension>
            <ns3:atemp>19.0</ns3:atemp>
          </ns3:TrackPointExtension>
        </extensions>
      </trkpt>
      <trkpt lat="42.58632243610918521881103515625" lon="20.0910297967493534088134765625">
        <ele>2132.39990234375</ele>
        <time>2026-06-15T09:51:03.000Z</time>
        <extensions>
          <ns3:TrackPointExtension>
            <ns3:atemp>19.0</ns3:atemp>
          </ns3:TrackPointExtension>
        </extensions>
      </trkpt>
      <trkpt lat="42.5862990505993366241455078125" lon="20.0910190679132938385009765625">
        <ele>2133</ele>
        <time>2026-06-15T09:51:04.000Z</time>
        <extensions>
          <ns3:TrackPointExtension>
            <ns3:atemp>19.0</ns3:atemp>
          </ns3:TrackPointExtension>
        </extensions>
      </trkpt>
      <trkpt lat="42.5862739048898220062255859375" lon="20.09100456722080707550048828125">
        <ele>2133.199951171875</ele>
        <time>2026-06-15T09:51:05.000Z</time>
        <extensions>
          <ns3:TrackPointExtension>
            <ns3:atemp>19.0</ns3:atemp>
          </ns3:TrackPointExtension>
        </extensions>
      </trkpt>
      <trkpt lat="42.58625320158898830413818359375" lon="20.090985037386417388916015625">
        <ele>2133.60009765625</ele>
        <time>2026-06-15T09:51:06.000Z</time>
        <extensions>
          <ns3:TrackPointExtension>
            <ns3:atemp>19.0</ns3:atemp>
          </ns3:TrackPointExtension>
        </extensions>
      </trkpt>
      <trkpt lat="42.58623224683105945587158203125" lon="20.090965591371059417724609375">
        <ele>2133.800048828125</ele>
        <time>2026-06-15T09:51:07.000Z</time>
        <extensions>
          <ns3:TrackPointExtension>
            <ns3:atemp>19.0</ns3:atemp>
          </ns3:TrackPointExtension>
        </extensions>
      </trkpt>
      <trkpt lat="42.5862108729779720306396484375" lon="20.0909511744976043701171875">
        <ele>2134.199951171875</ele>
        <time>2026-06-15T09:51:08.000Z</time>
        <extensions>
          <ns3:TrackPointExtension>
            <ns3:atemp>19.0</ns3:atemp>
          </ns3:TrackPointExtension>
        </extensions>
      </trkpt>
      <trkpt lat="42.5861874036490917205810546875" lon="20.09093332104384899139404296875">
        <ele>2134.60009765625</ele>
        <time>2026-06-15T09:51:09.000Z</time>
        <extensions>
          <ns3:TrackPointExtension>
            <ns3:atemp>19.0</ns3:atemp>
          </ns3:TrackPointExtension>
        </extensions>
      </trkpt>
      <trkpt lat="42.5861595757305622100830078125" lon="20.09091605432331562042236328125">
        <ele>2134.800048828125</ele>
        <time>2026-06-15T09:51:10.000Z</time>
        <extensions>
          <ns3:TrackPointExtension>
            <ns3:atemp>19.0</ns3:atemp>
          </ns3:TrackPointExtension>
        </extensions>
      </trkpt>
      <trkpt lat="42.58613283745944499969482421875" lon="20.0909020565450191497802734375">
        <ele>2135.199951171875</ele>
        <time>2026-06-15T09:51:11.000Z</time>
        <extensions>
          <ns3:TrackPointExtension>
            <ns3:atemp>19.0</ns3:atemp>
          </ns3:TrackPointExtension>
        </extensions>
      </trkpt>
      <trkpt lat="42.5861089490354061126708984375" lon="20.09089141152799129486083984375">
        <ele>2135.39990234375</ele>
        <time>2026-06-15T09:51:12.000Z</time>
        <extensions>
          <ns3:TrackPointExtension>
            <ns3:atemp>19.0</ns3:atemp>
          </ns3:TrackPointExtension>
        </extensions>
      </trkpt>
      <trkpt lat="42.58608321659266948699951171875" lon="20.0908795930445194244384765625">
        <ele>2135.800048828125</ele>
        <time>2026-06-15T09:51:13.000Z</time>
        <extensions>
          <ns3:TrackPointExtension>
            <ns3:atemp>19.0</ns3:atemp>
          </ns3:TrackPointExtension>
        </extensions>
      </trkpt>
      <trkpt lat="42.5860603339970111846923828125" lon="20.090866349637508392333984375">
        <ele>2136</ele>
        <time>2026-06-15T09:51:14.000Z</time>
        <extensions>
          <ns3:TrackPointExtension>
            <ns3:atemp>19.0</ns3:atemp>
          </ns3:TrackPointExtension>
        </extensions>
      </trkpt>
      <trkpt lat="42.58603627793490886688232421875" lon="20.09085251949727535247802734375">
        <ele>2136.39990234375</ele>
        <time>2026-06-15T09:51:15.000Z</time>
        <extensions>
          <ns3:TrackPointExtension>
            <ns3:atemp>19.0</ns3:atemp>
          </ns3:TrackPointExtension>
        </extensions>
      </trkpt>
      <trkpt lat="42.58601280860602855682373046875" lon="20.0908396951854228973388671875">
        <ele>2136.800048828125</ele>
        <time>2026-06-15T09:51:16.000Z</time>
        <extensions>
          <ns3:TrackPointExtension>
            <ns3:atemp>19.0</ns3:atemp>
          </ns3:TrackPointExtension>
        </extensions>
      </trkpt>
      <trkpt lat="42.5859902612864971160888671875" lon="20.09082888253033161163330078125">
        <ele>2137</ele>
        <time>2026-06-15T09:51:17.000Z</time>
        <extensions>
          <ns3:TrackPointExtension>
            <ns3:atemp>19.0</ns3:atemp>
          </ns3:TrackPointExtension>
        </extensions>
      </trkpt>
      <trkpt lat="42.585967965424060821533203125" lon="20.0908105261623859405517578125">
        <ele>2137.199951171875</ele>
        <time>2026-06-15T09:51:18.000Z</time>
        <extensions>
          <ns3:TrackPointExtension>
            <ns3:atemp>19.0</ns3:atemp>
          </ns3:TrackPointExtension>
        </extensions>
      </trkpt>
      <trkpt lat="42.58594491519033908843994140625" lon="20.09079200215637683868408203125">
        <ele>2137.60009765625</ele>
        <time>2026-06-15T09:51:19.000Z</time>
        <extensions>
          <ns3:TrackPointExtension>
            <ns3:atemp>19.0</ns3:atemp>
          </ns3:TrackPointExtension>
        </extensions>
      </trkpt>
      <trkpt lat="42.58592270314693450927734375" lon="20.0907768309116363525390625">
        <ele>2138</ele>
        <time>2026-06-15T09:51:20.000Z</time>
        <extensions>
          <ns3:TrackPointExtension>
            <ns3:atemp>19.0</ns3:atemp>
          </ns3:TrackPointExtension>
        </extensions>
      </trkpt>
      <trkpt lat="42.58589998818933963775634765625" lon="20.0907625816762447357177734375">
        <ele>2138.39990234375</ele>
        <time>2026-06-15T09:51:21.000Z</time>
        <extensions>
          <ns3:TrackPointExtension>
            <ns3:atemp>19.0</ns3:atemp>
          </ns3:TrackPointExtension>
        </extensions>
      </trkpt>
      <trkpt lat="42.58587450720369815826416015625" lon="20.09074389003217220306396484375">
        <ele>2138.60009765625</ele>
        <time>2026-06-15T09:51:22.000Z</time>
        <extensions>
          <ns3:TrackPointExtension>
            <ns3:atemp>19.0</ns3:atemp>
          </ns3:TrackPointExtension>
        </extensions>
      </trkpt>
      <trkpt lat="42.5858484394848346710205078125" lon="20.09072695858776569366455078125">
        <ele>2139</ele>
        <time>2026-06-15T09:51:23.000Z</time>
        <extensions>
          <ns3:TrackPointExtension>
            <ns3:atemp>19.0</ns3:atemp>
          </ns3:TrackPointExtension>
        </extensions>
      </trkpt>
      <trkpt lat="42.58582077920436859130859375" lon="20.09070851840078830718994140625">
        <ele>2139.199951171875</ele>
        <time>2026-06-15T09:51:24.000Z</time>
        <extensions>
          <ns3:TrackPointExtension>
            <ns3:atemp>19.0</ns3:atemp>
          </ns3:TrackPointExtension>
        </extensions>
      </trkpt>
      <trkpt lat="42.58579404093325138092041015625" lon="20.09069343097507953643798828125">
        <ele>2139.39990234375</ele>
        <time>2026-06-15T09:51:25.000Z</time>
        <extensions>
          <ns3:TrackPointExtension>
            <ns3:atemp>19.0</ns3:atemp>
          </ns3:TrackPointExtension>
        </extensions>
      </trkpt>
      <trkpt lat="42.58576445281505584716796875" lon="20.090676583349704742431640625">
        <ele>2139.60009765625</ele>
        <time>2026-06-15T09:51:26.000Z</time>
        <extensions>
          <ns3:TrackPointExtension>
            <ns3:atemp>19.0</ns3:atemp>
          </ns3:TrackPointExtension>
        </extensions>
      </trkpt>
      <trkpt lat="42.58573922328650951385498046875" lon="20.09065755642950534820556640625">
        <ele>2140</ele>
        <time>2026-06-15T09:51:27.000Z</time>
        <extensions>
          <ns3:TrackPointExtension>
            <ns3:atemp>19.0</ns3:atemp>
          </ns3:TrackPointExtension>
        </extensions>
      </trkpt>
      <trkpt lat="42.5857113115489482879638671875" lon="20.09063861332833766937255859375">
        <ele>2140.199951171875</ele>
        <time>2026-06-15T09:51:28.000Z</time>
        <extensions>
          <ns3:TrackPointExtension>
            <ns3:atemp>19.0</ns3:atemp>
          </ns3:TrackPointExtension>
        </extensions>
      </trkpt>
      <trkpt lat="42.5856834836304187774658203125" lon="20.0906197540462017059326171875">
        <ele>2140.60009765625</ele>
        <time>2026-06-15T09:51:29.000Z</time>
        <extensions>
          <ns3:TrackPointExtension>
            <ns3:atemp>19.0</ns3:atemp>
          </ns3:TrackPointExtension>
        </extensions>
      </trkpt>
      <trkpt lat="42.58565372787415981292724609375" lon="20.09060039184987545013427734375">
        <ele>2140.800048828125</ele>
        <time>2026-06-15T09:51:30.000Z</time>
        <extensions>
          <ns3:TrackPointExtension>
            <ns3:atemp>19.0</ns3:atemp>
          </ns3:TrackPointExtension>
        </extensions>
      </trkpt>
      <trkpt lat="42.5856251455843448638916015625" lon="20.09058513678610324859619140625">
        <ele>2141</ele>
        <time>2026-06-15T09:51:31.000Z</time>
        <extensions>
          <ns3:TrackPointExtension>
            <ns3:atemp>19.0</ns3:atemp>
          </ns3:TrackPointExtension>
        </extensions>
      </trkpt>
      <trkpt lat="42.5855953060090541839599609375" lon="20.09057139046490192413330078125">
        <ele>2141.199951171875</ele>
        <time>2026-06-15T09:51:32.000Z</time>
        <extensions>
          <ns3:TrackPointExtension>
            <ns3:atemp>19.0</ns3:atemp>
          </ns3:TrackPointExtension>
        </extensions>
      </trkpt>
      <trkpt lat="42.5855654664337635040283203125" lon="20.090554542839527130126953125">
        <ele>2141.39990234375</ele>
        <time>2026-06-15T09:51:33.000Z</time>
        <extensions>
          <ns3:TrackPointExtension>
            <ns3:atemp>19.0</ns3:atemp>
          </ns3:TrackPointExtension>
        </extensions>
      </trkpt>
      <trkpt lat="42.58553554303944110870361328125" lon="20.09053937159478664398193359375">
        <ele>2141.39990234375</ele>
        <time>2026-06-15T09:51:34.000Z</time>
        <extensions>
          <ns3:TrackPointExtension>
            <ns3:atemp>19.0</ns3:atemp>
          </ns3:TrackPointExtension>
        </extensions>
      </trkpt>
      <trkpt lat="42.5855047814548015594482421875" lon="20.0905273854732513427734375">
        <ele>2141.39990234375</ele>
        <time>2026-06-15T09:51:35.000Z</time>
        <extensions>
          <ns3:TrackPointExtension>
            <ns3:atemp>19.0</ns3:atemp>
          </ns3:TrackPointExtension>
        </extensions>
      </trkpt>
      <trkpt lat="42.58547519333660602569580078125" lon="20.09051598608493804931640625">
        <ele>2141.60009765625</ele>
        <time>2026-06-15T09:51:36.000Z</time>
        <extensions>
          <ns3:TrackPointExtension>
            <ns3:atemp>19.0</ns3:atemp>
          </ns3:TrackPointExtension>
        </extensions>
      </trkpt>
      <trkpt lat="42.5854461081326007843017578125" lon="20.09050886146724224090576171875">
        <ele>2141.39990234375</ele>
        <time>2026-06-15T09:51:37.000Z</time>
        <extensions>
          <ns3:TrackPointExtension>
            <ns3:atemp>19.0</ns3:atemp>
          </ns3:TrackPointExtension>
        </extensions>
      </trkpt>
      <trkpt lat="42.58541517890989780426025390625" lon="20.09050257503986358642578125">
        <ele>2141.60009765625</ele>
        <time>2026-06-15T09:51:38.000Z</time>
        <extensions>
          <ns3:TrackPointExtension>
            <ns3:atemp>19.0</ns3:atemp>
          </ns3:TrackPointExtension>
        </extensions>
      </trkpt>
      <trkpt lat="42.58538248948752880096435546875" lon="20.09049796499311923980712890625">
        <ele>2141.60009765625</ele>
        <time>2026-06-15T09:51:39.000Z</time>
        <extensions>
          <ns3:TrackPointExtension>
            <ns3:atemp>19.0</ns3:atemp>
          </ns3:TrackPointExtension>
        </extensions>
      </trkpt>
      <trkpt lat="42.58538248948752880096435546875" lon="20.09049796499311923980712890625">
        <ele>2141.60009765625</ele>
        <time>2026-06-15T09:51:40.000Z</time>
        <extensions>
          <ns3:TrackPointExtension>
            <ns3:atemp>19.0</ns3:atemp>
          </ns3:TrackPointExtension>
        </extensions>
      </trkpt>
      <trkpt lat="42.585320211946964263916015625" lon="20.09048673324286937713623046875">
        <ele>2141.60009765625</ele>
        <time>2026-06-15T09:51:41.000Z</time>
        <extensions>
          <ns3:TrackPointExtension>
            <ns3:atemp>19.0</ns3:atemp>
          </ns3:TrackPointExtension>
        </extensions>
      </trkpt>
      <trkpt lat="42.58529297076165676116943359375" lon="20.09047575294971466064453125">
        <ele>2141.800048828125</ele>
        <time>2026-06-15T09:51:42.000Z</time>
        <extensions>
          <ns3:TrackPointExtension>
            <ns3:atemp>19.0</ns3:atemp>
          </ns3:TrackPointExtension>
        </extensions>
      </trkpt>
      <trkpt lat="42.58529297076165676116943359375" lon="20.09047575294971466064453125">
        <ele>2142</ele>
        <time>2026-06-15T09:51:43.000Z</time>
        <extensions>
          <ns3:TrackPointExtension>
            <ns3:atemp>19.0</ns3:atemp>
          </ns3:TrackPointExtension>
        </extensions>
      </trkpt>
      <trkpt lat="42.58524016477167606353759765625" lon="20.09044784121215343475341796875">
        <ele>2142</ele>
        <time>2026-06-15T09:51:44.000Z</time>
        <extensions>
          <ns3:TrackPointExtension>
            <ns3:atemp>19.0</ns3:atemp>
          </ns3:TrackPointExtension>
        </extensions>
      </trkpt>
      <trkpt lat="42.58521233685314655303955078125" lon="20.0904279761016368865966796875">
        <ele>2142</ele>
        <time>2026-06-15T09:51:45.000Z</time>
        <extensions>
          <ns3:TrackPointExtension>
            <ns3:atemp>19.0</ns3:atemp>
          </ns3:TrackPointExtension>
        </extensions>
      </trkpt>
      <trkpt lat="42.5851832516491413116455078125" lon="20.0904051773250102996826171875">
        <ele>2142</ele>
        <time>2026-06-15T09:51:46.000Z</time>
        <extensions>
          <ns3:TrackPointExtension>
            <ns3:atemp>19.0</ns3:atemp>
          </ns3:TrackPointExtension>
        </extensions>
      </trkpt>
      <trkpt lat="42.5851537473499774932861328125" lon="20.09038279764354228973388671875">
        <ele>2142</ele>
        <time>2026-06-15T09:51:47.000Z</time>
        <extensions>
          <ns3:TrackPointExtension>
            <ns3:atemp>19.0</ns3:atemp>
          </ns3:TrackPointExtension>
        </extensions>
      </trkpt>
      <trkpt lat="42.5851537473499774932861328125" lon="20.09038279764354228973388671875">
        <ele>2142</ele>
        <time>2026-06-15T09:51:48.000Z</time>
        <extensions>
          <ns3:TrackPointExtension>
            <ns3:atemp>19.0</ns3:atemp>
          </ns3:TrackPointExtension>
        </extensions>
      </trkpt>
      <trkpt lat="42.585127092897891998291015625" lon="20.09035748429596424102783203125">
        <ele>2142</ele>
        <time>2026-06-15T09:51:49.000Z</time>
        <extensions>
          <ns3:TrackPointExtension>
            <ns3:atemp>19.0</ns3:atemp>
          </ns3:TrackPointExtension>
        </extensions>
      </trkpt>
      <trkpt lat="42.585080154240131378173828125" lon="20.09030300192534923553466796875">
        <ele>2142</ele>
        <time>2026-06-15T09:51:50.000Z</time>
        <extensions>
          <ns3:TrackPointExtension>
            <ns3:atemp>19.0</ns3:atemp>
          </ns3:TrackPointExtension>
        </extensions>
      </trkpt>
      <trkpt lat="42.585080154240131378173828125" lon="20.09030300192534923553466796875">
        <ele>2142.199951171875</ele>
        <time>2026-06-15T09:51:51.000Z</time>
        <extensions>
          <ns3:TrackPointExtension>
            <ns3:atemp>19.0</ns3:atemp>
          </ns3:TrackPointExtension>
        </extensions>
      </trkpt>
      <trkpt lat="42.585037909448146820068359375" lon="20.09024374186992645263671875">
        <ele>2142.39990234375</ele>
        <time>2026-06-15T09:51:52.000Z</time>
        <extensions>
          <ns3:TrackPointExtension>
            <ns3:atemp>19.0</ns3:atemp>
          </ns3:TrackPointExtension>
        </extensions>
      </trkpt>
      <trkpt lat="42.585037909448146820068359375" lon="20.09024374186992645263671875">
        <ele>2142.39990234375</ele>
        <time>2026-06-15T09:51:53.000Z</time>
        <extensions>
          <ns3:TrackPointExtension>
            <ns3:atemp>19.0</ns3:atemp>
          </ns3:TrackPointExtension>
        </extensions>
      </trkpt>
      <trkpt lat="42.5850005261600017547607421875" lon="20.090177692472934722900390625">
        <ele>2142.60009765625</ele>
        <time>2026-06-15T09:51:54.000Z</time>
        <extensions>
          <ns3:TrackPointExtension>
            <ns3:atemp>19.0</ns3:atemp>
          </ns3:TrackPointExtension>
        </extensions>
      </trkpt>
      <trkpt lat="42.5850005261600017547607421875" lon="20.090177692472934722900390625">
        <ele>2142.60009765625</ele>
        <time>2026-06-15T09:51:55.000Z</time>
        <extensions>
          <ns3:TrackPointExtension>
            <ns3:atemp>19.0</ns3:atemp>
          </ns3:TrackPointExtension>
        </extensions>
      </trkpt>
      <trkpt lat="42.5849683396518230438232421875" lon="20.09010585956275463104248046875">
        <ele>2142.800048828125</ele>
        <time>2026-06-15T09:51:56.000Z</time>
        <extensions>
          <ns3:TrackPointExtension>
            <ns3:atemp>19.0</ns3:atemp>
          </ns3:TrackPointExtension>
        </extensions>
      </trkpt>
      <trkpt lat="42.5849683396518230438232421875" lon="20.09010585956275463104248046875">
        <ele>2143</ele>
        <time>2026-06-15T09:51:57.000Z</time>
        <extensions>
          <ns3:TrackPointExtension>
            <ns3:atemp>19.0</ns3:atemp>
          </ns3:TrackPointExtension>
        </extensions>
      </trkpt>
      <trkpt lat="42.584954090416431427001953125" lon="20.09006646461784839630126953125">
        <ele>2143</ele>
        <time>2026-06-15T09:51:58.000Z</time>
        <extensions>
          <ns3:TrackPointExtension>
            <ns3:atemp>19.0</ns3:atemp>
          </ns3:TrackPointExtension>
        </extensions>
      </trkpt>
      <trkpt lat="42.58492332883179187774658203125" lon="20.08999295532703399658203125">
        <ele>2143.199951171875</ele>
        <time>2026-06-15T09:51:59.000Z</time>
        <extensions>
          <ns3:TrackPointExtension>
            <ns3:atemp>19.0</ns3:atemp>
          </ns3:TrackPointExtension>
        </extensions>
      </trkpt>
      <trkpt lat="42.58490757085382938385009765625" lon="20.08995297364890575408935546875">
        <ele>2143.199951171875</ele>
        <time>2026-06-15T09:52:00.000Z</time>
        <extensions>
          <ns3:TrackPointExtension>
            <ns3:atemp>19.0</ns3:atemp>
          </ns3:TrackPointExtension>
        </extensions>
      </trkpt>
      <trkpt lat="42.58490757085382938385009765625" lon="20.08995297364890575408935546875">
        <ele>2143.39990234375</ele>
        <time>2026-06-15T09:52:01.000Z</time>
        <extensions>
          <ns3:TrackPointExtension>
            <ns3:atemp>19.0</ns3:atemp>
          </ns3:TrackPointExtension>
        </extensions>
      </trkpt>
      <trkpt lat="42.58487169630825519561767578125" lon="20.0898854993283748626708984375">
        <ele>2143.60009765625</ele>
        <time>2026-06-15T09:52:02.000Z</time>
        <extensions>
          <ns3:TrackPointExtension>
            <ns3:atemp>19.0</ns3:atemp>
          </ns3:TrackPointExtension>
        </extensions>
      </trkpt>
      <trkpt lat="42.58487169630825519561767578125" lon="20.0898854993283748626708984375">
        <ele>2143.60009765625</ele>
        <time>2026-06-15T09:52:03.000Z</time>
        <extensions>
          <ns3:TrackPointExtension>
            <ns3:atemp>19.0</ns3:atemp>
          </ns3:TrackPointExtension>
        </extensions>
      </trkpt>
      <trkpt lat="42.584836743772029876708984375" lon="20.08981249295175075531005859375">
        <ele>2144</ele>
        <time>2026-06-15T09:52:04.000Z</time>
        <extensions>
          <ns3:TrackPointExtension>
            <ns3:atemp>19.0</ns3:atemp>
          </ns3:TrackPointExtension>
        </extensions>
      </trkpt>
      <trkpt lat="42.584821321070194244384765625" lon="20.08977033197879791259765625">
        <ele>2144.199951171875</ele>
        <time>2026-06-15T09:52:05.000Z</time>
        <extensions>
          <ns3:TrackPointExtension>
            <ns3:atemp>19.0</ns3:atemp>
          </ns3:TrackPointExtension>
        </extensions>
      </trkpt>
      <trkpt lat="42.584821321070194244384765625" lon="20.08977033197879791259765625">
        <ele>2144.39990234375</ele>
        <time>2026-06-15T09:52:06.000Z</time>
        <extensions>
          <ns3:TrackPointExtension>
            <ns3:atemp>19.0</ns3:atemp>
          </ns3:TrackPointExtension>
        </extensions>
      </trkpt>
      <trkpt lat="42.58480816148221492767333984375" lon="20.0897269137203693389892578125">
        <ele>2144.60009765625</ele>
        <time>2026-06-15T09:52:07.000Z</time>
        <extensions>
          <ns3:TrackPointExtension>
            <ns3:atemp>19.0</ns3:atemp>
          </ns3:TrackPointExtension>
        </extensions>
      </trkpt>
      <trkpt lat="42.5847929902374744415283203125" lon="20.08968391455709934234619140625">
        <ele>2144.800048828125</ele>
        <time>2026-06-15T09:52:08.000Z</time>
        <extensions>
          <ns3:TrackPointExtension>
            <ns3:atemp>19.0</ns3:atemp>
          </ns3:TrackPointExtension>
        </extensions>
      </trkpt>
      <trkpt lat="42.5847762264311313629150390625" lon="20.08964736945927143096923828125">
        <ele>2144.800048828125</ele>
        <time>2026-06-15T09:52:09.000Z</time>
        <extensions>
          <ns3:TrackPointExtension>
            <ns3:atemp>19.0</ns3:atemp>
          </ns3:TrackPointExtension>
        </extensions>
      </trkpt>
      <trkpt lat="42.58475971408188343048095703125" lon="20.08960747160017490386962890625">
        <ele>2145.199951171875</ele>
        <time>2026-06-15T09:52:10.000Z</time>
        <extensions>
          <ns3:TrackPointExtension>
            <ns3:atemp>19.0</ns3:atemp>
          </ns3:TrackPointExtension>
        </extensions>
      </trkpt>
      <trkpt lat="42.58472786284983158111572265625" lon="20.08951979689300060272216796875">
        <ele>2145.39990234375</ele>
        <time>2026-06-15T09:52:11.000Z</time>
        <extensions>
          <ns3:TrackPointExtension>
            <ns3:atemp>19.0</ns3:atemp>
          </ns3:TrackPointExtension>
        </extensions>
      </trkpt>
      <trkpt lat="42.58472786284983158111572265625" lon="20.08951979689300060272216796875">
        <ele>2145.60009765625</ele>
        <time>2026-06-15T09:52:12.000Z</time>
        <extensions>
          <ns3:TrackPointExtension>
            <ns3:atemp>19.0</ns3:atemp>
          </ns3:TrackPointExtension>
        </extensions>
      </trkpt>
      <trkpt lat="42.58471176959574222564697265625" lon="20.0894751213490962982177734375">
        <ele>2145.800048828125</ele>
        <time>2026-06-15T09:52:13.000Z</time>
        <extensions>
          <ns3:TrackPointExtension>
            <ns3:atemp>19.0</ns3:atemp>
          </ns3:TrackPointExtension>
        </extensions>
      </trkpt>
      <trkpt lat="42.58467723615467548370361328125" lon="20.0893847644329071044921875">
        <ele>2146</ele>
        <time>2026-06-15T09:52:14.000Z</time>
        <extensions>
          <ns3:TrackPointExtension>
            <ns3:atemp>19.0</ns3:atemp>
          </ns3:TrackPointExtension>
        </extensions>
      </trkpt>
      <trkpt lat="42.58467723615467548370361328125" lon="20.0893847644329071044921875">
        <ele>2146.199951171875</ele>
        <time>2026-06-15T09:52:15.000Z</time>
        <extensions>
          <ns3:TrackPointExtension>
            <ns3:atemp>19.0</ns3:atemp>
          </ns3:TrackPointExtension>
        </extensions>
      </trkpt>
      <trkpt lat="42.58464253507554531097412109375" lon="20.08929315023124217987060546875">
        <ele>2146.39990234375</ele>
        <time>2026-06-15T09:52:16.000Z</time>
        <extensions>
          <ns3:TrackPointExtension>
            <ns3:atemp>19.0</ns3:atemp>
          </ns3:TrackPointExtension>
        </extensions>
      </trkpt>
      <trkpt lat="42.58462476544082164764404296875" lon="20.08924520574510097503662109375">
        <ele>2146.60009765625</ele>
        <time>2026-06-15T09:52:17.000Z</time>
        <extensions>
          <ns3:TrackPointExtension>
            <ns3:atemp>19.0</ns3:atemp>
          </ns3:TrackPointExtension>
        </extensions>
      </trkpt>
      <trkpt lat="42.58462476544082164764404296875" lon="20.08924520574510097503662109375">
        <ele>2146.800048828125</ele>
        <time>2026-06-15T09:52:18.000Z</time>
        <extensions>
          <ns3:TrackPointExtension>
            <ns3:atemp>19.0</ns3:atemp>
          </ns3:TrackPointExtension>
        </extensions>
      </trkpt>
      <trkpt lat="42.5845854543149471282958984375" lon="20.08915149606764316558837890625">
        <ele>2147</ele>
        <time>2026-06-15T09:52:19.000Z</time>
        <extensions>
          <ns3:TrackPointExtension>
            <ns3:atemp>19.0</ns3:atemp>
          </ns3:TrackPointExtension>
        </extensions>
      </trkpt>
      <trkpt lat="42.584566511213779449462890625" lon="20.0891036354005336761474609375">
        <ele>2147.39990234375</ele>
        <time>2026-06-15T09:52:20.000Z</time>
        <extensions>
          <ns3:TrackPointExtension>
            <ns3:atemp>19.0</ns3:atemp>
          </ns3:TrackPointExtension>
        </extensions>
      </trkpt>
      <trkpt lat="42.58454413153231143951416015625" lon="20.0890600495040416717529296875">
        <ele>2147.60009765625</ele>
        <time>2026-06-15T09:52:21.000Z</time>
        <extensions>
          <ns3:TrackPointExtension>
            <ns3:atemp>19.0</ns3:atemp>
          </ns3:TrackPointExtension>
        </extensions>
      </trkpt>
      <trkpt lat="42.58452150039374828338623046875" lon="20.08902308531105518341064453125">
        <ele>2148</ele>
        <time>2026-06-15T09:52:22.000Z</time>
        <extensions>
          <ns3:TrackPointExtension>
            <ns3:atemp>19.0</ns3:atemp>
          </ns3:TrackPointExtension>
        </extensions>
      </trkpt>
      <trkpt lat="42.5845023058354854583740234375" lon="20.08898301981389522552490234375">
        <ele>2148.39990234375</ele>
        <time>2026-06-15T09:52:23.000Z</time>
        <extensions>
          <ns3:TrackPointExtension>
            <ns3:atemp>19.0</ns3:atemp>
          </ns3:TrackPointExtension>
        </extensions>
      </trkpt>
      <trkpt lat="42.5845023058354854583740234375" lon="20.08898301981389522552490234375">
        <ele>2148.60009765625</ele>
        <time>2026-06-15T09:52:24.000Z</time>
        <extensions>
          <ns3:TrackPointExtension>
            <ns3:atemp>19.0</ns3:atemp>
          </ns3:TrackPointExtension>
        </extensions>
      </trkpt>
      <trkpt lat="42.58446685038506984710693359375" lon="20.0888964347541332244873046875">
        <ele>2149</ele>
        <time>2026-06-15T09:52:25.000Z</time>
        <extensions>
          <ns3:TrackPointExtension>
            <ns3:atemp>19.0</ns3:atemp>
          </ns3:TrackPointExtension>
        </extensions>
      </trkpt>
      <trkpt lat="42.584461905062198638916015625" lon="20.08884991519153118133544921875">
        <ele>2149.39990234375</ele>
        <time>2026-06-15T09:52:26.000Z</time>
        <extensions>
          <ns3:TrackPointExtension>
            <ns3:atemp>19.0</ns3:atemp>
          </ns3:TrackPointExtension>
        </extensions>
      </trkpt>
      <trkpt lat="42.584461905062198638916015625" lon="20.08884991519153118133544921875">
        <ele>2149.60009765625</ele>
        <time>2026-06-15T09:52:27.000Z</time>
        <extensions>
          <ns3:TrackPointExtension>
            <ns3:atemp>19.0</ns3:atemp>
          </ns3:TrackPointExtension>
        </extensions>
      </trkpt>
      <trkpt lat="42.58448881097137928009033203125" lon="20.08878487162292003631591796875">
        <ele>2149.800048828125</ele>
        <time>2026-06-15T09:52:28.000Z</time>
        <extensions>
          <ns3:TrackPointExtension>
            <ns3:atemp>19.0</ns3:atemp>
          </ns3:TrackPointExtension>
        </extensions>
      </trkpt>
      <trkpt lat="42.58451663888990879058837890625" lon="20.088777244091033935546875">
        <ele>2150</ele>
        <time>2026-06-15T09:52:29.000Z</time>
        <extensions>
          <ns3:TrackPointExtension>
            <ns3:atemp>19.0</ns3:atemp>
          </ns3:TrackPointExtension>
        </extensions>
      </trkpt>
      <trkpt lat="42.584551088511943817138671875" lon="20.08878001011908054351806640625">
        <ele>2150.199951171875</ele>
        <time>2026-06-15T09:52:30.000Z</time>
        <extensions>
          <ns3:TrackPointExtension>
            <ns3:atemp>19.0</ns3:atemp>
          </ns3:TrackPointExtension>
        </extensions>
      </trkpt>
      <trkpt lat="42.58457958698272705078125" lon="20.0887938402593135833740234375">
        <ele>2150.39990234375</ele>
        <time>2026-06-15T09:52:31.000Z</time>
        <extensions>
          <ns3:TrackPointExtension>
            <ns3:atemp>19.0</ns3:atemp>
          </ns3:TrackPointExtension>
        </extensions>
      </trkpt>
      <trkpt lat="42.58460280485451221466064453125" lon="20.08881588466465473175048828125">
        <ele>2150.60009765625</ele>
        <time>2026-06-15T09:52:32.000Z</time>
        <extensions>
          <ns3:TrackPointExtension>
            <ns3:atemp>19.0</ns3:atemp>
          </ns3:TrackPointExtension>
        </extensions>
      </trkpt>
      <trkpt lat="42.5846250168979167938232421875" lon="20.0888387672603130340576171875">
        <ele>2150.60009765625</ele>
        <time>2026-06-15T09:52:33.000Z</time>
        <extensions>
          <ns3:TrackPointExtension>
            <ns3:atemp>19.0</ns3:atemp>
          </ns3:TrackPointExtension>
        </extensions>
      </trkpt>
      <trkpt lat="42.58464806713163852691650390625" lon="20.08886642754077911376953125">
        <ele>2150.800048828125</ele>
        <time>2026-06-15T09:52:34.000Z</time>
        <extensions>
          <ns3:TrackPointExtension>
            <ns3:atemp>19.0</ns3:atemp>
          </ns3:TrackPointExtension>
        </extensions>
      </trkpt>
      <trkpt lat="42.58466751314699649810791015625" lon="20.0889007933437824249267578125">
        <ele>2151</ele>
        <time>2026-06-15T09:52:35.000Z</time>
        <extensions>
          <ns3:TrackPointExtension>
            <ns3:atemp>19.0</ns3:atemp>
          </ns3:TrackPointExtension>
        </extensions>
      </trkpt>
      <trkpt lat="42.58468243293464183807373046875" lon="20.08893339894711971282958984375">
        <ele>2151.199951171875</ele>
        <time>2026-06-15T09:52:36.000Z</time>
        <extensions>
          <ns3:TrackPointExtension>
            <ns3:atemp>19.0</ns3:atemp>
          </ns3:TrackPointExtension>
        </extensions>
      </trkpt>
      <trkpt lat="42.58470053784549236297607421875" lon="20.08896240033209323883056640625">
        <ele>2151.39990234375</ele>
        <time>2026-06-15T09:52:37.000Z</time>
        <extensions>
          <ns3:TrackPointExtension>
            <ns3:atemp>19.0</ns3:atemp>
          </ns3:TrackPointExtension>
        </extensions>
      </trkpt>
      <trkpt lat="42.584720738232135772705078125" lon="20.0889950059354305267333984375">
        <ele>2151.60009765625</ele>
        <time>2026-06-15T09:52:38.000Z</time>
        <extensions>
          <ns3:TrackPointExtension>
            <ns3:atemp>19.0</ns3:atemp>
          </ns3:TrackPointExtension>
        </extensions>
      </trkpt>
      <trkpt lat="42.58473959751427173614501953125" lon="20.08903197012841701507568359375">
        <ele>2151.800048828125</ele>
        <time>2026-06-15T09:52:39.000Z</time>
        <extensions>
          <ns3:TrackPointExtension>
            <ns3:atemp>19.0</ns3:atemp>
          </ns3:TrackPointExtension>
        </extensions>
      </trkpt>
      <trkpt lat="42.58476038463413715362548828125" lon="20.089070610702037811279296875">
        <ele>2152</ele>
        <time>2026-06-15T09:52:40.000Z</time>
        <extensions>
          <ns3:TrackPointExtension>
            <ns3:atemp>19.0</ns3:atemp>
          </ns3:TrackPointExtension>
        </extensions>
      </trkpt>
      <trkpt lat="42.58478167466819286346435546875" lon="20.0891126878559589385986328125">
        <ele>2152.199951171875</ele>
        <time>2026-06-15T09:52:41.000Z</time>
        <extensions>
          <ns3:TrackPointExtension>
            <ns3:atemp>19.0</ns3:atemp>
          </ns3:TrackPointExtension>
        </extensions>
      </trkpt>
      <trkpt lat="42.5848084129393100738525390625" lon="20.08914948441088199615478515625">
        <ele>2152.39990234375</ele>
        <time>2026-06-15T09:52:42.000Z</time>
        <extensions>
          <ns3:TrackPointExtension>
            <ns3:atemp>19.0</ns3:atemp>
          </ns3:TrackPointExtension>
        </extensions>
      </trkpt>
      <trkpt lat="42.58483733050525188446044921875" lon="20.08918653242290019989013671875">
        <ele>2152.60009765625</ele>
        <time>2026-06-15T09:52:43.000Z</time>
        <extensions>
          <ns3:TrackPointExtension>
            <ns3:atemp>19.0</ns3:atemp>
          </ns3:TrackPointExtension>
        </extensions>
      </trkpt>
      <trkpt lat="42.58485761471092700958251953125" lon="20.08922207169234752655029296875">
        <ele>2152.800048828125</ele>
        <time>2026-06-15T09:52:44.000Z</time>
        <extensions>
          <ns3:TrackPointExtension>
            <ns3:atemp>19.0</ns3:atemp>
          </ns3:TrackPointExtension>
        </extensions>
      </trkpt>
      <trkpt lat="42.58487454615533351898193359375" lon="20.08925610221922397613525390625">
        <ele>2152.800048828125</ele>
        <time>2026-06-15T09:52:45.000Z</time>
        <extensions>
          <ns3:TrackPointExtension>
            <ns3:atemp>19.0</ns3:atemp>
          </ns3:TrackPointExtension>
        </extensions>
      </trkpt>
      <trkpt lat="42.58489214815199375152587890625" lon="20.08928946219384670257568359375">
        <ele>2153</ele>
        <time>2026-06-15T09:52:46.000Z</time>
        <extensions>
          <ns3:TrackPointExtension>
            <ns3:atemp>19.0</ns3:atemp>
          </ns3:TrackPointExtension>
        </extensions>
      </trkpt>
      <trkpt lat="42.58491192944347858428955078125" lon="20.0893259234726428985595703125">
        <ele>2153.199951171875</ele>
        <time>2026-06-15T09:52:47.000Z</time>
        <extensions>
          <ns3:TrackPointExtension>
            <ns3:atemp>19.0</ns3:atemp>
          </ns3:TrackPointExtension>
        </extensions>
      </trkpt>
      <trkpt lat="42.58493187837302684783935546875" lon="20.0893587805330753326416015625">
        <ele>2153.39990234375</ele>
        <time>2026-06-15T09:52:48.000Z</time>
        <extensions>
          <ns3:TrackPointExtension>
            <ns3:atemp>19.0</ns3:atemp>
          </ns3:TrackPointExtension>
        </extensions>
      </trkpt>
      <trkpt lat="42.584950067102909088134765625" lon="20.0893946550786495208740234375">
        <ele>2153.60009765625</ele>
        <time>2026-06-15T09:52:49.000Z</time>
        <extensions>
          <ns3:TrackPointExtension>
            <ns3:atemp>19.0</ns3:atemp>
          </ns3:TrackPointExtension>
        </extensions>
      </trkpt>
      <trkpt lat="42.584968507289886474609375" lon="20.08943237364292144775390625">
        <ele>2154</ele>
        <time>2026-06-15T09:52:50.000Z</time>
        <extensions>
          <ns3:TrackPointExtension>
            <ns3:atemp>19.0</ns3:atemp>
          </ns3:TrackPointExtension>
        </extensions>
      </trkpt>
      <trkpt lat="42.58499122224748134613037109375" lon="20.0894694216549396514892578125">
        <ele>2154.199951171875</ele>
        <time>2026-06-15T09:52:51.000Z</time>
        <extensions>
          <ns3:TrackPointExtension>
            <ns3:atemp>19.0</ns3:atemp>
          </ns3:TrackPointExtension>
        </extensions>
      </trkpt>
      <trkpt lat="42.58501209318637847900390625" lon="20.089503116905689239501953125">
        <ele>2154.60009765625</ele>
        <time>2026-06-15T09:52:52.000Z</time>
        <extensions>
          <ns3:TrackPointExtension>
            <ns3:atemp>19.0</ns3:atemp>
          </ns3:TrackPointExtension>
        </extensions>
      </trkpt>
      <trkpt lat="42.5850340537726879119873046875" lon="20.08953957818448543548583984375">
        <ele>2155</ele>
        <time>2026-06-15T09:52:53.000Z</time>
        <extensions>
          <ns3:TrackPointExtension>
            <ns3:atemp>19.0</ns3:atemp>
          </ns3:TrackPointExtension>
        </extensions>
      </trkpt>
      <trkpt lat="42.58505760692059993743896484375" lon="20.089572854340076446533203125">
        <ele>2155.39990234375</ele>
        <time>2026-06-15T09:52:54.000Z</time>
        <extensions>
          <ns3:TrackPointExtension>
            <ns3:atemp>19.0</ns3:atemp>
          </ns3:TrackPointExtension>
        </extensions>
      </trkpt>
      <trkpt lat="42.58508275263011455535888671875" lon="20.089608393609523773193359375">
        <ele>2155.800048828125</ele>
        <time>2026-06-15T09:52:55.000Z</time>
        <extensions>
          <ns3:TrackPointExtension>
            <ns3:atemp>19.0</ns3:atemp>
          </ns3:TrackPointExtension>
        </extensions>
      </trkpt>
      <trkpt lat="42.585106976330280303955078125" lon="20.08964166976511478424072265625">
        <ele>2156.199951171875</ele>
        <time>2026-06-15T09:52:56.000Z</time>
        <extensions>
          <ns3:TrackPointExtension>
            <ns3:atemp>19.0</ns3:atemp>
          </ns3:TrackPointExtension>
        </extensions>
      </trkpt>
      <trkpt lat="42.5851319544017314910888671875" lon="20.0896732695400714874267578125">
        <ele>2156.39990234375</ele>
        <time>2026-06-15T09:52:57.000Z</time>
        <extensions>
          <ns3:TrackPointExtension>
            <ns3:atemp>19.0</ns3:atemp>
          </ns3:TrackPointExtension>
        </extensions>
      </trkpt>
      <trkpt lat="42.585158608853816986083984375" lon="20.08970537222921848297119140625">
        <ele>2156.60009765625</ele>
        <time>2026-06-15T09:52:58.000Z</time>
        <extensions>
          <ns3:TrackPointExtension>
            <ns3:atemp>19.0</ns3:atemp>
          </ns3:TrackPointExtension>
        </extensions>
      </trkpt>
      <trkpt lat="42.5851879455149173736572265625" lon="20.08973118849098682403564453125">
        <ele>2157</ele>
        <time>2026-06-15T09:52:59.000Z</time>
        <extensions>
          <ns3:TrackPointExtension>
            <ns3:atemp>19.0</ns3:atemp>
          </ns3:TrackPointExtension>
        </extensions>
      </trkpt>
      <trkpt lat="42.5852147676050662994384765625" lon="20.08975935168564319610595703125">
        <ele>2157.199951171875</ele>
        <time>2026-06-15T09:53:00.000Z</time>
        <extensions>
          <ns3:TrackPointExtension>
            <ns3:atemp>19.0</ns3:atemp>
          </ns3:TrackPointExtension>
        </extensions>
      </trkpt>
      <trkpt lat="42.5852399133145809173583984375" lon="20.08978567086160182952880859375">
        <ele>2157.60009765625</ele>
        <time>2026-06-15T09:53:01.000Z</time>
        <extensions>
          <ns3:TrackPointExtension>
            <ns3:atemp>19.0</ns3:atemp>
          </ns3:TrackPointExtension>
        </extensions>
      </trkpt>
      <trkpt lat="42.5852643884718418121337890625" lon="20.0898090563714504241943359375">
        <ele>2158</ele>
        <time>2026-06-15T09:53:02.000Z</time>
        <extensions>
          <ns3:TrackPointExtension>
            <ns3:atemp>19.0</ns3:atemp>
          </ns3:TrackPointExtension>
        </extensions>
      </trkpt>
      <trkpt lat="42.5852643884718418121337890625" lon="20.0898090563714504241943359375">
        <ele>2158.199951171875</ele>
        <time>2026-06-15T09:53:03.000Z</time>
        <extensions>
          <ns3:TrackPointExtension>
            <ns3:atemp>19.0</ns3:atemp>
          </ns3:TrackPointExtension>
        </extensions>
      </trkpt>
      <trkpt lat="42.5853210501372814178466796875" lon="20.0898610241711139678955078125">
        <ele>2158.39990234375</ele>
        <time>2026-06-15T09:53:04.000Z</time>
        <extensions>
          <ns3:TrackPointExtension>
            <ns3:atemp>19.0</ns3:atemp>
          </ns3:TrackPointExtension>
        </extensions>
      </trkpt>
      <trkpt lat="42.5853532366454601287841796875" lon="20.089879967272281646728515625">
        <ele>2158.60009765625</ele>
        <time>2026-06-15T09:53:05.000Z</time>
        <extensions>
          <ns3:TrackPointExtension>
            <ns3:atemp>19.0</ns3:atemp>
          </ns3:TrackPointExtension>
        </extensions>
      </trkpt>
      <trkpt lat="42.58539070375263690948486328125" lon="20.0898970663547515869140625">
        <ele>2159</ele>
        <time>2026-06-15T09:53:06.000Z</time>
        <extensions>
          <ns3:TrackPointExtension>
            <ns3:atemp>19.0</ns3:atemp>
          </ns3:TrackPointExtension>
        </extensions>
      </trkpt>
      <trkpt lat="42.58539070375263690948486328125" lon="20.0898970663547515869140625">
        <ele>2159</ele>
        <time>2026-06-15T09:53:07.000Z</time>
        <extensions>
          <ns3:TrackPointExtension>
            <ns3:atemp>19.0</ns3:atemp>
          </ns3:TrackPointExtension>
        </extensions>
      </trkpt>
      <trkpt lat="42.5854601897299289703369140625" lon="20.08993771858513355255126953125">
        <ele>2159.199951171875</ele>
        <time>2026-06-15T09:53:08.000Z</time>
        <extensions>
          <ns3:TrackPointExtension>
            <ns3:atemp>19.0</ns3:atemp>
          </ns3:TrackPointExtension>
        </extensions>
      </trkpt>
      <trkpt lat="42.58549220860004425048828125" lon="20.0899606011807918548583984375">
        <ele>2159.39990234375</ele>
        <time>2026-06-15T09:53:09.000Z</time>
        <extensions>
          <ns3:TrackPointExtension>
            <ns3:atemp>19.0</ns3:atemp>
          </ns3:TrackPointExtension>
        </extensions>
      </trkpt>
      <trkpt lat="42.58552615530788898468017578125" lon="20.0899844057857990264892578125">
        <ele>2159.60009765625</ele>
        <time>2026-06-15T09:53:10.000Z</time>
        <extensions>
          <ns3:TrackPointExtension>
            <ns3:atemp>19.0</ns3:atemp>
          </ns3:TrackPointExtension>
        </extensions>
      </trkpt>
      <trkpt lat="42.5855654664337635040283203125" lon="20.09000443853437900543212890625">
        <ele>2159.800048828125</ele>
        <time>2026-06-15T09:53:11.000Z</time>
        <extensions>
          <ns3:TrackPointExtension>
            <ns3:atemp>19.0</ns3:atemp>
          </ns3:TrackPointExtension>
        </extensions>
      </trkpt>
      <trkpt lat="42.58560460992157459259033203125" lon="20.0900263153016567230224609375">
        <ele>2160.199951171875</ele>
        <time>2026-06-15T09:53:12.000Z</time>
        <extensions>
          <ns3:TrackPointExtension>
            <ns3:atemp>19.0</ns3:atemp>
          </ns3:TrackPointExtension>
        </extensions>
      </trkpt>
      <trkpt lat="42.5856412388384342193603515625" lon="20.0900487788021564483642578125">
        <ele>2160.60009765625</ele>
        <time>2026-06-15T09:53:13.000Z</time>
        <extensions>
          <ns3:TrackPointExtension>
            <ns3:atemp>19.0</ns3:atemp>
          </ns3:TrackPointExtension>
        </extensions>
      </trkpt>
      <trkpt lat="42.58567920885980129241943359375" lon="20.09006897918879985809326171875">
        <ele>2161</ele>
        <time>2026-06-15T09:53:14.000Z</time>
        <extensions>
          <ns3:TrackPointExtension>
            <ns3:atemp>19.0</ns3:atemp>
          </ns3:TrackPointExtension>
        </extensions>
      </trkpt>
      <trkpt lat="42.58571625687181949615478515625" lon="20.09008892811834812164306640625">
        <ele>2161.199951171875</ele>
        <time>2026-06-15T09:53:15.000Z</time>
        <extensions>
          <ns3:TrackPointExtension>
            <ns3:atemp>19.0</ns3:atemp>
          </ns3:TrackPointExtension>
        </extensions>
      </trkpt>
      <trkpt lat="42.58575431071221828460693359375" lon="20.0901061110198497772216796875">
        <ele>2161.60009765625</ele>
        <time>2026-06-15T09:53:16.000Z</time>
        <extensions>
          <ns3:TrackPointExtension>
            <ns3:atemp>19.0</ns3:atemp>
          </ns3:TrackPointExtension>
        </extensions>
      </trkpt>
      <trkpt lat="42.5857906043529510498046875" lon="20.09012748487293720245361328125">
        <ele>2161.800048828125</ele>
        <time>2026-06-15T09:53:17.000Z</time>
        <extensions>
          <ns3:TrackPointExtension>
            <ns3:atemp>19.0</ns3:atemp>
          </ns3:TrackPointExtension>
        </extensions>
      </trkpt>
      <trkpt lat="42.58582673035562038421630859375" lon="20.09014944545924663543701171875">
        <ele>2162.199951171875</ele>
        <time>2026-06-15T09:53:18.000Z</time>
        <extensions>
          <ns3:TrackPointExtension>
            <ns3:atemp>19.0</ns3:atemp>
          </ns3:TrackPointExtension>
        </extensions>
      </trkpt>
      <trkpt lat="42.58582673035562038421630859375" lon="20.09014944545924663543701171875">
        <ele>2162.39990234375</ele>
        <time>2026-06-15T09:53:19.000Z</time>
        <extensions>
          <ns3:TrackPointExtension>
            <ns3:atemp>19.0</ns3:atemp>
          </ns3:TrackPointExtension>
        </extensions>
      </trkpt>
      <trkpt lat="42.58589864708483219146728515625" lon="20.09019303135573863983154296875">
        <ele>2162.800048828125</ele>
        <time>2026-06-15T09:53:20.000Z</time>
        <extensions>
          <ns3:TrackPointExtension>
            <ns3:atemp>19.0</ns3:atemp>
          </ns3:TrackPointExtension>
        </extensions>
      </trkpt>
      <trkpt lat="42.585936449468135833740234375" lon="20.09021163918077945709228515625">
        <ele>2163</ele>
        <time>2026-06-15T09:53:21.000Z</time>
        <extensions>
          <ns3:TrackPointExtension>
            <ns3:atemp>19.0</ns3:atemp>
          </ns3:TrackPointExtension>
        </extensions>
      </trkpt>
      <trkpt lat="42.58597224019467830657958984375" lon="20.090227983891963958740234375">
        <ele>2163.199951171875</ele>
        <time>2026-06-15T09:53:22.000Z</time>
        <extensions>
          <ns3:TrackPointExtension>
            <ns3:atemp>19.0</ns3:atemp>
          </ns3:TrackPointExtension>
        </extensions>
      </trkpt>
      <trkpt lat="42.58600543253123760223388671875" lon="20.0902452506124973297119140625">
        <ele>2163.39990234375</ele>
        <time>2026-06-15T09:53:23.000Z</time>
        <extensions>
          <ns3:TrackPointExtension>
            <ns3:atemp>19.0</ns3:atemp>
          </ns3:TrackPointExtension>
        </extensions>
      </trkpt>
      <trkpt lat="42.58603862486779689788818359375" lon="20.09026058949530124664306640625">
        <ele>2163.800048828125</ele>
        <time>2026-06-15T09:53:24.000Z</time>
        <extensions>
          <ns3:TrackPointExtension>
            <ns3:atemp>19.0</ns3:atemp>
          </ns3:TrackPointExtension>
        </extensions>
      </trkpt>
      <trkpt lat="42.58607114665210247039794921875" lon="20.090271569788455963134765625">
        <ele>2164</ele>
        <time>2026-06-15T09:53:25.000Z</time>
        <extensions>
          <ns3:TrackPointExtension>
            <ns3:atemp>19.0</ns3:atemp>
          </ns3:TrackPointExtension>
        </extensions>
      </trkpt>
      <trkpt lat="42.58610433898866176605224609375" lon="20.0902774371206760406494140625">
        <ele>2164.199951171875</ele>
        <time>2026-06-15T09:53:26.000Z</time>
        <extensions>
          <ns3:TrackPointExtension>
            <ns3:atemp>19.0</ns3:atemp>
          </ns3:TrackPointExtension>
        </extensions>
      </trkpt>
      <trkpt lat="42.58610433898866176605224609375" lon="20.0902774371206760406494140625">
        <ele>2164.39990234375</ele>
        <time>2026-06-15T09:53:27.000Z</time>
        <extensions>
          <ns3:TrackPointExtension>
            <ns3:atemp>19.0</ns3:atemp>
          </ns3:TrackPointExtension>
        </extensions>
      </trkpt>
      <trkpt lat="42.5861498527228832244873046875" lon="20.09023837745189666748046875">
        <ele>2164.60009765625</ele>
        <time>2026-06-15T09:53:28.000Z</time>
        <extensions>
          <ns3:TrackPointExtension>
            <ns3:atemp>19.0</ns3:atemp>
          </ns3:TrackPointExtension>
        </extensions>
      </trkpt>
      <trkpt lat="42.58615680970251560211181640625" lon="20.0902140699326992034912109375">
        <ele>2165</ele>
        <time>2026-06-15T09:53:29.000Z</time>
        <extensions>
          <ns3:TrackPointExtension>
            <ns3:atemp>19.0</ns3:atemp>
          </ns3:TrackPointExtension>
        </extensions>
      </trkpt>
      <trkpt lat="42.58615680970251560211181640625" lon="20.0902140699326992034912109375">
        <ele>2165.199951171875</ele>
        <time>2026-06-15T09:53:30.000Z</time>
        <extensions>
          <ns3:TrackPointExtension>
            <ns3:atemp>19.0</ns3:atemp>
          </ns3:TrackPointExtension>
        </extensions>
      </trkpt>
      <trkpt lat="42.58614725433290004730224609375" lon="20.0901607610285282135009765625">
        <ele>2165.199951171875</ele>
        <time>2026-06-15T09:53:31.000Z</time>
        <extensions>
          <ns3:TrackPointExtension>
            <ns3:atemp>19.0</ns3:atemp>
          </ns3:TrackPointExtension>
        </extensions>
      </trkpt>
      <trkpt lat="42.58613116107881069183349609375" lon="20.09014156647026538848876953125">
        <ele>2165.39990234375</ele>
        <time>2026-06-15T09:53:32.000Z</time>
        <extensions>
          <ns3:TrackPointExtension>
            <ns3:atemp>19.0</ns3:atemp>
          </ns3:TrackPointExtension>
        </extensions>
      </trkpt>
      <trkpt lat="42.58611020632088184356689453125" lon="20.09012295864522457122802734375">
        <ele>2165.60009765625</ele>
        <time>2026-06-15T09:53:33.000Z</time>
        <extensions>
          <ns3:TrackPointExtension>
            <ns3:atemp>19.0</ns3:atemp>
          </ns3:TrackPointExtension>
        </extensions>
      </trkpt>
      <trkpt lat="42.58608908392488956451416015625" lon="20.09010518901050090789794921875">
        <ele>2165.60009765625</ele>
        <time>2026-06-15T09:53:34.000Z</time>
        <extensions>
          <ns3:TrackPointExtension>
            <ns3:atemp>19.0</ns3:atemp>
          </ns3:TrackPointExtension>
        </extensions>
      </trkpt>
      <trkpt lat="42.58606393821537494659423828125" lon="20.09008691646158695220947265625">
        <ele>2165.800048828125</ele>
        <time>2026-06-15T09:53:35.000Z</time>
        <extensions>
          <ns3:TrackPointExtension>
            <ns3:atemp>19.0</ns3:atemp>
          </ns3:TrackPointExtension>
        </extensions>
      </trkpt>
      <trkpt lat="42.58603560738265514373779296875" lon="20.09007065556943416595458984375">
        <ele>2166</ele>
        <time>2026-06-15T09:53:36.000Z</time>
        <extensions>
          <ns3:TrackPointExtension>
            <ns3:atemp>19.0</ns3:atemp>
          </ns3:TrackPointExtension>
        </extensions>
      </trkpt>
      <trkpt lat="42.58600719273090362548828125" lon="20.09005271829664707183837890625">
        <ele>2166</ele>
        <time>2026-06-15T09:53:37.000Z</time>
        <extensions>
          <ns3:TrackPointExtension>
            <ns3:atemp>19.0</ns3:atemp>
          </ns3:TrackPointExtension>
        </extensions>
      </trkpt>
      <trkpt lat="42.585980035364627838134765625" lon="20.09002975188195705413818359375">
        <ele>2166.199951171875</ele>
        <time>2026-06-15T09:53:38.000Z</time>
        <extensions>
          <ns3:TrackPointExtension>
            <ns3:atemp>19.0</ns3:atemp>
          </ns3:TrackPointExtension>
        </extensions>
      </trkpt>
      <trkpt lat="42.5859530456364154815673828125" lon="20.09000460617244243621826171875">
        <ele>2166.39990234375</ele>
        <time>2026-06-15T09:53:39.000Z</time>
        <extensions>
          <ns3:TrackPointExtension>
            <ns3:atemp>19.0</ns3:atemp>
          </ns3:TrackPointExtension>
        </extensions>
      </trkpt>
      <trkpt lat="42.585924379527568817138671875" lon="20.089981220662593841552734375">
        <ele>2166.60009765625</ele>
        <time>2026-06-15T09:53:40.000Z</time>
        <extensions>
          <ns3:TrackPointExtension>
            <ns3:atemp>19.0</ns3:atemp>
          </ns3:TrackPointExtension>
        </extensions>
      </trkpt>
      <trkpt lat="42.58589177392423152923583984375" lon="20.0899619422852993011474609375">
        <ele>2166.60009765625</ele>
        <time>2026-06-15T09:53:41.000Z</time>
        <extensions>
          <ns3:TrackPointExtension>
            <ns3:atemp>19.0</ns3:atemp>
          </ns3:TrackPointExtension>
        </extensions>
      </trkpt>
      <trkpt lat="42.5858605094254016876220703125" lon="20.08993905968964099884033203125">
        <ele>2166.800048828125</ele>
        <time>2026-06-15T09:53:42.000Z</time>
        <extensions>
          <ns3:TrackPointExtension>
            <ns3:atemp>19.0</ns3:atemp>
          </ns3:TrackPointExtension>
        </extensions>
      </trkpt>
      <trkpt lat="42.58582689799368381500244140625" lon="20.08991743437945842742919921875">
        <ele>2167</ele>
        <time>2026-06-15T09:53:43.000Z</time>
        <extensions>
          <ns3:TrackPointExtension>
            <ns3:atemp>19.0</ns3:atemp>
          </ns3:TrackPointExtension>
        </extensions>
      </trkpt>
      <trkpt lat="42.585795633494853973388671875" lon="20.08989782072603702545166015625">
        <ele>2167.199951171875</ele>
        <time>2026-06-15T09:53:44.000Z</time>
        <extensions>
          <ns3:TrackPointExtension>
            <ns3:atemp>19.0</ns3:atemp>
          </ns3:TrackPointExtension>
        </extensions>
      </trkpt>
      <trkpt lat="42.58576336316764354705810546875" lon="20.0898747704923152923583984375">
        <ele>2167.39990234375</ele>
        <time>2026-06-15T09:53:45.000Z</time>
        <extensions>
          <ns3:TrackPointExtension>
            <ns3:atemp>19.0</ns3:atemp>
          </ns3:TrackPointExtension>
        </extensions>
      </trkpt>
      <trkpt lat="42.58572882972657680511474609375" lon="20.0898533128201961517333984375">
        <ele>2167.60009765625</ele>
        <time>2026-06-15T09:53:46.000Z</time>
        <extensions>
          <ns3:TrackPointExtension>
            <ns3:atemp>19.0</ns3:atemp>
          </ns3:TrackPointExtension>
        </extensions>
      </trkpt>
      <trkpt lat="42.5856948830187320709228515625" lon="20.08983277715742588043212890625">
        <ele>2168</ele>
        <time>2026-06-15T09:53:47.000Z</time>
        <extensions>
          <ns3:TrackPointExtension>
            <ns3:atemp>19.0</ns3:atemp>
          </ns3:TrackPointExtension>
        </extensions>
      </trkpt>
      <trkpt lat="42.58566177450120449066162109375" lon="20.089808888733386993408203125">
        <ele>2168</ele>
        <time>2026-06-15T09:53:48.000Z</time>
        <extensions>
          <ns3:TrackPointExtension>
            <ns3:atemp>19.0</ns3:atemp>
          </ns3:TrackPointExtension>
        </extensions>
      </trkpt>
      <trkpt lat="42.58562807925045490264892578125" lon="20.0897822342813014984130859375">
        <ele>2168.199951171875</ele>
        <time>2026-06-15T09:53:49.000Z</time>
        <extensions>
          <ns3:TrackPointExtension>
            <ns3:atemp>19.0</ns3:atemp>
          </ns3:TrackPointExtension>
        </extensions>
      </trkpt>
      <trkpt lat="42.58559681475162506103515625" lon="20.089749880135059356689453125">
        <ele>2168.199951171875</ele>
        <time>2026-06-15T09:53:50.000Z</time>
        <extensions>
          <ns3:TrackPointExtension>
            <ns3:atemp>19.0</ns3:atemp>
          </ns3:TrackPointExtension>
        </extensions>
      </trkpt>
      <trkpt lat="42.5855627842247486114501953125" lon="20.0897146761417388916015625">
        <ele>2168.199951171875</ele>
        <time>2026-06-15T09:53:51.000Z</time>
        <extensions>
          <ns3:TrackPointExtension>
            <ns3:atemp>19.0</ns3:atemp>
          </ns3:TrackPointExtension>
        </extensions>
      </trkpt>
      <trkpt lat="42.58552917279303073883056640625" lon="20.089680813252925872802734375">
        <ele>2168</ele>
        <time>2026-06-15T09:53:52.000Z</time>
        <extensions>
          <ns3:TrackPointExtension>
            <ns3:atemp>19.0</ns3:atemp>
          </ns3:TrackPointExtension>
        </extensions>
      </trkpt>
      <trkpt lat="42.58549489080905914306640625" lon="20.08964401669800281524658203125">
        <ele>2168</ele>
        <time>2026-06-15T09:53:53.000Z</time>
        <extensions>
          <ns3:TrackPointExtension>
            <ns3:atemp>19.0</ns3:atemp>
          </ns3:TrackPointExtension>
        </extensions>
      </trkpt>
      <trkpt lat="42.58546563796699047088623046875" lon="20.08960244245827198028564453125">
        <ele>2168</ele>
        <time>2026-06-15T09:53:54.000Z</time>
        <extensions>
          <ns3:TrackPointExtension>
            <ns3:atemp>19.0</ns3:atemp>
          </ns3:TrackPointExtension>
        </extensions>
      </trkpt>
      <trkpt lat="42.5854407437145709991455078125" lon="20.089560784399509429931640625">
        <ele>2168</ele>
        <time>2026-06-15T09:53:55.000Z</time>
        <extensions>
          <ns3:TrackPointExtension>
            <ns3:atemp>19.0</ns3:atemp>
          </ns3:TrackPointExtension>
        </extensions>
      </trkpt>
      <trkpt lat="42.58541434071958065032958984375" lon="20.08951879106462001800537109375">
        <ele>2168.199951171875</ele>
        <time>2026-06-15T09:53:56.000Z</time>
        <extensions>
          <ns3:TrackPointExtension>
            <ns3:atemp>19.0</ns3:atemp>
          </ns3:TrackPointExtension>
        </extensions>
      </trkpt>
      <trkpt lat="42.58538902737200260162353515625" lon="20.08947285823523998260498046875">
        <ele>2168.199951171875</ele>
        <time>2026-06-15T09:53:57.000Z</time>
        <extensions>
          <ns3:TrackPointExtension>
            <ns3:atemp>19.0</ns3:atemp>
          </ns3:TrackPointExtension>
        </extensions>
      </trkpt>
      <trkpt lat="42.58536606095731258392333984375" lon="20.0894275121390819549560546875">
        <ele>2168.39990234375</ele>
        <time>2026-06-15T09:53:58.000Z</time>
        <extensions>
          <ns3:TrackPointExtension>
            <ns3:atemp>19.0</ns3:atemp>
          </ns3:TrackPointExtension>
        </extensions>
      </trkpt>
      <trkpt lat="42.58534611202776432037353515625" lon="20.089380405843257904052734375">
        <ele>2168.60009765625</ele>
        <time>2026-06-15T09:53:59.000Z</time>
        <extensions>
          <ns3:TrackPointExtension>
            <ns3:atemp>19.0</ns3:atemp>
          </ns3:TrackPointExtension>
        </extensions>
      </trkpt>
      <trkpt lat="42.58532146923243999481201171875" lon="20.08933505974709987640380859375">
        <ele>2168.60009765625</ele>
        <time>2026-06-15T09:54:00.000Z</time>
        <extensions>
          <ns3:TrackPointExtension>
            <ns3:atemp>19.0</ns3:atemp>
          </ns3:TrackPointExtension>
        </extensions>
      </trkpt>
      <trkpt lat="42.58529682643711566925048828125" lon="20.08928828872740268707275390625">
        <ele>2168.60009765625</ele>
        <time>2026-06-15T09:54:01.000Z</time>
        <extensions>
          <ns3:TrackPointExtension>
            <ns3:atemp>19.0</ns3:atemp>
          </ns3:TrackPointExtension>
        </extensions>
      </trkpt>
      <trkpt lat="42.5852737762033939361572265625" lon="20.08924327790737152099609375">
        <ele>2168.39990234375</ele>
        <time>2026-06-15T09:54:02.000Z</time>
        <extensions>
          <ns3:TrackPointExtension>
            <ns3:atemp>19.0</ns3:atemp>
          </ns3:TrackPointExtension>
        </extensions>
      </trkpt>
      <trkpt lat="42.5852737762033939361572265625" lon="20.08924327790737152099609375">
        <ele>2168.39990234375</ele>
        <time>2026-06-15T09:54:03.000Z</time>
        <extensions>
          <ns3:TrackPointExtension>
            <ns3:atemp>19.0</ns3:atemp>
          </ns3:TrackPointExtension>
        </extensions>
      </trkpt>
      <trkpt lat="42.5852305255830287933349609375" lon="20.0891599617898464202880859375">
        <ele>2168.60009765625</ele>
        <time>2026-06-15T09:54:04.000Z</time>
        <extensions>
          <ns3:TrackPointExtension>
            <ns3:atemp>19.0</ns3:atemp>
          </ns3:TrackPointExtension>
        </extensions>
      </trkpt>
      <trkpt lat="42.5852305255830287933349609375" lon="20.0891599617898464202880859375">
        <ele>2168.800048828125</ele>
        <time>2026-06-15T09:54:05.000Z</time>
        <extensions>
          <ns3:TrackPointExtension>
            <ns3:atemp>19.0</ns3:atemp>
          </ns3:TrackPointExtension>
        </extensions>
      </trkpt>
      <trkpt lat="42.58518417365849018096923828125" lon="20.0890721194446086883544921875">
        <ele>2169.199951171875</ele>
        <time>2026-06-15T09:54:06.000Z</time>
        <extensions>
          <ns3:TrackPointExtension>
            <ns3:atemp>19.0</ns3:atemp>
          </ns3:TrackPointExtension>
        </extensions>
      </trkpt>
      <trkpt lat="42.58516489528119564056396484375" lon="20.08902291767299175262451171875">
        <ele>2169.60009765625</ele>
        <time>2026-06-15T09:54:07.000Z</time>
        <extensions>
          <ns3:TrackPointExtension>
            <ns3:atemp>19.0</ns3:atemp>
          </ns3:TrackPointExtension>
        </extensions>
      </trkpt>
      <trkpt lat="42.5851446948945522308349609375" lon="20.08897597901523113250732421875">
        <ele>2170</ele>
        <time>2026-06-15T09:54:08.000Z</time>
        <extensions>
          <ns3:TrackPointExtension>
            <ns3:atemp>19.0</ns3:atemp>
          </ns3:TrackPointExtension>
        </extensions>
      </trkpt>
      <trkpt lat="42.58512248285114765167236328125" lon="20.088927447795867919921875">
        <ele>2170.39990234375</ele>
        <time>2026-06-15T09:54:09.000Z</time>
        <extensions>
          <ns3:TrackPointExtension>
            <ns3:atemp>19.0</ns3:atemp>
          </ns3:TrackPointExtension>
        </extensions>
      </trkpt>
      <trkpt lat="42.5851037912070751190185546875" lon="20.08887941949069499969482421875">
        <ele>2170.800048828125</ele>
        <time>2026-06-15T09:54:10.000Z</time>
        <extensions>
          <ns3:TrackPointExtension>
            <ns3:atemp>19.0</ns3:atemp>
          </ns3:TrackPointExtension>
        </extensions>
      </trkpt>
      <trkpt lat="42.5850856862962245941162109375" lon="20.08883248083293437957763671875">
        <ele>2171</ele>
        <time>2026-06-15T09:54:11.000Z</time>
        <extensions>
          <ns3:TrackPointExtension>
            <ns3:atemp>19.0</ns3:atemp>
          </ns3:TrackPointExtension>
        </extensions>
      </trkpt>
      <trkpt lat="42.58506665937602519989013671875" lon="20.0887817703187465667724609375">
        <ele>2171.199951171875</ele>
        <time>2026-06-15T09:54:12.000Z</time>
        <extensions>
          <ns3:TrackPointExtension>
            <ns3:atemp>19.0</ns3:atemp>
          </ns3:TrackPointExtension>
        </extensions>
      </trkpt>
      <trkpt lat="42.58506665937602519989013671875" lon="20.0887817703187465667724609375">
        <ele>2171.39990234375</ele>
        <time>2026-06-15T09:54:13.000Z</time>
        <extensions>
          <ns3:TrackPointExtension>
            <ns3:atemp>19.0</ns3:atemp>
          </ns3:TrackPointExtension>
        </extensions>
      </trkpt>
      <trkpt lat="42.58501946926116943359375" lon="20.0886842049658298492431640625">
        <ele>2171.60009765625</ele>
        <time>2026-06-15T09:54:14.000Z</time>
        <extensions>
          <ns3:TrackPointExtension>
            <ns3:atemp>19.0</ns3:atemp>
          </ns3:TrackPointExtension>
        </extensions>
      </trkpt>
      <trkpt lat="42.58499868214130401611328125" lon="20.0886386074125766754150390625">
        <ele>2171.60009765625</ele>
        <time>2026-06-15T09:54:15.000Z</time>
        <extensions>
          <ns3:TrackPointExtension>
            <ns3:atemp>19.0</ns3:atemp>
          </ns3:TrackPointExtension>
        </extensions>
      </trkpt>
      <trkpt lat="42.58499868214130401611328125" lon="20.0886386074125766754150390625">
        <ele>2171.800048828125</ele>
        <time>2026-06-15T09:54:16.000Z</time>
        <extensions>
          <ns3:TrackPointExtension>
            <ns3:atemp>19.0</ns3:atemp>
          </ns3:TrackPointExtension>
        </extensions>
      </trkpt>
      <trkpt lat="42.58495937101542949676513671875" lon="20.08854414336383342742919921875">
        <ele>2171.800048828125</ele>
        <time>2026-06-15T09:54:17.000Z</time>
        <extensions>
          <ns3:TrackPointExtension>
            <ns3:atemp>19.0</ns3:atemp>
          </ns3:TrackPointExtension>
        </extensions>
      </trkpt>
      <trkpt lat="42.58493757806718349456787109375" lon="20.0884924270212650299072265625">
        <ele>2171.800048828125</ele>
        <time>2026-06-15T09:54:18.000Z</time>
        <extensions>
          <ns3:TrackPointExtension>
            <ns3:atemp>19.0</ns3:atemp>
          </ns3:TrackPointExtension>
        </extensions>
      </trkpt>
      <trkpt lat="42.584917545318603515625" lon="20.08844263851642608642578125">
        <ele>2172</ele>
        <time>2026-06-15T09:54:19.000Z</time>
        <extensions>
          <ns3:TrackPointExtension>
            <ns3:atemp>19.0</ns3:atemp>
          </ns3:TrackPointExtension>
        </extensions>
      </trkpt>
      <trkpt lat="42.58489918895065784454345703125" lon="20.0883905030786991119384765625">
        <ele>2172.199951171875</ele>
        <time>2026-06-15T09:54:20.000Z</time>
        <extensions>
          <ns3:TrackPointExtension>
            <ns3:atemp>19.0</ns3:atemp>
          </ns3:TrackPointExtension>
        </extensions>
      </trkpt>
      <trkpt lat="42.5848813354969024658203125" lon="20.0883465819060802459716796875">
        <ele>2172.39990234375</ele>
        <time>2026-06-15T09:54:21.000Z</time>
        <extensions>
          <ns3:TrackPointExtension>
            <ns3:atemp>19.0</ns3:atemp>
          </ns3:TrackPointExtension>
        </extensions>
      </trkpt>
      <trkpt lat="42.58487018756568431854248046875" lon="20.088300816714763641357421875">
        <ele>2172.800048828125</ele>
        <time>2026-06-15T09:54:22.000Z</time>
        <extensions>
          <ns3:TrackPointExtension>
            <ns3:atemp>19.0</ns3:atemp>
          </ns3:TrackPointExtension>
        </extensions>
      </trkpt>
      <trkpt lat="42.58485275320708751678466796875" lon="20.08825245313346385955810546875">
        <ele>2173.199951171875</ele>
        <time>2026-06-15T09:54:23.000Z</time>
        <extensions>
          <ns3:TrackPointExtension>
            <ns3:atemp>19.0</ns3:atemp>
          </ns3:TrackPointExtension>
        </extensions>
      </trkpt>
      <trkpt lat="42.5848379172384738922119140625" lon="20.08820517919957637786865234375">
        <ele>2173.60009765625</ele>
        <time>2026-06-15T09:54:24.000Z</time>
        <extensions>
          <ns3:TrackPointExtension>
            <ns3:atemp>19.0</ns3:atemp>
          </ns3:TrackPointExtension>
        </extensions>
      </trkpt>
      <trkpt lat="42.58482567965984344482421875" lon="20.0881537981331348419189453125">
        <ele>2174.199951171875</ele>
        <time>2026-06-15T09:54:25.000Z</time>
        <extensions>
          <ns3:TrackPointExtension>
            <ns3:atemp>19.0</ns3:atemp>
          </ns3:TrackPointExtension>
        </extensions>
      </trkpt>
      <trkpt lat="42.58481319062411785125732421875" lon="20.08809755556285381317138671875">
        <ele>2174.60009765625</ele>
        <time>2026-06-15T09:54:26.000Z</time>
        <extensions>
          <ns3:TrackPointExtension>
            <ns3:atemp>19.0</ns3:atemp>
          </ns3:TrackPointExtension>
        </extensions>
      </trkpt>
      <trkpt lat="42.58480279706418514251708984375" lon="20.08804433047771453857421875">
        <ele>2175</ele>
        <time>2026-06-15T09:54:27.000Z</time>
        <extensions>
          <ns3:TrackPointExtension>
            <ns3:atemp>19.0</ns3:atemp>
          </ns3:TrackPointExtension>
        </extensions>
      </trkpt>
      <trkpt lat="42.58479273878037929534912109375" lon="20.08800485171377658843994140625">
        <ele>2175</ele>
        <time>2026-06-15T09:54:28.000Z</time>
        <extensions>
          <ns3:TrackPointExtension>
            <ns3:atemp>19.0</ns3:atemp>
          </ns3:TrackPointExtension>
        </extensions>
      </trkpt>
      <trkpt lat="42.58478670381009578704833984375" lon="20.08797786198556423187255859375">
        <ele>2175</ele>
        <time>2026-06-15T09:54:29.000Z</time>
        <extensions>
          <ns3:TrackPointExtension>
            <ns3:atemp>19.0</ns3:atemp>
          </ns3:TrackPointExtension>
        </extensions>
      </trkpt>
      <trkpt lat="42.58478636853396892547607421875" lon="20.08795120753347873687744140625">
        <ele>2174.800048828125</ele>
        <time>2026-06-15T09:54:30.000Z</time>
        <extensions>
          <ns3:TrackPointExtension>
            <ns3:atemp>19.0</ns3:atemp>
          </ns3:TrackPointExtension>
        </extensions>
      </trkpt>
      <trkpt lat="42.58478418923914432525634765625" lon="20.0879224576056003570556640625">
        <ele>2174.800048828125</ele>
        <time>2026-06-15T09:54:31.000Z</time>
        <extensions>
          <ns3:TrackPointExtension>
            <ns3:atemp>19.0</ns3:atemp>
          </ns3:TrackPointExtension>
        </extensions>
      </trkpt>
      <trkpt lat="42.5847785733640193939208984375" lon="20.08789404295384883880615234375">
        <ele>2174.60009765625</ele>
        <time>2026-06-15T09:54:32.000Z</time>
        <extensions>
          <ns3:TrackPointExtension>
            <ns3:atemp>19.0</ns3:atemp>
          </ns3:TrackPointExtension>
        </extensions>
      </trkpt>
      <trkpt lat="42.5847785733640193939208984375" lon="20.08789404295384883880615234375">
        <ele>2174.800048828125</ele>
        <time>2026-06-15T09:54:33.000Z</time>
        <extensions>
          <ns3:TrackPointExtension>
            <ns3:atemp>19.0</ns3:atemp>
          </ns3:TrackPointExtension>
        </extensions>
      </trkpt>
      <trkpt lat="42.5847661681473255157470703125" lon="20.08785791695117950439453125">
        <ele>2175</ele>
        <time>2026-06-15T09:54:34.000Z</time>
        <extensions>
          <ns3:TrackPointExtension>
            <ns3:atemp>19.0</ns3:atemp>
          </ns3:TrackPointExtension>
        </extensions>
      </trkpt>
      <trkpt lat="42.584761641919612884521484375" lon="20.08784056641161441802978515625">
        <ele>2175</ele>
        <time>2026-06-15T09:54:35.000Z</time>
        <extensions>
          <ns3:TrackPointExtension>
            <ns3:atemp>19.0</ns3:atemp>
          </ns3:TrackPointExtension>
        </extensions>
      </trkpt>
      <trkpt lat="42.584759294986724853515625" lon="20.087810643017292022705078125">
        <ele>2175.199951171875</ele>
        <time>2026-06-15T09:54:36.000Z</time>
        <extensions>
          <ns3:TrackPointExtension>
            <ns3:atemp>19.0</ns3:atemp>
          </ns3:TrackPointExtension>
        </extensions>
      </trkpt>
      <trkpt lat="42.58475937880575656890869140625" lon="20.087765045464038848876953125">
        <ele>2175.39990234375</ele>
        <time>2026-06-15T09:54:37.000Z</time>
        <extensions>
          <ns3:TrackPointExtension>
            <ns3:atemp>19.0</ns3:atemp>
          </ns3:TrackPointExtension>
        </extensions>
      </trkpt>
      <trkpt lat="42.584756277501583099365234375" lon="20.0877139158546924591064453125">
        <ele>2175.60009765625</ele>
        <time>2026-06-15T09:54:38.000Z</time>
        <extensions>
          <ns3:TrackPointExtension>
            <ns3:atemp>19.0</ns3:atemp>
          </ns3:TrackPointExtension>
        </extensions>
      </trkpt>
      <trkpt lat="42.58473984897136688232421875" lon="20.08766354061663150787353515625">
        <ele>2175.800048828125</ele>
        <time>2026-06-15T09:54:39.000Z</time>
        <extensions>
          <ns3:TrackPointExtension>
            <ns3:atemp>19.0</ns3:atemp>
          </ns3:TrackPointExtension>
        </extensions>
      </trkpt>
      <trkpt lat="42.58471512235701084136962890625" lon="20.0876207090914249420166015625">
        <ele>2176</ele>
        <time>2026-06-15T09:54:40.000Z</time>
        <extensions>
          <ns3:TrackPointExtension>
            <ns3:atemp>19.0</ns3:atemp>
          </ns3:TrackPointExtension>
        </extensions>
      </trkpt>
      <trkpt lat="42.58468997664749622344970703125" lon="20.087574608623981475830078125">
        <ele>2176.199951171875</ele>
        <time>2026-06-15T09:54:41.000Z</time>
        <extensions>
          <ns3:TrackPointExtension>
            <ns3:atemp>19.0</ns3:atemp>
          </ns3:TrackPointExtension>
        </extensions>
      </trkpt>
      <trkpt lat="42.5846696086227893829345703125" lon="20.0875298492610454559326171875">
        <ele>2176.39990234375</ele>
        <time>2026-06-15T09:54:42.000Z</time>
        <extensions>
          <ns3:TrackPointExtension>
            <ns3:atemp>19.0</ns3:atemp>
          </ns3:TrackPointExtension>
        </extensions>
      </trkpt>
      <trkpt lat="42.5846518389880657196044921875" lon="20.08749506436288356781005859375">
        <ele>2176.800048828125</ele>
        <time>2026-06-15T09:54:43.000Z</time>
        <extensions>
          <ns3:TrackPointExtension>
            <ns3:atemp>19.0</ns3:atemp>
          </ns3:TrackPointExtension>
        </extensions>
      </trkpt>
      <trkpt lat="42.58463230915367603302001953125" lon="20.0874669849872589111328125">
        <ele>2177.199951171875</ele>
        <time>2026-06-15T09:54:44.000Z</time>
        <extensions>
          <ns3:TrackPointExtension>
            <ns3:atemp>19.0</ns3:atemp>
          </ns3:TrackPointExtension>
        </extensions>
      </trkpt>
      <trkpt lat="42.58460951037704944610595703125" lon="20.0874383188784122467041015625">
        <ele>2177.60009765625</ele>
        <time>2026-06-15T09:54:45.000Z</time>
        <extensions>
          <ns3:TrackPointExtension>
            <ns3:atemp>19.0</ns3:atemp>
          </ns3:TrackPointExtension>
        </extensions>
      </trkpt>
      <trkpt lat="42.584583945572376251220703125" lon="20.0874068029224872589111328125">
        <ele>2177.800048828125</ele>
        <time>2026-06-15T09:54:46.000Z</time>
        <extensions>
          <ns3:TrackPointExtension>
            <ns3:atemp>19.0</ns3:atemp>
          </ns3:TrackPointExtension>
        </extensions>
      </trkpt>
      <trkpt lat="42.584555111825466156005859375" lon="20.08737243711948394775390625">
        <ele>2178</ele>
        <time>2026-06-15T09:54:47.000Z</time>
        <extensions>
          <ns3:TrackPointExtension>
            <ns3:atemp>19.0</ns3:atemp>
          </ns3:TrackPointExtension>
        </extensions>
      </trkpt>
      <trkpt lat="42.58452502079308032989501953125" lon="20.087335221469402313232421875">
        <ele>2178</ele>
        <time>2026-06-15T09:54:48.000Z</time>
        <extensions>
          <ns3:TrackPointExtension>
            <ns3:atemp>19.0</ns3:atemp>
          </ns3:TrackPointExtension>
        </extensions>
      </trkpt>
      <trkpt lat="42.584496103227138519287109375" lon="20.0872951559722423553466796875">
        <ele>2178.199951171875</ele>
        <time>2026-06-15T09:54:49.000Z</time>
        <extensions>
          <ns3:TrackPointExtension>
            <ns3:atemp>19.0</ns3:atemp>
          </ns3:TrackPointExtension>
        </extensions>
      </trkpt>
      <trkpt lat="42.5844741426408290863037109375" lon="20.08725265972316265106201171875">
        <ele>2178.199951171875</ele>
        <time>2026-06-15T09:54:50.000Z</time>
        <extensions>
          <ns3:TrackPointExtension>
            <ns3:atemp>19.0</ns3:atemp>
          </ns3:TrackPointExtension>
        </extensions>
      </trkpt>
      <trkpt lat="42.58444908075034618377685546875" lon="20.0872140191495418548583984375">
        <ele>2178.39990234375</ele>
        <time>2026-06-15T09:54:51.000Z</time>
        <extensions>
          <ns3:TrackPointExtension>
            <ns3:atemp>19.0</ns3:atemp>
          </ns3:TrackPointExtension>
        </extensions>
      </trkpt>
      <trkpt lat="42.584417648613452911376953125" lon="20.0871828384697437286376953125">
        <ele>2178.800048828125</ele>
        <time>2026-06-15T09:54:52.000Z</time>
        <extensions>
          <ns3:TrackPointExtension>
            <ns3:atemp>19.0</ns3:atemp>
          </ns3:TrackPointExtension>
        </extensions>
      </trkpt>
      <trkpt lat="42.58438185788691043853759765625" lon="20.08715895004570484161376953125">
        <ele>2179.199951171875</ele>
        <time>2026-06-15T09:54:53.000Z</time>
        <extensions>
          <ns3:TrackPointExtension>
            <ns3:atemp>19.0</ns3:atemp>
          </ns3:TrackPointExtension>
        </extensions>
      </trkpt>
      <trkpt lat="42.5843417085707187652587890625" lon="20.08714302442967891693115234375">
        <ele>2179.60009765625</ele>
        <time>2026-06-15T09:54:54.000Z</time>
        <extensions>
          <ns3:TrackPointExtension>
            <ns3:atemp>19.0</ns3:atemp>
          </ns3:TrackPointExtension>
        </extensions>
      </trkpt>
      <trkpt lat="42.58429636247456073760986328125" lon="20.08712877519428730010986328125">
        <ele>2179.800048828125</ele>
        <time>2026-06-15T09:54:55.000Z</time>
        <extensions>
          <ns3:TrackPointExtension>
            <ns3:atemp>19.0</ns3:atemp>
          </ns3:TrackPointExtension>
        </extensions>
      </trkpt>
      <trkpt lat="42.58424959145486354827880859375" lon="20.0871117599308490753173828125">
        <ele>2180.199951171875</ele>
        <time>2026-06-15T09:54:56.000Z</time>
        <extensions>
          <ns3:TrackPointExtension>
            <ns3:atemp>19.0</ns3:atemp>
          </ns3:TrackPointExtension>
        </extensions>
      </trkpt>
      <trkpt lat="42.5842069275677204132080078125" lon="20.0870941579341888427734375">
        <ele>2180.39990234375</ele>
        <time>2026-06-15T09:54:57.000Z</time>
        <extensions>
          <ns3:TrackPointExtension>
            <ns3:atemp>19.0</ns3:atemp>
          </ns3:TrackPointExtension>
        </extensions>
      </trkpt>
      <trkpt lat="42.58416577242314815521240234375" lon="20.08707496337592601776123046875">
        <ele>2180.60009765625</ele>
        <time>2026-06-15T09:54:58.000Z</time>
        <extensions>
          <ns3:TrackPointExtension>
            <ns3:atemp>19.0</ns3:atemp>
          </ns3:TrackPointExtension>
        </extensions>
      </trkpt>
      <trkpt lat="42.58412956260144710540771484375" lon="20.08705870248377323150634765625">
        <ele>2180.60009765625</ele>
        <time>2026-06-15T09:54:59.000Z</time>
        <extensions>
          <ns3:TrackPointExtension>
            <ns3:atemp>19.0</ns3:atemp>
          </ns3:TrackPointExtension>
        </extensions>
      </trkpt>
      <trkpt lat="42.58409150876104831695556640625" lon="20.0870483927428722381591796875">
        <ele>2180.800048828125</ele>
        <time>2026-06-15T09:55:00.000Z</time>
        <extensions>
          <ns3:TrackPointExtension>
            <ns3:atemp>19.0</ns3:atemp>
          </ns3:TrackPointExtension>
        </extensions>
      </trkpt>
      <trkpt lat="42.584051191806793212890625" lon="20.08704110048711299896240234375">
        <ele>2180.800048828125</ele>
        <time>2026-06-15T09:55:01.000Z</time>
        <extensions>
          <ns3:TrackPointExtension>
            <ns3:atemp>19.0</ns3:atemp>
          </ns3:TrackPointExtension>
        </extensions>
      </trkpt>
      <trkpt lat="42.58400953374803066253662109375" lon="20.087036155164241790771484375">
        <ele>2181</ele>
        <time>2026-06-15T09:55:02.000Z</time>
        <extensions>
          <ns3:TrackPointExtension>
            <ns3:atemp>19.0</ns3:atemp>
          </ns3:TrackPointExtension>
        </extensions>
      </trkpt>
      <trkpt lat="42.5839720666408538818359375" lon="20.08702852763235569000244140625">
        <ele>2181</ele>
        <time>2026-06-15T09:55:03.000Z</time>
        <extensions>
          <ns3:TrackPointExtension>
            <ns3:atemp>19.0</ns3:atemp>
          </ns3:TrackPointExtension>
        </extensions>
      </trkpt>
      <trkpt lat="42.583935521543025970458984375" lon="20.08702115155756473541259765625">
        <ele>2181.199951171875</ele>
        <time>2026-06-15T09:55:04.000Z</time>
        <extensions>
          <ns3:TrackPointExtension>
            <ns3:atemp>19.0</ns3:atemp>
          </ns3:TrackPointExtension>
        </extensions>
      </trkpt>
      <trkpt lat="42.583902664482593536376953125" lon="20.0870095007121562957763671875">
        <ele>2181.39990234375</ele>
        <time>2026-06-15T09:55:05.000Z</time>
        <extensions>
          <ns3:TrackPointExtension>
            <ns3:atemp>19.0</ns3:atemp>
          </ns3:TrackPointExtension>
        </extensions>
      </trkpt>
      <trkpt lat="42.5838682986795902252197265625" lon="20.0869974307715892791748046875">
        <ele>2181.60009765625</ele>
        <time>2026-06-15T09:55:06.000Z</time>
        <extensions>
          <ns3:TrackPointExtension>
            <ns3:atemp>19.0</ns3:atemp>
          </ns3:TrackPointExtension>
        </extensions>
      </trkpt>
      <trkpt lat="42.58382982574403285980224609375" lon="20.0869877077639102935791015625">
        <ele>2181.800048828125</ele>
        <time>2026-06-15T09:55:07.000Z</time>
        <extensions>
          <ns3:TrackPointExtension>
            <ns3:atemp>19.0</ns3:atemp>
          </ns3:TrackPointExtension>
        </extensions>
      </trkpt>
      <trkpt lat="42.58378607220947742462158203125" lon="20.08698284626007080078125">
        <ele>2182</ele>
        <time>2026-06-15T09:55:08.000Z</time>
        <extensions>
          <ns3:TrackPointExtension>
            <ns3:atemp>19.0</ns3:atemp>
          </ns3:TrackPointExtension>
        </extensions>
      </trkpt>
      <trkpt lat="42.5837395526468753814697265625" lon="20.086977481842041015625">
        <ele>2182</ele>
        <time>2026-06-15T09:55:09.000Z</time>
        <extensions>
          <ns3:TrackPointExtension>
            <ns3:atemp>19.0</ns3:atemp>
          </ns3:TrackPointExtension>
        </extensions>
      </trkpt>
      <trkpt lat="42.5836909376084804534912109375" lon="20.08697505109012126922607421875">
        <ele>2182.199951171875</ele>
        <time>2026-06-15T09:55:10.000Z</time>
        <extensions>
          <ns3:TrackPointExtension>
            <ns3:atemp>19.0</ns3:atemp>
          </ns3:TrackPointExtension>
        </extensions>
      </trkpt>
      <trkpt lat="42.58364240638911724090576171875" lon="20.08697035722434520721435546875">
        <ele>2182.199951171875</ele>
        <time>2026-06-15T09:55:11.000Z</time>
        <extensions>
          <ns3:TrackPointExtension>
            <ns3:atemp>18.0</ns3:atemp>
          </ns3:TrackPointExtension>
        </extensions>
      </trkpt>
      <trkpt lat="42.58359580300748348236083984375" lon="20.0869628973305225372314453125">
        <ele>2182</ele>
        <time>2026-06-15T09:55:12.000Z</time>
        <extensions>
          <ns3:TrackPointExtension>
            <ns3:atemp>18.0</ns3:atemp>
          </ns3:TrackPointExtension>
        </extensions>
      </trkpt>
      <trkpt lat="42.58355121128261089324951171875" lon="20.0869561918079853057861328125">
        <ele>2182.199951171875</ele>
        <time>2026-06-15T09:55:13.000Z</time>
        <extensions>
          <ns3:TrackPointExtension>
            <ns3:atemp>18.0</ns3:atemp>
          </ns3:TrackPointExtension>
        </extensions>
      </trkpt>
      <trkpt lat="42.58350628428161144256591796875" lon="20.0869525037705898284912109375">
        <ele>2182.199951171875</ele>
        <time>2026-06-15T09:55:14.000Z</time>
        <extensions>
          <ns3:TrackPointExtension>
            <ns3:atemp>18.0</ns3:atemp>
          </ns3:TrackPointExtension>
        </extensions>
      </trkpt>
      <trkpt lat="42.5834589265286922454833984375" lon="20.0869471393525600433349609375">
        <ele>2182.60009765625</ele>
        <time>2026-06-15T09:55:15.000Z</time>
        <extensions>
          <ns3:TrackPointExtension>
            <ns3:atemp>18.0</ns3:atemp>
          </ns3:TrackPointExtension>
        </extensions>
      </trkpt>
      <trkpt lat="42.58341039530932903289794921875" lon="20.08694319985806941986083984375">
        <ele>2182.800048828125</ele>
        <time>2026-06-15T09:55:16.000Z</time>
        <extensions>
          <ns3:TrackPointExtension>
            <ns3:atemp>18.0</ns3:atemp>
          </ns3:TrackPointExtension>
        </extensions>
      </trkpt>
      <trkpt lat="42.583362869918346405029296875" lon="20.0869404338300228118896484375">
        <ele>2183.199951171875</ele>
        <time>2026-06-15T09:55:17.000Z</time>
        <extensions>
          <ns3:TrackPointExtension>
            <ns3:atemp>18.0</ns3:atemp>
          </ns3:TrackPointExtension>
        </extensions>
      </trkpt>
      <trkpt lat="42.583315260708332061767578125" lon="20.086937248706817626953125">
        <ele>2183.39990234375</ele>
        <time>2026-06-15T09:55:18.000Z</time>
        <extensions>
          <ns3:TrackPointExtension>
            <ns3:atemp>18.0</ns3:atemp>
          </ns3:TrackPointExtension>
        </extensions>
      </trkpt>
      <trkpt lat="42.5832684896886348724365234375" lon="20.08692760951817035675048828125">
        <ele>2183.60009765625</ele>
        <time>2026-06-15T09:55:19.000Z</time>
        <extensions>
          <ns3:TrackPointExtension>
            <ns3:atemp>18.0</ns3:atemp>
          </ns3:TrackPointExtension>
        </extensions>
      </trkpt>
      <trkpt lat="42.5832212157547473907470703125" lon="20.08691788651049137115478515625">
        <ele>2183.60009765625</ele>
        <time>2026-06-15T09:55:20.000Z</time>
        <extensions>
          <ns3:TrackPointExtension>
            <ns3:atemp>18.0</ns3:atemp>
          </ns3:TrackPointExtension>
        </extensions>
      </trkpt>
      <trkpt lat="42.5831732712686061859130859375" lon="20.08691051043570041656494140625">
        <ele>2183.60009765625</ele>
        <time>2026-06-15T09:55:21.000Z</time>
        <extensions>
          <ns3:TrackPointExtension>
            <ns3:atemp>18.0</ns3:atemp>
          </ns3:TrackPointExtension>
        </extensions>
      </trkpt>
      <trkpt lat="42.58312650024890899658203125" lon="20.08690766058862209320068359375">
        <ele>2183.800048828125</ele>
        <time>2026-06-15T09:55:22.000Z</time>
        <extensions>
          <ns3:TrackPointExtension>
            <ns3:atemp>18.0</ns3:atemp>
          </ns3:TrackPointExtension>
        </extensions>
      </trkpt>
      <trkpt lat="42.58307981304824352264404296875" lon="20.08690774440765380859375">
        <ele>2184</ele>
        <time>2026-06-15T09:55:23.000Z</time>
        <extensions>
          <ns3:TrackPointExtension>
            <ns3:atemp>18.0</ns3:atemp>
          </ns3:TrackPointExtension>
        </extensions>
      </trkpt>
      <trkpt lat="42.58303438313305377960205078125" lon="20.086913444101810455322265625">
        <ele>2184.199951171875</ele>
        <time>2026-06-15T09:55:24.000Z</time>
        <extensions>
          <ns3:TrackPointExtension>
            <ns3:atemp>18.0</ns3:atemp>
          </ns3:TrackPointExtension>
        </extensions>
      </trkpt>
      <trkpt lat="42.58298828266561031341552734375" lon="20.0869189761579036712646484375">
        <ele>2184.39990234375</ele>
        <time>2026-06-15T09:55:25.000Z</time>
        <extensions>
          <ns3:TrackPointExtension>
            <ns3:atemp>18.0</ns3:atemp>
          </ns3:TrackPointExtension>
        </extensions>
      </trkpt>
      <trkpt lat="42.58294285275042057037353515625" lon="20.08692241273820400238037109375">
        <ele>2184.60009765625</ele>
        <time>2026-06-15T09:55:26.000Z</time>
        <extensions>
          <ns3:TrackPointExtension>
            <ns3:atemp>18.0</ns3:atemp>
          </ns3:TrackPointExtension>
        </extensions>
      </trkpt>
      <trkpt lat="42.582892812788486480712890625" lon="20.0869317166507244110107421875">
        <ele>2184.60009765625</ele>
        <time>2026-06-15T09:55:27.000Z</time>
        <extensions>
          <ns3:TrackPointExtension>
            <ns3:atemp>18.0</ns3:atemp>
          </ns3:TrackPointExtension>
        </extensions>
      </trkpt>
      <trkpt lat="42.58284126408398151397705078125" lon="20.0869478099048137664794921875">
        <ele>2184.800048828125</ele>
        <time>2026-06-15T09:55:28.000Z</time>
        <extensions>
          <ns3:TrackPointExtension>
            <ns3:atemp>18.0</ns3:atemp>
          </ns3:TrackPointExtension>
        </extensions>
      </trkpt>
      <trkpt lat="42.5827930681407451629638671875" lon="20.08696516044437885284423828125">
        <ele>2185</ele>
        <time>2026-06-15T09:55:29.000Z</time>
        <extensions>
          <ns3:TrackPointExtension>
            <ns3:atemp>18.0</ns3:atemp>
          </ns3:TrackPointExtension>
        </extensions>
      </trkpt>
      <trkpt lat="42.5827468000352382659912109375" lon="20.08697655983269214630126953125">
        <ele>2185.199951171875</ele>
        <time>2026-06-15T09:55:30.000Z</time>
        <extensions>
          <ns3:TrackPointExtension>
            <ns3:atemp>18.0</ns3:atemp>
          </ns3:TrackPointExtension>
        </extensions>
      </trkpt>
      <trkpt lat="42.5827032141387462615966796875" lon="20.0869900546967983245849609375">
        <ele>2185.39990234375</ele>
        <time>2026-06-15T09:55:31.000Z</time>
        <extensions>
          <ns3:TrackPointExtension>
            <ns3:atemp>18.0</ns3:atemp>
          </ns3:TrackPointExtension>
        </extensions>
      </trkpt>
      <trkpt lat="42.5826606340706348419189453125" lon="20.08700774051249027252197265625">
        <ele>2185.60009765625</ele>
        <time>2026-06-15T09:55:32.000Z</time>
        <extensions>
          <ns3:TrackPointExtension>
            <ns3:atemp>18.0</ns3:atemp>
          </ns3:TrackPointExtension>
        </extensions>
      </trkpt>
      <trkpt lat="42.58261662907898426055908203125" lon="20.0870269350707530975341796875">
        <ele>2186</ele>
        <time>2026-06-15T09:55:33.000Z</time>
        <extensions>
          <ns3:TrackPointExtension>
            <ns3:atemp>18.0</ns3:atemp>
          </ns3:TrackPointExtension>
        </extensions>
      </trkpt>
      <trkpt lat="42.58257329463958740234375" lon="20.087048895657062530517578125">
        <ele>2186.199951171875</ele>
        <time>2026-06-15T09:55:34.000Z</time>
        <extensions>
          <ns3:TrackPointExtension>
            <ns3:atemp>18.0</ns3:atemp>
          </ns3:TrackPointExtension>
        </extensions>
      </trkpt>
      <trkpt lat="42.5825332291424274444580078125" lon="20.08707127533853054046630859375">
        <ele>2186.39990234375</ele>
        <time>2026-06-15T09:55:35.000Z</time>
        <extensions>
          <ns3:TrackPointExtension>
            <ns3:atemp>18.0</ns3:atemp>
          </ns3:TrackPointExtension>
        </extensions>
      </trkpt>
      <trkpt lat="42.58249215781688690185546875" lon="20.0870919786393642425537109375">
        <ele>2186.60009765625</ele>
        <time>2026-06-15T09:55:36.000Z</time>
        <extensions>
          <ns3:TrackPointExtension>
            <ns3:atemp>18.0</ns3:atemp>
          </ns3:TrackPointExtension>
        </extensions>
      </trkpt>
      <trkpt lat="42.58245083503425121307373046875" lon="20.087109245359897613525390625">
        <ele>2186.800048828125</ele>
        <time>2026-06-15T09:55:37.000Z</time>
        <extensions>
          <ns3:TrackPointExtension>
            <ns3:atemp>18.0</ns3:atemp>
          </ns3:TrackPointExtension>
        </extensions>
      </trkpt>
      <trkpt lat="42.58241144008934497833251953125" lon="20.08712324313819408416748046875">
        <ele>2187.199951171875</ele>
        <time>2026-06-15T09:55:38.000Z</time>
        <extensions>
          <ns3:TrackPointExtension>
            <ns3:atemp>18.0</ns3:atemp>
          </ns3:TrackPointExtension>
        </extensions>
      </trkpt>
      <trkpt lat="42.58237120695412158966064453125" lon="20.08714218623936176300048828125">
        <ele>2187.39990234375</ele>
        <time>2026-06-15T09:55:39.000Z</time>
        <extensions>
          <ns3:TrackPointExtension>
            <ns3:atemp>18.0</ns3:atemp>
          </ns3:TrackPointExtension>
        </extensions>
      </trkpt>
      <trkpt lat="42.58233382366597652435302734375" lon="20.087160207331180572509765625">
        <ele>2187.800048828125</ele>
        <time>2026-06-15T09:55:40.000Z</time>
        <extensions>
          <ns3:TrackPointExtension>
            <ns3:atemp>18.0</ns3:atemp>
          </ns3:TrackPointExtension>
        </extensions>
      </trkpt>
      <trkpt lat="42.58229727856814861297607421875" lon="20.0871798209846019744873046875">
        <ele>2188</ele>
        <time>2026-06-15T09:55:41.000Z</time>
        <extensions>
          <ns3:TrackPointExtension>
            <ns3:atemp>18.0</ns3:atemp>
          </ns3:TrackPointExtension>
        </extensions>
      </trkpt>
      <trkpt lat="42.58229727856814861297607421875" lon="20.0871798209846019744873046875">
        <ele>2188.39990234375</ele>
        <time>2026-06-15T09:55:42.000Z</time>
        <extensions>
          <ns3:TrackPointExtension>
            <ns3:atemp>18.0</ns3:atemp>
          </ns3:TrackPointExtension>
        </extensions>
      </trkpt>
      <trkpt lat="42.58222469128668308258056640625" lon="20.0872093252837657928466796875">
        <ele>2188.60009765625</ele>
        <time>2026-06-15T09:55:43.000Z</time>
        <extensions>
          <ns3:TrackPointExtension>
            <ns3:atemp>18.0</ns3:atemp>
          </ns3:TrackPointExtension>
        </extensions>
      </trkpt>
      <trkpt lat="42.5821832008659839630126953125" lon="20.08721980266273021697998046875">
        <ele>2189</ele>
        <time>2026-06-15T09:55:44.000Z</time>
        <extensions>
          <ns3:TrackPointExtension>
            <ns3:atemp>18.0</ns3:atemp>
          </ns3:TrackPointExtension>
        </extensions>
      </trkpt>
      <trkpt lat="42.58214187808334827423095703125" lon="20.0872281007468700408935546875">
        <ele>2189.199951171875</ele>
        <time>2026-06-15T09:55:45.000Z</time>
        <extensions>
          <ns3:TrackPointExtension>
            <ns3:atemp>18.0</ns3:atemp>
          </ns3:TrackPointExtension>
        </extensions>
      </trkpt>
      <trkpt lat="42.58209963329136371612548828125" lon="20.0872341357171535491943359375">
        <ele>2189.60009765625</ele>
        <time>2026-06-15T09:55:46.000Z</time>
        <extensions>
          <ns3:TrackPointExtension>
            <ns3:atemp>18.0</ns3:atemp>
          </ns3:TrackPointExtension>
        </extensions>
      </trkpt>
      <trkpt lat="42.58205671794712543487548828125" lon="20.08723572827875614166259765625">
        <ele>2189.800048828125</ele>
        <time>2026-06-15T09:55:47.000Z</time>
        <extensions>
          <ns3:TrackPointExtension>
            <ns3:atemp>18.0</ns3:atemp>
          </ns3:TrackPointExtension>
        </extensions>
      </trkpt>
      <trkpt lat="42.5820142216980457305908203125" lon="20.0872363150119781494140625">
        <ele>2190</ele>
        <time>2026-06-15T09:55:48.000Z</time>
        <extensions>
          <ns3:TrackPointExtension>
            <ns3:atemp>18.0</ns3:atemp>
          </ns3:TrackPointExtension>
        </extensions>
      </trkpt>
      <trkpt lat="42.58197390474379062652587890625" lon="20.087232291698455810546875">
        <ele>2190.39990234375</ele>
        <time>2026-06-15T09:55:49.000Z</time>
        <extensions>
          <ns3:TrackPointExtension>
            <ns3:atemp>18.0</ns3:atemp>
          </ns3:TrackPointExtension>
        </extensions>
      </trkpt>
      <trkpt lat="42.581933923065662384033203125" lon="20.08722600527107715606689453125">
        <ele>2190.60009765625</ele>
        <time>2026-06-15T09:55:50.000Z</time>
        <extensions>
          <ns3:TrackPointExtension>
            <ns3:atemp>18.0</ns3:atemp>
          </ns3:TrackPointExtension>
        </extensions>
      </trkpt>
      <trkpt lat="42.58189268410205841064453125" lon="20.08721955120563507080078125">
        <ele>2190.800048828125</ele>
        <time>2026-06-15T09:55:51.000Z</time>
        <extensions>
          <ns3:TrackPointExtension>
            <ns3:atemp>18.0</ns3:atemp>
          </ns3:TrackPointExtension>
        </extensions>
      </trkpt>
      <trkpt lat="42.581850774586200714111328125" lon="20.08721309714019298553466796875">
        <ele>2191</ele>
        <time>2026-06-15T09:55:52.000Z</time>
        <extensions>
          <ns3:TrackPointExtension>
            <ns3:atemp>18.0</ns3:atemp>
          </ns3:TrackPointExtension>
        </extensions>
      </trkpt>
      <trkpt lat="42.58180693723261356353759765625" lon="20.08720739744603633880615234375">
        <ele>2191.199951171875</ele>
        <time>2026-06-15T09:55:53.000Z</time>
        <extensions>
          <ns3:TrackPointExtension>
            <ns3:atemp>18.0</ns3:atemp>
          </ns3:TrackPointExtension>
        </extensions>
      </trkpt>
      <trkpt lat="42.5817677937448024749755859375" lon="20.0871965847909450531005859375">
        <ele>2191.39990234375</ele>
        <time>2026-06-15T09:55:54.000Z</time>
        <extensions>
          <ns3:TrackPointExtension>
            <ns3:atemp>18.0</ns3:atemp>
          </ns3:TrackPointExtension>
        </extensions>
      </trkpt>
      <trkpt lat="42.58173636160790920257568359375" lon="20.0871751271188259124755859375">
        <ele>2191.60009765625</ele>
        <time>2026-06-15T09:55:55.000Z</time>
        <extensions>
          <ns3:TrackPointExtension>
            <ns3:atemp>18.0</ns3:atemp>
          </ns3:TrackPointExtension>
        </extensions>
      </trkpt>
      <trkpt lat="42.58170601911842823028564453125" lon="20.087154842913150787353515625">
        <ele>2191.60009765625</ele>
        <time>2026-06-15T09:55:56.000Z</time>
        <extensions>
          <ns3:TrackPointExtension>
            <ns3:atemp>18.0</ns3:atemp>
          </ns3:TrackPointExtension>
        </extensions>
      </trkpt>
      <trkpt lat="42.58167768828570842742919921875" lon="20.08714570663869380950927734375">
        <ele>2191.800048828125</ele>
        <time>2026-06-15T09:55:57.000Z</time>
        <extensions>
          <ns3:TrackPointExtension>
            <ns3:atemp>18.0</ns3:atemp>
          </ns3:TrackPointExtension>
        </extensions>
      </trkpt>
      <trkpt lat="42.58165396749973297119140625" lon="20.08714386261999607086181640625">
        <ele>2192</ele>
        <time>2026-06-15T09:55:58.000Z</time>
        <extensions>
          <ns3:TrackPointExtension>
            <ns3:atemp>18.0</ns3:atemp>
          </ns3:TrackPointExtension>
        </extensions>
      </trkpt>
      <trkpt lat="42.5816278159618377685546875" lon="20.0871384143829345703125">
        <ele>2192.199951171875</ele>
        <time>2026-06-15T09:55:59.000Z</time>
        <extensions>
          <ns3:TrackPointExtension>
            <ns3:atemp>18.0</ns3:atemp>
          </ns3:TrackPointExtension>
        </extensions>
      </trkpt>
      <trkpt lat="42.58160124532878398895263671875" lon="20.0871312059462070465087890625">
        <ele>2192.39990234375</ele>
        <time>2026-06-15T09:56:00.000Z</time>
        <extensions>
          <ns3:TrackPointExtension>
            <ns3:atemp>18.0</ns3:atemp>
          </ns3:TrackPointExtension>
        </extensions>
      </trkpt>
      <trkpt lat="42.581576518714427947998046875" lon="20.0871208123862743377685546875">
        <ele>2192.60009765625</ele>
        <time>2026-06-15T09:56:01.000Z</time>
        <extensions>
          <ns3:TrackPointExtension>
            <ns3:atemp>18.0</ns3:atemp>
          </ns3:TrackPointExtension>
        </extensions>
      </trkpt>
      <trkpt lat="42.58155606687068939208984375" lon="20.08710849098861217498779296875">
        <ele>2193</ele>
        <time>2026-06-15T09:56:02.000Z</time>
        <extensions>
          <ns3:TrackPointExtension>
            <ns3:atemp>18.0</ns3:atemp>
          </ns3:TrackPointExtension>
        </extensions>
      </trkpt>
      <trkpt lat="42.58155606687068939208984375" lon="20.08710849098861217498779296875">
        <ele>2193</ele>
        <time>2026-06-15T09:56:03.000Z</time>
        <extensions>
          <ns3:TrackPointExtension>
            <ns3:atemp>18.0</ns3:atemp>
          </ns3:TrackPointExtension>
        </extensions>
      </trkpt>
      <trkpt lat="42.58154156617820262908935546875" lon="20.08709482848644256591796875">
        <ele>2193.199951171875</ele>
        <time>2026-06-15T09:56:04.000Z</time>
        <extensions>
          <ns3:TrackPointExtension>
            <ns3:atemp>18.0</ns3:atemp>
          </ns3:TrackPointExtension>
        </extensions>
      </trkpt>
      <trkpt lat="42.5815146602690219879150390625" lon="20.0870886258780956268310546875">
        <ele>2193.39990234375</ele>
        <time>2026-06-15T09:56:05.000Z</time>
        <extensions>
          <ns3:TrackPointExtension>
            <ns3:atemp>18.0</ns3:atemp>
          </ns3:TrackPointExtension>
        </extensions>
      </trkpt>
      <trkpt lat="42.5815009139478206634521484375" lon="20.087085776031017303466796875">
        <ele>2193.60009765625</ele>
        <time>2026-06-15T09:56:06.000Z</time>
        <extensions>
          <ns3:TrackPointExtension>
            <ns3:atemp>18.0</ns3:atemp>
          </ns3:TrackPointExtension>
        </extensions>
      </trkpt>
      <trkpt lat="42.5815009139478206634521484375" lon="20.087085776031017303466796875">
        <ele>2193.800048828125</ele>
        <time>2026-06-15T09:56:07.000Z</time>
        <extensions>
          <ns3:TrackPointExtension>
            <ns3:atemp>18.0</ns3:atemp>
          </ns3:TrackPointExtension>
        </extensions>
      </trkpt>
      <trkpt lat="42.5814660452306270599365234375" lon="20.08706800639629364013671875">
        <ele>2194</ele>
        <time>2026-06-15T09:56:08.000Z</time>
        <extensions>
          <ns3:TrackPointExtension>
            <ns3:atemp>18.0</ns3:atemp>
          </ns3:TrackPointExtension>
        </extensions>
      </trkpt>
      <trkpt lat="42.5814476050436496734619140625" lon="20.08705191314220428466796875">
        <ele>2194.199951171875</ele>
        <time>2026-06-15T09:56:09.000Z</time>
        <extensions>
          <ns3:TrackPointExtension>
            <ns3:atemp>18.0</ns3:atemp>
          </ns3:TrackPointExtension>
        </extensions>
      </trkpt>
      <trkpt lat="42.5814328528940677642822265625" lon="20.0870289467275142669677734375">
        <ele>2194.199951171875</ele>
        <time>2026-06-15T09:56:10.000Z</time>
        <extensions>
          <ns3:TrackPointExtension>
            <ns3:atemp>18.0</ns3:atemp>
          </ns3:TrackPointExtension>
        </extensions>
      </trkpt>
      <trkpt lat="42.5814217887818813323974609375" lon="20.08700371719896793365478515625">
        <ele>2194</ele>
        <time>2026-06-15T09:56:11.000Z</time>
        <extensions>
          <ns3:TrackPointExtension>
            <ns3:atemp>18.0</ns3:atemp>
          </ns3:TrackPointExtension>
        </extensions>
      </trkpt>
      <trkpt lat="42.5814107246696949005126953125" lon="20.08697706274688243865966796875">
        <ele>2193.60009765625</ele>
        <time>2026-06-15T09:56:12.000Z</time>
        <extensions>
          <ns3:TrackPointExtension>
            <ns3:atemp>18.0</ns3:atemp>
          </ns3:TrackPointExtension>
        </extensions>
      </trkpt>
      <trkpt lat="42.581402175128459930419921875" lon="20.0869585387408733367919921875">
        <ele>2193.39990234375</ele>
        <time>2026-06-15T09:56:13.000Z</time>
        <extensions>
          <ns3:TrackPointExtension>
            <ns3:atemp>18.0</ns3:atemp>
          </ns3:TrackPointExtension>
        </extensions>
      </trkpt>
      <trkpt lat="42.581402175128459930419921875" lon="20.0869585387408733367919921875">
        <ele>2193.199951171875</ele>
        <time>2026-06-15T09:56:14.000Z</time>
        <extensions>
          <ns3:TrackPointExtension>
            <ns3:atemp>18.0</ns3:atemp>
          </ns3:TrackPointExtension>
        </extensions>
      </trkpt>
      <trkpt lat="42.5814043544232845306396484375" lon="20.08694957010447978973388671875">
        <ele>2193</ele>
        <time>2026-06-15T09:56:15.000Z</time>
        <extensions>
          <ns3:TrackPointExtension>
            <ns3:atemp>18.0</ns3:atemp>
          </ns3:TrackPointExtension>
        </extensions>
      </trkpt>
      <trkpt lat="42.58140452206134796142578125" lon="20.0869518332183361053466796875">
        <ele>2193</ele>
        <time>2026-06-15T09:56:16.000Z</time>
        <extensions>
          <ns3:TrackPointExtension>
            <ns3:atemp>18.0</ns3:atemp>
          </ns3:TrackPointExtension>
        </extensions>
      </trkpt>
      <trkpt lat="42.5814016722142696380615234375" lon="20.0869447924196720123291015625">
        <ele>2193</ele>
        <time>2026-06-15T09:56:17.000Z</time>
        <extensions>
          <ns3:TrackPointExtension>
            <ns3:atemp>18.0</ns3:atemp>
          </ns3:TrackPointExtension>
        </extensions>
      </trkpt>
      <trkpt lat="42.5813986547291278839111328125" lon="20.0869374163448810577392578125">
        <ele>2193</ele>
        <time>2026-06-15T09:56:18.000Z</time>
        <extensions>
          <ns3:TrackPointExtension>
            <ns3:atemp>18.0</ns3:atemp>
          </ns3:TrackPointExtension>
        </extensions>
      </trkpt>
      <trkpt lat="42.5813986547291278839111328125" lon="20.0869374163448810577392578125">
        <ele>2193.199951171875</ele>
        <time>2026-06-15T09:56:19.000Z</time>
        <extensions>
          <ns3:TrackPointExtension>
            <ns3:atemp>18.0</ns3:atemp>
          </ns3:TrackPointExtension>
        </extensions>
      </trkpt>
      <trkpt lat="42.5813986547291278839111328125" lon="20.0869374163448810577392578125">
        <ele>2193.199951171875</ele>
        <time>2026-06-15T09:56:20.000Z</time>
        <extensions>
          <ns3:TrackPointExtension>
            <ns3:atemp>18.0</ns3:atemp>
          </ns3:TrackPointExtension>
        </extensions>
      </trkpt>
      <trkpt lat="42.5813986547291278839111328125" lon="20.0869374163448810577392578125">
        <ele>2193.199951171875</ele>
        <time>2026-06-15T09:56:21.000Z</time>
        <extensions>
          <ns3:TrackPointExtension>
            <ns3:atemp>18.0</ns3:atemp>
          </ns3:TrackPointExtension>
        </extensions>
      </trkpt>
      <trkpt lat="42.5813986547291278839111328125" lon="20.0869374163448810577392578125">
        <ele>2193.199951171875</ele>
        <time>2026-06-15T09:56:22.000Z</time>
        <extensions>
          <ns3:TrackPointExtension>
            <ns3:atemp>18.0</ns3:atemp>
          </ns3:TrackPointExtension>
        </extensions>
      </trkpt>
      <trkpt lat="42.5813986547291278839111328125" lon="20.0869374163448810577392578125">
        <ele>2193.199951171875</ele>
        <time>2026-06-15T09:56:23.000Z</time>
        <extensions>
          <ns3:TrackPointExtension>
            <ns3:atemp>18.0</ns3:atemp>
          </ns3:TrackPointExtension>
        </extensions>
      </trkpt>
      <trkpt lat="42.5813986547291278839111328125" lon="20.0869374163448810577392578125">
        <ele>2193.199951171875</ele>
        <time>2026-06-15T09:56:24.000Z</time>
        <extensions>
          <ns3:TrackPointExtension>
            <ns3:atemp>18.0</ns3:atemp>
          </ns3:TrackPointExtension>
        </extensions>
      </trkpt>
      <trkpt lat="42.5813986547291278839111328125" lon="20.0869374163448810577392578125">
        <ele>2193</ele>
        <time>2026-06-15T09:56:25.000Z</time>
        <extensions>
          <ns3:TrackPointExtension>
            <ns3:atemp>18.0</ns3:atemp>
          </ns3:TrackPointExtension>
        </extensions>
      </trkpt>
      <trkpt lat="42.5813986547291278839111328125" lon="20.0869374163448810577392578125">
        <ele>2193</ele>
        <time>2026-06-15T09:56:26.000Z</time>
        <extensions>
          <ns3:TrackPointExtension>
            <ns3:atemp>18.0</ns3:atemp>
          </ns3:TrackPointExtension>
        </extensions>
      </trkpt>
      <trkpt lat="42.5813986547291278839111328125" lon="20.0869374163448810577392578125">
        <ele>2192.800048828125</ele>
        <time>2026-06-15T09:56:27.000Z</time>
        <extensions>
          <ns3:TrackPointExtension>
            <ns3:atemp>18.0</ns3:atemp>
          </ns3:TrackPointExtension>
        </extensions>
      </trkpt>
      <trkpt lat="42.5813986547291278839111328125" lon="20.0869374163448810577392578125">
        <ele>2192.800048828125</ele>
        <time>2026-06-15T09:56:28.000Z</time>
        <extensions>
          <ns3:TrackPointExtension>
            <ns3:atemp>18.0</ns3:atemp>
          </ns3:TrackPointExtension>
        </extensions>
      </trkpt>
      <trkpt lat="42.5813986547291278839111328125" lon="20.0869374163448810577392578125">
        <ele>2192.800048828125</ele>
        <time>2026-06-15T09:56:29.000Z</time>
        <extensions>
          <ns3:TrackPointExtension>
            <ns3:atemp>18.0</ns3:atemp>
          </ns3:TrackPointExtension>
        </extensions>
      </trkpt>
      <trkpt lat="42.5813986547291278839111328125" lon="20.0869374163448810577392578125">
        <ele>2192.800048828125</ele>
        <time>2026-06-15T09:56:30.000Z</time>
        <extensions>
          <ns3:TrackPointExtension>
            <ns3:atemp>18.0</ns3:atemp>
          </ns3:TrackPointExtension>
        </extensions>
      </trkpt>
      <trkpt lat="42.5813986547291278839111328125" lon="20.0869374163448810577392578125">
        <ele>2192.800048828125</ele>
        <time>2026-06-15T09:56:31.000Z</time>
        <extensions>
          <ns3:TrackPointExtension>
            <ns3:atemp>18.0</ns3:atemp>
          </ns3:TrackPointExtension>
        </extensions>
      </trkpt>
      <trkpt lat="42.5813986547291278839111328125" lon="20.0869374163448810577392578125">
        <ele>2192.60009765625</ele>
        <time>2026-06-15T09:56:32.000Z</time>
        <extensions>
          <ns3:TrackPointExtension>
            <ns3:atemp>18.0</ns3:atemp>
          </ns3:TrackPointExtension>
        </extensions>
      </trkpt>
      <trkpt lat="42.5813986547291278839111328125" lon="20.0869374163448810577392578125">
        <ele>2192.60009765625</ele>
        <time>2026-06-15T09:56:33.000Z</time>
        <extensions>
          <ns3:TrackPointExtension>
            <ns3:atemp>18.0</ns3:atemp>
          </ns3:TrackPointExtension>
        </extensions>
      </trkpt>
      <trkpt lat="42.5813986547291278839111328125" lon="20.0869374163448810577392578125">
        <ele>2192.60009765625</ele>
        <time>2026-06-15T09:56:34.000Z</time>
        <extensions>
          <ns3:TrackPointExtension>
            <ns3:atemp>18.0</ns3:atemp>
          </ns3:TrackPointExtension>
        </extensions>
      </trkpt>
      <trkpt lat="42.5813986547291278839111328125" lon="20.0869374163448810577392578125">
        <ele>2192.60009765625</ele>
        <time>2026-06-15T09:56:35.000Z</time>
        <extensions>
          <ns3:TrackPointExtension>
            <ns3:atemp>18.0</ns3:atemp>
          </ns3:TrackPointExtension>
        </extensions>
      </trkpt>
      <trkpt lat="42.5813986547291278839111328125" lon="20.0869374163448810577392578125">
        <ele>2192.800048828125</ele>
        <time>2026-06-15T09:56:36.000Z</time>
        <extensions>
          <ns3:TrackPointExtension>
            <ns3:atemp>18.0</ns3:atemp>
          </ns3:TrackPointExtension>
        </extensions>
      </trkpt>
      <trkpt lat="42.5813986547291278839111328125" lon="20.0869374163448810577392578125">
        <ele>2193</ele>
        <time>2026-06-15T09:56:37.000Z</time>
        <extensions>
          <ns3:TrackPointExtension>
            <ns3:atemp>18.0</ns3:atemp>
          </ns3:TrackPointExtension>
        </extensions>
      </trkpt>
      <trkpt lat="42.5813986547291278839111328125" lon="20.0869374163448810577392578125">
        <ele>2193</ele>
        <time>2026-06-15T09:56:38.000Z</time>
        <extensions>
          <ns3:TrackPointExtension>
            <ns3:atemp>18.0</ns3:atemp>
          </ns3:TrackPointExtension>
        </extensions>
      </trkpt>
      <trkpt lat="42.5813986547291278839111328125" lon="20.0869374163448810577392578125">
        <ele>2193.199951171875</ele>
        <time>2026-06-15T09:56:39.000Z</time>
        <extensions>
          <ns3:TrackPointExtension>
            <ns3:atemp>18.0</ns3:atemp>
          </ns3:TrackPointExtension>
        </extensions>
      </trkpt>
      <trkpt lat="42.5813986547291278839111328125" lon="20.0869374163448810577392578125">
        <ele>2193.199951171875</ele>
        <time>2026-06-15T09:56:40.000Z</time>
        <extensions>
          <ns3:TrackPointExtension>
            <ns3:atemp>18.0</ns3:atemp>
          </ns3:TrackPointExtension>
        </extensions>
      </trkpt>
      <trkpt lat="42.5813986547291278839111328125" lon="20.0869374163448810577392578125">
        <ele>2193.199951171875</ele>
        <time>2026-06-15T09:56:41.000Z</time>
        <extensions>
          <ns3:TrackPointExtension>
            <ns3:atemp>18.0</ns3:atemp>
          </ns3:TrackPointExtension>
        </extensions>
      </trkpt>
      <trkpt lat="42.5813986547291278839111328125" lon="20.0869374163448810577392578125">
        <ele>2193</ele>
        <time>2026-06-15T09:56:42.000Z</time>
        <extensions>
          <ns3:TrackPointExtension>
            <ns3:atemp>18.0</ns3:atemp>
          </ns3:TrackPointExtension>
        </extensions>
      </trkpt>
      <trkpt lat="42.5813986547291278839111328125" lon="20.0869374163448810577392578125">
        <ele>2193</ele>
        <time>2026-06-15T09:56:43.000Z</time>
        <extensions>
          <ns3:TrackPointExtension>
            <ns3:atemp>18.0</ns3:atemp>
          </ns3:TrackPointExtension>
        </extensions>
      </trkpt>
      <trkpt lat="42.5813986547291278839111328125" lon="20.0869374163448810577392578125">
        <ele>2192.800048828125</ele>
        <time>2026-06-15T09:56:44.000Z</time>
        <extensions>
          <ns3:TrackPointExtension>
            <ns3:atemp>18.0</ns3:atemp>
          </ns3:TrackPointExtension>
        </extensions>
      </trkpt>
      <trkpt lat="42.5813986547291278839111328125" lon="20.0869374163448810577392578125">
        <ele>2192.60009765625</ele>
        <time>2026-06-15T09:56:45.000Z</time>
        <extensions>
          <ns3:TrackPointExtension>
            <ns3:atemp>18.0</ns3:atemp>
          </ns3:TrackPointExtension>
        </extensions>
      </trkpt>
      <trkpt lat="42.5813986547291278839111328125" lon="20.0869374163448810577392578125">
        <ele>2192.39990234375</ele>
        <time>2026-06-15T09:56:46.000Z</time>
        <extensions>
          <ns3:TrackPointExtension>
            <ns3:atemp>18.0</ns3:atemp>
          </ns3:TrackPointExtension>
        </extensions>
      </trkpt>
      <trkpt lat="42.5813986547291278839111328125" lon="20.0869374163448810577392578125">
        <ele>2192.39990234375</ele>
        <time>2026-06-15T09:56:47.000Z</time>
        <extensions>
          <ns3:TrackPointExtension>
            <ns3:atemp>18.0</ns3:atemp>
          </ns3:TrackPointExtension>
        </extensions>
      </trkpt>
      <trkpt lat="42.5813986547291278839111328125" lon="20.0869374163448810577392578125">
        <ele>2192.199951171875</ele>
        <time>2026-06-15T09:56:48.000Z</time>
        <extensions>
          <ns3:TrackPointExtension>
            <ns3:atemp>18.0</ns3:atemp>
          </ns3:TrackPointExtension>
        </extensions>
      </trkpt>
      <trkpt lat="42.5813986547291278839111328125" lon="20.0869374163448810577392578125">
        <ele>2192.199951171875</ele>
        <time>2026-06-15T09:56:49.000Z</time>
        <extensions>
          <ns3:TrackPointExtension>
            <ns3:atemp>18.0</ns3:atemp>
          </ns3:TrackPointExtension>
        </extensions>
      </trkpt>
      <trkpt lat="42.5813986547291278839111328125" lon="20.0869374163448810577392578125">
        <ele>2192.199951171875</ele>
        <time>2026-06-15T09:56:50.000Z</time>
        <extensions>
          <ns3:TrackPointExtension>
            <ns3:atemp>17.0</ns3:atemp>
          </ns3:TrackPointExtension>
        </extensions>
      </trkpt>
      <trkpt lat="42.5813986547291278839111328125" lon="20.0869374163448810577392578125">
        <ele>2192.39990234375</ele>
        <time>2026-06-15T09:56:51.000Z</time>
        <extensions>
          <ns3:TrackPointExtension>
            <ns3:atemp>17.0</ns3:atemp>
          </ns3:TrackPointExtension>
        </extensions>
      </trkpt>
      <trkpt lat="42.5813969783484935760498046875" lon="20.0869370810687541961669921875">
        <ele>2192.39990234375</ele>
        <time>2026-06-15T09:56:52.000Z</time>
        <extensions>
          <ns3:TrackPointExtension>
            <ns3:atemp>17.0</ns3:atemp>
          </ns3:TrackPointExtension>
        </extensions>
      </trkpt>
      <trkpt lat="42.5813916139304637908935546875" lon="20.0869323872029781341552734375">
        <ele>2192.39990234375</ele>
        <time>2026-06-15T09:56:53.000Z</time>
        <extensions>
          <ns3:TrackPointExtension>
            <ns3:atemp>17.0</ns3:atemp>
          </ns3:TrackPointExtension>
        </extensions>
      </trkpt>
      <trkpt lat="42.5813986547291278839111328125" lon="20.0869374163448810577392578125">
        <ele>2192.199951171875</ele>
        <time>2026-06-15T09:56:54.000Z</time>
        <extensions>
          <ns3:TrackPointExtension>
            <ns3:atemp>17.0</ns3:atemp>
          </ns3:TrackPointExtension>
        </extensions>
      </trkpt>
      <trkpt lat="42.5813986547291278839111328125" lon="20.0869374163448810577392578125">
        <ele>2192.199951171875</ele>
        <time>2026-06-15T09:56:55.000Z</time>
        <extensions>
          <ns3:TrackPointExtension>
            <ns3:atemp>17.0</ns3:atemp>
          </ns3:TrackPointExtension>
        </extensions>
      </trkpt>
      <trkpt lat="42.5813986547291278839111328125" lon="20.0869374163448810577392578125">
        <ele>2192.199951171875</ele>
        <time>2026-06-15T09:56:56.000Z</time>
        <extensions>
          <ns3:TrackPointExtension>
            <ns3:atemp>17.0</ns3:atemp>
          </ns3:TrackPointExtension>
        </extensions>
      </trkpt>
      <trkpt lat="42.5813986547291278839111328125" lon="20.0869374163448810577392578125">
        <ele>2192.199951171875</ele>
        <time>2026-06-15T09:56:57.000Z</time>
        <extensions>
          <ns3:TrackPointExtension>
            <ns3:atemp>17.0</ns3:atemp>
          </ns3:TrackPointExtension>
        </extensions>
      </trkpt>
      <trkpt lat="42.5813986547291278839111328125" lon="20.0869374163448810577392578125">
        <ele>2192.39990234375</ele>
        <time>2026-06-15T09:56:58.000Z</time>
        <extensions>
          <ns3:TrackPointExtension>
            <ns3:atemp>17.0</ns3:atemp>
          </ns3:TrackPointExtension>
        </extensions>
      </trkpt>
      <trkpt lat="42.5813986547291278839111328125" lon="20.0869374163448810577392578125">
        <ele>2192.39990234375</ele>
        <time>2026-06-15T09:56:59.000Z</time>
        <extensions>
          <ns3:TrackPointExtension>
            <ns3:atemp>17.0</ns3:atemp>
          </ns3:TrackPointExtension>
        </extensions>
      </trkpt>
      <trkpt lat="42.5813986547291278839111328125" lon="20.0869374163448810577392578125">
        <ele>2192.60009765625</ele>
        <time>2026-06-15T09:57:00.000Z</time>
        <extensions>
          <ns3:TrackPointExtension>
            <ns3:atemp>17.0</ns3:atemp>
          </ns3:TrackPointExtension>
        </extensions>
      </trkpt>
      <trkpt lat="42.5813986547291278839111328125" lon="20.0869374163448810577392578125">
        <ele>2192.60009765625</ele>
        <time>2026-06-15T09:57:01.000Z</time>
        <extensions>
          <ns3:TrackPointExtension>
            <ns3:atemp>17.0</ns3:atemp>
          </ns3:TrackPointExtension>
        </extensions>
      </trkpt>
      <trkpt lat="42.5813986547291278839111328125" lon="20.0869374163448810577392578125">
        <ele>2192.60009765625</ele>
        <time>2026-06-15T09:57:02.000Z</time>
        <extensions>
          <ns3:TrackPointExtension>
            <ns3:atemp>17.0</ns3:atemp>
          </ns3:TrackPointExtension>
        </extensions>
      </trkpt>
      <trkpt lat="42.5813986547291278839111328125" lon="20.0869374163448810577392578125">
        <ele>2192.60009765625</ele>
        <time>2026-06-15T09:57:03.000Z</time>
        <extensions>
          <ns3:TrackPointExtension>
            <ns3:atemp>17.0</ns3:atemp>
          </ns3:TrackPointExtension>
        </extensions>
      </trkpt>
      <trkpt lat="42.5813986547291278839111328125" lon="20.0869374163448810577392578125">
        <ele>2192.60009765625</ele>
        <time>2026-06-15T09:57:04.000Z</time>
        <extensions>
          <ns3:TrackPointExtension>
            <ns3:atemp>17.0</ns3:atemp>
          </ns3:TrackPointExtension>
        </extensions>
      </trkpt>
      <trkpt lat="42.5813986547291278839111328125" lon="20.0869374163448810577392578125">
        <ele>2192.60009765625</ele>
        <time>2026-06-15T09:57:05.000Z</time>
        <extensions>
          <ns3:TrackPointExtension>
            <ns3:atemp>17.0</ns3:atemp>
          </ns3:TrackPointExtension>
        </extensions>
      </trkpt>
      <trkpt lat="42.5813986547291278839111328125" lon="20.0869374163448810577392578125">
        <ele>2192.60009765625</ele>
        <time>2026-06-15T09:57:06.000Z</time>
        <extensions>
          <ns3:TrackPointExtension>
            <ns3:atemp>17.0</ns3:atemp>
          </ns3:TrackPointExtension>
        </extensions>
      </trkpt>
      <trkpt lat="42.5813986547291278839111328125" lon="20.0869374163448810577392578125">
        <ele>2192.39990234375</ele>
        <time>2026-06-15T09:57:07.000Z</time>
        <extensions>
          <ns3:TrackPointExtension>
            <ns3:atemp>17.0</ns3:atemp>
          </ns3:TrackPointExtension>
        </extensions>
      </trkpt>
      <trkpt lat="42.5813986547291278839111328125" lon="20.0869374163448810577392578125">
        <ele>2192.39990234375</ele>
        <time>2026-06-15T09:57:08.000Z</time>
        <extensions>
          <ns3:TrackPointExtension>
            <ns3:atemp>17.0</ns3:atemp>
          </ns3:TrackPointExtension>
        </extensions>
      </trkpt>
      <trkpt lat="42.58138918317854404449462890625" lon="20.0869273580610752105712890625">
        <ele>2192.39990234375</ele>
        <time>2026-06-15T09:57:09.000Z</time>
        <extensions>
          <ns3:TrackPointExtension>
            <ns3:atemp>17.0</ns3:atemp>
          </ns3:TrackPointExtension>
        </extensions>
      </trkpt>
      <trkpt lat="42.58138868026435375213623046875" lon="20.08691067807376384735107421875">
        <ele>2192.199951171875</ele>
        <time>2026-06-15T09:57:10.000Z</time>
        <extensions>
          <ns3:TrackPointExtension>
            <ns3:atemp>17.0</ns3:atemp>
          </ns3:TrackPointExtension>
        </extensions>
      </trkpt>
      <trkpt lat="42.58138968609273433685302734375" lon="20.08690983988344669342041015625">
        <ele>2192.199951171875</ele>
        <time>2026-06-15T09:57:11.000Z</time>
        <extensions>
          <ns3:TrackPointExtension>
            <ns3:atemp>17.0</ns3:atemp>
          </ns3:TrackPointExtension>
        </extensions>
      </trkpt>
      <trkpt lat="42.58138968609273433685302734375" lon="20.08690983988344669342041015625">
        <ele>2192</ele>
        <time>2026-06-15T09:57:12.000Z</time>
        <extensions>
          <ns3:TrackPointExtension>
            <ns3:atemp>17.0</ns3:atemp>
          </ns3:TrackPointExtension>
        </extensions>
      </trkpt>
      <trkpt lat="42.58138968609273433685302734375" lon="20.08690983988344669342041015625">
        <ele>2192</ele>
        <time>2026-06-15T09:57:13.000Z</time>
        <extensions>
          <ns3:TrackPointExtension>
            <ns3:atemp>17.0</ns3:atemp>
          </ns3:TrackPointExtension>
        </extensions>
      </trkpt>
      <trkpt lat="42.58138968609273433685302734375" lon="20.08690983988344669342041015625">
        <ele>2192</ele>
        <time>2026-06-15T09:57:14.000Z</time>
        <extensions>
          <ns3:TrackPointExtension>
            <ns3:atemp>17.0</ns3:atemp>
          </ns3:TrackPointExtension>
        </extensions>
      </trkpt>
      <trkpt lat="42.58138968609273433685302734375" lon="20.08690983988344669342041015625">
        <ele>2192</ele>
        <time>2026-06-15T09:57:15.000Z</time>
        <extensions>
          <ns3:TrackPointExtension>
            <ns3:atemp>17.0</ns3:atemp>
          </ns3:TrackPointExtension>
        </extensions>
      </trkpt>
      <trkpt lat="42.58138968609273433685302734375" lon="20.08690983988344669342041015625">
        <ele>2192</ele>
        <time>2026-06-15T09:57:16.000Z</time>
        <extensions>
          <ns3:TrackPointExtension>
            <ns3:atemp>17.0</ns3:atemp>
          </ns3:TrackPointExtension>
        </extensions>
      </trkpt>
      <trkpt lat="42.58138968609273433685302734375" lon="20.08690983988344669342041015625">
        <ele>2192</ele>
        <time>2026-06-15T09:57:17.000Z</time>
        <extensions>
          <ns3:TrackPointExtension>
            <ns3:atemp>17.0</ns3:atemp>
          </ns3:TrackPointExtension>
        </extensions>
      </trkpt>
      <trkpt lat="42.58138968609273433685302734375" lon="20.08690983988344669342041015625">
        <ele>2191.800048828125</ele>
        <time>2026-06-15T09:57:18.000Z</time>
        <extensions>
          <ns3:TrackPointExtension>
            <ns3:atemp>17.0</ns3:atemp>
          </ns3:TrackPointExtension>
        </extensions>
      </trkpt>
      <trkpt lat="42.58138968609273433685302734375" lon="20.08690983988344669342041015625">
        <ele>2191.800048828125</ele>
        <time>2026-06-15T09:57:19.000Z</time>
        <extensions>
          <ns3:TrackPointExtension>
            <ns3:atemp>17.0</ns3:atemp>
          </ns3:TrackPointExtension>
        </extensions>
      </trkpt>
      <trkpt lat="42.58138968609273433685302734375" lon="20.08690983988344669342041015625">
        <ele>2191.800048828125</ele>
        <time>2026-06-15T09:57:20.000Z</time>
        <extensions>
          <ns3:TrackPointExtension>
            <ns3:atemp>17.0</ns3:atemp>
          </ns3:TrackPointExtension>
        </extensions>
      </trkpt>
      <trkpt lat="42.58138968609273433685302734375" lon="20.08690983988344669342041015625">
        <ele>2192</ele>
        <time>2026-06-15T09:57:21.000Z</time>
        <extensions>
          <ns3:TrackPointExtension>
            <ns3:atemp>17.0</ns3:atemp>
          </ns3:TrackPointExtension>
        </extensions>
      </trkpt>
      <trkpt lat="42.58138968609273433685302734375" lon="20.08690983988344669342041015625">
        <ele>2192</ele>
        <time>2026-06-15T09:57:22.000Z</time>
        <extensions>
          <ns3:TrackPointExtension>
            <ns3:atemp>17.0</ns3:atemp>
          </ns3:TrackPointExtension>
        </extensions>
      </trkpt>
      <trkpt lat="42.58138968609273433685302734375" lon="20.08690983988344669342041015625">
        <ele>2192</ele>
        <time>2026-06-15T09:57:23.000Z</time>
        <extensions>
          <ns3:TrackPointExtension>
            <ns3:atemp>17.0</ns3:atemp>
          </ns3:TrackPointExtension>
        </extensions>
      </trkpt>
      <trkpt lat="42.58138968609273433685302734375" lon="20.08690983988344669342041015625">
        <ele>2192.199951171875</ele>
        <time>2026-06-15T09:57:24.000Z</time>
        <extensions>
          <ns3:TrackPointExtension>
            <ns3:atemp>17.0</ns3:atemp>
          </ns3:TrackPointExtension>
        </extensions>
      </trkpt>
      <trkpt lat="42.58138968609273433685302734375" lon="20.08690983988344669342041015625">
        <ele>2192.199951171875</ele>
        <time>2026-06-15T09:57:25.000Z</time>
        <extensions>
          <ns3:TrackPointExtension>
            <ns3:atemp>17.0</ns3:atemp>
          </ns3:TrackPointExtension>
        </extensions>
      </trkpt>
      <trkpt lat="42.58138968609273433685302734375" lon="20.08690983988344669342041015625">
        <ele>2192.39990234375</ele>
        <time>2026-06-15T09:57:26.000Z</time>
        <extensions>
          <ns3:TrackPointExtension>
            <ns3:atemp>17.0</ns3:atemp>
          </ns3:TrackPointExtension>
        </extensions>
      </trkpt>
      <trkpt lat="42.58138968609273433685302734375" lon="20.08690983988344669342041015625">
        <ele>2192.39990234375</ele>
        <time>2026-06-15T09:57:27.000Z</time>
        <extensions>
          <ns3:TrackPointExtension>
            <ns3:atemp>17.0</ns3:atemp>
          </ns3:TrackPointExtension>
        </extensions>
      </trkpt>
      <trkpt lat="42.58138968609273433685302734375" lon="20.08690983988344669342041015625">
        <ele>2192.39990234375</ele>
        <time>2026-06-15T09:57:28.000Z</time>
        <extensions>
          <ns3:TrackPointExtension>
            <ns3:atemp>17.0</ns3:atemp>
          </ns3:TrackPointExtension>
        </extensions>
      </trkpt>
      <trkpt lat="42.58138968609273433685302734375" lon="20.08690983988344669342041015625">
        <ele>2192.39990234375</ele>
        <time>2026-06-15T09:57:29.000Z</time>
        <extensions>
          <ns3:TrackPointExtension>
            <ns3:atemp>17.0</ns3:atemp>
          </ns3:TrackPointExtension>
        </extensions>
      </trkpt>
      <trkpt lat="42.58138968609273433685302734375" lon="20.08690983988344669342041015625">
        <ele>2192.39990234375</ele>
        <time>2026-06-15T09:57:30.000Z</time>
        <extensions>
          <ns3:TrackPointExtension>
            <ns3:atemp>17.0</ns3:atemp>
          </ns3:TrackPointExtension>
        </extensions>
      </trkpt>
      <trkpt lat="42.58138968609273433685302734375" lon="20.08690983988344669342041015625">
        <ele>2192.39990234375</ele>
        <time>2026-06-15T09:57:31.000Z</time>
        <extensions>
          <ns3:TrackPointExtension>
            <ns3:atemp>17.0</ns3:atemp>
          </ns3:TrackPointExtension>
        </extensions>
      </trkpt>
      <trkpt lat="42.58138968609273433685302734375" lon="20.08690983988344669342041015625">
        <ele>2192.39990234375</ele>
        <time>2026-06-15T09:57:32.000Z</time>
        <extensions>
          <ns3:TrackPointExtension>
            <ns3:atemp>17.0</ns3:atemp>
          </ns3:TrackPointExtension>
        </extensions>
      </trkpt>
      <trkpt lat="42.58138968609273433685302734375" lon="20.08690983988344669342041015625">
        <ele>2192.39990234375</ele>
        <time>2026-06-15T09:57:33.000Z</time>
        <extensions>
          <ns3:TrackPointExtension>
            <ns3:atemp>17.0</ns3:atemp>
          </ns3:TrackPointExtension>
        </extensions>
      </trkpt>
      <trkpt lat="42.58138968609273433685302734375" lon="20.08690983988344669342041015625">
        <ele>2192.199951171875</ele>
        <time>2026-06-15T09:57:34.000Z</time>
        <extensions>
          <ns3:TrackPointExtension>
            <ns3:atemp>17.0</ns3:atemp>
          </ns3:TrackPointExtension>
        </extensions>
      </trkpt>
      <trkpt lat="42.58138968609273433685302734375" lon="20.08690983988344669342041015625">
        <ele>2192.199951171875</ele>
        <time>2026-06-15T09:57:35.000Z</time>
        <extensions>
          <ns3:TrackPointExtension>
            <ns3:atemp>17.0</ns3:atemp>
          </ns3:TrackPointExtension>
        </extensions>
      </trkpt>
      <trkpt lat="42.58138968609273433685302734375" lon="20.08690983988344669342041015625">
        <ele>2192.199951171875</ele>
        <time>2026-06-15T09:57:36.000Z</time>
        <extensions>
          <ns3:TrackPointExtension>
            <ns3:atemp>17.0</ns3:atemp>
          </ns3:TrackPointExtension>
        </extensions>
      </trkpt>
      <trkpt lat="42.58138968609273433685302734375" lon="20.08690983988344669342041015625">
        <ele>2192.39990234375</ele>
        <time>2026-06-15T09:57:37.000Z</time>
        <extensions>
          <ns3:TrackPointExtension>
            <ns3:atemp>17.0</ns3:atemp>
          </ns3:TrackPointExtension>
        </extensions>
      </trkpt>
      <trkpt lat="42.58138968609273433685302734375" lon="20.08690983988344669342041015625">
        <ele>2192.39990234375</ele>
        <time>2026-06-15T09:57:38.000Z</time>
        <extensions>
          <ns3:TrackPointExtension>
            <ns3:atemp>17.0</ns3:atemp>
          </ns3:TrackPointExtension>
        </extensions>
      </trkpt>
      <trkpt lat="42.58138968609273433685302734375" lon="20.08690983988344669342041015625">
        <ele>2192.39990234375</ele>
        <time>2026-06-15T09:57:39.000Z</time>
        <extensions>
          <ns3:TrackPointExtension>
            <ns3:atemp>17.0</ns3:atemp>
          </ns3:TrackPointExtension>
        </extensions>
      </trkpt>
      <trkpt lat="42.58138968609273433685302734375" lon="20.08690983988344669342041015625">
        <ele>2192.39990234375</ele>
        <time>2026-06-15T09:57:40.000Z</time>
        <extensions>
          <ns3:TrackPointExtension>
            <ns3:atemp>17.0</ns3:atemp>
          </ns3:TrackPointExtension>
        </extensions>
      </trkpt>
      <trkpt lat="42.58138968609273433685302734375" lon="20.08690983988344669342041015625">
        <ele>2192.199951171875</ele>
        <time>2026-06-15T09:57:41.000Z</time>
        <extensions>
          <ns3:TrackPointExtension>
            <ns3:atemp>17.0</ns3:atemp>
          </ns3:TrackPointExtension>
        </extensions>
      </trkpt>
      <trkpt lat="42.58138968609273433685302734375" lon="20.08690983988344669342041015625">
        <ele>2192.199951171875</ele>
        <time>2026-06-15T09:57:42.000Z</time>
        <extensions>
          <ns3:TrackPointExtension>
            <ns3:atemp>17.0</ns3:atemp>
          </ns3:TrackPointExtension>
        </extensions>
      </trkpt>
      <trkpt lat="42.58138968609273433685302734375" lon="20.08690983988344669342041015625">
        <ele>2192</ele>
        <time>2026-06-15T09:57:43.000Z</time>
        <extensions>
          <ns3:TrackPointExtension>
            <ns3:atemp>17.0</ns3:atemp>
          </ns3:TrackPointExtension>
        </extensions>
      </trkpt>
      <trkpt lat="42.58138968609273433685302734375" lon="20.08690983988344669342041015625">
        <ele>2192</ele>
        <time>2026-06-15T09:57:44.000Z</time>
        <extensions>
          <ns3:TrackPointExtension>
            <ns3:atemp>17.0</ns3:atemp>
          </ns3:TrackPointExtension>
        </extensions>
      </trkpt>
      <trkpt lat="42.58138968609273433685302734375" lon="20.08690983988344669342041015625">
        <ele>2192</ele>
        <time>2026-06-15T09:57:45.000Z</time>
        <extensions>
          <ns3:TrackPointExtension>
            <ns3:atemp>17.0</ns3:atemp>
          </ns3:TrackPointExtension>
        </extensions>
      </trkpt>
      <trkpt lat="42.58138968609273433685302734375" lon="20.08690983988344669342041015625">
        <ele>2192</ele>
        <time>2026-06-15T09:57:46.000Z</time>
        <extensions>
          <ns3:TrackPointExtension>
            <ns3:atemp>17.0</ns3:atemp>
          </ns3:TrackPointExtension>
        </extensions>
      </trkpt>
      <trkpt lat="42.58138968609273433685302734375" lon="20.08690983988344669342041015625">
        <ele>2192.199951171875</ele>
        <time>2026-06-15T09:57:47.000Z</time>
        <extensions>
          <ns3:TrackPointExtension>
            <ns3:atemp>17.0</ns3:atemp>
          </ns3:TrackPointExtension>
        </extensions>
      </trkpt>
      <trkpt lat="42.58138842880725860595703125" lon="20.086909420788288116455078125">
        <ele>2192.199951171875</ele>
        <time>2026-06-15T09:57:48.000Z</time>
        <extensions>
          <ns3:TrackPointExtension>
            <ns3:atemp>17.0</ns3:atemp>
          </ns3:TrackPointExtension>
        </extensions>
      </trkpt>
      <trkpt lat="42.5813822261989116668701171875" lon="20.08690799586474895477294921875">
        <ele>2192.199951171875</ele>
        <time>2026-06-15T09:57:49.000Z</time>
        <extensions>
          <ns3:TrackPointExtension>
            <ns3:atemp>17.0</ns3:atemp>
          </ns3:TrackPointExtension>
        </extensions>
      </trkpt>
      <trkpt lat="42.58138968609273433685302734375" lon="20.08690983988344669342041015625">
        <ele>2192.199951171875</ele>
        <time>2026-06-15T09:57:50.000Z</time>
        <extensions>
          <ns3:TrackPointExtension>
            <ns3:atemp>17.0</ns3:atemp>
          </ns3:TrackPointExtension>
        </extensions>
      </trkpt>
      <trkpt lat="42.58138080127537250518798828125" lon="20.08690967224538326263427734375">
        <ele>2192.39990234375</ele>
        <time>2026-06-15T09:57:51.000Z</time>
        <extensions>
          <ns3:TrackPointExtension>
            <ns3:atemp>17.0</ns3:atemp>
          </ns3:TrackPointExtension>
        </extensions>
      </trkpt>
      <trkpt lat="42.58138968609273433685302734375" lon="20.08690983988344669342041015625">
        <ele>2192.39990234375</ele>
        <time>2026-06-15T09:57:52.000Z</time>
        <extensions>
          <ns3:TrackPointExtension>
            <ns3:atemp>17.0</ns3:atemp>
          </ns3:TrackPointExtension>
        </extensions>
      </trkpt>
      <trkpt lat="42.58138968609273433685302734375" lon="20.08690983988344669342041015625">
        <ele>2192.199951171875</ele>
        <time>2026-06-15T09:57:53.000Z</time>
        <extensions>
          <ns3:TrackPointExtension>
            <ns3:atemp>17.0</ns3:atemp>
          </ns3:TrackPointExtension>
        </extensions>
      </trkpt>
      <trkpt lat="42.58138968609273433685302734375" lon="20.08690983988344669342041015625">
        <ele>2192.199951171875</ele>
        <time>2026-06-15T09:57:54.000Z</time>
        <extensions>
          <ns3:TrackPointExtension>
            <ns3:atemp>17.0</ns3:atemp>
          </ns3:TrackPointExtension>
        </extensions>
      </trkpt>
      <trkpt lat="42.58138968609273433685302734375" lon="20.08690983988344669342041015625">
        <ele>2192</ele>
        <time>2026-06-15T09:57:55.000Z</time>
        <extensions>
          <ns3:TrackPointExtension>
            <ns3:atemp>17.0</ns3:atemp>
          </ns3:TrackPointExtension>
        </extensions>
      </trkpt>
      <trkpt lat="42.58138968609273433685302734375" lon="20.08690983988344669342041015625">
        <ele>2191.800048828125</ele>
        <time>2026-06-15T09:57:56.000Z</time>
        <extensions>
          <ns3:TrackPointExtension>
            <ns3:atemp>17.0</ns3:atemp>
          </ns3:TrackPointExtension>
        </extensions>
      </trkpt>
      <trkpt lat="42.58138968609273433685302734375" lon="20.08690983988344669342041015625">
        <ele>2191.800048828125</ele>
        <time>2026-06-15T09:57:57.000Z</time>
        <extensions>
          <ns3:TrackPointExtension>
            <ns3:atemp>17.0</ns3:atemp>
          </ns3:TrackPointExtension>
        </extensions>
      </trkpt>
      <trkpt lat="42.58138968609273433685302734375" lon="20.08690983988344669342041015625">
        <ele>2191.800048828125</ele>
        <time>2026-06-15T09:57:58.000Z</time>
        <extensions>
          <ns3:TrackPointExtension>
            <ns3:atemp>17.0</ns3:atemp>
          </ns3:TrackPointExtension>
        </extensions>
      </trkpt>
      <trkpt lat="42.58138968609273433685302734375" lon="20.08690983988344669342041015625">
        <ele>2192</ele>
        <time>2026-06-15T09:57:59.000Z</time>
        <extensions>
          <ns3:TrackPointExtension>
            <ns3:atemp>17.0</ns3:atemp>
          </ns3:TrackPointExtension>
        </extensions>
      </trkpt>
      <trkpt lat="42.58138968609273433685302734375" lon="20.08690983988344669342041015625">
        <ele>2192.199951171875</ele>
        <time>2026-06-15T09:58:00.000Z</time>
        <extensions>
          <ns3:TrackPointExtension>
            <ns3:atemp>17.0</ns3:atemp>
          </ns3:TrackPointExtension>
        </extensions>
      </trkpt>
      <trkpt lat="42.58138968609273433685302734375" lon="20.08690983988344669342041015625">
        <ele>2192.199951171875</ele>
        <time>2026-06-15T09:58:01.000Z</time>
        <extensions>
          <ns3:TrackPointExtension>
            <ns3:atemp>17.0</ns3:atemp>
          </ns3:TrackPointExtension>
        </extensions>
      </trkpt>
      <trkpt lat="42.58138968609273433685302734375" lon="20.08690983988344669342041015625">
        <ele>2192.39990234375</ele>
        <time>2026-06-15T09:58:02.000Z</time>
        <extensions>
          <ns3:TrackPointExtension>
            <ns3:atemp>17.0</ns3:atemp>
          </ns3:TrackPointExtension>
        </extensions>
      </trkpt>
      <trkpt lat="42.58138968609273433685302734375" lon="20.08690983988344669342041015625">
        <ele>2192.39990234375</ele>
        <time>2026-06-15T09:58:03.000Z</time>
        <extensions>
          <ns3:TrackPointExtension>
            <ns3:atemp>17.0</ns3:atemp>
          </ns3:TrackPointExtension>
        </extensions>
      </trkpt>
      <trkpt lat="42.58138968609273433685302734375" lon="20.08690983988344669342041015625">
        <ele>2192.39990234375</ele>
        <time>2026-06-15T09:58:04.000Z</time>
        <extensions>
          <ns3:TrackPointExtension>
            <ns3:atemp>17.0</ns3:atemp>
          </ns3:TrackPointExtension>
        </extensions>
      </trkpt>
      <trkpt lat="42.58138968609273433685302734375" lon="20.08690983988344669342041015625">
        <ele>2192.39990234375</ele>
        <time>2026-06-15T09:58:05.000Z</time>
        <extensions>
          <ns3:TrackPointExtension>
            <ns3:atemp>17.0</ns3:atemp>
          </ns3:TrackPointExtension>
        </extensions>
      </trkpt>
      <trkpt lat="42.581384070217609405517578125" lon="20.08690598420798778533935546875">
        <ele>2192.39990234375</ele>
        <time>2026-06-15T09:58:06.000Z</time>
        <extensions>
          <ns3:TrackPointExtension>
            <ns3:atemp>17.0</ns3:atemp>
          </ns3:TrackPointExtension>
        </extensions>
      </trkpt>
      <trkpt lat="42.58137308992445468902587890625" lon="20.08690036833286285400390625">
        <ele>2192.39990234375</ele>
        <time>2026-06-15T09:58:07.000Z</time>
        <extensions>
          <ns3:TrackPointExtension>
            <ns3:atemp>17.0</ns3:atemp>
          </ns3:TrackPointExtension>
        </extensions>
      </trkpt>
      <trkpt lat="42.58137308992445468902587890625" lon="20.08690036833286285400390625">
        <ele>2192.39990234375</ele>
        <time>2026-06-15T09:58:08.000Z</time>
        <extensions>
          <ns3:TrackPointExtension>
            <ns3:atemp>17.0</ns3:atemp>
          </ns3:TrackPointExtension>
        </extensions>
      </trkpt>
      <trkpt lat="42.58137308992445468902587890625" lon="20.08690036833286285400390625">
        <ele>2192.39990234375</ele>
        <time>2026-06-15T09:58:09.000Z</time>
        <extensions>
          <ns3:TrackPointExtension>
            <ns3:atemp>17.0</ns3:atemp>
          </ns3:TrackPointExtension>
        </extensions>
      </trkpt>
      <trkpt lat="42.58137308992445468902587890625" lon="20.08690036833286285400390625">
        <ele>2192.39990234375</ele>
        <time>2026-06-15T09:58:10.000Z</time>
        <extensions>
          <ns3:TrackPointExtension>
            <ns3:atemp>17.0</ns3:atemp>
          </ns3:TrackPointExtension>
        </extensions>
      </trkpt>
      <trkpt lat="42.58137308992445468902587890625" lon="20.08690036833286285400390625">
        <ele>2192.39990234375</ele>
        <time>2026-06-15T09:58:11.000Z</time>
        <extensions>
          <ns3:TrackPointExtension>
            <ns3:atemp>17.0</ns3:atemp>
          </ns3:TrackPointExtension>
        </extensions>
      </trkpt>
      <trkpt lat="42.58137308992445468902587890625" lon="20.08690036833286285400390625">
        <ele>2192.199951171875</ele>
        <time>2026-06-15T09:58:12.000Z</time>
        <extensions>
          <ns3:TrackPointExtension>
            <ns3:atemp>17.0</ns3:atemp>
          </ns3:TrackPointExtension>
        </extensions>
      </trkpt>
      <trkpt lat="42.58137308992445468902587890625" lon="20.08690036833286285400390625">
        <ele>2192.199951171875</ele>
        <time>2026-06-15T09:58:13.000Z</time>
        <extensions>
          <ns3:TrackPointExtension>
            <ns3:atemp>17.0</ns3:atemp>
          </ns3:TrackPointExtension>
        </extensions>
      </trkpt>
      <trkpt lat="42.58137308992445468902587890625" lon="20.08690036833286285400390625">
        <ele>2192</ele>
        <time>2026-06-15T09:58:14.000Z</time>
        <extensions>
          <ns3:TrackPointExtension>
            <ns3:atemp>17.0</ns3:atemp>
          </ns3:TrackPointExtension>
        </extensions>
      </trkpt>
      <trkpt lat="42.58137308992445468902587890625" lon="20.08690036833286285400390625">
        <ele>2192</ele>
        <time>2026-06-15T09:58:15.000Z</time>
        <extensions>
          <ns3:TrackPointExtension>
            <ns3:atemp>17.0</ns3:atemp>
          </ns3:TrackPointExtension>
        </extensions>
      </trkpt>
      <trkpt lat="42.58137308992445468902587890625" lon="20.08690036833286285400390625">
        <ele>2191.800048828125</ele>
        <time>2026-06-15T09:58:16.000Z</time>
        <extensions>
          <ns3:TrackPointExtension>
            <ns3:atemp>17.0</ns3:atemp>
          </ns3:TrackPointExtension>
        </extensions>
      </trkpt>
      <trkpt lat="42.58137308992445468902587890625" lon="20.08690036833286285400390625">
        <ele>2191.800048828125</ele>
        <time>2026-06-15T09:58:17.000Z</time>
        <extensions>
          <ns3:TrackPointExtension>
            <ns3:atemp>17.0</ns3:atemp>
          </ns3:TrackPointExtension>
        </extensions>
      </trkpt>
      <trkpt lat="42.58137308992445468902587890625" lon="20.08690036833286285400390625">
        <ele>2191.800048828125</ele>
        <time>2026-06-15T09:58:18.000Z</time>
        <extensions>
          <ns3:TrackPointExtension>
            <ns3:atemp>17.0</ns3:atemp>
          </ns3:TrackPointExtension>
        </extensions>
      </trkpt>
      <trkpt lat="42.58137308992445468902587890625" lon="20.08690036833286285400390625">
        <ele>2191.800048828125</ele>
        <time>2026-06-15T09:58:19.000Z</time>
        <extensions>
          <ns3:TrackPointExtension>
            <ns3:atemp>17.0</ns3:atemp>
          </ns3:TrackPointExtension>
        </extensions>
      </trkpt>
      <trkpt lat="42.58137308992445468902587890625" lon="20.08690036833286285400390625">
        <ele>2191.800048828125</ele>
        <time>2026-06-15T09:58:20.000Z</time>
        <extensions>
          <ns3:TrackPointExtension>
            <ns3:atemp>17.0</ns3:atemp>
          </ns3:TrackPointExtension>
        </extensions>
      </trkpt>
      <trkpt lat="42.58137308992445468902587890625" lon="20.08690036833286285400390625">
        <ele>2191.800048828125</ele>
        <time>2026-06-15T09:58:21.000Z</time>
        <extensions>
          <ns3:TrackPointExtension>
            <ns3:atemp>17.0</ns3:atemp>
          </ns3:TrackPointExtension>
        </extensions>
      </trkpt>
      <trkpt lat="42.58137308992445468902587890625" lon="20.08690036833286285400390625">
        <ele>2191.800048828125</ele>
        <time>2026-06-15T09:58:22.000Z</time>
        <extensions>
          <ns3:TrackPointExtension>
            <ns3:atemp>17.0</ns3:atemp>
          </ns3:TrackPointExtension>
        </extensions>
      </trkpt>
      <trkpt lat="42.58137308992445468902587890625" lon="20.08690036833286285400390625">
        <ele>2191.800048828125</ele>
        <time>2026-06-15T09:58:23.000Z</time>
        <extensions>
          <ns3:TrackPointExtension>
            <ns3:atemp>17.0</ns3:atemp>
          </ns3:TrackPointExtension>
        </extensions>
      </trkpt>
      <trkpt lat="42.58137308992445468902587890625" lon="20.08690036833286285400390625">
        <ele>2191.800048828125</ele>
        <time>2026-06-15T09:58:24.000Z</time>
        <extensions>
          <ns3:TrackPointExtension>
            <ns3:atemp>17.0</ns3:atemp>
          </ns3:TrackPointExtension>
        </extensions>
      </trkpt>
      <trkpt lat="42.58137308992445468902587890625" lon="20.08690036833286285400390625">
        <ele>2191.800048828125</ele>
        <time>2026-06-15T09:58:25.000Z</time>
        <extensions>
          <ns3:TrackPointExtension>
            <ns3:atemp>17.0</ns3:atemp>
          </ns3:TrackPointExtension>
        </extensions>
      </trkpt>
      <trkpt lat="42.58137308992445468902587890625" lon="20.08690036833286285400390625">
        <ele>2191.800048828125</ele>
        <time>2026-06-15T09:58:26.000Z</time>
        <extensions>
          <ns3:TrackPointExtension>
            <ns3:atemp>17.0</ns3:atemp>
          </ns3:TrackPointExtension>
        </extensions>
      </trkpt>
      <trkpt lat="42.58137308992445468902587890625" lon="20.08690036833286285400390625">
        <ele>2191.800048828125</ele>
        <time>2026-06-15T09:58:27.000Z</time>
        <extensions>
          <ns3:TrackPointExtension>
            <ns3:atemp>17.0</ns3:atemp>
          </ns3:TrackPointExtension>
        </extensions>
      </trkpt>
      <trkpt lat="42.58137308992445468902587890625" lon="20.08690036833286285400390625">
        <ele>2191.800048828125</ele>
        <time>2026-06-15T09:58:28.000Z</time>
        <extensions>
          <ns3:TrackPointExtension>
            <ns3:atemp>17.0</ns3:atemp>
          </ns3:TrackPointExtension>
        </extensions>
      </trkpt>
      <trkpt lat="42.58137308992445468902587890625" lon="20.08690036833286285400390625">
        <ele>2191.800048828125</ele>
        <time>2026-06-15T09:58:29.000Z</time>
        <extensions>
          <ns3:TrackPointExtension>
            <ns3:atemp>17.0</ns3:atemp>
          </ns3:TrackPointExtension>
        </extensions>
      </trkpt>
      <trkpt lat="42.58137308992445468902587890625" lon="20.08690036833286285400390625">
        <ele>2191.800048828125</ele>
        <time>2026-06-15T09:58:30.000Z</time>
        <extensions>
          <ns3:TrackPointExtension>
            <ns3:atemp>17.0</ns3:atemp>
          </ns3:TrackPointExtension>
        </extensions>
      </trkpt>
      <trkpt lat="42.58137308992445468902587890625" lon="20.08690036833286285400390625">
        <ele>2191.800048828125</ele>
        <time>2026-06-15T09:58:31.000Z</time>
        <extensions>
          <ns3:TrackPointExtension>
            <ns3:atemp>17.0</ns3:atemp>
          </ns3:TrackPointExtension>
        </extensions>
      </trkpt>
      <trkpt lat="42.58137308992445468902587890625" lon="20.08690036833286285400390625">
        <ele>2191.800048828125</ele>
        <time>2026-06-15T09:58:32.000Z</time>
        <extensions>
          <ns3:TrackPointExtension>
            <ns3:atemp>17.0</ns3:atemp>
          </ns3:TrackPointExtension>
        </extensions>
      </trkpt>
      <trkpt lat="42.58137308992445468902587890625" lon="20.08690036833286285400390625">
        <ele>2191.800048828125</ele>
        <time>2026-06-15T09:58:33.000Z</time>
        <extensions>
          <ns3:TrackPointExtension>
            <ns3:atemp>17.0</ns3:atemp>
          </ns3:TrackPointExtension>
        </extensions>
      </trkpt>
      <trkpt lat="42.58137308992445468902587890625" lon="20.08690036833286285400390625">
        <ele>2191.800048828125</ele>
        <time>2026-06-15T09:58:34.000Z</time>
        <extensions>
          <ns3:TrackPointExtension>
            <ns3:atemp>17.0</ns3:atemp>
          </ns3:TrackPointExtension>
        </extensions>
      </trkpt>
      <trkpt lat="42.58137308992445468902587890625" lon="20.08690036833286285400390625">
        <ele>2191.800048828125</ele>
        <time>2026-06-15T09:58:35.000Z</time>
        <extensions>
          <ns3:TrackPointExtension>
            <ns3:atemp>17.0</ns3:atemp>
          </ns3:TrackPointExtension>
        </extensions>
      </trkpt>
      <trkpt lat="42.58137308992445468902587890625" lon="20.08690036833286285400390625">
        <ele>2191.800048828125</ele>
        <time>2026-06-15T09:58:36.000Z</time>
        <extensions>
          <ns3:TrackPointExtension>
            <ns3:atemp>17.0</ns3:atemp>
          </ns3:TrackPointExtension>
        </extensions>
      </trkpt>
      <trkpt lat="42.58137308992445468902587890625" lon="20.08690036833286285400390625">
        <ele>2191.800048828125</ele>
        <time>2026-06-15T09:58:37.000Z</time>
        <extensions>
          <ns3:TrackPointExtension>
            <ns3:atemp>17.0</ns3:atemp>
          </ns3:TrackPointExtension>
        </extensions>
      </trkpt>
      <trkpt lat="42.58137308992445468902587890625" lon="20.08690036833286285400390625">
        <ele>2191.800048828125</ele>
        <time>2026-06-15T09:58:38.000Z</time>
        <extensions>
          <ns3:TrackPointExtension>
            <ns3:atemp>17.0</ns3:atemp>
          </ns3:TrackPointExtension>
        </extensions>
      </trkpt>
      <trkpt lat="42.58137308992445468902587890625" lon="20.08690036833286285400390625">
        <ele>2191.800048828125</ele>
        <time>2026-06-15T09:58:39.000Z</time>
        <extensions>
          <ns3:TrackPointExtension>
            <ns3:atemp>17.0</ns3:atemp>
          </ns3:TrackPointExtension>
        </extensions>
      </trkpt>
      <trkpt lat="42.58137308992445468902587890625" lon="20.08690036833286285400390625">
        <ele>2191.800048828125</ele>
        <time>2026-06-15T09:58:40.000Z</time>
        <extensions>
          <ns3:TrackPointExtension>
            <ns3:atemp>17.0</ns3:atemp>
          </ns3:TrackPointExtension>
        </extensions>
      </trkpt>
      <trkpt lat="42.58137308992445468902587890625" lon="20.08690036833286285400390625">
        <ele>2191.800048828125</ele>
        <time>2026-06-15T09:58:41.000Z</time>
        <extensions>
          <ns3:TrackPointExtension>
            <ns3:atemp>17.0</ns3:atemp>
          </ns3:TrackPointExtension>
        </extensions>
      </trkpt>
      <trkpt lat="42.58137308992445468902587890625" lon="20.08690036833286285400390625">
        <ele>2191.800048828125</ele>
        <time>2026-06-15T09:58:42.000Z</time>
        <extensions>
          <ns3:TrackPointExtension>
            <ns3:atemp>17.0</ns3:atemp>
          </ns3:TrackPointExtension>
        </extensions>
      </trkpt>
      <trkpt lat="42.58137308992445468902587890625" lon="20.08690036833286285400390625">
        <ele>2191.800048828125</ele>
        <time>2026-06-15T09:58:43.000Z</time>
        <extensions>
          <ns3:TrackPointExtension>
            <ns3:atemp>17.0</ns3:atemp>
          </ns3:TrackPointExtension>
        </extensions>
      </trkpt>
      <trkpt lat="42.58137308992445468902587890625" lon="20.08690036833286285400390625">
        <ele>2191.800048828125</ele>
        <time>2026-06-15T09:58:44.000Z</time>
        <extensions>
          <ns3:TrackPointExtension>
            <ns3:atemp>17.0</ns3:atemp>
          </ns3:TrackPointExtension>
        </extensions>
      </trkpt>
      <trkpt lat="42.58137308992445468902587890625" lon="20.08690036833286285400390625">
        <ele>2191.800048828125</ele>
        <time>2026-06-15T09:58:45.000Z</time>
        <extensions>
          <ns3:TrackPointExtension>
            <ns3:atemp>17.0</ns3:atemp>
          </ns3:TrackPointExtension>
        </extensions>
      </trkpt>
      <trkpt lat="42.58137308992445468902587890625" lon="20.08690036833286285400390625">
        <ele>2191.800048828125</ele>
        <time>2026-06-15T09:58:46.000Z</time>
        <extensions>
          <ns3:TrackPointExtension>
            <ns3:atemp>17.0</ns3:atemp>
          </ns3:TrackPointExtension>
        </extensions>
      </trkpt>
      <trkpt lat="42.58137308992445468902587890625" lon="20.08690036833286285400390625">
        <ele>2191.800048828125</ele>
        <time>2026-06-15T09:58:47.000Z</time>
        <extensions>
          <ns3:TrackPointExtension>
            <ns3:atemp>17.0</ns3:atemp>
          </ns3:TrackPointExtension>
        </extensions>
      </trkpt>
      <trkpt lat="42.58137308992445468902587890625" lon="20.08690036833286285400390625">
        <ele>2191.800048828125</ele>
        <time>2026-06-15T09:58:48.000Z</time>
        <extensions>
          <ns3:TrackPointExtension>
            <ns3:atemp>17.0</ns3:atemp>
          </ns3:TrackPointExtension>
        </extensions>
      </trkpt>
      <trkpt lat="42.58137308992445468902587890625" lon="20.08690036833286285400390625">
        <ele>2191.800048828125</ele>
        <time>2026-06-15T09:58:49.000Z</time>
        <extensions>
          <ns3:TrackPointExtension>
            <ns3:atemp>17.0</ns3:atemp>
          </ns3:TrackPointExtension>
        </extensions>
      </trkpt>
      <trkpt lat="42.58137308992445468902587890625" lon="20.08690036833286285400390625">
        <ele>2191.800048828125</ele>
        <time>2026-06-15T09:58:50.000Z</time>
        <extensions>
          <ns3:TrackPointExtension>
            <ns3:atemp>17.0</ns3:atemp>
          </ns3:TrackPointExtension>
        </extensions>
      </trkpt>
      <trkpt lat="42.58137308992445468902587890625" lon="20.08690036833286285400390625">
        <ele>2191.800048828125</ele>
        <time>2026-06-15T09:58:51.000Z</time>
        <extensions>
          <ns3:TrackPointExtension>
            <ns3:atemp>17.0</ns3:atemp>
          </ns3:TrackPointExtension>
        </extensions>
      </trkpt>
      <trkpt lat="42.58137308992445468902587890625" lon="20.08690036833286285400390625">
        <ele>2191.800048828125</ele>
        <time>2026-06-15T09:58:52.000Z</time>
        <extensions>
          <ns3:TrackPointExtension>
            <ns3:atemp>17.0</ns3:atemp>
          </ns3:TrackPointExtension>
        </extensions>
      </trkpt>
      <trkpt lat="42.58137308992445468902587890625" lon="20.08690036833286285400390625">
        <ele>2191.800048828125</ele>
        <time>2026-06-15T09:58:53.000Z</time>
        <extensions>
          <ns3:TrackPointExtension>
            <ns3:atemp>17.0</ns3:atemp>
          </ns3:TrackPointExtension>
        </extensions>
      </trkpt>
      <trkpt lat="42.58137308992445468902587890625" lon="20.08690036833286285400390625">
        <ele>2191.800048828125</ele>
        <time>2026-06-15T09:58:54.000Z</time>
        <extensions>
          <ns3:TrackPointExtension>
            <ns3:atemp>17.0</ns3:atemp>
          </ns3:TrackPointExtension>
        </extensions>
      </trkpt>
      <trkpt lat="42.58137308992445468902587890625" lon="20.08690036833286285400390625">
        <ele>2191.800048828125</ele>
        <time>2026-06-15T09:58:55.000Z</time>
        <extensions>
          <ns3:TrackPointExtension>
            <ns3:atemp>17.0</ns3:atemp>
          </ns3:TrackPointExtension>
        </extensions>
      </trkpt>
      <trkpt lat="42.58137308992445468902587890625" lon="20.08690036833286285400390625">
        <ele>2191.800048828125</ele>
        <time>2026-06-15T09:58:56.000Z</time>
        <extensions>
          <ns3:TrackPointExtension>
            <ns3:atemp>17.0</ns3:atemp>
          </ns3:TrackPointExtension>
        </extensions>
      </trkpt>
      <trkpt lat="42.58137308992445468902587890625" lon="20.08690036833286285400390625">
        <ele>2191.800048828125</ele>
        <time>2026-06-15T09:58:57.000Z</time>
        <extensions>
          <ns3:TrackPointExtension>
            <ns3:atemp>17.0</ns3:atemp>
          </ns3:TrackPointExtension>
        </extensions>
      </trkpt>
      <trkpt lat="42.58137308992445468902587890625" lon="20.08690036833286285400390625">
        <ele>2191.800048828125</ele>
        <time>2026-06-15T09:58:58.000Z</time>
        <extensions>
          <ns3:TrackPointExtension>
            <ns3:atemp>17.0</ns3:atemp>
          </ns3:TrackPointExtension>
        </extensions>
      </trkpt>
      <trkpt lat="42.58137308992445468902587890625" lon="20.08690036833286285400390625">
        <ele>2191.800048828125</ele>
        <time>2026-06-15T09:58:59.000Z</time>
        <extensions>
          <ns3:TrackPointExtension>
            <ns3:atemp>17.0</ns3:atemp>
          </ns3:TrackPointExtension>
        </extensions>
      </trkpt>
      <trkpt lat="42.58137308992445468902587890625" lon="20.08690036833286285400390625">
        <ele>2191.800048828125</ele>
        <time>2026-06-15T09:59:00.000Z</time>
        <extensions>
          <ns3:TrackPointExtension>
            <ns3:atemp>17.0</ns3:atemp>
          </ns3:TrackPointExtension>
        </extensions>
      </trkpt>
      <trkpt lat="42.58137308992445468902587890625" lon="20.08690036833286285400390625">
        <ele>2191.800048828125</ele>
        <time>2026-06-15T09:59:01.000Z</time>
        <extensions>
          <ns3:TrackPointExtension>
            <ns3:atemp>17.0</ns3:atemp>
          </ns3:TrackPointExtension>
        </extensions>
      </trkpt>
      <trkpt lat="42.58137308992445468902587890625" lon="20.08690036833286285400390625">
        <ele>2191.800048828125</ele>
        <time>2026-06-15T09:59:02.000Z</time>
        <extensions>
          <ns3:TrackPointExtension>
            <ns3:atemp>17.0</ns3:atemp>
          </ns3:TrackPointExtension>
        </extensions>
      </trkpt>
      <trkpt lat="42.58137308992445468902587890625" lon="20.08690036833286285400390625">
        <ele>2191.800048828125</ele>
        <time>2026-06-15T09:59:03.000Z</time>
        <extensions>
          <ns3:TrackPointExtension>
            <ns3:atemp>17.0</ns3:atemp>
          </ns3:TrackPointExtension>
        </extensions>
      </trkpt>
      <trkpt lat="42.58137308992445468902587890625" lon="20.08690036833286285400390625">
        <ele>2191.800048828125</ele>
        <time>2026-06-15T09:59:04.000Z</time>
        <extensions>
          <ns3:TrackPointExtension>
            <ns3:atemp>17.0</ns3:atemp>
          </ns3:TrackPointExtension>
        </extensions>
      </trkpt>
      <trkpt lat="42.58137308992445468902587890625" lon="20.08690036833286285400390625">
        <ele>2191.800048828125</ele>
        <time>2026-06-15T09:59:05.000Z</time>
        <extensions>
          <ns3:TrackPointExtension>
            <ns3:atemp>17.0</ns3:atemp>
          </ns3:TrackPointExtension>
        </extensions>
      </trkpt>
      <trkpt lat="42.58137308992445468902587890625" lon="20.08690036833286285400390625">
        <ele>2191.800048828125</ele>
        <time>2026-06-15T09:59:06.000Z</time>
        <extensions>
          <ns3:TrackPointExtension>
            <ns3:atemp>17.0</ns3:atemp>
          </ns3:TrackPointExtension>
        </extensions>
      </trkpt>
      <trkpt lat="42.58137308992445468902587890625" lon="20.08690036833286285400390625">
        <ele>2191.800048828125</ele>
        <time>2026-06-15T09:59:07.000Z</time>
        <extensions>
          <ns3:TrackPointExtension>
            <ns3:atemp>17.0</ns3:atemp>
          </ns3:TrackPointExtension>
        </extensions>
      </trkpt>
      <trkpt lat="42.58137308992445468902587890625" lon="20.08690036833286285400390625">
        <ele>2191.800048828125</ele>
        <time>2026-06-15T09:59:08.000Z</time>
        <extensions>
          <ns3:TrackPointExtension>
            <ns3:atemp>17.0</ns3:atemp>
          </ns3:TrackPointExtension>
        </extensions>
      </trkpt>
      <trkpt lat="42.58137308992445468902587890625" lon="20.08690036833286285400390625">
        <ele>2191.800048828125</ele>
        <time>2026-06-15T09:59:09.000Z</time>
        <extensions>
          <ns3:TrackPointExtension>
            <ns3:atemp>17.0</ns3:atemp>
          </ns3:TrackPointExtension>
        </extensions>
      </trkpt>
      <trkpt lat="42.58137308992445468902587890625" lon="20.08690036833286285400390625">
        <ele>2191.800048828125</ele>
        <time>2026-06-15T09:59:10.000Z</time>
        <extensions>
          <ns3:TrackPointExtension>
            <ns3:atemp>17.0</ns3:atemp>
          </ns3:TrackPointExtension>
        </extensions>
      </trkpt>
      <trkpt lat="42.58137308992445468902587890625" lon="20.08690036833286285400390625">
        <ele>2191.800048828125</ele>
        <time>2026-06-15T09:59:11.000Z</time>
        <extensions>
          <ns3:TrackPointExtension>
            <ns3:atemp>17.0</ns3:atemp>
          </ns3:TrackPointExtension>
        </extensions>
      </trkpt>
      <trkpt lat="42.58137308992445468902587890625" lon="20.08690036833286285400390625">
        <ele>2191.800048828125</ele>
        <time>2026-06-15T09:59:12.000Z</time>
        <extensions>
          <ns3:TrackPointExtension>
            <ns3:atemp>17.0</ns3:atemp>
          </ns3:TrackPointExtension>
        </extensions>
      </trkpt>
      <trkpt lat="42.58137308992445468902587890625" lon="20.08690036833286285400390625">
        <ele>2191.800048828125</ele>
        <time>2026-06-15T09:59:13.000Z</time>
        <extensions>
          <ns3:TrackPointExtension>
            <ns3:atemp>17.0</ns3:atemp>
          </ns3:TrackPointExtension>
        </extensions>
      </trkpt>
      <trkpt lat="42.58137308992445468902587890625" lon="20.08690036833286285400390625">
        <ele>2191.800048828125</ele>
        <time>2026-06-15T09:59:14.000Z</time>
        <extensions>
          <ns3:TrackPointExtension>
            <ns3:atemp>17.0</ns3:atemp>
          </ns3:TrackPointExtension>
        </extensions>
      </trkpt>
      <trkpt lat="42.58137308992445468902587890625" lon="20.08690036833286285400390625">
        <ele>2191.800048828125</ele>
        <time>2026-06-15T09:59:15.000Z</time>
        <extensions>
          <ns3:TrackPointExtension>
            <ns3:atemp>17.0</ns3:atemp>
          </ns3:TrackPointExtension>
        </extensions>
      </trkpt>
      <trkpt lat="42.58137308992445468902587890625" lon="20.08690036833286285400390625">
        <ele>2191.800048828125</ele>
        <time>2026-06-15T09:59:16.000Z</time>
        <extensions>
          <ns3:TrackPointExtension>
            <ns3:atemp>16.0</ns3:atemp>
          </ns3:TrackPointExtension>
        </extensions>
      </trkpt>
      <trkpt lat="42.58137308992445468902587890625" lon="20.08690036833286285400390625">
        <ele>2191.800048828125</ele>
        <time>2026-06-15T09:59:17.000Z</time>
        <extensions>
          <ns3:TrackPointExtension>
            <ns3:atemp>16.0</ns3:atemp>
          </ns3:TrackPointExtension>
        </extensions>
      </trkpt>
      <trkpt lat="42.58137308992445468902587890625" lon="20.08690036833286285400390625">
        <ele>2191.800048828125</ele>
        <time>2026-06-15T09:59:18.000Z</time>
        <extensions>
          <ns3:TrackPointExtension>
            <ns3:atemp>16.0</ns3:atemp>
          </ns3:TrackPointExtension>
        </extensions>
      </trkpt>
      <trkpt lat="42.58137308992445468902587890625" lon="20.08690036833286285400390625">
        <ele>2191.800048828125</ele>
        <time>2026-06-15T09:59:19.000Z</time>
        <extensions>
          <ns3:TrackPointExtension>
            <ns3:atemp>16.0</ns3:atemp>
          </ns3:TrackPointExtension>
        </extensions>
      </trkpt>
      <trkpt lat="42.58137308992445468902587890625" lon="20.08690036833286285400390625">
        <ele>2191.800048828125</ele>
        <time>2026-06-15T09:59:20.000Z</time>
        <extensions>
          <ns3:TrackPointExtension>
            <ns3:atemp>16.0</ns3:atemp>
          </ns3:TrackPointExtension>
        </extensions>
      </trkpt>
      <trkpt lat="42.58137308992445468902587890625" lon="20.08690036833286285400390625">
        <ele>2191.800048828125</ele>
        <time>2026-06-15T09:59:21.000Z</time>
        <extensions>
          <ns3:TrackPointExtension>
            <ns3:atemp>16.0</ns3:atemp>
          </ns3:TrackPointExtension>
        </extensions>
      </trkpt>
      <trkpt lat="42.58137308992445468902587890625" lon="20.08690036833286285400390625">
        <ele>2191.800048828125</ele>
        <time>2026-06-15T09:59:22.000Z</time>
        <extensions>
          <ns3:TrackPointExtension>
            <ns3:atemp>16.0</ns3:atemp>
          </ns3:TrackPointExtension>
        </extensions>
      </trkpt>
      <trkpt lat="42.58137308992445468902587890625" lon="20.08690036833286285400390625">
        <ele>2191.800048828125</ele>
        <time>2026-06-15T09:59:23.000Z</time>
        <extensions>
          <ns3:TrackPointExtension>
            <ns3:atemp>16.0</ns3:atemp>
          </ns3:TrackPointExtension>
        </extensions>
      </trkpt>
      <trkpt lat="42.58137308992445468902587890625" lon="20.08690036833286285400390625">
        <ele>2191.800048828125</ele>
        <time>2026-06-15T09:59:24.000Z</time>
        <extensions>
          <ns3:TrackPointExtension>
            <ns3:atemp>16.0</ns3:atemp>
          </ns3:TrackPointExtension>
        </extensions>
      </trkpt>
      <trkpt lat="42.58137308992445468902587890625" lon="20.08690036833286285400390625">
        <ele>2191.800048828125</ele>
        <time>2026-06-15T09:59:25.000Z</time>
        <extensions>
          <ns3:TrackPointExtension>
            <ns3:atemp>16.0</ns3:atemp>
          </ns3:TrackPointExtension>
        </extensions>
      </trkpt>
      <trkpt lat="42.58137308992445468902587890625" lon="20.08690036833286285400390625">
        <ele>2191.800048828125</ele>
        <time>2026-06-15T09:59:26.000Z</time>
        <extensions>
          <ns3:TrackPointExtension>
            <ns3:atemp>16.0</ns3:atemp>
          </ns3:TrackPointExtension>
        </extensions>
      </trkpt>
      <trkpt lat="42.58137308992445468902587890625" lon="20.08690036833286285400390625">
        <ele>2191.800048828125</ele>
        <time>2026-06-15T09:59:27.000Z</time>
        <extensions>
          <ns3:TrackPointExtension>
            <ns3:atemp>16.0</ns3:atemp>
          </ns3:TrackPointExtension>
        </extensions>
      </trkpt>
      <trkpt lat="42.58137308992445468902587890625" lon="20.08690036833286285400390625">
        <ele>2191.800048828125</ele>
        <time>2026-06-15T09:59:28.000Z</time>
        <extensions>
          <ns3:TrackPointExtension>
            <ns3:atemp>16.0</ns3:atemp>
          </ns3:TrackPointExtension>
        </extensions>
      </trkpt>
      <trkpt lat="42.58137308992445468902587890625" lon="20.08690036833286285400390625">
        <ele>2191.800048828125</ele>
        <time>2026-06-15T09:59:29.000Z</time>
        <extensions>
          <ns3:TrackPointExtension>
            <ns3:atemp>16.0</ns3:atemp>
          </ns3:TrackPointExtension>
        </extensions>
      </trkpt>
      <trkpt lat="42.58137308992445468902587890625" lon="20.08690036833286285400390625">
        <ele>2191.800048828125</ele>
        <time>2026-06-15T09:59:30.000Z</time>
        <extensions>
          <ns3:TrackPointExtension>
            <ns3:atemp>16.0</ns3:atemp>
          </ns3:TrackPointExtension>
        </extensions>
      </trkpt>
      <trkpt lat="42.58137308992445468902587890625" lon="20.08690036833286285400390625">
        <ele>2191.800048828125</ele>
        <time>2026-06-15T09:59:31.000Z</time>
        <extensions>
          <ns3:TrackPointExtension>
            <ns3:atemp>16.0</ns3:atemp>
          </ns3:TrackPointExtension>
        </extensions>
      </trkpt>
      <trkpt lat="42.58137308992445468902587890625" lon="20.08690036833286285400390625">
        <ele>2191.800048828125</ele>
        <time>2026-06-15T09:59:32.000Z</time>
        <extensions>
          <ns3:TrackPointExtension>
            <ns3:atemp>16.0</ns3:atemp>
          </ns3:TrackPointExtension>
        </extensions>
      </trkpt>
      <trkpt lat="42.58137308992445468902587890625" lon="20.08690036833286285400390625">
        <ele>2191.800048828125</ele>
        <time>2026-06-15T09:59:33.000Z</time>
        <extensions>
          <ns3:TrackPointExtension>
            <ns3:atemp>16.0</ns3:atemp>
          </ns3:TrackPointExtension>
        </extensions>
      </trkpt>
      <trkpt lat="42.58137308992445468902587890625" lon="20.08690036833286285400390625">
        <ele>2191.800048828125</ele>
        <time>2026-06-15T09:59:34.000Z</time>
        <extensions>
          <ns3:TrackPointExtension>
            <ns3:atemp>16.0</ns3:atemp>
          </ns3:TrackPointExtension>
        </extensions>
      </trkpt>
      <trkpt lat="42.58137308992445468902587890625" lon="20.08690036833286285400390625">
        <ele>2191.800048828125</ele>
        <time>2026-06-15T09:59:35.000Z</time>
        <extensions>
          <ns3:TrackPointExtension>
            <ns3:atemp>16.0</ns3:atemp>
          </ns3:TrackPointExtension>
        </extensions>
      </trkpt>
      <trkpt lat="42.58137308992445468902587890625" lon="20.08690036833286285400390625">
        <ele>2191.800048828125</ele>
        <time>2026-06-15T09:59:36.000Z</time>
        <extensions>
          <ns3:TrackPointExtension>
            <ns3:atemp>16.0</ns3:atemp>
          </ns3:TrackPointExtension>
        </extensions>
      </trkpt>
      <trkpt lat="42.58137308992445468902587890625" lon="20.08690036833286285400390625">
        <ele>2191.800048828125</ele>
        <time>2026-06-15T09:59:37.000Z</time>
        <extensions>
          <ns3:TrackPointExtension>
            <ns3:atemp>16.0</ns3:atemp>
          </ns3:TrackPointExtension>
        </extensions>
      </trkpt>
      <trkpt lat="42.58137308992445468902587890625" lon="20.08690036833286285400390625">
        <ele>2191.800048828125</ele>
        <time>2026-06-15T09:59:38.000Z</time>
        <extensions>
          <ns3:TrackPointExtension>
            <ns3:atemp>16.0</ns3:atemp>
          </ns3:TrackPointExtension>
        </extensions>
      </trkpt>
      <trkpt lat="42.58137308992445468902587890625" lon="20.08690036833286285400390625">
        <ele>2191.800048828125</ele>
        <time>2026-06-15T09:59:39.000Z</time>
        <extensions>
          <ns3:TrackPointExtension>
            <ns3:atemp>16.0</ns3:atemp>
          </ns3:TrackPointExtension>
        </extensions>
      </trkpt>
      <trkpt lat="42.58137308992445468902587890625" lon="20.08690036833286285400390625">
        <ele>2191.800048828125</ele>
        <time>2026-06-15T09:59:40.000Z</time>
        <extensions>
          <ns3:TrackPointExtension>
            <ns3:atemp>16.0</ns3:atemp>
          </ns3:TrackPointExtension>
        </extensions>
      </trkpt>
      <trkpt lat="42.58137308992445468902587890625" lon="20.08690036833286285400390625">
        <ele>2191.800048828125</ele>
        <time>2026-06-15T09:59:41.000Z</time>
        <extensions>
          <ns3:TrackPointExtension>
            <ns3:atemp>16.0</ns3:atemp>
          </ns3:TrackPointExtension>
        </extensions>
      </trkpt>
      <trkpt lat="42.58137308992445468902587890625" lon="20.08690036833286285400390625">
        <ele>2191.800048828125</ele>
        <time>2026-06-15T09:59:42.000Z</time>
        <extensions>
          <ns3:TrackPointExtension>
            <ns3:atemp>16.0</ns3:atemp>
          </ns3:TrackPointExtension>
        </extensions>
      </trkpt>
      <trkpt lat="42.58137308992445468902587890625" lon="20.08690036833286285400390625">
        <ele>2191.800048828125</ele>
        <time>2026-06-15T09:59:43.000Z</time>
        <extensions>
          <ns3:TrackPointExtension>
            <ns3:atemp>16.0</ns3:atemp>
          </ns3:TrackPointExtension>
        </extensions>
      </trkpt>
      <trkpt lat="42.58137308992445468902587890625" lon="20.08690036833286285400390625">
        <ele>2189.800048828125</ele>
        <time>2026-06-15T09:59:44.000Z</time>
        <extensions>
          <ns3:TrackPointExtension>
            <ns3:atemp>16.0</ns3:atemp>
          </ns3:TrackPointExtension>
        </extensions>
      </trkpt>
      <trkpt lat="42.58137308992445468902587890625" lon="20.08690036833286285400390625">
        <ele>2189.60009765625</ele>
        <time>2026-06-15T09:59:45.000Z</time>
        <extensions>
          <ns3:TrackPointExtension>
            <ns3:atemp>16.0</ns3:atemp>
          </ns3:TrackPointExtension>
        </extensions>
      </trkpt>
      <trkpt lat="42.58137308992445468902587890625" lon="20.08690036833286285400390625">
        <ele>2189.60009765625</ele>
        <time>2026-06-15T09:59:46.000Z</time>
        <extensions>
          <ns3:TrackPointExtension>
            <ns3:atemp>16.0</ns3:atemp>
          </ns3:TrackPointExtension>
        </extensions>
      </trkpt>
      <trkpt lat="42.58137308992445468902587890625" lon="20.08690036833286285400390625">
        <ele>2189.39990234375</ele>
        <time>2026-06-15T09:59:47.000Z</time>
        <extensions>
          <ns3:TrackPointExtension>
            <ns3:atemp>16.0</ns3:atemp>
          </ns3:TrackPointExtension>
        </extensions>
      </trkpt>
      <trkpt lat="42.58137308992445468902587890625" lon="20.08690036833286285400390625">
        <ele>2189.39990234375</ele>
        <time>2026-06-15T09:59:48.000Z</time>
        <extensions>
          <ns3:TrackPointExtension>
            <ns3:atemp>16.0</ns3:atemp>
          </ns3:TrackPointExtension>
        </extensions>
      </trkpt>
      <trkpt lat="42.58137308992445468902587890625" lon="20.08690036833286285400390625">
        <ele>2189.39990234375</ele>
        <time>2026-06-15T09:59:49.000Z</time>
        <extensions>
          <ns3:TrackPointExtension>
            <ns3:atemp>16.0</ns3:atemp>
          </ns3:TrackPointExtension>
        </extensions>
      </trkpt>
      <trkpt lat="42.58137308992445468902587890625" lon="20.08690036833286285400390625">
        <ele>2189.39990234375</ele>
        <time>2026-06-15T09:59:50.000Z</time>
        <extensions>
          <ns3:TrackPointExtension>
            <ns3:atemp>16.0</ns3:atemp>
          </ns3:TrackPointExtension>
        </extensions>
      </trkpt>
      <trkpt lat="42.58137308992445468902587890625" lon="20.08690036833286285400390625">
        <ele>2189.39990234375</ele>
        <time>2026-06-15T09:59:51.000Z</time>
        <extensions>
          <ns3:TrackPointExtension>
            <ns3:atemp>16.0</ns3:atemp>
          </ns3:TrackPointExtension>
        </extensions>
      </trkpt>
      <trkpt lat="42.58137308992445468902587890625" lon="20.08690036833286285400390625">
        <ele>2189.39990234375</ele>
        <time>2026-06-15T09:59:52.000Z</time>
        <extensions>
          <ns3:TrackPointExtension>
            <ns3:atemp>16.0</ns3:atemp>
          </ns3:TrackPointExtension>
        </extensions>
      </trkpt>
      <trkpt lat="42.58137308992445468902587890625" lon="20.08690036833286285400390625">
        <ele>2189.39990234375</ele>
        <time>2026-06-15T09:59:53.000Z</time>
        <extensions>
          <ns3:TrackPointExtension>
            <ns3:atemp>16.0</ns3:atemp>
          </ns3:TrackPointExtension>
        </extensions>
      </trkpt>
      <trkpt lat="42.58137308992445468902587890625" lon="20.08690036833286285400390625">
        <ele>2189.39990234375</ele>
        <time>2026-06-15T09:59:54.000Z</time>
        <extensions>
          <ns3:TrackPointExtension>
            <ns3:atemp>16.0</ns3:atemp>
          </ns3:TrackPointExtension>
        </extensions>
      </trkpt>
      <trkpt lat="42.58137308992445468902587890625" lon="20.08690036833286285400390625">
        <ele>2189.39990234375</ele>
        <time>2026-06-15T09:59:55.000Z</time>
        <extensions>
          <ns3:TrackPointExtension>
            <ns3:atemp>16.0</ns3:atemp>
          </ns3:TrackPointExtension>
        </extensions>
      </trkpt>
      <trkpt lat="42.58137308992445468902587890625" lon="20.08690036833286285400390625">
        <ele>2189.60009765625</ele>
        <time>2026-06-15T09:59:56.000Z</time>
        <extensions>
          <ns3:TrackPointExtension>
            <ns3:atemp>16.0</ns3:atemp>
          </ns3:TrackPointExtension>
        </extensions>
      </trkpt>
      <trkpt lat="42.58137308992445468902587890625" lon="20.08690036833286285400390625">
        <ele>2189.60009765625</ele>
        <time>2026-06-15T09:59:57.000Z</time>
        <extensions>
          <ns3:TrackPointExtension>
            <ns3:atemp>16.0</ns3:atemp>
          </ns3:TrackPointExtension>
        </extensions>
      </trkpt>
      <trkpt lat="42.58137308992445468902587890625" lon="20.08690036833286285400390625">
        <ele>2189.60009765625</ele>
        <time>2026-06-15T09:59:58.000Z</time>
        <extensions>
          <ns3:TrackPointExtension>
            <ns3:atemp>16.0</ns3:atemp>
          </ns3:TrackPointExtension>
        </extensions>
      </trkpt>
      <trkpt lat="42.58137308992445468902587890625" lon="20.08690036833286285400390625">
        <ele>2189.60009765625</ele>
        <time>2026-06-15T09:59:59.000Z</time>
        <extensions>
          <ns3:TrackPointExtension>
            <ns3:atemp>16.0</ns3:atemp>
          </ns3:TrackPointExtension>
        </extensions>
      </trkpt>
      <trkpt lat="42.58137308992445468902587890625" lon="20.08690036833286285400390625">
        <ele>2189.60009765625</ele>
        <time>2026-06-15T10:00:00.000Z</time>
        <extensions>
          <ns3:TrackPointExtension>
            <ns3:atemp>16.0</ns3:atemp>
          </ns3:TrackPointExtension>
        </extensions>
      </trkpt>
      <trkpt lat="42.58137308992445468902587890625" lon="20.08690036833286285400390625">
        <ele>2189.39990234375</ele>
        <time>2026-06-15T10:00:01.000Z</time>
        <extensions>
          <ns3:TrackPointExtension>
            <ns3:atemp>16.0</ns3:atemp>
          </ns3:TrackPointExtension>
        </extensions>
      </trkpt>
      <trkpt lat="42.58137308992445468902587890625" lon="20.08690036833286285400390625">
        <ele>2189.39990234375</ele>
        <time>2026-06-15T10:00:02.000Z</time>
        <extensions>
          <ns3:TrackPointExtension>
            <ns3:atemp>16.0</ns3:atemp>
          </ns3:TrackPointExtension>
        </extensions>
      </trkpt>
      <trkpt lat="42.58137308992445468902587890625" lon="20.08690036833286285400390625">
        <ele>2189.39990234375</ele>
        <time>2026-06-15T10:00:03.000Z</time>
        <extensions>
          <ns3:TrackPointExtension>
            <ns3:atemp>16.0</ns3:atemp>
          </ns3:TrackPointExtension>
        </extensions>
      </trkpt>
      <trkpt lat="42.58137308992445468902587890625" lon="20.08690036833286285400390625">
        <ele>2189.199951171875</ele>
        <time>2026-06-15T10:00:04.000Z</time>
        <extensions>
          <ns3:TrackPointExtension>
            <ns3:atemp>16.0</ns3:atemp>
          </ns3:TrackPointExtension>
        </extensions>
      </trkpt>
      <trkpt lat="42.58137308992445468902587890625" lon="20.08690036833286285400390625">
        <ele>2189.199951171875</ele>
        <time>2026-06-15T10:00:05.000Z</time>
        <extensions>
          <ns3:TrackPointExtension>
            <ns3:atemp>16.0</ns3:atemp>
          </ns3:TrackPointExtension>
        </extensions>
      </trkpt>
      <trkpt lat="42.58137308992445468902587890625" lon="20.08690036833286285400390625">
        <ele>2189.199951171875</ele>
        <time>2026-06-15T10:00:06.000Z</time>
        <extensions>
          <ns3:TrackPointExtension>
            <ns3:atemp>16.0</ns3:atemp>
          </ns3:TrackPointExtension>
        </extensions>
      </trkpt>
      <trkpt lat="42.58137308992445468902587890625" lon="20.08690036833286285400390625">
        <ele>2189.199951171875</ele>
        <time>2026-06-15T10:00:07.000Z</time>
        <extensions>
          <ns3:TrackPointExtension>
            <ns3:atemp>16.0</ns3:atemp>
          </ns3:TrackPointExtension>
        </extensions>
      </trkpt>
      <trkpt lat="42.58137308992445468902587890625" lon="20.08690036833286285400390625">
        <ele>2189.199951171875</ele>
        <time>2026-06-15T10:00:08.000Z</time>
        <extensions>
          <ns3:TrackPointExtension>
            <ns3:atemp>16.0</ns3:atemp>
          </ns3:TrackPointExtension>
        </extensions>
      </trkpt>
      <trkpt lat="42.58137308992445468902587890625" lon="20.08690036833286285400390625">
        <ele>2189</ele>
        <time>2026-06-15T10:00:09.000Z</time>
        <extensions>
          <ns3:TrackPointExtension>
            <ns3:atemp>16.0</ns3:atemp>
          </ns3:TrackPointExtension>
        </extensions>
      </trkpt>
      <trkpt lat="42.58137308992445468902587890625" lon="20.08690036833286285400390625">
        <ele>2189</ele>
        <time>2026-06-15T10:00:10.000Z</time>
        <extensions>
          <ns3:TrackPointExtension>
            <ns3:atemp>16.0</ns3:atemp>
          </ns3:TrackPointExtension>
        </extensions>
      </trkpt>
      <trkpt lat="42.58137308992445468902587890625" lon="20.08690036833286285400390625">
        <ele>2188.800048828125</ele>
        <time>2026-06-15T10:00:11.000Z</time>
        <extensions>
          <ns3:TrackPointExtension>
            <ns3:atemp>16.0</ns3:atemp>
          </ns3:TrackPointExtension>
        </extensions>
      </trkpt>
      <trkpt lat="42.58137308992445468902587890625" lon="20.08690036833286285400390625">
        <ele>2188.800048828125</ele>
        <time>2026-06-15T10:00:12.000Z</time>
        <extensions>
          <ns3:TrackPointExtension>
            <ns3:atemp>16.0</ns3:atemp>
          </ns3:TrackPointExtension>
        </extensions>
      </trkpt>
      <trkpt lat="42.58137308992445468902587890625" lon="20.08690036833286285400390625">
        <ele>2188.800048828125</ele>
        <time>2026-06-15T10:00:13.000Z</time>
        <extensions>
          <ns3:TrackPointExtension>
            <ns3:atemp>16.0</ns3:atemp>
          </ns3:TrackPointExtension>
        </extensions>
      </trkpt>
      <trkpt lat="42.58137308992445468902587890625" lon="20.08690036833286285400390625">
        <ele>2189</ele>
        <time>2026-06-15T10:00:14.000Z</time>
        <extensions>
          <ns3:TrackPointExtension>
            <ns3:atemp>16.0</ns3:atemp>
          </ns3:TrackPointExtension>
        </extensions>
      </trkpt>
      <trkpt lat="42.58137308992445468902587890625" lon="20.08690036833286285400390625">
        <ele>2189</ele>
        <time>2026-06-15T10:00:15.000Z</time>
        <extensions>
          <ns3:TrackPointExtension>
            <ns3:atemp>16.0</ns3:atemp>
          </ns3:TrackPointExtension>
        </extensions>
      </trkpt>
      <trkpt lat="42.58137308992445468902587890625" lon="20.08690036833286285400390625">
        <ele>2189</ele>
        <time>2026-06-15T10:00:16.000Z</time>
        <extensions>
          <ns3:TrackPointExtension>
            <ns3:atemp>16.0</ns3:atemp>
          </ns3:TrackPointExtension>
        </extensions>
      </trkpt>
      <trkpt lat="42.58137308992445468902587890625" lon="20.08690036833286285400390625">
        <ele>2189</ele>
        <time>2026-06-15T10:00:17.000Z</time>
        <extensions>
          <ns3:TrackPointExtension>
            <ns3:atemp>16.0</ns3:atemp>
          </ns3:TrackPointExtension>
        </extensions>
      </trkpt>
      <trkpt lat="42.58137308992445468902587890625" lon="20.08690036833286285400390625">
        <ele>2189</ele>
        <time>2026-06-15T10:00:18.000Z</time>
        <extensions>
          <ns3:TrackPointExtension>
            <ns3:atemp>16.0</ns3:atemp>
          </ns3:TrackPointExtension>
        </extensions>
      </trkpt>
      <trkpt lat="42.58137308992445468902587890625" lon="20.08690036833286285400390625">
        <ele>2189</ele>
        <time>2026-06-15T10:00:19.000Z</time>
        <extensions>
          <ns3:TrackPointExtension>
            <ns3:atemp>16.0</ns3:atemp>
          </ns3:TrackPointExtension>
        </extensions>
      </trkpt>
      <trkpt lat="42.58137308992445468902587890625" lon="20.08690036833286285400390625">
        <ele>2189</ele>
        <time>2026-06-15T10:00:20.000Z</time>
        <extensions>
          <ns3:TrackPointExtension>
            <ns3:atemp>16.0</ns3:atemp>
          </ns3:TrackPointExtension>
        </extensions>
      </trkpt>
      <trkpt lat="42.58137308992445468902587890625" lon="20.08690036833286285400390625">
        <ele>2189</ele>
        <time>2026-06-15T10:00:21.000Z</time>
        <extensions>
          <ns3:TrackPointExtension>
            <ns3:atemp>16.0</ns3:atemp>
          </ns3:TrackPointExtension>
        </extensions>
      </trkpt>
      <trkpt lat="42.58137308992445468902587890625" lon="20.08690036833286285400390625">
        <ele>2189</ele>
        <time>2026-06-15T10:00:22.000Z</time>
        <extensions>
          <ns3:TrackPointExtension>
            <ns3:atemp>16.0</ns3:atemp>
          </ns3:TrackPointExtension>
        </extensions>
      </trkpt>
      <trkpt lat="42.58137308992445468902587890625" lon="20.08690036833286285400390625">
        <ele>2188.800048828125</ele>
        <time>2026-06-15T10:00:23.000Z</time>
        <extensions>
          <ns3:TrackPointExtension>
            <ns3:atemp>16.0</ns3:atemp>
          </ns3:TrackPointExtension>
        </extensions>
      </trkpt>
      <trkpt lat="42.58137308992445468902587890625" lon="20.08690036833286285400390625">
        <ele>2188.800048828125</ele>
        <time>2026-06-15T10:00:24.000Z</time>
        <extensions>
          <ns3:TrackPointExtension>
            <ns3:atemp>16.0</ns3:atemp>
          </ns3:TrackPointExtension>
        </extensions>
      </trkpt>
      <trkpt lat="42.58137308992445468902587890625" lon="20.08690036833286285400390625">
        <ele>2188.800048828125</ele>
        <time>2026-06-15T10:00:25.000Z</time>
        <extensions>
          <ns3:TrackPointExtension>
            <ns3:atemp>16.0</ns3:atemp>
          </ns3:TrackPointExtension>
        </extensions>
      </trkpt>
      <trkpt lat="42.58137308992445468902587890625" lon="20.08690036833286285400390625">
        <ele>2188.800048828125</ele>
        <time>2026-06-15T10:00:26.000Z</time>
        <extensions>
          <ns3:TrackPointExtension>
            <ns3:atemp>16.0</ns3:atemp>
          </ns3:TrackPointExtension>
        </extensions>
      </trkpt>
      <trkpt lat="42.58137308992445468902587890625" lon="20.08690036833286285400390625">
        <ele>2188.800048828125</ele>
        <time>2026-06-15T10:00:27.000Z</time>
        <extensions>
          <ns3:TrackPointExtension>
            <ns3:atemp>16.0</ns3:atemp>
          </ns3:TrackPointExtension>
        </extensions>
      </trkpt>
      <trkpt lat="42.58137308992445468902587890625" lon="20.08690036833286285400390625">
        <ele>2188.800048828125</ele>
        <time>2026-06-15T10:00:28.000Z</time>
        <extensions>
          <ns3:TrackPointExtension>
            <ns3:atemp>16.0</ns3:atemp>
          </ns3:TrackPointExtension>
        </extensions>
      </trkpt>
      <trkpt lat="42.58137308992445468902587890625" lon="20.08690036833286285400390625">
        <ele>2188.800048828125</ele>
        <time>2026-06-15T10:00:29.000Z</time>
        <extensions>
          <ns3:TrackPointExtension>
            <ns3:atemp>16.0</ns3:atemp>
          </ns3:TrackPointExtension>
        </extensions>
      </trkpt>
      <trkpt lat="42.58137308992445468902587890625" lon="20.08690036833286285400390625">
        <ele>2188.800048828125</ele>
        <time>2026-06-15T10:00:30.000Z</time>
        <extensions>
          <ns3:TrackPointExtension>
            <ns3:atemp>16.0</ns3:atemp>
          </ns3:TrackPointExtension>
        </extensions>
      </trkpt>
      <trkpt lat="42.58137308992445468902587890625" lon="20.08690036833286285400390625">
        <ele>2188.800048828125</ele>
        <time>2026-06-15T10:00:31.000Z</time>
        <extensions>
          <ns3:TrackPointExtension>
            <ns3:atemp>16.0</ns3:atemp>
          </ns3:TrackPointExtension>
        </extensions>
      </trkpt>
      <trkpt lat="42.58137308992445468902587890625" lon="20.08690036833286285400390625">
        <ele>2188.800048828125</ele>
        <time>2026-06-15T10:00:32.000Z</time>
        <extensions>
          <ns3:TrackPointExtension>
            <ns3:atemp>16.0</ns3:atemp>
          </ns3:TrackPointExtension>
        </extensions>
      </trkpt>
      <trkpt lat="42.58137308992445468902587890625" lon="20.08690036833286285400390625">
        <ele>2188.800048828125</ele>
        <time>2026-06-15T10:00:33.000Z</time>
        <extensions>
          <ns3:TrackPointExtension>
            <ns3:atemp>16.0</ns3:atemp>
          </ns3:TrackPointExtension>
        </extensions>
      </trkpt>
      <trkpt lat="42.58137308992445468902587890625" lon="20.08690036833286285400390625">
        <ele>2188.800048828125</ele>
        <time>2026-06-15T10:00:34.000Z</time>
        <extensions>
          <ns3:TrackPointExtension>
            <ns3:atemp>16.0</ns3:atemp>
          </ns3:TrackPointExtension>
        </extensions>
      </trkpt>
      <trkpt lat="42.58137308992445468902587890625" lon="20.08690036833286285400390625">
        <ele>2188.800048828125</ele>
        <time>2026-06-15T10:00:35.000Z</time>
        <extensions>
          <ns3:TrackPointExtension>
            <ns3:atemp>16.0</ns3:atemp>
          </ns3:TrackPointExtension>
        </extensions>
      </trkpt>
      <trkpt lat="42.58137308992445468902587890625" lon="20.08690036833286285400390625">
        <ele>2188.60009765625</ele>
        <time>2026-06-15T10:00:36.000Z</time>
        <extensions>
          <ns3:TrackPointExtension>
            <ns3:atemp>16.0</ns3:atemp>
          </ns3:TrackPointExtension>
        </extensions>
      </trkpt>
      <trkpt lat="42.58137308992445468902587890625" lon="20.08690036833286285400390625">
        <ele>2188.60009765625</ele>
        <time>2026-06-15T10:00:37.000Z</time>
        <extensions>
          <ns3:TrackPointExtension>
            <ns3:atemp>16.0</ns3:atemp>
          </ns3:TrackPointExtension>
        </extensions>
      </trkpt>
      <trkpt lat="42.58137308992445468902587890625" lon="20.08690036833286285400390625">
        <ele>2188.60009765625</ele>
        <time>2026-06-15T10:00:38.000Z</time>
        <extensions>
          <ns3:TrackPointExtension>
            <ns3:atemp>16.0</ns3:atemp>
          </ns3:TrackPointExtension>
        </extensions>
      </trkpt>
      <trkpt lat="42.58137308992445468902587890625" lon="20.08690036833286285400390625">
        <ele>2188.800048828125</ele>
        <time>2026-06-15T10:00:39.000Z</time>
        <extensions>
          <ns3:TrackPointExtension>
            <ns3:atemp>16.0</ns3:atemp>
          </ns3:TrackPointExtension>
        </extensions>
      </trkpt>
      <trkpt lat="42.58137308992445468902587890625" lon="20.08690036833286285400390625">
        <ele>2188.800048828125</ele>
        <time>2026-06-15T10:00:40.000Z</time>
        <extensions>
          <ns3:TrackPointExtension>
            <ns3:atemp>16.0</ns3:atemp>
          </ns3:TrackPointExtension>
        </extensions>
      </trkpt>
      <trkpt lat="42.58137308992445468902587890625" lon="20.08690036833286285400390625">
        <ele>2188.800048828125</ele>
        <time>2026-06-15T10:00:41.000Z</time>
        <extensions>
          <ns3:TrackPointExtension>
            <ns3:atemp>16.0</ns3:atemp>
          </ns3:TrackPointExtension>
        </extensions>
      </trkpt>
      <trkpt lat="42.58137308992445468902587890625" lon="20.08690036833286285400390625">
        <ele>2189</ele>
        <time>2026-06-15T10:00:42.000Z</time>
        <extensions>
          <ns3:TrackPointExtension>
            <ns3:atemp>16.0</ns3:atemp>
          </ns3:TrackPointExtension>
        </extensions>
      </trkpt>
      <trkpt lat="42.58137308992445468902587890625" lon="20.08690036833286285400390625">
        <ele>2189.199951171875</ele>
        <time>2026-06-15T10:00:43.000Z</time>
        <extensions>
          <ns3:TrackPointExtension>
            <ns3:atemp>16.0</ns3:atemp>
          </ns3:TrackPointExtension>
        </extensions>
      </trkpt>
      <trkpt lat="42.58137308992445468902587890625" lon="20.08690036833286285400390625">
        <ele>2189.800048828125</ele>
        <time>2026-06-15T10:00:44.000Z</time>
        <extensions>
          <ns3:TrackPointExtension>
            <ns3:atemp>16.0</ns3:atemp>
          </ns3:TrackPointExtension>
        </extensions>
      </trkpt>
      <trkpt lat="42.58137308992445468902587890625" lon="20.08690036833286285400390625">
        <ele>2189.800048828125</ele>
        <time>2026-06-15T10:00:45.000Z</time>
        <extensions>
          <ns3:TrackPointExtension>
            <ns3:atemp>16.0</ns3:atemp>
          </ns3:TrackPointExtension>
        </extensions>
      </trkpt>
      <trkpt lat="42.58137308992445468902587890625" lon="20.08690036833286285400390625">
        <ele>2189.800048828125</ele>
        <time>2026-06-15T10:00:46.000Z</time>
        <extensions>
          <ns3:TrackPointExtension>
            <ns3:atemp>16.0</ns3:atemp>
          </ns3:TrackPointExtension>
        </extensions>
      </trkpt>
      <trkpt lat="42.58137308992445468902587890625" lon="20.08690036833286285400390625">
        <ele>2189.800048828125</ele>
        <time>2026-06-15T10:00:47.000Z</time>
        <extensions>
          <ns3:TrackPointExtension>
            <ns3:atemp>16.0</ns3:atemp>
          </ns3:TrackPointExtension>
        </extensions>
      </trkpt>
      <trkpt lat="42.58137308992445468902587890625" lon="20.08690036833286285400390625">
        <ele>2189.800048828125</ele>
        <time>2026-06-15T10:00:48.000Z</time>
        <extensions>
          <ns3:TrackPointExtension>
            <ns3:atemp>16.0</ns3:atemp>
          </ns3:TrackPointExtension>
        </extensions>
      </trkpt>
      <trkpt lat="42.58137308992445468902587890625" lon="20.08690036833286285400390625">
        <ele>2189.800048828125</ele>
        <time>2026-06-15T10:00:49.000Z</time>
        <extensions>
          <ns3:TrackPointExtension>
            <ns3:atemp>16.0</ns3:atemp>
          </ns3:TrackPointExtension>
        </extensions>
      </trkpt>
      <trkpt lat="42.58137308992445468902587890625" lon="20.08690036833286285400390625">
        <ele>2189.800048828125</ele>
        <time>2026-06-15T10:00:50.000Z</time>
        <extensions>
          <ns3:TrackPointExtension>
            <ns3:atemp>16.0</ns3:atemp>
          </ns3:TrackPointExtension>
        </extensions>
      </trkpt>
      <trkpt lat="42.58137308992445468902587890625" lon="20.08690036833286285400390625">
        <ele>2189.800048828125</ele>
        <time>2026-06-15T10:00:51.000Z</time>
        <extensions>
          <ns3:TrackPointExtension>
            <ns3:atemp>16.0</ns3:atemp>
          </ns3:TrackPointExtension>
        </extensions>
      </trkpt>
      <trkpt lat="42.58137308992445468902587890625" lon="20.08690036833286285400390625">
        <ele>2189.800048828125</ele>
        <time>2026-06-15T10:00:52.000Z</time>
        <extensions>
          <ns3:TrackPointExtension>
            <ns3:atemp>16.0</ns3:atemp>
          </ns3:TrackPointExtension>
        </extensions>
      </trkpt>
      <trkpt lat="42.58137308992445468902587890625" lon="20.08690036833286285400390625">
        <ele>2189.800048828125</ele>
        <time>2026-06-15T10:00:53.000Z</time>
        <extensions>
          <ns3:TrackPointExtension>
            <ns3:atemp>16.0</ns3:atemp>
          </ns3:TrackPointExtension>
        </extensions>
      </trkpt>
      <trkpt lat="42.58137308992445468902587890625" lon="20.08690036833286285400390625">
        <ele>2189.800048828125</ele>
        <time>2026-06-15T10:00:54.000Z</time>
        <extensions>
          <ns3:TrackPointExtension>
            <ns3:atemp>16.0</ns3:atemp>
          </ns3:TrackPointExtension>
        </extensions>
      </trkpt>
      <trkpt lat="42.58137308992445468902587890625" lon="20.08690036833286285400390625">
        <ele>2189.800048828125</ele>
        <time>2026-06-15T10:00:55.000Z</time>
        <extensions>
          <ns3:TrackPointExtension>
            <ns3:atemp>16.0</ns3:atemp>
          </ns3:TrackPointExtension>
        </extensions>
      </trkpt>
      <trkpt lat="42.58137308992445468902587890625" lon="20.08690036833286285400390625">
        <ele>2189.800048828125</ele>
        <time>2026-06-15T10:00:56.000Z</time>
        <extensions>
          <ns3:TrackPointExtension>
            <ns3:atemp>16.0</ns3:atemp>
          </ns3:TrackPointExtension>
        </extensions>
      </trkpt>
      <trkpt lat="42.58137308992445468902587890625" lon="20.08690036833286285400390625">
        <ele>2189.800048828125</ele>
        <time>2026-06-15T10:00:57.000Z</time>
        <extensions>
          <ns3:TrackPointExtension>
            <ns3:atemp>16.0</ns3:atemp>
          </ns3:TrackPointExtension>
        </extensions>
      </trkpt>
      <trkpt lat="42.58137308992445468902587890625" lon="20.08690036833286285400390625">
        <ele>2189.800048828125</ele>
        <time>2026-06-15T10:00:58.000Z</time>
        <extensions>
          <ns3:TrackPointExtension>
            <ns3:atemp>16.0</ns3:atemp>
          </ns3:TrackPointExtension>
        </extensions>
      </trkpt>
      <trkpt lat="42.58137308992445468902587890625" lon="20.08690036833286285400390625">
        <ele>2189.800048828125</ele>
        <time>2026-06-15T10:00:59.000Z</time>
        <extensions>
          <ns3:TrackPointExtension>
            <ns3:atemp>16.0</ns3:atemp>
          </ns3:TrackPointExtension>
        </extensions>
      </trkpt>
      <trkpt lat="42.58137308992445468902587890625" lon="20.08690036833286285400390625">
        <ele>2189.800048828125</ele>
        <time>2026-06-15T10:01:00.000Z</time>
        <extensions>
          <ns3:TrackPointExtension>
            <ns3:atemp>16.0</ns3:atemp>
          </ns3:TrackPointExtension>
        </extensions>
      </trkpt>
      <trkpt lat="42.58137308992445468902587890625" lon="20.08690036833286285400390625">
        <ele>2189.800048828125</ele>
        <time>2026-06-15T10:01:01.000Z</time>
        <extensions>
          <ns3:TrackPointExtension>
            <ns3:atemp>16.0</ns3:atemp>
          </ns3:TrackPointExtension>
        </extensions>
      </trkpt>
      <trkpt lat="42.58137308992445468902587890625" lon="20.08690036833286285400390625">
        <ele>2189.800048828125</ele>
        <time>2026-06-15T10:01:02.000Z</time>
        <extensions>
          <ns3:TrackPointExtension>
            <ns3:atemp>16.0</ns3:atemp>
          </ns3:TrackPointExtension>
        </extensions>
      </trkpt>
      <trkpt lat="42.58137308992445468902587890625" lon="20.08690036833286285400390625">
        <ele>2189.800048828125</ele>
        <time>2026-06-15T10:01:03.000Z</time>
        <extensions>
          <ns3:TrackPointExtension>
            <ns3:atemp>16.0</ns3:atemp>
          </ns3:TrackPointExtension>
        </extensions>
      </trkpt>
      <trkpt lat="42.58137308992445468902587890625" lon="20.08690036833286285400390625">
        <ele>2189.800048828125</ele>
        <time>2026-06-15T10:01:04.000Z</time>
        <extensions>
          <ns3:TrackPointExtension>
            <ns3:atemp>16.0</ns3:atemp>
          </ns3:TrackPointExtension>
        </extensions>
      </trkpt>
      <trkpt lat="42.58137308992445468902587890625" lon="20.08690036833286285400390625">
        <ele>2189.800048828125</ele>
        <time>2026-06-15T10:01:05.000Z</time>
        <extensions>
          <ns3:TrackPointExtension>
            <ns3:atemp>16.0</ns3:atemp>
          </ns3:TrackPointExtension>
        </extensions>
      </trkpt>
      <trkpt lat="42.58137308992445468902587890625" lon="20.08690036833286285400390625">
        <ele>2189.800048828125</ele>
        <time>2026-06-15T10:01:06.000Z</time>
        <extensions>
          <ns3:TrackPointExtension>
            <ns3:atemp>16.0</ns3:atemp>
          </ns3:TrackPointExtension>
        </extensions>
      </trkpt>
      <trkpt lat="42.58137308992445468902587890625" lon="20.08690036833286285400390625">
        <ele>2189.800048828125</ele>
        <time>2026-06-15T10:01:07.000Z</time>
        <extensions>
          <ns3:TrackPointExtension>
            <ns3:atemp>16.0</ns3:atemp>
          </ns3:TrackPointExtension>
        </extensions>
      </trkpt>
      <trkpt lat="42.58137308992445468902587890625" lon="20.08690036833286285400390625">
        <ele>2189.800048828125</ele>
        <time>2026-06-15T10:01:08.000Z</time>
        <extensions>
          <ns3:TrackPointExtension>
            <ns3:atemp>16.0</ns3:atemp>
          </ns3:TrackPointExtension>
        </extensions>
      </trkpt>
      <trkpt lat="42.58137308992445468902587890625" lon="20.08690036833286285400390625">
        <ele>2189.800048828125</ele>
        <time>2026-06-15T10:01:09.000Z</time>
        <extensions>
          <ns3:TrackPointExtension>
            <ns3:atemp>16.0</ns3:atemp>
          </ns3:TrackPointExtension>
        </extensions>
      </trkpt>
      <trkpt lat="42.58137308992445468902587890625" lon="20.08690036833286285400390625">
        <ele>2189.800048828125</ele>
        <time>2026-06-15T10:01:10.000Z</time>
        <extensions>
          <ns3:TrackPointExtension>
            <ns3:atemp>16.0</ns3:atemp>
          </ns3:TrackPointExtension>
        </extensions>
      </trkpt>
      <trkpt lat="42.58137308992445468902587890625" lon="20.08690036833286285400390625">
        <ele>2189.800048828125</ele>
        <time>2026-06-15T10:01:11.000Z</time>
        <extensions>
          <ns3:TrackPointExtension>
            <ns3:atemp>16.0</ns3:atemp>
          </ns3:TrackPointExtension>
        </extensions>
      </trkpt>
      <trkpt lat="42.58137308992445468902587890625" lon="20.08690036833286285400390625">
        <ele>2189.800048828125</ele>
        <time>2026-06-15T10:01:12.000Z</time>
        <extensions>
          <ns3:TrackPointExtension>
            <ns3:atemp>16.0</ns3:atemp>
          </ns3:TrackPointExtension>
        </extensions>
      </trkpt>
      <trkpt lat="42.58137308992445468902587890625" lon="20.08690036833286285400390625">
        <ele>2189.800048828125</ele>
        <time>2026-06-15T10:01:13.000Z</time>
        <extensions>
          <ns3:TrackPointExtension>
            <ns3:atemp>16.0</ns3:atemp>
          </ns3:TrackPointExtension>
        </extensions>
      </trkpt>
      <trkpt lat="42.58137308992445468902587890625" lon="20.08690036833286285400390625">
        <ele>2189.800048828125</ele>
        <time>2026-06-15T10:01:14.000Z</time>
        <extensions>
          <ns3:TrackPointExtension>
            <ns3:atemp>16.0</ns3:atemp>
          </ns3:TrackPointExtension>
        </extensions>
      </trkpt>
      <trkpt lat="42.58137308992445468902587890625" lon="20.08690036833286285400390625">
        <ele>2189.800048828125</ele>
        <time>2026-06-15T10:01:15.000Z</time>
        <extensions>
          <ns3:TrackPointExtension>
            <ns3:atemp>16.0</ns3:atemp>
          </ns3:TrackPointExtension>
        </extensions>
      </trkpt>
      <trkpt lat="42.58137308992445468902587890625" lon="20.08690036833286285400390625">
        <ele>2189.800048828125</ele>
        <time>2026-06-15T10:01:16.000Z</time>
        <extensions>
          <ns3:TrackPointExtension>
            <ns3:atemp>16.0</ns3:atemp>
          </ns3:TrackPointExtension>
        </extensions>
      </trkpt>
      <trkpt lat="42.58137308992445468902587890625" lon="20.08690036833286285400390625">
        <ele>2189.800048828125</ele>
        <time>2026-06-15T10:01:17.000Z</time>
        <extensions>
          <ns3:TrackPointExtension>
            <ns3:atemp>16.0</ns3:atemp>
          </ns3:TrackPointExtension>
        </extensions>
      </trkpt>
      <trkpt lat="42.58137308992445468902587890625" lon="20.08690036833286285400390625">
        <ele>2189.800048828125</ele>
        <time>2026-06-15T10:01:18.000Z</time>
        <extensions>
          <ns3:TrackPointExtension>
            <ns3:atemp>16.0</ns3:atemp>
          </ns3:TrackPointExtension>
        </extensions>
      </trkpt>
      <trkpt lat="42.58137308992445468902587890625" lon="20.08690036833286285400390625">
        <ele>2189.800048828125</ele>
        <time>2026-06-15T10:01:19.000Z</time>
        <extensions>
          <ns3:TrackPointExtension>
            <ns3:atemp>16.0</ns3:atemp>
          </ns3:TrackPointExtension>
        </extensions>
      </trkpt>
      <trkpt lat="42.58137308992445468902587890625" lon="20.08690036833286285400390625">
        <ele>2189.800048828125</ele>
        <time>2026-06-15T10:01:20.000Z</time>
        <extensions>
          <ns3:TrackPointExtension>
            <ns3:atemp>16.0</ns3:atemp>
          </ns3:TrackPointExtension>
        </extensions>
      </trkpt>
      <trkpt lat="42.58137308992445468902587890625" lon="20.08690036833286285400390625">
        <ele>2189.800048828125</ele>
        <time>2026-06-15T10:01:21.000Z</time>
        <extensions>
          <ns3:TrackPointExtension>
            <ns3:atemp>16.0</ns3:atemp>
          </ns3:TrackPointExtension>
        </extensions>
      </trkpt>
      <trkpt lat="42.58137308992445468902587890625" lon="20.08690036833286285400390625">
        <ele>2189.800048828125</ele>
        <time>2026-06-15T10:01:22.000Z</time>
        <extensions>
          <ns3:TrackPointExtension>
            <ns3:atemp>16.0</ns3:atemp>
          </ns3:TrackPointExtension>
        </extensions>
      </trkpt>
      <trkpt lat="42.58137308992445468902587890625" lon="20.08690036833286285400390625">
        <ele>2189.800048828125</ele>
        <time>2026-06-15T10:01:23.000Z</time>
        <extensions>
          <ns3:TrackPointExtension>
            <ns3:atemp>16.0</ns3:atemp>
          </ns3:TrackPointExtension>
        </extensions>
      </trkpt>
      <trkpt lat="42.58137308992445468902587890625" lon="20.08690036833286285400390625">
        <ele>2189.800048828125</ele>
        <time>2026-06-15T10:01:24.000Z</time>
        <extensions>
          <ns3:TrackPointExtension>
            <ns3:atemp>17.0</ns3:atemp>
          </ns3:TrackPointExtension>
        </extensions>
      </trkpt>
      <trkpt lat="42.58137308992445468902587890625" lon="20.08690036833286285400390625">
        <ele>2189.800048828125</ele>
        <time>2026-06-15T10:01:25.000Z</time>
        <extensions>
          <ns3:TrackPointExtension>
            <ns3:atemp>17.0</ns3:atemp>
          </ns3:TrackPointExtension>
        </extensions>
      </trkpt>
      <trkpt lat="42.58137308992445468902587890625" lon="20.08690036833286285400390625">
        <ele>2189.800048828125</ele>
        <time>2026-06-15T10:01:26.000Z</time>
        <extensions>
          <ns3:TrackPointExtension>
            <ns3:atemp>16.0</ns3:atemp>
          </ns3:TrackPointExtension>
        </extensions>
      </trkpt>
      <trkpt lat="42.58137308992445468902587890625" lon="20.08690036833286285400390625">
        <ele>2189.800048828125</ele>
        <time>2026-06-15T10:01:27.000Z</time>
        <extensions>
          <ns3:TrackPointExtension>
            <ns3:atemp>16.0</ns3:atemp>
          </ns3:TrackPointExtension>
        </extensions>
      </trkpt>
      <trkpt lat="42.58137308992445468902587890625" lon="20.08690036833286285400390625">
        <ele>2189.800048828125</ele>
        <time>2026-06-15T10:01:28.000Z</time>
        <extensions>
          <ns3:TrackPointExtension>
            <ns3:atemp>16.0</ns3:atemp>
          </ns3:TrackPointExtension>
        </extensions>
      </trkpt>
      <trkpt lat="42.58137308992445468902587890625" lon="20.08690036833286285400390625">
        <ele>2189.800048828125</ele>
        <time>2026-06-15T10:01:29.000Z</time>
        <extensions>
          <ns3:TrackPointExtension>
            <ns3:atemp>16.0</ns3:atemp>
          </ns3:TrackPointExtension>
        </extensions>
      </trkpt>
      <trkpt lat="42.58137308992445468902587890625" lon="20.08690036833286285400390625">
        <ele>2189.800048828125</ele>
        <time>2026-06-15T10:01:30.000Z</time>
        <extensions>
          <ns3:TrackPointExtension>
            <ns3:atemp>16.0</ns3:atemp>
          </ns3:TrackPointExtension>
        </extensions>
      </trkpt>
      <trkpt lat="42.58137308992445468902587890625" lon="20.08690036833286285400390625">
        <ele>2189.800048828125</ele>
        <time>2026-06-15T10:01:31.000Z</time>
        <extensions>
          <ns3:TrackPointExtension>
            <ns3:atemp>16.0</ns3:atemp>
          </ns3:TrackPointExtension>
        </extensions>
      </trkpt>
      <trkpt lat="42.58137308992445468902587890625" lon="20.08690036833286285400390625">
        <ele>2189.800048828125</ele>
        <time>2026-06-15T10:01:32.000Z</time>
        <extensions>
          <ns3:TrackPointExtension>
            <ns3:atemp>17.0</ns3:atemp>
          </ns3:TrackPointExtension>
        </extensions>
      </trkpt>
      <trkpt lat="42.58137308992445468902587890625" lon="20.08690036833286285400390625">
        <ele>2189.800048828125</ele>
        <time>2026-06-15T10:01:33.000Z</time>
        <extensions>
          <ns3:TrackPointExtension>
            <ns3:atemp>17.0</ns3:atemp>
          </ns3:TrackPointExtension>
        </extensions>
      </trkpt>
      <trkpt lat="42.58137308992445468902587890625" lon="20.08690036833286285400390625">
        <ele>2189.800048828125</ele>
        <time>2026-06-15T10:01:34.000Z</time>
        <extensions>
          <ns3:TrackPointExtension>
            <ns3:atemp>17.0</ns3:atemp>
          </ns3:TrackPointExtension>
        </extensions>
      </trkpt>
      <trkpt lat="42.58137308992445468902587890625" lon="20.08690036833286285400390625">
        <ele>2189.800048828125</ele>
        <time>2026-06-15T10:01:35.000Z</time>
        <extensions>
          <ns3:TrackPointExtension>
            <ns3:atemp>16.0</ns3:atemp>
          </ns3:TrackPointExtension>
        </extensions>
      </trkpt>
      <trkpt lat="42.58137308992445468902587890625" lon="20.08690036833286285400390625">
        <ele>2189.800048828125</ele>
        <time>2026-06-15T10:01:36.000Z</time>
        <extensions>
          <ns3:TrackPointExtension>
            <ns3:atemp>16.0</ns3:atemp>
          </ns3:TrackPointExtension>
        </extensions>
      </trkpt>
      <trkpt lat="42.58137308992445468902587890625" lon="20.08690036833286285400390625">
        <ele>2189.800048828125</ele>
        <time>2026-06-15T10:01:37.000Z</time>
        <extensions>
          <ns3:TrackPointExtension>
            <ns3:atemp>16.0</ns3:atemp>
          </ns3:TrackPointExtension>
        </extensions>
      </trkpt>
      <trkpt lat="42.58137308992445468902587890625" lon="20.08690036833286285400390625">
        <ele>2189.800048828125</ele>
        <time>2026-06-15T10:01:38.000Z</time>
        <extensions>
          <ns3:TrackPointExtension>
            <ns3:atemp>16.0</ns3:atemp>
          </ns3:TrackPointExtension>
        </extensions>
      </trkpt>
      <trkpt lat="42.58137308992445468902587890625" lon="20.08690036833286285400390625">
        <ele>2189.800048828125</ele>
        <time>2026-06-15T10:01:39.000Z</time>
        <extensions>
          <ns3:TrackPointExtension>
            <ns3:atemp>16.0</ns3:atemp>
          </ns3:TrackPointExtension>
        </extensions>
      </trkpt>
      <trkpt lat="42.58137308992445468902587890625" lon="20.08690036833286285400390625">
        <ele>2189.800048828125</ele>
        <time>2026-06-15T10:01:40.000Z</time>
        <extensions>
          <ns3:TrackPointExtension>
            <ns3:atemp>16.0</ns3:atemp>
          </ns3:TrackPointExtension>
        </extensions>
      </trkpt>
      <trkpt lat="42.58137308992445468902587890625" lon="20.08690036833286285400390625">
        <ele>2189.800048828125</ele>
        <time>2026-06-15T10:01:41.000Z</time>
        <extensions>
          <ns3:TrackPointExtension>
            <ns3:atemp>16.0</ns3:atemp>
          </ns3:TrackPointExtension>
        </extensions>
      </trkpt>
      <trkpt lat="42.58137308992445468902587890625" lon="20.08690036833286285400390625">
        <ele>2189.800048828125</ele>
        <time>2026-06-15T10:01:42.000Z</time>
        <extensions>
          <ns3:TrackPointExtension>
            <ns3:atemp>17.0</ns3:atemp>
          </ns3:TrackPointExtension>
        </extensions>
      </trkpt>
      <trkpt lat="42.58137308992445468902587890625" lon="20.08690036833286285400390625">
        <ele>2189.800048828125</ele>
        <time>2026-06-15T10:01:43.000Z</time>
        <extensions>
          <ns3:TrackPointExtension>
            <ns3:atemp>17.0</ns3:atemp>
          </ns3:TrackPointExtension>
        </extensions>
      </trkpt>
      <trkpt lat="42.58137308992445468902587890625" lon="20.08690036833286285400390625">
        <ele>2189.800048828125</ele>
        <time>2026-06-15T10:01:44.000Z</time>
        <extensions>
          <ns3:TrackPointExtension>
            <ns3:atemp>17.0</ns3:atemp>
          </ns3:TrackPointExtension>
        </extensions>
      </trkpt>
      <trkpt lat="42.58137308992445468902587890625" lon="20.08690036833286285400390625">
        <ele>2189.800048828125</ele>
        <time>2026-06-15T10:01:45.000Z</time>
        <extensions>
          <ns3:TrackPointExtension>
            <ns3:atemp>17.0</ns3:atemp>
          </ns3:TrackPointExtension>
        </extensions>
      </trkpt>
      <trkpt lat="42.58137308992445468902587890625" lon="20.08690036833286285400390625">
        <ele>2189.800048828125</ele>
        <time>2026-06-15T10:01:46.000Z</time>
        <extensions>
          <ns3:TrackPointExtension>
            <ns3:atemp>17.0</ns3:atemp>
          </ns3:TrackPointExtension>
        </extensions>
      </trkpt>
      <trkpt lat="42.58137308992445468902587890625" lon="20.08690036833286285400390625">
        <ele>2189.800048828125</ele>
        <time>2026-06-15T10:01:47.000Z</time>
        <extensions>
          <ns3:TrackPointExtension>
            <ns3:atemp>17.0</ns3:atemp>
          </ns3:TrackPointExtension>
        </extensions>
      </trkpt>
      <trkpt lat="42.58137308992445468902587890625" lon="20.08690036833286285400390625">
        <ele>2189.800048828125</ele>
        <time>2026-06-15T10:01:48.000Z</time>
        <extensions>
          <ns3:TrackPointExtension>
            <ns3:atemp>16.0</ns3:atemp>
          </ns3:TrackPointExtension>
        </extensions>
      </trkpt>
      <trkpt lat="42.58137308992445468902587890625" lon="20.08690036833286285400390625">
        <ele>2189.800048828125</ele>
        <time>2026-06-15T10:01:49.000Z</time>
        <extensions>
          <ns3:TrackPointExtension>
            <ns3:atemp>17.0</ns3:atemp>
          </ns3:TrackPointExtension>
        </extensions>
      </trkpt>
      <trkpt lat="42.58137308992445468902587890625" lon="20.08690036833286285400390625">
        <ele>2189.800048828125</ele>
        <time>2026-06-15T10:01:50.000Z</time>
        <extensions>
          <ns3:TrackPointExtension>
            <ns3:atemp>17.0</ns3:atemp>
          </ns3:TrackPointExtension>
        </extensions>
      </trkpt>
      <trkpt lat="42.58137308992445468902587890625" lon="20.08690036833286285400390625">
        <ele>2189.800048828125</ele>
        <time>2026-06-15T10:01:51.000Z</time>
        <extensions>
          <ns3:TrackPointExtension>
            <ns3:atemp>17.0</ns3:atemp>
          </ns3:TrackPointExtension>
        </extensions>
      </trkpt>
      <trkpt lat="42.58137308992445468902587890625" lon="20.08690036833286285400390625">
        <ele>2189.800048828125</ele>
        <time>2026-06-15T10:01:52.000Z</time>
        <extensions>
          <ns3:TrackPointExtension>
            <ns3:atemp>17.0</ns3:atemp>
          </ns3:TrackPointExtension>
        </extensions>
      </trkpt>
      <trkpt lat="42.58137308992445468902587890625" lon="20.08690036833286285400390625">
        <ele>2189.800048828125</ele>
        <time>2026-06-15T10:01:53.000Z</time>
        <extensions>
          <ns3:TrackPointExtension>
            <ns3:atemp>17.0</ns3:atemp>
          </ns3:TrackPointExtension>
        </extensions>
      </trkpt>
      <trkpt lat="42.58137308992445468902587890625" lon="20.08690036833286285400390625">
        <ele>2189.800048828125</ele>
        <time>2026-06-15T10:01:54.000Z</time>
        <extensions>
          <ns3:TrackPointExtension>
            <ns3:atemp>17.0</ns3:atemp>
          </ns3:TrackPointExtension>
        </extensions>
      </trkpt>
      <trkpt lat="42.58137308992445468902587890625" lon="20.08690036833286285400390625">
        <ele>2189.800048828125</ele>
        <time>2026-06-15T10:01:55.000Z</time>
        <extensions>
          <ns3:TrackPointExtension>
            <ns3:atemp>17.0</ns3:atemp>
          </ns3:TrackPointExtension>
        </extensions>
      </trkpt>
      <trkpt lat="42.58137308992445468902587890625" lon="20.08690036833286285400390625">
        <ele>2189.800048828125</ele>
        <time>2026-06-15T10:01:56.000Z</time>
        <extensions>
          <ns3:TrackPointExtension>
            <ns3:atemp>17.0</ns3:atemp>
          </ns3:TrackPointExtension>
        </extensions>
      </trkpt>
      <trkpt lat="42.58137308992445468902587890625" lon="20.08690036833286285400390625">
        <ele>2189.800048828125</ele>
        <time>2026-06-15T10:01:57.000Z</time>
        <extensions>
          <ns3:TrackPointExtension>
            <ns3:atemp>17.0</ns3:atemp>
          </ns3:TrackPointExtension>
        </extensions>
      </trkpt>
      <trkpt lat="42.58137308992445468902587890625" lon="20.08690036833286285400390625">
        <ele>2189.800048828125</ele>
        <time>2026-06-15T10:01:58.000Z</time>
        <extensions>
          <ns3:TrackPointExtension>
            <ns3:atemp>17.0</ns3:atemp>
          </ns3:TrackPointExtension>
        </extensions>
      </trkpt>
      <trkpt lat="42.58137308992445468902587890625" lon="20.08690036833286285400390625">
        <ele>2189.800048828125</ele>
        <time>2026-06-15T10:01:59.000Z</time>
        <extensions>
          <ns3:TrackPointExtension>
            <ns3:atemp>17.0</ns3:atemp>
          </ns3:TrackPointExtension>
        </extensions>
      </trkpt>
      <trkpt lat="42.58137308992445468902587890625" lon="20.08690036833286285400390625">
        <ele>2189.800048828125</ele>
        <time>2026-06-15T10:02:00.000Z</time>
        <extensions>
          <ns3:TrackPointExtension>
            <ns3:atemp>17.0</ns3:atemp>
          </ns3:TrackPointExtension>
        </extensions>
      </trkpt>
      <trkpt lat="42.58137308992445468902587890625" lon="20.08690036833286285400390625">
        <ele>2189.800048828125</ele>
        <time>2026-06-15T10:02:01.000Z</time>
        <extensions>
          <ns3:TrackPointExtension>
            <ns3:atemp>17.0</ns3:atemp>
          </ns3:TrackPointExtension>
        </extensions>
      </trkpt>
      <trkpt lat="42.58137308992445468902587890625" lon="20.08690036833286285400390625">
        <ele>2189.800048828125</ele>
        <time>2026-06-15T10:02:02.000Z</time>
        <extensions>
          <ns3:TrackPointExtension>
            <ns3:atemp>17.0</ns3:atemp>
          </ns3:TrackPointExtension>
        </extensions>
      </trkpt>
      <trkpt lat="42.58137308992445468902587890625" lon="20.08690036833286285400390625">
        <ele>2189.800048828125</ele>
        <time>2026-06-15T10:02:03.000Z</time>
        <extensions>
          <ns3:TrackPointExtension>
            <ns3:atemp>17.0</ns3:atemp>
          </ns3:TrackPointExtension>
        </extensions>
      </trkpt>
      <trkpt lat="42.58137308992445468902587890625" lon="20.08690036833286285400390625">
        <ele>2189.800048828125</ele>
        <time>2026-06-15T10:02:04.000Z</time>
        <extensions>
          <ns3:TrackPointExtension>
            <ns3:atemp>17.0</ns3:atemp>
          </ns3:TrackPointExtension>
        </extensions>
      </trkpt>
      <trkpt lat="42.58137308992445468902587890625" lon="20.08690036833286285400390625">
        <ele>2189.800048828125</ele>
        <time>2026-06-15T10:02:05.000Z</time>
        <extensions>
          <ns3:TrackPointExtension>
            <ns3:atemp>17.0</ns3:atemp>
          </ns3:TrackPointExtension>
        </extensions>
      </trkpt>
      <trkpt lat="42.58137308992445468902587890625" lon="20.08690036833286285400390625">
        <ele>2189.800048828125</ele>
        <time>2026-06-15T10:02:06.000Z</time>
        <extensions>
          <ns3:TrackPointExtension>
            <ns3:atemp>17.0</ns3:atemp>
          </ns3:TrackPointExtension>
        </extensions>
      </trkpt>
      <trkpt lat="42.58137308992445468902587890625" lon="20.08690036833286285400390625">
        <ele>2189.800048828125</ele>
        <time>2026-06-15T10:02:07.000Z</time>
        <extensions>
          <ns3:TrackPointExtension>
            <ns3:atemp>17.0</ns3:atemp>
          </ns3:TrackPointExtension>
        </extensions>
      </trkpt>
      <trkpt lat="42.58137308992445468902587890625" lon="20.08690036833286285400390625">
        <ele>2189.800048828125</ele>
        <time>2026-06-15T10:02:08.000Z</time>
        <extensions>
          <ns3:TrackPointExtension>
            <ns3:atemp>17.0</ns3:atemp>
          </ns3:TrackPointExtension>
        </extensions>
      </trkpt>
      <trkpt lat="42.58137308992445468902587890625" lon="20.08690036833286285400390625">
        <ele>2189.800048828125</ele>
        <time>2026-06-15T10:02:09.000Z</time>
        <extensions>
          <ns3:TrackPointExtension>
            <ns3:atemp>17.0</ns3:atemp>
          </ns3:TrackPointExtension>
        </extensions>
      </trkpt>
      <trkpt lat="42.58137308992445468902587890625" lon="20.08690036833286285400390625">
        <ele>2189.800048828125</ele>
        <time>2026-06-15T10:02:10.000Z</time>
        <extensions>
          <ns3:TrackPointExtension>
            <ns3:atemp>17.0</ns3:atemp>
          </ns3:TrackPointExtension>
        </extensions>
      </trkpt>
      <trkpt lat="42.58137308992445468902587890625" lon="20.08690036833286285400390625">
        <ele>2189.800048828125</ele>
        <time>2026-06-15T10:02:11.000Z</time>
        <extensions>
          <ns3:TrackPointExtension>
            <ns3:atemp>17.0</ns3:atemp>
          </ns3:TrackPointExtension>
        </extensions>
      </trkpt>
      <trkpt lat="42.58137308992445468902587890625" lon="20.08690036833286285400390625">
        <ele>2189.800048828125</ele>
        <time>2026-06-15T10:02:12.000Z</time>
        <extensions>
          <ns3:TrackPointExtension>
            <ns3:atemp>17.0</ns3:atemp>
          </ns3:TrackPointExtension>
        </extensions>
      </trkpt>
      <trkpt lat="42.58137308992445468902587890625" lon="20.08690036833286285400390625">
        <ele>2189.800048828125</ele>
        <time>2026-06-15T10:02:13.000Z</time>
        <extensions>
          <ns3:TrackPointExtension>
            <ns3:atemp>17.0</ns3:atemp>
          </ns3:TrackPointExtension>
        </extensions>
      </trkpt>
      <trkpt lat="42.58137308992445468902587890625" lon="20.08690036833286285400390625">
        <ele>2189.800048828125</ele>
        <time>2026-06-15T10:02:14.000Z</time>
        <extensions>
          <ns3:TrackPointExtension>
            <ns3:atemp>17.0</ns3:atemp>
          </ns3:TrackPointExtension>
        </extensions>
      </trkpt>
      <trkpt lat="42.58137308992445468902587890625" lon="20.08690036833286285400390625">
        <ele>2189.800048828125</ele>
        <time>2026-06-15T10:02:15.000Z</time>
        <extensions>
          <ns3:TrackPointExtension>
            <ns3:atemp>17.0</ns3:atemp>
          </ns3:TrackPointExtension>
        </extensions>
      </trkpt>
      <trkpt lat="42.58137308992445468902587890625" lon="20.08690036833286285400390625">
        <ele>2189.800048828125</ele>
        <time>2026-06-15T10:02:16.000Z</time>
        <extensions>
          <ns3:TrackPointExtension>
            <ns3:atemp>17.0</ns3:atemp>
          </ns3:TrackPointExtension>
        </extensions>
      </trkpt>
      <trkpt lat="42.58137308992445468902587890625" lon="20.08690036833286285400390625">
        <ele>2189.800048828125</ele>
        <time>2026-06-15T10:02:17.000Z</time>
        <extensions>
          <ns3:TrackPointExtension>
            <ns3:atemp>17.0</ns3:atemp>
          </ns3:TrackPointExtension>
        </extensions>
      </trkpt>
      <trkpt lat="42.58137308992445468902587890625" lon="20.08690036833286285400390625">
        <ele>2189.800048828125</ele>
        <time>2026-06-15T10:02:18.000Z</time>
        <extensions>
          <ns3:TrackPointExtension>
            <ns3:atemp>17.0</ns3:atemp>
          </ns3:TrackPointExtension>
        </extensions>
      </trkpt>
      <trkpt lat="42.58137308992445468902587890625" lon="20.08690036833286285400390625">
        <ele>2189.800048828125</ele>
        <time>2026-06-15T10:02:19.000Z</time>
        <extensions>
          <ns3:TrackPointExtension>
            <ns3:atemp>17.0</ns3:atemp>
          </ns3:TrackPointExtension>
        </extensions>
      </trkpt>
      <trkpt lat="42.58137308992445468902587890625" lon="20.08690036833286285400390625">
        <ele>2189.800048828125</ele>
        <time>2026-06-15T10:02:20.000Z</time>
        <extensions>
          <ns3:TrackPointExtension>
            <ns3:atemp>17.0</ns3:atemp>
          </ns3:TrackPointExtension>
        </extensions>
      </trkpt>
      <trkpt lat="42.58137308992445468902587890625" lon="20.08690036833286285400390625">
        <ele>2189.800048828125</ele>
        <time>2026-06-15T10:02:21.000Z</time>
        <extensions>
          <ns3:TrackPointExtension>
            <ns3:atemp>17.0</ns3:atemp>
          </ns3:TrackPointExtension>
        </extensions>
      </trkpt>
      <trkpt lat="42.58137308992445468902587890625" lon="20.08690036833286285400390625">
        <ele>2189.800048828125</ele>
        <time>2026-06-15T10:02:22.000Z</time>
        <extensions>
          <ns3:TrackPointExtension>
            <ns3:atemp>17.0</ns3:atemp>
          </ns3:TrackPointExtension>
        </extensions>
      </trkpt>
      <trkpt lat="42.58137308992445468902587890625" lon="20.08690036833286285400390625">
        <ele>2189.800048828125</ele>
        <time>2026-06-15T10:02:23.000Z</time>
        <extensions>
          <ns3:TrackPointExtension>
            <ns3:atemp>17.0</ns3:atemp>
          </ns3:TrackPointExtension>
        </extensions>
      </trkpt>
      <trkpt lat="42.58137308992445468902587890625" lon="20.08690036833286285400390625">
        <ele>2189.800048828125</ele>
        <time>2026-06-15T10:02:24.000Z</time>
        <extensions>
          <ns3:TrackPointExtension>
            <ns3:atemp>17.0</ns3:atemp>
          </ns3:TrackPointExtension>
        </extensions>
      </trkpt>
      <trkpt lat="42.58137308992445468902587890625" lon="20.08690036833286285400390625">
        <ele>2189.800048828125</ele>
        <time>2026-06-15T10:02:25.000Z</time>
        <extensions>
          <ns3:TrackPointExtension>
            <ns3:atemp>17.0</ns3:atemp>
          </ns3:TrackPointExtension>
        </extensions>
      </trkpt>
      <trkpt lat="42.58137308992445468902587890625" lon="20.08690036833286285400390625">
        <ele>2189.800048828125</ele>
        <time>2026-06-15T10:02:26.000Z</time>
        <extensions>
          <ns3:TrackPointExtension>
            <ns3:atemp>17.0</ns3:atemp>
          </ns3:TrackPointExtension>
        </extensions>
      </trkpt>
      <trkpt lat="42.58137308992445468902587890625" lon="20.08690036833286285400390625">
        <ele>2189.800048828125</ele>
        <time>2026-06-15T10:02:27.000Z</time>
        <extensions>
          <ns3:TrackPointExtension>
            <ns3:atemp>17.0</ns3:atemp>
          </ns3:TrackPointExtension>
        </extensions>
      </trkpt>
      <trkpt lat="42.58137308992445468902587890625" lon="20.08690036833286285400390625">
        <ele>2189.800048828125</ele>
        <time>2026-06-15T10:02:28.000Z</time>
        <extensions>
          <ns3:TrackPointExtension>
            <ns3:atemp>17.0</ns3:atemp>
          </ns3:TrackPointExtension>
        </extensions>
      </trkpt>
      <trkpt lat="42.58137308992445468902587890625" lon="20.08690036833286285400390625">
        <ele>2189.800048828125</ele>
        <time>2026-06-15T10:02:29.000Z</time>
        <extensions>
          <ns3:TrackPointExtension>
            <ns3:atemp>17.0</ns3:atemp>
          </ns3:TrackPointExtension>
        </extensions>
      </trkpt>
      <trkpt lat="42.58137308992445468902587890625" lon="20.08690036833286285400390625">
        <ele>2189.800048828125</ele>
        <time>2026-06-15T10:02:30.000Z</time>
        <extensions>
          <ns3:TrackPointExtension>
            <ns3:atemp>17.0</ns3:atemp>
          </ns3:TrackPointExtension>
        </extensions>
      </trkpt>
      <trkpt lat="42.58137308992445468902587890625" lon="20.08690036833286285400390625">
        <ele>2189.800048828125</ele>
        <time>2026-06-15T10:02:31.000Z</time>
        <extensions>
          <ns3:TrackPointExtension>
            <ns3:atemp>17.0</ns3:atemp>
          </ns3:TrackPointExtension>
        </extensions>
      </trkpt>
      <trkpt lat="42.58137308992445468902587890625" lon="20.08690036833286285400390625">
        <ele>2189.800048828125</ele>
        <time>2026-06-15T10:02:32.000Z</time>
        <extensions>
          <ns3:TrackPointExtension>
            <ns3:atemp>17.0</ns3:atemp>
          </ns3:TrackPointExtension>
        </extensions>
      </trkpt>
      <trkpt lat="42.58137308992445468902587890625" lon="20.08690036833286285400390625">
        <ele>2189.800048828125</ele>
        <time>2026-06-15T10:02:33.000Z</time>
        <extensions>
          <ns3:TrackPointExtension>
            <ns3:atemp>17.0</ns3:atemp>
          </ns3:TrackPointExtension>
        </extensions>
      </trkpt>
      <trkpt lat="42.58137308992445468902587890625" lon="20.08690036833286285400390625">
        <ele>2189.800048828125</ele>
        <time>2026-06-15T10:02:34.000Z</time>
        <extensions>
          <ns3:TrackPointExtension>
            <ns3:atemp>17.0</ns3:atemp>
          </ns3:TrackPointExtension>
        </extensions>
      </trkpt>
      <trkpt lat="42.58137308992445468902587890625" lon="20.08690036833286285400390625">
        <ele>2189.800048828125</ele>
        <time>2026-06-15T10:02:35.000Z</time>
        <extensions>
          <ns3:TrackPointExtension>
            <ns3:atemp>17.0</ns3:atemp>
          </ns3:TrackPointExtension>
        </extensions>
      </trkpt>
      <trkpt lat="42.58137308992445468902587890625" lon="20.08690036833286285400390625">
        <ele>2189.800048828125</ele>
        <time>2026-06-15T10:02:36.000Z</time>
        <extensions>
          <ns3:TrackPointExtension>
            <ns3:atemp>17.0</ns3:atemp>
          </ns3:TrackPointExtension>
        </extensions>
      </trkpt>
      <trkpt lat="42.58137308992445468902587890625" lon="20.08690036833286285400390625">
        <ele>2189.800048828125</ele>
        <time>2026-06-15T10:02:37.000Z</time>
        <extensions>
          <ns3:TrackPointExtension>
            <ns3:atemp>17.0</ns3:atemp>
          </ns3:TrackPointExtension>
        </extensions>
      </trkpt>
      <trkpt lat="42.58137308992445468902587890625" lon="20.08690036833286285400390625">
        <ele>2189.800048828125</ele>
        <time>2026-06-15T10:02:38.000Z</time>
        <extensions>
          <ns3:TrackPointExtension>
            <ns3:atemp>17.0</ns3:atemp>
          </ns3:TrackPointExtension>
        </extensions>
      </trkpt>
      <trkpt lat="42.58137308992445468902587890625" lon="20.08690036833286285400390625">
        <ele>2189.800048828125</ele>
        <time>2026-06-15T10:02:39.000Z</time>
        <extensions>
          <ns3:TrackPointExtension>
            <ns3:atemp>17.0</ns3:atemp>
          </ns3:TrackPointExtension>
        </extensions>
      </trkpt>
      <trkpt lat="42.58137308992445468902587890625" lon="20.08690036833286285400390625">
        <ele>2189.800048828125</ele>
        <time>2026-06-15T10:02:40.000Z</time>
        <extensions>
          <ns3:TrackPointExtension>
            <ns3:atemp>17.0</ns3:atemp>
          </ns3:TrackPointExtension>
        </extensions>
      </trkpt>
      <trkpt lat="42.58137308992445468902587890625" lon="20.08690036833286285400390625">
        <ele>2189.800048828125</ele>
        <time>2026-06-15T10:02:41.000Z</time>
        <extensions>
          <ns3:TrackPointExtension>
            <ns3:atemp>17.0</ns3:atemp>
          </ns3:TrackPointExtension>
        </extensions>
      </trkpt>
      <trkpt lat="42.58137308992445468902587890625" lon="20.08690036833286285400390625">
        <ele>2189.800048828125</ele>
        <time>2026-06-15T10:02:42.000Z</time>
        <extensions>
          <ns3:TrackPointExtension>
            <ns3:atemp>17.0</ns3:atemp>
          </ns3:TrackPointExtension>
        </extensions>
      </trkpt>
      <trkpt lat="42.58137308992445468902587890625" lon="20.08690036833286285400390625">
        <ele>2189.800048828125</ele>
        <time>2026-06-15T10:02:43.000Z</time>
        <extensions>
          <ns3:TrackPointExtension>
            <ns3:atemp>17.0</ns3:atemp>
          </ns3:TrackPointExtension>
        </extensions>
      </trkpt>
      <trkpt lat="42.58137308992445468902587890625" lon="20.08690036833286285400390625">
        <ele>2189.800048828125</ele>
        <time>2026-06-15T10:02:44.000Z</time>
        <extensions>
          <ns3:TrackPointExtension>
            <ns3:atemp>17.0</ns3:atemp>
          </ns3:TrackPointExtension>
        </extensions>
      </trkpt>
      <trkpt lat="42.58137308992445468902587890625" lon="20.08690036833286285400390625">
        <ele>2189.800048828125</ele>
        <time>2026-06-15T10:02:45.000Z</time>
        <extensions>
          <ns3:TrackPointExtension>
            <ns3:atemp>17.0</ns3:atemp>
          </ns3:TrackPointExtension>
        </extensions>
      </trkpt>
      <trkpt lat="42.58137308992445468902587890625" lon="20.08690036833286285400390625">
        <ele>2189.800048828125</ele>
        <time>2026-06-15T10:02:46.000Z</time>
        <extensions>
          <ns3:TrackPointExtension>
            <ns3:atemp>17.0</ns3:atemp>
          </ns3:TrackPointExtension>
        </extensions>
      </trkpt>
      <trkpt lat="42.58137308992445468902587890625" lon="20.08690036833286285400390625">
        <ele>2189.800048828125</ele>
        <time>2026-06-15T10:02:47.000Z</time>
        <extensions>
          <ns3:TrackPointExtension>
            <ns3:atemp>17.0</ns3:atemp>
          </ns3:TrackPointExtension>
        </extensions>
      </trkpt>
      <trkpt lat="42.58137308992445468902587890625" lon="20.08690036833286285400390625">
        <ele>2189.800048828125</ele>
        <time>2026-06-15T10:02:48.000Z</time>
        <extensions>
          <ns3:TrackPointExtension>
            <ns3:atemp>17.0</ns3:atemp>
          </ns3:TrackPointExtension>
        </extensions>
      </trkpt>
      <trkpt lat="42.58137308992445468902587890625" lon="20.08690036833286285400390625">
        <ele>2189.800048828125</ele>
        <time>2026-06-15T10:02:49.000Z</time>
        <extensions>
          <ns3:TrackPointExtension>
            <ns3:atemp>17.0</ns3:atemp>
          </ns3:TrackPointExtension>
        </extensions>
      </trkpt>
      <trkpt lat="42.58137308992445468902587890625" lon="20.08690036833286285400390625">
        <ele>2189.800048828125</ele>
        <time>2026-06-15T10:02:50.000Z</time>
        <extensions>
          <ns3:TrackPointExtension>
            <ns3:atemp>17.0</ns3:atemp>
          </ns3:TrackPointExtension>
        </extensions>
      </trkpt>
      <trkpt lat="42.58137308992445468902587890625" lon="20.08690036833286285400390625">
        <ele>2189.800048828125</ele>
        <time>2026-06-15T10:02:51.000Z</time>
        <extensions>
          <ns3:TrackPointExtension>
            <ns3:atemp>17.0</ns3:atemp>
          </ns3:TrackPointExtension>
        </extensions>
      </trkpt>
      <trkpt lat="42.58137308992445468902587890625" lon="20.08690036833286285400390625">
        <ele>2189.800048828125</ele>
        <time>2026-06-15T10:02:52.000Z</time>
        <extensions>
          <ns3:TrackPointExtension>
            <ns3:atemp>17.0</ns3:atemp>
          </ns3:TrackPointExtension>
        </extensions>
      </trkpt>
      <trkpt lat="42.58137308992445468902587890625" lon="20.08690036833286285400390625">
        <ele>2189.800048828125</ele>
        <time>2026-06-15T10:02:53.000Z</time>
        <extensions>
          <ns3:TrackPointExtension>
            <ns3:atemp>17.0</ns3:atemp>
          </ns3:TrackPointExtension>
        </extensions>
      </trkpt>
      <trkpt lat="42.58137308992445468902587890625" lon="20.08690036833286285400390625">
        <ele>2189.800048828125</ele>
        <time>2026-06-15T10:02:54.000Z</time>
        <extensions>
          <ns3:TrackPointExtension>
            <ns3:atemp>17.0</ns3:atemp>
          </ns3:TrackPointExtension>
        </extensions>
      </trkpt>
      <trkpt lat="42.58137308992445468902587890625" lon="20.08690036833286285400390625">
        <ele>2189.800048828125</ele>
        <time>2026-06-15T10:02:55.000Z</time>
        <extensions>
          <ns3:TrackPointExtension>
            <ns3:atemp>17.0</ns3:atemp>
          </ns3:TrackPointExtension>
        </extensions>
      </trkpt>
      <trkpt lat="42.58137308992445468902587890625" lon="20.08690036833286285400390625">
        <ele>2189.800048828125</ele>
        <time>2026-06-15T10:02:56.000Z</time>
        <extensions>
          <ns3:TrackPointExtension>
            <ns3:atemp>17.0</ns3:atemp>
          </ns3:TrackPointExtension>
        </extensions>
      </trkpt>
      <trkpt lat="42.58137308992445468902587890625" lon="20.08690036833286285400390625">
        <ele>2189.800048828125</ele>
        <time>2026-06-15T10:02:57.000Z</time>
        <extensions>
          <ns3:TrackPointExtension>
            <ns3:atemp>17.0</ns3:atemp>
          </ns3:TrackPointExtension>
        </extensions>
      </trkpt>
      <trkpt lat="42.58137308992445468902587890625" lon="20.08690036833286285400390625">
        <ele>2189.800048828125</ele>
        <time>2026-06-15T10:02:58.000Z</time>
        <extensions>
          <ns3:TrackPointExtension>
            <ns3:atemp>17.0</ns3:atemp>
          </ns3:TrackPointExtension>
        </extensions>
      </trkpt>
      <trkpt lat="42.58137308992445468902587890625" lon="20.08690036833286285400390625">
        <ele>2189.800048828125</ele>
        <time>2026-06-15T10:02:59.000Z</time>
        <extensions>
          <ns3:TrackPointExtension>
            <ns3:atemp>17.0</ns3:atemp>
          </ns3:TrackPointExtension>
        </extensions>
      </trkpt>
      <trkpt lat="42.58137308992445468902587890625" lon="20.08690036833286285400390625">
        <ele>2189.800048828125</ele>
        <time>2026-06-15T10:03:00.000Z</time>
        <extensions>
          <ns3:TrackPointExtension>
            <ns3:atemp>17.0</ns3:atemp>
          </ns3:TrackPointExtension>
        </extensions>
      </trkpt>
      <trkpt lat="42.58137308992445468902587890625" lon="20.08690036833286285400390625">
        <ele>2189.800048828125</ele>
        <time>2026-06-15T10:03:01.000Z</time>
        <extensions>
          <ns3:TrackPointExtension>
            <ns3:atemp>17.0</ns3:atemp>
          </ns3:TrackPointExtension>
        </extensions>
      </trkpt>
      <trkpt lat="42.58137308992445468902587890625" lon="20.08690036833286285400390625">
        <ele>2189.800048828125</ele>
        <time>2026-06-15T10:03:02.000Z</time>
        <extensions>
          <ns3:TrackPointExtension>
            <ns3:atemp>17.0</ns3:atemp>
          </ns3:TrackPointExtension>
        </extensions>
      </trkpt>
      <trkpt lat="42.58137308992445468902587890625" lon="20.08690036833286285400390625">
        <ele>2189.800048828125</ele>
        <time>2026-06-15T10:03:03.000Z</time>
        <extensions>
          <ns3:TrackPointExtension>
            <ns3:atemp>17.0</ns3:atemp>
          </ns3:TrackPointExtension>
        </extensions>
      </trkpt>
      <trkpt lat="42.58137308992445468902587890625" lon="20.08690036833286285400390625">
        <ele>2189.800048828125</ele>
        <time>2026-06-15T10:03:04.000Z</time>
        <extensions>
          <ns3:TrackPointExtension>
            <ns3:atemp>17.0</ns3:atemp>
          </ns3:TrackPointExtension>
        </extensions>
      </trkpt>
      <trkpt lat="42.58137308992445468902587890625" lon="20.08690036833286285400390625">
        <ele>2189.800048828125</ele>
        <time>2026-06-15T10:03:05.000Z</time>
        <extensions>
          <ns3:TrackPointExtension>
            <ns3:atemp>17.0</ns3:atemp>
          </ns3:TrackPointExtension>
        </extensions>
      </trkpt>
      <trkpt lat="42.58137308992445468902587890625" lon="20.08690036833286285400390625">
        <ele>2189.800048828125</ele>
        <time>2026-06-15T10:03:06.000Z</time>
        <extensions>
          <ns3:TrackPointExtension>
            <ns3:atemp>17.0</ns3:atemp>
          </ns3:TrackPointExtension>
        </extensions>
      </trkpt>
      <trkpt lat="42.58137308992445468902587890625" lon="20.08690036833286285400390625">
        <ele>2189.800048828125</ele>
        <time>2026-06-15T10:03:07.000Z</time>
        <extensions>
          <ns3:TrackPointExtension>
            <ns3:atemp>17.0</ns3:atemp>
          </ns3:TrackPointExtension>
        </extensions>
      </trkpt>
      <trkpt lat="42.58137308992445468902587890625" lon="20.08690036833286285400390625">
        <ele>2189.800048828125</ele>
        <time>2026-06-15T10:03:08.000Z</time>
        <extensions>
          <ns3:TrackPointExtension>
            <ns3:atemp>17.0</ns3:atemp>
          </ns3:TrackPointExtension>
        </extensions>
      </trkpt>
      <trkpt lat="42.58137308992445468902587890625" lon="20.08690036833286285400390625">
        <ele>2189.800048828125</ele>
        <time>2026-06-15T10:03:09.000Z</time>
        <extensions>
          <ns3:TrackPointExtension>
            <ns3:atemp>17.0</ns3:atemp>
          </ns3:TrackPointExtension>
        </extensions>
      </trkpt>
      <trkpt lat="42.58137308992445468902587890625" lon="20.08690036833286285400390625">
        <ele>2189.800048828125</ele>
        <time>2026-06-15T10:03:10.000Z</time>
        <extensions>
          <ns3:TrackPointExtension>
            <ns3:atemp>17.0</ns3:atemp>
          </ns3:TrackPointExtension>
        </extensions>
      </trkpt>
      <trkpt lat="42.58137308992445468902587890625" lon="20.08690036833286285400390625">
        <ele>2189.800048828125</ele>
        <time>2026-06-15T10:03:11.000Z</time>
        <extensions>
          <ns3:TrackPointExtension>
            <ns3:atemp>17.0</ns3:atemp>
          </ns3:TrackPointExtension>
        </extensions>
      </trkpt>
      <trkpt lat="42.58137308992445468902587890625" lon="20.08690036833286285400390625">
        <ele>2189.800048828125</ele>
        <time>2026-06-15T10:03:12.000Z</time>
        <extensions>
          <ns3:TrackPointExtension>
            <ns3:atemp>17.0</ns3:atemp>
          </ns3:TrackPointExtension>
        </extensions>
      </trkpt>
      <trkpt lat="42.58137308992445468902587890625" lon="20.08690036833286285400390625">
        <ele>2189.800048828125</ele>
        <time>2026-06-15T10:03:13.000Z</time>
        <extensions>
          <ns3:TrackPointExtension>
            <ns3:atemp>17.0</ns3:atemp>
          </ns3:TrackPointExtension>
        </extensions>
      </trkpt>
      <trkpt lat="42.58137308992445468902587890625" lon="20.08690036833286285400390625">
        <ele>2189.800048828125</ele>
        <time>2026-06-15T10:03:14.000Z</time>
        <extensions>
          <ns3:TrackPointExtension>
            <ns3:atemp>17.0</ns3:atemp>
          </ns3:TrackPointExtension>
        </extensions>
      </trkpt>
      <trkpt lat="42.58137308992445468902587890625" lon="20.08690036833286285400390625">
        <ele>2189.800048828125</ele>
        <time>2026-06-15T10:03:15.000Z</time>
        <extensions>
          <ns3:TrackPointExtension>
            <ns3:atemp>17.0</ns3:atemp>
          </ns3:TrackPointExtension>
        </extensions>
      </trkpt>
      <trkpt lat="42.58137308992445468902587890625" lon="20.08690036833286285400390625">
        <ele>2189.800048828125</ele>
        <time>2026-06-15T10:03:16.000Z</time>
        <extensions>
          <ns3:TrackPointExtension>
            <ns3:atemp>17.0</ns3:atemp>
          </ns3:TrackPointExtension>
        </extensions>
      </trkpt>
      <trkpt lat="42.58137308992445468902587890625" lon="20.08690036833286285400390625">
        <ele>2189.800048828125</ele>
        <time>2026-06-15T10:03:17.000Z</time>
        <extensions>
          <ns3:TrackPointExtension>
            <ns3:atemp>17.0</ns3:atemp>
          </ns3:TrackPointExtension>
        </extensions>
      </trkpt>
      <trkpt lat="42.58137308992445468902587890625" lon="20.08690036833286285400390625">
        <ele>2189.800048828125</ele>
        <time>2026-06-15T10:03:18.000Z</time>
        <extensions>
          <ns3:TrackPointExtension>
            <ns3:atemp>17.0</ns3:atemp>
          </ns3:TrackPointExtension>
        </extensions>
      </trkpt>
      <trkpt lat="42.58137308992445468902587890625" lon="20.08690036833286285400390625">
        <ele>2189.800048828125</ele>
        <time>2026-06-15T10:03:19.000Z</time>
        <extensions>
          <ns3:TrackPointExtension>
            <ns3:atemp>17.0</ns3:atemp>
          </ns3:TrackPointExtension>
        </extensions>
      </trkpt>
      <trkpt lat="42.58137308992445468902587890625" lon="20.08690036833286285400390625">
        <ele>2189.800048828125</ele>
        <time>2026-06-15T10:03:20.000Z</time>
        <extensions>
          <ns3:TrackPointExtension>
            <ns3:atemp>17.0</ns3:atemp>
          </ns3:TrackPointExtension>
        </extensions>
      </trkpt>
      <trkpt lat="42.58137308992445468902587890625" lon="20.08690036833286285400390625">
        <ele>2189.800048828125</ele>
        <time>2026-06-15T10:03:21.000Z</time>
        <extensions>
          <ns3:TrackPointExtension>
            <ns3:atemp>17.0</ns3:atemp>
          </ns3:TrackPointExtension>
        </extensions>
      </trkpt>
      <trkpt lat="42.58137308992445468902587890625" lon="20.08690036833286285400390625">
        <ele>2189.800048828125</ele>
        <time>2026-06-15T10:03:22.000Z</time>
        <extensions>
          <ns3:TrackPointExtension>
            <ns3:atemp>17.0</ns3:atemp>
          </ns3:TrackPointExtension>
        </extensions>
      </trkpt>
      <trkpt lat="42.58137308992445468902587890625" lon="20.08690036833286285400390625">
        <ele>2189.800048828125</ele>
        <time>2026-06-15T10:03:23.000Z</time>
        <extensions>
          <ns3:TrackPointExtension>
            <ns3:atemp>17.0</ns3:atemp>
          </ns3:TrackPointExtension>
        </extensions>
      </trkpt>
      <trkpt lat="42.58137308992445468902587890625" lon="20.08690036833286285400390625">
        <ele>2189.800048828125</ele>
        <time>2026-06-15T10:03:24.000Z</time>
        <extensions>
          <ns3:TrackPointExtension>
            <ns3:atemp>17.0</ns3:atemp>
          </ns3:TrackPointExtension>
        </extensions>
      </trkpt>
      <trkpt lat="42.58137308992445468902587890625" lon="20.08690036833286285400390625">
        <ele>2189.800048828125</ele>
        <time>2026-06-15T10:03:25.000Z</time>
        <extensions>
          <ns3:TrackPointExtension>
            <ns3:atemp>17.0</ns3:atemp>
          </ns3:TrackPointExtension>
        </extensions>
      </trkpt>
      <trkpt lat="42.58137308992445468902587890625" lon="20.08690036833286285400390625">
        <ele>2189.800048828125</ele>
        <time>2026-06-15T10:03:26.000Z</time>
        <extensions>
          <ns3:TrackPointExtension>
            <ns3:atemp>17.0</ns3:atemp>
          </ns3:TrackPointExtension>
        </extensions>
      </trkpt>
      <trkpt lat="42.58137308992445468902587890625" lon="20.08690036833286285400390625">
        <ele>2189.800048828125</ele>
        <time>2026-06-15T10:03:27.000Z</time>
        <extensions>
          <ns3:TrackPointExtension>
            <ns3:atemp>17.0</ns3:atemp>
          </ns3:TrackPointExtension>
        </extensions>
      </trkpt>
      <trkpt lat="42.58137308992445468902587890625" lon="20.08690036833286285400390625">
        <ele>2189.800048828125</ele>
        <time>2026-06-15T10:03:28.000Z</time>
        <extensions>
          <ns3:TrackPointExtension>
            <ns3:atemp>17.0</ns3:atemp>
          </ns3:TrackPointExtension>
        </extensions>
      </trkpt>
      <trkpt lat="42.58137308992445468902587890625" lon="20.08690036833286285400390625">
        <ele>2189.800048828125</ele>
        <time>2026-06-15T10:03:29.000Z</time>
        <extensions>
          <ns3:TrackPointExtension>
            <ns3:atemp>17.0</ns3:atemp>
          </ns3:TrackPointExtension>
        </extensions>
      </trkpt>
      <trkpt lat="42.58137308992445468902587890625" lon="20.08690036833286285400390625">
        <ele>2189.800048828125</ele>
        <time>2026-06-15T10:03:30.000Z</time>
        <extensions>
          <ns3:TrackPointExtension>
            <ns3:atemp>17.0</ns3:atemp>
          </ns3:TrackPointExtension>
        </extensions>
      </trkpt>
      <trkpt lat="42.58137308992445468902587890625" lon="20.08690036833286285400390625">
        <ele>2189.800048828125</ele>
        <time>2026-06-15T10:03:31.000Z</time>
        <extensions>
          <ns3:TrackPointExtension>
            <ns3:atemp>17.0</ns3:atemp>
          </ns3:TrackPointExtension>
        </extensions>
      </trkpt>
      <trkpt lat="42.58137308992445468902587890625" lon="20.08690036833286285400390625">
        <ele>2189.800048828125</ele>
        <time>2026-06-15T10:03:32.000Z</time>
        <extensions>
          <ns3:TrackPointExtension>
            <ns3:atemp>17.0</ns3:atemp>
          </ns3:TrackPointExtension>
        </extensions>
      </trkpt>
      <trkpt lat="42.58137308992445468902587890625" lon="20.08690036833286285400390625">
        <ele>2189.800048828125</ele>
        <time>2026-06-15T10:03:33.000Z</time>
        <extensions>
          <ns3:TrackPointExtension>
            <ns3:atemp>17.0</ns3:atemp>
          </ns3:TrackPointExtension>
        </extensions>
      </trkpt>
      <trkpt lat="42.58137308992445468902587890625" lon="20.08690036833286285400390625">
        <ele>2189.800048828125</ele>
        <time>2026-06-15T10:03:34.000Z</time>
        <extensions>
          <ns3:TrackPointExtension>
            <ns3:atemp>17.0</ns3:atemp>
          </ns3:TrackPointExtension>
        </extensions>
      </trkpt>
      <trkpt lat="42.58137308992445468902587890625" lon="20.08690036833286285400390625">
        <ele>2189.800048828125</ele>
        <time>2026-06-15T10:03:35.000Z</time>
        <extensions>
          <ns3:TrackPointExtension>
            <ns3:atemp>17.0</ns3:atemp>
          </ns3:TrackPointExtension>
        </extensions>
      </trkpt>
      <trkpt lat="42.58137308992445468902587890625" lon="20.08690036833286285400390625">
        <ele>2189.800048828125</ele>
        <time>2026-06-15T10:03:36.000Z</time>
        <extensions>
          <ns3:TrackPointExtension>
            <ns3:atemp>17.0</ns3:atemp>
          </ns3:TrackPointExtension>
        </extensions>
      </trkpt>
      <trkpt lat="42.58137308992445468902587890625" lon="20.08690036833286285400390625">
        <ele>2189.800048828125</ele>
        <time>2026-06-15T10:03:37.000Z</time>
        <extensions>
          <ns3:TrackPointExtension>
            <ns3:atemp>17.0</ns3:atemp>
          </ns3:TrackPointExtension>
        </extensions>
      </trkpt>
      <trkpt lat="42.58137308992445468902587890625" lon="20.08690036833286285400390625">
        <ele>2189.800048828125</ele>
        <time>2026-06-15T10:03:38.000Z</time>
        <extensions>
          <ns3:TrackPointExtension>
            <ns3:atemp>17.0</ns3:atemp>
          </ns3:TrackPointExtension>
        </extensions>
      </trkpt>
      <trkpt lat="42.58137308992445468902587890625" lon="20.08690036833286285400390625">
        <ele>2189.800048828125</ele>
        <time>2026-06-15T10:03:39.000Z</time>
        <extensions>
          <ns3:TrackPointExtension>
            <ns3:atemp>17.0</ns3:atemp>
          </ns3:TrackPointExtension>
        </extensions>
      </trkpt>
      <trkpt lat="42.58137308992445468902587890625" lon="20.08690036833286285400390625">
        <ele>2189.800048828125</ele>
        <time>2026-06-15T10:03:40.000Z</time>
        <extensions>
          <ns3:TrackPointExtension>
            <ns3:atemp>17.0</ns3:atemp>
          </ns3:TrackPointExtension>
        </extensions>
      </trkpt>
      <trkpt lat="42.58137308992445468902587890625" lon="20.08690036833286285400390625">
        <ele>2189.800048828125</ele>
        <time>2026-06-15T10:03:41.000Z</time>
        <extensions>
          <ns3:TrackPointExtension>
            <ns3:atemp>17.0</ns3:atemp>
          </ns3:TrackPointExtension>
        </extensions>
      </trkpt>
      <trkpt lat="42.58137308992445468902587890625" lon="20.08690036833286285400390625">
        <ele>2189.800048828125</ele>
        <time>2026-06-15T10:03:42.000Z</time>
        <extensions>
          <ns3:TrackPointExtension>
            <ns3:atemp>17.0</ns3:atemp>
          </ns3:TrackPointExtension>
        </extensions>
      </trkpt>
      <trkpt lat="42.58137308992445468902587890625" lon="20.08690036833286285400390625">
        <ele>2189.800048828125</ele>
        <time>2026-06-15T10:03:43.000Z</time>
        <extensions>
          <ns3:TrackPointExtension>
            <ns3:atemp>17.0</ns3:atemp>
          </ns3:TrackPointExtension>
        </extensions>
      </trkpt>
      <trkpt lat="42.58137308992445468902587890625" lon="20.08690036833286285400390625">
        <ele>2189.800048828125</ele>
        <time>2026-06-15T10:03:44.000Z</time>
        <extensions>
          <ns3:TrackPointExtension>
            <ns3:atemp>17.0</ns3:atemp>
          </ns3:TrackPointExtension>
        </extensions>
      </trkpt>
      <trkpt lat="42.58137308992445468902587890625" lon="20.08690036833286285400390625">
        <ele>2189.800048828125</ele>
        <time>2026-06-15T10:03:45.000Z</time>
        <extensions>
          <ns3:TrackPointExtension>
            <ns3:atemp>17.0</ns3:atemp>
          </ns3:TrackPointExtension>
        </extensions>
      </trkpt>
      <trkpt lat="42.58137308992445468902587890625" lon="20.08690036833286285400390625">
        <ele>2189.800048828125</ele>
        <time>2026-06-15T10:03:46.000Z</time>
        <extensions>
          <ns3:TrackPointExtension>
            <ns3:atemp>17.0</ns3:atemp>
          </ns3:TrackPointExtension>
        </extensions>
      </trkpt>
      <trkpt lat="42.58137308992445468902587890625" lon="20.08690036833286285400390625">
        <ele>2189.800048828125</ele>
        <time>2026-06-15T10:03:47.000Z</time>
        <extensions>
          <ns3:TrackPointExtension>
            <ns3:atemp>17.0</ns3:atemp>
          </ns3:TrackPointExtension>
        </extensions>
      </trkpt>
      <trkpt lat="42.58137308992445468902587890625" lon="20.08690036833286285400390625">
        <ele>2189.800048828125</ele>
        <time>2026-06-15T10:03:48.000Z</time>
        <extensions>
          <ns3:TrackPointExtension>
            <ns3:atemp>17.0</ns3:atemp>
          </ns3:TrackPointExtension>
        </extensions>
      </trkpt>
      <trkpt lat="42.58137308992445468902587890625" lon="20.08690036833286285400390625">
        <ele>2189.800048828125</ele>
        <time>2026-06-15T10:03:49.000Z</time>
        <extensions>
          <ns3:TrackPointExtension>
            <ns3:atemp>17.0</ns3:atemp>
          </ns3:TrackPointExtension>
        </extensions>
      </trkpt>
      <trkpt lat="42.58137308992445468902587890625" lon="20.08690036833286285400390625">
        <ele>2189.800048828125</ele>
        <time>2026-06-15T10:03:50.000Z</time>
        <extensions>
          <ns3:TrackPointExtension>
            <ns3:atemp>17.0</ns3:atemp>
          </ns3:TrackPointExtension>
        </extensions>
      </trkpt>
      <trkpt lat="42.58137308992445468902587890625" lon="20.08690036833286285400390625">
        <ele>2189.800048828125</ele>
        <time>2026-06-15T10:03:51.000Z</time>
        <extensions>
          <ns3:TrackPointExtension>
            <ns3:atemp>17.0</ns3:atemp>
          </ns3:TrackPointExtension>
        </extensions>
      </trkpt>
      <trkpt lat="42.58137308992445468902587890625" lon="20.08690036833286285400390625">
        <ele>2189.800048828125</ele>
        <time>2026-06-15T10:03:52.000Z</time>
        <extensions>
          <ns3:TrackPointExtension>
            <ns3:atemp>17.0</ns3:atemp>
          </ns3:TrackPointExtension>
        </extensions>
      </trkpt>
      <trkpt lat="42.58137308992445468902587890625" lon="20.08690036833286285400390625">
        <ele>2189.800048828125</ele>
        <time>2026-06-15T10:03:53.000Z</time>
        <extensions>
          <ns3:TrackPointExtension>
            <ns3:atemp>17.0</ns3:atemp>
          </ns3:TrackPointExtension>
        </extensions>
      </trkpt>
      <trkpt lat="42.58137308992445468902587890625" lon="20.08690036833286285400390625">
        <ele>2189.800048828125</ele>
        <time>2026-06-15T10:03:54.000Z</time>
        <extensions>
          <ns3:TrackPointExtension>
            <ns3:atemp>17.0</ns3:atemp>
          </ns3:TrackPointExtension>
        </extensions>
      </trkpt>
      <trkpt lat="42.58137308992445468902587890625" lon="20.08690036833286285400390625">
        <ele>2189.800048828125</ele>
        <time>2026-06-15T10:03:55.000Z</time>
        <extensions>
          <ns3:TrackPointExtension>
            <ns3:atemp>17.0</ns3:atemp>
          </ns3:TrackPointExtension>
        </extensions>
      </trkpt>
      <trkpt lat="42.58137308992445468902587890625" lon="20.08690036833286285400390625">
        <ele>2189.800048828125</ele>
        <time>2026-06-15T10:03:56.000Z</time>
        <extensions>
          <ns3:TrackPointExtension>
            <ns3:atemp>17.0</ns3:atemp>
          </ns3:TrackPointExtension>
        </extensions>
      </trkpt>
      <trkpt lat="42.58137308992445468902587890625" lon="20.08690036833286285400390625">
        <ele>2189.800048828125</ele>
        <time>2026-06-15T10:03:57.000Z</time>
        <extensions>
          <ns3:TrackPointExtension>
            <ns3:atemp>17.0</ns3:atemp>
          </ns3:TrackPointExtension>
        </extensions>
      </trkpt>
      <trkpt lat="42.58137308992445468902587890625" lon="20.08690036833286285400390625">
        <ele>2189.800048828125</ele>
        <time>2026-06-15T10:03:58.000Z</time>
        <extensions>
          <ns3:TrackPointExtension>
            <ns3:atemp>17.0</ns3:atemp>
          </ns3:TrackPointExtension>
        </extensions>
      </trkpt>
      <trkpt lat="42.58137308992445468902587890625" lon="20.08690036833286285400390625">
        <ele>2189.800048828125</ele>
        <time>2026-06-15T10:03:59.000Z</time>
        <extensions>
          <ns3:TrackPointExtension>
            <ns3:atemp>17.0</ns3:atemp>
          </ns3:TrackPointExtension>
        </extensions>
      </trkpt>
      <trkpt lat="42.58137308992445468902587890625" lon="20.08690036833286285400390625">
        <ele>2189.800048828125</ele>
        <time>2026-06-15T10:04:00.000Z</time>
        <extensions>
          <ns3:TrackPointExtension>
            <ns3:atemp>17.0</ns3:atemp>
          </ns3:TrackPointExtension>
        </extensions>
      </trkpt>
      <trkpt lat="42.58137308992445468902587890625" lon="20.08690036833286285400390625">
        <ele>2189.800048828125</ele>
        <time>2026-06-15T10:04:01.000Z</time>
        <extensions>
          <ns3:TrackPointExtension>
            <ns3:atemp>17.0</ns3:atemp>
          </ns3:TrackPointExtension>
        </extensions>
      </trkpt>
      <trkpt lat="42.58137308992445468902587890625" lon="20.08690036833286285400390625">
        <ele>2189.800048828125</ele>
        <time>2026-06-15T10:04:02.000Z</time>
        <extensions>
          <ns3:TrackPointExtension>
            <ns3:atemp>17.0</ns3:atemp>
          </ns3:TrackPointExtension>
        </extensions>
      </trkpt>
      <trkpt lat="42.58137308992445468902587890625" lon="20.08690036833286285400390625">
        <ele>2189.800048828125</ele>
        <time>2026-06-15T10:04:03.000Z</time>
        <extensions>
          <ns3:TrackPointExtension>
            <ns3:atemp>17.0</ns3:atemp>
          </ns3:TrackPointExtension>
        </extensions>
      </trkpt>
      <trkpt lat="42.58137308992445468902587890625" lon="20.08690036833286285400390625">
        <ele>2189.800048828125</ele>
        <time>2026-06-15T10:04:04.000Z</time>
        <extensions>
          <ns3:TrackPointExtension>
            <ns3:atemp>17.0</ns3:atemp>
          </ns3:TrackPointExtension>
        </extensions>
      </trkpt>
      <trkpt lat="42.58137308992445468902587890625" lon="20.08690036833286285400390625">
        <ele>2189.800048828125</ele>
        <time>2026-06-15T10:04:05.000Z</time>
        <extensions>
          <ns3:TrackPointExtension>
            <ns3:atemp>17.0</ns3:atemp>
          </ns3:TrackPointExtension>
        </extensions>
      </trkpt>
      <trkpt lat="42.58137308992445468902587890625" lon="20.08690036833286285400390625">
        <ele>2189.800048828125</ele>
        <time>2026-06-15T10:04:06.000Z</time>
        <extensions>
          <ns3:TrackPointExtension>
            <ns3:atemp>17.0</ns3:atemp>
          </ns3:TrackPointExtension>
        </extensions>
      </trkpt>
      <trkpt lat="42.58137308992445468902587890625" lon="20.08690036833286285400390625">
        <ele>2189.800048828125</ele>
        <time>2026-06-15T10:04:07.000Z</time>
        <extensions>
          <ns3:TrackPointExtension>
            <ns3:atemp>17.0</ns3:atemp>
          </ns3:TrackPointExtension>
        </extensions>
      </trkpt>
      <trkpt lat="42.58137308992445468902587890625" lon="20.08690036833286285400390625">
        <ele>2189.800048828125</ele>
        <time>2026-06-15T10:04:08.000Z</time>
        <extensions>
          <ns3:TrackPointExtension>
            <ns3:atemp>17.0</ns3:atemp>
          </ns3:TrackPointExtension>
        </extensions>
      </trkpt>
      <trkpt lat="42.58137308992445468902587890625" lon="20.08690036833286285400390625">
        <ele>2189.800048828125</ele>
        <time>2026-06-15T10:04:09.000Z</time>
        <extensions>
          <ns3:TrackPointExtension>
            <ns3:atemp>17.0</ns3:atemp>
          </ns3:TrackPointExtension>
        </extensions>
      </trkpt>
      <trkpt lat="42.58137308992445468902587890625" lon="20.08690036833286285400390625">
        <ele>2189.800048828125</ele>
        <time>2026-06-15T10:04:10.000Z</time>
        <extensions>
          <ns3:TrackPointExtension>
            <ns3:atemp>17.0</ns3:atemp>
          </ns3:TrackPointExtension>
        </extensions>
      </trkpt>
      <trkpt lat="42.58137308992445468902587890625" lon="20.08690036833286285400390625">
        <ele>2189.800048828125</ele>
        <time>2026-06-15T10:04:11.000Z</time>
        <extensions>
          <ns3:TrackPointExtension>
            <ns3:atemp>17.0</ns3:atemp>
          </ns3:TrackPointExtension>
        </extensions>
      </trkpt>
      <trkpt lat="42.58137308992445468902587890625" lon="20.08690036833286285400390625">
        <ele>2189.800048828125</ele>
        <time>2026-06-15T10:04:12.000Z</time>
        <extensions>
          <ns3:TrackPointExtension>
            <ns3:atemp>17.0</ns3:atemp>
          </ns3:TrackPointExtension>
        </extensions>
      </trkpt>
      <trkpt lat="42.58137308992445468902587890625" lon="20.08690036833286285400390625">
        <ele>2189.800048828125</ele>
        <time>2026-06-15T10:04:13.000Z</time>
        <extensions>
          <ns3:TrackPointExtension>
            <ns3:atemp>17.0</ns3:atemp>
          </ns3:TrackPointExtension>
        </extensions>
      </trkpt>
      <trkpt lat="42.58137308992445468902587890625" lon="20.08690036833286285400390625">
        <ele>2189.800048828125</ele>
        <time>2026-06-15T10:04:14.000Z</time>
        <extensions>
          <ns3:TrackPointExtension>
            <ns3:atemp>17.0</ns3:atemp>
          </ns3:TrackPointExtension>
        </extensions>
      </trkpt>
      <trkpt lat="42.58137308992445468902587890625" lon="20.08690036833286285400390625">
        <ele>2189.800048828125</ele>
        <time>2026-06-15T10:04:15.000Z</time>
        <extensions>
          <ns3:TrackPointExtension>
            <ns3:atemp>17.0</ns3:atemp>
          </ns3:TrackPointExtension>
        </extensions>
      </trkpt>
      <trkpt lat="42.58137308992445468902587890625" lon="20.08690036833286285400390625">
        <ele>2189.800048828125</ele>
        <time>2026-06-15T10:04:16.000Z</time>
        <extensions>
          <ns3:TrackPointExtension>
            <ns3:atemp>17.0</ns3:atemp>
          </ns3:TrackPointExtension>
        </extensions>
      </trkpt>
      <trkpt lat="42.58137308992445468902587890625" lon="20.08690036833286285400390625">
        <ele>2189.800048828125</ele>
        <time>2026-06-15T10:04:17.000Z</time>
        <extensions>
          <ns3:TrackPointExtension>
            <ns3:atemp>17.0</ns3:atemp>
          </ns3:TrackPointExtension>
        </extensions>
      </trkpt>
      <trkpt lat="42.58137308992445468902587890625" lon="20.08690036833286285400390625">
        <ele>2189.800048828125</ele>
        <time>2026-06-15T10:04:18.000Z</time>
        <extensions>
          <ns3:TrackPointExtension>
            <ns3:atemp>17.0</ns3:atemp>
          </ns3:TrackPointExtension>
        </extensions>
      </trkpt>
      <trkpt lat="42.58137308992445468902587890625" lon="20.08690036833286285400390625">
        <ele>2189.800048828125</ele>
        <time>2026-06-15T10:04:19.000Z</time>
        <extensions>
          <ns3:TrackPointExtension>
            <ns3:atemp>17.0</ns3:atemp>
          </ns3:TrackPointExtension>
        </extensions>
      </trkpt>
      <trkpt lat="42.58137308992445468902587890625" lon="20.08690036833286285400390625">
        <ele>2189.800048828125</ele>
        <time>2026-06-15T10:04:20.000Z</time>
        <extensions>
          <ns3:TrackPointExtension>
            <ns3:atemp>17.0</ns3:atemp>
          </ns3:TrackPointExtension>
        </extensions>
      </trkpt>
      <trkpt lat="42.58137308992445468902587890625" lon="20.08690036833286285400390625">
        <ele>2189.800048828125</ele>
        <time>2026-06-15T10:04:21.000Z</time>
        <extensions>
          <ns3:TrackPointExtension>
            <ns3:atemp>17.0</ns3:atemp>
          </ns3:TrackPointExtension>
        </extensions>
      </trkpt>
      <trkpt lat="42.58137308992445468902587890625" lon="20.08690036833286285400390625">
        <ele>2189.800048828125</ele>
        <time>2026-06-15T10:04:22.000Z</time>
        <extensions>
          <ns3:TrackPointExtension>
            <ns3:atemp>17.0</ns3:atemp>
          </ns3:TrackPointExtension>
        </extensions>
      </trkpt>
      <trkpt lat="42.58137308992445468902587890625" lon="20.08690036833286285400390625">
        <ele>2189.800048828125</ele>
        <time>2026-06-15T10:04:23.000Z</time>
        <extensions>
          <ns3:TrackPointExtension>
            <ns3:atemp>17.0</ns3:atemp>
          </ns3:TrackPointExtension>
        </extensions>
      </trkpt>
      <trkpt lat="42.58137308992445468902587890625" lon="20.08690036833286285400390625">
        <ele>2189.800048828125</ele>
        <time>2026-06-15T10:04:24.000Z</time>
        <extensions>
          <ns3:TrackPointExtension>
            <ns3:atemp>17.0</ns3:atemp>
          </ns3:TrackPointExtension>
        </extensions>
      </trkpt>
      <trkpt lat="42.58137308992445468902587890625" lon="20.08690036833286285400390625">
        <ele>2189.800048828125</ele>
        <time>2026-06-15T10:04:25.000Z</time>
        <extensions>
          <ns3:TrackPointExtension>
            <ns3:atemp>17.0</ns3:atemp>
          </ns3:TrackPointExtension>
        </extensions>
      </trkpt>
      <trkpt lat="42.58137308992445468902587890625" lon="20.08690036833286285400390625">
        <ele>2189.800048828125</ele>
        <time>2026-06-15T10:04:26.000Z</time>
        <extensions>
          <ns3:TrackPointExtension>
            <ns3:atemp>17.0</ns3:atemp>
          </ns3:TrackPointExtension>
        </extensions>
      </trkpt>
      <trkpt lat="42.58137308992445468902587890625" lon="20.08690036833286285400390625">
        <ele>2189.800048828125</ele>
        <time>2026-06-15T10:04:27.000Z</time>
        <extensions>
          <ns3:TrackPointExtension>
            <ns3:atemp>17.0</ns3:atemp>
          </ns3:TrackPointExtension>
        </extensions>
      </trkpt>
      <trkpt lat="42.58137308992445468902587890625" lon="20.08690036833286285400390625">
        <ele>2189.800048828125</ele>
        <time>2026-06-15T10:04:28.000Z</time>
        <extensions>
          <ns3:TrackPointExtension>
            <ns3:atemp>17.0</ns3:atemp>
          </ns3:TrackPointExtension>
        </extensions>
      </trkpt>
      <trkpt lat="42.58137308992445468902587890625" lon="20.08690036833286285400390625">
        <ele>2189.800048828125</ele>
        <time>2026-06-15T10:04:29.000Z</time>
        <extensions>
          <ns3:TrackPointExtension>
            <ns3:atemp>17.0</ns3:atemp>
          </ns3:TrackPointExtension>
        </extensions>
      </trkpt>
      <trkpt lat="42.58137308992445468902587890625" lon="20.08690036833286285400390625">
        <ele>2189.800048828125</ele>
        <time>2026-06-15T10:04:30.000Z</time>
        <extensions>
          <ns3:TrackPointExtension>
            <ns3:atemp>17.0</ns3:atemp>
          </ns3:TrackPointExtension>
        </extensions>
      </trkpt>
      <trkpt lat="42.58137308992445468902587890625" lon="20.08690036833286285400390625">
        <ele>2189.800048828125</ele>
        <time>2026-06-15T10:04:31.000Z</time>
        <extensions>
          <ns3:TrackPointExtension>
            <ns3:atemp>17.0</ns3:atemp>
          </ns3:TrackPointExtension>
        </extensions>
      </trkpt>
      <trkpt lat="42.58137308992445468902587890625" lon="20.08690036833286285400390625">
        <ele>2189.800048828125</ele>
        <time>2026-06-15T10:04:32.000Z</time>
        <extensions>
          <ns3:TrackPointExtension>
            <ns3:atemp>17.0</ns3:atemp>
          </ns3:TrackPointExtension>
        </extensions>
      </trkpt>
      <trkpt lat="42.58137308992445468902587890625" lon="20.08690036833286285400390625">
        <ele>2189.800048828125</ele>
        <time>2026-06-15T10:04:33.000Z</time>
        <extensions>
          <ns3:TrackPointExtension>
            <ns3:atemp>17.0</ns3:atemp>
          </ns3:TrackPointExtension>
        </extensions>
      </trkpt>
      <trkpt lat="42.58137308992445468902587890625" lon="20.08690036833286285400390625">
        <ele>2189.800048828125</ele>
        <time>2026-06-15T10:04:34.000Z</time>
        <extensions>
          <ns3:TrackPointExtension>
            <ns3:atemp>17.0</ns3:atemp>
          </ns3:TrackPointExtension>
        </extensions>
      </trkpt>
      <trkpt lat="42.58137308992445468902587890625" lon="20.08690036833286285400390625">
        <ele>2189.800048828125</ele>
        <time>2026-06-15T10:04:35.000Z</time>
        <extensions>
          <ns3:TrackPointExtension>
            <ns3:atemp>17.0</ns3:atemp>
          </ns3:TrackPointExtension>
        </extensions>
      </trkpt>
      <trkpt lat="42.58137308992445468902587890625" lon="20.08690036833286285400390625">
        <ele>2189.800048828125</ele>
        <time>2026-06-15T10:04:36.000Z</time>
        <extensions>
          <ns3:TrackPointExtension>
            <ns3:atemp>17.0</ns3:atemp>
          </ns3:TrackPointExtension>
        </extensions>
      </trkpt>
      <trkpt lat="42.58137308992445468902587890625" lon="20.08690036833286285400390625">
        <ele>2189.800048828125</ele>
        <time>2026-06-15T10:04:37.000Z</time>
        <extensions>
          <ns3:TrackPointExtension>
            <ns3:atemp>17.0</ns3:atemp>
          </ns3:TrackPointExtension>
        </extensions>
      </trkpt>
      <trkpt lat="42.58137308992445468902587890625" lon="20.08690036833286285400390625">
        <ele>2189.800048828125</ele>
        <time>2026-06-15T10:04:38.000Z</time>
        <extensions>
          <ns3:TrackPointExtension>
            <ns3:atemp>17.0</ns3:atemp>
          </ns3:TrackPointExtension>
        </extensions>
      </trkpt>
      <trkpt lat="42.58137308992445468902587890625" lon="20.08690036833286285400390625">
        <ele>2189.800048828125</ele>
        <time>2026-06-15T10:04:39.000Z</time>
        <extensions>
          <ns3:TrackPointExtension>
            <ns3:atemp>17.0</ns3:atemp>
          </ns3:TrackPointExtension>
        </extensions>
      </trkpt>
      <trkpt lat="42.58137308992445468902587890625" lon="20.08690036833286285400390625">
        <ele>2189.800048828125</ele>
        <time>2026-06-15T10:04:40.000Z</time>
        <extensions>
          <ns3:TrackPointExtension>
            <ns3:atemp>18.0</ns3:atemp>
          </ns3:TrackPointExtension>
        </extensions>
      </trkpt>
      <trkpt lat="42.58137308992445468902587890625" lon="20.08690036833286285400390625">
        <ele>2189.800048828125</ele>
        <time>2026-06-15T10:04:41.000Z</time>
        <extensions>
          <ns3:TrackPointExtension>
            <ns3:atemp>18.0</ns3:atemp>
          </ns3:TrackPointExtension>
        </extensions>
      </trkpt>
      <trkpt lat="42.58137308992445468902587890625" lon="20.08690036833286285400390625">
        <ele>2189.800048828125</ele>
        <time>2026-06-15T10:04:42.000Z</time>
        <extensions>
          <ns3:TrackPointExtension>
            <ns3:atemp>18.0</ns3:atemp>
          </ns3:TrackPointExtension>
        </extensions>
      </trkpt>
      <trkpt lat="42.58137308992445468902587890625" lon="20.08690036833286285400390625">
        <ele>2189.800048828125</ele>
        <time>2026-06-15T10:04:43.000Z</time>
        <extensions>
          <ns3:TrackPointExtension>
            <ns3:atemp>18.0</ns3:atemp>
          </ns3:TrackPointExtension>
        </extensions>
      </trkpt>
      <trkpt lat="42.58137308992445468902587890625" lon="20.08690036833286285400390625">
        <ele>2189.800048828125</ele>
        <time>2026-06-15T10:04:44.000Z</time>
        <extensions>
          <ns3:TrackPointExtension>
            <ns3:atemp>18.0</ns3:atemp>
          </ns3:TrackPointExtension>
        </extensions>
      </trkpt>
      <trkpt lat="42.58137308992445468902587890625" lon="20.08690036833286285400390625">
        <ele>2189.800048828125</ele>
        <time>2026-06-15T10:04:45.000Z</time>
        <extensions>
          <ns3:TrackPointExtension>
            <ns3:atemp>18.0</ns3:atemp>
          </ns3:TrackPointExtension>
        </extensions>
      </trkpt>
      <trkpt lat="42.58137308992445468902587890625" lon="20.08690036833286285400390625">
        <ele>2189.800048828125</ele>
        <time>2026-06-15T10:04:46.000Z</time>
        <extensions>
          <ns3:TrackPointExtension>
            <ns3:atemp>18.0</ns3:atemp>
          </ns3:TrackPointExtension>
        </extensions>
      </trkpt>
      <trkpt lat="42.58137308992445468902587890625" lon="20.08690036833286285400390625">
        <ele>2189.800048828125</ele>
        <time>2026-06-15T10:04:47.000Z</time>
        <extensions>
          <ns3:TrackPointExtension>
            <ns3:atemp>18.0</ns3:atemp>
          </ns3:TrackPointExtension>
        </extensions>
      </trkpt>
      <trkpt lat="42.58137308992445468902587890625" lon="20.08690036833286285400390625">
        <ele>2189.800048828125</ele>
        <time>2026-06-15T10:04:48.000Z</time>
        <extensions>
          <ns3:TrackPointExtension>
            <ns3:atemp>18.0</ns3:atemp>
          </ns3:TrackPointExtension>
        </extensions>
      </trkpt>
      <trkpt lat="42.58137308992445468902587890625" lon="20.08690036833286285400390625">
        <ele>2189.800048828125</ele>
        <time>2026-06-15T10:04:49.000Z</time>
        <extensions>
          <ns3:TrackPointExtension>
            <ns3:atemp>18.0</ns3:atemp>
          </ns3:TrackPointExtension>
        </extensions>
      </trkpt>
      <trkpt lat="42.58137308992445468902587890625" lon="20.08690036833286285400390625">
        <ele>2189.800048828125</ele>
        <time>2026-06-15T10:04:50.000Z</time>
        <extensions>
          <ns3:TrackPointExtension>
            <ns3:atemp>18.0</ns3:atemp>
          </ns3:TrackPointExtension>
        </extensions>
      </trkpt>
      <trkpt lat="42.58137308992445468902587890625" lon="20.08690036833286285400390625">
        <ele>2189.800048828125</ele>
        <time>2026-06-15T10:04:51.000Z</time>
        <extensions>
          <ns3:TrackPointExtension>
            <ns3:atemp>18.0</ns3:atemp>
          </ns3:TrackPointExtension>
        </extensions>
      </trkpt>
      <trkpt lat="42.58137308992445468902587890625" lon="20.08690036833286285400390625">
        <ele>2189.800048828125</ele>
        <time>2026-06-15T10:04:52.000Z</time>
        <extensions>
          <ns3:TrackPointExtension>
            <ns3:atemp>18.0</ns3:atemp>
          </ns3:TrackPointExtension>
        </extensions>
      </trkpt>
      <trkpt lat="42.58137308992445468902587890625" lon="20.08690036833286285400390625">
        <ele>2189.800048828125</ele>
        <time>2026-06-15T10:04:53.000Z</time>
        <extensions>
          <ns3:TrackPointExtension>
            <ns3:atemp>18.0</ns3:atemp>
          </ns3:TrackPointExtension>
        </extensions>
      </trkpt>
      <trkpt lat="42.58137308992445468902587890625" lon="20.08690036833286285400390625">
        <ele>2189.800048828125</ele>
        <time>2026-06-15T10:04:54.000Z</time>
        <extensions>
          <ns3:TrackPointExtension>
            <ns3:atemp>18.0</ns3:atemp>
          </ns3:TrackPointExtension>
        </extensions>
      </trkpt>
      <trkpt lat="42.58137308992445468902587890625" lon="20.08690036833286285400390625">
        <ele>2189.800048828125</ele>
        <time>2026-06-15T10:04:55.000Z</time>
        <extensions>
          <ns3:TrackPointExtension>
            <ns3:atemp>18.0</ns3:atemp>
          </ns3:TrackPointExtension>
        </extensions>
      </trkpt>
      <trkpt lat="42.58137308992445468902587890625" lon="20.08690036833286285400390625">
        <ele>2189.800048828125</ele>
        <time>2026-06-15T10:04:56.000Z</time>
        <extensions>
          <ns3:TrackPointExtension>
            <ns3:atemp>18.0</ns3:atemp>
          </ns3:TrackPointExtension>
        </extensions>
      </trkpt>
      <trkpt lat="42.58137308992445468902587890625" lon="20.08690036833286285400390625">
        <ele>2189.800048828125</ele>
        <time>2026-06-15T10:04:57.000Z</time>
        <extensions>
          <ns3:TrackPointExtension>
            <ns3:atemp>18.0</ns3:atemp>
          </ns3:TrackPointExtension>
        </extensions>
      </trkpt>
      <trkpt lat="42.58137308992445468902587890625" lon="20.08690036833286285400390625">
        <ele>2189.800048828125</ele>
        <time>2026-06-15T10:04:58.000Z</time>
        <extensions>
          <ns3:TrackPointExtension>
            <ns3:atemp>18.0</ns3:atemp>
          </ns3:TrackPointExtension>
        </extensions>
      </trkpt>
      <trkpt lat="42.58137308992445468902587890625" lon="20.08690036833286285400390625">
        <ele>2189.800048828125</ele>
        <time>2026-06-15T10:04:59.000Z</time>
        <extensions>
          <ns3:TrackPointExtension>
            <ns3:atemp>18.0</ns3:atemp>
          </ns3:TrackPointExtension>
        </extensions>
      </trkpt>
      <trkpt lat="42.58137308992445468902587890625" lon="20.08690036833286285400390625">
        <ele>2189.800048828125</ele>
        <time>2026-06-15T10:05:00.000Z</time>
        <extensions>
          <ns3:TrackPointExtension>
            <ns3:atemp>18.0</ns3:atemp>
          </ns3:TrackPointExtension>
        </extensions>
      </trkpt>
      <trkpt lat="42.58137308992445468902587890625" lon="20.08690036833286285400390625">
        <ele>2189.800048828125</ele>
        <time>2026-06-15T10:05:01.000Z</time>
        <extensions>
          <ns3:TrackPointExtension>
            <ns3:atemp>18.0</ns3:atemp>
          </ns3:TrackPointExtension>
        </extensions>
      </trkpt>
      <trkpt lat="42.58137308992445468902587890625" lon="20.08690036833286285400390625">
        <ele>2189.800048828125</ele>
        <time>2026-06-15T10:05:02.000Z</time>
        <extensions>
          <ns3:TrackPointExtension>
            <ns3:atemp>18.0</ns3:atemp>
          </ns3:TrackPointExtension>
        </extensions>
      </trkpt>
      <trkpt lat="42.58137308992445468902587890625" lon="20.08690036833286285400390625">
        <ele>2189.800048828125</ele>
        <time>2026-06-15T10:05:03.000Z</time>
        <extensions>
          <ns3:TrackPointExtension>
            <ns3:atemp>18.0</ns3:atemp>
          </ns3:TrackPointExtension>
        </extensions>
      </trkpt>
      <trkpt lat="42.58137308992445468902587890625" lon="20.08690036833286285400390625">
        <ele>2189.800048828125</ele>
        <time>2026-06-15T10:05:04.000Z</time>
        <extensions>
          <ns3:TrackPointExtension>
            <ns3:atemp>18.0</ns3:atemp>
          </ns3:TrackPointExtension>
        </extensions>
      </trkpt>
      <trkpt lat="42.58137308992445468902587890625" lon="20.08690036833286285400390625">
        <ele>2189.800048828125</ele>
        <time>2026-06-15T10:05:05.000Z</time>
        <extensions>
          <ns3:TrackPointExtension>
            <ns3:atemp>18.0</ns3:atemp>
          </ns3:TrackPointExtension>
        </extensions>
      </trkpt>
      <trkpt lat="42.58137308992445468902587890625" lon="20.08690036833286285400390625">
        <ele>2189.800048828125</ele>
        <time>2026-06-15T10:05:06.000Z</time>
        <extensions>
          <ns3:TrackPointExtension>
            <ns3:atemp>18.0</ns3:atemp>
          </ns3:TrackPointExtension>
        </extensions>
      </trkpt>
      <trkpt lat="42.58137308992445468902587890625" lon="20.08690036833286285400390625">
        <ele>2189.800048828125</ele>
        <time>2026-06-15T10:05:07.000Z</time>
        <extensions>
          <ns3:TrackPointExtension>
            <ns3:atemp>18.0</ns3:atemp>
          </ns3:TrackPointExtension>
        </extensions>
      </trkpt>
      <trkpt lat="42.58137308992445468902587890625" lon="20.08690036833286285400390625">
        <ele>2189.800048828125</ele>
        <time>2026-06-15T10:05:08.000Z</time>
        <extensions>
          <ns3:TrackPointExtension>
            <ns3:atemp>18.0</ns3:atemp>
          </ns3:TrackPointExtension>
        </extensions>
      </trkpt>
      <trkpt lat="42.58137308992445468902587890625" lon="20.08690036833286285400390625">
        <ele>2189.800048828125</ele>
        <time>2026-06-15T10:05:09.000Z</time>
        <extensions>
          <ns3:TrackPointExtension>
            <ns3:atemp>18.0</ns3:atemp>
          </ns3:TrackPointExtension>
        </extensions>
      </trkpt>
      <trkpt lat="42.58137308992445468902587890625" lon="20.08690036833286285400390625">
        <ele>2189.800048828125</ele>
        <time>2026-06-15T10:05:10.000Z</time>
        <extensions>
          <ns3:TrackPointExtension>
            <ns3:atemp>18.0</ns3:atemp>
          </ns3:TrackPointExtension>
        </extensions>
      </trkpt>
      <trkpt lat="42.58137308992445468902587890625" lon="20.08690036833286285400390625">
        <ele>2189.800048828125</ele>
        <time>2026-06-15T10:05:11.000Z</time>
        <extensions>
          <ns3:TrackPointExtension>
            <ns3:atemp>18.0</ns3:atemp>
          </ns3:TrackPointExtension>
        </extensions>
      </trkpt>
      <trkpt lat="42.58137308992445468902587890625" lon="20.08690036833286285400390625">
        <ele>2189.800048828125</ele>
        <time>2026-06-15T10:05:12.000Z</time>
        <extensions>
          <ns3:TrackPointExtension>
            <ns3:atemp>18.0</ns3:atemp>
          </ns3:TrackPointExtension>
        </extensions>
      </trkpt>
      <trkpt lat="42.58137308992445468902587890625" lon="20.08690036833286285400390625">
        <ele>2189.800048828125</ele>
        <time>2026-06-15T10:05:13.000Z</time>
        <extensions>
          <ns3:TrackPointExtension>
            <ns3:atemp>18.0</ns3:atemp>
          </ns3:TrackPointExtension>
        </extensions>
      </trkpt>
      <trkpt lat="42.58137308992445468902587890625" lon="20.08690036833286285400390625">
        <ele>2189.800048828125</ele>
        <time>2026-06-15T10:05:14.000Z</time>
        <extensions>
          <ns3:TrackPointExtension>
            <ns3:atemp>18.0</ns3:atemp>
          </ns3:TrackPointExtension>
        </extensions>
      </trkpt>
      <trkpt lat="42.58137308992445468902587890625" lon="20.08690036833286285400390625">
        <ele>2189.800048828125</ele>
        <time>2026-06-15T10:05:15.000Z</time>
        <extensions>
          <ns3:TrackPointExtension>
            <ns3:atemp>18.0</ns3:atemp>
          </ns3:TrackPointExtension>
        </extensions>
      </trkpt>
      <trkpt lat="42.58137308992445468902587890625" lon="20.08690036833286285400390625">
        <ele>2189.800048828125</ele>
        <time>2026-06-15T10:05:16.000Z</time>
        <extensions>
          <ns3:TrackPointExtension>
            <ns3:atemp>18.0</ns3:atemp>
          </ns3:TrackPointExtension>
        </extensions>
      </trkpt>
      <trkpt lat="42.58137308992445468902587890625" lon="20.08690036833286285400390625">
        <ele>2189.800048828125</ele>
        <time>2026-06-15T10:05:17.000Z</time>
        <extensions>
          <ns3:TrackPointExtension>
            <ns3:atemp>18.0</ns3:atemp>
          </ns3:TrackPointExtension>
        </extensions>
      </trkpt>
      <trkpt lat="42.58137308992445468902587890625" lon="20.08690036833286285400390625">
        <ele>2189.800048828125</ele>
        <time>2026-06-15T10:05:18.000Z</time>
        <extensions>
          <ns3:TrackPointExtension>
            <ns3:atemp>18.0</ns3:atemp>
          </ns3:TrackPointExtension>
        </extensions>
      </trkpt>
      <trkpt lat="42.58137308992445468902587890625" lon="20.08690036833286285400390625">
        <ele>2189.800048828125</ele>
        <time>2026-06-15T10:05:19.000Z</time>
        <extensions>
          <ns3:TrackPointExtension>
            <ns3:atemp>18.0</ns3:atemp>
          </ns3:TrackPointExtension>
        </extensions>
      </trkpt>
      <trkpt lat="42.58137308992445468902587890625" lon="20.08690036833286285400390625">
        <ele>2189.800048828125</ele>
        <time>2026-06-15T10:05:20.000Z</time>
        <extensions>
          <ns3:TrackPointExtension>
            <ns3:atemp>18.0</ns3:atemp>
          </ns3:TrackPointExtension>
        </extensions>
      </trkpt>
      <trkpt lat="42.58137308992445468902587890625" lon="20.08690036833286285400390625">
        <ele>2189.800048828125</ele>
        <time>2026-06-15T10:05:21.000Z</time>
        <extensions>
          <ns3:TrackPointExtension>
            <ns3:atemp>18.0</ns3:atemp>
          </ns3:TrackPointExtension>
        </extensions>
      </trkpt>
      <trkpt lat="42.58137308992445468902587890625" lon="20.08690036833286285400390625">
        <ele>2189.800048828125</ele>
        <time>2026-06-15T10:05:22.000Z</time>
        <extensions>
          <ns3:TrackPointExtension>
            <ns3:atemp>18.0</ns3:atemp>
          </ns3:TrackPointExtension>
        </extensions>
      </trkpt>
      <trkpt lat="42.58137308992445468902587890625" lon="20.08690036833286285400390625">
        <ele>2189.800048828125</ele>
        <time>2026-06-15T10:05:23.000Z</time>
        <extensions>
          <ns3:TrackPointExtension>
            <ns3:atemp>18.0</ns3:atemp>
          </ns3:TrackPointExtension>
        </extensions>
      </trkpt>
      <trkpt lat="42.58137308992445468902587890625" lon="20.08690036833286285400390625">
        <ele>2189.800048828125</ele>
        <time>2026-06-15T10:05:24.000Z</time>
        <extensions>
          <ns3:TrackPointExtension>
            <ns3:atemp>18.0</ns3:atemp>
          </ns3:TrackPointExtension>
        </extensions>
      </trkpt>
      <trkpt lat="42.58137308992445468902587890625" lon="20.08690036833286285400390625">
        <ele>2189.800048828125</ele>
        <time>2026-06-15T10:05:25.000Z</time>
        <extensions>
          <ns3:TrackPointExtension>
            <ns3:atemp>18.0</ns3:atemp>
          </ns3:TrackPointExtension>
        </extensions>
      </trkpt>
      <trkpt lat="42.58137308992445468902587890625" lon="20.08690036833286285400390625">
        <ele>2189.800048828125</ele>
        <time>2026-06-15T10:05:26.000Z</time>
        <extensions>
          <ns3:TrackPointExtension>
            <ns3:atemp>18.0</ns3:atemp>
          </ns3:TrackPointExtension>
        </extensions>
      </trkpt>
      <trkpt lat="42.58137308992445468902587890625" lon="20.08690036833286285400390625">
        <ele>2189.800048828125</ele>
        <time>2026-06-15T10:05:27.000Z</time>
        <extensions>
          <ns3:TrackPointExtension>
            <ns3:atemp>18.0</ns3:atemp>
          </ns3:TrackPointExtension>
        </extensions>
      </trkpt>
      <trkpt lat="42.58137308992445468902587890625" lon="20.08690036833286285400390625">
        <ele>2189.800048828125</ele>
        <time>2026-06-15T10:05:28.000Z</time>
        <extensions>
          <ns3:TrackPointExtension>
            <ns3:atemp>18.0</ns3:atemp>
          </ns3:TrackPointExtension>
        </extensions>
      </trkpt>
      <trkpt lat="42.58137308992445468902587890625" lon="20.08690036833286285400390625">
        <ele>2189.800048828125</ele>
        <time>2026-06-15T10:05:29.000Z</time>
        <extensions>
          <ns3:TrackPointExtension>
            <ns3:atemp>18.0</ns3:atemp>
          </ns3:TrackPointExtension>
        </extensions>
      </trkpt>
      <trkpt lat="42.58137308992445468902587890625" lon="20.08690036833286285400390625">
        <ele>2189.800048828125</ele>
        <time>2026-06-15T10:05:30.000Z</time>
        <extensions>
          <ns3:TrackPointExtension>
            <ns3:atemp>18.0</ns3:atemp>
          </ns3:TrackPointExtension>
        </extensions>
      </trkpt>
      <trkpt lat="42.58137308992445468902587890625" lon="20.08690036833286285400390625">
        <ele>2189.800048828125</ele>
        <time>2026-06-15T10:05:31.000Z</time>
        <extensions>
          <ns3:TrackPointExtension>
            <ns3:atemp>18.0</ns3:atemp>
          </ns3:TrackPointExtension>
        </extensions>
      </trkpt>
      <trkpt lat="42.58137308992445468902587890625" lon="20.08690036833286285400390625">
        <ele>2189.800048828125</ele>
        <time>2026-06-15T10:05:32.000Z</time>
        <extensions>
          <ns3:TrackPointExtension>
            <ns3:atemp>18.0</ns3:atemp>
          </ns3:TrackPointExtension>
        </extensions>
      </trkpt>
      <trkpt lat="42.58137308992445468902587890625" lon="20.08690036833286285400390625">
        <ele>2189.800048828125</ele>
        <time>2026-06-15T10:05:33.000Z</time>
        <extensions>
          <ns3:TrackPointExtension>
            <ns3:atemp>18.0</ns3:atemp>
          </ns3:TrackPointExtension>
        </extensions>
      </trkpt>
      <trkpt lat="42.58137308992445468902587890625" lon="20.08690036833286285400390625">
        <ele>2189.800048828125</ele>
        <time>2026-06-15T10:05:34.000Z</time>
        <extensions>
          <ns3:TrackPointExtension>
            <ns3:atemp>18.0</ns3:atemp>
          </ns3:TrackPointExtension>
        </extensions>
      </trkpt>
      <trkpt lat="42.58137308992445468902587890625" lon="20.08690036833286285400390625">
        <ele>2189.800048828125</ele>
        <time>2026-06-15T10:05:35.000Z</time>
        <extensions>
          <ns3:TrackPointExtension>
            <ns3:atemp>18.0</ns3:atemp>
          </ns3:TrackPointExtension>
        </extensions>
      </trkpt>
      <trkpt lat="42.58137308992445468902587890625" lon="20.08690036833286285400390625">
        <ele>2189.800048828125</ele>
        <time>2026-06-15T10:05:36.000Z</time>
        <extensions>
          <ns3:TrackPointExtension>
            <ns3:atemp>18.0</ns3:atemp>
          </ns3:TrackPointExtension>
        </extensions>
      </trkpt>
      <trkpt lat="42.58137308992445468902587890625" lon="20.08690036833286285400390625">
        <ele>2189.800048828125</ele>
        <time>2026-06-15T10:05:37.000Z</time>
        <extensions>
          <ns3:TrackPointExtension>
            <ns3:atemp>18.0</ns3:atemp>
          </ns3:TrackPointExtension>
        </extensions>
      </trkpt>
      <trkpt lat="42.58137308992445468902587890625" lon="20.08690036833286285400390625">
        <ele>2189.800048828125</ele>
        <time>2026-06-15T10:05:38.000Z</time>
        <extensions>
          <ns3:TrackPointExtension>
            <ns3:atemp>18.0</ns3:atemp>
          </ns3:TrackPointExtension>
        </extensions>
      </trkpt>
      <trkpt lat="42.58137308992445468902587890625" lon="20.08690036833286285400390625">
        <ele>2189.800048828125</ele>
        <time>2026-06-15T10:05:39.000Z</time>
        <extensions>
          <ns3:TrackPointExtension>
            <ns3:atemp>18.0</ns3:atemp>
          </ns3:TrackPointExtension>
        </extensions>
      </trkpt>
      <trkpt lat="42.58137308992445468902587890625" lon="20.08690036833286285400390625">
        <ele>2189.800048828125</ele>
        <time>2026-06-15T10:05:40.000Z</time>
        <extensions>
          <ns3:TrackPointExtension>
            <ns3:atemp>18.0</ns3:atemp>
          </ns3:TrackPointExtension>
        </extensions>
      </trkpt>
      <trkpt lat="42.58137308992445468902587890625" lon="20.08690036833286285400390625">
        <ele>2189.800048828125</ele>
        <time>2026-06-15T10:05:41.000Z</time>
        <extensions>
          <ns3:TrackPointExtension>
            <ns3:atemp>18.0</ns3:atemp>
          </ns3:TrackPointExtension>
        </extensions>
      </trkpt>
      <trkpt lat="42.58137308992445468902587890625" lon="20.08690036833286285400390625">
        <ele>2189.800048828125</ele>
        <time>2026-06-15T10:05:42.000Z</time>
        <extensions>
          <ns3:TrackPointExtension>
            <ns3:atemp>18.0</ns3:atemp>
          </ns3:TrackPointExtension>
        </extensions>
      </trkpt>
      <trkpt lat="42.58137308992445468902587890625" lon="20.08690036833286285400390625">
        <ele>2189.800048828125</ele>
        <time>2026-06-15T10:05:43.000Z</time>
        <extensions>
          <ns3:TrackPointExtension>
            <ns3:atemp>18.0</ns3:atemp>
          </ns3:TrackPointExtension>
        </extensions>
      </trkpt>
      <trkpt lat="42.58137308992445468902587890625" lon="20.08690036833286285400390625">
        <ele>2189.800048828125</ele>
        <time>2026-06-15T10:05:44.000Z</time>
        <extensions>
          <ns3:TrackPointExtension>
            <ns3:atemp>18.0</ns3:atemp>
          </ns3:TrackPointExtension>
        </extensions>
      </trkpt>
      <trkpt lat="42.58137308992445468902587890625" lon="20.08690036833286285400390625">
        <ele>2189.800048828125</ele>
        <time>2026-06-15T10:05:45.000Z</time>
        <extensions>
          <ns3:TrackPointExtension>
            <ns3:atemp>18.0</ns3:atemp>
          </ns3:TrackPointExtension>
        </extensions>
      </trkpt>
      <trkpt lat="42.58137308992445468902587890625" lon="20.08690036833286285400390625">
        <ele>2192.199951171875</ele>
        <time>2026-06-15T10:05:46.000Z</time>
        <extensions>
          <ns3:TrackPointExtension>
            <ns3:atemp>18.0</ns3:atemp>
          </ns3:TrackPointExtension>
        </extensions>
      </trkpt>
      <trkpt lat="42.58137308992445468902587890625" lon="20.08690036833286285400390625">
        <ele>2192.199951171875</ele>
        <time>2026-06-15T10:05:47.000Z</time>
        <extensions>
          <ns3:TrackPointExtension>
            <ns3:atemp>18.0</ns3:atemp>
          </ns3:TrackPointExtension>
        </extensions>
      </trkpt>
      <trkpt lat="42.58137308992445468902587890625" lon="20.08690036833286285400390625">
        <ele>2192.199951171875</ele>
        <time>2026-06-15T10:05:48.000Z</time>
        <extensions>
          <ns3:TrackPointExtension>
            <ns3:atemp>18.0</ns3:atemp>
          </ns3:TrackPointExtension>
        </extensions>
      </trkpt>
      <trkpt lat="42.58137308992445468902587890625" lon="20.08690036833286285400390625">
        <ele>2192.199951171875</ele>
        <time>2026-06-15T10:05:49.000Z</time>
        <extensions>
          <ns3:TrackPointExtension>
            <ns3:atemp>18.0</ns3:atemp>
          </ns3:TrackPointExtension>
        </extensions>
      </trkpt>
      <trkpt lat="42.58137308992445468902587890625" lon="20.08690036833286285400390625">
        <ele>2192.199951171875</ele>
        <time>2026-06-15T10:05:50.000Z</time>
        <extensions>
          <ns3:TrackPointExtension>
            <ns3:atemp>18.0</ns3:atemp>
          </ns3:TrackPointExtension>
        </extensions>
      </trkpt>
      <trkpt lat="42.58137308992445468902587890625" lon="20.08690036833286285400390625">
        <ele>2192</ele>
        <time>2026-06-15T10:05:51.000Z</time>
        <extensions>
          <ns3:TrackPointExtension>
            <ns3:atemp>18.0</ns3:atemp>
          </ns3:TrackPointExtension>
        </extensions>
      </trkpt>
      <trkpt lat="42.58137308992445468902587890625" lon="20.08690036833286285400390625">
        <ele>2192</ele>
        <time>2026-06-15T10:05:52.000Z</time>
        <extensions>
          <ns3:TrackPointExtension>
            <ns3:atemp>18.0</ns3:atemp>
          </ns3:TrackPointExtension>
        </extensions>
      </trkpt>
      <trkpt lat="42.58137308992445468902587890625" lon="20.08690036833286285400390625">
        <ele>2192</ele>
        <time>2026-06-15T10:05:53.000Z</time>
        <extensions>
          <ns3:TrackPointExtension>
            <ns3:atemp>18.0</ns3:atemp>
          </ns3:TrackPointExtension>
        </extensions>
      </trkpt>
      <trkpt lat="42.58137308992445468902587890625" lon="20.08690036833286285400390625">
        <ele>2191.800048828125</ele>
        <time>2026-06-15T10:05:54.000Z</time>
        <extensions>
          <ns3:TrackPointExtension>
            <ns3:atemp>18.0</ns3:atemp>
          </ns3:TrackPointExtension>
        </extensions>
      </trkpt>
      <trkpt lat="42.58137308992445468902587890625" lon="20.08690036833286285400390625">
        <ele>2191.800048828125</ele>
        <time>2026-06-15T10:05:55.000Z</time>
        <extensions>
          <ns3:TrackPointExtension>
            <ns3:atemp>18.0</ns3:atemp>
          </ns3:TrackPointExtension>
        </extensions>
      </trkpt>
      <trkpt lat="42.58137308992445468902587890625" lon="20.08690036833286285400390625">
        <ele>2191.800048828125</ele>
        <time>2026-06-15T10:05:56.000Z</time>
        <extensions>
          <ns3:TrackPointExtension>
            <ns3:atemp>18.0</ns3:atemp>
          </ns3:TrackPointExtension>
        </extensions>
      </trkpt>
      <trkpt lat="42.58137308992445468902587890625" lon="20.08690036833286285400390625">
        <ele>2191.800048828125</ele>
        <time>2026-06-15T10:05:57.000Z</time>
        <extensions>
          <ns3:TrackPointExtension>
            <ns3:atemp>18.0</ns3:atemp>
          </ns3:TrackPointExtension>
        </extensions>
      </trkpt>
      <trkpt lat="42.58137308992445468902587890625" lon="20.08690036833286285400390625">
        <ele>2191.800048828125</ele>
        <time>2026-06-15T10:05:58.000Z</time>
        <extensions>
          <ns3:TrackPointExtension>
            <ns3:atemp>18.0</ns3:atemp>
          </ns3:TrackPointExtension>
        </extensions>
      </trkpt>
      <trkpt lat="42.58137308992445468902587890625" lon="20.08690036833286285400390625">
        <ele>2191.800048828125</ele>
        <time>2026-06-15T10:05:59.000Z</time>
        <extensions>
          <ns3:TrackPointExtension>
            <ns3:atemp>18.0</ns3:atemp>
          </ns3:TrackPointExtension>
        </extensions>
      </trkpt>
      <trkpt lat="42.58137308992445468902587890625" lon="20.08690036833286285400390625">
        <ele>2191.60009765625</ele>
        <time>2026-06-15T10:06:00.000Z</time>
        <extensions>
          <ns3:TrackPointExtension>
            <ns3:atemp>18.0</ns3:atemp>
          </ns3:TrackPointExtension>
        </extensions>
      </trkpt>
      <trkpt lat="42.58137308992445468902587890625" lon="20.08690036833286285400390625">
        <ele>2191.60009765625</ele>
        <time>2026-06-15T10:06:01.000Z</time>
        <extensions>
          <ns3:TrackPointExtension>
            <ns3:atemp>18.0</ns3:atemp>
          </ns3:TrackPointExtension>
        </extensions>
      </trkpt>
      <trkpt lat="42.58137308992445468902587890625" lon="20.08690036833286285400390625">
        <ele>2191.60009765625</ele>
        <time>2026-06-15T10:06:02.000Z</time>
        <extensions>
          <ns3:TrackPointExtension>
            <ns3:atemp>18.0</ns3:atemp>
          </ns3:TrackPointExtension>
        </extensions>
      </trkpt>
      <trkpt lat="42.58137308992445468902587890625" lon="20.08690036833286285400390625">
        <ele>2191.60009765625</ele>
        <time>2026-06-15T10:06:03.000Z</time>
        <extensions>
          <ns3:TrackPointExtension>
            <ns3:atemp>18.0</ns3:atemp>
          </ns3:TrackPointExtension>
        </extensions>
      </trkpt>
      <trkpt lat="42.58137308992445468902587890625" lon="20.08690036833286285400390625">
        <ele>2191.800048828125</ele>
        <time>2026-06-15T10:06:04.000Z</time>
        <extensions>
          <ns3:TrackPointExtension>
            <ns3:atemp>18.0</ns3:atemp>
          </ns3:TrackPointExtension>
        </extensions>
      </trkpt>
      <trkpt lat="42.58137308992445468902587890625" lon="20.08690036833286285400390625">
        <ele>2191.800048828125</ele>
        <time>2026-06-15T10:06:05.000Z</time>
        <extensions>
          <ns3:TrackPointExtension>
            <ns3:atemp>18.0</ns3:atemp>
          </ns3:TrackPointExtension>
        </extensions>
      </trkpt>
      <trkpt lat="42.58137308992445468902587890625" lon="20.08690036833286285400390625">
        <ele>2191.800048828125</ele>
        <time>2026-06-15T10:06:06.000Z</time>
        <extensions>
          <ns3:TrackPointExtension>
            <ns3:atemp>18.0</ns3:atemp>
          </ns3:TrackPointExtension>
        </extensions>
      </trkpt>
      <trkpt lat="42.58137308992445468902587890625" lon="20.08690036833286285400390625">
        <ele>2191.800048828125</ele>
        <time>2026-06-15T10:06:07.000Z</time>
        <extensions>
          <ns3:TrackPointExtension>
            <ns3:atemp>18.0</ns3:atemp>
          </ns3:TrackPointExtension>
        </extensions>
      </trkpt>
      <trkpt lat="42.58137308992445468902587890625" lon="20.08690036833286285400390625">
        <ele>2191.800048828125</ele>
        <time>2026-06-15T10:06:08.000Z</time>
        <extensions>
          <ns3:TrackPointExtension>
            <ns3:atemp>18.0</ns3:atemp>
          </ns3:TrackPointExtension>
        </extensions>
      </trkpt>
      <trkpt lat="42.58137308992445468902587890625" lon="20.08690036833286285400390625">
        <ele>2191.800048828125</ele>
        <time>2026-06-15T10:06:09.000Z</time>
        <extensions>
          <ns3:TrackPointExtension>
            <ns3:atemp>18.0</ns3:atemp>
          </ns3:TrackPointExtension>
        </extensions>
      </trkpt>
      <trkpt lat="42.58137308992445468902587890625" lon="20.08690036833286285400390625">
        <ele>2191.800048828125</ele>
        <time>2026-06-15T10:06:10.000Z</time>
        <extensions>
          <ns3:TrackPointExtension>
            <ns3:atemp>18.0</ns3:atemp>
          </ns3:TrackPointExtension>
        </extensions>
      </trkpt>
      <trkpt lat="42.58137308992445468902587890625" lon="20.08690036833286285400390625">
        <ele>2191.800048828125</ele>
        <time>2026-06-15T10:06:11.000Z</time>
        <extensions>
          <ns3:TrackPointExtension>
            <ns3:atemp>18.0</ns3:atemp>
          </ns3:TrackPointExtension>
        </extensions>
      </trkpt>
      <trkpt lat="42.58137308992445468902587890625" lon="20.08690036833286285400390625">
        <ele>2191.800048828125</ele>
        <time>2026-06-15T10:06:12.000Z</time>
        <extensions>
          <ns3:TrackPointExtension>
            <ns3:atemp>18.0</ns3:atemp>
          </ns3:TrackPointExtension>
        </extensions>
      </trkpt>
      <trkpt lat="42.58137308992445468902587890625" lon="20.08690036833286285400390625">
        <ele>2191.800048828125</ele>
        <time>2026-06-15T10:06:13.000Z</time>
        <extensions>
          <ns3:TrackPointExtension>
            <ns3:atemp>18.0</ns3:atemp>
          </ns3:TrackPointExtension>
        </extensions>
      </trkpt>
      <trkpt lat="42.58137308992445468902587890625" lon="20.08690036833286285400390625">
        <ele>2191.800048828125</ele>
        <time>2026-06-15T10:06:14.000Z</time>
        <extensions>
          <ns3:TrackPointExtension>
            <ns3:atemp>18.0</ns3:atemp>
          </ns3:TrackPointExtension>
        </extensions>
      </trkpt>
      <trkpt lat="42.58137308992445468902587890625" lon="20.08690036833286285400390625">
        <ele>2191.800048828125</ele>
        <time>2026-06-15T10:06:15.000Z</time>
        <extensions>
          <ns3:TrackPointExtension>
            <ns3:atemp>18.0</ns3:atemp>
          </ns3:TrackPointExtension>
        </extensions>
      </trkpt>
      <trkpt lat="42.58137308992445468902587890625" lon="20.08690036833286285400390625">
        <ele>2192</ele>
        <time>2026-06-15T10:06:16.000Z</time>
        <extensions>
          <ns3:TrackPointExtension>
            <ns3:atemp>18.0</ns3:atemp>
          </ns3:TrackPointExtension>
        </extensions>
      </trkpt>
      <trkpt lat="42.58137308992445468902587890625" lon="20.08690036833286285400390625">
        <ele>2192</ele>
        <time>2026-06-15T10:06:17.000Z</time>
        <extensions>
          <ns3:TrackPointExtension>
            <ns3:atemp>18.0</ns3:atemp>
          </ns3:TrackPointExtension>
        </extensions>
      </trkpt>
      <trkpt lat="42.58137308992445468902587890625" lon="20.08690036833286285400390625">
        <ele>2192.199951171875</ele>
        <time>2026-06-15T10:06:18.000Z</time>
        <extensions>
          <ns3:TrackPointExtension>
            <ns3:atemp>18.0</ns3:atemp>
          </ns3:TrackPointExtension>
        </extensions>
      </trkpt>
      <trkpt lat="42.58137308992445468902587890625" lon="20.08690036833286285400390625">
        <ele>2192.199951171875</ele>
        <time>2026-06-15T10:06:19.000Z</time>
        <extensions>
          <ns3:TrackPointExtension>
            <ns3:atemp>18.0</ns3:atemp>
          </ns3:TrackPointExtension>
        </extensions>
      </trkpt>
      <trkpt lat="42.58137308992445468902587890625" lon="20.08690036833286285400390625">
        <ele>2192.199951171875</ele>
        <time>2026-06-15T10:06:20.000Z</time>
        <extensions>
          <ns3:TrackPointExtension>
            <ns3:atemp>18.0</ns3:atemp>
          </ns3:TrackPointExtension>
        </extensions>
      </trkpt>
      <trkpt lat="42.58137308992445468902587890625" lon="20.08690036833286285400390625">
        <ele>2192.199951171875</ele>
        <time>2026-06-15T10:06:21.000Z</time>
        <extensions>
          <ns3:TrackPointExtension>
            <ns3:atemp>18.0</ns3:atemp>
          </ns3:TrackPointExtension>
        </extensions>
      </trkpt>
      <trkpt lat="42.58137308992445468902587890625" lon="20.08690036833286285400390625">
        <ele>2192.199951171875</ele>
        <time>2026-06-15T10:06:22.000Z</time>
        <extensions>
          <ns3:TrackPointExtension>
            <ns3:atemp>18.0</ns3:atemp>
          </ns3:TrackPointExtension>
        </extensions>
      </trkpt>
      <trkpt lat="42.58137308992445468902587890625" lon="20.08690036833286285400390625">
        <ele>2192.199951171875</ele>
        <time>2026-06-15T10:06:23.000Z</time>
        <extensions>
          <ns3:TrackPointExtension>
            <ns3:atemp>18.0</ns3:atemp>
          </ns3:TrackPointExtension>
        </extensions>
      </trkpt>
      <trkpt lat="42.58137308992445468902587890625" lon="20.08690036833286285400390625">
        <ele>2192.199951171875</ele>
        <time>2026-06-15T10:06:24.000Z</time>
        <extensions>
          <ns3:TrackPointExtension>
            <ns3:atemp>18.0</ns3:atemp>
          </ns3:TrackPointExtension>
        </extensions>
      </trkpt>
      <trkpt lat="42.58137308992445468902587890625" lon="20.08690036833286285400390625">
        <ele>2192.199951171875</ele>
        <time>2026-06-15T10:06:25.000Z</time>
        <extensions>
          <ns3:TrackPointExtension>
            <ns3:atemp>18.0</ns3:atemp>
          </ns3:TrackPointExtension>
        </extensions>
      </trkpt>
      <trkpt lat="42.58137308992445468902587890625" lon="20.08690036833286285400390625">
        <ele>2192.199951171875</ele>
        <time>2026-06-15T10:06:26.000Z</time>
        <extensions>
          <ns3:TrackPointExtension>
            <ns3:atemp>18.0</ns3:atemp>
          </ns3:TrackPointExtension>
        </extensions>
      </trkpt>
      <trkpt lat="42.58137308992445468902587890625" lon="20.08690036833286285400390625">
        <ele>2192.199951171875</ele>
        <time>2026-06-15T10:06:27.000Z</time>
        <extensions>
          <ns3:TrackPointExtension>
            <ns3:atemp>18.0</ns3:atemp>
          </ns3:TrackPointExtension>
        </extensions>
      </trkpt>
      <trkpt lat="42.58137308992445468902587890625" lon="20.08690036833286285400390625">
        <ele>2192.39990234375</ele>
        <time>2026-06-15T10:06:28.000Z</time>
        <extensions>
          <ns3:TrackPointExtension>
            <ns3:atemp>18.0</ns3:atemp>
          </ns3:TrackPointExtension>
        </extensions>
      </trkpt>
      <trkpt lat="42.58137308992445468902587890625" lon="20.08690036833286285400390625">
        <ele>2192.39990234375</ele>
        <time>2026-06-15T10:06:29.000Z</time>
        <extensions>
          <ns3:TrackPointExtension>
            <ns3:atemp>18.0</ns3:atemp>
          </ns3:TrackPointExtension>
        </extensions>
      </trkpt>
      <trkpt lat="42.58137308992445468902587890625" lon="20.08690036833286285400390625">
        <ele>2192.60009765625</ele>
        <time>2026-06-15T10:06:30.000Z</time>
        <extensions>
          <ns3:TrackPointExtension>
            <ns3:atemp>18.0</ns3:atemp>
          </ns3:TrackPointExtension>
        </extensions>
      </trkpt>
      <trkpt lat="42.58137308992445468902587890625" lon="20.08690036833286285400390625">
        <ele>2192.60009765625</ele>
        <time>2026-06-15T10:06:31.000Z</time>
        <extensions>
          <ns3:TrackPointExtension>
            <ns3:atemp>18.0</ns3:atemp>
          </ns3:TrackPointExtension>
        </extensions>
      </trkpt>
      <trkpt lat="42.58137308992445468902587890625" lon="20.08690036833286285400390625">
        <ele>2192.60009765625</ele>
        <time>2026-06-15T10:06:32.000Z</time>
        <extensions>
          <ns3:TrackPointExtension>
            <ns3:atemp>18.0</ns3:atemp>
          </ns3:TrackPointExtension>
        </extensions>
      </trkpt>
      <trkpt lat="42.58137308992445468902587890625" lon="20.08690036833286285400390625">
        <ele>2192.60009765625</ele>
        <time>2026-06-15T10:06:33.000Z</time>
        <extensions>
          <ns3:TrackPointExtension>
            <ns3:atemp>18.0</ns3:atemp>
          </ns3:TrackPointExtension>
        </extensions>
      </trkpt>
      <trkpt lat="42.58137308992445468902587890625" lon="20.08690036833286285400390625">
        <ele>2192.60009765625</ele>
        <time>2026-06-15T10:06:34.000Z</time>
        <extensions>
          <ns3:TrackPointExtension>
            <ns3:atemp>18.0</ns3:atemp>
          </ns3:TrackPointExtension>
        </extensions>
      </trkpt>
      <trkpt lat="42.58137308992445468902587890625" lon="20.08690036833286285400390625">
        <ele>2192.60009765625</ele>
        <time>2026-06-15T10:06:35.000Z</time>
        <extensions>
          <ns3:TrackPointExtension>
            <ns3:atemp>18.0</ns3:atemp>
          </ns3:TrackPointExtension>
        </extensions>
      </trkpt>
      <trkpt lat="42.58137308992445468902587890625" lon="20.08690036833286285400390625">
        <ele>2192.60009765625</ele>
        <time>2026-06-15T10:06:36.000Z</time>
        <extensions>
          <ns3:TrackPointExtension>
            <ns3:atemp>18.0</ns3:atemp>
          </ns3:TrackPointExtension>
        </extensions>
      </trkpt>
      <trkpt lat="42.58137308992445468902587890625" lon="20.08690036833286285400390625">
        <ele>2192.60009765625</ele>
        <time>2026-06-15T10:06:37.000Z</time>
        <extensions>
          <ns3:TrackPointExtension>
            <ns3:atemp>18.0</ns3:atemp>
          </ns3:TrackPointExtension>
        </extensions>
      </trkpt>
      <trkpt lat="42.58137308992445468902587890625" lon="20.08690036833286285400390625">
        <ele>2192.60009765625</ele>
        <time>2026-06-15T10:06:38.000Z</time>
        <extensions>
          <ns3:TrackPointExtension>
            <ns3:atemp>18.0</ns3:atemp>
          </ns3:TrackPointExtension>
        </extensions>
      </trkpt>
      <trkpt lat="42.58137308992445468902587890625" lon="20.08690036833286285400390625">
        <ele>2192.60009765625</ele>
        <time>2026-06-15T10:06:39.000Z</time>
        <extensions>
          <ns3:TrackPointExtension>
            <ns3:atemp>18.0</ns3:atemp>
          </ns3:TrackPointExtension>
        </extensions>
      </trkpt>
      <trkpt lat="42.58137308992445468902587890625" lon="20.08690036833286285400390625">
        <ele>2192.60009765625</ele>
        <time>2026-06-15T10:06:40.000Z</time>
        <extensions>
          <ns3:TrackPointExtension>
            <ns3:atemp>18.0</ns3:atemp>
          </ns3:TrackPointExtension>
        </extensions>
      </trkpt>
      <trkpt lat="42.58137308992445468902587890625" lon="20.08690036833286285400390625">
        <ele>2192.60009765625</ele>
        <time>2026-06-15T10:06:41.000Z</time>
        <extensions>
          <ns3:TrackPointExtension>
            <ns3:atemp>18.0</ns3:atemp>
          </ns3:TrackPointExtension>
        </extensions>
      </trkpt>
      <trkpt lat="42.58137308992445468902587890625" lon="20.08690036833286285400390625">
        <ele>2192.60009765625</ele>
        <time>2026-06-15T10:06:42.000Z</time>
        <extensions>
          <ns3:TrackPointExtension>
            <ns3:atemp>18.0</ns3:atemp>
          </ns3:TrackPointExtension>
        </extensions>
      </trkpt>
      <trkpt lat="42.58137308992445468902587890625" lon="20.08690036833286285400390625">
        <ele>2192.60009765625</ele>
        <time>2026-06-15T10:06:43.000Z</time>
        <extensions>
          <ns3:TrackPointExtension>
            <ns3:atemp>18.0</ns3:atemp>
          </ns3:TrackPointExtension>
        </extensions>
      </trkpt>
      <trkpt lat="42.58137308992445468902587890625" lon="20.08690036833286285400390625">
        <ele>2192.60009765625</ele>
        <time>2026-06-15T10:06:44.000Z</time>
        <extensions>
          <ns3:TrackPointExtension>
            <ns3:atemp>18.0</ns3:atemp>
          </ns3:TrackPointExtension>
        </extensions>
      </trkpt>
      <trkpt lat="42.58137308992445468902587890625" lon="20.08690036833286285400390625">
        <ele>2192.800048828125</ele>
        <time>2026-06-15T10:06:45.000Z</time>
        <extensions>
          <ns3:TrackPointExtension>
            <ns3:atemp>18.0</ns3:atemp>
          </ns3:TrackPointExtension>
        </extensions>
      </trkpt>
      <trkpt lat="42.58137308992445468902587890625" lon="20.08690036833286285400390625">
        <ele>2192.800048828125</ele>
        <time>2026-06-15T10:06:46.000Z</time>
        <extensions>
          <ns3:TrackPointExtension>
            <ns3:atemp>18.0</ns3:atemp>
          </ns3:TrackPointExtension>
        </extensions>
      </trkpt>
      <trkpt lat="42.58137308992445468902587890625" lon="20.08690036833286285400390625">
        <ele>2192.800048828125</ele>
        <time>2026-06-15T10:06:47.000Z</time>
        <extensions>
          <ns3:TrackPointExtension>
            <ns3:atemp>18.0</ns3:atemp>
          </ns3:TrackPointExtension>
        </extensions>
      </trkpt>
      <trkpt lat="42.58137308992445468902587890625" lon="20.08690036833286285400390625">
        <ele>2192.800048828125</ele>
        <time>2026-06-15T10:06:48.000Z</time>
        <extensions>
          <ns3:TrackPointExtension>
            <ns3:atemp>18.0</ns3:atemp>
          </ns3:TrackPointExtension>
        </extensions>
      </trkpt>
      <trkpt lat="42.58137308992445468902587890625" lon="20.08690036833286285400390625">
        <ele>2192.800048828125</ele>
        <time>2026-06-15T10:06:49.000Z</time>
        <extensions>
          <ns3:TrackPointExtension>
            <ns3:atemp>18.0</ns3:atemp>
          </ns3:TrackPointExtension>
        </extensions>
      </trkpt>
      <trkpt lat="42.58137308992445468902587890625" lon="20.08690036833286285400390625">
        <ele>2192.800048828125</ele>
        <time>2026-06-15T10:06:50.000Z</time>
        <extensions>
          <ns3:TrackPointExtension>
            <ns3:atemp>18.0</ns3:atemp>
          </ns3:TrackPointExtension>
        </extensions>
      </trkpt>
      <trkpt lat="42.58137308992445468902587890625" lon="20.08690036833286285400390625">
        <ele>2192.800048828125</ele>
        <time>2026-06-15T10:06:51.000Z</time>
        <extensions>
          <ns3:TrackPointExtension>
            <ns3:atemp>18.0</ns3:atemp>
          </ns3:TrackPointExtension>
        </extensions>
      </trkpt>
      <trkpt lat="42.58137308992445468902587890625" lon="20.08690036833286285400390625">
        <ele>2192.800048828125</ele>
        <time>2026-06-15T10:06:52.000Z</time>
        <extensions>
          <ns3:TrackPointExtension>
            <ns3:atemp>18.0</ns3:atemp>
          </ns3:TrackPointExtension>
        </extensions>
      </trkpt>
      <trkpt lat="42.58137308992445468902587890625" lon="20.08690036833286285400390625">
        <ele>2192.60009765625</ele>
        <time>2026-06-15T10:06:53.000Z</time>
        <extensions>
          <ns3:TrackPointExtension>
            <ns3:atemp>18.0</ns3:atemp>
          </ns3:TrackPointExtension>
        </extensions>
      </trkpt>
      <trkpt lat="42.58137308992445468902587890625" lon="20.08690036833286285400390625">
        <ele>2192.60009765625</ele>
        <time>2026-06-15T10:06:54.000Z</time>
        <extensions>
          <ns3:TrackPointExtension>
            <ns3:atemp>18.0</ns3:atemp>
          </ns3:TrackPointExtension>
        </extensions>
      </trkpt>
      <trkpt lat="42.58137308992445468902587890625" lon="20.08690036833286285400390625">
        <ele>2192.39990234375</ele>
        <time>2026-06-15T10:06:55.000Z</time>
        <extensions>
          <ns3:TrackPointExtension>
            <ns3:atemp>18.0</ns3:atemp>
          </ns3:TrackPointExtension>
        </extensions>
      </trkpt>
      <trkpt lat="42.58137308992445468902587890625" lon="20.08690036833286285400390625">
        <ele>2192.199951171875</ele>
        <time>2026-06-15T10:06:56.000Z</time>
        <extensions>
          <ns3:TrackPointExtension>
            <ns3:atemp>18.0</ns3:atemp>
          </ns3:TrackPointExtension>
        </extensions>
      </trkpt>
      <trkpt lat="42.58137308992445468902587890625" lon="20.08690036833286285400390625">
        <ele>2192</ele>
        <time>2026-06-15T10:06:57.000Z</time>
        <extensions>
          <ns3:TrackPointExtension>
            <ns3:atemp>18.0</ns3:atemp>
          </ns3:TrackPointExtension>
        </extensions>
      </trkpt>
      <trkpt lat="42.58137308992445468902587890625" lon="20.08690036833286285400390625">
        <ele>2191.800048828125</ele>
        <time>2026-06-15T10:06:58.000Z</time>
        <extensions>
          <ns3:TrackPointExtension>
            <ns3:atemp>18.0</ns3:atemp>
          </ns3:TrackPointExtension>
        </extensions>
      </trkpt>
      <trkpt lat="42.58137308992445468902587890625" lon="20.08690036833286285400390625">
        <ele>2191.800048828125</ele>
        <time>2026-06-15T10:06:59.000Z</time>
        <extensions>
          <ns3:TrackPointExtension>
            <ns3:atemp>18.0</ns3:atemp>
          </ns3:TrackPointExtension>
        </extensions>
      </trkpt>
      <trkpt lat="42.58137308992445468902587890625" lon="20.08690036833286285400390625">
        <ele>2192</ele>
        <time>2026-06-15T10:07:00.000Z</time>
        <extensions>
          <ns3:TrackPointExtension>
            <ns3:atemp>18.0</ns3:atemp>
          </ns3:TrackPointExtension>
        </extensions>
      </trkpt>
      <trkpt lat="42.58137308992445468902587890625" lon="20.08690036833286285400390625">
        <ele>2192</ele>
        <time>2026-06-15T10:07:01.000Z</time>
        <extensions>
          <ns3:TrackPointExtension>
            <ns3:atemp>18.0</ns3:atemp>
          </ns3:TrackPointExtension>
        </extensions>
      </trkpt>
      <trkpt lat="42.58137308992445468902587890625" lon="20.08690036833286285400390625">
        <ele>2192.199951171875</ele>
        <time>2026-06-15T10:07:02.000Z</time>
        <extensions>
          <ns3:TrackPointExtension>
            <ns3:atemp>18.0</ns3:atemp>
          </ns3:TrackPointExtension>
        </extensions>
      </trkpt>
      <trkpt lat="42.58137308992445468902587890625" lon="20.08690036833286285400390625">
        <ele>2192.39990234375</ele>
        <time>2026-06-15T10:07:03.000Z</time>
        <extensions>
          <ns3:TrackPointExtension>
            <ns3:atemp>18.0</ns3:atemp>
          </ns3:TrackPointExtension>
        </extensions>
      </trkpt>
      <trkpt lat="42.58137308992445468902587890625" lon="20.08690036833286285400390625">
        <ele>2192.39990234375</ele>
        <time>2026-06-15T10:07:04.000Z</time>
        <extensions>
          <ns3:TrackPointExtension>
            <ns3:atemp>18.0</ns3:atemp>
          </ns3:TrackPointExtension>
        </extensions>
      </trkpt>
      <trkpt lat="42.58137308992445468902587890625" lon="20.08690036833286285400390625">
        <ele>2192.39990234375</ele>
        <time>2026-06-15T10:07:05.000Z</time>
        <extensions>
          <ns3:TrackPointExtension>
            <ns3:atemp>18.0</ns3:atemp>
          </ns3:TrackPointExtension>
        </extensions>
      </trkpt>
      <trkpt lat="42.58137308992445468902587890625" lon="20.08690036833286285400390625">
        <ele>2192.39990234375</ele>
        <time>2026-06-15T10:07:06.000Z</time>
        <extensions>
          <ns3:TrackPointExtension>
            <ns3:atemp>18.0</ns3:atemp>
          </ns3:TrackPointExtension>
        </extensions>
      </trkpt>
      <trkpt lat="42.58137308992445468902587890625" lon="20.08690036833286285400390625">
        <ele>2192.39990234375</ele>
        <time>2026-06-15T10:07:07.000Z</time>
        <extensions>
          <ns3:TrackPointExtension>
            <ns3:atemp>18.0</ns3:atemp>
          </ns3:TrackPointExtension>
        </extensions>
      </trkpt>
      <trkpt lat="42.58137308992445468902587890625" lon="20.08690036833286285400390625">
        <ele>2192.39990234375</ele>
        <time>2026-06-15T10:07:08.000Z</time>
        <extensions>
          <ns3:TrackPointExtension>
            <ns3:atemp>18.0</ns3:atemp>
          </ns3:TrackPointExtension>
        </extensions>
      </trkpt>
      <trkpt lat="42.58137308992445468902587890625" lon="20.08690036833286285400390625">
        <ele>2192.39990234375</ele>
        <time>2026-06-15T10:07:09.000Z</time>
        <extensions>
          <ns3:TrackPointExtension>
            <ns3:atemp>18.0</ns3:atemp>
          </ns3:TrackPointExtension>
        </extensions>
      </trkpt>
      <trkpt lat="42.58137308992445468902587890625" lon="20.08690036833286285400390625">
        <ele>2192.39990234375</ele>
        <time>2026-06-15T10:07:10.000Z</time>
        <extensions>
          <ns3:TrackPointExtension>
            <ns3:atemp>18.0</ns3:atemp>
          </ns3:TrackPointExtension>
        </extensions>
      </trkpt>
      <trkpt lat="42.58137308992445468902587890625" lon="20.08690036833286285400390625">
        <ele>2192.39990234375</ele>
        <time>2026-06-15T10:07:11.000Z</time>
        <extensions>
          <ns3:TrackPointExtension>
            <ns3:atemp>18.0</ns3:atemp>
          </ns3:TrackPointExtension>
        </extensions>
      </trkpt>
      <trkpt lat="42.58137308992445468902587890625" lon="20.08690036833286285400390625">
        <ele>2192.39990234375</ele>
        <time>2026-06-15T10:07:12.000Z</time>
        <extensions>
          <ns3:TrackPointExtension>
            <ns3:atemp>18.0</ns3:atemp>
          </ns3:TrackPointExtension>
        </extensions>
      </trkpt>
      <trkpt lat="42.58137308992445468902587890625" lon="20.08690036833286285400390625">
        <ele>2192.39990234375</ele>
        <time>2026-06-15T10:07:13.000Z</time>
        <extensions>
          <ns3:TrackPointExtension>
            <ns3:atemp>18.0</ns3:atemp>
          </ns3:TrackPointExtension>
        </extensions>
      </trkpt>
      <trkpt lat="42.58137308992445468902587890625" lon="20.08690036833286285400390625">
        <ele>2192.39990234375</ele>
        <time>2026-06-15T10:07:14.000Z</time>
        <extensions>
          <ns3:TrackPointExtension>
            <ns3:atemp>18.0</ns3:atemp>
          </ns3:TrackPointExtension>
        </extensions>
      </trkpt>
      <trkpt lat="42.58137308992445468902587890625" lon="20.08690036833286285400390625">
        <ele>2192.39990234375</ele>
        <time>2026-06-15T10:07:15.000Z</time>
        <extensions>
          <ns3:TrackPointExtension>
            <ns3:atemp>18.0</ns3:atemp>
          </ns3:TrackPointExtension>
        </extensions>
      </trkpt>
      <trkpt lat="42.58137308992445468902587890625" lon="20.08690036833286285400390625">
        <ele>2192.39990234375</ele>
        <time>2026-06-15T10:07:16.000Z</time>
        <extensions>
          <ns3:TrackPointExtension>
            <ns3:atemp>18.0</ns3:atemp>
          </ns3:TrackPointExtension>
        </extensions>
      </trkpt>
      <trkpt lat="42.58137308992445468902587890625" lon="20.08690036833286285400390625">
        <ele>2192.60009765625</ele>
        <time>2026-06-15T10:07:17.000Z</time>
        <extensions>
          <ns3:TrackPointExtension>
            <ns3:atemp>18.0</ns3:atemp>
          </ns3:TrackPointExtension>
        </extensions>
      </trkpt>
      <trkpt lat="42.58137308992445468902587890625" lon="20.08690036833286285400390625">
        <ele>2192.60009765625</ele>
        <time>2026-06-15T10:07:18.000Z</time>
        <extensions>
          <ns3:TrackPointExtension>
            <ns3:atemp>18.0</ns3:atemp>
          </ns3:TrackPointExtension>
        </extensions>
      </trkpt>
      <trkpt lat="42.58137308992445468902587890625" lon="20.08690036833286285400390625">
        <ele>2192.60009765625</ele>
        <time>2026-06-15T10:07:19.000Z</time>
        <extensions>
          <ns3:TrackPointExtension>
            <ns3:atemp>18.0</ns3:atemp>
          </ns3:TrackPointExtension>
        </extensions>
      </trkpt>
      <trkpt lat="42.58137308992445468902587890625" lon="20.08690036833286285400390625">
        <ele>2192.800048828125</ele>
        <time>2026-06-15T10:07:20.000Z</time>
        <extensions>
          <ns3:TrackPointExtension>
            <ns3:atemp>18.0</ns3:atemp>
          </ns3:TrackPointExtension>
        </extensions>
      </trkpt>
      <trkpt lat="42.58137308992445468902587890625" lon="20.08690036833286285400390625">
        <ele>2192.800048828125</ele>
        <time>2026-06-15T10:07:21.000Z</time>
        <extensions>
          <ns3:TrackPointExtension>
            <ns3:atemp>18.0</ns3:atemp>
          </ns3:TrackPointExtension>
        </extensions>
      </trkpt>
      <trkpt lat="42.58137308992445468902587890625" lon="20.08690036833286285400390625">
        <ele>2192.800048828125</ele>
        <time>2026-06-15T10:07:22.000Z</time>
        <extensions>
          <ns3:TrackPointExtension>
            <ns3:atemp>18.0</ns3:atemp>
          </ns3:TrackPointExtension>
        </extensions>
      </trkpt>
      <trkpt lat="42.58137308992445468902587890625" lon="20.08690036833286285400390625">
        <ele>2192.800048828125</ele>
        <time>2026-06-15T10:07:23.000Z</time>
        <extensions>
          <ns3:TrackPointExtension>
            <ns3:atemp>18.0</ns3:atemp>
          </ns3:TrackPointExtension>
        </extensions>
      </trkpt>
      <trkpt lat="42.58137308992445468902587890625" lon="20.08690036833286285400390625">
        <ele>2192.60009765625</ele>
        <time>2026-06-15T10:07:24.000Z</time>
        <extensions>
          <ns3:TrackPointExtension>
            <ns3:atemp>18.0</ns3:atemp>
          </ns3:TrackPointExtension>
        </extensions>
      </trkpt>
      <trkpt lat="42.58137308992445468902587890625" lon="20.08690036833286285400390625">
        <ele>2192.60009765625</ele>
        <time>2026-06-15T10:07:25.000Z</time>
        <extensions>
          <ns3:TrackPointExtension>
            <ns3:atemp>18.0</ns3:atemp>
          </ns3:TrackPointExtension>
        </extensions>
      </trkpt>
      <trkpt lat="42.58137308992445468902587890625" lon="20.08690036833286285400390625">
        <ele>2192.60009765625</ele>
        <time>2026-06-15T10:07:26.000Z</time>
        <extensions>
          <ns3:TrackPointExtension>
            <ns3:atemp>18.0</ns3:atemp>
          </ns3:TrackPointExtension>
        </extensions>
      </trkpt>
      <trkpt lat="42.58137308992445468902587890625" lon="20.08690036833286285400390625">
        <ele>2192.60009765625</ele>
        <time>2026-06-15T10:07:27.000Z</time>
        <extensions>
          <ns3:TrackPointExtension>
            <ns3:atemp>18.0</ns3:atemp>
          </ns3:TrackPointExtension>
        </extensions>
      </trkpt>
      <trkpt lat="42.58137308992445468902587890625" lon="20.08690036833286285400390625">
        <ele>2192.60009765625</ele>
        <time>2026-06-15T10:07:28.000Z</time>
        <extensions>
          <ns3:TrackPointExtension>
            <ns3:atemp>18.0</ns3:atemp>
          </ns3:TrackPointExtension>
        </extensions>
      </trkpt>
      <trkpt lat="42.58137308992445468902587890625" lon="20.08690036833286285400390625">
        <ele>2192.60009765625</ele>
        <time>2026-06-15T10:07:29.000Z</time>
        <extensions>
          <ns3:TrackPointExtension>
            <ns3:atemp>18.0</ns3:atemp>
          </ns3:TrackPointExtension>
        </extensions>
      </trkpt>
      <trkpt lat="42.58137308992445468902587890625" lon="20.08690036833286285400390625">
        <ele>2192.60009765625</ele>
        <time>2026-06-15T10:07:30.000Z</time>
        <extensions>
          <ns3:TrackPointExtension>
            <ns3:atemp>18.0</ns3:atemp>
          </ns3:TrackPointExtension>
        </extensions>
      </trkpt>
      <trkpt lat="42.58137308992445468902587890625" lon="20.08690036833286285400390625">
        <ele>2192.60009765625</ele>
        <time>2026-06-15T10:07:31.000Z</time>
        <extensions>
          <ns3:TrackPointExtension>
            <ns3:atemp>18.0</ns3:atemp>
          </ns3:TrackPointExtension>
        </extensions>
      </trkpt>
      <trkpt lat="42.58137308992445468902587890625" lon="20.08690036833286285400390625">
        <ele>2192.39990234375</ele>
        <time>2026-06-15T10:07:32.000Z</time>
        <extensions>
          <ns3:TrackPointExtension>
            <ns3:atemp>18.0</ns3:atemp>
          </ns3:TrackPointExtension>
        </extensions>
      </trkpt>
      <trkpt lat="42.58137308992445468902587890625" lon="20.08690036833286285400390625">
        <ele>2192.39990234375</ele>
        <time>2026-06-15T10:07:33.000Z</time>
        <extensions>
          <ns3:TrackPointExtension>
            <ns3:atemp>18.0</ns3:atemp>
          </ns3:TrackPointExtension>
        </extensions>
      </trkpt>
      <trkpt lat="42.58137308992445468902587890625" lon="20.08690036833286285400390625">
        <ele>2192.39990234375</ele>
        <time>2026-06-15T10:07:34.000Z</time>
        <extensions>
          <ns3:TrackPointExtension>
            <ns3:atemp>18.0</ns3:atemp>
          </ns3:TrackPointExtension>
        </extensions>
      </trkpt>
      <trkpt lat="42.58137308992445468902587890625" lon="20.08690036833286285400390625">
        <ele>2192.39990234375</ele>
        <time>2026-06-15T10:07:35.000Z</time>
        <extensions>
          <ns3:TrackPointExtension>
            <ns3:atemp>18.0</ns3:atemp>
          </ns3:TrackPointExtension>
        </extensions>
      </trkpt>
      <trkpt lat="42.58137308992445468902587890625" lon="20.08690036833286285400390625">
        <ele>2192.39990234375</ele>
        <time>2026-06-15T10:07:36.000Z</time>
        <extensions>
          <ns3:TrackPointExtension>
            <ns3:atemp>18.0</ns3:atemp>
          </ns3:TrackPointExtension>
        </extensions>
      </trkpt>
      <trkpt lat="42.58137308992445468902587890625" lon="20.08690036833286285400390625">
        <ele>2192.39990234375</ele>
        <time>2026-06-15T10:07:37.000Z</time>
        <extensions>
          <ns3:TrackPointExtension>
            <ns3:atemp>18.0</ns3:atemp>
          </ns3:TrackPointExtension>
        </extensions>
      </trkpt>
      <trkpt lat="42.58137308992445468902587890625" lon="20.08690036833286285400390625">
        <ele>2192.39990234375</ele>
        <time>2026-06-15T10:07:38.000Z</time>
        <extensions>
          <ns3:TrackPointExtension>
            <ns3:atemp>18.0</ns3:atemp>
          </ns3:TrackPointExtension>
        </extensions>
      </trkpt>
      <trkpt lat="42.58137308992445468902587890625" lon="20.08690036833286285400390625">
        <ele>2192.39990234375</ele>
        <time>2026-06-15T10:07:39.000Z</time>
        <extensions>
          <ns3:TrackPointExtension>
            <ns3:atemp>18.0</ns3:atemp>
          </ns3:TrackPointExtension>
        </extensions>
      </trkpt>
      <trkpt lat="42.58137308992445468902587890625" lon="20.08690036833286285400390625">
        <ele>2192.39990234375</ele>
        <time>2026-06-15T10:07:40.000Z</time>
        <extensions>
          <ns3:TrackPointExtension>
            <ns3:atemp>18.0</ns3:atemp>
          </ns3:TrackPointExtension>
        </extensions>
      </trkpt>
      <trkpt lat="42.58137308992445468902587890625" lon="20.08690036833286285400390625">
        <ele>2192.39990234375</ele>
        <time>2026-06-15T10:07:41.000Z</time>
        <extensions>
          <ns3:TrackPointExtension>
            <ns3:atemp>18.0</ns3:atemp>
          </ns3:TrackPointExtension>
        </extensions>
      </trkpt>
      <trkpt lat="42.58137308992445468902587890625" lon="20.08690036833286285400390625">
        <ele>2192.39990234375</ele>
        <time>2026-06-15T10:07:42.000Z</time>
        <extensions>
          <ns3:TrackPointExtension>
            <ns3:atemp>18.0</ns3:atemp>
          </ns3:TrackPointExtension>
        </extensions>
      </trkpt>
      <trkpt lat="42.58137308992445468902587890625" lon="20.08690036833286285400390625">
        <ele>2192.39990234375</ele>
        <time>2026-06-15T10:07:43.000Z</time>
        <extensions>
          <ns3:TrackPointExtension>
            <ns3:atemp>18.0</ns3:atemp>
          </ns3:TrackPointExtension>
        </extensions>
      </trkpt>
      <trkpt lat="42.58137308992445468902587890625" lon="20.08690036833286285400390625">
        <ele>2192.39990234375</ele>
        <time>2026-06-15T10:07:44.000Z</time>
        <extensions>
          <ns3:TrackPointExtension>
            <ns3:atemp>18.0</ns3:atemp>
          </ns3:TrackPointExtension>
        </extensions>
      </trkpt>
      <trkpt lat="42.58137308992445468902587890625" lon="20.08690036833286285400390625">
        <ele>2192.39990234375</ele>
        <time>2026-06-15T10:07:45.000Z</time>
        <extensions>
          <ns3:TrackPointExtension>
            <ns3:atemp>18.0</ns3:atemp>
          </ns3:TrackPointExtension>
        </extensions>
      </trkpt>
      <trkpt lat="42.58137308992445468902587890625" lon="20.08690036833286285400390625">
        <ele>2192.39990234375</ele>
        <time>2026-06-15T10:07:46.000Z</time>
        <extensions>
          <ns3:TrackPointExtension>
            <ns3:atemp>18.0</ns3:atemp>
          </ns3:TrackPointExtension>
        </extensions>
      </trkpt>
      <trkpt lat="42.58137308992445468902587890625" lon="20.08690036833286285400390625">
        <ele>2192.39990234375</ele>
        <time>2026-06-15T10:07:47.000Z</time>
        <extensions>
          <ns3:TrackPointExtension>
            <ns3:atemp>18.0</ns3:atemp>
          </ns3:TrackPointExtension>
        </extensions>
      </trkpt>
      <trkpt lat="42.58137308992445468902587890625" lon="20.08690036833286285400390625">
        <ele>2192.39990234375</ele>
        <time>2026-06-15T10:07:48.000Z</time>
        <extensions>
          <ns3:TrackPointExtension>
            <ns3:atemp>18.0</ns3:atemp>
          </ns3:TrackPointExtension>
        </extensions>
      </trkpt>
      <trkpt lat="42.58137308992445468902587890625" lon="20.08690036833286285400390625">
        <ele>2192.39990234375</ele>
        <time>2026-06-15T10:07:49.000Z</time>
        <extensions>
          <ns3:TrackPointExtension>
            <ns3:atemp>18.0</ns3:atemp>
          </ns3:TrackPointExtension>
        </extensions>
      </trkpt>
      <trkpt lat="42.58137308992445468902587890625" lon="20.08690036833286285400390625">
        <ele>2192.39990234375</ele>
        <time>2026-06-15T10:07:50.000Z</time>
        <extensions>
          <ns3:TrackPointExtension>
            <ns3:atemp>18.0</ns3:atemp>
          </ns3:TrackPointExtension>
        </extensions>
      </trkpt>
      <trkpt lat="42.58137308992445468902587890625" lon="20.08690036833286285400390625">
        <ele>2192.39990234375</ele>
        <time>2026-06-15T10:07:51.000Z</time>
        <extensions>
          <ns3:TrackPointExtension>
            <ns3:atemp>18.0</ns3:atemp>
          </ns3:TrackPointExtension>
        </extensions>
      </trkpt>
      <trkpt lat="42.58137308992445468902587890625" lon="20.08690036833286285400390625">
        <ele>2192.39990234375</ele>
        <time>2026-06-15T10:07:52.000Z</time>
        <extensions>
          <ns3:TrackPointExtension>
            <ns3:atemp>18.0</ns3:atemp>
          </ns3:TrackPointExtension>
        </extensions>
      </trkpt>
      <trkpt lat="42.58137308992445468902587890625" lon="20.08690036833286285400390625">
        <ele>2192.39990234375</ele>
        <time>2026-06-15T10:07:53.000Z</time>
        <extensions>
          <ns3:TrackPointExtension>
            <ns3:atemp>18.0</ns3:atemp>
          </ns3:TrackPointExtension>
        </extensions>
      </trkpt>
      <trkpt lat="42.58137308992445468902587890625" lon="20.08690036833286285400390625">
        <ele>2192.39990234375</ele>
        <time>2026-06-15T10:07:54.000Z</time>
        <extensions>
          <ns3:TrackPointExtension>
            <ns3:atemp>18.0</ns3:atemp>
          </ns3:TrackPointExtension>
        </extensions>
      </trkpt>
      <trkpt lat="42.58137308992445468902587890625" lon="20.08690036833286285400390625">
        <ele>2192.39990234375</ele>
        <time>2026-06-15T10:07:55.000Z</time>
        <extensions>
          <ns3:TrackPointExtension>
            <ns3:atemp>18.0</ns3:atemp>
          </ns3:TrackPointExtension>
        </extensions>
      </trkpt>
      <trkpt lat="42.58137308992445468902587890625" lon="20.08690036833286285400390625">
        <ele>2192.39990234375</ele>
        <time>2026-06-15T10:07:56.000Z</time>
        <extensions>
          <ns3:TrackPointExtension>
            <ns3:atemp>18.0</ns3:atemp>
          </ns3:TrackPointExtension>
        </extensions>
      </trkpt>
      <trkpt lat="42.58137308992445468902587890625" lon="20.08690036833286285400390625">
        <ele>2192.39990234375</ele>
        <time>2026-06-15T10:07:57.000Z</time>
        <extensions>
          <ns3:TrackPointExtension>
            <ns3:atemp>18.0</ns3:atemp>
          </ns3:TrackPointExtension>
        </extensions>
      </trkpt>
      <trkpt lat="42.58137308992445468902587890625" lon="20.08690036833286285400390625">
        <ele>2192.39990234375</ele>
        <time>2026-06-15T10:07:58.000Z</time>
        <extensions>
          <ns3:TrackPointExtension>
            <ns3:atemp>18.0</ns3:atemp>
          </ns3:TrackPointExtension>
        </extensions>
      </trkpt>
      <trkpt lat="42.58137308992445468902587890625" lon="20.08690036833286285400390625">
        <ele>2192.39990234375</ele>
        <time>2026-06-15T10:07:59.000Z</time>
        <extensions>
          <ns3:TrackPointExtension>
            <ns3:atemp>18.0</ns3:atemp>
          </ns3:TrackPointExtension>
        </extensions>
      </trkpt>
      <trkpt lat="42.58137308992445468902587890625" lon="20.08690036833286285400390625">
        <ele>2192.39990234375</ele>
        <time>2026-06-15T10:08:00.000Z</time>
        <extensions>
          <ns3:TrackPointExtension>
            <ns3:atemp>18.0</ns3:atemp>
          </ns3:TrackPointExtension>
        </extensions>
      </trkpt>
      <trkpt lat="42.58137308992445468902587890625" lon="20.08690036833286285400390625">
        <ele>2192.39990234375</ele>
        <time>2026-06-15T10:08:01.000Z</time>
        <extensions>
          <ns3:TrackPointExtension>
            <ns3:atemp>18.0</ns3:atemp>
          </ns3:TrackPointExtension>
        </extensions>
      </trkpt>
      <trkpt lat="42.58137308992445468902587890625" lon="20.08690036833286285400390625">
        <ele>2192.39990234375</ele>
        <time>2026-06-15T10:08:02.000Z</time>
        <extensions>
          <ns3:TrackPointExtension>
            <ns3:atemp>18.0</ns3:atemp>
          </ns3:TrackPointExtension>
        </extensions>
      </trkpt>
      <trkpt lat="42.58137308992445468902587890625" lon="20.08690036833286285400390625">
        <ele>2192.39990234375</ele>
        <time>2026-06-15T10:08:03.000Z</time>
        <extensions>
          <ns3:TrackPointExtension>
            <ns3:atemp>18.0</ns3:atemp>
          </ns3:TrackPointExtension>
        </extensions>
      </trkpt>
      <trkpt lat="42.58137308992445468902587890625" lon="20.08690036833286285400390625">
        <ele>2192.39990234375</ele>
        <time>2026-06-15T10:08:04.000Z</time>
        <extensions>
          <ns3:TrackPointExtension>
            <ns3:atemp>18.0</ns3:atemp>
          </ns3:TrackPointExtension>
        </extensions>
      </trkpt>
      <trkpt lat="42.58137308992445468902587890625" lon="20.08690036833286285400390625">
        <ele>2192.39990234375</ele>
        <time>2026-06-15T10:08:05.000Z</time>
        <extensions>
          <ns3:TrackPointExtension>
            <ns3:atemp>18.0</ns3:atemp>
          </ns3:TrackPointExtension>
        </extensions>
      </trkpt>
      <trkpt lat="42.58137308992445468902587890625" lon="20.08690036833286285400390625">
        <ele>2192.39990234375</ele>
        <time>2026-06-15T10:08:06.000Z</time>
        <extensions>
          <ns3:TrackPointExtension>
            <ns3:atemp>18.0</ns3:atemp>
          </ns3:TrackPointExtension>
        </extensions>
      </trkpt>
      <trkpt lat="42.58137308992445468902587890625" lon="20.08690036833286285400390625">
        <ele>2192.39990234375</ele>
        <time>2026-06-15T10:08:07.000Z</time>
        <extensions>
          <ns3:TrackPointExtension>
            <ns3:atemp>18.0</ns3:atemp>
          </ns3:TrackPointExtension>
        </extensions>
      </trkpt>
      <trkpt lat="42.58137308992445468902587890625" lon="20.08690036833286285400390625">
        <ele>2192.39990234375</ele>
        <time>2026-06-15T10:08:08.000Z</time>
        <extensions>
          <ns3:TrackPointExtension>
            <ns3:atemp>18.0</ns3:atemp>
          </ns3:TrackPointExtension>
        </extensions>
      </trkpt>
      <trkpt lat="42.58137308992445468902587890625" lon="20.08690036833286285400390625">
        <ele>2192.39990234375</ele>
        <time>2026-06-15T10:08:09.000Z</time>
        <extensions>
          <ns3:TrackPointExtension>
            <ns3:atemp>18.0</ns3:atemp>
          </ns3:TrackPointExtension>
        </extensions>
      </trkpt>
      <trkpt lat="42.58137308992445468902587890625" lon="20.08690036833286285400390625">
        <ele>2192.39990234375</ele>
        <time>2026-06-15T10:08:10.000Z</time>
        <extensions>
          <ns3:TrackPointExtension>
            <ns3:atemp>18.0</ns3:atemp>
          </ns3:TrackPointExtension>
        </extensions>
      </trkpt>
      <trkpt lat="42.58137308992445468902587890625" lon="20.08690036833286285400390625">
        <ele>2192.39990234375</ele>
        <time>2026-06-15T10:08:11.000Z</time>
        <extensions>
          <ns3:TrackPointExtension>
            <ns3:atemp>18.0</ns3:atemp>
          </ns3:TrackPointExtension>
        </extensions>
      </trkpt>
      <trkpt lat="42.58137308992445468902587890625" lon="20.08690036833286285400390625">
        <ele>2192.39990234375</ele>
        <time>2026-06-15T10:08:12.000Z</time>
        <extensions>
          <ns3:TrackPointExtension>
            <ns3:atemp>18.0</ns3:atemp>
          </ns3:TrackPointExtension>
        </extensions>
      </trkpt>
      <trkpt lat="42.58137308992445468902587890625" lon="20.08690036833286285400390625">
        <ele>2192.39990234375</ele>
        <time>2026-06-15T10:08:13.000Z</time>
        <extensions>
          <ns3:TrackPointExtension>
            <ns3:atemp>18.0</ns3:atemp>
          </ns3:TrackPointExtension>
        </extensions>
      </trkpt>
      <trkpt lat="42.58137308992445468902587890625" lon="20.08690036833286285400390625">
        <ele>2192.39990234375</ele>
        <time>2026-06-15T10:08:14.000Z</time>
        <extensions>
          <ns3:TrackPointExtension>
            <ns3:atemp>18.0</ns3:atemp>
          </ns3:TrackPointExtension>
        </extensions>
      </trkpt>
      <trkpt lat="42.58137308992445468902587890625" lon="20.08690036833286285400390625">
        <ele>2192.39990234375</ele>
        <time>2026-06-15T10:08:15.000Z</time>
        <extensions>
          <ns3:TrackPointExtension>
            <ns3:atemp>18.0</ns3:atemp>
          </ns3:TrackPointExtension>
        </extensions>
      </trkpt>
      <trkpt lat="42.58137308992445468902587890625" lon="20.08690036833286285400390625">
        <ele>2192.39990234375</ele>
        <time>2026-06-15T10:08:16.000Z</time>
        <extensions>
          <ns3:TrackPointExtension>
            <ns3:atemp>18.0</ns3:atemp>
          </ns3:TrackPointExtension>
        </extensions>
      </trkpt>
      <trkpt lat="42.58137308992445468902587890625" lon="20.08690036833286285400390625">
        <ele>2192.39990234375</ele>
        <time>2026-06-15T10:08:17.000Z</time>
        <extensions>
          <ns3:TrackPointExtension>
            <ns3:atemp>18.0</ns3:atemp>
          </ns3:TrackPointExtension>
        </extensions>
      </trkpt>
      <trkpt lat="42.58137308992445468902587890625" lon="20.08690036833286285400390625">
        <ele>2192.39990234375</ele>
        <time>2026-06-15T10:08:18.000Z</time>
        <extensions>
          <ns3:TrackPointExtension>
            <ns3:atemp>18.0</ns3:atemp>
          </ns3:TrackPointExtension>
        </extensions>
      </trkpt>
      <trkpt lat="42.58137308992445468902587890625" lon="20.08690036833286285400390625">
        <ele>2192.39990234375</ele>
        <time>2026-06-15T10:08:19.000Z</time>
        <extensions>
          <ns3:TrackPointExtension>
            <ns3:atemp>18.0</ns3:atemp>
          </ns3:TrackPointExtension>
        </extensions>
      </trkpt>
      <trkpt lat="42.58137308992445468902587890625" lon="20.08690036833286285400390625">
        <ele>2192.39990234375</ele>
        <time>2026-06-15T10:08:20.000Z</time>
        <extensions>
          <ns3:TrackPointExtension>
            <ns3:atemp>18.0</ns3:atemp>
          </ns3:TrackPointExtension>
        </extensions>
      </trkpt>
      <trkpt lat="42.58137308992445468902587890625" lon="20.08690036833286285400390625">
        <ele>2192.39990234375</ele>
        <time>2026-06-15T10:08:21.000Z</time>
        <extensions>
          <ns3:TrackPointExtension>
            <ns3:atemp>18.0</ns3:atemp>
          </ns3:TrackPointExtension>
        </extensions>
      </trkpt>
      <trkpt lat="42.58137308992445468902587890625" lon="20.08690036833286285400390625">
        <ele>2192.39990234375</ele>
        <time>2026-06-15T10:08:22.000Z</time>
        <extensions>
          <ns3:TrackPointExtension>
            <ns3:atemp>18.0</ns3:atemp>
          </ns3:TrackPointExtension>
        </extensions>
      </trkpt>
      <trkpt lat="42.58137308992445468902587890625" lon="20.08690036833286285400390625">
        <ele>2192.39990234375</ele>
        <time>2026-06-15T10:08:23.000Z</time>
        <extensions>
          <ns3:TrackPointExtension>
            <ns3:atemp>18.0</ns3:atemp>
          </ns3:TrackPointExtension>
        </extensions>
      </trkpt>
      <trkpt lat="42.58137308992445468902587890625" lon="20.08690036833286285400390625">
        <ele>2192.39990234375</ele>
        <time>2026-06-15T10:08:24.000Z</time>
        <extensions>
          <ns3:TrackPointExtension>
            <ns3:atemp>18.0</ns3:atemp>
          </ns3:TrackPointExtension>
        </extensions>
      </trkpt>
      <trkpt lat="42.58137308992445468902587890625" lon="20.08690036833286285400390625">
        <ele>2192.39990234375</ele>
        <time>2026-06-15T10:08:25.000Z</time>
        <extensions>
          <ns3:TrackPointExtension>
            <ns3:atemp>18.0</ns3:atemp>
          </ns3:TrackPointExtension>
        </extensions>
      </trkpt>
      <trkpt lat="42.58137308992445468902587890625" lon="20.08690036833286285400390625">
        <ele>2192.39990234375</ele>
        <time>2026-06-15T10:08:26.000Z</time>
        <extensions>
          <ns3:TrackPointExtension>
            <ns3:atemp>18.0</ns3:atemp>
          </ns3:TrackPointExtension>
        </extensions>
      </trkpt>
      <trkpt lat="42.58137308992445468902587890625" lon="20.08690036833286285400390625">
        <ele>2192.39990234375</ele>
        <time>2026-06-15T10:08:27.000Z</time>
        <extensions>
          <ns3:TrackPointExtension>
            <ns3:atemp>18.0</ns3:atemp>
          </ns3:TrackPointExtension>
        </extensions>
      </trkpt>
      <trkpt lat="42.58137308992445468902587890625" lon="20.08690036833286285400390625">
        <ele>2192.39990234375</ele>
        <time>2026-06-15T10:08:28.000Z</time>
        <extensions>
          <ns3:TrackPointExtension>
            <ns3:atemp>18.0</ns3:atemp>
          </ns3:TrackPointExtension>
        </extensions>
      </trkpt>
      <trkpt lat="42.58137308992445468902587890625" lon="20.08690036833286285400390625">
        <ele>2192.39990234375</ele>
        <time>2026-06-15T10:08:29.000Z</time>
        <extensions>
          <ns3:TrackPointExtension>
            <ns3:atemp>18.0</ns3:atemp>
          </ns3:TrackPointExtension>
        </extensions>
      </trkpt>
      <trkpt lat="42.58137308992445468902587890625" lon="20.08690036833286285400390625">
        <ele>2192.39990234375</ele>
        <time>2026-06-15T10:08:30.000Z</time>
        <extensions>
          <ns3:TrackPointExtension>
            <ns3:atemp>18.0</ns3:atemp>
          </ns3:TrackPointExtension>
        </extensions>
      </trkpt>
      <trkpt lat="42.58137308992445468902587890625" lon="20.08690036833286285400390625">
        <ele>2192.39990234375</ele>
        <time>2026-06-15T10:08:31.000Z</time>
        <extensions>
          <ns3:TrackPointExtension>
            <ns3:atemp>18.0</ns3:atemp>
          </ns3:TrackPointExtension>
        </extensions>
      </trkpt>
      <trkpt lat="42.58137308992445468902587890625" lon="20.08690036833286285400390625">
        <ele>2192.39990234375</ele>
        <time>2026-06-15T10:08:32.000Z</time>
        <extensions>
          <ns3:TrackPointExtension>
            <ns3:atemp>18.0</ns3:atemp>
          </ns3:TrackPointExtension>
        </extensions>
      </trkpt>
      <trkpt lat="42.58137526921927928924560546875" lon="20.08689902722835540771484375">
        <ele>2192.39990234375</ele>
        <time>2026-06-15T10:08:33.000Z</time>
        <extensions>
          <ns3:TrackPointExtension>
            <ns3:atemp>18.0</ns3:atemp>
          </ns3:TrackPointExtension>
        </extensions>
      </trkpt>
      <trkpt lat="42.5813818909227848052978515625" lon="20.08688829839229583740234375">
        <ele>2192.39990234375</ele>
        <time>2026-06-15T10:08:34.000Z</time>
        <extensions>
          <ns3:TrackPointExtension>
            <ns3:atemp>18.0</ns3:atemp>
          </ns3:TrackPointExtension>
        </extensions>
      </trkpt>
      <trkpt lat="42.58138599805533885955810546875" lon="20.0868757255375385284423828125">
        <ele>2192.39990234375</ele>
        <time>2026-06-15T10:08:35.000Z</time>
        <extensions>
          <ns3:TrackPointExtension>
            <ns3:atemp>18.0</ns3:atemp>
          </ns3:TrackPointExtension>
        </extensions>
      </trkpt>
      <trkpt lat="42.581390775740146636962890625" lon="20.086867175996303558349609375">
        <ele>2192.39990234375</ele>
        <time>2026-06-15T10:08:36.000Z</time>
        <extensions>
          <ns3:TrackPointExtension>
            <ns3:atemp>18.0</ns3:atemp>
          </ns3:TrackPointExtension>
        </extensions>
      </trkpt>
      <trkpt lat="42.58139437995851039886474609375" lon="20.08685988374054431915283203125">
        <ele>2192.199951171875</ele>
        <time>2026-06-15T10:08:37.000Z</time>
        <extensions>
          <ns3:TrackPointExtension>
            <ns3:atemp>18.0</ns3:atemp>
          </ns3:TrackPointExtension>
        </extensions>
      </trkpt>
      <trkpt lat="42.58140259422361850738525390625" lon="20.086851418018341064453125">
        <ele>2192.39990234375</ele>
        <time>2026-06-15T10:08:38.000Z</time>
        <extensions>
          <ns3:TrackPointExtension>
            <ns3:atemp>18.0</ns3:atemp>
          </ns3:TrackPointExtension>
        </extensions>
      </trkpt>
      <trkpt lat="42.58140988647937774658203125" lon="20.08684261702001094818115234375">
        <ele>2192.60009765625</ele>
        <time>2026-06-15T10:08:39.000Z</time>
        <extensions>
          <ns3:TrackPointExtension>
            <ns3:atemp>18.0</ns3:atemp>
          </ns3:TrackPointExtension>
        </extensions>
      </trkpt>
      <trkpt lat="42.5814140774309635162353515625" lon="20.08683943189680576324462890625">
        <ele>2192.800048828125</ele>
        <time>2026-06-15T10:08:40.000Z</time>
        <extensions>
          <ns3:TrackPointExtension>
            <ns3:atemp>18.0</ns3:atemp>
          </ns3:TrackPointExtension>
        </extensions>
      </trkpt>
      <trkpt lat="42.58141793310642242431640625" lon="20.08683331310749053955078125">
        <ele>2193</ele>
        <time>2026-06-15T10:08:41.000Z</time>
        <extensions>
          <ns3:TrackPointExtension>
            <ns3:atemp>18.0</ns3:atemp>
          </ns3:TrackPointExtension>
        </extensions>
      </trkpt>
      <trkpt lat="42.58141835220158100128173828125" lon="20.0868220813572406768798828125">
        <ele>2193.199951171875</ele>
        <time>2026-06-15T10:08:42.000Z</time>
        <extensions>
          <ns3:TrackPointExtension>
            <ns3:atemp>18.0</ns3:atemp>
          </ns3:TrackPointExtension>
        </extensions>
      </trkpt>
      <trkpt lat="42.58141734637320041656494140625" lon="20.08680942468345165252685546875">
        <ele>2193.199951171875</ele>
        <time>2026-06-15T10:08:43.000Z</time>
        <extensions>
          <ns3:TrackPointExtension>
            <ns3:atemp>18.0</ns3:atemp>
          </ns3:TrackPointExtension>
        </extensions>
      </trkpt>
      <trkpt lat="42.5814117304980754852294921875" lon="20.08680506609380245208740234375">
        <ele>2193.39990234375</ele>
        <time>2026-06-15T10:08:44.000Z</time>
        <extensions>
          <ns3:TrackPointExtension>
            <ns3:atemp>18.0</ns3:atemp>
          </ns3:TrackPointExtension>
        </extensions>
      </trkpt>
      <trkpt lat="42.5814117304980754852294921875" lon="20.08680506609380245208740234375">
        <ele>2193.60009765625</ele>
        <time>2026-06-15T10:08:45.000Z</time>
        <extensions>
          <ns3:TrackPointExtension>
            <ns3:atemp>18.0</ns3:atemp>
          </ns3:TrackPointExtension>
        </extensions>
      </trkpt>
      <trkpt lat="42.5814117304980754852294921875" lon="20.08680506609380245208740234375">
        <ele>2193.800048828125</ele>
        <time>2026-06-15T10:08:46.000Z</time>
        <extensions>
          <ns3:TrackPointExtension>
            <ns3:atemp>18.0</ns3:atemp>
          </ns3:TrackPointExtension>
        </extensions>
      </trkpt>
      <trkpt lat="42.5814117304980754852294921875" lon="20.08680506609380245208740234375">
        <ele>2193.800048828125</ele>
        <time>2026-06-15T10:08:47.000Z</time>
        <extensions>
          <ns3:TrackPointExtension>
            <ns3:atemp>18.0</ns3:atemp>
          </ns3:TrackPointExtension>
        </extensions>
      </trkpt>
      <trkpt lat="42.5814117304980754852294921875" lon="20.08680506609380245208740234375">
        <ele>2193.800048828125</ele>
        <time>2026-06-15T10:08:48.000Z</time>
        <extensions>
          <ns3:TrackPointExtension>
            <ns3:atemp>18.0</ns3:atemp>
          </ns3:TrackPointExtension>
        </extensions>
      </trkpt>
      <trkpt lat="42.5814117304980754852294921875" lon="20.08680506609380245208740234375">
        <ele>2193.800048828125</ele>
        <time>2026-06-15T10:08:49.000Z</time>
        <extensions>
          <ns3:TrackPointExtension>
            <ns3:atemp>18.0</ns3:atemp>
          </ns3:TrackPointExtension>
        </extensions>
      </trkpt>
      <trkpt lat="42.5814117304980754852294921875" lon="20.08680506609380245208740234375">
        <ele>2193.39990234375</ele>
        <time>2026-06-15T10:08:50.000Z</time>
        <extensions>
          <ns3:TrackPointExtension>
            <ns3:atemp>18.0</ns3:atemp>
          </ns3:TrackPointExtension>
        </extensions>
      </trkpt>
      <trkpt lat="42.5814117304980754852294921875" lon="20.08680506609380245208740234375">
        <ele>2193.199951171875</ele>
        <time>2026-06-15T10:08:51.000Z</time>
        <extensions>
          <ns3:TrackPointExtension>
            <ns3:atemp>18.0</ns3:atemp>
          </ns3:TrackPointExtension>
        </extensions>
      </trkpt>
      <trkpt lat="42.5814117304980754852294921875" lon="20.08680506609380245208740234375">
        <ele>2193</ele>
        <time>2026-06-15T10:08:52.000Z</time>
        <extensions>
          <ns3:TrackPointExtension>
            <ns3:atemp>18.0</ns3:atemp>
          </ns3:TrackPointExtension>
        </extensions>
      </trkpt>
      <trkpt lat="42.5814117304980754852294921875" lon="20.08680506609380245208740234375">
        <ele>2193</ele>
        <time>2026-06-15T10:08:53.000Z</time>
        <extensions>
          <ns3:TrackPointExtension>
            <ns3:atemp>18.0</ns3:atemp>
          </ns3:TrackPointExtension>
        </extensions>
      </trkpt>
      <trkpt lat="42.5814117304980754852294921875" lon="20.08680506609380245208740234375">
        <ele>2193</ele>
        <time>2026-06-15T10:08:54.000Z</time>
        <extensions>
          <ns3:TrackPointExtension>
            <ns3:atemp>18.0</ns3:atemp>
          </ns3:TrackPointExtension>
        </extensions>
      </trkpt>
      <trkpt lat="42.5814117304980754852294921875" lon="20.08680506609380245208740234375">
        <ele>2193</ele>
        <time>2026-06-15T10:08:55.000Z</time>
        <extensions>
          <ns3:TrackPointExtension>
            <ns3:atemp>18.0</ns3:atemp>
          </ns3:TrackPointExtension>
        </extensions>
      </trkpt>
      <trkpt lat="42.5814117304980754852294921875" lon="20.08680506609380245208740234375">
        <ele>2193</ele>
        <time>2026-06-15T10:08:56.000Z</time>
        <extensions>
          <ns3:TrackPointExtension>
            <ns3:atemp>18.0</ns3:atemp>
          </ns3:TrackPointExtension>
        </extensions>
      </trkpt>
      <trkpt lat="42.5814117304980754852294921875" lon="20.08680506609380245208740234375">
        <ele>2193</ele>
        <time>2026-06-15T10:08:57.000Z</time>
        <extensions>
          <ns3:TrackPointExtension>
            <ns3:atemp>18.0</ns3:atemp>
          </ns3:TrackPointExtension>
        </extensions>
      </trkpt>
      <trkpt lat="42.5814117304980754852294921875" lon="20.08680506609380245208740234375">
        <ele>2193</ele>
        <time>2026-06-15T10:08:58.000Z</time>
        <extensions>
          <ns3:TrackPointExtension>
            <ns3:atemp>18.0</ns3:atemp>
          </ns3:TrackPointExtension>
        </extensions>
      </trkpt>
      <trkpt lat="42.5814117304980754852294921875" lon="20.08680506609380245208740234375">
        <ele>2192.800048828125</ele>
        <time>2026-06-15T10:08:59.000Z</time>
        <extensions>
          <ns3:TrackPointExtension>
            <ns3:atemp>18.0</ns3:atemp>
          </ns3:TrackPointExtension>
        </extensions>
      </trkpt>
      <trkpt lat="42.5814117304980754852294921875" lon="20.08680506609380245208740234375">
        <ele>2192.800048828125</ele>
        <time>2026-06-15T10:09:00.000Z</time>
        <extensions>
          <ns3:TrackPointExtension>
            <ns3:atemp>18.0</ns3:atemp>
          </ns3:TrackPointExtension>
        </extensions>
      </trkpt>
      <trkpt lat="42.5814117304980754852294921875" lon="20.08680506609380245208740234375">
        <ele>2192.800048828125</ele>
        <time>2026-06-15T10:09:01.000Z</time>
        <extensions>
          <ns3:TrackPointExtension>
            <ns3:atemp>18.0</ns3:atemp>
          </ns3:TrackPointExtension>
        </extensions>
      </trkpt>
      <trkpt lat="42.5814117304980754852294921875" lon="20.08680506609380245208740234375">
        <ele>2192.800048828125</ele>
        <time>2026-06-15T10:09:02.000Z</time>
        <extensions>
          <ns3:TrackPointExtension>
            <ns3:atemp>18.0</ns3:atemp>
          </ns3:TrackPointExtension>
        </extensions>
      </trkpt>
      <trkpt lat="42.58141416124999523162841796875" lon="20.0868049822747707366943359375">
        <ele>2192.800048828125</ele>
        <time>2026-06-15T10:09:03.000Z</time>
        <extensions>
          <ns3:TrackPointExtension>
            <ns3:atemp>18.0</ns3:atemp>
          </ns3:TrackPointExtension>
        </extensions>
      </trkpt>
      <trkpt lat="42.5814227946102619171142578125" lon="20.08678478188812732696533203125">
        <ele>2192.800048828125</ele>
        <time>2026-06-15T10:09:04.000Z</time>
        <extensions>
          <ns3:TrackPointExtension>
            <ns3:atemp>18.0</ns3:atemp>
          </ns3:TrackPointExtension>
        </extensions>
      </trkpt>
      <trkpt lat="42.58142732083797454833984375" lon="20.08676701225340366363525390625">
        <ele>2192.800048828125</ele>
        <time>2026-06-15T10:09:05.000Z</time>
        <extensions>
          <ns3:TrackPointExtension>
            <ns3:atemp>18.0</ns3:atemp>
          </ns3:TrackPointExtension>
        </extensions>
      </trkpt>
      <trkpt lat="42.58142489008605480194091796875" lon="20.08675879798829555511474609375">
        <ele>2192.800048828125</ele>
        <time>2026-06-15T10:09:06.000Z</time>
        <extensions>
          <ns3:TrackPointExtension>
            <ns3:atemp>18.0</ns3:atemp>
          </ns3:TrackPointExtension>
        </extensions>
      </trkpt>
      <trkpt lat="42.58142421953380107879638671875" lon="20.08673675358295440673828125">
        <ele>2192.800048828125</ele>
        <time>2026-06-15T10:09:07.000Z</time>
        <extensions>
          <ns3:TrackPointExtension>
            <ns3:atemp>18.0</ns3:atemp>
          </ns3:TrackPointExtension>
        </extensions>
      </trkpt>
      <trkpt lat="42.5814261473715305328369140625" lon="20.0867147929966449737548828125">
        <ele>2192.800048828125</ele>
        <time>2026-06-15T10:09:08.000Z</time>
        <extensions>
          <ns3:TrackPointExtension>
            <ns3:atemp>18.0</ns3:atemp>
          </ns3:TrackPointExtension>
        </extensions>
      </trkpt>
      <trkpt lat="42.5814274884760379791259765625" lon="20.08668704889714717864990234375">
        <ele>2192.800048828125</ele>
        <time>2026-06-15T10:09:09.000Z</time>
        <extensions>
          <ns3:TrackPointExtension>
            <ns3:atemp>18.0</ns3:atemp>
          </ns3:TrackPointExtension>
        </extensions>
      </trkpt>
      <trkpt lat="42.58142824284732341766357421875" lon="20.0866708718240261077880859375">
        <ele>2192.800048828125</ele>
        <time>2026-06-15T10:09:10.000Z</time>
        <extensions>
          <ns3:TrackPointExtension>
            <ns3:atemp>18.0</ns3:atemp>
          </ns3:TrackPointExtension>
        </extensions>
      </trkpt>
      <trkpt lat="42.58143176324665546417236328125" lon="20.08666525594890117645263671875">
        <ele>2192.60009765625</ele>
        <time>2026-06-15T10:09:11.000Z</time>
        <extensions>
          <ns3:TrackPointExtension>
            <ns3:atemp>18.0</ns3:atemp>
          </ns3:TrackPointExtension>
        </extensions>
      </trkpt>
      <trkpt lat="42.5814305059611797332763671875" lon="20.0866638310253620147705078125">
        <ele>2192.60009765625</ele>
        <time>2026-06-15T10:09:12.000Z</time>
        <extensions>
          <ns3:TrackPointExtension>
            <ns3:atemp>18.0</ns3:atemp>
          </ns3:TrackPointExtension>
        </extensions>
      </trkpt>
      <trkpt lat="42.5814305059611797332763671875" lon="20.0866638310253620147705078125">
        <ele>2192.60009765625</ele>
        <time>2026-06-15T10:09:13.000Z</time>
        <extensions>
          <ns3:TrackPointExtension>
            <ns3:atemp>18.0</ns3:atemp>
          </ns3:TrackPointExtension>
        </extensions>
      </trkpt>
      <trkpt lat="42.5814298354089260101318359375" lon="20.0866688601672649383544921875">
        <ele>2192.60009765625</ele>
        <time>2026-06-15T10:09:14.000Z</time>
        <extensions>
          <ns3:TrackPointExtension>
            <ns3:atemp>18.0</ns3:atemp>
          </ns3:TrackPointExtension>
        </extensions>
      </trkpt>
      <trkpt lat="42.5814298354089260101318359375" lon="20.0866688601672649383544921875">
        <ele>2192.60009765625</ele>
        <time>2026-06-15T10:09:15.000Z</time>
        <extensions>
          <ns3:TrackPointExtension>
            <ns3:atemp>18.0</ns3:atemp>
          </ns3:TrackPointExtension>
        </extensions>
      </trkpt>
      <trkpt lat="42.5814298354089260101318359375" lon="20.0866688601672649383544921875">
        <ele>2192.60009765625</ele>
        <time>2026-06-15T10:09:16.000Z</time>
        <extensions>
          <ns3:TrackPointExtension>
            <ns3:atemp>18.0</ns3:atemp>
          </ns3:TrackPointExtension>
        </extensions>
      </trkpt>
      <trkpt lat="42.5814298354089260101318359375" lon="20.0866688601672649383544921875">
        <ele>2192.60009765625</ele>
        <time>2026-06-15T10:09:17.000Z</time>
        <extensions>
          <ns3:TrackPointExtension>
            <ns3:atemp>18.0</ns3:atemp>
          </ns3:TrackPointExtension>
        </extensions>
      </trkpt>
      <trkpt lat="42.5814298354089260101318359375" lon="20.0866688601672649383544921875">
        <ele>2192.60009765625</ele>
        <time>2026-06-15T10:09:18.000Z</time>
        <extensions>
          <ns3:TrackPointExtension>
            <ns3:atemp>18.0</ns3:atemp>
          </ns3:TrackPointExtension>
        </extensions>
      </trkpt>
      <trkpt lat="42.5814298354089260101318359375" lon="20.0866688601672649383544921875">
        <ele>2192.60009765625</ele>
        <time>2026-06-15T10:09:19.000Z</time>
        <extensions>
          <ns3:TrackPointExtension>
            <ns3:atemp>18.0</ns3:atemp>
          </ns3:TrackPointExtension>
        </extensions>
      </trkpt>
      <trkpt lat="42.5814298354089260101318359375" lon="20.0866688601672649383544921875">
        <ele>2192.800048828125</ele>
        <time>2026-06-15T10:09:20.000Z</time>
        <extensions>
          <ns3:TrackPointExtension>
            <ns3:atemp>18.0</ns3:atemp>
          </ns3:TrackPointExtension>
        </extensions>
      </trkpt>
      <trkpt lat="42.5814298354089260101318359375" lon="20.0866688601672649383544921875">
        <ele>2192.800048828125</ele>
        <time>2026-06-15T10:09:21.000Z</time>
        <extensions>
          <ns3:TrackPointExtension>
            <ns3:atemp>18.0</ns3:atemp>
          </ns3:TrackPointExtension>
        </extensions>
      </trkpt>
      <trkpt lat="42.5814298354089260101318359375" lon="20.0866688601672649383544921875">
        <ele>2192.800048828125</ele>
        <time>2026-06-15T10:09:22.000Z</time>
        <extensions>
          <ns3:TrackPointExtension>
            <ns3:atemp>18.0</ns3:atemp>
          </ns3:TrackPointExtension>
        </extensions>
      </trkpt>
      <trkpt lat="42.5814298354089260101318359375" lon="20.0866688601672649383544921875">
        <ele>2193</ele>
        <time>2026-06-15T10:09:23.000Z</time>
        <extensions>
          <ns3:TrackPointExtension>
            <ns3:atemp>18.0</ns3:atemp>
          </ns3:TrackPointExtension>
        </extensions>
      </trkpt>
      <trkpt lat="42.58142924867570400238037109375" lon="20.08666927926242351531982421875">
        <ele>2193</ele>
        <time>2026-06-15T10:09:24.000Z</time>
        <extensions>
          <ns3:TrackPointExtension>
            <ns3:atemp>18.0</ns3:atemp>
          </ns3:TrackPointExtension>
        </extensions>
      </trkpt>
      <trkpt lat="42.581420280039310455322265625" lon="20.0866769067943096160888671875">
        <ele>2193</ele>
        <time>2026-06-15T10:09:25.000Z</time>
        <extensions>
          <ns3:TrackPointExtension>
            <ns3:atemp>18.0</ns3:atemp>
          </ns3:TrackPointExtension>
        </extensions>
      </trkpt>
      <trkpt lat="42.58141784928739070892333984375" lon="20.0866785831749439239501953125">
        <ele>2193</ele>
        <time>2026-06-15T10:09:26.000Z</time>
        <extensions>
          <ns3:TrackPointExtension>
            <ns3:atemp>18.0</ns3:atemp>
          </ns3:TrackPointExtension>
        </extensions>
      </trkpt>
      <trkpt lat="42.5814298354089260101318359375" lon="20.0866688601672649383544921875">
        <ele>2193</ele>
        <time>2026-06-15T10:09:27.000Z</time>
        <extensions>
          <ns3:TrackPointExtension>
            <ns3:atemp>18.0</ns3:atemp>
          </ns3:TrackPointExtension>
        </extensions>
      </trkpt>
      <trkpt lat="42.5814298354089260101318359375" lon="20.0866688601672649383544921875">
        <ele>2193</ele>
        <time>2026-06-15T10:09:28.000Z</time>
        <extensions>
          <ns3:TrackPointExtension>
            <ns3:atemp>18.0</ns3:atemp>
          </ns3:TrackPointExtension>
        </extensions>
      </trkpt>
      <trkpt lat="42.5814298354089260101318359375" lon="20.0866688601672649383544921875">
        <ele>2193</ele>
        <time>2026-06-15T10:09:29.000Z</time>
        <extensions>
          <ns3:TrackPointExtension>
            <ns3:atemp>18.0</ns3:atemp>
          </ns3:TrackPointExtension>
        </extensions>
      </trkpt>
      <trkpt lat="42.5814298354089260101318359375" lon="20.0866688601672649383544921875">
        <ele>2192.800048828125</ele>
        <time>2026-06-15T10:09:30.000Z</time>
        <extensions>
          <ns3:TrackPointExtension>
            <ns3:atemp>18.0</ns3:atemp>
          </ns3:TrackPointExtension>
        </extensions>
      </trkpt>
      <trkpt lat="42.5814298354089260101318359375" lon="20.0866688601672649383544921875">
        <ele>2192.800048828125</ele>
        <time>2026-06-15T10:09:31.000Z</time>
        <extensions>
          <ns3:TrackPointExtension>
            <ns3:atemp>18.0</ns3:atemp>
          </ns3:TrackPointExtension>
        </extensions>
      </trkpt>
      <trkpt lat="42.5814298354089260101318359375" lon="20.0866688601672649383544921875">
        <ele>2192.60009765625</ele>
        <time>2026-06-15T10:09:32.000Z</time>
        <extensions>
          <ns3:TrackPointExtension>
            <ns3:atemp>18.0</ns3:atemp>
          </ns3:TrackPointExtension>
        </extensions>
      </trkpt>
      <trkpt lat="42.5814298354089260101318359375" lon="20.0866688601672649383544921875">
        <ele>2192.60009765625</ele>
        <time>2026-06-15T10:09:33.000Z</time>
        <extensions>
          <ns3:TrackPointExtension>
            <ns3:atemp>18.0</ns3:atemp>
          </ns3:TrackPointExtension>
        </extensions>
      </trkpt>
      <trkpt lat="42.5814298354089260101318359375" lon="20.0866688601672649383544921875">
        <ele>2192.39990234375</ele>
        <time>2026-06-15T10:09:34.000Z</time>
        <extensions>
          <ns3:TrackPointExtension>
            <ns3:atemp>18.0</ns3:atemp>
          </ns3:TrackPointExtension>
        </extensions>
      </trkpt>
      <trkpt lat="42.5814298354089260101318359375" lon="20.0866688601672649383544921875">
        <ele>2192.39990234375</ele>
        <time>2026-06-15T10:09:35.000Z</time>
        <extensions>
          <ns3:TrackPointExtension>
            <ns3:atemp>18.0</ns3:atemp>
          </ns3:TrackPointExtension>
        </extensions>
      </trkpt>
      <trkpt lat="42.5814298354089260101318359375" lon="20.0866688601672649383544921875">
        <ele>2192.60009765625</ele>
        <time>2026-06-15T10:09:36.000Z</time>
        <extensions>
          <ns3:TrackPointExtension>
            <ns3:atemp>18.0</ns3:atemp>
          </ns3:TrackPointExtension>
        </extensions>
      </trkpt>
      <trkpt lat="42.5814298354089260101318359375" lon="20.0866688601672649383544921875">
        <ele>2192.60009765625</ele>
        <time>2026-06-15T10:09:37.000Z</time>
        <extensions>
          <ns3:TrackPointExtension>
            <ns3:atemp>18.0</ns3:atemp>
          </ns3:TrackPointExtension>
        </extensions>
      </trkpt>
      <trkpt lat="42.5814298354089260101318359375" lon="20.0866688601672649383544921875">
        <ele>2192.60009765625</ele>
        <time>2026-06-15T10:09:38.000Z</time>
        <extensions>
          <ns3:TrackPointExtension>
            <ns3:atemp>18.0</ns3:atemp>
          </ns3:TrackPointExtension>
        </extensions>
      </trkpt>
      <trkpt lat="42.58141885511577129364013671875" lon="20.08667984046041965484619140625">
        <ele>2192.60009765625</ele>
        <time>2026-06-15T10:09:39.000Z</time>
        <extensions>
          <ns3:TrackPointExtension>
            <ns3:atemp>18.0</ns3:atemp>
          </ns3:TrackPointExtension>
        </extensions>
      </trkpt>
      <trkpt lat="42.58141885511577129364013671875" lon="20.08667984046041965484619140625">
        <ele>2192.60009765625</ele>
        <time>2026-06-15T10:09:40.000Z</time>
        <extensions>
          <ns3:TrackPointExtension>
            <ns3:atemp>18.0</ns3:atemp>
          </ns3:TrackPointExtension>
        </extensions>
      </trkpt>
      <trkpt lat="42.58141885511577129364013671875" lon="20.08667984046041965484619140625">
        <ele>2192.39990234375</ele>
        <time>2026-06-15T10:09:41.000Z</time>
        <extensions>
          <ns3:TrackPointExtension>
            <ns3:atemp>18.0</ns3:atemp>
          </ns3:TrackPointExtension>
        </extensions>
      </trkpt>
      <trkpt lat="42.58141885511577129364013671875" lon="20.08667984046041965484619140625">
        <ele>2192.39990234375</ele>
        <time>2026-06-15T10:09:42.000Z</time>
        <extensions>
          <ns3:TrackPointExtension>
            <ns3:atemp>18.0</ns3:atemp>
          </ns3:TrackPointExtension>
        </extensions>
      </trkpt>
      <trkpt lat="42.58141885511577129364013671875" lon="20.08667984046041965484619140625">
        <ele>2192.39990234375</ele>
        <time>2026-06-15T10:09:43.000Z</time>
        <extensions>
          <ns3:TrackPointExtension>
            <ns3:atemp>18.0</ns3:atemp>
          </ns3:TrackPointExtension>
        </extensions>
      </trkpt>
      <trkpt lat="42.58141885511577129364013671875" lon="20.08667984046041965484619140625">
        <ele>2192.39990234375</ele>
        <time>2026-06-15T10:09:44.000Z</time>
        <extensions>
          <ns3:TrackPointExtension>
            <ns3:atemp>18.0</ns3:atemp>
          </ns3:TrackPointExtension>
        </extensions>
      </trkpt>
      <trkpt lat="42.58141885511577129364013671875" lon="20.08667984046041965484619140625">
        <ele>2192.39990234375</ele>
        <time>2026-06-15T10:09:45.000Z</time>
        <extensions>
          <ns3:TrackPointExtension>
            <ns3:atemp>18.0</ns3:atemp>
          </ns3:TrackPointExtension>
        </extensions>
      </trkpt>
      <trkpt lat="42.58141885511577129364013671875" lon="20.08667984046041965484619140625">
        <ele>2192.39990234375</ele>
        <time>2026-06-15T10:09:46.000Z</time>
        <extensions>
          <ns3:TrackPointExtension>
            <ns3:atemp>18.0</ns3:atemp>
          </ns3:TrackPointExtension>
        </extensions>
      </trkpt>
      <trkpt lat="42.58141885511577129364013671875" lon="20.08667984046041965484619140625">
        <ele>2192.39990234375</ele>
        <time>2026-06-15T10:09:47.000Z</time>
        <extensions>
          <ns3:TrackPointExtension>
            <ns3:atemp>18.0</ns3:atemp>
          </ns3:TrackPointExtension>
        </extensions>
      </trkpt>
      <trkpt lat="42.58141885511577129364013671875" lon="20.08667984046041965484619140625">
        <ele>2192.39990234375</ele>
        <time>2026-06-15T10:09:48.000Z</time>
        <extensions>
          <ns3:TrackPointExtension>
            <ns3:atemp>18.0</ns3:atemp>
          </ns3:TrackPointExtension>
        </extensions>
      </trkpt>
      <trkpt lat="42.58141885511577129364013671875" lon="20.08667984046041965484619140625">
        <ele>2192.39990234375</ele>
        <time>2026-06-15T10:09:49.000Z</time>
        <extensions>
          <ns3:TrackPointExtension>
            <ns3:atemp>18.0</ns3:atemp>
          </ns3:TrackPointExtension>
        </extensions>
      </trkpt>
      <trkpt lat="42.58141885511577129364013671875" lon="20.08667984046041965484619140625">
        <ele>2192.39990234375</ele>
        <time>2026-06-15T10:09:50.000Z</time>
        <extensions>
          <ns3:TrackPointExtension>
            <ns3:atemp>18.0</ns3:atemp>
          </ns3:TrackPointExtension>
        </extensions>
      </trkpt>
      <trkpt lat="42.58141885511577129364013671875" lon="20.08667984046041965484619140625">
        <ele>2192.39990234375</ele>
        <time>2026-06-15T10:09:51.000Z</time>
        <extensions>
          <ns3:TrackPointExtension>
            <ns3:atemp>18.0</ns3:atemp>
          </ns3:TrackPointExtension>
        </extensions>
      </trkpt>
      <trkpt lat="42.58141885511577129364013671875" lon="20.08667984046041965484619140625">
        <ele>2192.39990234375</ele>
        <time>2026-06-15T10:09:52.000Z</time>
        <extensions>
          <ns3:TrackPointExtension>
            <ns3:atemp>18.0</ns3:atemp>
          </ns3:TrackPointExtension>
        </extensions>
      </trkpt>
      <trkpt lat="42.58141885511577129364013671875" lon="20.08667984046041965484619140625">
        <ele>2192.39990234375</ele>
        <time>2026-06-15T10:09:53.000Z</time>
        <extensions>
          <ns3:TrackPointExtension>
            <ns3:atemp>18.0</ns3:atemp>
          </ns3:TrackPointExtension>
        </extensions>
      </trkpt>
      <trkpt lat="42.58141885511577129364013671875" lon="20.08667984046041965484619140625">
        <ele>2192.39990234375</ele>
        <time>2026-06-15T10:09:54.000Z</time>
        <extensions>
          <ns3:TrackPointExtension>
            <ns3:atemp>18.0</ns3:atemp>
          </ns3:TrackPointExtension>
        </extensions>
      </trkpt>
      <trkpt lat="42.58141885511577129364013671875" lon="20.08667984046041965484619140625">
        <ele>2192.39990234375</ele>
        <time>2026-06-15T10:09:55.000Z</time>
        <extensions>
          <ns3:TrackPointExtension>
            <ns3:atemp>18.0</ns3:atemp>
          </ns3:TrackPointExtension>
        </extensions>
      </trkpt>
      <trkpt lat="42.58141885511577129364013671875" lon="20.08667984046041965484619140625">
        <ele>2192.39990234375</ele>
        <time>2026-06-15T10:09:56.000Z</time>
        <extensions>
          <ns3:TrackPointExtension>
            <ns3:atemp>18.0</ns3:atemp>
          </ns3:TrackPointExtension>
        </extensions>
      </trkpt>
      <trkpt lat="42.58141885511577129364013671875" lon="20.08667984046041965484619140625">
        <ele>2192.39990234375</ele>
        <time>2026-06-15T10:09:57.000Z</time>
        <extensions>
          <ns3:TrackPointExtension>
            <ns3:atemp>18.0</ns3:atemp>
          </ns3:TrackPointExtension>
        </extensions>
      </trkpt>
      <trkpt lat="42.58141885511577129364013671875" lon="20.08667984046041965484619140625">
        <ele>2192.39990234375</ele>
        <time>2026-06-15T10:09:58.000Z</time>
        <extensions>
          <ns3:TrackPointExtension>
            <ns3:atemp>18.0</ns3:atemp>
          </ns3:TrackPointExtension>
        </extensions>
      </trkpt>
      <trkpt lat="42.58141885511577129364013671875" lon="20.08667984046041965484619140625">
        <ele>2192.39990234375</ele>
        <time>2026-06-15T10:09:59.000Z</time>
        <extensions>
          <ns3:TrackPointExtension>
            <ns3:atemp>18.0</ns3:atemp>
          </ns3:TrackPointExtension>
        </extensions>
      </trkpt>
      <trkpt lat="42.58141885511577129364013671875" lon="20.08667984046041965484619140625">
        <ele>2192.60009765625</ele>
        <time>2026-06-15T10:10:00.000Z</time>
        <extensions>
          <ns3:TrackPointExtension>
            <ns3:atemp>18.0</ns3:atemp>
          </ns3:TrackPointExtension>
        </extensions>
      </trkpt>
      <trkpt lat="42.58141885511577129364013671875" lon="20.08667984046041965484619140625">
        <ele>2192.60009765625</ele>
        <time>2026-06-15T10:10:01.000Z</time>
        <extensions>
          <ns3:TrackPointExtension>
            <ns3:atemp>18.0</ns3:atemp>
          </ns3:TrackPointExtension>
        </extensions>
      </trkpt>
      <trkpt lat="42.58141885511577129364013671875" lon="20.08667984046041965484619140625">
        <ele>2192.60009765625</ele>
        <time>2026-06-15T10:10:02.000Z</time>
        <extensions>
          <ns3:TrackPointExtension>
            <ns3:atemp>18.0</ns3:atemp>
          </ns3:TrackPointExtension>
        </extensions>
      </trkpt>
      <trkpt lat="42.58141885511577129364013671875" lon="20.08667984046041965484619140625">
        <ele>2192.60009765625</ele>
        <time>2026-06-15T10:10:03.000Z</time>
        <extensions>
          <ns3:TrackPointExtension>
            <ns3:atemp>18.0</ns3:atemp>
          </ns3:TrackPointExtension>
        </extensions>
      </trkpt>
      <trkpt lat="42.58141885511577129364013671875" lon="20.08667984046041965484619140625">
        <ele>2192.60009765625</ele>
        <time>2026-06-15T10:10:04.000Z</time>
        <extensions>
          <ns3:TrackPointExtension>
            <ns3:atemp>18.0</ns3:atemp>
          </ns3:TrackPointExtension>
        </extensions>
      </trkpt>
      <trkpt lat="42.58141885511577129364013671875" lon="20.08667984046041965484619140625">
        <ele>2192.60009765625</ele>
        <time>2026-06-15T10:10:05.000Z</time>
        <extensions>
          <ns3:TrackPointExtension>
            <ns3:atemp>18.0</ns3:atemp>
          </ns3:TrackPointExtension>
        </extensions>
      </trkpt>
      <trkpt lat="42.58141885511577129364013671875" lon="20.08667984046041965484619140625">
        <ele>2192.60009765625</ele>
        <time>2026-06-15T10:10:06.000Z</time>
        <extensions>
          <ns3:TrackPointExtension>
            <ns3:atemp>18.0</ns3:atemp>
          </ns3:TrackPointExtension>
        </extensions>
      </trkpt>
      <trkpt lat="42.58141885511577129364013671875" lon="20.08667984046041965484619140625">
        <ele>2192.60009765625</ele>
        <time>2026-06-15T10:10:07.000Z</time>
        <extensions>
          <ns3:TrackPointExtension>
            <ns3:atemp>18.0</ns3:atemp>
          </ns3:TrackPointExtension>
        </extensions>
      </trkpt>
      <trkpt lat="42.58141885511577129364013671875" lon="20.08667984046041965484619140625">
        <ele>2192.60009765625</ele>
        <time>2026-06-15T10:10:08.000Z</time>
        <extensions>
          <ns3:TrackPointExtension>
            <ns3:atemp>18.0</ns3:atemp>
          </ns3:TrackPointExtension>
        </extensions>
      </trkpt>
      <trkpt lat="42.58141885511577129364013671875" lon="20.08667984046041965484619140625">
        <ele>2192.60009765625</ele>
        <time>2026-06-15T10:10:09.000Z</time>
        <extensions>
          <ns3:TrackPointExtension>
            <ns3:atemp>18.0</ns3:atemp>
          </ns3:TrackPointExtension>
        </extensions>
      </trkpt>
      <trkpt lat="42.58141885511577129364013671875" lon="20.08667984046041965484619140625">
        <ele>2192.800048828125</ele>
        <time>2026-06-15T10:10:10.000Z</time>
        <extensions>
          <ns3:TrackPointExtension>
            <ns3:atemp>18.0</ns3:atemp>
          </ns3:TrackPointExtension>
        </extensions>
      </trkpt>
      <trkpt lat="42.58141885511577129364013671875" lon="20.08667984046041965484619140625">
        <ele>2192.800048828125</ele>
        <time>2026-06-15T10:10:11.000Z</time>
        <extensions>
          <ns3:TrackPointExtension>
            <ns3:atemp>18.0</ns3:atemp>
          </ns3:TrackPointExtension>
        </extensions>
      </trkpt>
      <trkpt lat="42.58141885511577129364013671875" lon="20.08667984046041965484619140625">
        <ele>2192.60009765625</ele>
        <time>2026-06-15T10:10:12.000Z</time>
        <extensions>
          <ns3:TrackPointExtension>
            <ns3:atemp>18.0</ns3:atemp>
          </ns3:TrackPointExtension>
        </extensions>
      </trkpt>
      <trkpt lat="42.58141885511577129364013671875" lon="20.08667984046041965484619140625">
        <ele>2192.60009765625</ele>
        <time>2026-06-15T10:10:13.000Z</time>
        <extensions>
          <ns3:TrackPointExtension>
            <ns3:atemp>18.0</ns3:atemp>
          </ns3:TrackPointExtension>
        </extensions>
      </trkpt>
      <trkpt lat="42.58141885511577129364013671875" lon="20.08667984046041965484619140625">
        <ele>2192.60009765625</ele>
        <time>2026-06-15T10:10:14.000Z</time>
        <extensions>
          <ns3:TrackPointExtension>
            <ns3:atemp>18.0</ns3:atemp>
          </ns3:TrackPointExtension>
        </extensions>
      </trkpt>
      <trkpt lat="42.58141885511577129364013671875" lon="20.08667984046041965484619140625">
        <ele>2192.60009765625</ele>
        <time>2026-06-15T10:10:15.000Z</time>
        <extensions>
          <ns3:TrackPointExtension>
            <ns3:atemp>18.0</ns3:atemp>
          </ns3:TrackPointExtension>
        </extensions>
      </trkpt>
      <trkpt lat="42.58141885511577129364013671875" lon="20.08667984046041965484619140625">
        <ele>2192.60009765625</ele>
        <time>2026-06-15T10:10:16.000Z</time>
        <extensions>
          <ns3:TrackPointExtension>
            <ns3:atemp>18.0</ns3:atemp>
          </ns3:TrackPointExtension>
        </extensions>
      </trkpt>
      <trkpt lat="42.58141885511577129364013671875" lon="20.08667984046041965484619140625">
        <ele>2192.60009765625</ele>
        <time>2026-06-15T10:10:17.000Z</time>
        <extensions>
          <ns3:TrackPointExtension>
            <ns3:atemp>18.0</ns3:atemp>
          </ns3:TrackPointExtension>
        </extensions>
      </trkpt>
      <trkpt lat="42.58141885511577129364013671875" lon="20.08667984046041965484619140625">
        <ele>2192.60009765625</ele>
        <time>2026-06-15T10:10:18.000Z</time>
        <extensions>
          <ns3:TrackPointExtension>
            <ns3:atemp>18.0</ns3:atemp>
          </ns3:TrackPointExtension>
        </extensions>
      </trkpt>
      <trkpt lat="42.58141885511577129364013671875" lon="20.08667984046041965484619140625">
        <ele>2192.60009765625</ele>
        <time>2026-06-15T10:10:19.000Z</time>
        <extensions>
          <ns3:TrackPointExtension>
            <ns3:atemp>18.0</ns3:atemp>
          </ns3:TrackPointExtension>
        </extensions>
      </trkpt>
      <trkpt lat="42.58141885511577129364013671875" lon="20.08667984046041965484619140625">
        <ele>2192.60009765625</ele>
        <time>2026-06-15T10:10:20.000Z</time>
        <extensions>
          <ns3:TrackPointExtension>
            <ns3:atemp>18.0</ns3:atemp>
          </ns3:TrackPointExtension>
        </extensions>
      </trkpt>
      <trkpt lat="42.58141885511577129364013671875" lon="20.08667984046041965484619140625">
        <ele>2192.60009765625</ele>
        <time>2026-06-15T10:10:21.000Z</time>
        <extensions>
          <ns3:TrackPointExtension>
            <ns3:atemp>18.0</ns3:atemp>
          </ns3:TrackPointExtension>
        </extensions>
      </trkpt>
      <trkpt lat="42.58141885511577129364013671875" lon="20.08667984046041965484619140625">
        <ele>2192.60009765625</ele>
        <time>2026-06-15T10:10:22.000Z</time>
        <extensions>
          <ns3:TrackPointExtension>
            <ns3:atemp>18.0</ns3:atemp>
          </ns3:TrackPointExtension>
        </extensions>
      </trkpt>
      <trkpt lat="42.58141885511577129364013671875" lon="20.08667984046041965484619140625">
        <ele>2192.60009765625</ele>
        <time>2026-06-15T10:10:23.000Z</time>
        <extensions>
          <ns3:TrackPointExtension>
            <ns3:atemp>18.0</ns3:atemp>
          </ns3:TrackPointExtension>
        </extensions>
      </trkpt>
      <trkpt lat="42.58141885511577129364013671875" lon="20.08667984046041965484619140625">
        <ele>2192.60009765625</ele>
        <time>2026-06-15T10:10:24.000Z</time>
        <extensions>
          <ns3:TrackPointExtension>
            <ns3:atemp>18.0</ns3:atemp>
          </ns3:TrackPointExtension>
        </extensions>
      </trkpt>
      <trkpt lat="42.58141885511577129364013671875" lon="20.08667984046041965484619140625">
        <ele>2192.60009765625</ele>
        <time>2026-06-15T10:10:25.000Z</time>
        <extensions>
          <ns3:TrackPointExtension>
            <ns3:atemp>18.0</ns3:atemp>
          </ns3:TrackPointExtension>
        </extensions>
      </trkpt>
      <trkpt lat="42.58141885511577129364013671875" lon="20.08667984046041965484619140625">
        <ele>2192.39990234375</ele>
        <time>2026-06-15T10:10:26.000Z</time>
        <extensions>
          <ns3:TrackPointExtension>
            <ns3:atemp>18.0</ns3:atemp>
          </ns3:TrackPointExtension>
        </extensions>
      </trkpt>
      <trkpt lat="42.58141885511577129364013671875" lon="20.08667984046041965484619140625">
        <ele>2192.39990234375</ele>
        <time>2026-06-15T10:10:27.000Z</time>
        <extensions>
          <ns3:TrackPointExtension>
            <ns3:atemp>18.0</ns3:atemp>
          </ns3:TrackPointExtension>
        </extensions>
      </trkpt>
      <trkpt lat="42.58141885511577129364013671875" lon="20.08667984046041965484619140625">
        <ele>2192.60009765625</ele>
        <time>2026-06-15T10:10:28.000Z</time>
        <extensions>
          <ns3:TrackPointExtension>
            <ns3:atemp>18.0</ns3:atemp>
          </ns3:TrackPointExtension>
        </extensions>
      </trkpt>
      <trkpt lat="42.58141885511577129364013671875" lon="20.08667984046041965484619140625">
        <ele>2192.60009765625</ele>
        <time>2026-06-15T10:10:29.000Z</time>
        <extensions>
          <ns3:TrackPointExtension>
            <ns3:atemp>18.0</ns3:atemp>
          </ns3:TrackPointExtension>
        </extensions>
      </trkpt>
      <trkpt lat="42.58141885511577129364013671875" lon="20.08667984046041965484619140625">
        <ele>2192.60009765625</ele>
        <time>2026-06-15T10:10:30.000Z</time>
        <extensions>
          <ns3:TrackPointExtension>
            <ns3:atemp>18.0</ns3:atemp>
          </ns3:TrackPointExtension>
        </extensions>
      </trkpt>
      <trkpt lat="42.58141885511577129364013671875" lon="20.08667984046041965484619140625">
        <ele>2192.60009765625</ele>
        <time>2026-06-15T10:10:31.000Z</time>
        <extensions>
          <ns3:TrackPointExtension>
            <ns3:atemp>18.0</ns3:atemp>
          </ns3:TrackPointExtension>
        </extensions>
      </trkpt>
      <trkpt lat="42.58141885511577129364013671875" lon="20.08667984046041965484619140625">
        <ele>2192.60009765625</ele>
        <time>2026-06-15T10:10:32.000Z</time>
        <extensions>
          <ns3:TrackPointExtension>
            <ns3:atemp>18.0</ns3:atemp>
          </ns3:TrackPointExtension>
        </extensions>
      </trkpt>
      <trkpt lat="42.58141885511577129364013671875" lon="20.08667984046041965484619140625">
        <ele>2192.60009765625</ele>
        <time>2026-06-15T10:10:33.000Z</time>
        <extensions>
          <ns3:TrackPointExtension>
            <ns3:atemp>18.0</ns3:atemp>
          </ns3:TrackPointExtension>
        </extensions>
      </trkpt>
      <trkpt lat="42.58141885511577129364013671875" lon="20.08667984046041965484619140625">
        <ele>2192.60009765625</ele>
        <time>2026-06-15T10:10:34.000Z</time>
        <extensions>
          <ns3:TrackPointExtension>
            <ns3:atemp>18.0</ns3:atemp>
          </ns3:TrackPointExtension>
        </extensions>
      </trkpt>
      <trkpt lat="42.58141885511577129364013671875" lon="20.08667984046041965484619140625">
        <ele>2192.60009765625</ele>
        <time>2026-06-15T10:10:35.000Z</time>
        <extensions>
          <ns3:TrackPointExtension>
            <ns3:atemp>18.0</ns3:atemp>
          </ns3:TrackPointExtension>
        </extensions>
      </trkpt>
      <trkpt lat="42.58141885511577129364013671875" lon="20.08667984046041965484619140625">
        <ele>2192.60009765625</ele>
        <time>2026-06-15T10:10:36.000Z</time>
        <extensions>
          <ns3:TrackPointExtension>
            <ns3:atemp>18.0</ns3:atemp>
          </ns3:TrackPointExtension>
        </extensions>
      </trkpt>
      <trkpt lat="42.58141885511577129364013671875" lon="20.08667984046041965484619140625">
        <ele>2192.60009765625</ele>
        <time>2026-06-15T10:10:37.000Z</time>
        <extensions>
          <ns3:TrackPointExtension>
            <ns3:atemp>18.0</ns3:atemp>
          </ns3:TrackPointExtension>
        </extensions>
      </trkpt>
      <trkpt lat="42.58141885511577129364013671875" lon="20.08667984046041965484619140625">
        <ele>2192.39990234375</ele>
        <time>2026-06-15T10:10:38.000Z</time>
        <extensions>
          <ns3:TrackPointExtension>
            <ns3:atemp>18.0</ns3:atemp>
          </ns3:TrackPointExtension>
        </extensions>
      </trkpt>
      <trkpt lat="42.58141885511577129364013671875" lon="20.08667984046041965484619140625">
        <ele>2192.39990234375</ele>
        <time>2026-06-15T10:10:39.000Z</time>
        <extensions>
          <ns3:TrackPointExtension>
            <ns3:atemp>18.0</ns3:atemp>
          </ns3:TrackPointExtension>
        </extensions>
      </trkpt>
      <trkpt lat="42.58141885511577129364013671875" lon="20.08667984046041965484619140625">
        <ele>2192.39990234375</ele>
        <time>2026-06-15T10:10:40.000Z</time>
        <extensions>
          <ns3:TrackPointExtension>
            <ns3:atemp>18.0</ns3:atemp>
          </ns3:TrackPointExtension>
        </extensions>
      </trkpt>
      <trkpt lat="42.58141885511577129364013671875" lon="20.08667984046041965484619140625">
        <ele>2192.39990234375</ele>
        <time>2026-06-15T10:10:41.000Z</time>
        <extensions>
          <ns3:TrackPointExtension>
            <ns3:atemp>18.0</ns3:atemp>
          </ns3:TrackPointExtension>
        </extensions>
      </trkpt>
      <trkpt lat="42.58141885511577129364013671875" lon="20.08667984046041965484619140625">
        <ele>2192.39990234375</ele>
        <time>2026-06-15T10:10:42.000Z</time>
        <extensions>
          <ns3:TrackPointExtension>
            <ns3:atemp>18.0</ns3:atemp>
          </ns3:TrackPointExtension>
        </extensions>
      </trkpt>
      <trkpt lat="42.58141885511577129364013671875" lon="20.08667984046041965484619140625">
        <ele>2192.39990234375</ele>
        <time>2026-06-15T10:10:43.000Z</time>
        <extensions>
          <ns3:TrackPointExtension>
            <ns3:atemp>18.0</ns3:atemp>
          </ns3:TrackPointExtension>
        </extensions>
      </trkpt>
      <trkpt lat="42.58141885511577129364013671875" lon="20.08667984046041965484619140625">
        <ele>2192.39990234375</ele>
        <time>2026-06-15T10:10:44.000Z</time>
        <extensions>
          <ns3:TrackPointExtension>
            <ns3:atemp>18.0</ns3:atemp>
          </ns3:TrackPointExtension>
        </extensions>
      </trkpt>
      <trkpt lat="42.58141885511577129364013671875" lon="20.08667984046041965484619140625">
        <ele>2192.199951171875</ele>
        <time>2026-06-15T10:10:45.000Z</time>
        <extensions>
          <ns3:TrackPointExtension>
            <ns3:atemp>18.0</ns3:atemp>
          </ns3:TrackPointExtension>
        </extensions>
      </trkpt>
      <trkpt lat="42.58141885511577129364013671875" lon="20.08667984046041965484619140625">
        <ele>2192.199951171875</ele>
        <time>2026-06-15T10:10:46.000Z</time>
        <extensions>
          <ns3:TrackPointExtension>
            <ns3:atemp>18.0</ns3:atemp>
          </ns3:TrackPointExtension>
        </extensions>
      </trkpt>
      <trkpt lat="42.58141885511577129364013671875" lon="20.08667984046041965484619140625">
        <ele>2192.199951171875</ele>
        <time>2026-06-15T10:10:47.000Z</time>
        <extensions>
          <ns3:TrackPointExtension>
            <ns3:atemp>18.0</ns3:atemp>
          </ns3:TrackPointExtension>
        </extensions>
      </trkpt>
      <trkpt lat="42.58141885511577129364013671875" lon="20.08667984046041965484619140625">
        <ele>2192.199951171875</ele>
        <time>2026-06-15T10:10:48.000Z</time>
        <extensions>
          <ns3:TrackPointExtension>
            <ns3:atemp>18.0</ns3:atemp>
          </ns3:TrackPointExtension>
        </extensions>
      </trkpt>
      <trkpt lat="42.58141885511577129364013671875" lon="20.08667984046041965484619140625">
        <ele>2192.199951171875</ele>
        <time>2026-06-15T10:10:49.000Z</time>
        <extensions>
          <ns3:TrackPointExtension>
            <ns3:atemp>18.0</ns3:atemp>
          </ns3:TrackPointExtension>
        </extensions>
      </trkpt>
      <trkpt lat="42.58141885511577129364013671875" lon="20.08667984046041965484619140625">
        <ele>2192.199951171875</ele>
        <time>2026-06-15T10:10:50.000Z</time>
        <extensions>
          <ns3:TrackPointExtension>
            <ns3:atemp>18.0</ns3:atemp>
          </ns3:TrackPointExtension>
        </extensions>
      </trkpt>
      <trkpt lat="42.58141885511577129364013671875" lon="20.08667984046041965484619140625">
        <ele>2192.199951171875</ele>
        <time>2026-06-15T10:10:51.000Z</time>
        <extensions>
          <ns3:TrackPointExtension>
            <ns3:atemp>18.0</ns3:atemp>
          </ns3:TrackPointExtension>
        </extensions>
      </trkpt>
      <trkpt lat="42.58141885511577129364013671875" lon="20.08667984046041965484619140625">
        <ele>2192.199951171875</ele>
        <time>2026-06-15T10:10:52.000Z</time>
        <extensions>
          <ns3:TrackPointExtension>
            <ns3:atemp>18.0</ns3:atemp>
          </ns3:TrackPointExtension>
        </extensions>
      </trkpt>
      <trkpt lat="42.58141885511577129364013671875" lon="20.08667984046041965484619140625">
        <ele>2192.199951171875</ele>
        <time>2026-06-15T10:10:53.000Z</time>
        <extensions>
          <ns3:TrackPointExtension>
            <ns3:atemp>18.0</ns3:atemp>
          </ns3:TrackPointExtension>
        </extensions>
      </trkpt>
      <trkpt lat="42.58141885511577129364013671875" lon="20.08667984046041965484619140625">
        <ele>2192.199951171875</ele>
        <time>2026-06-15T10:10:54.000Z</time>
        <extensions>
          <ns3:TrackPointExtension>
            <ns3:atemp>18.0</ns3:atemp>
          </ns3:TrackPointExtension>
        </extensions>
      </trkpt>
      <trkpt lat="42.58141885511577129364013671875" lon="20.08667984046041965484619140625">
        <ele>2192.199951171875</ele>
        <time>2026-06-15T10:10:55.000Z</time>
        <extensions>
          <ns3:TrackPointExtension>
            <ns3:atemp>18.0</ns3:atemp>
          </ns3:TrackPointExtension>
        </extensions>
      </trkpt>
      <trkpt lat="42.58141885511577129364013671875" lon="20.08667984046041965484619140625">
        <ele>2192.199951171875</ele>
        <time>2026-06-15T10:10:56.000Z</time>
        <extensions>
          <ns3:TrackPointExtension>
            <ns3:atemp>18.0</ns3:atemp>
          </ns3:TrackPointExtension>
        </extensions>
      </trkpt>
      <trkpt lat="42.58141885511577129364013671875" lon="20.08667984046041965484619140625">
        <ele>2192.199951171875</ele>
        <time>2026-06-15T10:10:57.000Z</time>
        <extensions>
          <ns3:TrackPointExtension>
            <ns3:atemp>18.0</ns3:atemp>
          </ns3:TrackPointExtension>
        </extensions>
      </trkpt>
      <trkpt lat="42.58141885511577129364013671875" lon="20.08667984046041965484619140625">
        <ele>2192.199951171875</ele>
        <time>2026-06-15T10:10:58.000Z</time>
        <extensions>
          <ns3:TrackPointExtension>
            <ns3:atemp>18.0</ns3:atemp>
          </ns3:TrackPointExtension>
        </extensions>
      </trkpt>
      <trkpt lat="42.58141885511577129364013671875" lon="20.08667984046041965484619140625">
        <ele>2192.199951171875</ele>
        <time>2026-06-15T10:10:59.000Z</time>
        <extensions>
          <ns3:TrackPointExtension>
            <ns3:atemp>18.0</ns3:atemp>
          </ns3:TrackPointExtension>
        </extensions>
      </trkpt>
      <trkpt lat="42.58141885511577129364013671875" lon="20.08667984046041965484619140625">
        <ele>2192.199951171875</ele>
        <time>2026-06-15T10:11:00.000Z</time>
        <extensions>
          <ns3:TrackPointExtension>
            <ns3:atemp>18.0</ns3:atemp>
          </ns3:TrackPointExtension>
        </extensions>
      </trkpt>
      <trkpt lat="42.58141885511577129364013671875" lon="20.08667984046041965484619140625">
        <ele>2192.199951171875</ele>
        <time>2026-06-15T10:11:01.000Z</time>
        <extensions>
          <ns3:TrackPointExtension>
            <ns3:atemp>18.0</ns3:atemp>
          </ns3:TrackPointExtension>
        </extensions>
      </trkpt>
      <trkpt lat="42.58141885511577129364013671875" lon="20.08667984046041965484619140625">
        <ele>2192.199951171875</ele>
        <time>2026-06-15T10:11:02.000Z</time>
        <extensions>
          <ns3:TrackPointExtension>
            <ns3:atemp>18.0</ns3:atemp>
          </ns3:TrackPointExtension>
        </extensions>
      </trkpt>
      <trkpt lat="42.58141885511577129364013671875" lon="20.08667984046041965484619140625">
        <ele>2192.199951171875</ele>
        <time>2026-06-15T10:11:03.000Z</time>
        <extensions>
          <ns3:TrackPointExtension>
            <ns3:atemp>18.0</ns3:atemp>
          </ns3:TrackPointExtension>
        </extensions>
      </trkpt>
      <trkpt lat="42.58141885511577129364013671875" lon="20.08667984046041965484619140625">
        <ele>2192.199951171875</ele>
        <time>2026-06-15T10:11:04.000Z</time>
        <extensions>
          <ns3:TrackPointExtension>
            <ns3:atemp>18.0</ns3:atemp>
          </ns3:TrackPointExtension>
        </extensions>
      </trkpt>
      <trkpt lat="42.58141885511577129364013671875" lon="20.08667984046041965484619140625">
        <ele>2192.199951171875</ele>
        <time>2026-06-15T10:11:05.000Z</time>
        <extensions>
          <ns3:TrackPointExtension>
            <ns3:atemp>18.0</ns3:atemp>
          </ns3:TrackPointExtension>
        </extensions>
      </trkpt>
      <trkpt lat="42.58141885511577129364013671875" lon="20.08667984046041965484619140625">
        <ele>2192.199951171875</ele>
        <time>2026-06-15T10:11:06.000Z</time>
        <extensions>
          <ns3:TrackPointExtension>
            <ns3:atemp>18.0</ns3:atemp>
          </ns3:TrackPointExtension>
        </extensions>
      </trkpt>
      <trkpt lat="42.58141885511577129364013671875" lon="20.08667984046041965484619140625">
        <ele>2192.199951171875</ele>
        <time>2026-06-15T10:11:07.000Z</time>
        <extensions>
          <ns3:TrackPointExtension>
            <ns3:atemp>18.0</ns3:atemp>
          </ns3:TrackPointExtension>
        </extensions>
      </trkpt>
      <trkpt lat="42.58141885511577129364013671875" lon="20.08667984046041965484619140625">
        <ele>2192.199951171875</ele>
        <time>2026-06-15T10:11:08.000Z</time>
        <extensions>
          <ns3:TrackPointExtension>
            <ns3:atemp>18.0</ns3:atemp>
          </ns3:TrackPointExtension>
        </extensions>
      </trkpt>
      <trkpt lat="42.58141885511577129364013671875" lon="20.08667984046041965484619140625">
        <ele>2192.199951171875</ele>
        <time>2026-06-15T10:11:09.000Z</time>
        <extensions>
          <ns3:TrackPointExtension>
            <ns3:atemp>18.0</ns3:atemp>
          </ns3:TrackPointExtension>
        </extensions>
      </trkpt>
      <trkpt lat="42.58141885511577129364013671875" lon="20.08667984046041965484619140625">
        <ele>2192.199951171875</ele>
        <time>2026-06-15T10:11:10.000Z</time>
        <extensions>
          <ns3:TrackPointExtension>
            <ns3:atemp>18.0</ns3:atemp>
          </ns3:TrackPointExtension>
        </extensions>
      </trkpt>
      <trkpt lat="42.58141885511577129364013671875" lon="20.08667984046041965484619140625">
        <ele>2192.199951171875</ele>
        <time>2026-06-15T10:11:11.000Z</time>
        <extensions>
          <ns3:TrackPointExtension>
            <ns3:atemp>18.0</ns3:atemp>
          </ns3:TrackPointExtension>
        </extensions>
      </trkpt>
      <trkpt lat="42.58141885511577129364013671875" lon="20.08667984046041965484619140625">
        <ele>2192.199951171875</ele>
        <time>2026-06-15T10:11:12.000Z</time>
        <extensions>
          <ns3:TrackPointExtension>
            <ns3:atemp>18.0</ns3:atemp>
          </ns3:TrackPointExtension>
        </extensions>
      </trkpt>
      <trkpt lat="42.58141885511577129364013671875" lon="20.08667984046041965484619140625">
        <ele>2192.199951171875</ele>
        <time>2026-06-15T10:11:13.000Z</time>
        <extensions>
          <ns3:TrackPointExtension>
            <ns3:atemp>18.0</ns3:atemp>
          </ns3:TrackPointExtension>
        </extensions>
      </trkpt>
      <trkpt lat="42.58141885511577129364013671875" lon="20.08667984046041965484619140625">
        <ele>2192.199951171875</ele>
        <time>2026-06-15T10:11:14.000Z</time>
        <extensions>
          <ns3:TrackPointExtension>
            <ns3:atemp>18.0</ns3:atemp>
          </ns3:TrackPointExtension>
        </extensions>
      </trkpt>
      <trkpt lat="42.58141885511577129364013671875" lon="20.08667984046041965484619140625">
        <ele>2192.199951171875</ele>
        <time>2026-06-15T10:11:15.000Z</time>
        <extensions>
          <ns3:TrackPointExtension>
            <ns3:atemp>18.0</ns3:atemp>
          </ns3:TrackPointExtension>
        </extensions>
      </trkpt>
      <trkpt lat="42.58141885511577129364013671875" lon="20.08667984046041965484619140625">
        <ele>2192.199951171875</ele>
        <time>2026-06-15T10:11:16.000Z</time>
        <extensions>
          <ns3:TrackPointExtension>
            <ns3:atemp>18.0</ns3:atemp>
          </ns3:TrackPointExtension>
        </extensions>
      </trkpt>
      <trkpt lat="42.58141885511577129364013671875" lon="20.08667984046041965484619140625">
        <ele>2192.199951171875</ele>
        <time>2026-06-15T10:11:17.000Z</time>
        <extensions>
          <ns3:TrackPointExtension>
            <ns3:atemp>18.0</ns3:atemp>
          </ns3:TrackPointExtension>
        </extensions>
      </trkpt>
      <trkpt lat="42.58141885511577129364013671875" lon="20.08667984046041965484619140625">
        <ele>2192.199951171875</ele>
        <time>2026-06-15T10:11:18.000Z</time>
        <extensions>
          <ns3:TrackPointExtension>
            <ns3:atemp>18.0</ns3:atemp>
          </ns3:TrackPointExtension>
        </extensions>
      </trkpt>
      <trkpt lat="42.58141885511577129364013671875" lon="20.08667984046041965484619140625">
        <ele>2192.199951171875</ele>
        <time>2026-06-15T10:11:19.000Z</time>
        <extensions>
          <ns3:TrackPointExtension>
            <ns3:atemp>18.0</ns3:atemp>
          </ns3:TrackPointExtension>
        </extensions>
      </trkpt>
      <trkpt lat="42.58141885511577129364013671875" lon="20.08667984046041965484619140625">
        <ele>2192.199951171875</ele>
        <time>2026-06-15T10:11:20.000Z</time>
        <extensions>
          <ns3:TrackPointExtension>
            <ns3:atemp>18.0</ns3:atemp>
          </ns3:TrackPointExtension>
        </extensions>
      </trkpt>
      <trkpt lat="42.58141885511577129364013671875" lon="20.08667984046041965484619140625">
        <ele>2192.199951171875</ele>
        <time>2026-06-15T10:11:21.000Z</time>
        <extensions>
          <ns3:TrackPointExtension>
            <ns3:atemp>18.0</ns3:atemp>
          </ns3:TrackPointExtension>
        </extensions>
      </trkpt>
      <trkpt lat="42.58141885511577129364013671875" lon="20.08667984046041965484619140625">
        <ele>2192.199951171875</ele>
        <time>2026-06-15T10:11:22.000Z</time>
        <extensions>
          <ns3:TrackPointExtension>
            <ns3:atemp>18.0</ns3:atemp>
          </ns3:TrackPointExtension>
        </extensions>
      </trkpt>
      <trkpt lat="42.58141885511577129364013671875" lon="20.08667984046041965484619140625">
        <ele>2192.199951171875</ele>
        <time>2026-06-15T10:11:23.000Z</time>
        <extensions>
          <ns3:TrackPointExtension>
            <ns3:atemp>18.0</ns3:atemp>
          </ns3:TrackPointExtension>
        </extensions>
      </trkpt>
      <trkpt lat="42.58141885511577129364013671875" lon="20.08667984046041965484619140625">
        <ele>2192.199951171875</ele>
        <time>2026-06-15T10:11:24.000Z</time>
        <extensions>
          <ns3:TrackPointExtension>
            <ns3:atemp>18.0</ns3:atemp>
          </ns3:TrackPointExtension>
        </extensions>
      </trkpt>
      <trkpt lat="42.58141885511577129364013671875" lon="20.08667984046041965484619140625">
        <ele>2192.199951171875</ele>
        <time>2026-06-15T10:11:25.000Z</time>
        <extensions>
          <ns3:TrackPointExtension>
            <ns3:atemp>18.0</ns3:atemp>
          </ns3:TrackPointExtension>
        </extensions>
      </trkpt>
      <trkpt lat="42.58141885511577129364013671875" lon="20.08667984046041965484619140625">
        <ele>2192.199951171875</ele>
        <time>2026-06-15T10:11:26.000Z</time>
        <extensions>
          <ns3:TrackPointExtension>
            <ns3:atemp>18.0</ns3:atemp>
          </ns3:TrackPointExtension>
        </extensions>
      </trkpt>
      <trkpt lat="42.58141885511577129364013671875" lon="20.08667984046041965484619140625">
        <ele>2192.199951171875</ele>
        <time>2026-06-15T10:11:27.000Z</time>
        <extensions>
          <ns3:TrackPointExtension>
            <ns3:atemp>18.0</ns3:atemp>
          </ns3:TrackPointExtension>
        </extensions>
      </trkpt>
      <trkpt lat="42.58141885511577129364013671875" lon="20.08667984046041965484619140625">
        <ele>2192.199951171875</ele>
        <time>2026-06-15T10:11:28.000Z</time>
        <extensions>
          <ns3:TrackPointExtension>
            <ns3:atemp>18.0</ns3:atemp>
          </ns3:TrackPointExtension>
        </extensions>
      </trkpt>
      <trkpt lat="42.58141885511577129364013671875" lon="20.08667984046041965484619140625">
        <ele>2192.199951171875</ele>
        <time>2026-06-15T10:11:29.000Z</time>
        <extensions>
          <ns3:TrackPointExtension>
            <ns3:atemp>18.0</ns3:atemp>
          </ns3:TrackPointExtension>
        </extensions>
      </trkpt>
      <trkpt lat="42.58141885511577129364013671875" lon="20.08667984046041965484619140625">
        <ele>2192.199951171875</ele>
        <time>2026-06-15T10:11:30.000Z</time>
        <extensions>
          <ns3:TrackPointExtension>
            <ns3:atemp>18.0</ns3:atemp>
          </ns3:TrackPointExtension>
        </extensions>
      </trkpt>
      <trkpt lat="42.58141885511577129364013671875" lon="20.08667984046041965484619140625">
        <ele>2192.199951171875</ele>
        <time>2026-06-15T10:11:31.000Z</time>
        <extensions>
          <ns3:TrackPointExtension>
            <ns3:atemp>18.0</ns3:atemp>
          </ns3:TrackPointExtension>
        </extensions>
      </trkpt>
      <trkpt lat="42.58141885511577129364013671875" lon="20.08667984046041965484619140625">
        <ele>2192.199951171875</ele>
        <time>2026-06-15T10:11:32.000Z</time>
        <extensions>
          <ns3:TrackPointExtension>
            <ns3:atemp>18.0</ns3:atemp>
          </ns3:TrackPointExtension>
        </extensions>
      </trkpt>
      <trkpt lat="42.58141885511577129364013671875" lon="20.08667984046041965484619140625">
        <ele>2192.199951171875</ele>
        <time>2026-06-15T10:11:33.000Z</time>
        <extensions>
          <ns3:TrackPointExtension>
            <ns3:atemp>17.0</ns3:atemp>
          </ns3:TrackPointExtension>
        </extensions>
      </trkpt>
      <trkpt lat="42.58141885511577129364013671875" lon="20.08667984046041965484619140625">
        <ele>2192.199951171875</ele>
        <time>2026-06-15T10:11:34.000Z</time>
        <extensions>
          <ns3:TrackPointExtension>
            <ns3:atemp>18.0</ns3:atemp>
          </ns3:TrackPointExtension>
        </extensions>
      </trkpt>
      <trkpt lat="42.58141885511577129364013671875" lon="20.08667984046041965484619140625">
        <ele>2192.199951171875</ele>
        <time>2026-06-15T10:11:35.000Z</time>
        <extensions>
          <ns3:TrackPointExtension>
            <ns3:atemp>18.0</ns3:atemp>
          </ns3:TrackPointExtension>
        </extensions>
      </trkpt>
      <trkpt lat="42.58141885511577129364013671875" lon="20.08667984046041965484619140625">
        <ele>2192.199951171875</ele>
        <time>2026-06-15T10:11:36.000Z</time>
        <extensions>
          <ns3:TrackPointExtension>
            <ns3:atemp>18.0</ns3:atemp>
          </ns3:TrackPointExtension>
        </extensions>
      </trkpt>
      <trkpt lat="42.58141885511577129364013671875" lon="20.08667984046041965484619140625">
        <ele>2192.199951171875</ele>
        <time>2026-06-15T10:11:37.000Z</time>
        <extensions>
          <ns3:TrackPointExtension>
            <ns3:atemp>17.0</ns3:atemp>
          </ns3:TrackPointExtension>
        </extensions>
      </trkpt>
      <trkpt lat="42.58141885511577129364013671875" lon="20.08667984046041965484619140625">
        <ele>2192.199951171875</ele>
        <time>2026-06-15T10:11:38.000Z</time>
        <extensions>
          <ns3:TrackPointExtension>
            <ns3:atemp>17.0</ns3:atemp>
          </ns3:TrackPointExtension>
        </extensions>
      </trkpt>
      <trkpt lat="42.58141885511577129364013671875" lon="20.08667984046041965484619140625">
        <ele>2192.199951171875</ele>
        <time>2026-06-15T10:11:39.000Z</time>
        <extensions>
          <ns3:TrackPointExtension>
            <ns3:atemp>17.0</ns3:atemp>
          </ns3:TrackPointExtension>
        </extensions>
      </trkpt>
      <trkpt lat="42.58141885511577129364013671875" lon="20.08667984046041965484619140625">
        <ele>2192.199951171875</ele>
        <time>2026-06-15T10:11:40.000Z</time>
        <extensions>
          <ns3:TrackPointExtension>
            <ns3:atemp>17.0</ns3:atemp>
          </ns3:TrackPointExtension>
        </extensions>
      </trkpt>
      <trkpt lat="42.58141885511577129364013671875" lon="20.08667984046041965484619140625">
        <ele>2192.199951171875</ele>
        <time>2026-06-15T10:11:41.000Z</time>
        <extensions>
          <ns3:TrackPointExtension>
            <ns3:atemp>17.0</ns3:atemp>
          </ns3:TrackPointExtension>
        </extensions>
      </trkpt>
      <trkpt lat="42.58141885511577129364013671875" lon="20.08667984046041965484619140625">
        <ele>2192.199951171875</ele>
        <time>2026-06-15T10:11:42.000Z</time>
        <extensions>
          <ns3:TrackPointExtension>
            <ns3:atemp>17.0</ns3:atemp>
          </ns3:TrackPointExtension>
        </extensions>
      </trkpt>
      <trkpt lat="42.58141885511577129364013671875" lon="20.08667984046041965484619140625">
        <ele>2192.199951171875</ele>
        <time>2026-06-15T10:11:43.000Z</time>
        <extensions>
          <ns3:TrackPointExtension>
            <ns3:atemp>17.0</ns3:atemp>
          </ns3:TrackPointExtension>
        </extensions>
      </trkpt>
      <trkpt lat="42.58141885511577129364013671875" lon="20.08667984046041965484619140625">
        <ele>2192.199951171875</ele>
        <time>2026-06-15T10:11:44.000Z</time>
        <extensions>
          <ns3:TrackPointExtension>
            <ns3:atemp>17.0</ns3:atemp>
          </ns3:TrackPointExtension>
        </extensions>
      </trkpt>
      <trkpt lat="42.58141885511577129364013671875" lon="20.08667984046041965484619140625">
        <ele>2192.199951171875</ele>
        <time>2026-06-15T10:11:45.000Z</time>
        <extensions>
          <ns3:TrackPointExtension>
            <ns3:atemp>18.0</ns3:atemp>
          </ns3:TrackPointExtension>
        </extensions>
      </trkpt>
      <trkpt lat="42.58141885511577129364013671875" lon="20.08667984046041965484619140625">
        <ele>2192.199951171875</ele>
        <time>2026-06-15T10:11:46.000Z</time>
        <extensions>
          <ns3:TrackPointExtension>
            <ns3:atemp>18.0</ns3:atemp>
          </ns3:TrackPointExtension>
        </extensions>
      </trkpt>
      <trkpt lat="42.58141885511577129364013671875" lon="20.08667984046041965484619140625">
        <ele>2192.199951171875</ele>
        <time>2026-06-15T10:11:47.000Z</time>
        <extensions>
          <ns3:TrackPointExtension>
            <ns3:atemp>18.0</ns3:atemp>
          </ns3:TrackPointExtension>
        </extensions>
      </trkpt>
      <trkpt lat="42.58141885511577129364013671875" lon="20.08667984046041965484619140625">
        <ele>2192.199951171875</ele>
        <time>2026-06-15T10:11:48.000Z</time>
        <extensions>
          <ns3:TrackPointExtension>
            <ns3:atemp>17.0</ns3:atemp>
          </ns3:TrackPointExtension>
        </extensions>
      </trkpt>
      <trkpt lat="42.58141885511577129364013671875" lon="20.08667984046041965484619140625">
        <ele>2192.199951171875</ele>
        <time>2026-06-15T10:11:49.000Z</time>
        <extensions>
          <ns3:TrackPointExtension>
            <ns3:atemp>17.0</ns3:atemp>
          </ns3:TrackPointExtension>
        </extensions>
      </trkpt>
      <trkpt lat="42.58141885511577129364013671875" lon="20.08667984046041965484619140625">
        <ele>2192.199951171875</ele>
        <time>2026-06-15T10:11:50.000Z</time>
        <extensions>
          <ns3:TrackPointExtension>
            <ns3:atemp>18.0</ns3:atemp>
          </ns3:TrackPointExtension>
        </extensions>
      </trkpt>
      <trkpt lat="42.58141885511577129364013671875" lon="20.08667984046041965484619140625">
        <ele>2192.199951171875</ele>
        <time>2026-06-15T10:11:51.000Z</time>
        <extensions>
          <ns3:TrackPointExtension>
            <ns3:atemp>17.0</ns3:atemp>
          </ns3:TrackPointExtension>
        </extensions>
      </trkpt>
      <trkpt lat="42.58141885511577129364013671875" lon="20.08667984046041965484619140625">
        <ele>2192.199951171875</ele>
        <time>2026-06-15T10:11:52.000Z</time>
        <extensions>
          <ns3:TrackPointExtension>
            <ns3:atemp>17.0</ns3:atemp>
          </ns3:TrackPointExtension>
        </extensions>
      </trkpt>
      <trkpt lat="42.58141885511577129364013671875" lon="20.08667984046041965484619140625">
        <ele>2192.199951171875</ele>
        <time>2026-06-15T10:11:53.000Z</time>
        <extensions>
          <ns3:TrackPointExtension>
            <ns3:atemp>17.0</ns3:atemp>
          </ns3:TrackPointExtension>
        </extensions>
      </trkpt>
      <trkpt lat="42.58141935802996158599853515625" lon="20.086676068603992462158203125">
        <ele>2192.199951171875</ele>
        <time>2026-06-15T10:11:54.000Z</time>
        <extensions>
          <ns3:TrackPointExtension>
            <ns3:atemp>17.0</ns3:atemp>
          </ns3:TrackPointExtension>
        </extensions>
      </trkpt>
      <trkpt lat="42.58142371661961078643798828125" lon="20.08666056208312511444091796875">
        <ele>2192.199951171875</ele>
        <time>2026-06-15T10:11:55.000Z</time>
        <extensions>
          <ns3:TrackPointExtension>
            <ns3:atemp>17.0</ns3:atemp>
          </ns3:TrackPointExtension>
        </extensions>
      </trkpt>
      <trkpt lat="42.5814191065728664398193359375" lon="20.08666005916893482208251953125">
        <ele>2192.199951171875</ele>
        <time>2026-06-15T10:11:56.000Z</time>
        <extensions>
          <ns3:TrackPointExtension>
            <ns3:atemp>17.0</ns3:atemp>
          </ns3:TrackPointExtension>
        </extensions>
      </trkpt>
      <trkpt lat="42.5814191065728664398193359375" lon="20.08666005916893482208251953125">
        <ele>2192.199951171875</ele>
        <time>2026-06-15T10:11:57.000Z</time>
        <extensions>
          <ns3:TrackPointExtension>
            <ns3:atemp>17.0</ns3:atemp>
          </ns3:TrackPointExtension>
        </extensions>
      </trkpt>
      <trkpt lat="42.5814191065728664398193359375" lon="20.08666005916893482208251953125">
        <ele>2192.199951171875</ele>
        <time>2026-06-15T10:11:58.000Z</time>
        <extensions>
          <ns3:TrackPointExtension>
            <ns3:atemp>17.0</ns3:atemp>
          </ns3:TrackPointExtension>
        </extensions>
      </trkpt>
      <trkpt lat="42.5814191065728664398193359375" lon="20.08666005916893482208251953125">
        <ele>2192.199951171875</ele>
        <time>2026-06-15T10:11:59.000Z</time>
        <extensions>
          <ns3:TrackPointExtension>
            <ns3:atemp>17.0</ns3:atemp>
          </ns3:TrackPointExtension>
        </extensions>
      </trkpt>
      <trkpt lat="42.5814191065728664398193359375" lon="20.08666005916893482208251953125">
        <ele>2192.199951171875</ele>
        <time>2026-06-15T10:12:00.000Z</time>
        <extensions>
          <ns3:TrackPointExtension>
            <ns3:atemp>17.0</ns3:atemp>
          </ns3:TrackPointExtension>
        </extensions>
      </trkpt>
      <trkpt lat="42.5814191065728664398193359375" lon="20.08666005916893482208251953125">
        <ele>2192.199951171875</ele>
        <time>2026-06-15T10:12:01.000Z</time>
        <extensions>
          <ns3:TrackPointExtension>
            <ns3:atemp>17.0</ns3:atemp>
          </ns3:TrackPointExtension>
        </extensions>
      </trkpt>
      <trkpt lat="42.5814191065728664398193359375" lon="20.08666005916893482208251953125">
        <ele>2192.199951171875</ele>
        <time>2026-06-15T10:12:02.000Z</time>
        <extensions>
          <ns3:TrackPointExtension>
            <ns3:atemp>17.0</ns3:atemp>
          </ns3:TrackPointExtension>
        </extensions>
      </trkpt>
      <trkpt lat="42.5814191065728664398193359375" lon="20.08666005916893482208251953125">
        <ele>2192.199951171875</ele>
        <time>2026-06-15T10:12:03.000Z</time>
        <extensions>
          <ns3:TrackPointExtension>
            <ns3:atemp>17.0</ns3:atemp>
          </ns3:TrackPointExtension>
        </extensions>
      </trkpt>
      <trkpt lat="42.5814191065728664398193359375" lon="20.08666005916893482208251953125">
        <ele>2192.199951171875</ele>
        <time>2026-06-15T10:12:04.000Z</time>
        <extensions>
          <ns3:TrackPointExtension>
            <ns3:atemp>17.0</ns3:atemp>
          </ns3:TrackPointExtension>
        </extensions>
      </trkpt>
      <trkpt lat="42.5814191065728664398193359375" lon="20.08666005916893482208251953125">
        <ele>2192.199951171875</ele>
        <time>2026-06-15T10:12:05.000Z</time>
        <extensions>
          <ns3:TrackPointExtension>
            <ns3:atemp>17.0</ns3:atemp>
          </ns3:TrackPointExtension>
        </extensions>
      </trkpt>
      <trkpt lat="42.5814191065728664398193359375" lon="20.08666005916893482208251953125">
        <ele>2192.199951171875</ele>
        <time>2026-06-15T10:12:06.000Z</time>
        <extensions>
          <ns3:TrackPointExtension>
            <ns3:atemp>17.0</ns3:atemp>
          </ns3:TrackPointExtension>
        </extensions>
      </trkpt>
      <trkpt lat="42.5814191065728664398193359375" lon="20.08666005916893482208251953125">
        <ele>2192.199951171875</ele>
        <time>2026-06-15T10:12:07.000Z</time>
        <extensions>
          <ns3:TrackPointExtension>
            <ns3:atemp>17.0</ns3:atemp>
          </ns3:TrackPointExtension>
        </extensions>
      </trkpt>
      <trkpt lat="42.5814191065728664398193359375" lon="20.08666005916893482208251953125">
        <ele>2192.199951171875</ele>
        <time>2026-06-15T10:12:08.000Z</time>
        <extensions>
          <ns3:TrackPointExtension>
            <ns3:atemp>17.0</ns3:atemp>
          </ns3:TrackPointExtension>
        </extensions>
      </trkpt>
      <trkpt lat="42.5814191065728664398193359375" lon="20.08666005916893482208251953125">
        <ele>2192.199951171875</ele>
        <time>2026-06-15T10:12:09.000Z</time>
        <extensions>
          <ns3:TrackPointExtension>
            <ns3:atemp>17.0</ns3:atemp>
          </ns3:TrackPointExtension>
        </extensions>
      </trkpt>
      <trkpt lat="42.5814191065728664398193359375" lon="20.08666005916893482208251953125">
        <ele>2192.199951171875</ele>
        <time>2026-06-15T10:12:10.000Z</time>
        <extensions>
          <ns3:TrackPointExtension>
            <ns3:atemp>17.0</ns3:atemp>
          </ns3:TrackPointExtension>
        </extensions>
      </trkpt>
      <trkpt lat="42.5814191065728664398193359375" lon="20.08666005916893482208251953125">
        <ele>2192.199951171875</ele>
        <time>2026-06-15T10:12:11.000Z</time>
        <extensions>
          <ns3:TrackPointExtension>
            <ns3:atemp>17.0</ns3:atemp>
          </ns3:TrackPointExtension>
        </extensions>
      </trkpt>
      <trkpt lat="42.5814191065728664398193359375" lon="20.08666005916893482208251953125">
        <ele>2192.199951171875</ele>
        <time>2026-06-15T10:12:12.000Z</time>
        <extensions>
          <ns3:TrackPointExtension>
            <ns3:atemp>17.0</ns3:atemp>
          </ns3:TrackPointExtension>
        </extensions>
      </trkpt>
      <trkpt lat="42.5814191065728664398193359375" lon="20.08666005916893482208251953125">
        <ele>2192.199951171875</ele>
        <time>2026-06-15T10:12:13.000Z</time>
        <extensions>
          <ns3:TrackPointExtension>
            <ns3:atemp>17.0</ns3:atemp>
          </ns3:TrackPointExtension>
        </extensions>
      </trkpt>
      <trkpt lat="42.5814191065728664398193359375" lon="20.08666005916893482208251953125">
        <ele>2192.199951171875</ele>
        <time>2026-06-15T10:12:14.000Z</time>
        <extensions>
          <ns3:TrackPointExtension>
            <ns3:atemp>17.0</ns3:atemp>
          </ns3:TrackPointExtension>
        </extensions>
      </trkpt>
      <trkpt lat="42.5814191065728664398193359375" lon="20.08666005916893482208251953125">
        <ele>2192.199951171875</ele>
        <time>2026-06-15T10:12:15.000Z</time>
        <extensions>
          <ns3:TrackPointExtension>
            <ns3:atemp>17.0</ns3:atemp>
          </ns3:TrackPointExtension>
        </extensions>
      </trkpt>
      <trkpt lat="42.5814191065728664398193359375" lon="20.08666005916893482208251953125">
        <ele>2192.199951171875</ele>
        <time>2026-06-15T10:12:16.000Z</time>
        <extensions>
          <ns3:TrackPointExtension>
            <ns3:atemp>17.0</ns3:atemp>
          </ns3:TrackPointExtension>
        </extensions>
      </trkpt>
      <trkpt lat="42.5814191065728664398193359375" lon="20.08666005916893482208251953125">
        <ele>2192.199951171875</ele>
        <time>2026-06-15T10:12:17.000Z</time>
        <extensions>
          <ns3:TrackPointExtension>
            <ns3:atemp>17.0</ns3:atemp>
          </ns3:TrackPointExtension>
        </extensions>
      </trkpt>
      <trkpt lat="42.5814191065728664398193359375" lon="20.08666005916893482208251953125">
        <ele>2192.199951171875</ele>
        <time>2026-06-15T10:12:18.000Z</time>
        <extensions>
          <ns3:TrackPointExtension>
            <ns3:atemp>17.0</ns3:atemp>
          </ns3:TrackPointExtension>
        </extensions>
      </trkpt>
      <trkpt lat="42.5814191065728664398193359375" lon="20.08666005916893482208251953125">
        <ele>2192.199951171875</ele>
        <time>2026-06-15T10:12:19.000Z</time>
        <extensions>
          <ns3:TrackPointExtension>
            <ns3:atemp>17.0</ns3:atemp>
          </ns3:TrackPointExtension>
        </extensions>
      </trkpt>
      <trkpt lat="42.581417262554168701171875" lon="20.08666022680699825286865234375">
        <ele>2192.199951171875</ele>
        <time>2026-06-15T10:12:20.000Z</time>
        <extensions>
          <ns3:TrackPointExtension>
            <ns3:atemp>17.0</ns3:atemp>
          </ns3:TrackPointExtension>
        </extensions>
      </trkpt>
      <trkpt lat="42.5814100541174411773681640625" lon="20.08666324429214000701904296875">
        <ele>2192.199951171875</ele>
        <time>2026-06-15T10:12:21.000Z</time>
        <extensions>
          <ns3:TrackPointExtension>
            <ns3:atemp>17.0</ns3:atemp>
          </ns3:TrackPointExtension>
        </extensions>
      </trkpt>
      <trkpt lat="42.58140661753714084625244140625" lon="20.08667531423270702362060546875">
        <ele>2192.199951171875</ele>
        <time>2026-06-15T10:12:22.000Z</time>
        <extensions>
          <ns3:TrackPointExtension>
            <ns3:atemp>17.0</ns3:atemp>
          </ns3:TrackPointExtension>
        </extensions>
      </trkpt>
      <trkpt lat="42.581408210098743438720703125" lon="20.0866859592497348785400390625">
        <ele>2192.199951171875</ele>
        <time>2026-06-15T10:12:23.000Z</time>
        <extensions>
          <ns3:TrackPointExtension>
            <ns3:atemp>17.0</ns3:atemp>
          </ns3:TrackPointExtension>
        </extensions>
      </trkpt>
      <trkpt lat="42.58140728808939456939697265625" lon="20.08669543080031871795654296875">
        <ele>2192.199951171875</ele>
        <time>2026-06-15T10:12:24.000Z</time>
        <extensions>
          <ns3:TrackPointExtension>
            <ns3:atemp>17.0</ns3:atemp>
          </ns3:TrackPointExtension>
        </extensions>
      </trkpt>
      <trkpt lat="42.581402175128459930419921875" lon="20.08671269752085208892822265625">
        <ele>2192.199951171875</ele>
        <time>2026-06-15T10:12:25.000Z</time>
        <extensions>
          <ns3:TrackPointExtension>
            <ns3:atemp>17.0</ns3:atemp>
          </ns3:TrackPointExtension>
        </extensions>
      </trkpt>
      <trkpt lat="42.58140075020492076873779296875" lon="20.0867178104817867279052734375">
        <ele>2192.199951171875</ele>
        <time>2026-06-15T10:12:26.000Z</time>
        <extensions>
          <ns3:TrackPointExtension>
            <ns3:atemp>17.0</ns3:atemp>
          </ns3:TrackPointExtension>
        </extensions>
      </trkpt>
      <trkpt lat="42.581400834023952484130859375" lon="20.0867178104817867279052734375">
        <ele>2192.199951171875</ele>
        <time>2026-06-15T10:12:27.000Z</time>
        <extensions>
          <ns3:TrackPointExtension>
            <ns3:atemp>17.0</ns3:atemp>
          </ns3:TrackPointExtension>
        </extensions>
      </trkpt>
      <trkpt lat="42.581400834023952484130859375" lon="20.0867178104817867279052734375">
        <ele>2192.39990234375</ele>
        <time>2026-06-15T10:12:28.000Z</time>
        <extensions>
          <ns3:TrackPointExtension>
            <ns3:atemp>17.0</ns3:atemp>
          </ns3:TrackPointExtension>
        </extensions>
      </trkpt>
      <trkpt lat="42.581400834023952484130859375" lon="20.0867178104817867279052734375">
        <ele>2192.39990234375</ele>
        <time>2026-06-15T10:12:29.000Z</time>
        <extensions>
          <ns3:TrackPointExtension>
            <ns3:atemp>17.0</ns3:atemp>
          </ns3:TrackPointExtension>
        </extensions>
      </trkpt>
      <trkpt lat="42.5814010016620159149169921875" lon="20.0867178104817867279052734375">
        <ele>2192.60009765625</ele>
        <time>2026-06-15T10:12:30.000Z</time>
        <extensions>
          <ns3:TrackPointExtension>
            <ns3:atemp>17.0</ns3:atemp>
          </ns3:TrackPointExtension>
        </extensions>
      </trkpt>
      <trkpt lat="42.5813999958336353302001953125" lon="20.0867265276610851287841796875">
        <ele>2192.60009765625</ele>
        <time>2026-06-15T10:12:31.000Z</time>
        <extensions>
          <ns3:TrackPointExtension>
            <ns3:atemp>17.0</ns3:atemp>
          </ns3:TrackPointExtension>
        </extensions>
      </trkpt>
      <trkpt lat="42.58139840327203273773193359375" lon="20.0867385976016521453857421875">
        <ele>2192.60009765625</ele>
        <time>2026-06-15T10:12:32.000Z</time>
        <extensions>
          <ns3:TrackPointExtension>
            <ns3:atemp>17.0</ns3:atemp>
          </ns3:TrackPointExtension>
        </extensions>
      </trkpt>
      <trkpt lat="42.58139622397720813751220703125" lon="20.08675091899931430816650390625">
        <ele>2192.60009765625</ele>
        <time>2026-06-15T10:12:33.000Z</time>
        <extensions>
          <ns3:TrackPointExtension>
            <ns3:atemp>17.0</ns3:atemp>
          </ns3:TrackPointExtension>
        </extensions>
      </trkpt>
      <trkpt lat="42.5813953019678592681884765625" lon="20.08675846271216869354248046875">
        <ele>2192.800048828125</ele>
        <time>2026-06-15T10:12:34.000Z</time>
        <extensions>
          <ns3:TrackPointExtension>
            <ns3:atemp>17.0</ns3:atemp>
          </ns3:TrackPointExtension>
        </extensions>
      </trkpt>
      <trkpt lat="42.58139085955917835235595703125" lon="20.08676013909280300140380859375">
        <ele>2192.800048828125</ele>
        <time>2026-06-15T10:12:35.000Z</time>
        <extensions>
          <ns3:TrackPointExtension>
            <ns3:atemp>17.0</ns3:atemp>
          </ns3:TrackPointExtension>
        </extensions>
      </trkpt>
      <trkpt lat="42.58138566277921199798583984375" lon="20.08676835335791110992431640625">
        <ele>2192.800048828125</ele>
        <time>2026-06-15T10:12:36.000Z</time>
        <extensions>
          <ns3:TrackPointExtension>
            <ns3:atemp>17.0</ns3:atemp>
          </ns3:TrackPointExtension>
        </extensions>
      </trkpt>
      <trkpt lat="42.5813828967511653900146484375" lon="20.08678260259330272674560546875">
        <ele>2192.800048828125</ele>
        <time>2026-06-15T10:12:37.000Z</time>
        <extensions>
          <ns3:TrackPointExtension>
            <ns3:atemp>17.0</ns3:atemp>
          </ns3:TrackPointExtension>
        </extensions>
      </trkpt>
      <trkpt lat="42.58138298057019710540771484375" lon="20.0867996178567409515380859375">
        <ele>2192.800048828125</ele>
        <time>2026-06-15T10:12:38.000Z</time>
        <extensions>
          <ns3:TrackPointExtension>
            <ns3:atemp>17.0</ns3:atemp>
          </ns3:TrackPointExtension>
        </extensions>
      </trkpt>
      <trkpt lat="42.58138733915984630584716796875" lon="20.0868116877973079681396484375">
        <ele>2192.800048828125</ele>
        <time>2026-06-15T10:12:39.000Z</time>
        <extensions>
          <ns3:TrackPointExtension>
            <ns3:atemp>17.0</ns3:atemp>
          </ns3:TrackPointExtension>
        </extensions>
      </trkpt>
      <trkpt lat="42.5813926197588443756103515625" lon="20.0868197344243526458740234375">
        <ele>2192.800048828125</ele>
        <time>2026-06-15T10:12:40.000Z</time>
        <extensions>
          <ns3:TrackPointExtension>
            <ns3:atemp>17.0</ns3:atemp>
          </ns3:TrackPointExtension>
        </extensions>
      </trkpt>
      <trkpt lat="42.58139823563396930694580078125" lon="20.08683306165039539337158203125">
        <ele>2192.800048828125</ele>
        <time>2026-06-15T10:12:41.000Z</time>
        <extensions>
          <ns3:TrackPointExtension>
            <ns3:atemp>17.0</ns3:atemp>
          </ns3:TrackPointExtension>
        </extensions>
      </trkpt>
      <trkpt lat="42.58139639161527156829833984375" lon="20.086834318935871124267578125">
        <ele>2192.60009765625</ele>
        <time>2026-06-15T10:12:42.000Z</time>
        <extensions>
          <ns3:TrackPointExtension>
            <ns3:atemp>17.0</ns3:atemp>
          </ns3:TrackPointExtension>
        </extensions>
      </trkpt>
      <trkpt lat="42.58139639161527156829833984375" lon="20.086834318935871124267578125">
        <ele>2192.60009765625</ele>
        <time>2026-06-15T10:12:43.000Z</time>
        <extensions>
          <ns3:TrackPointExtension>
            <ns3:atemp>17.0</ns3:atemp>
          </ns3:TrackPointExtension>
        </extensions>
      </trkpt>
      <trkpt lat="42.58139639161527156829833984375" lon="20.086834318935871124267578125">
        <ele>2192.60009765625</ele>
        <time>2026-06-15T10:12:44.000Z</time>
        <extensions>
          <ns3:TrackPointExtension>
            <ns3:atemp>17.0</ns3:atemp>
          </ns3:TrackPointExtension>
        </extensions>
      </trkpt>
      <trkpt lat="42.58139639161527156829833984375" lon="20.086834318935871124267578125">
        <ele>2192.60009765625</ele>
        <time>2026-06-15T10:12:45.000Z</time>
        <extensions>
          <ns3:TrackPointExtension>
            <ns3:atemp>17.0</ns3:atemp>
          </ns3:TrackPointExtension>
        </extensions>
      </trkpt>
      <trkpt lat="42.58139639161527156829833984375" lon="20.086834318935871124267578125">
        <ele>2192.800048828125</ele>
        <time>2026-06-15T10:12:46.000Z</time>
        <extensions>
          <ns3:TrackPointExtension>
            <ns3:atemp>17.0</ns3:atemp>
          </ns3:TrackPointExtension>
        </extensions>
      </trkpt>
      <trkpt lat="42.58139639161527156829833984375" lon="20.086834318935871124267578125">
        <ele>2192.800048828125</ele>
        <time>2026-06-15T10:12:47.000Z</time>
        <extensions>
          <ns3:TrackPointExtension>
            <ns3:atemp>17.0</ns3:atemp>
          </ns3:TrackPointExtension>
        </extensions>
      </trkpt>
      <trkpt lat="42.58139689452946186065673828125" lon="20.0868348218500614166259765625">
        <ele>2193</ele>
        <time>2026-06-15T10:12:48.000Z</time>
        <extensions>
          <ns3:TrackPointExtension>
            <ns3:atemp>17.0</ns3:atemp>
          </ns3:TrackPointExtension>
        </extensions>
      </trkpt>
      <trkpt lat="42.58139505051076412200927734375" lon="20.08684806525707244873046875">
        <ele>2193</ele>
        <time>2026-06-15T10:12:49.000Z</time>
        <extensions>
          <ns3:TrackPointExtension>
            <ns3:atemp>17.0</ns3:atemp>
          </ns3:TrackPointExtension>
        </extensions>
      </trkpt>
      <trkpt lat="42.5813917815685272216796875" lon="20.08685653097927570343017578125">
        <ele>2193</ele>
        <time>2026-06-15T10:12:50.000Z</time>
        <extensions>
          <ns3:TrackPointExtension>
            <ns3:atemp>17.0</ns3:atemp>
          </ns3:TrackPointExtension>
        </extensions>
      </trkpt>
      <trkpt lat="42.58138448931276798248291015625" lon="20.08686742745339870452880859375">
        <ele>2193</ele>
        <time>2026-06-15T10:12:51.000Z</time>
        <extensions>
          <ns3:TrackPointExtension>
            <ns3:atemp>17.0</ns3:atemp>
          </ns3:TrackPointExtension>
        </extensions>
      </trkpt>
      <trkpt lat="42.58138147182762622833251953125" lon="20.08687078021466732025146484375">
        <ele>2193</ele>
        <time>2026-06-15T10:12:52.000Z</time>
        <extensions>
          <ns3:TrackPointExtension>
            <ns3:atemp>17.0</ns3:atemp>
          </ns3:TrackPointExtension>
        </extensions>
      </trkpt>
      <trkpt lat="42.58138147182762622833251953125" lon="20.08687086403369903564453125">
        <ele>2193</ele>
        <time>2026-06-15T10:12:53.000Z</time>
        <extensions>
          <ns3:TrackPointExtension>
            <ns3:atemp>17.0</ns3:atemp>
          </ns3:TrackPointExtension>
        </extensions>
      </trkpt>
      <trkpt lat="42.58138147182762622833251953125" lon="20.08687086403369903564453125">
        <ele>2193.199951171875</ele>
        <time>2026-06-15T10:12:54.000Z</time>
        <extensions>
          <ns3:TrackPointExtension>
            <ns3:atemp>17.0</ns3:atemp>
          </ns3:TrackPointExtension>
        </extensions>
      </trkpt>
      <trkpt lat="42.5813815556466579437255859375" lon="20.08687111549079418182373046875">
        <ele>2193.39990234375</ele>
        <time>2026-06-15T10:12:55.000Z</time>
        <extensions>
          <ns3:TrackPointExtension>
            <ns3:atemp>17.0</ns3:atemp>
          </ns3:TrackPointExtension>
        </extensions>
      </trkpt>
      <trkpt lat="42.581377364695072174072265625" lon="20.08688301779329776763916015625">
        <ele>2193.60009765625</ele>
        <time>2026-06-15T10:12:56.000Z</time>
        <extensions>
          <ns3:TrackPointExtension>
            <ns3:atemp>17.0</ns3:atemp>
          </ns3:TrackPointExtension>
        </extensions>
      </trkpt>
      <trkpt lat="42.58137392811477184295654296875" lon="20.086887292563915252685546875">
        <ele>2193.60009765625</ele>
        <time>2026-06-15T10:12:57.000Z</time>
        <extensions>
          <ns3:TrackPointExtension>
            <ns3:atemp>17.0</ns3:atemp>
          </ns3:TrackPointExtension>
        </extensions>
      </trkpt>
      <trkpt lat="42.58137501776218414306640625" lon="20.08689139969646930694580078125">
        <ele>2193.60009765625</ele>
        <time>2026-06-15T10:12:58.000Z</time>
        <extensions>
          <ns3:TrackPointExtension>
            <ns3:atemp>17.0</ns3:atemp>
          </ns3:TrackPointExtension>
        </extensions>
      </trkpt>
      <trkpt lat="42.58137141354382038116455078125" lon="20.0868929922580718994140625">
        <ele>2193.60009765625</ele>
        <time>2026-06-15T10:12:59.000Z</time>
        <extensions>
          <ns3:TrackPointExtension>
            <ns3:atemp>17.0</ns3:atemp>
          </ns3:TrackPointExtension>
        </extensions>
      </trkpt>
      <trkpt lat="42.58137141354382038116455078125" lon="20.0868929922580718994140625">
        <ele>2193.39990234375</ele>
        <time>2026-06-15T10:13:00.000Z</time>
        <extensions>
          <ns3:TrackPointExtension>
            <ns3:atemp>17.0</ns3:atemp>
          </ns3:TrackPointExtension>
        </extensions>
      </trkpt>
      <trkpt lat="42.58137141354382038116455078125" lon="20.0868929922580718994140625">
        <ele>2193.199951171875</ele>
        <time>2026-06-15T10:13:01.000Z</time>
        <extensions>
          <ns3:TrackPointExtension>
            <ns3:atemp>17.0</ns3:atemp>
          </ns3:TrackPointExtension>
        </extensions>
      </trkpt>
      <trkpt lat="42.58137141354382038116455078125" lon="20.0868929922580718994140625">
        <ele>2193</ele>
        <time>2026-06-15T10:13:02.000Z</time>
        <extensions>
          <ns3:TrackPointExtension>
            <ns3:atemp>17.0</ns3:atemp>
          </ns3:TrackPointExtension>
        </extensions>
      </trkpt>
      <trkpt lat="42.58137141354382038116455078125" lon="20.0868929922580718994140625">
        <ele>2193</ele>
        <time>2026-06-15T10:13:03.000Z</time>
        <extensions>
          <ns3:TrackPointExtension>
            <ns3:atemp>17.0</ns3:atemp>
          </ns3:TrackPointExtension>
        </extensions>
      </trkpt>
      <trkpt lat="42.58137141354382038116455078125" lon="20.0868929922580718994140625">
        <ele>2193</ele>
        <time>2026-06-15T10:13:04.000Z</time>
        <extensions>
          <ns3:TrackPointExtension>
            <ns3:atemp>17.0</ns3:atemp>
          </ns3:TrackPointExtension>
        </extensions>
      </trkpt>
      <trkpt lat="42.58137141354382038116455078125" lon="20.0868929922580718994140625">
        <ele>2193</ele>
        <time>2026-06-15T10:13:05.000Z</time>
        <extensions>
          <ns3:TrackPointExtension>
            <ns3:atemp>17.0</ns3:atemp>
          </ns3:TrackPointExtension>
        </extensions>
      </trkpt>
      <trkpt lat="42.58137141354382038116455078125" lon="20.0868929922580718994140625">
        <ele>2193</ele>
        <time>2026-06-15T10:13:06.000Z</time>
        <extensions>
          <ns3:TrackPointExtension>
            <ns3:atemp>17.0</ns3:atemp>
          </ns3:TrackPointExtension>
        </extensions>
      </trkpt>
      <trkpt lat="42.58137141354382038116455078125" lon="20.0868929922580718994140625">
        <ele>2192.800048828125</ele>
        <time>2026-06-15T10:13:07.000Z</time>
        <extensions>
          <ns3:TrackPointExtension>
            <ns3:atemp>17.0</ns3:atemp>
          </ns3:TrackPointExtension>
        </extensions>
      </trkpt>
      <trkpt lat="42.58137141354382038116455078125" lon="20.0868929922580718994140625">
        <ele>2192.800048828125</ele>
        <time>2026-06-15T10:13:08.000Z</time>
        <extensions>
          <ns3:TrackPointExtension>
            <ns3:atemp>17.0</ns3:atemp>
          </ns3:TrackPointExtension>
        </extensions>
      </trkpt>
      <trkpt lat="42.58137141354382038116455078125" lon="20.0868929922580718994140625">
        <ele>2192.800048828125</ele>
        <time>2026-06-15T10:13:09.000Z</time>
        <extensions>
          <ns3:TrackPointExtension>
            <ns3:atemp>17.0</ns3:atemp>
          </ns3:TrackPointExtension>
        </extensions>
      </trkpt>
      <trkpt lat="42.58137141354382038116455078125" lon="20.0868929922580718994140625">
        <ele>2192.800048828125</ele>
        <time>2026-06-15T10:13:10.000Z</time>
        <extensions>
          <ns3:TrackPointExtension>
            <ns3:atemp>17.0</ns3:atemp>
          </ns3:TrackPointExtension>
        </extensions>
      </trkpt>
      <trkpt lat="42.58137141354382038116455078125" lon="20.0868929922580718994140625">
        <ele>2192.800048828125</ele>
        <time>2026-06-15T10:13:11.000Z</time>
        <extensions>
          <ns3:TrackPointExtension>
            <ns3:atemp>17.0</ns3:atemp>
          </ns3:TrackPointExtension>
        </extensions>
      </trkpt>
      <trkpt lat="42.58137141354382038116455078125" lon="20.0868929922580718994140625">
        <ele>2192.800048828125</ele>
        <time>2026-06-15T10:13:12.000Z</time>
        <extensions>
          <ns3:TrackPointExtension>
            <ns3:atemp>17.0</ns3:atemp>
          </ns3:TrackPointExtension>
        </extensions>
      </trkpt>
      <trkpt lat="42.58137141354382038116455078125" lon="20.0868929922580718994140625">
        <ele>2192.800048828125</ele>
        <time>2026-06-15T10:13:13.000Z</time>
        <extensions>
          <ns3:TrackPointExtension>
            <ns3:atemp>17.0</ns3:atemp>
          </ns3:TrackPointExtension>
        </extensions>
      </trkpt>
      <trkpt lat="42.58137141354382038116455078125" lon="20.0868929922580718994140625">
        <ele>2192.60009765625</ele>
        <time>2026-06-15T10:13:14.000Z</time>
        <extensions>
          <ns3:TrackPointExtension>
            <ns3:atemp>17.0</ns3:atemp>
          </ns3:TrackPointExtension>
        </extensions>
      </trkpt>
      <trkpt lat="42.58137141354382038116455078125" lon="20.0868929922580718994140625">
        <ele>2192.39990234375</ele>
        <time>2026-06-15T10:13:15.000Z</time>
        <extensions>
          <ns3:TrackPointExtension>
            <ns3:atemp>17.0</ns3:atemp>
          </ns3:TrackPointExtension>
        </extensions>
      </trkpt>
      <trkpt lat="42.58137141354382038116455078125" lon="20.0868929922580718994140625">
        <ele>2192.39990234375</ele>
        <time>2026-06-15T10:13:16.000Z</time>
        <extensions>
          <ns3:TrackPointExtension>
            <ns3:atemp>17.0</ns3:atemp>
          </ns3:TrackPointExtension>
        </extensions>
      </trkpt>
      <trkpt lat="42.58137141354382038116455078125" lon="20.0868929922580718994140625">
        <ele>2192.39990234375</ele>
        <time>2026-06-15T10:13:17.000Z</time>
        <extensions>
          <ns3:TrackPointExtension>
            <ns3:atemp>17.0</ns3:atemp>
          </ns3:TrackPointExtension>
        </extensions>
      </trkpt>
      <trkpt lat="42.58137141354382038116455078125" lon="20.0868929922580718994140625">
        <ele>2192.199951171875</ele>
        <time>2026-06-15T10:13:18.000Z</time>
        <extensions>
          <ns3:TrackPointExtension>
            <ns3:atemp>17.0</ns3:atemp>
          </ns3:TrackPointExtension>
        </extensions>
      </trkpt>
      <trkpt lat="42.58137141354382038116455078125" lon="20.0868929922580718994140625">
        <ele>2192.199951171875</ele>
        <time>2026-06-15T10:13:19.000Z</time>
        <extensions>
          <ns3:TrackPointExtension>
            <ns3:atemp>17.0</ns3:atemp>
          </ns3:TrackPointExtension>
        </extensions>
      </trkpt>
      <trkpt lat="42.58137141354382038116455078125" lon="20.0868929922580718994140625">
        <ele>2192.199951171875</ele>
        <time>2026-06-15T10:13:20.000Z</time>
        <extensions>
          <ns3:TrackPointExtension>
            <ns3:atemp>17.0</ns3:atemp>
          </ns3:TrackPointExtension>
        </extensions>
      </trkpt>
      <trkpt lat="42.58137141354382038116455078125" lon="20.0868929922580718994140625">
        <ele>2192.199951171875</ele>
        <time>2026-06-15T10:13:21.000Z</time>
        <extensions>
          <ns3:TrackPointExtension>
            <ns3:atemp>17.0</ns3:atemp>
          </ns3:TrackPointExtension>
        </extensions>
      </trkpt>
      <trkpt lat="42.58137141354382038116455078125" lon="20.0868929922580718994140625">
        <ele>2192.199951171875</ele>
        <time>2026-06-15T10:13:22.000Z</time>
        <extensions>
          <ns3:TrackPointExtension>
            <ns3:atemp>17.0</ns3:atemp>
          </ns3:TrackPointExtension>
        </extensions>
      </trkpt>
      <trkpt lat="42.58137141354382038116455078125" lon="20.0868929922580718994140625">
        <ele>2192</ele>
        <time>2026-06-15T10:13:23.000Z</time>
        <extensions>
          <ns3:TrackPointExtension>
            <ns3:atemp>17.0</ns3:atemp>
          </ns3:TrackPointExtension>
        </extensions>
      </trkpt>
      <trkpt lat="42.58137141354382038116455078125" lon="20.0868929922580718994140625">
        <ele>2192</ele>
        <time>2026-06-15T10:13:24.000Z</time>
        <extensions>
          <ns3:TrackPointExtension>
            <ns3:atemp>17.0</ns3:atemp>
          </ns3:TrackPointExtension>
        </extensions>
      </trkpt>
      <trkpt lat="42.58137141354382038116455078125" lon="20.0868929922580718994140625">
        <ele>2191.800048828125</ele>
        <time>2026-06-15T10:13:25.000Z</time>
        <extensions>
          <ns3:TrackPointExtension>
            <ns3:atemp>17.0</ns3:atemp>
          </ns3:TrackPointExtension>
        </extensions>
      </trkpt>
      <trkpt lat="42.58137141354382038116455078125" lon="20.0868929922580718994140625">
        <ele>2191.800048828125</ele>
        <time>2026-06-15T10:13:26.000Z</time>
        <extensions>
          <ns3:TrackPointExtension>
            <ns3:atemp>17.0</ns3:atemp>
          </ns3:TrackPointExtension>
        </extensions>
      </trkpt>
      <trkpt lat="42.58137141354382038116455078125" lon="20.0868929922580718994140625">
        <ele>2191.800048828125</ele>
        <time>2026-06-15T10:13:27.000Z</time>
        <extensions>
          <ns3:TrackPointExtension>
            <ns3:atemp>17.0</ns3:atemp>
          </ns3:TrackPointExtension>
        </extensions>
      </trkpt>
      <trkpt lat="42.58137141354382038116455078125" lon="20.0868929922580718994140625">
        <ele>2191.800048828125</ele>
        <time>2026-06-15T10:13:28.000Z</time>
        <extensions>
          <ns3:TrackPointExtension>
            <ns3:atemp>17.0</ns3:atemp>
          </ns3:TrackPointExtension>
        </extensions>
      </trkpt>
      <trkpt lat="42.58137141354382038116455078125" lon="20.0868929922580718994140625">
        <ele>2191.60009765625</ele>
        <time>2026-06-15T10:13:29.000Z</time>
        <extensions>
          <ns3:TrackPointExtension>
            <ns3:atemp>17.0</ns3:atemp>
          </ns3:TrackPointExtension>
        </extensions>
      </trkpt>
      <trkpt lat="42.58137141354382038116455078125" lon="20.0868929922580718994140625">
        <ele>2191.60009765625</ele>
        <time>2026-06-15T10:13:30.000Z</time>
        <extensions>
          <ns3:TrackPointExtension>
            <ns3:atemp>17.0</ns3:atemp>
          </ns3:TrackPointExtension>
        </extensions>
      </trkpt>
      <trkpt lat="42.58137141354382038116455078125" lon="20.0868929922580718994140625">
        <ele>2191.60009765625</ele>
        <time>2026-06-15T10:13:31.000Z</time>
        <extensions>
          <ns3:TrackPointExtension>
            <ns3:atemp>17.0</ns3:atemp>
          </ns3:TrackPointExtension>
        </extensions>
      </trkpt>
      <trkpt lat="42.58137141354382038116455078125" lon="20.0868929922580718994140625">
        <ele>2191.60009765625</ele>
        <time>2026-06-15T10:13:32.000Z</time>
        <extensions>
          <ns3:TrackPointExtension>
            <ns3:atemp>17.0</ns3:atemp>
          </ns3:TrackPointExtension>
        </extensions>
      </trkpt>
      <trkpt lat="42.58137141354382038116455078125" lon="20.0868929922580718994140625">
        <ele>2191.60009765625</ele>
        <time>2026-06-15T10:13:33.000Z</time>
        <extensions>
          <ns3:TrackPointExtension>
            <ns3:atemp>17.0</ns3:atemp>
          </ns3:TrackPointExtension>
        </extensions>
      </trkpt>
      <trkpt lat="42.58137141354382038116455078125" lon="20.0868929922580718994140625">
        <ele>2191.60009765625</ele>
        <time>2026-06-15T10:13:34.000Z</time>
        <extensions>
          <ns3:TrackPointExtension>
            <ns3:atemp>17.0</ns3:atemp>
          </ns3:TrackPointExtension>
        </extensions>
      </trkpt>
      <trkpt lat="42.58137141354382038116455078125" lon="20.0868929922580718994140625">
        <ele>2191.60009765625</ele>
        <time>2026-06-15T10:13:35.000Z</time>
        <extensions>
          <ns3:TrackPointExtension>
            <ns3:atemp>17.0</ns3:atemp>
          </ns3:TrackPointExtension>
        </extensions>
      </trkpt>
      <trkpt lat="42.58137141354382038116455078125" lon="20.0868929922580718994140625">
        <ele>2191.60009765625</ele>
        <time>2026-06-15T10:13:36.000Z</time>
        <extensions>
          <ns3:TrackPointExtension>
            <ns3:atemp>17.0</ns3:atemp>
          </ns3:TrackPointExtension>
        </extensions>
      </trkpt>
      <trkpt lat="42.58137141354382038116455078125" lon="20.0868929922580718994140625">
        <ele>2191.39990234375</ele>
        <time>2026-06-15T10:13:37.000Z</time>
        <extensions>
          <ns3:TrackPointExtension>
            <ns3:atemp>17.0</ns3:atemp>
          </ns3:TrackPointExtension>
        </extensions>
      </trkpt>
      <trkpt lat="42.58137141354382038116455078125" lon="20.0868929922580718994140625">
        <ele>2191.39990234375</ele>
        <time>2026-06-15T10:13:38.000Z</time>
        <extensions>
          <ns3:TrackPointExtension>
            <ns3:atemp>17.0</ns3:atemp>
          </ns3:TrackPointExtension>
        </extensions>
      </trkpt>
      <trkpt lat="42.58137141354382038116455078125" lon="20.0868929922580718994140625">
        <ele>2191.39990234375</ele>
        <time>2026-06-15T10:13:39.000Z</time>
        <extensions>
          <ns3:TrackPointExtension>
            <ns3:atemp>17.0</ns3:atemp>
          </ns3:TrackPointExtension>
        </extensions>
      </trkpt>
      <trkpt lat="42.58137141354382038116455078125" lon="20.0868929922580718994140625">
        <ele>2191.39990234375</ele>
        <time>2026-06-15T10:13:40.000Z</time>
        <extensions>
          <ns3:TrackPointExtension>
            <ns3:atemp>17.0</ns3:atemp>
          </ns3:TrackPointExtension>
        </extensions>
      </trkpt>
      <trkpt lat="42.58137141354382038116455078125" lon="20.0868929922580718994140625">
        <ele>2191.39990234375</ele>
        <time>2026-06-15T10:13:41.000Z</time>
        <extensions>
          <ns3:TrackPointExtension>
            <ns3:atemp>17.0</ns3:atemp>
          </ns3:TrackPointExtension>
        </extensions>
      </trkpt>
      <trkpt lat="42.58137141354382038116455078125" lon="20.0868929922580718994140625">
        <ele>2191.39990234375</ele>
        <time>2026-06-15T10:13:42.000Z</time>
        <extensions>
          <ns3:TrackPointExtension>
            <ns3:atemp>17.0</ns3:atemp>
          </ns3:TrackPointExtension>
        </extensions>
      </trkpt>
      <trkpt lat="42.58137141354382038116455078125" lon="20.0868929922580718994140625">
        <ele>2191.39990234375</ele>
        <time>2026-06-15T10:13:43.000Z</time>
        <extensions>
          <ns3:TrackPointExtension>
            <ns3:atemp>17.0</ns3:atemp>
          </ns3:TrackPointExtension>
        </extensions>
      </trkpt>
      <trkpt lat="42.58137141354382038116455078125" lon="20.0868929922580718994140625">
        <ele>2191.39990234375</ele>
        <time>2026-06-15T10:13:44.000Z</time>
        <extensions>
          <ns3:TrackPointExtension>
            <ns3:atemp>17.0</ns3:atemp>
          </ns3:TrackPointExtension>
        </extensions>
      </trkpt>
      <trkpt lat="42.58137141354382038116455078125" lon="20.0868929922580718994140625">
        <ele>2191.39990234375</ele>
        <time>2026-06-15T10:13:45.000Z</time>
        <extensions>
          <ns3:TrackPointExtension>
            <ns3:atemp>17.0</ns3:atemp>
          </ns3:TrackPointExtension>
        </extensions>
      </trkpt>
      <trkpt lat="42.58137141354382038116455078125" lon="20.0868929922580718994140625">
        <ele>2191.39990234375</ele>
        <time>2026-06-15T10:13:46.000Z</time>
        <extensions>
          <ns3:TrackPointExtension>
            <ns3:atemp>17.0</ns3:atemp>
          </ns3:TrackPointExtension>
        </extensions>
      </trkpt>
      <trkpt lat="42.58137141354382038116455078125" lon="20.0868929922580718994140625">
        <ele>2191.39990234375</ele>
        <time>2026-06-15T10:13:47.000Z</time>
        <extensions>
          <ns3:TrackPointExtension>
            <ns3:atemp>17.0</ns3:atemp>
          </ns3:TrackPointExtension>
        </extensions>
      </trkpt>
      <trkpt lat="42.58137141354382038116455078125" lon="20.0868929922580718994140625">
        <ele>2191.39990234375</ele>
        <time>2026-06-15T10:13:48.000Z</time>
        <extensions>
          <ns3:TrackPointExtension>
            <ns3:atemp>17.0</ns3:atemp>
          </ns3:TrackPointExtension>
        </extensions>
      </trkpt>
      <trkpt lat="42.58137141354382038116455078125" lon="20.0868929922580718994140625">
        <ele>2191.39990234375</ele>
        <time>2026-06-15T10:13:49.000Z</time>
        <extensions>
          <ns3:TrackPointExtension>
            <ns3:atemp>17.0</ns3:atemp>
          </ns3:TrackPointExtension>
        </extensions>
      </trkpt>
      <trkpt lat="42.58137141354382038116455078125" lon="20.0868929922580718994140625">
        <ele>2191.39990234375</ele>
        <time>2026-06-15T10:13:50.000Z</time>
        <extensions>
          <ns3:TrackPointExtension>
            <ns3:atemp>17.0</ns3:atemp>
          </ns3:TrackPointExtension>
        </extensions>
      </trkpt>
      <trkpt lat="42.58137141354382038116455078125" lon="20.0868929922580718994140625">
        <ele>2191.39990234375</ele>
        <time>2026-06-15T10:13:51.000Z</time>
        <extensions>
          <ns3:TrackPointExtension>
            <ns3:atemp>17.0</ns3:atemp>
          </ns3:TrackPointExtension>
        </extensions>
      </trkpt>
      <trkpt lat="42.58137141354382038116455078125" lon="20.0868929922580718994140625">
        <ele>2191.39990234375</ele>
        <time>2026-06-15T10:13:52.000Z</time>
        <extensions>
          <ns3:TrackPointExtension>
            <ns3:atemp>17.0</ns3:atemp>
          </ns3:TrackPointExtension>
        </extensions>
      </trkpt>
      <trkpt lat="42.58137141354382038116455078125" lon="20.0868929922580718994140625">
        <ele>2191.39990234375</ele>
        <time>2026-06-15T10:13:53.000Z</time>
        <extensions>
          <ns3:TrackPointExtension>
            <ns3:atemp>17.0</ns3:atemp>
          </ns3:TrackPointExtension>
        </extensions>
      </trkpt>
      <trkpt lat="42.58137141354382038116455078125" lon="20.0868929922580718994140625">
        <ele>2191.39990234375</ele>
        <time>2026-06-15T10:13:54.000Z</time>
        <extensions>
          <ns3:TrackPointExtension>
            <ns3:atemp>17.0</ns3:atemp>
          </ns3:TrackPointExtension>
        </extensions>
      </trkpt>
      <trkpt lat="42.58137141354382038116455078125" lon="20.0868929922580718994140625">
        <ele>2191.39990234375</ele>
        <time>2026-06-15T10:13:55.000Z</time>
        <extensions>
          <ns3:TrackPointExtension>
            <ns3:atemp>16.0</ns3:atemp>
          </ns3:TrackPointExtension>
        </extensions>
      </trkpt>
      <trkpt lat="42.58137141354382038116455078125" lon="20.0868929922580718994140625">
        <ele>2191.39990234375</ele>
        <time>2026-06-15T10:13:56.000Z</time>
        <extensions>
          <ns3:TrackPointExtension>
            <ns3:atemp>16.0</ns3:atemp>
          </ns3:TrackPointExtension>
        </extensions>
      </trkpt>
      <trkpt lat="42.58137141354382038116455078125" lon="20.0868929922580718994140625">
        <ele>2191.39990234375</ele>
        <time>2026-06-15T10:13:57.000Z</time>
        <extensions>
          <ns3:TrackPointExtension>
            <ns3:atemp>17.0</ns3:atemp>
          </ns3:TrackPointExtension>
        </extensions>
      </trkpt>
      <trkpt lat="42.58137141354382038116455078125" lon="20.0868929922580718994140625">
        <ele>2191.39990234375</ele>
        <time>2026-06-15T10:13:58.000Z</time>
        <extensions>
          <ns3:TrackPointExtension>
            <ns3:atemp>16.0</ns3:atemp>
          </ns3:TrackPointExtension>
        </extensions>
      </trkpt>
      <trkpt lat="42.58137141354382038116455078125" lon="20.0868929922580718994140625">
        <ele>2191.39990234375</ele>
        <time>2026-06-15T10:13:59.000Z</time>
        <extensions>
          <ns3:TrackPointExtension>
            <ns3:atemp>16.0</ns3:atemp>
          </ns3:TrackPointExtension>
        </extensions>
      </trkpt>
      <trkpt lat="42.58137141354382038116455078125" lon="20.0868929922580718994140625">
        <ele>2191.199951171875</ele>
        <time>2026-06-15T10:14:00.000Z</time>
        <extensions>
          <ns3:TrackPointExtension>
            <ns3:atemp>16.0</ns3:atemp>
          </ns3:TrackPointExtension>
        </extensions>
      </trkpt>
      <trkpt lat="42.58137141354382038116455078125" lon="20.0868929922580718994140625">
        <ele>2191.199951171875</ele>
        <time>2026-06-15T10:14:01.000Z</time>
        <extensions>
          <ns3:TrackPointExtension>
            <ns3:atemp>16.0</ns3:atemp>
          </ns3:TrackPointExtension>
        </extensions>
      </trkpt>
      <trkpt lat="42.58137141354382038116455078125" lon="20.0868929922580718994140625">
        <ele>2191.199951171875</ele>
        <time>2026-06-15T10:14:02.000Z</time>
        <extensions>
          <ns3:TrackPointExtension>
            <ns3:atemp>16.0</ns3:atemp>
          </ns3:TrackPointExtension>
        </extensions>
      </trkpt>
      <trkpt lat="42.58137141354382038116455078125" lon="20.0868929922580718994140625">
        <ele>2191.199951171875</ele>
        <time>2026-06-15T10:14:03.000Z</time>
        <extensions>
          <ns3:TrackPointExtension>
            <ns3:atemp>16.0</ns3:atemp>
          </ns3:TrackPointExtension>
        </extensions>
      </trkpt>
      <trkpt lat="42.58137141354382038116455078125" lon="20.0868929922580718994140625">
        <ele>2191.199951171875</ele>
        <time>2026-06-15T10:14:04.000Z</time>
        <extensions>
          <ns3:TrackPointExtension>
            <ns3:atemp>16.0</ns3:atemp>
          </ns3:TrackPointExtension>
        </extensions>
      </trkpt>
      <trkpt lat="42.58137141354382038116455078125" lon="20.0868929922580718994140625">
        <ele>2191.199951171875</ele>
        <time>2026-06-15T10:14:05.000Z</time>
        <extensions>
          <ns3:TrackPointExtension>
            <ns3:atemp>16.0</ns3:atemp>
          </ns3:TrackPointExtension>
        </extensions>
      </trkpt>
      <trkpt lat="42.58137141354382038116455078125" lon="20.0868929922580718994140625">
        <ele>2191.199951171875</ele>
        <time>2026-06-15T10:14:06.000Z</time>
        <extensions>
          <ns3:TrackPointExtension>
            <ns3:atemp>16.0</ns3:atemp>
          </ns3:TrackPointExtension>
        </extensions>
      </trkpt>
      <trkpt lat="42.58137141354382038116455078125" lon="20.0868929922580718994140625">
        <ele>2191.199951171875</ele>
        <time>2026-06-15T10:14:07.000Z</time>
        <extensions>
          <ns3:TrackPointExtension>
            <ns3:atemp>16.0</ns3:atemp>
          </ns3:TrackPointExtension>
        </extensions>
      </trkpt>
      <trkpt lat="42.58137141354382038116455078125" lon="20.0868929922580718994140625">
        <ele>2191.199951171875</ele>
        <time>2026-06-15T10:14:08.000Z</time>
        <extensions>
          <ns3:TrackPointExtension>
            <ns3:atemp>16.0</ns3:atemp>
          </ns3:TrackPointExtension>
        </extensions>
      </trkpt>
      <trkpt lat="42.58137141354382038116455078125" lon="20.0868929922580718994140625">
        <ele>2191.199951171875</ele>
        <time>2026-06-15T10:14:09.000Z</time>
        <extensions>
          <ns3:TrackPointExtension>
            <ns3:atemp>16.0</ns3:atemp>
          </ns3:TrackPointExtension>
        </extensions>
      </trkpt>
      <trkpt lat="42.58137141354382038116455078125" lon="20.0868929922580718994140625">
        <ele>2191.199951171875</ele>
        <time>2026-06-15T10:14:10.000Z</time>
        <extensions>
          <ns3:TrackPointExtension>
            <ns3:atemp>16.0</ns3:atemp>
          </ns3:TrackPointExtension>
        </extensions>
      </trkpt>
      <trkpt lat="42.58137141354382038116455078125" lon="20.0868929922580718994140625">
        <ele>2191.199951171875</ele>
        <time>2026-06-15T10:14:11.000Z</time>
        <extensions>
          <ns3:TrackPointExtension>
            <ns3:atemp>16.0</ns3:atemp>
          </ns3:TrackPointExtension>
        </extensions>
      </trkpt>
      <trkpt lat="42.58137141354382038116455078125" lon="20.0868929922580718994140625">
        <ele>2191.199951171875</ele>
        <time>2026-06-15T10:14:12.000Z</time>
        <extensions>
          <ns3:TrackPointExtension>
            <ns3:atemp>16.0</ns3:atemp>
          </ns3:TrackPointExtension>
        </extensions>
      </trkpt>
      <trkpt lat="42.58137141354382038116455078125" lon="20.0868929922580718994140625">
        <ele>2191.199951171875</ele>
        <time>2026-06-15T10:14:13.000Z</time>
        <extensions>
          <ns3:TrackPointExtension>
            <ns3:atemp>16.0</ns3:atemp>
          </ns3:TrackPointExtension>
        </extensions>
      </trkpt>
      <trkpt lat="42.58137141354382038116455078125" lon="20.0868929922580718994140625">
        <ele>2191.199951171875</ele>
        <time>2026-06-15T10:14:14.000Z</time>
        <extensions>
          <ns3:TrackPointExtension>
            <ns3:atemp>16.0</ns3:atemp>
          </ns3:TrackPointExtension>
        </extensions>
      </trkpt>
      <trkpt lat="42.58137141354382038116455078125" lon="20.0868929922580718994140625">
        <ele>2191.199951171875</ele>
        <time>2026-06-15T10:14:15.000Z</time>
        <extensions>
          <ns3:TrackPointExtension>
            <ns3:atemp>16.0</ns3:atemp>
          </ns3:TrackPointExtension>
        </extensions>
      </trkpt>
      <trkpt lat="42.58137141354382038116455078125" lon="20.0868929922580718994140625">
        <ele>2191.199951171875</ele>
        <time>2026-06-15T10:14:16.000Z</time>
        <extensions>
          <ns3:TrackPointExtension>
            <ns3:atemp>16.0</ns3:atemp>
          </ns3:TrackPointExtension>
        </extensions>
      </trkpt>
      <trkpt lat="42.58137141354382038116455078125" lon="20.0868929922580718994140625">
        <ele>2191.199951171875</ele>
        <time>2026-06-15T10:14:17.000Z</time>
        <extensions>
          <ns3:TrackPointExtension>
            <ns3:atemp>16.0</ns3:atemp>
          </ns3:TrackPointExtension>
        </extensions>
      </trkpt>
      <trkpt lat="42.58137141354382038116455078125" lon="20.0868929922580718994140625">
        <ele>2191.199951171875</ele>
        <time>2026-06-15T10:14:18.000Z</time>
        <extensions>
          <ns3:TrackPointExtension>
            <ns3:atemp>16.0</ns3:atemp>
          </ns3:TrackPointExtension>
        </extensions>
      </trkpt>
      <trkpt lat="42.58137141354382038116455078125" lon="20.0868929922580718994140625">
        <ele>2191.199951171875</ele>
        <time>2026-06-15T10:14:19.000Z</time>
        <extensions>
          <ns3:TrackPointExtension>
            <ns3:atemp>16.0</ns3:atemp>
          </ns3:TrackPointExtension>
        </extensions>
      </trkpt>
      <trkpt lat="42.58137141354382038116455078125" lon="20.0868929922580718994140625">
        <ele>2191.199951171875</ele>
        <time>2026-06-15T10:14:20.000Z</time>
        <extensions>
          <ns3:TrackPointExtension>
            <ns3:atemp>16.0</ns3:atemp>
          </ns3:TrackPointExtension>
        </extensions>
      </trkpt>
      <trkpt lat="42.58137141354382038116455078125" lon="20.0868929922580718994140625">
        <ele>2191.199951171875</ele>
        <time>2026-06-15T10:14:21.000Z</time>
        <extensions>
          <ns3:TrackPointExtension>
            <ns3:atemp>16.0</ns3:atemp>
          </ns3:TrackPointExtension>
        </extensions>
      </trkpt>
      <trkpt lat="42.58137141354382038116455078125" lon="20.0868929922580718994140625">
        <ele>2191.39990234375</ele>
        <time>2026-06-15T10:14:22.000Z</time>
        <extensions>
          <ns3:TrackPointExtension>
            <ns3:atemp>16.0</ns3:atemp>
          </ns3:TrackPointExtension>
        </extensions>
      </trkpt>
      <trkpt lat="42.58137141354382038116455078125" lon="20.0868929922580718994140625">
        <ele>2191.39990234375</ele>
        <time>2026-06-15T10:14:23.000Z</time>
        <extensions>
          <ns3:TrackPointExtension>
            <ns3:atemp>16.0</ns3:atemp>
          </ns3:TrackPointExtension>
        </extensions>
      </trkpt>
      <trkpt lat="42.58137141354382038116455078125" lon="20.0868929922580718994140625">
        <ele>2191.39990234375</ele>
        <time>2026-06-15T10:14:24.000Z</time>
        <extensions>
          <ns3:TrackPointExtension>
            <ns3:atemp>16.0</ns3:atemp>
          </ns3:TrackPointExtension>
        </extensions>
      </trkpt>
      <trkpt lat="42.58137141354382038116455078125" lon="20.0868929922580718994140625">
        <ele>2191.39990234375</ele>
        <time>2026-06-15T10:14:25.000Z</time>
        <extensions>
          <ns3:TrackPointExtension>
            <ns3:atemp>16.0</ns3:atemp>
          </ns3:TrackPointExtension>
        </extensions>
      </trkpt>
      <trkpt lat="42.58137141354382038116455078125" lon="20.0868929922580718994140625">
        <ele>2191.39990234375</ele>
        <time>2026-06-15T10:14:26.000Z</time>
        <extensions>
          <ns3:TrackPointExtension>
            <ns3:atemp>16.0</ns3:atemp>
          </ns3:TrackPointExtension>
        </extensions>
      </trkpt>
      <trkpt lat="42.58137141354382038116455078125" lon="20.0868929922580718994140625">
        <ele>2191.39990234375</ele>
        <time>2026-06-15T10:14:27.000Z</time>
        <extensions>
          <ns3:TrackPointExtension>
            <ns3:atemp>16.0</ns3:atemp>
          </ns3:TrackPointExtension>
        </extensions>
      </trkpt>
      <trkpt lat="42.58137141354382038116455078125" lon="20.0868929922580718994140625">
        <ele>2191.39990234375</ele>
        <time>2026-06-15T10:14:28.000Z</time>
        <extensions>
          <ns3:TrackPointExtension>
            <ns3:atemp>16.0</ns3:atemp>
          </ns3:TrackPointExtension>
        </extensions>
      </trkpt>
      <trkpt lat="42.58137141354382038116455078125" lon="20.0868929922580718994140625">
        <ele>2191.39990234375</ele>
        <time>2026-06-15T10:14:29.000Z</time>
        <extensions>
          <ns3:TrackPointExtension>
            <ns3:atemp>16.0</ns3:atemp>
          </ns3:TrackPointExtension>
        </extensions>
      </trkpt>
      <trkpt lat="42.58137141354382038116455078125" lon="20.0868929922580718994140625">
        <ele>2191.39990234375</ele>
        <time>2026-06-15T10:14:30.000Z</time>
        <extensions>
          <ns3:TrackPointExtension>
            <ns3:atemp>16.0</ns3:atemp>
          </ns3:TrackPointExtension>
        </extensions>
      </trkpt>
      <trkpt lat="42.58137141354382038116455078125" lon="20.0868929922580718994140625">
        <ele>2191.39990234375</ele>
        <time>2026-06-15T10:14:31.000Z</time>
        <extensions>
          <ns3:TrackPointExtension>
            <ns3:atemp>16.0</ns3:atemp>
          </ns3:TrackPointExtension>
        </extensions>
      </trkpt>
      <trkpt lat="42.58137141354382038116455078125" lon="20.0868929922580718994140625">
        <ele>2191.39990234375</ele>
        <time>2026-06-15T10:14:32.000Z</time>
        <extensions>
          <ns3:TrackPointExtension>
            <ns3:atemp>16.0</ns3:atemp>
          </ns3:TrackPointExtension>
        </extensions>
      </trkpt>
      <trkpt lat="42.58137141354382038116455078125" lon="20.0868929922580718994140625">
        <ele>2191.39990234375</ele>
        <time>2026-06-15T10:14:33.000Z</time>
        <extensions>
          <ns3:TrackPointExtension>
            <ns3:atemp>16.0</ns3:atemp>
          </ns3:TrackPointExtension>
        </extensions>
      </trkpt>
      <trkpt lat="42.58137141354382038116455078125" lon="20.0868929922580718994140625">
        <ele>2191.39990234375</ele>
        <time>2026-06-15T10:14:34.000Z</time>
        <extensions>
          <ns3:TrackPointExtension>
            <ns3:atemp>16.0</ns3:atemp>
          </ns3:TrackPointExtension>
        </extensions>
      </trkpt>
      <trkpt lat="42.58137141354382038116455078125" lon="20.0868929922580718994140625">
        <ele>2191.39990234375</ele>
        <time>2026-06-15T10:14:35.000Z</time>
        <extensions>
          <ns3:TrackPointExtension>
            <ns3:atemp>16.0</ns3:atemp>
          </ns3:TrackPointExtension>
        </extensions>
      </trkpt>
      <trkpt lat="42.58137141354382038116455078125" lon="20.0868929922580718994140625">
        <ele>2191.39990234375</ele>
        <time>2026-06-15T10:14:36.000Z</time>
        <extensions>
          <ns3:TrackPointExtension>
            <ns3:atemp>16.0</ns3:atemp>
          </ns3:TrackPointExtension>
        </extensions>
      </trkpt>
      <trkpt lat="42.58137141354382038116455078125" lon="20.0868929922580718994140625">
        <ele>2191.39990234375</ele>
        <time>2026-06-15T10:14:37.000Z</time>
        <extensions>
          <ns3:TrackPointExtension>
            <ns3:atemp>16.0</ns3:atemp>
          </ns3:TrackPointExtension>
        </extensions>
      </trkpt>
      <trkpt lat="42.58137141354382038116455078125" lon="20.0868929922580718994140625">
        <ele>2191.39990234375</ele>
        <time>2026-06-15T10:14:38.000Z</time>
        <extensions>
          <ns3:TrackPointExtension>
            <ns3:atemp>16.0</ns3:atemp>
          </ns3:TrackPointExtension>
        </extensions>
      </trkpt>
      <trkpt lat="42.58137141354382038116455078125" lon="20.0868929922580718994140625">
        <ele>2191.39990234375</ele>
        <time>2026-06-15T10:14:39.000Z</time>
        <extensions>
          <ns3:TrackPointExtension>
            <ns3:atemp>16.0</ns3:atemp>
          </ns3:TrackPointExtension>
        </extensions>
      </trkpt>
      <trkpt lat="42.58137141354382038116455078125" lon="20.0868929922580718994140625">
        <ele>2191.39990234375</ele>
        <time>2026-06-15T10:14:40.000Z</time>
        <extensions>
          <ns3:TrackPointExtension>
            <ns3:atemp>16.0</ns3:atemp>
          </ns3:TrackPointExtension>
        </extensions>
      </trkpt>
      <trkpt lat="42.58137141354382038116455078125" lon="20.0868929922580718994140625">
        <ele>2191.39990234375</ele>
        <time>2026-06-15T10:14:41.000Z</time>
        <extensions>
          <ns3:TrackPointExtension>
            <ns3:atemp>16.0</ns3:atemp>
          </ns3:TrackPointExtension>
        </extensions>
      </trkpt>
      <trkpt lat="42.58137141354382038116455078125" lon="20.0868929922580718994140625">
        <ele>2191.39990234375</ele>
        <time>2026-06-15T10:14:42.000Z</time>
        <extensions>
          <ns3:TrackPointExtension>
            <ns3:atemp>16.0</ns3:atemp>
          </ns3:TrackPointExtension>
        </extensions>
      </trkpt>
      <trkpt lat="42.58137141354382038116455078125" lon="20.0868929922580718994140625">
        <ele>2191.39990234375</ele>
        <time>2026-06-15T10:14:43.000Z</time>
        <extensions>
          <ns3:TrackPointExtension>
            <ns3:atemp>16.0</ns3:atemp>
          </ns3:TrackPointExtension>
        </extensions>
      </trkpt>
      <trkpt lat="42.58137141354382038116455078125" lon="20.0868929922580718994140625">
        <ele>2191.39990234375</ele>
        <time>2026-06-15T10:14:44.000Z</time>
        <extensions>
          <ns3:TrackPointExtension>
            <ns3:atemp>16.0</ns3:atemp>
          </ns3:TrackPointExtension>
        </extensions>
      </trkpt>
      <trkpt lat="42.58137141354382038116455078125" lon="20.0868929922580718994140625">
        <ele>2191.39990234375</ele>
        <time>2026-06-15T10:14:45.000Z</time>
        <extensions>
          <ns3:TrackPointExtension>
            <ns3:atemp>16.0</ns3:atemp>
          </ns3:TrackPointExtension>
        </extensions>
      </trkpt>
      <trkpt lat="42.58137141354382038116455078125" lon="20.0868929922580718994140625">
        <ele>2191.39990234375</ele>
        <time>2026-06-15T10:14:46.000Z</time>
        <extensions>
          <ns3:TrackPointExtension>
            <ns3:atemp>16.0</ns3:atemp>
          </ns3:TrackPointExtension>
        </extensions>
      </trkpt>
      <trkpt lat="42.58137141354382038116455078125" lon="20.0868929922580718994140625">
        <ele>2191.39990234375</ele>
        <time>2026-06-15T10:14:47.000Z</time>
        <extensions>
          <ns3:TrackPointExtension>
            <ns3:atemp>16.0</ns3:atemp>
          </ns3:TrackPointExtension>
        </extensions>
      </trkpt>
      <trkpt lat="42.58137141354382038116455078125" lon="20.0868929922580718994140625">
        <ele>2191.39990234375</ele>
        <time>2026-06-15T10:14:48.000Z</time>
        <extensions>
          <ns3:TrackPointExtension>
            <ns3:atemp>16.0</ns3:atemp>
          </ns3:TrackPointExtension>
        </extensions>
      </trkpt>
      <trkpt lat="42.58137141354382038116455078125" lon="20.0868929922580718994140625">
        <ele>2191.39990234375</ele>
        <time>2026-06-15T10:14:49.000Z</time>
        <extensions>
          <ns3:TrackPointExtension>
            <ns3:atemp>16.0</ns3:atemp>
          </ns3:TrackPointExtension>
        </extensions>
      </trkpt>
      <trkpt lat="42.58137141354382038116455078125" lon="20.0868929922580718994140625">
        <ele>2191.39990234375</ele>
        <time>2026-06-15T10:14:50.000Z</time>
        <extensions>
          <ns3:TrackPointExtension>
            <ns3:atemp>16.0</ns3:atemp>
          </ns3:TrackPointExtension>
        </extensions>
      </trkpt>
      <trkpt lat="42.58137141354382038116455078125" lon="20.0868929922580718994140625">
        <ele>2191.39990234375</ele>
        <time>2026-06-15T10:14:51.000Z</time>
        <extensions>
          <ns3:TrackPointExtension>
            <ns3:atemp>16.0</ns3:atemp>
          </ns3:TrackPointExtension>
        </extensions>
      </trkpt>
      <trkpt lat="42.58137141354382038116455078125" lon="20.0868929922580718994140625">
        <ele>2191.39990234375</ele>
        <time>2026-06-15T10:14:52.000Z</time>
        <extensions>
          <ns3:TrackPointExtension>
            <ns3:atemp>16.0</ns3:atemp>
          </ns3:TrackPointExtension>
        </extensions>
      </trkpt>
      <trkpt lat="42.58137141354382038116455078125" lon="20.0868929922580718994140625">
        <ele>2191.39990234375</ele>
        <time>2026-06-15T10:14:53.000Z</time>
        <extensions>
          <ns3:TrackPointExtension>
            <ns3:atemp>16.0</ns3:atemp>
          </ns3:TrackPointExtension>
        </extensions>
      </trkpt>
      <trkpt lat="42.58137141354382038116455078125" lon="20.0868929922580718994140625">
        <ele>2191.39990234375</ele>
        <time>2026-06-15T10:14:54.000Z</time>
        <extensions>
          <ns3:TrackPointExtension>
            <ns3:atemp>16.0</ns3:atemp>
          </ns3:TrackPointExtension>
        </extensions>
      </trkpt>
      <trkpt lat="42.58137141354382038116455078125" lon="20.0868929922580718994140625">
        <ele>2191.39990234375</ele>
        <time>2026-06-15T10:14:55.000Z</time>
        <extensions>
          <ns3:TrackPointExtension>
            <ns3:atemp>16.0</ns3:atemp>
          </ns3:TrackPointExtension>
        </extensions>
      </trkpt>
      <trkpt lat="42.581372670829296112060546875" lon="20.0868924893438816070556640625">
        <ele>2191.39990234375</ele>
        <time>2026-06-15T10:14:56.000Z</time>
        <extensions>
          <ns3:TrackPointExtension>
            <ns3:atemp>16.0</ns3:atemp>
          </ns3:TrackPointExtension>
        </extensions>
      </trkpt>
      <trkpt lat="42.58136873133480548858642578125" lon="20.08689072914421558380126953125">
        <ele>2191.39990234375</ele>
        <time>2026-06-15T10:14:57.000Z</time>
        <extensions>
          <ns3:TrackPointExtension>
            <ns3:atemp>16.0</ns3:atemp>
          </ns3:TrackPointExtension>
        </extensions>
      </trkpt>
      <trkpt lat="42.58136269636452198028564453125" lon="20.08689106442034244537353515625">
        <ele>2191.39990234375</ele>
        <time>2026-06-15T10:14:58.000Z</time>
        <extensions>
          <ns3:TrackPointExtension>
            <ns3:atemp>16.0</ns3:atemp>
          </ns3:TrackPointExtension>
        </extensions>
      </trkpt>
      <trkpt lat="42.58135431446135044097900390625" lon="20.0868945010006427764892578125">
        <ele>2191.39990234375</ele>
        <time>2026-06-15T10:14:59.000Z</time>
        <extensions>
          <ns3:TrackPointExtension>
            <ns3:atemp>16.0</ns3:atemp>
          </ns3:TrackPointExtension>
        </extensions>
      </trkpt>
      <trkpt lat="42.581351213157176971435546875" lon="20.086895339190959930419921875">
        <ele>2191.39990234375</ele>
        <time>2026-06-15T10:15:00.000Z</time>
        <extensions>
          <ns3:TrackPointExtension>
            <ns3:atemp>16.0</ns3:atemp>
          </ns3:TrackPointExtension>
        </extensions>
      </trkpt>
      <trkpt lat="42.581351213157176971435546875" lon="20.08689525537192821502685546875">
        <ele>2191.39990234375</ele>
        <time>2026-06-15T10:15:01.000Z</time>
        <extensions>
          <ns3:TrackPointExtension>
            <ns3:atemp>16.0</ns3:atemp>
          </ns3:TrackPointExtension>
        </extensions>
      </trkpt>
      <trkpt lat="42.581351213157176971435546875" lon="20.08689525537192821502685546875">
        <ele>2191.39990234375</ele>
        <time>2026-06-15T10:15:02.000Z</time>
        <extensions>
          <ns3:TrackPointExtension>
            <ns3:atemp>16.0</ns3:atemp>
          </ns3:TrackPointExtension>
        </extensions>
      </trkpt>
      <trkpt lat="42.581351213157176971435546875" lon="20.08689525537192821502685546875">
        <ele>2191.39990234375</ele>
        <time>2026-06-15T10:15:03.000Z</time>
        <extensions>
          <ns3:TrackPointExtension>
            <ns3:atemp>16.0</ns3:atemp>
          </ns3:TrackPointExtension>
        </extensions>
      </trkpt>
      <trkpt lat="42.581351213157176971435546875" lon="20.08689525537192821502685546875">
        <ele>2191.39990234375</ele>
        <time>2026-06-15T10:15:04.000Z</time>
        <extensions>
          <ns3:TrackPointExtension>
            <ns3:atemp>16.0</ns3:atemp>
          </ns3:TrackPointExtension>
        </extensions>
      </trkpt>
      <trkpt lat="42.581351213157176971435546875" lon="20.08689525537192821502685546875">
        <ele>2191.39990234375</ele>
        <time>2026-06-15T10:15:05.000Z</time>
        <extensions>
          <ns3:TrackPointExtension>
            <ns3:atemp>16.0</ns3:atemp>
          </ns3:TrackPointExtension>
        </extensions>
      </trkpt>
      <trkpt lat="42.581351213157176971435546875" lon="20.08689525537192821502685546875">
        <ele>2191.39990234375</ele>
        <time>2026-06-15T10:15:06.000Z</time>
        <extensions>
          <ns3:TrackPointExtension>
            <ns3:atemp>16.0</ns3:atemp>
          </ns3:TrackPointExtension>
        </extensions>
      </trkpt>
      <trkpt lat="42.581351213157176971435546875" lon="20.08689525537192821502685546875">
        <ele>2191.39990234375</ele>
        <time>2026-06-15T10:15:07.000Z</time>
        <extensions>
          <ns3:TrackPointExtension>
            <ns3:atemp>16.0</ns3:atemp>
          </ns3:TrackPointExtension>
        </extensions>
      </trkpt>
      <trkpt lat="42.581351213157176971435546875" lon="20.08689525537192821502685546875">
        <ele>2191.39990234375</ele>
        <time>2026-06-15T10:15:08.000Z</time>
        <extensions>
          <ns3:TrackPointExtension>
            <ns3:atemp>16.0</ns3:atemp>
          </ns3:TrackPointExtension>
        </extensions>
      </trkpt>
      <trkpt lat="42.581351213157176971435546875" lon="20.08689525537192821502685546875">
        <ele>2191.39990234375</ele>
        <time>2026-06-15T10:15:09.000Z</time>
        <extensions>
          <ns3:TrackPointExtension>
            <ns3:atemp>16.0</ns3:atemp>
          </ns3:TrackPointExtension>
        </extensions>
      </trkpt>
      <trkpt lat="42.581351213157176971435546875" lon="20.08689525537192821502685546875">
        <ele>2191.39990234375</ele>
        <time>2026-06-15T10:15:10.000Z</time>
        <extensions>
          <ns3:TrackPointExtension>
            <ns3:atemp>16.0</ns3:atemp>
          </ns3:TrackPointExtension>
        </extensions>
      </trkpt>
      <trkpt lat="42.581351213157176971435546875" lon="20.08689525537192821502685546875">
        <ele>2191.39990234375</ele>
        <time>2026-06-15T10:15:11.000Z</time>
        <extensions>
          <ns3:TrackPointExtension>
            <ns3:atemp>16.0</ns3:atemp>
          </ns3:TrackPointExtension>
        </extensions>
      </trkpt>
      <trkpt lat="42.581351213157176971435546875" lon="20.08689525537192821502685546875">
        <ele>2191.39990234375</ele>
        <time>2026-06-15T10:15:12.000Z</time>
        <extensions>
          <ns3:TrackPointExtension>
            <ns3:atemp>16.0</ns3:atemp>
          </ns3:TrackPointExtension>
        </extensions>
      </trkpt>
      <trkpt lat="42.581351213157176971435546875" lon="20.08689525537192821502685546875">
        <ele>2191.39990234375</ele>
        <time>2026-06-15T10:15:13.000Z</time>
        <extensions>
          <ns3:TrackPointExtension>
            <ns3:atemp>16.0</ns3:atemp>
          </ns3:TrackPointExtension>
        </extensions>
      </trkpt>
      <trkpt lat="42.581351213157176971435546875" lon="20.08689525537192821502685546875">
        <ele>2191.39990234375</ele>
        <time>2026-06-15T10:15:14.000Z</time>
        <extensions>
          <ns3:TrackPointExtension>
            <ns3:atemp>16.0</ns3:atemp>
          </ns3:TrackPointExtension>
        </extensions>
      </trkpt>
      <trkpt lat="42.581351213157176971435546875" lon="20.08689525537192821502685546875">
        <ele>2191.39990234375</ele>
        <time>2026-06-15T10:15:15.000Z</time>
        <extensions>
          <ns3:TrackPointExtension>
            <ns3:atemp>16.0</ns3:atemp>
          </ns3:TrackPointExtension>
        </extensions>
      </trkpt>
      <trkpt lat="42.581351213157176971435546875" lon="20.08689525537192821502685546875">
        <ele>2191.39990234375</ele>
        <time>2026-06-15T10:15:16.000Z</time>
        <extensions>
          <ns3:TrackPointExtension>
            <ns3:atemp>16.0</ns3:atemp>
          </ns3:TrackPointExtension>
        </extensions>
      </trkpt>
      <trkpt lat="42.581351213157176971435546875" lon="20.08689525537192821502685546875">
        <ele>2191.39990234375</ele>
        <time>2026-06-15T10:15:17.000Z</time>
        <extensions>
          <ns3:TrackPointExtension>
            <ns3:atemp>16.0</ns3:atemp>
          </ns3:TrackPointExtension>
        </extensions>
      </trkpt>
      <trkpt lat="42.581351213157176971435546875" lon="20.08689525537192821502685546875">
        <ele>2191.39990234375</ele>
        <time>2026-06-15T10:15:18.000Z</time>
        <extensions>
          <ns3:TrackPointExtension>
            <ns3:atemp>16.0</ns3:atemp>
          </ns3:TrackPointExtension>
        </extensions>
      </trkpt>
      <trkpt lat="42.581351213157176971435546875" lon="20.08689525537192821502685546875">
        <ele>2191.39990234375</ele>
        <time>2026-06-15T10:15:19.000Z</time>
        <extensions>
          <ns3:TrackPointExtension>
            <ns3:atemp>16.0</ns3:atemp>
          </ns3:TrackPointExtension>
        </extensions>
      </trkpt>
      <trkpt lat="42.58134760893881320953369140625" lon="20.08689642883837223052978515625">
        <ele>2191.39990234375</ele>
        <time>2026-06-15T10:15:20.000Z</time>
        <extensions>
          <ns3:TrackPointExtension>
            <ns3:atemp>16.0</ns3:atemp>
          </ns3:TrackPointExtension>
        </extensions>
      </trkpt>
      <trkpt lat="42.5813440047204494476318359375" lon="20.08689366281032562255859375">
        <ele>2191.39990234375</ele>
        <time>2026-06-15T10:15:21.000Z</time>
        <extensions>
          <ns3:TrackPointExtension>
            <ns3:atemp>16.0</ns3:atemp>
          </ns3:TrackPointExtension>
        </extensions>
      </trkpt>
      <trkpt lat="42.58133972994983196258544921875" lon="20.0868965126574039459228515625">
        <ele>2191.39990234375</ele>
        <time>2026-06-15T10:15:22.000Z</time>
        <extensions>
          <ns3:TrackPointExtension>
            <ns3:atemp>16.0</ns3:atemp>
          </ns3:TrackPointExtension>
        </extensions>
      </trkpt>
      <trkpt lat="42.58133503608405590057373046875" lon="20.08690145798027515411376953125">
        <ele>2191.39990234375</ele>
        <time>2026-06-15T10:15:23.000Z</time>
        <extensions>
          <ns3:TrackPointExtension>
            <ns3:atemp>16.0</ns3:atemp>
          </ns3:TrackPointExtension>
        </extensions>
      </trkpt>
      <trkpt lat="42.5813315995037555694580078125" lon="20.08690397255122661590576171875">
        <ele>2191.39990234375</ele>
        <time>2026-06-15T10:15:24.000Z</time>
        <extensions>
          <ns3:TrackPointExtension>
            <ns3:atemp>16.0</ns3:atemp>
          </ns3:TrackPointExtension>
        </extensions>
      </trkpt>
      <trkpt lat="42.5813315995037555694580078125" lon="20.08690397255122661590576171875">
        <ele>2191.39990234375</ele>
        <time>2026-06-15T10:15:25.000Z</time>
        <extensions>
          <ns3:TrackPointExtension>
            <ns3:atemp>16.0</ns3:atemp>
          </ns3:TrackPointExtension>
        </extensions>
      </trkpt>
      <trkpt lat="42.5813315995037555694580078125" lon="20.08690397255122661590576171875">
        <ele>2191.39990234375</ele>
        <time>2026-06-15T10:15:26.000Z</time>
        <extensions>
          <ns3:TrackPointExtension>
            <ns3:atemp>16.0</ns3:atemp>
          </ns3:TrackPointExtension>
        </extensions>
      </trkpt>
      <trkpt lat="42.5813315995037555694580078125" lon="20.08690397255122661590576171875">
        <ele>2191.39990234375</ele>
        <time>2026-06-15T10:15:27.000Z</time>
        <extensions>
          <ns3:TrackPointExtension>
            <ns3:atemp>16.0</ns3:atemp>
          </ns3:TrackPointExtension>
        </extensions>
      </trkpt>
      <trkpt lat="42.5813315995037555694580078125" lon="20.08690397255122661590576171875">
        <ele>2191.39990234375</ele>
        <time>2026-06-15T10:15:28.000Z</time>
        <extensions>
          <ns3:TrackPointExtension>
            <ns3:atemp>16.0</ns3:atemp>
          </ns3:TrackPointExtension>
        </extensions>
      </trkpt>
      <trkpt lat="42.5813315995037555694580078125" lon="20.08690397255122661590576171875">
        <ele>2191.39990234375</ele>
        <time>2026-06-15T10:15:29.000Z</time>
        <extensions>
          <ns3:TrackPointExtension>
            <ns3:atemp>16.0</ns3:atemp>
          </ns3:TrackPointExtension>
        </extensions>
      </trkpt>
      <trkpt lat="42.5813315995037555694580078125" lon="20.08690397255122661590576171875">
        <ele>2191.39990234375</ele>
        <time>2026-06-15T10:15:30.000Z</time>
        <extensions>
          <ns3:TrackPointExtension>
            <ns3:atemp>16.0</ns3:atemp>
          </ns3:TrackPointExtension>
        </extensions>
      </trkpt>
      <trkpt lat="42.5813315995037555694580078125" lon="20.08690397255122661590576171875">
        <ele>2191.39990234375</ele>
        <time>2026-06-15T10:15:31.000Z</time>
        <extensions>
          <ns3:TrackPointExtension>
            <ns3:atemp>16.0</ns3:atemp>
          </ns3:TrackPointExtension>
        </extensions>
      </trkpt>
      <trkpt lat="42.5813315995037555694580078125" lon="20.08690397255122661590576171875">
        <ele>2191.39990234375</ele>
        <time>2026-06-15T10:15:32.000Z</time>
        <extensions>
          <ns3:TrackPointExtension>
            <ns3:atemp>16.0</ns3:atemp>
          </ns3:TrackPointExtension>
        </extensions>
      </trkpt>
      <trkpt lat="42.5813315995037555694580078125" lon="20.08690397255122661590576171875">
        <ele>2191.39990234375</ele>
        <time>2026-06-15T10:15:33.000Z</time>
        <extensions>
          <ns3:TrackPointExtension>
            <ns3:atemp>16.0</ns3:atemp>
          </ns3:TrackPointExtension>
        </extensions>
      </trkpt>
      <trkpt lat="42.5813315995037555694580078125" lon="20.08690397255122661590576171875">
        <ele>2191.39990234375</ele>
        <time>2026-06-15T10:15:34.000Z</time>
        <extensions>
          <ns3:TrackPointExtension>
            <ns3:atemp>16.0</ns3:atemp>
          </ns3:TrackPointExtension>
        </extensions>
      </trkpt>
      <trkpt lat="42.5813315995037555694580078125" lon="20.08690397255122661590576171875">
        <ele>2191.39990234375</ele>
        <time>2026-06-15T10:15:35.000Z</time>
        <extensions>
          <ns3:TrackPointExtension>
            <ns3:atemp>16.0</ns3:atemp>
          </ns3:TrackPointExtension>
        </extensions>
      </trkpt>
      <trkpt lat="42.5813315995037555694580078125" lon="20.08690397255122661590576171875">
        <ele>2191.39990234375</ele>
        <time>2026-06-15T10:15:36.000Z</time>
        <extensions>
          <ns3:TrackPointExtension>
            <ns3:atemp>16.0</ns3:atemp>
          </ns3:TrackPointExtension>
        </extensions>
      </trkpt>
      <trkpt lat="42.5813315995037555694580078125" lon="20.08690397255122661590576171875">
        <ele>2191.39990234375</ele>
        <time>2026-06-15T10:15:37.000Z</time>
        <extensions>
          <ns3:TrackPointExtension>
            <ns3:atemp>16.0</ns3:atemp>
          </ns3:TrackPointExtension>
        </extensions>
      </trkpt>
      <trkpt lat="42.5813315995037555694580078125" lon="20.08690397255122661590576171875">
        <ele>2191.39990234375</ele>
        <time>2026-06-15T10:15:38.000Z</time>
        <extensions>
          <ns3:TrackPointExtension>
            <ns3:atemp>16.0</ns3:atemp>
          </ns3:TrackPointExtension>
        </extensions>
      </trkpt>
      <trkpt lat="42.5813315995037555694580078125" lon="20.08690397255122661590576171875">
        <ele>2191.39990234375</ele>
        <time>2026-06-15T10:15:39.000Z</time>
        <extensions>
          <ns3:TrackPointExtension>
            <ns3:atemp>16.0</ns3:atemp>
          </ns3:TrackPointExtension>
        </extensions>
      </trkpt>
      <trkpt lat="42.5813315995037555694580078125" lon="20.08690397255122661590576171875">
        <ele>2191.39990234375</ele>
        <time>2026-06-15T10:15:40.000Z</time>
        <extensions>
          <ns3:TrackPointExtension>
            <ns3:atemp>16.0</ns3:atemp>
          </ns3:TrackPointExtension>
        </extensions>
      </trkpt>
      <trkpt lat="42.5813315995037555694580078125" lon="20.08690397255122661590576171875">
        <ele>2191.39990234375</ele>
        <time>2026-06-15T10:15:41.000Z</time>
        <extensions>
          <ns3:TrackPointExtension>
            <ns3:atemp>16.0</ns3:atemp>
          </ns3:TrackPointExtension>
        </extensions>
      </trkpt>
      <trkpt lat="42.5813315995037555694580078125" lon="20.08690397255122661590576171875">
        <ele>2191.39990234375</ele>
        <time>2026-06-15T10:15:42.000Z</time>
        <extensions>
          <ns3:TrackPointExtension>
            <ns3:atemp>16.0</ns3:atemp>
          </ns3:TrackPointExtension>
        </extensions>
      </trkpt>
      <trkpt lat="42.5813315995037555694580078125" lon="20.08690397255122661590576171875">
        <ele>2191.39990234375</ele>
        <time>2026-06-15T10:15:43.000Z</time>
        <extensions>
          <ns3:TrackPointExtension>
            <ns3:atemp>16.0</ns3:atemp>
          </ns3:TrackPointExtension>
        </extensions>
      </trkpt>
      <trkpt lat="42.5813315995037555694580078125" lon="20.08690397255122661590576171875">
        <ele>2191.39990234375</ele>
        <time>2026-06-15T10:15:44.000Z</time>
        <extensions>
          <ns3:TrackPointExtension>
            <ns3:atemp>16.0</ns3:atemp>
          </ns3:TrackPointExtension>
        </extensions>
      </trkpt>
      <trkpt lat="42.5813315995037555694580078125" lon="20.08690397255122661590576171875">
        <ele>2191.39990234375</ele>
        <time>2026-06-15T10:15:45.000Z</time>
        <extensions>
          <ns3:TrackPointExtension>
            <ns3:atemp>16.0</ns3:atemp>
          </ns3:TrackPointExtension>
        </extensions>
      </trkpt>
      <trkpt lat="42.5813315995037555694580078125" lon="20.08690397255122661590576171875">
        <ele>2191.39990234375</ele>
        <time>2026-06-15T10:15:46.000Z</time>
        <extensions>
          <ns3:TrackPointExtension>
            <ns3:atemp>16.0</ns3:atemp>
          </ns3:TrackPointExtension>
        </extensions>
      </trkpt>
      <trkpt lat="42.58133076131343841552734375" lon="20.0869062356650829315185546875">
        <ele>2191.39990234375</ele>
        <time>2026-06-15T10:15:47.000Z</time>
        <extensions>
          <ns3:TrackPointExtension>
            <ns3:atemp>16.0</ns3:atemp>
          </ns3:TrackPointExtension>
        </extensions>
      </trkpt>
      <trkpt lat="42.58131802082061767578125" lon="20.0869032181799411773681640625">
        <ele>2191.39990234375</ele>
        <time>2026-06-15T10:15:48.000Z</time>
        <extensions>
          <ns3:TrackPointExtension>
            <ns3:atemp>16.0</ns3:atemp>
          </ns3:TrackPointExtension>
        </extensions>
      </trkpt>
      <trkpt lat="42.58130796253681182861328125" lon="20.086888968944549560546875">
        <ele>2191.39990234375</ele>
        <time>2026-06-15T10:15:49.000Z</time>
        <extensions>
          <ns3:TrackPointExtension>
            <ns3:atemp>16.0</ns3:atemp>
          </ns3:TrackPointExtension>
        </extensions>
      </trkpt>
      <trkpt lat="42.58130393922328948974609375" lon="20.08686558343470096588134765625">
        <ele>2192</ele>
        <time>2026-06-15T10:15:50.000Z</time>
        <extensions>
          <ns3:TrackPointExtension>
            <ns3:atemp>16.0</ns3:atemp>
          </ns3:TrackPointExtension>
        </extensions>
      </trkpt>
      <trkpt lat="42.58129279129207134246826171875" lon="20.0868368335068225860595703125">
        <ele>2191.60009765625</ele>
        <time>2026-06-15T10:15:51.000Z</time>
        <extensions>
          <ns3:TrackPointExtension>
            <ns3:atemp>16.0</ns3:atemp>
          </ns3:TrackPointExtension>
        </extensions>
      </trkpt>
      <trkpt lat="42.5812702439725399017333984375" lon="20.086812190711498260498046875">
        <ele>2191</ele>
        <time>2026-06-15T10:15:52.000Z</time>
        <extensions>
          <ns3:TrackPointExtension>
            <ns3:atemp>16.0</ns3:atemp>
          </ns3:TrackPointExtension>
        </extensions>
      </trkpt>
      <trkpt lat="42.58127870969474315643310546875" lon="20.08681713603436946868896484375">
        <ele>2190.60009765625</ele>
        <time>2026-06-15T10:15:53.000Z</time>
        <extensions>
          <ns3:TrackPointExtension>
            <ns3:atemp>16.0</ns3:atemp>
          </ns3:TrackPointExtension>
        </extensions>
      </trkpt>
      <trkpt lat="42.5812752731144428253173828125" lon="20.0868150405585765838623046875">
        <ele>2190.39990234375</ele>
        <time>2026-06-15T10:15:54.000Z</time>
        <extensions>
          <ns3:TrackPointExtension>
            <ns3:atemp>16.0</ns3:atemp>
          </ns3:TrackPointExtension>
        </extensions>
      </trkpt>
      <trkpt lat="42.58127653039991855621337890625" lon="20.08680623956024646759033203125">
        <ele>2190.199951171875</ele>
        <time>2026-06-15T10:15:55.000Z</time>
        <extensions>
          <ns3:TrackPointExtension>
            <ns3:atemp>16.0</ns3:atemp>
          </ns3:TrackPointExtension>
        </extensions>
      </trkpt>
      <trkpt lat="42.58127653039991855621337890625" lon="20.08680623956024646759033203125">
        <ele>2190.199951171875</ele>
        <time>2026-06-15T10:15:56.000Z</time>
        <extensions>
          <ns3:TrackPointExtension>
            <ns3:atemp>16.0</ns3:atemp>
          </ns3:TrackPointExtension>
        </extensions>
      </trkpt>
      <trkpt lat="42.58127653039991855621337890625" lon="20.08680623956024646759033203125">
        <ele>2190.39990234375</ele>
        <time>2026-06-15T10:15:57.000Z</time>
        <extensions>
          <ns3:TrackPointExtension>
            <ns3:atemp>16.0</ns3:atemp>
          </ns3:TrackPointExtension>
        </extensions>
      </trkpt>
      <trkpt lat="42.58127653039991855621337890625" lon="20.08680623956024646759033203125">
        <ele>2190.39990234375</ele>
        <time>2026-06-15T10:15:58.000Z</time>
        <extensions>
          <ns3:TrackPointExtension>
            <ns3:atemp>16.0</ns3:atemp>
          </ns3:TrackPointExtension>
        </extensions>
      </trkpt>
      <trkpt lat="42.58127653039991855621337890625" lon="20.08680623956024646759033203125">
        <ele>2190.60009765625</ele>
        <time>2026-06-15T10:15:59.000Z</time>
        <extensions>
          <ns3:TrackPointExtension>
            <ns3:atemp>16.0</ns3:atemp>
          </ns3:TrackPointExtension>
        </extensions>
      </trkpt>
      <trkpt lat="42.58127653039991855621337890625" lon="20.08680623956024646759033203125">
        <ele>2190.60009765625</ele>
        <time>2026-06-15T10:16:00.000Z</time>
        <extensions>
          <ns3:TrackPointExtension>
            <ns3:atemp>16.0</ns3:atemp>
          </ns3:TrackPointExtension>
        </extensions>
      </trkpt>
      <trkpt lat="42.58127653039991855621337890625" lon="20.08680623956024646759033203125">
        <ele>2190.60009765625</ele>
        <time>2026-06-15T10:16:01.000Z</time>
        <extensions>
          <ns3:TrackPointExtension>
            <ns3:atemp>16.0</ns3:atemp>
          </ns3:TrackPointExtension>
        </extensions>
      </trkpt>
      <trkpt lat="42.58127653039991855621337890625" lon="20.08680623956024646759033203125">
        <ele>2190.60009765625</ele>
        <time>2026-06-15T10:16:02.000Z</time>
        <extensions>
          <ns3:TrackPointExtension>
            <ns3:atemp>16.0</ns3:atemp>
          </ns3:TrackPointExtension>
        </extensions>
      </trkpt>
      <trkpt lat="42.58127653039991855621337890625" lon="20.08680623956024646759033203125">
        <ele>2190.60009765625</ele>
        <time>2026-06-15T10:16:03.000Z</time>
        <extensions>
          <ns3:TrackPointExtension>
            <ns3:atemp>16.0</ns3:atemp>
          </ns3:TrackPointExtension>
        </extensions>
      </trkpt>
      <trkpt lat="42.5812764465808868408203125" lon="20.086806155741214752197265625">
        <ele>2190.60009765625</ele>
        <time>2026-06-15T10:16:04.000Z</time>
        <extensions>
          <ns3:TrackPointExtension>
            <ns3:atemp>16.0</ns3:atemp>
          </ns3:TrackPointExtension>
        </extensions>
      </trkpt>
      <trkpt lat="42.5812652148306369781494140625" lon="20.08680188097059726715087890625">
        <ele>2190.39990234375</ele>
        <time>2026-06-15T10:16:05.000Z</time>
        <extensions>
          <ns3:TrackPointExtension>
            <ns3:atemp>16.0</ns3:atemp>
          </ns3:TrackPointExtension>
        </extensions>
      </trkpt>
      <trkpt lat="42.58125205524265766143798828125" lon="20.08679651655256748199462890625">
        <ele>2190.39990234375</ele>
        <time>2026-06-15T10:16:06.000Z</time>
        <extensions>
          <ns3:TrackPointExtension>
            <ns3:atemp>16.0</ns3:atemp>
          </ns3:TrackPointExtension>
        </extensions>
      </trkpt>
      <trkpt lat="42.581235207617282867431640625" lon="20.0867992825806140899658203125">
        <ele>2190.39990234375</ele>
        <time>2026-06-15T10:16:07.000Z</time>
        <extensions>
          <ns3:TrackPointExtension>
            <ns3:atemp>16.0</ns3:atemp>
          </ns3:TrackPointExtension>
        </extensions>
      </trkpt>
      <trkpt lat="42.5812160968780517578125" lon="20.08679416961967945098876953125">
        <ele>2190.199951171875</ele>
        <time>2026-06-15T10:16:08.000Z</time>
        <extensions>
          <ns3:TrackPointExtension>
            <ns3:atemp>16.0</ns3:atemp>
          </ns3:TrackPointExtension>
        </extensions>
      </trkpt>
      <trkpt lat="42.5811924599111080169677734375" lon="20.08679668419063091278076171875">
        <ele>2190.199951171875</ele>
        <time>2026-06-15T10:16:09.000Z</time>
        <extensions>
          <ns3:TrackPointExtension>
            <ns3:atemp>16.0</ns3:atemp>
          </ns3:TrackPointExtension>
        </extensions>
      </trkpt>
      <trkpt lat="42.58116446435451507568359375" lon="20.08679819293320178985595703125">
        <ele>2190</ele>
        <time>2026-06-15T10:16:10.000Z</time>
        <extensions>
          <ns3:TrackPointExtension>
            <ns3:atemp>16.0</ns3:atemp>
          </ns3:TrackPointExtension>
        </extensions>
      </trkpt>
      <trkpt lat="42.58114040829241275787353515625" lon="20.08679953403770923614501953125">
        <ele>2189.800048828125</ele>
        <time>2026-06-15T10:16:11.000Z</time>
        <extensions>
          <ns3:TrackPointExtension>
            <ns3:atemp>16.0</ns3:atemp>
          </ns3:TrackPointExtension>
        </extensions>
      </trkpt>
      <trkpt lat="42.581114508211612701416015625" lon="20.0868016295135021209716796875">
        <ele>2189.39990234375</ele>
        <time>2026-06-15T10:16:12.000Z</time>
        <extensions>
          <ns3:TrackPointExtension>
            <ns3:atemp>16.0</ns3:atemp>
          </ns3:TrackPointExtension>
        </extensions>
      </trkpt>
      <trkpt lat="42.5810912065207958221435546875" lon="20.08679986931383609771728515625">
        <ele>2189</ele>
        <time>2026-06-15T10:16:13.000Z</time>
        <extensions>
          <ns3:TrackPointExtension>
            <ns3:atemp>16.0</ns3:atemp>
          </ns3:TrackPointExtension>
        </extensions>
      </trkpt>
      <trkpt lat="42.58106798864901065826416015625" lon="20.08679383434355258941650390625">
        <ele>2188.800048828125</ele>
        <time>2026-06-15T10:16:14.000Z</time>
        <extensions>
          <ns3:TrackPointExtension>
            <ns3:atemp>16.0</ns3:atemp>
          </ns3:TrackPointExtension>
        </extensions>
      </trkpt>
      <trkpt lat="42.58104284293949604034423828125" lon="20.08679651655256748199462890625">
        <ele>2188.39990234375</ele>
        <time>2026-06-15T10:16:15.000Z</time>
        <extensions>
          <ns3:TrackPointExtension>
            <ns3:atemp>16.0</ns3:atemp>
          </ns3:TrackPointExtension>
        </extensions>
      </trkpt>
      <trkpt lat="42.581023983657360076904296875" lon="20.0867991149425506591796875">
        <ele>2188</ele>
        <time>2026-06-15T10:16:16.000Z</time>
        <extensions>
          <ns3:TrackPointExtension>
            <ns3:atemp>16.0</ns3:atemp>
          </ns3:TrackPointExtension>
        </extensions>
      </trkpt>
      <trkpt lat="42.5810107402503490447998046875" lon="20.08680439554154872894287109375">
        <ele>2187.800048828125</ele>
        <time>2026-06-15T10:16:17.000Z</time>
        <extensions>
          <ns3:TrackPointExtension>
            <ns3:atemp>16.0</ns3:atemp>
          </ns3:TrackPointExtension>
        </extensions>
      </trkpt>
      <trkpt lat="42.5810093991458415985107421875" lon="20.08680858649313449859619140625">
        <ele>2187.60009765625</ele>
        <time>2026-06-15T10:16:18.000Z</time>
        <extensions>
          <ns3:TrackPointExtension>
            <ns3:atemp>16.0</ns3:atemp>
          </ns3:TrackPointExtension>
        </extensions>
      </trkpt>
      <trkpt lat="42.58100931532680988311767578125" lon="20.08681043051183223724365234375">
        <ele>2187.39990234375</ele>
        <time>2026-06-15T10:16:19.000Z</time>
        <extensions>
          <ns3:TrackPointExtension>
            <ns3:atemp>16.0</ns3:atemp>
          </ns3:TrackPointExtension>
        </extensions>
      </trkpt>
      <trkpt lat="42.58100931532680988311767578125" lon="20.0868103466928005218505859375">
        <ele>2187.199951171875</ele>
        <time>2026-06-15T10:16:20.000Z</time>
        <extensions>
          <ns3:TrackPointExtension>
            <ns3:atemp>16.0</ns3:atemp>
          </ns3:TrackPointExtension>
        </extensions>
      </trkpt>
      <trkpt lat="42.58100931532680988311767578125" lon="20.086810179054737091064453125">
        <ele>2187.199951171875</ele>
        <time>2026-06-15T10:16:21.000Z</time>
        <extensions>
          <ns3:TrackPointExtension>
            <ns3:atemp>16.0</ns3:atemp>
          </ns3:TrackPointExtension>
        </extensions>
      </trkpt>
      <trkpt lat="42.58098232559859752655029296875" lon="20.08680372498929500579833984375">
        <ele>2187.199951171875</ele>
        <time>2026-06-15T10:16:22.000Z</time>
        <extensions>
          <ns3:TrackPointExtension>
            <ns3:atemp>16.0</ns3:atemp>
          </ns3:TrackPointExtension>
        </extensions>
      </trkpt>
      <trkpt lat="42.58094762451946735382080078125" lon="20.08680037222802639007568359375">
        <ele>2187</ele>
        <time>2026-06-15T10:16:23.000Z</time>
        <extensions>
          <ns3:TrackPointExtension>
            <ns3:atemp>16.0</ns3:atemp>
          </ns3:TrackPointExtension>
        </extensions>
      </trkpt>
      <trkpt lat="42.58090504445135593414306640625" lon="20.08679416961967945098876953125">
        <ele>2186.800048828125</ele>
        <time>2026-06-15T10:16:24.000Z</time>
        <extensions>
          <ns3:TrackPointExtension>
            <ns3:atemp>16.0</ns3:atemp>
          </ns3:TrackPointExtension>
        </extensions>
      </trkpt>
      <trkpt lat="42.580863051116466522216796875" lon="20.08677992038428783416748046875">
        <ele>2186.39990234375</ele>
        <time>2026-06-15T10:16:25.000Z</time>
        <extensions>
          <ns3:TrackPointExtension>
            <ns3:atemp>16.0</ns3:atemp>
          </ns3:TrackPointExtension>
        </extensions>
      </trkpt>
      <trkpt lat="42.58081384934484958648681640625" lon="20.08676785044372081756591796875">
        <ele>2186</ele>
        <time>2026-06-15T10:16:26.000Z</time>
        <extensions>
          <ns3:TrackPointExtension>
            <ns3:atemp>16.0</ns3:atemp>
          </ns3:TrackPointExtension>
        </extensions>
      </trkpt>
      <trkpt lat="42.58076749742031097412109375" lon="20.08676231838762760162353515625">
        <ele>2185.39990234375</ele>
        <time>2026-06-15T10:16:27.000Z</time>
        <extensions>
          <ns3:TrackPointExtension>
            <ns3:atemp>16.0</ns3:atemp>
          </ns3:TrackPointExtension>
        </extensions>
      </trkpt>
      <trkpt lat="42.580718882381916046142578125" lon="20.08678101003170013427734375">
        <ele>2184.800048828125</ele>
        <time>2026-06-15T10:16:28.000Z</time>
        <extensions>
          <ns3:TrackPointExtension>
            <ns3:atemp>16.0</ns3:atemp>
          </ns3:TrackPointExtension>
        </extensions>
      </trkpt>
      <trkpt lat="42.58067538030445575714111328125" lon="20.08679634891450405120849609375">
        <ele>2184.39990234375</ele>
        <time>2026-06-15T10:16:29.000Z</time>
        <extensions>
          <ns3:TrackPointExtension>
            <ns3:atemp>16.0</ns3:atemp>
          </ns3:TrackPointExtension>
        </extensions>
      </trkpt>
      <trkpt lat="42.580637745559215545654296875" lon="20.086806826293468475341796875">
        <ele>2184</ele>
        <time>2026-06-15T10:16:30.000Z</time>
        <extensions>
          <ns3:TrackPointExtension>
            <ns3:atemp>16.0</ns3:atemp>
          </ns3:TrackPointExtension>
        </extensions>
      </trkpt>
      <trkpt lat="42.5806023739278316497802734375" lon="20.086816214025020599365234375">
        <ele>2183.60009765625</ele>
        <time>2026-06-15T10:16:31.000Z</time>
        <extensions>
          <ns3:TrackPointExtension>
            <ns3:atemp>16.0</ns3:atemp>
          </ns3:TrackPointExtension>
        </extensions>
      </trkpt>
      <trkpt lat="42.58056473918259143829345703125" lon="20.08682727813720703125">
        <ele>2183.199951171875</ele>
        <time>2026-06-15T10:16:32.000Z</time>
        <extensions>
          <ns3:TrackPointExtension>
            <ns3:atemp>16.0</ns3:atemp>
          </ns3:TrackPointExtension>
        </extensions>
      </trkpt>
      <trkpt lat="42.58052517659962177276611328125" lon="20.08683255873620510101318359375">
        <ele>2183</ele>
        <time>2026-06-15T10:16:33.000Z</time>
        <extensions>
          <ns3:TrackPointExtension>
            <ns3:atemp>16.0</ns3:atemp>
          </ns3:TrackPointExtension>
        </extensions>
      </trkpt>
      <trkpt lat="42.58048611693084239959716796875" lon="20.08684244938194751739501953125">
        <ele>2182.60009765625</ele>
        <time>2026-06-15T10:16:34.000Z</time>
        <extensions>
          <ns3:TrackPointExtension>
            <ns3:atemp>16.0</ns3:atemp>
          </ns3:TrackPointExtension>
        </extensions>
      </trkpt>
      <trkpt lat="42.580448649823665618896484375" lon="20.08683088235557079315185546875">
        <ele>2182.39990234375</ele>
        <time>2026-06-15T10:16:35.000Z</time>
        <extensions>
          <ns3:TrackPointExtension>
            <ns3:atemp>16.0</ns3:atemp>
          </ns3:TrackPointExtension>
        </extensions>
      </trkpt>
      <trkpt lat="42.58041386492550373077392578125" lon="20.086816214025020599365234375">
        <ele>2182</ele>
        <time>2026-06-15T10:16:36.000Z</time>
        <extensions>
          <ns3:TrackPointExtension>
            <ns3:atemp>16.0</ns3:atemp>
          </ns3:TrackPointExtension>
        </extensions>
      </trkpt>
      <trkpt lat="42.58037966676056385040283203125" lon="20.08679802529513835906982421875">
        <ele>2181.60009765625</ele>
        <time>2026-06-15T10:16:37.000Z</time>
        <extensions>
          <ns3:TrackPointExtension>
            <ns3:atemp>16.0</ns3:atemp>
          </ns3:TrackPointExtension>
        </extensions>
      </trkpt>
      <trkpt lat="42.5803458876907825469970703125" lon="20.08677656762301921844482421875">
        <ele>2181</ele>
        <time>2026-06-15T10:16:38.000Z</time>
        <extensions>
          <ns3:TrackPointExtension>
            <ns3:atemp>16.0</ns3:atemp>
          </ns3:TrackPointExtension>
        </extensions>
      </trkpt>
      <trkpt lat="42.5803100131452083587646484375" lon="20.086761899292469024658203125">
        <ele>2180.39990234375</ele>
        <time>2026-06-15T10:16:39.000Z</time>
        <extensions>
          <ns3:TrackPointExtension>
            <ns3:atemp>16.0</ns3:atemp>
          </ns3:TrackPointExtension>
        </extensions>
      </trkpt>
      <trkpt lat="42.580274641513824462890625" lon="20.0867516733705997467041015625">
        <ele>2180</ele>
        <time>2026-06-15T10:16:40.000Z</time>
        <extensions>
          <ns3:TrackPointExtension>
            <ns3:atemp>16.0</ns3:atemp>
          </ns3:TrackPointExtension>
        </extensions>
      </trkpt>
      <trkpt lat="42.58024312555789947509765625" lon="20.08673599921166896820068359375">
        <ele>2179.60009765625</ele>
        <time>2026-06-15T10:16:41.000Z</time>
        <extensions>
          <ns3:TrackPointExtension>
            <ns3:atemp>16.0</ns3:atemp>
          </ns3:TrackPointExtension>
        </extensions>
      </trkpt>
      <trkpt lat="42.5802087597548961639404296875" lon="20.086720325052738189697265625">
        <ele>2179.199951171875</ele>
        <time>2026-06-15T10:16:42.000Z</time>
        <extensions>
          <ns3:TrackPointExtension>
            <ns3:atemp>16.0</ns3:atemp>
          </ns3:TrackPointExtension>
        </extensions>
      </trkpt>
      <trkpt lat="42.5801705382764339447021484375" lon="20.08669920265674591064453125">
        <ele>2178.800048828125</ele>
        <time>2026-06-15T10:16:43.000Z</time>
        <extensions>
          <ns3:TrackPointExtension>
            <ns3:atemp>16.0</ns3:atemp>
          </ns3:TrackPointExtension>
        </extensions>
      </trkpt>
      <trkpt lat="42.58013357408344745635986328125" lon="20.0866775773465633392333984375">
        <ele>2178.199951171875</ele>
        <time>2026-06-15T10:16:44.000Z</time>
        <extensions>
          <ns3:TrackPointExtension>
            <ns3:atemp>16.0</ns3:atemp>
          </ns3:TrackPointExtension>
        </extensions>
      </trkpt>
      <trkpt lat="42.58009300567209720611572265625" lon="20.0866564549505710601806640625">
        <ele>2177.39990234375</ele>
        <time>2026-06-15T10:16:45.000Z</time>
        <extensions>
          <ns3:TrackPointExtension>
            <ns3:atemp>16.0</ns3:atemp>
          </ns3:TrackPointExtension>
        </extensions>
      </trkpt>
      <trkpt lat="42.58005310781300067901611328125" lon="20.08664413355290889739990234375">
        <ele>2176.800048828125</ele>
        <time>2026-06-15T10:16:46.000Z</time>
        <extensions>
          <ns3:TrackPointExtension>
            <ns3:atemp>16.0</ns3:atemp>
          </ns3:TrackPointExtension>
        </extensions>
      </trkpt>
      <trkpt lat="42.5800096057355403900146484375" lon="20.08663491345942020416259765625">
        <ele>2176.199951171875</ele>
        <time>2026-06-15T10:16:47.000Z</time>
        <extensions>
          <ns3:TrackPointExtension>
            <ns3:atemp>16.0</ns3:atemp>
          </ns3:TrackPointExtension>
        </extensions>
      </trkpt>
      <trkpt lat="42.57996954023838043212890625" lon="20.0866249389946460723876953125">
        <ele>2175.60009765625</ele>
        <time>2026-06-15T10:16:48.000Z</time>
        <extensions>
          <ns3:TrackPointExtension>
            <ns3:atemp>16.0</ns3:atemp>
          </ns3:TrackPointExtension>
        </extensions>
      </trkpt>
      <trkpt lat="42.579932324588298797607421875" lon="20.0866034813225269317626953125">
        <ele>2175</ele>
        <time>2026-06-15T10:16:49.000Z</time>
        <extensions>
          <ns3:TrackPointExtension>
            <ns3:atemp>16.0</ns3:atemp>
          </ns3:TrackPointExtension>
        </extensions>
      </trkpt>
      <trkpt lat="42.57989133708178997039794921875" lon="20.0865800119936466217041015625">
        <ele>2174.199951171875</ele>
        <time>2026-06-15T10:16:50.000Z</time>
        <extensions>
          <ns3:TrackPointExtension>
            <ns3:atemp>16.0</ns3:atemp>
          </ns3:TrackPointExtension>
        </extensions>
      </trkpt>
      <trkpt lat="42.57984288968145847320556640625" lon="20.0865558721125125885009765625">
        <ele>2173.60009765625</ele>
        <time>2026-06-15T10:16:51.000Z</time>
        <extensions>
          <ns3:TrackPointExtension>
            <ns3:atemp>16.0</ns3:atemp>
          </ns3:TrackPointExtension>
        </extensions>
      </trkpt>
      <trkpt lat="42.5797940231859683990478515625" lon="20.08653416298329830169677734375">
        <ele>2172.800048828125</ele>
        <time>2026-06-15T10:16:52.000Z</time>
        <extensions>
          <ns3:TrackPointExtension>
            <ns3:atemp>16.0</ns3:atemp>
          </ns3:TrackPointExtension>
        </extensions>
      </trkpt>
      <trkpt lat="42.5797449052333831787109375" lon="20.08650750853121280670166015625">
        <ele>2172</ele>
        <time>2026-06-15T10:16:53.000Z</time>
        <extensions>
          <ns3:TrackPointExtension>
            <ns3:atemp>16.0</ns3:atemp>
          </ns3:TrackPointExtension>
        </extensions>
      </trkpt>
      <trkpt lat="42.579698301851749420166015625" lon="20.08648185990750789642333984375">
        <ele>2171.199951171875</ele>
        <time>2026-06-15T10:16:54.000Z</time>
        <extensions>
          <ns3:TrackPointExtension>
            <ns3:atemp>16.0</ns3:atemp>
          </ns3:TrackPointExtension>
        </extensions>
      </trkpt>
      <trkpt lat="42.57965329103171825408935546875" lon="20.08646450936794281005859375">
        <ele>2170.60009765625</ele>
        <time>2026-06-15T10:16:55.000Z</time>
        <extensions>
          <ns3:TrackPointExtension>
            <ns3:atemp>16.0</ns3:atemp>
          </ns3:TrackPointExtension>
        </extensions>
      </trkpt>
      <trkpt lat="42.5796107947826385498046875" lon="20.0864517688751220703125">
        <ele>2170</ele>
        <time>2026-06-15T10:16:56.000Z</time>
        <extensions>
          <ns3:TrackPointExtension>
            <ns3:atemp>16.0</ns3:atemp>
          </ns3:TrackPointExtension>
        </extensions>
      </trkpt>
      <trkpt lat="42.5795713998377323150634765625" lon="20.08643441833555698394775390625">
        <ele>2169.39990234375</ele>
        <time>2026-06-15T10:16:57.000Z</time>
        <extensions>
          <ns3:TrackPointExtension>
            <ns3:atemp>16.0</ns3:atemp>
          </ns3:TrackPointExtension>
        </extensions>
      </trkpt>
      <trkpt lat="42.5795338489115238189697265625" lon="20.0864187441766262054443359375">
        <ele>2169</ele>
        <time>2026-06-15T10:16:58.000Z</time>
        <extensions>
          <ns3:TrackPointExtension>
            <ns3:atemp>16.0</ns3:atemp>
          </ns3:TrackPointExtension>
        </extensions>
      </trkpt>
      <trkpt lat="42.57949554361402988433837890625" lon="20.08640809915959835052490234375">
        <ele>2168.60009765625</ele>
        <time>2026-06-15T10:16:59.000Z</time>
        <extensions>
          <ns3:TrackPointExtension>
            <ns3:atemp>16.0</ns3:atemp>
          </ns3:TrackPointExtension>
        </extensions>
      </trkpt>
      <trkpt lat="42.579460255801677703857421875" lon="20.0863956101238727569580078125">
        <ele>2168.39990234375</ele>
        <time>2026-06-15T10:17:00.000Z</time>
        <extensions>
          <ns3:TrackPointExtension>
            <ns3:atemp>16.0</ns3:atemp>
          </ns3:TrackPointExtension>
        </extensions>
      </trkpt>
      <trkpt lat="42.57942773401737213134765625" lon="20.08637691847980022430419921875">
        <ele>2168.199951171875</ele>
        <time>2026-06-15T10:17:01.000Z</time>
        <extensions>
          <ns3:TrackPointExtension>
            <ns3:atemp>16.0</ns3:atemp>
          </ns3:TrackPointExtension>
        </extensions>
      </trkpt>
      <trkpt lat="42.5793910212814807891845703125" lon="20.0863513536751270294189453125">
        <ele>2168.199951171875</ele>
        <time>2026-06-15T10:17:02.000Z</time>
        <extensions>
          <ns3:TrackPointExtension>
            <ns3:atemp>16.0</ns3:atemp>
          </ns3:TrackPointExtension>
        </extensions>
      </trkpt>
      <trkpt lat="42.5793511234223842620849609375" lon="20.08632679469883441925048828125">
        <ele>2168.199951171875</ele>
        <time>2026-06-15T10:17:03.000Z</time>
        <extensions>
          <ns3:TrackPointExtension>
            <ns3:atemp>16.0</ns3:atemp>
          </ns3:TrackPointExtension>
        </extensions>
      </trkpt>
      <trkpt lat="42.57930493913590908050537109375" lon="20.0862973742187023162841796875">
        <ele>2168</ele>
        <time>2026-06-15T10:17:04.000Z</time>
        <extensions>
          <ns3:TrackPointExtension>
            <ns3:atemp>16.0</ns3:atemp>
          </ns3:TrackPointExtension>
        </extensions>
      </trkpt>
      <trkpt lat="42.579257078468799591064453125" lon="20.0862772576510906219482421875">
        <ele>2167.60009765625</ele>
        <time>2026-06-15T10:17:05.000Z</time>
        <extensions>
          <ns3:TrackPointExtension>
            <ns3:atemp>16.0</ns3:atemp>
          </ns3:TrackPointExtension>
        </extensions>
      </trkpt>
      <trkpt lat="42.5792099721729755401611328125" lon="20.0862658582627773284912109375">
        <ele>2167.60009765625</ele>
        <time>2026-06-15T10:17:06.000Z</time>
        <extensions>
          <ns3:TrackPointExtension>
            <ns3:atemp>15.0</ns3:atemp>
          </ns3:TrackPointExtension>
        </extensions>
      </trkpt>
      <trkpt lat="42.5791694037616252899169921875" lon="20.08625169284641742706298828125">
        <ele>2167.199951171875</ele>
        <time>2026-06-15T10:17:07.000Z</time>
        <extensions>
          <ns3:TrackPointExtension>
            <ns3:atemp>16.0</ns3:atemp>
          </ns3:TrackPointExtension>
        </extensions>
      </trkpt>
      <trkpt lat="42.57913805544376373291015625" lon="20.086247920989990234375">
        <ele>2167.199951171875</ele>
        <time>2026-06-15T10:17:08.000Z</time>
        <extensions>
          <ns3:TrackPointExtension>
            <ns3:atemp>16.0</ns3:atemp>
          </ns3:TrackPointExtension>
        </extensions>
      </trkpt>
      <trkpt lat="42.57911768741905689239501953125" lon="20.0862534530460834503173828125">
        <ele>2167.199951171875</ele>
        <time>2026-06-15T10:17:09.000Z</time>
        <extensions>
          <ns3:TrackPointExtension>
            <ns3:atemp>16.0</ns3:atemp>
          </ns3:TrackPointExtension>
        </extensions>
      </trkpt>
      <trkpt lat="42.579113580286502838134765625" lon="20.08626175113022327423095703125">
        <ele>2167.39990234375</ele>
        <time>2026-06-15T10:17:10.000Z</time>
        <extensions>
          <ns3:TrackPointExtension>
            <ns3:atemp>16.0</ns3:atemp>
          </ns3:TrackPointExtension>
        </extensions>
      </trkpt>
      <trkpt lat="42.5791083835065364837646484375" lon="20.08626627735793590545654296875">
        <ele>2167.800048828125</ele>
        <time>2026-06-15T10:17:11.000Z</time>
        <extensions>
          <ns3:TrackPointExtension>
            <ns3:atemp>16.0</ns3:atemp>
          </ns3:TrackPointExtension>
        </extensions>
      </trkpt>
      <trkpt lat="42.57910796441137790679931640625" lon="20.0862641818821430206298828125">
        <ele>2168.199951171875</ele>
        <time>2026-06-15T10:17:12.000Z</time>
        <extensions>
          <ns3:TrackPointExtension>
            <ns3:atemp>15.0</ns3:atemp>
          </ns3:TrackPointExtension>
        </extensions>
      </trkpt>
      <trkpt lat="42.5791080482304096221923828125" lon="20.0862641818821430206298828125">
        <ele>2168.39990234375</ele>
        <time>2026-06-15T10:17:13.000Z</time>
        <extensions>
          <ns3:TrackPointExtension>
            <ns3:atemp>15.0</ns3:atemp>
          </ns3:TrackPointExtension>
        </extensions>
      </trkpt>
      <trkpt lat="42.5791080482304096221923828125" lon="20.0862641818821430206298828125">
        <ele>2168.39990234375</ele>
        <time>2026-06-15T10:17:14.000Z</time>
        <extensions>
          <ns3:TrackPointExtension>
            <ns3:atemp>15.0</ns3:atemp>
          </ns3:TrackPointExtension>
        </extensions>
      </trkpt>
      <trkpt lat="42.5791080482304096221923828125" lon="20.0862641818821430206298828125">
        <ele>2168.39990234375</ele>
        <time>2026-06-15T10:17:15.000Z</time>
        <extensions>
          <ns3:TrackPointExtension>
            <ns3:atemp>15.0</ns3:atemp>
          </ns3:TrackPointExtension>
        </extensions>
      </trkpt>
      <trkpt lat="42.5791080482304096221923828125" lon="20.0862641818821430206298828125">
        <ele>2168.39990234375</ele>
        <time>2026-06-15T10:17:16.000Z</time>
        <extensions>
          <ns3:TrackPointExtension>
            <ns3:atemp>15.0</ns3:atemp>
          </ns3:TrackPointExtension>
        </extensions>
      </trkpt>
      <trkpt lat="42.5791080482304096221923828125" lon="20.0862641818821430206298828125">
        <ele>2168.39990234375</ele>
        <time>2026-06-15T10:17:17.000Z</time>
        <extensions>
          <ns3:TrackPointExtension>
            <ns3:atemp>15.0</ns3:atemp>
          </ns3:TrackPointExtension>
        </extensions>
      </trkpt>
      <trkpt lat="42.57910846732556819915771484375" lon="20.08626426570117473602294921875">
        <ele>2168.39990234375</ele>
        <time>2026-06-15T10:17:18.000Z</time>
        <extensions>
          <ns3:TrackPointExtension>
            <ns3:atemp>15.0</ns3:atemp>
          </ns3:TrackPointExtension>
        </extensions>
      </trkpt>
      <trkpt lat="42.57910327054560184478759765625" lon="20.0862574763596057891845703125">
        <ele>2168.39990234375</ele>
        <time>2026-06-15T10:17:19.000Z</time>
        <extensions>
          <ns3:TrackPointExtension>
            <ns3:atemp>15.0</ns3:atemp>
          </ns3:TrackPointExtension>
        </extensions>
      </trkpt>
      <trkpt lat="42.57909187115728855133056640625" lon="20.08625051937997341156005859375">
        <ele>2168.60009765625</ele>
        <time>2026-06-15T10:17:20.000Z</time>
        <extensions>
          <ns3:TrackPointExtension>
            <ns3:atemp>15.0</ns3:atemp>
          </ns3:TrackPointExtension>
        </extensions>
      </trkpt>
      <trkpt lat="42.57906957529485225677490234375" lon="20.0862376950681209564208984375">
        <ele>2168.60009765625</ele>
        <time>2026-06-15T10:17:21.000Z</time>
        <extensions>
          <ns3:TrackPointExtension>
            <ns3:atemp>15.0</ns3:atemp>
          </ns3:TrackPointExtension>
        </extensions>
      </trkpt>
      <trkpt lat="42.57903805933892726898193359375" lon="20.08622202090919017791748046875">
        <ele>2168.39990234375</ele>
        <time>2026-06-15T10:17:22.000Z</time>
        <extensions>
          <ns3:TrackPointExtension>
            <ns3:atemp>15.0</ns3:atemp>
          </ns3:TrackPointExtension>
        </extensions>
      </trkpt>
      <trkpt lat="42.57899179123342037200927734375" lon="20.08621129207313060760498046875">
        <ele>2168.39990234375</ele>
        <time>2026-06-15T10:17:23.000Z</time>
        <extensions>
          <ns3:TrackPointExtension>
            <ns3:atemp>15.0</ns3:atemp>
          </ns3:TrackPointExtension>
        </extensions>
      </trkpt>
      <trkpt lat="42.57894032634794712066650390625" lon="20.08619888685643672943115234375">
        <ele>2168</ele>
        <time>2026-06-15T10:17:24.000Z</time>
        <extensions>
          <ns3:TrackPointExtension>
            <ns3:atemp>15.0</ns3:atemp>
          </ns3:TrackPointExtension>
        </extensions>
      </trkpt>
      <trkpt lat="42.57889154367148876190185546875" lon="20.08618413470685482025146484375">
        <ele>2167.800048828125</ele>
        <time>2026-06-15T10:17:25.000Z</time>
        <extensions>
          <ns3:TrackPointExtension>
            <ns3:atemp>15.0</ns3:atemp>
          </ns3:TrackPointExtension>
        </extensions>
      </trkpt>
      <trkpt lat="42.57884108461439609527587890625" lon="20.0861773453652858734130859375">
        <ele>2167.60009765625</ele>
        <time>2026-06-15T10:17:26.000Z</time>
        <extensions>
          <ns3:TrackPointExtension>
            <ns3:atemp>16.0</ns3:atemp>
          </ns3:TrackPointExtension>
        </extensions>
      </trkpt>
      <trkpt lat="42.5787855125963687896728515625" lon="20.086179859936237335205078125">
        <ele>2167.39990234375</ele>
        <time>2026-06-15T10:17:27.000Z</time>
        <extensions>
          <ns3:TrackPointExtension>
            <ns3:atemp>16.0</ns3:atemp>
          </ns3:TrackPointExtension>
        </extensions>
      </trkpt>
      <trkpt lat="42.5787372328341007232666015625" lon="20.08618379943072795867919921875">
        <ele>2167.39990234375</ele>
        <time>2026-06-15T10:17:28.000Z</time>
        <extensions>
          <ns3:TrackPointExtension>
            <ns3:atemp>16.0</ns3:atemp>
          </ns3:TrackPointExtension>
        </extensions>
      </trkpt>
      <trkpt lat="42.5786933116614818572998046875" lon="20.086186565458774566650390625">
        <ele>2167.60009765625</ele>
        <time>2026-06-15T10:17:29.000Z</time>
        <extensions>
          <ns3:TrackPointExtension>
            <ns3:atemp>16.0</ns3:atemp>
          </ns3:TrackPointExtension>
        </extensions>
      </trkpt>
      <trkpt lat="42.578649558126926422119140625" lon="20.08619570173323154449462890625">
        <ele>2167.60009765625</ele>
        <time>2026-06-15T10:17:30.000Z</time>
        <extensions>
          <ns3:TrackPointExtension>
            <ns3:atemp>16.0</ns3:atemp>
          </ns3:TrackPointExtension>
        </extensions>
      </trkpt>
      <trkpt lat="42.57860655896365642547607421875" lon="20.08621112443506717681884765625">
        <ele>2167.800048828125</ele>
        <time>2026-06-15T10:17:31.000Z</time>
        <extensions>
          <ns3:TrackPointExtension>
            <ns3:atemp>16.0</ns3:atemp>
          </ns3:TrackPointExtension>
        </extensions>
      </trkpt>
      <trkpt lat="42.5785752944648265838623046875" lon="20.086230151355266571044921875">
        <ele>2167.800048828125</ele>
        <time>2026-06-15T10:17:32.000Z</time>
        <extensions>
          <ns3:TrackPointExtension>
            <ns3:atemp>16.0</ns3:atemp>
          </ns3:TrackPointExtension>
        </extensions>
      </trkpt>
      <trkpt lat="42.57855291478335857391357421875" lon="20.08623962290585041046142578125">
        <ele>2167.800048828125</ele>
        <time>2026-06-15T10:17:33.000Z</time>
        <extensions>
          <ns3:TrackPointExtension>
            <ns3:atemp>16.0</ns3:atemp>
          </ns3:TrackPointExtension>
        </extensions>
      </trkpt>
      <trkpt lat="42.5785352289676666259765625" lon="20.0862467475235462188720703125">
        <ele>2167.800048828125</ele>
        <time>2026-06-15T10:17:34.000Z</time>
        <extensions>
          <ns3:TrackPointExtension>
            <ns3:atemp>16.0</ns3:atemp>
          </ns3:TrackPointExtension>
        </extensions>
      </trkpt>
      <trkpt lat="42.57852374576032161712646484375" lon="20.086258985102176666259765625">
        <ele>2168</ele>
        <time>2026-06-15T10:17:35.000Z</time>
        <extensions>
          <ns3:TrackPointExtension>
            <ns3:atemp>16.0</ns3:atemp>
          </ns3:TrackPointExtension>
        </extensions>
      </trkpt>
      <trkpt lat="42.57851704023778438568115234375" lon="20.086275078356266021728515625">
        <ele>2168</ele>
        <time>2026-06-15T10:17:36.000Z</time>
        <extensions>
          <ns3:TrackPointExtension>
            <ns3:atemp>16.0</ns3:atemp>
          </ns3:TrackPointExtension>
        </extensions>
      </trkpt>
      <trkpt lat="42.57850631140172481536865234375" lon="20.0863054208457469940185546875">
        <ele>2168</ele>
        <time>2026-06-15T10:17:37.000Z</time>
        <extensions>
          <ns3:TrackPointExtension>
            <ns3:atemp>15.0</ns3:atemp>
          </ns3:TrackPointExtension>
        </extensions>
      </trkpt>
      <trkpt lat="42.57849072106182575225830078125" lon="20.08634523488581180572509765625">
        <ele>2168</ele>
        <time>2026-06-15T10:17:38.000Z</time>
        <extensions>
          <ns3:TrackPointExtension>
            <ns3:atemp>15.0</ns3:atemp>
          </ns3:TrackPointExtension>
        </extensions>
      </trkpt>
      <trkpt lat="42.578463144600391387939453125" lon="20.08637943305075168609619140625">
        <ele>2168</ele>
        <time>2026-06-15T10:17:39.000Z</time>
        <extensions>
          <ns3:TrackPointExtension>
            <ns3:atemp>15.0</ns3:atemp>
          </ns3:TrackPointExtension>
        </extensions>
      </trkpt>
      <trkpt lat="42.57843690924346446990966796875" lon="20.0864021480083465576171875">
        <ele>2168</ele>
        <time>2026-06-15T10:17:40.000Z</time>
        <extensions>
          <ns3:TrackPointExtension>
            <ns3:atemp>16.0</ns3:atemp>
          </ns3:TrackPointExtension>
        </extensions>
      </trkpt>
      <trkpt lat="42.57842081598937511444091796875" lon="20.0864180736243724822998046875">
        <ele>2168</ele>
        <time>2026-06-15T10:17:41.000Z</time>
        <extensions>
          <ns3:TrackPointExtension>
            <ns3:atemp>16.0</ns3:atemp>
          </ns3:TrackPointExtension>
        </extensions>
      </trkpt>
      <trkpt lat="42.57840187288820743560791015625" lon="20.08643860928714275360107421875">
        <ele>2168.199951171875</ele>
        <time>2026-06-15T10:17:42.000Z</time>
        <extensions>
          <ns3:TrackPointExtension>
            <ns3:atemp>16.0</ns3:atemp>
          </ns3:TrackPointExtension>
        </extensions>
      </trkpt>
      <trkpt lat="42.57837639190256595611572265625" lon="20.0864603184163570404052734375">
        <ele>2168.199951171875</ele>
        <time>2026-06-15T10:17:43.000Z</time>
        <extensions>
          <ns3:TrackPointExtension>
            <ns3:atemp>16.0</ns3:atemp>
          </ns3:TrackPointExtension>
        </extensions>
      </trkpt>
      <trkpt lat="42.578347139060497283935546875" lon="20.0864851288497447967529296875">
        <ele>2168.39990234375</ele>
        <time>2026-06-15T10:17:44.000Z</time>
        <extensions>
          <ns3:TrackPointExtension>
            <ns3:atemp>16.0</ns3:atemp>
          </ns3:TrackPointExtension>
        </extensions>
      </trkpt>
      <trkpt lat="42.5783191435039043426513671875" lon="20.086508095264434814453125">
        <ele>2168.60009765625</ele>
        <time>2026-06-15T10:17:45.000Z</time>
        <extensions>
          <ns3:TrackPointExtension>
            <ns3:atemp>15.0</ns3:atemp>
          </ns3:TrackPointExtension>
        </extensions>
      </trkpt>
      <trkpt lat="42.57829047739505767822265625" lon="20.08653030730783939361572265625">
        <ele>2168.60009765625</ele>
        <time>2026-06-15T10:17:46.000Z</time>
        <extensions>
          <ns3:TrackPointExtension>
            <ns3:atemp>16.0</ns3:atemp>
          </ns3:TrackPointExtension>
        </extensions>
      </trkpt>
      <trkpt lat="42.5782638229429721832275390625" lon="20.0865458138287067413330078125">
        <ele>2168.60009765625</ele>
        <time>2026-06-15T10:17:47.000Z</time>
        <extensions>
          <ns3:TrackPointExtension>
            <ns3:atemp>16.0</ns3:atemp>
          </ns3:TrackPointExtension>
        </extensions>
      </trkpt>
      <trkpt lat="42.57824127562344074249267578125" lon="20.0865401141345500946044921875">
        <ele>2168.60009765625</ele>
        <time>2026-06-15T10:17:48.000Z</time>
        <extensions>
          <ns3:TrackPointExtension>
            <ns3:atemp>16.0</ns3:atemp>
          </ns3:TrackPointExtension>
        </extensions>
      </trkpt>
      <trkpt lat="42.57821395061910152435302734375" lon="20.086539946496486663818359375">
        <ele>2168.60009765625</ele>
        <time>2026-06-15T10:17:49.000Z</time>
        <extensions>
          <ns3:TrackPointExtension>
            <ns3:atemp>15.0</ns3:atemp>
          </ns3:TrackPointExtension>
        </extensions>
      </trkpt>
      <trkpt lat="42.57817757315933704376220703125" lon="20.08654137142002582550048828125">
        <ele>2168.39990234375</ele>
        <time>2026-06-15T10:17:50.000Z</time>
        <extensions>
          <ns3:TrackPointExtension>
            <ns3:atemp>16.0</ns3:atemp>
          </ns3:TrackPointExtension>
        </extensions>
      </trkpt>
      <trkpt lat="42.57813549600541591644287109375" lon="20.0865344144403934478759765625">
        <ele>2168.199951171875</ele>
        <time>2026-06-15T10:17:51.000Z</time>
        <extensions>
          <ns3:TrackPointExtension>
            <ns3:atemp>16.0</ns3:atemp>
          </ns3:TrackPointExtension>
        </extensions>
      </trkpt>
      <trkpt lat="42.57809475995600223541259765625" lon="20.08652293123304843902587890625">
        <ele>2168</ele>
        <time>2026-06-15T10:17:52.000Z</time>
        <extensions>
          <ns3:TrackPointExtension>
            <ns3:atemp>16.0</ns3:atemp>
          </ns3:TrackPointExtension>
        </extensions>
      </trkpt>
      <trkpt lat="42.57805419154465198516845703125" lon="20.0865183211863040924072265625">
        <ele>2167.60009765625</ele>
        <time>2026-06-15T10:17:53.000Z</time>
        <extensions>
          <ns3:TrackPointExtension>
            <ns3:atemp>15.0</ns3:atemp>
          </ns3:TrackPointExtension>
        </extensions>
      </trkpt>
      <trkpt lat="42.57801278494298458099365234375" lon="20.08651203475892543792724609375">
        <ele>2167.39990234375</ele>
        <time>2026-06-15T10:17:54.000Z</time>
        <extensions>
          <ns3:TrackPointExtension>
            <ns3:atemp>15.0</ns3:atemp>
          </ns3:TrackPointExtension>
        </extensions>
      </trkpt>
      <trkpt lat="42.57796986959874629974365234375" lon="20.08650616742670536041259765625">
        <ele>2167.199951171875</ele>
        <time>2026-06-15T10:17:55.000Z</time>
        <extensions>
          <ns3:TrackPointExtension>
            <ns3:atemp>16.0</ns3:atemp>
          </ns3:TrackPointExtension>
        </extensions>
      </trkpt>
      <trkpt lat="42.5779295526444911956787109375" lon="20.08649594150483608245849609375">
        <ele>2167.199951171875</ele>
        <time>2026-06-15T10:17:56.000Z</time>
        <extensions>
          <ns3:TrackPointExtension>
            <ns3:atemp>16.0</ns3:atemp>
          </ns3:TrackPointExtension>
        </extensions>
      </trkpt>
      <trkpt lat="42.57789258845150470733642578125" lon="20.08649476803839206695556640625">
        <ele>2167</ele>
        <time>2026-06-15T10:17:57.000Z</time>
        <extensions>
          <ns3:TrackPointExtension>
            <ns3:atemp>16.0</ns3:atemp>
          </ns3:TrackPointExtension>
        </extensions>
      </trkpt>
      <trkpt lat="42.57785252295434474945068359375" lon="20.086503066122531890869140625">
        <ele>2167</ele>
        <time>2026-06-15T10:17:58.000Z</time>
        <extensions>
          <ns3:TrackPointExtension>
            <ns3:atemp>16.0</ns3:atemp>
          </ns3:TrackPointExtension>
        </extensions>
      </trkpt>
      <trkpt lat="42.577817402780055999755859375" lon="20.08651144802570343017578125">
        <ele>2167</ele>
        <time>2026-06-15T10:17:59.000Z</time>
        <extensions>
          <ns3:TrackPointExtension>
            <ns3:atemp>16.0</ns3:atemp>
          </ns3:TrackPointExtension>
        </extensions>
      </trkpt>
      <trkpt lat="42.57777809165418148040771484375" lon="20.08652125485241413116455078125">
        <ele>2167</ele>
        <time>2026-06-15T10:18:00.000Z</time>
        <extensions>
          <ns3:TrackPointExtension>
            <ns3:atemp>16.0</ns3:atemp>
          </ns3:TrackPointExtension>
        </extensions>
      </trkpt>
      <trkpt lat="42.5777407921850681304931640625" lon="20.08653516881167888641357421875">
        <ele>2167.199951171875</ele>
        <time>2026-06-15T10:18:01.000Z</time>
        <extensions>
          <ns3:TrackPointExtension>
            <ns3:atemp>16.0</ns3:atemp>
          </ns3:TrackPointExtension>
        </extensions>
      </trkpt>
      <trkpt lat="42.5776978768408298492431640625" lon="20.08654522709548473358154296875">
        <ele>2167.199951171875</ele>
        <time>2026-06-15T10:18:02.000Z</time>
        <extensions>
          <ns3:TrackPointExtension>
            <ns3:atemp>16.0</ns3:atemp>
          </ns3:TrackPointExtension>
        </extensions>
      </trkpt>
      <trkpt lat="42.57765387184917926788330078125" lon="20.0865572132170200347900390625">
        <ele>2167</ele>
        <time>2026-06-15T10:18:03.000Z</time>
        <extensions>
          <ns3:TrackPointExtension>
            <ns3:atemp>16.0</ns3:atemp>
          </ns3:TrackPointExtension>
        </extensions>
      </trkpt>
      <trkpt lat="42.57760827429592609405517578125" lon="20.086564086377620697021484375">
        <ele>2167</ele>
        <time>2026-06-15T10:18:04.000Z</time>
        <extensions>
          <ns3:TrackPointExtension>
            <ns3:atemp>16.0</ns3:atemp>
          </ns3:TrackPointExtension>
        </extensions>
      </trkpt>
      <trkpt lat="42.577563934028148651123046875" lon="20.08656484074890613555908203125">
        <ele>2166.800048828125</ele>
        <time>2026-06-15T10:18:05.000Z</time>
        <extensions>
          <ns3:TrackPointExtension>
            <ns3:atemp>16.0</ns3:atemp>
          </ns3:TrackPointExtension>
        </extensions>
      </trkpt>
      <trkpt lat="42.57751272059977054595947265625" lon="20.0865666009485721588134765625">
        <ele>2166.60009765625</ele>
        <time>2026-06-15T10:18:06.000Z</time>
        <extensions>
          <ns3:TrackPointExtension>
            <ns3:atemp>16.0</ns3:atemp>
          </ns3:TrackPointExtension>
        </extensions>
      </trkpt>
      <trkpt lat="42.57746142335236072540283203125" lon="20.08655972778797149658203125">
        <ele>2166.39990234375</ele>
        <time>2026-06-15T10:18:07.000Z</time>
        <extensions>
          <ns3:TrackPointExtension>
            <ns3:atemp>16.0</ns3:atemp>
          </ns3:TrackPointExtension>
        </extensions>
      </trkpt>
      <trkpt lat="42.57741096429526805877685546875" lon="20.08655360899865627288818359375">
        <ele>2166.39990234375</ele>
        <time>2026-06-15T10:18:08.000Z</time>
        <extensions>
          <ns3:TrackPointExtension>
            <ns3:atemp>16.0</ns3:atemp>
          </ns3:TrackPointExtension>
        </extensions>
      </trkpt>
      <trkpt lat="42.57735983468592166900634765625" lon="20.086540281772613525390625">
        <ele>2166.199951171875</ele>
        <time>2026-06-15T10:18:09.000Z</time>
        <extensions>
          <ns3:TrackPointExtension>
            <ns3:atemp>16.0</ns3:atemp>
          </ns3:TrackPointExtension>
        </extensions>
      </trkpt>
      <trkpt lat="42.57730166427791118621826171875" lon="20.08652561344206333160400390625">
        <ele>2166</ele>
        <time>2026-06-15T10:18:10.000Z</time>
        <extensions>
          <ns3:TrackPointExtension>
            <ns3:atemp>16.0</ns3:atemp>
          </ns3:TrackPointExtension>
        </extensions>
      </trkpt>
      <trkpt lat="42.577244080603122711181640625" lon="20.08650767616927623748779296875">
        <ele>2165.800048828125</ele>
        <time>2026-06-15T10:18:11.000Z</time>
        <extensions>
          <ns3:TrackPointExtension>
            <ns3:atemp>16.0</ns3:atemp>
          </ns3:TrackPointExtension>
        </extensions>
      </trkpt>
      <trkpt lat="42.57718834094703197479248046875" lon="20.0864847935736179351806640625">
        <ele>2165.60009765625</ele>
        <time>2026-06-15T10:18:12.000Z</time>
        <extensions>
          <ns3:TrackPointExtension>
            <ns3:atemp>16.0</ns3:atemp>
          </ns3:TrackPointExtension>
        </extensions>
      </trkpt>
      <trkpt lat="42.57713385857641696929931640625" lon="20.08645688183605670928955078125">
        <ele>2165.39990234375</ele>
        <time>2026-06-15T10:18:13.000Z</time>
        <extensions>
          <ns3:TrackPointExtension>
            <ns3:atemp>15.0</ns3:atemp>
          </ns3:TrackPointExtension>
        </extensions>
      </trkpt>
      <trkpt lat="42.5770802982151508331298828125" lon="20.08643098175525665283203125">
        <ele>2165</ele>
        <time>2026-06-15T10:18:14.000Z</time>
        <extensions>
          <ns3:TrackPointExtension>
            <ns3:atemp>15.0</ns3:atemp>
          </ns3:TrackPointExtension>
        </extensions>
      </trkpt>
      <trkpt lat="42.57702707313001155853271484375" lon="20.086404494941234588623046875">
        <ele>2164.800048828125</ele>
        <time>2026-06-15T10:18:15.000Z</time>
        <extensions>
          <ns3:TrackPointExtension>
            <ns3:atemp>16.0</ns3:atemp>
          </ns3:TrackPointExtension>
        </extensions>
      </trkpt>
      <trkpt lat="42.57698080502450466156005859375" lon="20.0863677822053432464599609375">
        <ele>2164.39990234375</ele>
        <time>2026-06-15T10:18:16.000Z</time>
        <extensions>
          <ns3:TrackPointExtension>
            <ns3:atemp>16.0</ns3:atemp>
          </ns3:TrackPointExtension>
        </extensions>
      </trkpt>
      <trkpt lat="42.576939649879932403564453125" lon="20.0863302312791347503662109375">
        <ele>2164.39990234375</ele>
        <time>2026-06-15T10:18:17.000Z</time>
        <extensions>
          <ns3:TrackPointExtension>
            <ns3:atemp>16.0</ns3:atemp>
          </ns3:TrackPointExtension>
        </extensions>
      </trkpt>
      <trkpt lat="42.5768990814685821533203125" lon="20.08629192598164081573486328125">
        <ele>2164.199951171875</ele>
        <time>2026-06-15T10:18:18.000Z</time>
        <extensions>
          <ns3:TrackPointExtension>
            <ns3:atemp>16.0</ns3:atemp>
          </ns3:TrackPointExtension>
        </extensions>
      </trkpt>
      <trkpt lat="42.576861865818500518798828125" lon="20.086250267922878265380859375">
        <ele>2164</ele>
        <time>2026-06-15T10:18:19.000Z</time>
        <extensions>
          <ns3:TrackPointExtension>
            <ns3:atemp>16.0</ns3:atemp>
          </ns3:TrackPointExtension>
        </extensions>
      </trkpt>
      <trkpt lat="42.5768254883587360382080078125" lon="20.08620156906545162200927734375">
        <ele>2164</ele>
        <time>2026-06-15T10:18:20.000Z</time>
        <extensions>
          <ns3:TrackPointExtension>
            <ns3:atemp>16.0</ns3:atemp>
          </ns3:TrackPointExtension>
        </extensions>
      </trkpt>
      <trkpt lat="42.57678349502384662628173828125" lon="20.0861511938273906707763671875">
        <ele>2163.800048828125</ele>
        <time>2026-06-15T10:18:21.000Z</time>
        <extensions>
          <ns3:TrackPointExtension>
            <ns3:atemp>15.0</ns3:atemp>
          </ns3:TrackPointExtension>
        </extensions>
      </trkpt>
      <trkpt lat="42.57674225606024265289306640625" lon="20.0861002318561077117919921875">
        <ele>2163.39990234375</ele>
        <time>2026-06-15T10:18:22.000Z</time>
        <extensions>
          <ns3:TrackPointExtension>
            <ns3:atemp>15.0</ns3:atemp>
          </ns3:TrackPointExtension>
        </extensions>
      </trkpt>
      <trkpt lat="42.57669665850698947906494140625" lon="20.08605421520769596099853515625">
        <ele>2163.199951171875</ele>
        <time>2026-06-15T10:18:23.000Z</time>
        <extensions>
          <ns3:TrackPointExtension>
            <ns3:atemp>15.0</ns3:atemp>
          </ns3:TrackPointExtension>
        </extensions>
      </trkpt>
      <trkpt lat="42.5766494683921337127685546875" lon="20.08601280860602855682373046875">
        <ele>2162.800048828125</ele>
        <time>2026-06-15T10:18:24.000Z</time>
        <extensions>
          <ns3:TrackPointExtension>
            <ns3:atemp>15.0</ns3:atemp>
          </ns3:TrackPointExtension>
        </extensions>
      </trkpt>
      <trkpt lat="42.5765938125550746917724609375" lon="20.08598514832556247711181640625">
        <ele>2162.60009765625</ele>
        <time>2026-06-15T10:18:25.000Z</time>
        <extensions>
          <ns3:TrackPointExtension>
            <ns3:atemp>15.0</ns3:atemp>
          </ns3:TrackPointExtension>
        </extensions>
      </trkpt>
      <trkpt lat="42.5765287689864635467529296875" lon="20.08596855215728282928466796875">
        <ele>2162.39990234375</ele>
        <time>2026-06-15T10:18:26.000Z</time>
        <extensions>
          <ns3:TrackPointExtension>
            <ns3:atemp>15.0</ns3:atemp>
          </ns3:TrackPointExtension>
        </extensions>
      </trkpt>
      <trkpt lat="42.5764597021043300628662109375" lon="20.0859647803008556365966796875">
        <ele>2162.199951171875</ele>
        <time>2026-06-15T10:18:27.000Z</time>
        <extensions>
          <ns3:TrackPointExtension>
            <ns3:atemp>15.0</ns3:atemp>
          </ns3:TrackPointExtension>
        </extensions>
      </trkpt>
      <trkpt lat="42.57640094496309757232666015625" lon="20.08597207255661487579345703125">
        <ele>2161.800048828125</ele>
        <time>2026-06-15T10:18:28.000Z</time>
        <extensions>
          <ns3:TrackPointExtension>
            <ns3:atemp>15.0</ns3:atemp>
          </ns3:TrackPointExtension>
        </extensions>
      </trkpt>
      <trkpt lat="42.57635048590600490570068359375" lon="20.08599671535193920135498046875">
        <ele>2161.39990234375</ele>
        <time>2026-06-15T10:18:29.000Z</time>
        <extensions>
          <ns3:TrackPointExtension>
            <ns3:atemp>15.0</ns3:atemp>
          </ns3:TrackPointExtension>
        </extensions>
      </trkpt>
      <trkpt lat="42.57631025277078151702880859375" lon="20.08603694848716259002685546875">
        <ele>2161</ele>
        <time>2026-06-15T10:18:30.000Z</time>
        <extensions>
          <ns3:TrackPointExtension>
            <ns3:atemp>15.0</ns3:atemp>
          </ns3:TrackPointExtension>
        </extensions>
      </trkpt>
      <trkpt lat="42.57626138627529144287109375" lon="20.08606628514826297760009765625">
        <ele>2160.60009765625</ele>
        <time>2026-06-15T10:18:31.000Z</time>
        <extensions>
          <ns3:TrackPointExtension>
            <ns3:atemp>15.0</ns3:atemp>
          </ns3:TrackPointExtension>
        </extensions>
      </trkpt>
      <trkpt lat="42.57621067576110363006591796875" lon="20.08608371950685977935791015625">
        <ele>2160</ele>
        <time>2026-06-15T10:18:32.000Z</time>
        <extensions>
          <ns3:TrackPointExtension>
            <ns3:atemp>15.0</ns3:atemp>
          </ns3:TrackPointExtension>
        </extensions>
      </trkpt>
      <trkpt lat="42.57616080343723297119140625" lon="20.08608992211520671844482421875">
        <ele>2159.39990234375</ele>
        <time>2026-06-15T10:18:33.000Z</time>
        <extensions>
          <ns3:TrackPointExtension>
            <ns3:atemp>15.0</ns3:atemp>
          </ns3:TrackPointExtension>
        </extensions>
      </trkpt>
      <trkpt lat="42.57611327804625034332275390625" lon="20.0860901735723018646240234375">
        <ele>2159</ele>
        <time>2026-06-15T10:18:34.000Z</time>
        <extensions>
          <ns3:TrackPointExtension>
            <ns3:atemp>15.0</ns3:atemp>
          </ns3:TrackPointExtension>
        </extensions>
      </trkpt>
      <trkpt lat="42.576063908636569976806640625" lon="20.0860720686614513397216796875">
        <ele>2158.39990234375</ele>
        <time>2026-06-15T10:18:35.000Z</time>
        <extensions>
          <ns3:TrackPointExtension>
            <ns3:atemp>15.0</ns3:atemp>
          </ns3:TrackPointExtension>
        </extensions>
      </trkpt>
      <trkpt lat="42.5760144554078578948974609375" lon="20.0860469229519367218017578125">
        <ele>2157.800048828125</ele>
        <time>2026-06-15T10:18:36.000Z</time>
        <extensions>
          <ns3:TrackPointExtension>
            <ns3:atemp>15.0</ns3:atemp>
          </ns3:TrackPointExtension>
        </extensions>
      </trkpt>
      <trkpt lat="42.57596634328365325927734375" lon="20.08601431734859943389892578125">
        <ele>2157.199951171875</ele>
        <time>2026-06-15T10:18:37.000Z</time>
        <extensions>
          <ns3:TrackPointExtension>
            <ns3:atemp>15.0</ns3:atemp>
          </ns3:TrackPointExtension>
        </extensions>
      </trkpt>
      <trkpt lat="42.5759158842265605926513671875" lon="20.0859882496297359466552734375">
        <ele>2156.800048828125</ele>
        <time>2026-06-15T10:18:38.000Z</time>
        <extensions>
          <ns3:TrackPointExtension>
            <ns3:atemp>16.0</ns3:atemp>
          </ns3:TrackPointExtension>
        </extensions>
      </trkpt>
      <trkpt lat="42.57586902938783168792724609375" lon="20.0859631039202213287353515625">
        <ele>2156.39990234375</ele>
        <time>2026-06-15T10:18:39.000Z</time>
        <extensions>
          <ns3:TrackPointExtension>
            <ns3:atemp>15.0</ns3:atemp>
          </ns3:TrackPointExtension>
        </extensions>
      </trkpt>
      <trkpt lat="42.575816810131072998046875" lon="20.0859461724758148193359375">
        <ele>2156</ele>
        <time>2026-06-15T10:18:40.000Z</time>
        <extensions>
          <ns3:TrackPointExtension>
            <ns3:atemp>15.0</ns3:atemp>
          </ns3:TrackPointExtension>
        </extensions>
      </trkpt>
      <trkpt lat="42.575770206749439239501953125" lon="20.08593611419200897216796875">
        <ele>2155.800048828125</ele>
        <time>2026-06-15T10:18:41.000Z</time>
        <extensions>
          <ns3:TrackPointExtension>
            <ns3:atemp>16.0</ns3:atemp>
          </ns3:TrackPointExtension>
        </extensions>
      </trkpt>
      <trkpt lat="42.5757294707000255584716796875" lon="20.08592530153691768646240234375">
        <ele>2155.60009765625</ele>
        <time>2026-06-15T10:18:42.000Z</time>
        <extensions>
          <ns3:TrackPointExtension>
            <ns3:atemp>15.0</ns3:atemp>
          </ns3:TrackPointExtension>
        </extensions>
      </trkpt>
      <trkpt lat="42.57569141685962677001953125" lon="20.08590602315962314605712890625">
        <ele>2155.60009765625</ele>
        <time>2026-06-15T10:18:43.000Z</time>
        <extensions>
          <ns3:TrackPointExtension>
            <ns3:atemp>15.0</ns3:atemp>
          </ns3:TrackPointExtension>
        </extensions>
      </trkpt>
      <trkpt lat="42.575650513172149658203125" lon="20.08588506840169429779052734375">
        <ele>2155.60009765625</ele>
        <time>2026-06-15T10:18:44.000Z</time>
        <extensions>
          <ns3:TrackPointExtension>
            <ns3:atemp>15.0</ns3:atemp>
          </ns3:TrackPointExtension>
        </extensions>
      </trkpt>
      <trkpt lat="42.57561237551271915435791015625" lon="20.08586713112890720367431640625">
        <ele>2155.60009765625</ele>
        <time>2026-06-15T10:18:45.000Z</time>
        <extensions>
          <ns3:TrackPointExtension>
            <ns3:atemp>15.0</ns3:atemp>
          </ns3:TrackPointExtension>
        </extensions>
      </trkpt>
      <trkpt lat="42.5755794346332550048828125" lon="20.08585321716964244842529296875">
        <ele>2155.60009765625</ele>
        <time>2026-06-15T10:18:46.000Z</time>
        <extensions>
          <ns3:TrackPointExtension>
            <ns3:atemp>15.0</ns3:atemp>
          </ns3:TrackPointExtension>
        </extensions>
      </trkpt>
      <trkpt lat="42.57554850541055202484130859375" lon="20.08584567345678806304931640625">
        <ele>2155.60009765625</ele>
        <time>2026-06-15T10:18:47.000Z</time>
        <extensions>
          <ns3:TrackPointExtension>
            <ns3:atemp>15.0</ns3:atemp>
          </ns3:TrackPointExtension>
        </extensions>
      </trkpt>
      <trkpt lat="42.5755148939788341522216796875" lon="20.08584491908550262451171875">
        <ele>2155.800048828125</ele>
        <time>2026-06-15T10:18:48.000Z</time>
        <extensions>
          <ns3:TrackPointExtension>
            <ns3:atemp>15.0</ns3:atemp>
          </ns3:TrackPointExtension>
        </extensions>
      </trkpt>
      <trkpt lat="42.57548161782324314117431640625" lon="20.08584600873291492462158203125">
        <ele>2155.800048828125</ele>
        <time>2026-06-15T10:18:49.000Z</time>
        <extensions>
          <ns3:TrackPointExtension>
            <ns3:atemp>15.0</ns3:atemp>
          </ns3:TrackPointExtension>
        </extensions>
      </trkpt>
      <trkpt lat="42.57544524036347866058349609375" lon="20.0858605094254016876220703125">
        <ele>2155.60009765625</ele>
        <time>2026-06-15T10:18:50.000Z</time>
        <extensions>
          <ns3:TrackPointExtension>
            <ns3:atemp>15.0</ns3:atemp>
          </ns3:TrackPointExtension>
        </extensions>
      </trkpt>
      <trkpt lat="42.57541246712207794189453125" lon="20.08588657714426517486572265625">
        <ele>2155.60009765625</ele>
        <time>2026-06-15T10:18:51.000Z</time>
        <extensions>
          <ns3:TrackPointExtension>
            <ns3:atemp>15.0</ns3:atemp>
          </ns3:TrackPointExtension>
        </extensions>
      </trkpt>
      <trkpt lat="42.5753784365952014923095703125" lon="20.08591390214860439300537109375">
        <ele>2155.199951171875</ele>
        <time>2026-06-15T10:18:52.000Z</time>
        <extensions>
          <ns3:TrackPointExtension>
            <ns3:atemp>15.0</ns3:atemp>
          </ns3:TrackPointExtension>
        </extensions>
      </trkpt>
      <trkpt lat="42.5753472559154033660888671875" lon="20.0859513692557811737060546875">
        <ele>2154.800048828125</ele>
        <time>2026-06-15T10:18:53.000Z</time>
        <extensions>
          <ns3:TrackPointExtension>
            <ns3:atemp>15.0</ns3:atemp>
          </ns3:TrackPointExtension>
        </extensions>
      </trkpt>
      <trkpt lat="42.57531800307333469390869140625" lon="20.08599369786679744720458984375">
        <ele>2154.39990234375</ele>
        <time>2026-06-15T10:18:54.000Z</time>
        <extensions>
          <ns3:TrackPointExtension>
            <ns3:atemp>15.0</ns3:atemp>
          </ns3:TrackPointExtension>
        </extensions>
      </trkpt>
      <trkpt lat="42.5752895884215831756591796875" lon="20.08604030124843120574951171875">
        <ele>2153.60009765625</ele>
        <time>2026-06-15T10:18:55.000Z</time>
        <extensions>
          <ns3:TrackPointExtension>
            <ns3:atemp>15.0</ns3:atemp>
          </ns3:TrackPointExtension>
        </extensions>
      </trkpt>
      <trkpt lat="42.57525480352342128753662109375" lon="20.0860831327736377716064453125">
        <ele>2153</ele>
        <time>2026-06-15T10:18:56.000Z</time>
        <extensions>
          <ns3:TrackPointExtension>
            <ns3:atemp>15.0</ns3:atemp>
          </ns3:TrackPointExtension>
        </extensions>
      </trkpt>
      <trkpt lat="42.575215660035610198974609375" lon="20.086129568517208099365234375">
        <ele>2152.39990234375</ele>
        <time>2026-06-15T10:18:57.000Z</time>
        <extensions>
          <ns3:TrackPointExtension>
            <ns3:atemp>15.0</ns3:atemp>
          </ns3:TrackPointExtension>
        </extensions>
      </trkpt>
      <trkpt lat="42.5751782767474651336669921875" lon="20.08618212305009365081787109375">
        <ele>2151.60009765625</ele>
        <time>2026-06-15T10:18:58.000Z</time>
        <extensions>
          <ns3:TrackPointExtension>
            <ns3:atemp>15.0</ns3:atemp>
          </ns3:TrackPointExtension>
        </extensions>
      </trkpt>
      <trkpt lat="42.5751367025077342987060546875" lon="20.08623844943940639495849609375">
        <ele>2151</ele>
        <time>2026-06-15T10:18:59.000Z</time>
        <extensions>
          <ns3:TrackPointExtension>
            <ns3:atemp>15.0</ns3:atemp>
          </ns3:TrackPointExtension>
        </extensions>
      </trkpt>
      <trkpt lat="42.57509403862059116363525390625" lon="20.08630089461803436279296875">
        <ele>2150.39990234375</ele>
        <time>2026-06-15T10:19:00.000Z</time>
        <extensions>
          <ns3:TrackPointExtension>
            <ns3:atemp>15.0</ns3:atemp>
          </ns3:TrackPointExtension>
        </extensions>
      </trkpt>
      <trkpt lat="42.57503838278353214263916015625" lon="20.086362920701503753662109375">
        <ele>2149.39990234375</ele>
        <time>2026-06-15T10:19:01.000Z</time>
        <extensions>
          <ns3:TrackPointExtension>
            <ns3:atemp>15.0</ns3:atemp>
          </ns3:TrackPointExtension>
        </extensions>
      </trkpt>
      <trkpt lat="42.57497333921492099761962890625" lon="20.08641027845442295074462890625">
        <ele>2148.800048828125</ele>
        <time>2026-06-15T10:19:02.000Z</time>
        <extensions>
          <ns3:TrackPointExtension>
            <ns3:atemp>15.0</ns3:atemp>
          </ns3:TrackPointExtension>
        </extensions>
      </trkpt>
      <trkpt lat="42.57492003031075000762939453125" lon="20.0864638388156890869140625">
        <ele>2147.800048828125</ele>
        <time>2026-06-15T10:19:03.000Z</time>
        <extensions>
          <ns3:TrackPointExtension>
            <ns3:atemp>15.0</ns3:atemp>
          </ns3:TrackPointExtension>
        </extensions>
      </trkpt>
      <trkpt lat="42.5748793780803680419921875" lon="20.08653583936393260955810546875">
        <ele>2147</ele>
        <time>2026-06-15T10:19:04.000Z</time>
        <extensions>
          <ns3:TrackPointExtension>
            <ns3:atemp>15.0</ns3:atemp>
          </ns3:TrackPointExtension>
        </extensions>
      </trkpt>
      <trkpt lat="42.57484308443963527679443359375" lon="20.08662686683237552642822265625">
        <ele>2146.199951171875</ele>
        <time>2026-06-15T10:19:05.000Z</time>
        <extensions>
          <ns3:TrackPointExtension>
            <ns3:atemp>15.0</ns3:atemp>
          </ns3:TrackPointExtension>
        </extensions>
      </trkpt>
      <trkpt lat="42.5748054496943950653076171875" lon="20.086712278425693511962890625">
        <ele>2145.39990234375</ele>
        <time>2026-06-15T10:19:06.000Z</time>
        <extensions>
          <ns3:TrackPointExtension>
            <ns3:atemp>15.0</ns3:atemp>
          </ns3:TrackPointExtension>
        </extensions>
      </trkpt>
      <trkpt lat="42.574754320085048675537109375" lon="20.08678394369781017303466796875">
        <ele>2144.800048828125</ele>
        <time>2026-06-15T10:19:07.000Z</time>
        <extensions>
          <ns3:TrackPointExtension>
            <ns3:atemp>15.0</ns3:atemp>
          </ns3:TrackPointExtension>
        </extensions>
      </trkpt>
      <trkpt lat="42.57469497621059417724609375" lon="20.08684144355356693267822265625">
        <ele>2144</ele>
        <time>2026-06-15T10:19:08.000Z</time>
        <extensions>
          <ns3:TrackPointExtension>
            <ns3:atemp>15.0</ns3:atemp>
          </ns3:TrackPointExtension>
        </extensions>
      </trkpt>
      <trkpt lat="42.57462901063263416290283203125" lon="20.0868797488510608673095703125">
        <ele>2143.39990234375</ele>
        <time>2026-06-15T10:19:09.000Z</time>
        <extensions>
          <ns3:TrackPointExtension>
            <ns3:atemp>15.0</ns3:atemp>
          </ns3:TrackPointExtension>
        </extensions>
      </trkpt>
      <trkpt lat="42.57456178776919841766357421875" lon="20.0869238376617431640625">
        <ele>2142.60009765625</ele>
        <time>2026-06-15T10:19:10.000Z</time>
        <extensions>
          <ns3:TrackPointExtension>
            <ns3:atemp>15.0</ns3:atemp>
          </ns3:TrackPointExtension>
        </extensions>
      </trkpt>
      <trkpt lat="42.57450093515217304229736328125" lon="20.08695091120898723602294921875">
        <ele>2142</ele>
        <time>2026-06-15T10:19:11.000Z</time>
        <extensions>
          <ns3:TrackPointExtension>
            <ns3:atemp>15.0</ns3:atemp>
          </ns3:TrackPointExtension>
        </extensions>
      </trkpt>
      <trkpt lat="42.57443421520292758941650390625" lon="20.086967758834362030029296875">
        <ele>2141.39990234375</ele>
        <time>2026-06-15T10:19:12.000Z</time>
        <extensions>
          <ns3:TrackPointExtension>
            <ns3:atemp>15.0</ns3:atemp>
          </ns3:TrackPointExtension>
        </extensions>
      </trkpt>
      <trkpt lat="42.57436632178723812103271484375" lon="20.0869957543909549713134765625">
        <ele>2140.800048828125</ele>
        <time>2026-06-15T10:19:13.000Z</time>
        <extensions>
          <ns3:TrackPointExtension>
            <ns3:atemp>15.0</ns3:atemp>
          </ns3:TrackPointExtension>
        </extensions>
      </trkpt>
      <trkpt lat="42.5742978416383266448974609375" lon="20.0870514102280139923095703125">
        <ele>2140</ele>
        <time>2026-06-15T10:19:14.000Z</time>
        <extensions>
          <ns3:TrackPointExtension>
            <ns3:atemp>15.0</ns3:atemp>
          </ns3:TrackPointExtension>
        </extensions>
      </trkpt>
      <trkpt lat="42.5742383301258087158203125" lon="20.08710480295121669769287109375">
        <ele>2139.39990234375</ele>
        <time>2026-06-15T10:19:15.000Z</time>
        <extensions>
          <ns3:TrackPointExtension>
            <ns3:atemp>15.0</ns3:atemp>
          </ns3:TrackPointExtension>
        </extensions>
      </trkpt>
      <trkpt lat="42.57418393157422542572021484375" lon="20.08715040050446987152099609375">
        <ele>2138.60009765625</ele>
        <time>2026-06-15T10:19:16.000Z</time>
        <extensions>
          <ns3:TrackPointExtension>
            <ns3:atemp>15.0</ns3:atemp>
          </ns3:TrackPointExtension>
        </extensions>
      </trkpt>
      <trkpt lat="42.5741251744329929351806640625" lon="20.08719163946807384490966796875">
        <ele>2137.60009765625</ele>
        <time>2026-06-15T10:19:17.000Z</time>
        <extensions>
          <ns3:TrackPointExtension>
            <ns3:atemp>15.0</ns3:atemp>
          </ns3:TrackPointExtension>
        </extensions>
      </trkpt>
      <trkpt lat="42.5740557722747325897216796875" lon="20.08721745572984218597412109375">
        <ele>2136.800048828125</ele>
        <time>2026-06-15T10:19:18.000Z</time>
        <extensions>
          <ns3:TrackPointExtension>
            <ns3:atemp>15.0</ns3:atemp>
          </ns3:TrackPointExtension>
        </extensions>
      </trkpt>
      <trkpt lat="42.57398058660328388214111328125" lon="20.0872327946126461029052734375">
        <ele>2135.800048828125</ele>
        <time>2026-06-15T10:19:19.000Z</time>
        <extensions>
          <ns3:TrackPointExtension>
            <ns3:atemp>15.0</ns3:atemp>
          </ns3:TrackPointExtension>
        </extensions>
      </trkpt>
      <trkpt lat="42.5738975219428539276123046875" lon="20.087253749370574951171875">
        <ele>2135</ele>
        <time>2026-06-15T10:19:20.000Z</time>
        <extensions>
          <ns3:TrackPointExtension>
            <ns3:atemp>15.0</ns3:atemp>
          </ns3:TrackPointExtension>
        </extensions>
      </trkpt>
      <trkpt lat="42.57381697185337543487548828125" lon="20.0872894562780857086181640625">
        <ele>2134.199951171875</ele>
        <time>2026-06-15T10:19:21.000Z</time>
        <extensions>
          <ns3:TrackPointExtension>
            <ns3:atemp>15.0</ns3:atemp>
          </ns3:TrackPointExtension>
        </extensions>
      </trkpt>
      <trkpt lat="42.57373566739261150360107421875" lon="20.08732474409043788909912109375">
        <ele>2133.39990234375</ele>
        <time>2026-06-15T10:19:22.000Z</time>
        <extensions>
          <ns3:TrackPointExtension>
            <ns3:atemp>15.0</ns3:atemp>
          </ns3:TrackPointExtension>
        </extensions>
      </trkpt>
      <trkpt lat="42.57366592995822429656982421875" lon="20.0873702578246593475341796875">
        <ele>2132.800048828125</ele>
        <time>2026-06-15T10:19:23.000Z</time>
        <extensions>
          <ns3:TrackPointExtension>
            <ns3:atemp>15.0</ns3:atemp>
          </ns3:TrackPointExtension>
        </extensions>
      </trkpt>
      <trkpt lat="42.57361379452049732208251953125" lon="20.08742800913751125335693359375">
        <ele>2132.39990234375</ele>
        <time>2026-06-15T10:19:24.000Z</time>
        <extensions>
          <ns3:TrackPointExtension>
            <ns3:atemp>15.0</ns3:atemp>
          </ns3:TrackPointExtension>
        </extensions>
      </trkpt>
      <trkpt lat="42.573580183088779449462890625" lon="20.08749715983867645263671875">
        <ele>2131.60009765625</ele>
        <time>2026-06-15T10:19:25.000Z</time>
        <extensions>
          <ns3:TrackPointExtension>
            <ns3:atemp>15.0</ns3:atemp>
          </ns3:TrackPointExtension>
        </extensions>
      </trkpt>
      <trkpt lat="42.57353634573519229888916015625" lon="20.0875355489552021026611328125">
        <ele>2131.199951171875</ele>
        <time>2026-06-15T10:19:26.000Z</time>
        <extensions>
          <ns3:TrackPointExtension>
            <ns3:atemp>15.0</ns3:atemp>
          </ns3:TrackPointExtension>
        </extensions>
      </trkpt>
      <trkpt lat="42.573490329086780548095703125" lon="20.08755994029343128204345703125">
        <ele>2130.39990234375</ele>
        <time>2026-06-15T10:19:27.000Z</time>
        <extensions>
          <ns3:TrackPointExtension>
            <ns3:atemp>15.0</ns3:atemp>
          </ns3:TrackPointExtension>
        </extensions>
      </trkpt>
      <trkpt lat="42.57345185615122318267822265625" lon="20.08754669688642024993896484375">
        <ele>2129.800048828125</ele>
        <time>2026-06-15T10:19:28.000Z</time>
        <extensions>
          <ns3:TrackPointExtension>
            <ns3:atemp>15.0</ns3:atemp>
          </ns3:TrackPointExtension>
        </extensions>
      </trkpt>
      <trkpt lat="42.57343232631683349609375" lon="20.087511576712131500244140625">
        <ele>2129.39990234375</ele>
        <time>2026-06-15T10:19:29.000Z</time>
        <extensions>
          <ns3:TrackPointExtension>
            <ns3:atemp>15.0</ns3:atemp>
          </ns3:TrackPointExtension>
        </extensions>
      </trkpt>
      <trkpt lat="42.57343433797359466552734375" lon="20.08748651482164859771728515625">
        <ele>2129</ele>
        <time>2026-06-15T10:19:30.000Z</time>
        <extensions>
          <ns3:TrackPointExtension>
            <ns3:atemp>15.0</ns3:atemp>
          </ns3:TrackPointExtension>
        </extensions>
      </trkpt>
      <trkpt lat="42.57344095967710018157958984375" lon="20.08747796528041362762451171875">
        <ele>2128.60009765625</ele>
        <time>2026-06-15T10:19:31.000Z</time>
        <extensions>
          <ns3:TrackPointExtension>
            <ns3:atemp>15.0</ns3:atemp>
          </ns3:TrackPointExtension>
        </extensions>
      </trkpt>
      <trkpt lat="42.57345386780798435211181640625" lon="20.08746497333049774169921875">
        <ele>2128.39990234375</ele>
        <time>2026-06-15T10:19:32.000Z</time>
        <extensions>
          <ns3:TrackPointExtension>
            <ns3:atemp>15.0</ns3:atemp>
          </ns3:TrackPointExtension>
        </extensions>
      </trkpt>
      <trkpt lat="42.57346384227275848388671875" lon="20.08745022118091583251953125">
        <ele>2128</ele>
        <time>2026-06-15T10:19:33.000Z</time>
        <extensions>
          <ns3:TrackPointExtension>
            <ns3:atemp>15.0</ns3:atemp>
          </ns3:TrackPointExtension>
        </extensions>
      </trkpt>
      <trkpt lat="42.57347750477492809295654296875" lon="20.08742935024201869964599609375">
        <ele>2127.800048828125</ele>
        <time>2026-06-15T10:19:34.000Z</time>
        <extensions>
          <ns3:TrackPointExtension>
            <ns3:atemp>15.0</ns3:atemp>
          </ns3:TrackPointExtension>
        </extensions>
      </trkpt>
      <trkpt lat="42.573490329086780548095703125" lon="20.08740856312215328216552734375">
        <ele>2127.39990234375</ele>
        <time>2026-06-15T10:19:35.000Z</time>
        <extensions>
          <ns3:TrackPointExtension>
            <ns3:atemp>15.0</ns3:atemp>
          </ns3:TrackPointExtension>
        </extensions>
      </trkpt>
      <trkpt lat="42.57350650615990161895751953125" lon="20.08738341741263866424560546875">
        <ele>2127.199951171875</ele>
        <time>2026-06-15T10:19:36.000Z</time>
        <extensions>
          <ns3:TrackPointExtension>
            <ns3:atemp>15.0</ns3:atemp>
          </ns3:TrackPointExtension>
        </extensions>
      </trkpt>
      <trkpt lat="42.57352494634687900543212890625" lon="20.087354667484760284423828125">
        <ele>2127</ele>
        <time>2026-06-15T10:19:37.000Z</time>
        <extensions>
          <ns3:TrackPointExtension>
            <ns3:atemp>15.0</ns3:atemp>
          </ns3:TrackPointExtension>
        </extensions>
      </trkpt>
      <trkpt lat="42.5735384412109851837158203125" lon="20.08733245544135570526123046875">
        <ele>2126.800048828125</ele>
        <time>2026-06-15T10:19:38.000Z</time>
        <extensions>
          <ns3:TrackPointExtension>
            <ns3:atemp>15.0</ns3:atemp>
          </ns3:TrackPointExtension>
        </extensions>
      </trkpt>
      <trkpt lat="42.57354841567575931549072265625" lon="20.0873229838907718658447265625">
        <ele>2126.60009765625</ele>
        <time>2026-06-15T10:19:39.000Z</time>
        <extensions>
          <ns3:TrackPointExtension>
            <ns3:atemp>15.0</ns3:atemp>
          </ns3:TrackPointExtension>
        </extensions>
      </trkpt>
      <trkpt lat="42.57355612702667713165283203125" lon="20.0873122550547122955322265625">
        <ele>2126.39990234375</ele>
        <time>2026-06-15T10:19:40.000Z</time>
        <extensions>
          <ns3:TrackPointExtension>
            <ns3:atemp>15.0</ns3:atemp>
          </ns3:TrackPointExtension>
        </extensions>
      </trkpt>
      <trkpt lat="42.57356618531048297882080078125" lon="20.08731015957891941070556640625">
        <ele>2126.39990234375</ele>
        <time>2026-06-15T10:19:41.000Z</time>
        <extensions>
          <ns3:TrackPointExtension>
            <ns3:atemp>15.0</ns3:atemp>
          </ns3:TrackPointExtension>
        </extensions>
      </trkpt>
      <trkpt lat="42.5735806860029697418212890625" lon="20.08729406632483005523681640625">
        <ele>2126.199951171875</ele>
        <time>2026-06-15T10:19:42.000Z</time>
        <extensions>
          <ns3:TrackPointExtension>
            <ns3:atemp>15.0</ns3:atemp>
          </ns3:TrackPointExtension>
        </extensions>
      </trkpt>
      <trkpt lat="42.57360021583735942840576171875" lon="20.0872827507555484771728515625">
        <ele>2126.199951171875</ele>
        <time>2026-06-15T10:19:43.000Z</time>
        <extensions>
          <ns3:TrackPointExtension>
            <ns3:atemp>15.0</ns3:atemp>
          </ns3:TrackPointExtension>
        </extensions>
      </trkpt>
      <trkpt lat="42.5736202485859394073486328125" lon="20.0872643105685710906982421875">
        <ele>2126</ele>
        <time>2026-06-15T10:19:44.000Z</time>
        <extensions>
          <ns3:TrackPointExtension>
            <ns3:atemp>15.0</ns3:atemp>
          </ns3:TrackPointExtension>
        </extensions>
      </trkpt>
      <trkpt lat="42.573643215000629425048828125" lon="20.08724276907742023468017578125">
        <ele>2125.800048828125</ele>
        <time>2026-06-15T10:19:45.000Z</time>
        <extensions>
          <ns3:TrackPointExtension>
            <ns3:atemp>15.0</ns3:atemp>
          </ns3:TrackPointExtension>
        </extensions>
      </trkpt>
      <trkpt lat="42.57366911508142948150634765625" lon="20.0872175395488739013671875">
        <ele>2125.60009765625</ele>
        <time>2026-06-15T10:19:46.000Z</time>
        <extensions>
          <ns3:TrackPointExtension>
            <ns3:atemp>15.0</ns3:atemp>
          </ns3:TrackPointExtension>
        </extensions>
      </trkpt>
      <trkpt lat="42.573697865009307861328125" lon="20.08719331584870815277099609375">
        <ele>2125.199951171875</ele>
        <time>2026-06-15T10:19:47.000Z</time>
        <extensions>
          <ns3:TrackPointExtension>
            <ns3:atemp>15.0</ns3:atemp>
          </ns3:TrackPointExtension>
        </extensions>
      </trkpt>
      <trkpt lat="42.57372778840363025665283203125" lon="20.0871667452156543731689453125">
        <ele>2125</ele>
        <time>2026-06-15T10:19:48.000Z</time>
        <extensions>
          <ns3:TrackPointExtension>
            <ns3:atemp>15.0</ns3:atemp>
          </ns3:TrackPointExtension>
        </extensions>
      </trkpt>
      <trkpt lat="42.573756538331508636474609375" lon="20.08714201860129833221435546875">
        <ele>2124.800048828125</ele>
        <time>2026-06-15T10:19:49.000Z</time>
        <extensions>
          <ns3:TrackPointExtension>
            <ns3:atemp>15.0</ns3:atemp>
          </ns3:TrackPointExtension>
        </extensions>
      </trkpt>
      <trkpt lat="42.57378579117357730865478515625" lon="20.0871238298714160919189453125">
        <ele>2124.60009765625</ele>
        <time>2026-06-15T10:19:50.000Z</time>
        <extensions>
          <ns3:TrackPointExtension>
            <ns3:atemp>15.0</ns3:atemp>
          </ns3:TrackPointExtension>
        </extensions>
      </trkpt>
      <trkpt lat="42.57381328381597995758056640625" lon="20.087101198732852935791015625">
        <ele>2124.39990234375</ele>
        <time>2026-06-15T10:19:51.000Z</time>
        <extensions>
          <ns3:TrackPointExtension>
            <ns3:atemp>15.0</ns3:atemp>
          </ns3:TrackPointExtension>
        </extensions>
      </trkpt>
      <trkpt lat="42.57383842952549457550048828125" lon="20.08707898668944835662841796875">
        <ele>2124.199951171875</ele>
        <time>2026-06-15T10:19:52.000Z</time>
        <extensions>
          <ns3:TrackPointExtension>
            <ns3:atemp>15.0</ns3:atemp>
          </ns3:TrackPointExtension>
        </extensions>
      </trkpt>
      <trkpt lat="42.573866508901119232177734375" lon="20.08705836720764636993408203125">
        <ele>2124</ele>
        <time>2026-06-15T10:19:53.000Z</time>
        <extensions>
          <ns3:TrackPointExtension>
            <ns3:atemp>15.0</ns3:atemp>
          </ns3:TrackPointExtension>
        </extensions>
      </trkpt>
      <trkpt lat="42.57389366626739501953125" lon="20.08703657425940036773681640625">
        <ele>2123.800048828125</ele>
        <time>2026-06-15T10:19:54.000Z</time>
        <extensions>
          <ns3:TrackPointExtension>
            <ns3:atemp>15.0</ns3:atemp>
          </ns3:TrackPointExtension>
        </extensions>
      </trkpt>
      <trkpt lat="42.5739189796149730682373046875" lon="20.087016038596630096435546875">
        <ele>2123.800048828125</ele>
        <time>2026-06-15T10:19:55.000Z</time>
        <extensions>
          <ns3:TrackPointExtension>
            <ns3:atemp>15.0</ns3:atemp>
          </ns3:TrackPointExtension>
        </extensions>
      </trkpt>
      <trkpt lat="42.57394286803901195526123046875" lon="20.08699516765773296356201171875">
        <ele>2123.60009765625</ele>
        <time>2026-06-15T10:19:56.000Z</time>
        <extensions>
          <ns3:TrackPointExtension>
            <ns3:atemp>15.0</ns3:atemp>
          </ns3:TrackPointExtension>
        </extensions>
      </trkpt>
      <trkpt lat="42.57396868430078029632568359375" lon="20.086980499327182769775390625">
        <ele>2123.39990234375</ele>
        <time>2026-06-15T10:19:57.000Z</time>
        <extensions>
          <ns3:TrackPointExtension>
            <ns3:atemp>15.0</ns3:atemp>
          </ns3:TrackPointExtension>
        </extensions>
      </trkpt>
      <trkpt lat="42.57399198599159717559814453125" lon="20.086963064968585968017578125">
        <ele>2123.39990234375</ele>
        <time>2026-06-15T10:19:58.000Z</time>
        <extensions>
          <ns3:TrackPointExtension>
            <ns3:atemp>15.0</ns3:atemp>
          </ns3:TrackPointExtension>
        </extensions>
      </trkpt>
      <trkpt lat="42.57401168346405029296875" lon="20.0869466364383697509765625">
        <ele>2123.199951171875</ele>
        <time>2026-06-15T10:19:59.000Z</time>
        <extensions>
          <ns3:TrackPointExtension>
            <ns3:atemp>15.0</ns3:atemp>
          </ns3:TrackPointExtension>
        </extensions>
      </trkpt>
      <trkpt lat="42.57403054274618625640869140625" lon="20.08692777715623378753662109375">
        <ele>2123.199951171875</ele>
        <time>2026-06-15T10:20:00.000Z</time>
        <extensions>
          <ns3:TrackPointExtension>
            <ns3:atemp>15.0</ns3:atemp>
          </ns3:TrackPointExtension>
        </extensions>
      </trkpt>
      <trkpt lat="42.5740586221218109130859375" lon="20.08690212853252887725830078125">
        <ele>2123</ele>
        <time>2026-06-15T10:20:01.000Z</time>
        <extensions>
          <ns3:TrackPointExtension>
            <ns3:atemp>15.0</ns3:atemp>
          </ns3:TrackPointExtension>
        </extensions>
      </trkpt>
      <trkpt lat="42.57407027296721935272216796875" lon="20.0868660025298595428466796875">
        <ele>2122.800048828125</ele>
        <time>2026-06-15T10:20:02.000Z</time>
        <extensions>
          <ns3:TrackPointExtension>
            <ns3:atemp>15.0</ns3:atemp>
          </ns3:TrackPointExtension>
        </extensions>
      </trkpt>
      <trkpt lat="42.5740641541779041290283203125" lon="20.08683054707944393157958984375">
        <ele>2122.60009765625</ele>
        <time>2026-06-15T10:20:03.000Z</time>
        <extensions>
          <ns3:TrackPointExtension>
            <ns3:atemp>15.0</ns3:atemp>
          </ns3:TrackPointExtension>
        </extensions>
      </trkpt>
      <trkpt lat="42.57403808645904064178466796875" lon="20.0868039764463901519775390625">
        <ele>2122.39990234375</ele>
        <time>2026-06-15T10:20:04.000Z</time>
        <extensions>
          <ns3:TrackPointExtension>
            <ns3:atemp>15.0</ns3:atemp>
          </ns3:TrackPointExtension>
        </extensions>
      </trkpt>
      <trkpt lat="42.57400422357022762298583984375" lon="20.086808167397975921630859375">
        <ele>2122.199951171875</ele>
        <time>2026-06-15T10:20:05.000Z</time>
        <extensions>
          <ns3:TrackPointExtension>
            <ns3:atemp>15.0</ns3:atemp>
          </ns3:TrackPointExtension>
        </extensions>
      </trkpt>
      <trkpt lat="42.5739692710340023040771484375" lon="20.086823590099811553955078125">
        <ele>2121.800048828125</ele>
        <time>2026-06-15T10:20:06.000Z</time>
        <extensions>
          <ns3:TrackPointExtension>
            <ns3:atemp>15.0</ns3:atemp>
          </ns3:TrackPointExtension>
        </extensions>
      </trkpt>
      <trkpt lat="42.57393498905003070831298828125" lon="20.08685208857059478759765625">
        <ele>2121.39990234375</ele>
        <time>2026-06-15T10:20:07.000Z</time>
        <extensions>
          <ns3:TrackPointExtension>
            <ns3:atemp>15.0</ns3:atemp>
          </ns3:TrackPointExtension>
        </extensions>
      </trkpt>
      <trkpt lat="42.5739030539989471435546875" lon="20.086881928145885467529296875">
        <ele>2121.199951171875</ele>
        <time>2026-06-15T10:20:08.000Z</time>
        <extensions>
          <ns3:TrackPointExtension>
            <ns3:atemp>15.0</ns3:atemp>
          </ns3:TrackPointExtension>
        </extensions>
      </trkpt>
      <trkpt lat="42.5738690234720706939697265625" lon="20.0869089178740978240966796875">
        <ele>2120.800048828125</ele>
        <time>2026-06-15T10:20:09.000Z</time>
        <extensions>
          <ns3:TrackPointExtension>
            <ns3:atemp>15.0</ns3:atemp>
          </ns3:TrackPointExtension>
        </extensions>
      </trkpt>
      <trkpt lat="42.57383574731647968292236328125" lon="20.08693196810781955718994140625">
        <ele>2120.60009765625</ele>
        <time>2026-06-15T10:20:10.000Z</time>
        <extensions>
          <ns3:TrackPointExtension>
            <ns3:atemp>15.0</ns3:atemp>
          </ns3:TrackPointExtension>
        </extensions>
      </trkpt>
      <trkpt lat="42.57380356080830097198486328125" lon="20.08695040829479694366455078125">
        <ele>2120.199951171875</ele>
        <time>2026-06-15T10:20:11.000Z</time>
        <extensions>
          <ns3:TrackPointExtension>
            <ns3:atemp>15.0</ns3:atemp>
          </ns3:TrackPointExtension>
        </extensions>
      </trkpt>
      <trkpt lat="42.57376818917691707611083984375" lon="20.086971782147884368896484375">
        <ele>2120</ele>
        <time>2026-06-15T10:20:12.000Z</time>
        <extensions>
          <ns3:TrackPointExtension>
            <ns3:atemp>15.0</ns3:atemp>
          </ns3:TrackPointExtension>
        </extensions>
      </trkpt>
      <trkpt lat="42.57372996769845485687255859375" lon="20.08699826896190643310546875">
        <ele>2119.800048828125</ele>
        <time>2026-06-15T10:20:13.000Z</time>
        <extensions>
          <ns3:TrackPointExtension>
            <ns3:atemp>15.0</ns3:atemp>
          </ns3:TrackPointExtension>
        </extensions>
      </trkpt>
      <trkpt lat="42.5736873038113117218017578125" lon="20.08701897226274013519287109375">
        <ele>2119.60009765625</ele>
        <time>2026-06-15T10:20:14.000Z</time>
        <extensions>
          <ns3:TrackPointExtension>
            <ns3:atemp>15.0</ns3:atemp>
          </ns3:TrackPointExtension>
        </extensions>
      </trkpt>
      <trkpt lat="42.5736420415341854095458984375" lon="20.08703204803168773651123046875">
        <ele>2119.39990234375</ele>
        <time>2026-06-15T10:20:15.000Z</time>
        <extensions>
          <ns3:TrackPointExtension>
            <ns3:atemp>15.0</ns3:atemp>
          </ns3:TrackPointExtension>
        </extensions>
      </trkpt>
      <trkpt lat="42.5735977850854396820068359375" lon="20.08704545907676219940185546875">
        <ele>2119.199951171875</ele>
        <time>2026-06-15T10:20:16.000Z</time>
        <extensions>
          <ns3:TrackPointExtension>
            <ns3:atemp>15.0</ns3:atemp>
          </ns3:TrackPointExtension>
        </extensions>
      </trkpt>
      <trkpt lat="42.5735498405992984771728515625" lon="20.08706004358828067779541015625">
        <ele>2118.800048828125</ele>
        <time>2026-06-15T10:20:17.000Z</time>
        <extensions>
          <ns3:TrackPointExtension>
            <ns3:atemp>15.0</ns3:atemp>
          </ns3:TrackPointExtension>
        </extensions>
      </trkpt>
      <trkpt lat="42.57350273430347442626953125" lon="20.08707362227141857147216796875">
        <ele>2118.60009765625</ele>
        <time>2026-06-15T10:20:18.000Z</time>
        <extensions>
          <ns3:TrackPointExtension>
            <ns3:atemp>15.0</ns3:atemp>
          </ns3:TrackPointExtension>
        </extensions>
      </trkpt>
      <trkpt lat="42.57345219142735004425048828125" lon="20.0870805792510509490966796875">
        <ele>2118.39990234375</ele>
        <time>2026-06-15T10:20:19.000Z</time>
        <extensions>
          <ns3:TrackPointExtension>
            <ns3:atemp>15.0</ns3:atemp>
          </ns3:TrackPointExtension>
        </extensions>
      </trkpt>
      <trkpt lat="42.57340081036090850830078125" lon="20.0870745442807674407958984375">
        <ele>2118.199951171875</ele>
        <time>2026-06-15T10:20:20.000Z</time>
        <extensions>
          <ns3:TrackPointExtension>
            <ns3:atemp>15.0</ns3:atemp>
          </ns3:TrackPointExtension>
        </extensions>
      </trkpt>
      <trkpt lat="42.5733500160276889801025390625" lon="20.087052918970584869384765625">
        <ele>2117.800048828125</ele>
        <time>2026-06-15T10:20:21.000Z</time>
        <extensions>
          <ns3:TrackPointExtension>
            <ns3:atemp>15.0</ns3:atemp>
          </ns3:TrackPointExtension>
        </extensions>
      </trkpt>
      <trkpt lat="42.57330433465540409088134765625" lon="20.08702643215656280517578125">
        <ele>2117.60009765625</ele>
        <time>2026-06-15T10:20:22.000Z</time>
        <extensions>
          <ns3:TrackPointExtension>
            <ns3:atemp>15.0</ns3:atemp>
          </ns3:TrackPointExtension>
        </extensions>
      </trkpt>
      <trkpt lat="42.57326829247176647186279296875" lon="20.087010003626346588134765625">
        <ele>2117.199951171875</ele>
        <time>2026-06-15T10:20:23.000Z</time>
        <extensions>
          <ns3:TrackPointExtension>
            <ns3:atemp>15.0</ns3:atemp>
          </ns3:TrackPointExtension>
        </extensions>
      </trkpt>
      <trkpt lat="42.57323543541133403778076171875" lon="20.08699131198227405548095703125">
        <ele>2116.800048828125</ele>
        <time>2026-06-15T10:20:24.000Z</time>
        <extensions>
          <ns3:TrackPointExtension>
            <ns3:atemp>15.0</ns3:atemp>
          </ns3:TrackPointExtension>
        </extensions>
      </trkpt>
      <trkpt lat="42.57320274598896503448486328125" lon="20.08697253651916980743408203125">
        <ele>2116.60009765625</ele>
        <time>2026-06-15T10:20:25.000Z</time>
        <extensions>
          <ns3:TrackPointExtension>
            <ns3:atemp>15.0</ns3:atemp>
          </ns3:TrackPointExtension>
        </extensions>
      </trkpt>
      <trkpt lat="42.57316402159631252288818359375" lon="20.08696340024471282958984375">
        <ele>2116.199951171875</ele>
        <time>2026-06-15T10:20:26.000Z</time>
        <extensions>
          <ns3:TrackPointExtension>
            <ns3:atemp>15.0</ns3:atemp>
          </ns3:TrackPointExtension>
        </extensions>
      </trkpt>
      <trkpt lat="42.5731190107762813568115234375" lon="20.08695040829479694366455078125">
        <ele>2116</ele>
        <time>2026-06-15T10:20:27.000Z</time>
        <extensions>
          <ns3:TrackPointExtension>
            <ns3:atemp>15.0</ns3:atemp>
          </ns3:TrackPointExtension>
        </extensions>
      </trkpt>
      <trkpt lat="42.5730734132230281829833984375" lon="20.08694085292518138885498046875">
        <ele>2115.39990234375</ele>
        <time>2026-06-15T10:20:28.000Z</time>
        <extensions>
          <ns3:TrackPointExtension>
            <ns3:atemp>15.0</ns3:atemp>
          </ns3:TrackPointExtension>
        </extensions>
      </trkpt>
      <trkpt lat="42.5730261392891407012939453125" lon="20.086939595639705657958984375">
        <ele>2115</ele>
        <time>2026-06-15T10:20:29.000Z</time>
        <extensions>
          <ns3:TrackPointExtension>
            <ns3:atemp>15.0</ns3:atemp>
          </ns3:TrackPointExtension>
        </extensions>
      </trkpt>
      <trkpt lat="42.5729822181165218353271484375" lon="20.08692258037626743316650390625">
        <ele>2114.60009765625</ele>
        <time>2026-06-15T10:20:30.000Z</time>
        <extensions>
          <ns3:TrackPointExtension>
            <ns3:atemp>15.0</ns3:atemp>
          </ns3:TrackPointExtension>
        </extensions>
      </trkpt>
      <trkpt lat="42.5729527138173580169677734375" lon="20.08689693175256252288818359375">
        <ele>2114.199951171875</ele>
        <time>2026-06-15T10:20:31.000Z</time>
        <extensions>
          <ns3:TrackPointExtension>
            <ns3:atemp>15.0</ns3:atemp>
          </ns3:TrackPointExtension>
        </extensions>
      </trkpt>
      <trkpt lat="42.572932429611682891845703125" lon="20.08687480352818965911865234375">
        <ele>2113.800048828125</ele>
        <time>2026-06-15T10:20:32.000Z</time>
        <extensions>
          <ns3:TrackPointExtension>
            <ns3:atemp>15.0</ns3:atemp>
          </ns3:TrackPointExtension>
        </extensions>
      </trkpt>
      <trkpt lat="42.57291239686310291290283203125" lon="20.0868522562086582183837890625">
        <ele>2113.199951171875</ele>
        <time>2026-06-15T10:20:33.000Z</time>
        <extensions>
          <ns3:TrackPointExtension>
            <ns3:atemp>15.0</ns3:atemp>
          </ns3:TrackPointExtension>
        </extensions>
      </trkpt>
      <trkpt lat="42.57290250621736049652099609375" lon="20.0868405215442180633544921875">
        <ele>2112.800048828125</ele>
        <time>2026-06-15T10:20:34.000Z</time>
        <extensions>
          <ns3:TrackPointExtension>
            <ns3:atemp>15.0</ns3:atemp>
          </ns3:TrackPointExtension>
        </extensions>
      </trkpt>
      <trkpt lat="42.57290032692253589630126953125" lon="20.08683758787810802459716796875">
        <ele>2112.39990234375</ele>
        <time>2026-06-15T10:20:35.000Z</time>
        <extensions>
          <ns3:TrackPointExtension>
            <ns3:atemp>15.0</ns3:atemp>
          </ns3:TrackPointExtension>
        </extensions>
      </trkpt>
      <trkpt lat="42.572894208133220672607421875" lon="20.0868314690887928009033203125">
        <ele>2112.199951171875</ele>
        <time>2026-06-15T10:20:36.000Z</time>
        <extensions>
          <ns3:TrackPointExtension>
            <ns3:atemp>15.0</ns3:atemp>
          </ns3:TrackPointExtension>
        </extensions>
      </trkpt>
      <trkpt lat="42.5728782825171947479248046875" lon="20.086812861263751983642578125">
        <ele>2111.800048828125</ele>
        <time>2026-06-15T10:20:37.000Z</time>
        <extensions>
          <ns3:TrackPointExtension>
            <ns3:atemp>15.0</ns3:atemp>
          </ns3:TrackPointExtension>
        </extensions>
      </trkpt>
      <trkpt lat="42.5728551484644412994384765625" lon="20.08679173886775970458984375">
        <ele>2111.60009765625</ele>
        <time>2026-06-15T10:20:38.000Z</time>
        <extensions>
          <ns3:TrackPointExtension>
            <ns3:atemp>15.0</ns3:atemp>
          </ns3:TrackPointExtension>
        </extensions>
      </trkpt>
      <trkpt lat="42.57283042185008525848388671875" lon="20.08676835335791110992431640625">
        <ele>2111.39990234375</ele>
        <time>2026-06-15T10:20:39.000Z</time>
        <extensions>
          <ns3:TrackPointExtension>
            <ns3:atemp>15.0</ns3:atemp>
          </ns3:TrackPointExtension>
        </extensions>
      </trkpt>
      <trkpt lat="42.57280594669282436370849609375" lon="20.08674639277160167694091796875">
        <ele>2111.199951171875</ele>
        <time>2026-06-15T10:20:40.000Z</time>
        <extensions>
          <ns3:TrackPointExtension>
            <ns3:atemp>15.0</ns3:atemp>
          </ns3:TrackPointExtension>
        </extensions>
      </trkpt>
      <trkpt lat="42.5727827288210391998291015625" lon="20.0867241807281970977783203125">
        <ele>2111</ele>
        <time>2026-06-15T10:20:41.000Z</time>
        <extensions>
          <ns3:TrackPointExtension>
            <ns3:atemp>15.0</ns3:atemp>
          </ns3:TrackPointExtension>
        </extensions>
      </trkpt>
      <trkpt lat="42.57275984622538089752197265625" lon="20.0866976939141750335693359375">
        <ele>2110.60009765625</ele>
        <time>2026-06-15T10:20:42.000Z</time>
        <extensions>
          <ns3:TrackPointExtension>
            <ns3:atemp>15.0</ns3:atemp>
          </ns3:TrackPointExtension>
        </extensions>
      </trkpt>
      <trkpt lat="42.57273805327713489532470703125" lon="20.086672045290470123291015625">
        <ele>2110.39990234375</ele>
        <time>2026-06-15T10:20:43.000Z</time>
        <extensions>
          <ns3:TrackPointExtension>
            <ns3:atemp>15.0</ns3:atemp>
          </ns3:TrackPointExtension>
        </extensions>
      </trkpt>
      <trkpt lat="42.5727180205285549163818359375" lon="20.086654610931873321533203125">
        <ele>2110.199951171875</ele>
        <time>2026-06-15T10:20:44.000Z</time>
        <extensions>
          <ns3:TrackPointExtension>
            <ns3:atemp>15.0</ns3:atemp>
          </ns3:TrackPointExtension>
        </extensions>
      </trkpt>
      <trkpt lat="42.57271324284374713897705078125" lon="20.08664631284773349761962890625">
        <ele>2109.800048828125</ele>
        <time>2026-06-15T10:20:45.000Z</time>
        <extensions>
          <ns3:TrackPointExtension>
            <ns3:atemp>15.0</ns3:atemp>
          </ns3:TrackPointExtension>
        </extensions>
      </trkpt>
      <trkpt lat="42.57271818816661834716796875" lon="20.08664430119097232818603515625">
        <ele>2109.60009765625</ele>
        <time>2026-06-15T10:20:46.000Z</time>
        <extensions>
          <ns3:TrackPointExtension>
            <ns3:atemp>15.0</ns3:atemp>
          </ns3:TrackPointExtension>
        </extensions>
      </trkpt>
      <trkpt lat="42.57271760143339633941650390625" lon="20.08664329536259174346923828125">
        <ele>2109.39990234375</ele>
        <time>2026-06-15T10:20:47.000Z</time>
        <extensions>
          <ns3:TrackPointExtension>
            <ns3:atemp>15.0</ns3:atemp>
          </ns3:TrackPointExtension>
        </extensions>
      </trkpt>
      <trkpt lat="42.57271760143339633941650390625" lon="20.08664329536259174346923828125">
        <ele>2109.39990234375</ele>
        <time>2026-06-15T10:20:48.000Z</time>
        <extensions>
          <ns3:TrackPointExtension>
            <ns3:atemp>15.0</ns3:atemp>
          </ns3:TrackPointExtension>
        </extensions>
      </trkpt>
      <trkpt lat="42.57271760143339633941650390625" lon="20.08664329536259174346923828125">
        <ele>2109.39990234375</ele>
        <time>2026-06-15T10:20:49.000Z</time>
        <extensions>
          <ns3:TrackPointExtension>
            <ns3:atemp>15.0</ns3:atemp>
          </ns3:TrackPointExtension>
        </extensions>
      </trkpt>
      <trkpt lat="42.57271760143339633941650390625" lon="20.08664329536259174346923828125">
        <ele>2109.39990234375</ele>
        <time>2026-06-15T10:20:50.000Z</time>
        <extensions>
          <ns3:TrackPointExtension>
            <ns3:atemp>15.0</ns3:atemp>
          </ns3:TrackPointExtension>
        </extensions>
      </trkpt>
      <trkpt lat="42.57271760143339633941650390625" lon="20.08664329536259174346923828125">
        <ele>2109.199951171875</ele>
        <time>2026-06-15T10:20:51.000Z</time>
        <extensions>
          <ns3:TrackPointExtension>
            <ns3:atemp>15.0</ns3:atemp>
          </ns3:TrackPointExtension>
        </extensions>
      </trkpt>
      <trkpt lat="42.57271760143339633941650390625" lon="20.08664329536259174346923828125">
        <ele>2109.199951171875</ele>
        <time>2026-06-15T10:20:52.000Z</time>
        <extensions>
          <ns3:TrackPointExtension>
            <ns3:atemp>15.0</ns3:atemp>
          </ns3:TrackPointExtension>
        </extensions>
      </trkpt>
      <trkpt lat="42.57271760143339633941650390625" lon="20.08664329536259174346923828125">
        <ele>2109</ele>
        <time>2026-06-15T10:20:53.000Z</time>
        <extensions>
          <ns3:TrackPointExtension>
            <ns3:atemp>15.0</ns3:atemp>
          </ns3:TrackPointExtension>
        </extensions>
      </trkpt>
      <trkpt lat="42.57271760143339633941650390625" lon="20.08664329536259174346923828125">
        <ele>2109</ele>
        <time>2026-06-15T10:20:54.000Z</time>
        <extensions>
          <ns3:TrackPointExtension>
            <ns3:atemp>15.0</ns3:atemp>
          </ns3:TrackPointExtension>
        </extensions>
      </trkpt>
      <trkpt lat="42.57271760143339633941650390625" lon="20.08664329536259174346923828125">
        <ele>2108.800048828125</ele>
        <time>2026-06-15T10:20:55.000Z</time>
        <extensions>
          <ns3:TrackPointExtension>
            <ns3:atemp>15.0</ns3:atemp>
          </ns3:TrackPointExtension>
        </extensions>
      </trkpt>
      <trkpt lat="42.57271760143339633941650390625" lon="20.08664329536259174346923828125">
        <ele>2108.800048828125</ele>
        <time>2026-06-15T10:20:56.000Z</time>
        <extensions>
          <ns3:TrackPointExtension>
            <ns3:atemp>15.0</ns3:atemp>
          </ns3:TrackPointExtension>
        </extensions>
      </trkpt>
      <trkpt lat="42.57271760143339633941650390625" lon="20.08664329536259174346923828125">
        <ele>2108.800048828125</ele>
        <time>2026-06-15T10:20:57.000Z</time>
        <extensions>
          <ns3:TrackPointExtension>
            <ns3:atemp>15.0</ns3:atemp>
          </ns3:TrackPointExtension>
        </extensions>
      </trkpt>
      <trkpt lat="42.57271760143339633941650390625" lon="20.08664329536259174346923828125">
        <ele>2108.800048828125</ele>
        <time>2026-06-15T10:20:58.000Z</time>
        <extensions>
          <ns3:TrackPointExtension>
            <ns3:atemp>15.0</ns3:atemp>
          </ns3:TrackPointExtension>
        </extensions>
      </trkpt>
      <trkpt lat="42.57271760143339633941650390625" lon="20.08664329536259174346923828125">
        <ele>2108.800048828125</ele>
        <time>2026-06-15T10:20:59.000Z</time>
        <extensions>
          <ns3:TrackPointExtension>
            <ns3:atemp>15.0</ns3:atemp>
          </ns3:TrackPointExtension>
        </extensions>
      </trkpt>
      <trkpt lat="42.57271760143339633941650390625" lon="20.08664329536259174346923828125">
        <ele>2108.800048828125</ele>
        <time>2026-06-15T10:21:00.000Z</time>
        <extensions>
          <ns3:TrackPointExtension>
            <ns3:atemp>15.0</ns3:atemp>
          </ns3:TrackPointExtension>
        </extensions>
      </trkpt>
      <trkpt lat="42.57271760143339633941650390625" lon="20.08664329536259174346923828125">
        <ele>2108.800048828125</ele>
        <time>2026-06-15T10:21:01.000Z</time>
        <extensions>
          <ns3:TrackPointExtension>
            <ns3:atemp>15.0</ns3:atemp>
          </ns3:TrackPointExtension>
        </extensions>
      </trkpt>
      <trkpt lat="42.57271760143339633941650390625" lon="20.08664329536259174346923828125">
        <ele>2109</ele>
        <time>2026-06-15T10:21:02.000Z</time>
        <extensions>
          <ns3:TrackPointExtension>
            <ns3:atemp>15.0</ns3:atemp>
          </ns3:TrackPointExtension>
        </extensions>
      </trkpt>
      <trkpt lat="42.57271760143339633941650390625" lon="20.08664329536259174346923828125">
        <ele>2109</ele>
        <time>2026-06-15T10:21:03.000Z</time>
        <extensions>
          <ns3:TrackPointExtension>
            <ns3:atemp>15.0</ns3:atemp>
          </ns3:TrackPointExtension>
        </extensions>
      </trkpt>
      <trkpt lat="42.57271760143339633941650390625" lon="20.08664329536259174346923828125">
        <ele>2108.800048828125</ele>
        <time>2026-06-15T10:21:04.000Z</time>
        <extensions>
          <ns3:TrackPointExtension>
            <ns3:atemp>15.0</ns3:atemp>
          </ns3:TrackPointExtension>
        </extensions>
      </trkpt>
      <trkpt lat="42.57271760143339633941650390625" lon="20.08664329536259174346923828125">
        <ele>2108.800048828125</ele>
        <time>2026-06-15T10:21:05.000Z</time>
        <extensions>
          <ns3:TrackPointExtension>
            <ns3:atemp>15.0</ns3:atemp>
          </ns3:TrackPointExtension>
        </extensions>
      </trkpt>
      <trkpt lat="42.57271760143339633941650390625" lon="20.08664329536259174346923828125">
        <ele>2108.800048828125</ele>
        <time>2026-06-15T10:21:06.000Z</time>
        <extensions>
          <ns3:TrackPointExtension>
            <ns3:atemp>15.0</ns3:atemp>
          </ns3:TrackPointExtension>
        </extensions>
      </trkpt>
      <trkpt lat="42.57271760143339633941650390625" lon="20.08664329536259174346923828125">
        <ele>2108.60009765625</ele>
        <time>2026-06-15T10:21:07.000Z</time>
        <extensions>
          <ns3:TrackPointExtension>
            <ns3:atemp>15.0</ns3:atemp>
          </ns3:TrackPointExtension>
        </extensions>
      </trkpt>
      <trkpt lat="42.57271760143339633941650390625" lon="20.08664329536259174346923828125">
        <ele>2108.60009765625</ele>
        <time>2026-06-15T10:21:08.000Z</time>
        <extensions>
          <ns3:TrackPointExtension>
            <ns3:atemp>15.0</ns3:atemp>
          </ns3:TrackPointExtension>
        </extensions>
      </trkpt>
      <trkpt lat="42.57271760143339633941650390625" lon="20.08664329536259174346923828125">
        <ele>2108.60009765625</ele>
        <time>2026-06-15T10:21:09.000Z</time>
        <extensions>
          <ns3:TrackPointExtension>
            <ns3:atemp>15.0</ns3:atemp>
          </ns3:TrackPointExtension>
        </extensions>
      </trkpt>
      <trkpt lat="42.57271760143339633941650390625" lon="20.08664329536259174346923828125">
        <ele>2108.60009765625</ele>
        <time>2026-06-15T10:21:10.000Z</time>
        <extensions>
          <ns3:TrackPointExtension>
            <ns3:atemp>15.0</ns3:atemp>
          </ns3:TrackPointExtension>
        </extensions>
      </trkpt>
      <trkpt lat="42.57271760143339633941650390625" lon="20.08664329536259174346923828125">
        <ele>2108.60009765625</ele>
        <time>2026-06-15T10:21:11.000Z</time>
        <extensions>
          <ns3:TrackPointExtension>
            <ns3:atemp>15.0</ns3:atemp>
          </ns3:TrackPointExtension>
        </extensions>
      </trkpt>
      <trkpt lat="42.57271760143339633941650390625" lon="20.08664329536259174346923828125">
        <ele>2108.60009765625</ele>
        <time>2026-06-15T10:21:12.000Z</time>
        <extensions>
          <ns3:TrackPointExtension>
            <ns3:atemp>15.0</ns3:atemp>
          </ns3:TrackPointExtension>
        </extensions>
      </trkpt>
      <trkpt lat="42.57271760143339633941650390625" lon="20.08664329536259174346923828125">
        <ele>2108.800048828125</ele>
        <time>2026-06-15T10:21:13.000Z</time>
        <extensions>
          <ns3:TrackPointExtension>
            <ns3:atemp>15.0</ns3:atemp>
          </ns3:TrackPointExtension>
        </extensions>
      </trkpt>
      <trkpt lat="42.57271760143339633941650390625" lon="20.08664329536259174346923828125">
        <ele>2108.800048828125</ele>
        <time>2026-06-15T10:21:14.000Z</time>
        <extensions>
          <ns3:TrackPointExtension>
            <ns3:atemp>15.0</ns3:atemp>
          </ns3:TrackPointExtension>
        </extensions>
      </trkpt>
      <trkpt lat="42.57271760143339633941650390625" lon="20.08664329536259174346923828125">
        <ele>2108.800048828125</ele>
        <time>2026-06-15T10:21:15.000Z</time>
        <extensions>
          <ns3:TrackPointExtension>
            <ns3:atemp>15.0</ns3:atemp>
          </ns3:TrackPointExtension>
        </extensions>
      </trkpt>
      <trkpt lat="42.5727175176143646240234375" lon="20.086645223200321197509765625">
        <ele>2108.800048828125</ele>
        <time>2026-06-15T10:21:16.000Z</time>
        <extensions>
          <ns3:TrackPointExtension>
            <ns3:atemp>15.0</ns3:atemp>
          </ns3:TrackPointExtension>
        </extensions>
      </trkpt>
      <trkpt lat="42.572709135711193084716796875" lon="20.08663960732519626617431640625">
        <ele>2108.800048828125</ele>
        <time>2026-06-15T10:21:17.000Z</time>
        <extensions>
          <ns3:TrackPointExtension>
            <ns3:atemp>15.0</ns3:atemp>
          </ns3:TrackPointExtension>
        </extensions>
      </trkpt>
      <trkpt lat="42.5726948864758014678955078125" lon="20.086628459393978118896484375">
        <ele>2109</ele>
        <time>2026-06-15T10:21:18.000Z</time>
        <extensions>
          <ns3:TrackPointExtension>
            <ns3:atemp>15.0</ns3:atemp>
          </ns3:TrackPointExtension>
        </extensions>
      </trkpt>
      <trkpt lat="42.57268105633556842803955078125" lon="20.08661898784339427947998046875">
        <ele>2109</ele>
        <time>2026-06-15T10:21:19.000Z</time>
        <extensions>
          <ns3:TrackPointExtension>
            <ns3:atemp>15.0</ns3:atemp>
          </ns3:TrackPointExtension>
        </extensions>
      </trkpt>
      <trkpt lat="42.5726690702140331268310546875" lon="20.08660800755023956298828125">
        <ele>2109.199951171875</ele>
        <time>2026-06-15T10:21:20.000Z</time>
        <extensions>
          <ns3:TrackPointExtension>
            <ns3:atemp>15.0</ns3:atemp>
          </ns3:TrackPointExtension>
        </extensions>
      </trkpt>
      <trkpt lat="42.5726519711315631866455078125" lon="20.0865964405238628387451171875">
        <ele>2109.39990234375</ele>
        <time>2026-06-15T10:21:21.000Z</time>
        <extensions>
          <ns3:TrackPointExtension>
            <ns3:atemp>15.0</ns3:atemp>
          </ns3:TrackPointExtension>
        </extensions>
      </trkpt>
      <trkpt lat="42.572641409933567047119140625" lon="20.08658562786877155303955078125">
        <ele>2109.60009765625</ele>
        <time>2026-06-15T10:21:22.000Z</time>
        <extensions>
          <ns3:TrackPointExtension>
            <ns3:atemp>15.0</ns3:atemp>
          </ns3:TrackPointExtension>
        </extensions>
      </trkpt>
      <trkpt lat="42.5726419128477573394775390625" lon="20.08658093400299549102783203125">
        <ele>2109.800048828125</ele>
        <time>2026-06-15T10:21:23.000Z</time>
        <extensions>
          <ns3:TrackPointExtension>
            <ns3:atemp>15.0</ns3:atemp>
          </ns3:TrackPointExtension>
        </extensions>
      </trkpt>
      <trkpt lat="42.57263881154358386993408203125" lon="20.086580850183963775634765625">
        <ele>2110</ele>
        <time>2026-06-15T10:21:24.000Z</time>
        <extensions>
          <ns3:TrackPointExtension>
            <ns3:atemp>15.0</ns3:atemp>
          </ns3:TrackPointExtension>
        </extensions>
      </trkpt>
      <trkpt lat="42.57263881154358386993408203125" lon="20.086580850183963775634765625">
        <ele>2110</ele>
        <time>2026-06-15T10:21:25.000Z</time>
        <extensions>
          <ns3:TrackPointExtension>
            <ns3:atemp>15.0</ns3:atemp>
          </ns3:TrackPointExtension>
        </extensions>
      </trkpt>
      <trkpt lat="42.57263881154358386993408203125" lon="20.086580850183963775634765625">
        <ele>2110</ele>
        <time>2026-06-15T10:21:26.000Z</time>
        <extensions>
          <ns3:TrackPointExtension>
            <ns3:atemp>15.0</ns3:atemp>
          </ns3:TrackPointExtension>
        </extensions>
      </trkpt>
      <trkpt lat="42.57263881154358386993408203125" lon="20.086580850183963775634765625">
        <ele>2109.800048828125</ele>
        <time>2026-06-15T10:21:27.000Z</time>
        <extensions>
          <ns3:TrackPointExtension>
            <ns3:atemp>15.0</ns3:atemp>
          </ns3:TrackPointExtension>
        </extensions>
      </trkpt>
      <trkpt lat="42.57263881154358386993408203125" lon="20.086580850183963775634765625">
        <ele>2109.60009765625</ele>
        <time>2026-06-15T10:21:28.000Z</time>
        <extensions>
          <ns3:TrackPointExtension>
            <ns3:atemp>15.0</ns3:atemp>
          </ns3:TrackPointExtension>
        </extensions>
      </trkpt>
      <trkpt lat="42.57263881154358386993408203125" lon="20.086580850183963775634765625">
        <ele>2109.39990234375</ele>
        <time>2026-06-15T10:21:29.000Z</time>
        <extensions>
          <ns3:TrackPointExtension>
            <ns3:atemp>15.0</ns3:atemp>
          </ns3:TrackPointExtension>
        </extensions>
      </trkpt>
      <trkpt lat="42.57263881154358386993408203125" lon="20.086580850183963775634765625">
        <ele>2109.199951171875</ele>
        <time>2026-06-15T10:21:30.000Z</time>
        <extensions>
          <ns3:TrackPointExtension>
            <ns3:atemp>15.0</ns3:atemp>
          </ns3:TrackPointExtension>
        </extensions>
      </trkpt>
      <trkpt lat="42.57263881154358386993408203125" lon="20.086580850183963775634765625">
        <ele>2109</ele>
        <time>2026-06-15T10:21:31.000Z</time>
        <extensions>
          <ns3:TrackPointExtension>
            <ns3:atemp>15.0</ns3:atemp>
          </ns3:TrackPointExtension>
        </extensions>
      </trkpt>
      <trkpt lat="42.57263881154358386993408203125" lon="20.086580850183963775634765625">
        <ele>2108.800048828125</ele>
        <time>2026-06-15T10:21:32.000Z</time>
        <extensions>
          <ns3:TrackPointExtension>
            <ns3:atemp>15.0</ns3:atemp>
          </ns3:TrackPointExtension>
        </extensions>
      </trkpt>
      <trkpt lat="42.57263881154358386993408203125" lon="20.086580850183963775634765625">
        <ele>2108.60009765625</ele>
        <time>2026-06-15T10:21:33.000Z</time>
        <extensions>
          <ns3:TrackPointExtension>
            <ns3:atemp>15.0</ns3:atemp>
          </ns3:TrackPointExtension>
        </extensions>
      </trkpt>
      <trkpt lat="42.57263881154358386993408203125" lon="20.086580850183963775634765625">
        <ele>2108.39990234375</ele>
        <time>2026-06-15T10:21:34.000Z</time>
        <extensions>
          <ns3:TrackPointExtension>
            <ns3:atemp>15.0</ns3:atemp>
          </ns3:TrackPointExtension>
        </extensions>
      </trkpt>
      <trkpt lat="42.57263881154358386993408203125" lon="20.086580850183963775634765625">
        <ele>2108.39990234375</ele>
        <time>2026-06-15T10:21:35.000Z</time>
        <extensions>
          <ns3:TrackPointExtension>
            <ns3:atemp>15.0</ns3:atemp>
          </ns3:TrackPointExtension>
        </extensions>
      </trkpt>
      <trkpt lat="42.5726392306387424468994140625" lon="20.0865820236504077911376953125">
        <ele>2108.39990234375</ele>
        <time>2026-06-15T10:21:36.000Z</time>
        <extensions>
          <ns3:TrackPointExtension>
            <ns3:atemp>15.0</ns3:atemp>
          </ns3:TrackPointExtension>
        </extensions>
      </trkpt>
      <trkpt lat="42.5726291723549365997314453125" lon="20.08657573722302913665771484375">
        <ele>2108.39990234375</ele>
        <time>2026-06-15T10:21:37.000Z</time>
        <extensions>
          <ns3:TrackPointExtension>
            <ns3:atemp>15.0</ns3:atemp>
          </ns3:TrackPointExtension>
        </extensions>
      </trkpt>
      <trkpt lat="42.572613917291164398193359375" lon="20.08656442165374755859375">
        <ele>2108.60009765625</ele>
        <time>2026-06-15T10:21:38.000Z</time>
        <extensions>
          <ns3:TrackPointExtension>
            <ns3:atemp>15.0</ns3:atemp>
          </ns3:TrackPointExtension>
        </extensions>
      </trkpt>
      <trkpt lat="42.57259438745677471160888671875" lon="20.086550004780292510986328125">
        <ele>2108.800048828125</ele>
        <time>2026-06-15T10:21:39.000Z</time>
        <extensions>
          <ns3:TrackPointExtension>
            <ns3:atemp>15.0</ns3:atemp>
          </ns3:TrackPointExtension>
        </extensions>
      </trkpt>
      <trkpt lat="42.57257401943206787109375" lon="20.08653164841234683990478515625">
        <ele>2109</ele>
        <time>2026-06-15T10:21:40.000Z</time>
        <extensions>
          <ns3:TrackPointExtension>
            <ns3:atemp>15.0</ns3:atemp>
          </ns3:TrackPointExtension>
        </extensions>
      </trkpt>
      <trkpt lat="42.5725503824651241302490234375" lon="20.08650667034089565277099609375">
        <ele>2109.39990234375</ele>
        <time>2026-06-15T10:21:41.000Z</time>
        <extensions>
          <ns3:TrackPointExtension>
            <ns3:atemp>15.0</ns3:atemp>
          </ns3:TrackPointExtension>
        </extensions>
      </trkpt>
      <trkpt lat="42.57252532057464122772216796875" lon="20.0864770822227001190185546875">
        <ele>2109.60009765625</ele>
        <time>2026-06-15T10:21:42.000Z</time>
        <extensions>
          <ns3:TrackPointExtension>
            <ns3:atemp>15.0</ns3:atemp>
          </ns3:TrackPointExtension>
        </extensions>
      </trkpt>
      <trkpt lat="42.572499252855777740478515625" lon="20.08644699119031429290771484375">
        <ele>2109.800048828125</ele>
        <time>2026-06-15T10:21:43.000Z</time>
        <extensions>
          <ns3:TrackPointExtension>
            <ns3:atemp>15.0</ns3:atemp>
          </ns3:TrackPointExtension>
        </extensions>
      </trkpt>
      <trkpt lat="42.5724719278514385223388671875" lon="20.08641681633889675140380859375">
        <ele>2109.800048828125</ele>
        <time>2026-06-15T10:21:44.000Z</time>
        <extensions>
          <ns3:TrackPointExtension>
            <ns3:atemp>15.0</ns3:atemp>
          </ns3:TrackPointExtension>
        </extensions>
      </trkpt>
      <trkpt lat="42.57244569249451160430908203125" lon="20.0863858871161937713623046875">
        <ele>2109.60009765625</ele>
        <time>2026-06-15T10:21:45.000Z</time>
        <extensions>
          <ns3:TrackPointExtension>
            <ns3:atemp>15.0</ns3:atemp>
          </ns3:TrackPointExtension>
        </extensions>
      </trkpt>
      <trkpt lat="42.5724219717085361480712890625" lon="20.0863513536751270294189453125">
        <ele>2109.39990234375</ele>
        <time>2026-06-15T10:21:46.000Z</time>
        <extensions>
          <ns3:TrackPointExtension>
            <ns3:atemp>15.0</ns3:atemp>
          </ns3:TrackPointExtension>
        </extensions>
      </trkpt>
      <trkpt lat="42.57239556871354579925537109375" lon="20.086314640939235687255859375">
        <ele>2109.199951171875</ele>
        <time>2026-06-15T10:21:47.000Z</time>
        <extensions>
          <ns3:TrackPointExtension>
            <ns3:atemp>15.0</ns3:atemp>
          </ns3:TrackPointExtension>
        </extensions>
      </trkpt>
      <trkpt lat="42.57236472330987453460693359375" lon="20.08626862429082393646240234375">
        <ele>2108.800048828125</ele>
        <time>2026-06-15T10:21:48.000Z</time>
        <extensions>
          <ns3:TrackPointExtension>
            <ns3:atemp>15.0</ns3:atemp>
          </ns3:TrackPointExtension>
        </extensions>
      </trkpt>
      <trkpt lat="42.5723285973072052001953125" lon="20.08621162734925746917724609375">
        <ele>2108.199951171875</ele>
        <time>2026-06-15T10:21:49.000Z</time>
        <extensions>
          <ns3:TrackPointExtension>
            <ns3:atemp>15.0</ns3:atemp>
          </ns3:TrackPointExtension>
        </extensions>
      </trkpt>
      <trkpt lat="42.57229439914226531982421875" lon="20.08615278638899326324462890625">
        <ele>2107.800048828125</ele>
        <time>2026-06-15T10:21:50.000Z</time>
        <extensions>
          <ns3:TrackPointExtension>
            <ns3:atemp>15.0</ns3:atemp>
          </ns3:TrackPointExtension>
        </extensions>
      </trkpt>
      <trkpt lat="42.572254501283168792724609375" lon="20.08609763346612453460693359375">
        <ele>2107.199951171875</ele>
        <time>2026-06-15T10:21:51.000Z</time>
        <extensions>
          <ns3:TrackPointExtension>
            <ns3:atemp>15.0</ns3:atemp>
          </ns3:TrackPointExtension>
        </extensions>
      </trkpt>
      <trkpt lat="42.57221259176731109619140625" lon="20.0860440731048583984375">
        <ele>2106.60009765625</ele>
        <time>2026-06-15T10:21:52.000Z</time>
        <extensions>
          <ns3:TrackPointExtension>
            <ns3:atemp>15.0</ns3:atemp>
          </ns3:TrackPointExtension>
        </extensions>
      </trkpt>
      <trkpt lat="42.5721728615462779998779296875" lon="20.08599604479968547821044921875">
        <ele>2106</ele>
        <time>2026-06-15T10:21:53.000Z</time>
        <extensions>
          <ns3:TrackPointExtension>
            <ns3:atemp>15.0</ns3:atemp>
          </ns3:TrackPointExtension>
        </extensions>
      </trkpt>
      <trkpt lat="42.572136484086513519287109375" lon="20.08594843558967113494873046875">
        <ele>2105.60009765625</ele>
        <time>2026-06-15T10:21:54.000Z</time>
        <extensions>
          <ns3:TrackPointExtension>
            <ns3:atemp>15.0</ns3:atemp>
          </ns3:TrackPointExtension>
        </extensions>
      </trkpt>
      <trkpt lat="42.572102956473827362060546875" lon="20.08591331541538238525390625">
        <ele>2105</ele>
        <time>2026-06-15T10:21:55.000Z</time>
        <extensions>
          <ns3:TrackPointExtension>
            <ns3:atemp>15.0</ns3:atemp>
          </ns3:TrackPointExtension>
        </extensions>
      </trkpt>
      <trkpt lat="42.572079487144947052001953125" lon="20.08588825352489948272705078125">
        <ele>2104.60009765625</ele>
        <time>2026-06-15T10:21:56.000Z</time>
        <extensions>
          <ns3:TrackPointExtension>
            <ns3:atemp>15.0</ns3:atemp>
          </ns3:TrackPointExtension>
        </extensions>
      </trkpt>
      <trkpt lat="42.57206582464277744293212890625" lon="20.085869729518890380859375">
        <ele>2104.39990234375</ele>
        <time>2026-06-15T10:21:57.000Z</time>
        <extensions>
          <ns3:TrackPointExtension>
            <ns3:atemp>15.0</ns3:atemp>
          </ns3:TrackPointExtension>
        </extensions>
      </trkpt>
      <trkpt lat="42.57205928675830364227294921875" lon="20.08586428128182888031005859375">
        <ele>2104</ele>
        <time>2026-06-15T10:21:58.000Z</time>
        <extensions>
          <ns3:TrackPointExtension>
            <ns3:atemp>15.0</ns3:atemp>
          </ns3:TrackPointExtension>
        </extensions>
      </trkpt>
      <trkpt lat="42.5720608793199062347412109375" lon="20.08586612530052661895751953125">
        <ele>2103.800048828125</ele>
        <time>2026-06-15T10:21:59.000Z</time>
        <extensions>
          <ns3:TrackPointExtension>
            <ns3:atemp>15.0</ns3:atemp>
          </ns3:TrackPointExtension>
        </extensions>
      </trkpt>
      <trkpt lat="42.5720608793199062347412109375" lon="20.08586612530052661895751953125">
        <ele>2103.60009765625</ele>
        <time>2026-06-15T10:22:00.000Z</time>
        <extensions>
          <ns3:TrackPointExtension>
            <ns3:atemp>15.0</ns3:atemp>
          </ns3:TrackPointExtension>
        </extensions>
      </trkpt>
      <trkpt lat="42.5720608793199062347412109375" lon="20.08586612530052661895751953125">
        <ele>2103.39990234375</ele>
        <time>2026-06-15T10:22:01.000Z</time>
        <extensions>
          <ns3:TrackPointExtension>
            <ns3:atemp>15.0</ns3:atemp>
          </ns3:TrackPointExtension>
        </extensions>
      </trkpt>
      <trkpt lat="42.5720608793199062347412109375" lon="20.08586612530052661895751953125">
        <ele>2103</ele>
        <time>2026-06-15T10:22:02.000Z</time>
        <extensions>
          <ns3:TrackPointExtension>
            <ns3:atemp>15.0</ns3:atemp>
          </ns3:TrackPointExtension>
        </extensions>
      </trkpt>
      <trkpt lat="42.5720608793199062347412109375" lon="20.08586612530052661895751953125">
        <ele>2102.800048828125</ele>
        <time>2026-06-15T10:22:03.000Z</time>
        <extensions>
          <ns3:TrackPointExtension>
            <ns3:atemp>15.0</ns3:atemp>
          </ns3:TrackPointExtension>
        </extensions>
      </trkpt>
      <trkpt lat="42.5720608793199062347412109375" lon="20.08586612530052661895751953125">
        <ele>2102.39990234375</ele>
        <time>2026-06-15T10:22:04.000Z</time>
        <extensions>
          <ns3:TrackPointExtension>
            <ns3:atemp>15.0</ns3:atemp>
          </ns3:TrackPointExtension>
        </extensions>
      </trkpt>
      <trkpt lat="42.5720608793199062347412109375" lon="20.08586612530052661895751953125">
        <ele>2102.199951171875</ele>
        <time>2026-06-15T10:22:05.000Z</time>
        <extensions>
          <ns3:TrackPointExtension>
            <ns3:atemp>15.0</ns3:atemp>
          </ns3:TrackPointExtension>
        </extensions>
      </trkpt>
      <trkpt lat="42.5720608793199062347412109375" lon="20.08586612530052661895751953125">
        <ele>2102</ele>
        <time>2026-06-15T10:22:06.000Z</time>
        <extensions>
          <ns3:TrackPointExtension>
            <ns3:atemp>15.0</ns3:atemp>
          </ns3:TrackPointExtension>
        </extensions>
      </trkpt>
      <trkpt lat="42.5720608793199062347412109375" lon="20.08586612530052661895751953125">
        <ele>2101.800048828125</ele>
        <time>2026-06-15T10:22:07.000Z</time>
        <extensions>
          <ns3:TrackPointExtension>
            <ns3:atemp>15.0</ns3:atemp>
          </ns3:TrackPointExtension>
        </extensions>
      </trkpt>
      <trkpt lat="42.5720608793199062347412109375" lon="20.08586612530052661895751953125">
        <ele>2101.60009765625</ele>
        <time>2026-06-15T10:22:08.000Z</time>
        <extensions>
          <ns3:TrackPointExtension>
            <ns3:atemp>15.0</ns3:atemp>
          </ns3:TrackPointExtension>
        </extensions>
      </trkpt>
      <trkpt lat="42.5720608793199062347412109375" lon="20.08586612530052661895751953125">
        <ele>2101.39990234375</ele>
        <time>2026-06-15T10:22:09.000Z</time>
        <extensions>
          <ns3:TrackPointExtension>
            <ns3:atemp>15.0</ns3:atemp>
          </ns3:TrackPointExtension>
        </extensions>
      </trkpt>
      <trkpt lat="42.5720608793199062347412109375" lon="20.08586612530052661895751953125">
        <ele>2101.199951171875</ele>
        <time>2026-06-15T10:22:10.000Z</time>
        <extensions>
          <ns3:TrackPointExtension>
            <ns3:atemp>15.0</ns3:atemp>
          </ns3:TrackPointExtension>
        </extensions>
      </trkpt>
      <trkpt lat="42.5720608793199062347412109375" lon="20.08586612530052661895751953125">
        <ele>2101.199951171875</ele>
        <time>2026-06-15T10:22:11.000Z</time>
        <extensions>
          <ns3:TrackPointExtension>
            <ns3:atemp>15.0</ns3:atemp>
          </ns3:TrackPointExtension>
        </extensions>
      </trkpt>
      <trkpt lat="42.5720608793199062347412109375" lon="20.08586612530052661895751953125">
        <ele>2101.199951171875</ele>
        <time>2026-06-15T10:22:12.000Z</time>
        <extensions>
          <ns3:TrackPointExtension>
            <ns3:atemp>15.0</ns3:atemp>
          </ns3:TrackPointExtension>
        </extensions>
      </trkpt>
      <trkpt lat="42.5720608793199062347412109375" lon="20.08586612530052661895751953125">
        <ele>2101.199951171875</ele>
        <time>2026-06-15T10:22:13.000Z</time>
        <extensions>
          <ns3:TrackPointExtension>
            <ns3:atemp>15.0</ns3:atemp>
          </ns3:TrackPointExtension>
        </extensions>
      </trkpt>
      <trkpt lat="42.5720608793199062347412109375" lon="20.08586612530052661895751953125">
        <ele>2101</ele>
        <time>2026-06-15T10:22:14.000Z</time>
        <extensions>
          <ns3:TrackPointExtension>
            <ns3:atemp>15.0</ns3:atemp>
          </ns3:TrackPointExtension>
        </extensions>
      </trkpt>
      <trkpt lat="42.5720608793199062347412109375" lon="20.08586612530052661895751953125">
        <ele>2101</ele>
        <time>2026-06-15T10:22:15.000Z</time>
        <extensions>
          <ns3:TrackPointExtension>
            <ns3:atemp>15.0</ns3:atemp>
          </ns3:TrackPointExtension>
        </extensions>
      </trkpt>
      <trkpt lat="42.5720608793199062347412109375" lon="20.08586612530052661895751953125">
        <ele>2101</ele>
        <time>2026-06-15T10:22:16.000Z</time>
        <extensions>
          <ns3:TrackPointExtension>
            <ns3:atemp>15.0</ns3:atemp>
          </ns3:TrackPointExtension>
        </extensions>
      </trkpt>
      <trkpt lat="42.5720608793199062347412109375" lon="20.08586612530052661895751953125">
        <ele>2101</ele>
        <time>2026-06-15T10:22:17.000Z</time>
        <extensions>
          <ns3:TrackPointExtension>
            <ns3:atemp>15.0</ns3:atemp>
          </ns3:TrackPointExtension>
        </extensions>
      </trkpt>
      <trkpt lat="42.5720608793199062347412109375" lon="20.08586612530052661895751953125">
        <ele>2101</ele>
        <time>2026-06-15T10:22:18.000Z</time>
        <extensions>
          <ns3:TrackPointExtension>
            <ns3:atemp>15.0</ns3:atemp>
          </ns3:TrackPointExtension>
        </extensions>
      </trkpt>
      <trkpt lat="42.5720608793199062347412109375" lon="20.08586612530052661895751953125">
        <ele>2101</ele>
        <time>2026-06-15T10:22:19.000Z</time>
        <extensions>
          <ns3:TrackPointExtension>
            <ns3:atemp>15.0</ns3:atemp>
          </ns3:TrackPointExtension>
        </extensions>
      </trkpt>
      <trkpt lat="42.5720608793199062347412109375" lon="20.08586612530052661895751953125">
        <ele>2101</ele>
        <time>2026-06-15T10:22:20.000Z</time>
        <extensions>
          <ns3:TrackPointExtension>
            <ns3:atemp>15.0</ns3:atemp>
          </ns3:TrackPointExtension>
        </extensions>
      </trkpt>
      <trkpt lat="42.5720608793199062347412109375" lon="20.08586612530052661895751953125">
        <ele>2101</ele>
        <time>2026-06-15T10:22:21.000Z</time>
        <extensions>
          <ns3:TrackPointExtension>
            <ns3:atemp>15.0</ns3:atemp>
          </ns3:TrackPointExtension>
        </extensions>
      </trkpt>
      <trkpt lat="42.5720608793199062347412109375" lon="20.08586612530052661895751953125">
        <ele>2101</ele>
        <time>2026-06-15T10:22:22.000Z</time>
        <extensions>
          <ns3:TrackPointExtension>
            <ns3:atemp>15.0</ns3:atemp>
          </ns3:TrackPointExtension>
        </extensions>
      </trkpt>
      <trkpt lat="42.5720608793199062347412109375" lon="20.08586612530052661895751953125">
        <ele>2101</ele>
        <time>2026-06-15T10:22:23.000Z</time>
        <extensions>
          <ns3:TrackPointExtension>
            <ns3:atemp>15.0</ns3:atemp>
          </ns3:TrackPointExtension>
        </extensions>
      </trkpt>
      <trkpt lat="42.5720608793199062347412109375" lon="20.08586612530052661895751953125">
        <ele>2101</ele>
        <time>2026-06-15T10:22:24.000Z</time>
        <extensions>
          <ns3:TrackPointExtension>
            <ns3:atemp>15.0</ns3:atemp>
          </ns3:TrackPointExtension>
        </extensions>
      </trkpt>
      <trkpt lat="42.5720608793199062347412109375" lon="20.08586612530052661895751953125">
        <ele>2101</ele>
        <time>2026-06-15T10:22:25.000Z</time>
        <extensions>
          <ns3:TrackPointExtension>
            <ns3:atemp>15.0</ns3:atemp>
          </ns3:TrackPointExtension>
        </extensions>
      </trkpt>
      <trkpt lat="42.5720608793199062347412109375" lon="20.08586612530052661895751953125">
        <ele>2101</ele>
        <time>2026-06-15T10:22:26.000Z</time>
        <extensions>
          <ns3:TrackPointExtension>
            <ns3:atemp>15.0</ns3:atemp>
          </ns3:TrackPointExtension>
        </extensions>
      </trkpt>
      <trkpt lat="42.5720608793199062347412109375" lon="20.08586612530052661895751953125">
        <ele>2101</ele>
        <time>2026-06-15T10:22:27.000Z</time>
        <extensions>
          <ns3:TrackPointExtension>
            <ns3:atemp>15.0</ns3:atemp>
          </ns3:TrackPointExtension>
        </extensions>
      </trkpt>
      <trkpt lat="42.5720608793199062347412109375" lon="20.08586612530052661895751953125">
        <ele>2101</ele>
        <time>2026-06-15T10:22:28.000Z</time>
        <extensions>
          <ns3:TrackPointExtension>
            <ns3:atemp>15.0</ns3:atemp>
          </ns3:TrackPointExtension>
        </extensions>
      </trkpt>
      <trkpt lat="42.5720608793199062347412109375" lon="20.08586612530052661895751953125">
        <ele>2101</ele>
        <time>2026-06-15T10:22:29.000Z</time>
        <extensions>
          <ns3:TrackPointExtension>
            <ns3:atemp>15.0</ns3:atemp>
          </ns3:TrackPointExtension>
        </extensions>
      </trkpt>
      <trkpt lat="42.5720608793199062347412109375" lon="20.08586612530052661895751953125">
        <ele>2101</ele>
        <time>2026-06-15T10:22:30.000Z</time>
        <extensions>
          <ns3:TrackPointExtension>
            <ns3:atemp>15.0</ns3:atemp>
          </ns3:TrackPointExtension>
        </extensions>
      </trkpt>
      <trkpt lat="42.5720608793199062347412109375" lon="20.08586612530052661895751953125">
        <ele>2101</ele>
        <time>2026-06-15T10:22:31.000Z</time>
        <extensions>
          <ns3:TrackPointExtension>
            <ns3:atemp>15.0</ns3:atemp>
          </ns3:TrackPointExtension>
        </extensions>
      </trkpt>
      <trkpt lat="42.5720608793199062347412109375" lon="20.08586612530052661895751953125">
        <ele>2101</ele>
        <time>2026-06-15T10:22:32.000Z</time>
        <extensions>
          <ns3:TrackPointExtension>
            <ns3:atemp>15.0</ns3:atemp>
          </ns3:TrackPointExtension>
        </extensions>
      </trkpt>
      <trkpt lat="42.5720608793199062347412109375" lon="20.08586612530052661895751953125">
        <ele>2101</ele>
        <time>2026-06-15T10:22:33.000Z</time>
        <extensions>
          <ns3:TrackPointExtension>
            <ns3:atemp>15.0</ns3:atemp>
          </ns3:TrackPointExtension>
        </extensions>
      </trkpt>
      <trkpt lat="42.5720608793199062347412109375" lon="20.08586612530052661895751953125">
        <ele>2101</ele>
        <time>2026-06-15T10:22:34.000Z</time>
        <extensions>
          <ns3:TrackPointExtension>
            <ns3:atemp>15.0</ns3:atemp>
          </ns3:TrackPointExtension>
        </extensions>
      </trkpt>
      <trkpt lat="42.5720608793199062347412109375" lon="20.08586612530052661895751953125">
        <ele>2101</ele>
        <time>2026-06-15T10:22:35.000Z</time>
        <extensions>
          <ns3:TrackPointExtension>
            <ns3:atemp>15.0</ns3:atemp>
          </ns3:TrackPointExtension>
        </extensions>
      </trkpt>
      <trkpt lat="42.5720608793199062347412109375" lon="20.08586612530052661895751953125">
        <ele>2101</ele>
        <time>2026-06-15T10:22:36.000Z</time>
        <extensions>
          <ns3:TrackPointExtension>
            <ns3:atemp>15.0</ns3:atemp>
          </ns3:TrackPointExtension>
        </extensions>
      </trkpt>
      <trkpt lat="42.5720608793199062347412109375" lon="20.08586612530052661895751953125">
        <ele>2101</ele>
        <time>2026-06-15T10:22:37.000Z</time>
        <extensions>
          <ns3:TrackPointExtension>
            <ns3:atemp>15.0</ns3:atemp>
          </ns3:TrackPointExtension>
        </extensions>
      </trkpt>
      <trkpt lat="42.5720608793199062347412109375" lon="20.08586612530052661895751953125">
        <ele>2101</ele>
        <time>2026-06-15T10:22:38.000Z</time>
        <extensions>
          <ns3:TrackPointExtension>
            <ns3:atemp>15.0</ns3:atemp>
          </ns3:TrackPointExtension>
        </extensions>
      </trkpt>
      <trkpt lat="42.5720608793199062347412109375" lon="20.08586612530052661895751953125">
        <ele>2101</ele>
        <time>2026-06-15T10:22:39.000Z</time>
        <extensions>
          <ns3:TrackPointExtension>
            <ns3:atemp>15.0</ns3:atemp>
          </ns3:TrackPointExtension>
        </extensions>
      </trkpt>
      <trkpt lat="42.5720608793199062347412109375" lon="20.08586612530052661895751953125">
        <ele>2101</ele>
        <time>2026-06-15T10:22:40.000Z</time>
        <extensions>
          <ns3:TrackPointExtension>
            <ns3:atemp>15.0</ns3:atemp>
          </ns3:TrackPointExtension>
        </extensions>
      </trkpt>
      <trkpt lat="42.5720608793199062347412109375" lon="20.08586612530052661895751953125">
        <ele>2101</ele>
        <time>2026-06-15T10:22:41.000Z</time>
        <extensions>
          <ns3:TrackPointExtension>
            <ns3:atemp>15.0</ns3:atemp>
          </ns3:TrackPointExtension>
        </extensions>
      </trkpt>
      <trkpt lat="42.5720608793199062347412109375" lon="20.08586612530052661895751953125">
        <ele>2101</ele>
        <time>2026-06-15T10:22:42.000Z</time>
        <extensions>
          <ns3:TrackPointExtension>
            <ns3:atemp>15.0</ns3:atemp>
          </ns3:TrackPointExtension>
        </extensions>
      </trkpt>
      <trkpt lat="42.5720608793199062347412109375" lon="20.08586612530052661895751953125">
        <ele>2101</ele>
        <time>2026-06-15T10:22:43.000Z</time>
        <extensions>
          <ns3:TrackPointExtension>
            <ns3:atemp>15.0</ns3:atemp>
          </ns3:TrackPointExtension>
        </extensions>
      </trkpt>
      <trkpt lat="42.5720608793199062347412109375" lon="20.08586612530052661895751953125">
        <ele>2101</ele>
        <time>2026-06-15T10:22:44.000Z</time>
        <extensions>
          <ns3:TrackPointExtension>
            <ns3:atemp>15.0</ns3:atemp>
          </ns3:TrackPointExtension>
        </extensions>
      </trkpt>
      <trkpt lat="42.5720608793199062347412109375" lon="20.08586612530052661895751953125">
        <ele>2101</ele>
        <time>2026-06-15T10:22:45.000Z</time>
        <extensions>
          <ns3:TrackPointExtension>
            <ns3:atemp>15.0</ns3:atemp>
          </ns3:TrackPointExtension>
        </extensions>
      </trkpt>
      <trkpt lat="42.5720608793199062347412109375" lon="20.08586612530052661895751953125">
        <ele>2101</ele>
        <time>2026-06-15T10:22:46.000Z</time>
        <extensions>
          <ns3:TrackPointExtension>
            <ns3:atemp>15.0</ns3:atemp>
          </ns3:TrackPointExtension>
        </extensions>
      </trkpt>
      <trkpt lat="42.5720608793199062347412109375" lon="20.08586612530052661895751953125">
        <ele>2101</ele>
        <time>2026-06-15T10:22:47.000Z</time>
        <extensions>
          <ns3:TrackPointExtension>
            <ns3:atemp>15.0</ns3:atemp>
          </ns3:TrackPointExtension>
        </extensions>
      </trkpt>
      <trkpt lat="42.5720608793199062347412109375" lon="20.08586612530052661895751953125">
        <ele>2101</ele>
        <time>2026-06-15T10:22:48.000Z</time>
        <extensions>
          <ns3:TrackPointExtension>
            <ns3:atemp>15.0</ns3:atemp>
          </ns3:TrackPointExtension>
        </extensions>
      </trkpt>
      <trkpt lat="42.5720608793199062347412109375" lon="20.08586612530052661895751953125">
        <ele>2101</ele>
        <time>2026-06-15T10:22:49.000Z</time>
        <extensions>
          <ns3:TrackPointExtension>
            <ns3:atemp>15.0</ns3:atemp>
          </ns3:TrackPointExtension>
        </extensions>
      </trkpt>
      <trkpt lat="42.5720608793199062347412109375" lon="20.08586612530052661895751953125">
        <ele>2101</ele>
        <time>2026-06-15T10:22:50.000Z</time>
        <extensions>
          <ns3:TrackPointExtension>
            <ns3:atemp>15.0</ns3:atemp>
          </ns3:TrackPointExtension>
        </extensions>
      </trkpt>
      <trkpt lat="42.5720608793199062347412109375" lon="20.08586612530052661895751953125">
        <ele>2101</ele>
        <time>2026-06-15T10:22:51.000Z</time>
        <extensions>
          <ns3:TrackPointExtension>
            <ns3:atemp>15.0</ns3:atemp>
          </ns3:TrackPointExtension>
        </extensions>
      </trkpt>
      <trkpt lat="42.5720608793199062347412109375" lon="20.08586612530052661895751953125">
        <ele>2101</ele>
        <time>2026-06-15T10:22:52.000Z</time>
        <extensions>
          <ns3:TrackPointExtension>
            <ns3:atemp>15.0</ns3:atemp>
          </ns3:TrackPointExtension>
        </extensions>
      </trkpt>
      <trkpt lat="42.5720608793199062347412109375" lon="20.08586612530052661895751953125">
        <ele>2101</ele>
        <time>2026-06-15T10:22:53.000Z</time>
        <extensions>
          <ns3:TrackPointExtension>
            <ns3:atemp>15.0</ns3:atemp>
          </ns3:TrackPointExtension>
        </extensions>
      </trkpt>
      <trkpt lat="42.5720608793199062347412109375" lon="20.08586612530052661895751953125">
        <ele>2101</ele>
        <time>2026-06-15T10:22:54.000Z</time>
        <extensions>
          <ns3:TrackPointExtension>
            <ns3:atemp>15.0</ns3:atemp>
          </ns3:TrackPointExtension>
        </extensions>
      </trkpt>
      <trkpt lat="42.5720608793199062347412109375" lon="20.08586612530052661895751953125">
        <ele>2101</ele>
        <time>2026-06-15T10:22:55.000Z</time>
        <extensions>
          <ns3:TrackPointExtension>
            <ns3:atemp>15.0</ns3:atemp>
          </ns3:TrackPointExtension>
        </extensions>
      </trkpt>
      <trkpt lat="42.5720608793199062347412109375" lon="20.08586612530052661895751953125">
        <ele>2101</ele>
        <time>2026-06-15T10:22:56.000Z</time>
        <extensions>
          <ns3:TrackPointExtension>
            <ns3:atemp>15.0</ns3:atemp>
          </ns3:TrackPointExtension>
        </extensions>
      </trkpt>
      <trkpt lat="42.5720608793199062347412109375" lon="20.08586612530052661895751953125">
        <ele>2101</ele>
        <time>2026-06-15T10:22:57.000Z</time>
        <extensions>
          <ns3:TrackPointExtension>
            <ns3:atemp>15.0</ns3:atemp>
          </ns3:TrackPointExtension>
        </extensions>
      </trkpt>
      <trkpt lat="42.5720608793199062347412109375" lon="20.08586612530052661895751953125">
        <ele>2101</ele>
        <time>2026-06-15T10:22:58.000Z</time>
        <extensions>
          <ns3:TrackPointExtension>
            <ns3:atemp>15.0</ns3:atemp>
          </ns3:TrackPointExtension>
        </extensions>
      </trkpt>
      <trkpt lat="42.5720608793199062347412109375" lon="20.08586612530052661895751953125">
        <ele>2101</ele>
        <time>2026-06-15T10:22:59.000Z</time>
        <extensions>
          <ns3:TrackPointExtension>
            <ns3:atemp>15.0</ns3:atemp>
          </ns3:TrackPointExtension>
        </extensions>
      </trkpt>
      <trkpt lat="42.5720608793199062347412109375" lon="20.08586612530052661895751953125">
        <ele>2101</ele>
        <time>2026-06-15T10:23:00.000Z</time>
        <extensions>
          <ns3:TrackPointExtension>
            <ns3:atemp>15.0</ns3:atemp>
          </ns3:TrackPointExtension>
        </extensions>
      </trkpt>
      <trkpt lat="42.5720608793199062347412109375" lon="20.08586612530052661895751953125">
        <ele>2101</ele>
        <time>2026-06-15T10:23:01.000Z</time>
        <extensions>
          <ns3:TrackPointExtension>
            <ns3:atemp>15.0</ns3:atemp>
          </ns3:TrackPointExtension>
        </extensions>
      </trkpt>
      <trkpt lat="42.5720608793199062347412109375" lon="20.08586612530052661895751953125">
        <ele>2100.800048828125</ele>
        <time>2026-06-15T10:23:02.000Z</time>
        <extensions>
          <ns3:TrackPointExtension>
            <ns3:atemp>15.0</ns3:atemp>
          </ns3:TrackPointExtension>
        </extensions>
      </trkpt>
      <trkpt lat="42.5720608793199062347412109375" lon="20.08586612530052661895751953125">
        <ele>2100.800048828125</ele>
        <time>2026-06-15T10:23:03.000Z</time>
        <extensions>
          <ns3:TrackPointExtension>
            <ns3:atemp>15.0</ns3:atemp>
          </ns3:TrackPointExtension>
        </extensions>
      </trkpt>
      <trkpt lat="42.5720608793199062347412109375" lon="20.08586612530052661895751953125">
        <ele>2100.800048828125</ele>
        <time>2026-06-15T10:23:04.000Z</time>
        <extensions>
          <ns3:TrackPointExtension>
            <ns3:atemp>15.0</ns3:atemp>
          </ns3:TrackPointExtension>
        </extensions>
      </trkpt>
      <trkpt lat="42.5720608793199062347412109375" lon="20.08586612530052661895751953125">
        <ele>2100.800048828125</ele>
        <time>2026-06-15T10:23:05.000Z</time>
        <extensions>
          <ns3:TrackPointExtension>
            <ns3:atemp>15.0</ns3:atemp>
          </ns3:TrackPointExtension>
        </extensions>
      </trkpt>
      <trkpt lat="42.5720608793199062347412109375" lon="20.08586612530052661895751953125">
        <ele>2100.60009765625</ele>
        <time>2026-06-15T10:23:06.000Z</time>
        <extensions>
          <ns3:TrackPointExtension>
            <ns3:atemp>15.0</ns3:atemp>
          </ns3:TrackPointExtension>
        </extensions>
      </trkpt>
      <trkpt lat="42.5720608793199062347412109375" lon="20.08586612530052661895751953125">
        <ele>2100.60009765625</ele>
        <time>2026-06-15T10:23:07.000Z</time>
        <extensions>
          <ns3:TrackPointExtension>
            <ns3:atemp>15.0</ns3:atemp>
          </ns3:TrackPointExtension>
        </extensions>
      </trkpt>
      <trkpt lat="42.5720608793199062347412109375" lon="20.08586612530052661895751953125">
        <ele>2100.60009765625</ele>
        <time>2026-06-15T10:23:08.000Z</time>
        <extensions>
          <ns3:TrackPointExtension>
            <ns3:atemp>15.0</ns3:atemp>
          </ns3:TrackPointExtension>
        </extensions>
      </trkpt>
      <trkpt lat="42.5720608793199062347412109375" lon="20.08586612530052661895751953125">
        <ele>2100.60009765625</ele>
        <time>2026-06-15T10:23:09.000Z</time>
        <extensions>
          <ns3:TrackPointExtension>
            <ns3:atemp>15.0</ns3:atemp>
          </ns3:TrackPointExtension>
        </extensions>
      </trkpt>
      <trkpt lat="42.5720608793199062347412109375" lon="20.08586612530052661895751953125">
        <ele>2100.60009765625</ele>
        <time>2026-06-15T10:23:10.000Z</time>
        <extensions>
          <ns3:TrackPointExtension>
            <ns3:atemp>15.0</ns3:atemp>
          </ns3:TrackPointExtension>
        </extensions>
      </trkpt>
      <trkpt lat="42.5720608793199062347412109375" lon="20.08586612530052661895751953125">
        <ele>2100.60009765625</ele>
        <time>2026-06-15T10:23:11.000Z</time>
        <extensions>
          <ns3:TrackPointExtension>
            <ns3:atemp>15.0</ns3:atemp>
          </ns3:TrackPointExtension>
        </extensions>
      </trkpt>
      <trkpt lat="42.5720608793199062347412109375" lon="20.08586612530052661895751953125">
        <ele>2100.60009765625</ele>
        <time>2026-06-15T10:23:12.000Z</time>
        <extensions>
          <ns3:TrackPointExtension>
            <ns3:atemp>15.0</ns3:atemp>
          </ns3:TrackPointExtension>
        </extensions>
      </trkpt>
      <trkpt lat="42.5720608793199062347412109375" lon="20.08586612530052661895751953125">
        <ele>2100.60009765625</ele>
        <time>2026-06-15T10:23:13.000Z</time>
        <extensions>
          <ns3:TrackPointExtension>
            <ns3:atemp>15.0</ns3:atemp>
          </ns3:TrackPointExtension>
        </extensions>
      </trkpt>
      <trkpt lat="42.5720608793199062347412109375" lon="20.08586612530052661895751953125">
        <ele>2100.60009765625</ele>
        <time>2026-06-15T10:23:14.000Z</time>
        <extensions>
          <ns3:TrackPointExtension>
            <ns3:atemp>15.0</ns3:atemp>
          </ns3:TrackPointExtension>
        </extensions>
      </trkpt>
      <trkpt lat="42.5720608793199062347412109375" lon="20.08586612530052661895751953125">
        <ele>2100.60009765625</ele>
        <time>2026-06-15T10:23:15.000Z</time>
        <extensions>
          <ns3:TrackPointExtension>
            <ns3:atemp>15.0</ns3:atemp>
          </ns3:TrackPointExtension>
        </extensions>
      </trkpt>
      <trkpt lat="42.5720608793199062347412109375" lon="20.08586612530052661895751953125">
        <ele>2100.60009765625</ele>
        <time>2026-06-15T10:23:16.000Z</time>
        <extensions>
          <ns3:TrackPointExtension>
            <ns3:atemp>15.0</ns3:atemp>
          </ns3:TrackPointExtension>
        </extensions>
      </trkpt>
      <trkpt lat="42.5720608793199062347412109375" lon="20.08586612530052661895751953125">
        <ele>2100.60009765625</ele>
        <time>2026-06-15T10:23:17.000Z</time>
        <extensions>
          <ns3:TrackPointExtension>
            <ns3:atemp>15.0</ns3:atemp>
          </ns3:TrackPointExtension>
        </extensions>
      </trkpt>
      <trkpt lat="42.5720608793199062347412109375" lon="20.08586612530052661895751953125">
        <ele>2100.800048828125</ele>
        <time>2026-06-15T10:23:18.000Z</time>
        <extensions>
          <ns3:TrackPointExtension>
            <ns3:atemp>15.0</ns3:atemp>
          </ns3:TrackPointExtension>
        </extensions>
      </trkpt>
      <trkpt lat="42.5720608793199062347412109375" lon="20.08586612530052661895751953125">
        <ele>2100.800048828125</ele>
        <time>2026-06-15T10:23:19.000Z</time>
        <extensions>
          <ns3:TrackPointExtension>
            <ns3:atemp>15.0</ns3:atemp>
          </ns3:TrackPointExtension>
        </extensions>
      </trkpt>
      <trkpt lat="42.5720608793199062347412109375" lon="20.08586612530052661895751953125">
        <ele>2100.800048828125</ele>
        <time>2026-06-15T10:23:20.000Z</time>
        <extensions>
          <ns3:TrackPointExtension>
            <ns3:atemp>15.0</ns3:atemp>
          </ns3:TrackPointExtension>
        </extensions>
      </trkpt>
      <trkpt lat="42.5720608793199062347412109375" lon="20.08586612530052661895751953125">
        <ele>2100.60009765625</ele>
        <time>2026-06-15T10:23:21.000Z</time>
        <extensions>
          <ns3:TrackPointExtension>
            <ns3:atemp>15.0</ns3:atemp>
          </ns3:TrackPointExtension>
        </extensions>
      </trkpt>
      <trkpt lat="42.5720608793199062347412109375" lon="20.08586612530052661895751953125">
        <ele>2100.60009765625</ele>
        <time>2026-06-15T10:23:22.000Z</time>
        <extensions>
          <ns3:TrackPointExtension>
            <ns3:atemp>15.0</ns3:atemp>
          </ns3:TrackPointExtension>
        </extensions>
      </trkpt>
      <trkpt lat="42.5720608793199062347412109375" lon="20.08586612530052661895751953125">
        <ele>2100.60009765625</ele>
        <time>2026-06-15T10:23:23.000Z</time>
        <extensions>
          <ns3:TrackPointExtension>
            <ns3:atemp>15.0</ns3:atemp>
          </ns3:TrackPointExtension>
        </extensions>
      </trkpt>
      <trkpt lat="42.5720608793199062347412109375" lon="20.08586612530052661895751953125">
        <ele>2100.60009765625</ele>
        <time>2026-06-15T10:23:24.000Z</time>
        <extensions>
          <ns3:TrackPointExtension>
            <ns3:atemp>15.0</ns3:atemp>
          </ns3:TrackPointExtension>
        </extensions>
      </trkpt>
      <trkpt lat="42.5720608793199062347412109375" lon="20.08586612530052661895751953125">
        <ele>2100.60009765625</ele>
        <time>2026-06-15T10:23:25.000Z</time>
        <extensions>
          <ns3:TrackPointExtension>
            <ns3:atemp>15.0</ns3:atemp>
          </ns3:TrackPointExtension>
        </extensions>
      </trkpt>
      <trkpt lat="42.5720608793199062347412109375" lon="20.08586612530052661895751953125">
        <ele>2100.60009765625</ele>
        <time>2026-06-15T10:23:26.000Z</time>
        <extensions>
          <ns3:TrackPointExtension>
            <ns3:atemp>15.0</ns3:atemp>
          </ns3:TrackPointExtension>
        </extensions>
      </trkpt>
      <trkpt lat="42.5720608793199062347412109375" lon="20.08586612530052661895751953125">
        <ele>2100.60009765625</ele>
        <time>2026-06-15T10:23:27.000Z</time>
        <extensions>
          <ns3:TrackPointExtension>
            <ns3:atemp>15.0</ns3:atemp>
          </ns3:TrackPointExtension>
        </extensions>
      </trkpt>
      <trkpt lat="42.5720608793199062347412109375" lon="20.08586612530052661895751953125">
        <ele>2100.60009765625</ele>
        <time>2026-06-15T10:23:28.000Z</time>
        <extensions>
          <ns3:TrackPointExtension>
            <ns3:atemp>15.0</ns3:atemp>
          </ns3:TrackPointExtension>
        </extensions>
      </trkpt>
      <trkpt lat="42.5720608793199062347412109375" lon="20.08586612530052661895751953125">
        <ele>2100.60009765625</ele>
        <time>2026-06-15T10:23:29.000Z</time>
        <extensions>
          <ns3:TrackPointExtension>
            <ns3:atemp>15.0</ns3:atemp>
          </ns3:TrackPointExtension>
        </extensions>
      </trkpt>
      <trkpt lat="42.5720608793199062347412109375" lon="20.08586612530052661895751953125">
        <ele>2100.60009765625</ele>
        <time>2026-06-15T10:23:30.000Z</time>
        <extensions>
          <ns3:TrackPointExtension>
            <ns3:atemp>15.0</ns3:atemp>
          </ns3:TrackPointExtension>
        </extensions>
      </trkpt>
      <trkpt lat="42.5720608793199062347412109375" lon="20.08586612530052661895751953125">
        <ele>2100.60009765625</ele>
        <time>2026-06-15T10:23:31.000Z</time>
        <extensions>
          <ns3:TrackPointExtension>
            <ns3:atemp>15.0</ns3:atemp>
          </ns3:TrackPointExtension>
        </extensions>
      </trkpt>
      <trkpt lat="42.5720608793199062347412109375" lon="20.08586612530052661895751953125">
        <ele>2100.39990234375</ele>
        <time>2026-06-15T10:23:32.000Z</time>
        <extensions>
          <ns3:TrackPointExtension>
            <ns3:atemp>15.0</ns3:atemp>
          </ns3:TrackPointExtension>
        </extensions>
      </trkpt>
      <trkpt lat="42.5720608793199062347412109375" lon="20.08586612530052661895751953125">
        <ele>2100.39990234375</ele>
        <time>2026-06-15T10:23:33.000Z</time>
        <extensions>
          <ns3:TrackPointExtension>
            <ns3:atemp>15.0</ns3:atemp>
          </ns3:TrackPointExtension>
        </extensions>
      </trkpt>
      <trkpt lat="42.5720608793199062347412109375" lon="20.08586612530052661895751953125">
        <ele>2100.39990234375</ele>
        <time>2026-06-15T10:23:34.000Z</time>
        <extensions>
          <ns3:TrackPointExtension>
            <ns3:atemp>15.0</ns3:atemp>
          </ns3:TrackPointExtension>
        </extensions>
      </trkpt>
      <trkpt lat="42.5720608793199062347412109375" lon="20.08586612530052661895751953125">
        <ele>2100.39990234375</ele>
        <time>2026-06-15T10:23:35.000Z</time>
        <extensions>
          <ns3:TrackPointExtension>
            <ns3:atemp>15.0</ns3:atemp>
          </ns3:TrackPointExtension>
        </extensions>
      </trkpt>
      <trkpt lat="42.5720608793199062347412109375" lon="20.08586612530052661895751953125">
        <ele>2100.60009765625</ele>
        <time>2026-06-15T10:23:36.000Z</time>
        <extensions>
          <ns3:TrackPointExtension>
            <ns3:atemp>15.0</ns3:atemp>
          </ns3:TrackPointExtension>
        </extensions>
      </trkpt>
      <trkpt lat="42.5720608793199062347412109375" lon="20.08586612530052661895751953125">
        <ele>2100.60009765625</ele>
        <time>2026-06-15T10:23:37.000Z</time>
        <extensions>
          <ns3:TrackPointExtension>
            <ns3:atemp>15.0</ns3:atemp>
          </ns3:TrackPointExtension>
        </extensions>
      </trkpt>
      <trkpt lat="42.5720608793199062347412109375" lon="20.08586612530052661895751953125">
        <ele>2100.60009765625</ele>
        <time>2026-06-15T10:23:38.000Z</time>
        <extensions>
          <ns3:TrackPointExtension>
            <ns3:atemp>15.0</ns3:atemp>
          </ns3:TrackPointExtension>
        </extensions>
      </trkpt>
      <trkpt lat="42.5720608793199062347412109375" lon="20.08586612530052661895751953125">
        <ele>2100.60009765625</ele>
        <time>2026-06-15T10:23:39.000Z</time>
        <extensions>
          <ns3:TrackPointExtension>
            <ns3:atemp>15.0</ns3:atemp>
          </ns3:TrackPointExtension>
        </extensions>
      </trkpt>
      <trkpt lat="42.5720608793199062347412109375" lon="20.08586612530052661895751953125">
        <ele>2100.60009765625</ele>
        <time>2026-06-15T10:23:40.000Z</time>
        <extensions>
          <ns3:TrackPointExtension>
            <ns3:atemp>15.0</ns3:atemp>
          </ns3:TrackPointExtension>
        </extensions>
      </trkpt>
      <trkpt lat="42.5720608793199062347412109375" lon="20.08586612530052661895751953125">
        <ele>2100.60009765625</ele>
        <time>2026-06-15T10:23:41.000Z</time>
        <extensions>
          <ns3:TrackPointExtension>
            <ns3:atemp>15.0</ns3:atemp>
          </ns3:TrackPointExtension>
        </extensions>
      </trkpt>
      <trkpt lat="42.5720608793199062347412109375" lon="20.08586612530052661895751953125">
        <ele>2100.60009765625</ele>
        <time>2026-06-15T10:23:42.000Z</time>
        <extensions>
          <ns3:TrackPointExtension>
            <ns3:atemp>15.0</ns3:atemp>
          </ns3:TrackPointExtension>
        </extensions>
      </trkpt>
      <trkpt lat="42.5720608793199062347412109375" lon="20.08586612530052661895751953125">
        <ele>2100.60009765625</ele>
        <time>2026-06-15T10:23:43.000Z</time>
        <extensions>
          <ns3:TrackPointExtension>
            <ns3:atemp>15.0</ns3:atemp>
          </ns3:TrackPointExtension>
        </extensions>
      </trkpt>
      <trkpt lat="42.5720608793199062347412109375" lon="20.08586612530052661895751953125">
        <ele>2100.60009765625</ele>
        <time>2026-06-15T10:23:44.000Z</time>
        <extensions>
          <ns3:TrackPointExtension>
            <ns3:atemp>15.0</ns3:atemp>
          </ns3:TrackPointExtension>
        </extensions>
      </trkpt>
      <trkpt lat="42.5720608793199062347412109375" lon="20.08586612530052661895751953125">
        <ele>2100.39990234375</ele>
        <time>2026-06-15T10:23:45.000Z</time>
        <extensions>
          <ns3:TrackPointExtension>
            <ns3:atemp>15.0</ns3:atemp>
          </ns3:TrackPointExtension>
        </extensions>
      </trkpt>
      <trkpt lat="42.5720608793199062347412109375" lon="20.08586612530052661895751953125">
        <ele>2100.39990234375</ele>
        <time>2026-06-15T10:23:46.000Z</time>
        <extensions>
          <ns3:TrackPointExtension>
            <ns3:atemp>15.0</ns3:atemp>
          </ns3:TrackPointExtension>
        </extensions>
      </trkpt>
      <trkpt lat="42.5720608793199062347412109375" lon="20.08586612530052661895751953125">
        <ele>2100.39990234375</ele>
        <time>2026-06-15T10:23:47.000Z</time>
        <extensions>
          <ns3:TrackPointExtension>
            <ns3:atemp>15.0</ns3:atemp>
          </ns3:TrackPointExtension>
        </extensions>
      </trkpt>
      <trkpt lat="42.5720608793199062347412109375" lon="20.08586612530052661895751953125">
        <ele>2100.39990234375</ele>
        <time>2026-06-15T10:23:48.000Z</time>
        <extensions>
          <ns3:TrackPointExtension>
            <ns3:atemp>15.0</ns3:atemp>
          </ns3:TrackPointExtension>
        </extensions>
      </trkpt>
      <trkpt lat="42.5720608793199062347412109375" lon="20.08586612530052661895751953125">
        <ele>2100.39990234375</ele>
        <time>2026-06-15T10:23:49.000Z</time>
        <extensions>
          <ns3:TrackPointExtension>
            <ns3:atemp>15.0</ns3:atemp>
          </ns3:TrackPointExtension>
        </extensions>
      </trkpt>
      <trkpt lat="42.5720608793199062347412109375" lon="20.08586612530052661895751953125">
        <ele>2100.39990234375</ele>
        <time>2026-06-15T10:23:50.000Z</time>
        <extensions>
          <ns3:TrackPointExtension>
            <ns3:atemp>15.0</ns3:atemp>
          </ns3:TrackPointExtension>
        </extensions>
      </trkpt>
      <trkpt lat="42.5720608793199062347412109375" lon="20.08586612530052661895751953125">
        <ele>2100.39990234375</ele>
        <time>2026-06-15T10:23:51.000Z</time>
        <extensions>
          <ns3:TrackPointExtension>
            <ns3:atemp>15.0</ns3:atemp>
          </ns3:TrackPointExtension>
        </extensions>
      </trkpt>
      <trkpt lat="42.5720608793199062347412109375" lon="20.08586612530052661895751953125">
        <ele>2100.39990234375</ele>
        <time>2026-06-15T10:23:52.000Z</time>
        <extensions>
          <ns3:TrackPointExtension>
            <ns3:atemp>15.0</ns3:atemp>
          </ns3:TrackPointExtension>
        </extensions>
      </trkpt>
      <trkpt lat="42.5720608793199062347412109375" lon="20.08586612530052661895751953125">
        <ele>2100.39990234375</ele>
        <time>2026-06-15T10:23:53.000Z</time>
        <extensions>
          <ns3:TrackPointExtension>
            <ns3:atemp>15.0</ns3:atemp>
          </ns3:TrackPointExtension>
        </extensions>
      </trkpt>
      <trkpt lat="42.5720608793199062347412109375" lon="20.08586612530052661895751953125">
        <ele>2100.39990234375</ele>
        <time>2026-06-15T10:23:54.000Z</time>
        <extensions>
          <ns3:TrackPointExtension>
            <ns3:atemp>15.0</ns3:atemp>
          </ns3:TrackPointExtension>
        </extensions>
      </trkpt>
      <trkpt lat="42.5720608793199062347412109375" lon="20.08586612530052661895751953125">
        <ele>2100.39990234375</ele>
        <time>2026-06-15T10:23:55.000Z</time>
        <extensions>
          <ns3:TrackPointExtension>
            <ns3:atemp>15.0</ns3:atemp>
          </ns3:TrackPointExtension>
        </extensions>
      </trkpt>
      <trkpt lat="42.5720608793199062347412109375" lon="20.08586612530052661895751953125">
        <ele>2100.39990234375</ele>
        <time>2026-06-15T10:23:56.000Z</time>
        <extensions>
          <ns3:TrackPointExtension>
            <ns3:atemp>15.0</ns3:atemp>
          </ns3:TrackPointExtension>
        </extensions>
      </trkpt>
      <trkpt lat="42.5720608793199062347412109375" lon="20.08586612530052661895751953125">
        <ele>2100.199951171875</ele>
        <time>2026-06-15T10:23:57.000Z</time>
        <extensions>
          <ns3:TrackPointExtension>
            <ns3:atemp>15.0</ns3:atemp>
          </ns3:TrackPointExtension>
        </extensions>
      </trkpt>
      <trkpt lat="42.5720608793199062347412109375" lon="20.08586612530052661895751953125">
        <ele>2100.199951171875</ele>
        <time>2026-06-15T10:23:58.000Z</time>
        <extensions>
          <ns3:TrackPointExtension>
            <ns3:atemp>15.0</ns3:atemp>
          </ns3:TrackPointExtension>
        </extensions>
      </trkpt>
      <trkpt lat="42.5720608793199062347412109375" lon="20.08586612530052661895751953125">
        <ele>2100.199951171875</ele>
        <time>2026-06-15T10:23:59.000Z</time>
        <extensions>
          <ns3:TrackPointExtension>
            <ns3:atemp>15.0</ns3:atemp>
          </ns3:TrackPointExtension>
        </extensions>
      </trkpt>
      <trkpt lat="42.5720608793199062347412109375" lon="20.08586612530052661895751953125">
        <ele>2100.199951171875</ele>
        <time>2026-06-15T10:24:00.000Z</time>
        <extensions>
          <ns3:TrackPointExtension>
            <ns3:atemp>15.0</ns3:atemp>
          </ns3:TrackPointExtension>
        </extensions>
      </trkpt>
      <trkpt lat="42.5720608793199062347412109375" lon="20.08586612530052661895751953125">
        <ele>2100.199951171875</ele>
        <time>2026-06-15T10:24:01.000Z</time>
        <extensions>
          <ns3:TrackPointExtension>
            <ns3:atemp>15.0</ns3:atemp>
          </ns3:TrackPointExtension>
        </extensions>
      </trkpt>
      <trkpt lat="42.5720608793199062347412109375" lon="20.08586612530052661895751953125">
        <ele>2100</ele>
        <time>2026-06-15T10:24:02.000Z</time>
        <extensions>
          <ns3:TrackPointExtension>
            <ns3:atemp>15.0</ns3:atemp>
          </ns3:TrackPointExtension>
        </extensions>
      </trkpt>
      <trkpt lat="42.5720608793199062347412109375" lon="20.08586612530052661895751953125">
        <ele>2100</ele>
        <time>2026-06-15T10:24:03.000Z</time>
        <extensions>
          <ns3:TrackPointExtension>
            <ns3:atemp>15.0</ns3:atemp>
          </ns3:TrackPointExtension>
        </extensions>
      </trkpt>
      <trkpt lat="42.5720608793199062347412109375" lon="20.08586612530052661895751953125">
        <ele>2099.800048828125</ele>
        <time>2026-06-15T10:24:04.000Z</time>
        <extensions>
          <ns3:TrackPointExtension>
            <ns3:atemp>15.0</ns3:atemp>
          </ns3:TrackPointExtension>
        </extensions>
      </trkpt>
      <trkpt lat="42.5720608793199062347412109375" lon="20.08586612530052661895751953125">
        <ele>2099.60009765625</ele>
        <time>2026-06-15T10:24:05.000Z</time>
        <extensions>
          <ns3:TrackPointExtension>
            <ns3:atemp>15.0</ns3:atemp>
          </ns3:TrackPointExtension>
        </extensions>
      </trkpt>
      <trkpt lat="42.5720608793199062347412109375" lon="20.08586612530052661895751953125">
        <ele>2099.60009765625</ele>
        <time>2026-06-15T10:24:06.000Z</time>
        <extensions>
          <ns3:TrackPointExtension>
            <ns3:atemp>14.0</ns3:atemp>
          </ns3:TrackPointExtension>
        </extensions>
      </trkpt>
      <trkpt lat="42.5720608793199062347412109375" lon="20.08586612530052661895751953125">
        <ele>2099.60009765625</ele>
        <time>2026-06-15T10:24:07.000Z</time>
        <extensions>
          <ns3:TrackPointExtension>
            <ns3:atemp>15.0</ns3:atemp>
          </ns3:TrackPointExtension>
        </extensions>
      </trkpt>
      <trkpt lat="42.5720608793199062347412109375" lon="20.08586612530052661895751953125">
        <ele>2099.60009765625</ele>
        <time>2026-06-15T10:24:08.000Z</time>
        <extensions>
          <ns3:TrackPointExtension>
            <ns3:atemp>14.0</ns3:atemp>
          </ns3:TrackPointExtension>
        </extensions>
      </trkpt>
      <trkpt lat="42.5720608793199062347412109375" lon="20.08586612530052661895751953125">
        <ele>2099.60009765625</ele>
        <time>2026-06-15T10:24:09.000Z</time>
        <extensions>
          <ns3:TrackPointExtension>
            <ns3:atemp>14.0</ns3:atemp>
          </ns3:TrackPointExtension>
        </extensions>
      </trkpt>
      <trkpt lat="42.5720608793199062347412109375" lon="20.08586612530052661895751953125">
        <ele>2099.800048828125</ele>
        <time>2026-06-15T10:24:10.000Z</time>
        <extensions>
          <ns3:TrackPointExtension>
            <ns3:atemp>14.0</ns3:atemp>
          </ns3:TrackPointExtension>
        </extensions>
      </trkpt>
      <trkpt lat="42.5720608793199062347412109375" lon="20.08586612530052661895751953125">
        <ele>2099.800048828125</ele>
        <time>2026-06-15T10:24:11.000Z</time>
        <extensions>
          <ns3:TrackPointExtension>
            <ns3:atemp>14.0</ns3:atemp>
          </ns3:TrackPointExtension>
        </extensions>
      </trkpt>
      <trkpt lat="42.5720608793199062347412109375" lon="20.08586612530052661895751953125">
        <ele>2099.800048828125</ele>
        <time>2026-06-15T10:24:12.000Z</time>
        <extensions>
          <ns3:TrackPointExtension>
            <ns3:atemp>15.0</ns3:atemp>
          </ns3:TrackPointExtension>
        </extensions>
      </trkpt>
      <trkpt lat="42.5720608793199062347412109375" lon="20.08586612530052661895751953125">
        <ele>2099.800048828125</ele>
        <time>2026-06-15T10:24:13.000Z</time>
        <extensions>
          <ns3:TrackPointExtension>
            <ns3:atemp>14.0</ns3:atemp>
          </ns3:TrackPointExtension>
        </extensions>
      </trkpt>
      <trkpt lat="42.5720608793199062347412109375" lon="20.08586612530052661895751953125">
        <ele>2099.800048828125</ele>
        <time>2026-06-15T10:24:14.000Z</time>
        <extensions>
          <ns3:TrackPointExtension>
            <ns3:atemp>14.0</ns3:atemp>
          </ns3:TrackPointExtension>
        </extensions>
      </trkpt>
      <trkpt lat="42.5720608793199062347412109375" lon="20.08586612530052661895751953125">
        <ele>2100</ele>
        <time>2026-06-15T10:24:15.000Z</time>
        <extensions>
          <ns3:TrackPointExtension>
            <ns3:atemp>14.0</ns3:atemp>
          </ns3:TrackPointExtension>
        </extensions>
      </trkpt>
      <trkpt lat="42.5720608793199062347412109375" lon="20.08586612530052661895751953125">
        <ele>2100</ele>
        <time>2026-06-15T10:24:16.000Z</time>
        <extensions>
          <ns3:TrackPointExtension>
            <ns3:atemp>14.0</ns3:atemp>
          </ns3:TrackPointExtension>
        </extensions>
      </trkpt>
      <trkpt lat="42.5720608793199062347412109375" lon="20.08586612530052661895751953125">
        <ele>2099.800048828125</ele>
        <time>2026-06-15T10:24:17.000Z</time>
        <extensions>
          <ns3:TrackPointExtension>
            <ns3:atemp>14.0</ns3:atemp>
          </ns3:TrackPointExtension>
        </extensions>
      </trkpt>
      <trkpt lat="42.5720608793199062347412109375" lon="20.08586612530052661895751953125">
        <ele>2099.800048828125</ele>
        <time>2026-06-15T10:24:18.000Z</time>
        <extensions>
          <ns3:TrackPointExtension>
            <ns3:atemp>14.0</ns3:atemp>
          </ns3:TrackPointExtension>
        </extensions>
      </trkpt>
      <trkpt lat="42.5720608793199062347412109375" lon="20.08586612530052661895751953125">
        <ele>2099.800048828125</ele>
        <time>2026-06-15T10:24:19.000Z</time>
        <extensions>
          <ns3:TrackPointExtension>
            <ns3:atemp>14.0</ns3:atemp>
          </ns3:TrackPointExtension>
        </extensions>
      </trkpt>
      <trkpt lat="42.5720608793199062347412109375" lon="20.08586612530052661895751953125">
        <ele>2099.800048828125</ele>
        <time>2026-06-15T10:24:20.000Z</time>
        <extensions>
          <ns3:TrackPointExtension>
            <ns3:atemp>14.0</ns3:atemp>
          </ns3:TrackPointExtension>
        </extensions>
      </trkpt>
      <trkpt lat="42.5720608793199062347412109375" lon="20.08586612530052661895751953125">
        <ele>2099.800048828125</ele>
        <time>2026-06-15T10:24:21.000Z</time>
        <extensions>
          <ns3:TrackPointExtension>
            <ns3:atemp>14.0</ns3:atemp>
          </ns3:TrackPointExtension>
        </extensions>
      </trkpt>
      <trkpt lat="42.5720608793199062347412109375" lon="20.08586612530052661895751953125">
        <ele>2099.800048828125</ele>
        <time>2026-06-15T10:24:22.000Z</time>
        <extensions>
          <ns3:TrackPointExtension>
            <ns3:atemp>15.0</ns3:atemp>
          </ns3:TrackPointExtension>
        </extensions>
      </trkpt>
      <trkpt lat="42.5720608793199062347412109375" lon="20.08586612530052661895751953125">
        <ele>2099.800048828125</ele>
        <time>2026-06-15T10:24:23.000Z</time>
        <extensions>
          <ns3:TrackPointExtension>
            <ns3:atemp>15.0</ns3:atemp>
          </ns3:TrackPointExtension>
        </extensions>
      </trkpt>
      <trkpt lat="42.5720608793199062347412109375" lon="20.08586612530052661895751953125">
        <ele>2099.800048828125</ele>
        <time>2026-06-15T10:24:24.000Z</time>
        <extensions>
          <ns3:TrackPointExtension>
            <ns3:atemp>15.0</ns3:atemp>
          </ns3:TrackPointExtension>
        </extensions>
      </trkpt>
      <trkpt lat="42.5720608793199062347412109375" lon="20.08586612530052661895751953125">
        <ele>2099.800048828125</ele>
        <time>2026-06-15T10:24:25.000Z</time>
        <extensions>
          <ns3:TrackPointExtension>
            <ns3:atemp>15.0</ns3:atemp>
          </ns3:TrackPointExtension>
        </extensions>
      </trkpt>
      <trkpt lat="42.5720608793199062347412109375" lon="20.08586612530052661895751953125">
        <ele>2099.800048828125</ele>
        <time>2026-06-15T10:24:26.000Z</time>
        <extensions>
          <ns3:TrackPointExtension>
            <ns3:atemp>15.0</ns3:atemp>
          </ns3:TrackPointExtension>
        </extensions>
      </trkpt>
      <trkpt lat="42.5720608793199062347412109375" lon="20.08586612530052661895751953125">
        <ele>2099.800048828125</ele>
        <time>2026-06-15T10:24:27.000Z</time>
        <extensions>
          <ns3:TrackPointExtension>
            <ns3:atemp>15.0</ns3:atemp>
          </ns3:TrackPointExtension>
        </extensions>
      </trkpt>
      <trkpt lat="42.5720608793199062347412109375" lon="20.08586612530052661895751953125">
        <ele>2099.800048828125</ele>
        <time>2026-06-15T10:24:28.000Z</time>
        <extensions>
          <ns3:TrackPointExtension>
            <ns3:atemp>15.0</ns3:atemp>
          </ns3:TrackPointExtension>
        </extensions>
      </trkpt>
      <trkpt lat="42.5720608793199062347412109375" lon="20.08586612530052661895751953125">
        <ele>2099.800048828125</ele>
        <time>2026-06-15T10:24:29.000Z</time>
        <extensions>
          <ns3:TrackPointExtension>
            <ns3:atemp>15.0</ns3:atemp>
          </ns3:TrackPointExtension>
        </extensions>
      </trkpt>
      <trkpt lat="42.5720608793199062347412109375" lon="20.08586612530052661895751953125">
        <ele>2099.800048828125</ele>
        <time>2026-06-15T10:24:30.000Z</time>
        <extensions>
          <ns3:TrackPointExtension>
            <ns3:atemp>15.0</ns3:atemp>
          </ns3:TrackPointExtension>
        </extensions>
      </trkpt>
      <trkpt lat="42.5720608793199062347412109375" lon="20.08586612530052661895751953125">
        <ele>2099.800048828125</ele>
        <time>2026-06-15T10:24:31.000Z</time>
        <extensions>
          <ns3:TrackPointExtension>
            <ns3:atemp>14.0</ns3:atemp>
          </ns3:TrackPointExtension>
        </extensions>
      </trkpt>
      <trkpt lat="42.5720608793199062347412109375" lon="20.08586612530052661895751953125">
        <ele>2099.800048828125</ele>
        <time>2026-06-15T10:24:32.000Z</time>
        <extensions>
          <ns3:TrackPointExtension>
            <ns3:atemp>15.0</ns3:atemp>
          </ns3:TrackPointExtension>
        </extensions>
      </trkpt>
      <trkpt lat="42.5720608793199062347412109375" lon="20.08586612530052661895751953125">
        <ele>2099.800048828125</ele>
        <time>2026-06-15T10:24:33.000Z</time>
        <extensions>
          <ns3:TrackPointExtension>
            <ns3:atemp>15.0</ns3:atemp>
          </ns3:TrackPointExtension>
        </extensions>
      </trkpt>
      <trkpt lat="42.5720608793199062347412109375" lon="20.08586612530052661895751953125">
        <ele>2099.800048828125</ele>
        <time>2026-06-15T10:24:34.000Z</time>
        <extensions>
          <ns3:TrackPointExtension>
            <ns3:atemp>15.0</ns3:atemp>
          </ns3:TrackPointExtension>
        </extensions>
      </trkpt>
      <trkpt lat="42.5720608793199062347412109375" lon="20.08586612530052661895751953125">
        <ele>2099.800048828125</ele>
        <time>2026-06-15T10:24:35.000Z</time>
        <extensions>
          <ns3:TrackPointExtension>
            <ns3:atemp>15.0</ns3:atemp>
          </ns3:TrackPointExtension>
        </extensions>
      </trkpt>
      <trkpt lat="42.5720608793199062347412109375" lon="20.08586612530052661895751953125">
        <ele>2099.800048828125</ele>
        <time>2026-06-15T10:24:36.000Z</time>
        <extensions>
          <ns3:TrackPointExtension>
            <ns3:atemp>15.0</ns3:atemp>
          </ns3:TrackPointExtension>
        </extensions>
      </trkpt>
      <trkpt lat="42.5720608793199062347412109375" lon="20.08586612530052661895751953125">
        <ele>2099.800048828125</ele>
        <time>2026-06-15T10:24:37.000Z</time>
        <extensions>
          <ns3:TrackPointExtension>
            <ns3:atemp>15.0</ns3:atemp>
          </ns3:TrackPointExtension>
        </extensions>
      </trkpt>
      <trkpt lat="42.5720608793199062347412109375" lon="20.08586612530052661895751953125">
        <ele>2099.800048828125</ele>
        <time>2026-06-15T10:24:38.000Z</time>
        <extensions>
          <ns3:TrackPointExtension>
            <ns3:atemp>15.0</ns3:atemp>
          </ns3:TrackPointExtension>
        </extensions>
      </trkpt>
      <trkpt lat="42.5720608793199062347412109375" lon="20.08586612530052661895751953125">
        <ele>2099.800048828125</ele>
        <time>2026-06-15T10:24:39.000Z</time>
        <extensions>
          <ns3:TrackPointExtension>
            <ns3:atemp>14.0</ns3:atemp>
          </ns3:TrackPointExtension>
        </extensions>
      </trkpt>
      <trkpt lat="42.5720608793199062347412109375" lon="20.08586612530052661895751953125">
        <ele>2099.800048828125</ele>
        <time>2026-06-15T10:24:40.000Z</time>
        <extensions>
          <ns3:TrackPointExtension>
            <ns3:atemp>14.0</ns3:atemp>
          </ns3:TrackPointExtension>
        </extensions>
      </trkpt>
      <trkpt lat="42.5720608793199062347412109375" lon="20.08586612530052661895751953125">
        <ele>2099.800048828125</ele>
        <time>2026-06-15T10:24:41.000Z</time>
        <extensions>
          <ns3:TrackPointExtension>
            <ns3:atemp>15.0</ns3:atemp>
          </ns3:TrackPointExtension>
        </extensions>
      </trkpt>
      <trkpt lat="42.5720608793199062347412109375" lon="20.08586612530052661895751953125">
        <ele>2099.800048828125</ele>
        <time>2026-06-15T10:24:42.000Z</time>
        <extensions>
          <ns3:TrackPointExtension>
            <ns3:atemp>15.0</ns3:atemp>
          </ns3:TrackPointExtension>
        </extensions>
      </trkpt>
      <trkpt lat="42.5720608793199062347412109375" lon="20.08586612530052661895751953125">
        <ele>2100</ele>
        <time>2026-06-15T10:24:43.000Z</time>
        <extensions>
          <ns3:TrackPointExtension>
            <ns3:atemp>15.0</ns3:atemp>
          </ns3:TrackPointExtension>
        </extensions>
      </trkpt>
      <trkpt lat="42.5720608793199062347412109375" lon="20.08586612530052661895751953125">
        <ele>2100</ele>
        <time>2026-06-15T10:24:44.000Z</time>
        <extensions>
          <ns3:TrackPointExtension>
            <ns3:atemp>15.0</ns3:atemp>
          </ns3:TrackPointExtension>
        </extensions>
      </trkpt>
      <trkpt lat="42.5720608793199062347412109375" lon="20.08586612530052661895751953125">
        <ele>2100</ele>
        <time>2026-06-15T10:24:45.000Z</time>
        <extensions>
          <ns3:TrackPointExtension>
            <ns3:atemp>15.0</ns3:atemp>
          </ns3:TrackPointExtension>
        </extensions>
      </trkpt>
      <trkpt lat="42.5720608793199062347412109375" lon="20.08586612530052661895751953125">
        <ele>2100</ele>
        <time>2026-06-15T10:24:46.000Z</time>
        <extensions>
          <ns3:TrackPointExtension>
            <ns3:atemp>15.0</ns3:atemp>
          </ns3:TrackPointExtension>
        </extensions>
      </trkpt>
      <trkpt lat="42.5720608793199062347412109375" lon="20.08586612530052661895751953125">
        <ele>2100.199951171875</ele>
        <time>2026-06-15T10:24:47.000Z</time>
        <extensions>
          <ns3:TrackPointExtension>
            <ns3:atemp>14.0</ns3:atemp>
          </ns3:TrackPointExtension>
        </extensions>
      </trkpt>
      <trkpt lat="42.5720608793199062347412109375" lon="20.08586612530052661895751953125">
        <ele>2100.199951171875</ele>
        <time>2026-06-15T10:24:48.000Z</time>
        <extensions>
          <ns3:TrackPointExtension>
            <ns3:atemp>15.0</ns3:atemp>
          </ns3:TrackPointExtension>
        </extensions>
      </trkpt>
      <trkpt lat="42.5720608793199062347412109375" lon="20.08586612530052661895751953125">
        <ele>2100.199951171875</ele>
        <time>2026-06-15T10:24:49.000Z</time>
        <extensions>
          <ns3:TrackPointExtension>
            <ns3:atemp>15.0</ns3:atemp>
          </ns3:TrackPointExtension>
        </extensions>
      </trkpt>
      <trkpt lat="42.5720608793199062347412109375" lon="20.08586612530052661895751953125">
        <ele>2100.199951171875</ele>
        <time>2026-06-15T10:24:50.000Z</time>
        <extensions>
          <ns3:TrackPointExtension>
            <ns3:atemp>15.0</ns3:atemp>
          </ns3:TrackPointExtension>
        </extensions>
      </trkpt>
      <trkpt lat="42.5720608793199062347412109375" lon="20.08586612530052661895751953125">
        <ele>2100</ele>
        <time>2026-06-15T10:24:51.000Z</time>
        <extensions>
          <ns3:TrackPointExtension>
            <ns3:atemp>15.0</ns3:atemp>
          </ns3:TrackPointExtension>
        </extensions>
      </trkpt>
      <trkpt lat="42.5720608793199062347412109375" lon="20.08586612530052661895751953125">
        <ele>2100</ele>
        <time>2026-06-15T10:24:52.000Z</time>
        <extensions>
          <ns3:TrackPointExtension>
            <ns3:atemp>15.0</ns3:atemp>
          </ns3:TrackPointExtension>
        </extensions>
      </trkpt>
      <trkpt lat="42.5720608793199062347412109375" lon="20.08586612530052661895751953125">
        <ele>2100</ele>
        <time>2026-06-15T10:24:53.000Z</time>
        <extensions>
          <ns3:TrackPointExtension>
            <ns3:atemp>15.0</ns3:atemp>
          </ns3:TrackPointExtension>
        </extensions>
      </trkpt>
      <trkpt lat="42.5720608793199062347412109375" lon="20.08586612530052661895751953125">
        <ele>2099.800048828125</ele>
        <time>2026-06-15T10:24:54.000Z</time>
        <extensions>
          <ns3:TrackPointExtension>
            <ns3:atemp>15.0</ns3:atemp>
          </ns3:TrackPointExtension>
        </extensions>
      </trkpt>
      <trkpt lat="42.5720608793199062347412109375" lon="20.08586612530052661895751953125">
        <ele>2099.800048828125</ele>
        <time>2026-06-15T10:24:55.000Z</time>
        <extensions>
          <ns3:TrackPointExtension>
            <ns3:atemp>14.0</ns3:atemp>
          </ns3:TrackPointExtension>
        </extensions>
      </trkpt>
      <trkpt lat="42.5720608793199062347412109375" lon="20.08586612530052661895751953125">
        <ele>2100</ele>
        <time>2026-06-15T10:24:56.000Z</time>
        <extensions>
          <ns3:TrackPointExtension>
            <ns3:atemp>15.0</ns3:atemp>
          </ns3:TrackPointExtension>
        </extensions>
      </trkpt>
      <trkpt lat="42.5720608793199062347412109375" lon="20.08586612530052661895751953125">
        <ele>2100</ele>
        <time>2026-06-15T10:24:57.000Z</time>
        <extensions>
          <ns3:TrackPointExtension>
            <ns3:atemp>15.0</ns3:atemp>
          </ns3:TrackPointExtension>
        </extensions>
      </trkpt>
      <trkpt lat="42.5720608793199062347412109375" lon="20.08586612530052661895751953125">
        <ele>2100</ele>
        <time>2026-06-15T10:24:58.000Z</time>
        <extensions>
          <ns3:TrackPointExtension>
            <ns3:atemp>15.0</ns3:atemp>
          </ns3:TrackPointExtension>
        </extensions>
      </trkpt>
      <trkpt lat="42.5720608793199062347412109375" lon="20.08586612530052661895751953125">
        <ele>2100</ele>
        <time>2026-06-15T10:24:59.000Z</time>
        <extensions>
          <ns3:TrackPointExtension>
            <ns3:atemp>15.0</ns3:atemp>
          </ns3:TrackPointExtension>
        </extensions>
      </trkpt>
      <trkpt lat="42.5720608793199062347412109375" lon="20.08586612530052661895751953125">
        <ele>2100</ele>
        <time>2026-06-15T10:25:00.000Z</time>
        <extensions>
          <ns3:TrackPointExtension>
            <ns3:atemp>14.0</ns3:atemp>
          </ns3:TrackPointExtension>
        </extensions>
      </trkpt>
      <trkpt lat="42.5720608793199062347412109375" lon="20.08586612530052661895751953125">
        <ele>2100</ele>
        <time>2026-06-15T10:25:01.000Z</time>
        <extensions>
          <ns3:TrackPointExtension>
            <ns3:atemp>14.0</ns3:atemp>
          </ns3:TrackPointExtension>
        </extensions>
      </trkpt>
      <trkpt lat="42.5720608793199062347412109375" lon="20.08586612530052661895751953125">
        <ele>2100</ele>
        <time>2026-06-15T10:25:02.000Z</time>
        <extensions>
          <ns3:TrackPointExtension>
            <ns3:atemp>14.0</ns3:atemp>
          </ns3:TrackPointExtension>
        </extensions>
      </trkpt>
      <trkpt lat="42.5720608793199062347412109375" lon="20.08586612530052661895751953125">
        <ele>2100</ele>
        <time>2026-06-15T10:25:03.000Z</time>
        <extensions>
          <ns3:TrackPointExtension>
            <ns3:atemp>15.0</ns3:atemp>
          </ns3:TrackPointExtension>
        </extensions>
      </trkpt>
      <trkpt lat="42.5720608793199062347412109375" lon="20.08586612530052661895751953125">
        <ele>2100</ele>
        <time>2026-06-15T10:25:04.000Z</time>
        <extensions>
          <ns3:TrackPointExtension>
            <ns3:atemp>15.0</ns3:atemp>
          </ns3:TrackPointExtension>
        </extensions>
      </trkpt>
      <trkpt lat="42.5720608793199062347412109375" lon="20.08586612530052661895751953125">
        <ele>2100</ele>
        <time>2026-06-15T10:25:05.000Z</time>
        <extensions>
          <ns3:TrackPointExtension>
            <ns3:atemp>15.0</ns3:atemp>
          </ns3:TrackPointExtension>
        </extensions>
      </trkpt>
      <trkpt lat="42.5720608793199062347412109375" lon="20.08586612530052661895751953125">
        <ele>2100</ele>
        <time>2026-06-15T10:25:06.000Z</time>
        <extensions>
          <ns3:TrackPointExtension>
            <ns3:atemp>15.0</ns3:atemp>
          </ns3:TrackPointExtension>
        </extensions>
      </trkpt>
      <trkpt lat="42.5720608793199062347412109375" lon="20.08586612530052661895751953125">
        <ele>2100</ele>
        <time>2026-06-15T10:25:07.000Z</time>
        <extensions>
          <ns3:TrackPointExtension>
            <ns3:atemp>14.0</ns3:atemp>
          </ns3:TrackPointExtension>
        </extensions>
      </trkpt>
      <trkpt lat="42.5720608793199062347412109375" lon="20.08586612530052661895751953125">
        <ele>2100</ele>
        <time>2026-06-15T10:25:08.000Z</time>
        <extensions>
          <ns3:TrackPointExtension>
            <ns3:atemp>14.0</ns3:atemp>
          </ns3:TrackPointExtension>
        </extensions>
      </trkpt>
      <trkpt lat="42.5720608793199062347412109375" lon="20.08586612530052661895751953125">
        <ele>2100</ele>
        <time>2026-06-15T10:25:09.000Z</time>
        <extensions>
          <ns3:TrackPointExtension>
            <ns3:atemp>15.0</ns3:atemp>
          </ns3:TrackPointExtension>
        </extensions>
      </trkpt>
      <trkpt lat="42.5720608793199062347412109375" lon="20.08586612530052661895751953125">
        <ele>2100</ele>
        <time>2026-06-15T10:25:10.000Z</time>
        <extensions>
          <ns3:TrackPointExtension>
            <ns3:atemp>14.0</ns3:atemp>
          </ns3:TrackPointExtension>
        </extensions>
      </trkpt>
      <trkpt lat="42.5720608793199062347412109375" lon="20.08586612530052661895751953125">
        <ele>2100</ele>
        <time>2026-06-15T10:25:11.000Z</time>
        <extensions>
          <ns3:TrackPointExtension>
            <ns3:atemp>14.0</ns3:atemp>
          </ns3:TrackPointExtension>
        </extensions>
      </trkpt>
      <trkpt lat="42.5720608793199062347412109375" lon="20.08586612530052661895751953125">
        <ele>2100</ele>
        <time>2026-06-15T10:25:12.000Z</time>
        <extensions>
          <ns3:TrackPointExtension>
            <ns3:atemp>14.0</ns3:atemp>
          </ns3:TrackPointExtension>
        </extensions>
      </trkpt>
      <trkpt lat="42.5720608793199062347412109375" lon="20.08586612530052661895751953125">
        <ele>2100</ele>
        <time>2026-06-15T10:25:13.000Z</time>
        <extensions>
          <ns3:TrackPointExtension>
            <ns3:atemp>14.0</ns3:atemp>
          </ns3:TrackPointExtension>
        </extensions>
      </trkpt>
      <trkpt lat="42.5720608793199062347412109375" lon="20.08586612530052661895751953125">
        <ele>2100</ele>
        <time>2026-06-15T10:25:14.000Z</time>
        <extensions>
          <ns3:TrackPointExtension>
            <ns3:atemp>14.0</ns3:atemp>
          </ns3:TrackPointExtension>
        </extensions>
      </trkpt>
      <trkpt lat="42.5720608793199062347412109375" lon="20.08586612530052661895751953125">
        <ele>2100</ele>
        <time>2026-06-15T10:25:15.000Z</time>
        <extensions>
          <ns3:TrackPointExtension>
            <ns3:atemp>14.0</ns3:atemp>
          </ns3:TrackPointExtension>
        </extensions>
      </trkpt>
      <trkpt lat="42.5720608793199062347412109375" lon="20.08586612530052661895751953125">
        <ele>2100</ele>
        <time>2026-06-15T10:25:16.000Z</time>
        <extensions>
          <ns3:TrackPointExtension>
            <ns3:atemp>14.0</ns3:atemp>
          </ns3:TrackPointExtension>
        </extensions>
      </trkpt>
      <trkpt lat="42.5720608793199062347412109375" lon="20.08586612530052661895751953125">
        <ele>2100</ele>
        <time>2026-06-15T10:25:17.000Z</time>
        <extensions>
          <ns3:TrackPointExtension>
            <ns3:atemp>15.0</ns3:atemp>
          </ns3:TrackPointExtension>
        </extensions>
      </trkpt>
      <trkpt lat="42.5720608793199062347412109375" lon="20.08586612530052661895751953125">
        <ele>2100</ele>
        <time>2026-06-15T10:25:18.000Z</time>
        <extensions>
          <ns3:TrackPointExtension>
            <ns3:atemp>15.0</ns3:atemp>
          </ns3:TrackPointExtension>
        </extensions>
      </trkpt>
      <trkpt lat="42.5720608793199062347412109375" lon="20.08586612530052661895751953125">
        <ele>2100</ele>
        <time>2026-06-15T10:25:19.000Z</time>
        <extensions>
          <ns3:TrackPointExtension>
            <ns3:atemp>15.0</ns3:atemp>
          </ns3:TrackPointExtension>
        </extensions>
      </trkpt>
      <trkpt lat="42.5720608793199062347412109375" lon="20.08586612530052661895751953125">
        <ele>2100</ele>
        <time>2026-06-15T10:25:20.000Z</time>
        <extensions>
          <ns3:TrackPointExtension>
            <ns3:atemp>15.0</ns3:atemp>
          </ns3:TrackPointExtension>
        </extensions>
      </trkpt>
      <trkpt lat="42.5720608793199062347412109375" lon="20.08586612530052661895751953125">
        <ele>2100</ele>
        <time>2026-06-15T10:25:21.000Z</time>
        <extensions>
          <ns3:TrackPointExtension>
            <ns3:atemp>15.0</ns3:atemp>
          </ns3:TrackPointExtension>
        </extensions>
      </trkpt>
      <trkpt lat="42.5720608793199062347412109375" lon="20.08586612530052661895751953125">
        <ele>2100</ele>
        <time>2026-06-15T10:25:22.000Z</time>
        <extensions>
          <ns3:TrackPointExtension>
            <ns3:atemp>15.0</ns3:atemp>
          </ns3:TrackPointExtension>
        </extensions>
      </trkpt>
      <trkpt lat="42.5720608793199062347412109375" lon="20.08586612530052661895751953125">
        <ele>2100</ele>
        <time>2026-06-15T10:25:23.000Z</time>
        <extensions>
          <ns3:TrackPointExtension>
            <ns3:atemp>15.0</ns3:atemp>
          </ns3:TrackPointExtension>
        </extensions>
      </trkpt>
      <trkpt lat="42.5720608793199062347412109375" lon="20.08586612530052661895751953125">
        <ele>2100</ele>
        <time>2026-06-15T10:25:24.000Z</time>
        <extensions>
          <ns3:TrackPointExtension>
            <ns3:atemp>15.0</ns3:atemp>
          </ns3:TrackPointExtension>
        </extensions>
      </trkpt>
      <trkpt lat="42.5720608793199062347412109375" lon="20.08586612530052661895751953125">
        <ele>2100</ele>
        <time>2026-06-15T10:25:25.000Z</time>
        <extensions>
          <ns3:TrackPointExtension>
            <ns3:atemp>15.0</ns3:atemp>
          </ns3:TrackPointExtension>
        </extensions>
      </trkpt>
      <trkpt lat="42.5720608793199062347412109375" lon="20.08586612530052661895751953125">
        <ele>2100</ele>
        <time>2026-06-15T10:25:26.000Z</time>
        <extensions>
          <ns3:TrackPointExtension>
            <ns3:atemp>15.0</ns3:atemp>
          </ns3:TrackPointExtension>
        </extensions>
      </trkpt>
      <trkpt lat="42.5720608793199062347412109375" lon="20.08586612530052661895751953125">
        <ele>2100</ele>
        <time>2026-06-15T10:25:27.000Z</time>
        <extensions>
          <ns3:TrackPointExtension>
            <ns3:atemp>15.0</ns3:atemp>
          </ns3:TrackPointExtension>
        </extensions>
      </trkpt>
      <trkpt lat="42.5720608793199062347412109375" lon="20.08586612530052661895751953125">
        <ele>2100</ele>
        <time>2026-06-15T10:25:28.000Z</time>
        <extensions>
          <ns3:TrackPointExtension>
            <ns3:atemp>15.0</ns3:atemp>
          </ns3:TrackPointExtension>
        </extensions>
      </trkpt>
      <trkpt lat="42.5720608793199062347412109375" lon="20.08586612530052661895751953125">
        <ele>2100</ele>
        <time>2026-06-15T10:25:29.000Z</time>
        <extensions>
          <ns3:TrackPointExtension>
            <ns3:atemp>15.0</ns3:atemp>
          </ns3:TrackPointExtension>
        </extensions>
      </trkpt>
      <trkpt lat="42.5720608793199062347412109375" lon="20.08586612530052661895751953125">
        <ele>2100</ele>
        <time>2026-06-15T10:25:30.000Z</time>
        <extensions>
          <ns3:TrackPointExtension>
            <ns3:atemp>15.0</ns3:atemp>
          </ns3:TrackPointExtension>
        </extensions>
      </trkpt>
      <trkpt lat="42.5720608793199062347412109375" lon="20.08586612530052661895751953125">
        <ele>2100</ele>
        <time>2026-06-15T10:25:31.000Z</time>
        <extensions>
          <ns3:TrackPointExtension>
            <ns3:atemp>15.0</ns3:atemp>
          </ns3:TrackPointExtension>
        </extensions>
      </trkpt>
      <trkpt lat="42.5720608793199062347412109375" lon="20.08586612530052661895751953125">
        <ele>2100</ele>
        <time>2026-06-15T10:25:32.000Z</time>
        <extensions>
          <ns3:TrackPointExtension>
            <ns3:atemp>15.0</ns3:atemp>
          </ns3:TrackPointExtension>
        </extensions>
      </trkpt>
      <trkpt lat="42.5720608793199062347412109375" lon="20.08586612530052661895751953125">
        <ele>2100</ele>
        <time>2026-06-15T10:25:33.000Z</time>
        <extensions>
          <ns3:TrackPointExtension>
            <ns3:atemp>15.0</ns3:atemp>
          </ns3:TrackPointExtension>
        </extensions>
      </trkpt>
      <trkpt lat="42.5720608793199062347412109375" lon="20.08586612530052661895751953125">
        <ele>2100</ele>
        <time>2026-06-15T10:25:34.000Z</time>
        <extensions>
          <ns3:TrackPointExtension>
            <ns3:atemp>15.0</ns3:atemp>
          </ns3:TrackPointExtension>
        </extensions>
      </trkpt>
      <trkpt lat="42.5720608793199062347412109375" lon="20.08586612530052661895751953125">
        <ele>2100</ele>
        <time>2026-06-15T10:25:35.000Z</time>
        <extensions>
          <ns3:TrackPointExtension>
            <ns3:atemp>15.0</ns3:atemp>
          </ns3:TrackPointExtension>
        </extensions>
      </trkpt>
      <trkpt lat="42.5720608793199062347412109375" lon="20.08586612530052661895751953125">
        <ele>2100</ele>
        <time>2026-06-15T10:25:36.000Z</time>
        <extensions>
          <ns3:TrackPointExtension>
            <ns3:atemp>15.0</ns3:atemp>
          </ns3:TrackPointExtension>
        </extensions>
      </trkpt>
      <trkpt lat="42.5720608793199062347412109375" lon="20.08586612530052661895751953125">
        <ele>2100</ele>
        <time>2026-06-15T10:25:37.000Z</time>
        <extensions>
          <ns3:TrackPointExtension>
            <ns3:atemp>15.0</ns3:atemp>
          </ns3:TrackPointExtension>
        </extensions>
      </trkpt>
      <trkpt lat="42.5720608793199062347412109375" lon="20.08586612530052661895751953125">
        <ele>2100</ele>
        <time>2026-06-15T10:25:38.000Z</time>
        <extensions>
          <ns3:TrackPointExtension>
            <ns3:atemp>15.0</ns3:atemp>
          </ns3:TrackPointExtension>
        </extensions>
      </trkpt>
      <trkpt lat="42.5720608793199062347412109375" lon="20.08586612530052661895751953125">
        <ele>2100</ele>
        <time>2026-06-15T10:25:39.000Z</time>
        <extensions>
          <ns3:TrackPointExtension>
            <ns3:atemp>15.0</ns3:atemp>
          </ns3:TrackPointExtension>
        </extensions>
      </trkpt>
      <trkpt lat="42.5720608793199062347412109375" lon="20.08586612530052661895751953125">
        <ele>2100</ele>
        <time>2026-06-15T10:25:40.000Z</time>
        <extensions>
          <ns3:TrackPointExtension>
            <ns3:atemp>15.0</ns3:atemp>
          </ns3:TrackPointExtension>
        </extensions>
      </trkpt>
      <trkpt lat="42.5720608793199062347412109375" lon="20.08586612530052661895751953125">
        <ele>2100</ele>
        <time>2026-06-15T10:25:41.000Z</time>
        <extensions>
          <ns3:TrackPointExtension>
            <ns3:atemp>15.0</ns3:atemp>
          </ns3:TrackPointExtension>
        </extensions>
      </trkpt>
      <trkpt lat="42.5720608793199062347412109375" lon="20.08586612530052661895751953125">
        <ele>2100</ele>
        <time>2026-06-15T10:25:42.000Z</time>
        <extensions>
          <ns3:TrackPointExtension>
            <ns3:atemp>15.0</ns3:atemp>
          </ns3:TrackPointExtension>
        </extensions>
      </trkpt>
      <trkpt lat="42.5720608793199062347412109375" lon="20.08586612530052661895751953125">
        <ele>2100</ele>
        <time>2026-06-15T10:25:43.000Z</time>
        <extensions>
          <ns3:TrackPointExtension>
            <ns3:atemp>15.0</ns3:atemp>
          </ns3:TrackPointExtension>
        </extensions>
      </trkpt>
      <trkpt lat="42.5720608793199062347412109375" lon="20.08586612530052661895751953125">
        <ele>2100</ele>
        <time>2026-06-15T10:25:44.000Z</time>
        <extensions>
          <ns3:TrackPointExtension>
            <ns3:atemp>15.0</ns3:atemp>
          </ns3:TrackPointExtension>
        </extensions>
      </trkpt>
      <trkpt lat="42.5720608793199062347412109375" lon="20.08586612530052661895751953125">
        <ele>2100</ele>
        <time>2026-06-15T10:25:45.000Z</time>
        <extensions>
          <ns3:TrackPointExtension>
            <ns3:atemp>15.0</ns3:atemp>
          </ns3:TrackPointExtension>
        </extensions>
      </trkpt>
      <trkpt lat="42.5720608793199062347412109375" lon="20.08586612530052661895751953125">
        <ele>2100</ele>
        <time>2026-06-15T10:25:46.000Z</time>
        <extensions>
          <ns3:TrackPointExtension>
            <ns3:atemp>15.0</ns3:atemp>
          </ns3:TrackPointExtension>
        </extensions>
      </trkpt>
      <trkpt lat="42.5720608793199062347412109375" lon="20.08586612530052661895751953125">
        <ele>2100</ele>
        <time>2026-06-15T10:25:47.000Z</time>
        <extensions>
          <ns3:TrackPointExtension>
            <ns3:atemp>15.0</ns3:atemp>
          </ns3:TrackPointExtension>
        </extensions>
      </trkpt>
      <trkpt lat="42.5720608793199062347412109375" lon="20.08586612530052661895751953125">
        <ele>2100</ele>
        <time>2026-06-15T10:25:48.000Z</time>
        <extensions>
          <ns3:TrackPointExtension>
            <ns3:atemp>15.0</ns3:atemp>
          </ns3:TrackPointExtension>
        </extensions>
      </trkpt>
      <trkpt lat="42.5720608793199062347412109375" lon="20.08586612530052661895751953125">
        <ele>2100</ele>
        <time>2026-06-15T10:25:49.000Z</time>
        <extensions>
          <ns3:TrackPointExtension>
            <ns3:atemp>15.0</ns3:atemp>
          </ns3:TrackPointExtension>
        </extensions>
      </trkpt>
      <trkpt lat="42.5720608793199062347412109375" lon="20.08586612530052661895751953125">
        <ele>2100</ele>
        <time>2026-06-15T10:25:50.000Z</time>
        <extensions>
          <ns3:TrackPointExtension>
            <ns3:atemp>15.0</ns3:atemp>
          </ns3:TrackPointExtension>
        </extensions>
      </trkpt>
      <trkpt lat="42.5720608793199062347412109375" lon="20.08586612530052661895751953125">
        <ele>2100</ele>
        <time>2026-06-15T10:25:51.000Z</time>
        <extensions>
          <ns3:TrackPointExtension>
            <ns3:atemp>15.0</ns3:atemp>
          </ns3:TrackPointExtension>
        </extensions>
      </trkpt>
      <trkpt lat="42.5720608793199062347412109375" lon="20.08586612530052661895751953125">
        <ele>2100</ele>
        <time>2026-06-15T10:25:52.000Z</time>
        <extensions>
          <ns3:TrackPointExtension>
            <ns3:atemp>15.0</ns3:atemp>
          </ns3:TrackPointExtension>
        </extensions>
      </trkpt>
      <trkpt lat="42.5720608793199062347412109375" lon="20.08586612530052661895751953125">
        <ele>2100</ele>
        <time>2026-06-15T10:25:53.000Z</time>
        <extensions>
          <ns3:TrackPointExtension>
            <ns3:atemp>15.0</ns3:atemp>
          </ns3:TrackPointExtension>
        </extensions>
      </trkpt>
      <trkpt lat="42.5720608793199062347412109375" lon="20.08586612530052661895751953125">
        <ele>2100</ele>
        <time>2026-06-15T10:25:54.000Z</time>
        <extensions>
          <ns3:TrackPointExtension>
            <ns3:atemp>15.0</ns3:atemp>
          </ns3:TrackPointExtension>
        </extensions>
      </trkpt>
      <trkpt lat="42.5720608793199062347412109375" lon="20.08586612530052661895751953125">
        <ele>2100</ele>
        <time>2026-06-15T10:25:55.000Z</time>
        <extensions>
          <ns3:TrackPointExtension>
            <ns3:atemp>15.0</ns3:atemp>
          </ns3:TrackPointExtension>
        </extensions>
      </trkpt>
      <trkpt lat="42.5720608793199062347412109375" lon="20.08586612530052661895751953125">
        <ele>2100</ele>
        <time>2026-06-15T10:25:56.000Z</time>
        <extensions>
          <ns3:TrackPointExtension>
            <ns3:atemp>15.0</ns3:atemp>
          </ns3:TrackPointExtension>
        </extensions>
      </trkpt>
      <trkpt lat="42.5720608793199062347412109375" lon="20.08586612530052661895751953125">
        <ele>2100</ele>
        <time>2026-06-15T10:25:57.000Z</time>
        <extensions>
          <ns3:TrackPointExtension>
            <ns3:atemp>15.0</ns3:atemp>
          </ns3:TrackPointExtension>
        </extensions>
      </trkpt>
      <trkpt lat="42.5720608793199062347412109375" lon="20.08586612530052661895751953125">
        <ele>2100</ele>
        <time>2026-06-15T10:25:58.000Z</time>
        <extensions>
          <ns3:TrackPointExtension>
            <ns3:atemp>15.0</ns3:atemp>
          </ns3:TrackPointExtension>
        </extensions>
      </trkpt>
      <trkpt lat="42.5720608793199062347412109375" lon="20.08586612530052661895751953125">
        <ele>2100</ele>
        <time>2026-06-15T10:25:59.000Z</time>
        <extensions>
          <ns3:TrackPointExtension>
            <ns3:atemp>15.0</ns3:atemp>
          </ns3:TrackPointExtension>
        </extensions>
      </trkpt>
      <trkpt lat="42.5720608793199062347412109375" lon="20.08586612530052661895751953125">
        <ele>2100</ele>
        <time>2026-06-15T10:26:00.000Z</time>
        <extensions>
          <ns3:TrackPointExtension>
            <ns3:atemp>15.0</ns3:atemp>
          </ns3:TrackPointExtension>
        </extensions>
      </trkpt>
      <trkpt lat="42.5720608793199062347412109375" lon="20.08586612530052661895751953125">
        <ele>2100</ele>
        <time>2026-06-15T10:26:01.000Z</time>
        <extensions>
          <ns3:TrackPointExtension>
            <ns3:atemp>15.0</ns3:atemp>
          </ns3:TrackPointExtension>
        </extensions>
      </trkpt>
      <trkpt lat="42.5720608793199062347412109375" lon="20.08586612530052661895751953125">
        <ele>2100</ele>
        <time>2026-06-15T10:26:02.000Z</time>
        <extensions>
          <ns3:TrackPointExtension>
            <ns3:atemp>15.0</ns3:atemp>
          </ns3:TrackPointExtension>
        </extensions>
      </trkpt>
      <trkpt lat="42.5720608793199062347412109375" lon="20.08586612530052661895751953125">
        <ele>2100</ele>
        <time>2026-06-15T10:26:03.000Z</time>
        <extensions>
          <ns3:TrackPointExtension>
            <ns3:atemp>15.0</ns3:atemp>
          </ns3:TrackPointExtension>
        </extensions>
      </trkpt>
      <trkpt lat="42.572061382234096527099609375" lon="20.08586528711020946502685546875">
        <ele>2100</ele>
        <time>2026-06-15T10:26:04.000Z</time>
        <extensions>
          <ns3:TrackPointExtension>
            <ns3:atemp>15.0</ns3:atemp>
          </ns3:TrackPointExtension>
        </extensions>
      </trkpt>
      <trkpt lat="42.5720608793199062347412109375" lon="20.08586612530052661895751953125">
        <ele>2100</ele>
        <time>2026-06-15T10:26:05.000Z</time>
        <extensions>
          <ns3:TrackPointExtension>
            <ns3:atemp>15.0</ns3:atemp>
          </ns3:TrackPointExtension>
        </extensions>
      </trkpt>
      <trkpt lat="42.5720608793199062347412109375" lon="20.08586612530052661895751953125">
        <ele>2100</ele>
        <time>2026-06-15T10:26:06.000Z</time>
        <extensions>
          <ns3:TrackPointExtension>
            <ns3:atemp>15.0</ns3:atemp>
          </ns3:TrackPointExtension>
        </extensions>
      </trkpt>
      <trkpt lat="42.5720608793199062347412109375" lon="20.08586612530052661895751953125">
        <ele>2100</ele>
        <time>2026-06-15T10:26:07.000Z</time>
        <extensions>
          <ns3:TrackPointExtension>
            <ns3:atemp>15.0</ns3:atemp>
          </ns3:TrackPointExtension>
        </extensions>
      </trkpt>
      <trkpt lat="42.5720608793199062347412109375" lon="20.08586612530052661895751953125">
        <ele>2100</ele>
        <time>2026-06-15T10:26:08.000Z</time>
        <extensions>
          <ns3:TrackPointExtension>
            <ns3:atemp>15.0</ns3:atemp>
          </ns3:TrackPointExtension>
        </extensions>
      </trkpt>
      <trkpt lat="42.5720608793199062347412109375" lon="20.08586612530052661895751953125">
        <ele>2100</ele>
        <time>2026-06-15T10:26:09.000Z</time>
        <extensions>
          <ns3:TrackPointExtension>
            <ns3:atemp>15.0</ns3:atemp>
          </ns3:TrackPointExtension>
        </extensions>
      </trkpt>
      <trkpt lat="42.572061717510223388671875" lon="20.0858645327389240264892578125">
        <ele>2100</ele>
        <time>2026-06-15T10:26:10.000Z</time>
        <extensions>
          <ns3:TrackPointExtension>
            <ns3:atemp>15.0</ns3:atemp>
          </ns3:TrackPointExtension>
        </extensions>
      </trkpt>
      <trkpt lat="42.5720649026334285736083984375" lon="20.08584760129451751708984375">
        <ele>2100</ele>
        <time>2026-06-15T10:26:11.000Z</time>
        <extensions>
          <ns3:TrackPointExtension>
            <ns3:atemp>15.0</ns3:atemp>
          </ns3:TrackPointExtension>
        </extensions>
      </trkpt>
      <trkpt lat="42.57206398062407970428466796875" lon="20.08584064431488513946533203125">
        <ele>2100</ele>
        <time>2026-06-15T10:26:12.000Z</time>
        <extensions>
          <ns3:TrackPointExtension>
            <ns3:atemp>15.0</ns3:atemp>
          </ns3:TrackPointExtension>
        </extensions>
      </trkpt>
      <trkpt lat="42.57206230424344539642333984375" lon="20.085826478898525238037109375">
        <ele>2100</ele>
        <time>2026-06-15T10:26:13.000Z</time>
        <extensions>
          <ns3:TrackPointExtension>
            <ns3:atemp>15.0</ns3:atemp>
          </ns3:TrackPointExtension>
        </extensions>
      </trkpt>
      <trkpt lat="42.57205568253993988037109375" lon="20.0858075357973575592041015625">
        <ele>2100</ele>
        <time>2026-06-15T10:26:14.000Z</time>
        <extensions>
          <ns3:TrackPointExtension>
            <ns3:atemp>15.0</ns3:atemp>
          </ns3:TrackPointExtension>
        </extensions>
      </trkpt>
      <trkpt lat="42.57204755209386348724365234375" lon="20.08578834123909473419189453125">
        <ele>2100</ele>
        <time>2026-06-15T10:26:15.000Z</time>
        <extensions>
          <ns3:TrackPointExtension>
            <ns3:atemp>15.0</ns3:atemp>
          </ns3:TrackPointExtension>
        </extensions>
      </trkpt>
      <trkpt lat="42.57204168476164340972900390625" lon="20.0857691466808319091796875">
        <ele>2100</ele>
        <time>2026-06-15T10:26:16.000Z</time>
        <extensions>
          <ns3:TrackPointExtension>
            <ns3:atemp>15.0</ns3:atemp>
          </ns3:TrackPointExtension>
        </extensions>
      </trkpt>
      <trkpt lat="42.5720384158194065093994140625" lon="20.08576051332056522369384765625">
        <ele>2100</ele>
        <time>2026-06-15T10:26:17.000Z</time>
        <extensions>
          <ns3:TrackPointExtension>
            <ns3:atemp>15.0</ns3:atemp>
          </ns3:TrackPointExtension>
        </extensions>
      </trkpt>
      <trkpt lat="42.5720427744090557098388671875" lon="20.0857611000537872314453125">
        <ele>2100</ele>
        <time>2026-06-15T10:26:18.000Z</time>
        <extensions>
          <ns3:TrackPointExtension>
            <ns3:atemp>15.0</ns3:atemp>
          </ns3:TrackPointExtension>
        </extensions>
      </trkpt>
      <trkpt lat="42.57204654626548290252685546875" lon="20.08574995212256908416748046875">
        <ele>2100</ele>
        <time>2026-06-15T10:26:19.000Z</time>
        <extensions>
          <ns3:TrackPointExtension>
            <ns3:atemp>15.0</ns3:atemp>
          </ns3:TrackPointExtension>
        </extensions>
      </trkpt>
      <trkpt lat="42.5720434449613094329833984375" lon="20.08572287857532501220703125">
        <ele>2100</ele>
        <time>2026-06-15T10:26:20.000Z</time>
        <extensions>
          <ns3:TrackPointExtension>
            <ns3:atemp>15.0</ns3:atemp>
          </ns3:TrackPointExtension>
        </extensions>
      </trkpt>
      <trkpt lat="42.57203045301139354705810546875" lon="20.08570234291255474090576171875">
        <ele>2100</ele>
        <time>2026-06-15T10:26:21.000Z</time>
        <extensions>
          <ns3:TrackPointExtension>
            <ns3:atemp>15.0</ns3:atemp>
          </ns3:TrackPointExtension>
        </extensions>
      </trkpt>
      <trkpt lat="42.5720122642815113067626953125" lon="20.0856875069439411163330078125">
        <ele>2099.800048828125</ele>
        <time>2026-06-15T10:26:22.000Z</time>
        <extensions>
          <ns3:TrackPointExtension>
            <ns3:atemp>15.0</ns3:atemp>
          </ns3:TrackPointExtension>
        </extensions>
      </trkpt>
      <trkpt lat="42.57199122570455074310302734375" lon="20.085687674582004547119140625">
        <ele>2099.800048828125</ele>
        <time>2026-06-15T10:26:23.000Z</time>
        <extensions>
          <ns3:TrackPointExtension>
            <ns3:atemp>15.0</ns3:atemp>
          </ns3:TrackPointExtension>
        </extensions>
      </trkpt>
      <trkpt lat="42.5719784013926982879638671875" lon="20.08569681085646152496337890625">
        <ele>2099.800048828125</ele>
        <time>2026-06-15T10:26:24.000Z</time>
        <extensions>
          <ns3:TrackPointExtension>
            <ns3:atemp>15.0</ns3:atemp>
          </ns3:TrackPointExtension>
        </extensions>
      </trkpt>
      <trkpt lat="42.57197328843176364898681640625" lon="20.0857113115489482879638671875">
        <ele>2100</ele>
        <time>2026-06-15T10:26:25.000Z</time>
        <extensions>
          <ns3:TrackPointExtension>
            <ns3:atemp>15.0</ns3:atemp>
          </ns3:TrackPointExtension>
        </extensions>
      </trkpt>
      <trkpt lat="42.571972198784351348876953125" lon="20.0857314281165599822998046875">
        <ele>2100.199951171875</ele>
        <time>2026-06-15T10:26:26.000Z</time>
        <extensions>
          <ns3:TrackPointExtension>
            <ns3:atemp>15.0</ns3:atemp>
          </ns3:TrackPointExtension>
        </extensions>
      </trkpt>
      <trkpt lat="42.57197496481239795684814453125" lon="20.0857508741319179534912109375">
        <ele>2100.39990234375</ele>
        <time>2026-06-15T10:26:27.000Z</time>
        <extensions>
          <ns3:TrackPointExtension>
            <ns3:atemp>15.0</ns3:atemp>
          </ns3:TrackPointExtension>
        </extensions>
      </trkpt>
      <trkpt lat="42.57198049686849117279052734375" lon="20.08576705120503902435302734375">
        <ele>2100.39990234375</ele>
        <time>2026-06-15T10:26:28.000Z</time>
        <extensions>
          <ns3:TrackPointExtension>
            <ns3:atemp>15.0</ns3:atemp>
          </ns3:TrackPointExtension>
        </extensions>
      </trkpt>
      <trkpt lat="42.57198887877166271209716796875" lon="20.08578121662139892578125">
        <ele>2100.39990234375</ele>
        <time>2026-06-15T10:26:29.000Z</time>
        <extensions>
          <ns3:TrackPointExtension>
            <ns3:atemp>15.0</ns3:atemp>
          </ns3:TrackPointExtension>
        </extensions>
      </trkpt>
      <trkpt lat="42.5719971768558025360107421875" lon="20.08579127490520477294921875">
        <ele>2100.39990234375</ele>
        <time>2026-06-15T10:26:30.000Z</time>
        <extensions>
          <ns3:TrackPointExtension>
            <ns3:atemp>15.0</ns3:atemp>
          </ns3:TrackPointExtension>
        </extensions>
      </trkpt>
      <trkpt lat="42.57199742831289768218994140625" lon="20.08579504676163196563720703125">
        <ele>2100.39990234375</ele>
        <time>2026-06-15T10:26:31.000Z</time>
        <extensions>
          <ns3:TrackPointExtension>
            <ns3:atemp>15.0</ns3:atemp>
          </ns3:TrackPointExtension>
        </extensions>
      </trkpt>
      <trkpt lat="42.57199742831289768218994140625" lon="20.0857951305806636810302734375">
        <ele>2100.199951171875</ele>
        <time>2026-06-15T10:26:32.000Z</time>
        <extensions>
          <ns3:TrackPointExtension>
            <ns3:atemp>15.0</ns3:atemp>
          </ns3:TrackPointExtension>
        </extensions>
      </trkpt>
      <trkpt lat="42.57199742831289768218994140625" lon="20.0857951305806636810302734375">
        <ele>2100.199951171875</ele>
        <time>2026-06-15T10:26:33.000Z</time>
        <extensions>
          <ns3:TrackPointExtension>
            <ns3:atemp>15.0</ns3:atemp>
          </ns3:TrackPointExtension>
        </extensions>
      </trkpt>
      <trkpt lat="42.57199742831289768218994140625" lon="20.0857951305806636810302734375">
        <ele>2100.199951171875</ele>
        <time>2026-06-15T10:26:34.000Z</time>
        <extensions>
          <ns3:TrackPointExtension>
            <ns3:atemp>15.0</ns3:atemp>
          </ns3:TrackPointExtension>
        </extensions>
      </trkpt>
      <trkpt lat="42.57199742831289768218994140625" lon="20.0857951305806636810302734375">
        <ele>2100.199951171875</ele>
        <time>2026-06-15T10:26:35.000Z</time>
        <extensions>
          <ns3:TrackPointExtension>
            <ns3:atemp>15.0</ns3:atemp>
          </ns3:TrackPointExtension>
        </extensions>
      </trkpt>
      <trkpt lat="42.57199742831289768218994140625" lon="20.0857951305806636810302734375">
        <ele>2100.199951171875</ele>
        <time>2026-06-15T10:26:36.000Z</time>
        <extensions>
          <ns3:TrackPointExtension>
            <ns3:atemp>15.0</ns3:atemp>
          </ns3:TrackPointExtension>
        </extensions>
      </trkpt>
      <trkpt lat="42.57199742831289768218994140625" lon="20.0857951305806636810302734375">
        <ele>2100.199951171875</ele>
        <time>2026-06-15T10:26:37.000Z</time>
        <extensions>
          <ns3:TrackPointExtension>
            <ns3:atemp>15.0</ns3:atemp>
          </ns3:TrackPointExtension>
        </extensions>
      </trkpt>
      <trkpt lat="42.57199742831289768218994140625" lon="20.0857951305806636810302734375">
        <ele>2100.199951171875</ele>
        <time>2026-06-15T10:26:38.000Z</time>
        <extensions>
          <ns3:TrackPointExtension>
            <ns3:atemp>15.0</ns3:atemp>
          </ns3:TrackPointExtension>
        </extensions>
      </trkpt>
      <trkpt lat="42.57199742831289768218994140625" lon="20.0857951305806636810302734375">
        <ele>2100.199951171875</ele>
        <time>2026-06-15T10:26:39.000Z</time>
        <extensions>
          <ns3:TrackPointExtension>
            <ns3:atemp>15.0</ns3:atemp>
          </ns3:TrackPointExtension>
        </extensions>
      </trkpt>
      <trkpt lat="42.57199742831289768218994140625" lon="20.0857951305806636810302734375">
        <ele>2100.199951171875</ele>
        <time>2026-06-15T10:26:40.000Z</time>
        <extensions>
          <ns3:TrackPointExtension>
            <ns3:atemp>15.0</ns3:atemp>
          </ns3:TrackPointExtension>
        </extensions>
      </trkpt>
      <trkpt lat="42.57199742831289768218994140625" lon="20.0857951305806636810302734375">
        <ele>2100.199951171875</ele>
        <time>2026-06-15T10:26:41.000Z</time>
        <extensions>
          <ns3:TrackPointExtension>
            <ns3:atemp>15.0</ns3:atemp>
          </ns3:TrackPointExtension>
        </extensions>
      </trkpt>
      <trkpt lat="42.57199742831289768218994140625" lon="20.0857951305806636810302734375">
        <ele>2100.199951171875</ele>
        <time>2026-06-15T10:26:42.000Z</time>
        <extensions>
          <ns3:TrackPointExtension>
            <ns3:atemp>15.0</ns3:atemp>
          </ns3:TrackPointExtension>
        </extensions>
      </trkpt>
      <trkpt lat="42.57199742831289768218994140625" lon="20.0857951305806636810302734375">
        <ele>2100.199951171875</ele>
        <time>2026-06-15T10:26:43.000Z</time>
        <extensions>
          <ns3:TrackPointExtension>
            <ns3:atemp>15.0</ns3:atemp>
          </ns3:TrackPointExtension>
        </extensions>
      </trkpt>
      <trkpt lat="42.57199742831289768218994140625" lon="20.0857951305806636810302734375">
        <ele>2100.39990234375</ele>
        <time>2026-06-15T10:26:44.000Z</time>
        <extensions>
          <ns3:TrackPointExtension>
            <ns3:atemp>15.0</ns3:atemp>
          </ns3:TrackPointExtension>
        </extensions>
      </trkpt>
      <trkpt lat="42.57199742831289768218994140625" lon="20.0857951305806636810302734375">
        <ele>2100.39990234375</ele>
        <time>2026-06-15T10:26:45.000Z</time>
        <extensions>
          <ns3:TrackPointExtension>
            <ns3:atemp>15.0</ns3:atemp>
          </ns3:TrackPointExtension>
        </extensions>
      </trkpt>
      <trkpt lat="42.57199742831289768218994140625" lon="20.0857951305806636810302734375">
        <ele>2100.39990234375</ele>
        <time>2026-06-15T10:26:46.000Z</time>
        <extensions>
          <ns3:TrackPointExtension>
            <ns3:atemp>15.0</ns3:atemp>
          </ns3:TrackPointExtension>
        </extensions>
      </trkpt>
      <trkpt lat="42.57199742831289768218994140625" lon="20.0857951305806636810302734375">
        <ele>2100.39990234375</ele>
        <time>2026-06-15T10:26:47.000Z</time>
        <extensions>
          <ns3:TrackPointExtension>
            <ns3:atemp>15.0</ns3:atemp>
          </ns3:TrackPointExtension>
        </extensions>
      </trkpt>
      <trkpt lat="42.57199742831289768218994140625" lon="20.0857951305806636810302734375">
        <ele>2100.39990234375</ele>
        <time>2026-06-15T10:26:48.000Z</time>
        <extensions>
          <ns3:TrackPointExtension>
            <ns3:atemp>15.0</ns3:atemp>
          </ns3:TrackPointExtension>
        </extensions>
      </trkpt>
      <trkpt lat="42.57199742831289768218994140625" lon="20.0857951305806636810302734375">
        <ele>2100.199951171875</ele>
        <time>2026-06-15T10:26:49.000Z</time>
        <extensions>
          <ns3:TrackPointExtension>
            <ns3:atemp>15.0</ns3:atemp>
          </ns3:TrackPointExtension>
        </extensions>
      </trkpt>
      <trkpt lat="42.57199742831289768218994140625" lon="20.0857951305806636810302734375">
        <ele>2100.39990234375</ele>
        <time>2026-06-15T10:26:50.000Z</time>
        <extensions>
          <ns3:TrackPointExtension>
            <ns3:atemp>15.0</ns3:atemp>
          </ns3:TrackPointExtension>
        </extensions>
      </trkpt>
      <trkpt lat="42.57199742831289768218994140625" lon="20.0857951305806636810302734375">
        <ele>2100.39990234375</ele>
        <time>2026-06-15T10:26:51.000Z</time>
        <extensions>
          <ns3:TrackPointExtension>
            <ns3:atemp>15.0</ns3:atemp>
          </ns3:TrackPointExtension>
        </extensions>
      </trkpt>
      <trkpt lat="42.57199742831289768218994140625" lon="20.0857951305806636810302734375">
        <ele>2100.39990234375</ele>
        <time>2026-06-15T10:26:52.000Z</time>
        <extensions>
          <ns3:TrackPointExtension>
            <ns3:atemp>15.0</ns3:atemp>
          </ns3:TrackPointExtension>
        </extensions>
      </trkpt>
      <trkpt lat="42.57199742831289768218994140625" lon="20.0857951305806636810302734375">
        <ele>2100.39990234375</ele>
        <time>2026-06-15T10:26:53.000Z</time>
        <extensions>
          <ns3:TrackPointExtension>
            <ns3:atemp>15.0</ns3:atemp>
          </ns3:TrackPointExtension>
        </extensions>
      </trkpt>
      <trkpt lat="42.57199742831289768218994140625" lon="20.0857951305806636810302734375">
        <ele>2100.39990234375</ele>
        <time>2026-06-15T10:26:54.000Z</time>
        <extensions>
          <ns3:TrackPointExtension>
            <ns3:atemp>15.0</ns3:atemp>
          </ns3:TrackPointExtension>
        </extensions>
      </trkpt>
      <trkpt lat="42.57199742831289768218994140625" lon="20.0857951305806636810302734375">
        <ele>2100.39990234375</ele>
        <time>2026-06-15T10:26:55.000Z</time>
        <extensions>
          <ns3:TrackPointExtension>
            <ns3:atemp>15.0</ns3:atemp>
          </ns3:TrackPointExtension>
        </extensions>
      </trkpt>
      <trkpt lat="42.57199742831289768218994140625" lon="20.0857951305806636810302734375">
        <ele>2100.39990234375</ele>
        <time>2026-06-15T10:26:56.000Z</time>
        <extensions>
          <ns3:TrackPointExtension>
            <ns3:atemp>15.0</ns3:atemp>
          </ns3:TrackPointExtension>
        </extensions>
      </trkpt>
      <trkpt lat="42.57199742831289768218994140625" lon="20.0857951305806636810302734375">
        <ele>2100.39990234375</ele>
        <time>2026-06-15T10:26:57.000Z</time>
        <extensions>
          <ns3:TrackPointExtension>
            <ns3:atemp>15.0</ns3:atemp>
          </ns3:TrackPointExtension>
        </extensions>
      </trkpt>
      <trkpt lat="42.57199742831289768218994140625" lon="20.0857951305806636810302734375">
        <ele>2100.39990234375</ele>
        <time>2026-06-15T10:26:58.000Z</time>
        <extensions>
          <ns3:TrackPointExtension>
            <ns3:atemp>15.0</ns3:atemp>
          </ns3:TrackPointExtension>
        </extensions>
      </trkpt>
      <trkpt lat="42.57199742831289768218994140625" lon="20.0857951305806636810302734375">
        <ele>2100.39990234375</ele>
        <time>2026-06-15T10:26:59.000Z</time>
        <extensions>
          <ns3:TrackPointExtension>
            <ns3:atemp>15.0</ns3:atemp>
          </ns3:TrackPointExtension>
        </extensions>
      </trkpt>
      <trkpt lat="42.57199742831289768218994140625" lon="20.0857951305806636810302734375">
        <ele>2100.39990234375</ele>
        <time>2026-06-15T10:27:00.000Z</time>
        <extensions>
          <ns3:TrackPointExtension>
            <ns3:atemp>15.0</ns3:atemp>
          </ns3:TrackPointExtension>
        </extensions>
      </trkpt>
      <trkpt lat="42.57199742831289768218994140625" lon="20.0857951305806636810302734375">
        <ele>2100.39990234375</ele>
        <time>2026-06-15T10:27:01.000Z</time>
        <extensions>
          <ns3:TrackPointExtension>
            <ns3:atemp>15.0</ns3:atemp>
          </ns3:TrackPointExtension>
        </extensions>
      </trkpt>
      <trkpt lat="42.57199742831289768218994140625" lon="20.0857951305806636810302734375">
        <ele>2100.39990234375</ele>
        <time>2026-06-15T10:27:02.000Z</time>
        <extensions>
          <ns3:TrackPointExtension>
            <ns3:atemp>15.0</ns3:atemp>
          </ns3:TrackPointExtension>
        </extensions>
      </trkpt>
      <trkpt lat="42.57199742831289768218994140625" lon="20.0857951305806636810302734375">
        <ele>2100.39990234375</ele>
        <time>2026-06-15T10:27:03.000Z</time>
        <extensions>
          <ns3:TrackPointExtension>
            <ns3:atemp>15.0</ns3:atemp>
          </ns3:TrackPointExtension>
        </extensions>
      </trkpt>
      <trkpt lat="42.57199742831289768218994140625" lon="20.0857951305806636810302734375">
        <ele>2100.199951171875</ele>
        <time>2026-06-15T10:27:04.000Z</time>
        <extensions>
          <ns3:TrackPointExtension>
            <ns3:atemp>15.0</ns3:atemp>
          </ns3:TrackPointExtension>
        </extensions>
      </trkpt>
      <trkpt lat="42.57199742831289768218994140625" lon="20.0857951305806636810302734375">
        <ele>2100.199951171875</ele>
        <time>2026-06-15T10:27:05.000Z</time>
        <extensions>
          <ns3:TrackPointExtension>
            <ns3:atemp>15.0</ns3:atemp>
          </ns3:TrackPointExtension>
        </extensions>
      </trkpt>
      <trkpt lat="42.57199742831289768218994140625" lon="20.0857951305806636810302734375">
        <ele>2100.199951171875</ele>
        <time>2026-06-15T10:27:06.000Z</time>
        <extensions>
          <ns3:TrackPointExtension>
            <ns3:atemp>15.0</ns3:atemp>
          </ns3:TrackPointExtension>
        </extensions>
      </trkpt>
      <trkpt lat="42.57199742831289768218994140625" lon="20.0857951305806636810302734375">
        <ele>2100.199951171875</ele>
        <time>2026-06-15T10:27:07.000Z</time>
        <extensions>
          <ns3:TrackPointExtension>
            <ns3:atemp>15.0</ns3:atemp>
          </ns3:TrackPointExtension>
        </extensions>
      </trkpt>
      <trkpt lat="42.57199742831289768218994140625" lon="20.0857951305806636810302734375">
        <ele>2100.199951171875</ele>
        <time>2026-06-15T10:27:08.000Z</time>
        <extensions>
          <ns3:TrackPointExtension>
            <ns3:atemp>15.0</ns3:atemp>
          </ns3:TrackPointExtension>
        </extensions>
      </trkpt>
      <trkpt lat="42.57199742831289768218994140625" lon="20.0857951305806636810302734375">
        <ele>2100.199951171875</ele>
        <time>2026-06-15T10:27:09.000Z</time>
        <extensions>
          <ns3:TrackPointExtension>
            <ns3:atemp>15.0</ns3:atemp>
          </ns3:TrackPointExtension>
        </extensions>
      </trkpt>
      <trkpt lat="42.57199742831289768218994140625" lon="20.0857951305806636810302734375">
        <ele>2100.199951171875</ele>
        <time>2026-06-15T10:27:10.000Z</time>
        <extensions>
          <ns3:TrackPointExtension>
            <ns3:atemp>15.0</ns3:atemp>
          </ns3:TrackPointExtension>
        </extensions>
      </trkpt>
      <trkpt lat="42.57199742831289768218994140625" lon="20.0857951305806636810302734375">
        <ele>2100.199951171875</ele>
        <time>2026-06-15T10:27:11.000Z</time>
        <extensions>
          <ns3:TrackPointExtension>
            <ns3:atemp>15.0</ns3:atemp>
          </ns3:TrackPointExtension>
        </extensions>
      </trkpt>
      <trkpt lat="42.57199742831289768218994140625" lon="20.0857951305806636810302734375">
        <ele>2100.199951171875</ele>
        <time>2026-06-15T10:27:12.000Z</time>
        <extensions>
          <ns3:TrackPointExtension>
            <ns3:atemp>15.0</ns3:atemp>
          </ns3:TrackPointExtension>
        </extensions>
      </trkpt>
      <trkpt lat="42.57199742831289768218994140625" lon="20.0857951305806636810302734375">
        <ele>2100.199951171875</ele>
        <time>2026-06-15T10:27:13.000Z</time>
        <extensions>
          <ns3:TrackPointExtension>
            <ns3:atemp>15.0</ns3:atemp>
          </ns3:TrackPointExtension>
        </extensions>
      </trkpt>
      <trkpt lat="42.57199742831289768218994140625" lon="20.0857951305806636810302734375">
        <ele>2100.199951171875</ele>
        <time>2026-06-15T10:27:14.000Z</time>
        <extensions>
          <ns3:TrackPointExtension>
            <ns3:atemp>15.0</ns3:atemp>
          </ns3:TrackPointExtension>
        </extensions>
      </trkpt>
      <trkpt lat="42.57199742831289768218994140625" lon="20.0857951305806636810302734375">
        <ele>2100.199951171875</ele>
        <time>2026-06-15T10:27:15.000Z</time>
        <extensions>
          <ns3:TrackPointExtension>
            <ns3:atemp>15.0</ns3:atemp>
          </ns3:TrackPointExtension>
        </extensions>
      </trkpt>
      <trkpt lat="42.57199742831289768218994140625" lon="20.0857951305806636810302734375">
        <ele>2100.199951171875</ele>
        <time>2026-06-15T10:27:16.000Z</time>
        <extensions>
          <ns3:TrackPointExtension>
            <ns3:atemp>15.0</ns3:atemp>
          </ns3:TrackPointExtension>
        </extensions>
      </trkpt>
      <trkpt lat="42.57199742831289768218994140625" lon="20.0857951305806636810302734375">
        <ele>2100.199951171875</ele>
        <time>2026-06-15T10:27:17.000Z</time>
        <extensions>
          <ns3:TrackPointExtension>
            <ns3:atemp>15.0</ns3:atemp>
          </ns3:TrackPointExtension>
        </extensions>
      </trkpt>
      <trkpt lat="42.57199742831289768218994140625" lon="20.0857951305806636810302734375">
        <ele>2100</ele>
        <time>2026-06-15T10:27:18.000Z</time>
        <extensions>
          <ns3:TrackPointExtension>
            <ns3:atemp>15.0</ns3:atemp>
          </ns3:TrackPointExtension>
        </extensions>
      </trkpt>
      <trkpt lat="42.57199742831289768218994140625" lon="20.0857951305806636810302734375">
        <ele>2100</ele>
        <time>2026-06-15T10:27:19.000Z</time>
        <extensions>
          <ns3:TrackPointExtension>
            <ns3:atemp>15.0</ns3:atemp>
          </ns3:TrackPointExtension>
        </extensions>
      </trkpt>
      <trkpt lat="42.57199742831289768218994140625" lon="20.0857951305806636810302734375">
        <ele>2100</ele>
        <time>2026-06-15T10:27:20.000Z</time>
        <extensions>
          <ns3:TrackPointExtension>
            <ns3:atemp>15.0</ns3:atemp>
          </ns3:TrackPointExtension>
        </extensions>
      </trkpt>
      <trkpt lat="42.57199742831289768218994140625" lon="20.0857951305806636810302734375">
        <ele>2100</ele>
        <time>2026-06-15T10:27:21.000Z</time>
        <extensions>
          <ns3:TrackPointExtension>
            <ns3:atemp>15.0</ns3:atemp>
          </ns3:TrackPointExtension>
        </extensions>
      </trkpt>
      <trkpt lat="42.57199742831289768218994140625" lon="20.0857951305806636810302734375">
        <ele>2100</ele>
        <time>2026-06-15T10:27:22.000Z</time>
        <extensions>
          <ns3:TrackPointExtension>
            <ns3:atemp>15.0</ns3:atemp>
          </ns3:TrackPointExtension>
        </extensions>
      </trkpt>
      <trkpt lat="42.57199742831289768218994140625" lon="20.0857951305806636810302734375">
        <ele>2100</ele>
        <time>2026-06-15T10:27:23.000Z</time>
        <extensions>
          <ns3:TrackPointExtension>
            <ns3:atemp>15.0</ns3:atemp>
          </ns3:TrackPointExtension>
        </extensions>
      </trkpt>
      <trkpt lat="42.57199742831289768218994140625" lon="20.0857951305806636810302734375">
        <ele>2100</ele>
        <time>2026-06-15T10:27:24.000Z</time>
        <extensions>
          <ns3:TrackPointExtension>
            <ns3:atemp>15.0</ns3:atemp>
          </ns3:TrackPointExtension>
        </extensions>
      </trkpt>
      <trkpt lat="42.57199742831289768218994140625" lon="20.0857951305806636810302734375">
        <ele>2100</ele>
        <time>2026-06-15T10:27:25.000Z</time>
        <extensions>
          <ns3:TrackPointExtension>
            <ns3:atemp>15.0</ns3:atemp>
          </ns3:TrackPointExtension>
        </extensions>
      </trkpt>
      <trkpt lat="42.57199742831289768218994140625" lon="20.0857951305806636810302734375">
        <ele>2100</ele>
        <time>2026-06-15T10:27:26.000Z</time>
        <extensions>
          <ns3:TrackPointExtension>
            <ns3:atemp>15.0</ns3:atemp>
          </ns3:TrackPointExtension>
        </extensions>
      </trkpt>
      <trkpt lat="42.57199742831289768218994140625" lon="20.0857951305806636810302734375">
        <ele>2099.800048828125</ele>
        <time>2026-06-15T10:27:27.000Z</time>
        <extensions>
          <ns3:TrackPointExtension>
            <ns3:atemp>15.0</ns3:atemp>
          </ns3:TrackPointExtension>
        </extensions>
      </trkpt>
      <trkpt lat="42.57199742831289768218994140625" lon="20.0857951305806636810302734375">
        <ele>2100</ele>
        <time>2026-06-15T10:27:28.000Z</time>
        <extensions>
          <ns3:TrackPointExtension>
            <ns3:atemp>15.0</ns3:atemp>
          </ns3:TrackPointExtension>
        </extensions>
      </trkpt>
      <trkpt lat="42.57199742831289768218994140625" lon="20.0857951305806636810302734375">
        <ele>2100</ele>
        <time>2026-06-15T10:27:29.000Z</time>
        <extensions>
          <ns3:TrackPointExtension>
            <ns3:atemp>15.0</ns3:atemp>
          </ns3:TrackPointExtension>
        </extensions>
      </trkpt>
      <trkpt lat="42.57199943996965885162353515625" lon="20.0857921130955219268798828125">
        <ele>2099.800048828125</ele>
        <time>2026-06-15T10:27:30.000Z</time>
        <extensions>
          <ns3:TrackPointExtension>
            <ns3:atemp>15.0</ns3:atemp>
          </ns3:TrackPointExtension>
        </extensions>
      </trkpt>
      <trkpt lat="42.57200916297733783721923828125" lon="20.08578130044043064117431640625">
        <ele>2099.800048828125</ele>
        <time>2026-06-15T10:27:31.000Z</time>
        <extensions>
          <ns3:TrackPointExtension>
            <ns3:atemp>15.0</ns3:atemp>
          </ns3:TrackPointExtension>
        </extensions>
      </trkpt>
      <trkpt lat="42.572009079158306121826171875" lon="20.0857813842594623565673828125">
        <ele>2099.60009765625</ele>
        <time>2026-06-15T10:27:32.000Z</time>
        <extensions>
          <ns3:TrackPointExtension>
            <ns3:atemp>15.0</ns3:atemp>
          </ns3:TrackPointExtension>
        </extensions>
      </trkpt>
      <trkpt lat="42.572009079158306121826171875" lon="20.0857813842594623565673828125">
        <ele>2099.60009765625</ele>
        <time>2026-06-15T10:27:33.000Z</time>
        <extensions>
          <ns3:TrackPointExtension>
            <ns3:atemp>15.0</ns3:atemp>
          </ns3:TrackPointExtension>
        </extensions>
      </trkpt>
      <trkpt lat="42.572009079158306121826171875" lon="20.0857813842594623565673828125">
        <ele>2099.39990234375</ele>
        <time>2026-06-15T10:27:34.000Z</time>
        <extensions>
          <ns3:TrackPointExtension>
            <ns3:atemp>15.0</ns3:atemp>
          </ns3:TrackPointExtension>
        </extensions>
      </trkpt>
      <trkpt lat="42.572009079158306121826171875" lon="20.0857813842594623565673828125">
        <ele>2099.39990234375</ele>
        <time>2026-06-15T10:27:35.000Z</time>
        <extensions>
          <ns3:TrackPointExtension>
            <ns3:atemp>15.0</ns3:atemp>
          </ns3:TrackPointExtension>
        </extensions>
      </trkpt>
      <trkpt lat="42.572009079158306121826171875" lon="20.0857813842594623565673828125">
        <ele>2099.199951171875</ele>
        <time>2026-06-15T10:27:36.000Z</time>
        <extensions>
          <ns3:TrackPointExtension>
            <ns3:atemp>15.0</ns3:atemp>
          </ns3:TrackPointExtension>
        </extensions>
      </trkpt>
      <trkpt lat="42.572009079158306121826171875" lon="20.0857813842594623565673828125">
        <ele>2099.199951171875</ele>
        <time>2026-06-15T10:27:37.000Z</time>
        <extensions>
          <ns3:TrackPointExtension>
            <ns3:atemp>15.0</ns3:atemp>
          </ns3:TrackPointExtension>
        </extensions>
      </trkpt>
      <trkpt lat="42.572009079158306121826171875" lon="20.0857813842594623565673828125">
        <ele>2099.199951171875</ele>
        <time>2026-06-15T10:27:38.000Z</time>
        <extensions>
          <ns3:TrackPointExtension>
            <ns3:atemp>15.0</ns3:atemp>
          </ns3:TrackPointExtension>
        </extensions>
      </trkpt>
      <trkpt lat="42.572009079158306121826171875" lon="20.0857813842594623565673828125">
        <ele>2099.199951171875</ele>
        <time>2026-06-15T10:27:39.000Z</time>
        <extensions>
          <ns3:TrackPointExtension>
            <ns3:atemp>15.0</ns3:atemp>
          </ns3:TrackPointExtension>
        </extensions>
      </trkpt>
      <trkpt lat="42.572009079158306121826171875" lon="20.0857813842594623565673828125">
        <ele>2099</ele>
        <time>2026-06-15T10:27:40.000Z</time>
        <extensions>
          <ns3:TrackPointExtension>
            <ns3:atemp>15.0</ns3:atemp>
          </ns3:TrackPointExtension>
        </extensions>
      </trkpt>
      <trkpt lat="42.572009079158306121826171875" lon="20.0857813842594623565673828125">
        <ele>2098.800048828125</ele>
        <time>2026-06-15T10:27:41.000Z</time>
        <extensions>
          <ns3:TrackPointExtension>
            <ns3:atemp>15.0</ns3:atemp>
          </ns3:TrackPointExtension>
        </extensions>
      </trkpt>
      <trkpt lat="42.572009079158306121826171875" lon="20.0857813842594623565673828125">
        <ele>2098.800048828125</ele>
        <time>2026-06-15T10:27:42.000Z</time>
        <extensions>
          <ns3:TrackPointExtension>
            <ns3:atemp>15.0</ns3:atemp>
          </ns3:TrackPointExtension>
        </extensions>
      </trkpt>
      <trkpt lat="42.572009079158306121826171875" lon="20.0857813842594623565673828125">
        <ele>2098.60009765625</ele>
        <time>2026-06-15T10:27:43.000Z</time>
        <extensions>
          <ns3:TrackPointExtension>
            <ns3:atemp>15.0</ns3:atemp>
          </ns3:TrackPointExtension>
        </extensions>
      </trkpt>
      <trkpt lat="42.572009079158306121826171875" lon="20.0857813842594623565673828125">
        <ele>2098.39990234375</ele>
        <time>2026-06-15T10:27:44.000Z</time>
        <extensions>
          <ns3:TrackPointExtension>
            <ns3:atemp>15.0</ns3:atemp>
          </ns3:TrackPointExtension>
        </extensions>
      </trkpt>
      <trkpt lat="42.572009079158306121826171875" lon="20.0857813842594623565673828125">
        <ele>2098.199951171875</ele>
        <time>2026-06-15T10:27:45.000Z</time>
        <extensions>
          <ns3:TrackPointExtension>
            <ns3:atemp>15.0</ns3:atemp>
          </ns3:TrackPointExtension>
        </extensions>
      </trkpt>
      <trkpt lat="42.572009079158306121826171875" lon="20.0857813842594623565673828125">
        <ele>2098.199951171875</ele>
        <time>2026-06-15T10:27:46.000Z</time>
        <extensions>
          <ns3:TrackPointExtension>
            <ns3:atemp>15.0</ns3:atemp>
          </ns3:TrackPointExtension>
        </extensions>
      </trkpt>
      <trkpt lat="42.572009079158306121826171875" lon="20.0857813842594623565673828125">
        <ele>2098</ele>
        <time>2026-06-15T10:27:47.000Z</time>
        <extensions>
          <ns3:TrackPointExtension>
            <ns3:atemp>15.0</ns3:atemp>
          </ns3:TrackPointExtension>
        </extensions>
      </trkpt>
      <trkpt lat="42.572009079158306121826171875" lon="20.0857813842594623565673828125">
        <ele>2098</ele>
        <time>2026-06-15T10:27:48.000Z</time>
        <extensions>
          <ns3:TrackPointExtension>
            <ns3:atemp>15.0</ns3:atemp>
          </ns3:TrackPointExtension>
        </extensions>
      </trkpt>
      <trkpt lat="42.572009079158306121826171875" lon="20.0857813842594623565673828125">
        <ele>2097.800048828125</ele>
        <time>2026-06-15T10:27:49.000Z</time>
        <extensions>
          <ns3:TrackPointExtension>
            <ns3:atemp>15.0</ns3:atemp>
          </ns3:TrackPointExtension>
        </extensions>
      </trkpt>
      <trkpt lat="42.572009079158306121826171875" lon="20.0857813842594623565673828125">
        <ele>2097.800048828125</ele>
        <time>2026-06-15T10:27:50.000Z</time>
        <extensions>
          <ns3:TrackPointExtension>
            <ns3:atemp>15.0</ns3:atemp>
          </ns3:TrackPointExtension>
        </extensions>
      </trkpt>
      <trkpt lat="42.572009079158306121826171875" lon="20.0857813842594623565673828125">
        <ele>2097.60009765625</ele>
        <time>2026-06-15T10:27:51.000Z</time>
        <extensions>
          <ns3:TrackPointExtension>
            <ns3:atemp>15.0</ns3:atemp>
          </ns3:TrackPointExtension>
        </extensions>
      </trkpt>
      <trkpt lat="42.572009079158306121826171875" lon="20.0857813842594623565673828125">
        <ele>2097.60009765625</ele>
        <time>2026-06-15T10:27:52.000Z</time>
        <extensions>
          <ns3:TrackPointExtension>
            <ns3:atemp>15.0</ns3:atemp>
          </ns3:TrackPointExtension>
        </extensions>
      </trkpt>
      <trkpt lat="42.572009079158306121826171875" lon="20.0857813842594623565673828125">
        <ele>2097.39990234375</ele>
        <time>2026-06-15T10:27:53.000Z</time>
        <extensions>
          <ns3:TrackPointExtension>
            <ns3:atemp>15.0</ns3:atemp>
          </ns3:TrackPointExtension>
        </extensions>
      </trkpt>
      <trkpt lat="42.572009079158306121826171875" lon="20.0857813842594623565673828125">
        <ele>2097.39990234375</ele>
        <time>2026-06-15T10:27:54.000Z</time>
        <extensions>
          <ns3:TrackPointExtension>
            <ns3:atemp>15.0</ns3:atemp>
          </ns3:TrackPointExtension>
        </extensions>
      </trkpt>
      <trkpt lat="42.572009079158306121826171875" lon="20.0857813842594623565673828125">
        <ele>2097.39990234375</ele>
        <time>2026-06-15T10:27:55.000Z</time>
        <extensions>
          <ns3:TrackPointExtension>
            <ns3:atemp>15.0</ns3:atemp>
          </ns3:TrackPointExtension>
        </extensions>
      </trkpt>
      <trkpt lat="42.572009079158306121826171875" lon="20.0857813842594623565673828125">
        <ele>2097.39990234375</ele>
        <time>2026-06-15T10:27:56.000Z</time>
        <extensions>
          <ns3:TrackPointExtension>
            <ns3:atemp>15.0</ns3:atemp>
          </ns3:TrackPointExtension>
        </extensions>
      </trkpt>
      <trkpt lat="42.572009079158306121826171875" lon="20.0857813842594623565673828125">
        <ele>2097.199951171875</ele>
        <time>2026-06-15T10:27:57.000Z</time>
        <extensions>
          <ns3:TrackPointExtension>
            <ns3:atemp>15.0</ns3:atemp>
          </ns3:TrackPointExtension>
        </extensions>
      </trkpt>
      <trkpt lat="42.572009079158306121826171875" lon="20.0857813842594623565673828125">
        <ele>2097.199951171875</ele>
        <time>2026-06-15T10:27:58.000Z</time>
        <extensions>
          <ns3:TrackPointExtension>
            <ns3:atemp>15.0</ns3:atemp>
          </ns3:TrackPointExtension>
        </extensions>
      </trkpt>
      <trkpt lat="42.572009079158306121826171875" lon="20.0857813842594623565673828125">
        <ele>2097</ele>
        <time>2026-06-15T10:27:59.000Z</time>
        <extensions>
          <ns3:TrackPointExtension>
            <ns3:atemp>15.0</ns3:atemp>
          </ns3:TrackPointExtension>
        </extensions>
      </trkpt>
      <trkpt lat="42.572009079158306121826171875" lon="20.0857813842594623565673828125">
        <ele>2097</ele>
        <time>2026-06-15T10:28:00.000Z</time>
        <extensions>
          <ns3:TrackPointExtension>
            <ns3:atemp>15.0</ns3:atemp>
          </ns3:TrackPointExtension>
        </extensions>
      </trkpt>
      <trkpt lat="42.572009079158306121826171875" lon="20.0857813842594623565673828125">
        <ele>2097</ele>
        <time>2026-06-15T10:28:01.000Z</time>
        <extensions>
          <ns3:TrackPointExtension>
            <ns3:atemp>15.0</ns3:atemp>
          </ns3:TrackPointExtension>
        </extensions>
      </trkpt>
      <trkpt lat="42.572009079158306121826171875" lon="20.0857813842594623565673828125">
        <ele>2097</ele>
        <time>2026-06-15T10:28:02.000Z</time>
        <extensions>
          <ns3:TrackPointExtension>
            <ns3:atemp>15.0</ns3:atemp>
          </ns3:TrackPointExtension>
        </extensions>
      </trkpt>
      <trkpt lat="42.572009079158306121826171875" lon="20.0857813842594623565673828125">
        <ele>2097</ele>
        <time>2026-06-15T10:28:03.000Z</time>
        <extensions>
          <ns3:TrackPointExtension>
            <ns3:atemp>15.0</ns3:atemp>
          </ns3:TrackPointExtension>
        </extensions>
      </trkpt>
      <trkpt lat="42.572009079158306121826171875" lon="20.0857813842594623565673828125">
        <ele>2097</ele>
        <time>2026-06-15T10:28:04.000Z</time>
        <extensions>
          <ns3:TrackPointExtension>
            <ns3:atemp>15.0</ns3:atemp>
          </ns3:TrackPointExtension>
        </extensions>
      </trkpt>
      <trkpt lat="42.572009079158306121826171875" lon="20.0857813842594623565673828125">
        <ele>2097</ele>
        <time>2026-06-15T10:28:05.000Z</time>
        <extensions>
          <ns3:TrackPointExtension>
            <ns3:atemp>15.0</ns3:atemp>
          </ns3:TrackPointExtension>
        </extensions>
      </trkpt>
      <trkpt lat="42.572009079158306121826171875" lon="20.0857813842594623565673828125">
        <ele>2097</ele>
        <time>2026-06-15T10:28:06.000Z</time>
        <extensions>
          <ns3:TrackPointExtension>
            <ns3:atemp>15.0</ns3:atemp>
          </ns3:TrackPointExtension>
        </extensions>
      </trkpt>
      <trkpt lat="42.572009079158306121826171875" lon="20.0857813842594623565673828125">
        <ele>2097</ele>
        <time>2026-06-15T10:28:07.000Z</time>
        <extensions>
          <ns3:TrackPointExtension>
            <ns3:atemp>15.0</ns3:atemp>
          </ns3:TrackPointExtension>
        </extensions>
      </trkpt>
      <trkpt lat="42.572009079158306121826171875" lon="20.08578012697398662567138671875">
        <ele>2097</ele>
        <time>2026-06-15T10:28:08.000Z</time>
        <extensions>
          <ns3:TrackPointExtension>
            <ns3:atemp>15.0</ns3:atemp>
          </ns3:TrackPointExtension>
        </extensions>
      </trkpt>
      <trkpt lat="42.5720112584531307220458984375" lon="20.0857664644718170166015625">
        <ele>2096.800048828125</ele>
        <time>2026-06-15T10:28:09.000Z</time>
        <extensions>
          <ns3:TrackPointExtension>
            <ns3:atemp>15.0</ns3:atemp>
          </ns3:TrackPointExtension>
        </extensions>
      </trkpt>
      <trkpt lat="42.57201234810054302215576171875" lon="20.08575716055929660797119140625">
        <ele>2096.800048828125</ele>
        <time>2026-06-15T10:28:10.000Z</time>
        <extensions>
          <ns3:TrackPointExtension>
            <ns3:atemp>15.0</ns3:atemp>
          </ns3:TrackPointExtension>
        </extensions>
      </trkpt>
      <trkpt lat="42.57201067171990871429443359375" lon="20.08574701845645904541015625">
        <ele>2096.800048828125</ele>
        <time>2026-06-15T10:28:11.000Z</time>
        <extensions>
          <ns3:TrackPointExtension>
            <ns3:atemp>15.0</ns3:atemp>
          </ns3:TrackPointExtension>
        </extensions>
      </trkpt>
      <trkpt lat="42.5720136053860187530517578125" lon="20.085734613239765167236328125">
        <ele>2096.800048828125</ele>
        <time>2026-06-15T10:28:12.000Z</time>
        <extensions>
          <ns3:TrackPointExtension>
            <ns3:atemp>15.0</ns3:atemp>
          </ns3:TrackPointExtension>
        </extensions>
      </trkpt>
      <trkpt lat="42.57201737724244594573974609375" lon="20.08572815917432308197021484375">
        <ele>2096.800048828125</ele>
        <time>2026-06-15T10:28:13.000Z</time>
        <extensions>
          <ns3:TrackPointExtension>
            <ns3:atemp>15.0</ns3:atemp>
          </ns3:TrackPointExtension>
        </extensions>
      </trkpt>
      <trkpt lat="42.57201679050922393798828125" lon="20.085720531642436981201171875">
        <ele>2096.800048828125</ele>
        <time>2026-06-15T10:28:14.000Z</time>
        <extensions>
          <ns3:TrackPointExtension>
            <ns3:atemp>15.0</ns3:atemp>
          </ns3:TrackPointExtension>
        </extensions>
      </trkpt>
      <trkpt lat="42.57201544940471649169921875" lon="20.0857230462133884429931640625">
        <ele>2097</ele>
        <time>2026-06-15T10:28:15.000Z</time>
        <extensions>
          <ns3:TrackPointExtension>
            <ns3:atemp>15.0</ns3:atemp>
          </ns3:TrackPointExtension>
        </extensions>
      </trkpt>
      <trkpt lat="42.57201503030955791473388671875" lon="20.085724554955959320068359375">
        <ele>2097</ele>
        <time>2026-06-15T10:28:16.000Z</time>
        <extensions>
          <ns3:TrackPointExtension>
            <ns3:atemp>15.0</ns3:atemp>
          </ns3:TrackPointExtension>
        </extensions>
      </trkpt>
      <trkpt lat="42.572015114128589630126953125" lon="20.085724554955959320068359375">
        <ele>2097.199951171875</ele>
        <time>2026-06-15T10:28:17.000Z</time>
        <extensions>
          <ns3:TrackPointExtension>
            <ns3:atemp>15.0</ns3:atemp>
          </ns3:TrackPointExtension>
        </extensions>
      </trkpt>
      <trkpt lat="42.57201519794762134552001953125" lon="20.085724554955959320068359375">
        <ele>2097.39990234375</ele>
        <time>2026-06-15T10:28:18.000Z</time>
        <extensions>
          <ns3:TrackPointExtension>
            <ns3:atemp>15.0</ns3:atemp>
          </ns3:TrackPointExtension>
        </extensions>
      </trkpt>
      <trkpt lat="42.5720199756324291229248046875" lon="20.08572061546146869659423828125">
        <ele>2097.39990234375</ele>
        <time>2026-06-15T10:28:19.000Z</time>
        <extensions>
          <ns3:TrackPointExtension>
            <ns3:atemp>15.0</ns3:atemp>
          </ns3:TrackPointExtension>
        </extensions>
      </trkpt>
      <trkpt lat="42.57202223874628543853759765625" lon="20.08571441285312175750732421875">
        <ele>2097.39990234375</ele>
        <time>2026-06-15T10:28:20.000Z</time>
        <extensions>
          <ns3:TrackPointExtension>
            <ns3:atemp>15.0</ns3:atemp>
          </ns3:TrackPointExtension>
        </extensions>
      </trkpt>
      <trkpt lat="42.572024166584014892578125" lon="20.0857109762728214263916015625">
        <ele>2097.39990234375</ele>
        <time>2026-06-15T10:28:21.000Z</time>
        <extensions>
          <ns3:TrackPointExtension>
            <ns3:atemp>15.0</ns3:atemp>
          </ns3:TrackPointExtension>
        </extensions>
      </trkpt>
      <trkpt lat="42.57202425040304660797119140625" lon="20.08569731377065181732177734375">
        <ele>2097.39990234375</ele>
        <time>2026-06-15T10:28:22.000Z</time>
        <extensions>
          <ns3:TrackPointExtension>
            <ns3:atemp>15.0</ns3:atemp>
          </ns3:TrackPointExtension>
        </extensions>
      </trkpt>
      <trkpt lat="42.57202483713626861572265625" lon="20.0856777839362621307373046875">
        <ele>2097.60009765625</ele>
        <time>2026-06-15T10:28:23.000Z</time>
        <extensions>
          <ns3:TrackPointExtension>
            <ns3:atemp>15.0</ns3:atemp>
          </ns3:TrackPointExtension>
        </extensions>
      </trkpt>
      <trkpt lat="42.57202374748885631561279296875" lon="20.0856526382267475128173828125">
        <ele>2097.800048828125</ele>
        <time>2026-06-15T10:28:24.000Z</time>
        <extensions>
          <ns3:TrackPointExtension>
            <ns3:atemp>15.0</ns3:atemp>
          </ns3:TrackPointExtension>
        </extensions>
      </trkpt>
      <trkpt lat="42.57202777080237865447998046875" lon="20.08562355302274227142333984375">
        <ele>2098.199951171875</ele>
        <time>2026-06-15T10:28:25.000Z</time>
        <extensions>
          <ns3:TrackPointExtension>
            <ns3:atemp>15.0</ns3:atemp>
          </ns3:TrackPointExtension>
        </extensions>
      </trkpt>
      <trkpt lat="42.57203422486782073974609375" lon="20.08559505455195903778076171875">
        <ele>2098.39990234375</ele>
        <time>2026-06-15T10:28:26.000Z</time>
        <extensions>
          <ns3:TrackPointExtension>
            <ns3:atemp>15.0</ns3:atemp>
          </ns3:TrackPointExtension>
        </extensions>
      </trkpt>
      <trkpt lat="42.57204403169453144073486328125" lon="20.0855647958815097808837890625">
        <ele>2098.60009765625</ele>
        <time>2026-06-15T10:28:27.000Z</time>
        <extensions>
          <ns3:TrackPointExtension>
            <ns3:atemp>15.0</ns3:atemp>
          </ns3:TrackPointExtension>
        </extensions>
      </trkpt>
      <trkpt lat="42.57205124013125896453857421875" lon="20.0855312682688236236572265625">
        <ele>2098.60009765625</ele>
        <time>2026-06-15T10:28:28.000Z</time>
        <extensions>
          <ns3:TrackPointExtension>
            <ns3:atemp>15.0</ns3:atemp>
          </ns3:TrackPointExtension>
        </extensions>
      </trkpt>
      <trkpt lat="42.57206180132925510406494140625" lon="20.0854903645813465118408203125">
        <ele>2098.39990234375</ele>
        <time>2026-06-15T10:28:29.000Z</time>
        <extensions>
          <ns3:TrackPointExtension>
            <ns3:atemp>15.0</ns3:atemp>
          </ns3:TrackPointExtension>
        </extensions>
      </trkpt>
      <trkpt lat="42.57207445800304412841796875" lon="20.08545340038836002349853515625">
        <ele>2098.39990234375</ele>
        <time>2026-06-15T10:28:30.000Z</time>
        <extensions>
          <ns3:TrackPointExtension>
            <ns3:atemp>15.0</ns3:atemp>
          </ns3:TrackPointExtension>
        </extensions>
      </trkpt>
      <trkpt lat="42.572092898190021514892578125" lon="20.08542590774595737457275390625">
        <ele>2098.199951171875</ele>
        <time>2026-06-15T10:28:31.000Z</time>
        <extensions>
          <ns3:TrackPointExtension>
            <ns3:atemp>15.0</ns3:atemp>
          </ns3:TrackPointExtension>
        </extensions>
      </trkpt>
      <trkpt lat="42.57210320793092250823974609375" lon="20.08540109731256961822509765625">
        <ele>2098</ele>
        <time>2026-06-15T10:28:32.000Z</time>
        <extensions>
          <ns3:TrackPointExtension>
            <ns3:atemp>15.0</ns3:atemp>
          </ns3:TrackPointExtension>
        </extensions>
      </trkpt>
      <trkpt lat="42.57211066782474517822265625" lon="20.08537511341273784637451171875">
        <ele>2098</ele>
        <time>2026-06-15T10:28:33.000Z</time>
        <extensions>
          <ns3:TrackPointExtension>
            <ns3:atemp>15.0</ns3:atemp>
          </ns3:TrackPointExtension>
        </extensions>
      </trkpt>
      <trkpt lat="42.57211728952825069427490234375" lon="20.0853451900184154510498046875">
        <ele>2097.800048828125</ele>
        <time>2026-06-15T10:28:34.000Z</time>
        <extensions>
          <ns3:TrackPointExtension>
            <ns3:atemp>15.0</ns3:atemp>
          </ns3:TrackPointExtension>
        </extensions>
      </trkpt>
      <trkpt lat="42.5721249170601367950439453125" lon="20.08531543426215648651123046875">
        <ele>2097.60009765625</ele>
        <time>2026-06-15T10:28:35.000Z</time>
        <extensions>
          <ns3:TrackPointExtension>
            <ns3:atemp>15.0</ns3:atemp>
          </ns3:TrackPointExtension>
        </extensions>
      </trkpt>
      <trkpt lat="42.57213346660137176513671875" lon="20.08528324775397777557373046875">
        <ele>2097.39990234375</ele>
        <time>2026-06-15T10:28:36.000Z</time>
        <extensions>
          <ns3:TrackPointExtension>
            <ns3:atemp>15.0</ns3:atemp>
          </ns3:TrackPointExtension>
        </extensions>
      </trkpt>
      <trkpt lat="42.5721408426761627197265625" lon="20.085250474512577056884765625">
        <ele>2097.199951171875</ele>
        <time>2026-06-15T10:28:37.000Z</time>
        <extensions>
          <ns3:TrackPointExtension>
            <ns3:atemp>15.0</ns3:atemp>
          </ns3:TrackPointExtension>
        </extensions>
      </trkpt>
      <trkpt lat="42.57215023040771484375" lon="20.08521786890923976898193359375">
        <ele>2096.800048828125</ele>
        <time>2026-06-15T10:28:38.000Z</time>
        <extensions>
          <ns3:TrackPointExtension>
            <ns3:atemp>15.0</ns3:atemp>
          </ns3:TrackPointExtension>
        </extensions>
      </trkpt>
      <trkpt lat="42.57216162979602813720703125" lon="20.08518769405782222747802734375">
        <ele>2096.60009765625</ele>
        <time>2026-06-15T10:28:39.000Z</time>
        <extensions>
          <ns3:TrackPointExtension>
            <ns3:atemp>15.0</ns3:atemp>
          </ns3:TrackPointExtension>
        </extensions>
      </trkpt>
      <trkpt lat="42.57217059843242168426513671875" lon="20.085159279406070709228515625">
        <ele>2096.39990234375</ele>
        <time>2026-06-15T10:28:40.000Z</time>
        <extensions>
          <ns3:TrackPointExtension>
            <ns3:atemp>15.0</ns3:atemp>
          </ns3:TrackPointExtension>
        </extensions>
      </trkpt>
      <trkpt lat="42.572177387773990631103515625" lon="20.08512851782143115997314453125">
        <ele>2096.199951171875</ele>
        <time>2026-06-15T10:28:41.000Z</time>
        <extensions>
          <ns3:TrackPointExtension>
            <ns3:atemp>15.0</ns3:atemp>
          </ns3:TrackPointExtension>
        </extensions>
      </trkpt>
      <trkpt lat="42.57218518294394016265869140625" lon="20.08509348146617412567138671875">
        <ele>2096.199951171875</ele>
        <time>2026-06-15T10:28:42.000Z</time>
        <extensions>
          <ns3:TrackPointExtension>
            <ns3:atemp>15.0</ns3:atemp>
          </ns3:TrackPointExtension>
        </extensions>
      </trkpt>
      <trkpt lat="42.5721896253526210784912109375" lon="20.0850602053105831146240234375">
        <ele>2096</ele>
        <time>2026-06-15T10:28:43.000Z</time>
        <extensions>
          <ns3:TrackPointExtension>
            <ns3:atemp>15.0</ns3:atemp>
          </ns3:TrackPointExtension>
        </extensions>
      </trkpt>
      <trkpt lat="42.572191469371318817138671875" lon="20.08502659387886524200439453125">
        <ele>2096</ele>
        <time>2026-06-15T10:28:44.000Z</time>
        <extensions>
          <ns3:TrackPointExtension>
            <ns3:atemp>15.0</ns3:atemp>
          </ns3:TrackPointExtension>
        </extensions>
      </trkpt>
      <trkpt lat="42.57219440303742885589599609375" lon="20.0849904678761959075927734375">
        <ele>2095.800048828125</ele>
        <time>2026-06-15T10:28:45.000Z</time>
        <extensions>
          <ns3:TrackPointExtension>
            <ns3:atemp>15.0</ns3:atemp>
          </ns3:TrackPointExtension>
        </extensions>
      </trkpt>
      <trkpt lat="42.57219457067549228668212890625" lon="20.08495702408254146575927734375">
        <ele>2095.800048828125</ele>
        <time>2026-06-15T10:28:46.000Z</time>
        <extensions>
          <ns3:TrackPointExtension>
            <ns3:atemp>15.0</ns3:atemp>
          </ns3:TrackPointExtension>
        </extensions>
      </trkpt>
      <trkpt lat="42.57218954153358936309814453125" lon="20.08491930551826953887939453125">
        <ele>2095.60009765625</ele>
        <time>2026-06-15T10:28:47.000Z</time>
        <extensions>
          <ns3:TrackPointExtension>
            <ns3:atemp>15.0</ns3:atemp>
          </ns3:TrackPointExtension>
        </extensions>
      </trkpt>
      <trkpt lat="42.572171352803707122802734375" lon="20.08487521670758724212646484375">
        <ele>2095.60009765625</ele>
        <time>2026-06-15T10:28:48.000Z</time>
        <extensions>
          <ns3:TrackPointExtension>
            <ns3:atemp>15.0</ns3:atemp>
          </ns3:TrackPointExtension>
        </extensions>
      </trkpt>
      <trkpt lat="42.57214955985546112060546875" lon="20.08482861332595348358154296875">
        <ele>2095.60009765625</ele>
        <time>2026-06-15T10:28:49.000Z</time>
        <extensions>
          <ns3:TrackPointExtension>
            <ns3:atemp>15.0</ns3:atemp>
          </ns3:TrackPointExtension>
        </extensions>
      </trkpt>
      <trkpt lat="42.57212952710688114166259765625" lon="20.0847738794982433319091796875">
        <ele>2095.39990234375</ele>
        <time>2026-06-15T10:28:50.000Z</time>
        <extensions>
          <ns3:TrackPointExtension>
            <ns3:atemp>15.0</ns3:atemp>
          </ns3:TrackPointExtension>
        </extensions>
      </trkpt>
      <trkpt lat="42.57210572250187397003173828125" lon="20.08472082205116748809814453125">
        <ele>2095.199951171875</ele>
        <time>2026-06-15T10:28:51.000Z</time>
        <extensions>
          <ns3:TrackPointExtension>
            <ns3:atemp>15.0</ns3:atemp>
          </ns3:TrackPointExtension>
        </extensions>
      </trkpt>
      <trkpt lat="42.57208091206848621368408203125" lon="20.0846640765666961669921875">
        <ele>2095</ele>
        <time>2026-06-15T10:28:52.000Z</time>
        <extensions>
          <ns3:TrackPointExtension>
            <ns3:atemp>15.0</ns3:atemp>
          </ns3:TrackPointExtension>
        </extensions>
      </trkpt>
      <trkpt lat="42.572058029472827911376953125" lon="20.0846095941960811614990234375">
        <ele>2095</ele>
        <time>2026-06-15T10:28:53.000Z</time>
        <extensions>
          <ns3:TrackPointExtension>
            <ns3:atemp>15.0</ns3:atemp>
          </ns3:TrackPointExtension>
        </extensions>
      </trkpt>
      <trkpt lat="42.57204084657132625579833984375" lon="20.0845586322247982025146484375">
        <ele>2094.800048828125</ele>
        <time>2026-06-15T10:28:54.000Z</time>
        <extensions>
          <ns3:TrackPointExtension>
            <ns3:atemp>15.0</ns3:atemp>
          </ns3:TrackPointExtension>
        </extensions>
      </trkpt>
      <trkpt lat="42.57202827371656894683837890625" lon="20.0845123641192913055419921875">
        <ele>2094.60009765625</ele>
        <time>2026-06-15T10:28:55.000Z</time>
        <extensions>
          <ns3:TrackPointExtension>
            <ns3:atemp>15.0</ns3:atemp>
          </ns3:TrackPointExtension>
        </extensions>
      </trkpt>
      <trkpt lat="42.57201670669019222259521484375" lon="20.08447171188890933990478515625">
        <ele>2094.60009765625</ele>
        <time>2026-06-15T10:28:56.000Z</time>
        <extensions>
          <ns3:TrackPointExtension>
            <ns3:atemp>15.0</ns3:atemp>
          </ns3:TrackPointExtension>
        </extensions>
      </trkpt>
      <trkpt lat="42.5720018707215785980224609375" lon="20.084426365792751312255859375">
        <ele>2094.60009765625</ele>
        <time>2026-06-15T10:28:57.000Z</time>
        <extensions>
          <ns3:TrackPointExtension>
            <ns3:atemp>15.0</ns3:atemp>
          </ns3:TrackPointExtension>
        </extensions>
      </trkpt>
      <trkpt lat="42.57199424318969249725341796875" lon="20.08437431417405605316162109375">
        <ele>2094.60009765625</ele>
        <time>2026-06-15T10:28:58.000Z</time>
        <extensions>
          <ns3:TrackPointExtension>
            <ns3:atemp>15.0</ns3:atemp>
          </ns3:TrackPointExtension>
        </extensions>
      </trkpt>
      <trkpt lat="42.5720012001693248748779296875" lon="20.0843162275850772857666015625">
        <ele>2094.60009765625</ele>
        <time>2026-06-15T10:28:59.000Z</time>
        <extensions>
          <ns3:TrackPointExtension>
            <ns3:atemp>15.0</ns3:atemp>
          </ns3:TrackPointExtension>
        </extensions>
      </trkpt>
      <trkpt lat="42.57200430147349834442138671875" lon="20.0842518545687198638916015625">
        <ele>2094.800048828125</ele>
        <time>2026-06-15T10:29:00.000Z</time>
        <extensions>
          <ns3:TrackPointExtension>
            <ns3:atemp>15.0</ns3:atemp>
          </ns3:TrackPointExtension>
        </extensions>
      </trkpt>
      <trkpt lat="42.57200631313025951385498046875" lon="20.0841827876865863800048828125">
        <ele>2094.60009765625</ele>
        <time>2026-06-15T10:29:01.000Z</time>
        <extensions>
          <ns3:TrackPointExtension>
            <ns3:atemp>15.0</ns3:atemp>
          </ns3:TrackPointExtension>
        </extensions>
      </trkpt>
      <trkpt lat="42.57201402448117733001708984375" lon="20.08411799557507038116455078125">
        <ele>2094.60009765625</ele>
        <time>2026-06-15T10:29:02.000Z</time>
        <extensions>
          <ns3:TrackPointExtension>
            <ns3:atemp>15.0</ns3:atemp>
          </ns3:TrackPointExtension>
        </extensions>
      </trkpt>
      <trkpt lat="42.57202693261206150054931640625" lon="20.08405328728258609771728515625">
        <ele>2094.39990234375</ele>
        <time>2026-06-15T10:29:03.000Z</time>
        <extensions>
          <ns3:TrackPointExtension>
            <ns3:atemp>15.0</ns3:atemp>
          </ns3:TrackPointExtension>
        </extensions>
      </trkpt>
      <trkpt lat="42.57203967310488224029541015625" lon="20.08398941718041896820068359375">
        <ele>2094.39990234375</ele>
        <time>2026-06-15T10:29:04.000Z</time>
        <extensions>
          <ns3:TrackPointExtension>
            <ns3:atemp>15.0</ns3:atemp>
          </ns3:TrackPointExtension>
        </extensions>
      </trkpt>
      <trkpt lat="42.57204989902675151824951171875" lon="20.08391766808927059173583984375">
        <ele>2094</ele>
        <time>2026-06-15T10:29:05.000Z</time>
        <extensions>
          <ns3:TrackPointExtension>
            <ns3:atemp>15.0</ns3:atemp>
          </ns3:TrackPointExtension>
        </extensions>
      </trkpt>
      <trkpt lat="42.57206783629953861236572265625" lon="20.0838485173881053924560546875">
        <ele>2093.800048828125</ele>
        <time>2026-06-15T10:29:06.000Z</time>
        <extensions>
          <ns3:TrackPointExtension>
            <ns3:atemp>15.0</ns3:atemp>
          </ns3:TrackPointExtension>
        </extensions>
      </trkpt>
      <trkpt lat="42.572088204324245452880859375" lon="20.0837794505059719085693359375">
        <ele>2093.39990234375</ele>
        <time>2026-06-15T10:29:07.000Z</time>
        <extensions>
          <ns3:TrackPointExtension>
            <ns3:atemp>15.0</ns3:atemp>
          </ns3:TrackPointExtension>
        </extensions>
      </trkpt>
      <trkpt lat="42.57210739888250827789306640625" lon="20.08371046744287014007568359375">
        <ele>2093.199951171875</ele>
        <time>2026-06-15T10:29:08.000Z</time>
        <extensions>
          <ns3:TrackPointExtension>
            <ns3:atemp>15.0</ns3:atemp>
          </ns3:TrackPointExtension>
        </extensions>
      </trkpt>
      <trkpt lat="42.57212533615529537200927734375" lon="20.0836446695029735565185546875">
        <ele>2092.800048828125</ele>
        <time>2026-06-15T10:29:09.000Z</time>
        <extensions>
          <ns3:TrackPointExtension>
            <ns3:atemp>15.0</ns3:atemp>
          </ns3:TrackPointExtension>
        </extensions>
      </trkpt>
      <trkpt lat="42.57214017212390899658203125" lon="20.0835866667330265045166015625">
        <ele>2092.39990234375</ele>
        <time>2026-06-15T10:29:10.000Z</time>
        <extensions>
          <ns3:TrackPointExtension>
            <ns3:atemp>15.0</ns3:atemp>
          </ns3:TrackPointExtension>
        </extensions>
      </trkpt>
      <trkpt lat="42.5721557624638080596923828125" lon="20.08353377692401409149169921875">
        <ele>2092</ele>
        <time>2026-06-15T10:29:11.000Z</time>
        <extensions>
          <ns3:TrackPointExtension>
            <ns3:atemp>15.0</ns3:atemp>
          </ns3:TrackPointExtension>
        </extensions>
      </trkpt>
      <trkpt lat="42.57217235863208770751953125" lon="20.083493627607822418212890625">
        <ele>2091.60009765625</ele>
        <time>2026-06-15T10:29:12.000Z</time>
        <extensions>
          <ns3:TrackPointExtension>
            <ns3:atemp>15.0</ns3:atemp>
          </ns3:TrackPointExtension>
        </extensions>
      </trkpt>
      <trkpt lat="42.572188787162303924560546875" lon="20.083456076681613922119140625">
        <ele>2091.39990234375</ele>
        <time>2026-06-15T10:29:13.000Z</time>
        <extensions>
          <ns3:TrackPointExtension>
            <ns3:atemp>15.0</ns3:atemp>
          </ns3:TrackPointExtension>
        </extensions>
      </trkpt>
      <trkpt lat="42.5722094066441059112548828125" lon="20.083414502441883087158203125">
        <ele>2091</ele>
        <time>2026-06-15T10:29:14.000Z</time>
        <extensions>
          <ns3:TrackPointExtension>
            <ns3:atemp>15.0</ns3:atemp>
          </ns3:TrackPointExtension>
        </extensions>
      </trkpt>
      <trkpt lat="42.5722271762788295745849609375" lon="20.083369575440883636474609375">
        <ele>2090.60009765625</ele>
        <time>2026-06-15T10:29:15.000Z</time>
        <extensions>
          <ns3:TrackPointExtension>
            <ns3:atemp>15.0</ns3:atemp>
          </ns3:TrackPointExtension>
        </extensions>
      </trkpt>
      <trkpt lat="42.57223798893392086029052734375" lon="20.083315931260585784912109375">
        <ele>2090.39990234375</ele>
        <time>2026-06-15T10:29:16.000Z</time>
        <extensions>
          <ns3:TrackPointExtension>
            <ns3:atemp>15.0</ns3:atemp>
          </ns3:TrackPointExtension>
        </extensions>
      </trkpt>
      <trkpt lat="42.5722472928464412689208984375" lon="20.08324963040649890899658203125">
        <ele>2090</ele>
        <time>2026-06-15T10:29:17.000Z</time>
        <extensions>
          <ns3:TrackPointExtension>
            <ns3:atemp>15.0</ns3:atemp>
          </ns3:TrackPointExtension>
        </extensions>
      </trkpt>
      <trkpt lat="42.57224938832223415374755859375" lon="20.08317670784890651702880859375">
        <ele>2089.60009765625</ele>
        <time>2026-06-15T10:29:18.000Z</time>
        <extensions>
          <ns3:TrackPointExtension>
            <ns3:atemp>15.0</ns3:atemp>
          </ns3:TrackPointExtension>
        </extensions>
      </trkpt>
      <trkpt lat="42.57224704138934612274169921875" lon="20.0831035338342189788818359375">
        <ele>2089.199951171875</ele>
        <time>2026-06-15T10:29:19.000Z</time>
        <extensions>
          <ns3:TrackPointExtension>
            <ns3:atemp>15.0</ns3:atemp>
          </ns3:TrackPointExtension>
        </extensions>
      </trkpt>
      <trkpt lat="42.57224352099001407623291015625" lon="20.08304209448397159576416015625">
        <ele>2088.800048828125</ele>
        <time>2026-06-15T10:29:20.000Z</time>
        <extensions>
          <ns3:TrackPointExtension>
            <ns3:atemp>15.0</ns3:atemp>
          </ns3:TrackPointExtension>
        </extensions>
      </trkpt>
      <trkpt lat="42.5722400844097137451171875" lon="20.08298375643789768218994140625">
        <ele>2088.39990234375</ele>
        <time>2026-06-15T10:29:21.000Z</time>
        <extensions>
          <ns3:TrackPointExtension>
            <ns3:atemp>15.0</ns3:atemp>
          </ns3:TrackPointExtension>
        </extensions>
      </trkpt>
      <trkpt lat="42.57223212160170078277587890625" lon="20.08292223326861858367919921875">
        <ele>2088</ele>
        <time>2026-06-15T10:29:22.000Z</time>
        <extensions>
          <ns3:TrackPointExtension>
            <ns3:atemp>15.0</ns3:atemp>
          </ns3:TrackPointExtension>
        </extensions>
      </trkpt>
      <trkpt lat="42.5722213089466094970703125" lon="20.0828554295003414154052734375">
        <ele>2087.60009765625</ele>
        <time>2026-06-15T10:29:23.000Z</time>
        <extensions>
          <ns3:TrackPointExtension>
            <ns3:atemp>15.0</ns3:atemp>
          </ns3:TrackPointExtension>
        </extensions>
      </trkpt>
      <trkpt lat="42.57220664061605930328369140625" lon="20.08279214613139629364013671875">
        <ele>2087</ele>
        <time>2026-06-15T10:29:24.000Z</time>
        <extensions>
          <ns3:TrackPointExtension>
            <ns3:atemp>15.0</ns3:atemp>
          </ns3:TrackPointExtension>
        </extensions>
      </trkpt>
      <trkpt lat="42.572182081639766693115234375" lon="20.0827330537140369415283203125">
        <ele>2086.60009765625</ele>
        <time>2026-06-15T10:29:25.000Z</time>
        <extensions>
          <ns3:TrackPointExtension>
            <ns3:atemp>15.0</ns3:atemp>
          </ns3:TrackPointExtension>
        </extensions>
      </trkpt>
      <trkpt lat="42.57215584628283977508544921875" lon="20.0826760567724704742431640625">
        <ele>2086.199951171875</ele>
        <time>2026-06-15T10:29:26.000Z</time>
        <extensions>
          <ns3:TrackPointExtension>
            <ns3:atemp>15.0</ns3:atemp>
          </ns3:TrackPointExtension>
        </extensions>
      </trkpt>
      <trkpt lat="42.57212701253592967987060546875" lon="20.08262316696345806121826171875">
        <ele>2085.60009765625</ele>
        <time>2026-06-15T10:29:27.000Z</time>
        <extensions>
          <ns3:TrackPointExtension>
            <ns3:atemp>15.0</ns3:atemp>
          </ns3:TrackPointExtension>
        </extensions>
      </trkpt>
      <trkpt lat="42.5720974244177341461181640625" lon="20.08257153443992137908935546875">
        <ele>2085.199951171875</ele>
        <time>2026-06-15T10:29:28.000Z</time>
        <extensions>
          <ns3:TrackPointExtension>
            <ns3:atemp>15.0</ns3:atemp>
          </ns3:TrackPointExtension>
        </extensions>
      </trkpt>
      <trkpt lat="42.5720679201185703277587890625" lon="20.082520656287670135498046875">
        <ele>2084.60009765625</ele>
        <time>2026-06-15T10:29:29.000Z</time>
        <extensions>
          <ns3:TrackPointExtension>
            <ns3:atemp>15.0</ns3:atemp>
          </ns3:TrackPointExtension>
        </extensions>
      </trkpt>
      <trkpt lat="42.57203950546681880950927734375" lon="20.082469694316387176513671875">
        <ele>2084.199951171875</ele>
        <time>2026-06-15T10:29:30.000Z</time>
        <extensions>
          <ns3:TrackPointExtension>
            <ns3:atemp>15.0</ns3:atemp>
          </ns3:TrackPointExtension>
        </extensions>
      </trkpt>
      <trkpt lat="42.57201586849987506866455078125" lon="20.082422085106372833251953125">
        <ele>2083.800048828125</ele>
        <time>2026-06-15T10:29:31.000Z</time>
        <extensions>
          <ns3:TrackPointExtension>
            <ns3:atemp>15.0</ns3:atemp>
          </ns3:TrackPointExtension>
        </extensions>
      </trkpt>
      <trkpt lat="42.57199189625680446624755859375" lon="20.08237238042056560516357421875">
        <ele>2083.60009765625</ele>
        <time>2026-06-15T10:29:32.000Z</time>
        <extensions>
          <ns3:TrackPointExtension>
            <ns3:atemp>15.0</ns3:atemp>
          </ns3:TrackPointExtension>
        </extensions>
      </trkpt>
      <trkpt lat="42.5719623081386089324951171875" lon="20.0823270343244075775146484375">
        <ele>2083.39990234375</ele>
        <time>2026-06-15T10:29:33.000Z</time>
        <extensions>
          <ns3:TrackPointExtension>
            <ns3:atemp>15.0</ns3:atemp>
          </ns3:TrackPointExtension>
        </extensions>
      </trkpt>
      <trkpt lat="42.571925930678844451904296875" lon="20.0822878070175647735595703125">
        <ele>2083.199951171875</ele>
        <time>2026-06-15T10:29:34.000Z</time>
        <extensions>
          <ns3:TrackPointExtension>
            <ns3:atemp>15.0</ns3:atemp>
          </ns3:TrackPointExtension>
        </extensions>
      </trkpt>
      <trkpt lat="42.57188678719103336334228515625" lon="20.08226056583225727081298828125">
        <ele>2082.800048828125</ele>
        <time>2026-06-15T10:29:35.000Z</time>
        <extensions>
          <ns3:TrackPointExtension>
            <ns3:atemp>15.0</ns3:atemp>
          </ns3:TrackPointExtension>
        </extensions>
      </trkpt>
      <trkpt lat="42.57184403948485851287841796875" lon="20.08224011398851871490478515625">
        <ele>2082.60009765625</ele>
        <time>2026-06-15T10:29:36.000Z</time>
        <extensions>
          <ns3:TrackPointExtension>
            <ns3:atemp>15.0</ns3:atemp>
          </ns3:TrackPointExtension>
        </extensions>
      </trkpt>
      <trkpt lat="42.5718002021312713623046875" lon="20.08221513591706752777099609375">
        <ele>2082.199951171875</ele>
        <time>2026-06-15T10:29:37.000Z</time>
        <extensions>
          <ns3:TrackPointExtension>
            <ns3:atemp>15.0</ns3:atemp>
          </ns3:TrackPointExtension>
        </extensions>
      </trkpt>
      <trkpt lat="42.571755945682525634765625" lon="20.08219577372074127197265625">
        <ele>2081.800048828125</ele>
        <time>2026-06-15T10:29:38.000Z</time>
        <extensions>
          <ns3:TrackPointExtension>
            <ns3:atemp>15.0</ns3:atemp>
          </ns3:TrackPointExtension>
        </extensions>
      </trkpt>
      <trkpt lat="42.5717155449092388153076171875" lon="20.08218663744628429412841796875">
        <ele>2081.60009765625</ele>
        <time>2026-06-15T10:29:39.000Z</time>
        <extensions>
          <ns3:TrackPointExtension>
            <ns3:atemp>15.0</ns3:atemp>
          </ns3:TrackPointExtension>
        </extensions>
      </trkpt>
      <trkpt lat="42.5716846995055675506591796875" lon="20.0821803510189056396484375">
        <ele>2081.199951171875</ele>
        <time>2026-06-15T10:29:40.000Z</time>
        <extensions>
          <ns3:TrackPointExtension>
            <ns3:atemp>15.0</ns3:atemp>
          </ns3:TrackPointExtension>
        </extensions>
      </trkpt>
      <trkpt lat="42.57165578193962574005126953125" lon="20.08217775262892246246337890625">
        <ele>2081</ele>
        <time>2026-06-15T10:29:41.000Z</time>
        <extensions>
          <ns3:TrackPointExtension>
            <ns3:atemp>15.0</ns3:atemp>
          </ns3:TrackPointExtension>
        </extensions>
      </trkpt>
      <trkpt lat="42.57162912748754024505615234375" lon="20.0821761600673198699951171875">
        <ele>2080.800048828125</ele>
        <time>2026-06-15T10:29:42.000Z</time>
        <extensions>
          <ns3:TrackPointExtension>
            <ns3:atemp>15.0</ns3:atemp>
          </ns3:TrackPointExtension>
        </extensions>
      </trkpt>
      <trkpt lat="42.57160180248320102691650390625" lon="20.08217029273509979248046875">
        <ele>2080.800048828125</ele>
        <time>2026-06-15T10:29:43.000Z</time>
        <extensions>
          <ns3:TrackPointExtension>
            <ns3:atemp>15.0</ns3:atemp>
          </ns3:TrackPointExtension>
        </extensions>
      </trkpt>
      <trkpt lat="42.57157556712627410888671875" lon="20.08216501213610172271728515625">
        <ele>2080.39990234375</ele>
        <time>2026-06-15T10:29:44.000Z</time>
        <extensions>
          <ns3:TrackPointExtension>
            <ns3:atemp>15.0</ns3:atemp>
          </ns3:TrackPointExtension>
        </extensions>
      </trkpt>
      <trkpt lat="42.5715499185025691986083984375" lon="20.08215545676648616790771484375">
        <ele>2080.39990234375</ele>
        <time>2026-06-15T10:29:45.000Z</time>
        <extensions>
          <ns3:TrackPointExtension>
            <ns3:atemp>15.0</ns3:atemp>
          </ns3:TrackPointExtension>
        </extensions>
      </trkpt>
      <trkpt lat="42.571523599326610565185546875" lon="20.0821454823017120361328125">
        <ele>2080</ele>
        <time>2026-06-15T10:29:46.000Z</time>
        <extensions>
          <ns3:TrackPointExtension>
            <ns3:atemp>15.0</ns3:atemp>
          </ns3:TrackPointExtension>
        </extensions>
      </trkpt>
      <trkpt lat="42.5714919157326221466064453125" lon="20.0821315683424472808837890625">
        <ele>2079.800048828125</ele>
        <time>2026-06-15T10:29:47.000Z</time>
        <extensions>
          <ns3:TrackPointExtension>
            <ns3:atemp>15.0</ns3:atemp>
          </ns3:TrackPointExtension>
        </extensions>
      </trkpt>
      <trkpt lat="42.5714560411870479583740234375" lon="20.0821173191070556640625">
        <ele>2079.39990234375</ele>
        <time>2026-06-15T10:29:48.000Z</time>
        <extensions>
          <ns3:TrackPointExtension>
            <ns3:atemp>15.0</ns3:atemp>
          </ns3:TrackPointExtension>
        </extensions>
      </trkpt>
      <trkpt lat="42.57142343558371067047119140625" lon="20.08210801519453525543212890625">
        <ele>2079.199951171875</ele>
        <time>2026-06-15T10:29:49.000Z</time>
        <extensions>
          <ns3:TrackPointExtension>
            <ns3:atemp>15.0</ns3:atemp>
          </ns3:TrackPointExtension>
        </extensions>
      </trkpt>
      <trkpt lat="42.5713909976184368133544921875" lon="20.0820977054536342620849609375">
        <ele>2078.800048828125</ele>
        <time>2026-06-15T10:29:50.000Z</time>
        <extensions>
          <ns3:TrackPointExtension>
            <ns3:atemp>15.0</ns3:atemp>
          </ns3:TrackPointExtension>
        </extensions>
      </trkpt>
      <trkpt lat="42.5713601522147655487060546875" lon="20.08208957500755786895751953125">
        <ele>2078.39990234375</ele>
        <time>2026-06-15T10:29:51.000Z</time>
        <extensions>
          <ns3:TrackPointExtension>
            <ns3:atemp>15.0</ns3:atemp>
          </ns3:TrackPointExtension>
        </extensions>
      </trkpt>
      <trkpt lat="42.57132612168788909912109375" lon="20.08207633160054683685302734375">
        <ele>2078.199951171875</ele>
        <time>2026-06-15T10:29:52.000Z</time>
        <extensions>
          <ns3:TrackPointExtension>
            <ns3:atemp>15.0</ns3:atemp>
          </ns3:TrackPointExtension>
        </extensions>
      </trkpt>
      <trkpt lat="42.57129301317036151885986328125" lon="20.082056634128093719482421875">
        <ele>2077.800048828125</ele>
        <time>2026-06-15T10:29:53.000Z</time>
        <extensions>
          <ns3:TrackPointExtension>
            <ns3:atemp>15.0</ns3:atemp>
          </ns3:TrackPointExtension>
        </extensions>
      </trkpt>
      <trkpt lat="42.57125764153897762298583984375" lon="20.0820435583591461181640625">
        <ele>2077.60009765625</ele>
        <time>2026-06-15T10:29:54.000Z</time>
        <extensions>
          <ns3:TrackPointExtension>
            <ns3:atemp>15.0</ns3:atemp>
          </ns3:TrackPointExtension>
        </extensions>
      </trkpt>
      <trkpt lat="42.57122294045984745025634765625" lon="20.08203777484595775604248046875">
        <ele>2077.199951171875</ele>
        <time>2026-06-15T10:29:55.000Z</time>
        <extensions>
          <ns3:TrackPointExtension>
            <ns3:atemp>15.0</ns3:atemp>
          </ns3:TrackPointExtension>
        </extensions>
      </trkpt>
      <trkpt lat="42.5711908377707004547119140625" lon="20.08203492499887943267822265625">
        <ele>2077</ele>
        <time>2026-06-15T10:29:56.000Z</time>
        <extensions>
          <ns3:TrackPointExtension>
            <ns3:atemp>15.0</ns3:atemp>
          </ns3:TrackPointExtension>
        </extensions>
      </trkpt>
      <trkpt lat="42.5711633451282978057861328125" lon="20.08203173987567424774169921875">
        <ele>2076.800048828125</ele>
        <time>2026-06-15T10:29:57.000Z</time>
        <extensions>
          <ns3:TrackPointExtension>
            <ns3:atemp>15.0</ns3:atemp>
          </ns3:TrackPointExtension>
        </extensions>
      </trkpt>
      <trkpt lat="42.57113543339073657989501953125" lon="20.0820319913327693939208984375">
        <ele>2076.800048828125</ele>
        <time>2026-06-15T10:29:58.000Z</time>
        <extensions>
          <ns3:TrackPointExtension>
            <ns3:atemp>15.0</ns3:atemp>
          </ns3:TrackPointExtension>
        </extensions>
      </trkpt>
      <trkpt lat="42.571113221347332000732421875" lon="20.0820303149521350860595703125">
        <ele>2076.800048828125</ele>
        <time>2026-06-15T10:29:59.000Z</time>
        <extensions>
          <ns3:TrackPointExtension>
            <ns3:atemp>15.0</ns3:atemp>
          </ns3:TrackPointExtension>
        </extensions>
      </trkpt>
      <trkpt lat="42.5710894167423248291015625" lon="20.0820313207805156707763671875">
        <ele>2076.800048828125</ele>
        <time>2026-06-15T10:30:00.000Z</time>
        <extensions>
          <ns3:TrackPointExtension>
            <ns3:atemp>15.0</ns3:atemp>
          </ns3:TrackPointExtension>
        </extensions>
      </trkpt>
      <trkpt lat="42.571063600480556488037109375" lon="20.08203324861824512481689453125">
        <ele>2076.800048828125</ele>
        <time>2026-06-15T10:30:01.000Z</time>
        <extensions>
          <ns3:TrackPointExtension>
            <ns3:atemp>15.0</ns3:atemp>
          </ns3:TrackPointExtension>
        </extensions>
      </trkpt>
      <trkpt lat="42.5710376165807247161865234375" lon="20.08202872239053249359130859375">
        <ele>2076.60009765625</ele>
        <time>2026-06-15T10:30:02.000Z</time>
        <extensions>
          <ns3:TrackPointExtension>
            <ns3:atemp>15.0</ns3:atemp>
          </ns3:TrackPointExtension>
        </extensions>
      </trkpt>
      <trkpt lat="42.5710138119757175445556640625" lon="20.08201933465898036956787109375">
        <ele>2076.60009765625</ele>
        <time>2026-06-15T10:30:03.000Z</time>
        <extensions>
          <ns3:TrackPointExtension>
            <ns3:atemp>15.0</ns3:atemp>
          </ns3:TrackPointExtension>
        </extensions>
      </trkpt>
      <trkpt lat="42.57099143229424953460693359375" lon="20.08200927637517452239990234375">
        <ele>2076.39990234375</ele>
        <time>2026-06-15T10:30:04.000Z</time>
        <extensions>
          <ns3:TrackPointExtension>
            <ns3:atemp>15.0</ns3:atemp>
          </ns3:TrackPointExtension>
        </extensions>
      </trkpt>
      <trkpt lat="42.570965699851512908935546875" lon="20.08199997246265411376953125">
        <ele>2076.39990234375</ele>
        <time>2026-06-15T10:30:05.000Z</time>
        <extensions>
          <ns3:TrackPointExtension>
            <ns3:atemp>15.0</ns3:atemp>
          </ns3:TrackPointExtension>
        </extensions>
      </trkpt>
      <trkpt lat="42.57093778811395168304443359375" lon="20.08198496885597705841064453125">
        <ele>2076.199951171875</ele>
        <time>2026-06-15T10:30:06.000Z</time>
        <extensions>
          <ns3:TrackPointExtension>
            <ns3:atemp>15.0</ns3:atemp>
          </ns3:TrackPointExtension>
        </extensions>
      </trkpt>
      <trkpt lat="42.57091037929058074951171875" lon="20.08196778595447540283203125">
        <ele>2076</ele>
        <time>2026-06-15T10:30:07.000Z</time>
        <extensions>
          <ns3:TrackPointExtension>
            <ns3:atemp>15.0</ns3:atemp>
          </ns3:TrackPointExtension>
        </extensions>
      </trkpt>
      <trkpt lat="42.57087827660143375396728515625" lon="20.08194892667233943939208984375">
        <ele>2076</ele>
        <time>2026-06-15T10:30:08.000Z</time>
        <extensions>
          <ns3:TrackPointExtension>
            <ns3:atemp>15.0</ns3:atemp>
          </ns3:TrackPointExtension>
        </extensions>
      </trkpt>
      <trkpt lat="42.5708441622555255889892578125" lon="20.0819387845695018768310546875">
        <ele>2075.800048828125</ele>
        <time>2026-06-15T10:30:09.000Z</time>
        <extensions>
          <ns3:TrackPointExtension>
            <ns3:atemp>15.0</ns3:atemp>
          </ns3:TrackPointExtension>
        </extensions>
      </trkpt>
      <trkpt lat="42.57081449031829833984375" lon="20.081925876438617706298828125">
        <ele>2075.60009765625</ele>
        <time>2026-06-15T10:30:10.000Z</time>
        <extensions>
          <ns3:TrackPointExtension>
            <ns3:atemp>15.0</ns3:atemp>
          </ns3:TrackPointExtension>
        </extensions>
      </trkpt>
      <trkpt lat="42.57078967988491058349609375" lon="20.0819153152406215667724609375">
        <ele>2075.60009765625</ele>
        <time>2026-06-15T10:30:11.000Z</time>
        <extensions>
          <ns3:TrackPointExtension>
            <ns3:atemp>15.0</ns3:atemp>
          </ns3:TrackPointExtension>
        </extensions>
      </trkpt>
      <trkpt lat="42.5707673840224742889404296875" lon="20.081905759871006011962890625">
        <ele>2075.39990234375</ele>
        <time>2026-06-15T10:30:12.000Z</time>
        <extensions>
          <ns3:TrackPointExtension>
            <ns3:atemp>15.0</ns3:atemp>
          </ns3:TrackPointExtension>
        </extensions>
      </trkpt>
      <trkpt lat="42.57074634544551372528076171875" lon="20.08189897052943706512451171875">
        <ele>2075.39990234375</ele>
        <time>2026-06-15T10:30:13.000Z</time>
        <extensions>
          <ns3:TrackPointExtension>
            <ns3:atemp>15.0</ns3:atemp>
          </ns3:TrackPointExtension>
        </extensions>
      </trkpt>
      <trkpt lat="42.570726983249187469482421875" lon="20.08189293555915355682373046875">
        <ele>2075.39990234375</ele>
        <time>2026-06-15T10:30:14.000Z</time>
        <extensions>
          <ns3:TrackPointExtension>
            <ns3:atemp>15.0</ns3:atemp>
          </ns3:TrackPointExtension>
        </extensions>
      </trkpt>
      <trkpt lat="42.5707080401480197906494140625" lon="20.081878602504730224609375">
        <ele>2075.39990234375</ele>
        <time>2026-06-15T10:30:15.000Z</time>
        <extensions>
          <ns3:TrackPointExtension>
            <ns3:atemp>15.0</ns3:atemp>
          </ns3:TrackPointExtension>
        </extensions>
      </trkpt>
      <trkpt lat="42.5706815533339977264404296875" lon="20.08185454644262790679931640625">
        <ele>2075.199951171875</ele>
        <time>2026-06-15T10:30:16.000Z</time>
        <extensions>
          <ns3:TrackPointExtension>
            <ns3:atemp>15.0</ns3:atemp>
          </ns3:TrackPointExtension>
        </extensions>
      </trkpt>
      <trkpt lat="42.570659257471561431884765625" lon="20.08183526806533336639404296875">
        <ele>2075.199951171875</ele>
        <time>2026-06-15T10:30:17.000Z</time>
        <extensions>
          <ns3:TrackPointExtension>
            <ns3:atemp>15.0</ns3:atemp>
          </ns3:TrackPointExtension>
        </extensions>
      </trkpt>
      <trkpt lat="42.57063855417072772979736328125" lon="20.08182235993444919586181640625">
        <ele>2075.199951171875</ele>
        <time>2026-06-15T10:30:18.000Z</time>
        <extensions>
          <ns3:TrackPointExtension>
            <ns3:atemp>15.0</ns3:atemp>
          </ns3:TrackPointExtension>
        </extensions>
      </trkpt>
      <trkpt lat="42.57062078453600406646728515625" lon="20.0818117149174213409423828125">
        <ele>2075.199951171875</ele>
        <time>2026-06-15T10:30:19.000Z</time>
        <extensions>
          <ns3:TrackPointExtension>
            <ns3:atemp>15.0</ns3:atemp>
          </ns3:TrackPointExtension>
        </extensions>
      </trkpt>
      <trkpt lat="42.5706020928919315338134765625" lon="20.08179922588169574737548828125">
        <ele>2075.199951171875</ele>
        <time>2026-06-15T10:30:20.000Z</time>
        <extensions>
          <ns3:TrackPointExtension>
            <ns3:atemp>15.0</ns3:atemp>
          </ns3:TrackPointExtension>
        </extensions>
      </trkpt>
      <trkpt lat="42.57057837210595607757568359375" lon="20.08178028278052806854248046875">
        <ele>2075.199951171875</ele>
        <time>2026-06-15T10:30:21.000Z</time>
        <extensions>
          <ns3:TrackPointExtension>
            <ns3:atemp>15.0</ns3:atemp>
          </ns3:TrackPointExtension>
        </extensions>
      </trkpt>
      <trkpt lat="42.5705528073012828826904296875" lon="20.0817537121474742889404296875">
        <ele>2075.199951171875</ele>
        <time>2026-06-15T10:30:22.000Z</time>
        <extensions>
          <ns3:TrackPointExtension>
            <ns3:atemp>15.0</ns3:atemp>
          </ns3:TrackPointExtension>
        </extensions>
      </trkpt>
      <trkpt lat="42.57051919586956501007080078125" lon="20.0817188434302806854248046875">
        <ele>2075.199951171875</ele>
        <time>2026-06-15T10:30:23.000Z</time>
        <extensions>
          <ns3:TrackPointExtension>
            <ns3:atemp>15.0</ns3:atemp>
          </ns3:TrackPointExtension>
        </extensions>
      </trkpt>
      <trkpt lat="42.5704832375049591064453125" lon="20.08168204687535762786865234375">
        <ele>2075</ele>
        <time>2026-06-15T10:30:24.000Z</time>
        <extensions>
          <ns3:TrackPointExtension>
            <ns3:atemp>15.0</ns3:atemp>
          </ns3:TrackPointExtension>
        </extensions>
      </trkpt>
      <trkpt lat="42.57044476456940174102783203125" lon="20.08164818398654460906982421875">
        <ele>2074.800048828125</ele>
        <time>2026-06-15T10:30:25.000Z</time>
        <extensions>
          <ns3:TrackPointExtension>
            <ns3:atemp>15.0</ns3:atemp>
          </ns3:TrackPointExtension>
        </extensions>
      </trkpt>
      <trkpt lat="42.57040972821414470672607421875" lon="20.08162119425833225250244140625">
        <ele>2074.60009765625</ele>
        <time>2026-06-15T10:30:26.000Z</time>
        <extensions>
          <ns3:TrackPointExtension>
            <ns3:atemp>15.0</ns3:atemp>
          </ns3:TrackPointExtension>
        </extensions>
      </trkpt>
      <trkpt lat="42.57037687115371227264404296875" lon="20.08160191588103771209716796875">
        <ele>2074.39990234375</ele>
        <time>2026-06-15T10:30:27.000Z</time>
        <extensions>
          <ns3:TrackPointExtension>
            <ns3:atemp>15.0</ns3:atemp>
          </ns3:TrackPointExtension>
        </extensions>
      </trkpt>
      <trkpt lat="42.57034133188426494598388671875" lon="20.08158548735082149505615234375">
        <ele>2074.39990234375</ele>
        <time>2026-06-15T10:30:28.000Z</time>
        <extensions>
          <ns3:TrackPointExtension>
            <ns3:atemp>15.0</ns3:atemp>
          </ns3:TrackPointExtension>
        </extensions>
      </trkpt>
      <trkpt lat="42.570302523672580718994140625" lon="20.08157442323863506317138671875">
        <ele>2074.39990234375</ele>
        <time>2026-06-15T10:30:29.000Z</time>
        <extensions>
          <ns3:TrackPointExtension>
            <ns3:atemp>15.0</ns3:atemp>
          </ns3:TrackPointExtension>
        </extensions>
      </trkpt>
      <trkpt lat="42.57026388309895992279052734375" lon="20.08156101219356060028076171875">
        <ele>2074.39990234375</ele>
        <time>2026-06-15T10:30:30.000Z</time>
        <extensions>
          <ns3:TrackPointExtension>
            <ns3:atemp>15.0</ns3:atemp>
          </ns3:TrackPointExtension>
        </extensions>
      </trkpt>
      <trkpt lat="42.570229433476924896240234375" lon="20.08155732415616512298583984375">
        <ele>2074.199951171875</ele>
        <time>2026-06-15T10:30:31.000Z</time>
        <extensions>
          <ns3:TrackPointExtension>
            <ns3:atemp>15.0</ns3:atemp>
          </ns3:TrackPointExtension>
        </extensions>
      </trkpt>
      <trkpt lat="42.5702007673680782318115234375" lon="20.0815491937100887298583984375">
        <ele>2074</ele>
        <time>2026-06-15T10:30:32.000Z</time>
        <extensions>
          <ns3:TrackPointExtension>
            <ns3:atemp>15.0</ns3:atemp>
          </ns3:TrackPointExtension>
        </extensions>
      </trkpt>
      <trkpt lat="42.57017335854470729827880859375" lon="20.0815398059785366058349609375">
        <ele>2073.800048828125</ele>
        <time>2026-06-15T10:30:33.000Z</time>
        <extensions>
          <ns3:TrackPointExtension>
            <ns3:atemp>15.0</ns3:atemp>
          </ns3:TrackPointExtension>
        </extensions>
      </trkpt>
      <trkpt lat="42.5701437704265117645263671875" lon="20.0815341062843799591064453125">
        <ele>2073.800048828125</ele>
        <time>2026-06-15T10:30:34.000Z</time>
        <extensions>
          <ns3:TrackPointExtension>
            <ns3:atemp>15.0</ns3:atemp>
          </ns3:TrackPointExtension>
        </extensions>
      </trkpt>
      <trkpt lat="42.5701162777841091156005859375" lon="20.08152597583830356597900390625">
        <ele>2073.60009765625</ele>
        <time>2026-06-15T10:30:35.000Z</time>
        <extensions>
          <ns3:TrackPointExtension>
            <ns3:atemp>15.0</ns3:atemp>
          </ns3:TrackPointExtension>
        </extensions>
      </trkpt>
      <trkpt lat="42.57009364664554595947265625" lon="20.08151994086802005767822265625">
        <ele>2073.60009765625</ele>
        <time>2026-06-15T10:30:36.000Z</time>
        <extensions>
          <ns3:TrackPointExtension>
            <ns3:atemp>15.0</ns3:atemp>
          </ns3:TrackPointExtension>
        </extensions>
      </trkpt>
      <trkpt lat="42.57007545791566371917724609375" lon="20.0815176777541637420654296875">
        <ele>2073.39990234375</ele>
        <time>2026-06-15T10:30:37.000Z</time>
        <extensions>
          <ns3:TrackPointExtension>
            <ns3:atemp>15.0</ns3:atemp>
          </ns3:TrackPointExtension>
        </extensions>
      </trkpt>
      <trkpt lat="42.57005500607192516326904296875" lon="20.081513486802577972412109375">
        <ele>2073.39990234375</ele>
        <time>2026-06-15T10:30:38.000Z</time>
        <extensions>
          <ns3:TrackPointExtension>
            <ns3:atemp>15.0</ns3:atemp>
          </ns3:TrackPointExtension>
        </extensions>
      </trkpt>
      <trkpt lat="42.570035643875598907470703125" lon="20.08150183595716953277587890625">
        <ele>2073.39990234375</ele>
        <time>2026-06-15T10:30:39.000Z</time>
        <extensions>
          <ns3:TrackPointExtension>
            <ns3:atemp>15.0</ns3:atemp>
          </ns3:TrackPointExtension>
        </extensions>
      </trkpt>
      <trkpt lat="42.57001628167927265167236328125" lon="20.08149144239723682403564453125">
        <ele>2073.39990234375</ele>
        <time>2026-06-15T10:30:40.000Z</time>
        <extensions>
          <ns3:TrackPointExtension>
            <ns3:atemp>15.0</ns3:atemp>
          </ns3:TrackPointExtension>
        </extensions>
      </trkpt>
      <trkpt lat="42.57000119425356388092041015625" lon="20.0814856588840484619140625">
        <ele>2073.199951171875</ele>
        <time>2026-06-15T10:30:41.000Z</time>
        <extensions>
          <ns3:TrackPointExtension>
            <ns3:atemp>15.0</ns3:atemp>
          </ns3:TrackPointExtension>
        </extensions>
      </trkpt>
      <trkpt lat="42.56998375989496707916259765625" lon="20.0814818032085895538330078125">
        <ele>2073.199951171875</ele>
        <time>2026-06-15T10:30:42.000Z</time>
        <extensions>
          <ns3:TrackPointExtension>
            <ns3:atemp>15.0</ns3:atemp>
          </ns3:TrackPointExtension>
        </extensions>
      </trkpt>
      <trkpt lat="42.56996196694672107696533203125" lon="20.08148037828505039215087890625">
        <ele>2073.199951171875</ele>
        <time>2026-06-15T10:30:43.000Z</time>
        <extensions>
          <ns3:TrackPointExtension>
            <ns3:atemp>15.0</ns3:atemp>
          </ns3:TrackPointExtension>
        </extensions>
      </trkpt>
      <trkpt lat="42.56993782706558704376220703125" lon="20.08147895336151123046875">
        <ele>2073.199951171875</ele>
        <time>2026-06-15T10:30:44.000Z</time>
        <extensions>
          <ns3:TrackPointExtension>
            <ns3:atemp>15.0</ns3:atemp>
          </ns3:TrackPointExtension>
        </extensions>
      </trkpt>
      <trkpt lat="42.569914273917675018310546875" lon="20.08147736079990863800048828125">
        <ele>2073.199951171875</ele>
        <time>2026-06-15T10:30:45.000Z</time>
        <extensions>
          <ns3:TrackPointExtension>
            <ns3:atemp>15.0</ns3:atemp>
          </ns3:TrackPointExtension>
        </extensions>
      </trkpt>
      <trkpt lat="42.56988636218011379241943359375" lon="20.0814787857234477996826171875">
        <ele>2073.199951171875</ele>
        <time>2026-06-15T10:30:46.000Z</time>
        <extensions>
          <ns3:TrackPointExtension>
            <ns3:atemp>15.0</ns3:atemp>
          </ns3:TrackPointExtension>
        </extensions>
      </trkpt>
      <trkpt lat="42.56986523978412151336669921875" lon="20.08146847598254680633544921875">
        <ele>2073.199951171875</ele>
        <time>2026-06-15T10:30:47.000Z</time>
        <extensions>
          <ns3:TrackPointExtension>
            <ns3:atemp>15.0</ns3:atemp>
          </ns3:TrackPointExtension>
        </extensions>
      </trkpt>
      <trkpt lat="42.56985970772802829742431640625" lon="20.0814643688499927520751953125">
        <ele>2073</ele>
        <time>2026-06-15T10:30:48.000Z</time>
        <extensions>
          <ns3:TrackPointExtension>
            <ns3:atemp>15.0</ns3:atemp>
          </ns3:TrackPointExtension>
        </extensions>
      </trkpt>
      <trkpt lat="42.5698624737560749053955078125" lon="20.081467218697071075439453125">
        <ele>2073</ele>
        <time>2026-06-15T10:30:49.000Z</time>
        <extensions>
          <ns3:TrackPointExtension>
            <ns3:atemp>15.0</ns3:atemp>
          </ns3:TrackPointExtension>
        </extensions>
      </trkpt>
      <trkpt lat="42.5698624737560749053955078125" lon="20.081467218697071075439453125">
        <ele>2073</ele>
        <time>2026-06-15T10:30:50.000Z</time>
        <extensions>
          <ns3:TrackPointExtension>
            <ns3:atemp>15.0</ns3:atemp>
          </ns3:TrackPointExtension>
        </extensions>
      </trkpt>
      <trkpt lat="42.5698624737560749053955078125" lon="20.081467218697071075439453125">
        <ele>2073</ele>
        <time>2026-06-15T10:30:51.000Z</time>
        <extensions>
          <ns3:TrackPointExtension>
            <ns3:atemp>15.0</ns3:atemp>
          </ns3:TrackPointExtension>
        </extensions>
      </trkpt>
      <trkpt lat="42.5698624737560749053955078125" lon="20.081467218697071075439453125">
        <ele>2073</ele>
        <time>2026-06-15T10:30:52.000Z</time>
        <extensions>
          <ns3:TrackPointExtension>
            <ns3:atemp>15.0</ns3:atemp>
          </ns3:TrackPointExtension>
        </extensions>
      </trkpt>
      <trkpt lat="42.5698624737560749053955078125" lon="20.081467218697071075439453125">
        <ele>2073</ele>
        <time>2026-06-15T10:30:53.000Z</time>
        <extensions>
          <ns3:TrackPointExtension>
            <ns3:atemp>15.0</ns3:atemp>
          </ns3:TrackPointExtension>
        </extensions>
      </trkpt>
      <trkpt lat="42.5698624737560749053955078125" lon="20.081467218697071075439453125">
        <ele>2073</ele>
        <time>2026-06-15T10:30:54.000Z</time>
        <extensions>
          <ns3:TrackPointExtension>
            <ns3:atemp>15.0</ns3:atemp>
          </ns3:TrackPointExtension>
        </extensions>
      </trkpt>
      <trkpt lat="42.5698624737560749053955078125" lon="20.081467218697071075439453125">
        <ele>2073</ele>
        <time>2026-06-15T10:30:55.000Z</time>
        <extensions>
          <ns3:TrackPointExtension>
            <ns3:atemp>15.0</ns3:atemp>
          </ns3:TrackPointExtension>
        </extensions>
      </trkpt>
      <trkpt lat="42.56986222229897975921630859375" lon="20.08146755397319793701171875">
        <ele>2073</ele>
        <time>2026-06-15T10:30:56.000Z</time>
        <extensions>
          <ns3:TrackPointExtension>
            <ns3:atemp>15.0</ns3:atemp>
          </ns3:TrackPointExtension>
        </extensions>
      </trkpt>
      <trkpt lat="42.56984361447393894195556640625" lon="20.0814720802009105682373046875">
        <ele>2072.800048828125</ele>
        <time>2026-06-15T10:30:57.000Z</time>
        <extensions>
          <ns3:TrackPointExtension>
            <ns3:atemp>15.0</ns3:atemp>
          </ns3:TrackPointExtension>
        </extensions>
      </trkpt>
      <trkpt lat="42.5698235817253589630126953125" lon="20.0814680568873882293701171875">
        <ele>2072.800048828125</ele>
        <time>2026-06-15T10:30:58.000Z</time>
        <extensions>
          <ns3:TrackPointExtension>
            <ns3:atemp>15.0</ns3:atemp>
          </ns3:TrackPointExtension>
        </extensions>
      </trkpt>
      <trkpt lat="42.5697934068739414215087890625" lon="20.08145975880324840545654296875">
        <ele>2072.60009765625</ele>
        <time>2026-06-15T10:30:59.000Z</time>
        <extensions>
          <ns3:TrackPointExtension>
            <ns3:atemp>15.0</ns3:atemp>
          </ns3:TrackPointExtension>
        </extensions>
      </trkpt>
      <trkpt lat="42.56974437274038791656494140625" lon="20.0814459286630153656005859375">
        <ele>2072.39990234375</ele>
        <time>2026-06-15T10:31:00.000Z</time>
        <extensions>
          <ns3:TrackPointExtension>
            <ns3:atemp>15.0</ns3:atemp>
          </ns3:TrackPointExtension>
        </extensions>
      </trkpt>
      <trkpt lat="42.5696851126849651336669921875" lon="20.0814211182296276092529296875">
        <ele>2072</ele>
        <time>2026-06-15T10:31:01.000Z</time>
        <extensions>
          <ns3:TrackPointExtension>
            <ns3:atemp>15.0</ns3:atemp>
          </ns3:TrackPointExtension>
        </extensions>
      </trkpt>
      <trkpt lat="42.56962115876376628875732421875" lon="20.0813922844827175140380859375">
        <ele>2071.60009765625</ele>
        <time>2026-06-15T10:31:02.000Z</time>
        <extensions>
          <ns3:TrackPointExtension>
            <ns3:atemp>15.0</ns3:atemp>
          </ns3:TrackPointExtension>
        </extensions>
      </trkpt>
      <trkpt lat="42.5695550255477428436279296875" lon="20.08136386983096599578857421875">
        <ele>2071.199951171875</ele>
        <time>2026-06-15T10:31:03.000Z</time>
        <extensions>
          <ns3:TrackPointExtension>
            <ns3:atemp>15.0</ns3:atemp>
          </ns3:TrackPointExtension>
        </extensions>
      </trkpt>
      <trkpt lat="42.5694866292178630828857421875" lon="20.0813315995037555694580078125">
        <ele>2070.800048828125</ele>
        <time>2026-06-15T10:31:04.000Z</time>
        <extensions>
          <ns3:TrackPointExtension>
            <ns3:atemp>15.0</ns3:atemp>
          </ns3:TrackPointExtension>
        </extensions>
      </trkpt>
      <trkpt lat="42.569421418011188507080078125" lon="20.08129497058689594268798828125">
        <ele>2070.39990234375</ele>
        <time>2026-06-15T10:31:05.000Z</time>
        <extensions>
          <ns3:TrackPointExtension>
            <ns3:atemp>15.0</ns3:atemp>
          </ns3:TrackPointExtension>
        </extensions>
      </trkpt>
      <trkpt lat="42.5693793408572673797607421875" lon="20.0812571682035923004150390625">
        <ele>2070</ele>
        <time>2026-06-15T10:31:06.000Z</time>
        <extensions>
          <ns3:TrackPointExtension>
            <ns3:atemp>15.0</ns3:atemp>
          </ns3:TrackPointExtension>
        </extensions>
      </trkpt>
      <trkpt lat="42.56934807635843753814697265625" lon="20.08123713545501232147216796875">
        <ele>2069.800048828125</ele>
        <time>2026-06-15T10:31:07.000Z</time>
        <extensions>
          <ns3:TrackPointExtension>
            <ns3:atemp>15.0</ns3:atemp>
          </ns3:TrackPointExtension>
        </extensions>
      </trkpt>
      <trkpt lat="42.56932251155376434326171875" lon="20.08122213184833526611328125">
        <ele>2069.39990234375</ele>
        <time>2026-06-15T10:31:08.000Z</time>
        <extensions>
          <ns3:TrackPointExtension>
            <ns3:atemp>15.0</ns3:atemp>
          </ns3:TrackPointExtension>
        </extensions>
      </trkpt>
      <trkpt lat="42.569306083023548126220703125" lon="20.08120511658489704132080078125">
        <ele>2069.39990234375</ele>
        <time>2026-06-15T10:31:09.000Z</time>
        <extensions>
          <ns3:TrackPointExtension>
            <ns3:atemp>15.0</ns3:atemp>
          </ns3:TrackPointExtension>
        </extensions>
      </trkpt>
      <trkpt lat="42.56929225288331508636474609375" lon="20.081192292273044586181640625">
        <ele>2069.199951171875</ele>
        <time>2026-06-15T10:31:10.000Z</time>
        <extensions>
          <ns3:TrackPointExtension>
            <ns3:atemp>15.0</ns3:atemp>
          </ns3:TrackPointExtension>
        </extensions>
      </trkpt>
      <trkpt lat="42.56927733309566974639892578125" lon="20.0811637938022613525390625">
        <ele>2069.199951171875</ele>
        <time>2026-06-15T10:31:11.000Z</time>
        <extensions>
          <ns3:TrackPointExtension>
            <ns3:atemp>15.0</ns3:atemp>
          </ns3:TrackPointExtension>
        </extensions>
      </trkpt>
      <trkpt lat="42.5692546181380748748779296875" lon="20.08112934418022632598876953125">
        <ele>2069</ele>
        <time>2026-06-15T10:31:12.000Z</time>
        <extensions>
          <ns3:TrackPointExtension>
            <ns3:atemp>15.0</ns3:atemp>
          </ns3:TrackPointExtension>
        </extensions>
      </trkpt>
      <trkpt lat="42.569239698350429534912109375" lon="20.08108626119792461395263671875">
        <ele>2068.800048828125</ele>
        <time>2026-06-15T10:31:13.000Z</time>
        <extensions>
          <ns3:TrackPointExtension>
            <ns3:atemp>15.0</ns3:atemp>
          </ns3:TrackPointExtension>
        </extensions>
      </trkpt>
      <trkpt lat="42.569220922887325286865234375" lon="20.08104485459625720977783203125">
        <ele>2068.60009765625</ele>
        <time>2026-06-15T10:31:14.000Z</time>
        <extensions>
          <ns3:TrackPointExtension>
            <ns3:atemp>15.0</ns3:atemp>
          </ns3:TrackPointExtension>
        </extensions>
      </trkpt>
      <trkpt lat="42.569196112453937530517578125" lon="20.08101568557322025299072265625">
        <ele>2068.39990234375</ele>
        <time>2026-06-15T10:31:15.000Z</time>
        <extensions>
          <ns3:TrackPointExtension>
            <ns3:atemp>15.0</ns3:atemp>
          </ns3:TrackPointExtension>
        </extensions>
      </trkpt>
      <trkpt lat="42.56917406804859638214111328125" lon="20.0809963233768939971923828125">
        <ele>2068.199951171875</ele>
        <time>2026-06-15T10:31:16.000Z</time>
        <extensions>
          <ns3:TrackPointExtension>
            <ns3:atemp>15.0</ns3:atemp>
          </ns3:TrackPointExtension>
        </extensions>
      </trkpt>
      <trkpt lat="42.5691474974155426025390625" lon="20.08098685182631015777587890625">
        <ele>2068.199951171875</ele>
        <time>2026-06-15T10:31:17.000Z</time>
        <extensions>
          <ns3:TrackPointExtension>
            <ns3:atemp>15.0</ns3:atemp>
          </ns3:TrackPointExtension>
        </extensions>
      </trkpt>
      <trkpt lat="42.5691260397434234619140625" lon="20.08097042329609394073486328125">
        <ele>2068.199951171875</ele>
        <time>2026-06-15T10:31:18.000Z</time>
        <extensions>
          <ns3:TrackPointExtension>
            <ns3:atemp>15.0</ns3:atemp>
          </ns3:TrackPointExtension>
        </extensions>
      </trkpt>
      <trkpt lat="42.56909863092005252838134765625" lon="20.0809416733682155609130859375">
        <ele>2068</ele>
        <time>2026-06-15T10:31:19.000Z</time>
        <extensions>
          <ns3:TrackPointExtension>
            <ns3:atemp>15.0</ns3:atemp>
          </ns3:TrackPointExtension>
        </extensions>
      </trkpt>
      <trkpt lat="42.569064013659954071044921875" lon="20.08090102113783359527587890625">
        <ele>2068</ele>
        <time>2026-06-15T10:31:20.000Z</time>
        <extensions>
          <ns3:TrackPointExtension>
            <ns3:atemp>15.0</ns3:atemp>
          </ns3:TrackPointExtension>
        </extensions>
      </trkpt>
      <trkpt lat="42.5690279714763164520263671875" lon="20.080862380564212799072265625">
        <ele>2068</ele>
        <time>2026-06-15T10:31:21.000Z</time>
        <extensions>
          <ns3:TrackPointExtension>
            <ns3:atemp>15.0</ns3:atemp>
          </ns3:TrackPointExtension>
        </extensions>
      </trkpt>
      <trkpt lat="42.56899301894009113311767578125" lon="20.080828182399272918701171875">
        <ele>2067.800048828125</ele>
        <time>2026-06-15T10:31:22.000Z</time>
        <extensions>
          <ns3:TrackPointExtension>
            <ns3:atemp>15.0</ns3:atemp>
          </ns3:TrackPointExtension>
        </extensions>
      </trkpt>
      <trkpt lat="42.56896234117448329925537109375" lon="20.08080127649009227752685546875">
        <ele>2067.39990234375</ele>
        <time>2026-06-15T10:31:23.000Z</time>
        <extensions>
          <ns3:TrackPointExtension>
            <ns3:atemp>15.0</ns3:atemp>
          </ns3:TrackPointExtension>
        </extensions>
      </trkpt>
      <trkpt lat="42.56894021295011043548583984375" lon="20.08078493177890777587890625">
        <ele>2067.199951171875</ele>
        <time>2026-06-15T10:31:24.000Z</time>
        <extensions>
          <ns3:TrackPointExtension>
            <ns3:atemp>15.0</ns3:atemp>
          </ns3:TrackPointExtension>
        </extensions>
      </trkpt>
      <trkpt lat="42.56892462261021137237548828125" lon="20.08077193982899188995361328125">
        <ele>2067.199951171875</ele>
        <time>2026-06-15T10:31:25.000Z</time>
        <extensions>
          <ns3:TrackPointExtension>
            <ns3:atemp>15.0</ns3:atemp>
          </ns3:TrackPointExtension>
        </extensions>
      </trkpt>
      <trkpt lat="42.56891003809869289398193359375" lon="20.08075785823166370391845703125">
        <ele>2067.199951171875</ele>
        <time>2026-06-15T10:31:26.000Z</time>
        <extensions>
          <ns3:TrackPointExtension>
            <ns3:atemp>15.0</ns3:atemp>
          </ns3:TrackPointExtension>
        </extensions>
      </trkpt>
      <trkpt lat="42.56889444775879383087158203125" lon="20.08074411191046237945556640625">
        <ele>2067.199951171875</ele>
        <time>2026-06-15T10:31:27.000Z</time>
        <extensions>
          <ns3:TrackPointExtension>
            <ns3:atemp>15.0</ns3:atemp>
          </ns3:TrackPointExtension>
        </extensions>
      </trkpt>
      <trkpt lat="42.56887592375278472900390625" lon="20.08072718046605587005615234375">
        <ele>2067</ele>
        <time>2026-06-15T10:31:28.000Z</time>
        <extensions>
          <ns3:TrackPointExtension>
            <ns3:atemp>15.0</ns3:atemp>
          </ns3:TrackPointExtension>
        </extensions>
      </trkpt>
      <trkpt lat="42.56886108778417110443115234375" lon="20.08070723153650760650634765625">
        <ele>2067</ele>
        <time>2026-06-15T10:31:29.000Z</time>
        <extensions>
          <ns3:TrackPointExtension>
            <ns3:atemp>15.0</ns3:atemp>
          </ns3:TrackPointExtension>
        </extensions>
      </trkpt>
      <trkpt lat="42.56885253824293613433837890625" lon="20.08067856542766094207763671875">
        <ele>2066.800048828125</ele>
        <time>2026-06-15T10:31:30.000Z</time>
        <extensions>
          <ns3:TrackPointExtension>
            <ns3:atemp>15.0</ns3:atemp>
          </ns3:TrackPointExtension>
        </extensions>
      </trkpt>
      <trkpt lat="42.5688542984426021575927734375" lon="20.08064118213951587677001953125">
        <ele>2066.60009765625</ele>
        <time>2026-06-15T10:31:31.000Z</time>
        <extensions>
          <ns3:TrackPointExtension>
            <ns3:atemp>15.0</ns3:atemp>
          </ns3:TrackPointExtension>
        </extensions>
      </trkpt>
      <trkpt lat="42.5688730739057064056396484375" lon="20.080609582364559173583984375">
        <ele>2066.39990234375</ele>
        <time>2026-06-15T10:31:32.000Z</time>
        <extensions>
          <ns3:TrackPointExtension>
            <ns3:atemp>15.0</ns3:atemp>
          </ns3:TrackPointExtension>
        </extensions>
      </trkpt>
      <trkpt lat="42.56889696232974529266357421875" lon="20.08059524931013584136962890625">
        <ele>2066.199951171875</ele>
        <time>2026-06-15T10:31:33.000Z</time>
        <extensions>
          <ns3:TrackPointExtension>
            <ns3:atemp>15.0</ns3:atemp>
          </ns3:TrackPointExtension>
        </extensions>
      </trkpt>
      <trkpt lat="42.56892311386764049530029296875" lon="20.08059189654886722564697265625">
        <ele>2066</ele>
        <time>2026-06-15T10:31:34.000Z</time>
        <extensions>
          <ns3:TrackPointExtension>
            <ns3:atemp>15.0</ns3:atemp>
          </ns3:TrackPointExtension>
        </extensions>
      </trkpt>
      <trkpt lat="42.568950019776821136474609375" lon="20.08060446940362453460693359375">
        <ele>2065.800048828125</ele>
        <time>2026-06-15T10:31:35.000Z</time>
        <extensions>
          <ns3:TrackPointExtension>
            <ns3:atemp>15.0</ns3:atemp>
          </ns3:TrackPointExtension>
        </extensions>
      </trkpt>
      <trkpt lat="42.568968124687671661376953125" lon="20.08062978275120258331298828125">
        <ele>2065.60009765625</ele>
        <time>2026-06-15T10:31:36.000Z</time>
        <extensions>
          <ns3:TrackPointExtension>
            <ns3:atemp>15.0</ns3:atemp>
          </ns3:TrackPointExtension>
        </extensions>
      </trkpt>
      <trkpt lat="42.568986900150775909423828125" lon="20.08065442554652690887451171875">
        <ele>2065.39990234375</ele>
        <time>2026-06-15T10:31:37.000Z</time>
        <extensions>
          <ns3:TrackPointExtension>
            <ns3:atemp>15.0</ns3:atemp>
          </ns3:TrackPointExtension>
        </extensions>
      </trkpt>
      <trkpt lat="42.56901078857481479644775390625" lon="20.08067890070378780364990234375">
        <ele>2065.199951171875</ele>
        <time>2026-06-15T10:31:38.000Z</time>
        <extensions>
          <ns3:TrackPointExtension>
            <ns3:atemp>15.0</ns3:atemp>
          </ns3:TrackPointExtension>
        </extensions>
      </trkpt>
      <trkpt lat="42.5690333358943462371826171875" lon="20.0807016156613826751708984375">
        <ele>2065</ele>
        <time>2026-06-15T10:31:39.000Z</time>
        <extensions>
          <ns3:TrackPointExtension>
            <ns3:atemp>15.0</ns3:atemp>
          </ns3:TrackPointExtension>
        </extensions>
      </trkpt>
      <trkpt lat="42.56906577385962009429931640625" lon="20.0807344727218151092529296875">
        <ele>2064.800048828125</ele>
        <time>2026-06-15T10:31:40.000Z</time>
        <extensions>
          <ns3:TrackPointExtension>
            <ns3:atemp>15.0</ns3:atemp>
          </ns3:TrackPointExtension>
        </extensions>
      </trkpt>
      <trkpt lat="42.569107599556446075439453125" lon="20.08077210746705532073974609375">
        <ele>2064.60009765625</ele>
        <time>2026-06-15T10:31:41.000Z</time>
        <extensions>
          <ns3:TrackPointExtension>
            <ns3:atemp>15.0</ns3:atemp>
          </ns3:TrackPointExtension>
        </extensions>
      </trkpt>
      <trkpt lat="42.5691429711878299713134765625" lon="20.0808035396039485931396484375">
        <ele>2064.39990234375</ele>
        <time>2026-06-15T10:31:42.000Z</time>
        <extensions>
          <ns3:TrackPointExtension>
            <ns3:atemp>15.0</ns3:atemp>
          </ns3:TrackPointExtension>
        </extensions>
      </trkpt>
      <trkpt lat="42.5691821984946727752685546875" lon="20.0808311998844146728515625">
        <ele>2064</ele>
        <time>2026-06-15T10:31:43.000Z</time>
        <extensions>
          <ns3:TrackPointExtension>
            <ns3:atemp>15.0</ns3:atemp>
          </ns3:TrackPointExtension>
        </extensions>
      </trkpt>
      <trkpt lat="42.569223605096340179443359375" lon="20.08084603585302829742431640625">
        <ele>2063.800048828125</ele>
        <time>2026-06-15T10:31:44.000Z</time>
        <extensions>
          <ns3:TrackPointExtension>
            <ns3:atemp>15.0</ns3:atemp>
          </ns3:TrackPointExtension>
        </extensions>
      </trkpt>
      <trkpt lat="42.5692643411457538604736328125" lon="20.0808632187545299530029296875">
        <ele>2063.60009765625</ele>
        <time>2026-06-15T10:31:45.000Z</time>
        <extensions>
          <ns3:TrackPointExtension>
            <ns3:atemp>15.0</ns3:atemp>
          </ns3:TrackPointExtension>
        </extensions>
      </trkpt>
      <trkpt lat="42.56930616684257984161376953125" lon="20.08088258095085620880126953125">
        <ele>2063.199951171875</ele>
        <time>2026-06-15T10:31:46.000Z</time>
        <extensions>
          <ns3:TrackPointExtension>
            <ns3:atemp>15.0</ns3:atemp>
          </ns3:TrackPointExtension>
        </extensions>
      </trkpt>
      <trkpt lat="42.56935243494808673858642578125" lon="20.0809007696807384490966796875">
        <ele>2062.800048828125</ele>
        <time>2026-06-15T10:31:47.000Z</time>
        <extensions>
          <ns3:TrackPointExtension>
            <ns3:atemp>15.0</ns3:atemp>
          </ns3:TrackPointExtension>
        </extensions>
      </trkpt>
      <trkpt lat="42.56940255872905254364013671875" lon="20.0809084810316562652587890625">
        <ele>2062.39990234375</ele>
        <time>2026-06-15T10:31:48.000Z</time>
        <extensions>
          <ns3:TrackPointExtension>
            <ns3:atemp>15.0</ns3:atemp>
          </ns3:TrackPointExtension>
        </extensions>
      </trkpt>
      <trkpt lat="42.5694520957767963409423828125" lon="20.0809128396213054656982421875">
        <ele>2061.800048828125</ele>
        <time>2026-06-15T10:31:49.000Z</time>
        <extensions>
          <ns3:TrackPointExtension>
            <ns3:atemp>15.0</ns3:atemp>
          </ns3:TrackPointExtension>
        </extensions>
      </trkpt>
      <trkpt lat="42.56950129754841327667236328125" lon="20.0809118337929248809814453125">
        <ele>2061.39990234375</ele>
        <time>2026-06-15T10:31:50.000Z</time>
        <extensions>
          <ns3:TrackPointExtension>
            <ns3:atemp>15.0</ns3:atemp>
          </ns3:TrackPointExtension>
        </extensions>
      </trkpt>
      <trkpt lat="42.569544799625873565673828125" lon="20.0809208862483501434326171875">
        <ele>2061.199951171875</ele>
        <time>2026-06-15T10:31:51.000Z</time>
        <extensions>
          <ns3:TrackPointExtension>
            <ns3:atemp>15.0</ns3:atemp>
          </ns3:TrackPointExtension>
        </extensions>
      </trkpt>
      <trkpt lat="42.56959140300750732421875" lon="20.08094091899693012237548828125">
        <ele>2060.800048828125</ele>
        <time>2026-06-15T10:31:52.000Z</time>
        <extensions>
          <ns3:TrackPointExtension>
            <ns3:atemp>15.0</ns3:atemp>
          </ns3:TrackPointExtension>
        </extensions>
      </trkpt>
      <trkpt lat="42.569627277553081512451171875" lon="20.0809648074209690093994140625">
        <ele>2060.60009765625</ele>
        <time>2026-06-15T10:31:53.000Z</time>
        <extensions>
          <ns3:TrackPointExtension>
            <ns3:atemp>15.0</ns3:atemp>
          </ns3:TrackPointExtension>
        </extensions>
      </trkpt>
      <trkpt lat="42.56965451873838901519775390625" lon="20.0809899531304836273193359375">
        <ele>2060.199951171875</ele>
        <time>2026-06-15T10:31:54.000Z</time>
        <extensions>
          <ns3:TrackPointExtension>
            <ns3:atemp>15.0</ns3:atemp>
          </ns3:TrackPointExtension>
        </extensions>
      </trkpt>
      <trkpt lat="42.56967329420149326324462890625" lon="20.0810164399445056915283203125">
        <ele>2059.800048828125</ele>
        <time>2026-06-15T10:31:55.000Z</time>
        <extensions>
          <ns3:TrackPointExtension>
            <ns3:atemp>15.0</ns3:atemp>
          </ns3:TrackPointExtension>
        </extensions>
      </trkpt>
      <trkpt lat="42.56968997418880462646484375" lon="20.08103865198791027069091796875">
        <ele>2059.60009765625</ele>
        <time>2026-06-15T10:31:56.000Z</time>
        <extensions>
          <ns3:TrackPointExtension>
            <ns3:atemp>15.0</ns3:atemp>
          </ns3:TrackPointExtension>
        </extensions>
      </trkpt>
      <trkpt lat="42.56970531307160854339599609375" lon="20.08105809800326824188232421875">
        <ele>2059.199951171875</ele>
        <time>2026-06-15T10:31:57.000Z</time>
        <extensions>
          <ns3:TrackPointExtension>
            <ns3:atemp>15.0</ns3:atemp>
          </ns3:TrackPointExtension>
        </extensions>
      </trkpt>
      <trkpt lat="42.5697223283350467681884765625" lon="20.081070251762866973876953125">
        <ele>2059</ele>
        <time>2026-06-15T10:31:58.000Z</time>
        <extensions>
          <ns3:TrackPointExtension>
            <ns3:atemp>15.0</ns3:atemp>
          </ns3:TrackPointExtension>
        </extensions>
      </trkpt>
      <trkpt lat="42.56974571384489536285400390625" lon="20.08107754401862621307373046875">
        <ele>2058.800048828125</ele>
        <time>2026-06-15T10:31:59.000Z</time>
        <extensions>
          <ns3:TrackPointExtension>
            <ns3:atemp>15.0</ns3:atemp>
          </ns3:TrackPointExtension>
        </extensions>
      </trkpt>
      <trkpt lat="42.56977312266826629638671875" lon="20.0810781307518482208251953125">
        <ele>2058.60009765625</ele>
        <time>2026-06-15T10:32:00.000Z</time>
        <extensions>
          <ns3:TrackPointExtension>
            <ns3:atemp>15.0</ns3:atemp>
          </ns3:TrackPointExtension>
        </extensions>
      </trkpt>
      <trkpt lat="42.5698024593293666839599609375" lon="20.081068575382232666015625">
        <ele>2058.60009765625</ele>
        <time>2026-06-15T10:32:01.000Z</time>
        <extensions>
          <ns3:TrackPointExtension>
            <ns3:atemp>15.0</ns3:atemp>
          </ns3:TrackPointExtension>
        </extensions>
      </trkpt>
      <trkpt lat="42.5698279403150081634521484375" lon="20.081038735806941986083984375">
        <ele>2058.199951171875</ele>
        <time>2026-06-15T10:32:02.000Z</time>
        <extensions>
          <ns3:TrackPointExtension>
            <ns3:atemp>15.0</ns3:atemp>
          </ns3:TrackPointExtension>
        </extensions>
      </trkpt>
      <trkpt lat="42.56983120925724506378173828125" lon="20.0809959881007671356201171875">
        <ele>2058</ele>
        <time>2026-06-15T10:32:03.000Z</time>
        <extensions>
          <ns3:TrackPointExtension>
            <ns3:atemp>15.0</ns3:atemp>
          </ns3:TrackPointExtension>
        </extensions>
      </trkpt>
      <trkpt lat="42.569815032184123992919921875" lon="20.08096120320260524749755859375">
        <ele>2057.800048828125</ele>
        <time>2026-06-15T10:32:04.000Z</time>
        <extensions>
          <ns3:TrackPointExtension>
            <ns3:atemp>15.0</ns3:atemp>
          </ns3:TrackPointExtension>
        </extensions>
      </trkpt>
      <trkpt lat="42.56979189813137054443359375" lon="20.080925412476062774658203125">
        <ele>2057.199951171875</ele>
        <time>2026-06-15T10:32:05.000Z</time>
        <extensions>
          <ns3:TrackPointExtension>
            <ns3:atemp>15.0</ns3:atemp>
          </ns3:TrackPointExtension>
        </extensions>
      </trkpt>
      <trkpt lat="42.56976096890866756439208984375" lon="20.08088911883533000946044921875">
        <ele>2056.60009765625</ele>
        <time>2026-06-15T10:32:06.000Z</time>
        <extensions>
          <ns3:TrackPointExtension>
            <ns3:atemp>15.0</ns3:atemp>
          </ns3:TrackPointExtension>
        </extensions>
      </trkpt>
      <trkpt lat="42.56972325034439563751220703125" lon="20.080856345593929290771484375">
        <ele>2056.199951171875</ele>
        <time>2026-06-15T10:32:07.000Z</time>
        <extensions>
          <ns3:TrackPointExtension>
            <ns3:atemp>15.0</ns3:atemp>
          </ns3:TrackPointExtension>
        </extensions>
      </trkpt>
      <trkpt lat="42.56968486122786998748779296875" lon="20.080817453563213348388671875">
        <ele>2055.60009765625</ele>
        <time>2026-06-15T10:32:08.000Z</time>
        <extensions>
          <ns3:TrackPointExtension>
            <ns3:atemp>15.0</ns3:atemp>
          </ns3:TrackPointExtension>
        </extensions>
      </trkpt>
      <trkpt lat="42.56964303553104400634765625" lon="20.0807777233421802520751953125">
        <ele>2054.800048828125</ele>
        <time>2026-06-15T10:32:09.000Z</time>
        <extensions>
          <ns3:TrackPointExtension>
            <ns3:atemp>15.0</ns3:atemp>
          </ns3:TrackPointExtension>
        </extensions>
      </trkpt>
      <trkpt lat="42.56960037164390087127685546875" lon="20.080743692815303802490234375">
        <ele>2054.199951171875</ele>
        <time>2026-06-15T10:32:10.000Z</time>
        <extensions>
          <ns3:TrackPointExtension>
            <ns3:atemp>15.0</ns3:atemp>
          </ns3:TrackPointExtension>
        </extensions>
      </trkpt>
      <trkpt lat="42.56956215016543865203857421875" lon="20.080723576247692108154296875">
        <ele>2053.800048828125</ele>
        <time>2026-06-15T10:32:11.000Z</time>
        <extensions>
          <ns3:TrackPointExtension>
            <ns3:atemp>15.0</ns3:atemp>
          </ns3:TrackPointExtension>
        </extensions>
      </trkpt>
      <trkpt lat="42.569528035819530487060546875" lon="20.080716200172901153564453125">
        <ele>2053.39990234375</ele>
        <time>2026-06-15T10:32:12.000Z</time>
        <extensions>
          <ns3:TrackPointExtension>
            <ns3:atemp>15.0</ns3:atemp>
          </ns3:TrackPointExtension>
        </extensions>
      </trkpt>
      <trkpt lat="42.56950045935809612274169921875" lon="20.08072064258158206939697265625">
        <ele>2053.199951171875</ele>
        <time>2026-06-15T10:32:13.000Z</time>
        <extensions>
          <ns3:TrackPointExtension>
            <ns3:atemp>15.0</ns3:atemp>
          </ns3:TrackPointExtension>
        </extensions>
      </trkpt>
      <trkpt lat="42.56948319263756275177001953125" lon="20.08071980439126491546630859375">
        <ele>2053</ele>
        <time>2026-06-15T10:32:14.000Z</time>
        <extensions>
          <ns3:TrackPointExtension>
            <ns3:atemp>15.0</ns3:atemp>
          </ns3:TrackPointExtension>
        </extensions>
      </trkpt>
      <trkpt lat="42.56946290843188762664794921875" lon="20.0807029567658901214599609375">
        <ele>2053</ele>
        <time>2026-06-15T10:32:15.000Z</time>
        <extensions>
          <ns3:TrackPointExtension>
            <ns3:atemp>15.0</ns3:atemp>
          </ns3:TrackPointExtension>
        </extensions>
      </trkpt>
      <trkpt lat="42.56943306885659694671630859375" lon="20.08066884241998195648193359375">
        <ele>2053</ele>
        <time>2026-06-15T10:32:16.000Z</time>
        <extensions>
          <ns3:TrackPointExtension>
            <ns3:atemp>15.0</ns3:atemp>
          </ns3:TrackPointExtension>
        </extensions>
      </trkpt>
      <trkpt lat="42.56939820013940334320068359375" lon="20.0806332193315029144287109375">
        <ele>2053</ele>
        <time>2026-06-15T10:32:17.000Z</time>
        <extensions>
          <ns3:TrackPointExtension>
            <ns3:atemp>15.0</ns3:atemp>
          </ns3:TrackPointExtension>
        </extensions>
      </trkpt>
      <trkpt lat="42.56935930810868740081787109375" lon="20.080596841871738433837890625">
        <ele>2052.800048828125</ele>
        <time>2026-06-15T10:32:18.000Z</time>
        <extensions>
          <ns3:TrackPointExtension>
            <ns3:atemp>15.0</ns3:atemp>
          </ns3:TrackPointExtension>
        </extensions>
      </trkpt>
      <trkpt lat="42.56931957788765430450439453125" lon="20.08056700229644775390625">
        <ele>2052.60009765625</ele>
        <time>2026-06-15T10:32:19.000Z</time>
        <extensions>
          <ns3:TrackPointExtension>
            <ns3:atemp>15.0</ns3:atemp>
          </ns3:TrackPointExtension>
        </extensions>
      </trkpt>
      <trkpt lat="42.56927532143890857696533203125" lon="20.08053674362599849700927734375">
        <ele>2052.39990234375</ele>
        <time>2026-06-15T10:32:20.000Z</time>
        <extensions>
          <ns3:TrackPointExtension>
            <ns3:atemp>15.0</ns3:atemp>
          </ns3:TrackPointExtension>
        </extensions>
      </trkpt>
      <trkpt lat="42.5692365132272243499755859375" lon="20.08051008917391300201416015625">
        <ele>2052</ele>
        <time>2026-06-15T10:32:21.000Z</time>
        <extensions>
          <ns3:TrackPointExtension>
            <ns3:atemp>15.0</ns3:atemp>
          </ns3:TrackPointExtension>
        </extensions>
      </trkpt>
      <trkpt lat="42.56920583546161651611328125" lon="20.08048511110246181488037109375">
        <ele>2051.800048828125</ele>
        <time>2026-06-15T10:32:22.000Z</time>
        <extensions>
          <ns3:TrackPointExtension>
            <ns3:atemp>15.0</ns3:atemp>
          </ns3:TrackPointExtension>
        </extensions>
      </trkpt>
      <trkpt lat="42.56917708553373813629150390625" lon="20.0804625637829303741455078125">
        <ele>2051.60009765625</ele>
        <time>2026-06-15T10:32:23.000Z</time>
        <extensions>
          <ns3:TrackPointExtension>
            <ns3:atemp>15.0</ns3:atemp>
          </ns3:TrackPointExtension>
        </extensions>
      </trkpt>
      <trkpt lat="42.5691513530910015106201171875" lon="20.08043582551181316375732421875">
        <ele>2051.60009765625</ele>
        <time>2026-06-15T10:32:24.000Z</time>
        <extensions>
          <ns3:TrackPointExtension>
            <ns3:atemp>15.0</ns3:atemp>
          </ns3:TrackPointExtension>
        </extensions>
      </trkpt>
      <trkpt lat="42.56914020515978336334228515625" lon="20.08040481247007846832275390625">
        <ele>2051.60009765625</ele>
        <time>2026-06-15T10:32:25.000Z</time>
        <extensions>
          <ns3:TrackPointExtension>
            <ns3:atemp>15.0</ns3:atemp>
          </ns3:TrackPointExtension>
        </extensions>
      </trkpt>
      <trkpt lat="42.56913836114108562469482421875" lon="20.08036776445806026458740234375">
        <ele>2051.39990234375</ele>
        <time>2026-06-15T10:32:26.000Z</time>
        <extensions>
          <ns3:TrackPointExtension>
            <ns3:atemp>15.0</ns3:atemp>
          </ns3:TrackPointExtension>
        </extensions>
      </trkpt>
      <trkpt lat="42.5691490061581134796142578125" lon="20.08033758960664272308349609375">
        <ele>2051.39990234375</ele>
        <time>2026-06-15T10:32:27.000Z</time>
        <extensions>
          <ns3:TrackPointExtension>
            <ns3:atemp>15.0</ns3:atemp>
          </ns3:TrackPointExtension>
        </extensions>
      </trkpt>
      <trkpt lat="42.56916183046996593475341796875" lon="20.08031764067709445953369140625">
        <ele>2051.199951171875</ele>
        <time>2026-06-15T10:32:28.000Z</time>
        <extensions>
          <ns3:TrackPointExtension>
            <ns3:atemp>15.0</ns3:atemp>
          </ns3:TrackPointExtension>
        </extensions>
      </trkpt>
      <trkpt lat="42.56918647326529026031494140625" lon="20.08031076751649379730224609375">
        <ele>2051.199951171875</ele>
        <time>2026-06-15T10:32:29.000Z</time>
        <extensions>
          <ns3:TrackPointExtension>
            <ns3:atemp>15.0</ns3:atemp>
          </ns3:TrackPointExtension>
        </extensions>
      </trkpt>
      <trkpt lat="42.5692133791744709014892578125" lon="20.08032761514186859130859375">
        <ele>2051</ele>
        <time>2026-06-15T10:32:30.000Z</time>
        <extensions>
          <ns3:TrackPointExtension>
            <ns3:atemp>15.0</ns3:atemp>
          </ns3:TrackPointExtension>
        </extensions>
      </trkpt>
      <trkpt lat="42.56924095563590526580810546875" lon="20.08035234175622463226318359375">
        <ele>2050.800048828125</ele>
        <time>2026-06-15T10:32:31.000Z</time>
        <extensions>
          <ns3:TrackPointExtension>
            <ns3:atemp>15.0</ns3:atemp>
          </ns3:TrackPointExtension>
        </extensions>
      </trkpt>
      <trkpt lat="42.56926811300218105316162109375" lon="20.08038352243602275848388671875">
        <ele>2050.60009765625</ele>
        <time>2026-06-15T10:32:32.000Z</time>
        <extensions>
          <ns3:TrackPointExtension>
            <ns3:atemp>15.0</ns3:atemp>
          </ns3:TrackPointExtension>
        </extensions>
      </trkpt>
      <trkpt lat="42.56929728202521800994873046875" lon="20.08041788823902606964111328125">
        <ele>2050.199951171875</ele>
        <time>2026-06-15T10:32:33.000Z</time>
        <extensions>
          <ns3:TrackPointExtension>
            <ns3:atemp>15.0</ns3:atemp>
          </ns3:TrackPointExtension>
        </extensions>
      </trkpt>
      <trkpt lat="42.56932326592504978179931640625" lon="20.08045644499361515045166015625">
        <ele>2049.800048828125</ele>
        <time>2026-06-15T10:32:34.000Z</time>
        <extensions>
          <ns3:TrackPointExtension>
            <ns3:atemp>15.0</ns3:atemp>
          </ns3:TrackPointExtension>
        </extensions>
      </trkpt>
      <trkpt lat="42.56935897283256053924560546875" lon="20.08048980496823787689208984375">
        <ele>2049.60009765625</ele>
        <time>2026-06-15T10:32:35.000Z</time>
        <extensions>
          <ns3:TrackPointExtension>
            <ns3:atemp>15.0</ns3:atemp>
          </ns3:TrackPointExtension>
        </extensions>
      </trkpt>
      <trkpt lat="42.56939761340618133544921875" lon="20.080519057810306549072265625">
        <ele>2049</ele>
        <time>2026-06-15T10:32:36.000Z</time>
        <extensions>
          <ns3:TrackPointExtension>
            <ns3:atemp>15.0</ns3:atemp>
          </ns3:TrackPointExtension>
        </extensions>
      </trkpt>
      <trkpt lat="42.569431476294994354248046875" lon="20.08054328151047229766845703125">
        <ele>2048.800048828125</ele>
        <time>2026-06-15T10:32:37.000Z</time>
        <extensions>
          <ns3:TrackPointExtension>
            <ns3:atemp>15.0</ns3:atemp>
          </ns3:TrackPointExtension>
        </extensions>
      </trkpt>
      <trkpt lat="42.56946408189833164215087890625" lon="20.08055635727941989898681640625">
        <ele>2048.60009765625</ele>
        <time>2026-06-15T10:32:38.000Z</time>
        <extensions>
          <ns3:TrackPointExtension>
            <ns3:atemp>15.0</ns3:atemp>
          </ns3:TrackPointExtension>
        </extensions>
      </trkpt>
      <trkpt lat="42.5694933347404003143310546875" lon="20.0805624760687351226806640625">
        <ele>2048.39990234375</ele>
        <time>2026-06-15T10:32:39.000Z</time>
        <extensions>
          <ns3:TrackPointExtension>
            <ns3:atemp>15.0</ns3:atemp>
          </ns3:TrackPointExtension>
        </extensions>
      </trkpt>
      <trkpt lat="42.56952627561986446380615234375" lon="20.080564320087432861328125">
        <ele>2048.39990234375</ele>
        <time>2026-06-15T10:32:40.000Z</time>
        <extensions>
          <ns3:TrackPointExtension>
            <ns3:atemp>15.0</ns3:atemp>
          </ns3:TrackPointExtension>
        </extensions>
      </trkpt>
      <trkpt lat="42.56956114433705806732177734375" lon="20.0805695168673992156982421875">
        <ele>2048.39990234375</ele>
        <time>2026-06-15T10:32:41.000Z</time>
        <extensions>
          <ns3:TrackPointExtension>
            <ns3:atemp>15.0</ns3:atemp>
          </ns3:TrackPointExtension>
        </extensions>
      </trkpt>
      <trkpt lat="42.56960012018680572509765625" lon="20.08058351464569568634033203125">
        <ele>2048.39990234375</ele>
        <time>2026-06-15T10:32:42.000Z</time>
        <extensions>
          <ns3:TrackPointExtension>
            <ns3:atemp>15.0</ns3:atemp>
          </ns3:TrackPointExtension>
        </extensions>
      </trkpt>
      <trkpt lat="42.5696437060832977294921875" lon="20.0806010328233242034912109375">
        <ele>2048.199951171875</ele>
        <time>2026-06-15T10:32:43.000Z</time>
        <extensions>
          <ns3:TrackPointExtension>
            <ns3:atemp>15.0</ns3:atemp>
          </ns3:TrackPointExtension>
        </extensions>
      </trkpt>
      <trkpt lat="42.56968368776142597198486328125" lon="20.08062290959060192108154296875">
        <ele>2048</ele>
        <time>2026-06-15T10:32:44.000Z</time>
        <extensions>
          <ns3:TrackPointExtension>
            <ns3:atemp>15.0</ns3:atemp>
          </ns3:TrackPointExtension>
        </extensions>
      </trkpt>
      <trkpt lat="42.5697250105440616607666015625" lon="20.08064755238592624664306640625">
        <ele>2047.800048828125</ele>
        <time>2026-06-15T10:32:45.000Z</time>
        <extensions>
          <ns3:TrackPointExtension>
            <ns3:atemp>15.0</ns3:atemp>
          </ns3:TrackPointExtension>
        </extensions>
      </trkpt>
      <trkpt lat="42.569765411317348480224609375" lon="20.0806711055338382720947265625">
        <ele>2047.5999755859375</ele>
        <time>2026-06-15T10:32:46.000Z</time>
        <extensions>
          <ns3:TrackPointExtension>
            <ns3:atemp>15.0</ns3:atemp>
          </ns3:TrackPointExtension>
        </extensions>
      </trkpt>
      <trkpt lat="42.5698041357100009918212890625" lon="20.0806992687284946441650390625">
        <ele>2047.4000244140625</ele>
        <time>2026-06-15T10:32:47.000Z</time>
        <extensions>
          <ns3:TrackPointExtension>
            <ns3:atemp>15.0</ns3:atemp>
          </ns3:TrackPointExtension>
        </extensions>
      </trkpt>
      <trkpt lat="42.56984378211200237274169921875" lon="20.0807244144380092620849609375">
        <ele>2047.199951171875</ele>
        <time>2026-06-15T10:32:48.000Z</time>
        <extensions>
          <ns3:TrackPointExtension>
            <ns3:atemp>15.0</ns3:atemp>
          </ns3:TrackPointExtension>
        </extensions>
      </trkpt>
      <trkpt lat="42.569881416857242584228515625" lon="20.080752409994602203369140625">
        <ele>2046.800048828125</ele>
        <time>2026-06-15T10:32:49.000Z</time>
        <extensions>
          <ns3:TrackPointExtension>
            <ns3:atemp>15.0</ns3:atemp>
          </ns3:TrackPointExtension>
        </extensions>
      </trkpt>
      <trkpt lat="42.56992139853537082672119140625" lon="20.08078367449343204498291015625">
        <ele>2046.5999755859375</ele>
        <time>2026-06-15T10:32:50.000Z</time>
        <extensions>
          <ns3:TrackPointExtension>
            <ns3:atemp>15.0</ns3:atemp>
          </ns3:TrackPointExtension>
        </extensions>
      </trkpt>
      <trkpt lat="42.56996079348027706146240234375" lon="20.08081418462097644805908203125">
        <ele>2046.4000244140625</ele>
        <time>2026-06-15T10:32:51.000Z</time>
        <extensions>
          <ns3:TrackPointExtension>
            <ns3:atemp>15.0</ns3:atemp>
          </ns3:TrackPointExtension>
        </extensions>
      </trkpt>
      <trkpt lat="42.57000287063419818878173828125" lon="20.0808419287204742431640625">
        <ele>2046.199951171875</ele>
        <time>2026-06-15T10:32:52.000Z</time>
        <extensions>
          <ns3:TrackPointExtension>
            <ns3:atemp>15.0</ns3:atemp>
          </ns3:TrackPointExtension>
        </extensions>
      </trkpt>
      <trkpt lat="42.570045031607151031494140625" lon="20.08086984045803546905517578125">
        <ele>2046</ele>
        <time>2026-06-15T10:32:53.000Z</time>
        <extensions>
          <ns3:TrackPointExtension>
            <ns3:atemp>15.0</ns3:atemp>
          </ns3:TrackPointExtension>
        </extensions>
      </trkpt>
      <trkpt lat="42.57009490393102169036865234375" lon="20.08089666254818439483642578125">
        <ele>2045.800048828125</ele>
        <time>2026-06-15T10:32:54.000Z</time>
        <extensions>
          <ns3:TrackPointExtension>
            <ns3:atemp>15.0</ns3:atemp>
          </ns3:TrackPointExtension>
        </extensions>
      </trkpt>
      <trkpt lat="42.57014251314103603363037109375" lon="20.080910660326480865478515625">
        <ele>2045.4000244140625</ele>
        <time>2026-06-15T10:32:55.000Z</time>
        <extensions>
          <ns3:TrackPointExtension>
            <ns3:atemp>15.0</ns3:atemp>
          </ns3:TrackPointExtension>
        </extensions>
      </trkpt>
      <trkpt lat="42.5701880268752574920654296875" lon="20.08092013187706470489501953125">
        <ele>2045</ele>
        <time>2026-06-15T10:32:56.000Z</time>
        <extensions>
          <ns3:TrackPointExtension>
            <ns3:atemp>15.0</ns3:atemp>
          </ns3:TrackPointExtension>
        </extensions>
      </trkpt>
      <trkpt lat="42.570231445133686065673828125" lon="20.08093538694083690643310546875">
        <ele>2044.5999755859375</ele>
        <time>2026-06-15T10:32:57.000Z</time>
        <extensions>
          <ns3:TrackPointExtension>
            <ns3:atemp>15.0</ns3:atemp>
          </ns3:TrackPointExtension>
        </extensions>
      </trkpt>
      <trkpt lat="42.57027679122984409332275390625" lon="20.08094678632915019989013671875">
        <ele>2044.4000244140625</ele>
        <time>2026-06-15T10:32:58.000Z</time>
        <extensions>
          <ns3:TrackPointExtension>
            <ns3:atemp>15.0</ns3:atemp>
          </ns3:TrackPointExtension>
        </extensions>
      </trkpt>
      <trkpt lat="42.57032557390630245208740234375" lon="20.080958269536495208740234375">
        <ele>2044</ele>
        <time>2026-06-15T10:32:59.000Z</time>
        <extensions>
          <ns3:TrackPointExtension>
            <ns3:atemp>15.0</ns3:atemp>
          </ns3:TrackPointExtension>
        </extensions>
      </trkpt>
      <trkpt lat="42.57037117145955562591552734375" lon="20.08096522651612758636474609375">
        <ele>2043.5999755859375</ele>
        <time>2026-06-15T10:33:00.000Z</time>
        <extensions>
          <ns3:TrackPointExtension>
            <ns3:atemp>15.0</ns3:atemp>
          </ns3:TrackPointExtension>
        </extensions>
      </trkpt>
      <trkpt lat="42.5704106502234935760498046875" lon="20.0809748657047748565673828125">
        <ele>2043.199951171875</ele>
        <time>2026-06-15T10:33:01.000Z</time>
        <extensions>
          <ns3:TrackPointExtension>
            <ns3:atemp>15.0</ns3:atemp>
          </ns3:TrackPointExtension>
        </extensions>
      </trkpt>
      <trkpt lat="42.57045012898743152618408203125" lon="20.080981738865375518798828125">
        <ele>2043</ele>
        <time>2026-06-15T10:33:02.000Z</time>
        <extensions>
          <ns3:TrackPointExtension>
            <ns3:atemp>15.0</ns3:atemp>
          </ns3:TrackPointExtension>
        </extensions>
      </trkpt>
      <trkpt lat="42.5704907812178134918212890625" lon="20.080993473529815673828125">
        <ele>2042.4000244140625</ele>
        <time>2026-06-15T10:33:03.000Z</time>
        <extensions>
          <ns3:TrackPointExtension>
            <ns3:atemp>15.0</ns3:atemp>
          </ns3:TrackPointExtension>
        </extensions>
      </trkpt>
      <trkpt lat="42.57053076289594173431396484375" lon="20.08100378327071666717529296875">
        <ele>2042</ele>
        <time>2026-06-15T10:33:04.000Z</time>
        <extensions>
          <ns3:TrackPointExtension>
            <ns3:atemp>15.0</ns3:atemp>
          </ns3:TrackPointExtension>
        </extensions>
      </trkpt>
      <trkpt lat="42.5705702416598796844482421875" lon="20.08101987652480602264404296875">
        <ele>2041.5999755859375</ele>
        <time>2026-06-15T10:33:05.000Z</time>
        <extensions>
          <ns3:TrackPointExtension>
            <ns3:atemp>15.0</ns3:atemp>
          </ns3:TrackPointExtension>
        </extensions>
      </trkpt>
      <trkpt lat="42.570604272186756134033203125" lon="20.081036724150180816650390625">
        <ele>2041.199951171875</ele>
        <time>2026-06-15T10:33:06.000Z</time>
        <extensions>
          <ns3:TrackPointExtension>
            <ns3:atemp>15.0</ns3:atemp>
          </ns3:TrackPointExtension>
        </extensions>
      </trkpt>
      <trkpt lat="42.5706453435122966766357421875" lon="20.0810476206243038177490234375">
        <ele>2040.800048828125</ele>
        <time>2026-06-15T10:33:07.000Z</time>
        <extensions>
          <ns3:TrackPointExtension>
            <ns3:atemp>15.0</ns3:atemp>
          </ns3:TrackPointExtension>
        </extensions>
      </trkpt>
      <trkpt lat="42.570690102875232696533203125" lon="20.0810560025274753570556640625">
        <ele>2040.4000244140625</ele>
        <time>2026-06-15T10:33:08.000Z</time>
        <extensions>
          <ns3:TrackPointExtension>
            <ns3:atemp>15.0</ns3:atemp>
          </ns3:TrackPointExtension>
        </extensions>
      </trkpt>
      <trkpt lat="42.5707351975142955780029296875" lon="20.08106932975351810455322265625">
        <ele>2040</ele>
        <time>2026-06-15T10:33:09.000Z</time>
        <extensions>
          <ns3:TrackPointExtension>
            <ns3:atemp>15.0</ns3:atemp>
          </ns3:TrackPointExtension>
        </extensions>
      </trkpt>
      <trkpt lat="42.5707794539630413055419921875" lon="20.081085674464702606201171875">
        <ele>2039.4000244140625</ele>
        <time>2026-06-15T10:33:10.000Z</time>
        <extensions>
          <ns3:TrackPointExtension>
            <ns3:atemp>15.0</ns3:atemp>
          </ns3:TrackPointExtension>
        </extensions>
      </trkpt>
      <trkpt lat="42.570822536945343017578125" lon="20.0811026059091091156005859375">
        <ele>2038.800048828125</ele>
        <time>2026-06-15T10:33:11.000Z</time>
        <extensions>
          <ns3:TrackPointExtension>
            <ns3:atemp>15.0</ns3:atemp>
          </ns3:TrackPointExtension>
        </extensions>
      </trkpt>
      <trkpt lat="42.57086536847054958343505859375" lon="20.08109145797789096832275390625">
        <ele>2038.199951171875</ele>
        <time>2026-06-15T10:33:12.000Z</time>
        <extensions>
          <ns3:TrackPointExtension>
            <ns3:atemp>15.0</ns3:atemp>
          </ns3:TrackPointExtension>
        </extensions>
      </trkpt>
      <trkpt lat="42.57089034654200077056884765625" lon="20.08105692453682422637939453125">
        <ele>2037.800048828125</ele>
        <time>2026-06-15T10:33:13.000Z</time>
        <extensions>
          <ns3:TrackPointExtension>
            <ns3:atemp>15.0</ns3:atemp>
          </ns3:TrackPointExtension>
        </extensions>
      </trkpt>
      <trkpt lat="42.57089856080710887908935546875" lon="20.08101820014417171478271484375">
        <ele>2037.4000244140625</ele>
        <time>2026-06-15T10:33:14.000Z</time>
        <extensions>
          <ns3:TrackPointExtension>
            <ns3:atemp>15.0</ns3:atemp>
          </ns3:TrackPointExtension>
        </extensions>
      </trkpt>
      <trkpt lat="42.57089051418006420135498046875" lon="20.080987773835659027099609375">
        <ele>2036.800048828125</ele>
        <time>2026-06-15T10:33:15.000Z</time>
        <extensions>
          <ns3:TrackPointExtension>
            <ns3:atemp>15.0</ns3:atemp>
          </ns3:TrackPointExtension>
        </extensions>
      </trkpt>
      <trkpt lat="42.57087140344083309173583984375" lon="20.08095852099359035491943359375">
        <ele>2036.199951171875</ele>
        <time>2026-06-15T10:33:16.000Z</time>
        <extensions>
          <ns3:TrackPointExtension>
            <ns3:atemp>15.0</ns3:atemp>
          </ns3:TrackPointExtension>
        </extensions>
      </trkpt>
      <trkpt lat="42.57084064185619354248046875" lon="20.08094561286270618438720703125">
        <ele>2035.5999755859375</ele>
        <time>2026-06-15T10:33:17.000Z</time>
        <extensions>
          <ns3:TrackPointExtension>
            <ns3:atemp>15.0</ns3:atemp>
          </ns3:TrackPointExtension>
        </extensions>
      </trkpt>
      <trkpt lat="42.57080040872097015380859375" lon="20.0809480436146259307861328125">
        <ele>2035.199951171875</ele>
        <time>2026-06-15T10:33:18.000Z</time>
        <extensions>
          <ns3:TrackPointExtension>
            <ns3:atemp>15.0</ns3:atemp>
          </ns3:TrackPointExtension>
        </extensions>
      </trkpt>
      <trkpt lat="42.57075623609125614166259765625" lon="20.08095315657556056976318359375">
        <ele>2034.800048828125</ele>
        <time>2026-06-15T10:33:19.000Z</time>
        <extensions>
          <ns3:TrackPointExtension>
            <ns3:atemp>15.0</ns3:atemp>
          </ns3:TrackPointExtension>
        </extensions>
      </trkpt>
      <trkpt lat="42.570715583860874176025390625" lon="20.08095617406070232391357421875">
        <ele>2034.4000244140625</ele>
        <time>2026-06-15T10:33:20.000Z</time>
        <extensions>
          <ns3:TrackPointExtension>
            <ns3:atemp>15.0</ns3:atemp>
          </ns3:TrackPointExtension>
        </extensions>
      </trkpt>
      <trkpt lat="42.57069102488458156585693359375" lon="20.08094728924334049224853515625">
        <ele>2034.199951171875</ele>
        <time>2026-06-15T10:33:21.000Z</time>
        <extensions>
          <ns3:TrackPointExtension>
            <ns3:atemp>15.0</ns3:atemp>
          </ns3:TrackPointExtension>
        </extensions>
      </trkpt>
      <trkpt lat="42.57065515033900737762451171875" lon="20.08091711439192295074462890625">
        <ele>2034</ele>
        <time>2026-06-15T10:33:22.000Z</time>
        <extensions>
          <ns3:TrackPointExtension>
            <ns3:atemp>15.0</ns3:atemp>
          </ns3:TrackPointExtension>
        </extensions>
      </trkpt>
      <trkpt lat="42.57061374373733997344970703125" lon="20.080864727497100830078125">
        <ele>2033.5999755859375</ele>
        <time>2026-06-15T10:33:23.000Z</time>
        <extensions>
          <ns3:TrackPointExtension>
            <ns3:atemp>15.0</ns3:atemp>
          </ns3:TrackPointExtension>
        </extensions>
      </trkpt>
      <trkpt lat="42.57056144066154956817626953125" lon="20.08081116713583469390869140625">
        <ele>2033.199951171875</ele>
        <time>2026-06-15T10:33:24.000Z</time>
        <extensions>
          <ns3:TrackPointExtension>
            <ns3:atemp>15.0</ns3:atemp>
          </ns3:TrackPointExtension>
        </extensions>
      </trkpt>
      <trkpt lat="42.57050360552966594696044921875" lon="20.08076456375420093536376953125">
        <ele>2032.800048828125</ele>
        <time>2026-06-15T10:33:25.000Z</time>
        <extensions>
          <ns3:TrackPointExtension>
            <ns3:atemp>15.0</ns3:atemp>
          </ns3:TrackPointExtension>
        </extensions>
      </trkpt>
      <trkpt lat="42.570441663265228271484375" lon="20.0807311199605464935302734375">
        <ele>2032.4000244140625</ele>
        <time>2026-06-15T10:33:26.000Z</time>
        <extensions>
          <ns3:TrackPointExtension>
            <ns3:atemp>15.0</ns3:atemp>
          </ns3:TrackPointExtension>
        </extensions>
      </trkpt>
      <trkpt lat="42.570382319390773773193359375" lon="20.08070312440395355224609375">
        <ele>2031.5999755859375</ele>
        <time>2026-06-15T10:33:27.000Z</time>
        <extensions>
          <ns3:TrackPointExtension>
            <ns3:atemp>15.0</ns3:atemp>
          </ns3:TrackPointExtension>
        </extensions>
      </trkpt>
      <trkpt lat="42.57032708264887332916259765625" lon="20.0806717760860919952392578125">
        <ele>2031</ele>
        <time>2026-06-15T10:33:28.000Z</time>
        <extensions>
          <ns3:TrackPointExtension>
            <ns3:atemp>15.0</ns3:atemp>
          </ns3:TrackPointExtension>
        </extensions>
      </trkpt>
      <trkpt lat="42.57028802298009395599365234375" lon="20.080635733902454376220703125">
        <ele>2030.5999755859375</ele>
        <time>2026-06-15T10:33:29.000Z</time>
        <extensions>
          <ns3:TrackPointExtension>
            <ns3:atemp>15.0</ns3:atemp>
          </ns3:TrackPointExtension>
        </extensions>
      </trkpt>
      <trkpt lat="42.5702554173767566680908203125" lon="20.080592818558216094970703125">
        <ele>2030</ele>
        <time>2026-06-15T10:33:30.000Z</time>
        <extensions>
          <ns3:TrackPointExtension>
            <ns3:atemp>15.0</ns3:atemp>
          </ns3:TrackPointExtension>
        </extensions>
      </trkpt>
      <trkpt lat="42.5702326186001300811767578125" lon="20.08053950965404510498046875">
        <ele>2029.5999755859375</ele>
        <time>2026-06-15T10:33:31.000Z</time>
        <extensions>
          <ns3:TrackPointExtension>
            <ns3:atemp>15.0</ns3:atemp>
          </ns3:TrackPointExtension>
        </extensions>
      </trkpt>
      <trkpt lat="42.5702071376144886016845703125" lon="20.0804799981415271759033203125">
        <ele>2029.199951171875</ele>
        <time>2026-06-15T10:33:32.000Z</time>
        <extensions>
          <ns3:TrackPointExtension>
            <ns3:atemp>15.0</ns3:atemp>
          </ns3:TrackPointExtension>
        </extensions>
      </trkpt>
      <trkpt lat="42.57017671130597591400146484375" lon="20.08041671477258205413818359375">
        <ele>2028.800048828125</ele>
        <time>2026-06-15T10:33:33.000Z</time>
        <extensions>
          <ns3:TrackPointExtension>
            <ns3:atemp>15.0</ns3:atemp>
          </ns3:TrackPointExtension>
        </extensions>
      </trkpt>
      <trkpt lat="42.57014553062617778778076171875" lon="20.08034798316657543182373046875">
        <ele>2028.199951171875</ele>
        <time>2026-06-15T10:33:34.000Z</time>
        <extensions>
          <ns3:TrackPointExtension>
            <ns3:atemp>15.0</ns3:atemp>
          </ns3:TrackPointExtension>
        </extensions>
      </trkpt>
      <trkpt lat="42.5701075606048107147216796875" lon="20.08028042502701282501220703125">
        <ele>2027.5999755859375</ele>
        <time>2026-06-15T10:33:35.000Z</time>
        <extensions>
          <ns3:TrackPointExtension>
            <ns3:atemp>15.0</ns3:atemp>
          </ns3:TrackPointExtension>
        </extensions>
      </trkpt>
      <trkpt lat="42.57006439380347728729248046875" lon="20.08022300899028778076171875">
        <ele>2027</ele>
        <time>2026-06-15T10:33:36.000Z</time>
        <extensions>
          <ns3:TrackPointExtension>
            <ns3:atemp>15.0</ns3:atemp>
          </ns3:TrackPointExtension>
        </extensions>
      </trkpt>
      <trkpt lat="42.57001695223152637481689453125" lon="20.0801725499331951141357421875">
        <ele>2026.199951171875</ele>
        <time>2026-06-15T10:33:37.000Z</time>
        <extensions>
          <ns3:TrackPointExtension>
            <ns3:atemp>15.0</ns3:atemp>
          </ns3:TrackPointExtension>
        </extensions>
      </trkpt>
      <trkpt lat="42.56997034884989261627197265625" lon="20.0801333226263523101806640625">
        <ele>2025.4000244140625</ele>
        <time>2026-06-15T10:33:38.000Z</time>
        <extensions>
          <ns3:TrackPointExtension>
            <ns3:atemp>15.0</ns3:atemp>
          </ns3:TrackPointExtension>
        </extensions>
      </trkpt>
      <trkpt lat="42.5699171237647533416748046875" lon="20.0800934247672557830810546875">
        <ele>2025</ele>
        <time>2026-06-15T10:33:39.000Z</time>
        <extensions>
          <ns3:TrackPointExtension>
            <ns3:atemp>15.0</ns3:atemp>
          </ns3:TrackPointExtension>
        </extensions>
      </trkpt>
      <trkpt lat="42.5698664970695972442626953125" lon="20.08005159907042980194091796875">
        <ele>2024.4000244140625</ele>
        <time>2026-06-15T10:33:40.000Z</time>
        <extensions>
          <ns3:TrackPointExtension>
            <ns3:atemp>15.0</ns3:atemp>
          </ns3:TrackPointExtension>
        </extensions>
      </trkpt>
      <trkpt lat="42.56982081569731235504150390625" lon="20.08001421578228473663330078125">
        <ele>2024</ele>
        <time>2026-06-15T10:33:41.000Z</time>
        <extensions>
          <ns3:TrackPointExtension>
            <ns3:atemp>15.0</ns3:atemp>
          </ns3:TrackPointExtension>
        </extensions>
      </trkpt>
      <trkpt lat="42.5697783194482326507568359375" lon="20.07997582666575908660888671875">
        <ele>2023.5999755859375</ele>
        <time>2026-06-15T10:33:42.000Z</time>
        <extensions>
          <ns3:TrackPointExtension>
            <ns3:atemp>15.0</ns3:atemp>
          </ns3:TrackPointExtension>
        </extensions>
      </trkpt>
      <trkpt lat="42.56974739022552967071533203125" lon="20.07994850166141986846923828125">
        <ele>2023.4000244140625</ele>
        <time>2026-06-15T10:33:43.000Z</time>
        <extensions>
          <ns3:TrackPointExtension>
            <ns3:atemp>15.0</ns3:atemp>
          </ns3:TrackPointExtension>
        </extensions>
      </trkpt>
      <trkpt lat="42.569718472659587860107421875" lon="20.0799246132373809814453125">
        <ele>2022.800048828125</ele>
        <time>2026-06-15T10:33:44.000Z</time>
        <extensions>
          <ns3:TrackPointExtension>
            <ns3:atemp>15.0</ns3:atemp>
          </ns3:TrackPointExtension>
        </extensions>
      </trkpt>
      <trkpt lat="42.56969123147428035736083984375" lon="20.07990793325006961822509765625">
        <ele>2022.4000244140625</ele>
        <time>2026-06-15T10:33:45.000Z</time>
        <extensions>
          <ns3:TrackPointExtension>
            <ns3:atemp>15.0</ns3:atemp>
          </ns3:TrackPointExtension>
        </extensions>
      </trkpt>
      <trkpt lat="42.56966440938413143157958984375" lon="20.079889409244060516357421875">
        <ele>2022.199951171875</ele>
        <time>2026-06-15T10:33:46.000Z</time>
        <extensions>
          <ns3:TrackPointExtension>
            <ns3:atemp>15.0</ns3:atemp>
          </ns3:TrackPointExtension>
        </extensions>
      </trkpt>
      <trkpt lat="42.569644041359424591064453125" lon="20.0798594020307064056396484375">
        <ele>2021.800048828125</ele>
        <time>2026-06-15T10:33:47.000Z</time>
        <extensions>
          <ns3:TrackPointExtension>
            <ns3:atemp>15.0</ns3:atemp>
          </ns3:TrackPointExtension>
        </extensions>
      </trkpt>
      <trkpt lat="42.56964177824556827545166015625" lon="20.0798238627612590789794921875">
        <ele>2021.4000244140625</ele>
        <time>2026-06-15T10:33:48.000Z</time>
        <extensions>
          <ns3:TrackPointExtension>
            <ns3:atemp>15.0</ns3:atemp>
          </ns3:TrackPointExtension>
        </extensions>
      </trkpt>
      <trkpt lat="42.56964705884456634521484375" lon="20.07979075424373149871826171875">
        <ele>2021.199951171875</ele>
        <time>2026-06-15T10:33:49.000Z</time>
        <extensions>
          <ns3:TrackPointExtension>
            <ns3:atemp>15.0</ns3:atemp>
          </ns3:TrackPointExtension>
        </extensions>
      </trkpt>
      <trkpt lat="42.5696653313934803009033203125" lon="20.0797784328460693359375">
        <ele>2020.800048828125</ele>
        <time>2026-06-15T10:33:50.000Z</time>
        <extensions>
          <ns3:TrackPointExtension>
            <ns3:atemp>15.0</ns3:atemp>
          </ns3:TrackPointExtension>
        </extensions>
      </trkpt>
      <trkpt lat="42.56968704052269458770751953125" lon="20.07978589273989200592041015625">
        <ele>2020.4000244140625</ele>
        <time>2026-06-15T10:33:51.000Z</time>
        <extensions>
          <ns3:TrackPointExtension>
            <ns3:atemp>15.0</ns3:atemp>
          </ns3:TrackPointExtension>
        </extensions>
      </trkpt>
      <trkpt lat="42.56970380432903766632080078125" lon="20.07980726659297943115234375">
        <ele>2020.4000244140625</ele>
        <time>2026-06-15T10:33:52.000Z</time>
        <extensions>
          <ns3:TrackPointExtension>
            <ns3:atemp>15.0</ns3:atemp>
          </ns3:TrackPointExtension>
        </extensions>
      </trkpt>
      <trkpt lat="42.56972945295274257659912109375" lon="20.07983551360666751861572265625">
        <ele>2020.199951171875</ele>
        <time>2026-06-15T10:33:53.000Z</time>
        <extensions>
          <ns3:TrackPointExtension>
            <ns3:atemp>15.0</ns3:atemp>
          </ns3:TrackPointExtension>
        </extensions>
      </trkpt>
      <trkpt lat="42.56975895725190639495849609375" lon="20.07984959520399570465087890625">
        <ele>2020</ele>
        <time>2026-06-15T10:33:54.000Z</time>
        <extensions>
          <ns3:TrackPointExtension>
            <ns3:atemp>15.0</ns3:atemp>
          </ns3:TrackPointExtension>
        </extensions>
      </trkpt>
      <trkpt lat="42.569790892302989959716796875" lon="20.0798671133816242218017578125">
        <ele>2019.800048828125</ele>
        <time>2026-06-15T10:33:55.000Z</time>
        <extensions>
          <ns3:TrackPointExtension>
            <ns3:atemp>15.0</ns3:atemp>
          </ns3:TrackPointExtension>
        </extensions>
      </trkpt>
      <trkpt lat="42.56982408463954925537109375" lon="20.0798885710537433624267578125">
        <ele>2019.5999755859375</ele>
        <time>2026-06-15T10:33:56.000Z</time>
        <extensions>
          <ns3:TrackPointExtension>
            <ns3:atemp>15.0</ns3:atemp>
          </ns3:TrackPointExtension>
        </extensions>
      </trkpt>
      <trkpt lat="42.569859959185123443603515625" lon="20.0799093581736087799072265625">
        <ele>2019.4000244140625</ele>
        <time>2026-06-15T10:33:57.000Z</time>
        <extensions>
          <ns3:TrackPointExtension>
            <ns3:atemp>15.0</ns3:atemp>
          </ns3:TrackPointExtension>
        </extensions>
      </trkpt>
      <trkpt lat="42.5698949955403804779052734375" lon="20.07992939092218875885009765625">
        <ele>2019.199951171875</ele>
        <time>2026-06-15T10:33:58.000Z</time>
        <extensions>
          <ns3:TrackPointExtension>
            <ns3:atemp>15.0</ns3:atemp>
          </ns3:TrackPointExtension>
        </extensions>
      </trkpt>
      <trkpt lat="42.56993346847593784332275390625" lon="20.07994414307177066802978515625">
        <ele>2019</ele>
        <time>2026-06-15T10:33:59.000Z</time>
        <extensions>
          <ns3:TrackPointExtension>
            <ns3:atemp>15.0</ns3:atemp>
          </ns3:TrackPointExtension>
        </extensions>
      </trkpt>
      <trkpt lat="42.5699757970869541168212890625" lon="20.079950429499149322509765625">
        <ele>2018.800048828125</ele>
        <time>2026-06-15T10:34:00.000Z</time>
        <extensions>
          <ns3:TrackPointExtension>
            <ns3:atemp>15.0</ns3:atemp>
          </ns3:TrackPointExtension>
        </extensions>
      </trkpt>
      <trkpt lat="42.57001586258411407470703125" lon="20.0799479149281978607177734375">
        <ele>2018.5999755859375</ele>
        <time>2026-06-15T10:34:01.000Z</time>
        <extensions>
          <ns3:TrackPointExtension>
            <ns3:atemp>15.0</ns3:atemp>
          </ns3:TrackPointExtension>
        </extensions>
      </trkpt>
      <trkpt lat="42.5700594484806060791015625" lon="20.07994246669113636016845703125">
        <ele>2018.199951171875</ele>
        <time>2026-06-15T10:34:02.000Z</time>
        <extensions>
          <ns3:TrackPointExtension>
            <ns3:atemp>15.0</ns3:atemp>
          </ns3:TrackPointExtension>
        </extensions>
      </trkpt>
      <trkpt lat="42.57010580040514469146728515625" lon="20.07994850166141986846923828125">
        <ele>2018</ele>
        <time>2026-06-15T10:34:03.000Z</time>
        <extensions>
          <ns3:TrackPointExtension>
            <ns3:atemp>15.0</ns3:atemp>
          </ns3:TrackPointExtension>
        </extensions>
      </trkpt>
      <trkpt lat="42.57015131413936614990234375" lon="20.07995755411684513092041015625">
        <ele>2017.5999755859375</ele>
        <time>2026-06-15T10:34:04.000Z</time>
        <extensions>
          <ns3:TrackPointExtension>
            <ns3:atemp>15.0</ns3:atemp>
          </ns3:TrackPointExtension>
        </extensions>
      </trkpt>
      <trkpt lat="42.57019682787358760833740234375" lon="20.07997197099030017852783203125">
        <ele>2017.199951171875</ele>
        <time>2026-06-15T10:34:05.000Z</time>
        <extensions>
          <ns3:TrackPointExtension>
            <ns3:atemp>15.0</ns3:atemp>
          </ns3:TrackPointExtension>
        </extensions>
      </trkpt>
      <trkpt lat="42.57023605518043041229248046875" lon="20.0799884833395481109619140625">
        <ele>2016.800048828125</ele>
        <time>2026-06-15T10:34:06.000Z</time>
        <extensions>
          <ns3:TrackPointExtension>
            <ns3:atemp>15.0</ns3:atemp>
          </ns3:TrackPointExtension>
        </extensions>
      </trkpt>
      <trkpt lat="42.57027628831565380096435546875" lon="20.0800104439258575439453125">
        <ele>2016.4000244140625</ele>
        <time>2026-06-15T10:34:07.000Z</time>
        <extensions>
          <ns3:TrackPointExtension>
            <ns3:atemp>15.0</ns3:atemp>
          </ns3:TrackPointExtension>
        </extensions>
      </trkpt>
      <trkpt lat="42.57031585089862346649169921875" lon="20.0800394453108310699462890625">
        <ele>2015.800048828125</ele>
        <time>2026-06-15T10:34:08.000Z</time>
        <extensions>
          <ns3:TrackPointExtension>
            <ns3:atemp>15.0</ns3:atemp>
          </ns3:TrackPointExtension>
        </extensions>
      </trkpt>
      <trkpt lat="42.57035516202449798583984375" lon="20.08007288910448551177978515625">
        <ele>2015.4000244140625</ele>
        <time>2026-06-15T10:34:09.000Z</time>
        <extensions>
          <ns3:TrackPointExtension>
            <ns3:atemp>15.0</ns3:atemp>
          </ns3:TrackPointExtension>
        </extensions>
      </trkpt>
      <trkpt lat="42.57039866410195827484130859375" lon="20.08010725490748882293701171875">
        <ele>2015</ele>
        <time>2026-06-15T10:34:10.000Z</time>
        <extensions>
          <ns3:TrackPointExtension>
            <ns3:atemp>15.0</ns3:atemp>
          </ns3:TrackPointExtension>
        </extensions>
      </trkpt>
      <trkpt lat="42.57044426165521144866943359375" lon="20.0801393575966358184814453125">
        <ele>2014</ele>
        <time>2026-06-15T10:34:11.000Z</time>
        <extensions>
          <ns3:TrackPointExtension>
            <ns3:atemp>15.0</ns3:atemp>
          </ns3:TrackPointExtension>
        </extensions>
      </trkpt>
      <trkpt lat="42.570489607751369476318359375" lon="20.0801660120487213134765625">
        <ele>2013.4000244140625</ele>
        <time>2026-06-15T10:34:12.000Z</time>
        <extensions>
          <ns3:TrackPointExtension>
            <ns3:atemp>15.0</ns3:atemp>
          </ns3:TrackPointExtension>
        </extensions>
      </trkpt>
      <trkpt lat="42.57052950561046600341796875" lon="20.08018537424504756927490234375">
        <ele>2012.5999755859375</ele>
        <time>2026-06-15T10:34:13.000Z</time>
        <extensions>
          <ns3:TrackPointExtension>
            <ns3:atemp>15.0</ns3:atemp>
          </ns3:TrackPointExtension>
        </extensions>
      </trkpt>
      <trkpt lat="42.5705672241747379302978515625" lon="20.0801973603665828704833984375">
        <ele>2012.4000244140625</ele>
        <time>2026-06-15T10:34:14.000Z</time>
        <extensions>
          <ns3:TrackPointExtension>
            <ns3:atemp>15.0</ns3:atemp>
          </ns3:TrackPointExtension>
        </extensions>
      </trkpt>
      <trkpt lat="42.5706158392131328582763671875" lon="20.080191828310489654541015625">
        <ele>2011.800048828125</ele>
        <time>2026-06-15T10:34:15.000Z</time>
        <extensions>
          <ns3:TrackPointExtension>
            <ns3:atemp>15.0</ns3:atemp>
          </ns3:TrackPointExtension>
        </extensions>
      </trkpt>
      <trkpt lat="42.5706629455089569091796875" lon="20.080199204385280609130859375">
        <ele>2011</ele>
        <time>2026-06-15T10:34:16.000Z</time>
        <extensions>
          <ns3:TrackPointExtension>
            <ns3:atemp>15.0</ns3:atemp>
          </ns3:TrackPointExtension>
        </extensions>
      </trkpt>
      <trkpt lat="42.5707144103944301605224609375" lon="20.08021001704037189483642578125">
        <ele>2010.199951171875</ele>
        <time>2026-06-15T10:34:17.000Z</time>
        <extensions>
          <ns3:TrackPointExtension>
            <ns3:atemp>15.0</ns3:atemp>
          </ns3:TrackPointExtension>
        </extensions>
      </trkpt>
      <trkpt lat="42.570765875279903411865234375" lon="20.0802223384380340576171875">
        <ele>2009.4000244140625</ele>
        <time>2026-06-15T10:34:18.000Z</time>
        <extensions>
          <ns3:TrackPointExtension>
            <ns3:atemp>15.0</ns3:atemp>
          </ns3:TrackPointExtension>
        </extensions>
      </trkpt>
      <trkpt lat="42.5708106346428394317626953125" lon="20.0802416168153285980224609375">
        <ele>2008.800048828125</ele>
        <time>2026-06-15T10:34:19.000Z</time>
        <extensions>
          <ns3:TrackPointExtension>
            <ns3:atemp>15.0</ns3:atemp>
          </ns3:TrackPointExtension>
        </extensions>
      </trkpt>
      <trkpt lat="42.57085262797772884368896484375" lon="20.08025594986975193023681640625">
        <ele>2008.4000244140625</ele>
        <time>2026-06-15T10:34:20.000Z</time>
        <extensions>
          <ns3:TrackPointExtension>
            <ns3:atemp>15.0</ns3:atemp>
          </ns3:TrackPointExtension>
        </extensions>
      </trkpt>
      <trkpt lat="42.57089738734066486358642578125" lon="20.08026701398193836212158203125">
        <ele>2008</ele>
        <time>2026-06-15T10:34:21.000Z</time>
        <extensions>
          <ns3:TrackPointExtension>
            <ns3:atemp>15.0</ns3:atemp>
          </ns3:TrackPointExtension>
        </extensions>
      </trkpt>
      <trkpt lat="42.57095153443515300750732421875" lon="20.08027262985706329345703125">
        <ele>2007.5999755859375</ele>
        <time>2026-06-15T10:34:22.000Z</time>
        <extensions>
          <ns3:TrackPointExtension>
            <ns3:atemp>15.0</ns3:atemp>
          </ns3:TrackPointExtension>
        </extensions>
      </trkpt>
      <trkpt lat="42.57100786082446575164794921875" lon="20.08026466704905033111572265625">
        <ele>2007.4000244140625</ele>
        <time>2026-06-15T10:34:23.000Z</time>
        <extensions>
          <ns3:TrackPointExtension>
            <ns3:atemp>15.0</ns3:atemp>
          </ns3:TrackPointExtension>
        </extensions>
      </trkpt>
      <trkpt lat="42.57106753997504711151123046875" lon="20.08025343529880046844482421875">
        <ele>2007</ele>
        <time>2026-06-15T10:34:24.000Z</time>
        <extensions>
          <ns3:TrackPointExtension>
            <ns3:atemp>15.0</ns3:atemp>
          </ns3:TrackPointExtension>
        </extensions>
      </trkpt>
      <trkpt lat="42.5711227767169475555419921875" lon="20.0802449695765972137451171875">
        <ele>2006.800048828125</ele>
        <time>2026-06-15T10:34:25.000Z</time>
        <extensions>
          <ns3:TrackPointExtension>
            <ns3:atemp>15.0</ns3:atemp>
          </ns3:TrackPointExtension>
        </extensions>
      </trkpt>
      <trkpt lat="42.57117298431694507598876953125" lon="20.08024505339562892913818359375">
        <ele>2006.5999755859375</ele>
        <time>2026-06-15T10:34:26.000Z</time>
        <extensions>
          <ns3:TrackPointExtension>
            <ns3:atemp>15.0</ns3:atemp>
          </ns3:TrackPointExtension>
        </extensions>
      </trkpt>
      <trkpt lat="42.5712236948311328887939453125" lon="20.080262236297130584716796875">
        <ele>2006.4000244140625</ele>
        <time>2026-06-15T10:34:27.000Z</time>
        <extensions>
          <ns3:TrackPointExtension>
            <ns3:atemp>15.0</ns3:atemp>
          </ns3:TrackPointExtension>
        </extensions>
      </trkpt>
      <trkpt lat="42.571273483335971832275390625" lon="20.0802867114543914794921875">
        <ele>2006.199951171875</ele>
        <time>2026-06-15T10:34:28.000Z</time>
        <extensions>
          <ns3:TrackPointExtension>
            <ns3:atemp>15.0</ns3:atemp>
          </ns3:TrackPointExtension>
        </extensions>
      </trkpt>
      <trkpt lat="42.571320421993732452392578125" lon="20.080317221581935882568359375">
        <ele>2005.800048828125</ele>
        <time>2026-06-15T10:34:29.000Z</time>
        <extensions>
          <ns3:TrackPointExtension>
            <ns3:atemp>15.0</ns3:atemp>
          </ns3:TrackPointExtension>
        </extensions>
      </trkpt>
      <trkpt lat="42.57136962376534938812255859375" lon="20.0803515873849391937255859375">
        <ele>2005.5999755859375</ele>
        <time>2026-06-15T10:34:30.000Z</time>
        <extensions>
          <ns3:TrackPointExtension>
            <ns3:atemp>15.0</ns3:atemp>
          </ns3:TrackPointExtension>
        </extensions>
      </trkpt>
      <trkpt lat="42.571422345936298370361328125" lon="20.0803901441395282745361328125">
        <ele>2005.199951171875</ele>
        <time>2026-06-15T10:34:31.000Z</time>
        <extensions>
          <ns3:TrackPointExtension>
            <ns3:atemp>15.0</ns3:atemp>
          </ns3:TrackPointExtension>
        </extensions>
      </trkpt>
      <trkpt lat="42.57148261182010173797607421875" lon="20.0804230011999607086181640625">
        <ele>2004.5999755859375</ele>
        <time>2026-06-15T10:34:32.000Z</time>
        <extensions>
          <ns3:TrackPointExtension>
            <ns3:atemp>15.0</ns3:atemp>
          </ns3:TrackPointExtension>
        </extensions>
      </trkpt>
      <trkpt lat="42.5715465657413005828857421875" lon="20.0804481469094753265380859375">
        <ele>2004</ele>
        <time>2026-06-15T10:34:33.000Z</time>
        <extensions>
          <ns3:TrackPointExtension>
            <ns3:atemp>15.0</ns3:atemp>
          </ns3:TrackPointExtension>
        </extensions>
      </trkpt>
      <trkpt lat="42.57160775363445281982421875" lon="20.08046600036323070526123046875">
        <ele>2003.4000244140625</ele>
        <time>2026-06-15T10:34:34.000Z</time>
        <extensions>
          <ns3:TrackPointExtension>
            <ns3:atemp>15.0</ns3:atemp>
          </ns3:TrackPointExtension>
        </extensions>
      </trkpt>
      <trkpt lat="42.57165879942476749420166015625" lon="20.0804853625595569610595703125">
        <ele>2002.5999755859375</ele>
        <time>2026-06-15T10:34:35.000Z</time>
        <extensions>
          <ns3:TrackPointExtension>
            <ns3:atemp>15.0</ns3:atemp>
          </ns3:TrackPointExtension>
        </extensions>
      </trkpt>
      <trkpt lat="42.57169953547418117523193359375" lon="20.08050589822232723236083984375">
        <ele>2001.5999755859375</ele>
        <time>2026-06-15T10:34:36.000Z</time>
        <extensions>
          <ns3:TrackPointExtension>
            <ns3:atemp>15.0</ns3:atemp>
          </ns3:TrackPointExtension>
        </extensions>
      </trkpt>
      <trkpt lat="42.57173524238169193267822265625" lon="20.08052207529544830322265625">
        <ele>2001</ele>
        <time>2026-06-15T10:34:37.000Z</time>
        <extensions>
          <ns3:TrackPointExtension>
            <ns3:atemp>15.0</ns3:atemp>
          </ns3:TrackPointExtension>
        </extensions>
      </trkpt>
      <trkpt lat="42.571778409183025360107421875" lon="20.0805443711578845977783203125">
        <ele>2000.4000244140625</ele>
        <time>2026-06-15T10:34:38.000Z</time>
        <extensions>
          <ns3:TrackPointExtension>
            <ns3:atemp>15.0</ns3:atemp>
          </ns3:TrackPointExtension>
        </extensions>
      </trkpt>
      <trkpt lat="42.571830041706562042236328125" lon="20.08056691847741603851318359375">
        <ele>1999.5999755859375</ele>
        <time>2026-06-15T10:34:39.000Z</time>
        <extensions>
          <ns3:TrackPointExtension>
            <ns3:atemp>15.0</ns3:atemp>
          </ns3:TrackPointExtension>
        </extensions>
      </trkpt>
      <trkpt lat="42.5718882121145725250244140625" lon="20.0805846042931079864501953125">
        <ele>1999</ele>
        <time>2026-06-15T10:34:40.000Z</time>
        <extensions>
          <ns3:TrackPointExtension>
            <ns3:atemp>15.0</ns3:atemp>
          </ns3:TrackPointExtension>
        </extensions>
      </trkpt>
      <trkpt lat="42.5719502381980419158935546875" lon="20.08059524931013584136962890625">
        <ele>1998.4000244140625</ele>
        <time>2026-06-15T10:34:41.000Z</time>
        <extensions>
          <ns3:TrackPointExtension>
            <ns3:atemp>15.0</ns3:atemp>
          </ns3:TrackPointExtension>
        </extensions>
      </trkpt>
      <trkpt lat="42.5720102526247501373291015625" lon="20.0806033797562122344970703125">
        <ele>1997.800048828125</ele>
        <time>2026-06-15T10:34:42.000Z</time>
        <extensions>
          <ns3:TrackPointExtension>
            <ns3:atemp>15.0</ns3:atemp>
          </ns3:TrackPointExtension>
        </extensions>
      </trkpt>
      <trkpt lat="42.572064064443111419677734375" lon="20.08061905391514301300048828125">
        <ele>1997.4000244140625</ele>
        <time>2026-06-15T10:34:43.000Z</time>
        <extensions>
          <ns3:TrackPointExtension>
            <ns3:atemp>15.0</ns3:atemp>
          </ns3:TrackPointExtension>
        </extensions>
      </trkpt>
      <trkpt lat="42.57211326621472835540771484375" lon="20.08063615299761295318603515625">
        <ele>1997.199951171875</ele>
        <time>2026-06-15T10:34:44.000Z</time>
        <extensions>
          <ns3:TrackPointExtension>
            <ns3:atemp>15.0</ns3:atemp>
          </ns3:TrackPointExtension>
        </extensions>
      </trkpt>
      <trkpt lat="42.572163976728916168212890625" lon="20.0806459598243236541748046875">
        <ele>1997</ele>
        <time>2026-06-15T10:34:45.000Z</time>
        <extensions>
          <ns3:TrackPointExtension>
            <ns3:atemp>15.0</ns3:atemp>
          </ns3:TrackPointExtension>
        </extensions>
      </trkpt>
      <trkpt lat="42.57222239859402179718017578125" lon="20.0806519947946071624755859375">
        <ele>1996.5999755859375</ele>
        <time>2026-06-15T10:34:46.000Z</time>
        <extensions>
          <ns3:TrackPointExtension>
            <ns3:atemp>15.0</ns3:atemp>
          </ns3:TrackPointExtension>
        </extensions>
      </trkpt>
      <trkpt lat="42.5722789764404296875" lon="20.08066113106906414031982421875">
        <ele>1996.4000244140625</ele>
        <time>2026-06-15T10:34:47.000Z</time>
        <extensions>
          <ns3:TrackPointExtension>
            <ns3:atemp>15.0</ns3:atemp>
          </ns3:TrackPointExtension>
        </extensions>
      </trkpt>
      <trkpt lat="42.5723394937813282012939453125" lon="20.080670602619647979736328125">
        <ele>1996</ele>
        <time>2026-06-15T10:34:48.000Z</time>
        <extensions>
          <ns3:TrackPointExtension>
            <ns3:atemp>15.0</ns3:atemp>
          </ns3:TrackPointExtension>
        </extensions>
      </trkpt>
      <trkpt lat="42.57239573635160923004150390625" lon="20.08067705668509006500244140625">
        <ele>1995.800048828125</ele>
        <time>2026-06-15T10:34:49.000Z</time>
        <extensions>
          <ns3:TrackPointExtension>
            <ns3:atemp>15.0</ns3:atemp>
          </ns3:TrackPointExtension>
        </extensions>
      </trkpt>
      <trkpt lat="42.57245055399835109710693359375" lon="20.080688707530498504638671875">
        <ele>1995.5999755859375</ele>
        <time>2026-06-15T10:34:50.000Z</time>
        <extensions>
          <ns3:TrackPointExtension>
            <ns3:atemp>15.0</ns3:atemp>
          </ns3:TrackPointExtension>
        </extensions>
      </trkpt>
      <trkpt lat="42.572510652244091033935546875" lon="20.08070044219493865966796875">
        <ele>1995.4000244140625</ele>
        <time>2026-06-15T10:34:51.000Z</time>
        <extensions>
          <ns3:TrackPointExtension>
            <ns3:atemp>15.0</ns3:atemp>
          </ns3:TrackPointExtension>
        </extensions>
      </trkpt>
      <trkpt lat="42.5725701637566089630126953125" lon="20.0807110033929347991943359375">
        <ele>1995</ele>
        <time>2026-06-15T10:34:52.000Z</time>
        <extensions>
          <ns3:TrackPointExtension>
            <ns3:atemp>15.0</ns3:atemp>
          </ns3:TrackPointExtension>
        </extensions>
      </trkpt>
      <trkpt lat="42.57262925617396831512451171875" lon="20.080713517963886260986328125">
        <ele>1994.800048828125</ele>
        <time>2026-06-15T10:34:53.000Z</time>
        <extensions>
          <ns3:TrackPointExtension>
            <ns3:atemp>15.0</ns3:atemp>
          </ns3:TrackPointExtension>
        </extensions>
      </trkpt>
      <trkpt lat="42.572691030800342559814453125" lon="20.08070605807006359100341796875">
        <ele>1994.199951171875</ele>
        <time>2026-06-15T10:34:54.000Z</time>
        <extensions>
          <ns3:TrackPointExtension>
            <ns3:atemp>15.0</ns3:atemp>
          </ns3:TrackPointExtension>
        </extensions>
      </trkpt>
      <trkpt lat="42.57274894975125789642333984375" lon="20.08070672862231731414794921875">
        <ele>1994</ele>
        <time>2026-06-15T10:34:55.000Z</time>
        <extensions>
          <ns3:TrackPointExtension>
            <ns3:atemp>15.0</ns3:atemp>
          </ns3:TrackPointExtension>
        </extensions>
      </trkpt>
      <trkpt lat="42.57280980236828327178955078125" lon="20.0807113386690616607666015625">
        <ele>1993.5999755859375</ele>
        <time>2026-06-15T10:34:56.000Z</time>
        <extensions>
          <ns3:TrackPointExtension>
            <ns3:atemp>15.0</ns3:atemp>
          </ns3:TrackPointExtension>
        </extensions>
      </trkpt>
      <trkpt lat="42.572868056595325469970703125" lon="20.08072013966739177703857421875">
        <ele>1993.199951171875</ele>
        <time>2026-06-15T10:34:57.000Z</time>
        <extensions>
          <ns3:TrackPointExtension>
            <ns3:atemp>15.0</ns3:atemp>
          </ns3:TrackPointExtension>
        </extensions>
      </trkpt>
      <trkpt lat="42.57292731665074825286865234375" lon="20.08072583936154842376708984375">
        <ele>1992.800048828125</ele>
        <time>2026-06-15T10:34:58.000Z</time>
        <extensions>
          <ns3:TrackPointExtension>
            <ns3:atemp>15.0</ns3:atemp>
          </ns3:TrackPointExtension>
        </extensions>
      </trkpt>
      <trkpt lat="42.5729812122881412506103515625" lon="20.08073757402598857879638671875">
        <ele>1992.5999755859375</ele>
        <time>2026-06-15T10:34:59.000Z</time>
        <extensions>
          <ns3:TrackPointExtension>
            <ns3:atemp>15.0</ns3:atemp>
          </ns3:TrackPointExtension>
        </extensions>
      </trkpt>
      <trkpt lat="42.57303527556359767913818359375" lon="20.08075215853750705718994140625">
        <ele>1992</ele>
        <time>2026-06-15T10:35:00.000Z</time>
        <extensions>
          <ns3:TrackPointExtension>
            <ns3:atemp>15.0</ns3:atemp>
          </ns3:TrackPointExtension>
        </extensions>
      </trkpt>
      <trkpt lat="42.57309009321033954620361328125" lon="20.0807713530957698822021484375">
        <ele>1991.5999755859375</ele>
        <time>2026-06-15T10:35:01.000Z</time>
        <extensions>
          <ns3:TrackPointExtension>
            <ns3:atemp>15.0</ns3:atemp>
          </ns3:TrackPointExtension>
        </extensions>
      </trkpt>
      <trkpt lat="42.573147676885128021240234375" lon="20.080793313682079315185546875">
        <ele>1991.199951171875</ele>
        <time>2026-06-15T10:35:02.000Z</time>
        <extensions>
          <ns3:TrackPointExtension>
            <ns3:atemp>15.0</ns3:atemp>
          </ns3:TrackPointExtension>
        </extensions>
      </trkpt>
      <trkpt lat="42.57320609875023365020751953125" lon="20.080799348652362823486328125">
        <ele>1991</ele>
        <time>2026-06-15T10:35:03.000Z</time>
        <extensions>
          <ns3:TrackPointExtension>
            <ns3:atemp>15.0</ns3:atemp>
          </ns3:TrackPointExtension>
        </extensions>
      </trkpt>
      <trkpt lat="42.5732685439288616180419921875" lon="20.08079507388174533843994140625">
        <ele>1990.4000244140625</ele>
        <time>2026-06-15T10:35:04.000Z</time>
        <extensions>
          <ns3:TrackPointExtension>
            <ns3:atemp>15.0</ns3:atemp>
          </ns3:TrackPointExtension>
        </extensions>
      </trkpt>
      <trkpt lat="42.5733312405645847320556640625" lon="20.08078627288341522216796875">
        <ele>1990.199951171875</ele>
        <time>2026-06-15T10:35:05.000Z</time>
        <extensions>
          <ns3:TrackPointExtension>
            <ns3:atemp>15.0</ns3:atemp>
          </ns3:TrackPointExtension>
        </extensions>
      </trkpt>
      <trkpt lat="42.57339536212384700775146484375" lon="20.08077344857156276702880859375">
        <ele>1989.5999755859375</ele>
        <time>2026-06-15T10:35:06.000Z</time>
        <extensions>
          <ns3:TrackPointExtension>
            <ns3:atemp>15.0</ns3:atemp>
          </ns3:TrackPointExtension>
        </extensions>
      </trkpt>
      <trkpt lat="42.5734579749405384063720703125" lon="20.08076942525804042816162109375">
        <ele>1989</ele>
        <time>2026-06-15T10:35:07.000Z</time>
        <extensions>
          <ns3:TrackPointExtension>
            <ns3:atemp>15.0</ns3:atemp>
          </ns3:TrackPointExtension>
        </extensions>
      </trkpt>
      <trkpt lat="42.5735173188149929046630859375" lon="20.08076506666839122772216796875">
        <ele>1988.5999755859375</ele>
        <time>2026-06-15T10:35:08.000Z</time>
        <extensions>
          <ns3:TrackPointExtension>
            <ns3:atemp>15.0</ns3:atemp>
          </ns3:TrackPointExtension>
        </extensions>
      </trkpt>
      <trkpt lat="42.57357180118560791015625" lon="20.0807639770209789276123046875">
        <ele>1988</ele>
        <time>2026-06-15T10:35:09.000Z</time>
        <extensions>
          <ns3:TrackPointExtension>
            <ns3:atemp>15.0</ns3:atemp>
          </ns3:TrackPointExtension>
        </extensions>
      </trkpt>
      <trkpt lat="42.5736215896904468536376953125" lon="20.08076288737356662750244140625">
        <ele>1987.5999755859375</ele>
        <time>2026-06-15T10:35:10.000Z</time>
        <extensions>
          <ns3:TrackPointExtension>
            <ns3:atemp>15.0</ns3:atemp>
          </ns3:TrackPointExtension>
        </extensions>
      </trkpt>
      <trkpt lat="42.57367699407041072845458984375" lon="20.08074981160461902618408203125">
        <ele>1987.199951171875</ele>
        <time>2026-06-15T10:35:11.000Z</time>
        <extensions>
          <ns3:TrackPointExtension>
            <ns3:atemp>15.0</ns3:atemp>
          </ns3:TrackPointExtension>
        </extensions>
      </trkpt>
      <trkpt lat="42.57372829131782054901123046875" lon="20.0807368196547031402587890625">
        <ele>1986.800048828125</ele>
        <time>2026-06-15T10:35:12.000Z</time>
        <extensions>
          <ns3:TrackPointExtension>
            <ns3:atemp>15.0</ns3:atemp>
          </ns3:TrackPointExtension>
        </extensions>
      </trkpt>
      <trkpt lat="42.5737815164029598236083984375" lon="20.0807250849902629852294921875">
        <ele>1986.199951171875</ele>
        <time>2026-06-15T10:35:13.000Z</time>
        <extensions>
          <ns3:TrackPointExtension>
            <ns3:atemp>15.0</ns3:atemp>
          </ns3:TrackPointExtension>
        </extensions>
      </trkpt>
      <trkpt lat="42.5738354958593845367431640625" lon="20.08071209304034709930419921875">
        <ele>1985.800048828125</ele>
        <time>2026-06-15T10:35:14.000Z</time>
        <extensions>
          <ns3:TrackPointExtension>
            <ns3:atemp>15.0</ns3:atemp>
          </ns3:TrackPointExtension>
        </extensions>
      </trkpt>
      <trkpt lat="42.5738918222486972808837890625" lon="20.0806932337582111358642578125">
        <ele>1985.4000244140625</ele>
        <time>2026-06-15T10:35:15.000Z</time>
        <extensions>
          <ns3:TrackPointExtension>
            <ns3:atemp>15.0</ns3:atemp>
          </ns3:TrackPointExtension>
        </extensions>
      </trkpt>
      <trkpt lat="42.57394605316221714019775390625" lon="20.08067588321864604949951171875">
        <ele>1984.800048828125</ele>
        <time>2026-06-15T10:35:16.000Z</time>
        <extensions>
          <ns3:TrackPointExtension>
            <ns3:atemp>15.0</ns3:atemp>
          </ns3:TrackPointExtension>
        </extensions>
      </trkpt>
      <trkpt lat="42.57399986498057842254638671875" lon="20.080662555992603302001953125">
        <ele>1984.199951171875</ele>
        <time>2026-06-15T10:35:17.000Z</time>
        <extensions>
          <ns3:TrackPointExtension>
            <ns3:atemp>15.0</ns3:atemp>
          </ns3:TrackPointExtension>
        </extensions>
      </trkpt>
      <trkpt lat="42.5740530900657176971435546875" lon="20.0806503184139728546142578125">
        <ele>1983.800048828125</ele>
        <time>2026-06-15T10:35:18.000Z</time>
        <extensions>
          <ns3:TrackPointExtension>
            <ns3:atemp>15.0</ns3:atemp>
          </ns3:TrackPointExtension>
        </extensions>
      </trkpt>
      <trkpt lat="42.5741006992757320404052734375" lon="20.080646462738513946533203125">
        <ele>1983.4000244140625</ele>
        <time>2026-06-15T10:35:19.000Z</time>
        <extensions>
          <ns3:TrackPointExtension>
            <ns3:atemp>15.0</ns3:atemp>
          </ns3:TrackPointExtension>
        </extensions>
      </trkpt>
      <trkpt lat="42.574140094220638275146484375" lon="20.08064654655754566192626953125">
        <ele>1982.5999755859375</ele>
        <time>2026-06-15T10:35:20.000Z</time>
        <extensions>
          <ns3:TrackPointExtension>
            <ns3:atemp>15.0</ns3:atemp>
          </ns3:TrackPointExtension>
        </extensions>
      </trkpt>
      <trkpt lat="42.5741818360984325408935546875" lon="20.0806446187198162078857421875">
        <ele>1982.199951171875</ele>
        <time>2026-06-15T10:35:21.000Z</time>
        <extensions>
          <ns3:TrackPointExtension>
            <ns3:atemp>15.0</ns3:atemp>
          </ns3:TrackPointExtension>
        </extensions>
      </trkpt>
      <trkpt lat="42.5742311216890811920166015625" lon="20.0806318782269954681396484375">
        <ele>1981.5999755859375</ele>
        <time>2026-06-15T10:35:22.000Z</time>
        <extensions>
          <ns3:TrackPointExtension>
            <ns3:atemp>15.0</ns3:atemp>
          </ns3:TrackPointExtension>
        </extensions>
      </trkpt>
      <trkpt lat="42.5742839276790618896484375" lon="20.08062274195253849029541015625">
        <ele>1981</ele>
        <time>2026-06-15T10:35:23.000Z</time>
        <extensions>
          <ns3:TrackPointExtension>
            <ns3:atemp>15.0</ns3:atemp>
          </ns3:TrackPointExtension>
        </extensions>
      </trkpt>
      <trkpt lat="42.574326507747173309326171875" lon="20.0806281901895999908447265625">
        <ele>1980.4000244140625</ele>
        <time>2026-06-15T10:35:24.000Z</time>
        <extensions>
          <ns3:TrackPointExtension>
            <ns3:atemp>15.0</ns3:atemp>
          </ns3:TrackPointExtension>
        </extensions>
      </trkpt>
      <trkpt lat="42.57436565123498439788818359375" lon="20.08064369671046733856201171875">
        <ele>1980</ele>
        <time>2026-06-15T10:35:25.000Z</time>
        <extensions>
          <ns3:TrackPointExtension>
            <ns3:atemp>15.0</ns3:atemp>
          </ns3:TrackPointExtension>
        </extensions>
      </trkpt>
      <trkpt lat="42.57440261542797088623046875" lon="20.08065677247941493988037109375">
        <ele>1979.4000244140625</ele>
        <time>2026-06-15T10:35:26.000Z</time>
        <extensions>
          <ns3:TrackPointExtension>
            <ns3:atemp>15.0</ns3:atemp>
          </ns3:TrackPointExtension>
        </extensions>
      </trkpt>
      <trkpt lat="42.5744336284697055816650390625" lon="20.080673955380916595458984375">
        <ele>1979</ele>
        <time>2026-06-15T10:35:27.000Z</time>
        <extensions>
          <ns3:TrackPointExtension>
            <ns3:atemp>15.0</ns3:atemp>
          </ns3:TrackPointExtension>
        </extensions>
      </trkpt>
      <trkpt lat="42.57446187548339366912841796875" lon="20.08069398812949657440185546875">
        <ele>1978.5999755859375</ele>
        <time>2026-06-15T10:35:28.000Z</time>
        <extensions>
          <ns3:TrackPointExtension>
            <ns3:atemp>15.0</ns3:atemp>
          </ns3:TrackPointExtension>
        </extensions>
      </trkpt>
      <trkpt lat="42.57447981275618076324462890625" lon="20.08070974610745906829833984375">
        <ele>1978.4000244140625</ele>
        <time>2026-06-15T10:35:29.000Z</time>
        <extensions>
          <ns3:TrackPointExtension>
            <ns3:atemp>15.0</ns3:atemp>
          </ns3:TrackPointExtension>
        </extensions>
      </trkpt>
      <trkpt lat="42.57449523545801639556884765625" lon="20.0807185471057891845703125">
        <ele>1978</ele>
        <time>2026-06-15T10:35:30.000Z</time>
        <extensions>
          <ns3:TrackPointExtension>
            <ns3:atemp>15.0</ns3:atemp>
          </ns3:TrackPointExtension>
        </extensions>
      </trkpt>
      <trkpt lat="42.57451258599758148193359375" lon="20.0807150267064571380615234375">
        <ele>1977.800048828125</ele>
        <time>2026-06-15T10:35:31.000Z</time>
        <extensions>
          <ns3:TrackPointExtension>
            <ns3:atemp>15.0</ns3:atemp>
          </ns3:TrackPointExtension>
        </extensions>
      </trkpt>
      <trkpt lat="42.57453094236552715301513671875" lon="20.08069465868175029754638671875">
        <ele>1977.5999755859375</ele>
        <time>2026-06-15T10:35:32.000Z</time>
        <extensions>
          <ns3:TrackPointExtension>
            <ns3:atemp>15.0</ns3:atemp>
          </ns3:TrackPointExtension>
        </extensions>
      </trkpt>
      <trkpt lat="42.57453731261193752288818359375" lon="20.08066079579293727874755859375">
        <ele>1977.199951171875</ele>
        <time>2026-06-15T10:35:33.000Z</time>
        <extensions>
          <ns3:TrackPointExtension>
            <ns3:atemp>15.0</ns3:atemp>
          </ns3:TrackPointExtension>
        </extensions>
      </trkpt>
      <trkpt lat="42.5745291821658611297607421875" lon="20.0806348957121372222900390625">
        <ele>1976.800048828125</ele>
        <time>2026-06-15T10:35:34.000Z</time>
        <extensions>
          <ns3:TrackPointExtension>
            <ns3:atemp>15.0</ns3:atemp>
          </ns3:TrackPointExtension>
        </extensions>
      </trkpt>
      <trkpt lat="42.57452289573848247528076171875" lon="20.08062894456088542938232421875">
        <ele>1976.5999755859375</ele>
        <time>2026-06-15T10:35:35.000Z</time>
        <extensions>
          <ns3:TrackPointExtension>
            <ns3:atemp>15.0</ns3:atemp>
          </ns3:TrackPointExtension>
        </extensions>
      </trkpt>
      <trkpt lat="42.5745211355388164520263671875" lon="20.0806234963238239288330078125">
        <ele>1976.199951171875</ele>
        <time>2026-06-15T10:35:36.000Z</time>
        <extensions>
          <ns3:TrackPointExtension>
            <ns3:atemp>15.0</ns3:atemp>
          </ns3:TrackPointExtension>
        </extensions>
      </trkpt>
      <trkpt lat="42.57451702840626239776611328125" lon="20.080622322857379913330078125">
        <ele>1976</ele>
        <time>2026-06-15T10:35:37.000Z</time>
        <extensions>
          <ns3:TrackPointExtension>
            <ns3:atemp>15.0</ns3:atemp>
          </ns3:TrackPointExtension>
        </extensions>
      </trkpt>
      <trkpt lat="42.57451702840626239776611328125" lon="20.080622322857379913330078125">
        <ele>1975.800048828125</ele>
        <time>2026-06-15T10:35:38.000Z</time>
        <extensions>
          <ns3:TrackPointExtension>
            <ns3:atemp>15.0</ns3:atemp>
          </ns3:TrackPointExtension>
        </extensions>
      </trkpt>
      <trkpt lat="42.57451702840626239776611328125" lon="20.080622322857379913330078125">
        <ele>1975.800048828125</ele>
        <time>2026-06-15T10:35:39.000Z</time>
        <extensions>
          <ns3:TrackPointExtension>
            <ns3:atemp>15.0</ns3:atemp>
          </ns3:TrackPointExtension>
        </extensions>
      </trkpt>
      <trkpt lat="42.57451702840626239776611328125" lon="20.080622322857379913330078125">
        <ele>1975.800048828125</ele>
        <time>2026-06-15T10:35:40.000Z</time>
        <extensions>
          <ns3:TrackPointExtension>
            <ns3:atemp>15.0</ns3:atemp>
          </ns3:TrackPointExtension>
        </extensions>
      </trkpt>
      <trkpt lat="42.57451702840626239776611328125" lon="20.080622322857379913330078125">
        <ele>1975.800048828125</ele>
        <time>2026-06-15T10:35:41.000Z</time>
        <extensions>
          <ns3:TrackPointExtension>
            <ns3:atemp>15.0</ns3:atemp>
          </ns3:TrackPointExtension>
        </extensions>
      </trkpt>
      <trkpt lat="42.57451702840626239776611328125" lon="20.080622322857379913330078125">
        <ele>1975.800048828125</ele>
        <time>2026-06-15T10:35:42.000Z</time>
        <extensions>
          <ns3:TrackPointExtension>
            <ns3:atemp>15.0</ns3:atemp>
          </ns3:TrackPointExtension>
        </extensions>
      </trkpt>
      <trkpt lat="42.57451702840626239776611328125" lon="20.080622322857379913330078125">
        <ele>1975.5999755859375</ele>
        <time>2026-06-15T10:35:43.000Z</time>
        <extensions>
          <ns3:TrackPointExtension>
            <ns3:atemp>15.0</ns3:atemp>
          </ns3:TrackPointExtension>
        </extensions>
      </trkpt>
      <trkpt lat="42.57451702840626239776611328125" lon="20.080622322857379913330078125">
        <ele>1975.5999755859375</ele>
        <time>2026-06-15T10:35:44.000Z</time>
        <extensions>
          <ns3:TrackPointExtension>
            <ns3:atemp>15.0</ns3:atemp>
          </ns3:TrackPointExtension>
        </extensions>
      </trkpt>
      <trkpt lat="42.57451702840626239776611328125" lon="20.080622322857379913330078125">
        <ele>1975.5999755859375</ele>
        <time>2026-06-15T10:35:45.000Z</time>
        <extensions>
          <ns3:TrackPointExtension>
            <ns3:atemp>15.0</ns3:atemp>
          </ns3:TrackPointExtension>
        </extensions>
      </trkpt>
      <trkpt lat="42.57451702840626239776611328125" lon="20.080622322857379913330078125">
        <ele>1975.5999755859375</ele>
        <time>2026-06-15T10:35:46.000Z</time>
        <extensions>
          <ns3:TrackPointExtension>
            <ns3:atemp>15.0</ns3:atemp>
          </ns3:TrackPointExtension>
        </extensions>
      </trkpt>
      <trkpt lat="42.57451702840626239776611328125" lon="20.080622322857379913330078125">
        <ele>1975.5999755859375</ele>
        <time>2026-06-15T10:35:47.000Z</time>
        <extensions>
          <ns3:TrackPointExtension>
            <ns3:atemp>15.0</ns3:atemp>
          </ns3:TrackPointExtension>
        </extensions>
      </trkpt>
      <trkpt lat="42.57451702840626239776611328125" lon="20.080622322857379913330078125">
        <ele>1975.5999755859375</ele>
        <time>2026-06-15T10:35:48.000Z</time>
        <extensions>
          <ns3:TrackPointExtension>
            <ns3:atemp>15.0</ns3:atemp>
          </ns3:TrackPointExtension>
        </extensions>
      </trkpt>
      <trkpt lat="42.57451702840626239776611328125" lon="20.080622322857379913330078125">
        <ele>1975.5999755859375</ele>
        <time>2026-06-15T10:35:49.000Z</time>
        <extensions>
          <ns3:TrackPointExtension>
            <ns3:atemp>15.0</ns3:atemp>
          </ns3:TrackPointExtension>
        </extensions>
      </trkpt>
      <trkpt lat="42.57451702840626239776611328125" lon="20.080622322857379913330078125">
        <ele>1975.5999755859375</ele>
        <time>2026-06-15T10:35:50.000Z</time>
        <extensions>
          <ns3:TrackPointExtension>
            <ns3:atemp>15.0</ns3:atemp>
          </ns3:TrackPointExtension>
        </extensions>
      </trkpt>
      <trkpt lat="42.57451702840626239776611328125" lon="20.080622322857379913330078125">
        <ele>1975.5999755859375</ele>
        <time>2026-06-15T10:35:51.000Z</time>
        <extensions>
          <ns3:TrackPointExtension>
            <ns3:atemp>15.0</ns3:atemp>
          </ns3:TrackPointExtension>
        </extensions>
      </trkpt>
      <trkpt lat="42.57451702840626239776611328125" lon="20.080622322857379913330078125">
        <ele>1975.5999755859375</ele>
        <time>2026-06-15T10:35:52.000Z</time>
        <extensions>
          <ns3:TrackPointExtension>
            <ns3:atemp>15.0</ns3:atemp>
          </ns3:TrackPointExtension>
        </extensions>
      </trkpt>
      <trkpt lat="42.57451702840626239776611328125" lon="20.080622322857379913330078125">
        <ele>1975.5999755859375</ele>
        <time>2026-06-15T10:35:53.000Z</time>
        <extensions>
          <ns3:TrackPointExtension>
            <ns3:atemp>15.0</ns3:atemp>
          </ns3:TrackPointExtension>
        </extensions>
      </trkpt>
      <trkpt lat="42.57451702840626239776611328125" lon="20.080622322857379913330078125">
        <ele>1975.5999755859375</ele>
        <time>2026-06-15T10:35:54.000Z</time>
        <extensions>
          <ns3:TrackPointExtension>
            <ns3:atemp>15.0</ns3:atemp>
          </ns3:TrackPointExtension>
        </extensions>
      </trkpt>
      <trkpt lat="42.57451702840626239776611328125" lon="20.080622322857379913330078125">
        <ele>1975.5999755859375</ele>
        <time>2026-06-15T10:35:55.000Z</time>
        <extensions>
          <ns3:TrackPointExtension>
            <ns3:atemp>15.0</ns3:atemp>
          </ns3:TrackPointExtension>
        </extensions>
      </trkpt>
      <trkpt lat="42.57451702840626239776611328125" lon="20.080622322857379913330078125">
        <ele>1975.5999755859375</ele>
        <time>2026-06-15T10:35:56.000Z</time>
        <extensions>
          <ns3:TrackPointExtension>
            <ns3:atemp>15.0</ns3:atemp>
          </ns3:TrackPointExtension>
        </extensions>
      </trkpt>
      <trkpt lat="42.57451702840626239776611328125" lon="20.080622322857379913330078125">
        <ele>1975.4000244140625</ele>
        <time>2026-06-15T10:35:57.000Z</time>
        <extensions>
          <ns3:TrackPointExtension>
            <ns3:atemp>15.0</ns3:atemp>
          </ns3:TrackPointExtension>
        </extensions>
      </trkpt>
      <trkpt lat="42.57451702840626239776611328125" lon="20.080622322857379913330078125">
        <ele>1975.4000244140625</ele>
        <time>2026-06-15T10:35:58.000Z</time>
        <extensions>
          <ns3:TrackPointExtension>
            <ns3:atemp>15.0</ns3:atemp>
          </ns3:TrackPointExtension>
        </extensions>
      </trkpt>
      <trkpt lat="42.5745174475014209747314453125" lon="20.08062064647674560546875">
        <ele>1975.4000244140625</ele>
        <time>2026-06-15T10:35:59.000Z</time>
        <extensions>
          <ns3:TrackPointExtension>
            <ns3:atemp>15.0</ns3:atemp>
          </ns3:TrackPointExtension>
        </extensions>
      </trkpt>
      <trkpt lat="42.57450990378856658935546875" lon="20.08060648106038570404052734375">
        <ele>1975.4000244140625</ele>
        <time>2026-06-15T10:36:00.000Z</time>
        <extensions>
          <ns3:TrackPointExtension>
            <ns3:atemp>15.0</ns3:atemp>
          </ns3:TrackPointExtension>
        </extensions>
      </trkpt>
      <trkpt lat="42.5744996778666973114013671875" lon="20.08059776388108730316162109375">
        <ele>1975.4000244140625</ele>
        <time>2026-06-15T10:36:01.000Z</time>
        <extensions>
          <ns3:TrackPointExtension>
            <ns3:atemp>15.0</ns3:atemp>
          </ns3:TrackPointExtension>
        </extensions>
      </trkpt>
      <trkpt lat="42.574492134153842926025390625" lon="20.0805889628827571868896484375">
        <ele>1975.4000244140625</ele>
        <time>2026-06-15T10:36:02.000Z</time>
        <extensions>
          <ns3:TrackPointExtension>
            <ns3:atemp>15.0</ns3:atemp>
          </ns3:TrackPointExtension>
        </extensions>
      </trkpt>
      <trkpt lat="42.57448618300259113311767578125" lon="20.080584771931171417236328125">
        <ele>1975.4000244140625</ele>
        <time>2026-06-15T10:36:03.000Z</time>
        <extensions>
          <ns3:TrackPointExtension>
            <ns3:atemp>15.0</ns3:atemp>
          </ns3:TrackPointExtension>
        </extensions>
      </trkpt>
      <trkpt lat="42.5744842551648616790771484375" lon="20.08058108389377593994140625">
        <ele>1975.199951171875</ele>
        <time>2026-06-15T10:36:04.000Z</time>
        <extensions>
          <ns3:TrackPointExtension>
            <ns3:atemp>15.0</ns3:atemp>
          </ns3:TrackPointExtension>
        </extensions>
      </trkpt>
      <trkpt lat="42.57448442280292510986328125" lon="20.080580078065395355224609375">
        <ele>1975.199951171875</ele>
        <time>2026-06-15T10:36:05.000Z</time>
        <extensions>
          <ns3:TrackPointExtension>
            <ns3:atemp>15.0</ns3:atemp>
          </ns3:TrackPointExtension>
        </extensions>
      </trkpt>
      <trkpt lat="42.57448442280292510986328125" lon="20.08057999424636363983154296875">
        <ele>1975.4000244140625</ele>
        <time>2026-06-15T10:36:06.000Z</time>
        <extensions>
          <ns3:TrackPointExtension>
            <ns3:atemp>15.0</ns3:atemp>
          </ns3:TrackPointExtension>
        </extensions>
      </trkpt>
      <trkpt lat="42.57448442280292510986328125" lon="20.08057999424636363983154296875">
        <ele>1975.4000244140625</ele>
        <time>2026-06-15T10:36:07.000Z</time>
        <extensions>
          <ns3:TrackPointExtension>
            <ns3:atemp>15.0</ns3:atemp>
          </ns3:TrackPointExtension>
        </extensions>
      </trkpt>
      <trkpt lat="42.57448442280292510986328125" lon="20.08057999424636363983154296875">
        <ele>1975.4000244140625</ele>
        <time>2026-06-15T10:36:08.000Z</time>
        <extensions>
          <ns3:TrackPointExtension>
            <ns3:atemp>15.0</ns3:atemp>
          </ns3:TrackPointExtension>
        </extensions>
      </trkpt>
      <trkpt lat="42.57448442280292510986328125" lon="20.08057999424636363983154296875">
        <ele>1975.4000244140625</ele>
        <time>2026-06-15T10:36:09.000Z</time>
        <extensions>
          <ns3:TrackPointExtension>
            <ns3:atemp>15.0</ns3:atemp>
          </ns3:TrackPointExtension>
        </extensions>
      </trkpt>
      <trkpt lat="42.57448442280292510986328125" lon="20.08057999424636363983154296875">
        <ele>1975.4000244140625</ele>
        <time>2026-06-15T10:36:10.000Z</time>
        <extensions>
          <ns3:TrackPointExtension>
            <ns3:atemp>15.0</ns3:atemp>
          </ns3:TrackPointExtension>
        </extensions>
      </trkpt>
      <trkpt lat="42.57448442280292510986328125" lon="20.08057999424636363983154296875">
        <ele>1975.4000244140625</ele>
        <time>2026-06-15T10:36:11.000Z</time>
        <extensions>
          <ns3:TrackPointExtension>
            <ns3:atemp>15.0</ns3:atemp>
          </ns3:TrackPointExtension>
        </extensions>
      </trkpt>
      <trkpt lat="42.574483416974544525146484375" lon="20.0805795751512050628662109375">
        <ele>1975.4000244140625</ele>
        <time>2026-06-15T10:36:12.000Z</time>
        <extensions>
          <ns3:TrackPointExtension>
            <ns3:atemp>15.0</ns3:atemp>
          </ns3:TrackPointExtension>
        </extensions>
      </trkpt>
      <trkpt lat="42.57449188269674777984619140625" lon="20.080565325915813446044921875">
        <ele>1975.4000244140625</ele>
        <time>2026-06-15T10:36:13.000Z</time>
        <extensions>
          <ns3:TrackPointExtension>
            <ns3:atemp>15.0</ns3:atemp>
          </ns3:TrackPointExtension>
        </extensions>
      </trkpt>
      <trkpt lat="42.5745053775608539581298828125" lon="20.08056272752583026885986328125">
        <ele>1975.4000244140625</ele>
        <time>2026-06-15T10:36:14.000Z</time>
        <extensions>
          <ns3:TrackPointExtension>
            <ns3:atemp>15.0</ns3:atemp>
          </ns3:TrackPointExtension>
        </extensions>
      </trkpt>
      <trkpt lat="42.57451216690242290496826171875" lon="20.08055920712649822235107421875">
        <ele>1975.4000244140625</ele>
        <time>2026-06-15T10:36:15.000Z</time>
        <extensions>
          <ns3:TrackPointExtension>
            <ns3:atemp>15.0</ns3:atemp>
          </ns3:TrackPointExtension>
        </extensions>
      </trkpt>
      <trkpt lat="42.57451401092112064361572265625" lon="20.08055987767875194549560546875">
        <ele>1975.199951171875</ele>
        <time>2026-06-15T10:36:16.000Z</time>
        <extensions>
          <ns3:TrackPointExtension>
            <ns3:atemp>15.0</ns3:atemp>
          </ns3:TrackPointExtension>
        </extensions>
      </trkpt>
      <trkpt lat="42.5745140947401523590087890625" lon="20.08055987767875194549560546875">
        <ele>1975.199951171875</ele>
        <time>2026-06-15T10:36:17.000Z</time>
        <extensions>
          <ns3:TrackPointExtension>
            <ns3:atemp>15.0</ns3:atemp>
          </ns3:TrackPointExtension>
        </extensions>
      </trkpt>
      <trkpt lat="42.5745140947401523590087890625" lon="20.08055987767875194549560546875">
        <ele>1975.199951171875</ele>
        <time>2026-06-15T10:36:18.000Z</time>
        <extensions>
          <ns3:TrackPointExtension>
            <ns3:atemp>15.0</ns3:atemp>
          </ns3:TrackPointExtension>
        </extensions>
      </trkpt>
      <trkpt lat="42.5745140947401523590087890625" lon="20.08055987767875194549560546875">
        <ele>1975.199951171875</ele>
        <time>2026-06-15T10:36:19.000Z</time>
        <extensions>
          <ns3:TrackPointExtension>
            <ns3:atemp>15.0</ns3:atemp>
          </ns3:TrackPointExtension>
        </extensions>
      </trkpt>
      <trkpt lat="42.5745140947401523590087890625" lon="20.08055987767875194549560546875">
        <ele>1975.199951171875</ele>
        <time>2026-06-15T10:36:20.000Z</time>
        <extensions>
          <ns3:TrackPointExtension>
            <ns3:atemp>15.0</ns3:atemp>
          </ns3:TrackPointExtension>
        </extensions>
      </trkpt>
      <trkpt lat="42.57451468147337436676025390625" lon="20.08055937476456165313720703125">
        <ele>1975.199951171875</ele>
        <time>2026-06-15T10:36:21.000Z</time>
        <extensions>
          <ns3:TrackPointExtension>
            <ns3:atemp>15.0</ns3:atemp>
          </ns3:TrackPointExtension>
        </extensions>
      </trkpt>
      <trkpt lat="42.5745140947401523590087890625" lon="20.08055987767875194549560546875">
        <ele>1975.199951171875</ele>
        <time>2026-06-15T10:36:22.000Z</time>
        <extensions>
          <ns3:TrackPointExtension>
            <ns3:atemp>15.0</ns3:atemp>
          </ns3:TrackPointExtension>
        </extensions>
      </trkpt>
      <trkpt lat="42.5745140947401523590087890625" lon="20.08055987767875194549560546875">
        <ele>1975.199951171875</ele>
        <time>2026-06-15T10:36:23.000Z</time>
        <extensions>
          <ns3:TrackPointExtension>
            <ns3:atemp>15.0</ns3:atemp>
          </ns3:TrackPointExtension>
        </extensions>
      </trkpt>
      <trkpt lat="42.5745140947401523590087890625" lon="20.08055987767875194549560546875">
        <ele>1975</ele>
        <time>2026-06-15T10:36:24.000Z</time>
        <extensions>
          <ns3:TrackPointExtension>
            <ns3:atemp>15.0</ns3:atemp>
          </ns3:TrackPointExtension>
        </extensions>
      </trkpt>
      <trkpt lat="42.5745140947401523590087890625" lon="20.08055987767875194549560546875">
        <ele>1974.800048828125</ele>
        <time>2026-06-15T10:36:25.000Z</time>
        <extensions>
          <ns3:TrackPointExtension>
            <ns3:atemp>15.0</ns3:atemp>
          </ns3:TrackPointExtension>
        </extensions>
      </trkpt>
      <trkpt lat="42.5745140947401523590087890625" lon="20.08055987767875194549560546875">
        <ele>1974.800048828125</ele>
        <time>2026-06-15T10:36:26.000Z</time>
        <extensions>
          <ns3:TrackPointExtension>
            <ns3:atemp>15.0</ns3:atemp>
          </ns3:TrackPointExtension>
        </extensions>
      </trkpt>
      <trkpt lat="42.5745140947401523590087890625" lon="20.08055987767875194549560546875">
        <ele>1974.5999755859375</ele>
        <time>2026-06-15T10:36:27.000Z</time>
        <extensions>
          <ns3:TrackPointExtension>
            <ns3:atemp>15.0</ns3:atemp>
          </ns3:TrackPointExtension>
        </extensions>
      </trkpt>
      <trkpt lat="42.5745140947401523590087890625" lon="20.08055987767875194549560546875">
        <ele>1974.4000244140625</ele>
        <time>2026-06-15T10:36:28.000Z</time>
        <extensions>
          <ns3:TrackPointExtension>
            <ns3:atemp>15.0</ns3:atemp>
          </ns3:TrackPointExtension>
        </extensions>
      </trkpt>
      <trkpt lat="42.5745140947401523590087890625" lon="20.08055987767875194549560546875">
        <ele>1974.199951171875</ele>
        <time>2026-06-15T10:36:29.000Z</time>
        <extensions>
          <ns3:TrackPointExtension>
            <ns3:atemp>15.0</ns3:atemp>
          </ns3:TrackPointExtension>
        </extensions>
      </trkpt>
      <trkpt lat="42.5745140947401523590087890625" lon="20.08055987767875194549560546875">
        <ele>1974.199951171875</ele>
        <time>2026-06-15T10:36:30.000Z</time>
        <extensions>
          <ns3:TrackPointExtension>
            <ns3:atemp>15.0</ns3:atemp>
          </ns3:TrackPointExtension>
        </extensions>
      </trkpt>
      <trkpt lat="42.5745140947401523590087890625" lon="20.08055987767875194549560546875">
        <ele>1974.199951171875</ele>
        <time>2026-06-15T10:36:31.000Z</time>
        <extensions>
          <ns3:TrackPointExtension>
            <ns3:atemp>15.0</ns3:atemp>
          </ns3:TrackPointExtension>
        </extensions>
      </trkpt>
      <trkpt lat="42.5745140947401523590087890625" lon="20.08055987767875194549560546875">
        <ele>1974.199951171875</ele>
        <time>2026-06-15T10:36:32.000Z</time>
        <extensions>
          <ns3:TrackPointExtension>
            <ns3:atemp>15.0</ns3:atemp>
          </ns3:TrackPointExtension>
        </extensions>
      </trkpt>
      <trkpt lat="42.5745140947401523590087890625" lon="20.08055987767875194549560546875">
        <ele>1974.199951171875</ele>
        <time>2026-06-15T10:36:33.000Z</time>
        <extensions>
          <ns3:TrackPointExtension>
            <ns3:atemp>15.0</ns3:atemp>
          </ns3:TrackPointExtension>
        </extensions>
      </trkpt>
      <trkpt lat="42.5745140947401523590087890625" lon="20.08055987767875194549560546875">
        <ele>1974</ele>
        <time>2026-06-15T10:36:34.000Z</time>
        <extensions>
          <ns3:TrackPointExtension>
            <ns3:atemp>15.0</ns3:atemp>
          </ns3:TrackPointExtension>
        </extensions>
      </trkpt>
      <trkpt lat="42.5745140947401523590087890625" lon="20.08055987767875194549560546875">
        <ele>1974</ele>
        <time>2026-06-15T10:36:35.000Z</time>
        <extensions>
          <ns3:TrackPointExtension>
            <ns3:atemp>15.0</ns3:atemp>
          </ns3:TrackPointExtension>
        </extensions>
      </trkpt>
      <trkpt lat="42.5745140947401523590087890625" lon="20.08055987767875194549560546875">
        <ele>1974</ele>
        <time>2026-06-15T10:36:36.000Z</time>
        <extensions>
          <ns3:TrackPointExtension>
            <ns3:atemp>15.0</ns3:atemp>
          </ns3:TrackPointExtension>
        </extensions>
      </trkpt>
      <trkpt lat="42.5745140947401523590087890625" lon="20.08055987767875194549560546875">
        <ele>1974</ele>
        <time>2026-06-15T10:36:37.000Z</time>
        <extensions>
          <ns3:TrackPointExtension>
            <ns3:atemp>15.0</ns3:atemp>
          </ns3:TrackPointExtension>
        </extensions>
      </trkpt>
      <trkpt lat="42.5745140947401523590087890625" lon="20.08055987767875194549560546875">
        <ele>1974</ele>
        <time>2026-06-15T10:36:38.000Z</time>
        <extensions>
          <ns3:TrackPointExtension>
            <ns3:atemp>15.0</ns3:atemp>
          </ns3:TrackPointExtension>
        </extensions>
      </trkpt>
      <trkpt lat="42.5745140947401523590087890625" lon="20.08055987767875194549560546875">
        <ele>1974.199951171875</ele>
        <time>2026-06-15T10:36:39.000Z</time>
        <extensions>
          <ns3:TrackPointExtension>
            <ns3:atemp>15.0</ns3:atemp>
          </ns3:TrackPointExtension>
        </extensions>
      </trkpt>
      <trkpt lat="42.5745140947401523590087890625" lon="20.08055987767875194549560546875">
        <ele>1974.199951171875</ele>
        <time>2026-06-15T10:36:40.000Z</time>
        <extensions>
          <ns3:TrackPointExtension>
            <ns3:atemp>15.0</ns3:atemp>
          </ns3:TrackPointExtension>
        </extensions>
      </trkpt>
      <trkpt lat="42.5745140947401523590087890625" lon="20.08055987767875194549560546875">
        <ele>1974.199951171875</ele>
        <time>2026-06-15T10:36:41.000Z</time>
        <extensions>
          <ns3:TrackPointExtension>
            <ns3:atemp>15.0</ns3:atemp>
          </ns3:TrackPointExtension>
        </extensions>
      </trkpt>
      <trkpt lat="42.5745140947401523590087890625" lon="20.08055987767875194549560546875">
        <ele>1974.199951171875</ele>
        <time>2026-06-15T10:36:42.000Z</time>
        <extensions>
          <ns3:TrackPointExtension>
            <ns3:atemp>15.0</ns3:atemp>
          </ns3:TrackPointExtension>
        </extensions>
      </trkpt>
      <trkpt lat="42.5745140947401523590087890625" lon="20.08055987767875194549560546875">
        <ele>1974.199951171875</ele>
        <time>2026-06-15T10:36:43.000Z</time>
        <extensions>
          <ns3:TrackPointExtension>
            <ns3:atemp>15.0</ns3:atemp>
          </ns3:TrackPointExtension>
        </extensions>
      </trkpt>
      <trkpt lat="42.5745140947401523590087890625" lon="20.08055987767875194549560546875">
        <ele>1974.199951171875</ele>
        <time>2026-06-15T10:36:44.000Z</time>
        <extensions>
          <ns3:TrackPointExtension>
            <ns3:atemp>15.0</ns3:atemp>
          </ns3:TrackPointExtension>
        </extensions>
      </trkpt>
      <trkpt lat="42.5745140947401523590087890625" lon="20.08055987767875194549560546875">
        <ele>1974.199951171875</ele>
        <time>2026-06-15T10:36:45.000Z</time>
        <extensions>
          <ns3:TrackPointExtension>
            <ns3:atemp>15.0</ns3:atemp>
          </ns3:TrackPointExtension>
        </extensions>
      </trkpt>
      <trkpt lat="42.5745140947401523590087890625" lon="20.08055987767875194549560546875">
        <ele>1974.199951171875</ele>
        <time>2026-06-15T10:36:46.000Z</time>
        <extensions>
          <ns3:TrackPointExtension>
            <ns3:atemp>15.0</ns3:atemp>
          </ns3:TrackPointExtension>
        </extensions>
      </trkpt>
      <trkpt lat="42.5745140947401523590087890625" lon="20.08055987767875194549560546875">
        <ele>1974.199951171875</ele>
        <time>2026-06-15T10:36:47.000Z</time>
        <extensions>
          <ns3:TrackPointExtension>
            <ns3:atemp>15.0</ns3:atemp>
          </ns3:TrackPointExtension>
        </extensions>
      </trkpt>
      <trkpt lat="42.5745140947401523590087890625" lon="20.08055987767875194549560546875">
        <ele>1974.199951171875</ele>
        <time>2026-06-15T10:36:48.000Z</time>
        <extensions>
          <ns3:TrackPointExtension>
            <ns3:atemp>15.0</ns3:atemp>
          </ns3:TrackPointExtension>
        </extensions>
      </trkpt>
      <trkpt lat="42.5745140947401523590087890625" lon="20.08055987767875194549560546875">
        <ele>1974.4000244140625</ele>
        <time>2026-06-15T10:36:49.000Z</time>
        <extensions>
          <ns3:TrackPointExtension>
            <ns3:atemp>15.0</ns3:atemp>
          </ns3:TrackPointExtension>
        </extensions>
      </trkpt>
      <trkpt lat="42.5745140947401523590087890625" lon="20.08055987767875194549560546875">
        <ele>1974.4000244140625</ele>
        <time>2026-06-15T10:36:50.000Z</time>
        <extensions>
          <ns3:TrackPointExtension>
            <ns3:atemp>15.0</ns3:atemp>
          </ns3:TrackPointExtension>
        </extensions>
      </trkpt>
      <trkpt lat="42.5745140947401523590087890625" lon="20.08055987767875194549560546875">
        <ele>1974.4000244140625</ele>
        <time>2026-06-15T10:36:51.000Z</time>
        <extensions>
          <ns3:TrackPointExtension>
            <ns3:atemp>15.0</ns3:atemp>
          </ns3:TrackPointExtension>
        </extensions>
      </trkpt>
      <trkpt lat="42.5745140947401523590087890625" lon="20.08055987767875194549560546875">
        <ele>1974.4000244140625</ele>
        <time>2026-06-15T10:36:52.000Z</time>
        <extensions>
          <ns3:TrackPointExtension>
            <ns3:atemp>15.0</ns3:atemp>
          </ns3:TrackPointExtension>
        </extensions>
      </trkpt>
      <trkpt lat="42.5745140947401523590087890625" lon="20.08055987767875194549560546875">
        <ele>1974.4000244140625</ele>
        <time>2026-06-15T10:36:53.000Z</time>
        <extensions>
          <ns3:TrackPointExtension>
            <ns3:atemp>15.0</ns3:atemp>
          </ns3:TrackPointExtension>
        </extensions>
      </trkpt>
      <trkpt lat="42.5745140947401523590087890625" lon="20.08055987767875194549560546875">
        <ele>1974.199951171875</ele>
        <time>2026-06-15T10:36:54.000Z</time>
        <extensions>
          <ns3:TrackPointExtension>
            <ns3:atemp>15.0</ns3:atemp>
          </ns3:TrackPointExtension>
        </extensions>
      </trkpt>
      <trkpt lat="42.5745140947401523590087890625" lon="20.08055987767875194549560546875">
        <ele>1974.199951171875</ele>
        <time>2026-06-15T10:36:55.000Z</time>
        <extensions>
          <ns3:TrackPointExtension>
            <ns3:atemp>15.0</ns3:atemp>
          </ns3:TrackPointExtension>
        </extensions>
      </trkpt>
      <trkpt lat="42.5745140947401523590087890625" lon="20.08055987767875194549560546875">
        <ele>1974.199951171875</ele>
        <time>2026-06-15T10:36:56.000Z</time>
        <extensions>
          <ns3:TrackPointExtension>
            <ns3:atemp>15.0</ns3:atemp>
          </ns3:TrackPointExtension>
        </extensions>
      </trkpt>
      <trkpt lat="42.5745140947401523590087890625" lon="20.08055987767875194549560546875">
        <ele>1974.199951171875</ele>
        <time>2026-06-15T10:36:57.000Z</time>
        <extensions>
          <ns3:TrackPointExtension>
            <ns3:atemp>15.0</ns3:atemp>
          </ns3:TrackPointExtension>
        </extensions>
      </trkpt>
      <trkpt lat="42.5745140947401523590087890625" lon="20.08055987767875194549560546875">
        <ele>1974.199951171875</ele>
        <time>2026-06-15T10:36:58.000Z</time>
        <extensions>
          <ns3:TrackPointExtension>
            <ns3:atemp>15.0</ns3:atemp>
          </ns3:TrackPointExtension>
        </extensions>
      </trkpt>
      <trkpt lat="42.5745140947401523590087890625" lon="20.08055987767875194549560546875">
        <ele>1974.199951171875</ele>
        <time>2026-06-15T10:36:59.000Z</time>
        <extensions>
          <ns3:TrackPointExtension>
            <ns3:atemp>15.0</ns3:atemp>
          </ns3:TrackPointExtension>
        </extensions>
      </trkpt>
      <trkpt lat="42.5745140947401523590087890625" lon="20.08055987767875194549560546875">
        <ele>1974.199951171875</ele>
        <time>2026-06-15T10:37:00.000Z</time>
        <extensions>
          <ns3:TrackPointExtension>
            <ns3:atemp>15.0</ns3:atemp>
          </ns3:TrackPointExtension>
        </extensions>
      </trkpt>
      <trkpt lat="42.5745140947401523590087890625" lon="20.08055987767875194549560546875">
        <ele>1974.199951171875</ele>
        <time>2026-06-15T10:37:01.000Z</time>
        <extensions>
          <ns3:TrackPointExtension>
            <ns3:atemp>15.0</ns3:atemp>
          </ns3:TrackPointExtension>
        </extensions>
      </trkpt>
      <trkpt lat="42.5745140947401523590087890625" lon="20.08055987767875194549560546875">
        <ele>1974.199951171875</ele>
        <time>2026-06-15T10:37:02.000Z</time>
        <extensions>
          <ns3:TrackPointExtension>
            <ns3:atemp>15.0</ns3:atemp>
          </ns3:TrackPointExtension>
        </extensions>
      </trkpt>
      <trkpt lat="42.5745140947401523590087890625" lon="20.08055987767875194549560546875">
        <ele>1974.199951171875</ele>
        <time>2026-06-15T10:37:03.000Z</time>
        <extensions>
          <ns3:TrackPointExtension>
            <ns3:atemp>15.0</ns3:atemp>
          </ns3:TrackPointExtension>
        </extensions>
      </trkpt>
      <trkpt lat="42.5745140947401523590087890625" lon="20.08055987767875194549560546875">
        <ele>1974.199951171875</ele>
        <time>2026-06-15T10:37:04.000Z</time>
        <extensions>
          <ns3:TrackPointExtension>
            <ns3:atemp>15.0</ns3:atemp>
          </ns3:TrackPointExtension>
        </extensions>
      </trkpt>
      <trkpt lat="42.5745140947401523590087890625" lon="20.08055987767875194549560546875">
        <ele>1974.199951171875</ele>
        <time>2026-06-15T10:37:05.000Z</time>
        <extensions>
          <ns3:TrackPointExtension>
            <ns3:atemp>15.0</ns3:atemp>
          </ns3:TrackPointExtension>
        </extensions>
      </trkpt>
      <trkpt lat="42.5745140947401523590087890625" lon="20.08055987767875194549560546875">
        <ele>1974.199951171875</ele>
        <time>2026-06-15T10:37:06.000Z</time>
        <extensions>
          <ns3:TrackPointExtension>
            <ns3:atemp>15.0</ns3:atemp>
          </ns3:TrackPointExtension>
        </extensions>
      </trkpt>
      <trkpt lat="42.5745140947401523590087890625" lon="20.08055987767875194549560546875">
        <ele>1974.4000244140625</ele>
        <time>2026-06-15T10:37:07.000Z</time>
        <extensions>
          <ns3:TrackPointExtension>
            <ns3:atemp>15.0</ns3:atemp>
          </ns3:TrackPointExtension>
        </extensions>
      </trkpt>
      <trkpt lat="42.5745140947401523590087890625" lon="20.08055987767875194549560546875">
        <ele>1974.4000244140625</ele>
        <time>2026-06-15T10:37:08.000Z</time>
        <extensions>
          <ns3:TrackPointExtension>
            <ns3:atemp>15.0</ns3:atemp>
          </ns3:TrackPointExtension>
        </extensions>
      </trkpt>
      <trkpt lat="42.5745140947401523590087890625" lon="20.08055987767875194549560546875">
        <ele>1974.4000244140625</ele>
        <time>2026-06-15T10:37:09.000Z</time>
        <extensions>
          <ns3:TrackPointExtension>
            <ns3:atemp>15.0</ns3:atemp>
          </ns3:TrackPointExtension>
        </extensions>
      </trkpt>
      <trkpt lat="42.5745140947401523590087890625" lon="20.08055987767875194549560546875">
        <ele>1974.4000244140625</ele>
        <time>2026-06-15T10:37:10.000Z</time>
        <extensions>
          <ns3:TrackPointExtension>
            <ns3:atemp>15.0</ns3:atemp>
          </ns3:TrackPointExtension>
        </extensions>
      </trkpt>
      <trkpt lat="42.5745140947401523590087890625" lon="20.08055987767875194549560546875">
        <ele>1974.4000244140625</ele>
        <time>2026-06-15T10:37:11.000Z</time>
        <extensions>
          <ns3:TrackPointExtension>
            <ns3:atemp>15.0</ns3:atemp>
          </ns3:TrackPointExtension>
        </extensions>
      </trkpt>
      <trkpt lat="42.5745140947401523590087890625" lon="20.08055987767875194549560546875">
        <ele>1974.4000244140625</ele>
        <time>2026-06-15T10:37:12.000Z</time>
        <extensions>
          <ns3:TrackPointExtension>
            <ns3:atemp>15.0</ns3:atemp>
          </ns3:TrackPointExtension>
        </extensions>
      </trkpt>
      <trkpt lat="42.5745140947401523590087890625" lon="20.08055987767875194549560546875">
        <ele>1974.4000244140625</ele>
        <time>2026-06-15T10:37:13.000Z</time>
        <extensions>
          <ns3:TrackPointExtension>
            <ns3:atemp>15.0</ns3:atemp>
          </ns3:TrackPointExtension>
        </extensions>
      </trkpt>
      <trkpt lat="42.5745140947401523590087890625" lon="20.08055987767875194549560546875">
        <ele>1974.4000244140625</ele>
        <time>2026-06-15T10:37:14.000Z</time>
        <extensions>
          <ns3:TrackPointExtension>
            <ns3:atemp>15.0</ns3:atemp>
          </ns3:TrackPointExtension>
        </extensions>
      </trkpt>
      <trkpt lat="42.5745140947401523590087890625" lon="20.08055987767875194549560546875">
        <ele>1974.5999755859375</ele>
        <time>2026-06-15T10:37:15.000Z</time>
        <extensions>
          <ns3:TrackPointExtension>
            <ns3:atemp>15.0</ns3:atemp>
          </ns3:TrackPointExtension>
        </extensions>
      </trkpt>
      <trkpt lat="42.5745140947401523590087890625" lon="20.08055987767875194549560546875">
        <ele>1974.5999755859375</ele>
        <time>2026-06-15T10:37:16.000Z</time>
        <extensions>
          <ns3:TrackPointExtension>
            <ns3:atemp>15.0</ns3:atemp>
          </ns3:TrackPointExtension>
        </extensions>
      </trkpt>
      <trkpt lat="42.5745140947401523590087890625" lon="20.08055987767875194549560546875">
        <ele>1974.5999755859375</ele>
        <time>2026-06-15T10:37:17.000Z</time>
        <extensions>
          <ns3:TrackPointExtension>
            <ns3:atemp>15.0</ns3:atemp>
          </ns3:TrackPointExtension>
        </extensions>
      </trkpt>
      <trkpt lat="42.5745140947401523590087890625" lon="20.08055987767875194549560546875">
        <ele>1974.5999755859375</ele>
        <time>2026-06-15T10:37:18.000Z</time>
        <extensions>
          <ns3:TrackPointExtension>
            <ns3:atemp>15.0</ns3:atemp>
          </ns3:TrackPointExtension>
        </extensions>
      </trkpt>
      <trkpt lat="42.5745140947401523590087890625" lon="20.08055987767875194549560546875">
        <ele>1974.4000244140625</ele>
        <time>2026-06-15T10:37:19.000Z</time>
        <extensions>
          <ns3:TrackPointExtension>
            <ns3:atemp>15.0</ns3:atemp>
          </ns3:TrackPointExtension>
        </extensions>
      </trkpt>
      <trkpt lat="42.5745140947401523590087890625" lon="20.08055987767875194549560546875">
        <ele>1974.4000244140625</ele>
        <time>2026-06-15T10:37:20.000Z</time>
        <extensions>
          <ns3:TrackPointExtension>
            <ns3:atemp>15.0</ns3:atemp>
          </ns3:TrackPointExtension>
        </extensions>
      </trkpt>
      <trkpt lat="42.5745140947401523590087890625" lon="20.08055987767875194549560546875">
        <ele>1974.4000244140625</ele>
        <time>2026-06-15T10:37:21.000Z</time>
        <extensions>
          <ns3:TrackPointExtension>
            <ns3:atemp>15.0</ns3:atemp>
          </ns3:TrackPointExtension>
        </extensions>
      </trkpt>
      <trkpt lat="42.5745140947401523590087890625" lon="20.08055987767875194549560546875">
        <ele>1974.4000244140625</ele>
        <time>2026-06-15T10:37:22.000Z</time>
        <extensions>
          <ns3:TrackPointExtension>
            <ns3:atemp>15.0</ns3:atemp>
          </ns3:TrackPointExtension>
        </extensions>
      </trkpt>
      <trkpt lat="42.5745140947401523590087890625" lon="20.08055987767875194549560546875">
        <ele>1974.4000244140625</ele>
        <time>2026-06-15T10:37:23.000Z</time>
        <extensions>
          <ns3:TrackPointExtension>
            <ns3:atemp>15.0</ns3:atemp>
          </ns3:TrackPointExtension>
        </extensions>
      </trkpt>
      <trkpt lat="42.5745140947401523590087890625" lon="20.08055987767875194549560546875">
        <ele>1974.199951171875</ele>
        <time>2026-06-15T10:37:24.000Z</time>
        <extensions>
          <ns3:TrackPointExtension>
            <ns3:atemp>15.0</ns3:atemp>
          </ns3:TrackPointExtension>
        </extensions>
      </trkpt>
      <trkpt lat="42.5745140947401523590087890625" lon="20.08055987767875194549560546875">
        <ele>1974.199951171875</ele>
        <time>2026-06-15T10:37:25.000Z</time>
        <extensions>
          <ns3:TrackPointExtension>
            <ns3:atemp>15.0</ns3:atemp>
          </ns3:TrackPointExtension>
        </extensions>
      </trkpt>
      <trkpt lat="42.5745140947401523590087890625" lon="20.08055987767875194549560546875">
        <ele>1974.199951171875</ele>
        <time>2026-06-15T10:37:26.000Z</time>
        <extensions>
          <ns3:TrackPointExtension>
            <ns3:atemp>15.0</ns3:atemp>
          </ns3:TrackPointExtension>
        </extensions>
      </trkpt>
      <trkpt lat="42.5745140947401523590087890625" lon="20.08055987767875194549560546875">
        <ele>1974.199951171875</ele>
        <time>2026-06-15T10:37:27.000Z</time>
        <extensions>
          <ns3:TrackPointExtension>
            <ns3:atemp>15.0</ns3:atemp>
          </ns3:TrackPointExtension>
        </extensions>
      </trkpt>
      <trkpt lat="42.5745140947401523590087890625" lon="20.08055987767875194549560546875">
        <ele>1974.199951171875</ele>
        <time>2026-06-15T10:37:28.000Z</time>
        <extensions>
          <ns3:TrackPointExtension>
            <ns3:atemp>15.0</ns3:atemp>
          </ns3:TrackPointExtension>
        </extensions>
      </trkpt>
      <trkpt lat="42.5745140947401523590087890625" lon="20.08055987767875194549560546875">
        <ele>1974.199951171875</ele>
        <time>2026-06-15T10:37:29.000Z</time>
        <extensions>
          <ns3:TrackPointExtension>
            <ns3:atemp>15.0</ns3:atemp>
          </ns3:TrackPointExtension>
        </extensions>
      </trkpt>
      <trkpt lat="42.5745140947401523590087890625" lon="20.08055987767875194549560546875">
        <ele>1974.199951171875</ele>
        <time>2026-06-15T10:37:30.000Z</time>
        <extensions>
          <ns3:TrackPointExtension>
            <ns3:atemp>15.0</ns3:atemp>
          </ns3:TrackPointExtension>
        </extensions>
      </trkpt>
      <trkpt lat="42.5745140947401523590087890625" lon="20.08055987767875194549560546875">
        <ele>1974.199951171875</ele>
        <time>2026-06-15T10:37:31.000Z</time>
        <extensions>
          <ns3:TrackPointExtension>
            <ns3:atemp>15.0</ns3:atemp>
          </ns3:TrackPointExtension>
        </extensions>
      </trkpt>
      <trkpt lat="42.5745140947401523590087890625" lon="20.08055987767875194549560546875">
        <ele>1974.199951171875</ele>
        <time>2026-06-15T10:37:32.000Z</time>
        <extensions>
          <ns3:TrackPointExtension>
            <ns3:atemp>15.0</ns3:atemp>
          </ns3:TrackPointExtension>
        </extensions>
      </trkpt>
      <trkpt lat="42.5745140947401523590087890625" lon="20.08055987767875194549560546875">
        <ele>1974.199951171875</ele>
        <time>2026-06-15T10:37:33.000Z</time>
        <extensions>
          <ns3:TrackPointExtension>
            <ns3:atemp>15.0</ns3:atemp>
          </ns3:TrackPointExtension>
        </extensions>
      </trkpt>
      <trkpt lat="42.5745140947401523590087890625" lon="20.08055987767875194549560546875">
        <ele>1974.199951171875</ele>
        <time>2026-06-15T10:37:34.000Z</time>
        <extensions>
          <ns3:TrackPointExtension>
            <ns3:atemp>15.0</ns3:atemp>
          </ns3:TrackPointExtension>
        </extensions>
      </trkpt>
      <trkpt lat="42.5745140947401523590087890625" lon="20.08055987767875194549560546875">
        <ele>1974.199951171875</ele>
        <time>2026-06-15T10:37:35.000Z</time>
        <extensions>
          <ns3:TrackPointExtension>
            <ns3:atemp>15.0</ns3:atemp>
          </ns3:TrackPointExtension>
        </extensions>
      </trkpt>
      <trkpt lat="42.5745140947401523590087890625" lon="20.08055987767875194549560546875">
        <ele>1974.199951171875</ele>
        <time>2026-06-15T10:37:36.000Z</time>
        <extensions>
          <ns3:TrackPointExtension>
            <ns3:atemp>15.0</ns3:atemp>
          </ns3:TrackPointExtension>
        </extensions>
      </trkpt>
      <trkpt lat="42.5745140947401523590087890625" lon="20.08055987767875194549560546875">
        <ele>1974.199951171875</ele>
        <time>2026-06-15T10:37:37.000Z</time>
        <extensions>
          <ns3:TrackPointExtension>
            <ns3:atemp>15.0</ns3:atemp>
          </ns3:TrackPointExtension>
        </extensions>
      </trkpt>
      <trkpt lat="42.5745140947401523590087890625" lon="20.08055987767875194549560546875">
        <ele>1974.199951171875</ele>
        <time>2026-06-15T10:37:38.000Z</time>
        <extensions>
          <ns3:TrackPointExtension>
            <ns3:atemp>15.0</ns3:atemp>
          </ns3:TrackPointExtension>
        </extensions>
      </trkpt>
      <trkpt lat="42.5745140947401523590087890625" lon="20.08055987767875194549560546875">
        <ele>1974.199951171875</ele>
        <time>2026-06-15T10:37:39.000Z</time>
        <extensions>
          <ns3:TrackPointExtension>
            <ns3:atemp>15.0</ns3:atemp>
          </ns3:TrackPointExtension>
        </extensions>
      </trkpt>
      <trkpt lat="42.5745140947401523590087890625" lon="20.08055987767875194549560546875">
        <ele>1974.199951171875</ele>
        <time>2026-06-15T10:37:40.000Z</time>
        <extensions>
          <ns3:TrackPointExtension>
            <ns3:atemp>15.0</ns3:atemp>
          </ns3:TrackPointExtension>
        </extensions>
      </trkpt>
      <trkpt lat="42.5745140947401523590087890625" lon="20.08055987767875194549560546875">
        <ele>1974.199951171875</ele>
        <time>2026-06-15T10:37:41.000Z</time>
        <extensions>
          <ns3:TrackPointExtension>
            <ns3:atemp>15.0</ns3:atemp>
          </ns3:TrackPointExtension>
        </extensions>
      </trkpt>
      <trkpt lat="42.5745140947401523590087890625" lon="20.08055987767875194549560546875">
        <ele>1974.199951171875</ele>
        <time>2026-06-15T10:37:42.000Z</time>
        <extensions>
          <ns3:TrackPointExtension>
            <ns3:atemp>15.0</ns3:atemp>
          </ns3:TrackPointExtension>
        </extensions>
      </trkpt>
      <trkpt lat="42.5745140947401523590087890625" lon="20.08055987767875194549560546875">
        <ele>1974.199951171875</ele>
        <time>2026-06-15T10:37:43.000Z</time>
        <extensions>
          <ns3:TrackPointExtension>
            <ns3:atemp>15.0</ns3:atemp>
          </ns3:TrackPointExtension>
        </extensions>
      </trkpt>
      <trkpt lat="42.5745140947401523590087890625" lon="20.08055987767875194549560546875">
        <ele>1974.199951171875</ele>
        <time>2026-06-15T10:37:44.000Z</time>
        <extensions>
          <ns3:TrackPointExtension>
            <ns3:atemp>15.0</ns3:atemp>
          </ns3:TrackPointExtension>
        </extensions>
      </trkpt>
      <trkpt lat="42.5745140947401523590087890625" lon="20.08055987767875194549560546875">
        <ele>1974.199951171875</ele>
        <time>2026-06-15T10:37:45.000Z</time>
        <extensions>
          <ns3:TrackPointExtension>
            <ns3:atemp>15.0</ns3:atemp>
          </ns3:TrackPointExtension>
        </extensions>
      </trkpt>
      <trkpt lat="42.5745140947401523590087890625" lon="20.08055987767875194549560546875">
        <ele>1974.199951171875</ele>
        <time>2026-06-15T10:37:46.000Z</time>
        <extensions>
          <ns3:TrackPointExtension>
            <ns3:atemp>15.0</ns3:atemp>
          </ns3:TrackPointExtension>
        </extensions>
      </trkpt>
      <trkpt lat="42.5745140947401523590087890625" lon="20.08055987767875194549560546875">
        <ele>1974.199951171875</ele>
        <time>2026-06-15T10:37:47.000Z</time>
        <extensions>
          <ns3:TrackPointExtension>
            <ns3:atemp>15.0</ns3:atemp>
          </ns3:TrackPointExtension>
        </extensions>
      </trkpt>
      <trkpt lat="42.5745140947401523590087890625" lon="20.08055987767875194549560546875">
        <ele>1974.199951171875</ele>
        <time>2026-06-15T10:37:48.000Z</time>
        <extensions>
          <ns3:TrackPointExtension>
            <ns3:atemp>15.0</ns3:atemp>
          </ns3:TrackPointExtension>
        </extensions>
      </trkpt>
      <trkpt lat="42.5745140947401523590087890625" lon="20.08055987767875194549560546875">
        <ele>1974.199951171875</ele>
        <time>2026-06-15T10:37:49.000Z</time>
        <extensions>
          <ns3:TrackPointExtension>
            <ns3:atemp>15.0</ns3:atemp>
          </ns3:TrackPointExtension>
        </extensions>
      </trkpt>
      <trkpt lat="42.5745140947401523590087890625" lon="20.08055987767875194549560546875">
        <ele>1974.199951171875</ele>
        <time>2026-06-15T10:37:50.000Z</time>
        <extensions>
          <ns3:TrackPointExtension>
            <ns3:atemp>15.0</ns3:atemp>
          </ns3:TrackPointExtension>
        </extensions>
      </trkpt>
      <trkpt lat="42.5745140947401523590087890625" lon="20.08055987767875194549560546875">
        <ele>1974.199951171875</ele>
        <time>2026-06-15T10:37:51.000Z</time>
        <extensions>
          <ns3:TrackPointExtension>
            <ns3:atemp>15.0</ns3:atemp>
          </ns3:TrackPointExtension>
        </extensions>
      </trkpt>
      <trkpt lat="42.5745140947401523590087890625" lon="20.08055987767875194549560546875">
        <ele>1974.199951171875</ele>
        <time>2026-06-15T10:37:52.000Z</time>
        <extensions>
          <ns3:TrackPointExtension>
            <ns3:atemp>15.0</ns3:atemp>
          </ns3:TrackPointExtension>
        </extensions>
      </trkpt>
      <trkpt lat="42.5745140947401523590087890625" lon="20.08055987767875194549560546875">
        <ele>1974.199951171875</ele>
        <time>2026-06-15T10:37:53.000Z</time>
        <extensions>
          <ns3:TrackPointExtension>
            <ns3:atemp>15.0</ns3:atemp>
          </ns3:TrackPointExtension>
        </extensions>
      </trkpt>
      <trkpt lat="42.5745140947401523590087890625" lon="20.08055987767875194549560546875">
        <ele>1974.199951171875</ele>
        <time>2026-06-15T10:37:54.000Z</time>
        <extensions>
          <ns3:TrackPointExtension>
            <ns3:atemp>15.0</ns3:atemp>
          </ns3:TrackPointExtension>
        </extensions>
      </trkpt>
      <trkpt lat="42.5745140947401523590087890625" lon="20.08055987767875194549560546875">
        <ele>1974.199951171875</ele>
        <time>2026-06-15T10:37:55.000Z</time>
        <extensions>
          <ns3:TrackPointExtension>
            <ns3:atemp>15.0</ns3:atemp>
          </ns3:TrackPointExtension>
        </extensions>
      </trkpt>
      <trkpt lat="42.5745140947401523590087890625" lon="20.08055987767875194549560546875">
        <ele>1974.199951171875</ele>
        <time>2026-06-15T10:37:56.000Z</time>
        <extensions>
          <ns3:TrackPointExtension>
            <ns3:atemp>15.0</ns3:atemp>
          </ns3:TrackPointExtension>
        </extensions>
      </trkpt>
      <trkpt lat="42.5745140947401523590087890625" lon="20.08055987767875194549560546875">
        <ele>1974.199951171875</ele>
        <time>2026-06-15T10:37:57.000Z</time>
        <extensions>
          <ns3:TrackPointExtension>
            <ns3:atemp>15.0</ns3:atemp>
          </ns3:TrackPointExtension>
        </extensions>
      </trkpt>
      <trkpt lat="42.5745140947401523590087890625" lon="20.08055987767875194549560546875">
        <ele>1974.199951171875</ele>
        <time>2026-06-15T10:37:58.000Z</time>
        <extensions>
          <ns3:TrackPointExtension>
            <ns3:atemp>15.0</ns3:atemp>
          </ns3:TrackPointExtension>
        </extensions>
      </trkpt>
      <trkpt lat="42.5745140947401523590087890625" lon="20.08055987767875194549560546875">
        <ele>1974.199951171875</ele>
        <time>2026-06-15T10:37:59.000Z</time>
        <extensions>
          <ns3:TrackPointExtension>
            <ns3:atemp>15.0</ns3:atemp>
          </ns3:TrackPointExtension>
        </extensions>
      </trkpt>
      <trkpt lat="42.5745140947401523590087890625" lon="20.08055987767875194549560546875">
        <ele>1974.199951171875</ele>
        <time>2026-06-15T10:38:00.000Z</time>
        <extensions>
          <ns3:TrackPointExtension>
            <ns3:atemp>15.0</ns3:atemp>
          </ns3:TrackPointExtension>
        </extensions>
      </trkpt>
      <trkpt lat="42.5745140947401523590087890625" lon="20.08055987767875194549560546875">
        <ele>1974.199951171875</ele>
        <time>2026-06-15T10:38:01.000Z</time>
        <extensions>
          <ns3:TrackPointExtension>
            <ns3:atemp>15.0</ns3:atemp>
          </ns3:TrackPointExtension>
        </extensions>
      </trkpt>
      <trkpt lat="42.5745140947401523590087890625" lon="20.08055987767875194549560546875">
        <ele>1974.199951171875</ele>
        <time>2026-06-15T10:38:02.000Z</time>
        <extensions>
          <ns3:TrackPointExtension>
            <ns3:atemp>15.0</ns3:atemp>
          </ns3:TrackPointExtension>
        </extensions>
      </trkpt>
      <trkpt lat="42.5745140947401523590087890625" lon="20.08055987767875194549560546875">
        <ele>1974.199951171875</ele>
        <time>2026-06-15T10:38:03.000Z</time>
        <extensions>
          <ns3:TrackPointExtension>
            <ns3:atemp>15.0</ns3:atemp>
          </ns3:TrackPointExtension>
        </extensions>
      </trkpt>
      <trkpt lat="42.5745140947401523590087890625" lon="20.08055987767875194549560546875">
        <ele>1974.199951171875</ele>
        <time>2026-06-15T10:38:04.000Z</time>
        <extensions>
          <ns3:TrackPointExtension>
            <ns3:atemp>15.0</ns3:atemp>
          </ns3:TrackPointExtension>
        </extensions>
      </trkpt>
      <trkpt lat="42.5745140947401523590087890625" lon="20.08055987767875194549560546875">
        <ele>1974.199951171875</ele>
        <time>2026-06-15T10:38:05.000Z</time>
        <extensions>
          <ns3:TrackPointExtension>
            <ns3:atemp>15.0</ns3:atemp>
          </ns3:TrackPointExtension>
        </extensions>
      </trkpt>
      <trkpt lat="42.5745140947401523590087890625" lon="20.08055987767875194549560546875">
        <ele>1974.199951171875</ele>
        <time>2026-06-15T10:38:06.000Z</time>
        <extensions>
          <ns3:TrackPointExtension>
            <ns3:atemp>15.0</ns3:atemp>
          </ns3:TrackPointExtension>
        </extensions>
      </trkpt>
      <trkpt lat="42.5745140947401523590087890625" lon="20.08055987767875194549560546875">
        <ele>1974.199951171875</ele>
        <time>2026-06-15T10:38:07.000Z</time>
        <extensions>
          <ns3:TrackPointExtension>
            <ns3:atemp>15.0</ns3:atemp>
          </ns3:TrackPointExtension>
        </extensions>
      </trkpt>
      <trkpt lat="42.5745140947401523590087890625" lon="20.08055987767875194549560546875">
        <ele>1974.199951171875</ele>
        <time>2026-06-15T10:38:08.000Z</time>
        <extensions>
          <ns3:TrackPointExtension>
            <ns3:atemp>15.0</ns3:atemp>
          </ns3:TrackPointExtension>
        </extensions>
      </trkpt>
      <trkpt lat="42.5745140947401523590087890625" lon="20.08055987767875194549560546875">
        <ele>1974.199951171875</ele>
        <time>2026-06-15T10:38:09.000Z</time>
        <extensions>
          <ns3:TrackPointExtension>
            <ns3:atemp>15.0</ns3:atemp>
          </ns3:TrackPointExtension>
        </extensions>
      </trkpt>
      <trkpt lat="42.5745140947401523590087890625" lon="20.08055987767875194549560546875">
        <ele>1974.199951171875</ele>
        <time>2026-06-15T10:38:10.000Z</time>
        <extensions>
          <ns3:TrackPointExtension>
            <ns3:atemp>15.0</ns3:atemp>
          </ns3:TrackPointExtension>
        </extensions>
      </trkpt>
      <trkpt lat="42.5745140947401523590087890625" lon="20.08055987767875194549560546875">
        <ele>1974.199951171875</ele>
        <time>2026-06-15T10:38:11.000Z</time>
        <extensions>
          <ns3:TrackPointExtension>
            <ns3:atemp>15.0</ns3:atemp>
          </ns3:TrackPointExtension>
        </extensions>
      </trkpt>
      <trkpt lat="42.5745140947401523590087890625" lon="20.08055987767875194549560546875">
        <ele>1974.199951171875</ele>
        <time>2026-06-15T10:38:12.000Z</time>
        <extensions>
          <ns3:TrackPointExtension>
            <ns3:atemp>15.0</ns3:atemp>
          </ns3:TrackPointExtension>
        </extensions>
      </trkpt>
      <trkpt lat="42.5745140947401523590087890625" lon="20.08055987767875194549560546875">
        <ele>1974.199951171875</ele>
        <time>2026-06-15T10:38:13.000Z</time>
        <extensions>
          <ns3:TrackPointExtension>
            <ns3:atemp>15.0</ns3:atemp>
          </ns3:TrackPointExtension>
        </extensions>
      </trkpt>
      <trkpt lat="42.5745140947401523590087890625" lon="20.08055987767875194549560546875">
        <ele>1974.199951171875</ele>
        <time>2026-06-15T10:38:14.000Z</time>
        <extensions>
          <ns3:TrackPointExtension>
            <ns3:atemp>15.0</ns3:atemp>
          </ns3:TrackPointExtension>
        </extensions>
      </trkpt>
      <trkpt lat="42.5745140947401523590087890625" lon="20.08055987767875194549560546875">
        <ele>1974.199951171875</ele>
        <time>2026-06-15T10:38:15.000Z</time>
        <extensions>
          <ns3:TrackPointExtension>
            <ns3:atemp>15.0</ns3:atemp>
          </ns3:TrackPointExtension>
        </extensions>
      </trkpt>
      <trkpt lat="42.5745140947401523590087890625" lon="20.08055987767875194549560546875">
        <ele>1974.199951171875</ele>
        <time>2026-06-15T10:38:16.000Z</time>
        <extensions>
          <ns3:TrackPointExtension>
            <ns3:atemp>15.0</ns3:atemp>
          </ns3:TrackPointExtension>
        </extensions>
      </trkpt>
      <trkpt lat="42.5745140947401523590087890625" lon="20.08055987767875194549560546875">
        <ele>1974.199951171875</ele>
        <time>2026-06-15T10:38:17.000Z</time>
        <extensions>
          <ns3:TrackPointExtension>
            <ns3:atemp>15.0</ns3:atemp>
          </ns3:TrackPointExtension>
        </extensions>
      </trkpt>
      <trkpt lat="42.5745140947401523590087890625" lon="20.08055987767875194549560546875">
        <ele>1974.199951171875</ele>
        <time>2026-06-15T10:38:18.000Z</time>
        <extensions>
          <ns3:TrackPointExtension>
            <ns3:atemp>15.0</ns3:atemp>
          </ns3:TrackPointExtension>
        </extensions>
      </trkpt>
      <trkpt lat="42.5745140947401523590087890625" lon="20.08055987767875194549560546875">
        <ele>1974.199951171875</ele>
        <time>2026-06-15T10:38:19.000Z</time>
        <extensions>
          <ns3:TrackPointExtension>
            <ns3:atemp>15.0</ns3:atemp>
          </ns3:TrackPointExtension>
        </extensions>
      </trkpt>
      <trkpt lat="42.5745140947401523590087890625" lon="20.08055987767875194549560546875">
        <ele>1974.199951171875</ele>
        <time>2026-06-15T10:38:20.000Z</time>
        <extensions>
          <ns3:TrackPointExtension>
            <ns3:atemp>15.0</ns3:atemp>
          </ns3:TrackPointExtension>
        </extensions>
      </trkpt>
      <trkpt lat="42.5745140947401523590087890625" lon="20.08055987767875194549560546875">
        <ele>1974.199951171875</ele>
        <time>2026-06-15T10:38:21.000Z</time>
        <extensions>
          <ns3:TrackPointExtension>
            <ns3:atemp>15.0</ns3:atemp>
          </ns3:TrackPointExtension>
        </extensions>
      </trkpt>
      <trkpt lat="42.5745140947401523590087890625" lon="20.08055987767875194549560546875">
        <ele>1974.199951171875</ele>
        <time>2026-06-15T10:38:22.000Z</time>
        <extensions>
          <ns3:TrackPointExtension>
            <ns3:atemp>15.0</ns3:atemp>
          </ns3:TrackPointExtension>
        </extensions>
      </trkpt>
      <trkpt lat="42.5745140947401523590087890625" lon="20.08055987767875194549560546875">
        <ele>1974.199951171875</ele>
        <time>2026-06-15T10:38:23.000Z</time>
        <extensions>
          <ns3:TrackPointExtension>
            <ns3:atemp>15.0</ns3:atemp>
          </ns3:TrackPointExtension>
        </extensions>
      </trkpt>
      <trkpt lat="42.5745140947401523590087890625" lon="20.08055987767875194549560546875">
        <ele>1974.199951171875</ele>
        <time>2026-06-15T10:38:24.000Z</time>
        <extensions>
          <ns3:TrackPointExtension>
            <ns3:atemp>15.0</ns3:atemp>
          </ns3:TrackPointExtension>
        </extensions>
      </trkpt>
      <trkpt lat="42.5745140947401523590087890625" lon="20.08055987767875194549560546875">
        <ele>1974.199951171875</ele>
        <time>2026-06-15T10:38:25.000Z</time>
        <extensions>
          <ns3:TrackPointExtension>
            <ns3:atemp>15.0</ns3:atemp>
          </ns3:TrackPointExtension>
        </extensions>
      </trkpt>
      <trkpt lat="42.5745140947401523590087890625" lon="20.08055987767875194549560546875">
        <ele>1974.199951171875</ele>
        <time>2026-06-15T10:38:26.000Z</time>
        <extensions>
          <ns3:TrackPointExtension>
            <ns3:atemp>15.0</ns3:atemp>
          </ns3:TrackPointExtension>
        </extensions>
      </trkpt>
      <trkpt lat="42.5745140947401523590087890625" lon="20.08055987767875194549560546875">
        <ele>1974.199951171875</ele>
        <time>2026-06-15T10:38:27.000Z</time>
        <extensions>
          <ns3:TrackPointExtension>
            <ns3:atemp>15.0</ns3:atemp>
          </ns3:TrackPointExtension>
        </extensions>
      </trkpt>
      <trkpt lat="42.5745140947401523590087890625" lon="20.08055987767875194549560546875">
        <ele>1974.199951171875</ele>
        <time>2026-06-15T10:38:28.000Z</time>
        <extensions>
          <ns3:TrackPointExtension>
            <ns3:atemp>15.0</ns3:atemp>
          </ns3:TrackPointExtension>
        </extensions>
      </trkpt>
      <trkpt lat="42.5745140947401523590087890625" lon="20.08055987767875194549560546875">
        <ele>1974.199951171875</ele>
        <time>2026-06-15T10:38:29.000Z</time>
        <extensions>
          <ns3:TrackPointExtension>
            <ns3:atemp>15.0</ns3:atemp>
          </ns3:TrackPointExtension>
        </extensions>
      </trkpt>
      <trkpt lat="42.5745140947401523590087890625" lon="20.08055987767875194549560546875">
        <ele>1974.199951171875</ele>
        <time>2026-06-15T10:38:30.000Z</time>
        <extensions>
          <ns3:TrackPointExtension>
            <ns3:atemp>15.0</ns3:atemp>
          </ns3:TrackPointExtension>
        </extensions>
      </trkpt>
      <trkpt lat="42.5745140947401523590087890625" lon="20.08055987767875194549560546875">
        <ele>1974.199951171875</ele>
        <time>2026-06-15T10:38:31.000Z</time>
        <extensions>
          <ns3:TrackPointExtension>
            <ns3:atemp>15.0</ns3:atemp>
          </ns3:TrackPointExtension>
        </extensions>
      </trkpt>
      <trkpt lat="42.5745140947401523590087890625" lon="20.08055987767875194549560546875">
        <ele>1974.199951171875</ele>
        <time>2026-06-15T10:38:32.000Z</time>
        <extensions>
          <ns3:TrackPointExtension>
            <ns3:atemp>15.0</ns3:atemp>
          </ns3:TrackPointExtension>
        </extensions>
      </trkpt>
      <trkpt lat="42.5745140947401523590087890625" lon="20.08055987767875194549560546875">
        <ele>1974.199951171875</ele>
        <time>2026-06-15T10:38:33.000Z</time>
        <extensions>
          <ns3:TrackPointExtension>
            <ns3:atemp>15.0</ns3:atemp>
          </ns3:TrackPointExtension>
        </extensions>
      </trkpt>
      <trkpt lat="42.5745140947401523590087890625" lon="20.08055987767875194549560546875">
        <ele>1974.199951171875</ele>
        <time>2026-06-15T10:38:34.000Z</time>
        <extensions>
          <ns3:TrackPointExtension>
            <ns3:atemp>15.0</ns3:atemp>
          </ns3:TrackPointExtension>
        </extensions>
      </trkpt>
      <trkpt lat="42.5745140947401523590087890625" lon="20.08055987767875194549560546875">
        <ele>1974.199951171875</ele>
        <time>2026-06-15T10:38:35.000Z</time>
        <extensions>
          <ns3:TrackPointExtension>
            <ns3:atemp>15.0</ns3:atemp>
          </ns3:TrackPointExtension>
        </extensions>
      </trkpt>
      <trkpt lat="42.5745140947401523590087890625" lon="20.08055987767875194549560546875">
        <ele>1974.199951171875</ele>
        <time>2026-06-15T10:38:36.000Z</time>
        <extensions>
          <ns3:TrackPointExtension>
            <ns3:atemp>15.0</ns3:atemp>
          </ns3:TrackPointExtension>
        </extensions>
      </trkpt>
      <trkpt lat="42.5745140947401523590087890625" lon="20.08055987767875194549560546875">
        <ele>1974.199951171875</ele>
        <time>2026-06-15T10:38:37.000Z</time>
        <extensions>
          <ns3:TrackPointExtension>
            <ns3:atemp>15.0</ns3:atemp>
          </ns3:TrackPointExtension>
        </extensions>
      </trkpt>
      <trkpt lat="42.5745140947401523590087890625" lon="20.08055987767875194549560546875">
        <ele>1974.199951171875</ele>
        <time>2026-06-15T10:38:38.000Z</time>
        <extensions>
          <ns3:TrackPointExtension>
            <ns3:atemp>15.0</ns3:atemp>
          </ns3:TrackPointExtension>
        </extensions>
      </trkpt>
      <trkpt lat="42.5745140947401523590087890625" lon="20.08055987767875194549560546875">
        <ele>1974.199951171875</ele>
        <time>2026-06-15T10:38:39.000Z</time>
        <extensions>
          <ns3:TrackPointExtension>
            <ns3:atemp>15.0</ns3:atemp>
          </ns3:TrackPointExtension>
        </extensions>
      </trkpt>
      <trkpt lat="42.5745140947401523590087890625" lon="20.08055987767875194549560546875">
        <ele>1974.199951171875</ele>
        <time>2026-06-15T10:38:40.000Z</time>
        <extensions>
          <ns3:TrackPointExtension>
            <ns3:atemp>15.0</ns3:atemp>
          </ns3:TrackPointExtension>
        </extensions>
      </trkpt>
      <trkpt lat="42.5745140947401523590087890625" lon="20.08055987767875194549560546875">
        <ele>1974.199951171875</ele>
        <time>2026-06-15T10:38:41.000Z</time>
        <extensions>
          <ns3:TrackPointExtension>
            <ns3:atemp>15.0</ns3:atemp>
          </ns3:TrackPointExtension>
        </extensions>
      </trkpt>
      <trkpt lat="42.5745140947401523590087890625" lon="20.08055987767875194549560546875">
        <ele>1974.199951171875</ele>
        <time>2026-06-15T10:38:42.000Z</time>
        <extensions>
          <ns3:TrackPointExtension>
            <ns3:atemp>15.0</ns3:atemp>
          </ns3:TrackPointExtension>
        </extensions>
      </trkpt>
      <trkpt lat="42.5745140947401523590087890625" lon="20.08055987767875194549560546875">
        <ele>1974.199951171875</ele>
        <time>2026-06-15T10:38:43.000Z</time>
        <extensions>
          <ns3:TrackPointExtension>
            <ns3:atemp>15.0</ns3:atemp>
          </ns3:TrackPointExtension>
        </extensions>
      </trkpt>
      <trkpt lat="42.5745140947401523590087890625" lon="20.08055987767875194549560546875">
        <ele>1974.199951171875</ele>
        <time>2026-06-15T10:38:44.000Z</time>
        <extensions>
          <ns3:TrackPointExtension>
            <ns3:atemp>15.0</ns3:atemp>
          </ns3:TrackPointExtension>
        </extensions>
      </trkpt>
      <trkpt lat="42.5745140947401523590087890625" lon="20.08055987767875194549560546875">
        <ele>1974.199951171875</ele>
        <time>2026-06-15T10:38:45.000Z</time>
        <extensions>
          <ns3:TrackPointExtension>
            <ns3:atemp>15.0</ns3:atemp>
          </ns3:TrackPointExtension>
        </extensions>
      </trkpt>
      <trkpt lat="42.5745140947401523590087890625" lon="20.08055987767875194549560546875">
        <ele>1974.199951171875</ele>
        <time>2026-06-15T10:38:46.000Z</time>
        <extensions>
          <ns3:TrackPointExtension>
            <ns3:atemp>15.0</ns3:atemp>
          </ns3:TrackPointExtension>
        </extensions>
      </trkpt>
      <trkpt lat="42.5745140947401523590087890625" lon="20.08055987767875194549560546875">
        <ele>1974.199951171875</ele>
        <time>2026-06-15T10:38:47.000Z</time>
        <extensions>
          <ns3:TrackPointExtension>
            <ns3:atemp>15.0</ns3:atemp>
          </ns3:TrackPointExtension>
        </extensions>
      </trkpt>
      <trkpt lat="42.5745140947401523590087890625" lon="20.08055987767875194549560546875">
        <ele>1974.199951171875</ele>
        <time>2026-06-15T10:38:48.000Z</time>
        <extensions>
          <ns3:TrackPointExtension>
            <ns3:atemp>15.0</ns3:atemp>
          </ns3:TrackPointExtension>
        </extensions>
      </trkpt>
      <trkpt lat="42.5745140947401523590087890625" lon="20.08055987767875194549560546875">
        <ele>1974.199951171875</ele>
        <time>2026-06-15T10:38:49.000Z</time>
        <extensions>
          <ns3:TrackPointExtension>
            <ns3:atemp>15.0</ns3:atemp>
          </ns3:TrackPointExtension>
        </extensions>
      </trkpt>
      <trkpt lat="42.5745140947401523590087890625" lon="20.08055987767875194549560546875">
        <ele>1974.199951171875</ele>
        <time>2026-06-15T10:38:50.000Z</time>
        <extensions>
          <ns3:TrackPointExtension>
            <ns3:atemp>15.0</ns3:atemp>
          </ns3:TrackPointExtension>
        </extensions>
      </trkpt>
      <trkpt lat="42.5745140947401523590087890625" lon="20.08055987767875194549560546875">
        <ele>1974.199951171875</ele>
        <time>2026-06-15T10:38:51.000Z</time>
        <extensions>
          <ns3:TrackPointExtension>
            <ns3:atemp>15.0</ns3:atemp>
          </ns3:TrackPointExtension>
        </extensions>
      </trkpt>
      <trkpt lat="42.5745140947401523590087890625" lon="20.08055987767875194549560546875">
        <ele>1974.199951171875</ele>
        <time>2026-06-15T10:38:52.000Z</time>
        <extensions>
          <ns3:TrackPointExtension>
            <ns3:atemp>15.0</ns3:atemp>
          </ns3:TrackPointExtension>
        </extensions>
      </trkpt>
      <trkpt lat="42.5745140947401523590087890625" lon="20.08055987767875194549560546875">
        <ele>1974.199951171875</ele>
        <time>2026-06-15T10:38:53.000Z</time>
        <extensions>
          <ns3:TrackPointExtension>
            <ns3:atemp>15.0</ns3:atemp>
          </ns3:TrackPointExtension>
        </extensions>
      </trkpt>
      <trkpt lat="42.5745140947401523590087890625" lon="20.08055987767875194549560546875">
        <ele>1974.199951171875</ele>
        <time>2026-06-15T10:38:54.000Z</time>
        <extensions>
          <ns3:TrackPointExtension>
            <ns3:atemp>15.0</ns3:atemp>
          </ns3:TrackPointExtension>
        </extensions>
      </trkpt>
      <trkpt lat="42.5745140947401523590087890625" lon="20.08055987767875194549560546875">
        <ele>1974.199951171875</ele>
        <time>2026-06-15T10:38:55.000Z</time>
        <extensions>
          <ns3:TrackPointExtension>
            <ns3:atemp>15.0</ns3:atemp>
          </ns3:TrackPointExtension>
        </extensions>
      </trkpt>
      <trkpt lat="42.57451686076819896697998046875" lon="20.08055183105170726776123046875">
        <ele>1974.199951171875</ele>
        <time>2026-06-15T10:38:56.000Z</time>
        <extensions>
          <ns3:TrackPointExtension>
            <ns3:atemp>15.0</ns3:atemp>
          </ns3:TrackPointExtension>
        </extensions>
      </trkpt>
      <trkpt lat="42.5745127536356449127197265625" lon="20.08055292069911956787109375">
        <ele>1974.199951171875</ele>
        <time>2026-06-15T10:38:57.000Z</time>
        <extensions>
          <ns3:TrackPointExtension>
            <ns3:atemp>15.0</ns3:atemp>
          </ns3:TrackPointExtension>
        </extensions>
      </trkpt>
      <trkpt lat="42.5745140947401523590087890625" lon="20.08055987767875194549560546875">
        <ele>1974.199951171875</ele>
        <time>2026-06-15T10:38:58.000Z</time>
        <extensions>
          <ns3:TrackPointExtension>
            <ns3:atemp>15.0</ns3:atemp>
          </ns3:TrackPointExtension>
        </extensions>
      </trkpt>
      <trkpt lat="42.5745140947401523590087890625" lon="20.08055987767875194549560546875">
        <ele>1974.199951171875</ele>
        <time>2026-06-15T10:38:59.000Z</time>
        <extensions>
          <ns3:TrackPointExtension>
            <ns3:atemp>15.0</ns3:atemp>
          </ns3:TrackPointExtension>
        </extensions>
      </trkpt>
      <trkpt lat="42.5745140947401523590087890625" lon="20.08055987767875194549560546875">
        <ele>1974.199951171875</ele>
        <time>2026-06-15T10:39:00.000Z</time>
        <extensions>
          <ns3:TrackPointExtension>
            <ns3:atemp>15.0</ns3:atemp>
          </ns3:TrackPointExtension>
        </extensions>
      </trkpt>
      <trkpt lat="42.5745140947401523590087890625" lon="20.08055987767875194549560546875">
        <ele>1974.199951171875</ele>
        <time>2026-06-15T10:39:01.000Z</time>
        <extensions>
          <ns3:TrackPointExtension>
            <ns3:atemp>15.0</ns3:atemp>
          </ns3:TrackPointExtension>
        </extensions>
      </trkpt>
      <trkpt lat="42.5745140947401523590087890625" lon="20.08055987767875194549560546875">
        <ele>1974.199951171875</ele>
        <time>2026-06-15T10:39:02.000Z</time>
        <extensions>
          <ns3:TrackPointExtension>
            <ns3:atemp>15.0</ns3:atemp>
          </ns3:TrackPointExtension>
        </extensions>
      </trkpt>
      <trkpt lat="42.5745140947401523590087890625" lon="20.08055987767875194549560546875">
        <ele>1974.199951171875</ele>
        <time>2026-06-15T10:39:03.000Z</time>
        <extensions>
          <ns3:TrackPointExtension>
            <ns3:atemp>15.0</ns3:atemp>
          </ns3:TrackPointExtension>
        </extensions>
      </trkpt>
      <trkpt lat="42.5745140947401523590087890625" lon="20.08055987767875194549560546875">
        <ele>1974.199951171875</ele>
        <time>2026-06-15T10:39:04.000Z</time>
        <extensions>
          <ns3:TrackPointExtension>
            <ns3:atemp>15.0</ns3:atemp>
          </ns3:TrackPointExtension>
        </extensions>
      </trkpt>
      <trkpt lat="42.5745140947401523590087890625" lon="20.08055987767875194549560546875">
        <ele>1974.199951171875</ele>
        <time>2026-06-15T10:39:05.000Z</time>
        <extensions>
          <ns3:TrackPointExtension>
            <ns3:atemp>15.0</ns3:atemp>
          </ns3:TrackPointExtension>
        </extensions>
      </trkpt>
      <trkpt lat="42.5745140947401523590087890625" lon="20.08055987767875194549560546875">
        <ele>1974.199951171875</ele>
        <time>2026-06-15T10:39:06.000Z</time>
        <extensions>
          <ns3:TrackPointExtension>
            <ns3:atemp>15.0</ns3:atemp>
          </ns3:TrackPointExtension>
        </extensions>
      </trkpt>
      <trkpt lat="42.5745140947401523590087890625" lon="20.08055987767875194549560546875">
        <ele>1974.199951171875</ele>
        <time>2026-06-15T10:39:07.000Z</time>
        <extensions>
          <ns3:TrackPointExtension>
            <ns3:atemp>15.0</ns3:atemp>
          </ns3:TrackPointExtension>
        </extensions>
      </trkpt>
      <trkpt lat="42.5745140947401523590087890625" lon="20.08055987767875194549560546875">
        <ele>1974.199951171875</ele>
        <time>2026-06-15T10:39:08.000Z</time>
        <extensions>
          <ns3:TrackPointExtension>
            <ns3:atemp>15.0</ns3:atemp>
          </ns3:TrackPointExtension>
        </extensions>
      </trkpt>
      <trkpt lat="42.5745140947401523590087890625" lon="20.08055987767875194549560546875">
        <ele>1974.199951171875</ele>
        <time>2026-06-15T10:39:09.000Z</time>
        <extensions>
          <ns3:TrackPointExtension>
            <ns3:atemp>15.0</ns3:atemp>
          </ns3:TrackPointExtension>
        </extensions>
      </trkpt>
      <trkpt lat="42.57450981996953487396240234375" lon="20.08055266924202442169189453125">
        <ele>1974.199951171875</ele>
        <time>2026-06-15T10:39:10.000Z</time>
        <extensions>
          <ns3:TrackPointExtension>
            <ns3:atemp>15.0</ns3:atemp>
          </ns3:TrackPointExtension>
        </extensions>
      </trkpt>
      <trkpt lat="42.574503533542156219482421875" lon="20.08054696954786777496337890625">
        <ele>1974.199951171875</ele>
        <time>2026-06-15T10:39:11.000Z</time>
        <extensions>
          <ns3:TrackPointExtension>
            <ns3:atemp>15.0</ns3:atemp>
          </ns3:TrackPointExtension>
        </extensions>
      </trkpt>
      <trkpt lat="42.5745140947401523590087890625" lon="20.08055987767875194549560546875">
        <ele>1974.199951171875</ele>
        <time>2026-06-15T10:39:12.000Z</time>
        <extensions>
          <ns3:TrackPointExtension>
            <ns3:atemp>15.0</ns3:atemp>
          </ns3:TrackPointExtension>
        </extensions>
      </trkpt>
      <trkpt lat="42.5745140947401523590087890625" lon="20.08055987767875194549560546875">
        <ele>1974.199951171875</ele>
        <time>2026-06-15T10:39:13.000Z</time>
        <extensions>
          <ns3:TrackPointExtension>
            <ns3:atemp>15.0</ns3:atemp>
          </ns3:TrackPointExtension>
        </extensions>
      </trkpt>
      <trkpt lat="42.5745140947401523590087890625" lon="20.08055987767875194549560546875">
        <ele>1974.199951171875</ele>
        <time>2026-06-15T10:39:14.000Z</time>
        <extensions>
          <ns3:TrackPointExtension>
            <ns3:atemp>15.0</ns3:atemp>
          </ns3:TrackPointExtension>
        </extensions>
      </trkpt>
      <trkpt lat="42.5745140947401523590087890625" lon="20.08055987767875194549560546875">
        <ele>1974.199951171875</ele>
        <time>2026-06-15T10:39:15.000Z</time>
        <extensions>
          <ns3:TrackPointExtension>
            <ns3:atemp>15.0</ns3:atemp>
          </ns3:TrackPointExtension>
        </extensions>
      </trkpt>
      <trkpt lat="42.5745140947401523590087890625" lon="20.08055987767875194549560546875">
        <ele>1974.199951171875</ele>
        <time>2026-06-15T10:39:16.000Z</time>
        <extensions>
          <ns3:TrackPointExtension>
            <ns3:atemp>15.0</ns3:atemp>
          </ns3:TrackPointExtension>
        </extensions>
      </trkpt>
      <trkpt lat="42.5745140947401523590087890625" lon="20.08055987767875194549560546875">
        <ele>1974.199951171875</ele>
        <time>2026-06-15T10:39:17.000Z</time>
        <extensions>
          <ns3:TrackPointExtension>
            <ns3:atemp>15.0</ns3:atemp>
          </ns3:TrackPointExtension>
        </extensions>
      </trkpt>
      <trkpt lat="42.5745140947401523590087890625" lon="20.08055987767875194549560546875">
        <ele>1974.199951171875</ele>
        <time>2026-06-15T10:39:18.000Z</time>
        <extensions>
          <ns3:TrackPointExtension>
            <ns3:atemp>15.0</ns3:atemp>
          </ns3:TrackPointExtension>
        </extensions>
      </trkpt>
      <trkpt lat="42.5745140947401523590087890625" lon="20.08055987767875194549560546875">
        <ele>1974.199951171875</ele>
        <time>2026-06-15T10:39:19.000Z</time>
        <extensions>
          <ns3:TrackPointExtension>
            <ns3:atemp>15.0</ns3:atemp>
          </ns3:TrackPointExtension>
        </extensions>
      </trkpt>
      <trkpt lat="42.5745140947401523590087890625" lon="20.08055987767875194549560546875">
        <ele>1974.199951171875</ele>
        <time>2026-06-15T10:39:20.000Z</time>
        <extensions>
          <ns3:TrackPointExtension>
            <ns3:atemp>15.0</ns3:atemp>
          </ns3:TrackPointExtension>
        </extensions>
      </trkpt>
      <trkpt lat="42.5745140947401523590087890625" lon="20.08055987767875194549560546875">
        <ele>1974.199951171875</ele>
        <time>2026-06-15T10:39:21.000Z</time>
        <extensions>
          <ns3:TrackPointExtension>
            <ns3:atemp>15.0</ns3:atemp>
          </ns3:TrackPointExtension>
        </extensions>
      </trkpt>
      <trkpt lat="42.5745140947401523590087890625" lon="20.08055987767875194549560546875">
        <ele>1974.199951171875</ele>
        <time>2026-06-15T10:39:22.000Z</time>
        <extensions>
          <ns3:TrackPointExtension>
            <ns3:atemp>15.0</ns3:atemp>
          </ns3:TrackPointExtension>
        </extensions>
      </trkpt>
      <trkpt lat="42.5745140947401523590087890625" lon="20.08055987767875194549560546875">
        <ele>1974.199951171875</ele>
        <time>2026-06-15T10:39:23.000Z</time>
        <extensions>
          <ns3:TrackPointExtension>
            <ns3:atemp>15.0</ns3:atemp>
          </ns3:TrackPointExtension>
        </extensions>
      </trkpt>
      <trkpt lat="42.5745140947401523590087890625" lon="20.08055987767875194549560546875">
        <ele>1974.199951171875</ele>
        <time>2026-06-15T10:39:24.000Z</time>
        <extensions>
          <ns3:TrackPointExtension>
            <ns3:atemp>15.0</ns3:atemp>
          </ns3:TrackPointExtension>
        </extensions>
      </trkpt>
      <trkpt lat="42.5745140947401523590087890625" lon="20.08055987767875194549560546875">
        <ele>1974.199951171875</ele>
        <time>2026-06-15T10:39:25.000Z</time>
        <extensions>
          <ns3:TrackPointExtension>
            <ns3:atemp>15.0</ns3:atemp>
          </ns3:TrackPointExtension>
        </extensions>
      </trkpt>
      <trkpt lat="42.5745140947401523590087890625" lon="20.08055987767875194549560546875">
        <ele>1974.199951171875</ele>
        <time>2026-06-15T10:39:26.000Z</time>
        <extensions>
          <ns3:TrackPointExtension>
            <ns3:atemp>15.0</ns3:atemp>
          </ns3:TrackPointExtension>
        </extensions>
      </trkpt>
      <trkpt lat="42.5745140947401523590087890625" lon="20.08055987767875194549560546875">
        <ele>1974.199951171875</ele>
        <time>2026-06-15T10:39:27.000Z</time>
        <extensions>
          <ns3:TrackPointExtension>
            <ns3:atemp>15.0</ns3:atemp>
          </ns3:TrackPointExtension>
        </extensions>
      </trkpt>
      <trkpt lat="42.5745140947401523590087890625" lon="20.08055987767875194549560546875">
        <ele>1974.199951171875</ele>
        <time>2026-06-15T10:39:28.000Z</time>
        <extensions>
          <ns3:TrackPointExtension>
            <ns3:atemp>15.0</ns3:atemp>
          </ns3:TrackPointExtension>
        </extensions>
      </trkpt>
      <trkpt lat="42.5745140947401523590087890625" lon="20.08055987767875194549560546875">
        <ele>1974.199951171875</ele>
        <time>2026-06-15T10:39:29.000Z</time>
        <extensions>
          <ns3:TrackPointExtension>
            <ns3:atemp>15.0</ns3:atemp>
          </ns3:TrackPointExtension>
        </extensions>
      </trkpt>
      <trkpt lat="42.5745140947401523590087890625" lon="20.08055987767875194549560546875">
        <ele>1974.199951171875</ele>
        <time>2026-06-15T10:39:30.000Z</time>
        <extensions>
          <ns3:TrackPointExtension>
            <ns3:atemp>15.0</ns3:atemp>
          </ns3:TrackPointExtension>
        </extensions>
      </trkpt>
      <trkpt lat="42.5745140947401523590087890625" lon="20.08055987767875194549560546875">
        <ele>1974.199951171875</ele>
        <time>2026-06-15T10:39:31.000Z</time>
        <extensions>
          <ns3:TrackPointExtension>
            <ns3:atemp>15.0</ns3:atemp>
          </ns3:TrackPointExtension>
        </extensions>
      </trkpt>
      <trkpt lat="42.5745140947401523590087890625" lon="20.08055987767875194549560546875">
        <ele>1974.199951171875</ele>
        <time>2026-06-15T10:39:32.000Z</time>
        <extensions>
          <ns3:TrackPointExtension>
            <ns3:atemp>15.0</ns3:atemp>
          </ns3:TrackPointExtension>
        </extensions>
      </trkpt>
      <trkpt lat="42.5745140947401523590087890625" lon="20.08055987767875194549560546875">
        <ele>1974.199951171875</ele>
        <time>2026-06-15T10:39:33.000Z</time>
        <extensions>
          <ns3:TrackPointExtension>
            <ns3:atemp>15.0</ns3:atemp>
          </ns3:TrackPointExtension>
        </extensions>
      </trkpt>
      <trkpt lat="42.5745140947401523590087890625" lon="20.08055987767875194549560546875">
        <ele>1974.199951171875</ele>
        <time>2026-06-15T10:39:34.000Z</time>
        <extensions>
          <ns3:TrackPointExtension>
            <ns3:atemp>15.0</ns3:atemp>
          </ns3:TrackPointExtension>
        </extensions>
      </trkpt>
      <trkpt lat="42.5745140947401523590087890625" lon="20.08055987767875194549560546875">
        <ele>1974.199951171875</ele>
        <time>2026-06-15T10:39:35.000Z</time>
        <extensions>
          <ns3:TrackPointExtension>
            <ns3:atemp>15.0</ns3:atemp>
          </ns3:TrackPointExtension>
        </extensions>
      </trkpt>
      <trkpt lat="42.5745140947401523590087890625" lon="20.08055987767875194549560546875">
        <ele>1974.199951171875</ele>
        <time>2026-06-15T10:39:36.000Z</time>
        <extensions>
          <ns3:TrackPointExtension>
            <ns3:atemp>15.0</ns3:atemp>
          </ns3:TrackPointExtension>
        </extensions>
      </trkpt>
      <trkpt lat="42.5745140947401523590087890625" lon="20.08055987767875194549560546875">
        <ele>1974.199951171875</ele>
        <time>2026-06-15T10:39:37.000Z</time>
        <extensions>
          <ns3:TrackPointExtension>
            <ns3:atemp>15.0</ns3:atemp>
          </ns3:TrackPointExtension>
        </extensions>
      </trkpt>
      <trkpt lat="42.5745140947401523590087890625" lon="20.08055987767875194549560546875">
        <ele>1974.199951171875</ele>
        <time>2026-06-15T10:39:38.000Z</time>
        <extensions>
          <ns3:TrackPointExtension>
            <ns3:atemp>15.0</ns3:atemp>
          </ns3:TrackPointExtension>
        </extensions>
      </trkpt>
      <trkpt lat="42.5745140947401523590087890625" lon="20.08055987767875194549560546875">
        <ele>1974.199951171875</ele>
        <time>2026-06-15T10:39:39.000Z</time>
        <extensions>
          <ns3:TrackPointExtension>
            <ns3:atemp>15.0</ns3:atemp>
          </ns3:TrackPointExtension>
        </extensions>
      </trkpt>
      <trkpt lat="42.5745140947401523590087890625" lon="20.08055987767875194549560546875">
        <ele>1974.199951171875</ele>
        <time>2026-06-15T10:39:40.000Z</time>
        <extensions>
          <ns3:TrackPointExtension>
            <ns3:atemp>15.0</ns3:atemp>
          </ns3:TrackPointExtension>
        </extensions>
      </trkpt>
      <trkpt lat="42.5745140947401523590087890625" lon="20.08055987767875194549560546875">
        <ele>1974.199951171875</ele>
        <time>2026-06-15T10:39:41.000Z</time>
        <extensions>
          <ns3:TrackPointExtension>
            <ns3:atemp>15.0</ns3:atemp>
          </ns3:TrackPointExtension>
        </extensions>
      </trkpt>
      <trkpt lat="42.5745140947401523590087890625" lon="20.08055987767875194549560546875">
        <ele>1974.199951171875</ele>
        <time>2026-06-15T10:39:42.000Z</time>
        <extensions>
          <ns3:TrackPointExtension>
            <ns3:atemp>15.0</ns3:atemp>
          </ns3:TrackPointExtension>
        </extensions>
      </trkpt>
      <trkpt lat="42.5745140947401523590087890625" lon="20.08055987767875194549560546875">
        <ele>1974.199951171875</ele>
        <time>2026-06-15T10:39:43.000Z</time>
        <extensions>
          <ns3:TrackPointExtension>
            <ns3:atemp>15.0</ns3:atemp>
          </ns3:TrackPointExtension>
        </extensions>
      </trkpt>
      <trkpt lat="42.5745140947401523590087890625" lon="20.08055987767875194549560546875">
        <ele>1974.199951171875</ele>
        <time>2026-06-15T10:39:44.000Z</time>
        <extensions>
          <ns3:TrackPointExtension>
            <ns3:atemp>15.0</ns3:atemp>
          </ns3:TrackPointExtension>
        </extensions>
      </trkpt>
      <trkpt lat="42.57450395263731479644775390625" lon="20.08054764010012149810791015625">
        <ele>1974.199951171875</ele>
        <time>2026-06-15T10:39:45.000Z</time>
        <extensions>
          <ns3:TrackPointExtension>
            <ns3:atemp>15.0</ns3:atemp>
          </ns3:TrackPointExtension>
        </extensions>
      </trkpt>
      <trkpt lat="42.57450378499925136566162109375" lon="20.08054764010012149810791015625">
        <ele>1974.199951171875</ele>
        <time>2026-06-15T10:39:46.000Z</time>
        <extensions>
          <ns3:TrackPointExtension>
            <ns3:atemp>15.0</ns3:atemp>
          </ns3:TrackPointExtension>
        </extensions>
      </trkpt>
      <trkpt lat="42.57450378499925136566162109375" lon="20.08054764010012149810791015625">
        <ele>1974.199951171875</ele>
        <time>2026-06-15T10:39:47.000Z</time>
        <extensions>
          <ns3:TrackPointExtension>
            <ns3:atemp>15.0</ns3:atemp>
          </ns3:TrackPointExtension>
        </extensions>
      </trkpt>
      <trkpt lat="42.57450378499925136566162109375" lon="20.08054764010012149810791015625">
        <ele>1974.199951171875</ele>
        <time>2026-06-15T10:39:48.000Z</time>
        <extensions>
          <ns3:TrackPointExtension>
            <ns3:atemp>15.0</ns3:atemp>
          </ns3:TrackPointExtension>
        </extensions>
      </trkpt>
      <trkpt lat="42.57450378499925136566162109375" lon="20.08054764010012149810791015625">
        <ele>1974.199951171875</ele>
        <time>2026-06-15T10:39:49.000Z</time>
        <extensions>
          <ns3:TrackPointExtension>
            <ns3:atemp>15.0</ns3:atemp>
          </ns3:TrackPointExtension>
        </extensions>
      </trkpt>
      <trkpt lat="42.57450378499925136566162109375" lon="20.08054764010012149810791015625">
        <ele>1974.199951171875</ele>
        <time>2026-06-15T10:39:50.000Z</time>
        <extensions>
          <ns3:TrackPointExtension>
            <ns3:atemp>15.0</ns3:atemp>
          </ns3:TrackPointExtension>
        </extensions>
      </trkpt>
      <trkpt lat="42.57450378499925136566162109375" lon="20.08054764010012149810791015625">
        <ele>1974.199951171875</ele>
        <time>2026-06-15T10:39:51.000Z</time>
        <extensions>
          <ns3:TrackPointExtension>
            <ns3:atemp>15.0</ns3:atemp>
          </ns3:TrackPointExtension>
        </extensions>
      </trkpt>
      <trkpt lat="42.57450378499925136566162109375" lon="20.08054764010012149810791015625">
        <ele>1974.199951171875</ele>
        <time>2026-06-15T10:39:52.000Z</time>
        <extensions>
          <ns3:TrackPointExtension>
            <ns3:atemp>15.0</ns3:atemp>
          </ns3:TrackPointExtension>
        </extensions>
      </trkpt>
      <trkpt lat="42.57450378499925136566162109375" lon="20.08054764010012149810791015625">
        <ele>1974.199951171875</ele>
        <time>2026-06-15T10:39:53.000Z</time>
        <extensions>
          <ns3:TrackPointExtension>
            <ns3:atemp>15.0</ns3:atemp>
          </ns3:TrackPointExtension>
        </extensions>
      </trkpt>
      <trkpt lat="42.57450378499925136566162109375" lon="20.08054764010012149810791015625">
        <ele>1974.199951171875</ele>
        <time>2026-06-15T10:39:54.000Z</time>
        <extensions>
          <ns3:TrackPointExtension>
            <ns3:atemp>15.0</ns3:atemp>
          </ns3:TrackPointExtension>
        </extensions>
      </trkpt>
      <trkpt lat="42.57450127042829990386962890625" lon="20.08054696954786777496337890625">
        <ele>1974.199951171875</ele>
        <time>2026-06-15T10:39:55.000Z</time>
        <extensions>
          <ns3:TrackPointExtension>
            <ns3:atemp>15.0</ns3:atemp>
          </ns3:TrackPointExtension>
        </extensions>
      </trkpt>
      <trkpt lat="42.574481070041656494140625" lon="20.08054076693952083587646484375">
        <ele>1974.199951171875</ele>
        <time>2026-06-15T10:39:56.000Z</time>
        <extensions>
          <ns3:TrackPointExtension>
            <ns3:atemp>15.0</ns3:atemp>
          </ns3:TrackPointExtension>
        </extensions>
      </trkpt>
      <trkpt lat="42.57448199205100536346435546875" lon="20.08053624071180820465087890625">
        <ele>1974.199951171875</ele>
        <time>2026-06-15T10:39:57.000Z</time>
        <extensions>
          <ns3:TrackPointExtension>
            <ns3:atemp>15.0</ns3:atemp>
          </ns3:TrackPointExtension>
        </extensions>
      </trkpt>
      <trkpt lat="42.57448199205100536346435546875" lon="20.0805361568927764892578125">
        <ele>1974.199951171875</ele>
        <time>2026-06-15T10:39:58.000Z</time>
        <extensions>
          <ns3:TrackPointExtension>
            <ns3:atemp>15.0</ns3:atemp>
          </ns3:TrackPointExtension>
        </extensions>
      </trkpt>
      <trkpt lat="42.57448199205100536346435546875" lon="20.0805361568927764892578125">
        <ele>1974.199951171875</ele>
        <time>2026-06-15T10:39:59.000Z</time>
        <extensions>
          <ns3:TrackPointExtension>
            <ns3:atemp>15.0</ns3:atemp>
          </ns3:TrackPointExtension>
        </extensions>
      </trkpt>
      <trkpt lat="42.57448199205100536346435546875" lon="20.0805361568927764892578125">
        <ele>1974.199951171875</ele>
        <time>2026-06-15T10:40:00.000Z</time>
        <extensions>
          <ns3:TrackPointExtension>
            <ns3:atemp>15.0</ns3:atemp>
          </ns3:TrackPointExtension>
        </extensions>
      </trkpt>
      <trkpt lat="42.57448199205100536346435546875" lon="20.0805361568927764892578125">
        <ele>1974.199951171875</ele>
        <time>2026-06-15T10:40:01.000Z</time>
        <extensions>
          <ns3:TrackPointExtension>
            <ns3:atemp>16.0</ns3:atemp>
          </ns3:TrackPointExtension>
        </extensions>
      </trkpt>
      <trkpt lat="42.57448199205100536346435546875" lon="20.0805361568927764892578125">
        <ele>1974.199951171875</ele>
        <time>2026-06-15T10:40:02.000Z</time>
        <extensions>
          <ns3:TrackPointExtension>
            <ns3:atemp>16.0</ns3:atemp>
          </ns3:TrackPointExtension>
        </extensions>
      </trkpt>
      <trkpt lat="42.57448199205100536346435546875" lon="20.0805361568927764892578125">
        <ele>1974.199951171875</ele>
        <time>2026-06-15T10:40:03.000Z</time>
        <extensions>
          <ns3:TrackPointExtension>
            <ns3:atemp>15.0</ns3:atemp>
          </ns3:TrackPointExtension>
        </extensions>
      </trkpt>
      <trkpt lat="42.57448199205100536346435546875" lon="20.0805361568927764892578125">
        <ele>1974.199951171875</ele>
        <time>2026-06-15T10:40:04.000Z</time>
        <extensions>
          <ns3:TrackPointExtension>
            <ns3:atemp>15.0</ns3:atemp>
          </ns3:TrackPointExtension>
        </extensions>
      </trkpt>
      <trkpt lat="42.57448199205100536346435546875" lon="20.0805361568927764892578125">
        <ele>1974.199951171875</ele>
        <time>2026-06-15T10:40:05.000Z</time>
        <extensions>
          <ns3:TrackPointExtension>
            <ns3:atemp>16.0</ns3:atemp>
          </ns3:TrackPointExtension>
        </extensions>
      </trkpt>
      <trkpt lat="42.57448199205100536346435546875" lon="20.0805361568927764892578125">
        <ele>1974.199951171875</ele>
        <time>2026-06-15T10:40:06.000Z</time>
        <extensions>
          <ns3:TrackPointExtension>
            <ns3:atemp>15.0</ns3:atemp>
          </ns3:TrackPointExtension>
        </extensions>
      </trkpt>
      <trkpt lat="42.57448199205100536346435546875" lon="20.0805361568927764892578125">
        <ele>1974.199951171875</ele>
        <time>2026-06-15T10:40:07.000Z</time>
        <extensions>
          <ns3:TrackPointExtension>
            <ns3:atemp>15.0</ns3:atemp>
          </ns3:TrackPointExtension>
        </extensions>
      </trkpt>
      <trkpt lat="42.57448199205100536346435546875" lon="20.0805361568927764892578125">
        <ele>1974.199951171875</ele>
        <time>2026-06-15T10:40:08.000Z</time>
        <extensions>
          <ns3:TrackPointExtension>
            <ns3:atemp>15.0</ns3:atemp>
          </ns3:TrackPointExtension>
        </extensions>
      </trkpt>
      <trkpt lat="42.57448199205100536346435546875" lon="20.0805361568927764892578125">
        <ele>1974.199951171875</ele>
        <time>2026-06-15T10:40:09.000Z</time>
        <extensions>
          <ns3:TrackPointExtension>
            <ns3:atemp>15.0</ns3:atemp>
          </ns3:TrackPointExtension>
        </extensions>
      </trkpt>
      <trkpt lat="42.57448199205100536346435546875" lon="20.0805361568927764892578125">
        <ele>1974.199951171875</ele>
        <time>2026-06-15T10:40:10.000Z</time>
        <extensions>
          <ns3:TrackPointExtension>
            <ns3:atemp>15.0</ns3:atemp>
          </ns3:TrackPointExtension>
        </extensions>
      </trkpt>
      <trkpt lat="42.57448199205100536346435546875" lon="20.0805361568927764892578125">
        <ele>1974.199951171875</ele>
        <time>2026-06-15T10:40:11.000Z</time>
        <extensions>
          <ns3:TrackPointExtension>
            <ns3:atemp>16.0</ns3:atemp>
          </ns3:TrackPointExtension>
        </extensions>
      </trkpt>
      <trkpt lat="42.57448199205100536346435546875" lon="20.0805361568927764892578125">
        <ele>1974.199951171875</ele>
        <time>2026-06-15T10:40:12.000Z</time>
        <extensions>
          <ns3:TrackPointExtension>
            <ns3:atemp>16.0</ns3:atemp>
          </ns3:TrackPointExtension>
        </extensions>
      </trkpt>
      <trkpt lat="42.57448199205100536346435546875" lon="20.0805361568927764892578125">
        <ele>1974.199951171875</ele>
        <time>2026-06-15T10:40:13.000Z</time>
        <extensions>
          <ns3:TrackPointExtension>
            <ns3:atemp>16.0</ns3:atemp>
          </ns3:TrackPointExtension>
        </extensions>
      </trkpt>
      <trkpt lat="42.57448199205100536346435546875" lon="20.0805361568927764892578125">
        <ele>1974.199951171875</ele>
        <time>2026-06-15T10:40:14.000Z</time>
        <extensions>
          <ns3:TrackPointExtension>
            <ns3:atemp>16.0</ns3:atemp>
          </ns3:TrackPointExtension>
        </extensions>
      </trkpt>
      <trkpt lat="42.57448199205100536346435546875" lon="20.0805361568927764892578125">
        <ele>1974.199951171875</ele>
        <time>2026-06-15T10:40:15.000Z</time>
        <extensions>
          <ns3:TrackPointExtension>
            <ns3:atemp>16.0</ns3:atemp>
          </ns3:TrackPointExtension>
        </extensions>
      </trkpt>
      <trkpt lat="42.57448199205100536346435546875" lon="20.0805361568927764892578125">
        <ele>1974.199951171875</ele>
        <time>2026-06-15T10:40:16.000Z</time>
        <extensions>
          <ns3:TrackPointExtension>
            <ns3:atemp>15.0</ns3:atemp>
          </ns3:TrackPointExtension>
        </extensions>
      </trkpt>
      <trkpt lat="42.57448199205100536346435546875" lon="20.0805361568927764892578125">
        <ele>1974.199951171875</ele>
        <time>2026-06-15T10:40:17.000Z</time>
        <extensions>
          <ns3:TrackPointExtension>
            <ns3:atemp>15.0</ns3:atemp>
          </ns3:TrackPointExtension>
        </extensions>
      </trkpt>
      <trkpt lat="42.57448199205100536346435546875" lon="20.0805361568927764892578125">
        <ele>1974.199951171875</ele>
        <time>2026-06-15T10:40:18.000Z</time>
        <extensions>
          <ns3:TrackPointExtension>
            <ns3:atemp>15.0</ns3:atemp>
          </ns3:TrackPointExtension>
        </extensions>
      </trkpt>
      <trkpt lat="42.57448199205100536346435546875" lon="20.0805361568927764892578125">
        <ele>1974.199951171875</ele>
        <time>2026-06-15T10:40:19.000Z</time>
        <extensions>
          <ns3:TrackPointExtension>
            <ns3:atemp>16.0</ns3:atemp>
          </ns3:TrackPointExtension>
        </extensions>
      </trkpt>
      <trkpt lat="42.57448199205100536346435546875" lon="20.0805361568927764892578125">
        <ele>1974.199951171875</ele>
        <time>2026-06-15T10:40:20.000Z</time>
        <extensions>
          <ns3:TrackPointExtension>
            <ns3:atemp>15.0</ns3:atemp>
          </ns3:TrackPointExtension>
        </extensions>
      </trkpt>
      <trkpt lat="42.57448199205100536346435546875" lon="20.0805361568927764892578125">
        <ele>1974.199951171875</ele>
        <time>2026-06-15T10:40:21.000Z</time>
        <extensions>
          <ns3:TrackPointExtension>
            <ns3:atemp>15.0</ns3:atemp>
          </ns3:TrackPointExtension>
        </extensions>
      </trkpt>
      <trkpt lat="42.57448199205100536346435546875" lon="20.0805361568927764892578125">
        <ele>1974.199951171875</ele>
        <time>2026-06-15T10:40:22.000Z</time>
        <extensions>
          <ns3:TrackPointExtension>
            <ns3:atemp>15.0</ns3:atemp>
          </ns3:TrackPointExtension>
        </extensions>
      </trkpt>
      <trkpt lat="42.57448199205100536346435546875" lon="20.0805361568927764892578125">
        <ele>1974.199951171875</ele>
        <time>2026-06-15T10:40:23.000Z</time>
        <extensions>
          <ns3:TrackPointExtension>
            <ns3:atemp>15.0</ns3:atemp>
          </ns3:TrackPointExtension>
        </extensions>
      </trkpt>
      <trkpt lat="42.57448199205100536346435546875" lon="20.0805361568927764892578125">
        <ele>1974.199951171875</ele>
        <time>2026-06-15T10:40:24.000Z</time>
        <extensions>
          <ns3:TrackPointExtension>
            <ns3:atemp>15.0</ns3:atemp>
          </ns3:TrackPointExtension>
        </extensions>
      </trkpt>
      <trkpt lat="42.57448199205100536346435546875" lon="20.0805361568927764892578125">
        <ele>1974.199951171875</ele>
        <time>2026-06-15T10:40:25.000Z</time>
        <extensions>
          <ns3:TrackPointExtension>
            <ns3:atemp>15.0</ns3:atemp>
          </ns3:TrackPointExtension>
        </extensions>
      </trkpt>
      <trkpt lat="42.57448199205100536346435546875" lon="20.0805361568927764892578125">
        <ele>1974.199951171875</ele>
        <time>2026-06-15T10:40:26.000Z</time>
        <extensions>
          <ns3:TrackPointExtension>
            <ns3:atemp>15.0</ns3:atemp>
          </ns3:TrackPointExtension>
        </extensions>
      </trkpt>
      <trkpt lat="42.57448199205100536346435546875" lon="20.0805361568927764892578125">
        <ele>1974.199951171875</ele>
        <time>2026-06-15T10:40:27.000Z</time>
        <extensions>
          <ns3:TrackPointExtension>
            <ns3:atemp>15.0</ns3:atemp>
          </ns3:TrackPointExtension>
        </extensions>
      </trkpt>
      <trkpt lat="42.57448199205100536346435546875" lon="20.0805361568927764892578125">
        <ele>1974.199951171875</ele>
        <time>2026-06-15T10:40:28.000Z</time>
        <extensions>
          <ns3:TrackPointExtension>
            <ns3:atemp>15.0</ns3:atemp>
          </ns3:TrackPointExtension>
        </extensions>
      </trkpt>
      <trkpt lat="42.57448199205100536346435546875" lon="20.0805361568927764892578125">
        <ele>1974.199951171875</ele>
        <time>2026-06-15T10:40:29.000Z</time>
        <extensions>
          <ns3:TrackPointExtension>
            <ns3:atemp>15.0</ns3:atemp>
          </ns3:TrackPointExtension>
        </extensions>
      </trkpt>
      <trkpt lat="42.57448199205100536346435546875" lon="20.0805361568927764892578125">
        <ele>1974.199951171875</ele>
        <time>2026-06-15T10:40:30.000Z</time>
        <extensions>
          <ns3:TrackPointExtension>
            <ns3:atemp>15.0</ns3:atemp>
          </ns3:TrackPointExtension>
        </extensions>
      </trkpt>
      <trkpt lat="42.57448199205100536346435546875" lon="20.0805361568927764892578125">
        <ele>1974.199951171875</ele>
        <time>2026-06-15T10:40:31.000Z</time>
        <extensions>
          <ns3:TrackPointExtension>
            <ns3:atemp>15.0</ns3:atemp>
          </ns3:TrackPointExtension>
        </extensions>
      </trkpt>
      <trkpt lat="42.57448199205100536346435546875" lon="20.0805361568927764892578125">
        <ele>1974.199951171875</ele>
        <time>2026-06-15T10:40:32.000Z</time>
        <extensions>
          <ns3:TrackPointExtension>
            <ns3:atemp>15.0</ns3:atemp>
          </ns3:TrackPointExtension>
        </extensions>
      </trkpt>
      <trkpt lat="42.57448199205100536346435546875" lon="20.0805361568927764892578125">
        <ele>1974.199951171875</ele>
        <time>2026-06-15T10:40:33.000Z</time>
        <extensions>
          <ns3:TrackPointExtension>
            <ns3:atemp>15.0</ns3:atemp>
          </ns3:TrackPointExtension>
        </extensions>
      </trkpt>
      <trkpt lat="42.57448199205100536346435546875" lon="20.0805361568927764892578125">
        <ele>1974.199951171875</ele>
        <time>2026-06-15T10:40:34.000Z</time>
        <extensions>
          <ns3:TrackPointExtension>
            <ns3:atemp>15.0</ns3:atemp>
          </ns3:TrackPointExtension>
        </extensions>
      </trkpt>
      <trkpt lat="42.57448199205100536346435546875" lon="20.0805361568927764892578125">
        <ele>1974.199951171875</ele>
        <time>2026-06-15T10:40:35.000Z</time>
        <extensions>
          <ns3:TrackPointExtension>
            <ns3:atemp>15.0</ns3:atemp>
          </ns3:TrackPointExtension>
        </extensions>
      </trkpt>
      <trkpt lat="42.57448199205100536346435546875" lon="20.0805361568927764892578125">
        <ele>1974.199951171875</ele>
        <time>2026-06-15T10:40:36.000Z</time>
        <extensions>
          <ns3:TrackPointExtension>
            <ns3:atemp>15.0</ns3:atemp>
          </ns3:TrackPointExtension>
        </extensions>
      </trkpt>
      <trkpt lat="42.57448199205100536346435546875" lon="20.0805361568927764892578125">
        <ele>1974.199951171875</ele>
        <time>2026-06-15T10:40:37.000Z</time>
        <extensions>
          <ns3:TrackPointExtension>
            <ns3:atemp>15.0</ns3:atemp>
          </ns3:TrackPointExtension>
        </extensions>
      </trkpt>
      <trkpt lat="42.57448199205100536346435546875" lon="20.0805361568927764892578125">
        <ele>1974.199951171875</ele>
        <time>2026-06-15T10:40:38.000Z</time>
        <extensions>
          <ns3:TrackPointExtension>
            <ns3:atemp>15.0</ns3:atemp>
          </ns3:TrackPointExtension>
        </extensions>
      </trkpt>
      <trkpt lat="42.57448199205100536346435546875" lon="20.0805361568927764892578125">
        <ele>1974.199951171875</ele>
        <time>2026-06-15T10:40:39.000Z</time>
        <extensions>
          <ns3:TrackPointExtension>
            <ns3:atemp>15.0</ns3:atemp>
          </ns3:TrackPointExtension>
        </extensions>
      </trkpt>
      <trkpt lat="42.57448199205100536346435546875" lon="20.0805361568927764892578125">
        <ele>1974.199951171875</ele>
        <time>2026-06-15T10:40:40.000Z</time>
        <extensions>
          <ns3:TrackPointExtension>
            <ns3:atemp>15.0</ns3:atemp>
          </ns3:TrackPointExtension>
        </extensions>
      </trkpt>
      <trkpt lat="42.57448199205100536346435546875" lon="20.0805361568927764892578125">
        <ele>1974.199951171875</ele>
        <time>2026-06-15T10:40:41.000Z</time>
        <extensions>
          <ns3:TrackPointExtension>
            <ns3:atemp>16.0</ns3:atemp>
          </ns3:TrackPointExtension>
        </extensions>
      </trkpt>
      <trkpt lat="42.57448199205100536346435546875" lon="20.0805361568927764892578125">
        <ele>1974.199951171875</ele>
        <time>2026-06-15T10:40:42.000Z</time>
        <extensions>
          <ns3:TrackPointExtension>
            <ns3:atemp>16.0</ns3:atemp>
          </ns3:TrackPointExtension>
        </extensions>
      </trkpt>
      <trkpt lat="42.57448199205100536346435546875" lon="20.0805361568927764892578125">
        <ele>1974.199951171875</ele>
        <time>2026-06-15T10:40:43.000Z</time>
        <extensions>
          <ns3:TrackPointExtension>
            <ns3:atemp>16.0</ns3:atemp>
          </ns3:TrackPointExtension>
        </extensions>
      </trkpt>
      <trkpt lat="42.57448199205100536346435546875" lon="20.0805361568927764892578125">
        <ele>1974.199951171875</ele>
        <time>2026-06-15T10:40:44.000Z</time>
        <extensions>
          <ns3:TrackPointExtension>
            <ns3:atemp>16.0</ns3:atemp>
          </ns3:TrackPointExtension>
        </extensions>
      </trkpt>
      <trkpt lat="42.57448199205100536346435546875" lon="20.0805361568927764892578125">
        <ele>1974.199951171875</ele>
        <time>2026-06-15T10:40:45.000Z</time>
        <extensions>
          <ns3:TrackPointExtension>
            <ns3:atemp>16.0</ns3:atemp>
          </ns3:TrackPointExtension>
        </extensions>
      </trkpt>
      <trkpt lat="42.57448199205100536346435546875" lon="20.0805361568927764892578125">
        <ele>1974.199951171875</ele>
        <time>2026-06-15T10:40:46.000Z</time>
        <extensions>
          <ns3:TrackPointExtension>
            <ns3:atemp>16.0</ns3:atemp>
          </ns3:TrackPointExtension>
        </extensions>
      </trkpt>
      <trkpt lat="42.57448199205100536346435546875" lon="20.0805361568927764892578125">
        <ele>1974.199951171875</ele>
        <time>2026-06-15T10:40:47.000Z</time>
        <extensions>
          <ns3:TrackPointExtension>
            <ns3:atemp>16.0</ns3:atemp>
          </ns3:TrackPointExtension>
        </extensions>
      </trkpt>
      <trkpt lat="42.57448199205100536346435546875" lon="20.0805361568927764892578125">
        <ele>1974.199951171875</ele>
        <time>2026-06-15T10:40:48.000Z</time>
        <extensions>
          <ns3:TrackPointExtension>
            <ns3:atemp>16.0</ns3:atemp>
          </ns3:TrackPointExtension>
        </extensions>
      </trkpt>
      <trkpt lat="42.57448199205100536346435546875" lon="20.0805361568927764892578125">
        <ele>1974.199951171875</ele>
        <time>2026-06-15T10:40:49.000Z</time>
        <extensions>
          <ns3:TrackPointExtension>
            <ns3:atemp>16.0</ns3:atemp>
          </ns3:TrackPointExtension>
        </extensions>
      </trkpt>
      <trkpt lat="42.57448199205100536346435546875" lon="20.0805361568927764892578125">
        <ele>1974.199951171875</ele>
        <time>2026-06-15T10:40:50.000Z</time>
        <extensions>
          <ns3:TrackPointExtension>
            <ns3:atemp>16.0</ns3:atemp>
          </ns3:TrackPointExtension>
        </extensions>
      </trkpt>
      <trkpt lat="42.57448249496519565582275390625" lon="20.08053607307374477386474609375">
        <ele>1974.199951171875</ele>
        <time>2026-06-15T10:40:51.000Z</time>
        <extensions>
          <ns3:TrackPointExtension>
            <ns3:atemp>16.0</ns3:atemp>
          </ns3:TrackPointExtension>
        </extensions>
      </trkpt>
      <trkpt lat="42.5744762085378170013427734375" lon="20.0805333070456981658935546875">
        <ele>1974.199951171875</ele>
        <time>2026-06-15T10:40:52.000Z</time>
        <extensions>
          <ns3:TrackPointExtension>
            <ns3:atemp>16.0</ns3:atemp>
          </ns3:TrackPointExtension>
        </extensions>
      </trkpt>
      <trkpt lat="42.57447025738656520843505859375" lon="20.08053104393184185028076171875">
        <ele>1974.199951171875</ele>
        <time>2026-06-15T10:40:53.000Z</time>
        <extensions>
          <ns3:TrackPointExtension>
            <ns3:atemp>16.0</ns3:atemp>
          </ns3:TrackPointExtension>
        </extensions>
      </trkpt>
      <trkpt lat="42.5744594447314739227294921875" lon="20.08053288795053958892822265625">
        <ele>1974.199951171875</ele>
        <time>2026-06-15T10:40:54.000Z</time>
        <extensions>
          <ns3:TrackPointExtension>
            <ns3:atemp>16.0</ns3:atemp>
          </ns3:TrackPointExtension>
        </extensions>
      </trkpt>
      <trkpt lat="42.57444930262863636016845703125" lon="20.08053188212215900421142578125">
        <ele>1974.199951171875</ele>
        <time>2026-06-15T10:40:55.000Z</time>
        <extensions>
          <ns3:TrackPointExtension>
            <ns3:atemp>16.0</ns3:atemp>
          </ns3:TrackPointExtension>
        </extensions>
      </trkpt>
      <trkpt lat="42.5744359754025936126708984375" lon="20.0805343128740787506103515625">
        <ele>1974.199951171875</ele>
        <time>2026-06-15T10:40:56.000Z</time>
        <extensions>
          <ns3:TrackPointExtension>
            <ns3:atemp>16.0</ns3:atemp>
          </ns3:TrackPointExtension>
        </extensions>
      </trkpt>
      <trkpt lat="42.5744260847568511962890625" lon="20.08053171448409557342529296875">
        <ele>1974.199951171875</ele>
        <time>2026-06-15T10:40:57.000Z</time>
        <extensions>
          <ns3:TrackPointExtension>
            <ns3:atemp>16.0</ns3:atemp>
          </ns3:TrackPointExtension>
        </extensions>
      </trkpt>
      <trkpt lat="42.5744135119020938873291015625" lon="20.080531127750873565673828125">
        <ele>1974.199951171875</ele>
        <time>2026-06-15T10:40:58.000Z</time>
        <extensions>
          <ns3:TrackPointExtension>
            <ns3:atemp>16.0</ns3:atemp>
          </ns3:TrackPointExtension>
        </extensions>
      </trkpt>
      <trkpt lat="42.57439381442964076995849609375" lon="20.0805307924747467041015625">
        <ele>1974.199951171875</ele>
        <time>2026-06-15T10:40:59.000Z</time>
        <extensions>
          <ns3:TrackPointExtension>
            <ns3:atemp>16.0</ns3:atemp>
          </ns3:TrackPointExtension>
        </extensions>
      </trkpt>
      <trkpt lat="42.57436933927237987518310546875" lon="20.0805252604186534881591796875">
        <ele>1974.199951171875</ele>
        <time>2026-06-15T10:41:00.000Z</time>
        <extensions>
          <ns3:TrackPointExtension>
            <ns3:atemp>16.0</ns3:atemp>
          </ns3:TrackPointExtension>
        </extensions>
      </trkpt>
      <trkpt lat="42.57433815859258174896240234375" lon="20.08052534423768520355224609375">
        <ele>1974.199951171875</ele>
        <time>2026-06-15T10:41:01.000Z</time>
        <extensions>
          <ns3:TrackPointExtension>
            <ns3:atemp>16.0</ns3:atemp>
          </ns3:TrackPointExtension>
        </extensions>
      </trkpt>
      <trkpt lat="42.57430697791278362274169921875" lon="20.08052584715187549591064453125">
        <ele>1974</ele>
        <time>2026-06-15T10:41:02.000Z</time>
        <extensions>
          <ns3:TrackPointExtension>
            <ns3:atemp>16.0</ns3:atemp>
          </ns3:TrackPointExtension>
        </extensions>
      </trkpt>
      <trkpt lat="42.5742683373391628265380859375" lon="20.08052417077124118804931640625">
        <ele>1973.800048828125</ele>
        <time>2026-06-15T10:41:03.000Z</time>
        <extensions>
          <ns3:TrackPointExtension>
            <ns3:atemp>16.0</ns3:atemp>
          </ns3:TrackPointExtension>
        </extensions>
      </trkpt>
      <trkpt lat="42.574224583804607391357421875" lon="20.0805232487618923187255859375">
        <ele>1973.5999755859375</ele>
        <time>2026-06-15T10:41:04.000Z</time>
        <extensions>
          <ns3:TrackPointExtension>
            <ns3:atemp>16.0</ns3:atemp>
          </ns3:TrackPointExtension>
        </extensions>
      </trkpt>
      <trkpt lat="42.57417865097522735595703125" lon="20.08051411248743534088134765625">
        <ele>1973.4000244140625</ele>
        <time>2026-06-15T10:41:05.000Z</time>
        <extensions>
          <ns3:TrackPointExtension>
            <ns3:atemp>16.0</ns3:atemp>
          </ns3:TrackPointExtension>
        </extensions>
      </trkpt>
      <trkpt lat="42.574132718145847320556640625" lon="20.0804960913956165313720703125">
        <ele>1973</ele>
        <time>2026-06-15T10:41:06.000Z</time>
        <extensions>
          <ns3:TrackPointExtension>
            <ns3:atemp>16.0</ns3:atemp>
          </ns3:TrackPointExtension>
        </extensions>
      </trkpt>
      <trkpt lat="42.57408552803099155426025390625" lon="20.080480836331844329833984375">
        <ele>1972.800048828125</ele>
        <time>2026-06-15T10:41:07.000Z</time>
        <extensions>
          <ns3:TrackPointExtension>
            <ns3:atemp>16.0</ns3:atemp>
          </ns3:TrackPointExtension>
        </extensions>
      </trkpt>
      <trkpt lat="42.57403842173516750335693359375" lon="20.0804625637829303741455078125">
        <ele>1972.4000244140625</ele>
        <time>2026-06-15T10:41:08.000Z</time>
        <extensions>
          <ns3:TrackPointExtension>
            <ns3:atemp>16.0</ns3:atemp>
          </ns3:TrackPointExtension>
        </extensions>
      </trkpt>
      <trkpt lat="42.57399466820061206817626953125" lon="20.080446302890777587890625">
        <ele>1972.199951171875</ele>
        <time>2026-06-15T10:41:09.000Z</time>
        <extensions>
          <ns3:TrackPointExtension>
            <ns3:atemp>16.0</ns3:atemp>
          </ns3:TrackPointExtension>
        </extensions>
      </trkpt>
      <trkpt lat="42.57395393215119838714599609375" lon="20.08043364621698856353759765625">
        <ele>1972</ele>
        <time>2026-06-15T10:41:10.000Z</time>
        <extensions>
          <ns3:TrackPointExtension>
            <ns3:atemp>16.0</ns3:atemp>
          </ns3:TrackPointExtension>
        </extensions>
      </trkpt>
      <trkpt lat="42.573909424245357513427734375" lon="20.080423839390277862548828125">
        <ele>1972</ele>
        <time>2026-06-15T10:41:11.000Z</time>
        <extensions>
          <ns3:TrackPointExtension>
            <ns3:atemp>16.0</ns3:atemp>
          </ns3:TrackPointExtension>
        </extensions>
      </trkpt>
      <trkpt lat="42.57386709563434123992919921875" lon="20.08041688241064548492431640625">
        <ele>1971.800048828125</ele>
        <time>2026-06-15T10:41:12.000Z</time>
        <extensions>
          <ns3:TrackPointExtension>
            <ns3:atemp>16.0</ns3:atemp>
          </ns3:TrackPointExtension>
        </extensions>
      </trkpt>
      <trkpt lat="42.57383038289844989776611328125" lon="20.0804139487445354461669921875">
        <ele>1971.800048828125</ele>
        <time>2026-06-15T10:41:13.000Z</time>
        <extensions>
          <ns3:TrackPointExtension>
            <ns3:atemp>16.0</ns3:atemp>
          </ns3:TrackPointExtension>
        </extensions>
      </trkpt>
      <trkpt lat="42.57380054332315921783447265625" lon="20.0804116018116474151611328125">
        <ele>1971.5999755859375</ele>
        <time>2026-06-15T10:41:14.000Z</time>
        <extensions>
          <ns3:TrackPointExtension>
            <ns3:atemp>16.0</ns3:atemp>
          </ns3:TrackPointExtension>
        </extensions>
      </trkpt>
      <trkpt lat="42.57377606816589832305908203125" lon="20.08041135035455226898193359375">
        <ele>1971.5999755859375</ele>
        <time>2026-06-15T10:41:15.000Z</time>
        <extensions>
          <ns3:TrackPointExtension>
            <ns3:atemp>16.0</ns3:atemp>
          </ns3:TrackPointExtension>
        </extensions>
      </trkpt>
      <trkpt lat="42.57375125773251056671142578125" lon="20.0804122723639011383056640625">
        <ele>1971.5999755859375</ele>
        <time>2026-06-15T10:41:16.000Z</time>
        <extensions>
          <ns3:TrackPointExtension>
            <ns3:atemp>16.0</ns3:atemp>
          </ns3:TrackPointExtension>
        </extensions>
      </trkpt>
      <trkpt lat="42.573733069002628326416015625" lon="20.08040866814553737640380859375">
        <ele>1971.4000244140625</ele>
        <time>2026-06-15T10:41:17.000Z</time>
        <extensions>
          <ns3:TrackPointExtension>
            <ns3:atemp>16.0</ns3:atemp>
          </ns3:TrackPointExtension>
        </extensions>
      </trkpt>
      <trkpt lat="42.57372560910880565643310546875" lon="20.08040464483201503753662109375">
        <ele>1971.199951171875</ele>
        <time>2026-06-15T10:41:18.000Z</time>
        <extensions>
          <ns3:TrackPointExtension>
            <ns3:atemp>16.0</ns3:atemp>
          </ns3:TrackPointExtension>
        </extensions>
      </trkpt>
      <trkpt lat="42.573725692927837371826171875" lon="20.08040296845138072967529296875">
        <ele>1971.199951171875</ele>
        <time>2026-06-15T10:41:19.000Z</time>
        <extensions>
          <ns3:TrackPointExtension>
            <ns3:atemp>16.0</ns3:atemp>
          </ns3:TrackPointExtension>
        </extensions>
      </trkpt>
      <trkpt lat="42.57372560910880565643310546875" lon="20.08040296845138072967529296875">
        <ele>1971.199951171875</ele>
        <time>2026-06-15T10:41:20.000Z</time>
        <extensions>
          <ns3:TrackPointExtension>
            <ns3:atemp>16.0</ns3:atemp>
          </ns3:TrackPointExtension>
        </extensions>
      </trkpt>
      <trkpt lat="42.57372560910880565643310546875" lon="20.08040296845138072967529296875">
        <ele>1971.199951171875</ele>
        <time>2026-06-15T10:41:21.000Z</time>
        <extensions>
          <ns3:TrackPointExtension>
            <ns3:atemp>16.0</ns3:atemp>
          </ns3:TrackPointExtension>
        </extensions>
      </trkpt>
      <trkpt lat="42.57372560910880565643310546875" lon="20.08040296845138072967529296875">
        <ele>1971.199951171875</ele>
        <time>2026-06-15T10:41:22.000Z</time>
        <extensions>
          <ns3:TrackPointExtension>
            <ns3:atemp>16.0</ns3:atemp>
          </ns3:TrackPointExtension>
        </extensions>
      </trkpt>
      <trkpt lat="42.5737251900136470794677734375" lon="20.0804032199084758758544921875">
        <ele>1971.199951171875</ele>
        <time>2026-06-15T10:41:23.000Z</time>
        <extensions>
          <ns3:TrackPointExtension>
            <ns3:atemp>16.0</ns3:atemp>
          </ns3:TrackPointExtension>
        </extensions>
      </trkpt>
      <trkpt lat="42.5737152993679046630859375" lon="20.080408416688442230224609375">
        <ele>1971.199951171875</ele>
        <time>2026-06-15T10:41:24.000Z</time>
        <extensions>
          <ns3:TrackPointExtension>
            <ns3:atemp>16.0</ns3:atemp>
          </ns3:TrackPointExtension>
        </extensions>
      </trkpt>
      <trkpt lat="42.57370800711214542388916015625" lon="20.08041285909712314605712890625">
        <ele>1971</ele>
        <time>2026-06-15T10:41:25.000Z</time>
        <extensions>
          <ns3:TrackPointExtension>
            <ns3:atemp>16.0</ns3:atemp>
          </ns3:TrackPointExtension>
        </extensions>
      </trkpt>
      <trkpt lat="42.573700882494449615478515625" lon="20.08041403256356716156005859375">
        <ele>1971</ele>
        <time>2026-06-15T10:41:26.000Z</time>
        <extensions>
          <ns3:TrackPointExtension>
            <ns3:atemp>16.0</ns3:atemp>
          </ns3:TrackPointExtension>
        </extensions>
      </trkpt>
      <trkpt lat="42.57369660772383213043212890625" lon="20.08041386492550373077392578125">
        <ele>1971</ele>
        <time>2026-06-15T10:41:27.000Z</time>
        <extensions>
          <ns3:TrackPointExtension>
            <ns3:atemp>16.0</ns3:atemp>
          </ns3:TrackPointExtension>
        </extensions>
      </trkpt>
      <trkpt lat="42.57369610480964183807373046875" lon="20.08041386492550373077392578125">
        <ele>1971</ele>
        <time>2026-06-15T10:41:28.000Z</time>
        <extensions>
          <ns3:TrackPointExtension>
            <ns3:atemp>16.0</ns3:atemp>
          </ns3:TrackPointExtension>
        </extensions>
      </trkpt>
      <trkpt lat="42.57369610480964183807373046875" lon="20.08041386492550373077392578125">
        <ele>1971</ele>
        <time>2026-06-15T10:41:29.000Z</time>
        <extensions>
          <ns3:TrackPointExtension>
            <ns3:atemp>16.0</ns3:atemp>
          </ns3:TrackPointExtension>
        </extensions>
      </trkpt>
      <trkpt lat="42.57369610480964183807373046875" lon="20.08041386492550373077392578125">
        <ele>1971</ele>
        <time>2026-06-15T10:41:30.000Z</time>
        <extensions>
          <ns3:TrackPointExtension>
            <ns3:atemp>16.0</ns3:atemp>
          </ns3:TrackPointExtension>
        </extensions>
      </trkpt>
      <trkpt lat="42.57369610480964183807373046875" lon="20.08041386492550373077392578125">
        <ele>1971</ele>
        <time>2026-06-15T10:41:31.000Z</time>
        <extensions>
          <ns3:TrackPointExtension>
            <ns3:atemp>16.0</ns3:atemp>
          </ns3:TrackPointExtension>
        </extensions>
      </trkpt>
      <trkpt lat="42.57369610480964183807373046875" lon="20.08041386492550373077392578125">
        <ele>1971</ele>
        <time>2026-06-15T10:41:32.000Z</time>
        <extensions>
          <ns3:TrackPointExtension>
            <ns3:atemp>16.0</ns3:atemp>
          </ns3:TrackPointExtension>
        </extensions>
      </trkpt>
      <trkpt lat="42.57369610480964183807373046875" lon="20.08041386492550373077392578125">
        <ele>1970.800048828125</ele>
        <time>2026-06-15T10:41:33.000Z</time>
        <extensions>
          <ns3:TrackPointExtension>
            <ns3:atemp>16.0</ns3:atemp>
          </ns3:TrackPointExtension>
        </extensions>
      </trkpt>
      <trkpt lat="42.57369610480964183807373046875" lon="20.08041386492550373077392578125">
        <ele>1970.800048828125</ele>
        <time>2026-06-15T10:41:34.000Z</time>
        <extensions>
          <ns3:TrackPointExtension>
            <ns3:atemp>16.0</ns3:atemp>
          </ns3:TrackPointExtension>
        </extensions>
      </trkpt>
      <trkpt lat="42.57369610480964183807373046875" lon="20.08041386492550373077392578125">
        <ele>1970.800048828125</ele>
        <time>2026-06-15T10:41:35.000Z</time>
        <extensions>
          <ns3:TrackPointExtension>
            <ns3:atemp>16.0</ns3:atemp>
          </ns3:TrackPointExtension>
        </extensions>
      </trkpt>
      <trkpt lat="42.57369610480964183807373046875" lon="20.08041386492550373077392578125">
        <ele>1970.800048828125</ele>
        <time>2026-06-15T10:41:36.000Z</time>
        <extensions>
          <ns3:TrackPointExtension>
            <ns3:atemp>16.0</ns3:atemp>
          </ns3:TrackPointExtension>
        </extensions>
      </trkpt>
      <trkpt lat="42.57369610480964183807373046875" lon="20.08041386492550373077392578125">
        <ele>1970.800048828125</ele>
        <time>2026-06-15T10:41:37.000Z</time>
        <extensions>
          <ns3:TrackPointExtension>
            <ns3:atemp>16.0</ns3:atemp>
          </ns3:TrackPointExtension>
        </extensions>
      </trkpt>
      <trkpt lat="42.57369610480964183807373046875" lon="20.08041386492550373077392578125">
        <ele>1970.800048828125</ele>
        <time>2026-06-15T10:41:38.000Z</time>
        <extensions>
          <ns3:TrackPointExtension>
            <ns3:atemp>16.0</ns3:atemp>
          </ns3:TrackPointExtension>
        </extensions>
      </trkpt>
      <trkpt lat="42.57369610480964183807373046875" lon="20.08041386492550373077392578125">
        <ele>1970.800048828125</ele>
        <time>2026-06-15T10:41:39.000Z</time>
        <extensions>
          <ns3:TrackPointExtension>
            <ns3:atemp>16.0</ns3:atemp>
          </ns3:TrackPointExtension>
        </extensions>
      </trkpt>
      <trkpt lat="42.57369610480964183807373046875" lon="20.08041386492550373077392578125">
        <ele>1970.800048828125</ele>
        <time>2026-06-15T10:41:40.000Z</time>
        <extensions>
          <ns3:TrackPointExtension>
            <ns3:atemp>16.0</ns3:atemp>
          </ns3:TrackPointExtension>
        </extensions>
      </trkpt>
      <trkpt lat="42.57369610480964183807373046875" lon="20.08041386492550373077392578125">
        <ele>1970.800048828125</ele>
        <time>2026-06-15T10:41:41.000Z</time>
        <extensions>
          <ns3:TrackPointExtension>
            <ns3:atemp>16.0</ns3:atemp>
          </ns3:TrackPointExtension>
        </extensions>
      </trkpt>
      <trkpt lat="42.57369610480964183807373046875" lon="20.08041386492550373077392578125">
        <ele>1970.800048828125</ele>
        <time>2026-06-15T10:41:42.000Z</time>
        <extensions>
          <ns3:TrackPointExtension>
            <ns3:atemp>16.0</ns3:atemp>
          </ns3:TrackPointExtension>
        </extensions>
      </trkpt>
      <trkpt lat="42.57369610480964183807373046875" lon="20.08041386492550373077392578125">
        <ele>1971</ele>
        <time>2026-06-15T10:41:43.000Z</time>
        <extensions>
          <ns3:TrackPointExtension>
            <ns3:atemp>16.0</ns3:atemp>
          </ns3:TrackPointExtension>
        </extensions>
      </trkpt>
      <trkpt lat="42.57369610480964183807373046875" lon="20.08041386492550373077392578125">
        <ele>1971</ele>
        <time>2026-06-15T10:41:44.000Z</time>
        <extensions>
          <ns3:TrackPointExtension>
            <ns3:atemp>16.0</ns3:atemp>
          </ns3:TrackPointExtension>
        </extensions>
      </trkpt>
      <trkpt lat="42.57369610480964183807373046875" lon="20.08041386492550373077392578125">
        <ele>1971</ele>
        <time>2026-06-15T10:41:45.000Z</time>
        <extensions>
          <ns3:TrackPointExtension>
            <ns3:atemp>16.0</ns3:atemp>
          </ns3:TrackPointExtension>
        </extensions>
      </trkpt>
      <trkpt lat="42.57369610480964183807373046875" lon="20.08041386492550373077392578125">
        <ele>1971</ele>
        <time>2026-06-15T10:41:46.000Z</time>
        <extensions>
          <ns3:TrackPointExtension>
            <ns3:atemp>16.0</ns3:atemp>
          </ns3:TrackPointExtension>
        </extensions>
      </trkpt>
      <trkpt lat="42.57369610480964183807373046875" lon="20.08041386492550373077392578125">
        <ele>1971</ele>
        <time>2026-06-15T10:41:47.000Z</time>
        <extensions>
          <ns3:TrackPointExtension>
            <ns3:atemp>16.0</ns3:atemp>
          </ns3:TrackPointExtension>
        </extensions>
      </trkpt>
      <trkpt lat="42.57369610480964183807373046875" lon="20.08041386492550373077392578125">
        <ele>1971</ele>
        <time>2026-06-15T10:41:48.000Z</time>
        <extensions>
          <ns3:TrackPointExtension>
            <ns3:atemp>16.0</ns3:atemp>
          </ns3:TrackPointExtension>
        </extensions>
      </trkpt>
      <trkpt lat="42.57369610480964183807373046875" lon="20.08041386492550373077392578125">
        <ele>1971</ele>
        <time>2026-06-15T10:41:49.000Z</time>
        <extensions>
          <ns3:TrackPointExtension>
            <ns3:atemp>16.0</ns3:atemp>
          </ns3:TrackPointExtension>
        </extensions>
      </trkpt>
      <trkpt lat="42.57369610480964183807373046875" lon="20.08041386492550373077392578125">
        <ele>1971</ele>
        <time>2026-06-15T10:41:50.000Z</time>
        <extensions>
          <ns3:TrackPointExtension>
            <ns3:atemp>16.0</ns3:atemp>
          </ns3:TrackPointExtension>
        </extensions>
      </trkpt>
      <trkpt lat="42.57369610480964183807373046875" lon="20.08041386492550373077392578125">
        <ele>1970.800048828125</ele>
        <time>2026-06-15T10:41:51.000Z</time>
        <extensions>
          <ns3:TrackPointExtension>
            <ns3:atemp>16.0</ns3:atemp>
          </ns3:TrackPointExtension>
        </extensions>
      </trkpt>
      <trkpt lat="42.57369610480964183807373046875" lon="20.08041386492550373077392578125">
        <ele>1970.800048828125</ele>
        <time>2026-06-15T10:41:52.000Z</time>
        <extensions>
          <ns3:TrackPointExtension>
            <ns3:atemp>16.0</ns3:atemp>
          </ns3:TrackPointExtension>
        </extensions>
      </trkpt>
      <trkpt lat="42.57369610480964183807373046875" lon="20.08041386492550373077392578125">
        <ele>1970.800048828125</ele>
        <time>2026-06-15T10:41:53.000Z</time>
        <extensions>
          <ns3:TrackPointExtension>
            <ns3:atemp>16.0</ns3:atemp>
          </ns3:TrackPointExtension>
        </extensions>
      </trkpt>
      <trkpt lat="42.57369610480964183807373046875" lon="20.08041386492550373077392578125">
        <ele>1970.800048828125</ele>
        <time>2026-06-15T10:41:54.000Z</time>
        <extensions>
          <ns3:TrackPointExtension>
            <ns3:atemp>16.0</ns3:atemp>
          </ns3:TrackPointExtension>
        </extensions>
      </trkpt>
      <trkpt lat="42.57369610480964183807373046875" lon="20.08041386492550373077392578125">
        <ele>1970.800048828125</ele>
        <time>2026-06-15T10:41:55.000Z</time>
        <extensions>
          <ns3:TrackPointExtension>
            <ns3:atemp>16.0</ns3:atemp>
          </ns3:TrackPointExtension>
        </extensions>
      </trkpt>
      <trkpt lat="42.57369610480964183807373046875" lon="20.08041386492550373077392578125">
        <ele>1970.5999755859375</ele>
        <time>2026-06-15T10:41:56.000Z</time>
        <extensions>
          <ns3:TrackPointExtension>
            <ns3:atemp>16.0</ns3:atemp>
          </ns3:TrackPointExtension>
        </extensions>
      </trkpt>
      <trkpt lat="42.57369610480964183807373046875" lon="20.08041386492550373077392578125">
        <ele>1970.5999755859375</ele>
        <time>2026-06-15T10:41:57.000Z</time>
        <extensions>
          <ns3:TrackPointExtension>
            <ns3:atemp>16.0</ns3:atemp>
          </ns3:TrackPointExtension>
        </extensions>
      </trkpt>
      <trkpt lat="42.57369610480964183807373046875" lon="20.08041386492550373077392578125">
        <ele>1970.5999755859375</ele>
        <time>2026-06-15T10:41:58.000Z</time>
        <extensions>
          <ns3:TrackPointExtension>
            <ns3:atemp>16.0</ns3:atemp>
          </ns3:TrackPointExtension>
        </extensions>
      </trkpt>
      <trkpt lat="42.57369610480964183807373046875" lon="20.08041386492550373077392578125">
        <ele>1970.5999755859375</ele>
        <time>2026-06-15T10:41:59.000Z</time>
        <extensions>
          <ns3:TrackPointExtension>
            <ns3:atemp>16.0</ns3:atemp>
          </ns3:TrackPointExtension>
        </extensions>
      </trkpt>
      <trkpt lat="42.57369610480964183807373046875" lon="20.08041386492550373077392578125">
        <ele>1970.5999755859375</ele>
        <time>2026-06-15T10:42:00.000Z</time>
        <extensions>
          <ns3:TrackPointExtension>
            <ns3:atemp>16.0</ns3:atemp>
          </ns3:TrackPointExtension>
        </extensions>
      </trkpt>
      <trkpt lat="42.57369719445705413818359375" lon="20.0804129429161548614501953125">
        <ele>1970.5999755859375</ele>
        <time>2026-06-15T10:42:01.000Z</time>
        <extensions>
          <ns3:TrackPointExtension>
            <ns3:atemp>16.0</ns3:atemp>
          </ns3:TrackPointExtension>
        </extensions>
      </trkpt>
      <trkpt lat="42.57369610480964183807373046875" lon="20.08041386492550373077392578125">
        <ele>1970.5999755859375</ele>
        <time>2026-06-15T10:42:02.000Z</time>
        <extensions>
          <ns3:TrackPointExtension>
            <ns3:atemp>16.0</ns3:atemp>
          </ns3:TrackPointExtension>
        </extensions>
      </trkpt>
      <trkpt lat="42.57369610480964183807373046875" lon="20.08041386492550373077392578125">
        <ele>1970.5999755859375</ele>
        <time>2026-06-15T10:42:03.000Z</time>
        <extensions>
          <ns3:TrackPointExtension>
            <ns3:atemp>16.0</ns3:atemp>
          </ns3:TrackPointExtension>
        </extensions>
      </trkpt>
      <trkpt lat="42.57369610480964183807373046875" lon="20.08041386492550373077392578125">
        <ele>1970.5999755859375</ele>
        <time>2026-06-15T10:42:04.000Z</time>
        <extensions>
          <ns3:TrackPointExtension>
            <ns3:atemp>16.0</ns3:atemp>
          </ns3:TrackPointExtension>
        </extensions>
      </trkpt>
      <trkpt lat="42.57369610480964183807373046875" lon="20.08041386492550373077392578125">
        <ele>1970.5999755859375</ele>
        <time>2026-06-15T10:42:05.000Z</time>
        <extensions>
          <ns3:TrackPointExtension>
            <ns3:atemp>16.0</ns3:atemp>
          </ns3:TrackPointExtension>
        </extensions>
      </trkpt>
      <trkpt lat="42.57369610480964183807373046875" lon="20.08041386492550373077392578125">
        <ele>1970.5999755859375</ele>
        <time>2026-06-15T10:42:06.000Z</time>
        <extensions>
          <ns3:TrackPointExtension>
            <ns3:atemp>16.0</ns3:atemp>
          </ns3:TrackPointExtension>
        </extensions>
      </trkpt>
      <trkpt lat="42.57369610480964183807373046875" lon="20.08041386492550373077392578125">
        <ele>1970.5999755859375</ele>
        <time>2026-06-15T10:42:07.000Z</time>
        <extensions>
          <ns3:TrackPointExtension>
            <ns3:atemp>16.0</ns3:atemp>
          </ns3:TrackPointExtension>
        </extensions>
      </trkpt>
      <trkpt lat="42.57369610480964183807373046875" lon="20.08041386492550373077392578125">
        <ele>1970.5999755859375</ele>
        <time>2026-06-15T10:42:08.000Z</time>
        <extensions>
          <ns3:TrackPointExtension>
            <ns3:atemp>16.0</ns3:atemp>
          </ns3:TrackPointExtension>
        </extensions>
      </trkpt>
      <trkpt lat="42.57369610480964183807373046875" lon="20.08041386492550373077392578125">
        <ele>1970.5999755859375</ele>
        <time>2026-06-15T10:42:09.000Z</time>
        <extensions>
          <ns3:TrackPointExtension>
            <ns3:atemp>16.0</ns3:atemp>
          </ns3:TrackPointExtension>
        </extensions>
      </trkpt>
      <trkpt lat="42.57369610480964183807373046875" lon="20.08041386492550373077392578125">
        <ele>1970.5999755859375</ele>
        <time>2026-06-15T10:42:10.000Z</time>
        <extensions>
          <ns3:TrackPointExtension>
            <ns3:atemp>16.0</ns3:atemp>
          </ns3:TrackPointExtension>
        </extensions>
      </trkpt>
      <trkpt lat="42.57369610480964183807373046875" lon="20.08041386492550373077392578125">
        <ele>1970.5999755859375</ele>
        <time>2026-06-15T10:42:11.000Z</time>
        <extensions>
          <ns3:TrackPointExtension>
            <ns3:atemp>16.0</ns3:atemp>
          </ns3:TrackPointExtension>
        </extensions>
      </trkpt>
      <trkpt lat="42.57369610480964183807373046875" lon="20.08041386492550373077392578125">
        <ele>1970.5999755859375</ele>
        <time>2026-06-15T10:42:12.000Z</time>
        <extensions>
          <ns3:TrackPointExtension>
            <ns3:atemp>16.0</ns3:atemp>
          </ns3:TrackPointExtension>
        </extensions>
      </trkpt>
      <trkpt lat="42.57369610480964183807373046875" lon="20.08041386492550373077392578125">
        <ele>1970.5999755859375</ele>
        <time>2026-06-15T10:42:13.000Z</time>
        <extensions>
          <ns3:TrackPointExtension>
            <ns3:atemp>16.0</ns3:atemp>
          </ns3:TrackPointExtension>
        </extensions>
      </trkpt>
      <trkpt lat="42.57369610480964183807373046875" lon="20.08041386492550373077392578125">
        <ele>1970.5999755859375</ele>
        <time>2026-06-15T10:42:14.000Z</time>
        <extensions>
          <ns3:TrackPointExtension>
            <ns3:atemp>16.0</ns3:atemp>
          </ns3:TrackPointExtension>
        </extensions>
      </trkpt>
      <trkpt lat="42.57369610480964183807373046875" lon="20.08041386492550373077392578125">
        <ele>1970.5999755859375</ele>
        <time>2026-06-15T10:42:15.000Z</time>
        <extensions>
          <ns3:TrackPointExtension>
            <ns3:atemp>16.0</ns3:atemp>
          </ns3:TrackPointExtension>
        </extensions>
      </trkpt>
      <trkpt lat="42.57369610480964183807373046875" lon="20.08041386492550373077392578125">
        <ele>1970.800048828125</ele>
        <time>2026-06-15T10:42:16.000Z</time>
        <extensions>
          <ns3:TrackPointExtension>
            <ns3:atemp>16.0</ns3:atemp>
          </ns3:TrackPointExtension>
        </extensions>
      </trkpt>
      <trkpt lat="42.57369610480964183807373046875" lon="20.08041386492550373077392578125">
        <ele>1970.800048828125</ele>
        <time>2026-06-15T10:42:17.000Z</time>
        <extensions>
          <ns3:TrackPointExtension>
            <ns3:atemp>16.0</ns3:atemp>
          </ns3:TrackPointExtension>
        </extensions>
      </trkpt>
      <trkpt lat="42.57369610480964183807373046875" lon="20.08041386492550373077392578125">
        <ele>1970.800048828125</ele>
        <time>2026-06-15T10:42:18.000Z</time>
        <extensions>
          <ns3:TrackPointExtension>
            <ns3:atemp>16.0</ns3:atemp>
          </ns3:TrackPointExtension>
        </extensions>
      </trkpt>
      <trkpt lat="42.57369610480964183807373046875" lon="20.08041386492550373077392578125">
        <ele>1970.800048828125</ele>
        <time>2026-06-15T10:42:19.000Z</time>
        <extensions>
          <ns3:TrackPointExtension>
            <ns3:atemp>16.0</ns3:atemp>
          </ns3:TrackPointExtension>
        </extensions>
      </trkpt>
      <trkpt lat="42.57369610480964183807373046875" lon="20.08041386492550373077392578125">
        <ele>1970.800048828125</ele>
        <time>2026-06-15T10:42:20.000Z</time>
        <extensions>
          <ns3:TrackPointExtension>
            <ns3:atemp>16.0</ns3:atemp>
          </ns3:TrackPointExtension>
        </extensions>
      </trkpt>
      <trkpt lat="42.57369610480964183807373046875" lon="20.08041386492550373077392578125">
        <ele>1970.800048828125</ele>
        <time>2026-06-15T10:42:21.000Z</time>
        <extensions>
          <ns3:TrackPointExtension>
            <ns3:atemp>16.0</ns3:atemp>
          </ns3:TrackPointExtension>
        </extensions>
      </trkpt>
      <trkpt lat="42.57369610480964183807373046875" lon="20.08041386492550373077392578125">
        <ele>1970.5999755859375</ele>
        <time>2026-06-15T10:42:22.000Z</time>
        <extensions>
          <ns3:TrackPointExtension>
            <ns3:atemp>16.0</ns3:atemp>
          </ns3:TrackPointExtension>
        </extensions>
      </trkpt>
      <trkpt lat="42.57369610480964183807373046875" lon="20.08041386492550373077392578125">
        <ele>1970.5999755859375</ele>
        <time>2026-06-15T10:42:23.000Z</time>
        <extensions>
          <ns3:TrackPointExtension>
            <ns3:atemp>16.0</ns3:atemp>
          </ns3:TrackPointExtension>
        </extensions>
      </trkpt>
      <trkpt lat="42.57369610480964183807373046875" lon="20.08041386492550373077392578125">
        <ele>1970.5999755859375</ele>
        <time>2026-06-15T10:42:24.000Z</time>
        <extensions>
          <ns3:TrackPointExtension>
            <ns3:atemp>16.0</ns3:atemp>
          </ns3:TrackPointExtension>
        </extensions>
      </trkpt>
      <trkpt lat="42.57369610480964183807373046875" lon="20.08041386492550373077392578125">
        <ele>1970.4000244140625</ele>
        <time>2026-06-15T10:42:25.000Z</time>
        <extensions>
          <ns3:TrackPointExtension>
            <ns3:atemp>16.0</ns3:atemp>
          </ns3:TrackPointExtension>
        </extensions>
      </trkpt>
      <trkpt lat="42.57369610480964183807373046875" lon="20.08041386492550373077392578125">
        <ele>1970.4000244140625</ele>
        <time>2026-06-15T10:42:26.000Z</time>
        <extensions>
          <ns3:TrackPointExtension>
            <ns3:atemp>16.0</ns3:atemp>
          </ns3:TrackPointExtension>
        </extensions>
      </trkpt>
      <trkpt lat="42.57369610480964183807373046875" lon="20.08041386492550373077392578125">
        <ele>1970.4000244140625</ele>
        <time>2026-06-15T10:42:27.000Z</time>
        <extensions>
          <ns3:TrackPointExtension>
            <ns3:atemp>16.0</ns3:atemp>
          </ns3:TrackPointExtension>
        </extensions>
      </trkpt>
      <trkpt lat="42.57369610480964183807373046875" lon="20.08041386492550373077392578125">
        <ele>1970.4000244140625</ele>
        <time>2026-06-15T10:42:28.000Z</time>
        <extensions>
          <ns3:TrackPointExtension>
            <ns3:atemp>16.0</ns3:atemp>
          </ns3:TrackPointExtension>
        </extensions>
      </trkpt>
      <trkpt lat="42.57369610480964183807373046875" lon="20.08041386492550373077392578125">
        <ele>1970.5999755859375</ele>
        <time>2026-06-15T10:42:29.000Z</time>
        <extensions>
          <ns3:TrackPointExtension>
            <ns3:atemp>16.0</ns3:atemp>
          </ns3:TrackPointExtension>
        </extensions>
      </trkpt>
      <trkpt lat="42.57369610480964183807373046875" lon="20.08041386492550373077392578125">
        <ele>1970.5999755859375</ele>
        <time>2026-06-15T10:42:30.000Z</time>
        <extensions>
          <ns3:TrackPointExtension>
            <ns3:atemp>16.0</ns3:atemp>
          </ns3:TrackPointExtension>
        </extensions>
      </trkpt>
      <trkpt lat="42.57369610480964183807373046875" lon="20.08041386492550373077392578125">
        <ele>1970.5999755859375</ele>
        <time>2026-06-15T10:42:31.000Z</time>
        <extensions>
          <ns3:TrackPointExtension>
            <ns3:atemp>16.0</ns3:atemp>
          </ns3:TrackPointExtension>
        </extensions>
      </trkpt>
      <trkpt lat="42.57369610480964183807373046875" lon="20.08041386492550373077392578125">
        <ele>1970.5999755859375</ele>
        <time>2026-06-15T10:42:32.000Z</time>
        <extensions>
          <ns3:TrackPointExtension>
            <ns3:atemp>16.0</ns3:atemp>
          </ns3:TrackPointExtension>
        </extensions>
      </trkpt>
      <trkpt lat="42.57369610480964183807373046875" lon="20.08041386492550373077392578125">
        <ele>1970.5999755859375</ele>
        <time>2026-06-15T10:42:33.000Z</time>
        <extensions>
          <ns3:TrackPointExtension>
            <ns3:atemp>16.0</ns3:atemp>
          </ns3:TrackPointExtension>
        </extensions>
      </trkpt>
      <trkpt lat="42.57369610480964183807373046875" lon="20.08041386492550373077392578125">
        <ele>1970.5999755859375</ele>
        <time>2026-06-15T10:42:34.000Z</time>
        <extensions>
          <ns3:TrackPointExtension>
            <ns3:atemp>16.0</ns3:atemp>
          </ns3:TrackPointExtension>
        </extensions>
      </trkpt>
      <trkpt lat="42.57369610480964183807373046875" lon="20.08041386492550373077392578125">
        <ele>1970.5999755859375</ele>
        <time>2026-06-15T10:42:35.000Z</time>
        <extensions>
          <ns3:TrackPointExtension>
            <ns3:atemp>16.0</ns3:atemp>
          </ns3:TrackPointExtension>
        </extensions>
      </trkpt>
      <trkpt lat="42.57369610480964183807373046875" lon="20.08041386492550373077392578125">
        <ele>1970.5999755859375</ele>
        <time>2026-06-15T10:42:36.000Z</time>
        <extensions>
          <ns3:TrackPointExtension>
            <ns3:atemp>16.0</ns3:atemp>
          </ns3:TrackPointExtension>
        </extensions>
      </trkpt>
      <trkpt lat="42.57369610480964183807373046875" lon="20.08041386492550373077392578125">
        <ele>1970.800048828125</ele>
        <time>2026-06-15T10:42:37.000Z</time>
        <extensions>
          <ns3:TrackPointExtension>
            <ns3:atemp>16.0</ns3:atemp>
          </ns3:TrackPointExtension>
        </extensions>
      </trkpt>
      <trkpt lat="42.57369610480964183807373046875" lon="20.08041386492550373077392578125">
        <ele>1970.800048828125</ele>
        <time>2026-06-15T10:42:38.000Z</time>
        <extensions>
          <ns3:TrackPointExtension>
            <ns3:atemp>16.0</ns3:atemp>
          </ns3:TrackPointExtension>
        </extensions>
      </trkpt>
      <trkpt lat="42.57369610480964183807373046875" lon="20.08041386492550373077392578125">
        <ele>1970.800048828125</ele>
        <time>2026-06-15T10:42:39.000Z</time>
        <extensions>
          <ns3:TrackPointExtension>
            <ns3:atemp>16.0</ns3:atemp>
          </ns3:TrackPointExtension>
        </extensions>
      </trkpt>
      <trkpt lat="42.57369610480964183807373046875" lon="20.08041386492550373077392578125">
        <ele>1970.800048828125</ele>
        <time>2026-06-15T10:42:40.000Z</time>
        <extensions>
          <ns3:TrackPointExtension>
            <ns3:atemp>16.0</ns3:atemp>
          </ns3:TrackPointExtension>
        </extensions>
      </trkpt>
      <trkpt lat="42.57369610480964183807373046875" lon="20.08041386492550373077392578125">
        <ele>1970.800048828125</ele>
        <time>2026-06-15T10:42:41.000Z</time>
        <extensions>
          <ns3:TrackPointExtension>
            <ns3:atemp>16.0</ns3:atemp>
          </ns3:TrackPointExtension>
        </extensions>
      </trkpt>
      <trkpt lat="42.57369610480964183807373046875" lon="20.08041386492550373077392578125">
        <ele>1970.800048828125</ele>
        <time>2026-06-15T10:42:42.000Z</time>
        <extensions>
          <ns3:TrackPointExtension>
            <ns3:atemp>16.0</ns3:atemp>
          </ns3:TrackPointExtension>
        </extensions>
      </trkpt>
      <trkpt lat="42.57369610480964183807373046875" lon="20.08041386492550373077392578125">
        <ele>1970.5999755859375</ele>
        <time>2026-06-15T10:42:43.000Z</time>
        <extensions>
          <ns3:TrackPointExtension>
            <ns3:atemp>16.0</ns3:atemp>
          </ns3:TrackPointExtension>
        </extensions>
      </trkpt>
      <trkpt lat="42.57369610480964183807373046875" lon="20.08041386492550373077392578125">
        <ele>1970.5999755859375</ele>
        <time>2026-06-15T10:42:44.000Z</time>
        <extensions>
          <ns3:TrackPointExtension>
            <ns3:atemp>16.0</ns3:atemp>
          </ns3:TrackPointExtension>
        </extensions>
      </trkpt>
      <trkpt lat="42.57369610480964183807373046875" lon="20.08041386492550373077392578125">
        <ele>1970.5999755859375</ele>
        <time>2026-06-15T10:42:45.000Z</time>
        <extensions>
          <ns3:TrackPointExtension>
            <ns3:atemp>16.0</ns3:atemp>
          </ns3:TrackPointExtension>
        </extensions>
      </trkpt>
      <trkpt lat="42.57369610480964183807373046875" lon="20.08041386492550373077392578125">
        <ele>1970.5999755859375</ele>
        <time>2026-06-15T10:42:46.000Z</time>
        <extensions>
          <ns3:TrackPointExtension>
            <ns3:atemp>16.0</ns3:atemp>
          </ns3:TrackPointExtension>
        </extensions>
      </trkpt>
      <trkpt lat="42.57369610480964183807373046875" lon="20.08041386492550373077392578125">
        <ele>1970.5999755859375</ele>
        <time>2026-06-15T10:42:47.000Z</time>
        <extensions>
          <ns3:TrackPointExtension>
            <ns3:atemp>16.0</ns3:atemp>
          </ns3:TrackPointExtension>
        </extensions>
      </trkpt>
      <trkpt lat="42.57369610480964183807373046875" lon="20.08041386492550373077392578125">
        <ele>1970.5999755859375</ele>
        <time>2026-06-15T10:42:48.000Z</time>
        <extensions>
          <ns3:TrackPointExtension>
            <ns3:atemp>16.0</ns3:atemp>
          </ns3:TrackPointExtension>
        </extensions>
      </trkpt>
      <trkpt lat="42.57369610480964183807373046875" lon="20.08041386492550373077392578125">
        <ele>1970.5999755859375</ele>
        <time>2026-06-15T10:42:49.000Z</time>
        <extensions>
          <ns3:TrackPointExtension>
            <ns3:atemp>16.0</ns3:atemp>
          </ns3:TrackPointExtension>
        </extensions>
      </trkpt>
      <trkpt lat="42.57369610480964183807373046875" lon="20.08041386492550373077392578125">
        <ele>1970.5999755859375</ele>
        <time>2026-06-15T10:42:50.000Z</time>
        <extensions>
          <ns3:TrackPointExtension>
            <ns3:atemp>16.0</ns3:atemp>
          </ns3:TrackPointExtension>
        </extensions>
      </trkpt>
      <trkpt lat="42.57369610480964183807373046875" lon="20.08041386492550373077392578125">
        <ele>1970.5999755859375</ele>
        <time>2026-06-15T10:42:51.000Z</time>
        <extensions>
          <ns3:TrackPointExtension>
            <ns3:atemp>16.0</ns3:atemp>
          </ns3:TrackPointExtension>
        </extensions>
      </trkpt>
      <trkpt lat="42.57369610480964183807373046875" lon="20.08041386492550373077392578125">
        <ele>1970.5999755859375</ele>
        <time>2026-06-15T10:42:52.000Z</time>
        <extensions>
          <ns3:TrackPointExtension>
            <ns3:atemp>16.0</ns3:atemp>
          </ns3:TrackPointExtension>
        </extensions>
      </trkpt>
      <trkpt lat="42.57369610480964183807373046875" lon="20.08041386492550373077392578125">
        <ele>1970.5999755859375</ele>
        <time>2026-06-15T10:42:53.000Z</time>
        <extensions>
          <ns3:TrackPointExtension>
            <ns3:atemp>16.0</ns3:atemp>
          </ns3:TrackPointExtension>
        </extensions>
      </trkpt>
      <trkpt lat="42.57369610480964183807373046875" lon="20.08041386492550373077392578125">
        <ele>1970.5999755859375</ele>
        <time>2026-06-15T10:42:54.000Z</time>
        <extensions>
          <ns3:TrackPointExtension>
            <ns3:atemp>16.0</ns3:atemp>
          </ns3:TrackPointExtension>
        </extensions>
      </trkpt>
      <trkpt lat="42.57369610480964183807373046875" lon="20.08041386492550373077392578125">
        <ele>1970.5999755859375</ele>
        <time>2026-06-15T10:42:55.000Z</time>
        <extensions>
          <ns3:TrackPointExtension>
            <ns3:atemp>16.0</ns3:atemp>
          </ns3:TrackPointExtension>
        </extensions>
      </trkpt>
      <trkpt lat="42.57369610480964183807373046875" lon="20.08041386492550373077392578125">
        <ele>1970.800048828125</ele>
        <time>2026-06-15T10:42:56.000Z</time>
        <extensions>
          <ns3:TrackPointExtension>
            <ns3:atemp>16.0</ns3:atemp>
          </ns3:TrackPointExtension>
        </extensions>
      </trkpt>
      <trkpt lat="42.57369610480964183807373046875" lon="20.08041386492550373077392578125">
        <ele>1970.800048828125</ele>
        <time>2026-06-15T10:42:57.000Z</time>
        <extensions>
          <ns3:TrackPointExtension>
            <ns3:atemp>16.0</ns3:atemp>
          </ns3:TrackPointExtension>
        </extensions>
      </trkpt>
      <trkpt lat="42.57369610480964183807373046875" lon="20.08041386492550373077392578125">
        <ele>1970.800048828125</ele>
        <time>2026-06-15T10:42:58.000Z</time>
        <extensions>
          <ns3:TrackPointExtension>
            <ns3:atemp>16.0</ns3:atemp>
          </ns3:TrackPointExtension>
        </extensions>
      </trkpt>
      <trkpt lat="42.57369610480964183807373046875" lon="20.08041386492550373077392578125">
        <ele>1970.800048828125</ele>
        <time>2026-06-15T10:42:59.000Z</time>
        <extensions>
          <ns3:TrackPointExtension>
            <ns3:atemp>16.0</ns3:atemp>
          </ns3:TrackPointExtension>
        </extensions>
      </trkpt>
      <trkpt lat="42.57369610480964183807373046875" lon="20.08041386492550373077392578125">
        <ele>1970.800048828125</ele>
        <time>2026-06-15T10:43:00.000Z</time>
        <extensions>
          <ns3:TrackPointExtension>
            <ns3:atemp>16.0</ns3:atemp>
          </ns3:TrackPointExtension>
        </extensions>
      </trkpt>
      <trkpt lat="42.57369610480964183807373046875" lon="20.08041386492550373077392578125">
        <ele>1971</ele>
        <time>2026-06-15T10:43:01.000Z</time>
        <extensions>
          <ns3:TrackPointExtension>
            <ns3:atemp>16.0</ns3:atemp>
          </ns3:TrackPointExtension>
        </extensions>
      </trkpt>
      <trkpt lat="42.57369610480964183807373046875" lon="20.08041386492550373077392578125">
        <ele>1971</ele>
        <time>2026-06-15T10:43:02.000Z</time>
        <extensions>
          <ns3:TrackPointExtension>
            <ns3:atemp>16.0</ns3:atemp>
          </ns3:TrackPointExtension>
        </extensions>
      </trkpt>
      <trkpt lat="42.57369610480964183807373046875" lon="20.08041386492550373077392578125">
        <ele>1971</ele>
        <time>2026-06-15T10:43:03.000Z</time>
        <extensions>
          <ns3:TrackPointExtension>
            <ns3:atemp>16.0</ns3:atemp>
          </ns3:TrackPointExtension>
        </extensions>
      </trkpt>
      <trkpt lat="42.57369610480964183807373046875" lon="20.08041386492550373077392578125">
        <ele>1971</ele>
        <time>2026-06-15T10:43:04.000Z</time>
        <extensions>
          <ns3:TrackPointExtension>
            <ns3:atemp>16.0</ns3:atemp>
          </ns3:TrackPointExtension>
        </extensions>
      </trkpt>
      <trkpt lat="42.57369610480964183807373046875" lon="20.08041386492550373077392578125">
        <ele>1971</ele>
        <time>2026-06-15T10:43:05.000Z</time>
        <extensions>
          <ns3:TrackPointExtension>
            <ns3:atemp>16.0</ns3:atemp>
          </ns3:TrackPointExtension>
        </extensions>
      </trkpt>
      <trkpt lat="42.57369610480964183807373046875" lon="20.08041386492550373077392578125">
        <ele>1971</ele>
        <time>2026-06-15T10:43:06.000Z</time>
        <extensions>
          <ns3:TrackPointExtension>
            <ns3:atemp>16.0</ns3:atemp>
          </ns3:TrackPointExtension>
        </extensions>
      </trkpt>
      <trkpt lat="42.57369610480964183807373046875" lon="20.08041386492550373077392578125">
        <ele>1971</ele>
        <time>2026-06-15T10:43:07.000Z</time>
        <extensions>
          <ns3:TrackPointExtension>
            <ns3:atemp>16.0</ns3:atemp>
          </ns3:TrackPointExtension>
        </extensions>
      </trkpt>
      <trkpt lat="42.57369610480964183807373046875" lon="20.08041386492550373077392578125">
        <ele>1971</ele>
        <time>2026-06-15T10:43:08.000Z</time>
        <extensions>
          <ns3:TrackPointExtension>
            <ns3:atemp>16.0</ns3:atemp>
          </ns3:TrackPointExtension>
        </extensions>
      </trkpt>
      <trkpt lat="42.57369610480964183807373046875" lon="20.08041386492550373077392578125">
        <ele>1971.199951171875</ele>
        <time>2026-06-15T10:43:09.000Z</time>
        <extensions>
          <ns3:TrackPointExtension>
            <ns3:atemp>16.0</ns3:atemp>
          </ns3:TrackPointExtension>
        </extensions>
      </trkpt>
      <trkpt lat="42.57369610480964183807373046875" lon="20.08041386492550373077392578125">
        <ele>1971.199951171875</ele>
        <time>2026-06-15T10:43:10.000Z</time>
        <extensions>
          <ns3:TrackPointExtension>
            <ns3:atemp>16.0</ns3:atemp>
          </ns3:TrackPointExtension>
        </extensions>
      </trkpt>
      <trkpt lat="42.57369610480964183807373046875" lon="20.08041386492550373077392578125">
        <ele>1971.199951171875</ele>
        <time>2026-06-15T10:43:11.000Z</time>
        <extensions>
          <ns3:TrackPointExtension>
            <ns3:atemp>16.0</ns3:atemp>
          </ns3:TrackPointExtension>
        </extensions>
      </trkpt>
      <trkpt lat="42.57369610480964183807373046875" lon="20.08041386492550373077392578125">
        <ele>1971.199951171875</ele>
        <time>2026-06-15T10:43:12.000Z</time>
        <extensions>
          <ns3:TrackPointExtension>
            <ns3:atemp>16.0</ns3:atemp>
          </ns3:TrackPointExtension>
        </extensions>
      </trkpt>
      <trkpt lat="42.57369610480964183807373046875" lon="20.08041386492550373077392578125">
        <ele>1971.199951171875</ele>
        <time>2026-06-15T10:43:13.000Z</time>
        <extensions>
          <ns3:TrackPointExtension>
            <ns3:atemp>16.0</ns3:atemp>
          </ns3:TrackPointExtension>
        </extensions>
      </trkpt>
      <trkpt lat="42.57369610480964183807373046875" lon="20.08041386492550373077392578125">
        <ele>1971.199951171875</ele>
        <time>2026-06-15T10:43:14.000Z</time>
        <extensions>
          <ns3:TrackPointExtension>
            <ns3:atemp>16.0</ns3:atemp>
          </ns3:TrackPointExtension>
        </extensions>
      </trkpt>
      <trkpt lat="42.57369610480964183807373046875" lon="20.08041386492550373077392578125">
        <ele>1971.199951171875</ele>
        <time>2026-06-15T10:43:15.000Z</time>
        <extensions>
          <ns3:TrackPointExtension>
            <ns3:atemp>16.0</ns3:atemp>
          </ns3:TrackPointExtension>
        </extensions>
      </trkpt>
      <trkpt lat="42.57369610480964183807373046875" lon="20.08041386492550373077392578125">
        <ele>1971.199951171875</ele>
        <time>2026-06-15T10:43:16.000Z</time>
        <extensions>
          <ns3:TrackPointExtension>
            <ns3:atemp>16.0</ns3:atemp>
          </ns3:TrackPointExtension>
        </extensions>
      </trkpt>
      <trkpt lat="42.57369610480964183807373046875" lon="20.08041386492550373077392578125">
        <ele>1971.199951171875</ele>
        <time>2026-06-15T10:43:17.000Z</time>
        <extensions>
          <ns3:TrackPointExtension>
            <ns3:atemp>16.0</ns3:atemp>
          </ns3:TrackPointExtension>
        </extensions>
      </trkpt>
      <trkpt lat="42.57369610480964183807373046875" lon="20.08041386492550373077392578125">
        <ele>1971.199951171875</ele>
        <time>2026-06-15T10:43:18.000Z</time>
        <extensions>
          <ns3:TrackPointExtension>
            <ns3:atemp>16.0</ns3:atemp>
          </ns3:TrackPointExtension>
        </extensions>
      </trkpt>
      <trkpt lat="42.57369610480964183807373046875" lon="20.08041386492550373077392578125">
        <ele>1971.199951171875</ele>
        <time>2026-06-15T10:43:19.000Z</time>
        <extensions>
          <ns3:TrackPointExtension>
            <ns3:atemp>16.0</ns3:atemp>
          </ns3:TrackPointExtension>
        </extensions>
      </trkpt>
      <trkpt lat="42.57369610480964183807373046875" lon="20.08041386492550373077392578125">
        <ele>1971.199951171875</ele>
        <time>2026-06-15T10:43:20.000Z</time>
        <extensions>
          <ns3:TrackPointExtension>
            <ns3:atemp>16.0</ns3:atemp>
          </ns3:TrackPointExtension>
        </extensions>
      </trkpt>
      <trkpt lat="42.57369610480964183807373046875" lon="20.08041386492550373077392578125">
        <ele>1971.199951171875</ele>
        <time>2026-06-15T10:43:21.000Z</time>
        <extensions>
          <ns3:TrackPointExtension>
            <ns3:atemp>16.0</ns3:atemp>
          </ns3:TrackPointExtension>
        </extensions>
      </trkpt>
      <trkpt lat="42.57369610480964183807373046875" lon="20.08041386492550373077392578125">
        <ele>1971.199951171875</ele>
        <time>2026-06-15T10:43:22.000Z</time>
        <extensions>
          <ns3:TrackPointExtension>
            <ns3:atemp>16.0</ns3:atemp>
          </ns3:TrackPointExtension>
        </extensions>
      </trkpt>
      <trkpt lat="42.57369610480964183807373046875" lon="20.08041386492550373077392578125">
        <ele>1971.199951171875</ele>
        <time>2026-06-15T10:43:23.000Z</time>
        <extensions>
          <ns3:TrackPointExtension>
            <ns3:atemp>16.0</ns3:atemp>
          </ns3:TrackPointExtension>
        </extensions>
      </trkpt>
      <trkpt lat="42.57369610480964183807373046875" lon="20.08041386492550373077392578125">
        <ele>1971.199951171875</ele>
        <time>2026-06-15T10:43:24.000Z</time>
        <extensions>
          <ns3:TrackPointExtension>
            <ns3:atemp>16.0</ns3:atemp>
          </ns3:TrackPointExtension>
        </extensions>
      </trkpt>
      <trkpt lat="42.57369610480964183807373046875" lon="20.08041386492550373077392578125">
        <ele>1971</ele>
        <time>2026-06-15T10:43:25.000Z</time>
        <extensions>
          <ns3:TrackPointExtension>
            <ns3:atemp>16.0</ns3:atemp>
          </ns3:TrackPointExtension>
        </extensions>
      </trkpt>
      <trkpt lat="42.57369610480964183807373046875" lon="20.08041386492550373077392578125">
        <ele>1971</ele>
        <time>2026-06-15T10:43:26.000Z</time>
        <extensions>
          <ns3:TrackPointExtension>
            <ns3:atemp>16.0</ns3:atemp>
          </ns3:TrackPointExtension>
        </extensions>
      </trkpt>
      <trkpt lat="42.57369610480964183807373046875" lon="20.08041386492550373077392578125">
        <ele>1971</ele>
        <time>2026-06-15T10:43:27.000Z</time>
        <extensions>
          <ns3:TrackPointExtension>
            <ns3:atemp>16.0</ns3:atemp>
          </ns3:TrackPointExtension>
        </extensions>
      </trkpt>
      <trkpt lat="42.57369610480964183807373046875" lon="20.08041386492550373077392578125">
        <ele>1971</ele>
        <time>2026-06-15T10:43:28.000Z</time>
        <extensions>
          <ns3:TrackPointExtension>
            <ns3:atemp>16.0</ns3:atemp>
          </ns3:TrackPointExtension>
        </extensions>
      </trkpt>
      <trkpt lat="42.57369610480964183807373046875" lon="20.08041386492550373077392578125">
        <ele>1970.800048828125</ele>
        <time>2026-06-15T10:43:29.000Z</time>
        <extensions>
          <ns3:TrackPointExtension>
            <ns3:atemp>16.0</ns3:atemp>
          </ns3:TrackPointExtension>
        </extensions>
      </trkpt>
      <trkpt lat="42.57369610480964183807373046875" lon="20.08041386492550373077392578125">
        <ele>1970.800048828125</ele>
        <time>2026-06-15T10:43:30.000Z</time>
        <extensions>
          <ns3:TrackPointExtension>
            <ns3:atemp>16.0</ns3:atemp>
          </ns3:TrackPointExtension>
        </extensions>
      </trkpt>
      <trkpt lat="42.57369610480964183807373046875" lon="20.08041386492550373077392578125">
        <ele>1970.800048828125</ele>
        <time>2026-06-15T10:43:31.000Z</time>
        <extensions>
          <ns3:TrackPointExtension>
            <ns3:atemp>16.0</ns3:atemp>
          </ns3:TrackPointExtension>
        </extensions>
      </trkpt>
      <trkpt lat="42.57369610480964183807373046875" lon="20.08041386492550373077392578125">
        <ele>1970.800048828125</ele>
        <time>2026-06-15T10:43:32.000Z</time>
        <extensions>
          <ns3:TrackPointExtension>
            <ns3:atemp>16.0</ns3:atemp>
          </ns3:TrackPointExtension>
        </extensions>
      </trkpt>
      <trkpt lat="42.57369610480964183807373046875" lon="20.08041386492550373077392578125">
        <ele>1970.800048828125</ele>
        <time>2026-06-15T10:43:33.000Z</time>
        <extensions>
          <ns3:TrackPointExtension>
            <ns3:atemp>16.0</ns3:atemp>
          </ns3:TrackPointExtension>
        </extensions>
      </trkpt>
      <trkpt lat="42.57369610480964183807373046875" lon="20.08041386492550373077392578125">
        <ele>1970.800048828125</ele>
        <time>2026-06-15T10:43:34.000Z</time>
        <extensions>
          <ns3:TrackPointExtension>
            <ns3:atemp>16.0</ns3:atemp>
          </ns3:TrackPointExtension>
        </extensions>
      </trkpt>
      <trkpt lat="42.57369610480964183807373046875" lon="20.08041386492550373077392578125">
        <ele>1970.800048828125</ele>
        <time>2026-06-15T10:43:35.000Z</time>
        <extensions>
          <ns3:TrackPointExtension>
            <ns3:atemp>16.0</ns3:atemp>
          </ns3:TrackPointExtension>
        </extensions>
      </trkpt>
      <trkpt lat="42.57369610480964183807373046875" lon="20.08041386492550373077392578125">
        <ele>1970.800048828125</ele>
        <time>2026-06-15T10:43:36.000Z</time>
        <extensions>
          <ns3:TrackPointExtension>
            <ns3:atemp>16.0</ns3:atemp>
          </ns3:TrackPointExtension>
        </extensions>
      </trkpt>
      <trkpt lat="42.57369610480964183807373046875" lon="20.08041386492550373077392578125">
        <ele>1970.5999755859375</ele>
        <time>2026-06-15T10:43:37.000Z</time>
        <extensions>
          <ns3:TrackPointExtension>
            <ns3:atemp>16.0</ns3:atemp>
          </ns3:TrackPointExtension>
        </extensions>
      </trkpt>
      <trkpt lat="42.57369610480964183807373046875" lon="20.08041386492550373077392578125">
        <ele>1970.5999755859375</ele>
        <time>2026-06-15T10:43:38.000Z</time>
        <extensions>
          <ns3:TrackPointExtension>
            <ns3:atemp>16.0</ns3:atemp>
          </ns3:TrackPointExtension>
        </extensions>
      </trkpt>
      <trkpt lat="42.57369610480964183807373046875" lon="20.08041386492550373077392578125">
        <ele>1970.5999755859375</ele>
        <time>2026-06-15T10:43:39.000Z</time>
        <extensions>
          <ns3:TrackPointExtension>
            <ns3:atemp>16.0</ns3:atemp>
          </ns3:TrackPointExtension>
        </extensions>
      </trkpt>
      <trkpt lat="42.57369610480964183807373046875" lon="20.08041386492550373077392578125">
        <ele>1970.5999755859375</ele>
        <time>2026-06-15T10:43:40.000Z</time>
        <extensions>
          <ns3:TrackPointExtension>
            <ns3:atemp>16.0</ns3:atemp>
          </ns3:TrackPointExtension>
        </extensions>
      </trkpt>
      <trkpt lat="42.57369610480964183807373046875" lon="20.08041386492550373077392578125">
        <ele>1970.5999755859375</ele>
        <time>2026-06-15T10:43:41.000Z</time>
        <extensions>
          <ns3:TrackPointExtension>
            <ns3:atemp>16.0</ns3:atemp>
          </ns3:TrackPointExtension>
        </extensions>
      </trkpt>
      <trkpt lat="42.57369610480964183807373046875" lon="20.08041386492550373077392578125">
        <ele>1970.5999755859375</ele>
        <time>2026-06-15T10:43:42.000Z</time>
        <extensions>
          <ns3:TrackPointExtension>
            <ns3:atemp>16.0</ns3:atemp>
          </ns3:TrackPointExtension>
        </extensions>
      </trkpt>
      <trkpt lat="42.57369610480964183807373046875" lon="20.08041386492550373077392578125">
        <ele>1970.5999755859375</ele>
        <time>2026-06-15T10:43:43.000Z</time>
        <extensions>
          <ns3:TrackPointExtension>
            <ns3:atemp>16.0</ns3:atemp>
          </ns3:TrackPointExtension>
        </extensions>
      </trkpt>
      <trkpt lat="42.57369610480964183807373046875" lon="20.08041386492550373077392578125">
        <ele>1970.800048828125</ele>
        <time>2026-06-15T10:43:44.000Z</time>
        <extensions>
          <ns3:TrackPointExtension>
            <ns3:atemp>16.0</ns3:atemp>
          </ns3:TrackPointExtension>
        </extensions>
      </trkpt>
      <trkpt lat="42.57369610480964183807373046875" lon="20.08041386492550373077392578125">
        <ele>1970.800048828125</ele>
        <time>2026-06-15T10:43:45.000Z</time>
        <extensions>
          <ns3:TrackPointExtension>
            <ns3:atemp>16.0</ns3:atemp>
          </ns3:TrackPointExtension>
        </extensions>
      </trkpt>
      <trkpt lat="42.57369610480964183807373046875" lon="20.08041386492550373077392578125">
        <ele>1970.800048828125</ele>
        <time>2026-06-15T10:43:46.000Z</time>
        <extensions>
          <ns3:TrackPointExtension>
            <ns3:atemp>16.0</ns3:atemp>
          </ns3:TrackPointExtension>
        </extensions>
      </trkpt>
      <trkpt lat="42.57369610480964183807373046875" lon="20.08041386492550373077392578125">
        <ele>1970.800048828125</ele>
        <time>2026-06-15T10:43:47.000Z</time>
        <extensions>
          <ns3:TrackPointExtension>
            <ns3:atemp>16.0</ns3:atemp>
          </ns3:TrackPointExtension>
        </extensions>
      </trkpt>
      <trkpt lat="42.57369610480964183807373046875" lon="20.08041386492550373077392578125">
        <ele>1970.800048828125</ele>
        <time>2026-06-15T10:43:48.000Z</time>
        <extensions>
          <ns3:TrackPointExtension>
            <ns3:atemp>16.0</ns3:atemp>
          </ns3:TrackPointExtension>
        </extensions>
      </trkpt>
      <trkpt lat="42.57369610480964183807373046875" lon="20.08041386492550373077392578125">
        <ele>1971</ele>
        <time>2026-06-15T10:43:49.000Z</time>
        <extensions>
          <ns3:TrackPointExtension>
            <ns3:atemp>16.0</ns3:atemp>
          </ns3:TrackPointExtension>
        </extensions>
      </trkpt>
      <trkpt lat="42.57369610480964183807373046875" lon="20.08041386492550373077392578125">
        <ele>1971</ele>
        <time>2026-06-15T10:43:50.000Z</time>
        <extensions>
          <ns3:TrackPointExtension>
            <ns3:atemp>16.0</ns3:atemp>
          </ns3:TrackPointExtension>
        </extensions>
      </trkpt>
      <trkpt lat="42.57369610480964183807373046875" lon="20.08041386492550373077392578125">
        <ele>1971</ele>
        <time>2026-06-15T10:43:51.000Z</time>
        <extensions>
          <ns3:TrackPointExtension>
            <ns3:atemp>16.0</ns3:atemp>
          </ns3:TrackPointExtension>
        </extensions>
      </trkpt>
      <trkpt lat="42.57369610480964183807373046875" lon="20.08041386492550373077392578125">
        <ele>1971</ele>
        <time>2026-06-15T10:43:52.000Z</time>
        <extensions>
          <ns3:TrackPointExtension>
            <ns3:atemp>16.0</ns3:atemp>
          </ns3:TrackPointExtension>
        </extensions>
      </trkpt>
      <trkpt lat="42.57369610480964183807373046875" lon="20.08041386492550373077392578125">
        <ele>1970.800048828125</ele>
        <time>2026-06-15T10:43:53.000Z</time>
        <extensions>
          <ns3:TrackPointExtension>
            <ns3:atemp>16.0</ns3:atemp>
          </ns3:TrackPointExtension>
        </extensions>
      </trkpt>
      <trkpt lat="42.57369610480964183807373046875" lon="20.08041386492550373077392578125">
        <ele>1970.800048828125</ele>
        <time>2026-06-15T10:43:54.000Z</time>
        <extensions>
          <ns3:TrackPointExtension>
            <ns3:atemp>16.0</ns3:atemp>
          </ns3:TrackPointExtension>
        </extensions>
      </trkpt>
      <trkpt lat="42.57369610480964183807373046875" lon="20.08041386492550373077392578125">
        <ele>1970.800048828125</ele>
        <time>2026-06-15T10:43:55.000Z</time>
        <extensions>
          <ns3:TrackPointExtension>
            <ns3:atemp>16.0</ns3:atemp>
          </ns3:TrackPointExtension>
        </extensions>
      </trkpt>
      <trkpt lat="42.57369610480964183807373046875" lon="20.08041386492550373077392578125">
        <ele>1970.800048828125</ele>
        <time>2026-06-15T10:43:56.000Z</time>
        <extensions>
          <ns3:TrackPointExtension>
            <ns3:atemp>16.0</ns3:atemp>
          </ns3:TrackPointExtension>
        </extensions>
      </trkpt>
      <trkpt lat="42.57369610480964183807373046875" lon="20.08041386492550373077392578125">
        <ele>1970.800048828125</ele>
        <time>2026-06-15T10:43:57.000Z</time>
        <extensions>
          <ns3:TrackPointExtension>
            <ns3:atemp>16.0</ns3:atemp>
          </ns3:TrackPointExtension>
        </extensions>
      </trkpt>
      <trkpt lat="42.57369610480964183807373046875" lon="20.08041386492550373077392578125">
        <ele>1970.800048828125</ele>
        <time>2026-06-15T10:43:58.000Z</time>
        <extensions>
          <ns3:TrackPointExtension>
            <ns3:atemp>16.0</ns3:atemp>
          </ns3:TrackPointExtension>
        </extensions>
      </trkpt>
      <trkpt lat="42.57369610480964183807373046875" lon="20.08041386492550373077392578125">
        <ele>1970.800048828125</ele>
        <time>2026-06-15T10:43:59.000Z</time>
        <extensions>
          <ns3:TrackPointExtension>
            <ns3:atemp>16.0</ns3:atemp>
          </ns3:TrackPointExtension>
        </extensions>
      </trkpt>
      <trkpt lat="42.57369610480964183807373046875" lon="20.08041386492550373077392578125">
        <ele>1970.5999755859375</ele>
        <time>2026-06-15T10:44:00.000Z</time>
        <extensions>
          <ns3:TrackPointExtension>
            <ns3:atemp>16.0</ns3:atemp>
          </ns3:TrackPointExtension>
        </extensions>
      </trkpt>
      <trkpt lat="42.57369610480964183807373046875" lon="20.08041386492550373077392578125">
        <ele>1970.5999755859375</ele>
        <time>2026-06-15T10:44:01.000Z</time>
        <extensions>
          <ns3:TrackPointExtension>
            <ns3:atemp>16.0</ns3:atemp>
          </ns3:TrackPointExtension>
        </extensions>
      </trkpt>
      <trkpt lat="42.57369828410446643829345703125" lon="20.0804065726697444915771484375">
        <ele>1970.5999755859375</ele>
        <time>2026-06-15T10:44:02.000Z</time>
        <extensions>
          <ns3:TrackPointExtension>
            <ns3:atemp>16.0</ns3:atemp>
          </ns3:TrackPointExtension>
        </extensions>
      </trkpt>
      <trkpt lat="42.57367665879428386688232421875" lon="20.08040246553719043731689453125">
        <ele>1970.5999755859375</ele>
        <time>2026-06-15T10:44:03.000Z</time>
        <extensions>
          <ns3:TrackPointExtension>
            <ns3:atemp>16.0</ns3:atemp>
          </ns3:TrackPointExtension>
        </extensions>
      </trkpt>
      <trkpt lat="42.5736541114747524261474609375" lon="20.08040850050747394561767578125">
        <ele>1970.5999755859375</ele>
        <time>2026-06-15T10:44:04.000Z</time>
        <extensions>
          <ns3:TrackPointExtension>
            <ns3:atemp>16.0</ns3:atemp>
          </ns3:TrackPointExtension>
        </extensions>
      </trkpt>
      <trkpt lat="42.57363189943134784698486328125" lon="20.0804100930690765380859375">
        <ele>1970.5999755859375</ele>
        <time>2026-06-15T10:44:05.000Z</time>
        <extensions>
          <ns3:TrackPointExtension>
            <ns3:atemp>16.0</ns3:atemp>
          </ns3:TrackPointExtension>
        </extensions>
      </trkpt>
      <trkpt lat="42.57360323332250118255615234375" lon="20.08041470311582088470458984375">
        <ele>1970.5999755859375</ele>
        <time>2026-06-15T10:44:06.000Z</time>
        <extensions>
          <ns3:TrackPointExtension>
            <ns3:atemp>16.0</ns3:atemp>
          </ns3:TrackPointExtension>
        </extensions>
      </trkpt>
      <trkpt lat="42.57357171736657619476318359375" lon="20.08042241446673870086669921875">
        <ele>1970.5999755859375</ele>
        <time>2026-06-15T10:44:07.000Z</time>
        <extensions>
          <ns3:TrackPointExtension>
            <ns3:atemp>16.0</ns3:atemp>
          </ns3:TrackPointExtension>
        </extensions>
      </trkpt>
      <trkpt lat="42.5735340826213359832763671875" lon="20.08043079636991024017333984375">
        <ele>1970.5999755859375</ele>
        <time>2026-06-15T10:44:08.000Z</time>
        <extensions>
          <ns3:TrackPointExtension>
            <ns3:atemp>16.0</ns3:atemp>
          </ns3:TrackPointExtension>
        </extensions>
      </trkpt>
      <trkpt lat="42.57349376566708087921142578125" lon="20.0804333947598934173583984375">
        <ele>1970.5999755859375</ele>
        <time>2026-06-15T10:44:09.000Z</time>
        <extensions>
          <ns3:TrackPointExtension>
            <ns3:atemp>16.0</ns3:atemp>
          </ns3:TrackPointExtension>
        </extensions>
      </trkpt>
      <trkpt lat="42.573446072638034820556640625" lon="20.08042761124670505523681640625">
        <ele>1970.4000244140625</ele>
        <time>2026-06-15T10:44:10.000Z</time>
        <extensions>
          <ns3:TrackPointExtension>
            <ns3:atemp>16.0</ns3:atemp>
          </ns3:TrackPointExtension>
        </extensions>
      </trkpt>
      <trkpt lat="42.57338739931583404541015625" lon="20.08041210472583770751953125">
        <ele>1970.4000244140625</ele>
        <time>2026-06-15T10:44:11.000Z</time>
        <extensions>
          <ns3:TrackPointExtension>
            <ns3:atemp>16.0</ns3:atemp>
          </ns3:TrackPointExtension>
        </extensions>
      </trkpt>
      <trkpt lat="42.57332830689847469329833984375" lon="20.08038905449211597442626953125">
        <ele>1970</ele>
        <time>2026-06-15T10:44:12.000Z</time>
        <extensions>
          <ns3:TrackPointExtension>
            <ns3:atemp>16.0</ns3:atemp>
          </ns3:TrackPointExtension>
        </extensions>
      </trkpt>
      <trkpt lat="42.57327449508011341094970703125" lon="20.08036650717258453369140625">
        <ele>1969.5999755859375</ele>
        <time>2026-06-15T10:44:13.000Z</time>
        <extensions>
          <ns3:TrackPointExtension>
            <ns3:atemp>16.0</ns3:atemp>
          </ns3:TrackPointExtension>
        </extensions>
      </trkpt>
      <trkpt lat="42.5732262991368770599365234375" lon="20.08035049773752689361572265625">
        <ele>1969.4000244140625</ele>
        <time>2026-06-15T10:44:14.000Z</time>
        <extensions>
          <ns3:TrackPointExtension>
            <ns3:atemp>16.0</ns3:atemp>
          </ns3:TrackPointExtension>
        </extensions>
      </trkpt>
      <trkpt lat="42.5731810368597507476806640625" lon="20.08033088408410549163818359375">
        <ele>1969.199951171875</ele>
        <time>2026-06-15T10:44:15.000Z</time>
        <extensions>
          <ns3:TrackPointExtension>
            <ns3:atemp>16.0</ns3:atemp>
          </ns3:TrackPointExtension>
        </extensions>
      </trkpt>
      <trkpt lat="42.57313133217394351959228515625" lon="20.08030959405004978179931640625">
        <ele>1969</ele>
        <time>2026-06-15T10:44:16.000Z</time>
        <extensions>
          <ns3:TrackPointExtension>
            <ns3:atemp>16.0</ns3:atemp>
          </ns3:TrackPointExtension>
        </extensions>
      </trkpt>
      <trkpt lat="42.57308707572519779205322265625" lon="20.080291070044040679931640625">
        <ele>1969</ele>
        <time>2026-06-15T10:44:17.000Z</time>
        <extensions>
          <ns3:TrackPointExtension>
            <ns3:atemp>16.0</ns3:atemp>
          </ns3:TrackPointExtension>
        </extensions>
      </trkpt>
      <trkpt lat="42.57303829304873943328857421875" lon="20.08027640171349048614501953125">
        <ele>1969</ele>
        <time>2026-06-15T10:44:18.000Z</time>
        <extensions>
          <ns3:TrackPointExtension>
            <ns3:atemp>16.0</ns3:atemp>
          </ns3:TrackPointExtension>
        </extensions>
      </trkpt>
      <trkpt lat="42.5729862414300441741943359375" lon="20.080263912677764892578125">
        <ele>1969.199951171875</ele>
        <time>2026-06-15T10:44:19.000Z</time>
        <extensions>
          <ns3:TrackPointExtension>
            <ns3:atemp>16.0</ns3:atemp>
          </ns3:TrackPointExtension>
        </extensions>
      </trkpt>
      <trkpt lat="42.57293620146811008453369140625" lon="20.08024807088077068328857421875">
        <ele>1969.199951171875</ele>
        <time>2026-06-15T10:44:20.000Z</time>
        <extensions>
          <ns3:TrackPointExtension>
            <ns3:atemp>16.0</ns3:atemp>
          </ns3:TrackPointExtension>
        </extensions>
      </trkpt>
      <trkpt lat="42.5728802941739559173583984375" lon="20.08023239672183990478515625">
        <ele>1969.199951171875</ele>
        <time>2026-06-15T10:44:21.000Z</time>
        <extensions>
          <ns3:TrackPointExtension>
            <ns3:atemp>16.0</ns3:atemp>
          </ns3:TrackPointExtension>
        </extensions>
      </trkpt>
      <trkpt lat="42.5728219561278820037841796875" lon="20.0802171416580677032470703125">
        <ele>1969</ele>
        <time>2026-06-15T10:44:22.000Z</time>
        <extensions>
          <ns3:TrackPointExtension>
            <ns3:atemp>16.0</ns3:atemp>
          </ns3:TrackPointExtension>
        </extensions>
      </trkpt>
      <trkpt lat="42.57276135496795177459716796875" lon="20.08020012639462947845458984375">
        <ele>1969</ele>
        <time>2026-06-15T10:44:23.000Z</time>
        <extensions>
          <ns3:TrackPointExtension>
            <ns3:atemp>16.0</ns3:atemp>
          </ns3:TrackPointExtension>
        </extensions>
      </trkpt>
      <trkpt lat="42.5727039389312267303466796875" lon="20.080180428922176361083984375">
        <ele>1968.800048828125</ele>
        <time>2026-06-15T10:44:24.000Z</time>
        <extensions>
          <ns3:TrackPointExtension>
            <ns3:atemp>16.0</ns3:atemp>
          </ns3:TrackPointExtension>
        </extensions>
      </trkpt>
      <trkpt lat="42.5726445950567722320556640625" lon="20.08016156964004039764404296875">
        <ele>1968.5999755859375</ele>
        <time>2026-06-15T10:44:25.000Z</time>
        <extensions>
          <ns3:TrackPointExtension>
            <ns3:atemp>16.0</ns3:atemp>
          </ns3:TrackPointExtension>
        </extensions>
      </trkpt>
      <trkpt lat="42.57258265279233455657958984375" lon="20.080145895481109619140625">
        <ele>1968.199951171875</ele>
        <time>2026-06-15T10:44:26.000Z</time>
        <extensions>
          <ns3:TrackPointExtension>
            <ns3:atemp>16.0</ns3:atemp>
          </ns3:TrackPointExtension>
        </extensions>
      </trkpt>
      <trkpt lat="42.57251911796629428863525390625" lon="20.080132819712162017822265625">
        <ele>1968</ele>
        <time>2026-06-15T10:44:27.000Z</time>
        <extensions>
          <ns3:TrackPointExtension>
            <ns3:atemp>16.0</ns3:atemp>
          </ns3:TrackPointExtension>
        </extensions>
      </trkpt>
      <trkpt lat="42.57245910353958606719970703125" lon="20.0801085121929645538330078125">
        <ele>1967.800048828125</ele>
        <time>2026-06-15T10:44:28.000Z</time>
        <extensions>
          <ns3:TrackPointExtension>
            <ns3:atemp>16.0</ns3:atemp>
          </ns3:TrackPointExtension>
        </extensions>
      </trkpt>
      <trkpt lat="42.5724025256931781768798828125" lon="20.08007909171283245086669921875">
        <ele>1967.4000244140625</ele>
        <time>2026-06-15T10:44:29.000Z</time>
        <extensions>
          <ns3:TrackPointExtension>
            <ns3:atemp>16.0</ns3:atemp>
          </ns3:TrackPointExtension>
        </extensions>
      </trkpt>
      <trkpt lat="42.57234343327581882476806640625" lon="20.08005009032785892486572265625">
        <ele>1967.199951171875</ele>
        <time>2026-06-15T10:44:30.000Z</time>
        <extensions>
          <ns3:TrackPointExtension>
            <ns3:atemp>16.0</ns3:atemp>
          </ns3:TrackPointExtension>
        </extensions>
      </trkpt>
      <trkpt lat="42.57228140719234943389892578125" lon="20.0800265371799468994140625">
        <ele>1967</ele>
        <time>2026-06-15T10:44:31.000Z</time>
        <extensions>
          <ns3:TrackPointExtension>
            <ns3:atemp>16.0</ns3:atemp>
          </ns3:TrackPointExtension>
        </extensions>
      </trkpt>
      <trkpt lat="42.572215609252452850341796875" lon="20.0800065882503986358642578125">
        <ele>1966.5999755859375</ele>
        <time>2026-06-15T10:44:32.000Z</time>
        <extensions>
          <ns3:TrackPointExtension>
            <ns3:atemp>16.0</ns3:atemp>
          </ns3:TrackPointExtension>
        </extensions>
      </trkpt>
      <trkpt lat="42.5721460394561290740966796875" lon="20.07998563349246978759765625">
        <ele>1966.199951171875</ele>
        <time>2026-06-15T10:44:33.000Z</time>
        <extensions>
          <ns3:TrackPointExtension>
            <ns3:atemp>16.0</ns3:atemp>
          </ns3:TrackPointExtension>
        </extensions>
      </trkpt>
      <trkpt lat="42.57207923568785190582275390625" lon="20.07996392436325550079345703125">
        <ele>1965.800048828125</ele>
        <time>2026-06-15T10:44:34.000Z</time>
        <extensions>
          <ns3:TrackPointExtension>
            <ns3:atemp>16.0</ns3:atemp>
          </ns3:TrackPointExtension>
        </extensions>
      </trkpt>
      <trkpt lat="42.5720152817666530609130859375" lon="20.0799371860921382904052734375">
        <ele>1965.4000244140625</ele>
        <time>2026-06-15T10:44:35.000Z</time>
        <extensions>
          <ns3:TrackPointExtension>
            <ns3:atemp>16.0</ns3:atemp>
          </ns3:TrackPointExtension>
        </extensions>
      </trkpt>
      <trkpt lat="42.5719579495489597320556640625" lon="20.07990516722202301025390625">
        <ele>1965.199951171875</ele>
        <time>2026-06-15T10:44:36.000Z</time>
        <extensions>
          <ns3:TrackPointExtension>
            <ns3:atemp>16.0</ns3:atemp>
          </ns3:TrackPointExtension>
        </extensions>
      </trkpt>
      <trkpt lat="42.57190304808318614959716796875" lon="20.0798654370009899139404296875">
        <ele>1965</ele>
        <time>2026-06-15T10:44:37.000Z</time>
        <extensions>
          <ns3:TrackPointExtension>
            <ns3:atemp>16.0</ns3:atemp>
          </ns3:TrackPointExtension>
        </extensions>
      </trkpt>
      <trkpt lat="42.57184940390288829803466796875" lon="20.07982729934155941009521484375">
        <ele>1965</ele>
        <time>2026-06-15T10:44:38.000Z</time>
        <extensions>
          <ns3:TrackPointExtension>
            <ns3:atemp>16.0</ns3:atemp>
          </ns3:TrackPointExtension>
        </extensions>
      </trkpt>
      <trkpt lat="42.5717876292765140533447265625" lon="20.07978840731084346771240234375">
        <ele>1964.800048828125</ele>
        <time>2026-06-15T10:44:39.000Z</time>
        <extensions>
          <ns3:TrackPointExtension>
            <ns3:atemp>16.0</ns3:atemp>
          </ns3:TrackPointExtension>
        </extensions>
      </trkpt>
      <trkpt lat="42.5717239268124103546142578125" lon="20.079751275479793548583984375">
        <ele>1964.800048828125</ele>
        <time>2026-06-15T10:44:40.000Z</time>
        <extensions>
          <ns3:TrackPointExtension>
            <ns3:atemp>16.0</ns3:atemp>
          </ns3:TrackPointExtension>
        </extensions>
      </trkpt>
      <trkpt lat="42.571665756404399871826171875" lon="20.07970802485942840576171875">
        <ele>1964.5999755859375</ele>
        <time>2026-06-15T10:44:41.000Z</time>
        <extensions>
          <ns3:TrackPointExtension>
            <ns3:atemp>16.0</ns3:atemp>
          </ns3:TrackPointExtension>
        </extensions>
      </trkpt>
      <trkpt lat="42.571611106395721435546875" lon="20.07966267876327037811279296875">
        <ele>1964.4000244140625</ele>
        <time>2026-06-15T10:44:42.000Z</time>
        <extensions>
          <ns3:TrackPointExtension>
            <ns3:atemp>16.0</ns3:atemp>
          </ns3:TrackPointExtension>
        </extensions>
      </trkpt>
      <trkpt lat="42.57155754603445529937744140625" lon="20.07962026633322238922119140625">
        <ele>1964.199951171875</ele>
        <time>2026-06-15T10:44:43.000Z</time>
        <extensions>
          <ns3:TrackPointExtension>
            <ns3:atemp>16.0</ns3:atemp>
          </ns3:TrackPointExtension>
        </extensions>
      </trkpt>
      <trkpt lat="42.57151077501475811004638671875" lon="20.0795732438564300537109375">
        <ele>1964</ele>
        <time>2026-06-15T10:44:44.000Z</time>
        <extensions>
          <ns3:TrackPointExtension>
            <ns3:atemp>16.0</ns3:atemp>
          </ns3:TrackPointExtension>
        </extensions>
      </trkpt>
      <trkpt lat="42.5714681111276149749755859375" lon="20.07951599545776844024658203125">
        <ele>1964</ele>
        <time>2026-06-15T10:44:45.000Z</time>
        <extensions>
          <ns3:TrackPointExtension>
            <ns3:atemp>16.0</ns3:atemp>
          </ns3:TrackPointExtension>
        </extensions>
      </trkpt>
      <trkpt lat="42.57142745889723300933837890625" lon="20.079457573592662811279296875">
        <ele>1964</ele>
        <time>2026-06-15T10:44:46.000Z</time>
        <extensions>
          <ns3:TrackPointExtension>
            <ns3:atemp>16.0</ns3:atemp>
          </ns3:TrackPointExtension>
        </extensions>
      </trkpt>
      <trkpt lat="42.57139242254197597503662109375" lon="20.07940183393657207489013671875">
        <ele>1964</ele>
        <time>2026-06-15T10:44:47.000Z</time>
        <extensions>
          <ns3:TrackPointExtension>
            <ns3:atemp>16.0</ns3:atemp>
          </ns3:TrackPointExtension>
        </extensions>
      </trkpt>
      <trkpt lat="42.57135621272027492523193359375" lon="20.0793559849262237548828125">
        <ele>1964</ele>
        <time>2026-06-15T10:44:48.000Z</time>
        <extensions>
          <ns3:TrackPointExtension>
            <ns3:atemp>16.0</ns3:atemp>
          </ns3:TrackPointExtension>
        </extensions>
      </trkpt>
      <trkpt lat="42.57131782360374927520751953125" lon="20.07931097410619258880615234375">
        <ele>1964.199951171875</ele>
        <time>2026-06-15T10:44:49.000Z</time>
        <extensions>
          <ns3:TrackPointExtension>
            <ns3:atemp>16.0</ns3:atemp>
          </ns3:TrackPointExtension>
        </extensions>
      </trkpt>
      <trkpt lat="42.571278512477874755859375" lon="20.07926906459033489227294921875">
        <ele>1964.199951171875</ele>
        <time>2026-06-15T10:44:50.000Z</time>
        <extensions>
          <ns3:TrackPointExtension>
            <ns3:atemp>16.0</ns3:atemp>
          </ns3:TrackPointExtension>
        </extensions>
      </trkpt>
      <trkpt lat="42.5712397880852222442626953125" lon="20.07923084311187267303466796875">
        <ele>1964.4000244140625</ele>
        <time>2026-06-15T10:44:51.000Z</time>
        <extensions>
          <ns3:TrackPointExtension>
            <ns3:atemp>16.0</ns3:atemp>
          </ns3:TrackPointExtension>
        </extensions>
      </trkpt>
      <trkpt lat="42.57119913585484027862548828125" lon="20.07919077761471271514892578125">
        <ele>1964.5999755859375</ele>
        <time>2026-06-15T10:44:52.000Z</time>
        <extensions>
          <ns3:TrackPointExtension>
            <ns3:atemp>16.0</ns3:atemp>
          </ns3:TrackPointExtension>
        </extensions>
      </trkpt>
      <trkpt lat="42.571154125034809112548828125" lon="20.0791590102016925811767578125">
        <ele>1964.800048828125</ele>
        <time>2026-06-15T10:44:53.000Z</time>
        <extensions>
          <ns3:TrackPointExtension>
            <ns3:atemp>16.0</ns3:atemp>
          </ns3:TrackPointExtension>
        </extensions>
      </trkpt>
      <trkpt lat="42.5711090303957462310791015625" lon="20.0791278295218944549560546875">
        <ele>1964.800048828125</ele>
        <time>2026-06-15T10:44:54.000Z</time>
        <extensions>
          <ns3:TrackPointExtension>
            <ns3:atemp>16.0</ns3:atemp>
          </ns3:TrackPointExtension>
        </extensions>
      </trkpt>
      <trkpt lat="42.57106586359441280364990234375" lon="20.07909790612757205963134765625">
        <ele>1964.800048828125</ele>
        <time>2026-06-15T10:44:55.000Z</time>
        <extensions>
          <ns3:TrackPointExtension>
            <ns3:atemp>16.0</ns3:atemp>
          </ns3:TrackPointExtension>
        </extensions>
      </trkpt>
      <trkpt lat="42.5710248760879039764404296875" lon="20.07906219922006130218505859375">
        <ele>1965</ele>
        <time>2026-06-15T10:44:56.000Z</time>
        <extensions>
          <ns3:TrackPointExtension>
            <ns3:atemp>16.0</ns3:atemp>
          </ns3:TrackPointExtension>
        </extensions>
      </trkpt>
      <trkpt lat="42.5709977187216281890869140625" lon="20.07902381010353565216064453125">
        <ele>1965</ele>
        <time>2026-06-15T10:44:57.000Z</time>
        <extensions>
          <ns3:TrackPointExtension>
            <ns3:atemp>16.0</ns3:atemp>
          </ns3:TrackPointExtension>
        </extensions>
      </trkpt>
      <trkpt lat="42.5709735788404941558837890625" lon="20.07899723947048187255859375">
        <ele>1965</ele>
        <time>2026-06-15T10:44:58.000Z</time>
        <extensions>
          <ns3:TrackPointExtension>
            <ns3:atemp>16.0</ns3:atemp>
          </ns3:TrackPointExtension>
        </extensions>
      </trkpt>
      <trkpt lat="42.5709574855864048004150390625" lon="20.0789900310337543487548828125">
        <ele>1965</ele>
        <time>2026-06-15T10:44:59.000Z</time>
        <extensions>
          <ns3:TrackPointExtension>
            <ns3:atemp>16.0</ns3:atemp>
          </ns3:TrackPointExtension>
        </extensions>
      </trkpt>
      <trkpt lat="42.570958994328975677490234375" lon="20.07898692972958087921142578125">
        <ele>1965.199951171875</ele>
        <time>2026-06-15T10:45:00.000Z</time>
        <extensions>
          <ns3:TrackPointExtension>
            <ns3:atemp>16.0</ns3:atemp>
          </ns3:TrackPointExtension>
        </extensions>
      </trkpt>
      <trkpt lat="42.570958994328975677490234375" lon="20.07898709736764430999755859375">
        <ele>1965.199951171875</ele>
        <time>2026-06-15T10:45:01.000Z</time>
        <extensions>
          <ns3:TrackPointExtension>
            <ns3:atemp>16.0</ns3:atemp>
          </ns3:TrackPointExtension>
        </extensions>
      </trkpt>
      <trkpt lat="42.570958994328975677490234375" lon="20.078987181186676025390625">
        <ele>1965.199951171875</ele>
        <time>2026-06-15T10:45:02.000Z</time>
        <extensions>
          <ns3:TrackPointExtension>
            <ns3:atemp>16.0</ns3:atemp>
          </ns3:TrackPointExtension>
        </extensions>
      </trkpt>
      <trkpt lat="42.570946924388408660888671875" lon="20.07897720672190189361572265625">
        <ele>1965.199951171875</ele>
        <time>2026-06-15T10:45:03.000Z</time>
        <extensions>
          <ns3:TrackPointExtension>
            <ns3:atemp>16.0</ns3:atemp>
          </ns3:TrackPointExtension>
        </extensions>
      </trkpt>
      <trkpt lat="42.5709313340485095977783203125" lon="20.0789534859359264373779296875">
        <ele>1965.199951171875</ele>
        <time>2026-06-15T10:45:04.000Z</time>
        <extensions>
          <ns3:TrackPointExtension>
            <ns3:atemp>16.0</ns3:atemp>
          </ns3:TrackPointExtension>
        </extensions>
      </trkpt>
      <trkpt lat="42.57090861909091472625732421875" lon="20.07891719229519367218017578125">
        <ele>1965</ele>
        <time>2026-06-15T10:45:05.000Z</time>
        <extensions>
          <ns3:TrackPointExtension>
            <ns3:atemp>16.0</ns3:atemp>
          </ns3:TrackPointExtension>
        </extensions>
      </trkpt>
      <trkpt lat="42.57088355720043182373046875" lon="20.07887595333158969879150390625">
        <ele>1964.800048828125</ele>
        <time>2026-06-15T10:45:06.000Z</time>
        <extensions>
          <ns3:TrackPointExtension>
            <ns3:atemp>16.0</ns3:atemp>
          </ns3:TrackPointExtension>
        </extensions>
      </trkpt>
      <trkpt lat="42.57086067460477352142333984375" lon="20.07883018814027309417724609375">
        <ele>1964.5999755859375</ele>
        <time>2026-06-15T10:45:07.000Z</time>
        <extensions>
          <ns3:TrackPointExtension>
            <ns3:atemp>16.0</ns3:atemp>
          </ns3:TrackPointExtension>
        </extensions>
      </trkpt>
      <trkpt lat="42.57083837874233722686767578125" lon="20.078785680234432220458984375">
        <ele>1964.199951171875</ele>
        <time>2026-06-15T10:45:08.000Z</time>
        <extensions>
          <ns3:TrackPointExtension>
            <ns3:atemp>16.0</ns3:atemp>
          </ns3:TrackPointExtension>
        </extensions>
      </trkpt>
      <trkpt lat="42.57081524468958377838134765625" lon="20.07874854840338230133056640625">
        <ele>1964</ele>
        <time>2026-06-15T10:45:09.000Z</time>
        <extensions>
          <ns3:TrackPointExtension>
            <ns3:atemp>16.0</ns3:atemp>
          </ns3:TrackPointExtension>
        </extensions>
      </trkpt>
      <trkpt lat="42.57079638540744781494140625" lon="20.07871485315263271331787109375">
        <ele>1963.800048828125</ele>
        <time>2026-06-15T10:45:10.000Z</time>
        <extensions>
          <ns3:TrackPointExtension>
            <ns3:atemp>16.0</ns3:atemp>
          </ns3:TrackPointExtension>
        </extensions>
      </trkpt>
      <trkpt lat="42.5707821361720561981201171875" lon="20.0786872766911983489990234375">
        <ele>1963.800048828125</ele>
        <time>2026-06-15T10:45:11.000Z</time>
        <extensions>
          <ns3:TrackPointExtension>
            <ns3:atemp>16.0</ns3:atemp>
          </ns3:TrackPointExtension>
        </extensions>
      </trkpt>
      <trkpt lat="42.57077132351696491241455078125" lon="20.07866732776165008544921875">
        <ele>1963.800048828125</ele>
        <time>2026-06-15T10:45:12.000Z</time>
        <extensions>
          <ns3:TrackPointExtension>
            <ns3:atemp>16.0</ns3:atemp>
          </ns3:TrackPointExtension>
        </extensions>
      </trkpt>
      <trkpt lat="42.57076025940477848052978515625" lon="20.07865215651690959930419921875">
        <ele>1963.800048828125</ele>
        <time>2026-06-15T10:45:13.000Z</time>
        <extensions>
          <ns3:TrackPointExtension>
            <ns3:atemp>16.0</ns3:atemp>
          </ns3:TrackPointExtension>
        </extensions>
      </trkpt>
      <trkpt lat="42.57074668072164058685302734375" lon="20.078634805977344512939453125">
        <ele>1963.800048828125</ele>
        <time>2026-06-15T10:45:14.000Z</time>
        <extensions>
          <ns3:TrackPointExtension>
            <ns3:atemp>16.0</ns3:atemp>
          </ns3:TrackPointExtension>
        </extensions>
      </trkpt>
      <trkpt lat="42.570731341838836669921875" lon="20.0786138512194156646728515625">
        <ele>1963.800048828125</ele>
        <time>2026-06-15T10:45:15.000Z</time>
        <extensions>
          <ns3:TrackPointExtension>
            <ns3:atemp>16.0</ns3:atemp>
          </ns3:TrackPointExtension>
        </extensions>
      </trkpt>
      <trkpt lat="42.5707177631556987762451171875" lon="20.078585185110569000244140625">
        <ele>1963.800048828125</ele>
        <time>2026-06-15T10:45:16.000Z</time>
        <extensions>
          <ns3:TrackPointExtension>
            <ns3:atemp>16.0</ns3:atemp>
          </ns3:TrackPointExtension>
        </extensions>
      </trkpt>
      <trkpt lat="42.57070108316838741302490234375" lon="20.07855425588786602020263671875">
        <ele>1964</ele>
        <time>2026-06-15T10:45:17.000Z</time>
        <extensions>
          <ns3:TrackPointExtension>
            <ns3:atemp>16.0</ns3:atemp>
          </ns3:TrackPointExtension>
        </extensions>
      </trkpt>
      <trkpt lat="42.57068297825753688812255859375" lon="20.0785273499786853790283203125">
        <ele>1964</ele>
        <time>2026-06-15T10:45:18.000Z</time>
        <extensions>
          <ns3:TrackPointExtension>
            <ns3:atemp>16.0</ns3:atemp>
          </ns3:TrackPointExtension>
        </extensions>
      </trkpt>
      <trkpt lat="42.57066554389894008636474609375" lon="20.0784938223659992218017578125">
        <ele>1964.199951171875</ele>
        <time>2026-06-15T10:45:19.000Z</time>
        <extensions>
          <ns3:TrackPointExtension>
            <ns3:atemp>16.0</ns3:atemp>
          </ns3:TrackPointExtension>
        </extensions>
      </trkpt>
      <trkpt lat="42.570653222501277923583984375" lon="20.078462474048137664794921875">
        <ele>1964.199951171875</ele>
        <time>2026-06-15T10:45:20.000Z</time>
        <extensions>
          <ns3:TrackPointExtension>
            <ns3:atemp>16.0</ns3:atemp>
          </ns3:TrackPointExtension>
        </extensions>
      </trkpt>
      <trkpt lat="42.57063922472298145294189453125" lon="20.07843338884413242340087890625">
        <ele>1964.199951171875</ele>
        <time>2026-06-15T10:45:21.000Z</time>
        <extensions>
          <ns3:TrackPointExtension>
            <ns3:atemp>16.0</ns3:atemp>
          </ns3:TrackPointExtension>
        </extensions>
      </trkpt>
      <trkpt lat="42.57062078453600406646728515625" lon="20.078402794897556304931640625">
        <ele>1964.199951171875</ele>
        <time>2026-06-15T10:45:22.000Z</time>
        <extensions>
          <ns3:TrackPointExtension>
            <ns3:atemp>16.0</ns3:atemp>
          </ns3:TrackPointExtension>
        </extensions>
      </trkpt>
      <trkpt lat="42.57060267962515354156494140625" lon="20.07837723009288311004638671875">
        <ele>1964.4000244140625</ele>
        <time>2026-06-15T10:45:23.000Z</time>
        <extensions>
          <ns3:TrackPointExtension>
            <ns3:atemp>16.0</ns3:atemp>
          </ns3:TrackPointExtension>
        </extensions>
      </trkpt>
      <trkpt lat="42.5705866701900959014892578125" lon="20.07834873162209987640380859375">
        <ele>1964.4000244140625</ele>
        <time>2026-06-15T10:45:24.000Z</time>
        <extensions>
          <ns3:TrackPointExtension>
            <ns3:atemp>16.0</ns3:atemp>
          </ns3:TrackPointExtension>
        </extensions>
      </trkpt>
      <trkpt lat="42.57056730799376964569091796875" lon="20.0783218257129192352294921875">
        <ele>1964.4000244140625</ele>
        <time>2026-06-15T10:45:25.000Z</time>
        <extensions>
          <ns3:TrackPointExtension>
            <ns3:atemp>16.0</ns3:atemp>
          </ns3:TrackPointExtension>
        </extensions>
      </trkpt>
      <trkpt lat="42.5705524720251560211181640625" lon="20.07830196060240268707275390625">
        <ele>1964.4000244140625</ele>
        <time>2026-06-15T10:45:26.000Z</time>
        <extensions>
          <ns3:TrackPointExtension>
            <ns3:atemp>16.0</ns3:atemp>
          </ns3:TrackPointExtension>
        </extensions>
      </trkpt>
      <trkpt lat="42.5705467723309993743896484375" lon="20.07829525507986545562744140625">
        <ele>1964.5999755859375</ele>
        <time>2026-06-15T10:45:27.000Z</time>
        <extensions>
          <ns3:TrackPointExtension>
            <ns3:atemp>16.0</ns3:atemp>
          </ns3:TrackPointExtension>
        </extensions>
      </trkpt>
      <trkpt lat="42.57054249756038188934326171875" lon="20.0782976858317852020263671875">
        <ele>1964.5999755859375</ele>
        <time>2026-06-15T10:45:28.000Z</time>
        <extensions>
          <ns3:TrackPointExtension>
            <ns3:atemp>16.0</ns3:atemp>
          </ns3:TrackPointExtension>
        </extensions>
      </trkpt>
      <trkpt lat="42.57054249756038188934326171875" lon="20.0782976858317852020263671875">
        <ele>1964.5999755859375</ele>
        <time>2026-06-15T10:45:29.000Z</time>
        <extensions>
          <ns3:TrackPointExtension>
            <ns3:atemp>16.0</ns3:atemp>
          </ns3:TrackPointExtension>
        </extensions>
      </trkpt>
      <trkpt lat="42.57054249756038188934326171875" lon="20.0782976858317852020263671875">
        <ele>1964.5999755859375</ele>
        <time>2026-06-15T10:45:30.000Z</time>
        <extensions>
          <ns3:TrackPointExtension>
            <ns3:atemp>16.0</ns3:atemp>
          </ns3:TrackPointExtension>
        </extensions>
      </trkpt>
      <trkpt lat="42.57054249756038188934326171875" lon="20.0782976858317852020263671875">
        <ele>1964.5999755859375</ele>
        <time>2026-06-15T10:45:31.000Z</time>
        <extensions>
          <ns3:TrackPointExtension>
            <ns3:atemp>16.0</ns3:atemp>
          </ns3:TrackPointExtension>
        </extensions>
      </trkpt>
      <trkpt lat="42.57054249756038188934326171875" lon="20.0782976858317852020263671875">
        <ele>1964.5999755859375</ele>
        <time>2026-06-15T10:45:32.000Z</time>
        <extensions>
          <ns3:TrackPointExtension>
            <ns3:atemp>16.0</ns3:atemp>
          </ns3:TrackPointExtension>
        </extensions>
      </trkpt>
      <trkpt lat="42.57054249756038188934326171875" lon="20.0782976858317852020263671875">
        <ele>1964.5999755859375</ele>
        <time>2026-06-15T10:45:33.000Z</time>
        <extensions>
          <ns3:TrackPointExtension>
            <ns3:atemp>16.0</ns3:atemp>
          </ns3:TrackPointExtension>
        </extensions>
      </trkpt>
      <trkpt lat="42.57054249756038188934326171875" lon="20.0782976858317852020263671875">
        <ele>1964.5999755859375</ele>
        <time>2026-06-15T10:45:34.000Z</time>
        <extensions>
          <ns3:TrackPointExtension>
            <ns3:atemp>16.0</ns3:atemp>
          </ns3:TrackPointExtension>
        </extensions>
      </trkpt>
      <trkpt lat="42.57054249756038188934326171875" lon="20.0782976858317852020263671875">
        <ele>1964.5999755859375</ele>
        <time>2026-06-15T10:45:35.000Z</time>
        <extensions>
          <ns3:TrackPointExtension>
            <ns3:atemp>16.0</ns3:atemp>
          </ns3:TrackPointExtension>
        </extensions>
      </trkpt>
      <trkpt lat="42.57054249756038188934326171875" lon="20.0782976858317852020263671875">
        <ele>1964.5999755859375</ele>
        <time>2026-06-15T10:45:36.000Z</time>
        <extensions>
          <ns3:TrackPointExtension>
            <ns3:atemp>16.0</ns3:atemp>
          </ns3:TrackPointExtension>
        </extensions>
      </trkpt>
      <trkpt lat="42.57054249756038188934326171875" lon="20.0782976858317852020263671875">
        <ele>1964.5999755859375</ele>
        <time>2026-06-15T10:45:37.000Z</time>
        <extensions>
          <ns3:TrackPointExtension>
            <ns3:atemp>16.0</ns3:atemp>
          </ns3:TrackPointExtension>
        </extensions>
      </trkpt>
      <trkpt lat="42.57054249756038188934326171875" lon="20.0782976858317852020263671875">
        <ele>1964.5999755859375</ele>
        <time>2026-06-15T10:45:38.000Z</time>
        <extensions>
          <ns3:TrackPointExtension>
            <ns3:atemp>16.0</ns3:atemp>
          </ns3:TrackPointExtension>
        </extensions>
      </trkpt>
      <trkpt lat="42.57054249756038188934326171875" lon="20.0782976858317852020263671875">
        <ele>1964.4000244140625</ele>
        <time>2026-06-15T10:45:39.000Z</time>
        <extensions>
          <ns3:TrackPointExtension>
            <ns3:atemp>16.0</ns3:atemp>
          </ns3:TrackPointExtension>
        </extensions>
      </trkpt>
      <trkpt lat="42.57054249756038188934326171875" lon="20.0782976858317852020263671875">
        <ele>1964.4000244140625</ele>
        <time>2026-06-15T10:45:40.000Z</time>
        <extensions>
          <ns3:TrackPointExtension>
            <ns3:atemp>16.0</ns3:atemp>
          </ns3:TrackPointExtension>
        </extensions>
      </trkpt>
      <trkpt lat="42.57054249756038188934326171875" lon="20.0782976858317852020263671875">
        <ele>1964.4000244140625</ele>
        <time>2026-06-15T10:45:41.000Z</time>
        <extensions>
          <ns3:TrackPointExtension>
            <ns3:atemp>16.0</ns3:atemp>
          </ns3:TrackPointExtension>
        </extensions>
      </trkpt>
      <trkpt lat="42.57054249756038188934326171875" lon="20.0782976858317852020263671875">
        <ele>1964.4000244140625</ele>
        <time>2026-06-15T10:45:42.000Z</time>
        <extensions>
          <ns3:TrackPointExtension>
            <ns3:atemp>16.0</ns3:atemp>
          </ns3:TrackPointExtension>
        </extensions>
      </trkpt>
      <trkpt lat="42.57054249756038188934326171875" lon="20.0782976858317852020263671875">
        <ele>1964.4000244140625</ele>
        <time>2026-06-15T10:45:43.000Z</time>
        <extensions>
          <ns3:TrackPointExtension>
            <ns3:atemp>16.0</ns3:atemp>
          </ns3:TrackPointExtension>
        </extensions>
      </trkpt>
      <trkpt lat="42.57054249756038188934326171875" lon="20.0782976858317852020263671875">
        <ele>1964.4000244140625</ele>
        <time>2026-06-15T10:45:44.000Z</time>
        <extensions>
          <ns3:TrackPointExtension>
            <ns3:atemp>16.0</ns3:atemp>
          </ns3:TrackPointExtension>
        </extensions>
      </trkpt>
      <trkpt lat="42.57054249756038188934326171875" lon="20.0782976858317852020263671875">
        <ele>1964.4000244140625</ele>
        <time>2026-06-15T10:45:45.000Z</time>
        <extensions>
          <ns3:TrackPointExtension>
            <ns3:atemp>16.0</ns3:atemp>
          </ns3:TrackPointExtension>
        </extensions>
      </trkpt>
      <trkpt lat="42.5705422461032867431640625" lon="20.07829575799405574798583984375">
        <ele>1964.4000244140625</ele>
        <time>2026-06-15T10:45:46.000Z</time>
        <extensions>
          <ns3:TrackPointExtension>
            <ns3:atemp>16.0</ns3:atemp>
          </ns3:TrackPointExtension>
        </extensions>
      </trkpt>
      <trkpt lat="42.57053780369460582733154296875" lon="20.07828368805348873138427734375">
        <ele>1964.4000244140625</ele>
        <time>2026-06-15T10:45:47.000Z</time>
        <extensions>
          <ns3:TrackPointExtension>
            <ns3:atemp>16.0</ns3:atemp>
          </ns3:TrackPointExtension>
        </extensions>
      </trkpt>
      <trkpt lat="42.57053478620946407318115234375" lon="20.0782792456448078155517578125">
        <ele>1964.4000244140625</ele>
        <time>2026-06-15T10:45:48.000Z</time>
        <extensions>
          <ns3:TrackPointExtension>
            <ns3:atemp>16.0</ns3:atemp>
          </ns3:TrackPointExtension>
        </extensions>
      </trkpt>
      <trkpt lat="42.57053160108625888824462890625" lon="20.0782762281596660614013671875">
        <ele>1964.4000244140625</ele>
        <time>2026-06-15T10:45:49.000Z</time>
        <extensions>
          <ns3:TrackPointExtension>
            <ns3:atemp>16.0</ns3:atemp>
          </ns3:TrackPointExtension>
        </extensions>
      </trkpt>
      <trkpt lat="42.5705303438007831573486328125" lon="20.07827664725482463836669921875">
        <ele>1964.4000244140625</ele>
        <time>2026-06-15T10:45:50.000Z</time>
        <extensions>
          <ns3:TrackPointExtension>
            <ns3:atemp>16.0</ns3:atemp>
          </ns3:TrackPointExtension>
        </extensions>
      </trkpt>
      <trkpt lat="42.5705303438007831573486328125" lon="20.0782765634357929229736328125">
        <ele>1964.4000244140625</ele>
        <time>2026-06-15T10:45:51.000Z</time>
        <extensions>
          <ns3:TrackPointExtension>
            <ns3:atemp>16.0</ns3:atemp>
          </ns3:TrackPointExtension>
        </extensions>
      </trkpt>
      <trkpt lat="42.5705303438007831573486328125" lon="20.0782765634357929229736328125">
        <ele>1964.4000244140625</ele>
        <time>2026-06-15T10:45:52.000Z</time>
        <extensions>
          <ns3:TrackPointExtension>
            <ns3:atemp>16.0</ns3:atemp>
          </ns3:TrackPointExtension>
        </extensions>
      </trkpt>
      <trkpt lat="42.5705303438007831573486328125" lon="20.0782765634357929229736328125">
        <ele>1964.4000244140625</ele>
        <time>2026-06-15T10:45:53.000Z</time>
        <extensions>
          <ns3:TrackPointExtension>
            <ns3:atemp>16.0</ns3:atemp>
          </ns3:TrackPointExtension>
        </extensions>
      </trkpt>
      <trkpt lat="42.5705303438007831573486328125" lon="20.0782765634357929229736328125">
        <ele>1964.4000244140625</ele>
        <time>2026-06-15T10:45:54.000Z</time>
        <extensions>
          <ns3:TrackPointExtension>
            <ns3:atemp>16.0</ns3:atemp>
          </ns3:TrackPointExtension>
        </extensions>
      </trkpt>
      <trkpt lat="42.5705303438007831573486328125" lon="20.0782765634357929229736328125">
        <ele>1964.4000244140625</ele>
        <time>2026-06-15T10:45:55.000Z</time>
        <extensions>
          <ns3:TrackPointExtension>
            <ns3:atemp>16.0</ns3:atemp>
          </ns3:TrackPointExtension>
        </extensions>
      </trkpt>
      <trkpt lat="42.5705303438007831573486328125" lon="20.0782765634357929229736328125">
        <ele>1964.199951171875</ele>
        <time>2026-06-15T10:45:56.000Z</time>
        <extensions>
          <ns3:TrackPointExtension>
            <ns3:atemp>16.0</ns3:atemp>
          </ns3:TrackPointExtension>
        </extensions>
      </trkpt>
      <trkpt lat="42.5705303438007831573486328125" lon="20.0782765634357929229736328125">
        <ele>1964.199951171875</ele>
        <time>2026-06-15T10:45:57.000Z</time>
        <extensions>
          <ns3:TrackPointExtension>
            <ns3:atemp>16.0</ns3:atemp>
          </ns3:TrackPointExtension>
        </extensions>
      </trkpt>
      <trkpt lat="42.5705303438007831573486328125" lon="20.0782765634357929229736328125">
        <ele>1964.199951171875</ele>
        <time>2026-06-15T10:45:58.000Z</time>
        <extensions>
          <ns3:TrackPointExtension>
            <ns3:atemp>16.0</ns3:atemp>
          </ns3:TrackPointExtension>
        </extensions>
      </trkpt>
      <trkpt lat="42.5705303438007831573486328125" lon="20.0782765634357929229736328125">
        <ele>1964.199951171875</ele>
        <time>2026-06-15T10:45:59.000Z</time>
        <extensions>
          <ns3:TrackPointExtension>
            <ns3:atemp>16.0</ns3:atemp>
          </ns3:TrackPointExtension>
        </extensions>
      </trkpt>
      <trkpt lat="42.5705303438007831573486328125" lon="20.0782765634357929229736328125">
        <ele>1964.199951171875</ele>
        <time>2026-06-15T10:46:00.000Z</time>
        <extensions>
          <ns3:TrackPointExtension>
            <ns3:atemp>16.0</ns3:atemp>
          </ns3:TrackPointExtension>
        </extensions>
      </trkpt>
      <trkpt lat="42.5705303438007831573486328125" lon="20.0782765634357929229736328125">
        <ele>1964.199951171875</ele>
        <time>2026-06-15T10:46:01.000Z</time>
        <extensions>
          <ns3:TrackPointExtension>
            <ns3:atemp>16.0</ns3:atemp>
          </ns3:TrackPointExtension>
        </extensions>
      </trkpt>
      <trkpt lat="42.5705303438007831573486328125" lon="20.0782765634357929229736328125">
        <ele>1964.199951171875</ele>
        <time>2026-06-15T10:46:02.000Z</time>
        <extensions>
          <ns3:TrackPointExtension>
            <ns3:atemp>16.0</ns3:atemp>
          </ns3:TrackPointExtension>
        </extensions>
      </trkpt>
      <trkpt lat="42.5705303438007831573486328125" lon="20.0782765634357929229736328125">
        <ele>1964.199951171875</ele>
        <time>2026-06-15T10:46:03.000Z</time>
        <extensions>
          <ns3:TrackPointExtension>
            <ns3:atemp>16.0</ns3:atemp>
          </ns3:TrackPointExtension>
        </extensions>
      </trkpt>
      <trkpt lat="42.5705303438007831573486328125" lon="20.0782765634357929229736328125">
        <ele>1964.199951171875</ele>
        <time>2026-06-15T10:46:04.000Z</time>
        <extensions>
          <ns3:TrackPointExtension>
            <ns3:atemp>16.0</ns3:atemp>
          </ns3:TrackPointExtension>
        </extensions>
      </trkpt>
      <trkpt lat="42.5705303438007831573486328125" lon="20.0782765634357929229736328125">
        <ele>1964.199951171875</ele>
        <time>2026-06-15T10:46:05.000Z</time>
        <extensions>
          <ns3:TrackPointExtension>
            <ns3:atemp>16.0</ns3:atemp>
          </ns3:TrackPointExtension>
        </extensions>
      </trkpt>
      <trkpt lat="42.5705303438007831573486328125" lon="20.0782765634357929229736328125">
        <ele>1964.199951171875</ele>
        <time>2026-06-15T10:46:06.000Z</time>
        <extensions>
          <ns3:TrackPointExtension>
            <ns3:atemp>16.0</ns3:atemp>
          </ns3:TrackPointExtension>
        </extensions>
      </trkpt>
      <trkpt lat="42.5705303438007831573486328125" lon="20.0782765634357929229736328125">
        <ele>1964.199951171875</ele>
        <time>2026-06-15T10:46:07.000Z</time>
        <extensions>
          <ns3:TrackPointExtension>
            <ns3:atemp>16.0</ns3:atemp>
          </ns3:TrackPointExtension>
        </extensions>
      </trkpt>
      <trkpt lat="42.5705303438007831573486328125" lon="20.0782765634357929229736328125">
        <ele>1964.199951171875</ele>
        <time>2026-06-15T10:46:08.000Z</time>
        <extensions>
          <ns3:TrackPointExtension>
            <ns3:atemp>16.0</ns3:atemp>
          </ns3:TrackPointExtension>
        </extensions>
      </trkpt>
      <trkpt lat="42.5705303438007831573486328125" lon="20.0782765634357929229736328125">
        <ele>1964.199951171875</ele>
        <time>2026-06-15T10:46:09.000Z</time>
        <extensions>
          <ns3:TrackPointExtension>
            <ns3:atemp>16.0</ns3:atemp>
          </ns3:TrackPointExtension>
        </extensions>
      </trkpt>
      <trkpt lat="42.5705303438007831573486328125" lon="20.0782765634357929229736328125">
        <ele>1964.199951171875</ele>
        <time>2026-06-15T10:46:10.000Z</time>
        <extensions>
          <ns3:TrackPointExtension>
            <ns3:atemp>16.0</ns3:atemp>
          </ns3:TrackPointExtension>
        </extensions>
      </trkpt>
      <trkpt lat="42.5705303438007831573486328125" lon="20.0782765634357929229736328125">
        <ele>1964.199951171875</ele>
        <time>2026-06-15T10:46:11.000Z</time>
        <extensions>
          <ns3:TrackPointExtension>
            <ns3:atemp>16.0</ns3:atemp>
          </ns3:TrackPointExtension>
        </extensions>
      </trkpt>
      <trkpt lat="42.57052992470562458038330078125" lon="20.07827362976968288421630859375">
        <ele>1964.199951171875</ele>
        <time>2026-06-15T10:46:12.000Z</time>
        <extensions>
          <ns3:TrackPointExtension>
            <ns3:atemp>16.0</ns3:atemp>
          </ns3:TrackPointExtension>
        </extensions>
      </trkpt>
      <trkpt lat="42.5705239735543727874755859375" lon="20.078257620334625244140625">
        <ele>1964</ele>
        <time>2026-06-15T10:46:13.000Z</time>
        <extensions>
          <ns3:TrackPointExtension>
            <ns3:atemp>16.0</ns3:atemp>
          </ns3:TrackPointExtension>
        </extensions>
      </trkpt>
      <trkpt lat="42.57052036933600902557373046875" lon="20.07825770415365695953369140625">
        <ele>1964</ele>
        <time>2026-06-15T10:46:14.000Z</time>
        <extensions>
          <ns3:TrackPointExtension>
            <ns3:atemp>16.0</ns3:atemp>
          </ns3:TrackPointExtension>
        </extensions>
      </trkpt>
      <trkpt lat="42.5705202855169773101806640625" lon="20.078257620334625244140625">
        <ele>1964</ele>
        <time>2026-06-15T10:46:15.000Z</time>
        <extensions>
          <ns3:TrackPointExtension>
            <ns3:atemp>16.0</ns3:atemp>
          </ns3:TrackPointExtension>
        </extensions>
      </trkpt>
      <trkpt lat="42.5705202855169773101806640625" lon="20.078257620334625244140625">
        <ele>1964</ele>
        <time>2026-06-15T10:46:16.000Z</time>
        <extensions>
          <ns3:TrackPointExtension>
            <ns3:atemp>16.0</ns3:atemp>
          </ns3:TrackPointExtension>
        </extensions>
      </trkpt>
      <trkpt lat="42.57051986642181873321533203125" lon="20.07825720123946666717529296875">
        <ele>1964</ele>
        <time>2026-06-15T10:46:17.000Z</time>
        <extensions>
          <ns3:TrackPointExtension>
            <ns3:atemp>16.0</ns3:atemp>
          </ns3:TrackPointExtension>
        </extensions>
      </trkpt>
      <trkpt lat="42.5705045275390148162841796875" lon="20.0782520882785320281982421875">
        <ele>1964</ele>
        <time>2026-06-15T10:46:18.000Z</time>
        <extensions>
          <ns3:TrackPointExtension>
            <ns3:atemp>16.0</ns3:atemp>
          </ns3:TrackPointExtension>
        </extensions>
      </trkpt>
      <trkpt lat="42.57049731910228729248046875" lon="20.07825971581041812896728515625">
        <ele>1964</ele>
        <time>2026-06-15T10:46:19.000Z</time>
        <extensions>
          <ns3:TrackPointExtension>
            <ns3:atemp>16.0</ns3:atemp>
          </ns3:TrackPointExtension>
        </extensions>
      </trkpt>
      <trkpt lat="42.5704939663410186767578125" lon="20.07827212102711200714111328125">
        <ele>1963.800048828125</ele>
        <time>2026-06-15T10:46:20.000Z</time>
        <extensions>
          <ns3:TrackPointExtension>
            <ns3:atemp>16.0</ns3:atemp>
          </ns3:TrackPointExtension>
        </extensions>
      </trkpt>
      <trkpt lat="42.5704917870461940765380859375" lon="20.078278072178363800048828125">
        <ele>1963.5999755859375</ele>
        <time>2026-06-15T10:46:21.000Z</time>
        <extensions>
          <ns3:TrackPointExtension>
            <ns3:atemp>16.0</ns3:atemp>
          </ns3:TrackPointExtension>
        </extensions>
      </trkpt>
      <trkpt lat="42.57049388252198696136474609375" lon="20.07828871719539165496826171875">
        <ele>1963.5999755859375</ele>
        <time>2026-06-15T10:46:22.000Z</time>
        <extensions>
          <ns3:TrackPointExtension>
            <ns3:atemp>16.0</ns3:atemp>
          </ns3:TrackPointExtension>
        </extensions>
      </trkpt>
      <trkpt lat="42.570497989654541015625" lon="20.07829424925148487091064453125">
        <ele>1963.4000244140625</ele>
        <time>2026-06-15T10:46:23.000Z</time>
        <extensions>
          <ns3:TrackPointExtension>
            <ns3:atemp>16.0</ns3:atemp>
          </ns3:TrackPointExtension>
        </extensions>
      </trkpt>
      <trkpt lat="42.57051081396639347076416015625" lon="20.0783033855259418487548828125">
        <ele>1963.4000244140625</ele>
        <time>2026-06-15T10:46:24.000Z</time>
        <extensions>
          <ns3:TrackPointExtension>
            <ns3:atemp>16.0</ns3:atemp>
          </ns3:TrackPointExtension>
        </extensions>
      </trkpt>
      <trkpt lat="42.57052741013467311859130859375" lon="20.078316293656826019287109375">
        <ele>1963.4000244140625</ele>
        <time>2026-06-15T10:46:25.000Z</time>
        <extensions>
          <ns3:TrackPointExtension>
            <ns3:atemp>16.0</ns3:atemp>
          </ns3:TrackPointExtension>
        </extensions>
      </trkpt>
      <trkpt lat="42.57054802961647510528564453125" lon="20.0783352367579936981201171875">
        <ele>1963.4000244140625</ele>
        <time>2026-06-15T10:46:26.000Z</time>
        <extensions>
          <ns3:TrackPointExtension>
            <ns3:atemp>16.0</ns3:atemp>
          </ns3:TrackPointExtension>
        </extensions>
      </trkpt>
      <trkpt lat="42.5705682300031185150146484375" lon="20.07836096920073032379150390625">
        <ele>1963.4000244140625</ele>
        <time>2026-06-15T10:46:27.000Z</time>
        <extensions>
          <ns3:TrackPointExtension>
            <ns3:atemp>16.0</ns3:atemp>
          </ns3:TrackPointExtension>
        </extensions>
      </trkpt>
      <trkpt lat="42.570592202246189117431640625" lon="20.07839131169021129608154296875">
        <ele>1963.5999755859375</ele>
        <time>2026-06-15T10:46:28.000Z</time>
        <extensions>
          <ns3:TrackPointExtension>
            <ns3:atemp>16.0</ns3:atemp>
          </ns3:TrackPointExtension>
        </extensions>
      </trkpt>
      <trkpt lat="42.57061391137540340423583984375" lon="20.07842802442610263824462890625">
        <ele>1963.5999755859375</ele>
        <time>2026-06-15T10:46:29.000Z</time>
        <extensions>
          <ns3:TrackPointExtension>
            <ns3:atemp>16.0</ns3:atemp>
          </ns3:TrackPointExtension>
        </extensions>
      </trkpt>
      <trkpt lat="42.5706396438181400299072265625" lon="20.07846876047551631927490234375">
        <ele>1963.5999755859375</ele>
        <time>2026-06-15T10:46:30.000Z</time>
        <extensions>
          <ns3:TrackPointExtension>
            <ns3:atemp>16.0</ns3:atemp>
          </ns3:TrackPointExtension>
        </extensions>
      </trkpt>
      <trkpt lat="42.57066554389894008636474609375" lon="20.078511424362659454345703125">
        <ele>1963.5999755859375</ele>
        <time>2026-06-15T10:46:31.000Z</time>
        <extensions>
          <ns3:TrackPointExtension>
            <ns3:atemp>16.0</ns3:atemp>
          </ns3:TrackPointExtension>
        </extensions>
      </trkpt>
      <trkpt lat="42.57069504819810390472412109375" lon="20.07855626754462718963623046875">
        <ele>1963.800048828125</ele>
        <time>2026-06-15T10:46:32.000Z</time>
        <extensions>
          <ns3:TrackPointExtension>
            <ns3:atemp>16.0</ns3:atemp>
          </ns3:TrackPointExtension>
        </extensions>
      </trkpt>
      <trkpt lat="42.57073192857205867767333984375" lon="20.07860672660171985626220703125">
        <ele>1963.800048828125</ele>
        <time>2026-06-15T10:46:33.000Z</time>
        <extensions>
          <ns3:TrackPointExtension>
            <ns3:atemp>16.0</ns3:atemp>
          </ns3:TrackPointExtension>
        </extensions>
      </trkpt>
      <trkpt lat="42.57076419889926910400390625" lon="20.07866422645747661590576171875">
        <ele>1963.800048828125</ele>
        <time>2026-06-15T10:46:34.000Z</time>
        <extensions>
          <ns3:TrackPointExtension>
            <ns3:atemp>16.0</ns3:atemp>
          </ns3:TrackPointExtension>
        </extensions>
      </trkpt>
      <trkpt lat="42.570790350437164306640625" lon="20.07872927002608776092529296875">
        <ele>1963.800048828125</ele>
        <time>2026-06-15T10:46:35.000Z</time>
        <extensions>
          <ns3:TrackPointExtension>
            <ns3:atemp>16.0</ns3:atemp>
          </ns3:TrackPointExtension>
        </extensions>
      </trkpt>
      <trkpt lat="42.57082127965986728668212890625" lon="20.07878274656832218170166015625">
        <ele>1963.5999755859375</ele>
        <time>2026-06-15T10:46:36.000Z</time>
        <extensions>
          <ns3:TrackPointExtension>
            <ns3:atemp>16.0</ns3:atemp>
          </ns3:TrackPointExtension>
        </extensions>
      </trkpt>
      <trkpt lat="42.57085405290126800537109375" lon="20.0788351334631443023681640625">
        <ele>1963.5999755859375</ele>
        <time>2026-06-15T10:46:37.000Z</time>
        <extensions>
          <ns3:TrackPointExtension>
            <ns3:atemp>16.0</ns3:atemp>
          </ns3:TrackPointExtension>
        </extensions>
      </trkpt>
      <trkpt lat="42.57088246755301952362060546875" lon="20.0788840837776660919189453125">
        <ele>1963.5999755859375</ele>
        <time>2026-06-15T10:46:38.000Z</time>
        <extensions>
          <ns3:TrackPointExtension>
            <ns3:atemp>16.0</ns3:atemp>
          </ns3:TrackPointExtension>
        </extensions>
      </trkpt>
      <trkpt lat="42.5709105469286441802978515625" lon="20.07893177680671215057373046875">
        <ele>1963.5999755859375</ele>
        <time>2026-06-15T10:46:39.000Z</time>
        <extensions>
          <ns3:TrackPointExtension>
            <ns3:atemp>16.0</ns3:atemp>
          </ns3:TrackPointExtension>
        </extensions>
      </trkpt>
      <trkpt lat="42.5709387101233005523681640625" lon="20.07897435687482357025146484375">
        <ele>1963.5999755859375</ele>
        <time>2026-06-15T10:46:40.000Z</time>
        <extensions>
          <ns3:TrackPointExtension>
            <ns3:atemp>16.0</ns3:atemp>
          </ns3:TrackPointExtension>
        </extensions>
      </trkpt>
      <trkpt lat="42.57096712477505207061767578125" lon="20.0790118239820003509521484375">
        <ele>1963.800048828125</ele>
        <time>2026-06-15T10:46:41.000Z</time>
        <extensions>
          <ns3:TrackPointExtension>
            <ns3:atemp>16.0</ns3:atemp>
          </ns3:TrackPointExtension>
        </extensions>
      </trkpt>
      <trkpt lat="42.5709933601319789886474609375" lon="20.07904107682406902313232421875">
        <ele>1964</ele>
        <time>2026-06-15T10:46:42.000Z</time>
        <extensions>
          <ns3:TrackPointExtension>
            <ns3:atemp>16.0</ns3:atemp>
          </ns3:TrackPointExtension>
        </extensions>
      </trkpt>
      <trkpt lat="42.57101154886186122894287109375" lon="20.079065300524234771728515625">
        <ele>1964.199951171875</ele>
        <time>2026-06-15T10:46:43.000Z</time>
        <extensions>
          <ns3:TrackPointExtension>
            <ns3:atemp>16.0</ns3:atemp>
          </ns3:TrackPointExtension>
        </extensions>
      </trkpt>
      <trkpt lat="42.57102646864950656890869140625" lon="20.079083405435085296630859375">
        <ele>1964.199951171875</ele>
        <time>2026-06-15T10:46:44.000Z</time>
        <extensions>
          <ns3:TrackPointExtension>
            <ns3:atemp>16.0</ns3:atemp>
          </ns3:TrackPointExtension>
        </extensions>
      </trkpt>
      <trkpt lat="42.57104155607521533966064453125" lon="20.07909379899501800537109375">
        <ele>1964.4000244140625</ele>
        <time>2026-06-15T10:46:45.000Z</time>
        <extensions>
          <ns3:TrackPointExtension>
            <ns3:atemp>16.0</ns3:atemp>
          </ns3:TrackPointExtension>
        </extensions>
      </trkpt>
      <trkpt lat="42.5710513629019260406494140625" lon="20.07908902131021022796630859375">
        <ele>1964.5999755859375</ele>
        <time>2026-06-15T10:46:46.000Z</time>
        <extensions>
          <ns3:TrackPointExtension>
            <ns3:atemp>16.0</ns3:atemp>
          </ns3:TrackPointExtension>
        </extensions>
      </trkpt>
      <trkpt lat="42.57104759104549884796142578125" lon="20.07909555919468402862548828125">
        <ele>1964.800048828125</ele>
        <time>2026-06-15T10:46:47.000Z</time>
        <extensions>
          <ns3:TrackPointExtension>
            <ns3:atemp>16.0</ns3:atemp>
          </ns3:TrackPointExtension>
        </extensions>
      </trkpt>
      <trkpt lat="42.571043483912944793701171875" lon="20.07908700965344905853271484375">
        <ele>1964.800048828125</ele>
        <time>2026-06-15T10:46:48.000Z</time>
        <extensions>
          <ns3:TrackPointExtension>
            <ns3:atemp>16.0</ns3:atemp>
          </ns3:TrackPointExtension>
        </extensions>
      </trkpt>
      <trkpt lat="42.57103719748556613922119140625" lon="20.079088099300861358642578125">
        <ele>1965</ele>
        <time>2026-06-15T10:46:49.000Z</time>
        <extensions>
          <ns3:TrackPointExtension>
            <ns3:atemp>16.0</ns3:atemp>
          </ns3:TrackPointExtension>
        </extensions>
      </trkpt>
      <trkpt lat="42.5710426457226276397705078125" lon="20.0790879316627979278564453125">
        <ele>1965</ele>
        <time>2026-06-15T10:46:50.000Z</time>
        <extensions>
          <ns3:TrackPointExtension>
            <ns3:atemp>16.0</ns3:atemp>
          </ns3:TrackPointExtension>
        </extensions>
      </trkpt>
      <trkpt lat="42.57104407064616680145263671875" lon="20.07908902131021022796630859375">
        <ele>1965</ele>
        <time>2026-06-15T10:46:51.000Z</time>
        <extensions>
          <ns3:TrackPointExtension>
            <ns3:atemp>16.0</ns3:atemp>
          </ns3:TrackPointExtension>
        </extensions>
      </trkpt>
      <trkpt lat="42.571042142808437347412109375" lon="20.0790850818157196044921875">
        <ele>1964.800048828125</ele>
        <time>2026-06-15T10:46:52.000Z</time>
        <extensions>
          <ns3:TrackPointExtension>
            <ns3:atemp>16.0</ns3:atemp>
          </ns3:TrackPointExtension>
        </extensions>
      </trkpt>
      <trkpt lat="42.57103317417204380035400390625" lon="20.0790761969983577728271484375">
        <ele>1964.800048828125</ele>
        <time>2026-06-15T10:46:53.000Z</time>
        <extensions>
          <ns3:TrackPointExtension>
            <ns3:atemp>16.0</ns3:atemp>
          </ns3:TrackPointExtension>
        </extensions>
      </trkpt>
      <trkpt lat="42.57102361880242824554443359375" lon="20.07906924001872539520263671875">
        <ele>1964.800048828125</ele>
        <time>2026-06-15T10:46:54.000Z</time>
        <extensions>
          <ns3:TrackPointExtension>
            <ns3:atemp>16.0</ns3:atemp>
          </ns3:TrackPointExtension>
        </extensions>
      </trkpt>
      <trkpt lat="42.5710131414234638214111328125" lon="20.07905758917331695556640625">
        <ele>1964.5999755859375</ele>
        <time>2026-06-15T10:46:55.000Z</time>
        <extensions>
          <ns3:TrackPointExtension>
            <ns3:atemp>16.0</ns3:atemp>
          </ns3:TrackPointExtension>
        </extensions>
      </trkpt>
      <trkpt lat="42.57099352777004241943359375" lon="20.07904292084276676177978515625">
        <ele>1964.5999755859375</ele>
        <time>2026-06-15T10:46:56.000Z</time>
        <extensions>
          <ns3:TrackPointExtension>
            <ns3:atemp>16.0</ns3:atemp>
          </ns3:TrackPointExtension>
        </extensions>
      </trkpt>
      <trkpt lat="42.570968382060527801513671875" lon="20.07901509292423725128173828125">
        <ele>1964.5999755859375</ele>
        <time>2026-06-15T10:46:57.000Z</time>
        <extensions>
          <ns3:TrackPointExtension>
            <ns3:atemp>16.0</ns3:atemp>
          </ns3:TrackPointExtension>
        </extensions>
      </trkpt>
      <trkpt lat="42.5709383748471736907958984375" lon="20.07897553034126758575439453125">
        <ele>1964.5999755859375</ele>
        <time>2026-06-15T10:46:58.000Z</time>
        <extensions>
          <ns3:TrackPointExtension>
            <ns3:atemp>16.0</ns3:atemp>
          </ns3:TrackPointExtension>
        </extensions>
      </trkpt>
      <trkpt lat="42.570907361805438995361328125" lon="20.07892523892223834991455078125">
        <ele>1964.4000244140625</ele>
        <time>2026-06-15T10:46:59.000Z</time>
        <extensions>
          <ns3:TrackPointExtension>
            <ns3:atemp>16.0</ns3:atemp>
          </ns3:TrackPointExtension>
        </extensions>
      </trkpt>
      <trkpt lat="42.570876181125640869140625" lon="20.07886287756264209747314453125">
        <ele>1964.4000244140625</ele>
        <time>2026-06-15T10:47:00.000Z</time>
        <extensions>
          <ns3:TrackPointExtension>
            <ns3:atemp>16.0</ns3:atemp>
          </ns3:TrackPointExtension>
        </extensions>
      </trkpt>
      <trkpt lat="42.5708426535129547119140625" lon="20.07880269549787044525146484375">
        <ele>1964.199951171875</ele>
        <time>2026-06-15T10:47:01.000Z</time>
        <extensions>
          <ns3:TrackPointExtension>
            <ns3:atemp>16.0</ns3:atemp>
          </ns3:TrackPointExtension>
        </extensions>
      </trkpt>
      <trkpt lat="42.570808120071887969970703125" lon="20.078743435442447662353515625">
        <ele>1964</ele>
        <time>2026-06-15T10:47:02.000Z</time>
        <extensions>
          <ns3:TrackPointExtension>
            <ns3:atemp>16.0</ns3:atemp>
          </ns3:TrackPointExtension>
        </extensions>
      </trkpt>
      <trkpt lat="42.5707761012017726898193359375" lon="20.0786832533776760101318359375">
        <ele>1963.800048828125</ele>
        <time>2026-06-15T10:47:03.000Z</time>
        <extensions>
          <ns3:TrackPointExtension>
            <ns3:atemp>16.0</ns3:atemp>
          </ns3:TrackPointExtension>
        </extensions>
      </trkpt>
      <trkpt lat="42.5707408972084522247314453125" lon="20.07862835191190242767333984375">
        <ele>1963.800048828125</ele>
        <time>2026-06-15T10:47:04.000Z</time>
        <extensions>
          <ns3:TrackPointExtension>
            <ns3:atemp>16.0</ns3:atemp>
          </ns3:TrackPointExtension>
        </extensions>
      </trkpt>
      <trkpt lat="42.57070426829159259796142578125" lon="20.07858015596866607666015625">
        <ele>1963.800048828125</ele>
        <time>2026-06-15T10:47:05.000Z</time>
        <extensions>
          <ns3:TrackPointExtension>
            <ns3:atemp>16.0</ns3:atemp>
          </ns3:TrackPointExtension>
        </extensions>
      </trkpt>
      <trkpt lat="42.57067644037306308746337890625" lon="20.0785353966057300567626953125">
        <ele>1963.800048828125</ele>
        <time>2026-06-15T10:47:06.000Z</time>
        <extensions>
          <ns3:TrackPointExtension>
            <ns3:atemp>16.0</ns3:atemp>
          </ns3:TrackPointExtension>
        </extensions>
      </trkpt>
      <trkpt lat="42.57065422832965850830078125" lon="20.078490637242794036865234375">
        <ele>1963.800048828125</ele>
        <time>2026-06-15T10:47:07.000Z</time>
        <extensions>
          <ns3:TrackPointExtension>
            <ns3:atemp>16.0</ns3:atemp>
          </ns3:TrackPointExtension>
        </extensions>
      </trkpt>
      <trkpt lat="42.57063486613333225250244140625" lon="20.07844596169888973236083984375">
        <ele>1964</ele>
        <time>2026-06-15T10:47:08.000Z</time>
        <extensions>
          <ns3:TrackPointExtension>
            <ns3:atemp>16.0</ns3:atemp>
          </ns3:TrackPointExtension>
        </extensions>
      </trkpt>
      <trkpt lat="42.57060997188091278076171875" lon="20.07840220816433429718017578125">
        <ele>1964.199951171875</ele>
        <time>2026-06-15T10:47:09.000Z</time>
        <extensions>
          <ns3:TrackPointExtension>
            <ns3:atemp>16.0</ns3:atemp>
          </ns3:TrackPointExtension>
        </extensions>
      </trkpt>
      <trkpt lat="42.570578791201114654541015625" lon="20.07835711352527141571044921875">
        <ele>1964.4000244140625</ele>
        <time>2026-06-15T10:47:10.000Z</time>
        <extensions>
          <ns3:TrackPointExtension>
            <ns3:atemp>16.0</ns3:atemp>
          </ns3:TrackPointExtension>
        </extensions>
      </trkpt>
      <trkpt lat="42.5705437548458576202392578125" lon="20.078316628932952880859375">
        <ele>1964.4000244140625</ele>
        <time>2026-06-15T10:47:11.000Z</time>
        <extensions>
          <ns3:TrackPointExtension>
            <ns3:atemp>16.0</ns3:atemp>
          </ns3:TrackPointExtension>
        </extensions>
      </trkpt>
      <trkpt lat="42.57051064632833003997802734375" lon="20.07828108966350555419921875">
        <ele>1964.4000244140625</ele>
        <time>2026-06-15T10:47:12.000Z</time>
        <extensions>
          <ns3:TrackPointExtension>
            <ns3:atemp>16.0</ns3:atemp>
          </ns3:TrackPointExtension>
        </extensions>
      </trkpt>
      <trkpt lat="42.57048030383884906768798828125" lon="20.07824948988854885101318359375">
        <ele>1964.4000244140625</ele>
        <time>2026-06-15T10:47:13.000Z</time>
        <extensions>
          <ns3:TrackPointExtension>
            <ns3:atemp>16.0</ns3:atemp>
          </ns3:TrackPointExtension>
        </extensions>
      </trkpt>
      <trkpt lat="42.570452727377414703369140625" lon="20.07822551764547824859619140625">
        <ele>1964.4000244140625</ele>
        <time>2026-06-15T10:47:14.000Z</time>
        <extensions>
          <ns3:TrackPointExtension>
            <ns3:atemp>16.0</ns3:atemp>
          </ns3:TrackPointExtension>
        </extensions>
      </trkpt>
      <trkpt lat="42.570433951914310455322265625" lon="20.07820741273462772369384765625">
        <ele>1964.4000244140625</ele>
        <time>2026-06-15T10:47:15.000Z</time>
        <extensions>
          <ns3:TrackPointExtension>
            <ns3:atemp>16.0</ns3:atemp>
          </ns3:TrackPointExtension>
        </extensions>
      </trkpt>
      <trkpt lat="42.5704290904104709625244140625" lon="20.07819928228855133056640625">
        <ele>1964.4000244140625</ele>
        <time>2026-06-15T10:47:16.000Z</time>
        <extensions>
          <ns3:TrackPointExtension>
            <ns3:atemp>16.0</ns3:atemp>
          </ns3:TrackPointExtension>
        </extensions>
      </trkpt>
      <trkpt lat="42.57042984478175640106201171875" lon="20.07819936610758304595947265625">
        <ele>1964.4000244140625</ele>
        <time>2026-06-15T10:47:17.000Z</time>
        <extensions>
          <ns3:TrackPointExtension>
            <ns3:atemp>16.0</ns3:atemp>
          </ns3:TrackPointExtension>
        </extensions>
      </trkpt>
      <trkpt lat="42.57042984478175640106201171875" lon="20.0781994499266147613525390625">
        <ele>1964.800048828125</ele>
        <time>2026-06-15T10:47:18.000Z</time>
        <extensions>
          <ns3:TrackPointExtension>
            <ns3:atemp>16.0</ns3:atemp>
          </ns3:TrackPointExtension>
        </extensions>
      </trkpt>
      <trkpt lat="42.57042984478175640106201171875" lon="20.0781994499266147613525390625">
        <ele>1964.800048828125</ele>
        <time>2026-06-15T10:47:19.000Z</time>
        <extensions>
          <ns3:TrackPointExtension>
            <ns3:atemp>16.0</ns3:atemp>
          </ns3:TrackPointExtension>
        </extensions>
      </trkpt>
      <trkpt lat="42.57042984478175640106201171875" lon="20.0781994499266147613525390625">
        <ele>1964.800048828125</ele>
        <time>2026-06-15T10:47:20.000Z</time>
        <extensions>
          <ns3:TrackPointExtension>
            <ns3:atemp>16.0</ns3:atemp>
          </ns3:TrackPointExtension>
        </extensions>
      </trkpt>
      <trkpt lat="42.57042984478175640106201171875" lon="20.0781994499266147613525390625">
        <ele>1964.800048828125</ele>
        <time>2026-06-15T10:47:21.000Z</time>
        <extensions>
          <ns3:TrackPointExtension>
            <ns3:atemp>16.0</ns3:atemp>
          </ns3:TrackPointExtension>
        </extensions>
      </trkpt>
      <trkpt lat="42.57042984478175640106201171875" lon="20.0781994499266147613525390625">
        <ele>1964.800048828125</ele>
        <time>2026-06-15T10:47:22.000Z</time>
        <extensions>
          <ns3:TrackPointExtension>
            <ns3:atemp>16.0</ns3:atemp>
          </ns3:TrackPointExtension>
        </extensions>
      </trkpt>
      <trkpt lat="42.57042967714369297027587890625" lon="20.078199617564678192138671875">
        <ele>1964.800048828125</ele>
        <time>2026-06-15T10:47:23.000Z</time>
        <extensions>
          <ns3:TrackPointExtension>
            <ns3:atemp>16.0</ns3:atemp>
          </ns3:TrackPointExtension>
        </extensions>
      </trkpt>
      <trkpt lat="42.57042230106890201568603515625" lon="20.078192912042140960693359375">
        <ele>1964.800048828125</ele>
        <time>2026-06-15T10:47:24.000Z</time>
        <extensions>
          <ns3:TrackPointExtension>
            <ns3:atemp>16.0</ns3:atemp>
          </ns3:TrackPointExtension>
        </extensions>
      </trkpt>
      <trkpt lat="42.57042448036372661590576171875" lon="20.0781850330531597137451171875">
        <ele>1964.800048828125</ele>
        <time>2026-06-15T10:47:25.000Z</time>
        <extensions>
          <ns3:TrackPointExtension>
            <ns3:atemp>16.0</ns3:atemp>
          </ns3:TrackPointExtension>
        </extensions>
      </trkpt>
      <trkpt lat="42.57042112760245800018310546875" lon="20.07817857898771762847900390625">
        <ele>1965</ele>
        <time>2026-06-15T10:47:26.000Z</time>
        <extensions>
          <ns3:TrackPointExtension>
            <ns3:atemp>16.0</ns3:atemp>
          </ns3:TrackPointExtension>
        </extensions>
      </trkpt>
      <trkpt lat="42.57042112760245800018310546875" lon="20.0781786628067493438720703125">
        <ele>1964.800048828125</ele>
        <time>2026-06-15T10:47:27.000Z</time>
        <extensions>
          <ns3:TrackPointExtension>
            <ns3:atemp>16.0</ns3:atemp>
          </ns3:TrackPointExtension>
        </extensions>
      </trkpt>
      <trkpt lat="42.57042112760245800018310546875" lon="20.0781786628067493438720703125">
        <ele>1964.800048828125</ele>
        <time>2026-06-15T10:47:28.000Z</time>
        <extensions>
          <ns3:TrackPointExtension>
            <ns3:atemp>16.0</ns3:atemp>
          </ns3:TrackPointExtension>
        </extensions>
      </trkpt>
      <trkpt lat="42.57042112760245800018310546875" lon="20.0781786628067493438720703125">
        <ele>1964.800048828125</ele>
        <time>2026-06-15T10:47:29.000Z</time>
        <extensions>
          <ns3:TrackPointExtension>
            <ns3:atemp>16.0</ns3:atemp>
          </ns3:TrackPointExtension>
        </extensions>
      </trkpt>
      <trkpt lat="42.57042112760245800018310546875" lon="20.0781786628067493438720703125">
        <ele>1965</ele>
        <time>2026-06-15T10:47:30.000Z</time>
        <extensions>
          <ns3:TrackPointExtension>
            <ns3:atemp>16.0</ns3:atemp>
          </ns3:TrackPointExtension>
        </extensions>
      </trkpt>
      <trkpt lat="42.57042112760245800018310546875" lon="20.0781786628067493438720703125">
        <ele>1965</ele>
        <time>2026-06-15T10:47:31.000Z</time>
        <extensions>
          <ns3:TrackPointExtension>
            <ns3:atemp>16.0</ns3:atemp>
          </ns3:TrackPointExtension>
        </extensions>
      </trkpt>
      <trkpt lat="42.57042112760245800018310546875" lon="20.0781786628067493438720703125">
        <ele>1964.800048828125</ele>
        <time>2026-06-15T10:47:32.000Z</time>
        <extensions>
          <ns3:TrackPointExtension>
            <ns3:atemp>16.0</ns3:atemp>
          </ns3:TrackPointExtension>
        </extensions>
      </trkpt>
      <trkpt lat="42.57042112760245800018310546875" lon="20.0781786628067493438720703125">
        <ele>1964.800048828125</ele>
        <time>2026-06-15T10:47:33.000Z</time>
        <extensions>
          <ns3:TrackPointExtension>
            <ns3:atemp>16.0</ns3:atemp>
          </ns3:TrackPointExtension>
        </extensions>
      </trkpt>
      <trkpt lat="42.57042112760245800018310546875" lon="20.0781786628067493438720703125">
        <ele>1964.800048828125</ele>
        <time>2026-06-15T10:47:34.000Z</time>
        <extensions>
          <ns3:TrackPointExtension>
            <ns3:atemp>16.0</ns3:atemp>
          </ns3:TrackPointExtension>
        </extensions>
      </trkpt>
      <trkpt lat="42.57042112760245800018310546875" lon="20.0781786628067493438720703125">
        <ele>1964.800048828125</ele>
        <time>2026-06-15T10:47:35.000Z</time>
        <extensions>
          <ns3:TrackPointExtension>
            <ns3:atemp>16.0</ns3:atemp>
          </ns3:TrackPointExtension>
        </extensions>
      </trkpt>
      <trkpt lat="42.57042112760245800018310546875" lon="20.0781786628067493438720703125">
        <ele>1964.800048828125</ele>
        <time>2026-06-15T10:47:36.000Z</time>
        <extensions>
          <ns3:TrackPointExtension>
            <ns3:atemp>16.0</ns3:atemp>
          </ns3:TrackPointExtension>
        </extensions>
      </trkpt>
      <trkpt lat="42.57042112760245800018310546875" lon="20.0781786628067493438720703125">
        <ele>1964.5999755859375</ele>
        <time>2026-06-15T10:47:37.000Z</time>
        <extensions>
          <ns3:TrackPointExtension>
            <ns3:atemp>16.0</ns3:atemp>
          </ns3:TrackPointExtension>
        </extensions>
      </trkpt>
      <trkpt lat="42.57042129524052143096923828125" lon="20.0781786628067493438720703125">
        <ele>1964.5999755859375</ele>
        <time>2026-06-15T10:47:38.000Z</time>
        <extensions>
          <ns3:TrackPointExtension>
            <ns3:atemp>16.0</ns3:atemp>
          </ns3:TrackPointExtension>
        </extensions>
      </trkpt>
      <trkpt lat="42.57041609846055507659912109375" lon="20.078171789646148681640625">
        <ele>1964.5999755859375</ele>
        <time>2026-06-15T10:47:39.000Z</time>
        <extensions>
          <ns3:TrackPointExtension>
            <ns3:atemp>16.0</ns3:atemp>
          </ns3:TrackPointExtension>
        </extensions>
      </trkpt>
      <trkpt lat="42.57039983756840229034423828125" lon="20.0781622342765331268310546875">
        <ele>1964.5999755859375</ele>
        <time>2026-06-15T10:47:40.000Z</time>
        <extensions>
          <ns3:TrackPointExtension>
            <ns3:atemp>16.0</ns3:atemp>
          </ns3:TrackPointExtension>
        </extensions>
      </trkpt>
      <trkpt lat="42.5703732669353485107421875" lon="20.07814723066985607147216796875">
        <ele>1964.5999755859375</ele>
        <time>2026-06-15T10:47:41.000Z</time>
        <extensions>
          <ns3:TrackPointExtension>
            <ns3:atemp>16.0</ns3:atemp>
          </ns3:TrackPointExtension>
        </extensions>
      </trkpt>
      <trkpt lat="42.57033848203718662261962890625" lon="20.07811873219907283782958984375">
        <ele>1964.4000244140625</ele>
        <time>2026-06-15T10:47:42.000Z</time>
        <extensions>
          <ns3:TrackPointExtension>
            <ns3:atemp>16.0</ns3:atemp>
          </ns3:TrackPointExtension>
        </extensions>
      </trkpt>
      <trkpt lat="42.57029422558844089508056640625" lon="20.0780774094164371490478515625">
        <ele>1964.199951171875</ele>
        <time>2026-06-15T10:47:43.000Z</time>
        <extensions>
          <ns3:TrackPointExtension>
            <ns3:atemp>16.0</ns3:atemp>
          </ns3:TrackPointExtension>
        </extensions>
      </trkpt>
      <trkpt lat="42.57025617174804210662841796875" lon="20.07802896201610565185546875">
        <ele>1964</ele>
        <time>2026-06-15T10:47:44.000Z</time>
        <extensions>
          <ns3:TrackPointExtension>
            <ns3:atemp>16.0</ns3:atemp>
          </ns3:TrackPointExtension>
        </extensions>
      </trkpt>
      <trkpt lat="42.5702161900699138641357421875" lon="20.07798478938639163970947265625">
        <ele>1963.800048828125</ele>
        <time>2026-06-15T10:47:45.000Z</time>
        <extensions>
          <ns3:TrackPointExtension>
            <ns3:atemp>16.0</ns3:atemp>
          </ns3:TrackPointExtension>
        </extensions>
      </trkpt>
      <trkpt lat="42.57017050869762897491455078125" lon="20.07794422097504138946533203125">
        <ele>1963.4000244140625</ele>
        <time>2026-06-15T10:47:46.000Z</time>
        <extensions>
          <ns3:TrackPointExtension>
            <ns3:atemp>16.0</ns3:atemp>
          </ns3:TrackPointExtension>
        </extensions>
      </trkpt>
      <trkpt lat="42.570114769041538238525390625" lon="20.07790180854499340057373046875">
        <ele>1963</ele>
        <time>2026-06-15T10:47:47.000Z</time>
        <extensions>
          <ns3:TrackPointExtension>
            <ns3:atemp>16.0</ns3:atemp>
          </ns3:TrackPointExtension>
        </extensions>
      </trkpt>
      <trkpt lat="42.57006087340414524078369140625" lon="20.07786207832396030426025390625">
        <ele>1962.800048828125</ele>
        <time>2026-06-15T10:47:48.000Z</time>
        <extensions>
          <ns3:TrackPointExtension>
            <ns3:atemp>16.0</ns3:atemp>
          </ns3:TrackPointExtension>
        </extensions>
      </trkpt>
      <trkpt lat="42.57000253535807132720947265625" lon="20.07782687433063983917236328125">
        <ele>1962.5999755859375</ele>
        <time>2026-06-15T10:47:49.000Z</time>
        <extensions>
          <ns3:TrackPointExtension>
            <ns3:atemp>16.0</ns3:atemp>
          </ns3:TrackPointExtension>
        </extensions>
      </trkpt>
      <trkpt lat="42.56994084455072879791259765625" lon="20.077804662287235260009765625">
        <ele>1962.199951171875</ele>
        <time>2026-06-15T10:47:50.000Z</time>
        <extensions>
          <ns3:TrackPointExtension>
            <ns3:atemp>16.0</ns3:atemp>
          </ns3:TrackPointExtension>
        </extensions>
      </trkpt>
      <trkpt lat="42.56988116540014743804931640625" lon="20.0777761638164520263671875">
        <ele>1962</ele>
        <time>2026-06-15T10:47:51.000Z</time>
        <extensions>
          <ns3:TrackPointExtension>
            <ns3:atemp>16.0</ns3:atemp>
          </ns3:TrackPointExtension>
        </extensions>
      </trkpt>
      <trkpt lat="42.5698343105614185333251953125" lon="20.07773199118673801422119140625">
        <ele>1961.800048828125</ele>
        <time>2026-06-15T10:47:52.000Z</time>
        <extensions>
          <ns3:TrackPointExtension>
            <ns3:atemp>16.0</ns3:atemp>
          </ns3:TrackPointExtension>
        </extensions>
      </trkpt>
      <trkpt lat="42.56979315541684627532958984375" lon="20.07767893373966217041015625">
        <ele>1961.5999755859375</ele>
        <time>2026-06-15T10:47:53.000Z</time>
        <extensions>
          <ns3:TrackPointExtension>
            <ns3:atemp>16.0</ns3:atemp>
          </ns3:TrackPointExtension>
        </extensions>
      </trkpt>
      <trkpt lat="42.56975007243454456329345703125" lon="20.07763677276670932769775390625">
        <ele>1961.4000244140625</ele>
        <time>2026-06-15T10:47:54.000Z</time>
        <extensions>
          <ns3:TrackPointExtension>
            <ns3:atemp>16.0</ns3:atemp>
          </ns3:TrackPointExtension>
        </extensions>
      </trkpt>
      <trkpt lat="42.56970648653805255889892578125" lon="20.077598802745342254638671875">
        <ele>1961</ele>
        <time>2026-06-15T10:47:55.000Z</time>
        <extensions>
          <ns3:TrackPointExtension>
            <ns3:atemp>16.0</ns3:atemp>
          </ns3:TrackPointExtension>
        </extensions>
      </trkpt>
      <trkpt lat="42.5696572847664356231689453125" lon="20.07756250910460948944091796875">
        <ele>1960.800048828125</ele>
        <time>2026-06-15T10:47:56.000Z</time>
        <extensions>
          <ns3:TrackPointExtension>
            <ns3:atemp>16.0</ns3:atemp>
          </ns3:TrackPointExtension>
        </extensions>
      </trkpt>
      <trkpt lat="42.5696157105267047882080078125" lon="20.07751808501780033111572265625">
        <ele>1960.5999755859375</ele>
        <time>2026-06-15T10:47:57.000Z</time>
        <extensions>
          <ns3:TrackPointExtension>
            <ns3:atemp>16.0</ns3:atemp>
          </ns3:TrackPointExtension>
        </extensions>
      </trkpt>
      <trkpt lat="42.569572962820529937744140625" lon="20.0774739123880863189697265625">
        <ele>1960.199951171875</ele>
        <time>2026-06-15T10:47:58.000Z</time>
        <extensions>
          <ns3:TrackPointExtension>
            <ns3:atemp>16.0</ns3:atemp>
          </ns3:TrackPointExtension>
        </extensions>
      </trkpt>
      <trkpt lat="42.56952929310500621795654296875" lon="20.077441222965717315673828125">
        <ele>1959.800048828125</ele>
        <time>2026-06-15T10:47:59.000Z</time>
        <extensions>
          <ns3:TrackPointExtension>
            <ns3:atemp>16.0</ns3:atemp>
          </ns3:TrackPointExtension>
        </extensions>
      </trkpt>
      <trkpt lat="42.569481097161769866943359375" lon="20.0774087011814117431640625">
        <ele>1959.5999755859375</ele>
        <time>2026-06-15T10:48:00.000Z</time>
        <extensions>
          <ns3:TrackPointExtension>
            <ns3:atemp>16.0</ns3:atemp>
          </ns3:TrackPointExtension>
        </extensions>
      </trkpt>
      <trkpt lat="42.5694256089627742767333984375" lon="20.0773857347667217254638671875">
        <ele>1959.199951171875</ele>
        <time>2026-06-15T10:48:01.000Z</time>
        <extensions>
          <ns3:TrackPointExtension>
            <ns3:atemp>16.0</ns3:atemp>
          </ns3:TrackPointExtension>
        </extensions>
      </trkpt>
      <trkpt lat="42.5693655945360660552978515625" lon="20.07736243307590484619140625">
        <ele>1959</ele>
        <time>2026-06-15T10:48:02.000Z</time>
        <extensions>
          <ns3:TrackPointExtension>
            <ns3:atemp>16.0</ns3:atemp>
          </ns3:TrackPointExtension>
        </extensions>
      </trkpt>
      <trkpt lat="42.56930918432772159576416015625" lon="20.07733938284218311309814453125">
        <ele>1958.5999755859375</ele>
        <time>2026-06-15T10:48:03.000Z</time>
        <extensions>
          <ns3:TrackPointExtension>
            <ns3:atemp>16.0</ns3:atemp>
          </ns3:TrackPointExtension>
        </extensions>
      </trkpt>
      <trkpt lat="42.56925411522388458251953125" lon="20.07730518467724323272705078125">
        <ele>1958.199951171875</ele>
        <time>2026-06-15T10:48:04.000Z</time>
        <extensions>
          <ns3:TrackPointExtension>
            <ns3:atemp>16.0</ns3:atemp>
          </ns3:TrackPointExtension>
        </extensions>
      </trkpt>
      <trkpt lat="42.569202482700347900390625" lon="20.07726293988525867462158203125">
        <ele>1958</ele>
        <time>2026-06-15T10:48:05.000Z</time>
        <extensions>
          <ns3:TrackPointExtension>
            <ns3:atemp>16.0</ns3:atemp>
          </ns3:TrackPointExtension>
        </extensions>
      </trkpt>
      <trkpt lat="42.569156549870967864990234375" lon="20.07721315138041973114013671875">
        <ele>1957.4000244140625</ele>
        <time>2026-06-15T10:48:06.000Z</time>
        <extensions>
          <ns3:TrackPointExtension>
            <ns3:atemp>16.0</ns3:atemp>
          </ns3:TrackPointExtension>
        </extensions>
      </trkpt>
      <trkpt lat="42.56910617463290691375732421875" lon="20.0771634466946125030517578125">
        <ele>1957</ele>
        <time>2026-06-15T10:48:07.000Z</time>
        <extensions>
          <ns3:TrackPointExtension>
            <ns3:atemp>16.0</ns3:atemp>
          </ns3:TrackPointExtension>
        </extensions>
      </trkpt>
      <trkpt lat="42.56905772723257541656494140625" lon="20.07711072452366352081298828125">
        <ele>1956.800048828125</ele>
        <time>2026-06-15T10:48:08.000Z</time>
        <extensions>
          <ns3:TrackPointExtension>
            <ns3:atemp>16.0</ns3:atemp>
          </ns3:TrackPointExtension>
        </extensions>
      </trkpt>
      <trkpt lat="42.56901648826897144317626953125" lon="20.0770517997443675994873046875">
        <ele>1956.4000244140625</ele>
        <time>2026-06-15T10:48:09.000Z</time>
        <extensions>
          <ns3:TrackPointExtension>
            <ns3:atemp>16.0</ns3:atemp>
          </ns3:TrackPointExtension>
        </extensions>
      </trkpt>
      <trkpt lat="42.56897374056279659271240234375" lon="20.076991617679595947265625">
        <ele>1956</ele>
        <time>2026-06-15T10:48:10.000Z</time>
        <extensions>
          <ns3:TrackPointExtension>
            <ns3:atemp>16.0</ns3:atemp>
          </ns3:TrackPointExtension>
        </extensions>
      </trkpt>
      <trkpt lat="42.56892076693475246429443359375" lon="20.0769431702792644500732421875">
        <ele>1955.4000244140625</ele>
        <time>2026-06-15T10:48:11.000Z</time>
        <extensions>
          <ns3:TrackPointExtension>
            <ns3:atemp>16.0</ns3:atemp>
          </ns3:TrackPointExtension>
        </extensions>
      </trkpt>
      <trkpt lat="42.56886494345963001251220703125" lon="20.07690419442951679229736328125">
        <ele>1954.800048828125</ele>
        <time>2026-06-15T10:48:12.000Z</time>
        <extensions>
          <ns3:TrackPointExtension>
            <ns3:atemp>16.0</ns3:atemp>
          </ns3:TrackPointExtension>
        </extensions>
      </trkpt>
      <trkpt lat="42.56880526430904865264892578125" lon="20.0768717564642429351806640625">
        <ele>1954</ele>
        <time>2026-06-15T10:48:13.000Z</time>
        <extensions>
          <ns3:TrackPointExtension>
            <ns3:atemp>16.0</ns3:atemp>
          </ns3:TrackPointExtension>
        </extensions>
      </trkpt>
      <trkpt lat="42.5687530450522899627685546875" lon="20.0768288411200046539306640625">
        <ele>1953.4000244140625</ele>
        <time>2026-06-15T10:48:14.000Z</time>
        <extensions>
          <ns3:TrackPointExtension>
            <ns3:atemp>16.0</ns3:atemp>
          </ns3:TrackPointExtension>
        </extensions>
      </trkpt>
      <trkpt lat="42.56870652548968791961669921875" lon="20.076784081757068634033203125">
        <ele>1953</ele>
        <time>2026-06-15T10:48:15.000Z</time>
        <extensions>
          <ns3:TrackPointExtension>
            <ns3:atemp>16.0</ns3:atemp>
          </ns3:TrackPointExtension>
        </extensions>
      </trkpt>
      <trkpt lat="42.568656317889690399169921875" lon="20.07674552500247955322265625">
        <ele>1952.199951171875</ele>
        <time>2026-06-15T10:48:16.000Z</time>
        <extensions>
          <ns3:TrackPointExtension>
            <ns3:atemp>16.0</ns3:atemp>
          </ns3:TrackPointExtension>
        </extensions>
      </trkpt>
      <trkpt lat="42.56859697401523590087890625" lon="20.07671023719012737274169921875">
        <ele>1951.800048828125</ele>
        <time>2026-06-15T10:48:17.000Z</time>
        <extensions>
          <ns3:TrackPointExtension>
            <ns3:atemp>16.0</ns3:atemp>
          </ns3:TrackPointExtension>
        </extensions>
      </trkpt>
      <trkpt lat="42.56853251717984676361083984375" lon="20.07667503319680690765380859375">
        <ele>1951.5999755859375</ele>
        <time>2026-06-15T10:48:18.000Z</time>
        <extensions>
          <ns3:TrackPointExtension>
            <ns3:atemp>16.0</ns3:atemp>
          </ns3:TrackPointExtension>
        </extensions>
      </trkpt>
      <trkpt lat="42.56846345029771327972412109375" lon="20.0766420923173427581787109375">
        <ele>1951</ele>
        <time>2026-06-15T10:48:19.000Z</time>
        <extensions>
          <ns3:TrackPointExtension>
            <ns3:atemp>16.0</ns3:atemp>
          </ns3:TrackPointExtension>
        </extensions>
      </trkpt>
      <trkpt lat="42.568390108644962310791015625" lon="20.07661267183721065521240234375">
        <ele>1950.5999755859375</ele>
        <time>2026-06-15T10:48:20.000Z</time>
        <extensions>
          <ns3:TrackPointExtension>
            <ns3:atemp>16.0</ns3:atemp>
          </ns3:TrackPointExtension>
        </extensions>
      </trkpt>
      <trkpt lat="42.568313665688037872314453125" lon="20.0765760429203510284423828125">
        <ele>1950</ele>
        <time>2026-06-15T10:48:21.000Z</time>
        <extensions>
          <ns3:TrackPointExtension>
            <ns3:atemp>16.0</ns3:atemp>
          </ns3:TrackPointExtension>
        </extensions>
      </trkpt>
      <trkpt lat="42.5682382285594940185546875" lon="20.07652801461517810821533203125">
        <ele>1949.199951171875</ele>
        <time>2026-06-15T10:48:22.000Z</time>
        <extensions>
          <ns3:TrackPointExtension>
            <ns3:atemp>16.0</ns3:atemp>
          </ns3:TrackPointExtension>
        </extensions>
      </trkpt>
      <trkpt lat="42.56816421635448932647705078125" lon="20.076492391526699066162109375">
        <ele>1948.4000244140625</ele>
        <time>2026-06-15T10:48:23.000Z</time>
        <extensions>
          <ns3:TrackPointExtension>
            <ns3:atemp>16.0</ns3:atemp>
          </ns3:TrackPointExtension>
        </extensions>
      </trkpt>
      <trkpt lat="42.56809028796851634979248046875" lon="20.07648375816643238067626953125">
        <ele>1947.800048828125</ele>
        <time>2026-06-15T10:48:24.000Z</time>
        <extensions>
          <ns3:TrackPointExtension>
            <ns3:atemp>16.0</ns3:atemp>
          </ns3:TrackPointExtension>
        </extensions>
      </trkpt>
      <trkpt lat="42.56802088581025600433349609375" lon="20.0764833390712738037109375">
        <ele>1947</ele>
        <time>2026-06-15T10:48:25.000Z</time>
        <extensions>
          <ns3:TrackPointExtension>
            <ns3:atemp>16.0</ns3:atemp>
          </ns3:TrackPointExtension>
        </extensions>
      </trkpt>
      <trkpt lat="42.567955590784549713134765625" lon="20.07650923915207386016845703125">
        <ele>1946.5999755859375</ele>
        <time>2026-06-15T10:48:26.000Z</time>
        <extensions>
          <ns3:TrackPointExtension>
            <ns3:atemp>16.0</ns3:atemp>
          </ns3:TrackPointExtension>
        </extensions>
      </trkpt>
      <trkpt lat="42.56789289414882659912109375" lon="20.076546370983123779296875">
        <ele>1946.199951171875</ele>
        <time>2026-06-15T10:48:27.000Z</time>
        <extensions>
          <ns3:TrackPointExtension>
            <ns3:atemp>16.0</ns3:atemp>
          </ns3:TrackPointExtension>
        </extensions>
      </trkpt>
      <trkpt lat="42.56782441399991512298583984375" lon="20.07658953778445720672607421875">
        <ele>1945.5999755859375</ele>
        <time>2026-06-15T10:48:28.000Z</time>
        <extensions>
          <ns3:TrackPointExtension>
            <ns3:atemp>16.0</ns3:atemp>
          </ns3:TrackPointExtension>
        </extensions>
      </trkpt>
      <trkpt lat="42.56775132380425930023193359375" lon="20.07662155665457248687744140625">
        <ele>1944.5999755859375</ele>
        <time>2026-06-15T10:48:29.000Z</time>
        <extensions>
          <ns3:TrackPointExtension>
            <ns3:atemp>16.0</ns3:atemp>
          </ns3:TrackPointExtension>
        </extensions>
      </trkpt>
      <trkpt lat="42.56767295300960540771484375" lon="20.07663211785256862640380859375">
        <ele>1943.800048828125</ele>
        <time>2026-06-15T10:48:30.000Z</time>
        <extensions>
          <ns3:TrackPointExtension>
            <ns3:atemp>16.0</ns3:atemp>
          </ns3:TrackPointExtension>
        </extensions>
      </trkpt>
      <trkpt lat="42.5676052272319793701171875" lon="20.07662289775907993316650390625">
        <ele>1943</ele>
        <time>2026-06-15T10:48:31.000Z</time>
        <extensions>
          <ns3:TrackPointExtension>
            <ns3:atemp>16.0</ns3:atemp>
          </ns3:TrackPointExtension>
        </extensions>
      </trkpt>
      <trkpt lat="42.56753993220627307891845703125" lon="20.07661334238946437835693359375">
        <ele>1942.5999755859375</ele>
        <time>2026-06-15T10:48:32.000Z</time>
        <extensions>
          <ns3:TrackPointExtension>
            <ns3:atemp>16.0</ns3:atemp>
          </ns3:TrackPointExtension>
        </extensions>
      </trkpt>
      <trkpt lat="42.56748410873115062713623046875" lon="20.0766105763614177703857421875">
        <ele>1942</ele>
        <time>2026-06-15T10:48:33.000Z</time>
        <extensions>
          <ns3:TrackPointExtension>
            <ns3:atemp>16.0</ns3:atemp>
          </ns3:TrackPointExtension>
        </extensions>
      </trkpt>
      <trkpt lat="42.56743398495018482208251953125" lon="20.07661351002752780914306640625">
        <ele>1941.5999755859375</ele>
        <time>2026-06-15T10:48:34.000Z</time>
        <extensions>
          <ns3:TrackPointExtension>
            <ns3:atemp>16.0</ns3:atemp>
          </ns3:TrackPointExtension>
        </extensions>
      </trkpt>
      <trkpt lat="42.567389644682407379150390625" lon="20.07661736570298671722412109375">
        <ele>1941.5999755859375</ele>
        <time>2026-06-15T10:48:35.000Z</time>
        <extensions>
          <ns3:TrackPointExtension>
            <ns3:atemp>16.0</ns3:atemp>
          </ns3:TrackPointExtension>
        </extensions>
      </trkpt>
      <trkpt lat="42.56734664551913738250732421875" lon="20.07662490941584110260009765625">
        <ele>1941.4000244140625</ele>
        <time>2026-06-15T10:48:36.000Z</time>
        <extensions>
          <ns3:TrackPointExtension>
            <ns3:atemp>16.0</ns3:atemp>
          </ns3:TrackPointExtension>
        </extensions>
      </trkpt>
      <trkpt lat="42.567313201725482940673828125" lon="20.07663731463253498077392578125">
        <ele>1941.4000244140625</ele>
        <time>2026-06-15T10:48:37.000Z</time>
        <extensions>
          <ns3:TrackPointExtension>
            <ns3:atemp>16.0</ns3:atemp>
          </ns3:TrackPointExtension>
        </extensions>
      </trkpt>
      <trkpt lat="42.56728495471179485321044921875" lon="20.07665089331567287445068359375">
        <ele>1941.5999755859375</ele>
        <time>2026-06-15T10:48:38.000Z</time>
        <extensions>
          <ns3:TrackPointExtension>
            <ns3:atemp>16.0</ns3:atemp>
          </ns3:TrackPointExtension>
        </extensions>
      </trkpt>
      <trkpt lat="42.56725880317389965057373046875" lon="20.07666648365557193756103515625">
        <ele>1941.800048828125</ele>
        <time>2026-06-15T10:48:39.000Z</time>
        <extensions>
          <ns3:TrackPointExtension>
            <ns3:atemp>16.0</ns3:atemp>
          </ns3:TrackPointExtension>
        </extensions>
      </trkpt>
      <trkpt lat="42.56723885424435138702392578125" lon="20.0766860134899616241455078125">
        <ele>1942</ele>
        <time>2026-06-15T10:48:40.000Z</time>
        <extensions>
          <ns3:TrackPointExtension>
            <ns3:atemp>16.0</ns3:atemp>
          </ns3:TrackPointExtension>
        </extensions>
      </trkpt>
      <trkpt lat="42.567217648029327392578125" lon="20.0767091475427150726318359375">
        <ele>1942.4000244140625</ele>
        <time>2026-06-15T10:48:41.000Z</time>
        <extensions>
          <ns3:TrackPointExtension>
            <ns3:atemp>16.0</ns3:atemp>
          </ns3:TrackPointExtension>
        </extensions>
      </trkpt>
      <trkpt lat="42.5671906583011150360107421875" lon="20.07671602070331573486328125">
        <ele>1942.5999755859375</ele>
        <time>2026-06-15T10:48:42.000Z</time>
        <extensions>
          <ns3:TrackPointExtension>
            <ns3:atemp>16.0</ns3:atemp>
          </ns3:TrackPointExtension>
        </extensions>
      </trkpt>
      <trkpt lat="42.5671611540019512176513671875" lon="20.07672750391066074371337890625">
        <ele>1942.800048828125</ele>
        <time>2026-06-15T10:48:43.000Z</time>
        <extensions>
          <ns3:TrackPointExtension>
            <ns3:atemp>16.0</ns3:atemp>
          </ns3:TrackPointExtension>
        </extensions>
      </trkpt>
      <trkpt lat="42.5671289674937725067138671875" lon="20.076723732054233551025390625">
        <ele>1942.800048828125</ele>
        <time>2026-06-15T10:48:44.000Z</time>
        <extensions>
          <ns3:TrackPointExtension>
            <ns3:atemp>16.0</ns3:atemp>
          </ns3:TrackPointExtension>
        </extensions>
      </trkpt>
      <trkpt lat="42.5670907460153102874755859375" lon="20.07671074010431766510009765625">
        <ele>1943</ele>
        <time>2026-06-15T10:48:45.000Z</time>
        <extensions>
          <ns3:TrackPointExtension>
            <ns3:atemp>16.0</ns3:atemp>
          </ns3:TrackPointExtension>
        </extensions>
      </trkpt>
      <trkpt lat="42.5670525245368480682373046875" lon="20.0766970776021480560302734375">
        <ele>1943</ele>
        <time>2026-06-15T10:48:46.000Z</time>
        <extensions>
          <ns3:TrackPointExtension>
            <ns3:atemp>16.0</ns3:atemp>
          </ns3:TrackPointExtension>
        </extensions>
      </trkpt>
      <trkpt lat="42.567004747688770294189453125" lon="20.07668207399547100067138671875">
        <ele>1943</ele>
        <time>2026-06-15T10:48:47.000Z</time>
        <extensions>
          <ns3:TrackPointExtension>
            <ns3:atemp>16.0</ns3:atemp>
          </ns3:TrackPointExtension>
        </extensions>
      </trkpt>
      <trkpt lat="42.56695554591715335845947265625" lon="20.07667603902518749237060546875">
        <ele>1942.800048828125</ele>
        <time>2026-06-15T10:48:48.000Z</time>
        <extensions>
          <ns3:TrackPointExtension>
            <ns3:atemp>16.0</ns3:atemp>
          </ns3:TrackPointExtension>
        </extensions>
      </trkpt>
      <trkpt lat="42.5669051706790924072265625" lon="20.07666598074138164520263671875">
        <ele>1942.800048828125</ele>
        <time>2026-06-15T10:48:49.000Z</time>
        <extensions>
          <ns3:TrackPointExtension>
            <ns3:atemp>16.0</ns3:atemp>
          </ns3:TrackPointExtension>
        </extensions>
      </trkpt>
      <trkpt lat="42.56685194559395313262939453125" lon="20.07665290497243404388427734375">
        <ele>1942.4000244140625</ele>
        <time>2026-06-15T10:48:50.000Z</time>
        <extensions>
          <ns3:TrackPointExtension>
            <ns3:atemp>16.0</ns3:atemp>
          </ns3:TrackPointExtension>
        </extensions>
      </trkpt>
      <trkpt lat="42.56679662503302097320556640625" lon="20.07664837874472141265869140625">
        <ele>1942.4000244140625</ele>
        <time>2026-06-15T10:48:51.000Z</time>
        <extensions>
          <ns3:TrackPointExtension>
            <ns3:atemp>16.0</ns3:atemp>
          </ns3:TrackPointExtension>
        </extensions>
      </trkpt>
      <trkpt lat="42.5667484290897846221923828125" lon="20.0766528211534023284912109375">
        <ele>1942.199951171875</ele>
        <time>2026-06-15T10:48:52.000Z</time>
        <extensions>
          <ns3:TrackPointExtension>
            <ns3:atemp>16.0</ns3:atemp>
          </ns3:TrackPointExtension>
        </extensions>
      </trkpt>
      <trkpt lat="42.5667071901261806488037109375" lon="20.0766632147133350372314453125">
        <ele>1942.199951171875</ele>
        <time>2026-06-15T10:48:53.000Z</time>
        <extensions>
          <ns3:TrackPointExtension>
            <ns3:atemp>16.0</ns3:atemp>
          </ns3:TrackPointExtension>
        </extensions>
      </trkpt>
      <trkpt lat="42.566668130457401275634765625" lon="20.07666799239814281463623046875">
        <ele>1942</ele>
        <time>2026-06-15T10:48:54.000Z</time>
        <extensions>
          <ns3:TrackPointExtension>
            <ns3:atemp>16.0</ns3:atemp>
          </ns3:TrackPointExtension>
        </extensions>
      </trkpt>
      <trkpt lat="42.566629908978939056396484375" lon="20.07665206678211688995361328125">
        <ele>1942</ele>
        <time>2026-06-15T10:48:55.000Z</time>
        <extensions>
          <ns3:TrackPointExtension>
            <ns3:atemp>16.0</ns3:atemp>
          </ns3:TrackPointExtension>
        </extensions>
      </trkpt>
      <trkpt lat="42.56659336388111114501953125" lon="20.07662658579647541046142578125">
        <ele>1941.800048828125</ele>
        <time>2026-06-15T10:48:56.000Z</time>
        <extensions>
          <ns3:TrackPointExtension>
            <ns3:atemp>16.0</ns3:atemp>
          </ns3:TrackPointExtension>
        </extensions>
      </trkpt>
      <trkpt lat="42.56655790843069553375244140625" lon="20.07660328410565853118896484375">
        <ele>1941.5999755859375</ele>
        <time>2026-06-15T10:48:57.000Z</time>
        <extensions>
          <ns3:TrackPointExtension>
            <ns3:atemp>16.0</ns3:atemp>
          </ns3:TrackPointExtension>
        </extensions>
      </trkpt>
      <trkpt lat="42.566525638103485107421875" lon="20.07657730020582675933837890625">
        <ele>1941.199951171875</ele>
        <time>2026-06-15T10:48:58.000Z</time>
        <extensions>
          <ns3:TrackPointExtension>
            <ns3:atemp>16.0</ns3:atemp>
          </ns3:TrackPointExtension>
        </extensions>
      </trkpt>
      <trkpt lat="42.5665020011365413665771484375" lon="20.07655642926692962646484375">
        <ele>1941</ele>
        <time>2026-06-15T10:48:59.000Z</time>
        <extensions>
          <ns3:TrackPointExtension>
            <ns3:atemp>16.0</ns3:atemp>
          </ns3:TrackPointExtension>
        </extensions>
      </trkpt>
      <trkpt lat="42.566481046378612518310546875" lon="20.076538659632205963134765625">
        <ele>1940.800048828125</ele>
        <time>2026-06-15T10:49:00.000Z</time>
        <extensions>
          <ns3:TrackPointExtension>
            <ns3:atemp>16.0</ns3:atemp>
          </ns3:TrackPointExtension>
        </extensions>
      </trkpt>
      <trkpt lat="42.5664590857923030853271484375" lon="20.0765208899974822998046875">
        <ele>1940.5999755859375</ele>
        <time>2026-06-15T10:49:01.000Z</time>
        <extensions>
          <ns3:TrackPointExtension>
            <ns3:atemp>16.0</ns3:atemp>
          </ns3:TrackPointExtension>
        </extensions>
      </trkpt>
      <trkpt lat="42.566435448825359344482421875" lon="20.0764982588589191436767578125">
        <ele>1940.4000244140625</ele>
        <time>2026-06-15T10:49:02.000Z</time>
        <extensions>
          <ns3:TrackPointExtension>
            <ns3:atemp>16.0</ns3:atemp>
          </ns3:TrackPointExtension>
        </extensions>
      </trkpt>
      <trkpt lat="42.56641097366809844970703125" lon="20.07646883837878704071044921875">
        <ele>1940.199951171875</ele>
        <time>2026-06-15T10:49:03.000Z</time>
        <extensions>
          <ns3:TrackPointExtension>
            <ns3:atemp>16.0</ns3:atemp>
          </ns3:TrackPointExtension>
        </extensions>
      </trkpt>
      <trkpt lat="42.5663888454437255859375" lon="20.07644335739314556121826171875">
        <ele>1939.800048828125</ele>
        <time>2026-06-15T10:49:04.000Z</time>
        <extensions>
          <ns3:TrackPointExtension>
            <ns3:atemp>16.0</ns3:atemp>
          </ns3:TrackPointExtension>
        </extensions>
      </trkpt>
      <trkpt lat="42.56636931560933589935302734375" lon="20.07641703821718692779541015625">
        <ele>1939.5999755859375</ele>
        <time>2026-06-15T10:49:05.000Z</time>
        <extensions>
          <ns3:TrackPointExtension>
            <ns3:atemp>16.0</ns3:atemp>
          </ns3:TrackPointExtension>
        </extensions>
      </trkpt>
      <trkpt lat="42.56634651683270931243896484375" lon="20.07639348506927490234375">
        <ele>1939.5999755859375</ele>
        <time>2026-06-15T10:49:06.000Z</time>
        <extensions>
          <ns3:TrackPointExtension>
            <ns3:atemp>16.0</ns3:atemp>
          </ns3:TrackPointExtension>
        </extensions>
      </trkpt>
      <trkpt lat="42.56632070057094097137451171875" lon="20.07637294940650463104248046875">
        <ele>1939.5999755859375</ele>
        <time>2026-06-15T10:49:07.000Z</time>
        <extensions>
          <ns3:TrackPointExtension>
            <ns3:atemp>16.0</ns3:atemp>
          </ns3:TrackPointExtension>
        </extensions>
      </trkpt>
      <trkpt lat="42.56629521958529949188232421875" lon="20.07634989917278289794921875">
        <ele>1939.5999755859375</ele>
        <time>2026-06-15T10:49:08.000Z</time>
        <extensions>
          <ns3:TrackPointExtension>
            <ns3:atemp>16.0</ns3:atemp>
          </ns3:TrackPointExtension>
        </extensions>
      </trkpt>
      <trkpt lat="42.5662602670490741729736328125" lon="20.0763296149671077728271484375">
        <ele>1939.5999755859375</ele>
        <time>2026-06-15T10:49:09.000Z</time>
        <extensions>
          <ns3:TrackPointExtension>
            <ns3:atemp>16.0</ns3:atemp>
          </ns3:TrackPointExtension>
        </extensions>
      </trkpt>
      <trkpt lat="42.56622514687478542327880859375" lon="20.0763089954853057861328125">
        <ele>1939.5999755859375</ele>
        <time>2026-06-15T10:49:10.000Z</time>
        <extensions>
          <ns3:TrackPointExtension>
            <ns3:atemp>16.0</ns3:atemp>
          </ns3:TrackPointExtension>
        </extensions>
      </trkpt>
      <trkpt lat="42.5661935470998287200927734375" lon="20.0762887112796306610107421875">
        <ele>1939.5999755859375</ele>
        <time>2026-06-15T10:49:11.000Z</time>
        <extensions>
          <ns3:TrackPointExtension>
            <ns3:atemp>16.0</ns3:atemp>
          </ns3:TrackPointExtension>
        </extensions>
      </trkpt>
      <trkpt lat="42.566161863505840301513671875" lon="20.07627588696777820587158203125">
        <ele>1939.5999755859375</ele>
        <time>2026-06-15T10:49:12.000Z</time>
        <extensions>
          <ns3:TrackPointExtension>
            <ns3:atemp>16.0</ns3:atemp>
          </ns3:TrackPointExtension>
        </extensions>
      </trkpt>
      <trkpt lat="42.56612909026443958282470703125" lon="20.07627077400684356689453125">
        <ele>1939.5999755859375</ele>
        <time>2026-06-15T10:49:13.000Z</time>
        <extensions>
          <ns3:TrackPointExtension>
            <ns3:atemp>16.0</ns3:atemp>
          </ns3:TrackPointExtension>
        </extensions>
      </trkpt>
      <trkpt lat="42.56609371863305568695068359375" lon="20.0762665830552577972412109375">
        <ele>1939.800048828125</ele>
        <time>2026-06-15T10:49:14.000Z</time>
        <extensions>
          <ns3:TrackPointExtension>
            <ns3:atemp>16.0</ns3:atemp>
          </ns3:TrackPointExtension>
        </extensions>
      </trkpt>
      <trkpt lat="42.56605449132621288299560546875" lon="20.0762593746185302734375">
        <ele>1940</ele>
        <time>2026-06-15T10:49:15.000Z</time>
        <extensions>
          <ns3:TrackPointExtension>
            <ns3:atemp>16.0</ns3:atemp>
          </ns3:TrackPointExtension>
        </extensions>
      </trkpt>
      <trkpt lat="42.5660200417041778564453125" lon="20.076255016028881072998046875">
        <ele>1940</ele>
        <time>2026-06-15T10:49:16.000Z</time>
        <extensions>
          <ns3:TrackPointExtension>
            <ns3:atemp>16.0</ns3:atemp>
          </ns3:TrackPointExtension>
        </extensions>
      </trkpt>
      <trkpt lat="42.56598894484341144561767578125" lon="20.07624688558280467987060546875">
        <ele>1940.199951171875</ele>
        <time>2026-06-15T10:49:17.000Z</time>
        <extensions>
          <ns3:TrackPointExtension>
            <ns3:atemp>16.0</ns3:atemp>
          </ns3:TrackPointExtension>
        </extensions>
      </trkpt>
      <trkpt lat="42.5659596920013427734375" lon="20.0762417726218700408935546875">
        <ele>1940.199951171875</ele>
        <time>2026-06-15T10:49:18.000Z</time>
        <extensions>
          <ns3:TrackPointExtension>
            <ns3:atemp>16.0</ns3:atemp>
          </ns3:TrackPointExtension>
        </extensions>
      </trkpt>
      <trkpt lat="42.56593060679733753204345703125" lon="20.0762338936328887939453125">
        <ele>1940.199951171875</ele>
        <time>2026-06-15T10:49:19.000Z</time>
        <extensions>
          <ns3:TrackPointExtension>
            <ns3:atemp>16.0</ns3:atemp>
          </ns3:TrackPointExtension>
        </extensions>
      </trkpt>
      <trkpt lat="42.565899007022380828857421875" lon="20.07621981203556060791015625">
        <ele>1940.4000244140625</ele>
        <time>2026-06-15T10:49:20.000Z</time>
        <extensions>
          <ns3:TrackPointExtension>
            <ns3:atemp>16.0</ns3:atemp>
          </ns3:TrackPointExtension>
        </extensions>
      </trkpt>
      <trkpt lat="42.56586941890418529510498046875" lon="20.07620380260050296783447265625">
        <ele>1940.5999755859375</ele>
        <time>2026-06-15T10:49:21.000Z</time>
        <extensions>
          <ns3:TrackPointExtension>
            <ns3:atemp>16.0</ns3:atemp>
          </ns3:TrackPointExtension>
        </extensions>
      </trkpt>
      <trkpt lat="42.56583991460502147674560546875" lon="20.07618988864123821258544921875">
        <ele>1940.5999755859375</ele>
        <time>2026-06-15T10:49:22.000Z</time>
        <extensions>
          <ns3:TrackPointExtension>
            <ns3:atemp>16.0</ns3:atemp>
          </ns3:TrackPointExtension>
        </extensions>
      </trkpt>
      <trkpt lat="42.56581149995326995849609375" lon="20.0761748850345611572265625">
        <ele>1940.800048828125</ele>
        <time>2026-06-15T10:49:23.000Z</time>
        <extensions>
          <ns3:TrackPointExtension>
            <ns3:atemp>16.0</ns3:atemp>
          </ns3:TrackPointExtension>
        </extensions>
      </trkpt>
      <trkpt lat="42.56578811444342136383056640625" lon="20.07615753449499607086181640625">
        <ele>1941</ele>
        <time>2026-06-15T10:49:24.000Z</time>
        <extensions>
          <ns3:TrackPointExtension>
            <ns3:atemp>16.0</ns3:atemp>
          </ns3:TrackPointExtension>
        </extensions>
      </trkpt>
      <trkpt lat="42.565762884914875030517578125" lon="20.07613557390868663787841796875">
        <ele>1941.199951171875</ele>
        <time>2026-06-15T10:49:25.000Z</time>
        <extensions>
          <ns3:TrackPointExtension>
            <ns3:atemp>16.0</ns3:atemp>
          </ns3:TrackPointExtension>
        </extensions>
      </trkpt>
      <trkpt lat="42.565738074481487274169921875" lon="20.07611009292304515838623046875">
        <ele>1941.5999755859375</ele>
        <time>2026-06-15T10:49:26.000Z</time>
        <extensions>
          <ns3:TrackPointExtension>
            <ns3:atemp>16.0</ns3:atemp>
          </ns3:TrackPointExtension>
        </extensions>
      </trkpt>
      <trkpt lat="42.565710246562957763671875" lon="20.07608226500451564788818359375">
        <ele>1941.800048828125</ele>
        <time>2026-06-15T10:49:27.000Z</time>
        <extensions>
          <ns3:TrackPointExtension>
            <ns3:atemp>16.0</ns3:atemp>
          </ns3:TrackPointExtension>
        </extensions>
      </trkpt>
      <trkpt lat="42.56567646749317646026611328125" lon="20.07605946622788906097412109375">
        <ele>1942.199951171875</ele>
        <time>2026-06-15T10:49:28.000Z</time>
        <extensions>
          <ns3:TrackPointExtension>
            <ns3:atemp>16.0</ns3:atemp>
          </ns3:TrackPointExtension>
        </extensions>
      </trkpt>
      <trkpt lat="42.5656396709382534027099609375" lon="20.07603800855576992034912109375">
        <ele>1942.5999755859375</ele>
        <time>2026-06-15T10:49:29.000Z</time>
        <extensions>
          <ns3:TrackPointExtension>
            <ns3:atemp>16.0</ns3:atemp>
          </ns3:TrackPointExtension>
        </extensions>
      </trkpt>
      <trkpt lat="42.565608322620391845703125" lon="20.07600984536111354827880859375">
        <ele>1942.800048828125</ele>
        <time>2026-06-15T10:49:30.000Z</time>
        <extensions>
          <ns3:TrackPointExtension>
            <ns3:atemp>16.0</ns3:atemp>
          </ns3:TrackPointExtension>
        </extensions>
      </trkpt>
      <trkpt lat="42.56557186134159564971923828125" lon="20.07599056698381900787353515625">
        <ele>1943.199951171875</ele>
        <time>2026-06-15T10:49:31.000Z</time>
        <extensions>
          <ns3:TrackPointExtension>
            <ns3:atemp>16.0</ns3:atemp>
          </ns3:TrackPointExtension>
        </extensions>
      </trkpt>
      <trkpt lat="42.5655374117195606231689453125" lon="20.0759748928248882293701171875">
        <ele>1943.4000244140625</ele>
        <time>2026-06-15T10:49:32.000Z</time>
        <extensions>
          <ns3:TrackPointExtension>
            <ns3:atemp>16.0</ns3:atemp>
          </ns3:TrackPointExtension>
        </extensions>
      </trkpt>
      <trkpt lat="42.565503381192684173583984375" lon="20.075964666903018951416015625">
        <ele>1943.5999755859375</ele>
        <time>2026-06-15T10:49:33.000Z</time>
        <extensions>
          <ns3:TrackPointExtension>
            <ns3:atemp>16.0</ns3:atemp>
          </ns3:TrackPointExtension>
        </extensions>
      </trkpt>
      <trkpt lat="42.56547211669385433197021484375" lon="20.075958631932735443115234375">
        <ele>1943.800048828125</ele>
        <time>2026-06-15T10:49:34.000Z</time>
        <extensions>
          <ns3:TrackPointExtension>
            <ns3:atemp>16.0</ns3:atemp>
          </ns3:TrackPointExtension>
        </extensions>
      </trkpt>
      <trkpt lat="42.5654421932995319366455078125" lon="20.0759514234960079193115234375">
        <ele>1944</ele>
        <time>2026-06-15T10:49:35.000Z</time>
        <extensions>
          <ns3:TrackPointExtension>
            <ns3:atemp>16.0</ns3:atemp>
          </ns3:TrackPointExtension>
        </extensions>
      </trkpt>
      <trkpt lat="42.56541092880070209503173828125" lon="20.07593683898448944091796875">
        <ele>1944.4000244140625</ele>
        <time>2026-06-15T10:49:36.000Z</time>
        <extensions>
          <ns3:TrackPointExtension>
            <ns3:atemp>16.0</ns3:atemp>
          </ns3:TrackPointExtension>
        </extensions>
      </trkpt>
      <trkpt lat="42.56537698209285736083984375" lon="20.0759148783981800079345703125">
        <ele>1944.800048828125</ele>
        <time>2026-06-15T10:49:37.000Z</time>
        <extensions>
          <ns3:TrackPointExtension>
            <ns3:atemp>16.0</ns3:atemp>
          </ns3:TrackPointExtension>
        </extensions>
      </trkpt>
      <trkpt lat="42.56534353829920291900634765625" lon="20.075895600020885467529296875">
        <ele>1945</ele>
        <time>2026-06-15T10:49:38.000Z</time>
        <extensions>
          <ns3:TrackPointExtension>
            <ns3:atemp>16.0</ns3:atemp>
          </ns3:TrackPointExtension>
        </extensions>
      </trkpt>
      <trkpt lat="42.565315626561641693115234375" lon="20.07586685009300708770751953125">
        <ele>1945.199951171875</ele>
        <time>2026-06-15T10:49:39.000Z</time>
        <extensions>
          <ns3:TrackPointExtension>
            <ns3:atemp>16.0</ns3:atemp>
          </ns3:TrackPointExtension>
        </extensions>
      </trkpt>
      <trkpt lat="42.5652842782437801361083984375" lon="20.07583214901387691497802734375">
        <ele>1945.4000244140625</ele>
        <time>2026-06-15T10:49:40.000Z</time>
        <extensions>
          <ns3:TrackPointExtension>
            <ns3:atemp>16.0</ns3:atemp>
          </ns3:TrackPointExtension>
        </extensions>
      </trkpt>
      <trkpt lat="42.56525150500237941741943359375" lon="20.07579761557281017303466796875">
        <ele>1945.5999755859375</ele>
        <time>2026-06-15T10:49:41.000Z</time>
        <extensions>
          <ns3:TrackPointExtension>
            <ns3:atemp>16.0</ns3:atemp>
          </ns3:TrackPointExtension>
        </extensions>
      </trkpt>
      <trkpt lat="42.56521948613226413726806640625" lon="20.07575788535177707672119140625">
        <ele>1945.800048828125</ele>
        <time>2026-06-15T10:49:42.000Z</time>
        <extensions>
          <ns3:TrackPointExtension>
            <ns3:atemp>16.0</ns3:atemp>
          </ns3:TrackPointExtension>
        </extensions>
      </trkpt>
      <trkpt lat="42.56518780253827571868896484375" lon="20.0757143832743167877197265625">
        <ele>1946.199951171875</ele>
        <time>2026-06-15T10:49:43.000Z</time>
        <extensions>
          <ns3:TrackPointExtension>
            <ns3:atemp>16.0</ns3:atemp>
          </ns3:TrackPointExtension>
        </extensions>
      </trkpt>
      <trkpt lat="42.56515813060104846954345703125" lon="20.07567155174911022186279296875">
        <ele>1946.5999755859375</ele>
        <time>2026-06-15T10:49:44.000Z</time>
        <extensions>
          <ns3:TrackPointExtension>
            <ns3:atemp>16.0</ns3:atemp>
          </ns3:TrackPointExtension>
        </extensions>
      </trkpt>
      <trkpt lat="42.56512795574963092803955078125" lon="20.0756303966045379638671875">
        <ele>1947</ele>
        <time>2026-06-15T10:49:45.000Z</time>
        <extensions>
          <ns3:TrackPointExtension>
            <ns3:atemp>16.0</ns3:atemp>
          </ns3:TrackPointExtension>
        </extensions>
      </trkpt>
      <trkpt lat="42.56509928964078426361083984375" lon="20.07559360004961490631103515625">
        <ele>1947.5999755859375</ele>
        <time>2026-06-15T10:49:46.000Z</time>
        <extensions>
          <ns3:TrackPointExtension>
            <ns3:atemp>16.0</ns3:atemp>
          </ns3:TrackPointExtension>
        </extensions>
      </trkpt>
      <trkpt lat="42.565069533884525299072265625" lon="20.07555671967566013336181640625">
        <ele>1947.800048828125</ele>
        <time>2026-06-15T10:49:47.000Z</time>
        <extensions>
          <ns3:TrackPointExtension>
            <ns3:atemp>16.0</ns3:atemp>
          </ns3:TrackPointExtension>
        </extensions>
      </trkpt>
      <trkpt lat="42.56503525190055370330810546875" lon="20.075521767139434814453125">
        <ele>1948.199951171875</ele>
        <time>2026-06-15T10:49:48.000Z</time>
        <extensions>
          <ns3:TrackPointExtension>
            <ns3:atemp>16.0</ns3:atemp>
          </ns3:TrackPointExtension>
        </extensions>
      </trkpt>
      <trkpt lat="42.564996443688869476318359375" lon="20.07549025118350982666015625">
        <ele>1948.5999755859375</ele>
        <time>2026-06-15T10:49:49.000Z</time>
        <extensions>
          <ns3:TrackPointExtension>
            <ns3:atemp>16.0</ns3:atemp>
          </ns3:TrackPointExtension>
        </extensions>
      </trkpt>
      <trkpt lat="42.56496400572359561920166015625" lon="20.07545127533376216888427734375">
        <ele>1948.800048828125</ele>
        <time>2026-06-15T10:49:50.000Z</time>
        <extensions>
          <ns3:TrackPointExtension>
            <ns3:atemp>16.0</ns3:atemp>
          </ns3:TrackPointExtension>
        </extensions>
      </trkpt>
      <trkpt lat="42.564932741224765777587890625" lon="20.075420178472995758056640625">
        <ele>1949</ele>
        <time>2026-06-15T10:49:51.000Z</time>
        <extensions>
          <ns3:TrackPointExtension>
            <ns3:atemp>16.0</ns3:atemp>
          </ns3:TrackPointExtension>
        </extensions>
      </trkpt>
      <trkpt lat="42.5649003870785236358642578125" lon="20.07538966834545135498046875">
        <ele>1949.4000244140625</ele>
        <time>2026-06-15T10:49:52.000Z</time>
        <extensions>
          <ns3:TrackPointExtension>
            <ns3:atemp>16.0</ns3:atemp>
          </ns3:TrackPointExtension>
        </extensions>
      </trkpt>
      <trkpt lat="42.56487029604613780975341796875" lon="20.07536326535046100616455078125">
        <ele>1949.5999755859375</ele>
        <time>2026-06-15T10:49:53.000Z</time>
        <extensions>
          <ns3:TrackPointExtension>
            <ns3:atemp>16.0</ns3:atemp>
          </ns3:TrackPointExtension>
        </extensions>
      </trkpt>
      <trkpt lat="42.564840875566005706787109375" lon="20.07533459924161434173583984375">
        <ele>1949.800048828125</ele>
        <time>2026-06-15T10:49:54.000Z</time>
        <extensions>
          <ns3:TrackPointExtension>
            <ns3:atemp>16.0</ns3:atemp>
          </ns3:TrackPointExtension>
        </extensions>
      </trkpt>
      <trkpt lat="42.5648065097630023956298828125" lon="20.07530995644629001617431640625">
        <ele>1950</ele>
        <time>2026-06-15T10:49:55.000Z</time>
        <extensions>
          <ns3:TrackPointExtension>
            <ns3:atemp>16.0</ns3:atemp>
          </ns3:TrackPointExtension>
        </extensions>
      </trkpt>
      <trkpt lat="42.564771138131618499755859375" lon="20.07528908550739288330078125">
        <ele>1950.4000244140625</ele>
        <time>2026-06-15T10:49:56.000Z</time>
        <extensions>
          <ns3:TrackPointExtension>
            <ns3:atemp>16.0</ns3:atemp>
          </ns3:TrackPointExtension>
        </extensions>
      </trkpt>
      <trkpt lat="42.56473836489021778106689453125" lon="20.07526569999754428863525390625">
        <ele>1950.800048828125</ele>
        <time>2026-06-15T10:49:57.000Z</time>
        <extensions>
          <ns3:TrackPointExtension>
            <ns3:atemp>16.0</ns3:atemp>
          </ns3:TrackPointExtension>
        </extensions>
      </trkpt>
      <trkpt lat="42.5647089444100856781005859375" lon="20.07524994201958179473876953125">
        <ele>1951.199951171875</ele>
        <time>2026-06-15T10:49:58.000Z</time>
        <extensions>
          <ns3:TrackPointExtension>
            <ns3:atemp>16.0</ns3:atemp>
          </ns3:TrackPointExtension>
        </extensions>
      </trkpt>
      <trkpt lat="42.5646827928721904754638671875" lon="20.07523544132709503173828125">
        <ele>1951.800048828125</ele>
        <time>2026-06-15T10:49:59.000Z</time>
        <extensions>
          <ns3:TrackPointExtension>
            <ns3:atemp>16.0</ns3:atemp>
          </ns3:TrackPointExtension>
        </extensions>
      </trkpt>
      <trkpt lat="42.56465412676334381103515625" lon="20.07522094063460826873779296875">
        <ele>1952.199951171875</ele>
        <time>2026-06-15T10:50:00.000Z</time>
        <extensions>
          <ns3:TrackPointExtension>
            <ns3:atemp>16.0</ns3:atemp>
          </ns3:TrackPointExtension>
        </extensions>
      </trkpt>
      <trkpt lat="42.56462403573095798492431640625" lon="20.07520903833210468292236328125">
        <ele>1952.5999755859375</ele>
        <time>2026-06-15T10:50:01.000Z</time>
        <extensions>
          <ns3:TrackPointExtension>
            <ns3:atemp>16.0</ns3:atemp>
          </ns3:TrackPointExtension>
        </extensions>
      </trkpt>
      <trkpt lat="42.56460023112595081329345703125" lon="20.07519411854445934295654296875">
        <ele>1953</ele>
        <time>2026-06-15T10:50:02.000Z</time>
        <extensions>
          <ns3:TrackPointExtension>
            <ns3:atemp>16.0</ns3:atemp>
          </ns3:TrackPointExtension>
        </extensions>
      </trkpt>
      <trkpt lat="42.56457894109189510345458984375" lon="20.07517165504395961761474609375">
        <ele>1953.4000244140625</ele>
        <time>2026-06-15T10:50:03.000Z</time>
        <extensions>
          <ns3:TrackPointExtension>
            <ns3:atemp>16.0</ns3:atemp>
          </ns3:TrackPointExtension>
        </extensions>
      </trkpt>
      <trkpt lat="42.56455765105783939361572265625" lon="20.075146593153476715087890625">
        <ele>1953.800048828125</ele>
        <time>2026-06-15T10:50:04.000Z</time>
        <extensions>
          <ns3:TrackPointExtension>
            <ns3:atemp>16.0</ns3:atemp>
          </ns3:TrackPointExtension>
        </extensions>
      </trkpt>
      <trkpt lat="42.56453116424381732940673828125" lon="20.07512287236750125885009765625">
        <ele>1954.199951171875</ele>
        <time>2026-06-15T10:50:05.000Z</time>
        <extensions>
          <ns3:TrackPointExtension>
            <ns3:atemp>16.0</ns3:atemp>
          </ns3:TrackPointExtension>
        </extensions>
      </trkpt>
      <trkpt lat="42.56449847482144832611083984375" lon="20.0750890932977199554443359375">
        <ele>1954.4000244140625</ele>
        <time>2026-06-15T10:50:06.000Z</time>
        <extensions>
          <ns3:TrackPointExtension>
            <ns3:atemp>16.0</ns3:atemp>
          </ns3:TrackPointExtension>
        </extensions>
      </trkpt>
      <trkpt lat="42.564471065998077392578125" lon="20.0750562362372875213623046875">
        <ele>1954.800048828125</ele>
        <time>2026-06-15T10:50:07.000Z</time>
        <extensions>
          <ns3:TrackPointExtension>
            <ns3:atemp>16.0</ns3:atemp>
          </ns3:TrackPointExtension>
        </extensions>
      </trkpt>
      <trkpt lat="42.5644491054117679595947265625" lon="20.07501709274947643280029296875">
        <ele>1955</ele>
        <time>2026-06-15T10:50:08.000Z</time>
        <extensions>
          <ns3:TrackPointExtension>
            <ns3:atemp>16.0</ns3:atemp>
          </ns3:TrackPointExtension>
        </extensions>
      </trkpt>
      <trkpt lat="42.5644229538738727569580078125" lon="20.0749866664409637451171875">
        <ele>1955.199951171875</ele>
        <time>2026-06-15T10:50:09.000Z</time>
        <extensions>
          <ns3:TrackPointExtension>
            <ns3:atemp>16.0</ns3:atemp>
          </ns3:TrackPointExtension>
        </extensions>
      </trkpt>
      <trkpt lat="42.56439219228923320770263671875" lon="20.07496722042560577392578125">
        <ele>1955.5999755859375</ele>
        <time>2026-06-15T10:50:10.000Z</time>
        <extensions>
          <ns3:TrackPointExtension>
            <ns3:atemp>16.0</ns3:atemp>
          </ns3:TrackPointExtension>
        </extensions>
      </trkpt>
      <trkpt lat="42.56436386145651340484619140625" lon="20.07494936697185039520263671875">
        <ele>1955.800048828125</ele>
        <time>2026-06-15T10:50:11.000Z</time>
        <extensions>
          <ns3:TrackPointExtension>
            <ns3:atemp>16.0</ns3:atemp>
          </ns3:TrackPointExtension>
        </extensions>
      </trkpt>
      <trkpt lat="42.5643377937376499176025390625" lon="20.07493310607969760894775390625">
        <ele>1956</ele>
        <time>2026-06-15T10:50:12.000Z</time>
        <extensions>
          <ns3:TrackPointExtension>
            <ns3:atemp>16.0</ns3:atemp>
          </ns3:TrackPointExtension>
        </extensions>
      </trkpt>
      <trkpt lat="42.5643062777817249298095703125" lon="20.0749154202640056610107421875">
        <ele>1956.199951171875</ele>
        <time>2026-06-15T10:50:13.000Z</time>
        <extensions>
          <ns3:TrackPointExtension>
            <ns3:atemp>16.0</ns3:atemp>
          </ns3:TrackPointExtension>
        </extensions>
      </trkpt>
      <trkpt lat="42.564278282225131988525390625" lon="20.0749060325324535369873046875">
        <ele>1956.4000244140625</ele>
        <time>2026-06-15T10:50:14.000Z</time>
        <extensions>
          <ns3:TrackPointExtension>
            <ns3:atemp>16.0</ns3:atemp>
          </ns3:TrackPointExtension>
        </extensions>
      </trkpt>
      <trkpt lat="42.56425422616302967071533203125" lon="20.0749030150473117828369140625">
        <ele>1956.5999755859375</ele>
        <time>2026-06-15T10:50:15.000Z</time>
        <extensions>
          <ns3:TrackPointExtension>
            <ns3:atemp>16.0</ns3:atemp>
          </ns3:TrackPointExtension>
        </extensions>
      </trkpt>
      <trkpt lat="42.56423025391995906829833984375" lon="20.07489941082894802093505859375">
        <ele>1956.800048828125</ele>
        <time>2026-06-15T10:50:16.000Z</time>
        <extensions>
          <ns3:TrackPointExtension>
            <ns3:atemp>16.0</ns3:atemp>
          </ns3:TrackPointExtension>
        </extensions>
      </trkpt>
      <trkpt lat="42.564205192029476165771484375" lon="20.07488901726901531219482421875">
        <ele>1957.199951171875</ele>
        <time>2026-06-15T10:50:17.000Z</time>
        <extensions>
          <ns3:TrackPointExtension>
            <ns3:atemp>16.0</ns3:atemp>
          </ns3:TrackPointExtension>
        </extensions>
      </trkpt>
      <trkpt lat="42.56418549455702304840087890625" lon="20.074877701699733734130859375">
        <ele>1957.4000244140625</ele>
        <time>2026-06-15T10:50:18.000Z</time>
        <extensions>
          <ns3:TrackPointExtension>
            <ns3:atemp>16.0</ns3:atemp>
          </ns3:TrackPointExtension>
        </extensions>
      </trkpt>
      <trkpt lat="42.56416730582714080810546875" lon="20.07486303336918354034423828125">
        <ele>1957.800048828125</ele>
        <time>2026-06-15T10:50:19.000Z</time>
        <extensions>
          <ns3:TrackPointExtension>
            <ns3:atemp>16.0</ns3:atemp>
          </ns3:TrackPointExtension>
        </extensions>
      </trkpt>
      <trkpt lat="42.564146853983402252197265625" lon="20.07484383881092071533203125">
        <ele>1958</ele>
        <time>2026-06-15T10:50:20.000Z</time>
        <extensions>
          <ns3:TrackPointExtension>
            <ns3:atemp>16.0</ns3:atemp>
          </ns3:TrackPointExtension>
        </extensions>
      </trkpt>
      <trkpt lat="42.56412715651094913482666015625" lon="20.074820034205913543701171875">
        <ele>1958.199951171875</ele>
        <time>2026-06-15T10:50:21.000Z</time>
        <extensions>
          <ns3:TrackPointExtension>
            <ns3:atemp>16.0</ns3:atemp>
          </ns3:TrackPointExtension>
        </extensions>
      </trkpt>
      <trkpt lat="42.56411156617105007171630859375" lon="20.07479698397219181060791015625">
        <ele>1958.4000244140625</ele>
        <time>2026-06-15T10:50:22.000Z</time>
        <extensions>
          <ns3:TrackPointExtension>
            <ns3:atemp>16.0</ns3:atemp>
          </ns3:TrackPointExtension>
        </extensions>
      </trkpt>
      <trkpt lat="42.5640943832695484161376953125" lon="20.07477468810975551605224609375">
        <ele>1959</ele>
        <time>2026-06-15T10:50:23.000Z</time>
        <extensions>
          <ns3:TrackPointExtension>
            <ns3:atemp>16.0</ns3:atemp>
          </ns3:TrackPointExtension>
        </extensions>
      </trkpt>
      <trkpt lat="42.56407384760677814483642578125" lon="20.0747581757605075836181640625">
        <ele>1959.199951171875</ele>
        <time>2026-06-15T10:50:24.000Z</time>
        <extensions>
          <ns3:TrackPointExtension>
            <ns3:atemp>16.0</ns3:atemp>
          </ns3:TrackPointExtension>
        </extensions>
      </trkpt>
      <trkpt lat="42.56405456922948360443115234375" lon="20.07474401034414768218994140625">
        <ele>1959.5999755859375</ele>
        <time>2026-06-15T10:50:25.000Z</time>
        <extensions>
          <ns3:TrackPointExtension>
            <ns3:atemp>16.0</ns3:atemp>
          </ns3:TrackPointExtension>
        </extensions>
      </trkpt>
      <trkpt lat="42.56403529085218906402587890625" lon="20.07472523488104343414306640625">
        <ele>1960.199951171875</ele>
        <time>2026-06-15T10:50:26.000Z</time>
        <extensions>
          <ns3:TrackPointExtension>
            <ns3:atemp>16.0</ns3:atemp>
          </ns3:TrackPointExtension>
        </extensions>
      </trkpt>
      <trkpt lat="42.5640164315700531005859375" lon="20.07470947690308094024658203125">
        <ele>1960.5999755859375</ele>
        <time>2026-06-15T10:50:27.000Z</time>
        <extensions>
          <ns3:TrackPointExtension>
            <ns3:atemp>16.0</ns3:atemp>
          </ns3:TrackPointExtension>
        </extensions>
      </trkpt>
      <trkpt lat="42.56400058977305889129638671875" lon="20.07469086907804012298583984375">
        <ele>1961</ele>
        <time>2026-06-15T10:50:28.000Z</time>
        <extensions>
          <ns3:TrackPointExtension>
            <ns3:atemp>16.0</ns3:atemp>
          </ns3:TrackPointExtension>
        </extensions>
      </trkpt>
      <trkpt lat="42.563987933099269866943359375" lon="20.0746716745197772979736328125">
        <ele>1961.4000244140625</ele>
        <time>2026-06-15T10:50:29.000Z</time>
        <extensions>
          <ns3:TrackPointExtension>
            <ns3:atemp>16.0</ns3:atemp>
          </ns3:TrackPointExtension>
        </extensions>
      </trkpt>
      <trkpt lat="42.56397284567356109619140625" lon="20.0746502168476581573486328125">
        <ele>1961.800048828125</ele>
        <time>2026-06-15T10:50:30.000Z</time>
        <extensions>
          <ns3:TrackPointExtension>
            <ns3:atemp>16.0</ns3:atemp>
          </ns3:TrackPointExtension>
        </extensions>
      </trkpt>
      <trkpt lat="42.5639601051807403564453125" lon="20.074625909328460693359375">
        <ele>1962</ele>
        <time>2026-06-15T10:50:31.000Z</time>
        <extensions>
          <ns3:TrackPointExtension>
            <ns3:atemp>16.0</ns3:atemp>
          </ns3:TrackPointExtension>
        </extensions>
      </trkpt>
      <trkpt lat="42.5639495439827442169189453125" lon="20.0745995901525020599365234375">
        <ele>1962.4000244140625</ele>
        <time>2026-06-15T10:50:32.000Z</time>
        <extensions>
          <ns3:TrackPointExtension>
            <ns3:atemp>16.0</ns3:atemp>
          </ns3:TrackPointExtension>
        </extensions>
      </trkpt>
      <trkpt lat="42.56393554620444774627685546875" lon="20.07457704283297061920166015625">
        <ele>1962.800048828125</ele>
        <time>2026-06-15T10:50:33.000Z</time>
        <extensions>
          <ns3:TrackPointExtension>
            <ns3:atemp>16.0</ns3:atemp>
          </ns3:TrackPointExtension>
        </extensions>
      </trkpt>
      <trkpt lat="42.56391727365553379058837890625" lon="20.0745533220469951629638671875">
        <ele>1963</ele>
        <time>2026-06-15T10:50:34.000Z</time>
        <extensions>
          <ns3:TrackPointExtension>
            <ns3:atemp>16.0</ns3:atemp>
          </ns3:TrackPointExtension>
        </extensions>
      </trkpt>
      <trkpt lat="42.5638997554779052734375" lon="20.07453295402228832244873046875">
        <ele>1963.4000244140625</ele>
        <time>2026-06-15T10:50:35.000Z</time>
        <extensions>
          <ns3:TrackPointExtension>
            <ns3:atemp>16.0</ns3:atemp>
          </ns3:TrackPointExtension>
        </extensions>
      </trkpt>
      <trkpt lat="42.56387989036738872528076171875" lon="20.07451501674950122833251953125">
        <ele>1963.5999755859375</ele>
        <time>2026-06-15T10:50:36.000Z</time>
        <extensions>
          <ns3:TrackPointExtension>
            <ns3:atemp>16.0</ns3:atemp>
          </ns3:TrackPointExtension>
        </extensions>
      </trkpt>
      <trkpt lat="42.563862539827823638916015625" lon="20.07450311444699764251708984375">
        <ele>1964</ele>
        <time>2026-06-15T10:50:37.000Z</time>
        <extensions>
          <ns3:TrackPointExtension>
            <ns3:atemp>16.0</ns3:atemp>
          </ns3:TrackPointExtension>
        </extensions>
      </trkpt>
      <trkpt lat="42.5638446025550365447998046875" lon="20.07448182441294193267822265625">
        <ele>1964.4000244140625</ele>
        <time>2026-06-15T10:50:38.000Z</time>
        <extensions>
          <ns3:TrackPointExtension>
            <ns3:atemp>16.0</ns3:atemp>
          </ns3:TrackPointExtension>
        </extensions>
      </trkpt>
      <trkpt lat="42.56382775492966175079345703125" lon="20.07445399649441242218017578125">
        <ele>1964.5999755859375</ele>
        <time>2026-06-15T10:50:39.000Z</time>
        <extensions>
          <ns3:TrackPointExtension>
            <ns3:atemp>16.0</ns3:atemp>
          </ns3:TrackPointExtension>
        </extensions>
      </trkpt>
      <trkpt lat="42.563809566199779510498046875" lon="20.07443103007972240447998046875">
        <ele>1965</ele>
        <time>2026-06-15T10:50:40.000Z</time>
        <extensions>
          <ns3:TrackPointExtension>
            <ns3:atemp>16.0</ns3:atemp>
          </ns3:TrackPointExtension>
        </extensions>
      </trkpt>
      <trkpt lat="42.56379003636538982391357421875" lon="20.0744118355214595794677734375">
        <ele>1965.199951171875</ele>
        <time>2026-06-15T10:50:41.000Z</time>
        <extensions>
          <ns3:TrackPointExtension>
            <ns3:atemp>16.0</ns3:atemp>
          </ns3:TrackPointExtension>
        </extensions>
      </trkpt>
      <trkpt lat="42.56377159617841243743896484375" lon="20.074396915733814239501953125">
        <ele>1965.4000244140625</ele>
        <time>2026-06-15T10:50:42.000Z</time>
        <extensions>
          <ns3:TrackPointExtension>
            <ns3:atemp>16.0</ns3:atemp>
          </ns3:TrackPointExtension>
        </extensions>
      </trkpt>
      <trkpt lat="42.56375114433467388153076171875" lon="20.07438342086970806121826171875">
        <ele>1965.800048828125</ele>
        <time>2026-06-15T10:50:43.000Z</time>
        <extensions>
          <ns3:TrackPointExtension>
            <ns3:atemp>16.0</ns3:atemp>
          </ns3:TrackPointExtension>
        </extensions>
      </trkpt>
      <trkpt lat="42.5637332908809185028076171875" lon="20.074367411434650421142578125">
        <ele>1966</ele>
        <time>2026-06-15T10:50:44.000Z</time>
        <extensions>
          <ns3:TrackPointExtension>
            <ns3:atemp>16.0</ns3:atemp>
          </ns3:TrackPointExtension>
        </extensions>
      </trkpt>
      <trkpt lat="42.56371728144586086273193359375" lon="20.07434763014316558837890625">
        <ele>1966.4000244140625</ele>
        <time>2026-06-15T10:50:45.000Z</time>
        <extensions>
          <ns3:TrackPointExtension>
            <ns3:atemp>16.0</ns3:atemp>
          </ns3:TrackPointExtension>
        </extensions>
      </trkpt>
      <trkpt lat="42.56370060145854949951171875" lon="20.07433354854583740234375">
        <ele>1966.5999755859375</ele>
        <time>2026-06-15T10:50:46.000Z</time>
        <extensions>
          <ns3:TrackPointExtension>
            <ns3:atemp>16.0</ns3:atemp>
          </ns3:TrackPointExtension>
        </extensions>
      </trkpt>
      <trkpt lat="42.5636826641857624053955078125" lon="20.07432340644299983978271484375">
        <ele>1967</ele>
        <time>2026-06-15T10:50:47.000Z</time>
        <extensions>
          <ns3:TrackPointExtension>
            <ns3:atemp>16.0</ns3:atemp>
          </ns3:TrackPointExtension>
        </extensions>
      </trkpt>
      <trkpt lat="42.5636645592749118804931640625" lon="20.07431368343532085418701171875">
        <ele>1967.4000244140625</ele>
        <time>2026-06-15T10:50:48.000Z</time>
        <extensions>
          <ns3:TrackPointExtension>
            <ns3:atemp>16.0</ns3:atemp>
          </ns3:TrackPointExtension>
        </extensions>
      </trkpt>
      <trkpt lat="42.56364704109728336334228515625" lon="20.0743011943995952606201171875">
        <ele>1967.5999755859375</ele>
        <time>2026-06-15T10:50:49.000Z</time>
        <extensions>
          <ns3:TrackPointExtension>
            <ns3:atemp>16.0</ns3:atemp>
          </ns3:TrackPointExtension>
        </extensions>
      </trkpt>
      <trkpt lat="42.56362943910062313079833984375" lon="20.07428593933582305908203125">
        <ele>1968</ele>
        <time>2026-06-15T10:50:50.000Z</time>
        <extensions>
          <ns3:TrackPointExtension>
            <ns3:atemp>16.0</ns3:atemp>
          </ns3:TrackPointExtension>
        </extensions>
      </trkpt>
      <trkpt lat="42.56361451931297779083251953125" lon="20.07426640950143337249755859375">
        <ele>1968.4000244140625</ele>
        <time>2026-06-15T10:50:51.000Z</time>
        <extensions>
          <ns3:TrackPointExtension>
            <ns3:atemp>16.0</ns3:atemp>
          </ns3:TrackPointExtension>
        </extensions>
      </trkpt>
      <trkpt lat="42.56359708495438098907470703125" lon="20.0742509029805660247802734375">
        <ele>1968.5999755859375</ele>
        <time>2026-06-15T10:50:52.000Z</time>
        <extensions>
          <ns3:TrackPointExtension>
            <ns3:atemp>16.0</ns3:atemp>
          </ns3:TrackPointExtension>
        </extensions>
      </trkpt>
      <trkpt lat="42.56358132697641849517822265625" lon="20.074232630431652069091796875">
        <ele>1969</ele>
        <time>2026-06-15T10:50:53.000Z</time>
        <extensions>
          <ns3:TrackPointExtension>
            <ns3:atemp>16.0</ns3:atemp>
          </ns3:TrackPointExtension>
        </extensions>
      </trkpt>
      <trkpt lat="42.56357009522616863250732421875" lon="20.07421930320560932159423828125">
        <ele>1969.199951171875</ele>
        <time>2026-06-15T10:50:54.000Z</time>
        <extensions>
          <ns3:TrackPointExtension>
            <ns3:atemp>16.0</ns3:atemp>
          </ns3:TrackPointExtension>
        </extensions>
      </trkpt>
      <trkpt lat="42.56355978548526763916015625" lon="20.07420890964567661285400390625">
        <ele>1969.5999755859375</ele>
        <time>2026-06-15T10:50:55.000Z</time>
        <extensions>
          <ns3:TrackPointExtension>
            <ns3:atemp>16.0</ns3:atemp>
          </ns3:TrackPointExtension>
        </extensions>
      </trkpt>
      <trkpt lat="42.56354696117341518402099609375" lon="20.0741985999047756195068359375">
        <ele>1969.800048828125</ele>
        <time>2026-06-15T10:50:56.000Z</time>
        <extensions>
          <ns3:TrackPointExtension>
            <ns3:atemp>16.0</ns3:atemp>
          </ns3:TrackPointExtension>
        </extensions>
      </trkpt>
      <trkpt lat="42.56353355012834072113037109375" lon="20.07419616915285587310791015625">
        <ele>1970.199951171875</ele>
        <time>2026-06-15T10:50:57.000Z</time>
        <extensions>
          <ns3:TrackPointExtension>
            <ns3:atemp>16.0</ns3:atemp>
          </ns3:TrackPointExtension>
        </extensions>
      </trkpt>
      <trkpt lat="42.563516199588775634765625" lon="20.0741979293525218963623046875">
        <ele>1970.4000244140625</ele>
        <time>2026-06-15T10:50:58.000Z</time>
        <extensions>
          <ns3:TrackPointExtension>
            <ns3:atemp>16.0</ns3:atemp>
          </ns3:TrackPointExtension>
        </extensions>
      </trkpt>
      <trkpt lat="42.56349742412567138671875" lon="20.0742029584944248199462890625">
        <ele>1970.800048828125</ele>
        <time>2026-06-15T10:50:59.000Z</time>
        <extensions>
          <ns3:TrackPointExtension>
            <ns3:atemp>16.0</ns3:atemp>
          </ns3:TrackPointExtension>
        </extensions>
      </trkpt>
      <trkpt lat="42.56347806192934513092041015625" lon="20.07421544753015041351318359375">
        <ele>1971</ele>
        <time>2026-06-15T10:51:00.000Z</time>
        <extensions>
          <ns3:TrackPointExtension>
            <ns3:atemp>16.0</ns3:atemp>
          </ns3:TrackPointExtension>
        </extensions>
      </trkpt>
      <trkpt lat="42.56346649490296840667724609375" lon="20.07422902621328830718994140625">
        <ele>1971.4000244140625</ele>
        <time>2026-06-15T10:51:01.000Z</time>
        <extensions>
          <ns3:TrackPointExtension>
            <ns3:atemp>16.0</ns3:atemp>
          </ns3:TrackPointExtension>
        </extensions>
      </trkpt>
      <trkpt lat="42.56345375441014766693115234375" lon="20.07424511946737766265869140625">
        <ele>1971.800048828125</ele>
        <time>2026-06-15T10:51:02.000Z</time>
        <extensions>
          <ns3:TrackPointExtension>
            <ns3:atemp>16.0</ns3:atemp>
          </ns3:TrackPointExtension>
        </extensions>
      </trkpt>
      <trkpt lat="42.56344671361148357391357421875" lon="20.0742566026747226715087890625">
        <ele>1972.199951171875</ele>
        <time>2026-06-15T10:51:03.000Z</time>
        <extensions>
          <ns3:TrackPointExtension>
            <ns3:atemp>16.0</ns3:atemp>
          </ns3:TrackPointExtension>
        </extensions>
      </trkpt>
      <trkpt lat="42.56344000808894634246826171875" lon="20.07427655160427093505859375">
        <ele>1972.5999755859375</ele>
        <time>2026-06-15T10:51:04.000Z</time>
        <extensions>
          <ns3:TrackPointExtension>
            <ns3:atemp>16.0</ns3:atemp>
          </ns3:TrackPointExtension>
        </extensions>
      </trkpt>
      <trkpt lat="42.56343330256640911102294921875" lon="20.07429641671478748321533203125">
        <ele>1973</ele>
        <time>2026-06-15T10:51:05.000Z</time>
        <extensions>
          <ns3:TrackPointExtension>
            <ns3:atemp>16.0</ns3:atemp>
          </ns3:TrackPointExtension>
        </extensions>
      </trkpt>
      <trkpt lat="42.56342961452901363372802734375" lon="20.0743263401091098785400390625">
        <ele>1973.4000244140625</ele>
        <time>2026-06-15T10:51:06.000Z</time>
        <extensions>
          <ns3:TrackPointExtension>
            <ns3:atemp>16.0</ns3:atemp>
          </ns3:TrackPointExtension>
        </extensions>
      </trkpt>
      <trkpt lat="42.56342726759612560272216796875" lon="20.07435307838022708892822265625">
        <ele>1973.800048828125</ele>
        <time>2026-06-15T10:51:07.000Z</time>
        <extensions>
          <ns3:TrackPointExtension>
            <ns3:atemp>16.0</ns3:atemp>
          </ns3:TrackPointExtension>
        </extensions>
      </trkpt>
      <trkpt lat="42.56342022679746150970458984375" lon="20.07437420077621936798095703125">
        <ele>1974</ele>
        <time>2026-06-15T10:51:08.000Z</time>
        <extensions>
          <ns3:TrackPointExtension>
            <ns3:atemp>16.0</ns3:atemp>
          </ns3:TrackPointExtension>
        </extensions>
      </trkpt>
      <trkpt lat="42.563409917056560516357421875" lon="20.074380822479724884033203125">
        <ele>1974.199951171875</ele>
        <time>2026-06-15T10:51:09.000Z</time>
        <extensions>
          <ns3:TrackPointExtension>
            <ns3:atemp>16.0</ns3:atemp>
          </ns3:TrackPointExtension>
        </extensions>
      </trkpt>
      <trkpt lat="42.56339776329696178436279296875" lon="20.07439096458256244659423828125">
        <ele>1974.5999755859375</ele>
        <time>2026-06-15T10:51:10.000Z</time>
        <extensions>
          <ns3:TrackPointExtension>
            <ns3:atemp>16.0</ns3:atemp>
          </ns3:TrackPointExtension>
        </extensions>
      </trkpt>
      <trkpt lat="42.5633822567760944366455078125" lon="20.07439632900059223175048828125">
        <ele>1974.800048828125</ele>
        <time>2026-06-15T10:51:11.000Z</time>
        <extensions>
          <ns3:TrackPointExtension>
            <ns3:atemp>16.0</ns3:atemp>
          </ns3:TrackPointExtension>
        </extensions>
      </trkpt>
      <trkpt lat="42.563363648951053619384765625" lon="20.07439331151545047760009765625">
        <ele>1975</ele>
        <time>2026-06-15T10:51:12.000Z</time>
        <extensions>
          <ns3:TrackPointExtension>
            <ns3:atemp>16.0</ns3:atemp>
          </ns3:TrackPointExtension>
        </extensions>
      </trkpt>
      <trkpt lat="42.56334696896374225616455078125" lon="20.074388198554515838623046875">
        <ele>1975.199951171875</ele>
        <time>2026-06-15T10:51:13.000Z</time>
        <extensions>
          <ns3:TrackPointExtension>
            <ns3:atemp>16.0</ns3:atemp>
          </ns3:TrackPointExtension>
        </extensions>
      </trkpt>
      <trkpt lat="42.563334815204143524169921875" lon="20.07438610307872295379638671875">
        <ele>1975.199951171875</ele>
        <time>2026-06-15T10:51:14.000Z</time>
        <extensions>
          <ns3:TrackPointExtension>
            <ns3:atemp>16.0</ns3:atemp>
          </ns3:TrackPointExtension>
        </extensions>
      </trkpt>
      <trkpt lat="42.56332886405289173126220703125" lon="20.074378140270709991455078125">
        <ele>1975.4000244140625</ele>
        <time>2026-06-15T10:51:15.000Z</time>
        <extensions>
          <ns3:TrackPointExtension>
            <ns3:atemp>16.0</ns3:atemp>
          </ns3:TrackPointExtension>
        </extensions>
      </trkpt>
      <trkpt lat="42.56332852877676486968994140625" lon="20.0743732787668704986572265625">
        <ele>1975.4000244140625</ele>
        <time>2026-06-15T10:51:16.000Z</time>
        <extensions>
          <ns3:TrackPointExtension>
            <ns3:atemp>16.0</ns3:atemp>
          </ns3:TrackPointExtension>
        </extensions>
      </trkpt>
      <trkpt lat="42.5633286125957965850830078125" lon="20.0743732787668704986572265625">
        <ele>1975.800048828125</ele>
        <time>2026-06-15T10:51:17.000Z</time>
        <extensions>
          <ns3:TrackPointExtension>
            <ns3:atemp>16.0</ns3:atemp>
          </ns3:TrackPointExtension>
        </extensions>
      </trkpt>
      <trkpt lat="42.5633286125957965850830078125" lon="20.0743732787668704986572265625">
        <ele>1976</ele>
        <time>2026-06-15T10:51:18.000Z</time>
        <extensions>
          <ns3:TrackPointExtension>
            <ns3:atemp>16.0</ns3:atemp>
          </ns3:TrackPointExtension>
        </extensions>
      </trkpt>
      <trkpt lat="42.5633286125957965850830078125" lon="20.0743732787668704986572265625">
        <ele>1976</ele>
        <time>2026-06-15T10:51:19.000Z</time>
        <extensions>
          <ns3:TrackPointExtension>
            <ns3:atemp>16.0</ns3:atemp>
          </ns3:TrackPointExtension>
        </extensions>
      </trkpt>
      <trkpt lat="42.5633286125957965850830078125" lon="20.0743732787668704986572265625">
        <ele>1976.199951171875</ele>
        <time>2026-06-15T10:51:20.000Z</time>
        <extensions>
          <ns3:TrackPointExtension>
            <ns3:atemp>16.0</ns3:atemp>
          </ns3:TrackPointExtension>
        </extensions>
      </trkpt>
      <trkpt lat="42.5633286125957965850830078125" lon="20.0743732787668704986572265625">
        <ele>1976.199951171875</ele>
        <time>2026-06-15T10:51:21.000Z</time>
        <extensions>
          <ns3:TrackPointExtension>
            <ns3:atemp>16.0</ns3:atemp>
          </ns3:TrackPointExtension>
        </extensions>
      </trkpt>
      <trkpt lat="42.5633286125957965850830078125" lon="20.0743732787668704986572265625">
        <ele>1976.199951171875</ele>
        <time>2026-06-15T10:51:22.000Z</time>
        <extensions>
          <ns3:TrackPointExtension>
            <ns3:atemp>16.0</ns3:atemp>
          </ns3:TrackPointExtension>
        </extensions>
      </trkpt>
      <trkpt lat="42.563329450786113739013671875" lon="20.07437369786202907562255859375">
        <ele>1976</ele>
        <time>2026-06-15T10:51:23.000Z</time>
        <extensions>
          <ns3:TrackPointExtension>
            <ns3:atemp>16.0</ns3:atemp>
          </ns3:TrackPointExtension>
        </extensions>
      </trkpt>
      <trkpt lat="42.56333439610898494720458984375" lon="20.0743823312222957611083984375">
        <ele>1976</ele>
        <time>2026-06-15T10:51:24.000Z</time>
        <extensions>
          <ns3:TrackPointExtension>
            <ns3:atemp>16.0</ns3:atemp>
          </ns3:TrackPointExtension>
        </extensions>
      </trkpt>
      <trkpt lat="42.563326098024845123291015625" lon="20.07437503896653652191162109375">
        <ele>1976</ele>
        <time>2026-06-15T10:51:25.000Z</time>
        <extensions>
          <ns3:TrackPointExtension>
            <ns3:atemp>16.0</ns3:atemp>
          </ns3:TrackPointExtension>
        </extensions>
      </trkpt>
      <trkpt lat="42.563318721950054168701171875" lon="20.074371434748172760009765625">
        <ele>1976</ele>
        <time>2026-06-15T10:51:26.000Z</time>
        <extensions>
          <ns3:TrackPointExtension>
            <ns3:atemp>16.0</ns3:atemp>
          </ns3:TrackPointExtension>
        </extensions>
      </trkpt>
      <trkpt lat="42.56331436336040496826171875" lon="20.074370764195919036865234375">
        <ele>1976</ele>
        <time>2026-06-15T10:51:27.000Z</time>
        <extensions>
          <ns3:TrackPointExtension>
            <ns3:atemp>16.0</ns3:atemp>
          </ns3:TrackPointExtension>
        </extensions>
      </trkpt>
      <trkpt lat="42.56331025622785091400146484375" lon="20.0743697583675384521484375">
        <ele>1976.199951171875</ele>
        <time>2026-06-15T10:51:28.000Z</time>
        <extensions>
          <ns3:TrackPointExtension>
            <ns3:atemp>16.0</ns3:atemp>
          </ns3:TrackPointExtension>
        </extensions>
      </trkpt>
      <trkpt lat="42.5633061490952968597412109375" lon="20.074366740882396697998046875">
        <ele>1976.4000244140625</ele>
        <time>2026-06-15T10:51:29.000Z</time>
        <extensions>
          <ns3:TrackPointExtension>
            <ns3:atemp>16.0</ns3:atemp>
          </ns3:TrackPointExtension>
        </extensions>
      </trkpt>
      <trkpt lat="42.563303969800472259521484375" lon="20.0743575207889080047607421875">
        <ele>1976.5999755859375</ele>
        <time>2026-06-15T10:51:30.000Z</time>
        <extensions>
          <ns3:TrackPointExtension>
            <ns3:atemp>16.0</ns3:atemp>
          </ns3:TrackPointExtension>
        </extensions>
      </trkpt>
      <trkpt lat="42.56330229341983795166015625" lon="20.074339918792247772216796875">
        <ele>1976.800048828125</ele>
        <time>2026-06-15T10:51:31.000Z</time>
        <extensions>
          <ns3:TrackPointExtension>
            <ns3:atemp>16.0</ns3:atemp>
          </ns3:TrackPointExtension>
        </extensions>
      </trkpt>
      <trkpt lat="42.56329852156341075897216796875" lon="20.0743189640343189239501953125">
        <ele>1976.800048828125</ele>
        <time>2026-06-15T10:51:32.000Z</time>
        <extensions>
          <ns3:TrackPointExtension>
            <ns3:atemp>16.0</ns3:atemp>
          </ns3:TrackPointExtension>
        </extensions>
      </trkpt>
      <trkpt lat="42.563289888203144073486328125" lon="20.07430898956954479217529296875">
        <ele>1976.800048828125</ele>
        <time>2026-06-15T10:51:33.000Z</time>
        <extensions>
          <ns3:TrackPointExtension>
            <ns3:atemp>16.0</ns3:atemp>
          </ns3:TrackPointExtension>
        </extensions>
      </trkpt>
      <trkpt lat="42.563274800777435302734375" lon="20.07430613972246646881103515625">
        <ele>1977</ele>
        <time>2026-06-15T10:51:34.000Z</time>
        <extensions>
          <ns3:TrackPointExtension>
            <ns3:atemp>16.0</ns3:atemp>
          </ns3:TrackPointExtension>
        </extensions>
      </trkpt>
      <trkpt lat="42.56325677968561649322509765625" lon="20.07430446334183216094970703125">
        <ele>1977</ele>
        <time>2026-06-15T10:51:35.000Z</time>
        <extensions>
          <ns3:TrackPointExtension>
            <ns3:atemp>16.0</ns3:atemp>
          </ns3:TrackPointExtension>
        </extensions>
      </trkpt>
      <trkpt lat="42.56323733367025852203369140625" lon="20.0742981769144535064697265625">
        <ele>1977</ele>
        <time>2026-06-15T10:51:36.000Z</time>
        <extensions>
          <ns3:TrackPointExtension>
            <ns3:atemp>16.0</ns3:atemp>
          </ns3:TrackPointExtension>
        </extensions>
      </trkpt>
      <trkpt lat="42.56321704946458339691162109375" lon="20.07428535260260105133056640625">
        <ele>1977.199951171875</ele>
        <time>2026-06-15T10:51:37.000Z</time>
        <extensions>
          <ns3:TrackPointExtension>
            <ns3:atemp>16.0</ns3:atemp>
          </ns3:TrackPointExtension>
        </extensions>
      </trkpt>
      <trkpt lat="42.5631955079734325408935546875" lon="20.07426708005368709564208984375">
        <ele>1977.4000244140625</ele>
        <time>2026-06-15T10:51:38.000Z</time>
        <extensions>
          <ns3:TrackPointExtension>
            <ns3:atemp>16.0</ns3:atemp>
          </ns3:TrackPointExtension>
        </extensions>
      </trkpt>
      <trkpt lat="42.56317312829196453094482421875" lon="20.07424662820994853973388671875">
        <ele>1977.5999755859375</ele>
        <time>2026-06-15T10:51:39.000Z</time>
        <extensions>
          <ns3:TrackPointExtension>
            <ns3:atemp>16.0</ns3:atemp>
          </ns3:TrackPointExtension>
        </extensions>
      </trkpt>
      <trkpt lat="42.5631535984575748443603515625" lon="20.07422634400427341461181640625">
        <ele>1977.800048828125</ele>
        <time>2026-06-15T10:51:40.000Z</time>
        <extensions>
          <ns3:TrackPointExtension>
            <ns3:atemp>16.0</ns3:atemp>
          </ns3:TrackPointExtension>
        </extensions>
      </trkpt>
      <trkpt lat="42.563133649528026580810546875" lon="20.074206478893756866455078125">
        <ele>1978</ele>
        <time>2026-06-15T10:51:41.000Z</time>
        <extensions>
          <ns3:TrackPointExtension>
            <ns3:atemp>16.0</ns3:atemp>
          </ns3:TrackPointExtension>
        </extensions>
      </trkpt>
      <trkpt lat="42.56311093457043170928955078125" lon="20.0741825066506862640380859375">
        <ele>1978.199951171875</ele>
        <time>2026-06-15T10:51:42.000Z</time>
        <extensions>
          <ns3:TrackPointExtension>
            <ns3:atemp>16.0</ns3:atemp>
          </ns3:TrackPointExtension>
        </extensions>
      </trkpt>
      <trkpt lat="42.56308679468929767608642578125" lon="20.07415828295052051544189453125">
        <ele>1978.4000244140625</ele>
        <time>2026-06-15T10:51:43.000Z</time>
        <extensions>
          <ns3:TrackPointExtension>
            <ns3:atemp>16.0</ns3:atemp>
          </ns3:TrackPointExtension>
        </extensions>
      </trkpt>
      <trkpt lat="42.56306399591267108917236328125" lon="20.07413028739392757415771484375">
        <ele>1978.5999755859375</ele>
        <time>2026-06-15T10:51:44.000Z</time>
        <extensions>
          <ns3:TrackPointExtension>
            <ns3:atemp>16.0</ns3:atemp>
          </ns3:TrackPointExtension>
        </extensions>
      </trkpt>
      <trkpt lat="42.56303600035607814788818359375" lon="20.0741087459027767181396484375">
        <ele>1978.5999755859375</ele>
        <time>2026-06-15T10:51:45.000Z</time>
        <extensions>
          <ns3:TrackPointExtension>
            <ns3:atemp>16.0</ns3:atemp>
          </ns3:TrackPointExtension>
        </extensions>
      </trkpt>
      <trkpt lat="42.5630094297230243682861328125" lon="20.074089467525482177734375">
        <ele>1978.800048828125</ele>
        <time>2026-06-15T10:51:46.000Z</time>
        <extensions>
          <ns3:TrackPointExtension>
            <ns3:atemp>16.0</ns3:atemp>
          </ns3:TrackPointExtension>
        </extensions>
      </trkpt>
      <trkpt lat="42.562978751957416534423828125" lon="20.07406775839626789093017578125">
        <ele>1979</ele>
        <time>2026-06-15T10:51:47.000Z</time>
        <extensions>
          <ns3:TrackPointExtension>
            <ns3:atemp>16.0</ns3:atemp>
          </ns3:TrackPointExtension>
        </extensions>
      </trkpt>
      <trkpt lat="42.56294824182987213134765625" lon="20.07404747419059276580810546875">
        <ele>1979.199951171875</ele>
        <time>2026-06-15T10:51:48.000Z</time>
        <extensions>
          <ns3:TrackPointExtension>
            <ns3:atemp>16.0</ns3:atemp>
          </ns3:TrackPointExtension>
        </extensions>
      </trkpt>
      <trkpt lat="42.5629232637584209442138671875" lon="20.0740269385278224945068359375">
        <ele>1979.4000244140625</ele>
        <time>2026-06-15T10:51:49.000Z</time>
        <extensions>
          <ns3:TrackPointExtension>
            <ns3:atemp>16.0</ns3:atemp>
          </ns3:TrackPointExtension>
        </extensions>
      </trkpt>
      <trkpt lat="42.56289987824857234954833984375" lon="20.07401159964501857757568359375">
        <ele>1979.5999755859375</ele>
        <time>2026-06-15T10:51:50.000Z</time>
        <extensions>
          <ns3:TrackPointExtension>
            <ns3:atemp>16.0</ns3:atemp>
          </ns3:TrackPointExtension>
        </extensions>
      </trkpt>
      <trkpt lat="42.5628749839961528778076171875" lon="20.07399936206638813018798828125">
        <ele>1979.800048828125</ele>
        <time>2026-06-15T10:51:51.000Z</time>
        <extensions>
          <ns3:TrackPointExtension>
            <ns3:atemp>16.0</ns3:atemp>
          </ns3:TrackPointExtension>
        </extensions>
      </trkpt>
      <trkpt lat="42.56285008974373340606689453125" lon="20.073987878859043121337890625">
        <ele>1980.199951171875</ele>
        <time>2026-06-15T10:51:52.000Z</time>
        <extensions>
          <ns3:TrackPointExtension>
            <ns3:atemp>16.0</ns3:atemp>
          </ns3:TrackPointExtension>
        </extensions>
      </trkpt>
      <trkpt lat="42.56282444112002849578857421875" lon="20.07397606037557125091552734375">
        <ele>1980.4000244140625</ele>
        <time>2026-06-15T10:51:53.000Z</time>
        <extensions>
          <ns3:TrackPointExtension>
            <ns3:atemp>16.0</ns3:atemp>
          </ns3:TrackPointExtension>
        </extensions>
      </trkpt>
      <trkpt lat="42.56279896013438701629638671875" lon="20.07396382279694080352783203125">
        <ele>1980.800048828125</ele>
        <time>2026-06-15T10:51:54.000Z</time>
        <extensions>
          <ns3:TrackPointExtension>
            <ns3:atemp>16.0</ns3:atemp>
          </ns3:TrackPointExtension>
        </extensions>
      </trkpt>
      <trkpt lat="42.562771551311016082763671875" lon="20.073953010141849517822265625">
        <ele>1981</ele>
        <time>2026-06-15T10:51:55.000Z</time>
        <extensions>
          <ns3:TrackPointExtension>
            <ns3:atemp>16.0</ns3:atemp>
          </ns3:TrackPointExtension>
        </extensions>
      </trkpt>
      <trkpt lat="42.56274548359215259552001953125" lon="20.073944963514804840087890625">
        <ele>1981.4000244140625</ele>
        <time>2026-06-15T10:51:56.000Z</time>
        <extensions>
          <ns3:TrackPointExtension>
            <ns3:atemp>16.0</ns3:atemp>
          </ns3:TrackPointExtension>
        </extensions>
      </trkpt>
      <trkpt lat="42.56271664984524250030517578125" lon="20.07394169457256793975830078125">
        <ele>1981.800048828125</ele>
        <time>2026-06-15T10:51:57.000Z</time>
        <extensions>
          <ns3:TrackPointExtension>
            <ns3:atemp>16.0</ns3:atemp>
          </ns3:TrackPointExtension>
        </extensions>
      </trkpt>
      <trkpt lat="42.56269267760217189788818359375" lon="20.0739390961825847625732421875">
        <ele>1982.199951171875</ele>
        <time>2026-06-15T10:51:58.000Z</time>
        <extensions>
          <ns3:TrackPointExtension>
            <ns3:atemp>16.0</ns3:atemp>
          </ns3:TrackPointExtension>
        </extensions>
      </trkpt>
      <trkpt lat="42.5626699626445770263671875" lon="20.073931552469730377197265625">
        <ele>1982.5999755859375</ele>
        <time>2026-06-15T10:51:59.000Z</time>
        <extensions>
          <ns3:TrackPointExtension>
            <ns3:atemp>16.0</ns3:atemp>
          </ns3:TrackPointExtension>
        </extensions>
      </trkpt>
      <trkpt lat="42.56264205090701580047607421875" lon="20.0739307142794132232666015625">
        <ele>1983</ele>
        <time>2026-06-15T10:52:00.000Z</time>
        <extensions>
          <ns3:TrackPointExtension>
            <ns3:atemp>16.0</ns3:atemp>
          </ns3:TrackPointExtension>
        </extensions>
      </trkpt>
      <trkpt lat="42.56261690519750118255615234375" lon="20.0739298760890960693359375">
        <ele>1983.4000244140625</ele>
        <time>2026-06-15T10:52:01.000Z</time>
        <extensions>
          <ns3:TrackPointExtension>
            <ns3:atemp>16.0</ns3:atemp>
          </ns3:TrackPointExtension>
        </extensions>
      </trkpt>
      <trkpt lat="42.5625936873257160186767578125" lon="20.07392928935587406158447265625">
        <ele>1983.800048828125</ele>
        <time>2026-06-15T10:52:02.000Z</time>
        <extensions>
          <ns3:TrackPointExtension>
            <ns3:atemp>16.0</ns3:atemp>
          </ns3:TrackPointExtension>
        </extensions>
      </trkpt>
      <trkpt lat="42.562567032873630523681640625" lon="20.07393264211714267730712890625">
        <ele>1984.199951171875</ele>
        <time>2026-06-15T10:52:03.000Z</time>
        <extensions>
          <ns3:TrackPointExtension>
            <ns3:atemp>16.0</ns3:atemp>
          </ns3:TrackPointExtension>
        </extensions>
      </trkpt>
      <trkpt lat="42.562540210783481597900390625" lon="20.07393867708742618560791015625">
        <ele>1984.5999755859375</ele>
        <time>2026-06-15T10:52:04.000Z</time>
        <extensions>
          <ns3:TrackPointExtension>
            <ns3:atemp>16.0</ns3:atemp>
          </ns3:TrackPointExtension>
        </extensions>
      </trkpt>
      <trkpt lat="42.56251481361687183380126953125" lon="20.073942951858043670654296875">
        <ele>1985</ele>
        <time>2026-06-15T10:52:05.000Z</time>
        <extensions>
          <ns3:TrackPointExtension>
            <ns3:atemp>16.0</ns3:atemp>
          </ns3:TrackPointExtension>
        </extensions>
      </trkpt>
      <trkpt lat="42.56249017082154750823974609375" lon="20.07394605316221714019775390625">
        <ele>1985.4000244140625</ele>
        <time>2026-06-15T10:52:06.000Z</time>
        <extensions>
          <ns3:TrackPointExtension>
            <ns3:atemp>16.0</ns3:atemp>
          </ns3:TrackPointExtension>
        </extensions>
      </trkpt>
      <trkpt lat="42.5624699704349040985107421875" lon="20.0739401020109653472900390625">
        <ele>1985.5999755859375</ele>
        <time>2026-06-15T10:52:07.000Z</time>
        <extensions>
          <ns3:TrackPointExtension>
            <ns3:atemp>16.0</ns3:atemp>
          </ns3:TrackPointExtension>
        </extensions>
      </trkpt>
      <trkpt lat="42.56244373507797718048095703125" lon="20.0739354081451892852783203125">
        <ele>1986</ele>
        <time>2026-06-15T10:52:08.000Z</time>
        <extensions>
          <ns3:TrackPointExtension>
            <ns3:atemp>16.0</ns3:atemp>
          </ns3:TrackPointExtension>
        </extensions>
      </trkpt>
      <trkpt lat="42.56241741590201854705810546875" lon="20.0739240087568759918212890625">
        <ele>1986.199951171875</ele>
        <time>2026-06-15T10:52:09.000Z</time>
        <extensions>
          <ns3:TrackPointExtension>
            <ns3:atemp>16.0</ns3:atemp>
          </ns3:TrackPointExtension>
        </extensions>
      </trkpt>
      <trkpt lat="42.56240165792405605316162109375" lon="20.07390263490378856658935546875">
        <ele>1986.5999755859375</ele>
        <time>2026-06-15T10:52:10.000Z</time>
        <extensions>
          <ns3:TrackPointExtension>
            <ns3:atemp>16.0</ns3:atemp>
          </ns3:TrackPointExtension>
        </extensions>
      </trkpt>
      <trkpt lat="42.56239344365894794464111328125" lon="20.07388184778392314910888671875">
        <ele>1986.800048828125</ele>
        <time>2026-06-15T10:52:11.000Z</time>
        <extensions>
          <ns3:TrackPointExtension>
            <ns3:atemp>16.0</ns3:atemp>
          </ns3:TrackPointExtension>
        </extensions>
      </trkpt>
      <trkpt lat="42.56238925270736217498779296875" lon="20.073851756751537322998046875">
        <ele>1987</ele>
        <time>2026-06-15T10:52:12.000Z</time>
        <extensions>
          <ns3:TrackPointExtension>
            <ns3:atemp>16.0</ns3:atemp>
          </ns3:TrackPointExtension>
        </extensions>
      </trkpt>
      <trkpt lat="42.56239168345928192138671875" lon="20.0738170556724071502685546875">
        <ele>1987.199951171875</ele>
        <time>2026-06-15T10:52:13.000Z</time>
        <extensions>
          <ns3:TrackPointExtension>
            <ns3:atemp>16.0</ns3:atemp>
          </ns3:TrackPointExtension>
        </extensions>
      </trkpt>
      <trkpt lat="42.56239981390535831451416015625" lon="20.07379048503935337066650390625">
        <ele>1987.4000244140625</ele>
        <time>2026-06-15T10:52:14.000Z</time>
        <extensions>
          <ns3:TrackPointExtension>
            <ns3:atemp>16.0</ns3:atemp>
          </ns3:TrackPointExtension>
        </extensions>
      </trkpt>
      <trkpt lat="42.56240618415176868438720703125" lon="20.073785372078418731689453125">
        <ele>1987.5999755859375</ele>
        <time>2026-06-15T10:52:15.000Z</time>
        <extensions>
          <ns3:TrackPointExtension>
            <ns3:atemp>16.0</ns3:atemp>
          </ns3:TrackPointExtension>
        </extensions>
      </trkpt>
      <trkpt lat="42.56240484304726123809814453125" lon="20.07377858273684978485107421875">
        <ele>1987.800048828125</ele>
        <time>2026-06-15T10:52:16.000Z</time>
        <extensions>
          <ns3:TrackPointExtension>
            <ns3:atemp>16.0</ns3:atemp>
          </ns3:TrackPointExtension>
        </extensions>
      </trkpt>
      <trkpt lat="42.56240517832338809967041015625" lon="20.07377606816589832305908203125">
        <ele>1988</ele>
        <time>2026-06-15T10:52:17.000Z</time>
        <extensions>
          <ns3:TrackPointExtension>
            <ns3:atemp>16.0</ns3:atemp>
          </ns3:TrackPointExtension>
        </extensions>
      </trkpt>
      <trkpt lat="42.56240517832338809967041015625" lon="20.07377606816589832305908203125">
        <ele>1988</ele>
        <time>2026-06-15T10:52:18.000Z</time>
        <extensions>
          <ns3:TrackPointExtension>
            <ns3:atemp>16.0</ns3:atemp>
          </ns3:TrackPointExtension>
        </extensions>
      </trkpt>
      <trkpt lat="42.56240517832338809967041015625" lon="20.07377606816589832305908203125">
        <ele>1988.199951171875</ele>
        <time>2026-06-15T10:52:19.000Z</time>
        <extensions>
          <ns3:TrackPointExtension>
            <ns3:atemp>16.0</ns3:atemp>
          </ns3:TrackPointExtension>
        </extensions>
      </trkpt>
      <trkpt lat="42.56240517832338809967041015625" lon="20.07377606816589832305908203125">
        <ele>1988.199951171875</ele>
        <time>2026-06-15T10:52:20.000Z</time>
        <extensions>
          <ns3:TrackPointExtension>
            <ns3:atemp>16.0</ns3:atemp>
          </ns3:TrackPointExtension>
        </extensions>
      </trkpt>
      <trkpt lat="42.56240517832338809967041015625" lon="20.07377606816589832305908203125">
        <ele>1988.4000244140625</ele>
        <time>2026-06-15T10:52:21.000Z</time>
        <extensions>
          <ns3:TrackPointExtension>
            <ns3:atemp>16.0</ns3:atemp>
          </ns3:TrackPointExtension>
        </extensions>
      </trkpt>
      <trkpt lat="42.56240517832338809967041015625" lon="20.07377606816589832305908203125">
        <ele>1988.4000244140625</ele>
        <time>2026-06-15T10:52:22.000Z</time>
        <extensions>
          <ns3:TrackPointExtension>
            <ns3:atemp>16.0</ns3:atemp>
          </ns3:TrackPointExtension>
        </extensions>
      </trkpt>
      <trkpt lat="42.56240517832338809967041015625" lon="20.07377606816589832305908203125">
        <ele>1988.4000244140625</ele>
        <time>2026-06-15T10:52:23.000Z</time>
        <extensions>
          <ns3:TrackPointExtension>
            <ns3:atemp>16.0</ns3:atemp>
          </ns3:TrackPointExtension>
        </extensions>
      </trkpt>
      <trkpt lat="42.56240517832338809967041015625" lon="20.07377606816589832305908203125">
        <ele>1988.4000244140625</ele>
        <time>2026-06-15T10:52:24.000Z</time>
        <extensions>
          <ns3:TrackPointExtension>
            <ns3:atemp>16.0</ns3:atemp>
          </ns3:TrackPointExtension>
        </extensions>
      </trkpt>
      <trkpt lat="42.56240517832338809967041015625" lon="20.07377606816589832305908203125">
        <ele>1988.4000244140625</ele>
        <time>2026-06-15T10:52:25.000Z</time>
        <extensions>
          <ns3:TrackPointExtension>
            <ns3:atemp>16.0</ns3:atemp>
          </ns3:TrackPointExtension>
        </extensions>
      </trkpt>
      <trkpt lat="42.56240517832338809967041015625" lon="20.07377606816589832305908203125">
        <ele>1988.4000244140625</ele>
        <time>2026-06-15T10:52:26.000Z</time>
        <extensions>
          <ns3:TrackPointExtension>
            <ns3:atemp>16.0</ns3:atemp>
          </ns3:TrackPointExtension>
        </extensions>
      </trkpt>
      <trkpt lat="42.56240517832338809967041015625" lon="20.07377606816589832305908203125">
        <ele>1988.4000244140625</ele>
        <time>2026-06-15T10:52:27.000Z</time>
        <extensions>
          <ns3:TrackPointExtension>
            <ns3:atemp>16.0</ns3:atemp>
          </ns3:TrackPointExtension>
        </extensions>
      </trkpt>
      <trkpt lat="42.56240517832338809967041015625" lon="20.07377606816589832305908203125">
        <ele>1988.4000244140625</ele>
        <time>2026-06-15T10:52:28.000Z</time>
        <extensions>
          <ns3:TrackPointExtension>
            <ns3:atemp>16.0</ns3:atemp>
          </ns3:TrackPointExtension>
        </extensions>
      </trkpt>
      <trkpt lat="42.56240517832338809967041015625" lon="20.07377606816589832305908203125">
        <ele>1988.199951171875</ele>
        <time>2026-06-15T10:52:29.000Z</time>
        <extensions>
          <ns3:TrackPointExtension>
            <ns3:atemp>16.0</ns3:atemp>
          </ns3:TrackPointExtension>
        </extensions>
      </trkpt>
      <trkpt lat="42.56240517832338809967041015625" lon="20.07377606816589832305908203125">
        <ele>1988.4000244140625</ele>
        <time>2026-06-15T10:52:30.000Z</time>
        <extensions>
          <ns3:TrackPointExtension>
            <ns3:atemp>16.0</ns3:atemp>
          </ns3:TrackPointExtension>
        </extensions>
      </trkpt>
      <trkpt lat="42.56240517832338809967041015625" lon="20.07377606816589832305908203125">
        <ele>1988.4000244140625</ele>
        <time>2026-06-15T10:52:31.000Z</time>
        <extensions>
          <ns3:TrackPointExtension>
            <ns3:atemp>16.0</ns3:atemp>
          </ns3:TrackPointExtension>
        </extensions>
      </trkpt>
      <trkpt lat="42.56240517832338809967041015625" lon="20.07377606816589832305908203125">
        <ele>1988.199951171875</ele>
        <time>2026-06-15T10:52:32.000Z</time>
        <extensions>
          <ns3:TrackPointExtension>
            <ns3:atemp>16.0</ns3:atemp>
          </ns3:TrackPointExtension>
        </extensions>
      </trkpt>
      <trkpt lat="42.56240517832338809967041015625" lon="20.07377606816589832305908203125">
        <ele>1988.199951171875</ele>
        <time>2026-06-15T10:52:33.000Z</time>
        <extensions>
          <ns3:TrackPointExtension>
            <ns3:atemp>16.0</ns3:atemp>
          </ns3:TrackPointExtension>
        </extensions>
      </trkpt>
      <trkpt lat="42.562408111989498138427734375" lon="20.07377556525170803070068359375">
        <ele>1988.199951171875</ele>
        <time>2026-06-15T10:52:34.000Z</time>
        <extensions>
          <ns3:TrackPointExtension>
            <ns3:atemp>16.0</ns3:atemp>
          </ns3:TrackPointExtension>
        </extensions>
      </trkpt>
      <trkpt lat="42.562421858310699462890625" lon="20.07376567460596561431884765625">
        <ele>1988.199951171875</ele>
        <time>2026-06-15T10:52:35.000Z</time>
        <extensions>
          <ns3:TrackPointExtension>
            <ns3:atemp>16.0</ns3:atemp>
          </ns3:TrackPointExtension>
        </extensions>
      </trkpt>
      <trkpt lat="42.56242764182388782501220703125" lon="20.0737476535141468048095703125">
        <ele>1988.199951171875</ele>
        <time>2026-06-15T10:52:36.000Z</time>
        <extensions>
          <ns3:TrackPointExtension>
            <ns3:atemp>16.0</ns3:atemp>
          </ns3:TrackPointExtension>
        </extensions>
      </trkpt>
      <trkpt lat="42.562432587146759033203125" lon="20.07372041232883930206298828125">
        <ele>1988.199951171875</ele>
        <time>2026-06-15T10:52:37.000Z</time>
        <extensions>
          <ns3:TrackPointExtension>
            <ns3:atemp>16.0</ns3:atemp>
          </ns3:TrackPointExtension>
        </extensions>
      </trkpt>
      <trkpt lat="42.5624287314713001251220703125" lon="20.07368286140263080596923828125">
        <ele>1988.199951171875</ele>
        <time>2026-06-15T10:52:38.000Z</time>
        <extensions>
          <ns3:TrackPointExtension>
            <ns3:atemp>16.0</ns3:atemp>
          </ns3:TrackPointExtension>
        </extensions>
      </trkpt>
      <trkpt lat="42.56242227740585803985595703125" lon="20.0736427120864391326904296875">
        <ele>1988.199951171875</ele>
        <time>2026-06-15T10:52:39.000Z</time>
        <extensions>
          <ns3:TrackPointExtension>
            <ns3:atemp>16.0</ns3:atemp>
          </ns3:TrackPointExtension>
        </extensions>
      </trkpt>
      <trkpt lat="42.5624191761016845703125" lon="20.0736041553318500518798828125">
        <ele>1988.199951171875</ele>
        <time>2026-06-15T10:52:40.000Z</time>
        <extensions>
          <ns3:TrackPointExtension>
            <ns3:atemp>16.0</ns3:atemp>
          </ns3:TrackPointExtension>
        </extensions>
      </trkpt>
      <trkpt lat="42.562412135303020477294921875" lon="20.073587894439697265625">
        <ele>1988.4000244140625</ele>
        <time>2026-06-15T10:52:41.000Z</time>
        <extensions>
          <ns3:TrackPointExtension>
            <ns3:atemp>16.0</ns3:atemp>
          </ns3:TrackPointExtension>
        </extensions>
      </trkpt>
      <trkpt lat="42.562416829168796539306640625" lon="20.07358278147876262664794921875">
        <ele>1988.4000244140625</ele>
        <time>2026-06-15T10:52:42.000Z</time>
        <extensions>
          <ns3:TrackPointExtension>
            <ns3:atemp>16.0</ns3:atemp>
          </ns3:TrackPointExtension>
        </extensions>
      </trkpt>
      <trkpt lat="42.562416829168796539306640625" lon="20.07358278147876262664794921875">
        <ele>1988.5999755859375</ele>
        <time>2026-06-15T10:52:43.000Z</time>
        <extensions>
          <ns3:TrackPointExtension>
            <ns3:atemp>16.0</ns3:atemp>
          </ns3:TrackPointExtension>
        </extensions>
      </trkpt>
      <trkpt lat="42.562416829168796539306640625" lon="20.07358278147876262664794921875">
        <ele>1988.800048828125</ele>
        <time>2026-06-15T10:52:44.000Z</time>
        <extensions>
          <ns3:TrackPointExtension>
            <ns3:atemp>16.0</ns3:atemp>
          </ns3:TrackPointExtension>
        </extensions>
      </trkpt>
      <trkpt lat="42.562416829168796539306640625" lon="20.07358278147876262664794921875">
        <ele>1989</ele>
        <time>2026-06-15T10:52:45.000Z</time>
        <extensions>
          <ns3:TrackPointExtension>
            <ns3:atemp>16.0</ns3:atemp>
          </ns3:TrackPointExtension>
        </extensions>
      </trkpt>
      <trkpt lat="42.562416829168796539306640625" lon="20.07358278147876262664794921875">
        <ele>1989</ele>
        <time>2026-06-15T10:52:46.000Z</time>
        <extensions>
          <ns3:TrackPointExtension>
            <ns3:atemp>16.0</ns3:atemp>
          </ns3:TrackPointExtension>
        </extensions>
      </trkpt>
      <trkpt lat="42.562416829168796539306640625" lon="20.07358278147876262664794921875">
        <ele>1989.199951171875</ele>
        <time>2026-06-15T10:52:47.000Z</time>
        <extensions>
          <ns3:TrackPointExtension>
            <ns3:atemp>16.0</ns3:atemp>
          </ns3:TrackPointExtension>
        </extensions>
      </trkpt>
      <trkpt lat="42.562416829168796539306640625" lon="20.07358278147876262664794921875">
        <ele>1989.199951171875</ele>
        <time>2026-06-15T10:52:48.000Z</time>
        <extensions>
          <ns3:TrackPointExtension>
            <ns3:atemp>16.0</ns3:atemp>
          </ns3:TrackPointExtension>
        </extensions>
      </trkpt>
      <trkpt lat="42.562416829168796539306640625" lon="20.07358278147876262664794921875">
        <ele>1989.199951171875</ele>
        <time>2026-06-15T10:52:49.000Z</time>
        <extensions>
          <ns3:TrackPointExtension>
            <ns3:atemp>16.0</ns3:atemp>
          </ns3:TrackPointExtension>
        </extensions>
      </trkpt>
      <trkpt lat="42.562416829168796539306640625" lon="20.07358278147876262664794921875">
        <ele>1989.199951171875</ele>
        <time>2026-06-15T10:52:50.000Z</time>
        <extensions>
          <ns3:TrackPointExtension>
            <ns3:atemp>16.0</ns3:atemp>
          </ns3:TrackPointExtension>
        </extensions>
      </trkpt>
      <trkpt lat="42.562416829168796539306640625" lon="20.07358278147876262664794921875">
        <ele>1989.199951171875</ele>
        <time>2026-06-15T10:52:51.000Z</time>
        <extensions>
          <ns3:TrackPointExtension>
            <ns3:atemp>16.0</ns3:atemp>
          </ns3:TrackPointExtension>
        </extensions>
      </trkpt>
      <trkpt lat="42.562416829168796539306640625" lon="20.07358278147876262664794921875">
        <ele>1989.4000244140625</ele>
        <time>2026-06-15T10:52:52.000Z</time>
        <extensions>
          <ns3:TrackPointExtension>
            <ns3:atemp>16.0</ns3:atemp>
          </ns3:TrackPointExtension>
        </extensions>
      </trkpt>
      <trkpt lat="42.562416829168796539306640625" lon="20.07358278147876262664794921875">
        <ele>1989.4000244140625</ele>
        <time>2026-06-15T10:52:53.000Z</time>
        <extensions>
          <ns3:TrackPointExtension>
            <ns3:atemp>16.0</ns3:atemp>
          </ns3:TrackPointExtension>
        </extensions>
      </trkpt>
      <trkpt lat="42.562416829168796539306640625" lon="20.07358278147876262664794921875">
        <ele>1989.4000244140625</ele>
        <time>2026-06-15T10:52:54.000Z</time>
        <extensions>
          <ns3:TrackPointExtension>
            <ns3:atemp>16.0</ns3:atemp>
          </ns3:TrackPointExtension>
        </extensions>
      </trkpt>
      <trkpt lat="42.562416829168796539306640625" lon="20.07358278147876262664794921875">
        <ele>1989.4000244140625</ele>
        <time>2026-06-15T10:52:55.000Z</time>
        <extensions>
          <ns3:TrackPointExtension>
            <ns3:atemp>16.0</ns3:atemp>
          </ns3:TrackPointExtension>
        </extensions>
      </trkpt>
      <trkpt lat="42.562416829168796539306640625" lon="20.07358278147876262664794921875">
        <ele>1989.199951171875</ele>
        <time>2026-06-15T10:52:56.000Z</time>
        <extensions>
          <ns3:TrackPointExtension>
            <ns3:atemp>16.0</ns3:atemp>
          </ns3:TrackPointExtension>
        </extensions>
      </trkpt>
      <trkpt lat="42.562416829168796539306640625" lon="20.07358278147876262664794921875">
        <ele>1989.199951171875</ele>
        <time>2026-06-15T10:52:57.000Z</time>
        <extensions>
          <ns3:TrackPointExtension>
            <ns3:atemp>16.0</ns3:atemp>
          </ns3:TrackPointExtension>
        </extensions>
      </trkpt>
      <trkpt lat="42.562416829168796539306640625" lon="20.07358278147876262664794921875">
        <ele>1989.199951171875</ele>
        <time>2026-06-15T10:52:58.000Z</time>
        <extensions>
          <ns3:TrackPointExtension>
            <ns3:atemp>16.0</ns3:atemp>
          </ns3:TrackPointExtension>
        </extensions>
      </trkpt>
      <trkpt lat="42.562416829168796539306640625" lon="20.07358278147876262664794921875">
        <ele>1989.199951171875</ele>
        <time>2026-06-15T10:52:59.000Z</time>
        <extensions>
          <ns3:TrackPointExtension>
            <ns3:atemp>16.0</ns3:atemp>
          </ns3:TrackPointExtension>
        </extensions>
      </trkpt>
      <trkpt lat="42.562416829168796539306640625" lon="20.07358278147876262664794921875">
        <ele>1989.199951171875</ele>
        <time>2026-06-15T10:53:00.000Z</time>
        <extensions>
          <ns3:TrackPointExtension>
            <ns3:atemp>16.0</ns3:atemp>
          </ns3:TrackPointExtension>
        </extensions>
      </trkpt>
      <trkpt lat="42.562416829168796539306640625" lon="20.07358278147876262664794921875">
        <ele>1989.4000244140625</ele>
        <time>2026-06-15T10:53:01.000Z</time>
        <extensions>
          <ns3:TrackPointExtension>
            <ns3:atemp>16.0</ns3:atemp>
          </ns3:TrackPointExtension>
        </extensions>
      </trkpt>
      <trkpt lat="42.562416829168796539306640625" lon="20.07358278147876262664794921875">
        <ele>1989.4000244140625</ele>
        <time>2026-06-15T10:53:02.000Z</time>
        <extensions>
          <ns3:TrackPointExtension>
            <ns3:atemp>16.0</ns3:atemp>
          </ns3:TrackPointExtension>
        </extensions>
      </trkpt>
      <trkpt lat="42.562416829168796539306640625" lon="20.07358278147876262664794921875">
        <ele>1989.4000244140625</ele>
        <time>2026-06-15T10:53:03.000Z</time>
        <extensions>
          <ns3:TrackPointExtension>
            <ns3:atemp>16.0</ns3:atemp>
          </ns3:TrackPointExtension>
        </extensions>
      </trkpt>
      <trkpt lat="42.56241993047297000885009765625" lon="20.07358227856457233428955078125">
        <ele>1989.4000244140625</ele>
        <time>2026-06-15T10:53:04.000Z</time>
        <extensions>
          <ns3:TrackPointExtension>
            <ns3:atemp>16.0</ns3:atemp>
          </ns3:TrackPointExtension>
        </extensions>
      </trkpt>
      <trkpt lat="42.5624183379113674163818359375" lon="20.0735629163682460784912109375">
        <ele>1989.4000244140625</ele>
        <time>2026-06-15T10:53:05.000Z</time>
        <extensions>
          <ns3:TrackPointExtension>
            <ns3:atemp>16.0</ns3:atemp>
          </ns3:TrackPointExtension>
        </extensions>
      </trkpt>
      <trkpt lat="42.56240786053240299224853515625" lon="20.0735498405992984771728515625">
        <ele>1989.4000244140625</ele>
        <time>2026-06-15T10:53:06.000Z</time>
        <extensions>
          <ns3:TrackPointExtension>
            <ns3:atemp>16.0</ns3:atemp>
          </ns3:TrackPointExtension>
        </extensions>
      </trkpt>
      <trkpt lat="42.56239034235477447509765625" lon="20.073530562222003936767578125">
        <ele>1989.4000244140625</ele>
        <time>2026-06-15T10:53:07.000Z</time>
        <extensions>
          <ns3:TrackPointExtension>
            <ns3:atemp>16.0</ns3:atemp>
          </ns3:TrackPointExtension>
        </extensions>
      </trkpt>
      <trkpt lat="42.562368549406528472900390625" lon="20.07351757027208805084228515625">
        <ele>1989.4000244140625</ele>
        <time>2026-06-15T10:53:08.000Z</time>
        <extensions>
          <ns3:TrackPointExtension>
            <ns3:atemp>16.0</ns3:atemp>
          </ns3:TrackPointExtension>
        </extensions>
      </trkpt>
      <trkpt lat="42.56234499625861644744873046875" lon="20.073510445654392242431640625">
        <ele>1989.5999755859375</ele>
        <time>2026-06-15T10:53:09.000Z</time>
        <extensions>
          <ns3:TrackPointExtension>
            <ns3:atemp>16.0</ns3:atemp>
          </ns3:TrackPointExtension>
        </extensions>
      </trkpt>
      <trkpt lat="42.56232052110135555267333984375" lon="20.07350717671215534210205078125">
        <ele>1989.5999755859375</ele>
        <time>2026-06-15T10:53:10.000Z</time>
        <extensions>
          <ns3:TrackPointExtension>
            <ns3:atemp>16.0</ns3:atemp>
          </ns3:TrackPointExtension>
        </extensions>
      </trkpt>
      <trkpt lat="42.5622989796102046966552734375" lon="20.07350617088377475738525390625">
        <ele>1989.800048828125</ele>
        <time>2026-06-15T10:53:11.000Z</time>
        <extensions>
          <ns3:TrackPointExtension>
            <ns3:atemp>16.0</ns3:atemp>
          </ns3:TrackPointExtension>
        </extensions>
      </trkpt>
      <trkpt lat="42.56227500736713409423828125" lon="20.0735079310834407806396484375">
        <ele>1990</ele>
        <time>2026-06-15T10:53:12.000Z</time>
        <extensions>
          <ns3:TrackPointExtension>
            <ns3:atemp>16.0</ns3:atemp>
          </ns3:TrackPointExtension>
        </extensions>
      </trkpt>
      <trkpt lat="42.5622475147247314453125" lon="20.073510110378265380859375">
        <ele>1990.199951171875</ele>
        <time>2026-06-15T10:53:13.000Z</time>
        <extensions>
          <ns3:TrackPointExtension>
            <ns3:atemp>16.0</ns3:atemp>
          </ns3:TrackPointExtension>
        </extensions>
      </trkpt>
      <trkpt lat="42.56221599876880645751953125" lon="20.07351522333920001983642578125">
        <ele>1990.5999755859375</ele>
        <time>2026-06-15T10:53:14.000Z</time>
        <extensions>
          <ns3:TrackPointExtension>
            <ns3:atemp>16.0</ns3:atemp>
          </ns3:TrackPointExtension>
        </extensions>
      </trkpt>
      <trkpt lat="42.56218850612640380859375" lon="20.07351337932050228118896484375">
        <ele>1990.800048828125</ele>
        <time>2026-06-15T10:53:15.000Z</time>
        <extensions>
          <ns3:TrackPointExtension>
            <ns3:atemp>16.0</ns3:atemp>
          </ns3:TrackPointExtension>
        </extensions>
      </trkpt>
      <trkpt lat="42.56216243840754032135009765625" lon="20.0735055841505527496337890625">
        <ele>1991</ele>
        <time>2026-06-15T10:53:16.000Z</time>
        <extensions>
          <ns3:TrackPointExtension>
            <ns3:atemp>16.0</ns3:atemp>
          </ns3:TrackPointExtension>
        </extensions>
      </trkpt>
      <trkpt lat="42.5621363706886768341064453125" lon="20.0734992139041423797607421875">
        <ele>1991.4000244140625</ele>
        <time>2026-06-15T10:53:17.000Z</time>
        <extensions>
          <ns3:TrackPointExtension>
            <ns3:atemp>16.0</ns3:atemp>
          </ns3:TrackPointExtension>
        </extensions>
      </trkpt>
      <trkpt lat="42.56211600266396999359130859375" lon="20.0734913349151611328125">
        <ele>1991.800048828125</ele>
        <time>2026-06-15T10:53:18.000Z</time>
        <extensions>
          <ns3:TrackPointExtension>
            <ns3:atemp>16.0</ns3:atemp>
          </ns3:TrackPointExtension>
        </extensions>
      </trkpt>
      <trkpt lat="42.56209353916347026824951171875" lon="20.07347968406975269317626953125">
        <ele>1992.199951171875</ele>
        <time>2026-06-15T10:53:19.000Z</time>
        <extensions>
          <ns3:TrackPointExtension>
            <ns3:atemp>16.0</ns3:atemp>
          </ns3:TrackPointExtension>
        </extensions>
      </trkpt>
      <trkpt lat="42.562070153653621673583984375" lon="20.07346761412918567657470703125">
        <ele>1992.5999755859375</ele>
        <time>2026-06-15T10:53:20.000Z</time>
        <extensions>
          <ns3:TrackPointExtension>
            <ns3:atemp>16.0</ns3:atemp>
          </ns3:TrackPointExtension>
        </extensions>
      </trkpt>
      <trkpt lat="42.562046349048614501953125" lon="20.073460154235363006591796875">
        <ele>1992.800048828125</ele>
        <time>2026-06-15T10:53:21.000Z</time>
        <extensions>
          <ns3:TrackPointExtension>
            <ns3:atemp>16.0</ns3:atemp>
          </ns3:TrackPointExtension>
        </extensions>
      </trkpt>
      <trkpt lat="42.56202547810971736907958984375" lon="20.07345738820731639862060546875">
        <ele>1993.199951171875</ele>
        <time>2026-06-15T10:53:22.000Z</time>
        <extensions>
          <ns3:TrackPointExtension>
            <ns3:atemp>16.0</ns3:atemp>
          </ns3:TrackPointExtension>
        </extensions>
      </trkpt>
      <trkpt lat="42.56200066767632961273193359375" lon="20.07345705293118953704833984375">
        <ele>1993.5999755859375</ele>
        <time>2026-06-15T10:53:23.000Z</time>
        <extensions>
          <ns3:TrackPointExtension>
            <ns3:atemp>16.0</ns3:atemp>
          </ns3:TrackPointExtension>
        </extensions>
      </trkpt>
      <trkpt lat="42.561976611614227294921875" lon="20.0734539516270160675048828125">
        <ele>1993.800048828125</ele>
        <time>2026-06-15T10:53:24.000Z</time>
        <extensions>
          <ns3:TrackPointExtension>
            <ns3:atemp>16.0</ns3:atemp>
          </ns3:TrackPointExtension>
        </extensions>
      </trkpt>
      <trkpt lat="42.56195406429469585418701171875" lon="20.07345177233219146728515625">
        <ele>1994.199951171875</ele>
        <time>2026-06-15T10:53:25.000Z</time>
        <extensions>
          <ns3:TrackPointExtension>
            <ns3:atemp>16.0</ns3:atemp>
          </ns3:TrackPointExtension>
        </extensions>
      </trkpt>
      <trkpt lat="42.561930008232593536376953125" lon="20.07344481535255908966064453125">
        <ele>1994.5999755859375</ele>
        <time>2026-06-15T10:53:26.000Z</time>
        <extensions>
          <ns3:TrackPointExtension>
            <ns3:atemp>16.0</ns3:atemp>
          </ns3:TrackPointExtension>
        </extensions>
      </trkpt>
      <trkpt lat="42.5619063712656497955322265625" lon="20.07343769073486328125">
        <ele>1995</ele>
        <time>2026-06-15T10:53:27.000Z</time>
        <extensions>
          <ns3:TrackPointExtension>
            <ns3:atemp>16.0</ns3:atemp>
          </ns3:TrackPointExtension>
        </extensions>
      </trkpt>
      <trkpt lat="42.5618813931941986083984375" lon="20.07343861274421215057373046875">
        <ele>1995.199951171875</ele>
        <time>2026-06-15T10:53:28.000Z</time>
        <extensions>
          <ns3:TrackPointExtension>
            <ns3:atemp>16.0</ns3:atemp>
          </ns3:TrackPointExtension>
        </extensions>
      </trkpt>
      <trkpt lat="42.56185918115079402923583984375" lon="20.07343433797359466552734375">
        <ele>1995.5999755859375</ele>
        <time>2026-06-15T10:53:29.000Z</time>
        <extensions>
          <ns3:TrackPointExtension>
            <ns3:atemp>16.0</ns3:atemp>
          </ns3:TrackPointExtension>
        </extensions>
      </trkpt>
      <trkpt lat="42.56183772347867488861083984375" lon="20.073424279689788818359375">
        <ele>1996</ele>
        <time>2026-06-15T10:53:30.000Z</time>
        <extensions>
          <ns3:TrackPointExtension>
            <ns3:atemp>16.0</ns3:atemp>
          </ns3:TrackPointExtension>
        </extensions>
      </trkpt>
      <trkpt lat="42.5618138350546360015869140625" lon="20.0734175741672515869140625">
        <ele>1996.4000244140625</ele>
        <time>2026-06-15T10:53:31.000Z</time>
        <extensions>
          <ns3:TrackPointExtension>
            <ns3:atemp>16.0</ns3:atemp>
          </ns3:TrackPointExtension>
        </extensions>
      </trkpt>
      <trkpt lat="42.56179355084896087646484375" lon="20.07340910844504833221435546875">
        <ele>1996.800048828125</ele>
        <time>2026-06-15T10:53:32.000Z</time>
        <extensions>
          <ns3:TrackPointExtension>
            <ns3:atemp>16.0</ns3:atemp>
          </ns3:TrackPointExtension>
        </extensions>
      </trkpt>
      <trkpt lat="42.56177611649036407470703125" lon="20.07340089417994022369384765625">
        <ele>1997</ele>
        <time>2026-06-15T10:53:33.000Z</time>
        <extensions>
          <ns3:TrackPointExtension>
            <ns3:atemp>16.0</ns3:atemp>
          </ns3:TrackPointExtension>
        </extensions>
      </trkpt>
      <trkpt lat="42.56175725720822811126708984375" lon="20.07338966242969036102294921875">
        <ele>1997.4000244140625</ele>
        <time>2026-06-15T10:53:34.000Z</time>
        <extensions>
          <ns3:TrackPointExtension>
            <ns3:atemp>16.0</ns3:atemp>
          </ns3:TrackPointExtension>
        </extensions>
      </trkpt>
      <trkpt lat="42.56173789501190185546875" lon="20.073379017412662506103515625">
        <ele>1997.800048828125</ele>
        <time>2026-06-15T10:53:35.000Z</time>
        <extensions>
          <ns3:TrackPointExtension>
            <ns3:atemp>16.0</ns3:atemp>
          </ns3:TrackPointExtension>
        </extensions>
      </trkpt>
      <trkpt lat="42.56171886809170246124267578125" lon="20.073368959128856658935546875">
        <ele>1998</ele>
        <time>2026-06-15T10:53:36.000Z</time>
        <extensions>
          <ns3:TrackPointExtension>
            <ns3:atemp>16.0</ns3:atemp>
          </ns3:TrackPointExtension>
        </extensions>
      </trkpt>
      <trkpt lat="42.56169992499053478240966796875" lon="20.0733585655689239501953125">
        <ele>1998.4000244140625</ele>
        <time>2026-06-15T10:53:37.000Z</time>
        <extensions>
          <ns3:TrackPointExtension>
            <ns3:atemp>16.0</ns3:atemp>
          </ns3:TrackPointExtension>
        </extensions>
      </trkpt>
      <trkpt lat="42.56168249063193798065185546875" lon="20.07334775291383266448974609375">
        <ele>1998.800048828125</ele>
        <time>2026-06-15T10:53:38.000Z</time>
        <extensions>
          <ns3:TrackPointExtension>
            <ns3:atemp>16.0</ns3:atemp>
          </ns3:TrackPointExtension>
        </extensions>
      </trkpt>
      <trkpt lat="42.56166388280689716339111328125" lon="20.0733376108109951019287109375">
        <ele>1999</ele>
        <time>2026-06-15T10:53:39.000Z</time>
        <extensions>
          <ns3:TrackPointExtension>
            <ns3:atemp>16.0</ns3:atemp>
          </ns3:TrackPointExtension>
        </extensions>
      </trkpt>
      <trkpt lat="42.56164460442960262298583984375" lon="20.0733278878033161163330078125">
        <ele>1999.4000244140625</ele>
        <time>2026-06-15T10:53:40.000Z</time>
        <extensions>
          <ns3:TrackPointExtension>
            <ns3:atemp>16.0</ns3:atemp>
          </ns3:TrackPointExtension>
        </extensions>
      </trkpt>
      <trkpt lat="42.56162532605230808258056640625" lon="20.07331724278628826141357421875">
        <ele>1999.5999755859375</ele>
        <time>2026-06-15T10:53:41.000Z</time>
        <extensions>
          <ns3:TrackPointExtension>
            <ns3:atemp>16.0</ns3:atemp>
          </ns3:TrackPointExtension>
        </extensions>
      </trkpt>
      <trkpt lat="42.56160085089504718780517578125" lon="20.0733107887208461761474609375">
        <ele>2000</ele>
        <time>2026-06-15T10:53:42.000Z</time>
        <extensions>
          <ns3:TrackPointExtension>
            <ns3:atemp>16.0</ns3:atemp>
          </ns3:TrackPointExtension>
        </extensions>
      </trkpt>
      <trkpt lat="42.56158224307000637054443359375" lon="20.073299892246723175048828125">
        <ele>2000.199951171875</ele>
        <time>2026-06-15T10:53:43.000Z</time>
        <extensions>
          <ns3:TrackPointExtension>
            <ns3:atemp>16.0</ns3:atemp>
          </ns3:TrackPointExtension>
        </extensions>
      </trkpt>
      <trkpt lat="42.56156313233077526092529296875" lon="20.073282457888126373291015625">
        <ele>2000.5999755859375</ele>
        <time>2026-06-15T10:53:44.000Z</time>
        <extensions>
          <ns3:TrackPointExtension>
            <ns3:atemp>16.0</ns3:atemp>
          </ns3:TrackPointExtension>
        </extensions>
      </trkpt>
      <trkpt lat="42.56154452450573444366455078125" lon="20.0732604973018169403076171875">
        <ele>2000.800048828125</ele>
        <time>2026-06-15T10:53:45.000Z</time>
        <extensions>
          <ns3:TrackPointExtension>
            <ns3:atemp>16.0</ns3:atemp>
          </ns3:TrackPointExtension>
        </extensions>
      </trkpt>
      <trkpt lat="42.56152591668069362640380859375" lon="20.073240213096141815185546875">
        <ele>2001</ele>
        <time>2026-06-15T10:53:46.000Z</time>
        <extensions>
          <ns3:TrackPointExtension>
            <ns3:atemp>16.0</ns3:atemp>
          </ns3:TrackPointExtension>
        </extensions>
      </trkpt>
      <trkpt lat="42.5615097396075725555419921875" lon="20.0732336752116680145263671875">
        <ele>2001.199951171875</ele>
        <time>2026-06-15T10:53:47.000Z</time>
        <extensions>
          <ns3:TrackPointExtension>
            <ns3:atemp>16.0</ns3:atemp>
          </ns3:TrackPointExtension>
        </extensions>
      </trkpt>
      <trkpt lat="42.561491467058658599853515625" lon="20.07322646677494049072265625">
        <ele>2001.4000244140625</ele>
        <time>2026-06-15T10:53:48.000Z</time>
        <extensions>
          <ns3:TrackPointExtension>
            <ns3:atemp>16.0</ns3:atemp>
          </ns3:TrackPointExtension>
        </extensions>
      </trkpt>
      <trkpt lat="42.5614711828529834747314453125" lon="20.07321665994822978973388671875">
        <ele>2001.5999755859375</ele>
        <time>2026-06-15T10:53:49.000Z</time>
        <extensions>
          <ns3:TrackPointExtension>
            <ns3:atemp>16.0</ns3:atemp>
          </ns3:TrackPointExtension>
        </extensions>
      </trkpt>
      <trkpt lat="42.56144880317151546478271484375" lon="20.07320626638829708099365234375">
        <ele>2002</ele>
        <time>2026-06-15T10:53:50.000Z</time>
        <extensions>
          <ns3:TrackPointExtension>
            <ns3:atemp>16.0</ns3:atemp>
          </ns3:TrackPointExtension>
        </extensions>
      </trkpt>
      <trkpt lat="42.561429440975189208984375" lon="20.0731937773525714874267578125">
        <ele>2002.4000244140625</ele>
        <time>2026-06-15T10:53:51.000Z</time>
        <extensions>
          <ns3:TrackPointExtension>
            <ns3:atemp>16.0</ns3:atemp>
          </ns3:TrackPointExtension>
        </extensions>
      </trkpt>
      <trkpt lat="42.56141494028270244598388671875" lon="20.07317684590816497802734375">
        <ele>2002.5999755859375</ele>
        <time>2026-06-15T10:53:52.000Z</time>
        <extensions>
          <ns3:TrackPointExtension>
            <ns3:atemp>16.0</ns3:atemp>
          </ns3:TrackPointExtension>
        </extensions>
      </trkpt>
      <trkpt lat="42.5613970868289470672607421875" lon="20.07316234521567821502685546875">
        <ele>2003</ele>
        <time>2026-06-15T10:53:53.000Z</time>
        <extensions>
          <ns3:TrackPointExtension>
            <ns3:atemp>16.0</ns3:atemp>
          </ns3:TrackPointExtension>
        </extensions>
      </trkpt>
      <trkpt lat="42.56137906573712825775146484375" lon="20.07315161637961864471435546875">
        <ele>2003.199951171875</ele>
        <time>2026-06-15T10:53:54.000Z</time>
        <extensions>
          <ns3:TrackPointExtension>
            <ns3:atemp>16.0</ns3:atemp>
          </ns3:TrackPointExtension>
        </extensions>
      </trkpt>
      <trkpt lat="42.56136029027402400970458984375" lon="20.07314063608646392822265625">
        <ele>2003.4000244140625</ele>
        <time>2026-06-15T10:53:55.000Z</time>
        <extensions>
          <ns3:TrackPointExtension>
            <ns3:atemp>16.0</ns3:atemp>
          </ns3:TrackPointExtension>
        </extensions>
      </trkpt>
      <trkpt lat="42.56133799441158771514892578125" lon="20.073128230869770050048828125">
        <ele>2003.800048828125</ele>
        <time>2026-06-15T10:53:56.000Z</time>
        <extensions>
          <ns3:TrackPointExtension>
            <ns3:atemp>16.0</ns3:atemp>
          </ns3:TrackPointExtension>
        </extensions>
      </trkpt>
      <trkpt lat="42.5613196380436420440673828125" lon="20.0731186755001544952392578125">
        <ele>2004.199951171875</ele>
        <time>2026-06-15T10:53:57.000Z</time>
        <extensions>
          <ns3:TrackPointExtension>
            <ns3:atemp>16.0</ns3:atemp>
          </ns3:TrackPointExtension>
        </extensions>
      </trkpt>
      <trkpt lat="42.56130128167569637298583984375" lon="20.0731062702834606170654296875">
        <ele>2004.5999755859375</ele>
        <time>2026-06-15T10:53:58.000Z</time>
        <extensions>
          <ns3:TrackPointExtension>
            <ns3:atemp>16.0</ns3:atemp>
          </ns3:TrackPointExtension>
        </extensions>
      </trkpt>
      <trkpt lat="42.56128082983195781707763671875" lon="20.07309948094189167022705078125">
        <ele>2005</ele>
        <time>2026-06-15T10:53:59.000Z</time>
        <extensions>
          <ns3:TrackPointExtension>
            <ns3:atemp>16.0</ns3:atemp>
          </ns3:TrackPointExtension>
        </extensions>
      </trkpt>
      <trkpt lat="42.5612589530646800994873046875" lon="20.07308967411518096923828125">
        <ele>2005.4000244140625</ele>
        <time>2026-06-15T10:54:00.000Z</time>
        <extensions>
          <ns3:TrackPointExtension>
            <ns3:atemp>16.0</ns3:atemp>
          </ns3:TrackPointExtension>
        </extensions>
      </trkpt>
      <trkpt lat="42.5612344779074192047119140625" lon="20.0730801187455654144287109375">
        <ele>2005.5999755859375</ele>
        <time>2026-06-15T10:54:01.000Z</time>
        <extensions>
          <ns3:TrackPointExtension>
            <ns3:atemp>16.0</ns3:atemp>
          </ns3:TrackPointExtension>
        </extensions>
      </trkpt>
      <trkpt lat="42.56120807491242885589599609375" lon="20.07307198829948902130126953125">
        <ele>2006</ele>
        <time>2026-06-15T10:54:02.000Z</time>
        <extensions>
          <ns3:TrackPointExtension>
            <ns3:atemp>16.0</ns3:atemp>
          </ns3:TrackPointExtension>
        </extensions>
      </trkpt>
      <trkpt lat="42.56118066608905792236328125" lon="20.07306285202503204345703125">
        <ele>2006.4000244140625</ele>
        <time>2026-06-15T10:54:03.000Z</time>
        <extensions>
          <ns3:TrackPointExtension>
            <ns3:atemp>16.0</ns3:atemp>
          </ns3:TrackPointExtension>
        </extensions>
      </trkpt>
      <trkpt lat="42.56115275435149669647216796875" lon="20.073053799569606781005859375">
        <ele>2007</ele>
        <time>2026-06-15T10:54:04.000Z</time>
        <extensions>
          <ns3:TrackPointExtension>
            <ns3:atemp>16.0</ns3:atemp>
          </ns3:TrackPointExtension>
        </extensions>
      </trkpt>
      <trkpt lat="42.56112643517553806304931640625" lon="20.07303309626877307891845703125">
        <ele>2007.4000244140625</ele>
        <time>2026-06-15T10:54:05.000Z</time>
        <extensions>
          <ns3:TrackPointExtension>
            <ns3:atemp>16.0</ns3:atemp>
          </ns3:TrackPointExtension>
        </extensions>
      </trkpt>
      <trkpt lat="42.5611030496656894683837890625" lon="20.07300191558897495269775390625">
        <ele>2007.800048828125</ele>
        <time>2026-06-15T10:54:06.000Z</time>
        <extensions>
          <ns3:TrackPointExtension>
            <ns3:atemp>16.0</ns3:atemp>
          </ns3:TrackPointExtension>
        </extensions>
      </trkpt>
      <trkpt lat="42.561091147363185882568359375" lon="20.07297039963304996490478515625">
        <ele>2008</ele>
        <time>2026-06-15T10:54:07.000Z</time>
        <extensions>
          <ns3:TrackPointExtension>
            <ns3:atemp>16.0</ns3:atemp>
          </ns3:TrackPointExtension>
        </extensions>
      </trkpt>
      <trkpt lat="42.56108083762228488922119140625" lon="20.07293678820133209228515625">
        <ele>2008.4000244140625</ele>
        <time>2026-06-15T10:54:08.000Z</time>
        <extensions>
          <ns3:TrackPointExtension>
            <ns3:atemp>16.0</ns3:atemp>
          </ns3:TrackPointExtension>
        </extensions>
      </trkpt>
      <trkpt lat="42.5610673427581787109375" lon="20.07290200330317020416259765625">
        <ele>2008.5999755859375</ele>
        <time>2026-06-15T10:54:09.000Z</time>
        <extensions>
          <ns3:TrackPointExtension>
            <ns3:atemp>16.0</ns3:atemp>
          </ns3:TrackPointExtension>
        </extensions>
      </trkpt>
      <trkpt lat="42.56105594336986541748046875" lon="20.07286529056727886199951171875">
        <ele>2008.800048828125</ele>
        <time>2026-06-15T10:54:10.000Z</time>
        <extensions>
          <ns3:TrackPointExtension>
            <ns3:atemp>16.0</ns3:atemp>
          </ns3:TrackPointExtension>
        </extensions>
      </trkpt>
      <trkpt lat="42.56104764528572559356689453125" lon="20.0728259794414043426513671875">
        <ele>2009</ele>
        <time>2026-06-15T10:54:11.000Z</time>
        <extensions>
          <ns3:TrackPointExtension>
            <ns3:atemp>16.0</ns3:atemp>
          </ns3:TrackPointExtension>
        </extensions>
      </trkpt>
      <trkpt lat="42.56104546599090099334716796875" lon="20.0727847404778003692626953125">
        <ele>2009.199951171875</ele>
        <time>2026-06-15T10:54:12.000Z</time>
        <extensions>
          <ns3:TrackPointExtension>
            <ns3:atemp>16.0</ns3:atemp>
          </ns3:TrackPointExtension>
        </extensions>
      </trkpt>
      <trkpt lat="42.5610477291047573089599609375" lon="20.072745345532894134521484375">
        <ele>2009.199951171875</ele>
        <time>2026-06-15T10:54:13.000Z</time>
        <extensions>
          <ns3:TrackPointExtension>
            <ns3:atemp>16.0</ns3:atemp>
          </ns3:TrackPointExtension>
        </extensions>
      </trkpt>
      <trkpt lat="42.56105049513280391693115234375" lon="20.0727076269686222076416015625">
        <ele>2009.4000244140625</ele>
        <time>2026-06-15T10:54:14.000Z</time>
        <extensions>
          <ns3:TrackPointExtension>
            <ns3:atemp>16.0</ns3:atemp>
          </ns3:TrackPointExtension>
        </extensions>
      </trkpt>
      <trkpt lat="42.56105233915150165557861328125" lon="20.0726616941392421722412109375">
        <ele>2009.4000244140625</ele>
        <time>2026-06-15T10:54:15.000Z</time>
        <extensions>
          <ns3:TrackPointExtension>
            <ns3:atemp>16.0</ns3:atemp>
          </ns3:TrackPointExtension>
        </extensions>
      </trkpt>
      <trkpt lat="42.56104814819991588592529296875" lon="20.0726155936717987060546875">
        <ele>2009.5999755859375</ele>
        <time>2026-06-15T10:54:16.000Z</time>
        <extensions>
          <ns3:TrackPointExtension>
            <ns3:atemp>16.0</ns3:atemp>
          </ns3:TrackPointExtension>
        </extensions>
      </trkpt>
      <trkpt lat="42.5610376708209514617919921875" lon="20.07256932556629180908203125">
        <ele>2010</ele>
        <time>2026-06-15T10:54:17.000Z</time>
        <extensions>
          <ns3:TrackPointExtension>
            <ns3:atemp>16.0</ns3:atemp>
          </ns3:TrackPointExtension>
        </extensions>
      </trkpt>
      <trkpt lat="42.56104177795350551605224609375" lon="20.07251341827213764190673828125">
        <ele>2010.199951171875</ele>
        <time>2026-06-15T10:54:18.000Z</time>
        <extensions>
          <ns3:TrackPointExtension>
            <ns3:atemp>16.0</ns3:atemp>
          </ns3:TrackPointExtension>
        </extensions>
      </trkpt>
      <trkpt lat="42.5610544346272945404052734375" lon="20.0724648870527744293212890625">
        <ele>2010.4000244140625</ele>
        <time>2026-06-15T10:54:19.000Z</time>
        <extensions>
          <ns3:TrackPointExtension>
            <ns3:atemp>16.0</ns3:atemp>
          </ns3:TrackPointExtension>
        </extensions>
      </trkpt>
      <trkpt lat="42.561068348586559295654296875" lon="20.07243345491588115692138671875">
        <ele>2010.5999755859375</ele>
        <time>2026-06-15T10:54:20.000Z</time>
        <extensions>
          <ns3:TrackPointExtension>
            <ns3:atemp>16.0</ns3:atemp>
          </ns3:TrackPointExtension>
        </extensions>
      </trkpt>
      <trkpt lat="42.56108318455517292022705078125" lon="20.072399340569972991943359375">
        <ele>2010.800048828125</ele>
        <time>2026-06-15T10:54:21.000Z</time>
        <extensions>
          <ns3:TrackPointExtension>
            <ns3:atemp>16.0</ns3:atemp>
          </ns3:TrackPointExtension>
        </extensions>
      </trkpt>
      <trkpt lat="42.56110196001827716827392578125" lon="20.07237092591822147369384765625">
        <ele>2010.800048828125</ele>
        <time>2026-06-15T10:54:22.000Z</time>
        <extensions>
          <ns3:TrackPointExtension>
            <ns3:atemp>16.0</ns3:atemp>
          </ns3:TrackPointExtension>
        </extensions>
      </trkpt>
      <trkpt lat="42.56112408824265003204345703125" lon="20.072344355285167694091796875">
        <ele>2011</ele>
        <time>2026-06-15T10:54:23.000Z</time>
        <extensions>
          <ns3:TrackPointExtension>
            <ns3:atemp>16.0</ns3:atemp>
          </ns3:TrackPointExtension>
        </extensions>
      </trkpt>
      <trkpt lat="42.56114386953413486480712890625" lon="20.07230915129184722900390625">
        <ele>2011</ele>
        <time>2026-06-15T10:54:24.000Z</time>
        <extensions>
          <ns3:TrackPointExtension>
            <ns3:atemp>16.0</ns3:atemp>
          </ns3:TrackPointExtension>
        </extensions>
      </trkpt>
      <trkpt lat="42.56116432137787342071533203125" lon="20.0722814910113811492919921875">
        <ele>2011.199951171875</ele>
        <time>2026-06-15T10:54:25.000Z</time>
        <extensions>
          <ns3:TrackPointExtension>
            <ns3:atemp>16.0</ns3:atemp>
          </ns3:TrackPointExtension>
        </extensions>
      </trkpt>
      <trkpt lat="42.5611841864883899688720703125" lon="20.07224888540804386138916015625">
        <ele>2011.199951171875</ele>
        <time>2026-06-15T10:54:26.000Z</time>
        <extensions>
          <ns3:TrackPointExtension>
            <ns3:atemp>16.0</ns3:atemp>
          </ns3:TrackPointExtension>
        </extensions>
      </trkpt>
      <trkpt lat="42.56120078265666961669921875" lon="20.0722144357860088348388671875">
        <ele>2011.4000244140625</ele>
        <time>2026-06-15T10:54:27.000Z</time>
        <extensions>
          <ns3:TrackPointExtension>
            <ns3:atemp>16.0</ns3:atemp>
          </ns3:TrackPointExtension>
        </extensions>
      </trkpt>
      <trkpt lat="42.561217881739139556884765625" lon="20.07217529229819774627685546875">
        <ele>2011.5999755859375</ele>
        <time>2026-06-15T10:54:28.000Z</time>
        <extensions>
          <ns3:TrackPointExtension>
            <ns3:atemp>16.0</ns3:atemp>
          </ns3:TrackPointExtension>
        </extensions>
      </trkpt>
      <trkpt lat="42.56123439408838748931884765625" lon="20.07213422097265720367431640625">
        <ele>2011.800048828125</ele>
        <time>2026-06-15T10:54:29.000Z</time>
        <extensions>
          <ns3:TrackPointExtension>
            <ns3:atemp>16.0</ns3:atemp>
          </ns3:TrackPointExtension>
        </extensions>
      </trkpt>
      <trkpt lat="42.5612478889524936676025390625" lon="20.0720979273319244384765625">
        <ele>2012</ele>
        <time>2026-06-15T10:54:30.000Z</time>
        <extensions>
          <ns3:TrackPointExtension>
            <ns3:atemp>16.0</ns3:atemp>
          </ns3:TrackPointExtension>
        </extensions>
      </trkpt>
      <trkpt lat="42.5612604618072509765625" lon="20.0720536708831787109375">
        <ele>2012.4000244140625</ele>
        <time>2026-06-15T10:54:31.000Z</time>
        <extensions>
          <ns3:TrackPointExtension>
            <ns3:atemp>16.0</ns3:atemp>
          </ns3:TrackPointExtension>
        </extensions>
      </trkpt>
      <trkpt lat="42.56127278320491313934326171875" lon="20.0720068998634815216064453125">
        <ele>2012.800048828125</ele>
        <time>2026-06-15T10:54:32.000Z</time>
        <extensions>
          <ns3:TrackPointExtension>
            <ns3:atemp>16.0</ns3:atemp>
          </ns3:TrackPointExtension>
        </extensions>
      </trkpt>
      <trkpt lat="42.56129331886768341064453125" lon="20.07195987738668918609619140625">
        <ele>2013</ele>
        <time>2026-06-15T10:54:33.000Z</time>
        <extensions>
          <ns3:TrackPointExtension>
            <ns3:atemp>16.0</ns3:atemp>
          </ns3:TrackPointExtension>
        </extensions>
      </trkpt>
      <trkpt lat="42.5613216497004032135009765625" lon="20.071925930678844451904296875">
        <ele>2013.199951171875</ele>
        <time>2026-06-15T10:54:34.000Z</time>
        <extensions>
          <ns3:TrackPointExtension>
            <ns3:atemp>16.0</ns3:atemp>
          </ns3:TrackPointExtension>
        </extensions>
      </trkpt>
      <trkpt lat="42.56135090254247188568115234375" lon="20.07189768366515636444091796875">
        <ele>2013.4000244140625</ele>
        <time>2026-06-15T10:54:35.000Z</time>
        <extensions>
          <ns3:TrackPointExtension>
            <ns3:atemp>16.0</ns3:atemp>
          </ns3:TrackPointExtension>
        </extensions>
      </trkpt>
      <trkpt lat="42.56137688644230365753173828125" lon="20.0718670897185802459716796875">
        <ele>2013.4000244140625</ele>
        <time>2026-06-15T10:54:36.000Z</time>
        <extensions>
          <ns3:TrackPointExtension>
            <ns3:atemp>16.0</ns3:atemp>
          </ns3:TrackPointExtension>
        </extensions>
      </trkpt>
      <trkpt lat="42.561398260295391082763671875" lon="20.071828365325927734375">
        <ele>2013.5999755859375</ele>
        <time>2026-06-15T10:54:37.000Z</time>
        <extensions>
          <ns3:TrackPointExtension>
            <ns3:atemp>16.0</ns3:atemp>
          </ns3:TrackPointExtension>
        </extensions>
      </trkpt>
      <trkpt lat="42.5614269264042377471923828125" lon="20.07178687490522861480712890625">
        <ele>2013.5999755859375</ele>
        <time>2026-06-15T10:54:38.000Z</time>
        <extensions>
          <ns3:TrackPointExtension>
            <ns3:atemp>16.0</ns3:atemp>
          </ns3:TrackPointExtension>
        </extensions>
      </trkpt>
      <trkpt lat="42.5614522397518157958984375" lon="20.07174664177000522613525390625">
        <ele>2013.800048828125</ele>
        <time>2026-06-15T10:54:39.000Z</time>
        <extensions>
          <ns3:TrackPointExtension>
            <ns3:atemp>16.0</ns3:atemp>
          </ns3:TrackPointExtension>
        </extensions>
      </trkpt>
      <trkpt lat="42.5614731945097446441650390625" lon="20.0717014633119106292724609375">
        <ele>2013.800048828125</ele>
        <time>2026-06-15T10:54:40.000Z</time>
        <extensions>
          <ns3:TrackPointExtension>
            <ns3:atemp>16.0</ns3:atemp>
          </ns3:TrackPointExtension>
        </extensions>
      </trkpt>
      <trkpt lat="42.5614897906780242919921875" lon="20.07165662012994289398193359375">
        <ele>2014</ele>
        <time>2026-06-15T10:54:41.000Z</time>
        <extensions>
          <ns3:TrackPointExtension>
            <ns3:atemp>16.0</ns3:atemp>
          </ns3:TrackPointExtension>
        </extensions>
      </trkpt>
      <trkpt lat="42.561509571969509124755859375" lon="20.07160934619605541229248046875">
        <ele>2014.199951171875</ele>
        <time>2026-06-15T10:54:42.000Z</time>
        <extensions>
          <ns3:TrackPointExtension>
            <ns3:atemp>16.0</ns3:atemp>
          </ns3:TrackPointExtension>
        </extensions>
      </trkpt>
      <trkpt lat="42.5615291856229305267333984375" lon="20.07155972532927989959716796875">
        <ele>2014.4000244140625</ele>
        <time>2026-06-15T10:54:43.000Z</time>
        <extensions>
          <ns3:TrackPointExtension>
            <ns3:atemp>16.0</ns3:atemp>
          </ns3:TrackPointExtension>
        </extensions>
      </trkpt>
      <trkpt lat="42.56154703907668590545654296875" lon="20.07151245139539241790771484375">
        <ele>2014.800048828125</ele>
        <time>2026-06-15T10:54:44.000Z</time>
        <extensions>
          <ns3:TrackPointExtension>
            <ns3:atemp>16.0</ns3:atemp>
          </ns3:TrackPointExtension>
        </extensions>
      </trkpt>
      <trkpt lat="42.56156195886433124542236328125" lon="20.07145981304347515106201171875">
        <ele>2015</ele>
        <time>2026-06-15T10:54:45.000Z</time>
        <extensions>
          <ns3:TrackPointExtension>
            <ns3:atemp>16.0</ns3:atemp>
          </ns3:TrackPointExtension>
        </extensions>
      </trkpt>
      <trkpt lat="42.56157553754746913909912109375" lon="20.0714054144918918609619140625">
        <ele>2015.199951171875</ele>
        <time>2026-06-15T10:54:46.000Z</time>
        <extensions>
          <ns3:TrackPointExtension>
            <ns3:atemp>16.0</ns3:atemp>
          </ns3:TrackPointExtension>
        </extensions>
      </trkpt>
      <trkpt lat="42.5615845061838626861572265625" lon="20.0713464058935642242431640625">
        <ele>2015.199951171875</ele>
        <time>2026-06-15T10:54:47.000Z</time>
        <extensions>
          <ns3:TrackPointExtension>
            <ns3:atemp>16.0</ns3:atemp>
          </ns3:TrackPointExtension>
        </extensions>
      </trkpt>
      <trkpt lat="42.56159448064863681793212890625" lon="20.071284212172031402587890625">
        <ele>2015.4000244140625</ele>
        <time>2026-06-15T10:54:48.000Z</time>
        <extensions>
          <ns3:TrackPointExtension>
            <ns3:atemp>16.0</ns3:atemp>
          </ns3:TrackPointExtension>
        </extensions>
      </trkpt>
      <trkpt lat="42.56160520948469638824462890625" lon="20.071227550506591796875">
        <ele>2015.4000244140625</ele>
        <time>2026-06-15T10:54:49.000Z</time>
        <extensions>
          <ns3:TrackPointExtension>
            <ns3:atemp>16.0</ns3:atemp>
          </ns3:TrackPointExtension>
        </extensions>
      </trkpt>
      <trkpt lat="42.56161241792142391204833984375" lon="20.07117868401110172271728515625">
        <ele>2015.4000244140625</ele>
        <time>2026-06-15T10:54:50.000Z</time>
        <extensions>
          <ns3:TrackPointExtension>
            <ns3:atemp>16.0</ns3:atemp>
          </ns3:TrackPointExtension>
        </extensions>
      </trkpt>
      <trkpt lat="42.56162163801491260528564453125" lon="20.07113476283848285675048828125">
        <ele>2015.4000244140625</ele>
        <time>2026-06-15T10:54:51.000Z</time>
        <extensions>
          <ns3:TrackPointExtension>
            <ns3:atemp>16.0</ns3:atemp>
          </ns3:TrackPointExtension>
        </extensions>
      </trkpt>
      <trkpt lat="42.561638318002223968505859375" lon="20.07109872065484523773193359375">
        <ele>2015.5999755859375</ele>
        <time>2026-06-15T10:54:52.000Z</time>
        <extensions>
          <ns3:TrackPointExtension>
            <ns3:atemp>16.0</ns3:atemp>
          </ns3:TrackPointExtension>
        </extensions>
      </trkpt>
      <trkpt lat="42.561649382114410400390625" lon="20.0710671208798885345458984375">
        <ele>2015.5999755859375</ele>
        <time>2026-06-15T10:54:53.000Z</time>
        <extensions>
          <ns3:TrackPointExtension>
            <ns3:atemp>16.0</ns3:atemp>
          </ns3:TrackPointExtension>
        </extensions>
      </trkpt>
      <trkpt lat="42.56165952421724796295166015625" lon="20.0710305757820606231689453125">
        <ele>2015.800048828125</ele>
        <time>2026-06-15T10:54:54.000Z</time>
        <extensions>
          <ns3:TrackPointExtension>
            <ns3:atemp>16.0</ns3:atemp>
          </ns3:TrackPointExtension>
        </extensions>
      </trkpt>
      <trkpt lat="42.5616693310439586639404296875" lon="20.07099059410393238067626953125">
        <ele>2016</ele>
        <time>2026-06-15T10:54:55.000Z</time>
        <extensions>
          <ns3:TrackPointExtension>
            <ns3:atemp>16.0</ns3:atemp>
          </ns3:TrackPointExtension>
        </extensions>
      </trkpt>
      <trkpt lat="42.5616736896336078643798828125" lon="20.07094248197972774505615234375">
        <ele>2016.199951171875</ele>
        <time>2026-06-15T10:54:56.000Z</time>
        <extensions>
          <ns3:TrackPointExtension>
            <ns3:atemp>16.0</ns3:atemp>
          </ns3:TrackPointExtension>
        </extensions>
      </trkpt>
      <trkpt lat="42.56168047897517681121826171875" lon="20.07089219056069850921630859375">
        <ele>2016.199951171875</ele>
        <time>2026-06-15T10:54:57.000Z</time>
        <extensions>
          <ns3:TrackPointExtension>
            <ns3:atemp>16.0</ns3:atemp>
          </ns3:TrackPointExtension>
        </extensions>
      </trkpt>
      <trkpt lat="42.56168366409838199615478515625" lon="20.0708398036658763885498046875">
        <ele>2016.4000244140625</ele>
        <time>2026-06-15T10:54:58.000Z</time>
        <extensions>
          <ns3:TrackPointExtension>
            <ns3:atemp>16.0</ns3:atemp>
          </ns3:TrackPointExtension>
        </extensions>
      </trkpt>
      <trkpt lat="42.56168567575514316558837890625" lon="20.0707794539630413055419921875">
        <ele>2016.5999755859375</ele>
        <time>2026-06-15T10:54:59.000Z</time>
        <extensions>
          <ns3:TrackPointExtension>
            <ns3:atemp>16.0</ns3:atemp>
          </ns3:TrackPointExtension>
        </extensions>
      </trkpt>
      <trkpt lat="42.56167494691908359527587890625" lon="20.07072606123983860015869140625">
        <ele>2016.800048828125</ele>
        <time>2026-06-15T10:55:00.000Z</time>
        <extensions>
          <ns3:TrackPointExtension>
            <ns3:atemp>16.0</ns3:atemp>
          </ns3:TrackPointExtension>
        </extensions>
      </trkpt>
      <trkpt lat="42.56165667437016963958740234375" lon="20.0706815533339977264404296875">
        <ele>2017</ele>
        <time>2026-06-15T10:55:01.000Z</time>
        <extensions>
          <ns3:TrackPointExtension>
            <ns3:atemp>16.0</ns3:atemp>
          </ns3:TrackPointExtension>
        </extensions>
      </trkpt>
      <trkpt lat="42.561627924442291259765625" lon="20.070656575262546539306640625">
        <ele>2017.4000244140625</ele>
        <time>2026-06-15T10:55:02.000Z</time>
        <extensions>
          <ns3:TrackPointExtension>
            <ns3:atemp>16.0</ns3:atemp>
          </ns3:TrackPointExtension>
        </extensions>
      </trkpt>
      <trkpt lat="42.56159565411508083343505859375" lon="20.07065565325319766998291015625">
        <ele>2018</ele>
        <time>2026-06-15T10:55:03.000Z</time>
        <extensions>
          <ns3:TrackPointExtension>
            <ns3:atemp>16.0</ns3:atemp>
          </ns3:TrackPointExtension>
        </extensions>
      </trkpt>
      <trkpt lat="42.56156614981591701507568359375" lon="20.07067124359309673309326171875">
        <ele>2018.4000244140625</ele>
        <time>2026-06-15T10:55:04.000Z</time>
        <extensions>
          <ns3:TrackPointExtension>
            <ns3:atemp>16.0</ns3:atemp>
          </ns3:TrackPointExtension>
        </extensions>
      </trkpt>
      <trkpt lat="42.5615469552576541900634765625" lon="20.0706932879984378814697265625">
        <ele>2019.199951171875</ele>
        <time>2026-06-15T10:55:05.000Z</time>
        <extensions>
          <ns3:TrackPointExtension>
            <ns3:atemp>16.0</ns3:atemp>
          </ns3:TrackPointExtension>
        </extensions>
      </trkpt>
      <trkpt lat="42.5615332089364528656005859375" lon="20.07071533240377902984619140625">
        <ele>2019.800048828125</ele>
        <time>2026-06-15T10:55:06.000Z</time>
        <extensions>
          <ns3:TrackPointExtension>
            <ns3:atemp>16.0</ns3:atemp>
          </ns3:TrackPointExtension>
        </extensions>
      </trkpt>
      <trkpt lat="42.561520300805568695068359375" lon="20.07074198685586452484130859375">
        <ele>2020.199951171875</ele>
        <time>2026-06-15T10:55:07.000Z</time>
        <extensions>
          <ns3:TrackPointExtension>
            <ns3:atemp>16.0</ns3:atemp>
          </ns3:TrackPointExtension>
        </extensions>
      </trkpt>
      <trkpt lat="42.56150521337985992431640625" lon="20.07076914422214031219482421875">
        <ele>2020.800048828125</ele>
        <time>2026-06-15T10:55:08.000Z</time>
        <extensions>
          <ns3:TrackPointExtension>
            <ns3:atemp>16.0</ns3:atemp>
          </ns3:TrackPointExtension>
        </extensions>
      </trkpt>
      <trkpt lat="42.56148652173578739166259765625" lon="20.070797391235828399658203125">
        <ele>2021.4000244140625</ele>
        <time>2026-06-15T10:55:09.000Z</time>
        <extensions>
          <ns3:TrackPointExtension>
            <ns3:atemp>16.0</ns3:atemp>
          </ns3:TrackPointExtension>
        </extensions>
      </trkpt>
      <trkpt lat="42.56147244013845920562744140625" lon="20.070829577744007110595703125">
        <ele>2021.800048828125</ele>
        <time>2026-06-15T10:55:10.000Z</time>
        <extensions>
          <ns3:TrackPointExtension>
            <ns3:atemp>16.0</ns3:atemp>
          </ns3:TrackPointExtension>
        </extensions>
      </trkpt>
      <trkpt lat="42.5614554248750209808349609375" lon="20.07085765711963176727294921875">
        <ele>2022.199951171875</ele>
        <time>2026-06-15T10:55:11.000Z</time>
        <extensions>
          <ns3:TrackPointExtension>
            <ns3:atemp>16.0</ns3:atemp>
          </ns3:TrackPointExtension>
        </extensions>
      </trkpt>
      <trkpt lat="42.56143773905932903289794921875" lon="20.0708843953907489776611328125">
        <ele>2022.5999755859375</ele>
        <time>2026-06-15T10:55:12.000Z</time>
        <extensions>
          <ns3:TrackPointExtension>
            <ns3:atemp>16.0</ns3:atemp>
          </ns3:TrackPointExtension>
        </extensions>
      </trkpt>
      <trkpt lat="42.56141862832009792327880859375" lon="20.070910714566707611083984375">
        <ele>2022.800048828125</ele>
        <time>2026-06-15T10:55:13.000Z</time>
        <extensions>
          <ns3:TrackPointExtension>
            <ns3:atemp>16.0</ns3:atemp>
          </ns3:TrackPointExtension>
        </extensions>
      </trkpt>
      <trkpt lat="42.5613940693438053131103515625" lon="20.070932842791080474853515625">
        <ele>2023.199951171875</ele>
        <time>2026-06-15T10:55:14.000Z</time>
        <extensions>
          <ns3:TrackPointExtension>
            <ns3:atemp>16.0</ns3:atemp>
          </ns3:TrackPointExtension>
        </extensions>
      </trkpt>
      <trkpt lat="42.561375461518764495849609375" lon="20.07096159271895885467529296875">
        <ele>2023.4000244140625</ele>
        <time>2026-06-15T10:55:15.000Z</time>
        <extensions>
          <ns3:TrackPointExtension>
            <ns3:atemp>16.0</ns3:atemp>
          </ns3:TrackPointExtension>
        </extensions>
      </trkpt>
      <trkpt lat="42.561356015503406524658203125" lon="20.07099210284650325775146484375">
        <ele>2023.800048828125</ele>
        <time>2026-06-15T10:55:16.000Z</time>
        <extensions>
          <ns3:TrackPointExtension>
            <ns3:atemp>16.0</ns3:atemp>
          </ns3:TrackPointExtension>
        </extensions>
      </trkpt>
      <trkpt lat="42.56133782677352428436279296875" lon="20.07102194242179393768310546875">
        <ele>2024</ele>
        <time>2026-06-15T10:55:17.000Z</time>
        <extensions>
          <ns3:TrackPointExtension>
            <ns3:atemp>16.0</ns3:atemp>
          </ns3:TrackPointExtension>
        </extensions>
      </trkpt>
      <trkpt lat="42.5613196380436420440673828125" lon="20.0710523687303066253662109375">
        <ele>2024.199951171875</ele>
        <time>2026-06-15T10:55:18.000Z</time>
        <extensions>
          <ns3:TrackPointExtension>
            <ns3:atemp>16.0</ns3:atemp>
          </ns3:TrackPointExtension>
        </extensions>
      </trkpt>
      <trkpt lat="42.56130094639956951141357421875" lon="20.07108338177204132080078125">
        <ele>2024.4000244140625</ele>
        <time>2026-06-15T10:55:19.000Z</time>
        <extensions>
          <ns3:TrackPointExtension>
            <ns3:atemp>16.0</ns3:atemp>
          </ns3:TrackPointExtension>
        </extensions>
      </trkpt>
      <trkpt lat="42.561285607516765594482421875" lon="20.0711162388324737548828125">
        <ele>2024.4000244140625</ele>
        <time>2026-06-15T10:55:20.000Z</time>
        <extensions>
          <ns3:TrackPointExtension>
            <ns3:atemp>16.0</ns3:atemp>
          </ns3:TrackPointExtension>
        </extensions>
      </trkpt>
      <trkpt lat="42.56126875989139080047607421875" lon="20.07114549167454242706298828125">
        <ele>2024.5999755859375</ele>
        <time>2026-06-15T10:55:21.000Z</time>
        <extensions>
          <ns3:TrackPointExtension>
            <ns3:atemp>16.0</ns3:atemp>
          </ns3:TrackPointExtension>
        </extensions>
      </trkpt>
      <trkpt lat="42.5612542591989040374755859375" lon="20.07117901928722858428955078125">
        <ele>2024.5999755859375</ele>
        <time>2026-06-15T10:55:22.000Z</time>
        <extensions>
          <ns3:TrackPointExtension>
            <ns3:atemp>16.0</ns3:atemp>
          </ns3:TrackPointExtension>
        </extensions>
      </trkpt>
      <trkpt lat="42.56123724393546581268310546875" lon="20.0712074339389801025390625">
        <ele>2024.800048828125</ele>
        <time>2026-06-15T10:55:23.000Z</time>
        <extensions>
          <ns3:TrackPointExtension>
            <ns3:atemp>16.0</ns3:atemp>
          </ns3:TrackPointExtension>
        </extensions>
      </trkpt>
      <trkpt lat="42.56122064776718616485595703125" lon="20.0712344236671924591064453125">
        <ele>2025</ele>
        <time>2026-06-15T10:55:24.000Z</time>
        <extensions>
          <ns3:TrackPointExtension>
            <ns3:atemp>16.0</ns3:atemp>
          </ns3:TrackPointExtension>
        </extensions>
      </trkpt>
      <trkpt lat="42.5612076558172702789306640625" lon="20.0712535344064235687255859375">
        <ele>2025.4000244140625</ele>
        <time>2026-06-15T10:55:25.000Z</time>
        <extensions>
          <ns3:TrackPointExtension>
            <ns3:atemp>16.0</ns3:atemp>
          </ns3:TrackPointExtension>
        </extensions>
      </trkpt>
      <trkpt lat="42.56119139492511749267578125" lon="20.07127809338271617889404296875">
        <ele>2025.5999755859375</ele>
        <time>2026-06-15T10:55:26.000Z</time>
        <extensions>
          <ns3:TrackPointExtension>
            <ns3:atemp>16.0</ns3:atemp>
          </ns3:TrackPointExtension>
        </extensions>
      </trkpt>
      <trkpt lat="42.5611704401671886444091796875" lon="20.0713014788925647735595703125">
        <ele>2025.800048828125</ele>
        <time>2026-06-15T10:55:27.000Z</time>
        <extensions>
          <ns3:TrackPointExtension>
            <ns3:atemp>16.0</ns3:atemp>
          </ns3:TrackPointExtension>
        </extensions>
      </trkpt>
      <trkpt lat="42.5611463002860546112060546875" lon="20.0713215954601764678955078125">
        <ele>2026.199951171875</ele>
        <time>2026-06-15T10:55:28.000Z</time>
        <extensions>
          <ns3:TrackPointExtension>
            <ns3:atemp>16.0</ns3:atemp>
          </ns3:TrackPointExtension>
        </extensions>
      </trkpt>
      <trkpt lat="42.56112568080425262451171875" lon="20.0713361799716949462890625">
        <ele>2026.4000244140625</ele>
        <time>2026-06-15T10:55:29.000Z</time>
        <extensions>
          <ns3:TrackPointExtension>
            <ns3:atemp>16.0</ns3:atemp>
          </ns3:TrackPointExtension>
        </extensions>
      </trkpt>
      <trkpt lat="42.5611033849418163299560546875" lon="20.0713521055877208709716796875">
        <ele>2026.5999755859375</ele>
        <time>2026-06-15T10:55:30.000Z</time>
        <extensions>
          <ns3:TrackPointExtension>
            <ns3:atemp>16.0</ns3:atemp>
          </ns3:TrackPointExtension>
        </extensions>
      </trkpt>
      <trkpt lat="42.56108167581260204315185546875" lon="20.07137238979339599609375">
        <ele>2027</ele>
        <time>2026-06-15T10:55:31.000Z</time>
        <extensions>
          <ns3:TrackPointExtension>
            <ns3:atemp>16.0</ns3:atemp>
          </ns3:TrackPointExtension>
        </extensions>
      </trkpt>
      <trkpt lat="42.56106197834014892578125" lon="20.0713866390287876129150390625">
        <ele>2027.4000244140625</ele>
        <time>2026-06-15T10:55:32.000Z</time>
        <extensions>
          <ns3:TrackPointExtension>
            <ns3:atemp>16.0</ns3:atemp>
          </ns3:TrackPointExtension>
        </extensions>
      </trkpt>
      <trkpt lat="42.5610386766493320465087890625" lon="20.07139275781810283660888671875">
        <ele>2027.800048828125</ele>
        <time>2026-06-15T10:55:33.000Z</time>
        <extensions>
          <ns3:TrackPointExtension>
            <ns3:atemp>16.0</ns3:atemp>
          </ns3:TrackPointExtension>
        </extensions>
      </trkpt>
      <trkpt lat="42.5610142014920711517333984375" lon="20.07139946334064006805419921875">
        <ele>2028.199951171875</ele>
        <time>2026-06-15T10:55:34.000Z</time>
        <extensions>
          <ns3:TrackPointExtension>
            <ns3:atemp>16.0</ns3:atemp>
          </ns3:TrackPointExtension>
        </extensions>
      </trkpt>
      <trkpt lat="42.560989223420619964599609375" lon="20.07140918634831905364990234375">
        <ele>2028.5999755859375</ele>
        <time>2026-06-15T10:55:35.000Z</time>
        <extensions>
          <ns3:TrackPointExtension>
            <ns3:atemp>16.0</ns3:atemp>
          </ns3:TrackPointExtension>
        </extensions>
      </trkpt>
      <trkpt lat="42.5609615631401538848876953125" lon="20.0714235194027423858642578125">
        <ele>2028.800048828125</ele>
        <time>2026-06-15T10:55:36.000Z</time>
        <extensions>
          <ns3:TrackPointExtension>
            <ns3:atemp>16.0</ns3:atemp>
          </ns3:TrackPointExtension>
        </extensions>
      </trkpt>
      <trkpt lat="42.560936249792575836181640625" lon="20.07143097929656505584716796875">
        <ele>2029.199951171875</ele>
        <time>2026-06-15T10:55:37.000Z</time>
        <extensions>
          <ns3:TrackPointExtension>
            <ns3:atemp>16.0</ns3:atemp>
          </ns3:TrackPointExtension>
        </extensions>
      </trkpt>
      <trkpt lat="42.560910098254680633544921875" lon="20.0714476592838764190673828125">
        <ele>2029.5999755859375</ele>
        <time>2026-06-15T10:55:38.000Z</time>
        <extensions>
          <ns3:TrackPointExtension>
            <ns3:atemp>16.0</ns3:atemp>
          </ns3:TrackPointExtension>
        </extensions>
      </trkpt>
      <trkpt lat="42.56088335998356342315673828125" lon="20.07146383635699748992919921875">
        <ele>2030</ele>
        <time>2026-06-15T10:55:39.000Z</time>
        <extensions>
          <ns3:TrackPointExtension>
            <ns3:atemp>16.0</ns3:atemp>
          </ns3:TrackPointExtension>
        </extensions>
      </trkpt>
      <trkpt lat="42.56086190231144428253173828125" lon="20.071482360363006591796875">
        <ele>2030.5999755859375</ele>
        <time>2026-06-15T10:55:40.000Z</time>
        <extensions>
          <ns3:TrackPointExtension>
            <ns3:atemp>16.0</ns3:atemp>
          </ns3:TrackPointExtension>
        </extensions>
      </trkpt>
      <trkpt lat="42.56084832362830638885498046875" lon="20.0715019740164279937744140625">
        <ele>2031</ele>
        <time>2026-06-15T10:55:41.000Z</time>
        <extensions>
          <ns3:TrackPointExtension>
            <ns3:atemp>16.0</ns3:atemp>
          </ns3:TrackPointExtension>
        </extensions>
      </trkpt>
      <trkpt lat="42.5608341582119464874267578125" lon="20.07152301259338855743408203125">
        <ele>2031.5999755859375</ele>
        <time>2026-06-15T10:55:42.000Z</time>
        <extensions>
          <ns3:TrackPointExtension>
            <ns3:atemp>16.0</ns3:atemp>
          </ns3:TrackPointExtension>
        </extensions>
      </trkpt>
      <trkpt lat="42.5608133710920810699462890625" lon="20.07154178805649280548095703125">
        <ele>2032</ele>
        <time>2026-06-15T10:55:43.000Z</time>
        <extensions>
          <ns3:TrackPointExtension>
            <ns3:atemp>16.0</ns3:atemp>
          </ns3:TrackPointExtension>
        </extensions>
      </trkpt>
      <trkpt lat="42.5607892312109470367431640625" lon="20.0715549476444721221923828125">
        <ele>2032.4000244140625</ele>
        <time>2026-06-15T10:55:44.000Z</time>
        <extensions>
          <ns3:TrackPointExtension>
            <ns3:atemp>16.0</ns3:atemp>
          </ns3:TrackPointExtension>
        </extensions>
      </trkpt>
      <trkpt lat="42.56077255122363567352294921875" lon="20.07157464511692523956298828125">
        <ele>2033</ele>
        <time>2026-06-15T10:55:45.000Z</time>
        <extensions>
          <ns3:TrackPointExtension>
            <ns3:atemp>15.0</ns3:atemp>
          </ns3:TrackPointExtension>
        </extensions>
      </trkpt>
      <trkpt lat="42.560755200684070587158203125" lon="20.0715871341526508331298828125">
        <ele>2033.4000244140625</ele>
        <time>2026-06-15T10:55:46.000Z</time>
        <extensions>
          <ns3:TrackPointExtension>
            <ns3:atemp>15.0</ns3:atemp>
          </ns3:TrackPointExtension>
        </extensions>
      </trkpt>
      <trkpt lat="42.56073902361094951629638671875" lon="20.071596018970012664794921875">
        <ele>2033.800048828125</ele>
        <time>2026-06-15T10:55:47.000Z</time>
        <extensions>
          <ns3:TrackPointExtension>
            <ns3:atemp>15.0</ns3:atemp>
          </ns3:TrackPointExtension>
        </extensions>
      </trkpt>
      <trkpt lat="42.56071773357689380645751953125" lon="20.0716025568544864654541015625">
        <ele>2034</ele>
        <time>2026-06-15T10:55:48.000Z</time>
        <extensions>
          <ns3:TrackPointExtension>
            <ns3:atemp>15.0</ns3:atemp>
          </ns3:TrackPointExtension>
        </extensions>
      </trkpt>
      <trkpt lat="42.56068982183933258056640625" lon="20.07161387242376804351806640625">
        <ele>2034.4000244140625</ele>
        <time>2026-06-15T10:55:49.000Z</time>
        <extensions>
          <ns3:TrackPointExtension>
            <ns3:atemp>15.0</ns3:atemp>
          </ns3:TrackPointExtension>
        </extensions>
      </trkpt>
      <trkpt lat="42.56066375412046909332275390625" lon="20.07163130678236484527587890625">
        <ele>2034.5999755859375</ele>
        <time>2026-06-15T10:55:50.000Z</time>
        <extensions>
          <ns3:TrackPointExtension>
            <ns3:atemp>15.0</ns3:atemp>
          </ns3:TrackPointExtension>
        </extensions>
      </trkpt>
      <trkpt lat="42.5606393627822399139404296875" lon="20.07165511138737201690673828125">
        <ele>2034.800048828125</ele>
        <time>2026-06-15T10:55:51.000Z</time>
        <extensions>
          <ns3:TrackPointExtension>
            <ns3:atemp>15.0</ns3:atemp>
          </ns3:TrackPointExtension>
        </extensions>
      </trkpt>
      <trkpt lat="42.560614384710788726806640625" lon="20.07167707197368144989013671875">
        <ele>2035</ele>
        <time>2026-06-15T10:55:52.000Z</time>
        <extensions>
          <ns3:TrackPointExtension>
            <ns3:atemp>15.0</ns3:atemp>
          </ns3:TrackPointExtension>
        </extensions>
      </trkpt>
      <trkpt lat="42.56058781407773494720458984375" lon="20.07169484160840511322021484375">
        <ele>2035.199951171875</ele>
        <time>2026-06-15T10:55:53.000Z</time>
        <extensions>
          <ns3:TrackPointExtension>
            <ns3:atemp>15.0</ns3:atemp>
          </ns3:TrackPointExtension>
        </extensions>
      </trkpt>
      <trkpt lat="42.56055914796888828277587890625" lon="20.07171479053795337677001953125">
        <ele>2035.4000244140625</ele>
        <time>2026-06-15T10:55:54.000Z</time>
        <extensions>
          <ns3:TrackPointExtension>
            <ns3:atemp>15.0</ns3:atemp>
          </ns3:TrackPointExtension>
        </extensions>
      </trkpt>
      <trkpt lat="42.56052930839359760284423828125" lon="20.0717373378574848175048828125">
        <ele>2035.5999755859375</ele>
        <time>2026-06-15T10:55:55.000Z</time>
        <extensions>
          <ns3:TrackPointExtension>
            <ns3:atemp>15.0</ns3:atemp>
          </ns3:TrackPointExtension>
        </extensions>
      </trkpt>
      <trkpt lat="42.56050013937056064605712890625" lon="20.07175653241574764251708984375">
        <ele>2036</ele>
        <time>2026-06-15T10:55:56.000Z</time>
        <extensions>
          <ns3:TrackPointExtension>
            <ns3:atemp>15.0</ns3:atemp>
          </ns3:TrackPointExtension>
        </extensions>
      </trkpt>
      <trkpt lat="42.56046309135854244232177734375" lon="20.07176407612860202789306640625">
        <ele>2036.4000244140625</ele>
        <time>2026-06-15T10:55:57.000Z</time>
        <extensions>
          <ns3:TrackPointExtension>
            <ns3:atemp>15.0</ns3:atemp>
          </ns3:TrackPointExtension>
        </extensions>
      </trkpt>
      <trkpt lat="42.56043660454452037811279296875" lon="20.0717584602534770965576171875">
        <ele>2037.199951171875</ele>
        <time>2026-06-15T10:55:58.000Z</time>
        <extensions>
          <ns3:TrackPointExtension>
            <ns3:atemp>15.0</ns3:atemp>
          </ns3:TrackPointExtension>
        </extensions>
      </trkpt>
      <trkpt lat="42.56042218767106533050537109375" lon="20.07175133563578128814697265625">
        <ele>2037.800048828125</ele>
        <time>2026-06-15T10:55:59.000Z</time>
        <extensions>
          <ns3:TrackPointExtension>
            <ns3:atemp>15.0</ns3:atemp>
          </ns3:TrackPointExtension>
        </extensions>
      </trkpt>
      <trkpt lat="42.56041221320629119873046875" lon="20.071764327585697174072265625">
        <ele>2038.199951171875</ele>
        <time>2026-06-15T10:56:00.000Z</time>
        <extensions>
          <ns3:TrackPointExtension>
            <ns3:atemp>15.0</ns3:atemp>
          </ns3:TrackPointExtension>
        </extensions>
      </trkpt>
      <trkpt lat="42.56040575914084911346435546875" lon="20.07176625542342662811279296875">
        <ele>2038.800048828125</ele>
        <time>2026-06-15T10:56:01.000Z</time>
        <extensions>
          <ns3:TrackPointExtension>
            <ns3:atemp>15.0</ns3:atemp>
          </ns3:TrackPointExtension>
        </extensions>
      </trkpt>
      <trkpt lat="42.56040575914084911346435546875" lon="20.07176625542342662811279296875">
        <ele>2039</ele>
        <time>2026-06-15T10:56:02.000Z</time>
        <extensions>
          <ns3:TrackPointExtension>
            <ns3:atemp>15.0</ns3:atemp>
          </ns3:TrackPointExtension>
        </extensions>
      </trkpt>
      <trkpt lat="42.56040575914084911346435546875" lon="20.07176625542342662811279296875">
        <ele>2039.199951171875</ele>
        <time>2026-06-15T10:56:03.000Z</time>
        <extensions>
          <ns3:TrackPointExtension>
            <ns3:atemp>16.0</ns3:atemp>
          </ns3:TrackPointExtension>
        </extensions>
      </trkpt>
      <trkpt lat="42.56040575914084911346435546875" lon="20.07176625542342662811279296875">
        <ele>2039.4000244140625</ele>
        <time>2026-06-15T10:56:04.000Z</time>
        <extensions>
          <ns3:TrackPointExtension>
            <ns3:atemp>15.0</ns3:atemp>
          </ns3:TrackPointExtension>
        </extensions>
      </trkpt>
      <trkpt lat="42.56040575914084911346435546875" lon="20.07176625542342662811279296875">
        <ele>2039.199951171875</ele>
        <time>2026-06-15T10:56:05.000Z</time>
        <extensions>
          <ns3:TrackPointExtension>
            <ns3:atemp>16.0</ns3:atemp>
          </ns3:TrackPointExtension>
        </extensions>
      </trkpt>
      <trkpt lat="42.56040575914084911346435546875" lon="20.07176625542342662811279296875">
        <ele>2039.199951171875</ele>
        <time>2026-06-15T10:56:06.000Z</time>
        <extensions>
          <ns3:TrackPointExtension>
            <ns3:atemp>16.0</ns3:atemp>
          </ns3:TrackPointExtension>
        </extensions>
      </trkpt>
      <trkpt lat="42.56040575914084911346435546875" lon="20.07176625542342662811279296875">
        <ele>2039</ele>
        <time>2026-06-15T10:56:07.000Z</time>
        <extensions>
          <ns3:TrackPointExtension>
            <ns3:atemp>16.0</ns3:atemp>
          </ns3:TrackPointExtension>
        </extensions>
      </trkpt>
      <trkpt lat="42.56040575914084911346435546875" lon="20.07176625542342662811279296875">
        <ele>2039</ele>
        <time>2026-06-15T10:56:08.000Z</time>
        <extensions>
          <ns3:TrackPointExtension>
            <ns3:atemp>16.0</ns3:atemp>
          </ns3:TrackPointExtension>
        </extensions>
      </trkpt>
      <trkpt lat="42.56040575914084911346435546875" lon="20.07176625542342662811279296875">
        <ele>2039</ele>
        <time>2026-06-15T10:56:09.000Z</time>
        <extensions>
          <ns3:TrackPointExtension>
            <ns3:atemp>16.0</ns3:atemp>
          </ns3:TrackPointExtension>
        </extensions>
      </trkpt>
      <trkpt lat="42.56040575914084911346435546875" lon="20.07176625542342662811279296875">
        <ele>2039</ele>
        <time>2026-06-15T10:56:10.000Z</time>
        <extensions>
          <ns3:TrackPointExtension>
            <ns3:atemp>15.0</ns3:atemp>
          </ns3:TrackPointExtension>
        </extensions>
      </trkpt>
      <trkpt lat="42.56040575914084911346435546875" lon="20.07176625542342662811279296875">
        <ele>2039</ele>
        <time>2026-06-15T10:56:11.000Z</time>
        <extensions>
          <ns3:TrackPointExtension>
            <ns3:atemp>16.0</ns3:atemp>
          </ns3:TrackPointExtension>
        </extensions>
      </trkpt>
      <trkpt lat="42.56040575914084911346435546875" lon="20.07176625542342662811279296875">
        <ele>2038.800048828125</ele>
        <time>2026-06-15T10:56:12.000Z</time>
        <extensions>
          <ns3:TrackPointExtension>
            <ns3:atemp>16.0</ns3:atemp>
          </ns3:TrackPointExtension>
        </extensions>
      </trkpt>
      <trkpt lat="42.56040575914084911346435546875" lon="20.07176625542342662811279296875">
        <ele>2038.800048828125</ele>
        <time>2026-06-15T10:56:13.000Z</time>
        <extensions>
          <ns3:TrackPointExtension>
            <ns3:atemp>16.0</ns3:atemp>
          </ns3:TrackPointExtension>
        </extensions>
      </trkpt>
      <trkpt lat="42.56040575914084911346435546875" lon="20.07176625542342662811279296875">
        <ele>2038.800048828125</ele>
        <time>2026-06-15T10:56:14.000Z</time>
        <extensions>
          <ns3:TrackPointExtension>
            <ns3:atemp>16.0</ns3:atemp>
          </ns3:TrackPointExtension>
        </extensions>
      </trkpt>
      <trkpt lat="42.56040575914084911346435546875" lon="20.07176625542342662811279296875">
        <ele>2038.800048828125</ele>
        <time>2026-06-15T10:56:15.000Z</time>
        <extensions>
          <ns3:TrackPointExtension>
            <ns3:atemp>16.0</ns3:atemp>
          </ns3:TrackPointExtension>
        </extensions>
      </trkpt>
      <trkpt lat="42.56040575914084911346435546875" lon="20.07176625542342662811279296875">
        <ele>2038.800048828125</ele>
        <time>2026-06-15T10:56:16.000Z</time>
        <extensions>
          <ns3:TrackPointExtension>
            <ns3:atemp>16.0</ns3:atemp>
          </ns3:TrackPointExtension>
        </extensions>
      </trkpt>
      <trkpt lat="42.56040575914084911346435546875" lon="20.07176625542342662811279296875">
        <ele>2038.800048828125</ele>
        <time>2026-06-15T10:56:17.000Z</time>
        <extensions>
          <ns3:TrackPointExtension>
            <ns3:atemp>16.0</ns3:atemp>
          </ns3:TrackPointExtension>
        </extensions>
      </trkpt>
      <trkpt lat="42.56040575914084911346435546875" lon="20.07176625542342662811279296875">
        <ele>2038.800048828125</ele>
        <time>2026-06-15T10:56:18.000Z</time>
        <extensions>
          <ns3:TrackPointExtension>
            <ns3:atemp>16.0</ns3:atemp>
          </ns3:TrackPointExtension>
        </extensions>
      </trkpt>
      <trkpt lat="42.5604096986353397369384765625" lon="20.07176575250923633575439453125">
        <ele>2038.800048828125</ele>
        <time>2026-06-15T10:56:19.000Z</time>
        <extensions>
          <ns3:TrackPointExtension>
            <ns3:atemp>16.0</ns3:atemp>
          </ns3:TrackPointExtension>
        </extensions>
      </trkpt>
      <trkpt lat="42.56042000837624073028564453125" lon="20.07175535894930362701416015625">
        <ele>2038.800048828125</ele>
        <time>2026-06-15T10:56:20.000Z</time>
        <extensions>
          <ns3:TrackPointExtension>
            <ns3:atemp>16.0</ns3:atemp>
          </ns3:TrackPointExtension>
        </extensions>
      </trkpt>
      <trkpt lat="42.5604187510907649993896484375" lon="20.07174052298069000244140625">
        <ele>2038.800048828125</ele>
        <time>2026-06-15T10:56:21.000Z</time>
        <extensions>
          <ns3:TrackPointExtension>
            <ns3:atemp>15.0</ns3:atemp>
          </ns3:TrackPointExtension>
        </extensions>
      </trkpt>
      <trkpt lat="42.5604103691875934600830078125" lon="20.07173222489655017852783203125">
        <ele>2038.800048828125</ele>
        <time>2026-06-15T10:56:22.000Z</time>
        <extensions>
          <ns3:TrackPointExtension>
            <ns3:atemp>15.0</ns3:atemp>
          </ns3:TrackPointExtension>
        </extensions>
      </trkpt>
      <trkpt lat="42.5604021549224853515625" lon="20.07171696983277797698974609375">
        <ele>2038.800048828125</ele>
        <time>2026-06-15T10:56:23.000Z</time>
        <extensions>
          <ns3:TrackPointExtension>
            <ns3:atemp>15.0</ns3:atemp>
          </ns3:TrackPointExtension>
        </extensions>
      </trkpt>
      <trkpt lat="42.56040408276021480560302734375" lon="20.07169090211391448974609375">
        <ele>2039</ele>
        <time>2026-06-15T10:56:24.000Z</time>
        <extensions>
          <ns3:TrackPointExtension>
            <ns3:atemp>15.0</ns3:atemp>
          </ns3:TrackPointExtension>
        </extensions>
      </trkpt>
      <trkpt lat="42.56040207110345363616943359375" lon="20.0716551952064037322998046875">
        <ele>2039.199951171875</ele>
        <time>2026-06-15T10:56:25.000Z</time>
        <extensions>
          <ns3:TrackPointExtension>
            <ns3:atemp>15.0</ns3:atemp>
          </ns3:TrackPointExtension>
        </extensions>
      </trkpt>
      <trkpt lat="42.5604120455682277679443359375" lon="20.071610100567340850830078125">
        <ele>2039.199951171875</ele>
        <time>2026-06-15T10:56:26.000Z</time>
        <extensions>
          <ns3:TrackPointExtension>
            <ns3:atemp>15.0</ns3:atemp>
          </ns3:TrackPointExtension>
        </extensions>
      </trkpt>
      <trkpt lat="42.560425288975238800048828125" lon="20.07157632149755954742431640625">
        <ele>2039.4000244140625</ele>
        <time>2026-06-15T10:56:27.000Z</time>
        <extensions>
          <ns3:TrackPointExtension>
            <ns3:atemp>15.0</ns3:atemp>
          </ns3:TrackPointExtension>
        </extensions>
      </trkpt>
      <trkpt lat="42.56044171750545501708984375" lon="20.07154748775064945220947265625">
        <ele>2039.4000244140625</ele>
        <time>2026-06-15T10:56:28.000Z</time>
        <extensions>
          <ns3:TrackPointExtension>
            <ns3:atemp>15.0</ns3:atemp>
          </ns3:TrackPointExtension>
        </extensions>
      </trkpt>
      <trkpt lat="42.5604603253304958343505859375" lon="20.07151714526116847991943359375">
        <ele>2039.5999755859375</ele>
        <time>2026-06-15T10:56:29.000Z</time>
        <extensions>
          <ns3:TrackPointExtension>
            <ns3:atemp>16.0</ns3:atemp>
          </ns3:TrackPointExtension>
        </extensions>
      </trkpt>
      <trkpt lat="42.56047667004168033599853515625" lon="20.07148277945816516876220703125">
        <ele>2039.800048828125</ele>
        <time>2026-06-15T10:56:30.000Z</time>
        <extensions>
          <ns3:TrackPointExtension>
            <ns3:atemp>15.0</ns3:atemp>
          </ns3:TrackPointExtension>
        </extensions>
      </trkpt>
      <trkpt lat="42.56048991344869136810302734375" lon="20.07144439034163951873779296875">
        <ele>2040</ele>
        <time>2026-06-15T10:56:31.000Z</time>
        <extensions>
          <ns3:TrackPointExtension>
            <ns3:atemp>15.0</ns3:atemp>
          </ns3:TrackPointExtension>
        </extensions>
      </trkpt>
      <trkpt lat="42.560500390827655792236328125" lon="20.07140968926250934600830078125">
        <ele>2040.199951171875</ele>
        <time>2026-06-15T10:56:32.000Z</time>
        <extensions>
          <ns3:TrackPointExtension>
            <ns3:atemp>15.0</ns3:atemp>
          </ns3:TrackPointExtension>
        </extensions>
      </trkpt>
      <trkpt lat="42.56050868891179561614990234375" lon="20.07138018496334552764892578125">
        <ele>2040.5999755859375</ele>
        <time>2026-06-15T10:56:33.000Z</time>
        <extensions>
          <ns3:TrackPointExtension>
            <ns3:atemp>15.0</ns3:atemp>
          </ns3:TrackPointExtension>
        </extensions>
      </trkpt>
      <trkpt lat="42.5605188310146331787109375" lon="20.0713497586548328399658203125">
        <ele>2041</ele>
        <time>2026-06-15T10:56:34.000Z</time>
        <extensions>
          <ns3:TrackPointExtension>
            <ns3:atemp>15.0</ns3:atemp>
          </ns3:TrackPointExtension>
        </extensions>
      </trkpt>
      <trkpt lat="42.56052218377590179443359375" lon="20.0713192485272884368896484375">
        <ele>2041.4000244140625</ele>
        <time>2026-06-15T10:56:35.000Z</time>
        <extensions>
          <ns3:TrackPointExtension>
            <ns3:atemp>15.0</ns3:atemp>
          </ns3:TrackPointExtension>
        </extensions>
      </trkpt>
      <trkpt lat="42.5605297274887561798095703125" lon="20.07128429599106311798095703125">
        <ele>2041.800048828125</ele>
        <time>2026-06-15T10:56:36.000Z</time>
        <extensions>
          <ns3:TrackPointExtension>
            <ns3:atemp>15.0</ns3:atemp>
          </ns3:TrackPointExtension>
        </extensions>
      </trkpt>
      <trkpt lat="42.56054070778191089630126953125" lon="20.0712490081787109375">
        <ele>2042</ele>
        <time>2026-06-15T10:56:37.000Z</time>
        <extensions>
          <ns3:TrackPointExtension>
            <ns3:atemp>16.0</ns3:atemp>
          </ns3:TrackPointExtension>
        </extensions>
      </trkpt>
      <trkpt lat="42.56054875440895557403564453125" lon="20.0712136365473270416259765625">
        <ele>2042.199951171875</ele>
        <time>2026-06-15T10:56:38.000Z</time>
        <extensions>
          <ns3:TrackPointExtension>
            <ns3:atemp>15.0</ns3:atemp>
          </ns3:TrackPointExtension>
        </extensions>
      </trkpt>
      <trkpt lat="42.56055579520761966705322265625" lon="20.0711881555616855621337890625">
        <ele>2042.4000244140625</ele>
        <time>2026-06-15T10:56:39.000Z</time>
        <extensions>
          <ns3:TrackPointExtension>
            <ns3:atemp>15.0</ns3:atemp>
          </ns3:TrackPointExtension>
        </extensions>
      </trkpt>
      <trkpt lat="42.5605609081685543060302734375" lon="20.07115890271961688995361328125">
        <ele>2042.5999755859375</ele>
        <time>2026-06-15T10:56:40.000Z</time>
        <extensions>
          <ns3:TrackPointExtension>
            <ns3:atemp>15.0</ns3:atemp>
          </ns3:TrackPointExtension>
        </extensions>
      </trkpt>
      <trkpt lat="42.56056199781596660614013671875" lon="20.0711150653660297393798828125">
        <ele>2043</ele>
        <time>2026-06-15T10:56:41.000Z</time>
        <extensions>
          <ns3:TrackPointExtension>
            <ns3:atemp>15.0</ns3:atemp>
          </ns3:TrackPointExtension>
        </extensions>
      </trkpt>
      <trkpt lat="42.5605649314820766448974609375" lon="20.07107323966920375823974609375">
        <ele>2043.4000244140625</ele>
        <time>2026-06-15T10:56:42.000Z</time>
        <extensions>
          <ns3:TrackPointExtension>
            <ns3:atemp>15.0</ns3:atemp>
          </ns3:TrackPointExtension>
        </extensions>
      </trkpt>
      <trkpt lat="42.56056887097656726837158203125" lon="20.07102328352630138397216796875">
        <ele>2043.800048828125</ele>
        <time>2026-06-15T10:56:43.000Z</time>
        <extensions>
          <ns3:TrackPointExtension>
            <ns3:atemp>15.0</ns3:atemp>
          </ns3:TrackPointExtension>
        </extensions>
      </trkpt>
      <trkpt lat="42.5605696253478527069091796875" lon="20.07096678949892520904541015625">
        <ele>2044.199951171875</ele>
        <time>2026-06-15T10:56:44.000Z</time>
        <extensions>
          <ns3:TrackPointExtension>
            <ns3:atemp>15.0</ns3:atemp>
          </ns3:TrackPointExtension>
        </extensions>
      </trkpt>
      <trkpt lat="42.5605662725865840911865234375" lon="20.07090593688189983367919921875">
        <ele>2044.4000244140625</ele>
        <time>2026-06-15T10:56:45.000Z</time>
        <extensions>
          <ns3:TrackPointExtension>
            <ns3:atemp>15.0</ns3:atemp>
          </ns3:TrackPointExtension>
        </extensions>
      </trkpt>
      <trkpt lat="42.5605662725865840911865234375" lon="20.0708426535129547119140625">
        <ele>2044.4000244140625</ele>
        <time>2026-06-15T10:56:46.000Z</time>
        <extensions>
          <ns3:TrackPointExtension>
            <ns3:atemp>15.0</ns3:atemp>
          </ns3:TrackPointExtension>
        </extensions>
      </trkpt>
      <trkpt lat="42.5605679489672183990478515625" lon="20.07077693939208984375">
        <ele>2044.199951171875</ele>
        <time>2026-06-15T10:56:47.000Z</time>
        <extensions>
          <ns3:TrackPointExtension>
            <ns3:atemp>15.0</ns3:atemp>
          </ns3:TrackPointExtension>
        </extensions>
      </trkpt>
      <trkpt lat="42.56056551821529865264892578125" lon="20.07071684114634990692138671875">
        <ele>2044.199951171875</ele>
        <time>2026-06-15T10:56:48.000Z</time>
        <extensions>
          <ns3:TrackPointExtension>
            <ns3:atemp>15.0</ns3:atemp>
          </ns3:TrackPointExtension>
        </extensions>
      </trkpt>
      <trkpt lat="42.5605565495789051055908203125" lon="20.0706631131470203399658203125">
        <ele>2044.199951171875</ele>
        <time>2026-06-15T10:56:49.000Z</time>
        <extensions>
          <ns3:TrackPointExtension>
            <ns3:atemp>15.0</ns3:atemp>
          </ns3:TrackPointExtension>
        </extensions>
      </trkpt>
      <trkpt lat="42.5605384446680545806884765625" lon="20.070618353784084320068359375">
        <ele>2044.199951171875</ele>
        <time>2026-06-15T10:56:50.000Z</time>
        <extensions>
          <ns3:TrackPointExtension>
            <ns3:atemp>15.0</ns3:atemp>
          </ns3:TrackPointExtension>
        </extensions>
      </trkpt>
      <trkpt lat="42.560519836843013763427734375" lon="20.07058055140078067779541015625">
        <ele>2044.4000244140625</ele>
        <time>2026-06-15T10:56:51.000Z</time>
        <extensions>
          <ns3:TrackPointExtension>
            <ns3:atemp>15.0</ns3:atemp>
          </ns3:TrackPointExtension>
        </extensions>
      </trkpt>
      <trkpt lat="42.5604968704283237457275390625" lon="20.07055020891129970550537109375">
        <ele>2045</ele>
        <time>2026-06-15T10:56:52.000Z</time>
        <extensions>
          <ns3:TrackPointExtension>
            <ns3:atemp>15.0</ns3:atemp>
          </ns3:TrackPointExtension>
        </extensions>
      </trkpt>
      <trkpt lat="42.56046962924301624298095703125" lon="20.0705249793827533721923828125">
        <ele>2045.4000244140625</ele>
        <time>2026-06-15T10:56:53.000Z</time>
        <extensions>
          <ns3:TrackPointExtension>
            <ns3:atemp>15.0</ns3:atemp>
          </ns3:TrackPointExtension>
        </extensions>
      </trkpt>
      <trkpt lat="42.56043928675353527069091796875" lon="20.07050343789160251617431640625">
        <ele>2045.800048828125</ele>
        <time>2026-06-15T10:56:54.000Z</time>
        <extensions>
          <ns3:TrackPointExtension>
            <ns3:atemp>15.0</ns3:atemp>
          </ns3:TrackPointExtension>
        </extensions>
      </trkpt>
      <trkpt lat="42.56040894426405429840087890625" lon="20.07049270905554294586181640625">
        <ele>2046</ele>
        <time>2026-06-15T10:56:55.000Z</time>
        <extensions>
          <ns3:TrackPointExtension>
            <ns3:atemp>15.0</ns3:atemp>
          </ns3:TrackPointExtension>
        </extensions>
      </trkpt>
      <trkpt lat="42.5603855587542057037353515625" lon="20.0704800523817539215087890625">
        <ele>2046.5999755859375</ele>
        <time>2026-06-15T10:56:56.000Z</time>
        <extensions>
          <ns3:TrackPointExtension>
            <ns3:atemp>15.0</ns3:atemp>
          </ns3:TrackPointExtension>
        </extensions>
      </trkpt>
      <trkpt lat="42.5603632628917694091796875" lon="20.07046672515571117401123046875">
        <ele>2047</ele>
        <time>2026-06-15T10:56:57.000Z</time>
        <extensions>
          <ns3:TrackPointExtension>
            <ns3:atemp>15.0</ns3:atemp>
          </ns3:TrackPointExtension>
        </extensions>
      </trkpt>
      <trkpt lat="42.56033468060195446014404296875" lon="20.0704564154148101806640625">
        <ele>2047.4000244140625</ele>
        <time>2026-06-15T10:56:58.000Z</time>
        <extensions>
          <ns3:TrackPointExtension>
            <ns3:atemp>15.0</ns3:atemp>
          </ns3:TrackPointExtension>
        </extensions>
      </trkpt>
      <trkpt lat="42.5603091157972812652587890625" lon="20.07044828496873378753662109375">
        <ele>2048</ele>
        <time>2026-06-15T10:56:59.000Z</time>
        <extensions>
          <ns3:TrackPointExtension>
            <ns3:atemp>15.0</ns3:atemp>
          </ns3:TrackPointExtension>
        </extensions>
      </trkpt>
      <trkpt lat="42.56028740666806697845458984375" lon="20.07043856196105480194091796875">
        <ele>2048.60009765625</ele>
        <time>2026-06-15T10:57:00.000Z</time>
        <extensions>
          <ns3:TrackPointExtension>
            <ns3:atemp>15.0</ns3:atemp>
          </ns3:TrackPointExtension>
        </extensions>
      </trkpt>
      <trkpt lat="42.56026603281497955322265625" lon="20.07042883895337581634521484375">
        <ele>2049.199951171875</ele>
        <time>2026-06-15T10:57:01.000Z</time>
        <extensions>
          <ns3:TrackPointExtension>
            <ns3:atemp>15.0</ns3:atemp>
          </ns3:TrackPointExtension>
        </extensions>
      </trkpt>
      <trkpt lat="42.560246922075748443603515625" lon="20.0704233907163143157958984375">
        <ele>2049.60009765625</ele>
        <time>2026-06-15T10:57:02.000Z</time>
        <extensions>
          <ns3:TrackPointExtension>
            <ns3:atemp>15.0</ns3:atemp>
          </ns3:TrackPointExtension>
        </extensions>
      </trkpt>
      <trkpt lat="42.56023258902132511138916015625" lon="20.070419870316982269287109375">
        <ele>2050</ele>
        <time>2026-06-15T10:57:03.000Z</time>
        <extensions>
          <ns3:TrackPointExtension>
            <ns3:atemp>15.0</ns3:atemp>
          </ns3:TrackPointExtension>
        </extensions>
      </trkpt>
      <trkpt lat="42.56021800450980663299560546875" lon="20.0704220496118068695068359375">
        <ele>2050.60009765625</ele>
        <time>2026-06-15T10:57:04.000Z</time>
        <extensions>
          <ns3:TrackPointExtension>
            <ns3:atemp>15.0</ns3:atemp>
          </ns3:TrackPointExtension>
        </extensions>
      </trkpt>
      <trkpt lat="42.56020341999828815460205078125" lon="20.070423223078250885009765625">
        <ele>2051</ele>
        <time>2026-06-15T10:57:05.000Z</time>
        <extensions>
          <ns3:TrackPointExtension>
            <ns3:atemp>15.0</ns3:atemp>
          </ns3:TrackPointExtension>
        </extensions>
      </trkpt>
      <trkpt lat="42.5601914338767528533935546875" lon="20.07041173987090587615966796875">
        <ele>2051.39990234375</ele>
        <time>2026-06-15T10:57:06.000Z</time>
        <extensions>
          <ns3:TrackPointExtension>
            <ns3:atemp>15.0</ns3:atemp>
          </ns3:TrackPointExtension>
        </extensions>
      </trkpt>
      <trkpt lat="42.560177184641361236572265625" lon="20.07040101103484630584716796875">
        <ele>2051.39990234375</ele>
        <time>2026-06-15T10:57:07.000Z</time>
        <extensions>
          <ns3:TrackPointExtension>
            <ns3:atemp>15.0</ns3:atemp>
          </ns3:TrackPointExtension>
        </extensions>
      </trkpt>
      <trkpt lat="42.56016067229211330413818359375" lon="20.07038776762783527374267578125">
        <ele>2051.60009765625</ele>
        <time>2026-06-15T10:57:08.000Z</time>
        <extensions>
          <ns3:TrackPointExtension>
            <ns3:atemp>15.0</ns3:atemp>
          </ns3:TrackPointExtension>
        </extensions>
      </trkpt>
      <trkpt lat="42.56014474667608737945556640625" lon="20.07037368603050708770751953125">
        <ele>2051.60009765625</ele>
        <time>2026-06-15T10:57:09.000Z</time>
        <extensions>
          <ns3:TrackPointExtension>
            <ns3:atemp>15.0</ns3:atemp>
          </ns3:TrackPointExtension>
        </extensions>
      </trkpt>
      <trkpt lat="42.56013133563101291656494140625" lon="20.07036178372800350189208984375">
        <ele>2051.800048828125</ele>
        <time>2026-06-15T10:57:10.000Z</time>
        <extensions>
          <ns3:TrackPointExtension>
            <ns3:atemp>15.0</ns3:atemp>
          </ns3:TrackPointExtension>
        </extensions>
      </trkpt>
      <trkpt lat="42.560116164386272430419921875" lon="20.0703452713787555694580078125">
        <ele>2051.800048828125</ele>
        <time>2026-06-15T10:57:11.000Z</time>
        <extensions>
          <ns3:TrackPointExtension>
            <ns3:atemp>15.0</ns3:atemp>
          </ns3:TrackPointExtension>
        </extensions>
      </trkpt>
      <trkpt lat="42.56010367535054683685302734375" lon="20.070325322449207305908203125">
        <ele>2051.800048828125</ele>
        <time>2026-06-15T10:57:12.000Z</time>
        <extensions>
          <ns3:TrackPointExtension>
            <ns3:atemp>15.0</ns3:atemp>
          </ns3:TrackPointExtension>
        </extensions>
      </trkpt>
      <trkpt lat="42.5600950419902801513671875" lon="20.0703040324151515960693359375">
        <ele>2051.800048828125</ele>
        <time>2026-06-15T10:57:13.000Z</time>
        <extensions>
          <ns3:TrackPointExtension>
            <ns3:atemp>15.0</ns3:atemp>
          </ns3:TrackPointExtension>
        </extensions>
      </trkpt>
      <trkpt lat="42.56008875556290149688720703125" lon="20.070272348821163177490234375">
        <ele>2051.800048828125</ele>
        <time>2026-06-15T10:57:14.000Z</time>
        <extensions>
          <ns3:TrackPointExtension>
            <ns3:atemp>15.0</ns3:atemp>
          </ns3:TrackPointExtension>
        </extensions>
      </trkpt>
      <trkpt lat="42.5600910186767578125" lon="20.07024778984487056732177734375">
        <ele>2051.60009765625</ele>
        <time>2026-06-15T10:57:15.000Z</time>
        <extensions>
          <ns3:TrackPointExtension>
            <ns3:atemp>15.0</ns3:atemp>
          </ns3:TrackPointExtension>
        </extensions>
      </trkpt>
      <trkpt lat="42.56008858792483806610107421875" lon="20.07022985257208347320556640625">
        <ele>2051.60009765625</ele>
        <time>2026-06-15T10:57:16.000Z</time>
        <extensions>
          <ns3:TrackPointExtension>
            <ns3:atemp>15.0</ns3:atemp>
          </ns3:TrackPointExtension>
        </extensions>
      </trkpt>
      <trkpt lat="42.56008766591548919677734375" lon="20.0702064670622348785400390625">
        <ele>2051.39990234375</ele>
        <time>2026-06-15T10:57:17.000Z</time>
        <extensions>
          <ns3:TrackPointExtension>
            <ns3:atemp>15.0</ns3:atemp>
          </ns3:TrackPointExtension>
        </extensions>
      </trkpt>
      <trkpt lat="42.56008808501064777374267578125" lon="20.0701783038675785064697265625">
        <ele>2051.39990234375</ele>
        <time>2026-06-15T10:57:18.000Z</time>
        <extensions>
          <ns3:TrackPointExtension>
            <ns3:atemp>15.0</ns3:atemp>
          </ns3:TrackPointExtension>
        </extensions>
      </trkpt>
      <trkpt lat="42.56009294651448726654052734375" lon="20.07015399634838104248046875">
        <ele>2051.60009765625</ele>
        <time>2026-06-15T10:57:19.000Z</time>
        <extensions>
          <ns3:TrackPointExtension>
            <ns3:atemp>15.0</ns3:atemp>
          </ns3:TrackPointExtension>
        </extensions>
      </trkpt>
      <trkpt lat="42.56009462289512157440185546875" lon="20.0701263360679149627685546875">
        <ele>2051.60009765625</ele>
        <time>2026-06-15T10:57:20.000Z</time>
        <extensions>
          <ns3:TrackPointExtension>
            <ns3:atemp>15.0</ns3:atemp>
          </ns3:TrackPointExtension>
        </extensions>
      </trkpt>
      <trkpt lat="42.56009344942867755889892578125" lon="20.07009825669229030609130859375">
        <ele>2051.800048828125</ele>
        <time>2026-06-15T10:57:21.000Z</time>
        <extensions>
          <ns3:TrackPointExtension>
            <ns3:atemp>15.0</ns3:atemp>
          </ns3:TrackPointExtension>
        </extensions>
      </trkpt>
      <trkpt lat="42.560089342296123504638671875" lon="20.07006791420280933380126953125">
        <ele>2052</ele>
        <time>2026-06-15T10:57:22.000Z</time>
        <extensions>
          <ns3:TrackPointExtension>
            <ns3:atemp>15.0</ns3:atemp>
          </ns3:TrackPointExtension>
        </extensions>
      </trkpt>
      <trkpt lat="42.5600854866206645965576171875" lon="20.070041678845882415771484375">
        <ele>2052.39990234375</ele>
        <time>2026-06-15T10:57:23.000Z</time>
        <extensions>
          <ns3:TrackPointExtension>
            <ns3:atemp>15.0</ns3:atemp>
          </ns3:TrackPointExtension>
        </extensions>
      </trkpt>
      <trkpt lat="42.56008003838360309600830078125" lon="20.07001359947025775909423828125">
        <ele>2052.60009765625</ele>
        <time>2026-06-15T10:57:24.000Z</time>
        <extensions>
          <ns3:TrackPointExtension>
            <ns3:atemp>15.0</ns3:atemp>
          </ns3:TrackPointExtension>
        </extensions>
      </trkpt>
      <trkpt lat="42.56007249467074871063232421875" lon="20.069977976381778717041015625">
        <ele>2052.800048828125</ele>
        <time>2026-06-15T10:57:25.000Z</time>
        <extensions>
          <ns3:TrackPointExtension>
            <ns3:atemp>15.0</ns3:atemp>
          </ns3:TrackPointExtension>
        </extensions>
      </trkpt>
      <trkpt lat="42.56006025709211826324462890625" lon="20.0699509866535663604736328125">
        <ele>2053.199951171875</ele>
        <time>2026-06-15T10:57:26.000Z</time>
        <extensions>
          <ns3:TrackPointExtension>
            <ns3:atemp>15.0</ns3:atemp>
          </ns3:TrackPointExtension>
        </extensions>
      </trkpt>
      <trkpt lat="42.5600499473512172698974609375" lon="20.06992106325924396514892578125">
        <ele>2053.39990234375</ele>
        <time>2026-06-15T10:57:27.000Z</time>
        <extensions>
          <ns3:TrackPointExtension>
            <ns3:atemp>15.0</ns3:atemp>
          </ns3:TrackPointExtension>
        </extensions>
      </trkpt>
      <trkpt lat="42.56004148162901401519775390625" lon="20.06988837383687496185302734375">
        <ele>2053.800048828125</ele>
        <time>2026-06-15T10:57:28.000Z</time>
        <extensions>
          <ns3:TrackPointExtension>
            <ns3:atemp>15.0</ns3:atemp>
          </ns3:TrackPointExtension>
        </extensions>
      </trkpt>
      <trkpt lat="42.5600318424403667449951171875" lon="20.0698564387857913970947265625">
        <ele>2054</ele>
        <time>2026-06-15T10:57:29.000Z</time>
        <extensions>
          <ns3:TrackPointExtension>
            <ns3:atemp>15.0</ns3:atemp>
          </ns3:TrackPointExtension>
        </extensions>
      </trkpt>
      <trkpt lat="42.56002102978527545928955078125" lon="20.06983020342886447906494140625">
        <ele>2054.199951171875</ele>
        <time>2026-06-15T10:57:30.000Z</time>
        <extensions>
          <ns3:TrackPointExtension>
            <ns3:atemp>15.0</ns3:atemp>
          </ns3:TrackPointExtension>
        </extensions>
      </trkpt>
      <trkpt lat="42.5600123964250087738037109375" lon="20.06979566998779773712158203125">
        <ele>2054.39990234375</ele>
        <time>2026-06-15T10:57:31.000Z</time>
        <extensions>
          <ns3:TrackPointExtension>
            <ns3:atemp>15.0</ns3:atemp>
          </ns3:TrackPointExtension>
        </extensions>
      </trkpt>
      <trkpt lat="42.56000258959829807281494140625" lon="20.069760046899318695068359375">
        <ele>2054.800048828125</ele>
        <time>2026-06-15T10:57:32.000Z</time>
        <extensions>
          <ns3:TrackPointExtension>
            <ns3:atemp>15.0</ns3:atemp>
          </ns3:TrackPointExtension>
        </extensions>
      </trkpt>
      <trkpt lat="42.5599906034767627716064453125" lon="20.069725178182125091552734375">
        <ele>2054.800048828125</ele>
        <time>2026-06-15T10:57:33.000Z</time>
        <extensions>
          <ns3:TrackPointExtension>
            <ns3:atemp>15.0</ns3:atemp>
          </ns3:TrackPointExtension>
        </extensions>
      </trkpt>
      <trkpt lat="42.55997828207910060882568359375" lon="20.06968704052269458770751953125">
        <ele>2054.800048828125</ele>
        <time>2026-06-15T10:57:34.000Z</time>
        <extensions>
          <ns3:TrackPointExtension>
            <ns3:atemp>15.0</ns3:atemp>
          </ns3:TrackPointExtension>
        </extensions>
      </trkpt>
      <trkpt lat="42.559965290129184722900390625" lon="20.0696492381393909454345703125">
        <ele>2054.800048828125</ele>
        <time>2026-06-15T10:57:35.000Z</time>
        <extensions>
          <ns3:TrackPointExtension>
            <ns3:atemp>15.0</ns3:atemp>
          </ns3:TrackPointExtension>
        </extensions>
      </trkpt>
      <trkpt lat="42.5599527172744274139404296875" lon="20.06961478851735591888427734375">
        <ele>2054.60009765625</ele>
        <time>2026-06-15T10:57:36.000Z</time>
        <extensions>
          <ns3:TrackPointExtension>
            <ns3:atemp>15.0</ns3:atemp>
          </ns3:TrackPointExtension>
        </extensions>
      </trkpt>
      <trkpt lat="42.559944503009319305419921875" lon="20.0695882178843021392822265625">
        <ele>2054.800048828125</ele>
        <time>2026-06-15T10:57:37.000Z</time>
        <extensions>
          <ns3:TrackPointExtension>
            <ns3:atemp>15.0</ns3:atemp>
          </ns3:TrackPointExtension>
        </extensions>
      </trkpt>
      <trkpt lat="42.5599356181919574737548828125" lon="20.069559551775455474853515625">
        <ele>2054.800048828125</ele>
        <time>2026-06-15T10:57:38.000Z</time>
        <extensions>
          <ns3:TrackPointExtension>
            <ns3:atemp>15.0</ns3:atemp>
          </ns3:TrackPointExtension>
        </extensions>
      </trkpt>
      <trkpt lat="42.55992614664137363433837890625" lon="20.0695278681814670562744140625">
        <ele>2055</ele>
        <time>2026-06-15T10:57:39.000Z</time>
        <extensions>
          <ns3:TrackPointExtension>
            <ns3:atemp>15.0</ns3:atemp>
          </ns3:TrackPointExtension>
        </extensions>
      </trkpt>
      <trkpt lat="42.5599168427288532257080078125" lon="20.069493167102336883544921875">
        <ele>2055.39990234375</ele>
        <time>2026-06-15T10:57:40.000Z</time>
        <extensions>
          <ns3:TrackPointExtension>
            <ns3:atemp>15.0</ns3:atemp>
          </ns3:TrackPointExtension>
        </extensions>
      </trkpt>
      <trkpt lat="42.55990720354020595550537109375" lon="20.06945905275642871856689453125">
        <ele>2055.800048828125</ele>
        <time>2026-06-15T10:57:41.000Z</time>
        <extensions>
          <ns3:TrackPointExtension>
            <ns3:atemp>15.0</ns3:atemp>
          </ns3:TrackPointExtension>
        </extensions>
      </trkpt>
      <trkpt lat="42.559909634292125701904296875" lon="20.06942887790501117706298828125">
        <ele>2056</ele>
        <time>2026-06-15T10:57:42.000Z</time>
        <extensions>
          <ns3:TrackPointExtension>
            <ns3:atemp>15.0</ns3:atemp>
          </ns3:TrackPointExtension>
        </extensions>
      </trkpt>
      <trkpt lat="42.55991659127175807952880859375" lon="20.06940071471035480499267578125">
        <ele>2056.199951171875</ele>
        <time>2026-06-15T10:57:43.000Z</time>
        <extensions>
          <ns3:TrackPointExtension>
            <ns3:atemp>15.0</ns3:atemp>
          </ns3:TrackPointExtension>
        </extensions>
      </trkpt>
      <trkpt lat="42.55992748774588108062744140625" lon="20.06937523372471332550048828125">
        <ele>2056.39990234375</ele>
        <time>2026-06-15T10:57:44.000Z</time>
        <extensions>
          <ns3:TrackPointExtension>
            <ns3:atemp>15.0</ns3:atemp>
          </ns3:TrackPointExtension>
        </extensions>
      </trkpt>
      <trkpt lat="42.55994307808578014373779296875" lon="20.069364421069622039794921875">
        <ele>2056.60009765625</ele>
        <time>2026-06-15T10:57:45.000Z</time>
        <extensions>
          <ns3:TrackPointExtension>
            <ns3:atemp>15.0</ns3:atemp>
          </ns3:TrackPointExtension>
        </extensions>
      </trkpt>
      <trkpt lat="42.559963278472423553466796875" lon="20.069348327815532684326171875">
        <ele>2056.800048828125</ele>
        <time>2026-06-15T10:57:46.000Z</time>
        <extensions>
          <ns3:TrackPointExtension>
            <ns3:atemp>15.0</ns3:atemp>
          </ns3:TrackPointExtension>
        </extensions>
      </trkpt>
      <trkpt lat="42.5599730014801025390625" lon="20.06934623233973979949951171875">
        <ele>2056.800048828125</ele>
        <time>2026-06-15T10:57:47.000Z</time>
        <extensions>
          <ns3:TrackPointExtension>
            <ns3:atemp>15.0</ns3:atemp>
          </ns3:TrackPointExtension>
        </extensions>
      </trkpt>
      <trkpt lat="42.55997526459395885467529296875" lon="20.0693270377814769744873046875">
        <ele>2057</ele>
        <time>2026-06-15T10:57:48.000Z</time>
        <extensions>
          <ns3:TrackPointExtension>
            <ns3:atemp>15.0</ns3:atemp>
          </ns3:TrackPointExtension>
        </extensions>
      </trkpt>
      <trkpt lat="42.5599735043942928314208984375" lon="20.0693243555724620819091796875">
        <ele>2057</ele>
        <time>2026-06-15T10:57:49.000Z</time>
        <extensions>
          <ns3:TrackPointExtension>
            <ns3:atemp>15.0</ns3:atemp>
          </ns3:TrackPointExtension>
        </extensions>
      </trkpt>
      <trkpt lat="42.55997367203235626220703125" lon="20.0693243555724620819091796875">
        <ele>2057</ele>
        <time>2026-06-15T10:57:50.000Z</time>
        <extensions>
          <ns3:TrackPointExtension>
            <ns3:atemp>15.0</ns3:atemp>
          </ns3:TrackPointExtension>
        </extensions>
      </trkpt>
      <trkpt lat="42.55997367203235626220703125" lon="20.0693243555724620819091796875">
        <ele>2057</ele>
        <time>2026-06-15T10:57:51.000Z</time>
        <extensions>
          <ns3:TrackPointExtension>
            <ns3:atemp>15.0</ns3:atemp>
          </ns3:TrackPointExtension>
        </extensions>
      </trkpt>
      <trkpt lat="42.55997367203235626220703125" lon="20.0693243555724620819091796875">
        <ele>2057</ele>
        <time>2026-06-15T10:57:52.000Z</time>
        <extensions>
          <ns3:TrackPointExtension>
            <ns3:atemp>15.0</ns3:atemp>
          </ns3:TrackPointExtension>
        </extensions>
      </trkpt>
      <trkpt lat="42.55997367203235626220703125" lon="20.0693243555724620819091796875">
        <ele>2056.800048828125</ele>
        <time>2026-06-15T10:57:53.000Z</time>
        <extensions>
          <ns3:TrackPointExtension>
            <ns3:atemp>15.0</ns3:atemp>
          </ns3:TrackPointExtension>
        </extensions>
      </trkpt>
      <trkpt lat="42.55997367203235626220703125" lon="20.0693243555724620819091796875">
        <ele>2056.60009765625</ele>
        <time>2026-06-15T10:57:54.000Z</time>
        <extensions>
          <ns3:TrackPointExtension>
            <ns3:atemp>15.0</ns3:atemp>
          </ns3:TrackPointExtension>
        </extensions>
      </trkpt>
      <trkpt lat="42.55997367203235626220703125" lon="20.0693243555724620819091796875">
        <ele>2056.60009765625</ele>
        <time>2026-06-15T10:57:55.000Z</time>
        <extensions>
          <ns3:TrackPointExtension>
            <ns3:atemp>15.0</ns3:atemp>
          </ns3:TrackPointExtension>
        </extensions>
      </trkpt>
      <trkpt lat="42.55997367203235626220703125" lon="20.0693243555724620819091796875">
        <ele>2056.39990234375</ele>
        <time>2026-06-15T10:57:56.000Z</time>
        <extensions>
          <ns3:TrackPointExtension>
            <ns3:atemp>15.0</ns3:atemp>
          </ns3:TrackPointExtension>
        </extensions>
      </trkpt>
      <trkpt lat="42.55997367203235626220703125" lon="20.0693243555724620819091796875">
        <ele>2056.39990234375</ele>
        <time>2026-06-15T10:57:57.000Z</time>
        <extensions>
          <ns3:TrackPointExtension>
            <ns3:atemp>15.0</ns3:atemp>
          </ns3:TrackPointExtension>
        </extensions>
      </trkpt>
      <trkpt lat="42.55997367203235626220703125" lon="20.0693243555724620819091796875">
        <ele>2056.199951171875</ele>
        <time>2026-06-15T10:57:58.000Z</time>
        <extensions>
          <ns3:TrackPointExtension>
            <ns3:atemp>15.0</ns3:atemp>
          </ns3:TrackPointExtension>
        </extensions>
      </trkpt>
      <trkpt lat="42.55997367203235626220703125" lon="20.0693243555724620819091796875">
        <ele>2056.199951171875</ele>
        <time>2026-06-15T10:57:59.000Z</time>
        <extensions>
          <ns3:TrackPointExtension>
            <ns3:atemp>15.0</ns3:atemp>
          </ns3:TrackPointExtension>
        </extensions>
      </trkpt>
      <trkpt lat="42.55997367203235626220703125" lon="20.0693243555724620819091796875">
        <ele>2056.199951171875</ele>
        <time>2026-06-15T10:58:00.000Z</time>
        <extensions>
          <ns3:TrackPointExtension>
            <ns3:atemp>15.0</ns3:atemp>
          </ns3:TrackPointExtension>
        </extensions>
      </trkpt>
      <trkpt lat="42.55997367203235626220703125" lon="20.0693243555724620819091796875">
        <ele>2056.199951171875</ele>
        <time>2026-06-15T10:58:01.000Z</time>
        <extensions>
          <ns3:TrackPointExtension>
            <ns3:atemp>15.0</ns3:atemp>
          </ns3:TrackPointExtension>
        </extensions>
      </trkpt>
      <trkpt lat="42.55997342057526111602783203125" lon="20.06932628341019153594970703125">
        <ele>2056.199951171875</ele>
        <time>2026-06-15T10:58:02.000Z</time>
        <extensions>
          <ns3:TrackPointExtension>
            <ns3:atemp>15.0</ns3:atemp>
          </ns3:TrackPointExtension>
        </extensions>
      </trkpt>
      <trkpt lat="42.5599765218794345855712890625" lon="20.06933449767529964447021484375">
        <ele>2056.199951171875</ele>
        <time>2026-06-15T10:58:03.000Z</time>
        <extensions>
          <ns3:TrackPointExtension>
            <ns3:atemp>15.0</ns3:atemp>
          </ns3:TrackPointExtension>
        </extensions>
      </trkpt>
      <trkpt lat="42.55998297594487667083740234375" lon="20.06934287957847118377685546875">
        <ele>2056.199951171875</ele>
        <time>2026-06-15T10:58:04.000Z</time>
        <extensions>
          <ns3:TrackPointExtension>
            <ns3:atemp>15.0</ns3:atemp>
          </ns3:TrackPointExtension>
        </extensions>
      </trkpt>
      <trkpt lat="42.55998632870614528656005859375" lon="20.0693417899310588836669921875">
        <ele>2056.39990234375</ele>
        <time>2026-06-15T10:58:05.000Z</time>
        <extensions>
          <ns3:TrackPointExtension>
            <ns3:atemp>15.0</ns3:atemp>
          </ns3:TrackPointExtension>
        </extensions>
      </trkpt>
      <trkpt lat="42.55999571643769741058349609375" lon="20.0693431310355663299560546875">
        <ele>2056.60009765625</ele>
        <time>2026-06-15T10:58:06.000Z</time>
        <extensions>
          <ns3:TrackPointExtension>
            <ns3:atemp>15.0</ns3:atemp>
          </ns3:TrackPointExtension>
        </extensions>
      </trkpt>
      <trkpt lat="42.56001013331115245819091796875" lon="20.06934606470167636871337890625">
        <ele>2056.800048828125</ele>
        <time>2026-06-15T10:58:07.000Z</time>
        <extensions>
          <ns3:TrackPointExtension>
            <ns3:atemp>15.0</ns3:atemp>
          </ns3:TrackPointExtension>
        </extensions>
      </trkpt>
      <trkpt lat="42.5600294955074787139892578125" lon="20.06934472359716892242431640625">
        <ele>2057</ele>
        <time>2026-06-15T10:58:08.000Z</time>
        <extensions>
          <ns3:TrackPointExtension>
            <ns3:atemp>15.0</ns3:atemp>
          </ns3:TrackPointExtension>
        </extensions>
      </trkpt>
      <trkpt lat="42.5600509531795978546142578125" lon="20.06934128701686859130859375">
        <ele>2057</ele>
        <time>2026-06-15T10:58:09.000Z</time>
        <extensions>
          <ns3:TrackPointExtension>
            <ns3:atemp>15.0</ns3:atemp>
          </ns3:TrackPointExtension>
        </extensions>
      </trkpt>
      <trkpt lat="42.56007802672684192657470703125" lon="20.06932863034307956695556640625">
        <ele>2057.199951171875</ele>
        <time>2026-06-15T10:58:10.000Z</time>
        <extensions>
          <ns3:TrackPointExtension>
            <ns3:atemp>15.0</ns3:atemp>
          </ns3:TrackPointExtension>
        </extensions>
      </trkpt>
      <trkpt lat="42.5600985623896121978759765625" lon="20.0693070888519287109375">
        <ele>2057.39990234375</ele>
        <time>2026-06-15T10:58:11.000Z</time>
        <extensions>
          <ns3:TrackPointExtension>
            <ns3:atemp>15.0</ns3:atemp>
          </ns3:TrackPointExtension>
        </extensions>
      </trkpt>
      <trkpt lat="42.560112811625003814697265625" lon="20.06927783600986003875732421875">
        <ele>2057.60009765625</ele>
        <time>2026-06-15T10:58:12.000Z</time>
        <extensions>
          <ns3:TrackPointExtension>
            <ns3:atemp>15.0</ns3:atemp>
          </ns3:TrackPointExtension>
        </extensions>
      </trkpt>
      <trkpt lat="42.56011859513819217681884765625" lon="20.06924330256879329681396484375">
        <ele>2057.800048828125</ele>
        <time>2026-06-15T10:58:13.000Z</time>
        <extensions>
          <ns3:TrackPointExtension>
            <ns3:atemp>15.0</ns3:atemp>
          </ns3:TrackPointExtension>
        </extensions>
      </trkpt>
      <trkpt lat="42.56012245081365108489990234375" lon="20.06921815685927867889404296875">
        <ele>2058</ele>
        <time>2026-06-15T10:58:14.000Z</time>
        <extensions>
          <ns3:TrackPointExtension>
            <ns3:atemp>15.0</ns3:atemp>
          </ns3:TrackPointExtension>
        </extensions>
      </trkpt>
      <trkpt lat="42.56012429483234882354736328125" lon="20.0691890716552734375">
        <ele>2058.39990234375</ele>
        <time>2026-06-15T10:58:15.000Z</time>
        <extensions>
          <ns3:TrackPointExtension>
            <ns3:atemp>15.0</ns3:atemp>
          </ns3:TrackPointExtension>
        </extensions>
      </trkpt>
      <trkpt lat="42.56012245081365108489990234375" lon="20.069156549870967864990234375">
        <ele>2058.60009765625</ele>
        <time>2026-06-15T10:58:16.000Z</time>
        <extensions>
          <ns3:TrackPointExtension>
            <ns3:atemp>15.0</ns3:atemp>
          </ns3:TrackPointExtension>
        </extensions>
      </trkpt>
      <trkpt lat="42.56012144498527050018310546875" lon="20.06912444718182086944580078125">
        <ele>2058.800048828125</ele>
        <time>2026-06-15T10:58:17.000Z</time>
        <extensions>
          <ns3:TrackPointExtension>
            <ns3:atemp>15.0</ns3:atemp>
          </ns3:TrackPointExtension>
        </extensions>
      </trkpt>
      <trkpt lat="42.5601196847856044769287109375" lon="20.06909058429300785064697265625">
        <ele>2059.199951171875</ele>
        <time>2026-06-15T10:58:18.000Z</time>
        <extensions>
          <ns3:TrackPointExtension>
            <ns3:atemp>15.0</ns3:atemp>
          </ns3:TrackPointExtension>
        </extensions>
      </trkpt>
      <trkpt lat="42.56011591292917728424072265625" lon="20.06905496120452880859375">
        <ele>2059.39990234375</ele>
        <time>2026-06-15T10:58:19.000Z</time>
        <extensions>
          <ns3:TrackPointExtension>
            <ns3:atemp>15.0</ns3:atemp>
          </ns3:TrackPointExtension>
        </extensions>
      </trkpt>
      <trkpt lat="42.560120858252048492431640625" lon="20.069020092487335205078125">
        <ele>2059.800048828125</ele>
        <time>2026-06-15T10:58:20.000Z</time>
        <extensions>
          <ns3:TrackPointExtension>
            <ns3:atemp>15.0</ns3:atemp>
          </ns3:TrackPointExtension>
        </extensions>
      </trkpt>
      <trkpt lat="42.56013016216456890106201171875" lon="20.06898765452206134796142578125">
        <ele>2060</ele>
        <time>2026-06-15T10:58:21.000Z</time>
        <extensions>
          <ns3:TrackPointExtension>
            <ns3:atemp>15.0</ns3:atemp>
          </ns3:TrackPointExtension>
        </extensions>
      </trkpt>
      <trkpt lat="42.56014307029545307159423828125" lon="20.0689578987658023834228515625">
        <ele>2060.39990234375</ele>
        <time>2026-06-15T10:58:22.000Z</time>
        <extensions>
          <ns3:TrackPointExtension>
            <ns3:atemp>15.0</ns3:atemp>
          </ns3:TrackPointExtension>
        </extensions>
      </trkpt>
      <trkpt lat="42.56016000173985958099365234375" lon="20.06893225014209747314453125">
        <ele>2060.60009765625</ele>
        <time>2026-06-15T10:58:23.000Z</time>
        <extensions>
          <ns3:TrackPointExtension>
            <ns3:atemp>15.0</ns3:atemp>
          </ns3:TrackPointExtension>
        </extensions>
      </trkpt>
      <trkpt lat="42.5601753406226634979248046875" lon="20.06891674362123012542724609375">
        <ele>2061</ele>
        <time>2026-06-15T10:58:24.000Z</time>
        <extensions>
          <ns3:TrackPointExtension>
            <ns3:atemp>15.0</ns3:atemp>
          </ns3:TrackPointExtension>
        </extensions>
      </trkpt>
      <trkpt lat="42.56019470281898975372314453125" lon="20.0689015723764896392822265625">
        <ele>2061.199951171875</ele>
        <time>2026-06-15T10:58:25.000Z</time>
        <extensions>
          <ns3:TrackPointExtension>
            <ns3:atemp>15.0</ns3:atemp>
          </ns3:TrackPointExtension>
        </extensions>
      </trkpt>
      <trkpt lat="42.5602125562727451324462890625" lon="20.0688848085701465606689453125">
        <ele>2061.60009765625</ele>
        <time>2026-06-15T10:58:26.000Z</time>
        <extensions>
          <ns3:TrackPointExtension>
            <ns3:atemp>15.0</ns3:atemp>
          </ns3:TrackPointExtension>
        </extensions>
      </trkpt>
      <trkpt lat="42.560221441090106964111328125" lon="20.0688864849507808685302734375">
        <ele>2061.800048828125</ele>
        <time>2026-06-15T10:58:27.000Z</time>
        <extensions>
          <ns3:TrackPointExtension>
            <ns3:atemp>15.0</ns3:atemp>
          </ns3:TrackPointExtension>
        </extensions>
      </trkpt>
      <trkpt lat="42.56023745052516460418701171875" lon="20.06887986324727535247802734375">
        <ele>2062.199951171875</ele>
        <time>2026-06-15T10:58:28.000Z</time>
        <extensions>
          <ns3:TrackPointExtension>
            <ns3:atemp>15.0</ns3:atemp>
          </ns3:TrackPointExtension>
        </extensions>
      </trkpt>
      <trkpt lat="42.56025438196957111358642578125" lon="20.06888086907565593719482421875">
        <ele>2062.39990234375</ele>
        <time>2026-06-15T10:58:29.000Z</time>
        <extensions>
          <ns3:TrackPointExtension>
            <ns3:atemp>15.0</ns3:atemp>
          </ns3:TrackPointExtension>
        </extensions>
      </trkpt>
      <trkpt lat="42.56027332507073879241943359375" lon="20.0688734091818332672119140625">
        <ele>2062.60009765625</ele>
        <time>2026-06-15T10:58:30.000Z</time>
        <extensions>
          <ns3:TrackPointExtension>
            <ns3:atemp>15.0</ns3:atemp>
          </ns3:TrackPointExtension>
        </extensions>
      </trkpt>
      <trkpt lat="42.56029109470546245574951171875" lon="20.06886192597448825836181640625">
        <ele>2063</ele>
        <time>2026-06-15T10:58:31.000Z</time>
        <extensions>
          <ns3:TrackPointExtension>
            <ns3:atemp>15.0</ns3:atemp>
          </ns3:TrackPointExtension>
        </extensions>
      </trkpt>
      <trkpt lat="42.560307942330837249755859375" lon="20.06884482689201831817626953125">
        <ele>2063.199951171875</ele>
        <time>2026-06-15T10:58:32.000Z</time>
        <extensions>
          <ns3:TrackPointExtension>
            <ns3:atemp>15.0</ns3:atemp>
          </ns3:TrackPointExtension>
        </extensions>
      </trkpt>
      <trkpt lat="42.56032428704202175140380859375" lon="20.06882504560053348541259765625">
        <ele>2063.39990234375</ele>
        <time>2026-06-15T10:58:33.000Z</time>
        <extensions>
          <ns3:TrackPointExtension>
            <ns3:atemp>15.0</ns3:atemp>
          </ns3:TrackPointExtension>
        </extensions>
      </trkpt>
      <trkpt lat="42.56034222431480884552001953125" lon="20.06879989989101886749267578125">
        <ele>2063.800048828125</ele>
        <time>2026-06-15T10:58:34.000Z</time>
        <extensions>
          <ns3:TrackPointExtension>
            <ns3:atemp>15.0</ns3:atemp>
          </ns3:TrackPointExtension>
        </extensions>
      </trkpt>
      <trkpt lat="42.560355551540851593017578125" lon="20.06877475418150424957275390625">
        <ele>2064</ele>
        <time>2026-06-15T10:58:35.000Z</time>
        <extensions>
          <ns3:TrackPointExtension>
            <ns3:atemp>15.0</ns3:atemp>
          </ns3:TrackPointExtension>
        </extensions>
      </trkpt>
      <trkpt lat="42.5603694655001163482666015625" lon="20.06874457933008670806884765625">
        <ele>2064.39990234375</ele>
        <time>2026-06-15T10:58:36.000Z</time>
        <extensions>
          <ns3:TrackPointExtension>
            <ns3:atemp>15.0</ns3:atemp>
          </ns3:TrackPointExtension>
        </extensions>
      </trkpt>
      <trkpt lat="42.5603842176496982574462890625" lon="20.06871859543025493621826171875">
        <ele>2064.60009765625</ele>
        <time>2026-06-15T10:58:37.000Z</time>
        <extensions>
          <ns3:TrackPointExtension>
            <ns3:atemp>15.0</ns3:atemp>
          </ns3:TrackPointExtension>
        </extensions>
      </trkpt>
      <trkpt lat="42.56040022708475589752197265625" lon="20.068697221577167510986328125">
        <ele>2064.800048828125</ele>
        <time>2026-06-15T10:58:38.000Z</time>
        <extensions>
          <ns3:TrackPointExtension>
            <ns3:atemp>15.0</ns3:atemp>
          </ns3:TrackPointExtension>
        </extensions>
      </trkpt>
      <trkpt lat="42.56041447632014751434326171875" lon="20.06867702119052410125732421875">
        <ele>2065</ele>
        <time>2026-06-15T10:58:39.000Z</time>
        <extensions>
          <ns3:TrackPointExtension>
            <ns3:atemp>15.0</ns3:atemp>
          </ns3:TrackPointExtension>
        </extensions>
      </trkpt>
      <trkpt lat="42.5604341737926006317138671875" lon="20.068656988441944122314453125">
        <ele>2065.199951171875</ele>
        <time>2026-06-15T10:58:40.000Z</time>
        <extensions>
          <ns3:TrackPointExtension>
            <ns3:atemp>15.0</ns3:atemp>
          </ns3:TrackPointExtension>
        </extensions>
      </trkpt>
      <trkpt lat="42.5604549609124660491943359375" lon="20.06863662041723728179931640625">
        <ele>2065.39990234375</ele>
        <time>2026-06-15T10:58:41.000Z</time>
        <extensions>
          <ns3:TrackPointExtension>
            <ns3:atemp>15.0</ns3:atemp>
          </ns3:TrackPointExtension>
        </extensions>
      </trkpt>
      <trkpt lat="42.56046979688107967376708984375" lon="20.06862505339086055755615234375">
        <ele>2065.800048828125</ele>
        <time>2026-06-15T10:58:42.000Z</time>
        <extensions>
          <ns3:TrackPointExtension>
            <ns3:atemp>15.0</ns3:atemp>
          </ns3:TrackPointExtension>
        </extensions>
      </trkpt>
      <trkpt lat="42.560487650334835052490234375" lon="20.0686098821461200714111328125">
        <ele>2066</ele>
        <time>2026-06-15T10:58:43.000Z</time>
        <extensions>
          <ns3:TrackPointExtension>
            <ns3:atemp>15.0</ns3:atemp>
          </ns3:TrackPointExtension>
        </extensions>
      </trkpt>
      <trkpt lat="42.56050181575119495391845703125" lon="20.06859487853944301605224609375">
        <ele>2066.39990234375</ele>
        <time>2026-06-15T10:58:44.000Z</time>
        <extensions>
          <ns3:TrackPointExtension>
            <ns3:atemp>15.0</ns3:atemp>
          </ns3:TrackPointExtension>
        </extensions>
      </trkpt>
      <trkpt lat="42.560513801872730255126953125" lon="20.068588592112064361572265625">
        <ele>2066.60009765625</ele>
        <time>2026-06-15T10:58:45.000Z</time>
        <extensions>
          <ns3:TrackPointExtension>
            <ns3:atemp>15.0</ns3:atemp>
          </ns3:TrackPointExtension>
        </extensions>
      </trkpt>
      <trkpt lat="42.56052662618458271026611328125" lon="20.06858414970338344573974609375">
        <ele>2066.800048828125</ele>
        <time>2026-06-15T10:58:46.000Z</time>
        <extensions>
          <ns3:TrackPointExtension>
            <ns3:atemp>15.0</ns3:atemp>
          </ns3:TrackPointExtension>
        </extensions>
      </trkpt>
      <trkpt lat="42.560543306171894073486328125" lon="20.0685733370482921600341796875">
        <ele>2067.199951171875</ele>
        <time>2026-06-15T10:58:47.000Z</time>
        <extensions>
          <ns3:TrackPointExtension>
            <ns3:atemp>15.0</ns3:atemp>
          </ns3:TrackPointExtension>
        </extensions>
      </trkpt>
      <trkpt lat="42.56055705249309539794921875" lon="20.06856185384094715118408203125">
        <ele>2067.39990234375</ele>
        <time>2026-06-15T10:58:48.000Z</time>
        <extensions>
          <ns3:TrackPointExtension>
            <ns3:atemp>15.0</ns3:atemp>
          </ns3:TrackPointExtension>
        </extensions>
      </trkpt>
      <trkpt lat="42.560572810471057891845703125" lon="20.06854374893009662628173828125">
        <ele>2067.60009765625</ele>
        <time>2026-06-15T10:58:49.000Z</time>
        <extensions>
          <ns3:TrackPointExtension>
            <ns3:atemp>15.0</ns3:atemp>
          </ns3:TrackPointExtension>
        </extensions>
      </trkpt>
      <trkpt lat="42.5605890713632106781005859375" lon="20.068526230752468109130859375">
        <ele>2067.800048828125</ele>
        <time>2026-06-15T10:58:50.000Z</time>
        <extensions>
          <ns3:TrackPointExtension>
            <ns3:atemp>15.0</ns3:atemp>
          </ns3:TrackPointExtension>
        </extensions>
      </trkpt>
      <trkpt lat="42.5606060028076171875" lon="20.06850804202258586883544921875">
        <ele>2068.199951171875</ele>
        <time>2026-06-15T10:58:51.000Z</time>
        <extensions>
          <ns3:TrackPointExtension>
            <ns3:atemp>15.0</ns3:atemp>
          </ns3:TrackPointExtension>
        </extensions>
      </trkpt>
      <trkpt lat="42.5606242753565311431884765625" lon="20.06848708726465702056884765625">
        <ele>2068.39990234375</ele>
        <time>2026-06-15T10:58:52.000Z</time>
        <extensions>
          <ns3:TrackPointExtension>
            <ns3:atemp>15.0</ns3:atemp>
          </ns3:TrackPointExtension>
        </extensions>
      </trkpt>
      <trkpt lat="42.56064196117222309112548828125" lon="20.0684647075831890106201171875">
        <ele>2068.39990234375</ele>
        <time>2026-06-15T10:58:53.000Z</time>
        <extensions>
          <ns3:TrackPointExtension>
            <ns3:atemp>15.0</ns3:atemp>
          </ns3:TrackPointExtension>
        </extensions>
      </trkpt>
      <trkpt lat="42.56065897643566131591796875" lon="20.06844299845397472381591796875">
        <ele>2068.800048828125</ele>
        <time>2026-06-15T10:58:54.000Z</time>
        <extensions>
          <ns3:TrackPointExtension>
            <ns3:atemp>15.0</ns3:atemp>
          </ns3:TrackPointExtension>
        </extensions>
      </trkpt>
      <trkpt lat="42.56067448295652866363525390625" lon="20.0684191100299358367919921875">
        <ele>2069</ele>
        <time>2026-06-15T10:58:55.000Z</time>
        <extensions>
          <ns3:TrackPointExtension>
            <ns3:atemp>15.0</ns3:atemp>
          </ns3:TrackPointExtension>
        </extensions>
      </trkpt>
      <trkpt lat="42.56068554706871509552001953125" lon="20.06839220412075519561767578125">
        <ele>2069.199951171875</ele>
        <time>2026-06-15T10:58:56.000Z</time>
        <extensions>
          <ns3:TrackPointExtension>
            <ns3:atemp>15.0</ns3:atemp>
          </ns3:TrackPointExtension>
        </extensions>
      </trkpt>
      <trkpt lat="42.56069007329642772674560546875" lon="20.06837141700088977813720703125">
        <ele>2069.39990234375</ele>
        <time>2026-06-15T10:58:57.000Z</time>
        <extensions>
          <ns3:TrackPointExtension>
            <ns3:atemp>15.0</ns3:atemp>
          </ns3:TrackPointExtension>
        </extensions>
      </trkpt>
      <trkpt lat="42.5606953538954257965087890625" lon="20.06834023632109165191650390625">
        <ele>2069.800048828125</ele>
        <time>2026-06-15T10:58:58.000Z</time>
        <extensions>
          <ns3:TrackPointExtension>
            <ns3:atemp>15.0</ns3:atemp>
          </ns3:TrackPointExtension>
        </extensions>
      </trkpt>
      <trkpt lat="42.5607030652463436126708984375" lon="20.068303607404232025146484375">
        <ele>2070</ele>
        <time>2026-06-15T10:58:59.000Z</time>
        <extensions>
          <ns3:TrackPointExtension>
            <ns3:atemp>15.0</ns3:atemp>
          </ns3:TrackPointExtension>
        </extensions>
      </trkpt>
      <trkpt lat="42.56071119569242000579833984375" lon="20.0682729296386241912841796875">
        <ele>2070.199951171875</ele>
        <time>2026-06-15T10:59:00.000Z</time>
        <extensions>
          <ns3:TrackPointExtension>
            <ns3:atemp>15.0</ns3:atemp>
          </ns3:TrackPointExtension>
        </extensions>
      </trkpt>
      <trkpt lat="42.56072259508073329925537109375" lon="20.06824384443461894989013671875">
        <ele>2070.60009765625</ele>
        <time>2026-06-15T10:59:01.000Z</time>
        <extensions>
          <ns3:TrackPointExtension>
            <ns3:atemp>15.0</ns3:atemp>
          </ns3:TrackPointExtension>
        </extensions>
      </trkpt>
      <trkpt lat="42.5607342459261417388916015625" lon="20.06821182556450366973876953125">
        <ele>2070.60009765625</ele>
        <time>2026-06-15T10:59:02.000Z</time>
        <extensions>
          <ns3:TrackPointExtension>
            <ns3:atemp>15.0</ns3:atemp>
          </ns3:TrackPointExtension>
        </extensions>
      </trkpt>
      <trkpt lat="42.5607489980757236480712890625" lon="20.068176873028278350830078125">
        <ele>2070.800048828125</ele>
        <time>2026-06-15T10:59:03.000Z</time>
        <extensions>
          <ns3:TrackPointExtension>
            <ns3:atemp>15.0</ns3:atemp>
          </ns3:TrackPointExtension>
        </extensions>
      </trkpt>
      <trkpt lat="42.560758553445339202880859375" lon="20.068140327930450439453125">
        <ele>2071</ele>
        <time>2026-06-15T10:59:04.000Z</time>
        <extensions>
          <ns3:TrackPointExtension>
            <ns3:atemp>15.0</ns3:atemp>
          </ns3:TrackPointExtension>
        </extensions>
      </trkpt>
      <trkpt lat="42.5607660971581935882568359375" lon="20.0681049562990665435791015625">
        <ele>2071</ele>
        <time>2026-06-15T10:59:05.000Z</time>
        <extensions>
          <ns3:TrackPointExtension>
            <ns3:atemp>15.0</ns3:atemp>
          </ns3:TrackPointExtension>
        </extensions>
      </trkpt>
      <trkpt lat="42.56077020429074764251708984375" lon="20.0680757872760295867919921875">
        <ele>2071.199951171875</ele>
        <time>2026-06-15T10:59:06.000Z</time>
        <extensions>
          <ns3:TrackPointExtension>
            <ns3:atemp>15.0</ns3:atemp>
          </ns3:TrackPointExtension>
        </extensions>
      </trkpt>
      <trkpt lat="42.56077674217522144317626953125" lon="20.06804519332945346832275390625">
        <ele>2071.199951171875</ele>
        <time>2026-06-15T10:59:07.000Z</time>
        <extensions>
          <ns3:TrackPointExtension>
            <ns3:atemp>15.0</ns3:atemp>
          </ns3:TrackPointExtension>
        </extensions>
      </trkpt>
      <trkpt lat="42.56078311242163181304931640625" lon="20.0680063851177692413330078125">
        <ele>2071.199951171875</ele>
        <time>2026-06-15T10:59:08.000Z</time>
        <extensions>
          <ns3:TrackPointExtension>
            <ns3:atemp>15.0</ns3:atemp>
          </ns3:TrackPointExtension>
        </extensions>
      </trkpt>
      <trkpt lat="42.56079099141061305999755859375" lon="20.06796405650675296783447265625">
        <ele>2071.39990234375</ele>
        <time>2026-06-15T10:59:09.000Z</time>
        <extensions>
          <ns3:TrackPointExtension>
            <ns3:atemp>15.0</ns3:atemp>
          </ns3:TrackPointExtension>
        </extensions>
      </trkpt>
      <trkpt lat="42.56079702638089656829833984375" lon="20.067928098142147064208984375">
        <ele>2071.39990234375</ele>
        <time>2026-06-15T10:59:10.000Z</time>
        <extensions>
          <ns3:TrackPointExtension>
            <ns3:atemp>15.0</ns3:atemp>
          </ns3:TrackPointExtension>
        </extensions>
      </trkpt>
      <trkpt lat="42.56080406717956066131591796875" lon="20.0679014436900615692138671875">
        <ele>2071.39990234375</ele>
        <time>2026-06-15T10:59:11.000Z</time>
        <extensions>
          <ns3:TrackPointExtension>
            <ns3:atemp>15.0</ns3:atemp>
          </ns3:TrackPointExtension>
        </extensions>
      </trkpt>
      <trkpt lat="42.56081094034016132354736328125" lon="20.06788342259824275970458984375">
        <ele>2071.39990234375</ele>
        <time>2026-06-15T10:59:12.000Z</time>
        <extensions>
          <ns3:TrackPointExtension>
            <ns3:atemp>15.0</ns3:atemp>
          </ns3:TrackPointExtension>
        </extensions>
      </trkpt>
      <trkpt lat="42.5608177296817302703857421875" lon="20.06786548532545566558837890625">
        <ele>2071.39990234375</ele>
        <time>2026-06-15T10:59:13.000Z</time>
        <extensions>
          <ns3:TrackPointExtension>
            <ns3:atemp>15.0</ns3:atemp>
          </ns3:TrackPointExtension>
        </extensions>
      </trkpt>
      <trkpt lat="42.56082938052713871002197265625" lon="20.067851655185222625732421875">
        <ele>2071.39990234375</ele>
        <time>2026-06-15T10:59:14.000Z</time>
        <extensions>
          <ns3:TrackPointExtension>
            <ns3:atemp>15.0</ns3:atemp>
          </ns3:TrackPointExtension>
        </extensions>
      </trkpt>
      <trkpt lat="42.56084312684834003448486328125" lon="20.067843608558177947998046875">
        <ele>2071.39990234375</ele>
        <time>2026-06-15T10:59:15.000Z</time>
        <extensions>
          <ns3:TrackPointExtension>
            <ns3:atemp>15.0</ns3:atemp>
          </ns3:TrackPointExtension>
        </extensions>
      </trkpt>
      <trkpt lat="42.5608576275408267974853515625" lon="20.067837238311767578125">
        <ele>2071.39990234375</ele>
        <time>2026-06-15T10:59:16.000Z</time>
        <extensions>
          <ns3:TrackPointExtension>
            <ns3:atemp>15.0</ns3:atemp>
          </ns3:TrackPointExtension>
        </extensions>
      </trkpt>
      <trkpt lat="42.56087983958423137664794921875" lon="20.067837573587894439697265625">
        <ele>2071.60009765625</ele>
        <time>2026-06-15T10:59:17.000Z</time>
        <extensions>
          <ns3:TrackPointExtension>
            <ns3:atemp>15.0</ns3:atemp>
          </ns3:TrackPointExtension>
        </extensions>
      </trkpt>
      <trkpt lat="42.5609018839895725250244140625" lon="20.06783916614949703216552734375">
        <ele>2071.60009765625</ele>
        <time>2026-06-15T10:59:18.000Z</time>
        <extensions>
          <ns3:TrackPointExtension>
            <ns3:atemp>15.0</ns3:atemp>
          </ns3:TrackPointExtension>
        </extensions>
      </trkpt>
      <trkpt lat="42.560918144881725311279296875" lon="20.06784469820559024810791015625">
        <ele>2071.800048828125</ele>
        <time>2026-06-15T10:59:19.000Z</time>
        <extensions>
          <ns3:TrackPointExtension>
            <ns3:atemp>15.0</ns3:atemp>
          </ns3:TrackPointExtension>
        </extensions>
      </trkpt>
      <trkpt lat="42.56093482486903667449951171875" lon="20.06785240955650806427001953125">
        <ele>2071.800048828125</ele>
        <time>2026-06-15T10:59:20.000Z</time>
        <extensions>
          <ns3:TrackPointExtension>
            <ns3:atemp>15.0</ns3:atemp>
          </ns3:TrackPointExtension>
        </extensions>
      </trkpt>
      <trkpt lat="42.5609541870653629302978515625" lon="20.0678546726703643798828125">
        <ele>2072</ele>
        <time>2026-06-15T10:59:21.000Z</time>
        <extensions>
          <ns3:TrackPointExtension>
            <ns3:atemp>15.0</ns3:atemp>
          </ns3:TrackPointExtension>
        </extensions>
      </trkpt>
      <trkpt lat="42.56097606383264064788818359375" lon="20.0678511522710323333740234375">
        <ele>2072.199951171875</ele>
        <time>2026-06-15T10:59:22.000Z</time>
        <extensions>
          <ns3:TrackPointExtension>
            <ns3:atemp>15.0</ns3:atemp>
          </ns3:TrackPointExtension>
        </extensions>
      </trkpt>
      <trkpt lat="42.561004646122455596923828125" lon="20.06785056553781032562255859375">
        <ele>2072.39990234375</ele>
        <time>2026-06-15T10:59:23.000Z</time>
        <extensions>
          <ns3:TrackPointExtension>
            <ns3:atemp>15.0</ns3:atemp>
          </ns3:TrackPointExtension>
        </extensions>
      </trkpt>
      <trkpt lat="42.56103071384131908416748046875" lon="20.067855007946491241455078125">
        <ele>2072.60009765625</ele>
        <time>2026-06-15T10:59:24.000Z</time>
        <extensions>
          <ns3:TrackPointExtension>
            <ns3:atemp>15.0</ns3:atemp>
          </ns3:TrackPointExtension>
        </extensions>
      </trkpt>
      <trkpt lat="42.56105728447437286376953125" lon="20.06785668432712554931640625">
        <ele>2072.60009765625</ele>
        <time>2026-06-15T10:59:25.000Z</time>
        <extensions>
          <ns3:TrackPointExtension>
            <ns3:atemp>15.0</ns3:atemp>
          </ns3:TrackPointExtension>
        </extensions>
      </trkpt>
      <trkpt lat="42.56108687259256839752197265625" lon="20.06785442121326923370361328125">
        <ele>2072.60009765625</ele>
        <time>2026-06-15T10:59:26.000Z</time>
        <extensions>
          <ns3:TrackPointExtension>
            <ns3:atemp>15.0</ns3:atemp>
          </ns3:TrackPointExtension>
        </extensions>
      </trkpt>
      <trkpt lat="42.56111486814916133880615234375" lon="20.06785266101360321044921875">
        <ele>2072.60009765625</ele>
        <time>2026-06-15T10:59:27.000Z</time>
        <extensions>
          <ns3:TrackPointExtension>
            <ns3:atemp>15.0</ns3:atemp>
          </ns3:TrackPointExtension>
        </extensions>
      </trkpt>
      <trkpt lat="42.561142109334468841552734375" lon="20.06784905679523944854736328125">
        <ele>2072.800048828125</ele>
        <time>2026-06-15T10:59:28.000Z</time>
        <extensions>
          <ns3:TrackPointExtension>
            <ns3:atemp>15.0</ns3:atemp>
          </ns3:TrackPointExtension>
        </extensions>
      </trkpt>
      <trkpt lat="42.5611721165478229522705078125" lon="20.067846290767192840576171875">
        <ele>2072.800048828125</ele>
        <time>2026-06-15T10:59:29.000Z</time>
        <extensions>
          <ns3:TrackPointExtension>
            <ns3:atemp>15.0</ns3:atemp>
          </ns3:TrackPointExtension>
        </extensions>
      </trkpt>
      <trkpt lat="42.56120748817920684814453125" lon="20.06784503348171710968017578125">
        <ele>2072.60009765625</ele>
        <time>2026-06-15T10:59:30.000Z</time>
        <extensions>
          <ns3:TrackPointExtension>
            <ns3:atemp>15.0</ns3:atemp>
          </ns3:TrackPointExtension>
        </extensions>
      </trkpt>
      <trkpt lat="42.5612448714673519134521484375" lon="20.0678414292633533477783203125">
        <ele>2072.60009765625</ele>
        <time>2026-06-15T10:59:31.000Z</time>
        <extensions>
          <ns3:TrackPointExtension>
            <ns3:atemp>15.0</ns3:atemp>
          </ns3:TrackPointExtension>
        </extensions>
      </trkpt>
      <trkpt lat="42.56128166802227497100830078125" lon="20.067831538617610931396484375">
        <ele>2072.39990234375</ele>
        <time>2026-06-15T10:59:32.000Z</time>
        <extensions>
          <ns3:TrackPointExtension>
            <ns3:atemp>15.0</ns3:atemp>
          </ns3:TrackPointExtension>
        </extensions>
      </trkpt>
      <trkpt lat="42.56131854839622974395751953125" lon="20.06782458163797855377197265625">
        <ele>2072.39990234375</ele>
        <time>2026-06-15T10:59:33.000Z</time>
        <extensions>
          <ns3:TrackPointExtension>
            <ns3:atemp>15.0</ns3:atemp>
          </ns3:TrackPointExtension>
        </extensions>
      </trkpt>
      <trkpt lat="42.561353333294391632080078125" lon="20.06781720556318759918212890625">
        <ele>2072.199951171875</ele>
        <time>2026-06-15T10:59:34.000Z</time>
        <extensions>
          <ns3:TrackPointExtension>
            <ns3:atemp>15.0</ns3:atemp>
          </ns3:TrackPointExtension>
        </extensions>
      </trkpt>
      <trkpt lat="42.5613910518586635589599609375" lon="20.06780169904232025146484375">
        <ele>2072</ele>
        <time>2026-06-15T10:59:35.000Z</time>
        <extensions>
          <ns3:TrackPointExtension>
            <ns3:atemp>15.0</ns3:atemp>
          </ns3:TrackPointExtension>
        </extensions>
      </trkpt>
      <trkpt lat="42.561429776251316070556640625" lon="20.0677857734262943267822265625">
        <ele>2071.800048828125</ele>
        <time>2026-06-15T10:59:36.000Z</time>
        <extensions>
          <ns3:TrackPointExtension>
            <ns3:atemp>15.0</ns3:atemp>
          </ns3:TrackPointExtension>
        </extensions>
      </trkpt>
      <trkpt lat="42.561472021043300628662109375" lon="20.06777076981961727142333984375">
        <ele>2071.39990234375</ele>
        <time>2026-06-15T10:59:37.000Z</time>
        <extensions>
          <ns3:TrackPointExtension>
            <ns3:atemp>15.0</ns3:atemp>
          </ns3:TrackPointExtension>
        </extensions>
      </trkpt>
      <trkpt lat="42.56151552312076091766357421875" lon="20.06776188500225543975830078125">
        <ele>2071.199951171875</ele>
        <time>2026-06-15T10:59:38.000Z</time>
        <extensions>
          <ns3:TrackPointExtension>
            <ns3:atemp>15.0</ns3:atemp>
          </ns3:TrackPointExtension>
        </extensions>
      </trkpt>
      <trkpt lat="42.56155307404696941375732421875" lon="20.0677572749555110931396484375">
        <ele>2071</ele>
        <time>2026-06-15T10:59:39.000Z</time>
        <extensions>
          <ns3:TrackPointExtension>
            <ns3:atemp>15.0</ns3:atemp>
          </ns3:TrackPointExtension>
        </extensions>
      </trkpt>
      <trkpt lat="42.56158861331641674041748046875" lon="20.06775383837521076202392578125">
        <ele>2070.800048828125</ele>
        <time>2026-06-15T10:59:40.000Z</time>
        <extensions>
          <ns3:TrackPointExtension>
            <ns3:atemp>15.0</ns3:atemp>
          </ns3:TrackPointExtension>
        </extensions>
      </trkpt>
      <trkpt lat="42.56162733770906925201416015625" lon="20.06774780340492725372314453125">
        <ele>2070.39990234375</ele>
        <time>2026-06-15T10:59:41.000Z</time>
        <extensions>
          <ns3:TrackPointExtension>
            <ns3:atemp>15.0</ns3:atemp>
          </ns3:TrackPointExtension>
        </extensions>
      </trkpt>
      <trkpt lat="42.56166740320622920989990234375" lon="20.06774126552045345306396484375">
        <ele>2070.39990234375</ele>
        <time>2026-06-15T10:59:42.000Z</time>
        <extensions>
          <ns3:TrackPointExtension>
            <ns3:atemp>15.0</ns3:atemp>
          </ns3:TrackPointExtension>
        </extensions>
      </trkpt>
      <trkpt lat="42.5617062114179134368896484375" lon="20.0677339732646942138671875">
        <ele>2070.199951171875</ele>
        <time>2026-06-15T10:59:43.000Z</time>
        <extensions>
          <ns3:TrackPointExtension>
            <ns3:atemp>15.0</ns3:atemp>
          </ns3:TrackPointExtension>
        </extensions>
      </trkpt>
      <trkpt lat="42.56174686364829540252685546875" lon="20.0677220709621906280517578125">
        <ele>2070.199951171875</ele>
        <time>2026-06-15T10:59:44.000Z</time>
        <extensions>
          <ns3:TrackPointExtension>
            <ns3:atemp>15.0</ns3:atemp>
          </ns3:TrackPointExtension>
        </extensions>
      </trkpt>
      <trkpt lat="42.56179262883961200714111328125" lon="20.06770790554583072662353515625">
        <ele>2070</ele>
        <time>2026-06-15T10:59:45.000Z</time>
        <extensions>
          <ns3:TrackPointExtension>
            <ns3:atemp>15.0</ns3:atemp>
          </ns3:TrackPointExtension>
        </extensions>
      </trkpt>
      <trkpt lat="42.5618396513164043426513671875" lon="20.06769365631043910980224609375">
        <ele>2070</ele>
        <time>2026-06-15T10:59:46.000Z</time>
        <extensions>
          <ns3:TrackPointExtension>
            <ns3:atemp>15.0</ns3:atemp>
          </ns3:TrackPointExtension>
        </extensions>
      </trkpt>
      <trkpt lat="42.56188365630805492401123046875" lon="20.0676798261702060699462890625">
        <ele>2069.800048828125</ele>
        <time>2026-06-15T10:59:47.000Z</time>
        <extensions>
          <ns3:TrackPointExtension>
            <ns3:atemp>15.0</ns3:atemp>
          </ns3:TrackPointExtension>
        </extensions>
      </trkpt>
      <trkpt lat="42.56192724220454692840576171875" lon="20.06766817532479763031005859375">
        <ele>2069.800048828125</ele>
        <time>2026-06-15T10:59:48.000Z</time>
        <extensions>
          <ns3:TrackPointExtension>
            <ns3:atemp>15.0</ns3:atemp>
          </ns3:TrackPointExtension>
        </extensions>
      </trkpt>
      <trkpt lat="42.56196898408234119415283203125" lon="20.067649818956851959228515625">
        <ele>2069.60009765625</ele>
        <time>2026-06-15T10:59:49.000Z</time>
        <extensions>
          <ns3:TrackPointExtension>
            <ns3:atemp>15.0</ns3:atemp>
          </ns3:TrackPointExtension>
        </extensions>
      </trkpt>
      <trkpt lat="42.56200703792273998260498046875" lon="20.0676198117434978485107421875">
        <ele>2069.39990234375</ele>
        <time>2026-06-15T10:59:50.000Z</time>
        <extensions>
          <ns3:TrackPointExtension>
            <ns3:atemp>15.0</ns3:atemp>
          </ns3:TrackPointExtension>
        </extensions>
      </trkpt>
      <trkpt lat="42.562041990458965301513671875" lon="20.0675825960934162139892578125">
        <ele>2069.39990234375</ele>
        <time>2026-06-15T10:59:51.000Z</time>
        <extensions>
          <ns3:TrackPointExtension>
            <ns3:atemp>15.0</ns3:atemp>
          </ns3:TrackPointExtension>
        </extensions>
      </trkpt>
      <trkpt lat="42.562072165310382843017578125" lon="20.0675544328987598419189453125">
        <ele>2069.199951171875</ele>
        <time>2026-06-15T10:59:52.000Z</time>
        <extensions>
          <ns3:TrackPointExtension>
            <ns3:atemp>15.0</ns3:atemp>
          </ns3:TrackPointExtension>
        </extensions>
      </trkpt>
      <trkpt lat="42.5621021725237369537353515625" lon="20.06754110567271709442138671875">
        <ele>2069.199951171875</ele>
        <time>2026-06-15T10:59:53.000Z</time>
        <extensions>
          <ns3:TrackPointExtension>
            <ns3:atemp>15.0</ns3:atemp>
          </ns3:TrackPointExtension>
        </extensions>
      </trkpt>
      <trkpt lat="42.56213419139385223388671875" lon="20.06751880981028079986572265625">
        <ele>2069.199951171875</ele>
        <time>2026-06-15T10:59:54.000Z</time>
        <extensions>
          <ns3:TrackPointExtension>
            <ns3:atemp>15.0</ns3:atemp>
          </ns3:TrackPointExtension>
        </extensions>
      </trkpt>
      <trkpt lat="42.56216344423592090606689453125" lon="20.06748729385435581207275390625">
        <ele>2069.199951171875</ele>
        <time>2026-06-15T10:59:55.000Z</time>
        <extensions>
          <ns3:TrackPointExtension>
            <ns3:atemp>15.0</ns3:atemp>
          </ns3:TrackPointExtension>
        </extensions>
      </trkpt>
      <trkpt lat="42.56218649446964263916015625" lon="20.06745276041328907012939453125">
        <ele>2069.199951171875</ele>
        <time>2026-06-15T10:59:56.000Z</time>
        <extensions>
          <ns3:TrackPointExtension>
            <ns3:atemp>15.0</ns3:atemp>
          </ns3:TrackPointExtension>
        </extensions>
      </trkpt>
      <trkpt lat="42.5622067786753177642822265625" lon="20.0674162991344928741455078125">
        <ele>2069.199951171875</ele>
        <time>2026-06-15T10:59:57.000Z</time>
        <extensions>
          <ns3:TrackPointExtension>
            <ns3:atemp>15.0</ns3:atemp>
          </ns3:TrackPointExtension>
        </extensions>
      </trkpt>
      <trkpt lat="42.56222538650035858154296875" lon="20.0673777423799037933349609375">
        <ele>2069.199951171875</ele>
        <time>2026-06-15T10:59:58.000Z</time>
        <extensions>
          <ns3:TrackPointExtension>
            <ns3:atemp>15.0</ns3:atemp>
          </ns3:TrackPointExtension>
        </extensions>
      </trkpt>
      <trkpt lat="42.56224039010703563690185546875" lon="20.0673450529575347900390625">
        <ele>2069.199951171875</ele>
        <time>2026-06-15T10:59:59.000Z</time>
        <extensions>
          <ns3:TrackPointExtension>
            <ns3:atemp>15.0</ns3:atemp>
          </ns3:TrackPointExtension>
        </extensions>
      </trkpt>
      <trkpt lat="42.5622506998479366302490234375" lon="20.06731621921062469482421875">
        <ele>2069.199951171875</ele>
        <time>2026-06-15T11:00:00.000Z</time>
        <extensions>
          <ns3:TrackPointExtension>
            <ns3:atemp>15.0</ns3:atemp>
          </ns3:TrackPointExtension>
        </extensions>
      </trkpt>
      <trkpt lat="42.56225262768566608428955078125" lon="20.06729199551045894622802734375">
        <ele>2069.199951171875</ele>
        <time>2026-06-15T11:00:01.000Z</time>
        <extensions>
          <ns3:TrackPointExtension>
            <ns3:atemp>15.0</ns3:atemp>
          </ns3:TrackPointExtension>
        </extensions>
      </trkpt>
      <trkpt lat="42.562250532209873199462890625" lon="20.0672694481909275054931640625">
        <ele>2069.199951171875</ele>
        <time>2026-06-15T11:00:02.000Z</time>
        <extensions>
          <ns3:TrackPointExtension>
            <ns3:atemp>15.0</ns3:atemp>
          </ns3:TrackPointExtension>
        </extensions>
      </trkpt>
      <trkpt lat="42.56224458105862140655517578125" lon="20.06724220700562000274658203125">
        <ele>2069.199951171875</ele>
        <time>2026-06-15T11:00:03.000Z</time>
        <extensions>
          <ns3:TrackPointExtension>
            <ns3:atemp>15.0</ns3:atemp>
          </ns3:TrackPointExtension>
        </extensions>
      </trkpt>
      <trkpt lat="42.562239803373813629150390625" lon="20.06721965968608856201171875">
        <ele>2069.199951171875</ele>
        <time>2026-06-15T11:00:04.000Z</time>
        <extensions>
          <ns3:TrackPointExtension>
            <ns3:atemp>15.0</ns3:atemp>
          </ns3:TrackPointExtension>
        </extensions>
      </trkpt>
      <trkpt lat="42.56223804317414760589599609375" lon="20.06719862110912799835205078125">
        <ele>2069.39990234375</ele>
        <time>2026-06-15T11:00:05.000Z</time>
        <extensions>
          <ns3:TrackPointExtension>
            <ns3:atemp>15.0</ns3:atemp>
          </ns3:TrackPointExtension>
        </extensions>
      </trkpt>
      <trkpt lat="42.562236785888671875" lon="20.06717280484735965728759765625">
        <ele>2069.39990234375</ele>
        <time>2026-06-15T11:00:06.000Z</time>
        <extensions>
          <ns3:TrackPointExtension>
            <ns3:atemp>15.0</ns3:atemp>
          </ns3:TrackPointExtension>
        </extensions>
      </trkpt>
      <trkpt lat="42.5622315891087055206298828125" lon="20.06714514456689357757568359375">
        <ele>2069.39990234375</ele>
        <time>2026-06-15T11:00:07.000Z</time>
        <extensions>
          <ns3:TrackPointExtension>
            <ns3:atemp>15.0</ns3:atemp>
          </ns3:TrackPointExtension>
        </extensions>
      </trkpt>
      <trkpt lat="42.56222597323358058929443359375" lon="20.06711849011480808258056640625">
        <ele>2069.39990234375</ele>
        <time>2026-06-15T11:00:08.000Z</time>
        <extensions>
          <ns3:TrackPointExtension>
            <ns3:atemp>15.0</ns3:atemp>
          </ns3:TrackPointExtension>
        </extensions>
      </trkpt>
      <trkpt lat="42.56222270429134368896484375" lon="20.06709015928208827972412109375">
        <ele>2069.39990234375</ele>
        <time>2026-06-15T11:00:09.000Z</time>
        <extensions>
          <ns3:TrackPointExtension>
            <ns3:atemp>15.0</ns3:atemp>
          </ns3:TrackPointExtension>
        </extensions>
      </trkpt>
      <trkpt lat="42.56222295574843883514404296875" lon="20.06705730222165584564208984375">
        <ele>2069.39990234375</ele>
        <time>2026-06-15T11:00:10.000Z</time>
        <extensions>
          <ns3:TrackPointExtension>
            <ns3:atemp>15.0</ns3:atemp>
          </ns3:TrackPointExtension>
        </extensions>
      </trkpt>
      <trkpt lat="42.562229074537754058837890625" lon="20.06702846847474575042724609375">
        <ele>2069.60009765625</ele>
        <time>2026-06-15T11:00:11.000Z</time>
        <extensions>
          <ns3:TrackPointExtension>
            <ns3:atemp>15.0</ns3:atemp>
          </ns3:TrackPointExtension>
        </extensions>
      </trkpt>
      <trkpt lat="42.56224039010703563690185546875" lon="20.06699628196656703948974609375">
        <ele>2069.60009765625</ele>
        <time>2026-06-15T11:00:12.000Z</time>
        <extensions>
          <ns3:TrackPointExtension>
            <ns3:atemp>15.0</ns3:atemp>
          </ns3:TrackPointExtension>
        </extensions>
      </trkpt>
      <trkpt lat="42.56225966848433017730712890625" lon="20.066965855658054351806640625">
        <ele>2069.60009765625</ele>
        <time>2026-06-15T11:00:13.000Z</time>
        <extensions>
          <ns3:TrackPointExtension>
            <ns3:atemp>15.0</ns3:atemp>
          </ns3:TrackPointExtension>
        </extensions>
      </trkpt>
      <trkpt lat="42.56228573620319366455078125" lon="20.066947750747203826904296875">
        <ele>2069.60009765625</ele>
        <time>2026-06-15T11:00:14.000Z</time>
        <extensions>
          <ns3:TrackPointExtension>
            <ns3:atemp>15.0</ns3:atemp>
          </ns3:TrackPointExtension>
        </extensions>
      </trkpt>
      <trkpt lat="42.56231096573173999786376953125" lon="20.06693677045404911041259765625">
        <ele>2069.60009765625</ele>
        <time>2026-06-15T11:00:15.000Z</time>
        <extensions>
          <ns3:TrackPointExtension>
            <ns3:atemp>15.0</ns3:atemp>
          </ns3:TrackPointExtension>
        </extensions>
      </trkpt>
      <trkpt lat="42.5623398832976818084716796875" lon="20.0669288076460361480712890625">
        <ele>2069.800048828125</ele>
        <time>2026-06-15T11:00:16.000Z</time>
        <extensions>
          <ns3:TrackPointExtension>
            <ns3:atemp>15.0</ns3:atemp>
          </ns3:TrackPointExtension>
        </extensions>
      </trkpt>
      <trkpt lat="42.5623667053878307342529296875" lon="20.0669293105602264404296875">
        <ele>2069.800048828125</ele>
        <time>2026-06-15T11:00:17.000Z</time>
        <extensions>
          <ns3:TrackPointExtension>
            <ns3:atemp>15.0</ns3:atemp>
          </ns3:TrackPointExtension>
        </extensions>
      </trkpt>
      <trkpt lat="42.5623938627541065216064453125" lon="20.06693056784570217132568359375">
        <ele>2069.800048828125</ele>
        <time>2026-06-15T11:00:18.000Z</time>
        <extensions>
          <ns3:TrackPointExtension>
            <ns3:atemp>15.0</ns3:atemp>
          </ns3:TrackPointExtension>
        </extensions>
      </trkpt>
      <trkpt lat="42.56242261268198490142822265625" lon="20.06692453287541866302490234375">
        <ele>2069.800048828125</ele>
        <time>2026-06-15T11:00:19.000Z</time>
        <extensions>
          <ns3:TrackPointExtension>
            <ns3:atemp>15.0</ns3:atemp>
          </ns3:TrackPointExtension>
        </extensions>
      </trkpt>
      <trkpt lat="42.56245329044759273529052734375" lon="20.06690978072583675384521484375">
        <ele>2070</ele>
        <time>2026-06-15T11:00:20.000Z</time>
        <extensions>
          <ns3:TrackPointExtension>
            <ns3:atemp>15.0</ns3:atemp>
          </ns3:TrackPointExtension>
        </extensions>
      </trkpt>
      <trkpt lat="42.56248195655643939971923828125" lon="20.06688681431114673614501953125">
        <ele>2070</ele>
        <time>2026-06-15T11:00:21.000Z</time>
        <extensions>
          <ns3:TrackPointExtension>
            <ns3:atemp>15.0</ns3:atemp>
          </ns3:TrackPointExtension>
        </extensions>
      </trkpt>
      <trkpt lat="42.56250492297112941741943359375" lon="20.06686351262032985687255859375">
        <ele>2070</ele>
        <time>2026-06-15T11:00:22.000Z</time>
        <extensions>
          <ns3:TrackPointExtension>
            <ns3:atemp>15.0</ns3:atemp>
          </ns3:TrackPointExtension>
        </extensions>
      </trkpt>
      <trkpt lat="42.56252453662455081939697265625" lon="20.06683769635856151580810546875">
        <ele>2070.199951171875</ele>
        <time>2026-06-15T11:00:23.000Z</time>
        <extensions>
          <ns3:TrackPointExtension>
            <ns3:atemp>15.0</ns3:atemp>
          </ns3:TrackPointExtension>
        </extensions>
      </trkpt>
      <trkpt lat="42.5625433959066867828369140625" lon="20.06681255064904689788818359375">
        <ele>2070.39990234375</ele>
        <time>2026-06-15T11:00:24.000Z</time>
        <extensions>
          <ns3:TrackPointExtension>
            <ns3:atemp>15.0</ns3:atemp>
          </ns3:TrackPointExtension>
        </extensions>
      </trkpt>
      <trkpt lat="42.56256342865526676177978515625" lon="20.0667883269488811492919921875">
        <ele>2070.39990234375</ele>
        <time>2026-06-15T11:00:25.000Z</time>
        <extensions>
          <ns3:TrackPointExtension>
            <ns3:atemp>15.0</ns3:atemp>
          </ns3:TrackPointExtension>
        </extensions>
      </trkpt>
      <trkpt lat="42.562581785023212432861328125" lon="20.0667588226497173309326171875">
        <ele>2070.60009765625</ele>
        <time>2026-06-15T11:00:26.000Z</time>
        <extensions>
          <ns3:TrackPointExtension>
            <ns3:atemp>15.0</ns3:atemp>
          </ns3:TrackPointExtension>
        </extensions>
      </trkpt>
      <trkpt lat="42.56259880028665065765380859375" lon="20.06672345101833343505859375">
        <ele>2070.800048828125</ele>
        <time>2026-06-15T11:00:27.000Z</time>
        <extensions>
          <ns3:TrackPointExtension>
            <ns3:atemp>15.0</ns3:atemp>
          </ns3:TrackPointExtension>
        </extensions>
      </trkpt>
      <trkpt lat="42.56261807866394519805908203125" lon="20.06669126451015472412109375">
        <ele>2071</ele>
        <time>2026-06-15T11:00:28.000Z</time>
        <extensions>
          <ns3:TrackPointExtension>
            <ns3:atemp>15.0</ns3:atemp>
          </ns3:TrackPointExtension>
        </extensions>
      </trkpt>
      <trkpt lat="42.562635429203510284423828125" lon="20.06666016764938831329345703125">
        <ele>2071.199951171875</ele>
        <time>2026-06-15T11:00:29.000Z</time>
        <extensions>
          <ns3:TrackPointExtension>
            <ns3:atemp>15.0</ns3:atemp>
          </ns3:TrackPointExtension>
        </extensions>
      </trkpt>
      <trkpt lat="42.562651522457599639892578125" lon="20.0666307471692562103271484375">
        <ele>2071.39990234375</ele>
        <time>2026-06-15T11:00:30.000Z</time>
        <extensions>
          <ns3:TrackPointExtension>
            <ns3:atemp>15.0</ns3:atemp>
          </ns3:TrackPointExtension>
        </extensions>
      </trkpt>
      <trkpt lat="42.56266552023589611053466796875" lon="20.06659738719463348388671875">
        <ele>2071.60009765625</ele>
        <time>2026-06-15T11:00:31.000Z</time>
        <extensions>
          <ns3:TrackPointExtension>
            <ns3:atemp>15.0</ns3:atemp>
          </ns3:TrackPointExtension>
        </extensions>
      </trkpt>
      <trkpt lat="42.56267976947128772735595703125" lon="20.066562853753566741943359375">
        <ele>2071.800048828125</ele>
        <time>2026-06-15T11:00:32.000Z</time>
        <extensions>
          <ns3:TrackPointExtension>
            <ns3:atemp>15.0</ns3:atemp>
          </ns3:TrackPointExtension>
        </extensions>
      </trkpt>
      <trkpt lat="42.562695108354091644287109375" lon="20.0665283203125">
        <ele>2072</ele>
        <time>2026-06-15T11:00:33.000Z</time>
        <extensions>
          <ns3:TrackPointExtension>
            <ns3:atemp>15.0</ns3:atemp>
          </ns3:TrackPointExtension>
        </extensions>
      </trkpt>
      <trkpt lat="42.5627049989998340606689453125" lon="20.0664922781288623809814453125">
        <ele>2072.199951171875</ele>
        <time>2026-06-15T11:00:34.000Z</time>
        <extensions>
          <ns3:TrackPointExtension>
            <ns3:atemp>15.0</ns3:atemp>
          </ns3:TrackPointExtension>
        </extensions>
      </trkpt>
      <trkpt lat="42.56271497346460819244384765625" lon="20.0664580799639225006103515625">
        <ele>2072.39990234375</ele>
        <time>2026-06-15T11:00:35.000Z</time>
        <extensions>
          <ns3:TrackPointExtension>
            <ns3:atemp>15.0</ns3:atemp>
          </ns3:TrackPointExtension>
        </extensions>
      </trkpt>
      <trkpt lat="42.56272519938647747039794921875" lon="20.0664265640079975128173828125">
        <ele>2072.60009765625</ele>
        <time>2026-06-15T11:00:36.000Z</time>
        <extensions>
          <ns3:TrackPointExtension>
            <ns3:atemp>15.0</ns3:atemp>
          </ns3:TrackPointExtension>
        </extensions>
      </trkpt>
      <trkpt lat="42.5627378560602664947509765625" lon="20.06639798171818256378173828125">
        <ele>2072.800048828125</ele>
        <time>2026-06-15T11:00:37.000Z</time>
        <extensions>
          <ns3:TrackPointExtension>
            <ns3:atemp>15.0</ns3:atemp>
          </ns3:TrackPointExtension>
        </extensions>
      </trkpt>
      <trkpt lat="42.5627526082098484039306640625" lon="20.06637132726609706878662109375">
        <ele>2072.800048828125</ele>
        <time>2026-06-15T11:00:38.000Z</time>
        <extensions>
          <ns3:TrackPointExtension>
            <ns3:atemp>15.0</ns3:atemp>
          </ns3:TrackPointExtension>
        </extensions>
      </trkpt>
      <trkpt lat="42.5627723895013332366943359375" lon="20.06634056568145751953125">
        <ele>2072.800048828125</ele>
        <time>2026-06-15T11:00:39.000Z</time>
        <extensions>
          <ns3:TrackPointExtension>
            <ns3:atemp>15.0</ns3:atemp>
          </ns3:TrackPointExtension>
        </extensions>
      </trkpt>
      <trkpt lat="42.562791667878627777099609375" lon="20.06631567142903804779052734375">
        <ele>2072.800048828125</ele>
        <time>2026-06-15T11:00:40.000Z</time>
        <extensions>
          <ns3:TrackPointExtension>
            <ns3:atemp>15.0</ns3:atemp>
          </ns3:TrackPointExtension>
        </extensions>
      </trkpt>
      <trkpt lat="42.56280851550400257110595703125" lon="20.06629203446209430694580078125">
        <ele>2073</ele>
        <time>2026-06-15T11:00:41.000Z</time>
        <extensions>
          <ns3:TrackPointExtension>
            <ns3:atemp>15.0</ns3:atemp>
          </ns3:TrackPointExtension>
        </extensions>
      </trkpt>
      <trkpt lat="42.56283156573772430419921875" lon="20.066265799105167388916015625">
        <ele>2073</ele>
        <time>2026-06-15T11:00:42.000Z</time>
        <extensions>
          <ns3:TrackPointExtension>
            <ns3:atemp>15.0</ns3:atemp>
          </ns3:TrackPointExtension>
        </extensions>
      </trkpt>
      <trkpt lat="42.56285042501986026763916015625" lon="20.06624073721468448638916015625">
        <ele>2073</ele>
        <time>2026-06-15T11:00:43.000Z</time>
        <extensions>
          <ns3:TrackPointExtension>
            <ns3:atemp>15.0</ns3:atemp>
          </ns3:TrackPointExtension>
        </extensions>
      </trkpt>
      <trkpt lat="42.56286752410233020782470703125" lon="20.0662109814584255218505859375">
        <ele>2073.199951171875</ele>
        <time>2026-06-15T11:00:44.000Z</time>
        <extensions>
          <ns3:TrackPointExtension>
            <ns3:atemp>15.0</ns3:atemp>
          </ns3:TrackPointExtension>
        </extensions>
      </trkpt>
      <trkpt lat="42.5628833658993244171142578125" lon="20.06617837585508823394775390625">
        <ele>2073.199951171875</ele>
        <time>2026-06-15T11:00:45.000Z</time>
        <extensions>
          <ns3:TrackPointExtension>
            <ns3:atemp>15.0</ns3:atemp>
          </ns3:TrackPointExtension>
        </extensions>
      </trkpt>
      <trkpt lat="42.5628994591534137725830078125" lon="20.0661419145762920379638671875">
        <ele>2073.199951171875</ele>
        <time>2026-06-15T11:00:46.000Z</time>
        <extensions>
          <ns3:TrackPointExtension>
            <ns3:atemp>15.0</ns3:atemp>
          </ns3:TrackPointExtension>
        </extensions>
      </trkpt>
      <trkpt lat="42.5629152171313762664794921875" lon="20.06609623320400714874267578125">
        <ele>2073.39990234375</ele>
        <time>2026-06-15T11:00:47.000Z</time>
        <extensions>
          <ns3:TrackPointExtension>
            <ns3:atemp>15.0</ns3:atemp>
          </ns3:TrackPointExtension>
        </extensions>
      </trkpt>
      <trkpt lat="42.5629346631467342376708984375" lon="20.06604376249015331268310546875">
        <ele>2073.199951171875</ele>
        <time>2026-06-15T11:00:48.000Z</time>
        <extensions>
          <ns3:TrackPointExtension>
            <ns3:atemp>15.0</ns3:atemp>
          </ns3:TrackPointExtension>
        </extensions>
      </trkpt>
      <trkpt lat="42.56295670755207538604736328125" lon="20.06598726846277713775634765625">
        <ele>2073.199951171875</ele>
        <time>2026-06-15T11:00:49.000Z</time>
        <extensions>
          <ns3:TrackPointExtension>
            <ns3:atemp>15.0</ns3:atemp>
          </ns3:TrackPointExtension>
        </extensions>
      </trkpt>
      <trkpt lat="42.56298269145190715789794921875" lon="20.0659343786537647247314453125">
        <ele>2073.199951171875</ele>
        <time>2026-06-15T11:00:50.000Z</time>
        <extensions>
          <ns3:TrackPointExtension>
            <ns3:atemp>15.0</ns3:atemp>
          </ns3:TrackPointExtension>
        </extensions>
      </trkpt>
      <trkpt lat="42.56300783716142177581787109375" lon="20.06588391959667205810546875">
        <ele>2073</ele>
        <time>2026-06-15T11:00:51.000Z</time>
        <extensions>
          <ns3:TrackPointExtension>
            <ns3:atemp>15.0</ns3:atemp>
          </ns3:TrackPointExtension>
        </extensions>
      </trkpt>
      <trkpt lat="42.563028372824192047119140625" lon="20.06583639420568943023681640625">
        <ele>2073</ele>
        <time>2026-06-15T11:00:52.000Z</time>
        <extensions>
          <ns3:TrackPointExtension>
            <ns3:atemp>15.0</ns3:atemp>
          </ns3:TrackPointExtension>
        </extensions>
      </trkpt>
      <trkpt lat="42.5630481541156768798828125" lon="20.0657855160534381866455078125">
        <ele>2073</ele>
        <time>2026-06-15T11:00:53.000Z</time>
        <extensions>
          <ns3:TrackPointExtension>
            <ns3:atemp>15.0</ns3:atemp>
          </ns3:TrackPointExtension>
        </extensions>
      </trkpt>
      <trkpt lat="42.5630669295787811279296875" lon="20.065738074481487274169921875">
        <ele>2073</ele>
        <time>2026-06-15T11:00:54.000Z</time>
        <extensions>
          <ns3:TrackPointExtension>
            <ns3:atemp>15.0</ns3:atemp>
          </ns3:TrackPointExtension>
        </extensions>
      </trkpt>
      <trkpt lat="42.56308511830866336822509765625" lon="20.0656879507005214691162109375">
        <ele>2072.800048828125</ele>
        <time>2026-06-15T11:00:55.000Z</time>
        <extensions>
          <ns3:TrackPointExtension>
            <ns3:atemp>15.0</ns3:atemp>
          </ns3:TrackPointExtension>
        </extensions>
      </trkpt>
      <trkpt lat="42.5630999542772769927978515625" lon="20.06563254632055759429931640625">
        <ele>2072.800048828125</ele>
        <time>2026-06-15T11:00:56.000Z</time>
        <extensions>
          <ns3:TrackPointExtension>
            <ns3:atemp>15.0</ns3:atemp>
          </ns3:TrackPointExtension>
        </extensions>
      </trkpt>
      <trkpt lat="42.56310942582786083221435546875" lon="20.06557286716997623443603515625">
        <ele>2072.60009765625</ele>
        <time>2026-06-15T11:00:57.000Z</time>
        <extensions>
          <ns3:TrackPointExtension>
            <ns3:atemp>15.0</ns3:atemp>
          </ns3:TrackPointExtension>
        </extensions>
      </trkpt>
      <trkpt lat="42.5631183944642543792724609375" lon="20.06550983525812625885009765625">
        <ele>2072.39990234375</ele>
        <time>2026-06-15T11:00:58.000Z</time>
        <extensions>
          <ns3:TrackPointExtension>
            <ns3:atemp>15.0</ns3:atemp>
          </ns3:TrackPointExtension>
        </extensions>
      </trkpt>
      <trkpt lat="42.56312660872936248779296875" lon="20.06544210948050022125244140625">
        <ele>2072.199951171875</ele>
        <time>2026-06-15T11:00:59.000Z</time>
        <extensions>
          <ns3:TrackPointExtension>
            <ns3:atemp>15.0</ns3:atemp>
          </ns3:TrackPointExtension>
        </extensions>
      </trkpt>
      <trkpt lat="42.563130296766757965087890625" lon="20.06536918692290782928466796875">
        <ele>2072</ele>
        <time>2026-06-15T11:01:00.000Z</time>
        <extensions>
          <ns3:TrackPointExtension>
            <ns3:atemp>15.0</ns3:atemp>
          </ns3:TrackPointExtension>
        </extensions>
      </trkpt>
      <trkpt lat="42.563145719468593597412109375" lon="20.06529425270855426788330078125">
        <ele>2071.60009765625</ele>
        <time>2026-06-15T11:01:01.000Z</time>
        <extensions>
          <ns3:TrackPointExtension>
            <ns3:atemp>15.0</ns3:atemp>
          </ns3:TrackPointExtension>
        </extensions>
      </trkpt>
      <trkpt lat="42.5631673447787761688232421875" lon="20.06522954441606998443603515625">
        <ele>2071.39990234375</ele>
        <time>2026-06-15T11:01:02.000Z</time>
        <extensions>
          <ns3:TrackPointExtension>
            <ns3:atemp>15.0</ns3:atemp>
          </ns3:TrackPointExtension>
        </extensions>
      </trkpt>
      <trkpt lat="42.5631877966225147247314453125" lon="20.06517724134027957916259765625">
        <ele>2071</ele>
        <time>2026-06-15T11:01:03.000Z</time>
        <extensions>
          <ns3:TrackPointExtension>
            <ns3:atemp>15.0</ns3:atemp>
          </ns3:TrackPointExtension>
        </extensions>
      </trkpt>
      <trkpt lat="42.5632072426378726959228515625" lon="20.06514287553727626800537109375">
        <ele>2070.60009765625</ele>
        <time>2026-06-15T11:01:04.000Z</time>
        <extensions>
          <ns3:TrackPointExtension>
            <ns3:atemp>15.0</ns3:atemp>
          </ns3:TrackPointExtension>
        </extensions>
      </trkpt>
      <trkpt lat="42.56322861649096012115478515625" lon="20.06511471234261989593505859375">
        <ele>2070.199951171875</ele>
        <time>2026-06-15T11:01:05.000Z</time>
        <extensions>
          <ns3:TrackPointExtension>
            <ns3:atemp>15.0</ns3:atemp>
          </ns3:TrackPointExtension>
        </extensions>
      </trkpt>
      <trkpt lat="42.5632484816014766693115234375" lon="20.06507883779704570770263671875">
        <ele>2070</ele>
        <time>2026-06-15T11:01:06.000Z</time>
        <extensions>
          <ns3:TrackPointExtension>
            <ns3:atemp>15.0</ns3:atemp>
          </ns3:TrackPointExtension>
        </extensions>
      </trkpt>
      <trkpt lat="42.563269101083278656005859375" lon="20.06504933349788188934326171875">
        <ele>2069.800048828125</ele>
        <time>2026-06-15T11:01:07.000Z</time>
        <extensions>
          <ns3:TrackPointExtension>
            <ns3:atemp>15.0</ns3:atemp>
          </ns3:TrackPointExtension>
        </extensions>
      </trkpt>
      <trkpt lat="42.56328712217509746551513671875" lon="20.06502561271190643310546875">
        <ele>2069.60009765625</ele>
        <time>2026-06-15T11:01:08.000Z</time>
        <extensions>
          <ns3:TrackPointExtension>
            <ns3:atemp>15.0</ns3:atemp>
          </ns3:TrackPointExtension>
        </extensions>
      </trkpt>
      <trkpt lat="42.5633111782371997833251953125" lon="20.06499485112726688385009765625">
        <ele>2069.39990234375</ele>
        <time>2026-06-15T11:01:09.000Z</time>
        <extensions>
          <ns3:TrackPointExtension>
            <ns3:atemp>15.0</ns3:atemp>
          </ns3:TrackPointExtension>
        </extensions>
      </trkpt>
      <trkpt lat="42.56333716213703155517578125" lon="20.0649664364755153656005859375">
        <ele>2069.199951171875</ele>
        <time>2026-06-15T11:01:10.000Z</time>
        <extensions>
          <ns3:TrackPointExtension>
            <ns3:atemp>15.0</ns3:atemp>
          </ns3:TrackPointExtension>
        </extensions>
      </trkpt>
      <trkpt lat="42.56336666643619537353515625" lon="20.06492896936833858489990234375">
        <ele>2069.199951171875</ele>
        <time>2026-06-15T11:01:11.000Z</time>
        <extensions>
          <ns3:TrackPointExtension>
            <ns3:atemp>15.0</ns3:atemp>
          </ns3:TrackPointExtension>
        </extensions>
      </trkpt>
      <trkpt lat="42.56339541636407375335693359375" lon="20.064889155328273773193359375">
        <ele>2069</ele>
        <time>2026-06-15T11:01:12.000Z</time>
        <extensions>
          <ns3:TrackPointExtension>
            <ns3:atemp>15.0</ns3:atemp>
          </ns3:TrackPointExtension>
        </extensions>
      </trkpt>
      <trkpt lat="42.5634261779487133026123046875" lon="20.064846239984035491943359375">
        <ele>2069</ele>
        <time>2026-06-15T11:01:13.000Z</time>
        <extensions>
          <ns3:TrackPointExtension>
            <ns3:atemp>15.0</ns3:atemp>
          </ns3:TrackPointExtension>
        </extensions>
      </trkpt>
      <trkpt lat="42.5634597055613994598388671875" lon="20.06480030715465545654296875">
        <ele>2068.800048828125</ele>
        <time>2026-06-15T11:01:14.000Z</time>
        <extensions>
          <ns3:TrackPointExtension>
            <ns3:atemp>15.0</ns3:atemp>
          </ns3:TrackPointExtension>
        </extensions>
      </trkpt>
      <trkpt lat="42.5634858570992946624755859375" lon="20.06475982256233692169189453125">
        <ele>2068.60009765625</ele>
        <time>2026-06-15T11:01:15.000Z</time>
        <extensions>
          <ns3:TrackPointExtension>
            <ns3:atemp>15.0</ns3:atemp>
          </ns3:TrackPointExtension>
        </extensions>
      </trkpt>
      <trkpt lat="42.56350555457174777984619140625" lon="20.06472143344581127166748046875">
        <ele>2068.199951171875</ele>
        <time>2026-06-15T11:01:16.000Z</time>
        <extensions>
          <ns3:TrackPointExtension>
            <ns3:atemp>15.0</ns3:atemp>
          </ns3:TrackPointExtension>
        </extensions>
      </trkpt>
      <trkpt lat="42.56352080963551998138427734375" lon="20.0646941922605037689208984375">
        <ele>2068</ele>
        <time>2026-06-15T11:01:17.000Z</time>
        <extensions>
          <ns3:TrackPointExtension>
            <ns3:atemp>15.0</ns3:atemp>
          </ns3:TrackPointExtension>
        </extensions>
      </trkpt>
      <trkpt lat="42.56353698670864105224609375" lon="20.0646660290658473968505859375">
        <ele>2067.800048828125</ele>
        <time>2026-06-15T11:01:18.000Z</time>
        <extensions>
          <ns3:TrackPointExtension>
            <ns3:atemp>15.0</ns3:atemp>
          </ns3:TrackPointExtension>
        </extensions>
      </trkpt>
      <trkpt lat="42.56355433724820613861083984375" lon="20.06463660858571529388427734375">
        <ele>2067.800048828125</ele>
        <time>2026-06-15T11:01:19.000Z</time>
        <extensions>
          <ns3:TrackPointExtension>
            <ns3:atemp>15.0</ns3:atemp>
          </ns3:TrackPointExtension>
        </extensions>
      </trkpt>
      <trkpt lat="42.56357210688292980194091796875" lon="20.0646194256842136383056640625">
        <ele>2067.60009765625</ele>
        <time>2026-06-15T11:01:20.000Z</time>
        <extensions>
          <ns3:TrackPointExtension>
            <ns3:atemp>15.0</ns3:atemp>
          </ns3:TrackPointExtension>
        </extensions>
      </trkpt>
      <trkpt lat="42.56359138526022434234619140625" lon="20.0646066851913928985595703125">
        <ele>2067.60009765625</ele>
        <time>2026-06-15T11:01:21.000Z</time>
        <extensions>
          <ns3:TrackPointExtension>
            <ns3:atemp>15.0</ns3:atemp>
          </ns3:TrackPointExtension>
        </extensions>
      </trkpt>
      <trkpt lat="42.56361150182783603668212890625" lon="20.0646076910197734832763671875">
        <ele>2067.60009765625</ele>
        <time>2026-06-15T11:01:22.000Z</time>
        <extensions>
          <ns3:TrackPointExtension>
            <ns3:atemp>15.0</ns3:atemp>
          </ns3:TrackPointExtension>
        </extensions>
      </trkpt>
      <trkpt lat="42.5636370666325092315673828125" lon="20.0646130554378032684326171875">
        <ele>2067.39990234375</ele>
        <time>2026-06-15T11:01:23.000Z</time>
        <extensions>
          <ns3:TrackPointExtension>
            <ns3:atemp>15.0</ns3:atemp>
          </ns3:TrackPointExtension>
        </extensions>
      </trkpt>
      <trkpt lat="42.56366816349327564239501953125" lon="20.06462453864514827728271484375">
        <ele>2067.39990234375</ele>
        <time>2026-06-15T11:01:24.000Z</time>
        <extensions>
          <ns3:TrackPointExtension>
            <ns3:atemp>15.0</ns3:atemp>
          </ns3:TrackPointExtension>
        </extensions>
      </trkpt>
      <trkpt lat="42.56369716487824916839599609375" lon="20.06463476456701755523681640625">
        <ele>2067.199951171875</ele>
        <time>2026-06-15T11:01:25.000Z</time>
        <extensions>
          <ns3:TrackPointExtension>
            <ns3:atemp>15.0</ns3:atemp>
          </ns3:TrackPointExtension>
        </extensions>
      </trkpt>
      <trkpt lat="42.56372516043484210968017578125" lon="20.06464180536568164825439453125">
        <ele>2067.199951171875</ele>
        <time>2026-06-15T11:01:26.000Z</time>
        <extensions>
          <ns3:TrackPointExtension>
            <ns3:atemp>15.0</ns3:atemp>
          </ns3:TrackPointExtension>
        </extensions>
      </trkpt>
      <trkpt lat="42.56374812684953212738037109375" lon="20.06464147008955478668212890625">
        <ele>2067.199951171875</ele>
        <time>2026-06-15T11:01:27.000Z</time>
        <extensions>
          <ns3:TrackPointExtension>
            <ns3:atemp>15.0</ns3:atemp>
          </ns3:TrackPointExtension>
        </extensions>
      </trkpt>
      <trkpt lat="42.563776709139347076416015625" lon="20.0646348483860492706298828125">
        <ele>2067</ele>
        <time>2026-06-15T11:01:28.000Z</time>
        <extensions>
          <ns3:TrackPointExtension>
            <ns3:atemp>15.0</ns3:atemp>
          </ns3:TrackPointExtension>
        </extensions>
      </trkpt>
      <trkpt lat="42.5638087280094623565673828125" lon="20.0646154023706912994384765625">
        <ele>2067</ele>
        <time>2026-06-15T11:01:29.000Z</time>
        <extensions>
          <ns3:TrackPointExtension>
            <ns3:atemp>15.0</ns3:atemp>
          </ns3:TrackPointExtension>
        </extensions>
      </trkpt>
      <trkpt lat="42.56384409964084625244140625" lon="20.0645864009857177734375">
        <ele>2067</ele>
        <time>2026-06-15T11:01:30.000Z</time>
        <extensions>
          <ns3:TrackPointExtension>
            <ns3:atemp>15.0</ns3:atemp>
          </ns3:TrackPointExtension>
        </extensions>
      </trkpt>
      <trkpt lat="42.56388491950929164886474609375" lon="20.0645500235259532928466796875">
        <ele>2066.800048828125</ele>
        <time>2026-06-15T11:01:31.000Z</time>
        <extensions>
          <ns3:TrackPointExtension>
            <ns3:atemp>15.0</ns3:atemp>
          </ns3:TrackPointExtension>
        </extensions>
      </trkpt>
      <trkpt lat="42.5639264099299907684326171875" lon="20.064507611095905303955078125">
        <ele>2066.39990234375</ele>
        <time>2026-06-15T11:01:32.000Z</time>
        <extensions>
          <ns3:TrackPointExtension>
            <ns3:atemp>15.0</ns3:atemp>
          </ns3:TrackPointExtension>
        </extensions>
      </trkpt>
      <trkpt lat="42.56397360004484653472900390625" lon="20.064469389617443084716796875">
        <ele>2066</ele>
        <time>2026-06-15T11:01:33.000Z</time>
        <extensions>
          <ns3:TrackPointExtension>
            <ns3:atemp>15.0</ns3:atemp>
          </ns3:TrackPointExtension>
        </extensions>
      </trkpt>
      <trkpt lat="42.5640209577977657318115234375" lon="20.06443510763347148895263671875">
        <ele>2065.60009765625</ele>
        <time>2026-06-15T11:01:34.000Z</time>
        <extensions>
          <ns3:TrackPointExtension>
            <ns3:atemp>15.0</ns3:atemp>
          </ns3:TrackPointExtension>
        </extensions>
      </trkpt>
      <trkpt lat="42.5640652142465114593505859375" lon="20.0643937848508358001708984375">
        <ele>2065.199951171875</ele>
        <time>2026-06-15T11:01:35.000Z</time>
        <extensions>
          <ns3:TrackPointExtension>
            <ns3:atemp>15.0</ns3:atemp>
          </ns3:TrackPointExtension>
        </extensions>
      </trkpt>
      <trkpt lat="42.5641114823520183563232421875" lon="20.0643599219620227813720703125">
        <ele>2064.60009765625</ele>
        <time>2026-06-15T11:01:36.000Z</time>
        <extensions>
          <ns3:TrackPointExtension>
            <ns3:atemp>15.0</ns3:atemp>
          </ns3:TrackPointExtension>
        </extensions>
      </trkpt>
      <trkpt lat="42.56415716372430324554443359375" lon="20.06433217786252498626708984375">
        <ele>2064.199951171875</ele>
        <time>2026-06-15T11:01:37.000Z</time>
        <extensions>
          <ns3:TrackPointExtension>
            <ns3:atemp>15.0</ns3:atemp>
          </ns3:TrackPointExtension>
        </extensions>
      </trkpt>
      <trkpt lat="42.56420494057238101959228515625" lon="20.06430267356336116790771484375">
        <ele>2063.60009765625</ele>
        <time>2026-06-15T11:01:38.000Z</time>
        <extensions>
          <ns3:TrackPointExtension>
            <ns3:atemp>15.0</ns3:atemp>
          </ns3:TrackPointExtension>
        </extensions>
      </trkpt>
      <trkpt lat="42.5642526336014270782470703125" lon="20.06429194472730159759521484375">
        <ele>2063.199951171875</ele>
        <time>2026-06-15T11:01:39.000Z</time>
        <extensions>
          <ns3:TrackPointExtension>
            <ns3:atemp>15.0</ns3:atemp>
          </ns3:TrackPointExtension>
        </extensions>
      </trkpt>
      <trkpt lat="42.564301081001758575439453125" lon="20.06428423337638378143310546875">
        <ele>2062.800048828125</ele>
        <time>2026-06-15T11:01:40.000Z</time>
        <extensions>
          <ns3:TrackPointExtension>
            <ns3:atemp>15.0</ns3:atemp>
          </ns3:TrackPointExtension>
        </extensions>
      </trkpt>
      <trkpt lat="42.5643542222678661346435546875" lon="20.06428398191928863525390625">
        <ele>2062.39990234375</ele>
        <time>2026-06-15T11:01:41.000Z</time>
        <extensions>
          <ns3:TrackPointExtension>
            <ns3:atemp>15.0</ns3:atemp>
          </ns3:TrackPointExtension>
        </extensions>
      </trkpt>
      <trkpt lat="42.56440945900976657867431640625" lon="20.0642794556915760040283203125">
        <ele>2062</ele>
        <time>2026-06-15T11:01:42.000Z</time>
        <extensions>
          <ns3:TrackPointExtension>
            <ns3:atemp>15.0</ns3:atemp>
          </ns3:TrackPointExtension>
        </extensions>
      </trkpt>
      <trkpt lat="42.5644665397703647613525390625" lon="20.0642784498631954193115234375">
        <ele>2061.39990234375</ele>
        <time>2026-06-15T11:01:43.000Z</time>
        <extensions>
          <ns3:TrackPointExtension>
            <ns3:atemp>15.0</ns3:atemp>
          </ns3:TrackPointExtension>
        </extensions>
      </trkpt>
      <trkpt lat="42.56452563218772411346435546875" lon="20.0642819702625274658203125">
        <ele>2060.800048828125</ele>
        <time>2026-06-15T11:01:44.000Z</time>
        <extensions>
          <ns3:TrackPointExtension>
            <ns3:atemp>15.0</ns3:atemp>
          </ns3:TrackPointExtension>
        </extensions>
      </trkpt>
      <trkpt lat="42.5645791925489902496337890625" lon="20.064282305538654327392578125">
        <ele>2060.199951171875</ele>
        <time>2026-06-15T11:01:45.000Z</time>
        <extensions>
          <ns3:TrackPointExtension>
            <ns3:atemp>15.0</ns3:atemp>
          </ns3:TrackPointExtension>
        </extensions>
      </trkpt>
      <trkpt lat="42.5646257959306240081787109375" lon="20.06428808905184268951416015625">
        <ele>2059.60009765625</ele>
        <time>2026-06-15T11:01:46.000Z</time>
        <extensions>
          <ns3:TrackPointExtension>
            <ns3:atemp>15.0</ns3:atemp>
          </ns3:TrackPointExtension>
        </extensions>
      </trkpt>
      <trkpt lat="42.56467298604547977447509765625" lon="20.06429395638406276702880859375">
        <ele>2059</ele>
        <time>2026-06-15T11:01:47.000Z</time>
        <extensions>
          <ns3:TrackPointExtension>
            <ns3:atemp>15.0</ns3:atemp>
          </ns3:TrackPointExtension>
        </extensions>
      </trkpt>
      <trkpt lat="42.5647257082164287567138671875" lon="20.06430133245885372161865234375">
        <ele>2058.60009765625</ele>
        <time>2026-06-15T11:01:48.000Z</time>
        <extensions>
          <ns3:TrackPointExtension>
            <ns3:atemp>15.0</ns3:atemp>
          </ns3:TrackPointExtension>
        </extensions>
      </trkpt>
      <trkpt lat="42.56478513590991497039794921875" lon="20.064299739897251129150390625">
        <ele>2058</ele>
        <time>2026-06-15T11:01:49.000Z</time>
        <extensions>
          <ns3:TrackPointExtension>
            <ns3:atemp>15.0</ns3:atemp>
          </ns3:TrackPointExtension>
        </extensions>
      </trkpt>
      <trkpt lat="42.56484883837401866912841796875" lon="20.06430233828723430633544921875">
        <ele>2057.60009765625</ele>
        <time>2026-06-15T11:01:50.000Z</time>
        <extensions>
          <ns3:TrackPointExtension>
            <ns3:atemp>15.0</ns3:atemp>
          </ns3:TrackPointExtension>
        </extensions>
      </trkpt>
      <trkpt lat="42.5649107806384563446044921875" lon="20.0643163360655307769775390625">
        <ele>2057</ele>
        <time>2026-06-15T11:01:51.000Z</time>
        <extensions>
          <ns3:TrackPointExtension>
            <ns3:atemp>15.0</ns3:atemp>
          </ns3:TrackPointExtension>
        </extensions>
      </trkpt>
      <trkpt lat="42.56497423164546489715576171875" lon="20.0643280707299709320068359375">
        <ele>2056.39990234375</ele>
        <time>2026-06-15T11:01:52.000Z</time>
        <extensions>
          <ns3:TrackPointExtension>
            <ns3:atemp>15.0</ns3:atemp>
          </ns3:TrackPointExtension>
        </extensions>
      </trkpt>
      <trkpt lat="42.5650395266711711883544921875" lon="20.06433234550058841705322265625">
        <ele>2055.800048828125</ele>
        <time>2026-06-15T11:01:53.000Z</time>
        <extensions>
          <ns3:TrackPointExtension>
            <ns3:atemp>15.0</ns3:atemp>
          </ns3:TrackPointExtension>
        </extensions>
      </trkpt>
      <trkpt lat="42.5651032291352748870849609375" lon="20.06432312540709972381591796875">
        <ele>2055.39990234375</ele>
        <time>2026-06-15T11:01:54.000Z</time>
        <extensions>
          <ns3:TrackPointExtension>
            <ns3:atemp>15.0</ns3:atemp>
          </ns3:TrackPointExtension>
        </extensions>
      </trkpt>
      <trkpt lat="42.56516215391457080841064453125" lon="20.06429496221244335174560546875">
        <ele>2054.800048828125</ele>
        <time>2026-06-15T11:01:55.000Z</time>
        <extensions>
          <ns3:TrackPointExtension>
            <ns3:atemp>15.0</ns3:atemp>
          </ns3:TrackPointExtension>
        </extensions>
      </trkpt>
      <trkpt lat="42.56521646864712238311767578125" lon="20.0642626918852329254150390625">
        <ele>2054.199951171875</ele>
        <time>2026-06-15T11:01:56.000Z</time>
        <extensions>
          <ns3:TrackPointExtension>
            <ns3:atemp>15.0</ns3:atemp>
          </ns3:TrackPointExtension>
        </extensions>
      </trkpt>
      <trkpt lat="42.5652708671987056732177734375" lon="20.06422958336770534515380859375">
        <ele>2053.800048828125</ele>
        <time>2026-06-15T11:01:57.000Z</time>
        <extensions>
          <ns3:TrackPointExtension>
            <ns3:atemp>15.0</ns3:atemp>
          </ns3:TrackPointExtension>
        </extensions>
      </trkpt>
      <trkpt lat="42.5653194822371006011962890625" lon="20.06419136188924312591552734375">
        <ele>2053.199951171875</ele>
        <time>2026-06-15T11:01:58.000Z</time>
        <extensions>
          <ns3:TrackPointExtension>
            <ns3:atemp>15.0</ns3:atemp>
          </ns3:TrackPointExtension>
        </extensions>
      </trkpt>
      <trkpt lat="42.56536181084811687469482421875" lon="20.0641453452408313751220703125">
        <ele>2052.60009765625</ele>
        <time>2026-06-15T11:01:59.000Z</time>
        <extensions>
          <ns3:TrackPointExtension>
            <ns3:atemp>15.0</ns3:atemp>
          </ns3:TrackPointExtension>
        </extensions>
      </trkpt>
      <trkpt lat="42.5653976015746593475341796875" lon="20.06409564055502414703369140625">
        <ele>2052.199951171875</ele>
        <time>2026-06-15T11:02:00.000Z</time>
        <extensions>
          <ns3:TrackPointExtension>
            <ns3:atemp>15.0</ns3:atemp>
          </ns3:TrackPointExtension>
        </extensions>
      </trkpt>
      <trkpt lat="42.5654214061796665191650390625" lon="20.06403411738574504852294921875">
        <ele>2051.60009765625</ele>
        <time>2026-06-15T11:02:01.000Z</time>
        <extensions>
          <ns3:TrackPointExtension>
            <ns3:atemp>15.0</ns3:atemp>
          </ns3:TrackPointExtension>
        </extensions>
      </trkpt>
      <trkpt lat="42.565435655415058135986328125" lon="20.06396211683750152587890625">
        <ele>2051.39990234375</ele>
        <time>2026-06-15T11:02:02.000Z</time>
        <extensions>
          <ns3:TrackPointExtension>
            <ns3:atemp>15.0</ns3:atemp>
          </ns3:TrackPointExtension>
        </extensions>
      </trkpt>
      <trkpt lat="42.56544060073792934417724609375" lon="20.06388274021446704864501953125">
        <ele>2050.800048828125</ele>
        <time>2026-06-15T11:02:03.000Z</time>
        <extensions>
          <ns3:TrackPointExtension>
            <ns3:atemp>15.0</ns3:atemp>
          </ns3:TrackPointExtension>
        </extensions>
      </trkpt>
      <trkpt lat="42.56544630043208599090576171875" lon="20.0638010166585445404052734375">
        <ele>2050.39990234375</ele>
        <time>2026-06-15T11:02:04.000Z</time>
        <extensions>
          <ns3:TrackPointExtension>
            <ns3:atemp>15.0</ns3:atemp>
          </ns3:TrackPointExtension>
        </extensions>
      </trkpt>
      <trkpt lat="42.56545744836330413818359375" lon="20.0637265853583812713623046875">
        <ele>2050</ele>
        <time>2026-06-15T11:02:05.000Z</time>
        <extensions>
          <ns3:TrackPointExtension>
            <ns3:atemp>15.0</ns3:atemp>
          </ns3:TrackPointExtension>
        </extensions>
      </trkpt>
      <trkpt lat="42.5654740445315837860107421875" lon="20.06365290842950344085693359375">
        <ele>2049.60009765625</ele>
        <time>2026-06-15T11:02:06.000Z</time>
        <extensions>
          <ns3:TrackPointExtension>
            <ns3:atemp>15.0</ns3:atemp>
          </ns3:TrackPointExtension>
        </extensions>
      </trkpt>
      <trkpt lat="42.56548536010086536407470703125" lon="20.063580907881259918212890625">
        <ele>2049.199951171875</ele>
        <time>2026-06-15T11:02:07.000Z</time>
        <extensions>
          <ns3:TrackPointExtension>
            <ns3:atemp>15.0</ns3:atemp>
          </ns3:TrackPointExtension>
        </extensions>
      </trkpt>
      <trkpt lat="42.565490640699863433837890625" lon="20.06351293064653873443603515625">
        <ele>2048.800048828125</ele>
        <time>2026-06-15T11:02:08.000Z</time>
        <extensions>
          <ns3:TrackPointExtension>
            <ns3:atemp>15.0</ns3:atemp>
          </ns3:TrackPointExtension>
        </extensions>
      </trkpt>
      <trkpt lat="42.56549256853759288787841796875" lon="20.06344310939311981201171875">
        <ele>2048.39990234375</ele>
        <time>2026-06-15T11:02:09.000Z</time>
        <extensions>
          <ns3:TrackPointExtension>
            <ns3:atemp>15.0</ns3:atemp>
          </ns3:TrackPointExtension>
        </extensions>
      </trkpt>
      <trkpt lat="42.56548837758600711822509765625" lon="20.0633834302425384521484375">
        <ele>2048.199951171875</ele>
        <time>2026-06-15T11:02:10.000Z</time>
        <extensions>
          <ns3:TrackPointExtension>
            <ns3:atemp>15.0</ns3:atemp>
          </ns3:TrackPointExtension>
        </extensions>
      </trkpt>
      <trkpt lat="42.56548468954861164093017578125" lon="20.06333447992801666259765625">
        <ele>2048</ele>
        <time>2026-06-15T11:02:11.000Z</time>
        <extensions>
          <ns3:TrackPointExtension>
            <ns3:atemp>15.0</ns3:atemp>
          </ns3:TrackPointExtension>
        </extensions>
      </trkpt>
      <trkpt lat="42.5654784031212329864501953125" lon="20.06328913383185863494873046875">
        <ele>2047.5999755859375</ele>
        <time>2026-06-15T11:02:12.000Z</time>
        <extensions>
          <ns3:TrackPointExtension>
            <ns3:atemp>15.0</ns3:atemp>
          </ns3:TrackPointExtension>
        </extensions>
      </trkpt>
      <trkpt lat="42.56546658463776111602783203125" lon="20.0632364116609096527099609375">
        <ele>2047.4000244140625</ele>
        <time>2026-06-15T11:02:13.000Z</time>
        <extensions>
          <ns3:TrackPointExtension>
            <ns3:atemp>15.0</ns3:atemp>
          </ns3:TrackPointExtension>
        </extensions>
      </trkpt>
      <trkpt lat="42.5654468871653079986572265625" lon="20.06318955682218074798583984375">
        <ele>2047</ele>
        <time>2026-06-15T11:02:14.000Z</time>
        <extensions>
          <ns3:TrackPointExtension>
            <ns3:atemp>15.0</ns3:atemp>
          </ns3:TrackPointExtension>
        </extensions>
      </trkpt>
      <trkpt lat="42.5654351525008678436279296875" lon="20.06314546801149845123291015625">
        <ele>2046.800048828125</ele>
        <time>2026-06-15T11:02:15.000Z</time>
        <extensions>
          <ns3:TrackPointExtension>
            <ns3:atemp>15.0</ns3:atemp>
          </ns3:TrackPointExtension>
        </extensions>
      </trkpt>
      <trkpt lat="42.5654321350157260894775390625" lon="20.0630878843367099761962890625">
        <ele>2046.5999755859375</ele>
        <time>2026-06-15T11:02:16.000Z</time>
        <extensions>
          <ns3:TrackPointExtension>
            <ns3:atemp>15.0</ns3:atemp>
          </ns3:TrackPointExtension>
        </extensions>
      </trkpt>
      <trkpt lat="42.56545208394527435302734375" lon="20.06304320879280567169189453125">
        <ele>2046.199951171875</ele>
        <time>2026-06-15T11:02:17.000Z</time>
        <extensions>
          <ns3:TrackPointExtension>
            <ns3:atemp>15.0</ns3:atemp>
          </ns3:TrackPointExtension>
        </extensions>
      </trkpt>
      <trkpt lat="42.5654794089496135711669921875" lon="20.0630060769617557525634765625">
        <ele>2045.800048828125</ele>
        <time>2026-06-15T11:02:18.000Z</time>
        <extensions>
          <ns3:TrackPointExtension>
            <ns3:atemp>15.0</ns3:atemp>
          </ns3:TrackPointExtension>
        </extensions>
      </trkpt>
      <trkpt lat="42.565520815551280975341796875" lon="20.06300381384789943695068359375">
        <ele>2045.4000244140625</ele>
        <time>2026-06-15T11:02:19.000Z</time>
        <extensions>
          <ns3:TrackPointExtension>
            <ns3:atemp>15.0</ns3:atemp>
          </ns3:TrackPointExtension>
        </extensions>
      </trkpt>
      <trkpt lat="42.56556230597198009490966796875" lon="20.0630231760442256927490234375">
        <ele>2044.800048828125</ele>
        <time>2026-06-15T11:02:20.000Z</time>
        <extensions>
          <ns3:TrackPointExtension>
            <ns3:atemp>15.0</ns3:atemp>
          </ns3:TrackPointExtension>
        </extensions>
      </trkpt>
      <trkpt lat="42.56560186855494976043701171875" lon="20.0630654208362102508544921875">
        <ele>2044.199951171875</ele>
        <time>2026-06-15T11:02:21.000Z</time>
        <extensions>
          <ns3:TrackPointExtension>
            <ns3:atemp>15.0</ns3:atemp>
          </ns3:TrackPointExtension>
        </extensions>
      </trkpt>
      <trkpt lat="42.56563983857631683349609375" lon="20.0631113536655902862548828125">
        <ele>2043.800048828125</ele>
        <time>2026-06-15T11:02:22.000Z</time>
        <extensions>
          <ns3:TrackPointExtension>
            <ns3:atemp>15.0</ns3:atemp>
          </ns3:TrackPointExtension>
        </extensions>
      </trkpt>
      <trkpt lat="42.5656825862824916839599609375" lon="20.06315343081951141357421875">
        <ele>2043.199951171875</ele>
        <time>2026-06-15T11:02:23.000Z</time>
        <extensions>
          <ns3:TrackPointExtension>
            <ns3:atemp>15.0</ns3:atemp>
          </ns3:TrackPointExtension>
        </extensions>
      </trkpt>
      <trkpt lat="42.56572709418833255767822265625" lon="20.06318670697510242462158203125">
        <ele>2042.5999755859375</ele>
        <time>2026-06-15T11:02:24.000Z</time>
        <extensions>
          <ns3:TrackPointExtension>
            <ns3:atemp>15.0</ns3:atemp>
          </ns3:TrackPointExtension>
        </extensions>
      </trkpt>
      <trkpt lat="42.56576749496161937713623046875" lon="20.06322694011032581329345703125">
        <ele>2042.199951171875</ele>
        <time>2026-06-15T11:02:25.000Z</time>
        <extensions>
          <ns3:TrackPointExtension>
            <ns3:atemp>15.0</ns3:atemp>
          </ns3:TrackPointExtension>
        </extensions>
      </trkpt>
      <trkpt lat="42.5658073090016841888427734375" lon="20.06327211856842041015625">
        <ele>2041.4000244140625</ele>
        <time>2026-06-15T11:02:26.000Z</time>
        <extensions>
          <ns3:TrackPointExtension>
            <ns3:atemp>15.0</ns3:atemp>
          </ns3:TrackPointExtension>
        </extensions>
      </trkpt>
      <trkpt lat="42.56585516966879367828369140625" lon="20.06332919932901859283447265625">
        <ele>2041</ele>
        <time>2026-06-15T11:02:27.000Z</time>
        <extensions>
          <ns3:TrackPointExtension>
            <ns3:atemp>15.0</ns3:atemp>
          </ns3:TrackPointExtension>
        </extensions>
      </trkpt>
      <trkpt lat="42.5659052096307277679443359375" lon="20.06338736973702907562255859375">
        <ele>2040.5999755859375</ele>
        <time>2026-06-15T11:02:28.000Z</time>
        <extensions>
          <ns3:TrackPointExtension>
            <ns3:atemp>15.0</ns3:atemp>
          </ns3:TrackPointExtension>
        </extensions>
      </trkpt>
      <trkpt lat="42.56595390848815441131591796875" lon="20.063450150191783905029296875">
        <ele>2040</ele>
        <time>2026-06-15T11:02:29.000Z</time>
        <extensions>
          <ns3:TrackPointExtension>
            <ns3:atemp>15.0</ns3:atemp>
          </ns3:TrackPointExtension>
        </extensions>
      </trkpt>
      <trkpt lat="42.565996907651424407958984375" lon="20.063516199588775634765625">
        <ele>2039.4000244140625</ele>
        <time>2026-06-15T11:02:30.000Z</time>
        <extensions>
          <ns3:TrackPointExtension>
            <ns3:atemp>15.0</ns3:atemp>
          </ns3:TrackPointExtension>
        </extensions>
      </trkpt>
      <trkpt lat="42.56602800451219081878662109375" lon="20.0635834224522113800048828125">
        <ele>2038.800048828125</ele>
        <time>2026-06-15T11:02:31.000Z</time>
        <extensions>
          <ns3:TrackPointExtension>
            <ns3:atemp>15.0</ns3:atemp>
          </ns3:TrackPointExtension>
        </extensions>
      </trkpt>
      <trkpt lat="42.56604812107980251312255859375" lon="20.06365098059177398681640625">
        <ele>2038.199951171875</ele>
        <time>2026-06-15T11:02:32.000Z</time>
        <extensions>
          <ns3:TrackPointExtension>
            <ns3:atemp>15.0</ns3:atemp>
          </ns3:TrackPointExtension>
        </extensions>
      </trkpt>
      <trkpt lat="42.566063962876796722412109375" lon="20.06370269693434238433837890625">
        <ele>2037.5999755859375</ele>
        <time>2026-06-15T11:02:33.000Z</time>
        <extensions>
          <ns3:TrackPointExtension>
            <ns3:atemp>15.0</ns3:atemp>
          </ns3:TrackPointExtension>
        </extensions>
      </trkpt>
      <trkpt lat="42.56609036587178707122802734375" lon="20.063746869564056396484375">
        <ele>2037.199951171875</ele>
        <time>2026-06-15T11:02:34.000Z</time>
        <extensions>
          <ns3:TrackPointExtension>
            <ns3:atemp>15.0</ns3:atemp>
          </ns3:TrackPointExtension>
        </extensions>
      </trkpt>
      <trkpt lat="42.5661305151879787445068359375" lon="20.06376472301781177520751953125">
        <ele>2036.800048828125</ele>
        <time>2026-06-15T11:02:35.000Z</time>
        <extensions>
          <ns3:TrackPointExtension>
            <ns3:atemp>15.0</ns3:atemp>
          </ns3:TrackPointExtension>
        </extensions>
      </trkpt>
      <trkpt lat="42.5661690719425678253173828125" lon="20.06374108605086803436279296875">
        <ele>2036.4000244140625</ele>
        <time>2026-06-15T11:02:36.000Z</time>
        <extensions>
          <ns3:TrackPointExtension>
            <ns3:atemp>15.0</ns3:atemp>
          </ns3:TrackPointExtension>
        </extensions>
      </trkpt>
      <trkpt lat="42.56619078107178211212158203125" lon="20.0636903755366802215576171875">
        <ele>2036</ele>
        <time>2026-06-15T11:02:37.000Z</time>
        <extensions>
          <ns3:TrackPointExtension>
            <ns3:atemp>15.0</ns3:atemp>
          </ns3:TrackPointExtension>
        </extensions>
      </trkpt>
      <trkpt lat="42.566196732223033905029296875" lon="20.06362617015838623046875">
        <ele>2035.5999755859375</ele>
        <time>2026-06-15T11:02:38.000Z</time>
        <extensions>
          <ns3:TrackPointExtension>
            <ns3:atemp>15.0</ns3:atemp>
          </ns3:TrackPointExtension>
        </extensions>
      </trkpt>
      <trkpt lat="42.566196732223033905029296875" lon="20.0635542534291744232177734375">
        <ele>2034.800048828125</ele>
        <time>2026-06-15T11:02:39.000Z</time>
        <extensions>
          <ns3:TrackPointExtension>
            <ns3:atemp>15.0</ns3:atemp>
          </ns3:TrackPointExtension>
        </extensions>
      </trkpt>
      <trkpt lat="42.56618659012019634246826171875" lon="20.06347890011966228485107421875">
        <ele>2034.4000244140625</ele>
        <time>2026-06-15T11:02:40.000Z</time>
        <extensions>
          <ns3:TrackPointExtension>
            <ns3:atemp>15.0</ns3:atemp>
          </ns3:TrackPointExtension>
        </extensions>
      </trkpt>
      <trkpt lat="42.56617334671318531036376953125" lon="20.0634104199707508087158203125">
        <ele>2033.800048828125</ele>
        <time>2026-06-15T11:02:41.000Z</time>
        <extensions>
          <ns3:TrackPointExtension>
            <ns3:atemp>15.0</ns3:atemp>
          </ns3:TrackPointExtension>
        </extensions>
      </trkpt>
      <trkpt lat="42.56615817546844482421875" lon="20.06333925761282444000244140625">
        <ele>2033.4000244140625</ele>
        <time>2026-06-15T11:02:42.000Z</time>
        <extensions>
          <ns3:TrackPointExtension>
            <ns3:atemp>15.0</ns3:atemp>
          </ns3:TrackPointExtension>
        </extensions>
      </trkpt>
      <trkpt lat="42.5661358796060085296630859375" lon="20.06326834671199321746826171875">
        <ele>2033</ele>
        <time>2026-06-15T11:02:43.000Z</time>
        <extensions>
          <ns3:TrackPointExtension>
            <ns3:atemp>15.0</ns3:atemp>
          </ns3:TrackPointExtension>
        </extensions>
      </trkpt>
      <trkpt lat="42.56610880605876445770263671875" lon="20.06320263259112834930419921875">
        <ele>2032.5999755859375</ele>
        <time>2026-06-15T11:02:44.000Z</time>
        <extensions>
          <ns3:TrackPointExtension>
            <ns3:atemp>15.0</ns3:atemp>
          </ns3:TrackPointExtension>
        </extensions>
      </trkpt>
      <trkpt lat="42.56607762537896633148193359375" lon="20.0631415285170078277587890625">
        <ele>2032.199951171875</ele>
        <time>2026-06-15T11:02:45.000Z</time>
        <extensions>
          <ns3:TrackPointExtension>
            <ns3:atemp>15.0</ns3:atemp>
          </ns3:TrackPointExtension>
        </extensions>
      </trkpt>
      <trkpt lat="42.56603655405342578887939453125" lon="20.06308813579380512237548828125">
        <ele>2031.800048828125</ele>
        <time>2026-06-15T11:02:46.000Z</time>
        <extensions>
          <ns3:TrackPointExtension>
            <ns3:atemp>15.0</ns3:atemp>
          </ns3:TrackPointExtension>
        </extensions>
      </trkpt>
      <trkpt lat="42.56598961539566516876220703125" lon="20.0630325637757778167724609375">
        <ele>2031.5999755859375</ele>
        <time>2026-06-15T11:02:47.000Z</time>
        <extensions>
          <ns3:TrackPointExtension>
            <ns3:atemp>15.0</ns3:atemp>
          </ns3:TrackPointExtension>
        </extensions>
      </trkpt>
      <trkpt lat="42.56594234146177768707275390625" lon="20.06298285908997058868408203125">
        <ele>2031.4000244140625</ele>
        <time>2026-06-15T11:02:48.000Z</time>
        <extensions>
          <ns3:TrackPointExtension>
            <ns3:atemp>15.0</ns3:atemp>
          </ns3:TrackPointExtension>
        </extensions>
      </trkpt>
      <trkpt lat="42.56589774973690509796142578125" lon="20.062933154404163360595703125">
        <ele>2031.199951171875</ele>
        <time>2026-06-15T11:02:49.000Z</time>
        <extensions>
          <ns3:TrackPointExtension>
            <ns3:atemp>15.0</ns3:atemp>
          </ns3:TrackPointExtension>
        </extensions>
      </trkpt>
      <trkpt lat="42.5658740289509296417236328125" lon="20.062889568507671356201171875">
        <ele>2031</ele>
        <time>2026-06-15T11:02:50.000Z</time>
        <extensions>
          <ns3:TrackPointExtension>
            <ns3:atemp>15.0</ns3:atemp>
          </ns3:TrackPointExtension>
        </extensions>
      </trkpt>
      <trkpt lat="42.5658643059432506561279296875" lon="20.0628531910479068756103515625">
        <ele>2030.800048828125</ele>
        <time>2026-06-15T11:02:51.000Z</time>
        <extensions>
          <ns3:TrackPointExtension>
            <ns3:atemp>15.0</ns3:atemp>
          </ns3:TrackPointExtension>
        </extensions>
      </trkpt>
      <trkpt lat="42.56585181690752506256103515625" lon="20.06283156573772430419921875">
        <ele>2030.5999755859375</ele>
        <time>2026-06-15T11:02:52.000Z</time>
        <extensions>
          <ns3:TrackPointExtension>
            <ns3:atemp>15.0</ns3:atemp>
          </ns3:TrackPointExtension>
        </extensions>
      </trkpt>
      <trkpt lat="42.56583698093891143798828125" lon="20.06282259710133075714111328125">
        <ele>2030.5999755859375</ele>
        <time>2026-06-15T11:02:53.000Z</time>
        <extensions>
          <ns3:TrackPointExtension>
            <ns3:atemp>15.0</ns3:atemp>
          </ns3:TrackPointExtension>
        </extensions>
      </trkpt>
      <trkpt lat="42.5658217258751392364501953125" lon="20.06281840614974498748779296875">
        <ele>2030.5999755859375</ele>
        <time>2026-06-15T11:02:54.000Z</time>
        <extensions>
          <ns3:TrackPointExtension>
            <ns3:atemp>15.0</ns3:atemp>
          </ns3:TrackPointExtension>
        </extensions>
      </trkpt>
      <trkpt lat="42.56580881774425506591796875" lon="20.06281077861785888671875">
        <ele>2030.5999755859375</ele>
        <time>2026-06-15T11:02:55.000Z</time>
        <extensions>
          <ns3:TrackPointExtension>
            <ns3:atemp>15.0</ns3:atemp>
          </ns3:TrackPointExtension>
        </extensions>
      </trkpt>
      <trkpt lat="42.56579943001270294189453125" lon="20.0627978704869747161865234375">
        <ele>2030.5999755859375</ele>
        <time>2026-06-15T11:02:56.000Z</time>
        <extensions>
          <ns3:TrackPointExtension>
            <ns3:atemp>15.0</ns3:atemp>
          </ns3:TrackPointExtension>
        </extensions>
      </trkpt>
      <trkpt lat="42.56578777916729450225830078125" lon="20.0627790950238704681396484375">
        <ele>2030.5999755859375</ele>
        <time>2026-06-15T11:02:57.000Z</time>
        <extensions>
          <ns3:TrackPointExtension>
            <ns3:atemp>15.0</ns3:atemp>
          </ns3:TrackPointExtension>
        </extensions>
      </trkpt>
      <trkpt lat="42.56577168591320514678955078125" lon="20.0627542845904827117919921875">
        <ele>2030.5999755859375</ele>
        <time>2026-06-15T11:02:58.000Z</time>
        <extensions>
          <ns3:TrackPointExtension>
            <ns3:atemp>15.0</ns3:atemp>
          </ns3:TrackPointExtension>
        </extensions>
      </trkpt>
      <trkpt lat="42.565747797489166259765625" lon="20.062727630138397216796875">
        <ele>2030.5999755859375</ele>
        <time>2026-06-15T11:02:59.000Z</time>
        <extensions>
          <ns3:TrackPointExtension>
            <ns3:atemp>15.0</ns3:atemp>
          </ns3:TrackPointExtension>
        </extensions>
      </trkpt>
      <trkpt lat="42.5657231546938419342041015625" lon="20.0626892410218715667724609375">
        <ele>2030.4000244140625</ele>
        <time>2026-06-15T11:03:00.000Z</time>
        <extensions>
          <ns3:TrackPointExtension>
            <ns3:atemp>15.0</ns3:atemp>
          </ns3:TrackPointExtension>
        </extensions>
      </trkpt>
      <trkpt lat="42.56568920798599720001220703125" lon="20.0626565515995025634765625">
        <ele>2030.199951171875</ele>
        <time>2026-06-15T11:03:01.000Z</time>
        <extensions>
          <ns3:TrackPointExtension>
            <ns3:atemp>15.0</ns3:atemp>
          </ns3:TrackPointExtension>
        </extensions>
      </trkpt>
      <trkpt lat="42.5656534172594547271728515625" lon="20.062624029815196990966796875">
        <ele>2030.199951171875</ele>
        <time>2026-06-15T11:03:02.000Z</time>
        <extensions>
          <ns3:TrackPointExtension>
            <ns3:atemp>15.0</ns3:atemp>
          </ns3:TrackPointExtension>
        </extensions>
      </trkpt>
      <trkpt lat="42.565620727837085723876953125" lon="20.0625936873257160186767578125">
        <ele>2030</ele>
        <time>2026-06-15T11:03:03.000Z</time>
        <extensions>
          <ns3:TrackPointExtension>
            <ns3:atemp>15.0</ns3:atemp>
          </ns3:TrackPointExtension>
        </extensions>
      </trkpt>
      <trkpt lat="42.56559030152857303619384765625" lon="20.06256594322621822357177734375">
        <ele>2029.800048828125</ele>
        <time>2026-06-15T11:03:04.000Z</time>
        <extensions>
          <ns3:TrackPointExtension>
            <ns3:atemp>15.0</ns3:atemp>
          </ns3:TrackPointExtension>
        </extensions>
      </trkpt>
      <trkpt lat="42.56556532345712184906005859375" lon="20.062536858022212982177734375">
        <ele>2029.800048828125</ele>
        <time>2026-06-15T11:03:05.000Z</time>
        <extensions>
          <ns3:TrackPointExtension>
            <ns3:atemp>15.0</ns3:atemp>
          </ns3:TrackPointExtension>
        </extensions>
      </trkpt>
      <trkpt lat="42.56554353050887584686279296875" lon="20.0625071860849857330322265625">
        <ele>2029.5999755859375</ele>
        <time>2026-06-15T11:03:06.000Z</time>
        <extensions>
          <ns3:TrackPointExtension>
            <ns3:atemp>15.0</ns3:atemp>
          </ns3:TrackPointExtension>
        </extensions>
      </trkpt>
      <trkpt lat="42.56552307866513729095458984375" lon="20.06248296238481998443603515625">
        <ele>2029.4000244140625</ele>
        <time>2026-06-15T11:03:07.000Z</time>
        <extensions>
          <ns3:TrackPointExtension>
            <ns3:atemp>15.0</ns3:atemp>
          </ns3:TrackPointExtension>
        </extensions>
      </trkpt>
      <trkpt lat="42.56550095044076442718505859375" lon="20.06245882250368595123291015625">
        <ele>2029.4000244140625</ele>
        <time>2026-06-15T11:03:08.000Z</time>
        <extensions>
          <ns3:TrackPointExtension>
            <ns3:atemp>15.0</ns3:atemp>
          </ns3:TrackPointExtension>
        </extensions>
      </trkpt>
      <trkpt lat="42.56548133678734302520751953125" lon="20.06243971176445484161376953125">
        <ele>2029.199951171875</ele>
        <time>2026-06-15T11:03:09.000Z</time>
        <extensions>
          <ns3:TrackPointExtension>
            <ns3:atemp>15.0</ns3:atemp>
          </ns3:TrackPointExtension>
        </extensions>
      </trkpt>
      <trkpt lat="42.56546440534293651580810546875" lon="20.0624205172061920166015625">
        <ele>2029.199951171875</ele>
        <time>2026-06-15T11:03:10.000Z</time>
        <extensions>
          <ns3:TrackPointExtension>
            <ns3:atemp>15.0</ns3:atemp>
          </ns3:TrackPointExtension>
        </extensions>
      </trkpt>
      <trkpt lat="42.5654478929936885833740234375" lon="20.06239570677280426025390625">
        <ele>2029</ele>
        <time>2026-06-15T11:03:11.000Z</time>
        <extensions>
          <ns3:TrackPointExtension>
            <ns3:atemp>15.0</ns3:atemp>
          </ns3:TrackPointExtension>
        </extensions>
      </trkpt>
      <trkpt lat="42.565430290997028350830078125" lon="20.06236963905394077301025390625">
        <ele>2029</ele>
        <time>2026-06-15T11:03:12.000Z</time>
        <extensions>
          <ns3:TrackPointExtension>
            <ns3:atemp>15.0</ns3:atemp>
          </ns3:TrackPointExtension>
        </extensions>
      </trkpt>
      <trkpt lat="42.56540707312524318695068359375" lon="20.06234474480152130126953125">
        <ele>2029</ele>
        <time>2026-06-15T11:03:13.000Z</time>
        <extensions>
          <ns3:TrackPointExtension>
            <ns3:atemp>15.0</ns3:atemp>
          </ns3:TrackPointExtension>
        </extensions>
      </trkpt>
      <trkpt lat="42.56538226269185543060302734375" lon="20.06231633014976978302001953125">
        <ele>2028.800048828125</ele>
        <time>2026-06-15T11:03:14.000Z</time>
        <extensions>
          <ns3:TrackPointExtension>
            <ns3:atemp>15.0</ns3:atemp>
          </ns3:TrackPointExtension>
        </extensions>
      </trkpt>
      <trkpt lat="42.56535259075462818145751953125" lon="20.06228833459317684173583984375">
        <ele>2028.800048828125</ele>
        <time>2026-06-15T11:03:15.000Z</time>
        <extensions>
          <ns3:TrackPointExtension>
            <ns3:atemp>15.0</ns3:atemp>
          </ns3:TrackPointExtension>
        </extensions>
      </trkpt>
      <trkpt lat="42.565314956009387969970703125" lon="20.06225698627531528472900390625">
        <ele>2028.5999755859375</ele>
        <time>2026-06-15T11:03:16.000Z</time>
        <extensions>
          <ns3:TrackPointExtension>
            <ns3:atemp>15.0</ns3:atemp>
          </ns3:TrackPointExtension>
        </extensions>
      </trkpt>
      <trkpt lat="42.5652715377509593963623046875" lon="20.0622218661010265350341796875">
        <ele>2028.5999755859375</ele>
        <time>2026-06-15T11:03:17.000Z</time>
        <extensions>
          <ns3:TrackPointExtension>
            <ns3:atemp>15.0</ns3:atemp>
          </ns3:TrackPointExtension>
        </extensions>
      </trkpt>
      <trkpt lat="42.56522367708384990692138671875" lon="20.0621762685477733612060546875">
        <ele>2028.4000244140625</ele>
        <time>2026-06-15T11:03:18.000Z</time>
        <extensions>
          <ns3:TrackPointExtension>
            <ns3:atemp>15.0</ns3:atemp>
          </ns3:TrackPointExtension>
        </extensions>
      </trkpt>
      <trkpt lat="42.56517992354929447174072265625" lon="20.06211784668266773223876953125">
        <ele>2028.199951171875</ele>
        <time>2026-06-15T11:03:19.000Z</time>
        <extensions>
          <ns3:TrackPointExtension>
            <ns3:atemp>15.0</ns3:atemp>
          </ns3:TrackPointExtension>
        </extensions>
      </trkpt>
      <trkpt lat="42.5651394389569759368896484375" lon="20.06205112673342227935791015625">
        <ele>2027.800048828125</ele>
        <time>2026-06-15T11:03:20.000Z</time>
        <extensions>
          <ns3:TrackPointExtension>
            <ns3:atemp>15.0</ns3:atemp>
          </ns3:TrackPointExtension>
        </extensions>
      </trkpt>
      <trkpt lat="42.565090321004390716552734375" lon="20.06199069321155548095703125">
        <ele>2027.4000244140625</ele>
        <time>2026-06-15T11:03:21.000Z</time>
        <extensions>
          <ns3:TrackPointExtension>
            <ns3:atemp>15.0</ns3:atemp>
          </ns3:TrackPointExtension>
        </extensions>
      </trkpt>
      <trkpt lat="42.56504438817501068115234375" lon="20.06192439235746860504150390625">
        <ele>2027</ele>
        <time>2026-06-15T11:03:22.000Z</time>
        <extensions>
          <ns3:TrackPointExtension>
            <ns3:atemp>15.0</ns3:atemp>
          </ns3:TrackPointExtension>
        </extensions>
      </trkpt>
      <trkpt lat="42.56500273011624813079833984375" lon="20.0618550740182399749755859375">
        <ele>2026.5999755859375</ele>
        <time>2026-06-15T11:03:23.000Z</time>
        <extensions>
          <ns3:TrackPointExtension>
            <ns3:atemp>15.0</ns3:atemp>
          </ns3:TrackPointExtension>
        </extensions>
      </trkpt>
      <trkpt lat="42.56495897658169269561767578125" lon="20.06179631687700748443603515625">
        <ele>2026</ele>
        <time>2026-06-15T11:03:24.000Z</time>
        <extensions>
          <ns3:TrackPointExtension>
            <ns3:atemp>15.0</ns3:atemp>
          </ns3:TrackPointExtension>
        </extensions>
      </trkpt>
      <trkpt lat="42.5649148039519786834716796875" lon="20.06174133159220218658447265625">
        <ele>2025.5999755859375</ele>
        <time>2026-06-15T11:03:25.000Z</time>
        <extensions>
          <ns3:TrackPointExtension>
            <ns3:atemp>15.0</ns3:atemp>
          </ns3:TrackPointExtension>
        </extensions>
      </trkpt>
      <trkpt lat="42.5648720562458038330078125" lon="20.061689279973506927490234375">
        <ele>2025.4000244140625</ele>
        <time>2026-06-15T11:03:26.000Z</time>
        <extensions>
          <ns3:TrackPointExtension>
            <ns3:atemp>15.0</ns3:atemp>
          </ns3:TrackPointExtension>
        </extensions>
      </trkpt>
      <trkpt lat="42.56483777426183223724365234375" lon="20.06164058111608028411865234375">
        <ele>2025</ele>
        <time>2026-06-15T11:03:27.000Z</time>
        <extensions>
          <ns3:TrackPointExtension>
            <ns3:atemp>15.0</ns3:atemp>
          </ns3:TrackPointExtension>
        </extensions>
      </trkpt>
      <trkpt lat="42.564811371266841888427734375" lon="20.0616059638559818267822265625">
        <ele>2024.5999755859375</ele>
        <time>2026-06-15T11:03:28.000Z</time>
        <extensions>
          <ns3:TrackPointExtension>
            <ns3:atemp>15.0</ns3:atemp>
          </ns3:TrackPointExtension>
        </extensions>
      </trkpt>
      <trkpt lat="42.5647770054638385772705078125" lon="20.0615821592509746551513671875">
        <ele>2024.4000244140625</ele>
        <time>2026-06-15T11:03:29.000Z</time>
        <extensions>
          <ns3:TrackPointExtension>
            <ns3:atemp>15.0</ns3:atemp>
          </ns3:TrackPointExtension>
        </extensions>
      </trkpt>
      <trkpt lat="42.56474574096500873565673828125" lon="20.0615643896162509918212890625">
        <ele>2024.199951171875</ele>
        <time>2026-06-15T11:03:30.000Z</time>
        <extensions>
          <ns3:TrackPointExtension>
            <ns3:atemp>15.0</ns3:atemp>
          </ns3:TrackPointExtension>
        </extensions>
      </trkpt>
      <trkpt lat="42.5647191703319549560546875" lon="20.0615523196756839752197265625">
        <ele>2024</ele>
        <time>2026-06-15T11:03:31.000Z</time>
        <extensions>
          <ns3:TrackPointExtension>
            <ns3:atemp>15.0</ns3:atemp>
          </ns3:TrackPointExtension>
        </extensions>
      </trkpt>
      <trkpt lat="42.56469846703112125396728515625" lon="20.06153379566967487335205078125">
        <ele>2023.800048828125</ele>
        <time>2026-06-15T11:03:32.000Z</time>
        <extensions>
          <ns3:TrackPointExtension>
            <ns3:atemp>15.0</ns3:atemp>
          </ns3:TrackPointExtension>
        </extensions>
      </trkpt>
      <trkpt lat="42.5646868161857128143310546875" lon="20.06151326000690460205078125">
        <ele>2023.5999755859375</ele>
        <time>2026-06-15T11:03:33.000Z</time>
        <extensions>
          <ns3:TrackPointExtension>
            <ns3:atemp>15.0</ns3:atemp>
          </ns3:TrackPointExtension>
        </extensions>
      </trkpt>
      <trkpt lat="42.56467700935900211334228515625" lon="20.06148912012577056884765625">
        <ele>2023.4000244140625</ele>
        <time>2026-06-15T11:03:34.000Z</time>
        <extensions>
          <ns3:TrackPointExtension>
            <ns3:atemp>15.0</ns3:atemp>
          </ns3:TrackPointExtension>
        </extensions>
      </trkpt>
      <trkpt lat="42.56467022001743316650390625" lon="20.06146498024463653564453125">
        <ele>2023.199951171875</ele>
        <time>2026-06-15T11:03:35.000Z</time>
        <extensions>
          <ns3:TrackPointExtension>
            <ns3:atemp>15.0</ns3:atemp>
          </ns3:TrackPointExtension>
        </extensions>
      </trkpt>
      <trkpt lat="42.56467700935900211334228515625" lon="20.06144888699054718017578125">
        <ele>2023</ele>
        <time>2026-06-15T11:03:36.000Z</time>
        <extensions>
          <ns3:TrackPointExtension>
            <ns3:atemp>15.0</ns3:atemp>
          </ns3:TrackPointExtension>
        </extensions>
      </trkpt>
      <trkpt lat="42.56468622945249080657958984375" lon="20.06142667494714260101318359375">
        <ele>2023</ele>
        <time>2026-06-15T11:03:37.000Z</time>
        <extensions>
          <ns3:TrackPointExtension>
            <ns3:atemp>15.0</ns3:atemp>
          </ns3:TrackPointExtension>
        </extensions>
      </trkpt>
      <trkpt lat="42.56469863466918468475341796875" lon="20.061414353549480438232421875">
        <ele>2023</ele>
        <time>2026-06-15T11:03:38.000Z</time>
        <extensions>
          <ns3:TrackPointExtension>
            <ns3:atemp>15.0</ns3:atemp>
          </ns3:TrackPointExtension>
        </extensions>
      </trkpt>
      <trkpt lat="42.56471640430390834808349609375" lon="20.06140060722827911376953125">
        <ele>2023</ele>
        <time>2026-06-15T11:03:39.000Z</time>
        <extensions>
          <ns3:TrackPointExtension>
            <ns3:atemp>15.0</ns3:atemp>
          </ns3:TrackPointExtension>
        </extensions>
      </trkpt>
      <trkpt lat="42.56473970599472522735595703125" lon="20.06137856282293796539306640625">
        <ele>2023</ele>
        <time>2026-06-15T11:03:40.000Z</time>
        <extensions>
          <ns3:TrackPointExtension>
            <ns3:atemp>15.0</ns3:atemp>
          </ns3:TrackPointExtension>
        </extensions>
      </trkpt>
      <trkpt lat="42.564759068191051483154296875" lon="20.0613602064549922943115234375">
        <ele>2023</ele>
        <time>2026-06-15T11:03:41.000Z</time>
        <extensions>
          <ns3:TrackPointExtension>
            <ns3:atemp>15.0</ns3:atemp>
          </ns3:TrackPointExtension>
        </extensions>
      </trkpt>
      <trkpt lat="42.5647719763219356536865234375" lon="20.061336569488048553466796875">
        <ele>2023</ele>
        <time>2026-06-15T11:03:42.000Z</time>
        <extensions>
          <ns3:TrackPointExtension>
            <ns3:atemp>15.0</ns3:atemp>
          </ns3:TrackPointExtension>
        </extensions>
      </trkpt>
      <trkpt lat="42.5647781789302825927734375" lon="20.06130513735115528106689453125">
        <ele>2023</ele>
        <time>2026-06-15T11:03:43.000Z</time>
        <extensions>
          <ns3:TrackPointExtension>
            <ns3:atemp>15.0</ns3:atemp>
          </ns3:TrackPointExtension>
        </extensions>
      </trkpt>
      <trkpt lat="42.56478463299572467803955078125" lon="20.06126842461526393890380859375">
        <ele>2023</ele>
        <time>2026-06-15T11:03:44.000Z</time>
        <extensions>
          <ns3:TrackPointExtension>
            <ns3:atemp>15.0</ns3:atemp>
          </ns3:TrackPointExtension>
        </extensions>
      </trkpt>
      <trkpt lat="42.56479234434664249420166015625" lon="20.0612331368029117584228515625">
        <ele>2023</ele>
        <time>2026-06-15T11:03:45.000Z</time>
        <extensions>
          <ns3:TrackPointExtension>
            <ns3:atemp>15.0</ns3:atemp>
          </ns3:TrackPointExtension>
        </extensions>
      </trkpt>
      <trkpt lat="42.56479921750724315643310546875" lon="20.06120480597019195556640625">
        <ele>2023</ele>
        <time>2026-06-15T11:03:46.000Z</time>
        <extensions>
          <ns3:TrackPointExtension>
            <ns3:atemp>15.0</ns3:atemp>
          </ns3:TrackPointExtension>
        </extensions>
      </trkpt>
      <trkpt lat="42.564799301326274871826171875" lon="20.06116717122495174407958984375">
        <ele>2023</ele>
        <time>2026-06-15T11:03:47.000Z</time>
        <extensions>
          <ns3:TrackPointExtension>
            <ns3:atemp>15.0</ns3:atemp>
          </ns3:TrackPointExtension>
        </extensions>
      </trkpt>
      <trkpt lat="42.5647996366024017333984375" lon="20.06113708019256591796875">
        <ele>2023</ele>
        <time>2026-06-15T11:03:48.000Z</time>
        <extensions>
          <ns3:TrackPointExtension>
            <ns3:atemp>15.0</ns3:atemp>
          </ns3:TrackPointExtension>
        </extensions>
      </trkpt>
      <trkpt lat="42.56479301489889621734619140625" lon="20.0611043907701969146728515625">
        <ele>2023</ele>
        <time>2026-06-15T11:03:49.000Z</time>
        <extensions>
          <ns3:TrackPointExtension>
            <ns3:atemp>15.0</ns3:atemp>
          </ns3:TrackPointExtension>
        </extensions>
      </trkpt>
      <trkpt lat="42.564787901937961578369140625" lon="20.06107580848038196563720703125">
        <ele>2023</ele>
        <time>2026-06-15T11:03:50.000Z</time>
        <extensions>
          <ns3:TrackPointExtension>
            <ns3:atemp>15.0</ns3:atemp>
          </ns3:TrackPointExtension>
        </extensions>
      </trkpt>
      <trkpt lat="42.564789913594722747802734375" lon="20.0610396824777126312255859375">
        <ele>2023</ele>
        <time>2026-06-15T11:03:51.000Z</time>
        <extensions>
          <ns3:TrackPointExtension>
            <ns3:atemp>15.0</ns3:atemp>
          </ns3:TrackPointExtension>
        </extensions>
      </trkpt>
      <trkpt lat="42.5648024864494800567626953125" lon="20.06101830862462520599365234375">
        <ele>2023</ele>
        <time>2026-06-15T11:03:52.000Z</time>
        <extensions>
          <ns3:TrackPointExtension>
            <ns3:atemp>15.0</ns3:atemp>
          </ns3:TrackPointExtension>
        </extensions>
      </trkpt>
      <trkpt lat="42.5648135505616664886474609375" lon="20.06099618040025234222412109375">
        <ele>2023.199951171875</ele>
        <time>2026-06-15T11:03:53.000Z</time>
        <extensions>
          <ns3:TrackPointExtension>
            <ns3:atemp>15.0</ns3:atemp>
          </ns3:TrackPointExtension>
        </extensions>
      </trkpt>
      <trkpt lat="42.564828805625438690185546875" lon="20.06097639910876750946044921875">
        <ele>2023.199951171875</ele>
        <time>2026-06-15T11:03:54.000Z</time>
        <extensions>
          <ns3:TrackPointExtension>
            <ns3:atemp>15.0</ns3:atemp>
          </ns3:TrackPointExtension>
        </extensions>
      </trkpt>
      <trkpt lat="42.56484699435532093048095703125" lon="20.06097036413848400115966796875">
        <ele>2023.4000244140625</ele>
        <time>2026-06-15T11:03:55.000Z</time>
        <extensions>
          <ns3:TrackPointExtension>
            <ns3:atemp>15.0</ns3:atemp>
          </ns3:TrackPointExtension>
        </extensions>
      </trkpt>
      <trkpt lat="42.564865015447139739990234375" lon="20.0609585456550121307373046875">
        <ele>2023.5999755859375</ele>
        <time>2026-06-15T11:03:56.000Z</time>
        <extensions>
          <ns3:TrackPointExtension>
            <ns3:atemp>15.0</ns3:atemp>
          </ns3:TrackPointExtension>
        </extensions>
      </trkpt>
      <trkpt lat="42.5648812763392925262451171875" lon="20.06094991229474544525146484375">
        <ele>2023.5999755859375</ele>
        <time>2026-06-15T11:03:57.000Z</time>
        <extensions>
          <ns3:TrackPointExtension>
            <ns3:atemp>15.0</ns3:atemp>
          </ns3:TrackPointExtension>
        </extensions>
      </trkpt>
      <trkpt lat="42.56489426828920841217041015625" lon="20.06095745600759983062744140625">
        <ele>2023.800048828125</ele>
        <time>2026-06-15T11:03:58.000Z</time>
        <extensions>
          <ns3:TrackPointExtension>
            <ns3:atemp>15.0</ns3:atemp>
          </ns3:TrackPointExtension>
        </extensions>
      </trkpt>
      <trkpt lat="42.56490415893495082855224609375" lon="20.06096608936786651611328125">
        <ele>2024</ele>
        <time>2026-06-15T11:03:59.000Z</time>
        <extensions>
          <ns3:TrackPointExtension>
            <ns3:atemp>15.0</ns3:atemp>
          </ns3:TrackPointExtension>
        </extensions>
      </trkpt>
      <trkpt lat="42.56491119973361492156982421875" lon="20.06096181459724903106689453125">
        <ele>2024.199951171875</ele>
        <time>2026-06-15T11:04:00.000Z</time>
        <extensions>
          <ns3:TrackPointExtension>
            <ns3:atemp>15.0</ns3:atemp>
          </ns3:TrackPointExtension>
        </extensions>
      </trkpt>
      <trkpt lat="42.56491472013294696807861328125" lon="20.06096214987337589263916015625">
        <ele>2024.4000244140625</ele>
        <time>2026-06-15T11:04:01.000Z</time>
        <extensions>
          <ns3:TrackPointExtension>
            <ns3:atemp>15.0</ns3:atemp>
          </ns3:TrackPointExtension>
        </extensions>
      </trkpt>
      <trkpt lat="42.56491472013294696807861328125" lon="20.0609622336924076080322265625">
        <ele>2024.4000244140625</ele>
        <time>2026-06-15T11:04:02.000Z</time>
        <extensions>
          <ns3:TrackPointExtension>
            <ns3:atemp>15.0</ns3:atemp>
          </ns3:TrackPointExtension>
        </extensions>
      </trkpt>
      <trkpt lat="42.56491472013294696807861328125" lon="20.0609622336924076080322265625">
        <ele>2024.5999755859375</ele>
        <time>2026-06-15T11:04:03.000Z</time>
        <extensions>
          <ns3:TrackPointExtension>
            <ns3:atemp>15.0</ns3:atemp>
          </ns3:TrackPointExtension>
        </extensions>
      </trkpt>
      <trkpt lat="42.56491472013294696807861328125" lon="20.0609622336924076080322265625">
        <ele>2024.5999755859375</ele>
        <time>2026-06-15T11:04:04.000Z</time>
        <extensions>
          <ns3:TrackPointExtension>
            <ns3:atemp>15.0</ns3:atemp>
          </ns3:TrackPointExtension>
        </extensions>
      </trkpt>
      <trkpt lat="42.56491472013294696807861328125" lon="20.0609622336924076080322265625">
        <ele>2024.5999755859375</ele>
        <time>2026-06-15T11:04:05.000Z</time>
        <extensions>
          <ns3:TrackPointExtension>
            <ns3:atemp>15.0</ns3:atemp>
          </ns3:TrackPointExtension>
        </extensions>
      </trkpt>
      <trkpt lat="42.56491472013294696807861328125" lon="20.0609622336924076080322265625">
        <ele>2024.5999755859375</ele>
        <time>2026-06-15T11:04:06.000Z</time>
        <extensions>
          <ns3:TrackPointExtension>
            <ns3:atemp>15.0</ns3:atemp>
          </ns3:TrackPointExtension>
        </extensions>
      </trkpt>
      <trkpt lat="42.56491472013294696807861328125" lon="20.0609622336924076080322265625">
        <ele>2024.5999755859375</ele>
        <time>2026-06-15T11:04:07.000Z</time>
        <extensions>
          <ns3:TrackPointExtension>
            <ns3:atemp>15.0</ns3:atemp>
          </ns3:TrackPointExtension>
        </extensions>
      </trkpt>
      <trkpt lat="42.56491472013294696807861328125" lon="20.0609622336924076080322265625">
        <ele>2024.5999755859375</ele>
        <time>2026-06-15T11:04:08.000Z</time>
        <extensions>
          <ns3:TrackPointExtension>
            <ns3:atemp>15.0</ns3:atemp>
          </ns3:TrackPointExtension>
        </extensions>
      </trkpt>
      <trkpt lat="42.56491472013294696807861328125" lon="20.0609622336924076080322265625">
        <ele>2024.5999755859375</ele>
        <time>2026-06-15T11:04:09.000Z</time>
        <extensions>
          <ns3:TrackPointExtension>
            <ns3:atemp>15.0</ns3:atemp>
          </ns3:TrackPointExtension>
        </extensions>
      </trkpt>
      <trkpt lat="42.56491472013294696807861328125" lon="20.0609622336924076080322265625">
        <ele>2024.5999755859375</ele>
        <time>2026-06-15T11:04:10.000Z</time>
        <extensions>
          <ns3:TrackPointExtension>
            <ns3:atemp>15.0</ns3:atemp>
          </ns3:TrackPointExtension>
        </extensions>
      </trkpt>
      <trkpt lat="42.56491472013294696807861328125" lon="20.0609622336924076080322265625">
        <ele>2024.800048828125</ele>
        <time>2026-06-15T11:04:11.000Z</time>
        <extensions>
          <ns3:TrackPointExtension>
            <ns3:atemp>15.0</ns3:atemp>
          </ns3:TrackPointExtension>
        </extensions>
      </trkpt>
      <trkpt lat="42.56491472013294696807861328125" lon="20.0609622336924076080322265625">
        <ele>2024.800048828125</ele>
        <time>2026-06-15T11:04:12.000Z</time>
        <extensions>
          <ns3:TrackPointExtension>
            <ns3:atemp>15.0</ns3:atemp>
          </ns3:TrackPointExtension>
        </extensions>
      </trkpt>
      <trkpt lat="42.56491472013294696807861328125" lon="20.0609622336924076080322265625">
        <ele>2024.800048828125</ele>
        <time>2026-06-15T11:04:13.000Z</time>
        <extensions>
          <ns3:TrackPointExtension>
            <ns3:atemp>15.0</ns3:atemp>
          </ns3:TrackPointExtension>
        </extensions>
      </trkpt>
      <trkpt lat="42.56491472013294696807861328125" lon="20.0609622336924076080322265625">
        <ele>2024.800048828125</ele>
        <time>2026-06-15T11:04:14.000Z</time>
        <extensions>
          <ns3:TrackPointExtension>
            <ns3:atemp>15.0</ns3:atemp>
          </ns3:TrackPointExtension>
        </extensions>
      </trkpt>
      <trkpt lat="42.56491472013294696807861328125" lon="20.0609622336924076080322265625">
        <ele>2024.800048828125</ele>
        <time>2026-06-15T11:04:15.000Z</time>
        <extensions>
          <ns3:TrackPointExtension>
            <ns3:atemp>15.0</ns3:atemp>
          </ns3:TrackPointExtension>
        </extensions>
      </trkpt>
      <trkpt lat="42.56491472013294696807861328125" lon="20.0609622336924076080322265625">
        <ele>2024.800048828125</ele>
        <time>2026-06-15T11:04:16.000Z</time>
        <extensions>
          <ns3:TrackPointExtension>
            <ns3:atemp>15.0</ns3:atemp>
          </ns3:TrackPointExtension>
        </extensions>
      </trkpt>
      <trkpt lat="42.56491472013294696807861328125" lon="20.0609622336924076080322265625">
        <ele>2024.800048828125</ele>
        <time>2026-06-15T11:04:17.000Z</time>
        <extensions>
          <ns3:TrackPointExtension>
            <ns3:atemp>15.0</ns3:atemp>
          </ns3:TrackPointExtension>
        </extensions>
      </trkpt>
      <trkpt lat="42.56491472013294696807861328125" lon="20.0609622336924076080322265625">
        <ele>2024.800048828125</ele>
        <time>2026-06-15T11:04:18.000Z</time>
        <extensions>
          <ns3:TrackPointExtension>
            <ns3:atemp>15.0</ns3:atemp>
          </ns3:TrackPointExtension>
        </extensions>
      </trkpt>
      <trkpt lat="42.56491472013294696807861328125" lon="20.0609622336924076080322265625">
        <ele>2024.800048828125</ele>
        <time>2026-06-15T11:04:19.000Z</time>
        <extensions>
          <ns3:TrackPointExtension>
            <ns3:atemp>15.0</ns3:atemp>
          </ns3:TrackPointExtension>
        </extensions>
      </trkpt>
      <trkpt lat="42.56491472013294696807861328125" lon="20.0609622336924076080322265625">
        <ele>2024.800048828125</ele>
        <time>2026-06-15T11:04:20.000Z</time>
        <extensions>
          <ns3:TrackPointExtension>
            <ns3:atemp>15.0</ns3:atemp>
          </ns3:TrackPointExtension>
        </extensions>
      </trkpt>
      <trkpt lat="42.56491472013294696807861328125" lon="20.0609622336924076080322265625">
        <ele>2024.800048828125</ele>
        <time>2026-06-15T11:04:21.000Z</time>
        <extensions>
          <ns3:TrackPointExtension>
            <ns3:atemp>15.0</ns3:atemp>
          </ns3:TrackPointExtension>
        </extensions>
      </trkpt>
      <trkpt lat="42.56491472013294696807861328125" lon="20.0609622336924076080322265625">
        <ele>2024.5999755859375</ele>
        <time>2026-06-15T11:04:22.000Z</time>
        <extensions>
          <ns3:TrackPointExtension>
            <ns3:atemp>15.0</ns3:atemp>
          </ns3:TrackPointExtension>
        </extensions>
      </trkpt>
      <trkpt lat="42.56491472013294696807861328125" lon="20.0609622336924076080322265625">
        <ele>2024.5999755859375</ele>
        <time>2026-06-15T11:04:23.000Z</time>
        <extensions>
          <ns3:TrackPointExtension>
            <ns3:atemp>15.0</ns3:atemp>
          </ns3:TrackPointExtension>
        </extensions>
      </trkpt>
      <trkpt lat="42.56491472013294696807861328125" lon="20.0609622336924076080322265625">
        <ele>2024.5999755859375</ele>
        <time>2026-06-15T11:04:24.000Z</time>
        <extensions>
          <ns3:TrackPointExtension>
            <ns3:atemp>15.0</ns3:atemp>
          </ns3:TrackPointExtension>
        </extensions>
      </trkpt>
      <trkpt lat="42.56491472013294696807861328125" lon="20.0609622336924076080322265625">
        <ele>2024.5999755859375</ele>
        <time>2026-06-15T11:04:25.000Z</time>
        <extensions>
          <ns3:TrackPointExtension>
            <ns3:atemp>15.0</ns3:atemp>
          </ns3:TrackPointExtension>
        </extensions>
      </trkpt>
      <trkpt lat="42.56491472013294696807861328125" lon="20.0609622336924076080322265625">
        <ele>2024.5999755859375</ele>
        <time>2026-06-15T11:04:26.000Z</time>
        <extensions>
          <ns3:TrackPointExtension>
            <ns3:atemp>15.0</ns3:atemp>
          </ns3:TrackPointExtension>
        </extensions>
      </trkpt>
      <trkpt lat="42.56491472013294696807861328125" lon="20.0609622336924076080322265625">
        <ele>2024.5999755859375</ele>
        <time>2026-06-15T11:04:27.000Z</time>
        <extensions>
          <ns3:TrackPointExtension>
            <ns3:atemp>15.0</ns3:atemp>
          </ns3:TrackPointExtension>
        </extensions>
      </trkpt>
      <trkpt lat="42.56491472013294696807861328125" lon="20.0609622336924076080322265625">
        <ele>2024.5999755859375</ele>
        <time>2026-06-15T11:04:28.000Z</time>
        <extensions>
          <ns3:TrackPointExtension>
            <ns3:atemp>15.0</ns3:atemp>
          </ns3:TrackPointExtension>
        </extensions>
      </trkpt>
      <trkpt lat="42.5649188272655010223388671875" lon="20.06096198223531246185302734375">
        <ele>2024.5999755859375</ele>
        <time>2026-06-15T11:04:29.000Z</time>
        <extensions>
          <ns3:TrackPointExtension>
            <ns3:atemp>15.0</ns3:atemp>
          </ns3:TrackPointExtension>
        </extensions>
      </trkpt>
      <trkpt lat="42.5649345852434635162353515625" lon="20.0609652511775493621826171875">
        <ele>2024.5999755859375</ele>
        <time>2026-06-15T11:04:30.000Z</time>
        <extensions>
          <ns3:TrackPointExtension>
            <ns3:atemp>15.0</ns3:atemp>
          </ns3:TrackPointExtension>
        </extensions>
      </trkpt>
      <trkpt lat="42.56494422443211078643798828125" lon="20.060964412987232208251953125">
        <ele>2024.5999755859375</ele>
        <time>2026-06-15T11:04:31.000Z</time>
        <extensions>
          <ns3:TrackPointExtension>
            <ns3:atemp>15.0</ns3:atemp>
          </ns3:TrackPointExtension>
        </extensions>
      </trkpt>
      <trkpt lat="42.56495545618236064910888671875" lon="20.06095628254115581512451171875">
        <ele>2024.800048828125</ele>
        <time>2026-06-15T11:04:32.000Z</time>
        <extensions>
          <ns3:TrackPointExtension>
            <ns3:atemp>15.0</ns3:atemp>
          </ns3:TrackPointExtension>
        </extensions>
      </trkpt>
      <trkpt lat="42.56496660411357879638671875" lon="20.060939602553844451904296875">
        <ele>2024.800048828125</ele>
        <time>2026-06-15T11:04:33.000Z</time>
        <extensions>
          <ns3:TrackPointExtension>
            <ns3:atemp>15.0</ns3:atemp>
          </ns3:TrackPointExtension>
        </extensions>
      </trkpt>
      <trkpt lat="42.5649754889309406280517578125" lon="20.06092275492846965789794921875">
        <ele>2024.800048828125</ele>
        <time>2026-06-15T11:04:34.000Z</time>
        <extensions>
          <ns3:TrackPointExtension>
            <ns3:atemp>15.0</ns3:atemp>
          </ns3:TrackPointExtension>
        </extensions>
      </trkpt>
      <trkpt lat="42.564989738166332244873046875" lon="20.06090833805501461029052734375">
        <ele>2024.800048828125</ele>
        <time>2026-06-15T11:04:35.000Z</time>
        <extensions>
          <ns3:TrackPointExtension>
            <ns3:atemp>15.0</ns3:atemp>
          </ns3:TrackPointExtension>
        </extensions>
      </trkpt>
      <trkpt lat="42.565001808106899261474609375" lon="20.0609012134373188018798828125">
        <ele>2025</ele>
        <time>2026-06-15T11:04:36.000Z</time>
        <extensions>
          <ns3:TrackPointExtension>
            <ns3:atemp>15.0</ns3:atemp>
          </ns3:TrackPointExtension>
        </extensions>
      </trkpt>
      <trkpt lat="42.5650187395513057708740234375" lon="20.06089123897254467010498046875">
        <ele>2025.199951171875</ele>
        <time>2026-06-15T11:04:37.000Z</time>
        <extensions>
          <ns3:TrackPointExtension>
            <ns3:atemp>15.0</ns3:atemp>
          </ns3:TrackPointExtension>
        </extensions>
      </trkpt>
      <trkpt lat="42.56503843702375888824462890625" lon="20.0608809292316436767578125">
        <ele>2025.4000244140625</ele>
        <time>2026-06-15T11:04:38.000Z</time>
        <extensions>
          <ns3:TrackPointExtension>
            <ns3:atemp>15.0</ns3:atemp>
          </ns3:TrackPointExtension>
        </extensions>
      </trkpt>
      <trkpt lat="42.56505989469587802886962890625" lon="20.0608710385859012603759765625">
        <ele>2025.5999755859375</ele>
        <time>2026-06-15T11:04:39.000Z</time>
        <extensions>
          <ns3:TrackPointExtension>
            <ns3:atemp>15.0</ns3:atemp>
          </ns3:TrackPointExtension>
        </extensions>
      </trkpt>
      <trkpt lat="42.5650827772915363311767578125" lon="20.06086022593080997467041015625">
        <ele>2025.800048828125</ele>
        <time>2026-06-15T11:04:40.000Z</time>
        <extensions>
          <ns3:TrackPointExtension>
            <ns3:atemp>15.0</ns3:atemp>
          </ns3:TrackPointExtension>
        </extensions>
      </trkpt>
      <trkpt lat="42.56510465405881404876708984375" lon="20.060853771865367889404296875">
        <ele>2026</ele>
        <time>2026-06-15T11:04:41.000Z</time>
        <extensions>
          <ns3:TrackPointExtension>
            <ns3:atemp>15.0</ns3:atemp>
          </ns3:TrackPointExtension>
        </extensions>
      </trkpt>
      <trkpt lat="42.5651283748447895050048828125" lon="20.06084413267672061920166015625">
        <ele>2026.199951171875</ele>
        <time>2026-06-15T11:04:42.000Z</time>
        <extensions>
          <ns3:TrackPointExtension>
            <ns3:atemp>15.0</ns3:atemp>
          </ns3:TrackPointExtension>
        </extensions>
      </trkpt>
      <trkpt lat="42.565151341259479522705078125" lon="20.0608381815254688262939453125">
        <ele>2026.4000244140625</ele>
        <time>2026-06-15T11:04:43.000Z</time>
        <extensions>
          <ns3:TrackPointExtension>
            <ns3:atemp>15.0</ns3:atemp>
          </ns3:TrackPointExtension>
        </extensions>
      </trkpt>
      <trkpt lat="42.5651793368160724639892578125" lon="20.06083466112613677978515625">
        <ele>2026.5999755859375</ele>
        <time>2026-06-15T11:04:44.000Z</time>
        <extensions>
          <ns3:TrackPointExtension>
            <ns3:atemp>15.0</ns3:atemp>
          </ns3:TrackPointExtension>
        </extensions>
      </trkpt>
      <trkpt lat="42.5652048178017139434814453125" lon="20.0608297996222972869873046875">
        <ele>2026.800048828125</ele>
        <time>2026-06-15T11:04:45.000Z</time>
        <extensions>
          <ns3:TrackPointExtension>
            <ns3:atemp>15.0</ns3:atemp>
          </ns3:TrackPointExtension>
        </extensions>
      </trkpt>
      <trkpt lat="42.56522619165480136871337890625" lon="20.06082183681428432464599609375">
        <ele>2027</ele>
        <time>2026-06-15T11:04:46.000Z</time>
        <extensions>
          <ns3:TrackPointExtension>
            <ns3:atemp>15.0</ns3:atemp>
          </ns3:TrackPointExtension>
        </extensions>
      </trkpt>
      <trkpt lat="42.5652487389743328094482421875" lon="20.06081781350076198577880859375">
        <ele>2027.199951171875</ele>
        <time>2026-06-15T11:04:47.000Z</time>
        <extensions>
          <ns3:TrackPointExtension>
            <ns3:atemp>15.0</ns3:atemp>
          </ns3:TrackPointExtension>
        </extensions>
      </trkpt>
      <trkpt lat="42.5652765668928623199462890625" lon="20.06081848405301570892333984375">
        <ele>2027.4000244140625</ele>
        <time>2026-06-15T11:04:48.000Z</time>
        <extensions>
          <ns3:TrackPointExtension>
            <ns3:atemp>15.0</ns3:atemp>
          </ns3:TrackPointExtension>
        </extensions>
      </trkpt>
      <trkpt lat="42.56530531682074069976806640625" lon="20.06081865169107913970947265625">
        <ele>2027.4000244140625</ele>
        <time>2026-06-15T11:04:49.000Z</time>
        <extensions>
          <ns3:TrackPointExtension>
            <ns3:atemp>15.0</ns3:atemp>
          </ns3:TrackPointExtension>
        </extensions>
      </trkpt>
      <trkpt lat="42.565331049263477325439453125" lon="20.06081395782530307769775390625">
        <ele>2027.800048828125</ele>
        <time>2026-06-15T11:04:50.000Z</time>
        <extensions>
          <ns3:TrackPointExtension>
            <ns3:atemp>15.0</ns3:atemp>
          </ns3:TrackPointExtension>
        </extensions>
      </trkpt>
      <trkpt lat="42.56535560823976993560791015625" lon="20.06081362254917621612548828125">
        <ele>2027.800048828125</ele>
        <time>2026-06-15T11:04:51.000Z</time>
        <extensions>
          <ns3:TrackPointExtension>
            <ns3:atemp>15.0</ns3:atemp>
          </ns3:TrackPointExtension>
        </extensions>
      </trkpt>
      <trkpt lat="42.56538293324410915374755859375" lon="20.06081496365368366241455078125">
        <ele>2028</ele>
        <time>2026-06-15T11:04:52.000Z</time>
        <extensions>
          <ns3:TrackPointExtension>
            <ns3:atemp>15.0</ns3:atemp>
          </ns3:TrackPointExtension>
        </extensions>
      </trkpt>
      <trkpt lat="42.5654113478958606719970703125" lon="20.060816891491413116455078125">
        <ele>2028</ele>
        <time>2026-06-15T11:04:53.000Z</time>
        <extensions>
          <ns3:TrackPointExtension>
            <ns3:atemp>15.0</ns3:atemp>
          </ns3:TrackPointExtension>
        </extensions>
      </trkpt>
      <trkpt lat="42.56544177420437335968017578125" lon="20.0608147121965885162353515625">
        <ele>2028.199951171875</ele>
        <time>2026-06-15T11:04:54.000Z</time>
        <extensions>
          <ns3:TrackPointExtension>
            <ns3:atemp>15.0</ns3:atemp>
          </ns3:TrackPointExtension>
        </extensions>
      </trkpt>
      <trkpt lat="42.5654701888561248779296875" lon="20.060810185968875885009765625">
        <ele>2028.4000244140625</ele>
        <time>2026-06-15T11:04:55.000Z</time>
        <extensions>
          <ns3:TrackPointExtension>
            <ns3:atemp>15.0</ns3:atemp>
          </ns3:TrackPointExtension>
        </extensions>
      </trkpt>
      <trkpt lat="42.56549768149852752685546875" lon="20.06080473773181438446044921875">
        <ele>2028.4000244140625</ele>
        <time>2026-06-15T11:04:56.000Z</time>
        <extensions>
          <ns3:TrackPointExtension>
            <ns3:atemp>15.0</ns3:atemp>
          </ns3:TrackPointExtension>
        </extensions>
      </trkpt>
      <trkpt lat="42.56552123464643955230712890625" lon="20.060796439647674560546875">
        <ele>2028.5999755859375</ele>
        <time>2026-06-15T11:04:57.000Z</time>
        <extensions>
          <ns3:TrackPointExtension>
            <ns3:atemp>15.0</ns3:atemp>
          </ns3:TrackPointExtension>
        </extensions>
      </trkpt>
      <trkpt lat="42.5655410997569561004638671875" lon="20.0607848726212978363037109375">
        <ele>2028.800048828125</ele>
        <time>2026-06-15T11:04:58.000Z</time>
        <extensions>
          <ns3:TrackPointExtension>
            <ns3:atemp>15.0</ns3:atemp>
          </ns3:TrackPointExtension>
        </extensions>
      </trkpt>
      <trkpt lat="42.5655560195446014404296875" lon="20.06077221594750881195068359375">
        <ele>2029</ele>
        <time>2026-06-15T11:04:59.000Z</time>
        <extensions>
          <ns3:TrackPointExtension>
            <ns3:atemp>15.0</ns3:atemp>
          </ns3:TrackPointExtension>
        </extensions>
      </trkpt>
      <trkpt lat="42.5655672512948513031005859375" lon="20.06076048128306865692138671875">
        <ele>2029.199951171875</ele>
        <time>2026-06-15T11:05:00.000Z</time>
        <extensions>
          <ns3:TrackPointExtension>
            <ns3:atemp>15.0</ns3:atemp>
          </ns3:TrackPointExtension>
        </extensions>
      </trkpt>
      <trkpt lat="42.56557705812156200408935546875" lon="20.06074707023799419403076171875">
        <ele>2029.4000244140625</ele>
        <time>2026-06-15T11:05:01.000Z</time>
        <extensions>
          <ns3:TrackPointExtension>
            <ns3:atemp>15.0</ns3:atemp>
          </ns3:TrackPointExtension>
        </extensions>
      </trkpt>
      <trkpt lat="42.5655855238437652587890625" lon="20.06073432974517345428466796875">
        <ele>2029.5999755859375</ele>
        <time>2026-06-15T11:05:02.000Z</time>
        <extensions>
          <ns3:TrackPointExtension>
            <ns3:atemp>15.0</ns3:atemp>
          </ns3:TrackPointExtension>
        </extensions>
      </trkpt>
      <trkpt lat="42.5655954144895076751708984375" lon="20.06071773357689380645751953125">
        <ele>2029.5999755859375</ele>
        <time>2026-06-15T11:05:03.000Z</time>
        <extensions>
          <ns3:TrackPointExtension>
            <ns3:atemp>15.0</ns3:atemp>
          </ns3:TrackPointExtension>
        </extensions>
      </trkpt>
      <trkpt lat="42.56560555659234523773193359375" lon="20.0607000477612018585205078125">
        <ele>2029.800048828125</ele>
        <time>2026-06-15T11:05:04.000Z</time>
        <extensions>
          <ns3:TrackPointExtension>
            <ns3:atemp>15.0</ns3:atemp>
          </ns3:TrackPointExtension>
        </extensions>
      </trkpt>
      <trkpt lat="42.56561796180903911590576171875" lon="20.06068043410778045654296875">
        <ele>2029.800048828125</ele>
        <time>2026-06-15T11:05:05.000Z</time>
        <extensions>
          <ns3:TrackPointExtension>
            <ns3:atemp>15.0</ns3:atemp>
          </ns3:TrackPointExtension>
        </extensions>
      </trkpt>
      <trkpt lat="42.56563338451087474822998046875" lon="20.060657300055027008056640625">
        <ele>2029.800048828125</ele>
        <time>2026-06-15T11:05:06.000Z</time>
        <extensions>
          <ns3:TrackPointExtension>
            <ns3:atemp>15.0</ns3:atemp>
          </ns3:TrackPointExtension>
        </extensions>
      </trkpt>
      <trkpt lat="42.56564863957464694976806640625" lon="20.06062922067940235137939453125">
        <ele>2030</ele>
        <time>2026-06-15T11:05:07.000Z</time>
        <extensions>
          <ns3:TrackPointExtension>
            <ns3:atemp>15.0</ns3:atemp>
          </ns3:TrackPointExtension>
        </extensions>
      </trkpt>
      <trkpt lat="42.56565618328750133514404296875" lon="20.06059770472347736358642578125">
        <ele>2030</ele>
        <time>2026-06-15T11:05:08.000Z</time>
        <extensions>
          <ns3:TrackPointExtension>
            <ns3:atemp>15.0</ns3:atemp>
          </ns3:TrackPointExtension>
        </extensions>
      </trkpt>
      <trkpt lat="42.5656658224761486053466796875" lon="20.06055973470211029052734375">
        <ele>2030</ele>
        <time>2026-06-15T11:05:09.000Z</time>
        <extensions>
          <ns3:TrackPointExtension>
            <ns3:atemp>15.0</ns3:atemp>
          </ns3:TrackPointExtension>
        </extensions>
      </trkpt>
      <trkpt lat="42.5656782276928424835205078125" lon="20.06052059121429920196533203125">
        <ele>2030</ele>
        <time>2026-06-15T11:05:10.000Z</time>
        <extensions>
          <ns3:TrackPointExtension>
            <ns3:atemp>15.0</ns3:atemp>
          </ns3:TrackPointExtension>
        </extensions>
      </trkpt>
      <trkpt lat="42.56568945944309234619140625" lon="20.06047968752682209014892578125">
        <ele>2030</ele>
        <time>2026-06-15T11:05:11.000Z</time>
        <extensions>
          <ns3:TrackPointExtension>
            <ns3:atemp>15.0</ns3:atemp>
          </ns3:TrackPointExtension>
        </extensions>
      </trkpt>
      <trkpt lat="42.56570018827915191650390625" lon="20.06043844856321811676025390625">
        <ele>2030</ele>
        <time>2026-06-15T11:05:12.000Z</time>
        <extensions>
          <ns3:TrackPointExtension>
            <ns3:atemp>15.0</ns3:atemp>
          </ns3:TrackPointExtension>
        </extensions>
      </trkpt>
      <trkpt lat="42.5657089054584503173828125" lon="20.0603966228663921356201171875">
        <ele>2029.800048828125</ele>
        <time>2026-06-15T11:05:13.000Z</time>
        <extensions>
          <ns3:TrackPointExtension>
            <ns3:atemp>15.0</ns3:atemp>
          </ns3:TrackPointExtension>
        </extensions>
      </trkpt>
      <trkpt lat="42.565717957913875579833984375" lon="20.06034607999026775360107421875">
        <ele>2029.800048828125</ele>
        <time>2026-06-15T11:05:14.000Z</time>
        <extensions>
          <ns3:TrackPointExtension>
            <ns3:atemp>15.0</ns3:atemp>
          </ns3:TrackPointExtension>
        </extensions>
      </trkpt>
      <trkpt lat="42.56572374142706394195556640625" lon="20.0602983869612216949462890625">
        <ele>2029.800048828125</ele>
        <time>2026-06-15T11:05:15.000Z</time>
        <extensions>
          <ns3:TrackPointExtension>
            <ns3:atemp>15.0</ns3:atemp>
          </ns3:TrackPointExtension>
        </extensions>
      </trkpt>
      <trkpt lat="42.5657265074551105499267578125" lon="20.0602487660944461822509765625">
        <ele>2029.5999755859375</ele>
        <time>2026-06-15T11:05:16.000Z</time>
        <extensions>
          <ns3:TrackPointExtension>
            <ns3:atemp>15.0</ns3:atemp>
          </ns3:TrackPointExtension>
        </extensions>
      </trkpt>
      <trkpt lat="42.5657285191118717193603515625" lon="20.06020258180797100067138671875">
        <ele>2029.5999755859375</ele>
        <time>2026-06-15T11:05:17.000Z</time>
        <extensions>
          <ns3:TrackPointExtension>
            <ns3:atemp>15.0</ns3:atemp>
          </ns3:TrackPointExtension>
        </extensions>
      </trkpt>
      <trkpt lat="42.5657241605222225189208984375" lon="20.06014843471348285675048828125">
        <ele>2029.5999755859375</ele>
        <time>2026-06-15T11:05:18.000Z</time>
        <extensions>
          <ns3:TrackPointExtension>
            <ns3:atemp>15.0</ns3:atemp>
          </ns3:TrackPointExtension>
        </extensions>
      </trkpt>
      <trkpt lat="42.565737403929233551025390625" lon="20.06009495817124843597412109375">
        <ele>2029.5999755859375</ele>
        <time>2026-06-15T11:05:19.000Z</time>
        <extensions>
          <ns3:TrackPointExtension>
            <ns3:atemp>15.0</ns3:atemp>
          </ns3:TrackPointExtension>
        </extensions>
      </trkpt>
      <trkpt lat="42.56575760431587696075439453125" lon="20.06005346775054931640625">
        <ele>2029.5999755859375</ele>
        <time>2026-06-15T11:05:20.000Z</time>
        <extensions>
          <ns3:TrackPointExtension>
            <ns3:atemp>15.0</ns3:atemp>
          </ns3:TrackPointExtension>
        </extensions>
      </trkpt>
      <trkpt lat="42.56579029373824596405029296875" lon="20.060020945966243743896484375">
        <ele>2029.4000244140625</ele>
        <time>2026-06-15T11:05:21.000Z</time>
        <extensions>
          <ns3:TrackPointExtension>
            <ns3:atemp>15.0</ns3:atemp>
          </ns3:TrackPointExtension>
        </extensions>
      </trkpt>
      <trkpt lat="42.5658274255692958831787109375" lon="20.06001281552016735076904296875">
        <ele>2029.4000244140625</ele>
        <time>2026-06-15T11:05:22.000Z</time>
        <extensions>
          <ns3:TrackPointExtension>
            <ns3:atemp>15.0</ns3:atemp>
          </ns3:TrackPointExtension>
        </extensions>
      </trkpt>
      <trkpt lat="42.5658599473536014556884765625" lon="20.06001700647175312042236328125">
        <ele>2029.4000244140625</ele>
        <time>2026-06-15T11:05:23.000Z</time>
        <extensions>
          <ns3:TrackPointExtension>
            <ns3:atemp>15.0</ns3:atemp>
          </ns3:TrackPointExtension>
        </extensions>
      </trkpt>
      <trkpt lat="42.565888278186321258544921875" lon="20.06002597510814666748046875">
        <ele>2029.4000244140625</ele>
        <time>2026-06-15T11:05:24.000Z</time>
        <extensions>
          <ns3:TrackPointExtension>
            <ns3:atemp>15.0</ns3:atemp>
          </ns3:TrackPointExtension>
        </extensions>
      </trkpt>
      <trkpt lat="42.5659142620861530303955078125" lon="20.060028322041034698486328125">
        <ele>2029.4000244140625</ele>
        <time>2026-06-15T11:05:25.000Z</time>
        <extensions>
          <ns3:TrackPointExtension>
            <ns3:atemp>15.0</ns3:atemp>
          </ns3:TrackPointExtension>
        </extensions>
      </trkpt>
      <trkpt lat="42.56594083271920680999755859375" lon="20.06003377027809619903564453125">
        <ele>2029.4000244140625</ele>
        <time>2026-06-15T11:05:26.000Z</time>
        <extensions>
          <ns3:TrackPointExtension>
            <ns3:atemp>15.0</ns3:atemp>
          </ns3:TrackPointExtension>
        </extensions>
      </trkpt>
      <trkpt lat="42.56596564315259456634521484375" lon="20.060035027563571929931640625">
        <ele>2029.5999755859375</ele>
        <time>2026-06-15T11:05:27.000Z</time>
        <extensions>
          <ns3:TrackPointExtension>
            <ns3:atemp>15.0</ns3:atemp>
          </ns3:TrackPointExtension>
        </extensions>
      </trkpt>
      <trkpt lat="42.56598559208214282989501953125" lon="20.0600301660597324371337890625">
        <ele>2029.5999755859375</ele>
        <time>2026-06-15T11:05:28.000Z</time>
        <extensions>
          <ns3:TrackPointExtension>
            <ns3:atemp>15.0</ns3:atemp>
          </ns3:TrackPointExtension>
        </extensions>
      </trkpt>
      <trkpt lat="42.56600436754524707794189453125" lon="20.06002957932651042938232421875">
        <ele>2029.800048828125</ele>
        <time>2026-06-15T11:05:29.000Z</time>
        <extensions>
          <ns3:TrackPointExtension>
            <ns3:atemp>15.0</ns3:atemp>
          </ns3:TrackPointExtension>
        </extensions>
      </trkpt>
      <trkpt lat="42.5660228915512561798095703125" lon="20.0600248016417026519775390625">
        <ele>2030</ele>
        <time>2026-06-15T11:05:30.000Z</time>
        <extensions>
          <ns3:TrackPointExtension>
            <ns3:atemp>15.0</ns3:atemp>
          </ns3:TrackPointExtension>
        </extensions>
      </trkpt>
      <trkpt lat="42.56604493595659732818603515625" lon="20.06001700647175312042236328125">
        <ele>2030</ele>
        <time>2026-06-15T11:05:31.000Z</time>
        <extensions>
          <ns3:TrackPointExtension>
            <ns3:atemp>15.0</ns3:atemp>
          </ns3:TrackPointExtension>
        </extensions>
      </trkpt>
      <trkpt lat="42.56606555543839931488037109375" lon="20.0600023381412029266357421875">
        <ele>2030.199951171875</ele>
        <time>2026-06-15T11:05:32.000Z</time>
        <extensions>
          <ns3:TrackPointExtension>
            <ns3:atemp>15.0</ns3:atemp>
          </ns3:TrackPointExtension>
        </extensions>
      </trkpt>
      <trkpt lat="42.56608416326344013214111328125" lon="20.0599904358386993408203125">
        <ele>2030.4000244140625</ele>
        <time>2026-06-15T11:05:33.000Z</time>
        <extensions>
          <ns3:TrackPointExtension>
            <ns3:atemp>15.0</ns3:atemp>
          </ns3:TrackPointExtension>
        </extensions>
      </trkpt>
      <trkpt lat="42.56610176526010036468505859375" lon="20.0599721632897853851318359375">
        <ele>2030.5999755859375</ele>
        <time>2026-06-15T11:05:34.000Z</time>
        <extensions>
          <ns3:TrackPointExtension>
            <ns3:atemp>15.0</ns3:atemp>
          </ns3:TrackPointExtension>
        </extensions>
      </trkpt>
      <trkpt lat="42.5661194510757923126220703125" lon="20.059954226016998291015625">
        <ele>2030.800048828125</ele>
        <time>2026-06-15T11:05:35.000Z</time>
        <extensions>
          <ns3:TrackPointExtension>
            <ns3:atemp>15.0</ns3:atemp>
          </ns3:TrackPointExtension>
        </extensions>
      </trkpt>
      <trkpt lat="42.5661288388073444366455078125" lon="20.0599356181919574737548828125">
        <ele>2031</ele>
        <time>2026-06-15T11:05:36.000Z</time>
        <extensions>
          <ns3:TrackPointExtension>
            <ns3:atemp>15.0</ns3:atemp>
          </ns3:TrackPointExtension>
        </extensions>
      </trkpt>
      <trkpt lat="42.56614216603338718414306640625" lon="20.05990904755890369415283203125">
        <ele>2031.4000244140625</ele>
        <time>2026-06-15T11:05:37.000Z</time>
        <extensions>
          <ns3:TrackPointExtension>
            <ns3:atemp>15.0</ns3:atemp>
          </ns3:TrackPointExtension>
        </extensions>
      </trkpt>
      <trkpt lat="42.56615775637328624725341796875" lon="20.0598883442580699920654296875">
        <ele>2031.5999755859375</ele>
        <time>2026-06-15T11:05:38.000Z</time>
        <extensions>
          <ns3:TrackPointExtension>
            <ns3:atemp>15.0</ns3:atemp>
          </ns3:TrackPointExtension>
        </extensions>
      </trkpt>
      <trkpt lat="42.56616814993321895599365234375" lon="20.05986395291984081268310546875">
        <ele>2031.800048828125</ele>
        <time>2026-06-15T11:05:39.000Z</time>
        <extensions>
          <ns3:TrackPointExtension>
            <ns3:atemp>15.0</ns3:atemp>
          </ns3:TrackPointExtension>
        </extensions>
      </trkpt>
      <trkpt lat="42.56617468781769275665283203125" lon="20.05983822047710418701171875">
        <ele>2032</ele>
        <time>2026-06-15T11:05:40.000Z</time>
        <extensions>
          <ns3:TrackPointExtension>
            <ns3:atemp>15.0</ns3:atemp>
          </ns3:TrackPointExtension>
        </extensions>
      </trkpt>
      <trkpt lat="42.56618172861635684967041015625" lon="20.059808380901813507080078125">
        <ele>2032.199951171875</ele>
        <time>2026-06-15T11:05:41.000Z</time>
        <extensions>
          <ns3:TrackPointExtension>
            <ns3:atemp>15.0</ns3:atemp>
          </ns3:TrackPointExtension>
        </extensions>
      </trkpt>
      <trkpt lat="42.5661828182637691497802734375" lon="20.05977711640298366546630859375">
        <ele>2032.4000244140625</ele>
        <time>2026-06-15T11:05:42.000Z</time>
        <extensions>
          <ns3:TrackPointExtension>
            <ns3:atemp>15.0</ns3:atemp>
          </ns3:TrackPointExtension>
        </extensions>
      </trkpt>
      <trkpt lat="42.56617871113121509552001953125" lon="20.05974861793220043182373046875">
        <ele>2032.5999755859375</ele>
        <time>2026-06-15T11:05:43.000Z</time>
        <extensions>
          <ns3:TrackPointExtension>
            <ns3:atemp>15.0</ns3:atemp>
          </ns3:TrackPointExtension>
        </extensions>
      </trkpt>
      <trkpt lat="42.5661761127412319183349609375" lon="20.0597197003662586212158203125">
        <ele>2032.800048828125</ele>
        <time>2026-06-15T11:05:44.000Z</time>
        <extensions>
          <ns3:TrackPointExtension>
            <ns3:atemp>15.0</ns3:atemp>
          </ns3:TrackPointExtension>
        </extensions>
      </trkpt>
      <trkpt lat="42.56616949103772640228271484375" lon="20.05968868732452392578125">
        <ele>2033</ele>
        <time>2026-06-15T11:05:45.000Z</time>
        <extensions>
          <ns3:TrackPointExtension>
            <ns3:atemp>15.0</ns3:atemp>
          </ns3:TrackPointExtension>
        </extensions>
      </trkpt>
      <trkpt lat="42.56616362370550632476806640625" lon="20.0596556626260280609130859375">
        <ele>2033.199951171875</ele>
        <time>2026-06-15T11:05:46.000Z</time>
        <extensions>
          <ns3:TrackPointExtension>
            <ns3:atemp>15.0</ns3:atemp>
          </ns3:TrackPointExtension>
        </extensions>
      </trkpt>
      <trkpt lat="42.5661549903452396392822265625" lon="20.05961886607110500335693359375">
        <ele>2033.4000244140625</ele>
        <time>2026-06-15T11:05:47.000Z</time>
        <extensions>
          <ns3:TrackPointExtension>
            <ns3:atemp>15.0</ns3:atemp>
          </ns3:TrackPointExtension>
        </extensions>
      </trkpt>
      <trkpt lat="42.56614753045141696929931640625" lon="20.05958550609648227691650390625">
        <ele>2033.5999755859375</ele>
        <time>2026-06-15T11:05:48.000Z</time>
        <extensions>
          <ns3:TrackPointExtension>
            <ns3:atemp>15.0</ns3:atemp>
          </ns3:TrackPointExtension>
        </extensions>
      </trkpt>
      <trkpt lat="42.5661409087479114532470703125" lon="20.0595460273325443267822265625">
        <ele>2033.5999755859375</ele>
        <time>2026-06-15T11:05:49.000Z</time>
        <extensions>
          <ns3:TrackPointExtension>
            <ns3:atemp>15.0</ns3:atemp>
          </ns3:TrackPointExtension>
        </extensions>
      </trkpt>
      <trkpt lat="42.56613059900701045989990234375" lon="20.0595103204250335693359375">
        <ele>2033.5999755859375</ele>
        <time>2026-06-15T11:05:50.000Z</time>
        <extensions>
          <ns3:TrackPointExtension>
            <ns3:atemp>15.0</ns3:atemp>
          </ns3:TrackPointExtension>
        </extensions>
      </trkpt>
      <trkpt lat="42.56611727178096771240234375" lon="20.0594754517078399658203125">
        <ele>2033.800048828125</ele>
        <time>2026-06-15T11:05:51.000Z</time>
        <extensions>
          <ns3:TrackPointExtension>
            <ns3:atemp>15.0</ns3:atemp>
          </ns3:TrackPointExtension>
        </extensions>
      </trkpt>
      <trkpt lat="42.5661060400307178497314453125" lon="20.059442929923534393310546875">
        <ele>2033.800048828125</ele>
        <time>2026-06-15T11:05:52.000Z</time>
        <extensions>
          <ns3:TrackPointExtension>
            <ns3:atemp>15.0</ns3:atemp>
          </ns3:TrackPointExtension>
        </extensions>
      </trkpt>
      <trkpt lat="42.5660951435565948486328125" lon="20.0594048760831356048583984375">
        <ele>2034</ele>
        <time>2026-06-15T11:05:53.000Z</time>
        <extensions>
          <ns3:TrackPointExtension>
            <ns3:atemp>15.0</ns3:atemp>
          </ns3:TrackPointExtension>
        </extensions>
      </trkpt>
      <trkpt lat="42.56608416326344013214111328125" lon="20.05937151610851287841796875">
        <ele>2034.199951171875</ele>
        <time>2026-06-15T11:05:54.000Z</time>
        <extensions>
          <ns3:TrackPointExtension>
            <ns3:atemp>15.0</ns3:atemp>
          </ns3:TrackPointExtension>
        </extensions>
      </trkpt>
      <trkpt lat="42.566069997847080230712890625" lon="20.05934142507612705230712890625">
        <ele>2034.4000244140625</ele>
        <time>2026-06-15T11:05:55.000Z</time>
        <extensions>
          <ns3:TrackPointExtension>
            <ns3:atemp>15.0</ns3:atemp>
          </ns3:TrackPointExtension>
        </extensions>
      </trkpt>
      <trkpt lat="42.566056586802005767822265625" lon="20.0593120045959949493408203125">
        <ele>2034.4000244140625</ele>
        <time>2026-06-15T11:05:56.000Z</time>
        <extensions>
          <ns3:TrackPointExtension>
            <ns3:atemp>15.0</ns3:atemp>
          </ns3:TrackPointExtension>
        </extensions>
      </trkpt>
      <trkpt lat="42.5660441815853118896484375" lon="20.05928099155426025390625">
        <ele>2034.5999755859375</ele>
        <time>2026-06-15T11:05:57.000Z</time>
        <extensions>
          <ns3:TrackPointExtension>
            <ns3:atemp>15.0</ns3:atemp>
          </ns3:TrackPointExtension>
        </extensions>
      </trkpt>
      <trkpt lat="42.56603001616895198822021484375" lon="20.05925307981669902801513671875">
        <ele>2034.800048828125</ele>
        <time>2026-06-15T11:05:58.000Z</time>
        <extensions>
          <ns3:TrackPointExtension>
            <ns3:atemp>15.0</ns3:atemp>
          </ns3:TrackPointExtension>
        </extensions>
      </trkpt>
      <trkpt lat="42.56601392291486263275146484375" lon="20.059225000441074371337890625">
        <ele>2035</ele>
        <time>2026-06-15T11:05:59.000Z</time>
        <extensions>
          <ns3:TrackPointExtension>
            <ns3:atemp>15.0</ns3:atemp>
          </ns3:TrackPointExtension>
        </extensions>
      </trkpt>
      <trkpt lat="42.56599724292755126953125" lon="20.05919993855059146881103515625">
        <ele>2035.4000244140625</ele>
        <time>2026-06-15T11:06:00.000Z</time>
        <extensions>
          <ns3:TrackPointExtension>
            <ns3:atemp>15.0</ns3:atemp>
          </ns3:TrackPointExtension>
        </extensions>
      </trkpt>
      <trkpt lat="42.56598022766411304473876953125" lon="20.05917110480368137359619140625">
        <ele>2035.5999755859375</ele>
        <time>2026-06-15T11:06:01.000Z</time>
        <extensions>
          <ns3:TrackPointExtension>
            <ns3:atemp>15.0</ns3:atemp>
          </ns3:TrackPointExtension>
        </extensions>
      </trkpt>
      <trkpt lat="42.56596170365810394287109375" lon="20.059145204722881317138671875">
        <ele>2035.800048828125</ele>
        <time>2026-06-15T11:06:02.000Z</time>
        <extensions>
          <ns3:TrackPointExtension>
            <ns3:atemp>15.0</ns3:atemp>
          </ns3:TrackPointExtension>
        </extensions>
      </trkpt>
      <trkpt lat="42.5659414194524288177490234375" lon="20.05911804735660552978515625">
        <ele>2036</ele>
        <time>2026-06-15T11:06:03.000Z</time>
        <extensions>
          <ns3:TrackPointExtension>
            <ns3:atemp>15.0</ns3:atemp>
          </ns3:TrackPointExtension>
        </extensions>
      </trkpt>
      <trkpt lat="42.5659259967505931854248046875" lon="20.0590934045612812042236328125">
        <ele>2036.199951171875</ele>
        <time>2026-06-15T11:06:04.000Z</time>
        <extensions>
          <ns3:TrackPointExtension>
            <ns3:atemp>15.0</ns3:atemp>
          </ns3:TrackPointExtension>
        </extensions>
      </trkpt>
      <trkpt lat="42.565910406410694122314453125" lon="20.05906037986278533935546875">
        <ele>2036.4000244140625</ele>
        <time>2026-06-15T11:06:05.000Z</time>
        <extensions>
          <ns3:TrackPointExtension>
            <ns3:atemp>15.0</ns3:atemp>
          </ns3:TrackPointExtension>
        </extensions>
      </trkpt>
      <trkpt lat="42.56589196622371673583984375" lon="20.05903012119233608245849609375">
        <ele>2036.800048828125</ele>
        <time>2026-06-15T11:06:06.000Z</time>
        <extensions>
          <ns3:TrackPointExtension>
            <ns3:atemp>15.0</ns3:atemp>
          </ns3:TrackPointExtension>
        </extensions>
      </trkpt>
      <trkpt lat="42.56587562151253223419189453125" lon="20.05899743176996707916259765625">
        <ele>2037</ele>
        <time>2026-06-15T11:06:07.000Z</time>
        <extensions>
          <ns3:TrackPointExtension>
            <ns3:atemp>15.0</ns3:atemp>
          </ns3:TrackPointExtension>
        </extensions>
      </trkpt>
      <trkpt lat="42.565860114991664886474609375" lon="20.05896759219467639923095703125">
        <ele>2037.199951171875</ele>
        <time>2026-06-15T11:06:08.000Z</time>
        <extensions>
          <ns3:TrackPointExtension>
            <ns3:atemp>15.0</ns3:atemp>
          </ns3:TrackPointExtension>
        </extensions>
      </trkpt>
      <trkpt lat="42.5658441893756389617919921875" lon="20.05893205292522907257080078125">
        <ele>2037.4000244140625</ele>
        <time>2026-06-15T11:06:09.000Z</time>
        <extensions>
          <ns3:TrackPointExtension>
            <ns3:atemp>15.0</ns3:atemp>
          </ns3:TrackPointExtension>
        </extensions>
      </trkpt>
      <trkpt lat="42.56582935340702533721923828125" lon="20.05889534018933773040771484375">
        <ele>2037.5999755859375</ele>
        <time>2026-06-15T11:06:10.000Z</time>
        <extensions>
          <ns3:TrackPointExtension>
            <ns3:atemp>15.0</ns3:atemp>
          </ns3:TrackPointExtension>
        </extensions>
      </trkpt>
      <trkpt lat="42.565821893513202667236328125" lon="20.05885711871087551116943359375">
        <ele>2037.800048828125</ele>
        <time>2026-06-15T11:06:11.000Z</time>
        <extensions>
          <ns3:TrackPointExtension>
            <ns3:atemp>15.0</ns3:atemp>
          </ns3:TrackPointExtension>
        </extensions>
      </trkpt>
      <trkpt lat="42.56582113914191722869873046875" lon="20.0588141195476055145263671875">
        <ele>2038</ele>
        <time>2026-06-15T11:06:12.000Z</time>
        <extensions>
          <ns3:TrackPointExtension>
            <ns3:atemp>15.0</ns3:atemp>
          </ns3:TrackPointExtension>
        </extensions>
      </trkpt>
      <trkpt lat="42.56582533009350299835205078125" lon="20.05877480842173099517822265625">
        <ele>2038.199951171875</ele>
        <time>2026-06-15T11:06:13.000Z</time>
        <extensions>
          <ns3:TrackPointExtension>
            <ns3:atemp>15.0</ns3:atemp>
          </ns3:TrackPointExtension>
        </extensions>
      </trkpt>
      <trkpt lat="42.56583857350051403045654296875" lon="20.05874698050320148468017578125">
        <ele>2038.4000244140625</ele>
        <time>2026-06-15T11:06:14.000Z</time>
        <extensions>
          <ns3:TrackPointExtension>
            <ns3:atemp>15.0</ns3:atemp>
          </ns3:TrackPointExtension>
        </extensions>
      </trkpt>
      <trkpt lat="42.56585718132555484771728515625" lon="20.05872820504009723663330078125">
        <ele>2038.5999755859375</ele>
        <time>2026-06-15T11:06:15.000Z</time>
        <extensions>
          <ns3:TrackPointExtension>
            <ns3:atemp>15.0</ns3:atemp>
          </ns3:TrackPointExtension>
        </extensions>
      </trkpt>
      <trkpt lat="42.5658730231225490570068359375" lon="20.0587222538888454437255859375">
        <ele>2039</ele>
        <time>2026-06-15T11:06:16.000Z</time>
        <extensions>
          <ns3:TrackPointExtension>
            <ns3:atemp>15.0</ns3:atemp>
          </ns3:TrackPointExtension>
        </extensions>
      </trkpt>
      <trkpt lat="42.56589439697563648223876953125" lon="20.05872166715562343597412109375">
        <ele>2039.199951171875</ele>
        <time>2026-06-15T11:06:17.000Z</time>
        <extensions>
          <ns3:TrackPointExtension>
            <ns3:atemp>15.0</ns3:atemp>
          </ns3:TrackPointExtension>
        </extensions>
      </trkpt>
      <trkpt lat="42.5659179501235485076904296875" lon="20.058721415698528289794921875">
        <ele>2039.5999755859375</ele>
        <time>2026-06-15T11:06:18.000Z</time>
        <extensions>
          <ns3:TrackPointExtension>
            <ns3:atemp>15.0</ns3:atemp>
          </ns3:TrackPointExtension>
        </extensions>
      </trkpt>
      <trkpt lat="42.56594016216695308685302734375" lon="20.05871429108083248138427734375">
        <ele>2039.800048828125</ele>
        <time>2026-06-15T11:06:19.000Z</time>
        <extensions>
          <ns3:TrackPointExtension>
            <ns3:atemp>15.0</ns3:atemp>
          </ns3:TrackPointExtension>
        </extensions>
      </trkpt>
      <trkpt lat="42.56595910526812076568603515625" lon="20.0587101839482784271240234375">
        <ele>2040.199951171875</ele>
        <time>2026-06-15T11:06:20.000Z</time>
        <extensions>
          <ns3:TrackPointExtension>
            <ns3:atemp>15.0</ns3:atemp>
          </ns3:TrackPointExtension>
        </extensions>
      </trkpt>
      <trkpt lat="42.56597653962671756744384765625" lon="20.05869618616998195648193359375">
        <ele>2040.4000244140625</ele>
        <time>2026-06-15T11:06:21.000Z</time>
        <extensions>
          <ns3:TrackPointExtension>
            <ns3:atemp>15.0</ns3:atemp>
          </ns3:TrackPointExtension>
        </extensions>
      </trkpt>
      <trkpt lat="42.56599045358598232269287109375" lon="20.05868210457265377044677734375">
        <ele>2040.800048828125</ele>
        <time>2026-06-15T11:06:22.000Z</time>
        <extensions>
          <ns3:TrackPointExtension>
            <ns3:atemp>15.0</ns3:atemp>
          </ns3:TrackPointExtension>
        </extensions>
      </trkpt>
      <trkpt lat="42.5660074688494205474853515625" lon="20.0586682744324207305908203125">
        <ele>2041</ele>
        <time>2026-06-15T11:06:23.000Z</time>
        <extensions>
          <ns3:TrackPointExtension>
            <ns3:atemp>15.0</ns3:atemp>
          </ns3:TrackPointExtension>
        </extensions>
      </trkpt>
      <trkpt lat="42.5660215504467487335205078125" lon="20.0586481578648090362548828125">
        <ele>2041.199951171875</ele>
        <time>2026-06-15T11:06:24.000Z</time>
        <extensions>
          <ns3:TrackPointExtension>
            <ns3:atemp>15.0</ns3:atemp>
          </ns3:TrackPointExtension>
        </extensions>
      </trkpt>
      <trkpt lat="42.56603655405342578887939453125" lon="20.0586225092411041259765625">
        <ele>2041.5999755859375</ele>
        <time>2026-06-15T11:06:25.000Z</time>
        <extensions>
          <ns3:TrackPointExtension>
            <ns3:atemp>15.0</ns3:atemp>
          </ns3:TrackPointExtension>
        </extensions>
      </trkpt>
      <trkpt lat="42.56604627706110477447509765625" lon="20.05859526805579662322998046875">
        <ele>2041.5999755859375</ele>
        <time>2026-06-15T11:06:26.000Z</time>
        <extensions>
          <ns3:TrackPointExtension>
            <ns3:atemp>15.0</ns3:atemp>
          </ns3:TrackPointExtension>
        </extensions>
      </trkpt>
      <trkpt lat="42.56605449132621288299560546875" lon="20.05856341682374477386474609375">
        <ele>2041.800048828125</ele>
        <time>2026-06-15T11:06:27.000Z</time>
        <extensions>
          <ns3:TrackPointExtension>
            <ns3:atemp>15.0</ns3:atemp>
          </ns3:TrackPointExtension>
        </extensions>
      </trkpt>
      <trkpt lat="42.56605784408748149871826171875" lon="20.05853206850588321685791015625">
        <ele>2042</ele>
        <time>2026-06-15T11:06:28.000Z</time>
        <extensions>
          <ns3:TrackPointExtension>
            <ns3:atemp>15.0</ns3:atemp>
          </ns3:TrackPointExtension>
        </extensions>
      </trkpt>
      <trkpt lat="42.5660604424774646759033203125" lon="20.05850155837833881378173828125">
        <ele>2042.199951171875</ele>
        <time>2026-06-15T11:06:29.000Z</time>
        <extensions>
          <ns3:TrackPointExtension>
            <ns3:atemp>15.0</ns3:atemp>
          </ns3:TrackPointExtension>
        </extensions>
      </trkpt>
      <trkpt lat="42.56606270559132099151611328125" lon="20.0584687851369380950927734375">
        <ele>2042.4000244140625</ele>
        <time>2026-06-15T11:06:30.000Z</time>
        <extensions>
          <ns3:TrackPointExtension>
            <ns3:atemp>15.0</ns3:atemp>
          </ns3:TrackPointExtension>
        </extensions>
      </trkpt>
      <trkpt lat="42.56605817936360836029052734375" lon="20.0584376044571399688720703125">
        <ele>2042.5999755859375</ele>
        <time>2026-06-15T11:06:31.000Z</time>
        <extensions>
          <ns3:TrackPointExtension>
            <ns3:atemp>15.0</ns3:atemp>
          </ns3:TrackPointExtension>
        </extensions>
      </trkpt>
      <trkpt lat="42.56605549715459346771240234375" lon="20.05840365774929523468017578125">
        <ele>2042.800048828125</ele>
        <time>2026-06-15T11:06:32.000Z</time>
        <extensions>
          <ns3:TrackPointExtension>
            <ns3:atemp>15.0</ns3:atemp>
          </ns3:TrackPointExtension>
        </extensions>
      </trkpt>
      <trkpt lat="42.56605046801269054412841796875" lon="20.0583703815937042236328125">
        <ele>2043.199951171875</ele>
        <time>2026-06-15T11:06:33.000Z</time>
        <extensions>
          <ns3:TrackPointExtension>
            <ns3:atemp>15.0</ns3:atemp>
          </ns3:TrackPointExtension>
        </extensions>
      </trkpt>
      <trkpt lat="42.5660406611859798431396484375" lon="20.0583381950855255126953125">
        <ele>2043.4000244140625</ele>
        <time>2026-06-15T11:06:34.000Z</time>
        <extensions>
          <ns3:TrackPointExtension>
            <ns3:atemp>15.0</ns3:atemp>
          </ns3:TrackPointExtension>
        </extensions>
      </trkpt>
      <trkpt lat="42.56602934561669826507568359375" lon="20.05830592475831508636474609375">
        <ele>2043.5999755859375</ele>
        <time>2026-06-15T11:06:35.000Z</time>
        <extensions>
          <ns3:TrackPointExtension>
            <ns3:atemp>15.0</ns3:atemp>
          </ns3:TrackPointExtension>
        </extensions>
      </trkpt>
      <trkpt lat="42.56601677276194095611572265625" lon="20.05827507935464382171630859375">
        <ele>2044</ele>
        <time>2026-06-15T11:06:36.000Z</time>
        <extensions>
          <ns3:TrackPointExtension>
            <ns3:atemp>15.0</ns3:atemp>
          </ns3:TrackPointExtension>
        </extensions>
      </trkpt>
      <trkpt lat="42.56600688211619853973388671875" lon="20.0582431443035602569580078125">
        <ele>2044.199951171875</ele>
        <time>2026-06-15T11:06:37.000Z</time>
        <extensions>
          <ns3:TrackPointExtension>
            <ns3:atemp>15.0</ns3:atemp>
          </ns3:TrackPointExtension>
        </extensions>
      </trkpt>
      <trkpt lat="42.56599179469048976898193359375" lon="20.058209784328937530517578125">
        <ele>2044.199951171875</ele>
        <time>2026-06-15T11:06:38.000Z</time>
        <extensions>
          <ns3:TrackPointExtension>
            <ns3:atemp>15.0</ns3:atemp>
          </ns3:TrackPointExtension>
        </extensions>
      </trkpt>
      <trkpt lat="42.56598047912120819091796875" lon="20.0581784360110759735107421875">
        <ele>2044.4000244140625</ele>
        <time>2026-06-15T11:06:39.000Z</time>
        <extensions>
          <ns3:TrackPointExtension>
            <ns3:atemp>15.0</ns3:atemp>
          </ns3:TrackPointExtension>
        </extensions>
      </trkpt>
      <trkpt lat="42.56596514023840427398681640625" lon="20.05814800970256328582763671875">
        <ele>2044.5999755859375</ele>
        <time>2026-06-15T11:06:40.000Z</time>
        <extensions>
          <ns3:TrackPointExtension>
            <ns3:atemp>15.0</ns3:atemp>
          </ns3:TrackPointExtension>
        </extensions>
      </trkpt>
      <trkpt lat="42.56595038808882236480712890625" lon="20.058119259774684906005859375">
        <ele>2044.5999755859375</ele>
        <time>2026-06-15T11:06:41.000Z</time>
        <extensions>
          <ns3:TrackPointExtension>
            <ns3:atemp>15.0</ns3:atemp>
          </ns3:TrackPointExtension>
        </extensions>
      </trkpt>
      <trkpt lat="42.5659357197582721710205078125" lon="20.05808950401842594146728515625">
        <ele>2044.5999755859375</ele>
        <time>2026-06-15T11:06:42.000Z</time>
        <extensions>
          <ns3:TrackPointExtension>
            <ns3:atemp>15.0</ns3:atemp>
          </ns3:TrackPointExtension>
        </extensions>
      </trkpt>
      <trkpt lat="42.56592021323740482330322265625" lon="20.0580597482621669769287109375">
        <ele>2044.800048828125</ele>
        <time>2026-06-15T11:06:43.000Z</time>
        <extensions>
          <ns3:TrackPointExtension>
            <ns3:atemp>15.0</ns3:atemp>
          </ns3:TrackPointExtension>
        </extensions>
      </trkpt>
      <trkpt lat="42.5659025274217128753662109375" lon="20.0580305792391300201416015625">
        <ele>2044.800048828125</ele>
        <time>2026-06-15T11:06:44.000Z</time>
        <extensions>
          <ns3:TrackPointExtension>
            <ns3:atemp>15.0</ns3:atemp>
          </ns3:TrackPointExtension>
        </extensions>
      </trkpt>
      <trkpt lat="42.56588400341570377349853515625" lon="20.0579997338354587554931640625">
        <ele>2045</ele>
        <time>2026-06-15T11:06:45.000Z</time>
        <extensions>
          <ns3:TrackPointExtension>
            <ns3:atemp>15.0</ns3:atemp>
          </ns3:TrackPointExtension>
        </extensions>
      </trkpt>
      <trkpt lat="42.565864808857440948486328125" lon="20.05796981044113636016845703125">
        <ele>2045</ele>
        <time>2026-06-15T11:06:46.000Z</time>
        <extensions>
          <ns3:TrackPointExtension>
            <ns3:atemp>15.0</ns3:atemp>
          </ns3:TrackPointExtension>
        </extensions>
      </trkpt>
      <trkpt lat="42.5658468715846538543701171875" lon="20.05793913267552852630615234375">
        <ele>2045.199951171875</ele>
        <time>2026-06-15T11:06:47.000Z</time>
        <extensions>
          <ns3:TrackPointExtension>
            <ns3:atemp>15.0</ns3:atemp>
          </ns3:TrackPointExtension>
        </extensions>
      </trkpt>
      <trkpt lat="42.56583203561604022979736328125" lon="20.05790929310023784637451171875">
        <ele>2045.4000244140625</ele>
        <time>2026-06-15T11:06:48.000Z</time>
        <extensions>
          <ns3:TrackPointExtension>
            <ns3:atemp>15.0</ns3:atemp>
          </ns3:TrackPointExtension>
        </extensions>
      </trkpt>
      <trkpt lat="42.565813176333904266357421875" lon="20.05787693895399570465087890625">
        <ele>2045.4000244140625</ele>
        <time>2026-06-15T11:06:49.000Z</time>
        <extensions>
          <ns3:TrackPointExtension>
            <ns3:atemp>15.0</ns3:atemp>
          </ns3:TrackPointExtension>
        </extensions>
      </trkpt>
      <trkpt lat="42.56579699926078319549560546875" lon="20.0578445009887218475341796875">
        <ele>2045.5999755859375</ele>
        <time>2026-06-15T11:06:50.000Z</time>
        <extensions>
          <ns3:TrackPointExtension>
            <ns3:atemp>15.0</ns3:atemp>
          </ns3:TrackPointExtension>
        </extensions>
      </trkpt>
      <trkpt lat="42.5657831691205501556396484375" lon="20.0578139908611774444580078125">
        <ele>2045.800048828125</ele>
        <time>2026-06-15T11:06:51.000Z</time>
        <extensions>
          <ns3:TrackPointExtension>
            <ns3:atemp>15.0</ns3:atemp>
          </ns3:TrackPointExtension>
        </extensions>
      </trkpt>
      <trkpt lat="42.5657707639038562774658203125" lon="20.05777635611593723297119140625">
        <ele>2046</ele>
        <time>2026-06-15T11:06:52.000Z</time>
        <extensions>
          <ns3:TrackPointExtension>
            <ns3:atemp>15.0</ns3:atemp>
          </ns3:TrackPointExtension>
        </extensions>
      </trkpt>
      <trkpt lat="42.56576095707714557647705078125" lon="20.05774115212261676788330078125">
        <ele>2046.199951171875</ele>
        <time>2026-06-15T11:06:53.000Z</time>
        <extensions>
          <ns3:TrackPointExtension>
            <ns3:atemp>15.0</ns3:atemp>
          </ns3:TrackPointExtension>
        </extensions>
      </trkpt>
      <trkpt lat="42.56575056351721286773681640625" lon="20.05770930089056491851806640625">
        <ele>2046.4000244140625</ele>
        <time>2026-06-15T11:06:54.000Z</time>
        <extensions>
          <ns3:TrackPointExtension>
            <ns3:atemp>15.0</ns3:atemp>
          </ns3:TrackPointExtension>
        </extensions>
      </trkpt>
      <trkpt lat="42.56573782302439212799072265625" lon="20.0576785393059253692626953125">
        <ele>2046.5999755859375</ele>
        <time>2026-06-15T11:06:55.000Z</time>
        <extensions>
          <ns3:TrackPointExtension>
            <ns3:atemp>15.0</ns3:atemp>
          </ns3:TrackPointExtension>
        </extensions>
      </trkpt>
      <trkpt lat="42.56572608835995197296142578125" lon="20.05764593370258808135986328125">
        <ele>2046.800048828125</ele>
        <time>2026-06-15T11:06:56.000Z</time>
        <extensions>
          <ns3:TrackPointExtension>
            <ns3:atemp>15.0</ns3:atemp>
          </ns3:TrackPointExtension>
        </extensions>
      </trkpt>
      <trkpt lat="42.56571334786713123321533203125" lon="20.0576158426702022552490234375">
        <ele>2047</ele>
        <time>2026-06-15T11:06:57.000Z</time>
        <extensions>
          <ns3:TrackPointExtension>
            <ns3:atemp>15.0</ns3:atemp>
          </ns3:TrackPointExtension>
        </extensions>
      </trkpt>
      <trkpt lat="42.56570027209818363189697265625" lon="20.0575849972665309906005859375">
        <ele>2047.199951171875</ele>
        <time>2026-06-15T11:06:58.000Z</time>
        <extensions>
          <ns3:TrackPointExtension>
            <ns3:atemp>15.0</ns3:atemp>
          </ns3:TrackPointExtension>
        </extensions>
      </trkpt>
      <trkpt lat="42.5656845979392528533935546875" lon="20.05755901336669921875">
        <ele>2047.4000244140625</ele>
        <time>2026-06-15T11:06:59.000Z</time>
        <extensions>
          <ns3:TrackPointExtension>
            <ns3:atemp>15.0</ns3:atemp>
          </ns3:TrackPointExtension>
        </extensions>
      </trkpt>
      <trkpt lat="42.56566758267581462860107421875" lon="20.0575310178101062774658203125">
        <ele>2047.5999755859375</ele>
        <time>2026-06-15T11:07:00.000Z</time>
        <extensions>
          <ns3:TrackPointExtension>
            <ns3:atemp>15.0</ns3:atemp>
          </ns3:TrackPointExtension>
        </extensions>
      </trkpt>
      <trkpt lat="42.5656472146511077880859375" lon="20.0575055368244647979736328125">
        <ele>2048</ele>
        <time>2026-06-15T11:07:01.000Z</time>
        <extensions>
          <ns3:TrackPointExtension>
            <ns3:atemp>15.0</ns3:atemp>
          </ns3:TrackPointExtension>
        </extensions>
      </trkpt>
      <trkpt lat="42.565624415874481201171875" lon="20.05748349241912364959716796875">
        <ele>2048.199951171875</ele>
        <time>2026-06-15T11:07:02.000Z</time>
        <extensions>
          <ns3:TrackPointExtension>
            <ns3:atemp>15.0</ns3:atemp>
          </ns3:TrackPointExtension>
        </extensions>
      </trkpt>
      <trkpt lat="42.56560119800269603729248046875" lon="20.05746052600443363189697265625">
        <ele>2048.39990234375</ele>
        <time>2026-06-15T11:07:03.000Z</time>
        <extensions>
          <ns3:TrackPointExtension>
            <ns3:atemp>15.0</ns3:atemp>
          </ns3:TrackPointExtension>
        </extensions>
      </trkpt>
      <trkpt lat="42.5655799917876720428466796875" lon="20.05743823014199733734130859375">
        <ele>2048.60009765625</ele>
        <time>2026-06-15T11:07:04.000Z</time>
        <extensions>
          <ns3:TrackPointExtension>
            <ns3:atemp>15.0</ns3:atemp>
          </ns3:TrackPointExtension>
        </extensions>
      </trkpt>
      <trkpt lat="42.56555509753525257110595703125" lon="20.05741844885051250457763671875">
        <ele>2048.800048828125</ele>
        <time>2026-06-15T11:07:05.000Z</time>
        <extensions>
          <ns3:TrackPointExtension>
            <ns3:atemp>15.0</ns3:atemp>
          </ns3:TrackPointExtension>
        </extensions>
      </trkpt>
      <trkpt lat="42.56552986800670623779296875" lon="20.0573994219303131103515625">
        <ele>2048.800048828125</ele>
        <time>2026-06-15T11:07:06.000Z</time>
        <extensions>
          <ns3:TrackPointExtension>
            <ns3:atemp>15.0</ns3:atemp>
          </ns3:TrackPointExtension>
        </extensions>
      </trkpt>
      <trkpt lat="42.56550614722073078155517578125" lon="20.05737670697271823883056640625">
        <ele>2049</ele>
        <time>2026-06-15T11:07:07.000Z</time>
        <extensions>
          <ns3:TrackPointExtension>
            <ns3:atemp>15.0</ns3:atemp>
          </ns3:TrackPointExtension>
        </extensions>
      </trkpt>
      <trkpt lat="42.565484605729579925537109375" lon="20.05735340528190135955810546875">
        <ele>2049.199951171875</ele>
        <time>2026-06-15T11:07:08.000Z</time>
        <extensions>
          <ns3:TrackPointExtension>
            <ns3:atemp>15.0</ns3:atemp>
          </ns3:TrackPointExtension>
        </extensions>
      </trkpt>
      <trkpt lat="42.56545878946781158447265625" lon="20.05733060650527477264404296875">
        <ele>2049.199951171875</ele>
        <time>2026-06-15T11:07:09.000Z</time>
        <extensions>
          <ns3:TrackPointExtension>
            <ns3:atemp>15.0</ns3:atemp>
          </ns3:TrackPointExtension>
        </extensions>
      </trkpt>
      <trkpt lat="42.56543599069118499755859375" lon="20.05730898119509220123291015625">
        <ele>2049.39990234375</ele>
        <time>2026-06-15T11:07:10.000Z</time>
        <extensions>
          <ns3:TrackPointExtension>
            <ns3:atemp>15.0</ns3:atemp>
          </ns3:TrackPointExtension>
        </extensions>
      </trkpt>
      <trkpt lat="42.56540807895362377166748046875" lon="20.0572859309613704681396484375">
        <ele>2049.60009765625</ele>
        <time>2026-06-15T11:07:11.000Z</time>
        <extensions>
          <ns3:TrackPointExtension>
            <ns3:atemp>15.0</ns3:atemp>
          </ns3:TrackPointExtension>
        </extensions>
      </trkpt>
      <trkpt lat="42.56538511253893375396728515625" lon="20.057256259024143218994140625">
        <ele>2049.60009765625</ele>
        <time>2026-06-15T11:07:12.000Z</time>
        <extensions>
          <ns3:TrackPointExtension>
            <ns3:atemp>15.0</ns3:atemp>
          </ns3:TrackPointExtension>
        </extensions>
      </trkpt>
      <trkpt lat="42.5653607212007045745849609375" lon="20.057228095829486846923828125">
        <ele>2049.800048828125</ele>
        <time>2026-06-15T11:07:13.000Z</time>
        <extensions>
          <ns3:TrackPointExtension>
            <ns3:atemp>15.0</ns3:atemp>
          </ns3:TrackPointExtension>
        </extensions>
      </trkpt>
      <trkpt lat="42.565343119204044342041015625" lon="20.05719616077840328216552734375">
        <ele>2050</ele>
        <time>2026-06-15T11:07:14.000Z</time>
        <extensions>
          <ns3:TrackPointExtension>
            <ns3:atemp>15.0</ns3:atemp>
          </ns3:TrackPointExtension>
        </extensions>
      </trkpt>
      <trkpt lat="42.56532962433993816375732421875" lon="20.05716967396438121795654296875">
        <ele>2050.199951171875</ele>
        <time>2026-06-15T11:07:15.000Z</time>
        <extensions>
          <ns3:TrackPointExtension>
            <ns3:atemp>15.0</ns3:atemp>
          </ns3:TrackPointExtension>
        </extensions>
      </trkpt>
      <trkpt lat="42.5653127767145633697509765625" lon="20.0571420975029468536376953125">
        <ele>2050.39990234375</ele>
        <time>2026-06-15T11:07:16.000Z</time>
        <extensions>
          <ns3:TrackPointExtension>
            <ns3:atemp>15.0</ns3:atemp>
          </ns3:TrackPointExtension>
        </extensions>
      </trkpt>
      <trkpt lat="42.56530012004077434539794921875" lon="20.057114772498607635498046875">
        <ele>2050.800048828125</ele>
        <time>2026-06-15T11:07:17.000Z</time>
        <extensions>
          <ns3:TrackPointExtension>
            <ns3:atemp>15.0</ns3:atemp>
          </ns3:TrackPointExtension>
        </extensions>
      </trkpt>
      <trkpt lat="42.56529374979436397552490234375" lon="20.057084262371063232421875">
        <ele>2051</ele>
        <time>2026-06-15T11:07:18.000Z</time>
        <extensions>
          <ns3:TrackPointExtension>
            <ns3:atemp>15.0</ns3:atemp>
          </ns3:TrackPointExtension>
        </extensions>
      </trkpt>
      <trkpt lat="42.565282769501209259033203125" lon="20.0570560991764068603515625">
        <ele>2051.39990234375</ele>
        <time>2026-06-15T11:07:19.000Z</time>
        <extensions>
          <ns3:TrackPointExtension>
            <ns3:atemp>15.0</ns3:atemp>
          </ns3:TrackPointExtension>
        </extensions>
      </trkpt>
      <trkpt lat="42.5652705319225788116455078125" lon="20.05703070200979709625244140625">
        <ele>2051.800048828125</ele>
        <time>2026-06-15T11:07:20.000Z</time>
        <extensions>
          <ns3:TrackPointExtension>
            <ns3:atemp>15.0</ns3:atemp>
          </ns3:TrackPointExtension>
        </extensions>
      </trkpt>
      <trkpt lat="42.56525720469653606414794921875" lon="20.05700622685253620147705078125">
        <ele>2052</ele>
        <time>2026-06-15T11:07:21.000Z</time>
        <extensions>
          <ns3:TrackPointExtension>
            <ns3:atemp>15.0</ns3:atemp>
          </ns3:TrackPointExtension>
        </extensions>
      </trkpt>
      <trkpt lat="42.5652393512427806854248046875" lon="20.0569801591336727142333984375">
        <ele>2052.39990234375</ele>
        <time>2026-06-15T11:07:22.000Z</time>
        <extensions>
          <ns3:TrackPointExtension>
            <ns3:atemp>15.0</ns3:atemp>
          </ns3:TrackPointExtension>
        </extensions>
      </trkpt>
      <trkpt lat="42.565222419798374176025390625" lon="20.05695492960512638092041015625">
        <ele>2052.60009765625</ele>
        <time>2026-06-15T11:07:23.000Z</time>
        <extensions>
          <ns3:TrackPointExtension>
            <ns3:atemp>15.0</ns3:atemp>
          </ns3:TrackPointExtension>
        </extensions>
      </trkpt>
      <trkpt lat="42.56520557217299938201904296875" lon="20.05693137645721435546875">
        <ele>2052.800048828125</ele>
        <time>2026-06-15T11:07:24.000Z</time>
        <extensions>
          <ns3:TrackPointExtension>
            <ns3:atemp>15.0</ns3:atemp>
          </ns3:TrackPointExtension>
        </extensions>
      </trkpt>
      <trkpt lat="42.56518763490021228790283203125" lon="20.05691134370863437652587890625">
        <ele>2053</ele>
        <time>2026-06-15T11:07:25.000Z</time>
        <extensions>
          <ns3:TrackPointExtension>
            <ns3:atemp>15.0</ns3:atemp>
          </ns3:TrackPointExtension>
        </extensions>
      </trkpt>
      <trkpt lat="42.5651706196367740631103515625" lon="20.05689223296940326690673828125">
        <ele>2053.199951171875</ele>
        <time>2026-06-15T11:07:26.000Z</time>
        <extensions>
          <ns3:TrackPointExtension>
            <ns3:atemp>15.0</ns3:atemp>
          </ns3:TrackPointExtension>
        </extensions>
      </trkpt>
      <trkpt lat="42.565150000154972076416015625" lon="20.05687563680112361907958984375">
        <ele>2053.39990234375</ele>
        <time>2026-06-15T11:07:27.000Z</time>
        <extensions>
          <ns3:TrackPointExtension>
            <ns3:atemp>15.0</ns3:atemp>
          </ns3:TrackPointExtension>
        </extensions>
      </trkpt>
      <trkpt lat="42.5651273690164089202880859375" lon="20.05685920827090740203857421875">
        <ele>2053.39990234375</ele>
        <time>2026-06-15T11:07:28.000Z</time>
        <extensions>
          <ns3:TrackPointExtension>
            <ns3:atemp>15.0</ns3:atemp>
          </ns3:TrackPointExtension>
        </extensions>
      </trkpt>
      <trkpt lat="42.56510230712592601776123046875" lon="20.05684110336005687713623046875">
        <ele>2053.800048828125</ele>
        <time>2026-06-15T11:07:29.000Z</time>
        <extensions>
          <ns3:TrackPointExtension>
            <ns3:atemp>15.0</ns3:atemp>
          </ns3:TrackPointExtension>
        </extensions>
      </trkpt>
      <trkpt lat="42.56507900543510913848876953125" lon="20.05682266317307949066162109375">
        <ele>2054</ele>
        <time>2026-06-15T11:07:30.000Z</time>
        <extensions>
          <ns3:TrackPointExtension>
            <ns3:atemp>15.0</ns3:atemp>
          </ns3:TrackPointExtension>
        </extensions>
      </trkpt>
      <trkpt lat="42.56505821831524372100830078125" lon="20.05680472590029239654541015625">
        <ele>2054.199951171875</ele>
        <time>2026-06-15T11:07:31.000Z</time>
        <extensions>
          <ns3:TrackPointExtension>
            <ns3:atemp>15.0</ns3:atemp>
          </ns3:TrackPointExtension>
        </extensions>
      </trkpt>
      <trkpt lat="42.565036006271839141845703125" lon="20.05678863264620304107666015625">
        <ele>2054.60009765625</ele>
        <time>2026-06-15T11:07:32.000Z</time>
        <extensions>
          <ns3:TrackPointExtension>
            <ns3:atemp>15.0</ns3:atemp>
          </ns3:TrackPointExtension>
        </extensions>
      </trkpt>
      <trkpt lat="42.56501446478068828582763671875" lon="20.056772120296955108642578125">
        <ele>2054.800048828125</ele>
        <time>2026-06-15T11:07:33.000Z</time>
        <extensions>
          <ns3:TrackPointExtension>
            <ns3:atemp>15.0</ns3:atemp>
          </ns3:TrackPointExtension>
        </extensions>
      </trkpt>
      <trkpt lat="42.56499208509922027587890625" lon="20.05675309337675571441650390625">
        <ele>2055</ele>
        <time>2026-06-15T11:07:34.000Z</time>
        <extensions>
          <ns3:TrackPointExtension>
            <ns3:atemp>15.0</ns3:atemp>
          </ns3:TrackPointExtension>
        </extensions>
      </trkpt>
      <trkpt lat="42.56497054360806941986083984375" lon="20.0567347370088100433349609375">
        <ele>2055.39990234375</ele>
        <time>2026-06-15T11:07:35.000Z</time>
        <extensions>
          <ns3:TrackPointExtension>
            <ns3:atemp>15.0</ns3:atemp>
          </ns3:TrackPointExtension>
        </extensions>
      </trkpt>
      <trkpt lat="42.56494455970823764801025390625" lon="20.0567223317921161651611328125">
        <ele>2055.60009765625</ele>
        <time>2026-06-15T11:07:36.000Z</time>
        <extensions>
          <ns3:TrackPointExtension>
            <ns3:atemp>15.0</ns3:atemp>
          </ns3:TrackPointExtension>
        </extensions>
      </trkpt>
      <trkpt lat="42.5649178214371204376220703125" lon="20.0567100942134857177734375">
        <ele>2055.800048828125</ele>
        <time>2026-06-15T11:07:37.000Z</time>
        <extensions>
          <ns3:TrackPointExtension>
            <ns3:atemp>15.0</ns3:atemp>
          </ns3:TrackPointExtension>
        </extensions>
      </trkpt>
      <trkpt lat="42.56489292718470096588134765625" lon="20.05669978447258472442626953125">
        <ele>2056</ele>
        <time>2026-06-15T11:07:38.000Z</time>
        <extensions>
          <ns3:TrackPointExtension>
            <ns3:atemp>15.0</ns3:atemp>
          </ns3:TrackPointExtension>
        </extensions>
      </trkpt>
      <trkpt lat="42.5648668594658374786376953125" lon="20.05668930709362030029296875">
        <ele>2056.199951171875</ele>
        <time>2026-06-15T11:07:39.000Z</time>
        <extensions>
          <ns3:TrackPointExtension>
            <ns3:atemp>15.0</ns3:atemp>
          </ns3:TrackPointExtension>
        </extensions>
      </trkpt>
      <trkpt lat="42.56484028883278369903564453125" lon="20.05668260157108306884765625">
        <ele>2056.60009765625</ele>
        <time>2026-06-15T11:07:40.000Z</time>
        <extensions>
          <ns3:TrackPointExtension>
            <ns3:atemp>15.0</ns3:atemp>
          </ns3:TrackPointExtension>
        </extensions>
      </trkpt>
      <trkpt lat="42.56481564603745937347412109375" lon="20.0566790811717510223388671875">
        <ele>2056.800048828125</ele>
        <time>2026-06-15T11:07:41.000Z</time>
        <extensions>
          <ns3:TrackPointExtension>
            <ns3:atemp>15.0</ns3:atemp>
          </ns3:TrackPointExtension>
        </extensions>
      </trkpt>
      <trkpt lat="42.5647894106805324554443359375" lon="20.056684277951717376708984375">
        <ele>2057.199951171875</ele>
        <time>2026-06-15T11:07:42.000Z</time>
        <extensions>
          <ns3:TrackPointExtension>
            <ns3:atemp>15.0</ns3:atemp>
          </ns3:TrackPointExtension>
        </extensions>
      </trkpt>
      <trkpt lat="42.56476535461843013763427734375" lon="20.0566847808659076690673828125">
        <ele>2057.60009765625</ele>
        <time>2026-06-15T11:07:43.000Z</time>
        <extensions>
          <ns3:TrackPointExtension>
            <ns3:atemp>15.0</ns3:atemp>
          </ns3:TrackPointExtension>
        </extensions>
      </trkpt>
      <trkpt lat="42.5647421367466449737548828125" lon="20.05668838508427143096923828125">
        <ele>2057.800048828125</ele>
        <time>2026-06-15T11:07:44.000Z</time>
        <extensions>
          <ns3:TrackPointExtension>
            <ns3:atemp>15.0</ns3:atemp>
          </ns3:TrackPointExtension>
        </extensions>
      </trkpt>
      <trkpt lat="42.56471640430390834808349609375" lon="20.05669341422617435455322265625">
        <ele>2058.199951171875</ele>
        <time>2026-06-15T11:07:45.000Z</time>
        <extensions>
          <ns3:TrackPointExtension>
            <ns3:atemp>15.0</ns3:atemp>
          </ns3:TrackPointExtension>
        </extensions>
      </trkpt>
      <trkpt lat="42.56469377316534519195556640625" lon="20.05669525824487209320068359375">
        <ele>2058.39990234375</ele>
        <time>2026-06-15T11:07:46.000Z</time>
        <extensions>
          <ns3:TrackPointExtension>
            <ns3:atemp>15.0</ns3:atemp>
          </ns3:TrackPointExtension>
        </extensions>
      </trkpt>
      <trkpt lat="42.56466745398938655853271484375" lon="20.05670146085321903228759765625">
        <ele>2058.60009765625</ele>
        <time>2026-06-15T11:07:47.000Z</time>
        <extensions>
          <ns3:TrackPointExtension>
            <ns3:atemp>15.0</ns3:atemp>
          </ns3:TrackPointExtension>
        </extensions>
      </trkpt>
      <trkpt lat="42.56463962607085704803466796875" lon="20.056708417832851409912109375">
        <ele>2058.800048828125</ele>
        <time>2026-06-15T11:07:48.000Z</time>
        <extensions>
          <ns3:TrackPointExtension>
            <ns3:atemp>15.0</ns3:atemp>
          </ns3:TrackPointExtension>
        </extensions>
      </trkpt>
      <trkpt lat="42.5646140612661838531494140625" lon="20.05671705119311809539794921875">
        <ele>2059</ele>
        <time>2026-06-15T11:07:49.000Z</time>
        <extensions>
          <ns3:TrackPointExtension>
            <ns3:atemp>15.0</ns3:atemp>
          </ns3:TrackPointExtension>
        </extensions>
      </trkpt>
      <trkpt lat="42.56458732299506664276123046875" lon="20.05673096515238285064697265625">
        <ele>2059</ele>
        <time>2026-06-15T11:07:50.000Z</time>
        <extensions>
          <ns3:TrackPointExtension>
            <ns3:atemp>15.0</ns3:atemp>
          </ns3:TrackPointExtension>
        </extensions>
      </trkpt>
      <trkpt lat="42.56456301547586917877197265625" lon="20.0567434541881084442138671875">
        <ele>2059.199951171875</ele>
        <time>2026-06-15T11:07:51.000Z</time>
        <extensions>
          <ns3:TrackPointExtension>
            <ns3:atemp>15.0</ns3:atemp>
          </ns3:TrackPointExtension>
        </extensions>
      </trkpt>
      <trkpt lat="42.56453971378505229949951171875" lon="20.056760050356388092041015625">
        <ele>2059.39990234375</ele>
        <time>2026-06-15T11:07:52.000Z</time>
        <extensions>
          <ns3:TrackPointExtension>
            <ns3:atemp>15.0</ns3:atemp>
          </ns3:TrackPointExtension>
        </extensions>
      </trkpt>
      <trkpt lat="42.5645134784281253814697265625" lon="20.056778825819492340087890625">
        <ele>2059.39990234375</ele>
        <time>2026-06-15T11:07:53.000Z</time>
        <extensions>
          <ns3:TrackPointExtension>
            <ns3:atemp>15.0</ns3:atemp>
          </ns3:TrackPointExtension>
        </extensions>
      </trkpt>
      <trkpt lat="42.56449009291827678680419921875" lon="20.0567937456071376800537109375">
        <ele>2059.60009765625</ele>
        <time>2026-06-15T11:07:54.000Z</time>
        <extensions>
          <ns3:TrackPointExtension>
            <ns3:atemp>15.0</ns3:atemp>
          </ns3:TrackPointExtension>
        </extensions>
      </trkpt>
      <trkpt lat="42.56447232328355312347412109375" lon="20.0568078272044658660888671875">
        <ele>2059.60009765625</ele>
        <time>2026-06-15T11:07:55.000Z</time>
        <extensions>
          <ns3:TrackPointExtension>
            <ns3:atemp>15.0</ns3:atemp>
          </ns3:TrackPointExtension>
        </extensions>
      </trkpt>
      <trkpt lat="42.564453966915607452392578125" lon="20.056822411715984344482421875">
        <ele>2059.60009765625</ele>
        <time>2026-06-15T11:07:56.000Z</time>
        <extensions>
          <ns3:TrackPointExtension>
            <ns3:atemp>15.0</ns3:atemp>
          </ns3:TrackPointExtension>
        </extensions>
      </trkpt>
      <trkpt lat="42.56443209014832973480224609375" lon="20.05683121271431446075439453125">
        <ele>2059.800048828125</ele>
        <time>2026-06-15T11:07:57.000Z</time>
        <extensions>
          <ns3:TrackPointExtension>
            <ns3:atemp>15.0</ns3:atemp>
          </ns3:TrackPointExtension>
        </extensions>
      </trkpt>
      <trkpt lat="42.56441080011427402496337890625" lon="20.056843869388103485107421875">
        <ele>2059.800048828125</ele>
        <time>2026-06-15T11:07:58.000Z</time>
        <extensions>
          <ns3:TrackPointExtension>
            <ns3:atemp>15.0</ns3:atemp>
          </ns3:TrackPointExtension>
        </extensions>
      </trkpt>
      <trkpt lat="42.56439051590859889984130859375" lon="20.05685669369995594024658203125">
        <ele>2060</ele>
        <time>2026-06-15T11:07:59.000Z</time>
        <extensions>
          <ns3:TrackPointExtension>
            <ns3:atemp>15.0</ns3:atemp>
          </ns3:TrackPointExtension>
        </extensions>
      </trkpt>
      <trkpt lat="42.56436771713197231292724609375" lon="20.05687060765922069549560546875">
        <ele>2060</ele>
        <time>2026-06-15T11:08:00.000Z</time>
        <extensions>
          <ns3:TrackPointExtension>
            <ns3:atemp>15.0</ns3:atemp>
          </ns3:TrackPointExtension>
        </extensions>
      </trkpt>
      <trkpt lat="42.56434424780309200286865234375" lon="20.05688686855137348175048828125">
        <ele>2060.199951171875</ele>
        <time>2026-06-15T11:08:01.000Z</time>
        <extensions>
          <ns3:TrackPointExtension>
            <ns3:atemp>15.0</ns3:atemp>
          </ns3:TrackPointExtension>
        </extensions>
      </trkpt>
      <trkpt lat="42.564320527017116546630859375" lon="20.0569043867290019989013671875">
        <ele>2060.199951171875</ele>
        <time>2026-06-15T11:08:02.000Z</time>
        <extensions>
          <ns3:TrackPointExtension>
            <ns3:atemp>15.0</ns3:atemp>
          </ns3:TrackPointExtension>
        </extensions>
      </trkpt>
      <trkpt lat="42.5642935372889041900634765625" lon="20.05692123435437679290771484375">
        <ele>2060.199951171875</ele>
        <time>2026-06-15T11:08:03.000Z</time>
        <extensions>
          <ns3:TrackPointExtension>
            <ns3:atemp>15.0</ns3:atemp>
          </ns3:TrackPointExtension>
        </extensions>
      </trkpt>
      <trkpt lat="42.56426663137972354888916015625" lon="20.05693749524652957916259765625">
        <ele>2060.39990234375</ele>
        <time>2026-06-15T11:08:04.000Z</time>
        <extensions>
          <ns3:TrackPointExtension>
            <ns3:atemp>15.0</ns3:atemp>
          </ns3:TrackPointExtension>
        </extensions>
      </trkpt>
      <trkpt lat="42.56424265913665294647216796875" lon="20.0569541752338409423828125">
        <ele>2060.39990234375</ele>
        <time>2026-06-15T11:08:05.000Z</time>
        <extensions>
          <ns3:TrackPointExtension>
            <ns3:atemp>15.0</ns3:atemp>
          </ns3:TrackPointExtension>
        </extensions>
      </trkpt>
      <trkpt lat="42.56421701051294803619384765625" lon="20.0569644011557102203369140625">
        <ele>2060.60009765625</ele>
        <time>2026-06-15T11:08:06.000Z</time>
        <extensions>
          <ns3:TrackPointExtension>
            <ns3:atemp>15.0</ns3:atemp>
          </ns3:TrackPointExtension>
        </extensions>
      </trkpt>
      <trkpt lat="42.56419722922146320343017578125" lon="20.05697186104953289031982421875">
        <ele>2060.800048828125</ele>
        <time>2026-06-15T11:08:07.000Z</time>
        <extensions>
          <ns3:TrackPointExtension>
            <ns3:atemp>15.0</ns3:atemp>
          </ns3:TrackPointExtension>
        </extensions>
      </trkpt>
      <trkpt lat="42.564184404909610748291015625" lon="20.05697923712432384490966796875">
        <ele>2061</ele>
        <time>2026-06-15T11:08:08.000Z</time>
        <extensions>
          <ns3:TrackPointExtension>
            <ns3:atemp>15.0</ns3:atemp>
          </ns3:TrackPointExtension>
        </extensions>
      </trkpt>
      <trkpt lat="42.564175687730312347412109375" lon="20.05697923712432384490966796875">
        <ele>2061.199951171875</ele>
        <time>2026-06-15T11:08:09.000Z</time>
        <extensions>
          <ns3:TrackPointExtension>
            <ns3:atemp>15.0</ns3:atemp>
          </ns3:TrackPointExtension>
        </extensions>
      </trkpt>
      <trkpt lat="42.5641634501516819000244140625" lon="20.05698778666555881500244140625">
        <ele>2061.60009765625</ele>
        <time>2026-06-15T11:08:10.000Z</time>
        <extensions>
          <ns3:TrackPointExtension>
            <ns3:atemp>15.0</ns3:atemp>
          </ns3:TrackPointExtension>
        </extensions>
      </trkpt>
      <trkpt lat="42.56415330804884433746337890625" lon="20.05699373781681060791015625">
        <ele>2061.800048828125</ele>
        <time>2026-06-15T11:08:11.000Z</time>
        <extensions>
          <ns3:TrackPointExtension>
            <ns3:atemp>15.0</ns3:atemp>
          </ns3:TrackPointExtension>
        </extensions>
      </trkpt>
      <trkpt lat="42.56414509378373622894287109375" lon="20.05699700675904750823974609375">
        <ele>2061.800048828125</ele>
        <time>2026-06-15T11:08:12.000Z</time>
        <extensions>
          <ns3:TrackPointExtension>
            <ns3:atemp>15.0</ns3:atemp>
          </ns3:TrackPointExtension>
        </extensions>
      </trkpt>
      <trkpt lat="42.564136795699596405029296875" lon="20.05700069479644298553466796875">
        <ele>2062</ele>
        <time>2026-06-15T11:08:13.000Z</time>
        <extensions>
          <ns3:TrackPointExtension>
            <ns3:atemp>15.0</ns3:atemp>
          </ns3:TrackPointExtension>
        </extensions>
      </trkpt>
      <trkpt lat="42.5641248933970928192138671875" lon="20.057006143033504486083984375">
        <ele>2062.199951171875</ele>
        <time>2026-06-15T11:08:14.000Z</time>
        <extensions>
          <ns3:TrackPointExtension>
            <ns3:atemp>15.0</ns3:atemp>
          </ns3:TrackPointExtension>
        </extensions>
      </trkpt>
      <trkpt lat="42.5641131587326526641845703125" lon="20.05701117217540740966796875">
        <ele>2062.39990234375</ele>
        <time>2026-06-15T11:08:15.000Z</time>
        <extensions>
          <ns3:TrackPointExtension>
            <ns3:atemp>15.0</ns3:atemp>
          </ns3:TrackPointExtension>
        </extensions>
      </trkpt>
      <trkpt lat="42.56409513764083385467529296875" lon="20.05701527930796146392822265625">
        <ele>2062.39990234375</ele>
        <time>2026-06-15T11:08:16.000Z</time>
        <extensions>
          <ns3:TrackPointExtension>
            <ns3:atemp>15.0</ns3:atemp>
          </ns3:TrackPointExtension>
        </extensions>
      </trkpt>
      <trkpt lat="42.56407334469258785247802734375" lon="20.05701092071831226348876953125">
        <ele>2062.60009765625</ele>
        <time>2026-06-15T11:08:17.000Z</time>
        <extensions>
          <ns3:TrackPointExtension>
            <ns3:atemp>15.0</ns3:atemp>
          </ns3:TrackPointExtension>
        </extensions>
      </trkpt>
      <trkpt lat="42.56404987536370754241943359375" lon="20.05698728375136852264404296875">
        <ele>2062.60009765625</ele>
        <time>2026-06-15T11:08:18.000Z</time>
        <extensions>
          <ns3:TrackPointExtension>
            <ns3:atemp>15.0</ns3:atemp>
          </ns3:TrackPointExtension>
        </extensions>
      </trkpt>
      <trkpt lat="42.564028166234493255615234375" lon="20.05695560015738010406494140625">
        <ele>2062.800048828125</ele>
        <time>2026-06-15T11:08:19.000Z</time>
        <extensions>
          <ns3:TrackPointExtension>
            <ns3:atemp>15.0</ns3:atemp>
          </ns3:TrackPointExtension>
        </extensions>
      </trkpt>
      <trkpt lat="42.5640082173049449920654296875" lon="20.05691855214536190032958984375">
        <ele>2062.800048828125</ele>
        <time>2026-06-15T11:08:20.000Z</time>
        <extensions>
          <ns3:TrackPointExtension>
            <ns3:atemp>15.0</ns3:atemp>
          </ns3:TrackPointExtension>
        </extensions>
      </trkpt>
      <trkpt lat="42.563995979726314544677734375" lon="20.05687664262950420379638671875">
        <ele>2062.60009765625</ele>
        <time>2026-06-15T11:08:21.000Z</time>
        <extensions>
          <ns3:TrackPointExtension>
            <ns3:atemp>15.0</ns3:atemp>
          </ns3:TrackPointExtension>
        </extensions>
      </trkpt>
      <trkpt lat="42.563988268375396728515625" lon="20.05683205090463161468505859375">
        <ele>2062.800048828125</ele>
        <time>2026-06-15T11:08:22.000Z</time>
        <extensions>
          <ns3:TrackPointExtension>
            <ns3:atemp>15.0</ns3:atemp>
          </ns3:TrackPointExtension>
        </extensions>
      </trkpt>
      <trkpt lat="42.56398717872798442840576171875" lon="20.05678796209394931793212890625">
        <ele>2062.800048828125</ele>
        <time>2026-06-15T11:08:23.000Z</time>
        <extensions>
          <ns3:TrackPointExtension>
            <ns3:atemp>15.0</ns3:atemp>
          </ns3:TrackPointExtension>
        </extensions>
      </trkpt>
      <trkpt lat="42.56398491561412811279296875" lon="20.056742615997791290283203125">
        <ele>2062.800048828125</ele>
        <time>2026-06-15T11:08:24.000Z</time>
        <extensions>
          <ns3:TrackPointExtension>
            <ns3:atemp>15.0</ns3:atemp>
          </ns3:TrackPointExtension>
        </extensions>
      </trkpt>
      <trkpt lat="42.5639817304909229278564453125" lon="20.05669861100614070892333984375">
        <ele>2063</ele>
        <time>2026-06-15T11:08:25.000Z</time>
        <extensions>
          <ns3:TrackPointExtension>
            <ns3:atemp>15.0</ns3:atemp>
          </ns3:TrackPointExtension>
        </extensions>
      </trkpt>
      <trkpt lat="42.563975863158702850341796875" lon="20.056655444204807281494140625">
        <ele>2063</ele>
        <time>2026-06-15T11:08:26.000Z</time>
        <extensions>
          <ns3:TrackPointExtension>
            <ns3:atemp>15.0</ns3:atemp>
          </ns3:TrackPointExtension>
        </extensions>
      </trkpt>
      <trkpt lat="42.56397058255970478057861328125" lon="20.0566150434315204620361328125">
        <ele>2063.199951171875</ele>
        <time>2026-06-15T11:08:27.000Z</time>
        <extensions>
          <ns3:TrackPointExtension>
            <ns3:atemp>15.0</ns3:atemp>
          </ns3:TrackPointExtension>
        </extensions>
      </trkpt>
      <trkpt lat="42.56396622397005558013916015625" lon="20.05658193491399288177490234375">
        <ele>2063.60009765625</ele>
        <time>2026-06-15T11:08:28.000Z</time>
        <extensions>
          <ns3:TrackPointExtension>
            <ns3:atemp>15.0</ns3:atemp>
          </ns3:TrackPointExtension>
        </extensions>
      </trkpt>
      <trkpt lat="42.56396337412297725677490234375" lon="20.05654589273035526275634765625">
        <ele>2063.800048828125</ele>
        <time>2026-06-15T11:08:29.000Z</time>
        <extensions>
          <ns3:TrackPointExtension>
            <ns3:atemp>15.0</ns3:atemp>
          </ns3:TrackPointExtension>
        </extensions>
      </trkpt>
      <trkpt lat="42.56395834498107433319091796875" lon="20.05650917999446392059326171875">
        <ele>2064.199951171875</ele>
        <time>2026-06-15T11:08:30.000Z</time>
        <extensions>
          <ns3:TrackPointExtension>
            <ns3:atemp>15.0</ns3:atemp>
          </ns3:TrackPointExtension>
        </extensions>
      </trkpt>
      <trkpt lat="42.5639528967440128326416015625" lon="20.05647162906825542449951171875">
        <ele>2064.60009765625</ele>
        <time>2026-06-15T11:08:31.000Z</time>
        <extensions>
          <ns3:TrackPointExtension>
            <ns3:atemp>15.0</ns3:atemp>
          </ns3:TrackPointExtension>
        </extensions>
      </trkpt>
      <trkpt lat="42.56394443102180957794189453125" lon="20.05643541924655437469482421875">
        <ele>2065</ele>
        <time>2026-06-15T11:08:32.000Z</time>
        <extensions>
          <ns3:TrackPointExtension>
            <ns3:atemp>15.0</ns3:atemp>
          </ns3:TrackPointExtension>
        </extensions>
      </trkpt>
      <trkpt lat="42.56393303163349628448486328125" lon="20.056397952139377593994140625">
        <ele>2065.199951171875</ele>
        <time>2026-06-15T11:08:33.000Z</time>
        <extensions>
          <ns3:TrackPointExtension>
            <ns3:atemp>15.0</ns3:atemp>
          </ns3:TrackPointExtension>
        </extensions>
      </trkpt>
      <trkpt lat="42.5639223866164684295654296875" lon="20.0563652627170085906982421875">
        <ele>2065.39990234375</ele>
        <time>2026-06-15T11:08:34.000Z</time>
        <extensions>
          <ns3:TrackPointExtension>
            <ns3:atemp>15.0</ns3:atemp>
          </ns3:TrackPointExtension>
        </extensions>
      </trkpt>
      <trkpt lat="42.5639076344668865203857421875" lon="20.0563290528953075408935546875">
        <ele>2065.800048828125</ele>
        <time>2026-06-15T11:08:35.000Z</time>
        <extensions>
          <ns3:TrackPointExtension>
            <ns3:atemp>15.0</ns3:atemp>
          </ns3:TrackPointExtension>
        </extensions>
      </trkpt>
      <trkpt lat="42.5638935528695583343505859375" lon="20.05629493854939937591552734375">
        <ele>2066</ele>
        <time>2026-06-15T11:08:36.000Z</time>
        <extensions>
          <ns3:TrackPointExtension>
            <ns3:atemp>15.0</ns3:atemp>
          </ns3:TrackPointExtension>
        </extensions>
      </trkpt>
      <trkpt lat="42.56387435831129550933837890625" lon="20.05626551806926727294921875">
        <ele>2066.199951171875</ele>
        <time>2026-06-15T11:08:37.000Z</time>
        <extensions>
          <ns3:TrackPointExtension>
            <ns3:atemp>15.0</ns3:atemp>
          </ns3:TrackPointExtension>
        </extensions>
      </trkpt>
      <trkpt lat="42.5638526491820812225341796875" lon="20.05624330602586269378662109375">
        <ele>2066.199951171875</ele>
        <time>2026-06-15T11:08:38.000Z</time>
        <extensions>
          <ns3:TrackPointExtension>
            <ns3:atemp>15.0</ns3:atemp>
          </ns3:TrackPointExtension>
        </extensions>
      </trkpt>
      <trkpt lat="42.56383412517607212066650390625" lon="20.05621363408863544464111328125">
        <ele>2066.39990234375</ele>
        <time>2026-06-15T11:08:39.000Z</time>
        <extensions>
          <ns3:TrackPointExtension>
            <ns3:atemp>15.0</ns3:atemp>
          </ns3:TrackPointExtension>
        </extensions>
      </trkpt>
      <trkpt lat="42.56382976658642292022705078125" lon="20.05618630908429622650146484375">
        <ele>2066.39990234375</ele>
        <time>2026-06-15T11:08:40.000Z</time>
        <extensions>
          <ns3:TrackPointExtension>
            <ns3:atemp>15.0</ns3:atemp>
          </ns3:TrackPointExtension>
        </extensions>
      </trkpt>
      <trkpt lat="42.5638321973383426666259765625" lon="20.05616501905024051666259765625">
        <ele>2066.39990234375</ele>
        <time>2026-06-15T11:08:41.000Z</time>
        <extensions>
          <ns3:TrackPointExtension>
            <ns3:atemp>15.0</ns3:atemp>
          </ns3:TrackPointExtension>
        </extensions>
      </trkpt>
      <trkpt lat="42.5638439320027828216552734375" lon="20.0561335869133472442626953125">
        <ele>2066.60009765625</ele>
        <time>2026-06-15T11:08:42.000Z</time>
        <extensions>
          <ns3:TrackPointExtension>
            <ns3:atemp>15.0</ns3:atemp>
          </ns3:TrackPointExtension>
        </extensions>
      </trkpt>
      <trkpt lat="42.5638586841523647308349609375" lon="20.05610886029899120330810546875">
        <ele>2066.60009765625</ele>
        <time>2026-06-15T11:08:43.000Z</time>
        <extensions>
          <ns3:TrackPointExtension>
            <ns3:atemp>15.0</ns3:atemp>
          </ns3:TrackPointExtension>
        </extensions>
      </trkpt>
      <trkpt lat="42.56387226283550262451171875" lon="20.05609209649264812469482421875">
        <ele>2066.60009765625</ele>
        <time>2026-06-15T11:08:44.000Z</time>
        <extensions>
          <ns3:TrackPointExtension>
            <ns3:atemp>15.0</ns3:atemp>
          </ns3:TrackPointExtension>
        </extensions>
      </trkpt>
      <trkpt lat="42.56389011628925800323486328125" lon="20.05608086474239826202392578125">
        <ele>2066.60009765625</ele>
        <time>2026-06-15T11:08:45.000Z</time>
        <extensions>
          <ns3:TrackPointExtension>
            <ns3:atemp>15.0</ns3:atemp>
          </ns3:TrackPointExtension>
        </extensions>
      </trkpt>
      <trkpt lat="42.56390755064785480499267578125" lon="20.056075416505336761474609375">
        <ele>2066.60009765625</ele>
        <time>2026-06-15T11:08:46.000Z</time>
        <extensions>
          <ns3:TrackPointExtension>
            <ns3:atemp>15.0</ns3:atemp>
          </ns3:TrackPointExtension>
        </extensions>
      </trkpt>
      <trkpt lat="42.5639203749597072601318359375" lon="20.05607642233371734619140625">
        <ele>2066.60009765625</ele>
        <time>2026-06-15T11:08:47.000Z</time>
        <extensions>
          <ns3:TrackPointExtension>
            <ns3:atemp>15.0</ns3:atemp>
          </ns3:TrackPointExtension>
        </extensions>
      </trkpt>
      <trkpt lat="42.56393621675670146942138671875" lon="20.0560755841434001922607421875">
        <ele>2066.60009765625</ele>
        <time>2026-06-15T11:08:48.000Z</time>
        <extensions>
          <ns3:TrackPointExtension>
            <ns3:atemp>15.0</ns3:atemp>
          </ns3:TrackPointExtension>
        </extensions>
      </trkpt>
      <trkpt lat="42.563954405486583709716796875" lon="20.05607063882052898406982421875">
        <ele>2066.60009765625</ele>
        <time>2026-06-15T11:08:49.000Z</time>
        <extensions>
          <ns3:TrackPointExtension>
            <ns3:atemp>15.0</ns3:atemp>
          </ns3:TrackPointExtension>
        </extensions>
      </trkpt>
      <trkpt lat="42.563977874815464019775390625" lon="20.056059658527374267578125">
        <ele>2066.60009765625</ele>
        <time>2026-06-15T11:08:50.000Z</time>
        <extensions>
          <ns3:TrackPointExtension>
            <ns3:atemp>15.0</ns3:atemp>
          </ns3:TrackPointExtension>
        </extensions>
      </trkpt>
      <trkpt lat="42.564005367457866668701171875" lon="20.05604314617812633514404296875">
        <ele>2066.60009765625</ele>
        <time>2026-06-15T11:08:51.000Z</time>
        <extensions>
          <ns3:TrackPointExtension>
            <ns3:atemp>15.0</ns3:atemp>
          </ns3:TrackPointExtension>
        </extensions>
      </trkpt>
      <trkpt lat="42.56403319537639617919921875" lon="20.05602923221886157989501953125">
        <ele>2066.60009765625</ele>
        <time>2026-06-15T11:08:52.000Z</time>
        <extensions>
          <ns3:TrackPointExtension>
            <ns3:atemp>15.0</ns3:atemp>
          </ns3:TrackPointExtension>
        </extensions>
      </trkpt>
      <trkpt lat="42.564060688018798828125" lon="20.056013055145740509033203125">
        <ele>2066.60009765625</ele>
        <time>2026-06-15T11:08:53.000Z</time>
        <extensions>
          <ns3:TrackPointExtension>
            <ns3:atemp>15.0</ns3:atemp>
          </ns3:TrackPointExtension>
        </extensions>
      </trkpt>
      <trkpt lat="42.5640796311199665069580078125" lon="20.0559984706342220306396484375">
        <ele>2066.60009765625</ele>
        <time>2026-06-15T11:08:54.000Z</time>
        <extensions>
          <ns3:TrackPointExtension>
            <ns3:atemp>15.0</ns3:atemp>
          </ns3:TrackPointExtension>
        </extensions>
      </trkpt>
      <trkpt lat="42.5641007535159587860107421875" lon="20.0559756718575954437255859375">
        <ele>2066.60009765625</ele>
        <time>2026-06-15T11:08:55.000Z</time>
        <extensions>
          <ns3:TrackPointExtension>
            <ns3:atemp>15.0</ns3:atemp>
          </ns3:TrackPointExtension>
        </extensions>
      </trkpt>
      <trkpt lat="42.5641272403299808502197265625" lon="20.0559555552899837493896484375">
        <ele>2066.39990234375</ele>
        <time>2026-06-15T11:08:56.000Z</time>
        <extensions>
          <ns3:TrackPointExtension>
            <ns3:atemp>15.0</ns3:atemp>
          </ns3:TrackPointExtension>
        </extensions>
      </trkpt>
      <trkpt lat="42.56415523588657379150390625" lon="20.05593485198915004730224609375">
        <ele>2066.39990234375</ele>
        <time>2026-06-15T11:08:57.000Z</time>
        <extensions>
          <ns3:TrackPointExtension>
            <ns3:atemp>15.0</ns3:atemp>
          </ns3:TrackPointExtension>
        </extensions>
      </trkpt>
      <trkpt lat="42.564179711043834686279296875" lon="20.05590685643255710601806640625">
        <ele>2066.60009765625</ele>
        <time>2026-06-15T11:08:58.000Z</time>
        <extensions>
          <ns3:TrackPointExtension>
            <ns3:atemp>15.0</ns3:atemp>
          </ns3:TrackPointExtension>
        </extensions>
      </trkpt>
      <trkpt lat="42.56420209072530269622802734375" lon="20.0558844767510890960693359375">
        <ele>2066.60009765625</ele>
        <time>2026-06-15T11:08:59.000Z</time>
        <extensions>
          <ns3:TrackPointExtension>
            <ns3:atemp>15.0</ns3:atemp>
          </ns3:TrackPointExtension>
        </extensions>
      </trkpt>
      <trkpt lat="42.56422019563615322113037109375" lon="20.05587131716310977935791015625">
        <ele>2066.60009765625</ele>
        <time>2026-06-15T11:09:00.000Z</time>
        <extensions>
          <ns3:TrackPointExtension>
            <ns3:atemp>15.0</ns3:atemp>
          </ns3:TrackPointExtension>
        </extensions>
      </trkpt>
      <trkpt lat="42.5642412342131137847900390625" lon="20.05585237406194210052490234375">
        <ele>2066.800048828125</ele>
        <time>2026-06-15T11:09:01.000Z</time>
        <extensions>
          <ns3:TrackPointExtension>
            <ns3:atemp>15.0</ns3:atemp>
          </ns3:TrackPointExtension>
        </extensions>
      </trkpt>
      <trkpt lat="42.56425171159207820892333984375" lon="20.0558251328766345977783203125">
        <ele>2067</ele>
        <time>2026-06-15T11:09:02.000Z</time>
        <extensions>
          <ns3:TrackPointExtension>
            <ns3:atemp>15.0</ns3:atemp>
          </ns3:TrackPointExtension>
        </extensions>
      </trkpt>
      <trkpt lat="42.56425917148590087890625" lon="20.055791102349758148193359375">
        <ele>2067</ele>
        <time>2026-06-15T11:09:03.000Z</time>
        <extensions>
          <ns3:TrackPointExtension>
            <ns3:atemp>15.0</ns3:atemp>
          </ns3:TrackPointExtension>
        </extensions>
      </trkpt>
      <trkpt lat="42.56426260806620121002197265625" lon="20.05575329996645450592041015625">
        <ele>2067.199951171875</ele>
        <time>2026-06-15T11:09:04.000Z</time>
        <extensions>
          <ns3:TrackPointExtension>
            <ns3:atemp>15.0</ns3:atemp>
          </ns3:TrackPointExtension>
        </extensions>
      </trkpt>
      <trkpt lat="42.5642687268555164337158203125" lon="20.05571323446929454803466796875">
        <ele>2067.39990234375</ele>
        <time>2026-06-15T11:09:05.000Z</time>
        <extensions>
          <ns3:TrackPointExtension>
            <ns3:atemp>15.0</ns3:atemp>
          </ns3:TrackPointExtension>
        </extensions>
      </trkpt>
      <trkpt lat="42.56426579318940639495849609375" lon="20.05567199550569057464599609375">
        <ele>2067.60009765625</ele>
        <time>2026-06-15T11:09:06.000Z</time>
        <extensions>
          <ns3:TrackPointExtension>
            <ns3:atemp>15.0</ns3:atemp>
          </ns3:TrackPointExtension>
        </extensions>
      </trkpt>
      <trkpt lat="42.5642551481723785400390625" lon="20.05563343875110149383544921875">
        <ele>2067.800048828125</ele>
        <time>2026-06-15T11:09:07.000Z</time>
        <extensions>
          <ns3:TrackPointExtension>
            <ns3:atemp>15.0</ns3:atemp>
          </ns3:TrackPointExtension>
        </extensions>
      </trkpt>
      <trkpt lat="42.56424299441277980804443359375" lon="20.05560477264225482940673828125">
        <ele>2068</ele>
        <time>2026-06-15T11:09:08.000Z</time>
        <extensions>
          <ns3:TrackPointExtension>
            <ns3:atemp>15.0</ns3:atemp>
          </ns3:TrackPointExtension>
        </extensions>
      </trkpt>
      <trkpt lat="42.56422740407288074493408203125" lon="20.05557593889534473419189453125">
        <ele>2068.199951171875</ele>
        <time>2026-06-15T11:09:09.000Z</time>
        <extensions>
          <ns3:TrackPointExtension>
            <ns3:atemp>15.0</ns3:atemp>
          </ns3:TrackPointExtension>
        </extensions>
      </trkpt>
      <trkpt lat="42.56421114318072795867919921875" lon="20.05555012263357639312744140625">
        <ele>2068.39990234375</ele>
        <time>2026-06-15T11:09:10.000Z</time>
        <extensions>
          <ns3:TrackPointExtension>
            <ns3:atemp>15.0</ns3:atemp>
          </ns3:TrackPointExtension>
        </extensions>
      </trkpt>
      <trkpt lat="42.56418985314667224884033203125" lon="20.055526904761791229248046875">
        <ele>2068.39990234375</ele>
        <time>2026-06-15T11:09:11.000Z</time>
        <extensions>
          <ns3:TrackPointExtension>
            <ns3:atemp>15.0</ns3:atemp>
          </ns3:TrackPointExtension>
        </extensions>
      </trkpt>
      <trkpt lat="42.56416420452296733856201171875" lon="20.055502764880657196044921875">
        <ele>2068.800048828125</ele>
        <time>2026-06-15T11:09:12.000Z</time>
        <extensions>
          <ns3:TrackPointExtension>
            <ns3:atemp>15.0</ns3:atemp>
          </ns3:TrackPointExtension>
        </extensions>
      </trkpt>
      <trkpt lat="42.5641429983079433441162109375" lon="20.05548407323658466339111328125">
        <ele>2069</ele>
        <time>2026-06-15T11:09:13.000Z</time>
        <extensions>
          <ns3:TrackPointExtension>
            <ns3:atemp>15.0</ns3:atemp>
          </ns3:TrackPointExtension>
        </extensions>
      </trkpt>
      <trkpt lat="42.56412036716938018798828125" lon="20.05546479485929012298583984375">
        <ele>2069.199951171875</ele>
        <time>2026-06-15T11:09:14.000Z</time>
        <extensions>
          <ns3:TrackPointExtension>
            <ns3:atemp>15.0</ns3:atemp>
          </ns3:TrackPointExtension>
        </extensions>
      </trkpt>
      <trkpt lat="42.56410150788724422454833984375" lon="20.0554469414055347442626953125">
        <ele>2069.39990234375</ele>
        <time>2026-06-15T11:09:15.000Z</time>
        <extensions>
          <ns3:TrackPointExtension>
            <ns3:atemp>15.0</ns3:atemp>
          </ns3:TrackPointExtension>
        </extensions>
      </trkpt>
      <trkpt lat="42.56408977322280406951904296875" lon="20.0554187782108783721923828125">
        <ele>2069.60009765625</ele>
        <time>2026-06-15T11:09:16.000Z</time>
        <extensions>
          <ns3:TrackPointExtension>
            <ns3:atemp>15.0</ns3:atemp>
          </ns3:TrackPointExtension>
        </extensions>
      </trkpt>
      <trkpt lat="42.564073763787746429443359375" lon="20.05539237521588802337646484375">
        <ele>2069.60009765625</ele>
        <time>2026-06-15T11:09:17.000Z</time>
        <extensions>
          <ns3:TrackPointExtension>
            <ns3:atemp>15.0</ns3:atemp>
          </ns3:TrackPointExtension>
        </extensions>
      </trkpt>
      <trkpt lat="42.5640541501343250274658203125" lon="20.055365972220897674560546875">
        <ele>2069.800048828125</ele>
        <time>2026-06-15T11:09:18.000Z</time>
        <extensions>
          <ns3:TrackPointExtension>
            <ns3:atemp>15.0</ns3:atemp>
          </ns3:TrackPointExtension>
        </extensions>
      </trkpt>
      <trkpt lat="42.56403193809092044830322265625" lon="20.05534459836781024932861328125">
        <ele>2070</ele>
        <time>2026-06-15T11:09:19.000Z</time>
        <extensions>
          <ns3:TrackPointExtension>
            <ns3:atemp>15.0</ns3:atemp>
          </ns3:TrackPointExtension>
        </extensions>
      </trkpt>
      <trkpt lat="42.56400947459042072296142578125" lon="20.05531962029635906219482421875">
        <ele>2070.199951171875</ele>
        <time>2026-06-15T11:09:20.000Z</time>
        <extensions>
          <ns3:TrackPointExtension>
            <ns3:atemp>15.0</ns3:atemp>
          </ns3:TrackPointExtension>
        </extensions>
      </trkpt>
      <trkpt lat="42.5639884360134601593017578125" lon="20.0552930496633052825927734375">
        <ele>2070.39990234375</ele>
        <time>2026-06-15T11:09:21.000Z</time>
        <extensions>
          <ns3:TrackPointExtension>
            <ns3:atemp>15.0</ns3:atemp>
          </ns3:TrackPointExtension>
        </extensions>
      </trkpt>
      <trkpt lat="42.5639686547219753265380859375" lon="20.055266059935092926025390625">
        <ele>2070.60009765625</ele>
        <time>2026-06-15T11:09:22.000Z</time>
        <extensions>
          <ns3:TrackPointExtension>
            <ns3:atemp>15.0</ns3:atemp>
          </ns3:TrackPointExtension>
        </extensions>
      </trkpt>
      <trkpt lat="42.56395029835402965545654296875" lon="20.0552440993487834930419921875">
        <ele>2070.800048828125</ele>
        <time>2026-06-15T11:09:23.000Z</time>
        <extensions>
          <ns3:TrackPointExtension>
            <ns3:atemp>15.0</ns3:atemp>
          </ns3:TrackPointExtension>
        </extensions>
      </trkpt>
      <trkpt lat="42.5639334507286548614501953125" lon="20.0552241504192352294921875">
        <ele>2071</ele>
        <time>2026-06-15T11:09:24.000Z</time>
        <extensions>
          <ns3:TrackPointExtension>
            <ns3:atemp>15.0</ns3:atemp>
          </ns3:TrackPointExtension>
        </extensions>
      </trkpt>
      <trkpt lat="42.56391559727489948272705078125" lon="20.05520068109035491943359375">
        <ele>2071.39990234375</ele>
        <time>2026-06-15T11:09:25.000Z</time>
        <extensions>
          <ns3:TrackPointExtension>
            <ns3:atemp>15.0</ns3:atemp>
          </ns3:TrackPointExtension>
        </extensions>
      </trkpt>
      <trkpt lat="42.5638975761830806732177734375" lon="20.05517561919987201690673828125">
        <ele>2071.800048828125</ele>
        <time>2026-06-15T11:09:26.000Z</time>
        <extensions>
          <ns3:TrackPointExtension>
            <ns3:atemp>15.0</ns3:atemp>
          </ns3:TrackPointExtension>
        </extensions>
      </trkpt>
      <trkpt lat="42.5638777948915958404541015625" lon="20.05515282042324542999267578125">
        <ele>2072</ele>
        <time>2026-06-15T11:09:27.000Z</time>
        <extensions>
          <ns3:TrackPointExtension>
            <ns3:atemp>15.0</ns3:atemp>
          </ns3:TrackPointExtension>
        </extensions>
      </trkpt>
      <trkpt lat="42.563858516514301300048828125" lon="20.05513228476047515869140625">
        <ele>2072.199951171875</ele>
        <time>2026-06-15T11:09:28.000Z</time>
        <extensions>
          <ns3:TrackPointExtension>
            <ns3:atemp>15.0</ns3:atemp>
          </ns3:TrackPointExtension>
        </extensions>
      </trkpt>
      <trkpt lat="42.56384049542248249053955078125" lon="20.05510839633643627166748046875">
        <ele>2072.60009765625</ele>
        <time>2026-06-15T11:09:29.000Z</time>
        <extensions>
          <ns3:TrackPointExtension>
            <ns3:atemp>15.0</ns3:atemp>
          </ns3:TrackPointExtension>
        </extensions>
      </trkpt>
      <trkpt lat="42.56382255814969539642333984375" lon="20.05508123897016048431396484375">
        <ele>2073</ele>
        <time>2026-06-15T11:09:30.000Z</time>
        <extensions>
          <ns3:TrackPointExtension>
            <ns3:atemp>15.0</ns3:atemp>
          </ns3:TrackPointExtension>
        </extensions>
      </trkpt>
      <trkpt lat="42.563807554543018341064453125" lon="20.055046118795871734619140625">
        <ele>2073.199951171875</ele>
        <time>2026-06-15T11:09:31.000Z</time>
        <extensions>
          <ns3:TrackPointExtension>
            <ns3:atemp>15.0</ns3:atemp>
          </ns3:TrackPointExtension>
        </extensions>
      </trkpt>
      <trkpt lat="42.5637924671173095703125" lon="20.05501292645931243896484375">
        <ele>2073.60009765625</ele>
        <time>2026-06-15T11:09:32.000Z</time>
        <extensions>
          <ns3:TrackPointExtension>
            <ns3:atemp>15.0</ns3:atemp>
          </ns3:TrackPointExtension>
        </extensions>
      </trkpt>
      <trkpt lat="42.56377293728291988372802734375" lon="20.0549906305968761444091796875">
        <ele>2073.800048828125</ele>
        <time>2026-06-15T11:09:33.000Z</time>
        <extensions>
          <ns3:TrackPointExtension>
            <ns3:atemp>15.0</ns3:atemp>
          </ns3:TrackPointExtension>
        </extensions>
      </trkpt>
      <trkpt lat="42.56375131197273731231689453125" lon="20.054970681667327880859375">
        <ele>2074</ele>
        <time>2026-06-15T11:09:34.000Z</time>
        <extensions>
          <ns3:TrackPointExtension>
            <ns3:atemp>15.0</ns3:atemp>
          </ns3:TrackPointExtension>
        </extensions>
      </trkpt>
      <trkpt lat="42.5637302733957767486572265625" lon="20.054948888719081878662109375">
        <ele>2074</ele>
        <time>2026-06-15T11:09:35.000Z</time>
        <extensions>
          <ns3:TrackPointExtension>
            <ns3:atemp>15.0</ns3:atemp>
          </ns3:TrackPointExtension>
        </extensions>
      </trkpt>
      <trkpt lat="42.56370806135237216949462890625" lon="20.0549304485321044921875">
        <ele>2074.199951171875</ele>
        <time>2026-06-15T11:09:36.000Z</time>
        <extensions>
          <ns3:TrackPointExtension>
            <ns3:atemp>15.0</ns3:atemp>
          </ns3:TrackPointExtension>
        </extensions>
      </trkpt>
      <trkpt lat="42.563688866794109344482421875" lon="20.05490890704095363616943359375">
        <ele>2074.199951171875</ele>
        <time>2026-06-15T11:09:37.000Z</time>
        <extensions>
          <ns3:TrackPointExtension>
            <ns3:atemp>15.0</ns3:atemp>
          </ns3:TrackPointExtension>
        </extensions>
      </trkpt>
      <trkpt lat="42.56367235444486141204833984375" lon="20.0548887066543102264404296875">
        <ele>2074.39990234375</ele>
        <time>2026-06-15T11:09:38.000Z</time>
        <extensions>
          <ns3:TrackPointExtension>
            <ns3:atemp>15.0</ns3:atemp>
          </ns3:TrackPointExtension>
        </extensions>
      </trkpt>
      <trkpt lat="42.56365709938108921051025390625" lon="20.0548675842583179473876953125">
        <ele>2074.39990234375</ele>
        <time>2026-06-15T11:09:39.000Z</time>
        <extensions>
          <ns3:TrackPointExtension>
            <ns3:atemp>15.0</ns3:atemp>
          </ns3:TrackPointExtension>
        </extensions>
      </trkpt>
      <trkpt lat="42.56364402361214160919189453125" lon="20.05485023371875286102294921875">
        <ele>2074.39990234375</ele>
        <time>2026-06-15T11:09:40.000Z</time>
        <extensions>
          <ns3:TrackPointExtension>
            <ns3:atemp>15.0</ns3:atemp>
          </ns3:TrackPointExtension>
        </extensions>
      </trkpt>
      <trkpt lat="42.56362390704452991485595703125" lon="20.05483187735080718994140625">
        <ele>2074.39990234375</ele>
        <time>2026-06-15T11:09:41.000Z</time>
        <extensions>
          <ns3:TrackPointExtension>
            <ns3:atemp>15.0</ns3:atemp>
          </ns3:TrackPointExtension>
        </extensions>
      </trkpt>
      <trkpt lat="42.56361485458910465240478515625" lon="20.054805390536785125732421875">
        <ele>2074.39990234375</ele>
        <time>2026-06-15T11:09:42.000Z</time>
        <extensions>
          <ns3:TrackPointExtension>
            <ns3:atemp>15.0</ns3:atemp>
          </ns3:TrackPointExtension>
        </extensions>
      </trkpt>
      <trkpt lat="42.56360697560012340545654296875" lon="20.054769180715084075927734375">
        <ele>2074.39990234375</ele>
        <time>2026-06-15T11:09:43.000Z</time>
        <extensions>
          <ns3:TrackPointExtension>
            <ns3:atemp>15.0</ns3:atemp>
          </ns3:TrackPointExtension>
        </extensions>
      </trkpt>
      <trkpt lat="42.56359775550663471221923828125" lon="20.0547348149120807647705078125">
        <ele>2074.60009765625</ele>
        <time>2026-06-15T11:09:44.000Z</time>
        <extensions>
          <ns3:TrackPointExtension>
            <ns3:atemp>15.0</ns3:atemp>
          </ns3:TrackPointExtension>
        </extensions>
      </trkpt>
      <trkpt lat="42.56358702667057514190673828125" lon="20.0547059811651706695556640625">
        <ele>2074.800048828125</ele>
        <time>2026-06-15T11:09:45.000Z</time>
        <extensions>
          <ns3:TrackPointExtension>
            <ns3:atemp>15.0</ns3:atemp>
          </ns3:TrackPointExtension>
        </extensions>
      </trkpt>
      <trkpt lat="42.563580572605133056640625" lon="20.0546823441982269287109375">
        <ele>2075</ele>
        <time>2026-06-15T11:09:46.000Z</time>
        <extensions>
          <ns3:TrackPointExtension>
            <ns3:atemp>15.0</ns3:atemp>
          </ns3:TrackPointExtension>
        </extensions>
      </trkpt>
      <trkpt lat="42.563578896224498748779296875" lon="20.05465778522193431854248046875">
        <ele>2075.39990234375</ele>
        <time>2026-06-15T11:09:47.000Z</time>
        <extensions>
          <ns3:TrackPointExtension>
            <ns3:atemp>15.0</ns3:atemp>
          </ns3:TrackPointExtension>
        </extensions>
      </trkpt>
      <trkpt lat="42.5635777227580547332763671875" lon="20.05463364534080028533935546875">
        <ele>2075.60009765625</ele>
        <time>2026-06-15T11:09:48.000Z</time>
        <extensions>
          <ns3:TrackPointExtension>
            <ns3:atemp>15.0</ns3:atemp>
          </ns3:TrackPointExtension>
        </extensions>
      </trkpt>
      <trkpt lat="42.56357411853969097137451171875" lon="20.05462056957185268402099609375">
        <ele>2075.800048828125</ele>
        <time>2026-06-15T11:09:49.000Z</time>
        <extensions>
          <ns3:TrackPointExtension>
            <ns3:atemp>15.0</ns3:atemp>
          </ns3:TrackPointExtension>
        </extensions>
      </trkpt>
      <trkpt lat="42.56356716156005859375" lon="20.05462668836116790771484375">
        <ele>2076</ele>
        <time>2026-06-15T11:09:50.000Z</time>
        <extensions>
          <ns3:TrackPointExtension>
            <ns3:atemp>15.0</ns3:atemp>
          </ns3:TrackPointExtension>
        </extensions>
      </trkpt>
      <trkpt lat="42.563561461865901947021484375" lon="20.0546241737902164459228515625">
        <ele>2076</ele>
        <time>2026-06-15T11:09:51.000Z</time>
        <extensions>
          <ns3:TrackPointExtension>
            <ns3:atemp>15.0</ns3:atemp>
          </ns3:TrackPointExtension>
        </extensions>
      </trkpt>
      <trkpt lat="42.56356154568493366241455078125" lon="20.0546241737902164459228515625">
        <ele>2076</ele>
        <time>2026-06-15T11:09:52.000Z</time>
        <extensions>
          <ns3:TrackPointExtension>
            <ns3:atemp>15.0</ns3:atemp>
          </ns3:TrackPointExtension>
        </extensions>
      </trkpt>
      <trkpt lat="42.56356154568493366241455078125" lon="20.0546241737902164459228515625">
        <ele>2076</ele>
        <time>2026-06-15T11:09:53.000Z</time>
        <extensions>
          <ns3:TrackPointExtension>
            <ns3:atemp>15.0</ns3:atemp>
          </ns3:TrackPointExtension>
        </extensions>
      </trkpt>
      <trkpt lat="42.56356154568493366241455078125" lon="20.0546241737902164459228515625">
        <ele>2075.800048828125</ele>
        <time>2026-06-15T11:09:54.000Z</time>
        <extensions>
          <ns3:TrackPointExtension>
            <ns3:atemp>15.0</ns3:atemp>
          </ns3:TrackPointExtension>
        </extensions>
      </trkpt>
      <trkpt lat="42.56356154568493366241455078125" lon="20.0546241737902164459228515625">
        <ele>2075.60009765625</ele>
        <time>2026-06-15T11:09:55.000Z</time>
        <extensions>
          <ns3:TrackPointExtension>
            <ns3:atemp>15.0</ns3:atemp>
          </ns3:TrackPointExtension>
        </extensions>
      </trkpt>
      <trkpt lat="42.56356154568493366241455078125" lon="20.0546241737902164459228515625">
        <ele>2075.39990234375</ele>
        <time>2026-06-15T11:09:56.000Z</time>
        <extensions>
          <ns3:TrackPointExtension>
            <ns3:atemp>15.0</ns3:atemp>
          </ns3:TrackPointExtension>
        </extensions>
      </trkpt>
      <trkpt lat="42.56356154568493366241455078125" lon="20.0546241737902164459228515625">
        <ele>2075.39990234375</ele>
        <time>2026-06-15T11:09:57.000Z</time>
        <extensions>
          <ns3:TrackPointExtension>
            <ns3:atemp>15.0</ns3:atemp>
          </ns3:TrackPointExtension>
        </extensions>
      </trkpt>
      <trkpt lat="42.56356154568493366241455078125" lon="20.0546241737902164459228515625">
        <ele>2075.39990234375</ele>
        <time>2026-06-15T11:09:58.000Z</time>
        <extensions>
          <ns3:TrackPointExtension>
            <ns3:atemp>15.0</ns3:atemp>
          </ns3:TrackPointExtension>
        </extensions>
      </trkpt>
      <trkpt lat="42.56356154568493366241455078125" lon="20.0546241737902164459228515625">
        <ele>2075.39990234375</ele>
        <time>2026-06-15T11:09:59.000Z</time>
        <extensions>
          <ns3:TrackPointExtension>
            <ns3:atemp>15.0</ns3:atemp>
          </ns3:TrackPointExtension>
        </extensions>
      </trkpt>
      <trkpt lat="42.56356154568493366241455078125" lon="20.0546241737902164459228515625">
        <ele>2075.60009765625</ele>
        <time>2026-06-15T11:10:00.000Z</time>
        <extensions>
          <ns3:TrackPointExtension>
            <ns3:atemp>15.0</ns3:atemp>
          </ns3:TrackPointExtension>
        </extensions>
      </trkpt>
      <trkpt lat="42.56356154568493366241455078125" lon="20.0546241737902164459228515625">
        <ele>2075.39990234375</ele>
        <time>2026-06-15T11:10:01.000Z</time>
        <extensions>
          <ns3:TrackPointExtension>
            <ns3:atemp>15.0</ns3:atemp>
          </ns3:TrackPointExtension>
        </extensions>
      </trkpt>
      <trkpt lat="42.56356154568493366241455078125" lon="20.0546241737902164459228515625">
        <ele>2075.39990234375</ele>
        <time>2026-06-15T11:10:02.000Z</time>
        <extensions>
          <ns3:TrackPointExtension>
            <ns3:atemp>15.0</ns3:atemp>
          </ns3:TrackPointExtension>
        </extensions>
      </trkpt>
      <trkpt lat="42.56356154568493366241455078125" lon="20.0546241737902164459228515625">
        <ele>2075.39990234375</ele>
        <time>2026-06-15T11:10:03.000Z</time>
        <extensions>
          <ns3:TrackPointExtension>
            <ns3:atemp>15.0</ns3:atemp>
          </ns3:TrackPointExtension>
        </extensions>
      </trkpt>
      <trkpt lat="42.56356154568493366241455078125" lon="20.0546241737902164459228515625">
        <ele>2075.199951171875</ele>
        <time>2026-06-15T11:10:04.000Z</time>
        <extensions>
          <ns3:TrackPointExtension>
            <ns3:atemp>15.0</ns3:atemp>
          </ns3:TrackPointExtension>
        </extensions>
      </trkpt>
      <trkpt lat="42.56356154568493366241455078125" lon="20.0546241737902164459228515625">
        <ele>2075.199951171875</ele>
        <time>2026-06-15T11:10:05.000Z</time>
        <extensions>
          <ns3:TrackPointExtension>
            <ns3:atemp>15.0</ns3:atemp>
          </ns3:TrackPointExtension>
        </extensions>
      </trkpt>
      <trkpt lat="42.56356154568493366241455078125" lon="20.0546241737902164459228515625">
        <ele>2075.199951171875</ele>
        <time>2026-06-15T11:10:06.000Z</time>
        <extensions>
          <ns3:TrackPointExtension>
            <ns3:atemp>15.0</ns3:atemp>
          </ns3:TrackPointExtension>
        </extensions>
      </trkpt>
      <trkpt lat="42.56356154568493366241455078125" lon="20.0546241737902164459228515625">
        <ele>2075.199951171875</ele>
        <time>2026-06-15T11:10:07.000Z</time>
        <extensions>
          <ns3:TrackPointExtension>
            <ns3:atemp>15.0</ns3:atemp>
          </ns3:TrackPointExtension>
        </extensions>
      </trkpt>
      <trkpt lat="42.56356154568493366241455078125" lon="20.0546241737902164459228515625">
        <ele>2075.199951171875</ele>
        <time>2026-06-15T11:10:08.000Z</time>
        <extensions>
          <ns3:TrackPointExtension>
            <ns3:atemp>15.0</ns3:atemp>
          </ns3:TrackPointExtension>
        </extensions>
      </trkpt>
      <trkpt lat="42.56356154568493366241455078125" lon="20.0546241737902164459228515625">
        <ele>2075.199951171875</ele>
        <time>2026-06-15T11:10:09.000Z</time>
        <extensions>
          <ns3:TrackPointExtension>
            <ns3:atemp>15.0</ns3:atemp>
          </ns3:TrackPointExtension>
        </extensions>
      </trkpt>
      <trkpt lat="42.56356154568493366241455078125" lon="20.0546241737902164459228515625">
        <ele>2075.199951171875</ele>
        <time>2026-06-15T11:10:10.000Z</time>
        <extensions>
          <ns3:TrackPointExtension>
            <ns3:atemp>15.0</ns3:atemp>
          </ns3:TrackPointExtension>
        </extensions>
      </trkpt>
      <trkpt lat="42.56356154568493366241455078125" lon="20.0546241737902164459228515625">
        <ele>2075.199951171875</ele>
        <time>2026-06-15T11:10:11.000Z</time>
        <extensions>
          <ns3:TrackPointExtension>
            <ns3:atemp>15.0</ns3:atemp>
          </ns3:TrackPointExtension>
        </extensions>
      </trkpt>
      <trkpt lat="42.56356154568493366241455078125" lon="20.0546241737902164459228515625">
        <ele>2075.199951171875</ele>
        <time>2026-06-15T11:10:12.000Z</time>
        <extensions>
          <ns3:TrackPointExtension>
            <ns3:atemp>15.0</ns3:atemp>
          </ns3:TrackPointExtension>
        </extensions>
      </trkpt>
      <trkpt lat="42.56356154568493366241455078125" lon="20.0546241737902164459228515625">
        <ele>2075</ele>
        <time>2026-06-15T11:10:13.000Z</time>
        <extensions>
          <ns3:TrackPointExtension>
            <ns3:atemp>15.0</ns3:atemp>
          </ns3:TrackPointExtension>
        </extensions>
      </trkpt>
      <trkpt lat="42.56356154568493366241455078125" lon="20.0546241737902164459228515625">
        <ele>2075</ele>
        <time>2026-06-15T11:10:14.000Z</time>
        <extensions>
          <ns3:TrackPointExtension>
            <ns3:atemp>15.0</ns3:atemp>
          </ns3:TrackPointExtension>
        </extensions>
      </trkpt>
      <trkpt lat="42.56356154568493366241455078125" lon="20.0546241737902164459228515625">
        <ele>2075</ele>
        <time>2026-06-15T11:10:15.000Z</time>
        <extensions>
          <ns3:TrackPointExtension>
            <ns3:atemp>15.0</ns3:atemp>
          </ns3:TrackPointExtension>
        </extensions>
      </trkpt>
      <trkpt lat="42.56356154568493366241455078125" lon="20.0546241737902164459228515625">
        <ele>2075</ele>
        <time>2026-06-15T11:10:16.000Z</time>
        <extensions>
          <ns3:TrackPointExtension>
            <ns3:atemp>15.0</ns3:atemp>
          </ns3:TrackPointExtension>
        </extensions>
      </trkpt>
      <trkpt lat="42.56356154568493366241455078125" lon="20.0546241737902164459228515625">
        <ele>2075</ele>
        <time>2026-06-15T11:10:17.000Z</time>
        <extensions>
          <ns3:TrackPointExtension>
            <ns3:atemp>15.0</ns3:atemp>
          </ns3:TrackPointExtension>
        </extensions>
      </trkpt>
      <trkpt lat="42.56356154568493366241455078125" lon="20.0546241737902164459228515625">
        <ele>2075</ele>
        <time>2026-06-15T11:10:18.000Z</time>
        <extensions>
          <ns3:TrackPointExtension>
            <ns3:atemp>15.0</ns3:atemp>
          </ns3:TrackPointExtension>
        </extensions>
      </trkpt>
      <trkpt lat="42.56356154568493366241455078125" lon="20.0546241737902164459228515625">
        <ele>2075</ele>
        <time>2026-06-15T11:10:19.000Z</time>
        <extensions>
          <ns3:TrackPointExtension>
            <ns3:atemp>15.0</ns3:atemp>
          </ns3:TrackPointExtension>
        </extensions>
      </trkpt>
      <trkpt lat="42.56356154568493366241455078125" lon="20.0546241737902164459228515625">
        <ele>2075</ele>
        <time>2026-06-15T11:10:20.000Z</time>
        <extensions>
          <ns3:TrackPointExtension>
            <ns3:atemp>15.0</ns3:atemp>
          </ns3:TrackPointExtension>
        </extensions>
      </trkpt>
      <trkpt lat="42.56356154568493366241455078125" lon="20.0546241737902164459228515625">
        <ele>2074.800048828125</ele>
        <time>2026-06-15T11:10:21.000Z</time>
        <extensions>
          <ns3:TrackPointExtension>
            <ns3:atemp>15.0</ns3:atemp>
          </ns3:TrackPointExtension>
        </extensions>
      </trkpt>
      <trkpt lat="42.56356154568493366241455078125" lon="20.0546241737902164459228515625">
        <ele>2074.800048828125</ele>
        <time>2026-06-15T11:10:22.000Z</time>
        <extensions>
          <ns3:TrackPointExtension>
            <ns3:atemp>15.0</ns3:atemp>
          </ns3:TrackPointExtension>
        </extensions>
      </trkpt>
      <trkpt lat="42.56356154568493366241455078125" lon="20.0546241737902164459228515625">
        <ele>2074.800048828125</ele>
        <time>2026-06-15T11:10:23.000Z</time>
        <extensions>
          <ns3:TrackPointExtension>
            <ns3:atemp>15.0</ns3:atemp>
          </ns3:TrackPointExtension>
        </extensions>
      </trkpt>
      <trkpt lat="42.56356154568493366241455078125" lon="20.0546241737902164459228515625">
        <ele>2074.60009765625</ele>
        <time>2026-06-15T11:10:24.000Z</time>
        <extensions>
          <ns3:TrackPointExtension>
            <ns3:atemp>15.0</ns3:atemp>
          </ns3:TrackPointExtension>
        </extensions>
      </trkpt>
      <trkpt lat="42.56356154568493366241455078125" lon="20.0546241737902164459228515625">
        <ele>2074.60009765625</ele>
        <time>2026-06-15T11:10:25.000Z</time>
        <extensions>
          <ns3:TrackPointExtension>
            <ns3:atemp>15.0</ns3:atemp>
          </ns3:TrackPointExtension>
        </extensions>
      </trkpt>
      <trkpt lat="42.56356154568493366241455078125" lon="20.0546241737902164459228515625">
        <ele>2074.60009765625</ele>
        <time>2026-06-15T11:10:26.000Z</time>
        <extensions>
          <ns3:TrackPointExtension>
            <ns3:atemp>15.0</ns3:atemp>
          </ns3:TrackPointExtension>
        </extensions>
      </trkpt>
      <trkpt lat="42.56356154568493366241455078125" lon="20.0546241737902164459228515625">
        <ele>2074.39990234375</ele>
        <time>2026-06-15T11:10:27.000Z</time>
        <extensions>
          <ns3:TrackPointExtension>
            <ns3:atemp>15.0</ns3:atemp>
          </ns3:TrackPointExtension>
        </extensions>
      </trkpt>
      <trkpt lat="42.56356154568493366241455078125" lon="20.0546241737902164459228515625">
        <ele>2074.39990234375</ele>
        <time>2026-06-15T11:10:28.000Z</time>
        <extensions>
          <ns3:TrackPointExtension>
            <ns3:atemp>15.0</ns3:atemp>
          </ns3:TrackPointExtension>
        </extensions>
      </trkpt>
      <trkpt lat="42.56356154568493366241455078125" lon="20.0546241737902164459228515625">
        <ele>2074.39990234375</ele>
        <time>2026-06-15T11:10:29.000Z</time>
        <extensions>
          <ns3:TrackPointExtension>
            <ns3:atemp>15.0</ns3:atemp>
          </ns3:TrackPointExtension>
        </extensions>
      </trkpt>
      <trkpt lat="42.56356154568493366241455078125" lon="20.0546241737902164459228515625">
        <ele>2074.39990234375</ele>
        <time>2026-06-15T11:10:30.000Z</time>
        <extensions>
          <ns3:TrackPointExtension>
            <ns3:atemp>15.0</ns3:atemp>
          </ns3:TrackPointExtension>
        </extensions>
      </trkpt>
      <trkpt lat="42.56356154568493366241455078125" lon="20.0546241737902164459228515625">
        <ele>2074.39990234375</ele>
        <time>2026-06-15T11:10:31.000Z</time>
        <extensions>
          <ns3:TrackPointExtension>
            <ns3:atemp>15.0</ns3:atemp>
          </ns3:TrackPointExtension>
        </extensions>
      </trkpt>
      <trkpt lat="42.56356154568493366241455078125" lon="20.0546241737902164459228515625">
        <ele>2074.60009765625</ele>
        <time>2026-06-15T11:10:32.000Z</time>
        <extensions>
          <ns3:TrackPointExtension>
            <ns3:atemp>15.0</ns3:atemp>
          </ns3:TrackPointExtension>
        </extensions>
      </trkpt>
      <trkpt lat="42.56356154568493366241455078125" lon="20.0546241737902164459228515625">
        <ele>2074.39990234375</ele>
        <time>2026-06-15T11:10:33.000Z</time>
        <extensions>
          <ns3:TrackPointExtension>
            <ns3:atemp>15.0</ns3:atemp>
          </ns3:TrackPointExtension>
        </extensions>
      </trkpt>
      <trkpt lat="42.56356154568493366241455078125" lon="20.0546241737902164459228515625">
        <ele>2074.39990234375</ele>
        <time>2026-06-15T11:10:34.000Z</time>
        <extensions>
          <ns3:TrackPointExtension>
            <ns3:atemp>15.0</ns3:atemp>
          </ns3:TrackPointExtension>
        </extensions>
      </trkpt>
      <trkpt lat="42.56356154568493366241455078125" lon="20.0546241737902164459228515625">
        <ele>2074.39990234375</ele>
        <time>2026-06-15T11:10:35.000Z</time>
        <extensions>
          <ns3:TrackPointExtension>
            <ns3:atemp>15.0</ns3:atemp>
          </ns3:TrackPointExtension>
        </extensions>
      </trkpt>
      <trkpt lat="42.56356154568493366241455078125" lon="20.0546241737902164459228515625">
        <ele>2074.39990234375</ele>
        <time>2026-06-15T11:10:36.000Z</time>
        <extensions>
          <ns3:TrackPointExtension>
            <ns3:atemp>15.0</ns3:atemp>
          </ns3:TrackPointExtension>
        </extensions>
      </trkpt>
      <trkpt lat="42.56356154568493366241455078125" lon="20.0546241737902164459228515625">
        <ele>2074.39990234375</ele>
        <time>2026-06-15T11:10:37.000Z</time>
        <extensions>
          <ns3:TrackPointExtension>
            <ns3:atemp>15.0</ns3:atemp>
          </ns3:TrackPointExtension>
        </extensions>
      </trkpt>
      <trkpt lat="42.56356154568493366241455078125" lon="20.0546241737902164459228515625">
        <ele>2074.39990234375</ele>
        <time>2026-06-15T11:10:38.000Z</time>
        <extensions>
          <ns3:TrackPointExtension>
            <ns3:atemp>15.0</ns3:atemp>
          </ns3:TrackPointExtension>
        </extensions>
      </trkpt>
      <trkpt lat="42.56356154568493366241455078125" lon="20.0546241737902164459228515625">
        <ele>2074.60009765625</ele>
        <time>2026-06-15T11:10:39.000Z</time>
        <extensions>
          <ns3:TrackPointExtension>
            <ns3:atemp>15.0</ns3:atemp>
          </ns3:TrackPointExtension>
        </extensions>
      </trkpt>
      <trkpt lat="42.56356154568493366241455078125" lon="20.0546241737902164459228515625">
        <ele>2074.800048828125</ele>
        <time>2026-06-15T11:10:40.000Z</time>
        <extensions>
          <ns3:TrackPointExtension>
            <ns3:atemp>15.0</ns3:atemp>
          </ns3:TrackPointExtension>
        </extensions>
      </trkpt>
      <trkpt lat="42.56356154568493366241455078125" lon="20.0546241737902164459228515625">
        <ele>2075</ele>
        <time>2026-06-15T11:10:41.000Z</time>
        <extensions>
          <ns3:TrackPointExtension>
            <ns3:atemp>15.0</ns3:atemp>
          </ns3:TrackPointExtension>
        </extensions>
      </trkpt>
      <trkpt lat="42.56356154568493366241455078125" lon="20.0546241737902164459228515625">
        <ele>2075.199951171875</ele>
        <time>2026-06-15T11:10:42.000Z</time>
        <extensions>
          <ns3:TrackPointExtension>
            <ns3:atemp>15.0</ns3:atemp>
          </ns3:TrackPointExtension>
        </extensions>
      </trkpt>
      <trkpt lat="42.56356154568493366241455078125" lon="20.0546241737902164459228515625">
        <ele>2075.39990234375</ele>
        <time>2026-06-15T11:10:43.000Z</time>
        <extensions>
          <ns3:TrackPointExtension>
            <ns3:atemp>15.0</ns3:atemp>
          </ns3:TrackPointExtension>
        </extensions>
      </trkpt>
      <trkpt lat="42.56356154568493366241455078125" lon="20.0546241737902164459228515625">
        <ele>2075.39990234375</ele>
        <time>2026-06-15T11:10:44.000Z</time>
        <extensions>
          <ns3:TrackPointExtension>
            <ns3:atemp>15.0</ns3:atemp>
          </ns3:TrackPointExtension>
        </extensions>
      </trkpt>
      <trkpt lat="42.56356154568493366241455078125" lon="20.0546241737902164459228515625">
        <ele>2075.60009765625</ele>
        <time>2026-06-15T11:10:45.000Z</time>
        <extensions>
          <ns3:TrackPointExtension>
            <ns3:atemp>15.0</ns3:atemp>
          </ns3:TrackPointExtension>
        </extensions>
      </trkpt>
      <trkpt lat="42.56356154568493366241455078125" lon="20.0546241737902164459228515625">
        <ele>2075.60009765625</ele>
        <time>2026-06-15T11:10:46.000Z</time>
        <extensions>
          <ns3:TrackPointExtension>
            <ns3:atemp>15.0</ns3:atemp>
          </ns3:TrackPointExtension>
        </extensions>
      </trkpt>
      <trkpt lat="42.56356154568493366241455078125" lon="20.0546241737902164459228515625">
        <ele>2075.60009765625</ele>
        <time>2026-06-15T11:10:47.000Z</time>
        <extensions>
          <ns3:TrackPointExtension>
            <ns3:atemp>15.0</ns3:atemp>
          </ns3:TrackPointExtension>
        </extensions>
      </trkpt>
      <trkpt lat="42.56356154568493366241455078125" lon="20.0546241737902164459228515625">
        <ele>2075.800048828125</ele>
        <time>2026-06-15T11:10:48.000Z</time>
        <extensions>
          <ns3:TrackPointExtension>
            <ns3:atemp>15.0</ns3:atemp>
          </ns3:TrackPointExtension>
        </extensions>
      </trkpt>
      <trkpt lat="42.56356154568493366241455078125" lon="20.0546241737902164459228515625">
        <ele>2075.800048828125</ele>
        <time>2026-06-15T11:10:49.000Z</time>
        <extensions>
          <ns3:TrackPointExtension>
            <ns3:atemp>15.0</ns3:atemp>
          </ns3:TrackPointExtension>
        </extensions>
      </trkpt>
      <trkpt lat="42.56356154568493366241455078125" lon="20.0546241737902164459228515625">
        <ele>2075.800048828125</ele>
        <time>2026-06-15T11:10:50.000Z</time>
        <extensions>
          <ns3:TrackPointExtension>
            <ns3:atemp>15.0</ns3:atemp>
          </ns3:TrackPointExtension>
        </extensions>
      </trkpt>
      <trkpt lat="42.56356154568493366241455078125" lon="20.0546241737902164459228515625">
        <ele>2075.800048828125</ele>
        <time>2026-06-15T11:10:51.000Z</time>
        <extensions>
          <ns3:TrackPointExtension>
            <ns3:atemp>15.0</ns3:atemp>
          </ns3:TrackPointExtension>
        </extensions>
      </trkpt>
      <trkpt lat="42.56356154568493366241455078125" lon="20.0546241737902164459228515625">
        <ele>2075.800048828125</ele>
        <time>2026-06-15T11:10:52.000Z</time>
        <extensions>
          <ns3:TrackPointExtension>
            <ns3:atemp>15.0</ns3:atemp>
          </ns3:TrackPointExtension>
        </extensions>
      </trkpt>
      <trkpt lat="42.56356154568493366241455078125" lon="20.0546241737902164459228515625">
        <ele>2076</ele>
        <time>2026-06-15T11:10:53.000Z</time>
        <extensions>
          <ns3:TrackPointExtension>
            <ns3:atemp>15.0</ns3:atemp>
          </ns3:TrackPointExtension>
        </extensions>
      </trkpt>
      <trkpt lat="42.56356154568493366241455078125" lon="20.0546241737902164459228515625">
        <ele>2076</ele>
        <time>2026-06-15T11:10:54.000Z</time>
        <extensions>
          <ns3:TrackPointExtension>
            <ns3:atemp>15.0</ns3:atemp>
          </ns3:TrackPointExtension>
        </extensions>
      </trkpt>
      <trkpt lat="42.56356154568493366241455078125" lon="20.0546241737902164459228515625">
        <ele>2076</ele>
        <time>2026-06-15T11:10:55.000Z</time>
        <extensions>
          <ns3:TrackPointExtension>
            <ns3:atemp>15.0</ns3:atemp>
          </ns3:TrackPointExtension>
        </extensions>
      </trkpt>
      <trkpt lat="42.56356154568493366241455078125" lon="20.0546241737902164459228515625">
        <ele>2076</ele>
        <time>2026-06-15T11:10:56.000Z</time>
        <extensions>
          <ns3:TrackPointExtension>
            <ns3:atemp>15.0</ns3:atemp>
          </ns3:TrackPointExtension>
        </extensions>
      </trkpt>
      <trkpt lat="42.56356154568493366241455078125" lon="20.0546241737902164459228515625">
        <ele>2076</ele>
        <time>2026-06-15T11:10:57.000Z</time>
        <extensions>
          <ns3:TrackPointExtension>
            <ns3:atemp>15.0</ns3:atemp>
          </ns3:TrackPointExtension>
        </extensions>
      </trkpt>
      <trkpt lat="42.56356154568493366241455078125" lon="20.0546241737902164459228515625">
        <ele>2076</ele>
        <time>2026-06-15T11:10:58.000Z</time>
        <extensions>
          <ns3:TrackPointExtension>
            <ns3:atemp>15.0</ns3:atemp>
          </ns3:TrackPointExtension>
        </extensions>
      </trkpt>
      <trkpt lat="42.56356154568493366241455078125" lon="20.0546241737902164459228515625">
        <ele>2076</ele>
        <time>2026-06-15T11:10:59.000Z</time>
        <extensions>
          <ns3:TrackPointExtension>
            <ns3:atemp>15.0</ns3:atemp>
          </ns3:TrackPointExtension>
        </extensions>
      </trkpt>
      <trkpt lat="42.56356154568493366241455078125" lon="20.0546241737902164459228515625">
        <ele>2076</ele>
        <time>2026-06-15T11:11:00.000Z</time>
        <extensions>
          <ns3:TrackPointExtension>
            <ns3:atemp>15.0</ns3:atemp>
          </ns3:TrackPointExtension>
        </extensions>
      </trkpt>
      <trkpt lat="42.56356154568493366241455078125" lon="20.0546241737902164459228515625">
        <ele>2076</ele>
        <time>2026-06-15T11:11:01.000Z</time>
        <extensions>
          <ns3:TrackPointExtension>
            <ns3:atemp>15.0</ns3:atemp>
          </ns3:TrackPointExtension>
        </extensions>
      </trkpt>
      <trkpt lat="42.56356154568493366241455078125" lon="20.0546241737902164459228515625">
        <ele>2076</ele>
        <time>2026-06-15T11:11:02.000Z</time>
        <extensions>
          <ns3:TrackPointExtension>
            <ns3:atemp>15.0</ns3:atemp>
          </ns3:TrackPointExtension>
        </extensions>
      </trkpt>
      <trkpt lat="42.56356154568493366241455078125" lon="20.0546241737902164459228515625">
        <ele>2076</ele>
        <time>2026-06-15T11:11:03.000Z</time>
        <extensions>
          <ns3:TrackPointExtension>
            <ns3:atemp>15.0</ns3:atemp>
          </ns3:TrackPointExtension>
        </extensions>
      </trkpt>
      <trkpt lat="42.56356154568493366241455078125" lon="20.0546241737902164459228515625">
        <ele>2076</ele>
        <time>2026-06-15T11:11:04.000Z</time>
        <extensions>
          <ns3:TrackPointExtension>
            <ns3:atemp>15.0</ns3:atemp>
          </ns3:TrackPointExtension>
        </extensions>
      </trkpt>
      <trkpt lat="42.56356154568493366241455078125" lon="20.0546241737902164459228515625">
        <ele>2076</ele>
        <time>2026-06-15T11:11:05.000Z</time>
        <extensions>
          <ns3:TrackPointExtension>
            <ns3:atemp>15.0</ns3:atemp>
          </ns3:TrackPointExtension>
        </extensions>
      </trkpt>
      <trkpt lat="42.56356154568493366241455078125" lon="20.0546241737902164459228515625">
        <ele>2076</ele>
        <time>2026-06-15T11:11:06.000Z</time>
        <extensions>
          <ns3:TrackPointExtension>
            <ns3:atemp>15.0</ns3:atemp>
          </ns3:TrackPointExtension>
        </extensions>
      </trkpt>
      <trkpt lat="42.56356154568493366241455078125" lon="20.0546241737902164459228515625">
        <ele>2076</ele>
        <time>2026-06-15T11:11:07.000Z</time>
        <extensions>
          <ns3:TrackPointExtension>
            <ns3:atemp>15.0</ns3:atemp>
          </ns3:TrackPointExtension>
        </extensions>
      </trkpt>
      <trkpt lat="42.56356154568493366241455078125" lon="20.0546241737902164459228515625">
        <ele>2076</ele>
        <time>2026-06-15T11:11:08.000Z</time>
        <extensions>
          <ns3:TrackPointExtension>
            <ns3:atemp>15.0</ns3:atemp>
          </ns3:TrackPointExtension>
        </extensions>
      </trkpt>
      <trkpt lat="42.56356154568493366241455078125" lon="20.0546241737902164459228515625">
        <ele>2076</ele>
        <time>2026-06-15T11:11:09.000Z</time>
        <extensions>
          <ns3:TrackPointExtension>
            <ns3:atemp>15.0</ns3:atemp>
          </ns3:TrackPointExtension>
        </extensions>
      </trkpt>
      <trkpt lat="42.56356154568493366241455078125" lon="20.0546241737902164459228515625">
        <ele>2076</ele>
        <time>2026-06-15T11:11:10.000Z</time>
        <extensions>
          <ns3:TrackPointExtension>
            <ns3:atemp>15.0</ns3:atemp>
          </ns3:TrackPointExtension>
        </extensions>
      </trkpt>
      <trkpt lat="42.56356154568493366241455078125" lon="20.0546241737902164459228515625">
        <ele>2076</ele>
        <time>2026-06-15T11:11:11.000Z</time>
        <extensions>
          <ns3:TrackPointExtension>
            <ns3:atemp>15.0</ns3:atemp>
          </ns3:TrackPointExtension>
        </extensions>
      </trkpt>
      <trkpt lat="42.56356154568493366241455078125" lon="20.0546241737902164459228515625">
        <ele>2076</ele>
        <time>2026-06-15T11:11:12.000Z</time>
        <extensions>
          <ns3:TrackPointExtension>
            <ns3:atemp>15.0</ns3:atemp>
          </ns3:TrackPointExtension>
        </extensions>
      </trkpt>
      <trkpt lat="42.56356154568493366241455078125" lon="20.0546241737902164459228515625">
        <ele>2076</ele>
        <time>2026-06-15T11:11:13.000Z</time>
        <extensions>
          <ns3:TrackPointExtension>
            <ns3:atemp>15.0</ns3:atemp>
          </ns3:TrackPointExtension>
        </extensions>
      </trkpt>
      <trkpt lat="42.56356372497975826263427734375" lon="20.05462056957185268402099609375">
        <ele>2076</ele>
        <time>2026-06-15T11:11:14.000Z</time>
        <extensions>
          <ns3:TrackPointExtension>
            <ns3:atemp>15.0</ns3:atemp>
          </ns3:TrackPointExtension>
        </extensions>
      </trkpt>
      <trkpt lat="42.56357328034937381744384765625" lon="20.05461285822093486785888671875">
        <ele>2076</ele>
        <time>2026-06-15T11:11:15.000Z</time>
        <extensions>
          <ns3:TrackPointExtension>
            <ns3:atemp>15.0</ns3:atemp>
          </ns3:TrackPointExtension>
        </extensions>
      </trkpt>
      <trkpt lat="42.5635733641684055328369140625" lon="20.0546127744019031524658203125">
        <ele>2076</ele>
        <time>2026-06-15T11:11:16.000Z</time>
        <extensions>
          <ns3:TrackPointExtension>
            <ns3:atemp>15.0</ns3:atemp>
          </ns3:TrackPointExtension>
        </extensions>
      </trkpt>
      <trkpt lat="42.5635736994445323944091796875" lon="20.05459559150040149688720703125">
        <ele>2076</ele>
        <time>2026-06-15T11:11:17.000Z</time>
        <extensions>
          <ns3:TrackPointExtension>
            <ns3:atemp>15.0</ns3:atemp>
          </ns3:TrackPointExtension>
        </extensions>
      </trkpt>
      <trkpt lat="42.56357344798743724822998046875" lon="20.05457614548504352569580078125">
        <ele>2076</ele>
        <time>2026-06-15T11:11:18.000Z</time>
        <extensions>
          <ns3:TrackPointExtension>
            <ns3:atemp>15.0</ns3:atemp>
          </ns3:TrackPointExtension>
        </extensions>
      </trkpt>
      <trkpt lat="42.5635757111012935638427734375" lon="20.05455133505165576934814453125">
        <ele>2075.60009765625</ele>
        <time>2026-06-15T11:11:19.000Z</time>
        <extensions>
          <ns3:TrackPointExtension>
            <ns3:atemp>15.0</ns3:atemp>
          </ns3:TrackPointExtension>
        </extensions>
      </trkpt>
      <trkpt lat="42.5635820813477039337158203125" lon="20.0545182265341281890869140625">
        <ele>2075.800048828125</ele>
        <time>2026-06-15T11:11:20.000Z</time>
        <extensions>
          <ns3:TrackPointExtension>
            <ns3:atemp>15.0</ns3:atemp>
          </ns3:TrackPointExtension>
        </extensions>
      </trkpt>
      <trkpt lat="42.56359373219311237335205078125" lon="20.05448193289339542388916015625">
        <ele>2076</ele>
        <time>2026-06-15T11:11:21.000Z</time>
        <extensions>
          <ns3:TrackPointExtension>
            <ns3:atemp>15.0</ns3:atemp>
          </ns3:TrackPointExtension>
        </extensions>
      </trkpt>
      <trkpt lat="42.56360747851431369781494140625" lon="20.05443817935883998870849609375">
        <ele>2076</ele>
        <time>2026-06-15T11:11:22.000Z</time>
        <extensions>
          <ns3:TrackPointExtension>
            <ns3:atemp>15.0</ns3:atemp>
          </ns3:TrackPointExtension>
        </extensions>
      </trkpt>
      <trkpt lat="42.56362122483551502227783203125" lon="20.05439828149974346160888671875">
        <ele>2076.199951171875</ele>
        <time>2026-06-15T11:11:23.000Z</time>
        <extensions>
          <ns3:TrackPointExtension>
            <ns3:atemp>15.0</ns3:atemp>
          </ns3:TrackPointExtension>
        </extensions>
      </trkpt>
      <trkpt lat="42.5636436045169830322265625" lon="20.054361820220947265625">
        <ele>2076.39990234375</ele>
        <time>2026-06-15T11:11:24.000Z</time>
        <extensions>
          <ns3:TrackPointExtension>
            <ns3:atemp>15.0</ns3:atemp>
          </ns3:TrackPointExtension>
        </extensions>
      </trkpt>
      <trkpt lat="42.56367067806422710418701171875" lon="20.05433524958789348602294921875">
        <ele>2076.39990234375</ele>
        <time>2026-06-15T11:11:25.000Z</time>
        <extensions>
          <ns3:TrackPointExtension>
            <ns3:atemp>15.0</ns3:atemp>
          </ns3:TrackPointExtension>
        </extensions>
      </trkpt>
      <trkpt lat="42.563701607286930084228515625" lon="20.0543070025742053985595703125">
        <ele>2076.60009765625</ele>
        <time>2026-06-15T11:11:26.000Z</time>
        <extensions>
          <ns3:TrackPointExtension>
            <ns3:atemp>15.0</ns3:atemp>
          </ns3:TrackPointExtension>
        </extensions>
      </trkpt>
      <trkpt lat="42.56373186595737934112548828125" lon="20.05427842028439044952392578125">
        <ele>2076.800048828125</ele>
        <time>2026-06-15T11:11:27.000Z</time>
        <extensions>
          <ns3:TrackPointExtension>
            <ns3:atemp>15.0</ns3:atemp>
          </ns3:TrackPointExtension>
        </extensions>
      </trkpt>
      <trkpt lat="42.5637624599039554595947265625" lon="20.05425008945167064666748046875">
        <ele>2076.800048828125</ele>
        <time>2026-06-15T11:11:28.000Z</time>
        <extensions>
          <ns3:TrackPointExtension>
            <ns3:atemp>15.0</ns3:atemp>
          </ns3:TrackPointExtension>
        </extensions>
      </trkpt>
      <trkpt lat="42.56379338912665843963623046875" lon="20.0542201660573482513427734375">
        <ele>2076.800048828125</ele>
        <time>2026-06-15T11:11:29.000Z</time>
        <extensions>
          <ns3:TrackPointExtension>
            <ns3:atemp>15.0</ns3:atemp>
          </ns3:TrackPointExtension>
        </extensions>
      </trkpt>
      <trkpt lat="42.5638254918158054351806640625" lon="20.05419091321527957916259765625">
        <ele>2077</ele>
        <time>2026-06-15T11:11:30.000Z</time>
        <extensions>
          <ns3:TrackPointExtension>
            <ns3:atemp>15.0</ns3:atemp>
          </ns3:TrackPointExtension>
        </extensions>
      </trkpt>
      <trkpt lat="42.56386019289493560791015625" lon="20.05416761152446269989013671875">
        <ele>2077.199951171875</ele>
        <time>2026-06-15T11:11:31.000Z</time>
        <extensions>
          <ns3:TrackPointExtension>
            <ns3:atemp>15.0</ns3:atemp>
          </ns3:TrackPointExtension>
        </extensions>
      </trkpt>
      <trkpt lat="42.56389506161212921142578125" lon="20.0541417114436626434326171875">
        <ele>2077.199951171875</ele>
        <time>2026-06-15T11:11:32.000Z</time>
        <extensions>
          <ns3:TrackPointExtension>
            <ns3:atemp>15.0</ns3:atemp>
          </ns3:TrackPointExtension>
        </extensions>
      </trkpt>
      <trkpt lat="42.5639274157583713531494140625" lon="20.05411664955317974090576171875">
        <ele>2077.39990234375</ele>
        <time>2026-06-15T11:11:33.000Z</time>
        <extensions>
          <ns3:TrackPointExtension>
            <ns3:atemp>15.0</ns3:atemp>
          </ns3:TrackPointExtension>
        </extensions>
      </trkpt>
      <trkpt lat="42.56396220065653324127197265625" lon="20.05409737117588520050048828125">
        <ele>2077.60009765625</ele>
        <time>2026-06-15T11:11:34.000Z</time>
        <extensions>
          <ns3:TrackPointExtension>
            <ns3:atemp>15.0</ns3:atemp>
          </ns3:TrackPointExtension>
        </extensions>
      </trkpt>
      <trkpt lat="42.56399421952664852142333984375" lon="20.05408429540693759918212890625">
        <ele>2077.800048828125</ele>
        <time>2026-06-15T11:11:35.000Z</time>
        <extensions>
          <ns3:TrackPointExtension>
            <ns3:atemp>15.0</ns3:atemp>
          </ns3:TrackPointExtension>
        </extensions>
      </trkpt>
      <trkpt lat="42.56402154453098773956298828125" lon="20.05407658405601978302001953125">
        <ele>2078.199951171875</ele>
        <time>2026-06-15T11:11:36.000Z</time>
        <extensions>
          <ns3:TrackPointExtension>
            <ns3:atemp>15.0</ns3:atemp>
          </ns3:TrackPointExtension>
        </extensions>
      </trkpt>
      <trkpt lat="42.56404954008758068084716796875" lon="20.0540723092854022979736328125">
        <ele>2078.39990234375</ele>
        <time>2026-06-15T11:11:37.000Z</time>
        <extensions>
          <ns3:TrackPointExtension>
            <ns3:atemp>15.0</ns3:atemp>
          </ns3:TrackPointExtension>
        </extensions>
      </trkpt>
      <trkpt lat="42.56407099775969982147216796875" lon="20.05407172255218029022216796875">
        <ele>2078.800048828125</ele>
        <time>2026-06-15T11:11:38.000Z</time>
        <extensions>
          <ns3:TrackPointExtension>
            <ns3:atemp>15.0</ns3:atemp>
          </ns3:TrackPointExtension>
        </extensions>
      </trkpt>
      <trkpt lat="42.56409513764083385467529296875" lon="20.054073147475719451904296875">
        <ele>2079.199951171875</ele>
        <time>2026-06-15T11:11:39.000Z</time>
        <extensions>
          <ns3:TrackPointExtension>
            <ns3:atemp>15.0</ns3:atemp>
          </ns3:TrackPointExtension>
        </extensions>
      </trkpt>
      <trkpt lat="42.5641222111880779266357421875" lon="20.0540763325989246368408203125">
        <ele>2079.60009765625</ele>
        <time>2026-06-15T11:11:40.000Z</time>
        <extensions>
          <ns3:TrackPointExtension>
            <ns3:atemp>15.0</ns3:atemp>
          </ns3:TrackPointExtension>
        </extensions>
      </trkpt>
      <trkpt lat="42.56415297277271747589111328125" lon="20.054089911282062530517578125">
        <ele>2080</ele>
        <time>2026-06-15T11:11:41.000Z</time>
        <extensions>
          <ns3:TrackPointExtension>
            <ns3:atemp>15.0</ns3:atemp>
          </ns3:TrackPointExtension>
        </extensions>
      </trkpt>
      <trkpt lat="42.564181052148342132568359375" lon="20.05410290323197841644287109375">
        <ele>2080.39990234375</ele>
        <time>2026-06-15T11:11:42.000Z</time>
        <extensions>
          <ns3:TrackPointExtension>
            <ns3:atemp>15.0</ns3:atemp>
          </ns3:TrackPointExtension>
        </extensions>
      </trkpt>
      <trkpt lat="42.5642077066004276275634765625" lon="20.054110027849674224853515625">
        <ele>2080.60009765625</ele>
        <time>2026-06-15T11:11:43.000Z</time>
        <extensions>
          <ns3:TrackPointExtension>
            <ns3:atemp>15.0</ns3:atemp>
          </ns3:TrackPointExtension>
        </extensions>
      </trkpt>
      <trkpt lat="42.56423796527087688446044921875" lon="20.0541145540773868560791015625">
        <ele>2080.800048828125</ele>
        <time>2026-06-15T11:11:44.000Z</time>
        <extensions>
          <ns3:TrackPointExtension>
            <ns3:atemp>15.0</ns3:atemp>
          </ns3:TrackPointExtension>
        </extensions>
      </trkpt>
      <trkpt lat="42.5642647035419940948486328125" lon="20.05411170423030853271484375">
        <ele>2081</ele>
        <time>2026-06-15T11:11:45.000Z</time>
        <extensions>
          <ns3:TrackPointExtension>
            <ns3:atemp>15.0</ns3:atemp>
          </ns3:TrackPointExtension>
        </extensions>
      </trkpt>
      <trkpt lat="42.5642898492515087127685546875" lon="20.05409904755651950836181640625">
        <ele>2081.199951171875</ele>
        <time>2026-06-15T11:11:46.000Z</time>
        <extensions>
          <ns3:TrackPointExtension>
            <ns3:atemp>15.0</ns3:atemp>
          </ns3:TrackPointExtension>
        </extensions>
      </trkpt>
      <trkpt lat="42.564315497875213623046875" lon="20.0540800206363201141357421875">
        <ele>2081.60009765625</ele>
        <time>2026-06-15T11:11:47.000Z</time>
        <extensions>
          <ns3:TrackPointExtension>
            <ns3:atemp>15.0</ns3:atemp>
          </ns3:TrackPointExtension>
        </extensions>
      </trkpt>
      <trkpt lat="42.56434257142245769500732421875" lon="20.0540793500840663909912109375">
        <ele>2082</ele>
        <time>2026-06-15T11:11:48.000Z</time>
        <extensions>
          <ns3:TrackPointExtension>
            <ns3:atemp>15.0</ns3:atemp>
          </ns3:TrackPointExtension>
        </extensions>
      </trkpt>
      <trkpt lat="42.5643676333129405975341796875" lon="20.0540716387331485748291015625">
        <ele>2082.199951171875</ele>
        <time>2026-06-15T11:11:49.000Z</time>
        <extensions>
          <ns3:TrackPointExtension>
            <ns3:atemp>15.0</ns3:atemp>
          </ns3:TrackPointExtension>
        </extensions>
      </trkpt>
      <trkpt lat="42.5643947906792163848876953125" lon="20.05407356657087802886962890625">
        <ele>2082.39990234375</ele>
        <time>2026-06-15T11:11:50.000Z</time>
        <extensions>
          <ns3:TrackPointExtension>
            <ns3:atemp>15.0</ns3:atemp>
          </ns3:TrackPointExtension>
        </extensions>
      </trkpt>
      <trkpt lat="42.56442454643547534942626953125" lon="20.05408697761595249176025390625">
        <ele>2082.60009765625</ele>
        <time>2026-06-15T11:11:51.000Z</time>
        <extensions>
          <ns3:TrackPointExtension>
            <ns3:atemp>15.0</ns3:atemp>
          </ns3:TrackPointExtension>
        </extensions>
      </trkpt>
      <trkpt lat="42.56445069797337055206298828125" lon="20.05409971810877323150634765625">
        <ele>2082.800048828125</ele>
        <time>2026-06-15T11:11:52.000Z</time>
        <extensions>
          <ns3:TrackPointExtension>
            <ns3:atemp>15.0</ns3:atemp>
          </ns3:TrackPointExtension>
        </extensions>
      </trkpt>
      <trkpt lat="42.56447668187320232391357421875" lon="20.0541137158870697021484375">
        <ele>2082.800048828125</ele>
        <time>2026-06-15T11:11:53.000Z</time>
        <extensions>
          <ns3:TrackPointExtension>
            <ns3:atemp>15.0</ns3:atemp>
          </ns3:TrackPointExtension>
        </extensions>
      </trkpt>
      <trkpt lat="42.56450668908655643463134765625" lon="20.0541232712566852569580078125">
        <ele>2083</ele>
        <time>2026-06-15T11:11:54.000Z</time>
        <extensions>
          <ns3:TrackPointExtension>
            <ns3:atemp>15.0</ns3:atemp>
          </ns3:TrackPointExtension>
        </extensions>
      </trkpt>
      <trkpt lat="42.56453401409089565277099609375" lon="20.05412042140960693359375">
        <ele>2083.199951171875</ele>
        <time>2026-06-15T11:11:55.000Z</time>
        <extensions>
          <ns3:TrackPointExtension>
            <ns3:atemp>15.0</ns3:atemp>
          </ns3:TrackPointExtension>
        </extensions>
      </trkpt>
      <trkpt lat="42.56455698050558567047119140625" lon="20.05410910584032535552978515625">
        <ele>2083.39990234375</ele>
        <time>2026-06-15T11:11:56.000Z</time>
        <extensions>
          <ns3:TrackPointExtension>
            <ns3:atemp>15.0</ns3:atemp>
          </ns3:TrackPointExtension>
        </extensions>
      </trkpt>
      <trkpt lat="42.56458028219640254974365234375" lon="20.05410231649875640869140625">
        <ele>2083.60009765625</ele>
        <time>2026-06-15T11:11:57.000Z</time>
        <extensions>
          <ns3:TrackPointExtension>
            <ns3:atemp>15.0</ns3:atemp>
          </ns3:TrackPointExtension>
        </extensions>
      </trkpt>
      <trkpt lat="42.564604841172695159912109375" lon="20.054094605147838592529296875">
        <ele>2083.800048828125</ele>
        <time>2026-06-15T11:11:58.000Z</time>
        <extensions>
          <ns3:TrackPointExtension>
            <ns3:atemp>15.0</ns3:atemp>
          </ns3:TrackPointExtension>
        </extensions>
      </trkpt>
      <trkpt lat="42.56462973542511463165283203125" lon="20.0540887378156185150146484375">
        <ele>2084</ele>
        <time>2026-06-15T11:11:59.000Z</time>
        <extensions>
          <ns3:TrackPointExtension>
            <ns3:atemp>15.0</ns3:atemp>
          </ns3:TrackPointExtension>
        </extensions>
      </trkpt>
      <trkpt lat="42.5646522827446460723876953125" lon="20.05406987853348255157470703125">
        <ele>2084.199951171875</ele>
        <time>2026-06-15T11:12:00.000Z</time>
        <extensions>
          <ns3:TrackPointExtension>
            <ns3:atemp>15.0</ns3:atemp>
          </ns3:TrackPointExtension>
        </extensions>
      </trkpt>
      <trkpt lat="42.56467466242611408233642578125" lon="20.05405076779425144195556640625">
        <ele>2084.39990234375</ele>
        <time>2026-06-15T11:12:01.000Z</time>
        <extensions>
          <ns3:TrackPointExtension>
            <ns3:atemp>15.0</ns3:atemp>
          </ns3:TrackPointExtension>
        </extensions>
      </trkpt>
      <trkpt lat="42.56470508873462677001953125" lon="20.054036937654018402099609375">
        <ele>2084.60009765625</ele>
        <time>2026-06-15T11:12:02.000Z</time>
        <extensions>
          <ns3:TrackPointExtension>
            <ns3:atemp>15.0</ns3:atemp>
          </ns3:TrackPointExtension>
        </extensions>
      </trkpt>
      <trkpt lat="42.56473853252828121185302734375" lon="20.0540277175605297088623046875">
        <ele>2084.800048828125</ele>
        <time>2026-06-15T11:12:03.000Z</time>
        <extensions>
          <ns3:TrackPointExtension>
            <ns3:atemp>15.0</ns3:atemp>
          </ns3:TrackPointExtension>
        </extensions>
      </trkpt>
      <trkpt lat="42.56477021612226963043212890625" lon="20.05400684662163257598876953125">
        <ele>2084.800048828125</ele>
        <time>2026-06-15T11:12:04.000Z</time>
        <extensions>
          <ns3:TrackPointExtension>
            <ns3:atemp>15.0</ns3:atemp>
          </ns3:TrackPointExtension>
        </extensions>
      </trkpt>
      <trkpt lat="42.56479561328887939453125" lon="20.05398253910243511199951171875">
        <ele>2084.800048828125</ele>
        <time>2026-06-15T11:12:05.000Z</time>
        <extensions>
          <ns3:TrackPointExtension>
            <ns3:atemp>15.0</ns3:atemp>
          </ns3:TrackPointExtension>
        </extensions>
      </trkpt>
      <trkpt lat="42.56481950171291828155517578125" lon="20.053956471383571624755859375">
        <ele>2084.800048828125</ele>
        <time>2026-06-15T11:12:06.000Z</time>
        <extensions>
          <ns3:TrackPointExtension>
            <ns3:atemp>15.0</ns3:atemp>
          </ns3:TrackPointExtension>
        </extensions>
      </trkpt>
      <trkpt lat="42.56484397687017917633056640625" lon="20.05392721854150295257568359375">
        <ele>2085</ele>
        <time>2026-06-15T11:12:07.000Z</time>
        <extensions>
          <ns3:TrackPointExtension>
            <ns3:atemp>15.0</ns3:atemp>
          </ns3:TrackPointExtension>
        </extensions>
      </trkpt>
      <trkpt lat="42.564868032932281494140625" lon="20.05389444530010223388671875">
        <ele>2085</ele>
        <time>2026-06-15T11:12:08.000Z</time>
        <extensions>
          <ns3:TrackPointExtension>
            <ns3:atemp>15.0</ns3:atemp>
          </ns3:TrackPointExtension>
        </extensions>
      </trkpt>
      <trkpt lat="42.5648973695933818817138671875" lon="20.0538724847137928009033203125">
        <ele>2085.199951171875</ele>
        <time>2026-06-15T11:12:09.000Z</time>
        <extensions>
          <ns3:TrackPointExtension>
            <ns3:atemp>15.0</ns3:atemp>
          </ns3:TrackPointExtension>
        </extensions>
      </trkpt>
      <trkpt lat="42.5649339146912097930908203125" lon="20.05385228432714939117431640625">
        <ele>2085.39990234375</ele>
        <time>2026-06-15T11:12:10.000Z</time>
        <extensions>
          <ns3:TrackPointExtension>
            <ns3:atemp>15.0</ns3:atemp>
          </ns3:TrackPointExtension>
        </extensions>
      </trkpt>
      <trkpt lat="42.56496853195130825042724609375" lon="20.05385278724133968353271484375">
        <ele>2085.39990234375</ele>
        <time>2026-06-15T11:12:11.000Z</time>
        <extensions>
          <ns3:TrackPointExtension>
            <ns3:atemp>15.0</ns3:atemp>
          </ns3:TrackPointExtension>
        </extensions>
      </trkpt>
      <trkpt lat="42.56500147283077239990234375" lon="20.0538604147732257843017578125">
        <ele>2085.60009765625</ele>
        <time>2026-06-15T11:12:12.000Z</time>
        <extensions>
          <ns3:TrackPointExtension>
            <ns3:atemp>15.0</ns3:atemp>
          </ns3:TrackPointExtension>
        </extensions>
      </trkpt>
      <trkpt lat="42.5650338269770145416259765625" lon="20.05387030541896820068359375">
        <ele>2085.800048828125</ele>
        <time>2026-06-15T11:12:13.000Z</time>
        <extensions>
          <ns3:TrackPointExtension>
            <ns3:atemp>15.0</ns3:atemp>
          </ns3:TrackPointExtension>
        </extensions>
      </trkpt>
      <trkpt lat="42.56506240926682949066162109375" lon="20.05387927405536174774169921875">
        <ele>2086</ele>
        <time>2026-06-15T11:12:14.000Z</time>
        <extensions>
          <ns3:TrackPointExtension>
            <ns3:atemp>15.0</ns3:atemp>
          </ns3:TrackPointExtension>
        </extensions>
      </trkpt>
      <trkpt lat="42.56508571095764636993408203125" lon="20.053886733949184417724609375">
        <ele>2086.199951171875</ele>
        <time>2026-06-15T11:12:15.000Z</time>
        <extensions>
          <ns3:TrackPointExtension>
            <ns3:atemp>15.0</ns3:atemp>
          </ns3:TrackPointExtension>
        </extensions>
      </trkpt>
      <trkpt lat="42.565109767019748687744140625" lon="20.0538922660052776336669921875">
        <ele>2086.39990234375</ele>
        <time>2026-06-15T11:12:16.000Z</time>
        <extensions>
          <ns3:TrackPointExtension>
            <ns3:atemp>15.0</ns3:atemp>
          </ns3:TrackPointExtension>
        </extensions>
      </trkpt>
      <trkpt lat="42.565135918557643890380859375" lon="20.05389503203332424163818359375">
        <ele>2086.60009765625</ele>
        <time>2026-06-15T11:12:17.000Z</time>
        <extensions>
          <ns3:TrackPointExtension>
            <ns3:atemp>15.0</ns3:atemp>
          </ns3:TrackPointExtension>
        </extensions>
      </trkpt>
      <trkpt lat="42.56515880115330219268798828125" lon="20.0538952834904193878173828125">
        <ele>2086.800048828125</ele>
        <time>2026-06-15T11:12:18.000Z</time>
        <extensions>
          <ns3:TrackPointExtension>
            <ns3:atemp>15.0</ns3:atemp>
          </ns3:TrackPointExtension>
        </extensions>
      </trkpt>
      <trkpt lat="42.56518361158668994903564453125" lon="20.05389167927205562591552734375">
        <ele>2087</ele>
        <time>2026-06-15T11:12:19.000Z</time>
        <extensions>
          <ns3:TrackPointExtension>
            <ns3:atemp>15.0</ns3:atemp>
          </ns3:TrackPointExtension>
        </extensions>
      </trkpt>
      <trkpt lat="42.5652071647346019744873046875" lon="20.05389335565268993377685546875">
        <ele>2087.39990234375</ele>
        <time>2026-06-15T11:12:20.000Z</time>
        <extensions>
          <ns3:TrackPointExtension>
            <ns3:atemp>15.0</ns3:atemp>
          </ns3:TrackPointExtension>
        </extensions>
      </trkpt>
      <trkpt lat="42.56523155607283115386962890625" lon="20.05390249192714691162109375">
        <ele>2087.800048828125</ele>
        <time>2026-06-15T11:12:21.000Z</time>
        <extensions>
          <ns3:TrackPointExtension>
            <ns3:atemp>15.0</ns3:atemp>
          </ns3:TrackPointExtension>
        </extensions>
      </trkpt>
      <trkpt lat="42.56525452248752117156982421875" lon="20.05391129292547702789306640625">
        <ele>2088.199951171875</ele>
        <time>2026-06-15T11:12:22.000Z</time>
        <extensions>
          <ns3:TrackPointExtension>
            <ns3:atemp>15.0</ns3:atemp>
          </ns3:TrackPointExtension>
        </extensions>
      </trkpt>
      <trkpt lat="42.5652779079973697662353515625" lon="20.0539231114089488983154296875">
        <ele>2088.60009765625</ele>
        <time>2026-06-15T11:12:23.000Z</time>
        <extensions>
          <ns3:TrackPointExtension>
            <ns3:atemp>15.0</ns3:atemp>
          </ns3:TrackPointExtension>
        </extensions>
      </trkpt>
      <trkpt lat="42.56529928185045719146728515625" lon="20.05393224768340587615966796875">
        <ele>2089</ele>
        <time>2026-06-15T11:12:24.000Z</time>
        <extensions>
          <ns3:TrackPointExtension>
            <ns3:atemp>15.0</ns3:atemp>
          </ns3:TrackPointExtension>
        </extensions>
      </trkpt>
      <trkpt lat="42.56531788967549800872802734375" lon="20.053945071995258331298828125">
        <ele>2089.39990234375</ele>
        <time>2026-06-15T11:12:25.000Z</time>
        <extensions>
          <ns3:TrackPointExtension>
            <ns3:atemp>15.0</ns3:atemp>
          </ns3:TrackPointExtension>
        </extensions>
      </trkpt>
      <trkpt lat="42.5653399340808391571044921875" lon="20.05396074615418910980224609375">
        <ele>2089.800048828125</ele>
        <time>2026-06-15T11:12:26.000Z</time>
        <extensions>
          <ns3:TrackPointExtension>
            <ns3:atemp>15.0</ns3:atemp>
          </ns3:TrackPointExtension>
        </extensions>
      </trkpt>
      <trkpt lat="42.5653617270290851593017578125" lon="20.0539774261415004730224609375">
        <ele>2090.199951171875</ele>
        <time>2026-06-15T11:12:27.000Z</time>
        <extensions>
          <ns3:TrackPointExtension>
            <ns3:atemp>15.0</ns3:atemp>
          </ns3:TrackPointExtension>
        </extensions>
      </trkpt>
      <trkpt lat="42.56538611836731433868408203125" lon="20.05399511195719242095947265625">
        <ele>2090.39990234375</ele>
        <time>2026-06-15T11:12:28.000Z</time>
        <extensions>
          <ns3:TrackPointExtension>
            <ns3:atemp>15.0</ns3:atemp>
          </ns3:TrackPointExtension>
        </extensions>
      </trkpt>
      <trkpt lat="42.56540992297232151031494140625" lon="20.0540159828960895538330078125">
        <ele>2090.800048828125</ele>
        <time>2026-06-15T11:12:29.000Z</time>
        <extensions>
          <ns3:TrackPointExtension>
            <ns3:atemp>15.0</ns3:atemp>
          </ns3:TrackPointExtension>
        </extensions>
      </trkpt>
      <trkpt lat="42.56543733179569244384765625" lon="20.05403467454016208648681640625">
        <ele>2091</ele>
        <time>2026-06-15T11:12:30.000Z</time>
        <extensions>
          <ns3:TrackPointExtension>
            <ns3:atemp>15.0</ns3:atemp>
          </ns3:TrackPointExtension>
        </extensions>
      </trkpt>
      <trkpt lat="42.565464489161968231201171875" lon="20.05404875613749027252197265625">
        <ele>2091.39990234375</ele>
        <time>2026-06-15T11:12:31.000Z</time>
        <extensions>
          <ns3:TrackPointExtension>
            <ns3:atemp>15.0</ns3:atemp>
          </ns3:TrackPointExtension>
        </extensions>
      </trkpt>
      <trkpt lat="42.56549273617565631866455078125" lon="20.0540588982403278350830078125">
        <ele>2091.60009765625</ele>
        <time>2026-06-15T11:12:32.000Z</time>
        <extensions>
          <ns3:TrackPointExtension>
            <ns3:atemp>15.0</ns3:atemp>
          </ns3:TrackPointExtension>
        </extensions>
      </trkpt>
      <trkpt lat="42.56552073173224925994873046875" lon="20.05406149663031101226806640625">
        <ele>2091.800048828125</ele>
        <time>2026-06-15T11:12:33.000Z</time>
        <extensions>
          <ns3:TrackPointExtension>
            <ns3:atemp>15.0</ns3:atemp>
          </ns3:TrackPointExtension>
        </extensions>
      </trkpt>
      <trkpt lat="42.5655484758317470550537109375" lon="20.054055713117122650146484375">
        <ele>2092.199951171875</ele>
        <time>2026-06-15T11:12:34.000Z</time>
        <extensions>
          <ns3:TrackPointExtension>
            <ns3:atemp>15.0</ns3:atemp>
          </ns3:TrackPointExtension>
        </extensions>
      </trkpt>
      <trkpt lat="42.5655732862651348114013671875" lon="20.054040290415287017822265625">
        <ele>2092.39990234375</ele>
        <time>2026-06-15T11:12:35.000Z</time>
        <extensions>
          <ns3:TrackPointExtension>
            <ns3:atemp>15.0</ns3:atemp>
          </ns3:TrackPointExtension>
        </extensions>
      </trkpt>
      <trkpt lat="42.565599270164966583251953125" lon="20.05401640199124813079833984375">
        <ele>2092.39990234375</ele>
        <time>2026-06-15T11:12:36.000Z</time>
        <extensions>
          <ns3:TrackPointExtension>
            <ns3:atemp>15.0</ns3:atemp>
          </ns3:TrackPointExtension>
        </extensions>
      </trkpt>
      <trkpt lat="42.56561997346580028533935546875" lon="20.05398656241595745086669921875">
        <ele>2092.60009765625</ele>
        <time>2026-06-15T11:12:37.000Z</time>
        <extensions>
          <ns3:TrackPointExtension>
            <ns3:atemp>15.0</ns3:atemp>
          </ns3:TrackPointExtension>
        </extensions>
      </trkpt>
      <trkpt lat="42.5656346417963504791259765625" lon="20.05395823158323764801025390625">
        <ele>2092.60009765625</ele>
        <time>2026-06-15T11:12:38.000Z</time>
        <extensions>
          <ns3:TrackPointExtension>
            <ns3:atemp>15.0</ns3:atemp>
          </ns3:TrackPointExtension>
        </extensions>
      </trkpt>
      <trkpt lat="42.565648220479488372802734375" lon="20.05393727682530879974365234375">
        <ele>2092.800048828125</ele>
        <time>2026-06-15T11:12:39.000Z</time>
        <extensions>
          <ns3:TrackPointExtension>
            <ns3:atemp>15.0</ns3:atemp>
          </ns3:TrackPointExtension>
        </extensions>
      </trkpt>
      <trkpt lat="42.565660290420055389404296875" lon="20.05391129292547702789306640625">
        <ele>2093</ele>
        <time>2026-06-15T11:12:40.000Z</time>
        <extensions>
          <ns3:TrackPointExtension>
            <ns3:atemp>15.0</ns3:atemp>
          </ns3:TrackPointExtension>
        </extensions>
      </trkpt>
      <trkpt lat="42.5656742043793201446533203125" lon="20.053887404501438140869140625">
        <ele>2093.199951171875</ele>
        <time>2026-06-15T11:12:41.000Z</time>
        <extensions>
          <ns3:TrackPointExtension>
            <ns3:atemp>15.0</ns3:atemp>
          </ns3:TrackPointExtension>
        </extensions>
      </trkpt>
      <trkpt lat="42.5656933151185512542724609375" lon="20.053862594068050384521484375">
        <ele>2093.39990234375</ele>
        <time>2026-06-15T11:12:42.000Z</time>
        <extensions>
          <ns3:TrackPointExtension>
            <ns3:atemp>15.0</ns3:atemp>
          </ns3:TrackPointExtension>
        </extensions>
      </trkpt>
      <trkpt lat="42.56571183912456035614013671875" lon="20.05384004674851894378662109375">
        <ele>2093.60009765625</ele>
        <time>2026-06-15T11:12:43.000Z</time>
        <extensions>
          <ns3:TrackPointExtension>
            <ns3:atemp>15.0</ns3:atemp>
          </ns3:TrackPointExtension>
        </extensions>
      </trkpt>
      <trkpt lat="42.56573237478733062744140625" lon="20.053822696208953857421875">
        <ele>2093.60009765625</ele>
        <time>2026-06-15T11:12:44.000Z</time>
        <extensions>
          <ns3:TrackPointExtension>
            <ns3:atemp>15.0</ns3:atemp>
          </ns3:TrackPointExtension>
        </extensions>
      </trkpt>
      <trkpt lat="42.5657506473362445831298828125" lon="20.05380266346037387847900390625">
        <ele>2093.800048828125</ele>
        <time>2026-06-15T11:12:45.000Z</time>
        <extensions>
          <ns3:TrackPointExtension>
            <ns3:atemp>15.0</ns3:atemp>
          </ns3:TrackPointExtension>
        </extensions>
      </trkpt>
      <trkpt lat="42.5657690875232219696044921875" lon="20.0537869893014430999755859375">
        <ele>2094</ele>
        <time>2026-06-15T11:12:46.000Z</time>
        <extensions>
          <ns3:TrackPointExtension>
            <ns3:atemp>15.0</ns3:atemp>
          </ns3:TrackPointExtension>
        </extensions>
      </trkpt>
      <trkpt lat="42.5657868571579456329345703125" lon="20.05376762710511684417724609375">
        <ele>2094.39990234375</ele>
        <time>2026-06-15T11:12:47.000Z</time>
        <extensions>
          <ns3:TrackPointExtension>
            <ns3:atemp>15.0</ns3:atemp>
          </ns3:TrackPointExtension>
        </extensions>
      </trkpt>
      <trkpt lat="42.56580437533557415008544921875" lon="20.05374415777623653411865234375">
        <ele>2095</ele>
        <time>2026-06-15T11:12:48.000Z</time>
        <extensions>
          <ns3:TrackPointExtension>
            <ns3:atemp>15.0</ns3:atemp>
          </ns3:TrackPointExtension>
        </extensions>
      </trkpt>
      <trkpt lat="42.56582558155059814453125" lon="20.05372471176087856292724609375">
        <ele>2095.39990234375</ele>
        <time>2026-06-15T11:12:49.000Z</time>
        <extensions>
          <ns3:TrackPointExtension>
            <ns3:atemp>15.0</ns3:atemp>
          </ns3:TrackPointExtension>
        </extensions>
      </trkpt>
      <trkpt lat="42.56584829650819301605224609375" lon="20.0537108816206455230712890625">
        <ele>2095.60009765625</ele>
        <time>2026-06-15T11:12:50.000Z</time>
        <extensions>
          <ns3:TrackPointExtension>
            <ns3:atemp>15.0</ns3:atemp>
          </ns3:TrackPointExtension>
        </extensions>
      </trkpt>
      <trkpt lat="42.5658733583986759185791015625" lon="20.053702332079410552978515625">
        <ele>2095.800048828125</ele>
        <time>2026-06-15T11:12:51.000Z</time>
        <extensions>
          <ns3:TrackPointExtension>
            <ns3:atemp>15.0</ns3:atemp>
          </ns3:TrackPointExtension>
        </extensions>
      </trkpt>
      <trkpt lat="42.5658961571753025054931640625" lon="20.05369235761463642120361328125">
        <ele>2095.800048828125</ele>
        <time>2026-06-15T11:12:52.000Z</time>
        <extensions>
          <ns3:TrackPointExtension>
            <ns3:atemp>15.0</ns3:atemp>
          </ns3:TrackPointExtension>
        </extensions>
      </trkpt>
      <trkpt lat="42.565921135246753692626953125" lon="20.053687579929828643798828125">
        <ele>2096</ele>
        <time>2026-06-15T11:12:53.000Z</time>
        <extensions>
          <ns3:TrackPointExtension>
            <ns3:atemp>15.0</ns3:atemp>
          </ns3:TrackPointExtension>
        </extensions>
      </trkpt>
      <trkpt lat="42.5659424252808094024658203125" lon="20.053678862750530242919921875">
        <ele>2096.199951171875</ele>
        <time>2026-06-15T11:12:54.000Z</time>
        <extensions>
          <ns3:TrackPointExtension>
            <ns3:atemp>15.0</ns3:atemp>
          </ns3:TrackPointExtension>
        </extensions>
      </trkpt>
      <trkpt lat="42.56596547551453113555908203125" lon="20.053664781153202056884765625">
        <ele>2096.39990234375</ele>
        <time>2026-06-15T11:12:55.000Z</time>
        <extensions>
          <ns3:TrackPointExtension>
            <ns3:atemp>15.0</ns3:atemp>
          </ns3:TrackPointExtension>
        </extensions>
      </trkpt>
      <trkpt lat="42.565991543233394622802734375" lon="20.0536485202610492706298828125">
        <ele>2096.800048828125</ele>
        <time>2026-06-15T11:12:56.000Z</time>
        <extensions>
          <ns3:TrackPointExtension>
            <ns3:atemp>15.0</ns3:atemp>
          </ns3:TrackPointExtension>
        </extensions>
      </trkpt>
      <trkpt lat="42.56601442582905292510986328125" lon="20.05363133735954761505126953125">
        <ele>2097</ele>
        <time>2026-06-15T11:12:57.000Z</time>
        <extensions>
          <ns3:TrackPointExtension>
            <ns3:atemp>15.0</ns3:atemp>
          </ns3:TrackPointExtension>
        </extensions>
      </trkpt>
      <trkpt lat="42.5660393200814723968505859375" lon="20.05361490882933139801025390625">
        <ele>2097.199951171875</ele>
        <time>2026-06-15T11:12:58.000Z</time>
        <extensions>
          <ns3:TrackPointExtension>
            <ns3:atemp>15.0</ns3:atemp>
          </ns3:TrackPointExtension>
        </extensions>
      </trkpt>
      <trkpt lat="42.566065974533557891845703125" lon="20.053603090345859527587890625">
        <ele>2097.39990234375</ele>
        <time>2026-06-15T11:12:59.000Z</time>
        <extensions>
          <ns3:TrackPointExtension>
            <ns3:atemp>15.0</ns3:atemp>
          </ns3:TrackPointExtension>
        </extensions>
      </trkpt>
      <trkpt lat="42.5660884380340576171875" lon="20.053591690957546234130859375">
        <ele>2097.800048828125</ele>
        <time>2026-06-15T11:13:00.000Z</time>
        <extensions>
          <ns3:TrackPointExtension>
            <ns3:atemp>15.0</ns3:atemp>
          </ns3:TrackPointExtension>
        </extensions>
      </trkpt>
      <trkpt lat="42.56611282937228679656982421875" lon="20.05358976311981678009033203125">
        <ele>2098</ele>
        <time>2026-06-15T11:13:01.000Z</time>
        <extensions>
          <ns3:TrackPointExtension>
            <ns3:atemp>15.0</ns3:atemp>
          </ns3:TrackPointExtension>
        </extensions>
      </trkpt>
      <trkpt lat="42.56613847799599170684814453125" lon="20.05359596572816371917724609375">
        <ele>2098.39990234375</ele>
        <time>2026-06-15T11:13:02.000Z</time>
        <extensions>
          <ns3:TrackPointExtension>
            <ns3:atemp>15.0</ns3:atemp>
          </ns3:TrackPointExtension>
        </extensions>
      </trkpt>
      <trkpt lat="42.56616161204874515533447265625" lon="20.05360820330679416656494140625">
        <ele>2098.60009765625</ele>
        <time>2026-06-15T11:13:03.000Z</time>
        <extensions>
          <ns3:TrackPointExtension>
            <ns3:atemp>15.0</ns3:atemp>
          </ns3:TrackPointExtension>
        </extensions>
      </trkpt>
      <trkpt lat="42.5661861710250377655029296875" lon="20.053613483905792236328125">
        <ele>2098.800048828125</ele>
        <time>2026-06-15T11:13:04.000Z</time>
        <extensions>
          <ns3:TrackPointExtension>
            <ns3:atemp>15.0</ns3:atemp>
          </ns3:TrackPointExtension>
        </extensions>
      </trkpt>
      <trkpt lat="42.56621307693421840667724609375" lon="20.05362127907574176788330078125">
        <ele>2099.199951171875</ele>
        <time>2026-06-15T11:13:05.000Z</time>
        <extensions>
          <ns3:TrackPointExtension>
            <ns3:atemp>15.0</ns3:atemp>
          </ns3:TrackPointExtension>
        </extensions>
      </trkpt>
      <trkpt lat="42.56624040193855762481689453125" lon="20.053630582988262176513671875">
        <ele>2099.39990234375</ele>
        <time>2026-06-15T11:13:06.000Z</time>
        <extensions>
          <ns3:TrackPointExtension>
            <ns3:atemp>15.0</ns3:atemp>
          </ns3:TrackPointExtension>
        </extensions>
      </trkpt>
      <trkpt lat="42.5662708282470703125" lon="20.0536443293094635009765625">
        <ele>2099.60009765625</ele>
        <time>2026-06-15T11:13:07.000Z</time>
        <extensions>
          <ns3:TrackPointExtension>
            <ns3:atemp>15.0</ns3:atemp>
          </ns3:TrackPointExtension>
        </extensions>
      </trkpt>
      <trkpt lat="42.5662989914417266845703125" lon="20.0536592490971088409423828125">
        <ele>2099.800048828125</ele>
        <time>2026-06-15T11:13:08.000Z</time>
        <extensions>
          <ns3:TrackPointExtension>
            <ns3:atemp>15.0</ns3:atemp>
          </ns3:TrackPointExtension>
        </extensions>
      </trkpt>
      <trkpt lat="42.56632120348513126373291015625" lon="20.0536776892840862274169921875">
        <ele>2100</ele>
        <time>2026-06-15T11:13:09.000Z</time>
        <extensions>
          <ns3:TrackPointExtension>
            <ns3:atemp>15.0</ns3:atemp>
          </ns3:TrackPointExtension>
        </extensions>
      </trkpt>
      <trkpt lat="42.5663445889949798583984375" lon="20.05369604565203189849853515625">
        <ele>2100.199951171875</ele>
        <time>2026-06-15T11:13:10.000Z</time>
        <extensions>
          <ns3:TrackPointExtension>
            <ns3:atemp>15.0</ns3:atemp>
          </ns3:TrackPointExtension>
        </extensions>
      </trkpt>
      <trkpt lat="42.5663638673722743988037109375" lon="20.05372085608541965484619140625">
        <ele>2100.39990234375</ele>
        <time>2026-06-15T11:13:11.000Z</time>
        <extensions>
          <ns3:TrackPointExtension>
            <ns3:atemp>15.0</ns3:atemp>
          </ns3:TrackPointExtension>
        </extensions>
      </trkpt>
      <trkpt lat="42.566389180719852447509765625" lon="20.0537434034049510955810546875">
        <ele>2100.60009765625</ele>
        <time>2026-06-15T11:13:12.000Z</time>
        <extensions>
          <ns3:TrackPointExtension>
            <ns3:atemp>15.0</ns3:atemp>
          </ns3:TrackPointExtension>
        </extensions>
      </trkpt>
      <trkpt lat="42.56641575135290622711181640625" lon="20.05376963876187801361083984375">
        <ele>2100.800048828125</ele>
        <time>2026-06-15T11:13:13.000Z</time>
        <extensions>
          <ns3:TrackPointExtension>
            <ns3:atemp>15.0</ns3:atemp>
          </ns3:TrackPointExtension>
        </extensions>
      </trkpt>
      <trkpt lat="42.56644207052886486053466796875" lon="20.05380098707973957061767578125">
        <ele>2101</ele>
        <time>2026-06-15T11:13:14.000Z</time>
        <extensions>
          <ns3:TrackPointExtension>
            <ns3:atemp>15.0</ns3:atemp>
          </ns3:TrackPointExtension>
        </extensions>
      </trkpt>
      <trkpt lat="42.566470317542552947998046875" lon="20.05383233539760112762451171875">
        <ele>2101.199951171875</ele>
        <time>2026-06-15T11:13:15.000Z</time>
        <extensions>
          <ns3:TrackPointExtension>
            <ns3:atemp>15.0</ns3:atemp>
          </ns3:TrackPointExtension>
        </extensions>
      </trkpt>
      <trkpt lat="42.56649437360465526580810546875" lon="20.05385957658290863037109375">
        <ele>2101.199951171875</ele>
        <time>2026-06-15T11:13:16.000Z</time>
        <extensions>
          <ns3:TrackPointExtension>
            <ns3:atemp>15.0</ns3:atemp>
          </ns3:TrackPointExtension>
        </extensions>
      </trkpt>
      <trkpt lat="42.56651767529547214508056640625" lon="20.05389268510043621063232421875">
        <ele>2101.39990234375</ele>
        <time>2026-06-15T11:13:17.000Z</time>
        <extensions>
          <ns3:TrackPointExtension>
            <ns3:atemp>15.0</ns3:atemp>
          </ns3:TrackPointExtension>
        </extensions>
      </trkpt>
      <trkpt lat="42.56654215045273303985595703125" lon="20.05392805673182010650634765625">
        <ele>2101.60009765625</ele>
        <time>2026-06-15T11:13:18.000Z</time>
        <extensions>
          <ns3:TrackPointExtension>
            <ns3:atemp>15.0</ns3:atemp>
          </ns3:TrackPointExtension>
        </extensions>
      </trkpt>
      <trkpt lat="42.56656679324805736541748046875" lon="20.0539593212306499481201171875">
        <ele>2101.60009765625</ele>
        <time>2026-06-15T11:13:19.000Z</time>
        <extensions>
          <ns3:TrackPointExtension>
            <ns3:atemp>15.0</ns3:atemp>
          </ns3:TrackPointExtension>
        </extensions>
      </trkpt>
      <trkpt lat="42.56658858619630336761474609375" lon="20.05398790352046489715576171875">
        <ele>2101.800048828125</ele>
        <time>2026-06-15T11:13:20.000Z</time>
        <extensions>
          <ns3:TrackPointExtension>
            <ns3:atemp>15.0</ns3:atemp>
          </ns3:TrackPointExtension>
        </extensions>
      </trkpt>
      <trkpt lat="42.56661976687610149383544921875" lon="20.05401690490543842315673828125">
        <ele>2102</ele>
        <time>2026-06-15T11:13:21.000Z</time>
        <extensions>
          <ns3:TrackPointExtension>
            <ns3:atemp>15.0</ns3:atemp>
          </ns3:TrackPointExtension>
        </extensions>
      </trkpt>
      <trkpt lat="42.566656731069087982177734375" lon="20.05403584800660610198974609375">
        <ele>2102</ele>
        <time>2026-06-15T11:13:22.000Z</time>
        <extensions>
          <ns3:TrackPointExtension>
            <ns3:atemp>15.0</ns3:atemp>
          </ns3:TrackPointExtension>
        </extensions>
      </trkpt>
      <trkpt lat="42.5666967965662479400634765625" lon="20.054046995937824249267578125">
        <ele>2102</ele>
        <time>2026-06-15T11:13:23.000Z</time>
        <extensions>
          <ns3:TrackPointExtension>
            <ns3:atemp>15.0</ns3:atemp>
          </ns3:TrackPointExtension>
        </extensions>
      </trkpt>
      <trkpt lat="42.56673443131148815155029296875" lon="20.054053701460361480712890625">
        <ele>2102</ele>
        <time>2026-06-15T11:13:24.000Z</time>
        <extensions>
          <ns3:TrackPointExtension>
            <ns3:atemp>15.0</ns3:atemp>
          </ns3:TrackPointExtension>
        </extensions>
      </trkpt>
      <trkpt lat="42.56677198223769664764404296875" lon="20.05405227653682231903076171875">
        <ele>2102</ele>
        <time>2026-06-15T11:13:25.000Z</time>
        <extensions>
          <ns3:TrackPointExtension>
            <ns3:atemp>15.0</ns3:atemp>
          </ns3:TrackPointExtension>
        </extensions>
      </trkpt>
      <trkpt lat="42.56680534221231937408447265625" lon="20.05404171533882617950439453125">
        <ele>2101.800048828125</ele>
        <time>2026-06-15T11:13:26.000Z</time>
        <extensions>
          <ns3:TrackPointExtension>
            <ns3:atemp>15.0</ns3:atemp>
          </ns3:TrackPointExtension>
        </extensions>
      </trkpt>
      <trkpt lat="42.566834427416324615478515625" lon="20.05403484217822551727294921875">
        <ele>2101.800048828125</ele>
        <time>2026-06-15T11:13:27.000Z</time>
        <extensions>
          <ns3:TrackPointExtension>
            <ns3:atemp>15.0</ns3:atemp>
          </ns3:TrackPointExtension>
        </extensions>
      </trkpt>
      <trkpt lat="42.56685663945972919464111328125" lon="20.0540133006870746612548828125">
        <ele>2101.800048828125</ele>
        <time>2026-06-15T11:13:28.000Z</time>
        <extensions>
          <ns3:TrackPointExtension>
            <ns3:atemp>15.0</ns3:atemp>
          </ns3:TrackPointExtension>
        </extensions>
      </trkpt>
      <trkpt lat="42.5668828748166561126708984375" lon="20.053982622921466827392578125">
        <ele>2101.800048828125</ele>
        <time>2026-06-15T11:13:29.000Z</time>
        <extensions>
          <ns3:TrackPointExtension>
            <ns3:atemp>15.0</ns3:atemp>
          </ns3:TrackPointExtension>
        </extensions>
      </trkpt>
      <trkpt lat="42.56689854897558689117431640625" lon="20.053947754204273223876953125">
        <ele>2101.800048828125</ele>
        <time>2026-06-15T11:13:30.000Z</time>
        <extensions>
          <ns3:TrackPointExtension>
            <ns3:atemp>15.0</ns3:atemp>
          </ns3:TrackPointExtension>
        </extensions>
      </trkpt>
      <trkpt lat="42.56691296584904193878173828125" lon="20.05391196347773075103759765625">
        <ele>2101.800048828125</ele>
        <time>2026-06-15T11:13:31.000Z</time>
        <extensions>
          <ns3:TrackPointExtension>
            <ns3:atemp>15.0</ns3:atemp>
          </ns3:TrackPointExtension>
        </extensions>
      </trkpt>
      <trkpt lat="42.56692922674119472503662109375" lon="20.05387759767472743988037109375">
        <ele>2101.800048828125</ele>
        <time>2026-06-15T11:13:32.000Z</time>
        <extensions>
          <ns3:TrackPointExtension>
            <ns3:atemp>15.0</ns3:atemp>
          </ns3:TrackPointExtension>
        </extensions>
      </trkpt>
      <trkpt lat="42.56694464944303035736083984375" lon="20.05384155549108982086181640625">
        <ele>2101.800048828125</ele>
        <time>2026-06-15T11:13:33.000Z</time>
        <extensions>
          <ns3:TrackPointExtension>
            <ns3:atemp>15.0</ns3:atemp>
          </ns3:TrackPointExtension>
        </extensions>
      </trkpt>
      <trkpt lat="42.56695839576423168182373046875" lon="20.0537993945181369781494140625">
        <ele>2102</ele>
        <time>2026-06-15T11:13:34.000Z</time>
        <extensions>
          <ns3:TrackPointExtension>
            <ns3:atemp>15.0</ns3:atemp>
          </ns3:TrackPointExtension>
        </extensions>
      </trkpt>
      <trkpt lat="42.5669589824974536895751953125" lon="20.05375522188842296600341796875">
        <ele>2102.199951171875</ele>
        <time>2026-06-15T11:13:35.000Z</time>
        <extensions>
          <ns3:TrackPointExtension>
            <ns3:atemp>15.0</ns3:atemp>
          </ns3:TrackPointExtension>
        </extensions>
      </trkpt>
      <trkpt lat="42.5669539533555507659912109375" lon="20.05371339619159698486328125">
        <ele>2102.39990234375</ele>
        <time>2026-06-15T11:13:36.000Z</time>
        <extensions>
          <ns3:TrackPointExtension>
            <ns3:atemp>15.0</ns3:atemp>
          </ns3:TrackPointExtension>
        </extensions>
      </trkpt>
      <trkpt lat="42.5669385306537151336669921875" lon="20.0536776892840862274169921875">
        <ele>2102.60009765625</ele>
        <time>2026-06-15T11:13:37.000Z</time>
        <extensions>
          <ns3:TrackPointExtension>
            <ns3:atemp>15.0</ns3:atemp>
          </ns3:TrackPointExtension>
        </extensions>
      </trkpt>
      <trkpt lat="42.5669241137802600860595703125" lon="20.0536481849849224090576171875">
        <ele>2102.800048828125</ele>
        <time>2026-06-15T11:13:38.000Z</time>
        <extensions>
          <ns3:TrackPointExtension>
            <ns3:atemp>15.0</ns3:atemp>
          </ns3:TrackPointExtension>
        </extensions>
      </trkpt>
      <trkpt lat="42.56691212765872478485107421875" lon="20.05362228490412235260009765625">
        <ele>2103.199951171875</ele>
        <time>2026-06-15T11:13:39.000Z</time>
        <extensions>
          <ns3:TrackPointExtension>
            <ns3:atemp>15.0</ns3:atemp>
          </ns3:TrackPointExtension>
        </extensions>
      </trkpt>
      <trkpt lat="42.56689846515655517578125" lon="20.0536015816032886505126953125">
        <ele>2103.60009765625</ele>
        <time>2026-06-15T11:13:40.000Z</time>
        <extensions>
          <ns3:TrackPointExtension>
            <ns3:atemp>15.0</ns3:atemp>
          </ns3:TrackPointExtension>
        </extensions>
      </trkpt>
      <trkpt lat="42.56687700748443603515625" lon="20.0535938702523708343505859375">
        <ele>2104</ele>
        <time>2026-06-15T11:13:41.000Z</time>
        <extensions>
          <ns3:TrackPointExtension>
            <ns3:atemp>15.0</ns3:atemp>
          </ns3:TrackPointExtension>
        </extensions>
      </trkpt>
      <trkpt lat="42.5668567232787609100341796875" lon="20.05359127186238765716552734375">
        <ele>2104.39990234375</ele>
        <time>2026-06-15T11:13:42.000Z</time>
        <extensions>
          <ns3:TrackPointExtension>
            <ns3:atemp>15.0</ns3:atemp>
          </ns3:TrackPointExtension>
        </extensions>
      </trkpt>
      <trkpt lat="42.566841803491115570068359375" lon="20.0535871647298336029052734375">
        <ele>2104.60009765625</ele>
        <time>2026-06-15T11:13:43.000Z</time>
        <extensions>
          <ns3:TrackPointExtension>
            <ns3:atemp>15.0</ns3:atemp>
          </ns3:TrackPointExtension>
        </extensions>
      </trkpt>
      <trkpt lat="42.56682663224637508392333984375" lon="20.053586997091770172119140625">
        <ele>2105</ele>
        <time>2026-06-15T11:13:44.000Z</time>
        <extensions>
          <ns3:TrackPointExtension>
            <ns3:atemp>15.0</ns3:atemp>
          </ns3:TrackPointExtension>
        </extensions>
      </trkpt>
      <trkpt lat="42.56680970080196857452392578125" lon="20.0535826385021209716796875">
        <ele>2105.199951171875</ele>
        <time>2026-06-15T11:13:45.000Z</time>
        <extensions>
          <ns3:TrackPointExtension>
            <ns3:atemp>15.0</ns3:atemp>
          </ns3:TrackPointExtension>
        </extensions>
      </trkpt>
      <trkpt lat="42.56678723730146884918212890625" lon="20.05358305759727954864501953125">
        <ele>2105.60009765625</ele>
        <time>2026-06-15T11:13:46.000Z</time>
        <extensions>
          <ns3:TrackPointExtension>
            <ns3:atemp>15.0</ns3:atemp>
          </ns3:TrackPointExtension>
        </extensions>
      </trkpt>
      <trkpt lat="42.5667648576200008392333984375" lon="20.05358439870178699493408203125">
        <ele>2106</ele>
        <time>2026-06-15T11:13:47.000Z</time>
        <extensions>
          <ns3:TrackPointExtension>
            <ns3:atemp>15.0</ns3:atemp>
          </ns3:TrackPointExtension>
        </extensions>
      </trkpt>
      <trkpt lat="42.5667417235672473907470703125" lon="20.05358439870178699493408203125">
        <ele>2106.199951171875</ele>
        <time>2026-06-15T11:13:48.000Z</time>
        <extensions>
          <ns3:TrackPointExtension>
            <ns3:atemp>15.0</ns3:atemp>
          </ns3:TrackPointExtension>
        </extensions>
      </trkpt>
      <trkpt lat="42.5667182542383670806884765625" lon="20.0535824708640575408935546875">
        <ele>2106.60009765625</ele>
        <time>2026-06-15T11:13:49.000Z</time>
        <extensions>
          <ns3:TrackPointExtension>
            <ns3:atemp>15.0</ns3:atemp>
          </ns3:TrackPointExtension>
        </extensions>
      </trkpt>
      <trkpt lat="42.5667013227939605712890625" lon="20.053574256598949432373046875">
        <ele>2106.800048828125</ele>
        <time>2026-06-15T11:13:50.000Z</time>
        <extensions>
          <ns3:TrackPointExtension>
            <ns3:atemp>15.0</ns3:atemp>
          </ns3:TrackPointExtension>
        </extensions>
      </trkpt>
      <trkpt lat="42.56667961366474628448486328125" lon="20.0535650365054607391357421875">
        <ele>2107.199951171875</ele>
        <time>2026-06-15T11:13:51.000Z</time>
        <extensions>
          <ns3:TrackPointExtension>
            <ns3:atemp>15.0</ns3:atemp>
          </ns3:TrackPointExtension>
        </extensions>
      </trkpt>
      <trkpt lat="42.566659413278102874755859375" lon="20.05355137400329113006591796875">
        <ele>2107.39990234375</ele>
        <time>2026-06-15T11:13:52.000Z</time>
        <extensions>
          <ns3:TrackPointExtension>
            <ns3:atemp>15.0</ns3:atemp>
          </ns3:TrackPointExtension>
        </extensions>
      </trkpt>
      <trkpt lat="42.56664524786174297332763671875" lon="20.0535316765308380126953125">
        <ele>2107.800048828125</ele>
        <time>2026-06-15T11:13:53.000Z</time>
        <extensions>
          <ns3:TrackPointExtension>
            <ns3:atemp>15.0</ns3:atemp>
          </ns3:TrackPointExtension>
        </extensions>
      </trkpt>
      <trkpt lat="42.56662697531282901763916015625" lon="20.0535117276012897491455078125">
        <ele>2108</ele>
        <time>2026-06-15T11:13:54.000Z</time>
        <extensions>
          <ns3:TrackPointExtension>
            <ns3:atemp>15.0</ns3:atemp>
          </ns3:TrackPointExtension>
        </extensions>
      </trkpt>
      <trkpt lat="42.56660669110715389251708984375" lon="20.0534946285188198089599609375">
        <ele>2108.199951171875</ele>
        <time>2026-06-15T11:13:55.000Z</time>
        <extensions>
          <ns3:TrackPointExtension>
            <ns3:atemp>15.0</ns3:atemp>
          </ns3:TrackPointExtension>
        </extensions>
      </trkpt>
      <trkpt lat="42.56658758036792278289794921875" lon="20.0534728355705738067626953125">
        <ele>2108.39990234375</ele>
        <time>2026-06-15T11:13:56.000Z</time>
        <extensions>
          <ns3:TrackPointExtension>
            <ns3:atemp>15.0</ns3:atemp>
          </ns3:TrackPointExtension>
        </extensions>
      </trkpt>
      <trkpt lat="42.5665677152574062347412109375" lon="20.05345188081264495849609375">
        <ele>2108.60009765625</ele>
        <time>2026-06-15T11:13:57.000Z</time>
        <extensions>
          <ns3:TrackPointExtension>
            <ns3:atemp>15.0</ns3:atemp>
          </ns3:TrackPointExtension>
        </extensions>
      </trkpt>
      <trkpt lat="42.566547431051731109619140625" lon="20.05342908203601837158203125">
        <ele>2108.60009765625</ele>
        <time>2026-06-15T11:13:58.000Z</time>
        <extensions>
          <ns3:TrackPointExtension>
            <ns3:atemp>15.0</ns3:atemp>
          </ns3:TrackPointExtension>
        </extensions>
      </trkpt>
      <trkpt lat="42.5665261410176753997802734375" lon="20.05340569652616977691650390625">
        <ele>2108.60009765625</ele>
        <time>2026-06-15T11:13:59.000Z</time>
        <extensions>
          <ns3:TrackPointExtension>
            <ns3:atemp>15.0</ns3:atemp>
          </ns3:TrackPointExtension>
        </extensions>
      </trkpt>
      <trkpt lat="42.5665063597261905670166015625" lon="20.0533814728260040283203125">
        <ele>2108.60009765625</ele>
        <time>2026-06-15T11:14:00.000Z</time>
        <extensions>
          <ns3:TrackPointExtension>
            <ns3:atemp>15.0</ns3:atemp>
          </ns3:TrackPointExtension>
        </extensions>
      </trkpt>
      <trkpt lat="42.56648800335824489593505859375" lon="20.05335775204002857208251953125">
        <ele>2108.60009765625</ele>
        <time>2026-06-15T11:14:01.000Z</time>
        <extensions>
          <ns3:TrackPointExtension>
            <ns3:atemp>15.0</ns3:atemp>
          </ns3:TrackPointExtension>
        </extensions>
      </trkpt>
      <trkpt lat="42.56647534668445587158203125" lon="20.05333512090146541595458984375">
        <ele>2108.60009765625</ele>
        <time>2026-06-15T11:14:02.000Z</time>
        <extensions>
          <ns3:TrackPointExtension>
            <ns3:atemp>15.0</ns3:atemp>
          </ns3:TrackPointExtension>
        </extensions>
      </trkpt>
      <trkpt lat="42.56646973080933094024658203125" lon="20.05331332795321941375732421875">
        <ele>2108.60009765625</ele>
        <time>2026-06-15T11:14:03.000Z</time>
        <extensions>
          <ns3:TrackPointExtension>
            <ns3:atemp>15.0</ns3:atemp>
          </ns3:TrackPointExtension>
        </extensions>
      </trkpt>
      <trkpt lat="42.56646218709647655487060546875" lon="20.05329170264303684234619140625">
        <ele>2108.800048828125</ele>
        <time>2026-06-15T11:14:04.000Z</time>
        <extensions>
          <ns3:TrackPointExtension>
            <ns3:atemp>15.0</ns3:atemp>
          </ns3:TrackPointExtension>
        </extensions>
      </trkpt>
      <trkpt lat="42.56646201945841312408447265625" lon="20.05327041260898113250732421875">
        <ele>2109</ele>
        <time>2026-06-15T11:14:05.000Z</time>
        <extensions>
          <ns3:TrackPointExtension>
            <ns3:atemp>15.0</ns3:atemp>
          </ns3:TrackPointExtension>
        </extensions>
      </trkpt>
      <trkpt lat="42.56646151654422283172607421875" lon="20.053249038755893707275390625">
        <ele>2109.199951171875</ele>
        <time>2026-06-15T11:14:06.000Z</time>
        <extensions>
          <ns3:TrackPointExtension>
            <ns3:atemp>15.0</ns3:atemp>
          </ns3:TrackPointExtension>
        </extensions>
      </trkpt>
      <trkpt lat="42.56646621040999889373779296875" lon="20.05323738791048526763916015625">
        <ele>2109.39990234375</ele>
        <time>2026-06-15T11:14:07.000Z</time>
        <extensions>
          <ns3:TrackPointExtension>
            <ns3:atemp>15.0</ns3:atemp>
          </ns3:TrackPointExtension>
        </extensions>
      </trkpt>
      <trkpt lat="42.56647610105574131011962890625" lon="20.05323118530213832855224609375">
        <ele>2109.39990234375</ele>
        <time>2026-06-15T11:14:08.000Z</time>
        <extensions>
          <ns3:TrackPointExtension>
            <ns3:atemp>15.0</ns3:atemp>
          </ns3:TrackPointExtension>
        </extensions>
      </trkpt>
      <trkpt lat="42.56648850627243518829345703125" lon="20.0532284192740917205810546875">
        <ele>2109.60009765625</ele>
        <time>2026-06-15T11:14:09.000Z</time>
        <extensions>
          <ns3:TrackPointExtension>
            <ns3:atemp>15.0</ns3:atemp>
          </ns3:TrackPointExtension>
        </extensions>
      </trkpt>
      <trkpt lat="42.56650074385106563568115234375" lon="20.0532170198857784271240234375">
        <ele>2109.800048828125</ele>
        <time>2026-06-15T11:14:10.000Z</time>
        <extensions>
          <ns3:TrackPointExtension>
            <ns3:atemp>15.0</ns3:atemp>
          </ns3:TrackPointExtension>
        </extensions>
      </trkpt>
      <trkpt lat="42.56650661118328571319580078125" lon="20.05320285446941852569580078125">
        <ele>2110</ele>
        <time>2026-06-15T11:14:11.000Z</time>
        <extensions>
          <ns3:TrackPointExtension>
            <ns3:atemp>15.0</ns3:atemp>
          </ns3:TrackPointExtension>
        </extensions>
      </trkpt>
      <trkpt lat="42.56651549600064754486083984375" lon="20.0531848333775997161865234375">
        <ele>2110.39990234375</ele>
        <time>2026-06-15T11:14:12.000Z</time>
        <extensions>
          <ns3:TrackPointExtension>
            <ns3:atemp>15.0</ns3:atemp>
          </ns3:TrackPointExtension>
        </extensions>
      </trkpt>
      <trkpt lat="42.56652739830315113067626953125" lon="20.0531804747879505157470703125">
        <ele>2110.60009765625</ele>
        <time>2026-06-15T11:14:13.000Z</time>
        <extensions>
          <ns3:TrackPointExtension>
            <ns3:atemp>15.0</ns3:atemp>
          </ns3:TrackPointExtension>
        </extensions>
      </trkpt>
      <trkpt lat="42.5665430724620819091796875" lon="20.0531767867505550384521484375">
        <ele>2110.800048828125</ele>
        <time>2026-06-15T11:14:14.000Z</time>
        <extensions>
          <ns3:TrackPointExtension>
            <ns3:atemp>15.0</ns3:atemp>
          </ns3:TrackPointExtension>
        </extensions>
      </trkpt>
      <trkpt lat="42.56656126119196414947509765625" lon="20.05317636765539646148681640625">
        <ele>2111</ele>
        <time>2026-06-15T11:14:15.000Z</time>
        <extensions>
          <ns3:TrackPointExtension>
            <ns3:atemp>15.0</ns3:atemp>
          </ns3:TrackPointExtension>
        </extensions>
      </trkpt>
      <trkpt lat="42.5665777735412120819091796875" lon="20.0531737692654132843017578125">
        <ele>2111.199951171875</ele>
        <time>2026-06-15T11:14:16.000Z</time>
        <extensions>
          <ns3:TrackPointExtension>
            <ns3:atemp>15.0</ns3:atemp>
          </ns3:TrackPointExtension>
        </extensions>
      </trkpt>
      <trkpt lat="42.5665948726236820220947265625" lon="20.0531707517802715301513671875">
        <ele>2111.39990234375</ele>
        <time>2026-06-15T11:14:17.000Z</time>
        <extensions>
          <ns3:TrackPointExtension>
            <ns3:atemp>15.0</ns3:atemp>
          </ns3:TrackPointExtension>
        </extensions>
      </trkpt>
      <trkpt lat="42.5666156597435474395751953125" lon="20.0531616993248462677001953125">
        <ele>2111.39990234375</ele>
        <time>2026-06-15T11:14:18.000Z</time>
        <extensions>
          <ns3:TrackPointExtension>
            <ns3:atemp>15.0</ns3:atemp>
          </ns3:TrackPointExtension>
        </extensions>
      </trkpt>
      <trkpt lat="42.56663359701633453369140625" lon="20.05314870737493038177490234375">
        <ele>2111.60009765625</ele>
        <time>2026-06-15T11:14:19.000Z</time>
        <extensions>
          <ns3:TrackPointExtension>
            <ns3:atemp>15.0</ns3:atemp>
          </ns3:TrackPointExtension>
        </extensions>
      </trkpt>
      <trkpt lat="42.56664541549980640411376953125" lon="20.05313177593052387237548828125">
        <ele>2111.800048828125</ele>
        <time>2026-06-15T11:14:20.000Z</time>
        <extensions>
          <ns3:TrackPointExtension>
            <ns3:atemp>15.0</ns3:atemp>
          </ns3:TrackPointExtension>
        </extensions>
      </trkpt>
      <trkpt lat="42.566654048860073089599609375" lon="20.05311031825840473175048828125">
        <ele>2112</ele>
        <time>2026-06-15T11:14:21.000Z</time>
        <extensions>
          <ns3:TrackPointExtension>
            <ns3:atemp>15.0</ns3:atemp>
          </ns3:TrackPointExtension>
        </extensions>
      </trkpt>
      <trkpt lat="42.5666615925729274749755859375" lon="20.05308265797793865203857421875">
        <ele>2112.199951171875</ele>
        <time>2026-06-15T11:14:22.000Z</time>
        <extensions>
          <ns3:TrackPointExtension>
            <ns3:atemp>15.0</ns3:atemp>
          </ns3:TrackPointExtension>
        </extensions>
      </trkpt>
      <trkpt lat="42.5666646100580692291259765625" lon="20.0530622899532318115234375">
        <ele>2112.60009765625</ele>
        <time>2026-06-15T11:14:23.000Z</time>
        <extensions>
          <ns3:TrackPointExtension>
            <ns3:atemp>15.0</ns3:atemp>
          </ns3:TrackPointExtension>
        </extensions>
      </trkpt>
      <trkpt lat="42.566659413278102874755859375" lon="20.05303773097693920135498046875">
        <ele>2112.800048828125</ele>
        <time>2026-06-15T11:14:24.000Z</time>
        <extensions>
          <ns3:TrackPointExtension>
            <ns3:atemp>15.0</ns3:atemp>
          </ns3:TrackPointExtension>
        </extensions>
      </trkpt>
      <trkpt lat="42.56664759479463100433349609375" lon="20.0530222244560718536376953125">
        <ele>2113</ele>
        <time>2026-06-15T11:14:25.000Z</time>
        <extensions>
          <ns3:TrackPointExtension>
            <ns3:atemp>15.0</ns3:atemp>
          </ns3:TrackPointExtension>
        </extensions>
      </trkpt>
      <trkpt lat="42.56663233973085880279541015625" lon="20.05300663411617279052734375">
        <ele>2113.199951171875</ele>
        <time>2026-06-15T11:14:26.000Z</time>
        <extensions>
          <ns3:TrackPointExtension>
            <ns3:atemp>15.0</ns3:atemp>
          </ns3:TrackPointExtension>
        </extensions>
      </trkpt>
      <trkpt lat="42.56661289371550083160400390625" lon="20.0529903732240200042724609375">
        <ele>2113.39990234375</ele>
        <time>2026-06-15T11:14:27.000Z</time>
        <extensions>
          <ns3:TrackPointExtension>
            <ns3:atemp>15.0</ns3:atemp>
          </ns3:TrackPointExtension>
        </extensions>
      </trkpt>
      <trkpt lat="42.56659395061433315277099609375" lon="20.0529729388654232025146484375">
        <ele>2113.39990234375</ele>
        <time>2026-06-15T11:14:28.000Z</time>
        <extensions>
          <ns3:TrackPointExtension>
            <ns3:atemp>15.0</ns3:atemp>
          </ns3:TrackPointExtension>
        </extensions>
      </trkpt>
      <trkpt lat="42.56657752208411693572998046875" lon="20.05295139737427234649658203125">
        <ele>2113.60009765625</ele>
        <time>2026-06-15T11:14:29.000Z</time>
        <extensions>
          <ns3:TrackPointExtension>
            <ns3:atemp>15.0</ns3:atemp>
          </ns3:TrackPointExtension>
        </extensions>
      </trkpt>
      <trkpt lat="42.56656126119196414947509765625" lon="20.052936561405658721923828125">
        <ele>2114</ele>
        <time>2026-06-15T11:14:30.000Z</time>
        <extensions>
          <ns3:TrackPointExtension>
            <ns3:atemp>15.0</ns3:atemp>
          </ns3:TrackPointExtension>
        </extensions>
      </trkpt>
      <trkpt lat="42.56654114462435245513916015625" lon="20.0529226474463939666748046875">
        <ele>2114.199951171875</ele>
        <time>2026-06-15T11:14:31.000Z</time>
        <extensions>
          <ns3:TrackPointExtension>
            <ns3:atemp>15.0</ns3:atemp>
          </ns3:TrackPointExtension>
        </extensions>
      </trkpt>
      <trkpt lat="42.56652270443737506866455078125" lon="20.052907727658748626708984375">
        <ele>2114.39990234375</ele>
        <time>2026-06-15T11:14:32.000Z</time>
        <extensions>
          <ns3:TrackPointExtension>
            <ns3:atemp>15.0</ns3:atemp>
          </ns3:TrackPointExtension>
        </extensions>
      </trkpt>
      <trkpt lat="42.56650962866842746734619140625" lon="20.05288853310048580169677734375">
        <ele>2114.800048828125</ele>
        <time>2026-06-15T11:14:33.000Z</time>
        <extensions>
          <ns3:TrackPointExtension>
            <ns3:atemp>15.0</ns3:atemp>
          </ns3:TrackPointExtension>
        </extensions>
      </trkpt>
      <trkpt lat="42.56649236194789409637451171875" lon="20.05287193693220615386962890625">
        <ele>2114.800048828125</ele>
        <time>2026-06-15T11:14:34.000Z</time>
        <extensions>
          <ns3:TrackPointExtension>
            <ns3:atemp>15.0</ns3:atemp>
          </ns3:TrackPointExtension>
        </extensions>
      </trkpt>
      <trkpt lat="42.56647266447544097900390625" lon="20.052851401269435882568359375">
        <ele>2115</ele>
        <time>2026-06-15T11:14:35.000Z</time>
        <extensions>
          <ns3:TrackPointExtension>
            <ns3:atemp>15.0</ns3:atemp>
          </ns3:TrackPointExtension>
        </extensions>
      </trkpt>
      <trkpt lat="42.56645481102168560028076171875" lon="20.05283555947244167327880859375">
        <ele>2115.199951171875</ele>
        <time>2026-06-15T11:14:36.000Z</time>
        <extensions>
          <ns3:TrackPointExtension>
            <ns3:atemp>15.0</ns3:atemp>
          </ns3:TrackPointExtension>
        </extensions>
      </trkpt>
      <trkpt lat="42.56643645465373992919921875" lon="20.05282181315124034881591796875">
        <ele>2115.60009765625</ele>
        <time>2026-06-15T11:14:37.000Z</time>
        <extensions>
          <ns3:TrackPointExtension>
            <ns3:atemp>15.0</ns3:atemp>
          </ns3:TrackPointExtension>
        </extensions>
      </trkpt>
      <trkpt lat="42.56641726009547710418701171875" lon="20.0528066419064998626708984375">
        <ele>2115.800048828125</ele>
        <time>2026-06-15T11:14:38.000Z</time>
        <extensions>
          <ns3:TrackPointExtension>
            <ns3:atemp>15.0</ns3:atemp>
          </ns3:TrackPointExtension>
        </extensions>
      </trkpt>
      <trkpt lat="42.56639161147177219390869140625" lon="20.05279473960399627685546875">
        <ele>2116</ele>
        <time>2026-06-15T11:14:39.000Z</time>
        <extensions>
          <ns3:TrackPointExtension>
            <ns3:atemp>15.0</ns3:atemp>
          </ns3:TrackPointExtension>
        </extensions>
      </trkpt>
      <trkpt lat="42.566369734704494476318359375" lon="20.0527838431298732757568359375">
        <ele>2116.39990234375</ele>
        <time>2026-06-15T11:14:40.000Z</time>
        <extensions>
          <ns3:TrackPointExtension>
            <ns3:atemp>15.0</ns3:atemp>
          </ns3:TrackPointExtension>
        </extensions>
      </trkpt>
      <trkpt lat="42.56634500809013843536376953125" lon="20.05277604795992374420166015625">
        <ele>2116.60009765625</ele>
        <time>2026-06-15T11:14:41.000Z</time>
        <extensions>
          <ns3:TrackPointExtension>
            <ns3:atemp>15.0</ns3:atemp>
          </ns3:TrackPointExtension>
        </extensions>
      </trkpt>
      <trkpt lat="42.56632782518863677978515625" lon="20.05276515148580074310302734375">
        <ele>2116.800048828125</ele>
        <time>2026-06-15T11:14:42.000Z</time>
        <extensions>
          <ns3:TrackPointExtension>
            <ns3:atemp>15.0</ns3:atemp>
          </ns3:TrackPointExtension>
        </extensions>
      </trkpt>
      <trkpt lat="42.5663159228861331939697265625" lon="20.0527479685842990875244140625">
        <ele>2117</ele>
        <time>2026-06-15T11:14:43.000Z</time>
        <extensions>
          <ns3:TrackPointExtension>
            <ns3:atemp>15.0</ns3:atemp>
          </ns3:TrackPointExtension>
        </extensions>
      </trkpt>
      <trkpt lat="42.56630611605942249298095703125" lon="20.0527288578450679779052734375">
        <ele>2117.39990234375</ele>
        <time>2026-06-15T11:14:44.000Z</time>
        <extensions>
          <ns3:TrackPointExtension>
            <ns3:atemp>15.0</ns3:atemp>
          </ns3:TrackPointExtension>
        </extensions>
      </trkpt>
      <trkpt lat="42.566296644508838653564453125" lon="20.05270346067845821380615234375">
        <ele>2117.60009765625</ele>
        <time>2026-06-15T11:14:45.000Z</time>
        <extensions>
          <ns3:TrackPointExtension>
            <ns3:atemp>15.0</ns3:atemp>
          </ns3:TrackPointExtension>
        </extensions>
      </trkpt>
      <trkpt lat="42.56629873998463153839111328125" lon="20.052675716578960418701171875">
        <ele>2118</ele>
        <time>2026-06-15T11:14:46.000Z</time>
        <extensions>
          <ns3:TrackPointExtension>
            <ns3:atemp>15.0</ns3:atemp>
          </ns3:TrackPointExtension>
        </extensions>
      </trkpt>
      <trkpt lat="42.56630578078329563140869140625" lon="20.0526480562984943389892578125">
        <ele>2118.199951171875</ele>
        <time>2026-06-15T11:14:47.000Z</time>
        <extensions>
          <ns3:TrackPointExtension>
            <ns3:atemp>15.0</ns3:atemp>
          </ns3:TrackPointExtension>
        </extensions>
      </trkpt>
      <trkpt lat="42.566316425800323486328125" lon="20.0526265986263751983642578125">
        <ele>2118.39990234375</ele>
        <time>2026-06-15T11:14:48.000Z</time>
        <extensions>
          <ns3:TrackPointExtension>
            <ns3:atemp>15.0</ns3:atemp>
          </ns3:TrackPointExtension>
        </extensions>
      </trkpt>
      <trkpt lat="42.56633075885474681854248046875" lon="20.05260706879198551177978515625">
        <ele>2118.60009765625</ele>
        <time>2026-06-15T11:14:49.000Z</time>
        <extensions>
          <ns3:TrackPointExtension>
            <ns3:atemp>15.0</ns3:atemp>
          </ns3:TrackPointExtension>
        </extensions>
      </trkpt>
      <trkpt lat="42.5663447566330432891845703125" lon="20.0525893829762935638427734375">
        <ele>2118.800048828125</ele>
        <time>2026-06-15T11:14:50.000Z</time>
        <extensions>
          <ns3:TrackPointExtension>
            <ns3:atemp>15.0</ns3:atemp>
          </ns3:TrackPointExtension>
        </extensions>
      </trkpt>
      <trkpt lat="42.56635992787778377532958984375" lon="20.05257504992187023162841796875">
        <ele>2119</ele>
        <time>2026-06-15T11:14:51.000Z</time>
        <extensions>
          <ns3:TrackPointExtension>
            <ns3:atemp>15.0</ns3:atemp>
          </ns3:TrackPointExtension>
        </extensions>
      </trkpt>
      <trkpt lat="42.56637820042669773101806640625" lon="20.05256247706711292266845703125">
        <ele>2119.199951171875</ele>
        <time>2026-06-15T11:14:52.000Z</time>
        <extensions>
          <ns3:TrackPointExtension>
            <ns3:atemp>15.0</ns3:atemp>
          </ns3:TrackPointExtension>
        </extensions>
      </trkpt>
      <trkpt lat="42.566392533481121063232421875" lon="20.0525434501469135284423828125">
        <ele>2119.39990234375</ele>
        <time>2026-06-15T11:14:53.000Z</time>
        <extensions>
          <ns3:TrackPointExtension>
            <ns3:atemp>15.0</ns3:atemp>
          </ns3:TrackPointExtension>
        </extensions>
      </trkpt>
      <trkpt lat="42.56640636362135410308837890625" lon="20.0525203160941600799560546875">
        <ele>2119.60009765625</ele>
        <time>2026-06-15T11:14:54.000Z</time>
        <extensions>
          <ns3:TrackPointExtension>
            <ns3:atemp>15.0</ns3:atemp>
          </ns3:TrackPointExtension>
        </extensions>
      </trkpt>
      <trkpt lat="42.5664228759706020355224609375" lon="20.0524998642504215240478515625">
        <ele>2119.800048828125</ele>
        <time>2026-06-15T11:14:55.000Z</time>
        <extensions>
          <ns3:TrackPointExtension>
            <ns3:atemp>15.0</ns3:atemp>
          </ns3:TrackPointExtension>
        </extensions>
      </trkpt>
      <trkpt lat="42.566434778273105621337890625" lon="20.0524807535111904144287109375">
        <ele>2120</ele>
        <time>2026-06-15T11:14:56.000Z</time>
        <extensions>
          <ns3:TrackPointExtension>
            <ns3:atemp>15.0</ns3:atemp>
          </ns3:TrackPointExtension>
        </extensions>
      </trkpt>
      <trkpt lat="42.56644475273787975311279296875" lon="20.05245921202003955841064453125">
        <ele>2120.199951171875</ele>
        <time>2026-06-15T11:14:57.000Z</time>
        <extensions>
          <ns3:TrackPointExtension>
            <ns3:atemp>15.0</ns3:atemp>
          </ns3:TrackPointExtension>
        </extensions>
      </trkpt>
      <trkpt lat="42.56645497865974903106689453125" lon="20.0524344854056835174560546875">
        <ele>2120.39990234375</ele>
        <time>2026-06-15T11:14:58.000Z</time>
        <extensions>
          <ns3:TrackPointExtension>
            <ns3:atemp>15.0</ns3:atemp>
          </ns3:TrackPointExtension>
        </extensions>
      </trkpt>
      <trkpt lat="42.56646654568612575531005859375" lon="20.052411854267120361328125">
        <ele>2120.800048828125</ele>
        <time>2026-06-15T11:14:59.000Z</time>
        <extensions>
          <ns3:TrackPointExtension>
            <ns3:atemp>15.0</ns3:atemp>
          </ns3:TrackPointExtension>
        </extensions>
      </trkpt>
      <trkpt lat="42.5664755143225193023681640625" lon="20.052386708557605743408203125">
        <ele>2121.199951171875</ele>
        <time>2026-06-15T11:15:00.000Z</time>
        <extensions>
          <ns3:TrackPointExtension>
            <ns3:atemp>15.0</ns3:atemp>
          </ns3:TrackPointExtension>
        </extensions>
      </trkpt>
      <trkpt lat="42.56648632697761058807373046875" lon="20.05236432887613773345947265625">
        <ele>2121.60009765625</ele>
        <time>2026-06-15T11:15:01.000Z</time>
        <extensions>
          <ns3:TrackPointExtension>
            <ns3:atemp>15.0</ns3:atemp>
          </ns3:TrackPointExtension>
        </extensions>
      </trkpt>
      <trkpt lat="42.5664969719946384429931640625" lon="20.05234538577497005462646484375">
        <ele>2122.199951171875</ele>
        <time>2026-06-15T11:15:02.000Z</time>
        <extensions>
          <ns3:TrackPointExtension>
            <ns3:atemp>15.0</ns3:atemp>
          </ns3:TrackPointExtension>
        </extensions>
      </trkpt>
      <trkpt lat="42.5665083713829517364501953125" lon="20.05232593975961208343505859375">
        <ele>2122.60009765625</ele>
        <time>2026-06-15T11:15:03.000Z</time>
        <extensions>
          <ns3:TrackPointExtension>
            <ns3:atemp>15.0</ns3:atemp>
          </ns3:TrackPointExtension>
        </extensions>
      </trkpt>
      <trkpt lat="42.566517926752567291259765625" lon="20.05230389535427093505859375">
        <ele>2123</ele>
        <time>2026-06-15T11:15:04.000Z</time>
        <extensions>
          <ns3:TrackPointExtension>
            <ns3:atemp>15.0</ns3:atemp>
          </ns3:TrackPointExtension>
        </extensions>
      </trkpt>
      <trkpt lat="42.566527985036373138427734375" lon="20.05227615125477313995361328125">
        <ele>2123.39990234375</ele>
        <time>2026-06-15T11:15:05.000Z</time>
        <extensions>
          <ns3:TrackPointExtension>
            <ns3:atemp>15.0</ns3:atemp>
          </ns3:TrackPointExtension>
        </extensions>
      </trkpt>
      <trkpt lat="42.56653795950114727020263671875" lon="20.05225067026913166046142578125">
        <ele>2123.800048828125</ele>
        <time>2026-06-15T11:15:06.000Z</time>
        <extensions>
          <ns3:TrackPointExtension>
            <ns3:atemp>15.0</ns3:atemp>
          </ns3:TrackPointExtension>
        </extensions>
      </trkpt>
      <trkpt lat="42.566546760499477386474609375" lon="20.05222854204475879669189453125">
        <ele>2124</ele>
        <time>2026-06-15T11:15:07.000Z</time>
        <extensions>
          <ns3:TrackPointExtension>
            <ns3:atemp>15.0</ns3:atemp>
          </ns3:TrackPointExtension>
        </extensions>
      </trkpt>
      <trkpt lat="42.56655321456491947174072265625" lon="20.05219903774559497833251953125">
        <ele>2124.199951171875</ele>
        <time>2026-06-15T11:15:08.000Z</time>
        <extensions>
          <ns3:TrackPointExtension>
            <ns3:atemp>15.0</ns3:atemp>
          </ns3:TrackPointExtension>
        </extensions>
      </trkpt>
      <trkpt lat="42.56656159646809101104736328125" lon="20.052170455455780029296875">
        <ele>2124.39990234375</ele>
        <time>2026-06-15T11:15:09.000Z</time>
        <extensions>
          <ns3:TrackPointExtension>
            <ns3:atemp>15.0</ns3:atemp>
          </ns3:TrackPointExtension>
        </extensions>
      </trkpt>
      <trkpt lat="42.5665663741528987884521484375" lon="20.05214405246078968048095703125">
        <ele>2124.800048828125</ele>
        <time>2026-06-15T11:15:10.000Z</time>
        <extensions>
          <ns3:TrackPointExtension>
            <ns3:atemp>15.0</ns3:atemp>
          </ns3:TrackPointExtension>
        </extensions>
      </trkpt>
      <trkpt lat="42.5665690563619136810302734375" lon="20.05211412906646728515625">
        <ele>2125.199951171875</ele>
        <time>2026-06-15T11:15:11.000Z</time>
        <extensions>
          <ns3:TrackPointExtension>
            <ns3:atemp>15.0</ns3:atemp>
          </ns3:TrackPointExtension>
        </extensions>
      </trkpt>
      <trkpt lat="42.56657064892351627349853515625" lon="20.0520914979279041290283203125">
        <ele>2125.60009765625</ele>
        <time>2026-06-15T11:15:12.000Z</time>
        <extensions>
          <ns3:TrackPointExtension>
            <ns3:atemp>15.0</ns3:atemp>
          </ns3:TrackPointExtension>
        </extensions>
      </trkpt>
      <trkpt lat="42.56657115183770656585693359375" lon="20.05206584930419921875">
        <ele>2125.800048828125</ele>
        <time>2026-06-15T11:15:13.000Z</time>
        <extensions>
          <ns3:TrackPointExtension>
            <ns3:atemp>15.0</ns3:atemp>
          </ns3:TrackPointExtension>
        </extensions>
      </trkpt>
      <trkpt lat="42.56656897254288196563720703125" lon="20.05204229615628719329833984375">
        <ele>2126.199951171875</ele>
        <time>2026-06-15T11:15:14.000Z</time>
        <extensions>
          <ns3:TrackPointExtension>
            <ns3:atemp>15.0</ns3:atemp>
          </ns3:TrackPointExtension>
        </extensions>
      </trkpt>
      <trkpt lat="42.566570229828357696533203125" lon="20.05201463587582111358642578125">
        <ele>2126.39990234375</ele>
        <time>2026-06-15T11:15:15.000Z</time>
        <extensions>
          <ns3:TrackPointExtension>
            <ns3:atemp>15.0</ns3:atemp>
          </ns3:TrackPointExtension>
        </extensions>
      </trkpt>
      <trkpt lat="42.56656813435256481170654296875" lon="20.05198798142373561859130859375">
        <ele>2126.800048828125</ele>
        <time>2026-06-15T11:15:16.000Z</time>
        <extensions>
          <ns3:TrackPointExtension>
            <ns3:atemp>15.0</ns3:atemp>
          </ns3:TrackPointExtension>
        </extensions>
      </trkpt>
      <trkpt lat="42.56656444631516933441162109375" lon="20.05195998586714267730712890625">
        <ele>2127</ele>
        <time>2026-06-15T11:15:17.000Z</time>
        <extensions>
          <ns3:TrackPointExtension>
            <ns3:atemp>15.0</ns3:atemp>
          </ns3:TrackPointExtension>
        </extensions>
      </trkpt>
      <trkpt lat="42.5665618479251861572265625" lon="20.0519319064915180206298828125">
        <ele>2127.39990234375</ele>
        <time>2026-06-15T11:15:18.000Z</time>
        <extensions>
          <ns3:TrackPointExtension>
            <ns3:atemp>15.0</ns3:atemp>
          </ns3:TrackPointExtension>
        </extensions>
      </trkpt>
      <trkpt lat="42.5665553100407123565673828125" lon="20.05190701223909854888916015625">
        <ele>2127.800048828125</ele>
        <time>2026-06-15T11:15:19.000Z</time>
        <extensions>
          <ns3:TrackPointExtension>
            <ns3:atemp>15.0</ns3:atemp>
          </ns3:TrackPointExtension>
        </extensions>
      </trkpt>
      <trkpt lat="42.566550783812999725341796875" lon="20.05188002251088619232177734375">
        <ele>2128.199951171875</ele>
        <time>2026-06-15T11:15:20.000Z</time>
        <extensions>
          <ns3:TrackPointExtension>
            <ns3:atemp>15.0</ns3:atemp>
          </ns3:TrackPointExtension>
        </extensions>
      </trkpt>
      <trkpt lat="42.566543407738208770751953125" lon="20.051854290068149566650390625">
        <ele>2128.60009765625</ele>
        <time>2026-06-15T11:15:21.000Z</time>
        <extensions>
          <ns3:TrackPointExtension>
            <ns3:atemp>15.0</ns3:atemp>
          </ns3:TrackPointExtension>
        </extensions>
      </trkpt>
      <trkpt lat="42.56653309799730777740478515625" lon="20.05183006636798381805419921875">
        <ele>2129</ele>
        <time>2026-06-15T11:15:22.000Z</time>
        <extensions>
          <ns3:TrackPointExtension>
            <ns3:atemp>15.0</ns3:atemp>
          </ns3:TrackPointExtension>
        </extensions>
      </trkpt>
      <trkpt lat="42.56652303971350193023681640625" lon="20.05180592648684978485107421875">
        <ele>2129.199951171875</ele>
        <time>2026-06-15T11:15:23.000Z</time>
        <extensions>
          <ns3:TrackPointExtension>
            <ns3:atemp>15.0</ns3:atemp>
          </ns3:TrackPointExtension>
        </extensions>
      </trkpt>
      <trkpt lat="42.5665113888680934906005859375" lon="20.05178153514862060546875">
        <ele>2129.60009765625</ele>
        <time>2026-06-15T11:15:24.000Z</time>
        <extensions>
          <ns3:TrackPointExtension>
            <ns3:atemp>15.0</ns3:atemp>
          </ns3:TrackPointExtension>
        </extensions>
      </trkpt>
      <trkpt lat="42.5665016658604145050048828125" lon="20.051757059991359710693359375">
        <ele>2129.800048828125</ele>
        <time>2026-06-15T11:15:25.000Z</time>
        <extensions>
          <ns3:TrackPointExtension>
            <ns3:atemp>15.0</ns3:atemp>
          </ns3:TrackPointExtension>
        </extensions>
      </trkpt>
      <trkpt lat="42.56649152375757694244384765625" lon="20.0517304055392742156982421875">
        <ele>2130</ele>
        <time>2026-06-15T11:15:26.000Z</time>
        <extensions>
          <ns3:TrackPointExtension>
            <ns3:atemp>15.0</ns3:atemp>
          </ns3:TrackPointExtension>
        </extensions>
      </trkpt>
      <trkpt lat="42.56648230366408824920654296875" lon="20.05170383490622043609619140625">
        <ele>2130.199951171875</ele>
        <time>2026-06-15T11:15:27.000Z</time>
        <extensions>
          <ns3:TrackPointExtension>
            <ns3:atemp>15.0</ns3:atemp>
          </ns3:TrackPointExtension>
        </extensions>
      </trkpt>
      <trkpt lat="42.566471658647060394287109375" lon="20.0516777671873569488525390625">
        <ele>2130.39990234375</ele>
        <time>2026-06-15T11:15:28.000Z</time>
        <extensions>
          <ns3:TrackPointExtension>
            <ns3:atemp>15.0</ns3:atemp>
          </ns3:TrackPointExtension>
        </extensions>
      </trkpt>
      <trkpt lat="42.56646218709647655487060546875" lon="20.0516519509255886077880859375">
        <ele>2130.60009765625</ele>
        <time>2026-06-15T11:15:29.000Z</time>
        <extensions>
          <ns3:TrackPointExtension>
            <ns3:atemp>15.0</ns3:atemp>
          </ns3:TrackPointExtension>
        </extensions>
      </trkpt>
      <trkpt lat="42.56645598448812961578369140625" lon="20.05162839777767658233642578125">
        <ele>2130.800048828125</ele>
        <time>2026-06-15T11:15:30.000Z</time>
        <extensions>
          <ns3:TrackPointExtension>
            <ns3:atemp>15.0</ns3:atemp>
          </ns3:TrackPointExtension>
        </extensions>
      </trkpt>
      <trkpt lat="42.5664517097175121307373046875" lon="20.0516076944768428802490234375">
        <ele>2131.199951171875</ele>
        <time>2026-06-15T11:15:31.000Z</time>
        <extensions>
          <ns3:TrackPointExtension>
            <ns3:atemp>15.0</ns3:atemp>
          </ns3:TrackPointExtension>
        </extensions>
      </trkpt>
      <trkpt lat="42.56644274108111858367919921875" lon="20.0515815429389476776123046875">
        <ele>2131.39990234375</ele>
        <time>2026-06-15T11:15:32.000Z</time>
        <extensions>
          <ns3:TrackPointExtension>
            <ns3:atemp>15.0</ns3:atemp>
          </ns3:TrackPointExtension>
        </extensions>
      </trkpt>
      <trkpt lat="42.5664285756647586822509765625" lon="20.0515567325055599212646484375">
        <ele>2131.60009765625</ele>
        <time>2026-06-15T11:15:33.000Z</time>
        <extensions>
          <ns3:TrackPointExtension>
            <ns3:atemp>15.0</ns3:atemp>
          </ns3:TrackPointExtension>
        </extensions>
      </trkpt>
      <trkpt lat="42.56641491316258907318115234375" lon="20.051531083881855010986328125">
        <ele>2132</ele>
        <time>2026-06-15T11:15:34.000Z</time>
        <extensions>
          <ns3:TrackPointExtension>
            <ns3:atemp>15.0</ns3:atemp>
          </ns3:TrackPointExtension>
        </extensions>
      </trkpt>
      <trkpt lat="42.5664044357836246490478515625" lon="20.05150350742042064666748046875">
        <ele>2132.199951171875</ele>
        <time>2026-06-15T11:15:35.000Z</time>
        <extensions>
          <ns3:TrackPointExtension>
            <ns3:atemp>15.0</ns3:atemp>
          </ns3:TrackPointExtension>
        </extensions>
      </trkpt>
      <trkpt lat="42.5663973949849605560302734375" lon="20.05147651769220829010009765625">
        <ele>2132.60009765625</ele>
        <time>2026-06-15T11:15:36.000Z</time>
        <extensions>
          <ns3:TrackPointExtension>
            <ns3:atemp>15.0</ns3:atemp>
          </ns3:TrackPointExtension>
        </extensions>
      </trkpt>
      <trkpt lat="42.5663937069475650787353515625" lon="20.05145120434463024139404296875">
        <ele>2133</ele>
        <time>2026-06-15T11:15:37.000Z</time>
        <extensions>
          <ns3:TrackPointExtension>
            <ns3:atemp>15.0</ns3:atemp>
          </ns3:TrackPointExtension>
        </extensions>
      </trkpt>
      <trkpt lat="42.56638876162469387054443359375" lon="20.0514216162264347076416015625">
        <ele>2133.39990234375</ele>
        <time>2026-06-15T11:15:38.000Z</time>
        <extensions>
          <ns3:TrackPointExtension>
            <ns3:atemp>15.0</ns3:atemp>
          </ns3:TrackPointExtension>
        </extensions>
      </trkpt>
      <trkpt lat="42.566379122436046600341796875" lon="20.05140091292560100555419921875">
        <ele>2133.800048828125</ele>
        <time>2026-06-15T11:15:39.000Z</time>
        <extensions>
          <ns3:TrackPointExtension>
            <ns3:atemp>15.0</ns3:atemp>
          </ns3:TrackPointExtension>
        </extensions>
      </trkpt>
      <trkpt lat="42.566369734704494476318359375" lon="20.0513766892254352569580078125">
        <ele>2134</ele>
        <time>2026-06-15T11:15:40.000Z</time>
        <extensions>
          <ns3:TrackPointExtension>
            <ns3:atemp>15.0</ns3:atemp>
          </ns3:TrackPointExtension>
        </extensions>
      </trkpt>
      <trkpt lat="42.56635573692619800567626953125" lon="20.0513510406017303466796875">
        <ele>2134.39990234375</ele>
        <time>2026-06-15T11:15:41.000Z</time>
        <extensions>
          <ns3:TrackPointExtension>
            <ns3:atemp>15.0</ns3:atemp>
          </ns3:TrackPointExtension>
        </extensions>
      </trkpt>
      <trkpt lat="42.56634232588112354278564453125" lon="20.0513270683586597442626953125">
        <ele>2134.60009765625</ele>
        <time>2026-06-15T11:15:42.000Z</time>
        <extensions>
          <ns3:TrackPointExtension>
            <ns3:atemp>15.0</ns3:atemp>
          </ns3:TrackPointExtension>
        </extensions>
      </trkpt>
      <trkpt lat="42.56633059121668338775634765625" lon="20.05130209028720855712890625">
        <ele>2134.800048828125</ele>
        <time>2026-06-15T11:15:43.000Z</time>
        <extensions>
          <ns3:TrackPointExtension>
            <ns3:atemp>15.0</ns3:atemp>
          </ns3:TrackPointExtension>
        </extensions>
      </trkpt>
      <trkpt lat="42.56632153876125812530517578125" lon="20.0512781180441379547119140625">
        <ele>2135</ele>
        <time>2026-06-15T11:15:44.000Z</time>
        <extensions>
          <ns3:TrackPointExtension>
            <ns3:atemp>15.0</ns3:atemp>
          </ns3:TrackPointExtension>
        </extensions>
      </trkpt>
      <trkpt lat="42.56631148047745227813720703125" lon="20.0512516312301158905029296875">
        <ele>2135.199951171875</ele>
        <time>2026-06-15T11:15:45.000Z</time>
        <extensions>
          <ns3:TrackPointExtension>
            <ns3:atemp>15.0</ns3:atemp>
          </ns3:TrackPointExtension>
        </extensions>
      </trkpt>
      <trkpt lat="42.56630360148847103118896484375" lon="20.05123008973896503448486328125">
        <ele>2135.39990234375</ele>
        <time>2026-06-15T11:15:46.000Z</time>
        <extensions>
          <ns3:TrackPointExtension>
            <ns3:atemp>15.0</ns3:atemp>
          </ns3:TrackPointExtension>
        </extensions>
      </trkpt>
      <trkpt lat="42.56629287265241146087646484375" lon="20.05121014080941677093505859375">
        <ele>2135.60009765625</ele>
        <time>2026-06-15T11:15:47.000Z</time>
        <extensions>
          <ns3:TrackPointExtension>
            <ns3:atemp>15.0</ns3:atemp>
          </ns3:TrackPointExtension>
        </extensions>
      </trkpt>
      <trkpt lat="42.56628365255892276763916015625" lon="20.05118868313729763031005859375">
        <ele>2135.800048828125</ele>
        <time>2026-06-15T11:15:48.000Z</time>
        <extensions>
          <ns3:TrackPointExtension>
            <ns3:atemp>15.0</ns3:atemp>
          </ns3:TrackPointExtension>
        </extensions>
      </trkpt>
      <trkpt lat="42.56627828814089298248291015625" lon="20.05116529762744903564453125">
        <ele>2135.800048828125</ele>
        <time>2026-06-15T11:15:49.000Z</time>
        <extensions>
          <ns3:TrackPointExtension>
            <ns3:atemp>15.0</ns3:atemp>
          </ns3:TrackPointExtension>
        </extensions>
      </trkpt>
      <trkpt lat="42.56627418100833892822265625" lon="20.0511383078992366790771484375">
        <ele>2136</ele>
        <time>2026-06-15T11:15:50.000Z</time>
        <extensions>
          <ns3:TrackPointExtension>
            <ns3:atemp>15.0</ns3:atemp>
          </ns3:TrackPointExtension>
        </extensions>
      </trkpt>
      <trkpt lat="42.56626605056226253509521484375" lon="20.05111274309456348419189453125">
        <ele>2136.199951171875</ele>
        <time>2026-06-15T11:15:51.000Z</time>
        <extensions>
          <ns3:TrackPointExtension>
            <ns3:atemp>15.0</ns3:atemp>
          </ns3:TrackPointExtension>
        </extensions>
      </trkpt>
      <trkpt lat="42.5662606023252010345458984375" lon="20.0510900281369686126708984375">
        <ele>2136.60009765625</ele>
        <time>2026-06-15T11:15:52.000Z</time>
        <extensions>
          <ns3:TrackPointExtension>
            <ns3:atemp>15.0</ns3:atemp>
          </ns3:TrackPointExtension>
        </extensions>
      </trkpt>
      <trkpt lat="42.5662555731832981109619140625" lon="20.0510675646364688873291015625">
        <ele>2137</ele>
        <time>2026-06-15T11:15:53.000Z</time>
        <extensions>
          <ns3:TrackPointExtension>
            <ns3:atemp>15.0</ns3:atemp>
          </ns3:TrackPointExtension>
        </extensions>
      </trkpt>
      <trkpt lat="42.5662522204220294952392578125" lon="20.0510394014418125152587890625">
        <ele>2137.39990234375</ele>
        <time>2026-06-15T11:15:54.000Z</time>
        <extensions>
          <ns3:TrackPointExtension>
            <ns3:atemp>15.0</ns3:atemp>
          </ns3:TrackPointExtension>
        </extensions>
      </trkpt>
      <trkpt lat="42.5662441737949848175048828125" lon="20.0510162673890590667724609375">
        <ele>2137.60009765625</ele>
        <time>2026-06-15T11:15:55.000Z</time>
        <extensions>
          <ns3:TrackPointExtension>
            <ns3:atemp>15.0</ns3:atemp>
          </ns3:TrackPointExtension>
        </extensions>
      </trkpt>
      <trkpt lat="42.5662384741008281707763671875" lon="20.05099707283079624176025390625">
        <ele>2137.800048828125</ele>
        <time>2026-06-15T11:15:56.000Z</time>
        <extensions>
          <ns3:TrackPointExtension>
            <ns3:atemp>15.0</ns3:atemp>
          </ns3:TrackPointExtension>
        </extensions>
      </trkpt>
      <trkpt lat="42.566228918731212615966796875" lon="20.05097092129290103912353515625">
        <ele>2138</ele>
        <time>2026-06-15T11:15:57.000Z</time>
        <extensions>
          <ns3:TrackPointExtension>
            <ns3:atemp>15.0</ns3:atemp>
          </ns3:TrackPointExtension>
        </extensions>
      </trkpt>
      <trkpt lat="42.56622011773288249969482421875" lon="20.05094124935567378997802734375">
        <ele>2138.199951171875</ele>
        <time>2026-06-15T11:15:58.000Z</time>
        <extensions>
          <ns3:TrackPointExtension>
            <ns3:atemp>15.0</ns3:atemp>
          </ns3:TrackPointExtension>
        </extensions>
      </trkpt>
      <trkpt lat="42.5662129931151866912841796875" lon="20.050917528569698333740234375">
        <ele>2138.199951171875</ele>
        <time>2026-06-15T11:15:59.000Z</time>
        <extensions>
          <ns3:TrackPointExtension>
            <ns3:atemp>15.0</ns3:atemp>
          </ns3:TrackPointExtension>
        </extensions>
      </trkpt>
      <trkpt lat="42.5662072934210300445556640625" lon="20.0508932210505008697509765625">
        <ele>2138.199951171875</ele>
        <time>2026-06-15T11:16:00.000Z</time>
        <extensions>
          <ns3:TrackPointExtension>
            <ns3:atemp>15.0</ns3:atemp>
          </ns3:TrackPointExtension>
        </extensions>
      </trkpt>
      <trkpt lat="42.5661992467939853668212890625" lon="20.0508727692067623138427734375">
        <ele>2138.39990234375</ele>
        <time>2026-06-15T11:16:01.000Z</time>
        <extensions>
          <ns3:TrackPointExtension>
            <ns3:atemp>15.0</ns3:atemp>
          </ns3:TrackPointExtension>
        </extensions>
      </trkpt>
      <trkpt lat="42.56619145162403583526611328125" lon="20.05084452219307422637939453125">
        <ele>2138.800048828125</ele>
        <time>2026-06-15T11:16:02.000Z</time>
        <extensions>
          <ns3:TrackPointExtension>
            <ns3:atemp>15.0</ns3:atemp>
          </ns3:TrackPointExtension>
        </extensions>
      </trkpt>
      <trkpt lat="42.56618591956794261932373046875" lon="20.05081736482679843902587890625">
        <ele>2139</ele>
        <time>2026-06-15T11:16:03.000Z</time>
        <extensions>
          <ns3:TrackPointExtension>
            <ns3:atemp>15.0</ns3:atemp>
          </ns3:TrackPointExtension>
        </extensions>
      </trkpt>
      <trkpt lat="42.5661754421889781951904296875" lon="20.05079205147922039031982421875">
        <ele>2139.39990234375</ele>
        <time>2026-06-15T11:16:04.000Z</time>
        <extensions>
          <ns3:TrackPointExtension>
            <ns3:atemp>16.0</ns3:atemp>
          </ns3:TrackPointExtension>
        </extensions>
      </trkpt>
      <trkpt lat="42.56616043858230113983154296875" lon="20.0507634691894054412841796875">
        <ele>2139.800048828125</ele>
        <time>2026-06-15T11:16:05.000Z</time>
        <extensions>
          <ns3:TrackPointExtension>
            <ns3:atemp>16.0</ns3:atemp>
          </ns3:TrackPointExtension>
        </extensions>
      </trkpt>
      <trkpt lat="42.56614266894757747650146484375" lon="20.0507416762411594390869140625">
        <ele>2140.199951171875</ele>
        <time>2026-06-15T11:16:06.000Z</time>
        <extensions>
          <ns3:TrackPointExtension>
            <ns3:atemp>16.0</ns3:atemp>
          </ns3:TrackPointExtension>
        </extensions>
      </trkpt>
      <trkpt lat="42.5661219656467437744140625" lon="20.05072516389191150665283203125">
        <ele>2140.39990234375</ele>
        <time>2026-06-15T11:16:07.000Z</time>
        <extensions>
          <ns3:TrackPointExtension>
            <ns3:atemp>16.0</ns3:atemp>
          </ns3:TrackPointExtension>
        </extensions>
      </trkpt>
      <trkpt lat="42.5661053694784641265869140625" lon="20.05070454441010951995849609375">
        <ele>2140.800048828125</ele>
        <time>2026-06-15T11:16:08.000Z</time>
        <extensions>
          <ns3:TrackPointExtension>
            <ns3:atemp>16.0</ns3:atemp>
          </ns3:TrackPointExtension>
        </extensions>
      </trkpt>
      <trkpt lat="42.56608651019632816314697265625" lon="20.05068141035735607147216796875">
        <ele>2141</ele>
        <time>2026-06-15T11:16:09.000Z</time>
        <extensions>
          <ns3:TrackPointExtension>
            <ns3:atemp>16.0</ns3:atemp>
          </ns3:TrackPointExtension>
        </extensions>
      </trkpt>
      <trkpt lat="42.56606354378163814544677734375" lon="20.05066280253231525421142578125">
        <ele>2141.199951171875</ele>
        <time>2026-06-15T11:16:10.000Z</time>
        <extensions>
          <ns3:TrackPointExtension>
            <ns3:atemp>16.0</ns3:atemp>
          </ns3:TrackPointExtension>
        </extensions>
      </trkpt>
      <trkpt lat="42.56604141555726528167724609375" lon="20.05064553581178188323974609375">
        <ele>2141.199951171875</ele>
        <time>2026-06-15T11:16:11.000Z</time>
        <extensions>
          <ns3:TrackPointExtension>
            <ns3:atemp>16.0</ns3:atemp>
          </ns3:TrackPointExtension>
        </extensions>
      </trkpt>
      <trkpt lat="42.56602649576961994171142578125" lon="20.0506327114999294281005859375">
        <ele>2141.39990234375</ele>
        <time>2026-06-15T11:16:12.000Z</time>
        <extensions>
          <ns3:TrackPointExtension>
            <ns3:atemp>16.0</ns3:atemp>
          </ns3:TrackPointExtension>
        </extensions>
      </trkpt>
      <trkpt lat="42.56601308472454547882080078125" lon="20.0506125949323177337646484375">
        <ele>2141.800048828125</ele>
        <time>2026-06-15T11:16:13.000Z</time>
        <extensions>
          <ns3:TrackPointExtension>
            <ns3:atemp>16.0</ns3:atemp>
          </ns3:TrackPointExtension>
        </extensions>
      </trkpt>
      <trkpt lat="42.56599632091820240020751953125" lon="20.05058987997472286224365234375">
        <ele>2142</ele>
        <time>2026-06-15T11:16:14.000Z</time>
        <extensions>
          <ns3:TrackPointExtension>
            <ns3:atemp>16.0</ns3:atemp>
          </ns3:TrackPointExtension>
        </extensions>
      </trkpt>
      <trkpt lat="42.565982155501842498779296875" lon="20.05056858994066715240478515625">
        <ele>2142.199951171875</ele>
        <time>2026-06-15T11:16:15.000Z</time>
        <extensions>
          <ns3:TrackPointExtension>
            <ns3:atemp>16.0</ns3:atemp>
          </ns3:TrackPointExtension>
        </extensions>
      </trkpt>
      <trkpt lat="42.565964050590991973876953125" lon="20.05054998211562633514404296875">
        <ele>2142.39990234375</ele>
        <time>2026-06-15T11:16:16.000Z</time>
        <extensions>
          <ns3:TrackPointExtension>
            <ns3:atemp>16.0</ns3:atemp>
          </ns3:TrackPointExtension>
        </extensions>
      </trkpt>
      <trkpt lat="42.56594887934625148773193359375" lon="20.05052651278674602508544921875">
        <ele>2142.800048828125</ele>
        <time>2026-06-15T11:16:17.000Z</time>
        <extensions>
          <ns3:TrackPointExtension>
            <ns3:atemp>16.0</ns3:atemp>
          </ns3:TrackPointExtension>
        </extensions>
      </trkpt>
      <trkpt lat="42.56594267673790454864501953125" lon="20.0505029596388339996337890625">
        <ele>2143.199951171875</ele>
        <time>2026-06-15T11:16:18.000Z</time>
        <extensions>
          <ns3:TrackPointExtension>
            <ns3:atemp>16.0</ns3:atemp>
          </ns3:TrackPointExtension>
        </extensions>
      </trkpt>
      <trkpt lat="42.56593664176762104034423828125" lon="20.05047488026320934295654296875">
        <ele>2143.39990234375</ele>
        <time>2026-06-15T11:16:19.000Z</time>
        <extensions>
          <ns3:TrackPointExtension>
            <ns3:atemp>16.0</ns3:atemp>
          </ns3:TrackPointExtension>
        </extensions>
      </trkpt>
      <trkpt lat="42.56593764759600162506103515625" lon="20.05044822581112384796142578125">
        <ele>2143.800048828125</ele>
        <time>2026-06-15T11:16:20.000Z</time>
        <extensions>
          <ns3:TrackPointExtension>
            <ns3:atemp>16.0</ns3:atemp>
          </ns3:TrackPointExtension>
        </extensions>
      </trkpt>
      <trkpt lat="42.56594485603272914886474609375" lon="20.05043095909059047698974609375">
        <ele>2144.199951171875</ele>
        <time>2026-06-15T11:16:21.000Z</time>
        <extensions>
          <ns3:TrackPointExtension>
            <ns3:atemp>16.0</ns3:atemp>
          </ns3:TrackPointExtension>
        </extensions>
      </trkpt>
      <trkpt lat="42.56595843471586704254150390625" lon="20.05041964352130889892578125">
        <ele>2144.60009765625</ele>
        <time>2026-06-15T11:16:22.000Z</time>
        <extensions>
          <ns3:TrackPointExtension>
            <ns3:atemp>16.0</ns3:atemp>
          </ns3:TrackPointExtension>
        </extensions>
      </trkpt>
      <trkpt lat="42.5659811496734619140625" lon="20.05041469819843769073486328125">
        <ele>2144.800048828125</ele>
        <time>2026-06-15T11:16:23.000Z</time>
        <extensions>
          <ns3:TrackPointExtension>
            <ns3:atemp>16.0</ns3:atemp>
          </ns3:TrackPointExtension>
        </extensions>
      </trkpt>
      <trkpt lat="42.56600797176361083984375" lon="20.05042039789259433746337890625">
        <ele>2144.800048828125</ele>
        <time>2026-06-15T11:16:24.000Z</time>
        <extensions>
          <ns3:TrackPointExtension>
            <ns3:atemp>16.0</ns3:atemp>
          </ns3:TrackPointExtension>
        </extensions>
      </trkpt>
      <trkpt lat="42.566032446920871734619140625" lon="20.0504355691373348236083984375">
        <ele>2145</ele>
        <time>2026-06-15T11:16:25.000Z</time>
        <extensions>
          <ns3:TrackPointExtension>
            <ns3:atemp>16.0</ns3:atemp>
          </ns3:TrackPointExtension>
        </extensions>
      </trkpt>
      <trkpt lat="42.56605868227779865264892578125" lon="20.05045275203883647918701171875">
        <ele>2145.199951171875</ele>
        <time>2026-06-15T11:16:26.000Z</time>
        <extensions>
          <ns3:TrackPointExtension>
            <ns3:atemp>16.0</ns3:atemp>
          </ns3:TrackPointExtension>
        </extensions>
      </trkpt>
      <trkpt lat="42.5660849176347255706787109375" lon="20.0504697673022747039794921875">
        <ele>2145.39990234375</ele>
        <time>2026-06-15T11:16:27.000Z</time>
        <extensions>
          <ns3:TrackPointExtension>
            <ns3:atemp>16.0</ns3:atemp>
          </ns3:TrackPointExtension>
        </extensions>
      </trkpt>
      <trkpt lat="42.5661103986203670501708984375" lon="20.0504851900041103363037109375">
        <ele>2145.800048828125</ele>
        <time>2026-06-15T11:16:28.000Z</time>
        <extensions>
          <ns3:TrackPointExtension>
            <ns3:atemp>16.0</ns3:atemp>
          </ns3:TrackPointExtension>
        </extensions>
      </trkpt>
      <trkpt lat="42.5661325268447399139404296875" lon="20.0505026243627071380615234375">
        <ele>2146</ele>
        <time>2026-06-15T11:16:29.000Z</time>
        <extensions>
          <ns3:TrackPointExtension>
            <ns3:atemp>16.0</ns3:atemp>
          </ns3:TrackPointExtension>
        </extensions>
      </trkpt>
      <trkpt lat="42.56615591235458850860595703125" lon="20.050523914396762847900390625">
        <ele>2146.199951171875</ele>
        <time>2026-06-15T11:16:30.000Z</time>
        <extensions>
          <ns3:TrackPointExtension>
            <ns3:atemp>16.0</ns3:atemp>
          </ns3:TrackPointExtension>
        </extensions>
      </trkpt>
      <trkpt lat="42.56617762148380279541015625" lon="20.0505411811172962188720703125">
        <ele>2146.39990234375</ele>
        <time>2026-06-15T11:16:31.000Z</time>
        <extensions>
          <ns3:TrackPointExtension>
            <ns3:atemp>16.0</ns3:atemp>
          </ns3:TrackPointExtension>
        </extensions>
      </trkpt>
      <trkpt lat="42.56619815714657306671142578125" lon="20.05055400542914867401123046875">
        <ele>2146.60009765625</ele>
        <time>2026-06-15T11:16:32.000Z</time>
        <extensions>
          <ns3:TrackPointExtension>
            <ns3:atemp>16.0</ns3:atemp>
          </ns3:TrackPointExtension>
        </extensions>
      </trkpt>
      <trkpt lat="42.56621944718062877655029296875" lon="20.05055635236203670501708984375">
        <ele>2146.60009765625</ele>
        <time>2026-06-15T11:16:33.000Z</time>
        <extensions>
          <ns3:TrackPointExtension>
            <ns3:atemp>16.0</ns3:atemp>
          </ns3:TrackPointExtension>
        </extensions>
      </trkpt>
      <trkpt lat="42.56623922847211360931396484375" lon="20.05055031739175319671630859375">
        <ele>2146.800048828125</ele>
        <time>2026-06-15T11:16:34.000Z</time>
        <extensions>
          <ns3:TrackPointExtension>
            <ns3:atemp>16.0</ns3:atemp>
          </ns3:TrackPointExtension>
        </extensions>
      </trkpt>
      <trkpt lat="42.5662569142878055572509765625" lon="20.05053673870861530303955078125">
        <ele>2146.800048828125</ele>
        <time>2026-06-15T11:16:35.000Z</time>
        <extensions>
          <ns3:TrackPointExtension>
            <ns3:atemp>16.0</ns3:atemp>
          </ns3:TrackPointExtension>
        </extensions>
      </trkpt>
      <trkpt lat="42.5662686489522457122802734375" lon="20.050523579120635986328125">
        <ele>2146.800048828125</ele>
        <time>2026-06-15T11:16:36.000Z</time>
        <extensions>
          <ns3:TrackPointExtension>
            <ns3:atemp>16.0</ns3:atemp>
          </ns3:TrackPointExtension>
        </extensions>
      </trkpt>
      <trkpt lat="42.56627954542636871337890625" lon="20.05051477812230587005615234375">
        <ele>2147</ele>
        <time>2026-06-15T11:16:37.000Z</time>
        <extensions>
          <ns3:TrackPointExtension>
            <ns3:atemp>16.0</ns3:atemp>
          </ns3:TrackPointExtension>
        </extensions>
      </trkpt>
      <trkpt lat="42.56628700532019138336181640625" lon="20.0505049712955951690673828125">
        <ele>2147</ele>
        <time>2026-06-15T11:16:38.000Z</time>
        <extensions>
          <ns3:TrackPointExtension>
            <ns3:atemp>16.0</ns3:atemp>
          </ns3:TrackPointExtension>
        </extensions>
      </trkpt>
      <trkpt lat="42.56628951989114284515380859375" lon="20.0504815019667148590087890625">
        <ele>2147.199951171875</ele>
        <time>2026-06-15T11:16:39.000Z</time>
        <extensions>
          <ns3:TrackPointExtension>
            <ns3:atemp>16.0</ns3:atemp>
          </ns3:TrackPointExtension>
        </extensions>
      </trkpt>
      <trkpt lat="42.56627946160733699798583984375" lon="20.05046465434134006500244140625">
        <ele>2147.39990234375</ele>
        <time>2026-06-15T11:16:40.000Z</time>
        <extensions>
          <ns3:TrackPointExtension>
            <ns3:atemp>16.0</ns3:atemp>
          </ns3:TrackPointExtension>
        </extensions>
      </trkpt>
      <trkpt lat="42.5662673078477382659912109375" lon="20.05044537596404552459716796875">
        <ele>2147.60009765625</ele>
        <time>2026-06-15T11:16:41.000Z</time>
        <extensions>
          <ns3:TrackPointExtension>
            <ns3:atemp>16.0</ns3:atemp>
          </ns3:TrackPointExtension>
        </extensions>
      </trkpt>
      <trkpt lat="42.56625683046877384185791015625" lon="20.05042232573032379150390625">
        <ele>2147.800048828125</ele>
        <time>2026-06-15T11:16:42.000Z</time>
        <extensions>
          <ns3:TrackPointExtension>
            <ns3:atemp>16.0</ns3:atemp>
          </ns3:TrackPointExtension>
        </extensions>
      </trkpt>
      <trkpt lat="42.56624476052820682525634765625" lon="20.05039952695369720458984375">
        <ele>2148.199951171875</ele>
        <time>2026-06-15T11:16:43.000Z</time>
        <extensions>
          <ns3:TrackPointExtension>
            <ns3:atemp>16.0</ns3:atemp>
          </ns3:TrackPointExtension>
        </extensions>
      </trkpt>
      <trkpt lat="42.566232942044734954833984375" lon="20.05037580616772174835205078125">
        <ele>2148.39990234375</ele>
        <time>2026-06-15T11:16:44.000Z</time>
        <extensions>
          <ns3:TrackPointExtension>
            <ns3:atemp>16.0</ns3:atemp>
          </ns3:TrackPointExtension>
        </extensions>
      </trkpt>
      <trkpt lat="42.56621995009481906890869140625" lon="20.05036063492298126220703125">
        <ele>2148.60009765625</ele>
        <time>2026-06-15T11:16:45.000Z</time>
        <extensions>
          <ns3:TrackPointExtension>
            <ns3:atemp>16.0</ns3:atemp>
          </ns3:TrackPointExtension>
        </extensions>
      </trkpt>
      <trkpt lat="42.5662059523165225982666015625" lon="20.050346888601779937744140625">
        <ele>2148.800048828125</ele>
        <time>2026-06-15T11:16:46.000Z</time>
        <extensions>
          <ns3:TrackPointExtension>
            <ns3:atemp>16.0</ns3:atemp>
          </ns3:TrackPointExtension>
        </extensions>
      </trkpt>
      <trkpt lat="42.5661912001669406890869140625" lon="20.05033649504184722900390625">
        <ele>2149</ele>
        <time>2026-06-15T11:16:47.000Z</time>
        <extensions>
          <ns3:TrackPointExtension>
            <ns3:atemp>16.0</ns3:atemp>
          </ns3:TrackPointExtension>
        </extensions>
      </trkpt>
      <trkpt lat="42.56618139334022998809814453125" lon="20.0503239221870899200439453125">
        <ele>2149.199951171875</ele>
        <time>2026-06-15T11:16:48.000Z</time>
        <extensions>
          <ns3:TrackPointExtension>
            <ns3:atemp>16.0</ns3:atemp>
          </ns3:TrackPointExtension>
        </extensions>
      </trkpt>
      <trkpt lat="42.566174603998661041259765625" lon="20.05030942149460315704345703125">
        <ele>2149.60009765625</ele>
        <time>2026-06-15T11:16:49.000Z</time>
        <extensions>
          <ns3:TrackPointExtension>
            <ns3:atemp>16.0</ns3:atemp>
          </ns3:TrackPointExtension>
        </extensions>
      </trkpt>
      <trkpt lat="42.56616731174290180206298828125" lon="20.050289891660213470458984375">
        <ele>2149.800048828125</ele>
        <time>2026-06-15T11:16:50.000Z</time>
        <extensions>
          <ns3:TrackPointExtension>
            <ns3:atemp>16.0</ns3:atemp>
          </ns3:TrackPointExtension>
        </extensions>
      </trkpt>
      <trkpt lat="42.56615758873522281646728515625" lon="20.05027220584452152252197265625">
        <ele>2150</ele>
        <time>2026-06-15T11:16:51.000Z</time>
        <extensions>
          <ns3:TrackPointExtension>
            <ns3:atemp>16.0</ns3:atemp>
          </ns3:TrackPointExtension>
        </extensions>
      </trkpt>
      <trkpt lat="42.56614677608013153076171875" lon="20.05025242455303668975830078125">
        <ele>2150.199951171875</ele>
        <time>2026-06-15T11:16:52.000Z</time>
        <extensions>
          <ns3:TrackPointExtension>
            <ns3:atemp>16.0</ns3:atemp>
          </ns3:TrackPointExtension>
        </extensions>
      </trkpt>
      <trkpt lat="42.56613462232053279876708984375" lon="20.05023934878408908843994140625">
        <ele>2150.39990234375</ele>
        <time>2026-06-15T11:16:53.000Z</time>
        <extensions>
          <ns3:TrackPointExtension>
            <ns3:atemp>16.0</ns3:atemp>
          </ns3:TrackPointExtension>
        </extensions>
      </trkpt>
      <trkpt lat="42.566121630370616912841796875" lon="20.050220824778079986572265625">
        <ele>2150.39990234375</ele>
        <time>2026-06-15T11:16:54.000Z</time>
        <extensions>
          <ns3:TrackPointExtension>
            <ns3:atemp>16.0</ns3:atemp>
          </ns3:TrackPointExtension>
        </extensions>
      </trkpt>
      <trkpt lat="42.56611634977161884307861328125" lon="20.05020531825721263885498046875">
        <ele>2150.60009765625</ele>
        <time>2026-06-15T11:16:55.000Z</time>
        <extensions>
          <ns3:TrackPointExtension>
            <ns3:atemp>16.0</ns3:atemp>
          </ns3:TrackPointExtension>
        </extensions>
      </trkpt>
      <trkpt lat="42.5661120750010013580322265625" lon="20.0501847825944423675537109375">
        <ele>2150.800048828125</ele>
        <time>2026-06-15T11:16:56.000Z</time>
        <extensions>
          <ns3:TrackPointExtension>
            <ns3:atemp>16.0</ns3:atemp>
          </ns3:TrackPointExtension>
        </extensions>
      </trkpt>
      <trkpt lat="42.56610478274524211883544921875" lon="20.05016642622649669647216796875">
        <ele>2151</ele>
        <time>2026-06-15T11:16:57.000Z</time>
        <extensions>
          <ns3:TrackPointExtension>
            <ns3:atemp>16.0</ns3:atemp>
          </ns3:TrackPointExtension>
        </extensions>
      </trkpt>
      <trkpt lat="42.56609505973756313323974609375" lon="20.05014739930629730224609375">
        <ele>2151.39990234375</ele>
        <time>2026-06-15T11:16:58.000Z</time>
        <extensions>
          <ns3:TrackPointExtension>
            <ns3:atemp>16.0</ns3:atemp>
          </ns3:TrackPointExtension>
        </extensions>
      </trkpt>
      <trkpt lat="42.56608433090150356292724609375" lon="20.05013122223317623138427734375">
        <ele>2151.60009765625</ele>
        <time>2026-06-15T11:16:59.000Z</time>
        <extensions>
          <ns3:TrackPointExtension>
            <ns3:atemp>16.0</ns3:atemp>
          </ns3:TrackPointExtension>
        </extensions>
      </trkpt>
      <trkpt lat="42.5660721771419048309326171875" lon="20.05011412315070629119873046875">
        <ele>2152</ele>
        <time>2026-06-15T11:17:00.000Z</time>
        <extensions>
          <ns3:TrackPointExtension>
            <ns3:atemp>16.0</ns3:atemp>
          </ns3:TrackPointExtension>
        </extensions>
      </trkpt>
      <trkpt lat="42.5660631246864795684814453125" lon="20.05009601823985576629638671875">
        <ele>2152.39990234375</ele>
        <time>2026-06-15T11:17:01.000Z</time>
        <extensions>
          <ns3:TrackPointExtension>
            <ns3:atemp>16.0</ns3:atemp>
          </ns3:TrackPointExtension>
        </extensions>
      </trkpt>
      <trkpt lat="42.56605130620300769805908203125" lon="20.05008302628993988037109375">
        <ele>2152.60009765625</ele>
        <time>2026-06-15T11:17:02.000Z</time>
        <extensions>
          <ns3:TrackPointExtension>
            <ns3:atemp>16.0</ns3:atemp>
          </ns3:TrackPointExtension>
        </extensions>
      </trkpt>
      <trkpt lat="42.566037811338901519775390625" lon="20.0500691123306751251220703125">
        <ele>2152.800048828125</ele>
        <time>2026-06-15T11:17:03.000Z</time>
        <extensions>
          <ns3:TrackPointExtension>
            <ns3:atemp>16.0</ns3:atemp>
          </ns3:TrackPointExtension>
        </extensions>
      </trkpt>
      <trkpt lat="42.5660198740661144256591796875" lon="20.0500557012856006622314453125">
        <ele>2153</ele>
        <time>2026-06-15T11:17:04.000Z</time>
        <extensions>
          <ns3:TrackPointExtension>
            <ns3:atemp>16.0</ns3:atemp>
          </ns3:TrackPointExtension>
        </extensions>
      </trkpt>
      <trkpt lat="42.56600487045943737030029296875" lon="20.0500486604869365692138671875">
        <ele>2153.199951171875</ele>
        <time>2026-06-15T11:17:05.000Z</time>
        <extensions>
          <ns3:TrackPointExtension>
            <ns3:atemp>16.0</ns3:atemp>
          </ns3:TrackPointExtension>
        </extensions>
      </trkpt>
      <trkpt lat="42.56599179469048976898193359375" lon="20.0500577129423618316650390625">
        <ele>2153.39990234375</ele>
        <time>2026-06-15T11:17:06.000Z</time>
        <extensions>
          <ns3:TrackPointExtension>
            <ns3:atemp>16.0</ns3:atemp>
          </ns3:TrackPointExtension>
        </extensions>
      </trkpt>
      <trkpt lat="42.5659752823412418365478515625" lon="20.050070621073246002197265625">
        <ele>2153.199951171875</ele>
        <time>2026-06-15T11:17:07.000Z</time>
        <extensions>
          <ns3:TrackPointExtension>
            <ns3:atemp>16.0</ns3:atemp>
          </ns3:TrackPointExtension>
        </extensions>
      </trkpt>
      <trkpt lat="42.5659529864788055419921875" lon="20.05009241402149200439453125">
        <ele>2153.199951171875</ele>
        <time>2026-06-15T11:17:08.000Z</time>
        <extensions>
          <ns3:TrackPointExtension>
            <ns3:atemp>16.0</ns3:atemp>
          </ns3:TrackPointExtension>
        </extensions>
      </trkpt>
      <trkpt lat="42.56593446247279644012451171875" lon="20.0501157157123088836669921875">
        <ele>2152.800048828125</ele>
        <time>2026-06-15T11:17:09.000Z</time>
        <extensions>
          <ns3:TrackPointExtension>
            <ns3:atemp>16.0</ns3:atemp>
          </ns3:TrackPointExtension>
        </extensions>
      </trkpt>
      <trkpt lat="42.56591971032321453094482421875" lon="20.0501494109630584716796875">
        <ele>2152.39990234375</ele>
        <time>2026-06-15T11:17:10.000Z</time>
        <extensions>
          <ns3:TrackPointExtension>
            <ns3:atemp>16.0</ns3:atemp>
          </ns3:TrackPointExtension>
        </extensions>
      </trkpt>
      <trkpt lat="42.5659020245075225830078125" lon="20.05018084309995174407958984375">
        <ele>2151.800048828125</ele>
        <time>2026-06-15T11:17:11.000Z</time>
        <extensions>
          <ns3:TrackPointExtension>
            <ns3:atemp>16.0</ns3:atemp>
          </ns3:TrackPointExtension>
        </extensions>
      </trkpt>
      <trkpt lat="42.56589020602405071258544921875" lon="20.05021420307457447052001953125">
        <ele>2151</ele>
        <time>2026-06-15T11:17:12.000Z</time>
        <extensions>
          <ns3:TrackPointExtension>
            <ns3:atemp>16.0</ns3:atemp>
          </ns3:TrackPointExtension>
        </extensions>
      </trkpt>
      <trkpt lat="42.5658733583986759185791015625" lon="20.0502498261630535125732421875">
        <ele>2150.39990234375</ele>
        <time>2026-06-15T11:17:13.000Z</time>
        <extensions>
          <ns3:TrackPointExtension>
            <ns3:atemp>16.0</ns3:atemp>
          </ns3:TrackPointExtension>
        </extensions>
      </trkpt>
      <trkpt lat="42.5658455304801464080810546875" lon="20.05028762854635715484619140625">
        <ele>2149.39990234375</ele>
        <time>2026-06-15T11:17:14.000Z</time>
        <extensions>
          <ns3:TrackPointExtension>
            <ns3:atemp>16.0</ns3:atemp>
          </ns3:TrackPointExtension>
        </extensions>
      </trkpt>
      <trkpt lat="42.5658237375319004058837890625" lon="20.0503162108361721038818359375">
        <ele>2148.800048828125</ele>
        <time>2026-06-15T11:17:15.000Z</time>
        <extensions>
          <ns3:TrackPointExtension>
            <ns3:atemp>16.0</ns3:atemp>
          </ns3:TrackPointExtension>
        </extensions>
      </trkpt>
      <trkpt lat="42.56580906920135021209716796875" lon="20.0503406859934329986572265625">
        <ele>2148.199951171875</ele>
        <time>2026-06-15T11:17:16.000Z</time>
        <extensions>
          <ns3:TrackPointExtension>
            <ns3:atemp>16.0</ns3:atemp>
          </ns3:TrackPointExtension>
        </extensions>
      </trkpt>
      <trkpt lat="42.5657962448894977569580078125" lon="20.0503728725016117095947265625">
        <ele>2147.60009765625</ele>
        <time>2026-06-15T11:17:17.000Z</time>
        <extensions>
          <ns3:TrackPointExtension>
            <ns3:atemp>16.0</ns3:atemp>
          </ns3:TrackPointExtension>
        </extensions>
      </trkpt>
      <trkpt lat="42.5657858513295650482177734375" lon="20.05040883086621761322021484375">
        <ele>2147.199951171875</ele>
        <time>2026-06-15T11:17:18.000Z</time>
        <extensions>
          <ns3:TrackPointExtension>
            <ns3:atemp>16.0</ns3:atemp>
          </ns3:TrackPointExtension>
        </extensions>
      </trkpt>
      <trkpt lat="42.56577788852155208587646484375" lon="20.05044554360210895538330078125">
        <ele>2147</ele>
        <time>2026-06-15T11:17:19.000Z</time>
        <extensions>
          <ns3:TrackPointExtension>
            <ns3:atemp>16.0</ns3:atemp>
          </ns3:TrackPointExtension>
        </extensions>
      </trkpt>
      <trkpt lat="42.56576464511454105377197265625" lon="20.0504841841757297515869140625">
        <ele>2146.800048828125</ele>
        <time>2026-06-15T11:17:20.000Z</time>
        <extensions>
          <ns3:TrackPointExtension>
            <ns3:atemp>16.0</ns3:atemp>
          </ns3:TrackPointExtension>
        </extensions>
      </trkpt>
      <trkpt lat="42.5657410919666290283203125" lon="20.05051377229392528533935546875">
        <ele>2146.60009765625</ele>
        <time>2026-06-15T11:17:21.000Z</time>
        <extensions>
          <ns3:TrackPointExtension>
            <ns3:atemp>16.0</ns3:atemp>
          </ns3:TrackPointExtension>
        </extensions>
      </trkpt>
      <trkpt lat="42.5657094083726406097412109375" lon="20.05053103901445865631103515625">
        <ele>2146.39990234375</ele>
        <time>2026-06-15T11:17:22.000Z</time>
        <extensions>
          <ns3:TrackPointExtension>
            <ns3:atemp>16.0</ns3:atemp>
          </ns3:TrackPointExtension>
        </extensions>
      </trkpt>
      <trkpt lat="42.56568334065377712249755859375" lon="20.0505395047366619110107421875">
        <ele>2146.199951171875</ele>
        <time>2026-06-15T11:17:23.000Z</time>
        <extensions>
          <ns3:TrackPointExtension>
            <ns3:atemp>16.0</ns3:atemp>
          </ns3:TrackPointExtension>
        </extensions>
      </trkpt>
      <trkpt lat="42.5656708516180515289306640625" lon="20.05054914392530918121337890625">
        <ele>2145.800048828125</ele>
        <time>2026-06-15T11:17:24.000Z</time>
        <extensions>
          <ns3:TrackPointExtension>
            <ns3:atemp>16.0</ns3:atemp>
          </ns3:TrackPointExtension>
        </extensions>
      </trkpt>
      <trkpt lat="42.56565853022038936614990234375" lon="20.05056590773165225982666015625">
        <ele>2145.60009765625</ele>
        <time>2026-06-15T11:17:25.000Z</time>
        <extensions>
          <ns3:TrackPointExtension>
            <ns3:atemp>16.0</ns3:atemp>
          </ns3:TrackPointExtension>
        </extensions>
      </trkpt>
      <trkpt lat="42.56564729847013950347900390625" lon="20.0505864433944225311279296875">
        <ele>2145.39990234375</ele>
        <time>2026-06-15T11:17:26.000Z</time>
        <extensions>
          <ns3:TrackPointExtension>
            <ns3:atemp>16.0</ns3:atemp>
          </ns3:TrackPointExtension>
        </extensions>
      </trkpt>
      <trkpt lat="42.56563338451087474822998046875" lon="20.050606392323970794677734375">
        <ele>2145.39990234375</ele>
        <time>2026-06-15T11:17:27.000Z</time>
        <extensions>
          <ns3:TrackPointExtension>
            <ns3:atemp>16.0</ns3:atemp>
          </ns3:TrackPointExtension>
        </extensions>
      </trkpt>
      <trkpt lat="42.565619386732578277587890625" lon="20.0506209768354892730712890625">
        <ele>2145.39990234375</ele>
        <time>2026-06-15T11:17:28.000Z</time>
        <extensions>
          <ns3:TrackPointExtension>
            <ns3:atemp>16.0</ns3:atemp>
          </ns3:TrackPointExtension>
        </extensions>
      </trkpt>
      <trkpt lat="42.5656034611165523529052734375" lon="20.05063530988991260528564453125">
        <ele>2145.39990234375</ele>
        <time>2026-06-15T11:17:29.000Z</time>
        <extensions>
          <ns3:TrackPointExtension>
            <ns3:atemp>16.0</ns3:atemp>
          </ns3:TrackPointExtension>
        </extensions>
      </trkpt>
      <trkpt lat="42.5655903853476047515869140625" lon="20.0506538338959217071533203125">
        <ele>2145.199951171875</ele>
        <time>2026-06-15T11:17:30.000Z</time>
        <extensions>
          <ns3:TrackPointExtension>
            <ns3:atemp>16.0</ns3:atemp>
          </ns3:TrackPointExtension>
        </extensions>
      </trkpt>
      <trkpt lat="42.5655702687799930572509765625" lon="20.05066514946520328521728515625">
        <ele>2145.199951171875</ele>
        <time>2026-06-15T11:17:31.000Z</time>
        <extensions>
          <ns3:TrackPointExtension>
            <ns3:atemp>16.0</ns3:atemp>
          </ns3:TrackPointExtension>
        </extensions>
      </trkpt>
      <trkpt lat="42.56555308587849140167236328125" lon="20.0506724417209625244140625">
        <ele>2145</ele>
        <time>2026-06-15T11:17:32.000Z</time>
        <extensions>
          <ns3:TrackPointExtension>
            <ns3:atemp>16.0</ns3:atemp>
          </ns3:TrackPointExtension>
        </extensions>
      </trkpt>
      <trkpt lat="42.56553414277732372283935546875" lon="20.0506769679486751556396484375">
        <ele>2145.199951171875</ele>
        <time>2026-06-15T11:17:33.000Z</time>
        <extensions>
          <ns3:TrackPointExtension>
            <ns3:atemp>16.0</ns3:atemp>
          </ns3:TrackPointExtension>
        </extensions>
      </trkpt>
      <trkpt lat="42.56551134400069713592529296875" lon="20.0506813265383243560791015625">
        <ele>2145.199951171875</ele>
        <time>2026-06-15T11:17:34.000Z</time>
        <extensions>
          <ns3:TrackPointExtension>
            <ns3:atemp>16.0</ns3:atemp>
          </ns3:TrackPointExtension>
        </extensions>
      </trkpt>
      <trkpt lat="42.56549508310854434967041015625" lon="20.0506870262324810028076171875">
        <ele>2145.39990234375</ele>
        <time>2026-06-15T11:17:35.000Z</time>
        <extensions>
          <ns3:TrackPointExtension>
            <ns3:atemp>16.0</ns3:atemp>
          </ns3:TrackPointExtension>
        </extensions>
      </trkpt>
      <trkpt lat="42.5654784031212329864501953125" lon="20.0506923906505107879638671875">
        <ele>2145.60009765625</ele>
        <time>2026-06-15T11:17:36.000Z</time>
        <extensions>
          <ns3:TrackPointExtension>
            <ns3:atemp>16.0</ns3:atemp>
          </ns3:TrackPointExtension>
        </extensions>
      </trkpt>
      <trkpt lat="42.56545786745846271514892578125" lon="20.0506977550685405731201171875">
        <ele>2145.800048828125</ele>
        <time>2026-06-15T11:17:37.000Z</time>
        <extensions>
          <ns3:TrackPointExtension>
            <ns3:atemp>16.0</ns3:atemp>
          </ns3:TrackPointExtension>
        </extensions>
      </trkpt>
      <trkpt lat="42.56543942727148532867431640625" lon="20.05070663988590240478515625">
        <ele>2146.199951171875</ele>
        <time>2026-06-15T11:17:38.000Z</time>
        <extensions>
          <ns3:TrackPointExtension>
            <ns3:atemp>16.0</ns3:atemp>
          </ns3:TrackPointExtension>
        </extensions>
      </trkpt>
      <trkpt lat="42.56542299874126911163330078125" lon="20.0507111661136150360107421875">
        <ele>2146.60009765625</ele>
        <time>2026-06-15T11:17:39.000Z</time>
        <extensions>
          <ns3:TrackPointExtension>
            <ns3:atemp>16.0</ns3:atemp>
          </ns3:TrackPointExtension>
        </extensions>
      </trkpt>
      <trkpt lat="42.5654046423733234405517578125" lon="20.05071200430393218994140625">
        <ele>2147</ele>
        <time>2026-06-15T11:17:40.000Z</time>
        <extensions>
          <ns3:TrackPointExtension>
            <ns3:atemp>16.0</ns3:atemp>
          </ns3:TrackPointExtension>
        </extensions>
      </trkpt>
      <trkpt lat="42.56539014168083667755126953125" lon="20.05071066319942474365234375">
        <ele>2147.199951171875</ele>
        <time>2026-06-15T11:17:41.000Z</time>
        <extensions>
          <ns3:TrackPointExtension>
            <ns3:atemp>16.0</ns3:atemp>
          </ns3:TrackPointExtension>
        </extensions>
      </trkpt>
      <trkpt lat="42.56537421606481075286865234375" lon="20.0507126748561859130859375">
        <ele>2147.39990234375</ele>
        <time>2026-06-15T11:17:42.000Z</time>
        <extensions>
          <ns3:TrackPointExtension>
            <ns3:atemp>16.0</ns3:atemp>
          </ns3:TrackPointExtension>
        </extensions>
      </trkpt>
      <trkpt lat="42.56535711698234081268310546875" lon="20.05071124993264675140380859375">
        <ele>2147.800048828125</ele>
        <time>2026-06-15T11:17:43.000Z</time>
        <extensions>
          <ns3:TrackPointExtension>
            <ns3:atemp>16.0</ns3:atemp>
          </ns3:TrackPointExtension>
        </extensions>
      </trkpt>
      <trkpt lat="42.56534119136631488800048828125" lon="20.05071024410426616668701171875">
        <ele>2148</ele>
        <time>2026-06-15T11:17:44.000Z</time>
        <extensions>
          <ns3:TrackPointExtension>
            <ns3:atemp>16.0</ns3:atemp>
          </ns3:TrackPointExtension>
        </extensions>
      </trkpt>
      <trkpt lat="42.56532861851155757904052734375" lon="20.05071066319942474365234375">
        <ele>2148.39990234375</ele>
        <time>2026-06-15T11:17:45.000Z</time>
        <extensions>
          <ns3:TrackPointExtension>
            <ns3:atemp>16.0</ns3:atemp>
          </ns3:TrackPointExtension>
        </extensions>
      </trkpt>
      <trkpt lat="42.5653114356100559234619140625" lon="20.05070957355201244354248046875">
        <ele>2148.60009765625</ele>
        <time>2026-06-15T11:17:46.000Z</time>
        <extensions>
          <ns3:TrackPointExtension>
            <ns3:atemp>16.0</ns3:atemp>
          </ns3:TrackPointExtension>
        </extensions>
      </trkpt>
      <trkpt lat="42.5652936659753322601318359375" lon="20.05070806480944156646728515625">
        <ele>2149</ele>
        <time>2026-06-15T11:17:47.000Z</time>
        <extensions>
          <ns3:TrackPointExtension>
            <ns3:atemp>16.0</ns3:atemp>
          </ns3:TrackPointExtension>
        </extensions>
      </trkpt>
      <trkpt lat="42.5652836076915264129638671875" lon="20.05069859325885772705078125">
        <ele>2149.199951171875</ele>
        <time>2026-06-15T11:17:48.000Z</time>
        <extensions>
          <ns3:TrackPointExtension>
            <ns3:atemp>16.0</ns3:atemp>
          </ns3:TrackPointExtension>
        </extensions>
      </trkpt>
      <trkpt lat="42.56528369151055812835693359375" lon="20.05068543367087841033935546875">
        <ele>2149.60009765625</ele>
        <time>2026-06-15T11:17:49.000Z</time>
        <extensions>
          <ns3:TrackPointExtension>
            <ns3:atemp>16.0</ns3:atemp>
          </ns3:TrackPointExtension>
        </extensions>
      </trkpt>
      <trkpt lat="42.565286792814731597900390625" lon="20.0506729446351528167724609375">
        <ele>2150</ele>
        <time>2026-06-15T11:17:50.000Z</time>
        <extensions>
          <ns3:TrackPointExtension>
            <ns3:atemp>16.0</ns3:atemp>
          </ns3:TrackPointExtension>
        </extensions>
      </trkpt>
      <trkpt lat="42.5652866251766681671142578125" lon="20.0506521575152873992919921875">
        <ele>2150.39990234375</ele>
        <time>2026-06-15T11:17:51.000Z</time>
        <extensions>
          <ns3:TrackPointExtension>
            <ns3:atemp>16.0</ns3:atemp>
          </ns3:TrackPointExtension>
        </extensions>
      </trkpt>
      <trkpt lat="42.56528444588184356689453125" lon="20.05063380114734172821044921875">
        <ele>2150.800048828125</ele>
        <time>2026-06-15T11:17:52.000Z</time>
        <extensions>
          <ns3:TrackPointExtension>
            <ns3:atemp>16.0</ns3:atemp>
          </ns3:TrackPointExtension>
        </extensions>
      </trkpt>
      <trkpt lat="42.5652839429676532745361328125" lon="20.050614438951015472412109375">
        <ele>2151.39990234375</ele>
        <time>2026-06-15T11:17:53.000Z</time>
        <extensions>
          <ns3:TrackPointExtension>
            <ns3:atemp>16.0</ns3:atemp>
          </ns3:TrackPointExtension>
        </extensions>
      </trkpt>
      <trkpt lat="42.5652805902063846588134765625" lon="20.0505934841930866241455078125">
        <ele>2151.800048828125</ele>
        <time>2026-06-15T11:17:54.000Z</time>
        <extensions>
          <ns3:TrackPointExtension>
            <ns3:atemp>16.0</ns3:atemp>
          </ns3:TrackPointExtension>
        </extensions>
      </trkpt>
      <trkpt lat="42.56527497433125972747802734375" lon="20.05057361908257007598876953125">
        <ele>2152.39990234375</ele>
        <time>2026-06-15T11:17:55.000Z</time>
        <extensions>
          <ns3:TrackPointExtension>
            <ns3:atemp>16.0</ns3:atemp>
          </ns3:TrackPointExtension>
        </extensions>
      </trkpt>
      <trkpt lat="42.5652708671987056732177734375" lon="20.0505502335727214813232421875">
        <ele>2153.199951171875</ele>
        <time>2026-06-15T11:17:56.000Z</time>
        <extensions>
          <ns3:TrackPointExtension>
            <ns3:atemp>16.0</ns3:atemp>
          </ns3:TrackPointExtension>
        </extensions>
      </trkpt>
      <trkpt lat="42.56526843644678592681884765625" lon="20.050528608262538909912109375">
        <ele>2154</ele>
        <time>2026-06-15T11:17:57.000Z</time>
        <extensions>
          <ns3:TrackPointExtension>
            <ns3:atemp>16.0</ns3:atemp>
          </ns3:TrackPointExtension>
        </extensions>
      </trkpt>
      <trkpt lat="42.565266005694866180419921875" lon="20.05050949752330780029296875">
        <ele>2154.39990234375</ele>
        <time>2026-06-15T11:17:58.000Z</time>
        <extensions>
          <ns3:TrackPointExtension>
            <ns3:atemp>16.0</ns3:atemp>
          </ns3:TrackPointExtension>
        </extensions>
      </trkpt>
      <trkpt lat="42.56526357494294643402099609375" lon="20.0504888780415058135986328125">
        <ele>2154.800048828125</ele>
        <time>2026-06-15T11:17:59.000Z</time>
        <extensions>
          <ns3:TrackPointExtension>
            <ns3:atemp>16.0</ns3:atemp>
          </ns3:TrackPointExtension>
        </extensions>
      </trkpt>
      <trkpt lat="42.5652641616761684417724609375" lon="20.05046700127422809600830078125">
        <ele>2155</ele>
        <time>2026-06-15T11:18:00.000Z</time>
        <extensions>
          <ns3:TrackPointExtension>
            <ns3:atemp>16.0</ns3:atemp>
          </ns3:TrackPointExtension>
        </extensions>
      </trkpt>
      <trkpt lat="42.56526340730488300323486328125" lon="20.05044302903115749359130859375">
        <ele>2155.199951171875</ele>
        <time>2026-06-15T11:18:01.000Z</time>
        <extensions>
          <ns3:TrackPointExtension>
            <ns3:atemp>16.0</ns3:atemp>
          </ns3:TrackPointExtension>
        </extensions>
      </trkpt>
      <trkpt lat="42.565266005694866180419921875" lon="20.05042056553065776824951171875">
        <ele>2155.39990234375</ele>
        <time>2026-06-15T11:18:02.000Z</time>
        <extensions>
          <ns3:TrackPointExtension>
            <ns3:atemp>16.0</ns3:atemp>
          </ns3:TrackPointExtension>
        </extensions>
      </trkpt>
      <trkpt lat="42.56526592187583446502685546875" lon="20.05039843730628490447998046875">
        <ele>2155.800048828125</ele>
        <time>2026-06-15T11:18:03.000Z</time>
        <extensions>
          <ns3:TrackPointExtension>
            <ns3:atemp>16.0</ns3:atemp>
          </ns3:TrackPointExtension>
        </extensions>
      </trkpt>
      <trkpt lat="42.56526826880872249603271484375" lon="20.0503752194344997406005859375">
        <ele>2156.199951171875</ele>
        <time>2026-06-15T11:18:04.000Z</time>
        <extensions>
          <ns3:TrackPointExtension>
            <ns3:atemp>16.0</ns3:atemp>
          </ns3:TrackPointExtension>
        </extensions>
      </trkpt>
      <trkpt lat="42.56527212448418140411376953125" lon="20.0503520853817462921142578125">
        <ele>2156.60009765625</ele>
        <time>2026-06-15T11:18:05.000Z</time>
        <extensions>
          <ns3:TrackPointExtension>
            <ns3:atemp>16.0</ns3:atemp>
          </ns3:TrackPointExtension>
        </extensions>
      </trkpt>
      <trkpt lat="42.56527866236865520477294921875" lon="20.05032442510128021240234375">
        <ele>2156.800048828125</ele>
        <time>2026-06-15T11:18:06.000Z</time>
        <extensions>
          <ns3:TrackPointExtension>
            <ns3:atemp>16.0</ns3:atemp>
          </ns3:TrackPointExtension>
        </extensions>
      </trkpt>
      <trkpt lat="42.565282769501209259033203125" lon="20.0503038056194782257080078125">
        <ele>2157</ele>
        <time>2026-06-15T11:18:07.000Z</time>
        <extensions>
          <ns3:TrackPointExtension>
            <ns3:atemp>16.0</ns3:atemp>
          </ns3:TrackPointExtension>
        </extensions>
      </trkpt>
      <trkpt lat="42.56528905592858791351318359375" lon="20.0502763129770755767822265625">
        <ele>2157.199951171875</ele>
        <time>2026-06-15T11:18:08.000Z</time>
        <extensions>
          <ns3:TrackPointExtension>
            <ns3:atemp>16.0</ns3:atemp>
          </ns3:TrackPointExtension>
        </extensions>
      </trkpt>
      <trkpt lat="42.565298862755298614501953125" lon="20.05025443620979785919189453125">
        <ele>2157.199951171875</ele>
        <time>2026-06-15T11:18:09.000Z</time>
        <extensions>
          <ns3:TrackPointExtension>
            <ns3:atemp>16.0</ns3:atemp>
          </ns3:TrackPointExtension>
        </extensions>
      </trkpt>
      <trkpt lat="42.56530850194394588470458984375" lon="20.05023247562348842620849609375">
        <ele>2157.39990234375</ele>
        <time>2026-06-15T11:18:10.000Z</time>
        <extensions>
          <ns3:TrackPointExtension>
            <ns3:atemp>16.0</ns3:atemp>
          </ns3:TrackPointExtension>
        </extensions>
      </trkpt>
      <trkpt lat="42.5653134472668170928955078125" lon="20.0502055697143077850341796875">
        <ele>2157.60009765625</ele>
        <time>2026-06-15T11:18:11.000Z</time>
        <extensions>
          <ns3:TrackPointExtension>
            <ns3:atemp>16.0</ns3:atemp>
          </ns3:TrackPointExtension>
        </extensions>
      </trkpt>
      <trkpt lat="42.5653151236474514007568359375" lon="20.05017757415771484375">
        <ele>2157.800048828125</ele>
        <time>2026-06-15T11:18:12.000Z</time>
        <extensions>
          <ns3:TrackPointExtension>
            <ns3:atemp>16.0</ns3:atemp>
          </ns3:TrackPointExtension>
        </extensions>
      </trkpt>
      <trkpt lat="42.565318644046783447265625" lon="20.050154440104961395263671875">
        <ele>2158</ele>
        <time>2026-06-15T11:18:13.000Z</time>
        <extensions>
          <ns3:TrackPointExtension>
            <ns3:atemp>16.0</ns3:atemp>
          </ns3:TrackPointExtension>
        </extensions>
      </trkpt>
      <trkpt lat="42.565323673188686370849609375" lon="20.0501264445483684539794921875">
        <ele>2158.199951171875</ele>
        <time>2026-06-15T11:18:14.000Z</time>
        <extensions>
          <ns3:TrackPointExtension>
            <ns3:atemp>16.0</ns3:atemp>
          </ns3:TrackPointExtension>
        </extensions>
      </trkpt>
      <trkpt lat="42.56532593630254268646240234375" lon="20.0501006282866001129150390625">
        <ele>2158.39990234375</ele>
        <time>2026-06-15T11:18:15.000Z</time>
        <extensions>
          <ns3:TrackPointExtension>
            <ns3:atemp>16.0</ns3:atemp>
          </ns3:TrackPointExtension>
        </extensions>
      </trkpt>
      <trkpt lat="42.56532710976898670196533203125" lon="20.05007254891097545623779296875">
        <ele>2158.60009765625</ele>
        <time>2026-06-15T11:18:16.000Z</time>
        <extensions>
          <ns3:TrackPointExtension>
            <ns3:atemp>16.0</ns3:atemp>
          </ns3:TrackPointExtension>
        </extensions>
      </trkpt>
      <trkpt lat="42.56533079780638217926025390625" lon="20.05005092360079288482666015625">
        <ele>2159</ele>
        <time>2026-06-15T11:18:17.000Z</time>
        <extensions>
          <ns3:TrackPointExtension>
            <ns3:atemp>16.0</ns3:atemp>
          </ns3:TrackPointExtension>
        </extensions>
      </trkpt>
      <trkpt lat="42.5653349049389362335205078125" lon="20.0500268675386905670166015625">
        <ele>2159.199951171875</ele>
        <time>2026-06-15T11:18:18.000Z</time>
        <extensions>
          <ns3:TrackPointExtension>
            <ns3:atemp>16.0</ns3:atemp>
          </ns3:TrackPointExtension>
        </extensions>
      </trkpt>
      <trkpt lat="42.5653318874537944793701171875" lon="20.050000213086605072021484375">
        <ele>2159.39990234375</ele>
        <time>2026-06-15T11:18:19.000Z</time>
        <extensions>
          <ns3:TrackPointExtension>
            <ns3:atemp>16.0</ns3:atemp>
          </ns3:TrackPointExtension>
        </extensions>
      </trkpt>
      <trkpt lat="42.56532425992190837860107421875" lon="20.04997305572032928466796875">
        <ele>2159.39990234375</ele>
        <time>2026-06-15T11:18:20.000Z</time>
        <extensions>
          <ns3:TrackPointExtension>
            <ns3:atemp>16.0</ns3:atemp>
          </ns3:TrackPointExtension>
        </extensions>
      </trkpt>
      <trkpt lat="42.5653298757970333099365234375" lon="20.04997037351131439208984375">
        <ele>2159.39990234375</ele>
        <time>2026-06-15T11:18:21.000Z</time>
        <extensions>
          <ns3:TrackPointExtension>
            <ns3:atemp>16.0</ns3:atemp>
          </ns3:TrackPointExtension>
        </extensions>
      </trkpt>
      <trkpt lat="42.56533264182507991790771484375" lon="20.0499712117016315460205078125">
        <ele>2159.39990234375</ele>
        <time>2026-06-15T11:18:22.000Z</time>
        <extensions>
          <ns3:TrackPointExtension>
            <ns3:atemp>16.0</ns3:atemp>
          </ns3:TrackPointExtension>
        </extensions>
      </trkpt>
      <trkpt lat="42.56533264182507991790771484375" lon="20.0499712117016315460205078125">
        <ele>2159.39990234375</ele>
        <time>2026-06-15T11:18:23.000Z</time>
        <extensions>
          <ns3:TrackPointExtension>
            <ns3:atemp>16.0</ns3:atemp>
          </ns3:TrackPointExtension>
        </extensions>
      </trkpt>
      <trkpt lat="42.56533264182507991790771484375" lon="20.0499712117016315460205078125">
        <ele>2159.60009765625</ele>
        <time>2026-06-15T11:18:24.000Z</time>
        <extensions>
          <ns3:TrackPointExtension>
            <ns3:atemp>16.0</ns3:atemp>
          </ns3:TrackPointExtension>
        </extensions>
      </trkpt>
      <trkpt lat="42.56533264182507991790771484375" lon="20.0499712117016315460205078125">
        <ele>2160</ele>
        <time>2026-06-15T11:18:25.000Z</time>
        <extensions>
          <ns3:TrackPointExtension>
            <ns3:atemp>16.0</ns3:atemp>
          </ns3:TrackPointExtension>
        </extensions>
      </trkpt>
      <trkpt lat="42.56533264182507991790771484375" lon="20.0499712117016315460205078125">
        <ele>2160.199951171875</ele>
        <time>2026-06-15T11:18:26.000Z</time>
        <extensions>
          <ns3:TrackPointExtension>
            <ns3:atemp>16.0</ns3:atemp>
          </ns3:TrackPointExtension>
        </extensions>
      </trkpt>
      <trkpt lat="42.56533264182507991790771484375" lon="20.0499712117016315460205078125">
        <ele>2160.60009765625</ele>
        <time>2026-06-15T11:18:27.000Z</time>
        <extensions>
          <ns3:TrackPointExtension>
            <ns3:atemp>16.0</ns3:atemp>
          </ns3:TrackPointExtension>
        </extensions>
      </trkpt>
      <trkpt lat="42.56533247418701648712158203125" lon="20.04997037351131439208984375">
        <ele>2160.60009765625</ele>
        <time>2026-06-15T11:18:28.000Z</time>
        <extensions>
          <ns3:TrackPointExtension>
            <ns3:atemp>16.0</ns3:atemp>
          </ns3:TrackPointExtension>
        </extensions>
      </trkpt>
      <trkpt lat="42.56533917970955371856689453125" lon="20.04996358416974544525146484375">
        <ele>2160.60009765625</ele>
        <time>2026-06-15T11:18:29.000Z</time>
        <extensions>
          <ns3:TrackPointExtension>
            <ns3:atemp>16.0</ns3:atemp>
          </ns3:TrackPointExtension>
        </extensions>
      </trkpt>
      <trkpt lat="42.56533901207149028778076171875" lon="20.04995428025722503662109375">
        <ele>2160.60009765625</ele>
        <time>2026-06-15T11:18:30.000Z</time>
        <extensions>
          <ns3:TrackPointExtension>
            <ns3:atemp>16.0</ns3:atemp>
          </ns3:TrackPointExtension>
        </extensions>
      </trkpt>
      <trkpt lat="42.56533884443342685699462890625" lon="20.0499470718204975128173828125">
        <ele>2160.800048828125</ele>
        <time>2026-06-15T11:18:31.000Z</time>
        <extensions>
          <ns3:TrackPointExtension>
            <ns3:atemp>16.0</ns3:atemp>
          </ns3:TrackPointExtension>
        </extensions>
      </trkpt>
      <trkpt lat="42.565335743129253387451171875" lon="20.04994547925889492034912109375">
        <ele>2161</ele>
        <time>2026-06-15T11:18:32.000Z</time>
        <extensions>
          <ns3:TrackPointExtension>
            <ns3:atemp>16.0</ns3:atemp>
          </ns3:TrackPointExtension>
        </extensions>
      </trkpt>
      <trkpt lat="42.56533565931022167205810546875" lon="20.04994547925889492034912109375">
        <ele>2161.60009765625</ele>
        <time>2026-06-15T11:18:33.000Z</time>
        <extensions>
          <ns3:TrackPointExtension>
            <ns3:atemp>16.0</ns3:atemp>
          </ns3:TrackPointExtension>
        </extensions>
      </trkpt>
      <trkpt lat="42.56533565931022167205810546875" lon="20.04994547925889492034912109375">
        <ele>2161.800048828125</ele>
        <time>2026-06-15T11:18:34.000Z</time>
        <extensions>
          <ns3:TrackPointExtension>
            <ns3:atemp>16.0</ns3:atemp>
          </ns3:TrackPointExtension>
        </extensions>
      </trkpt>
      <trkpt lat="42.56533565931022167205810546875" lon="20.04994547925889492034912109375">
        <ele>2162.199951171875</ele>
        <time>2026-06-15T11:18:35.000Z</time>
        <extensions>
          <ns3:TrackPointExtension>
            <ns3:atemp>16.0</ns3:atemp>
          </ns3:TrackPointExtension>
        </extensions>
      </trkpt>
      <trkpt lat="42.56533565931022167205810546875" lon="20.04994547925889492034912109375">
        <ele>2162.39990234375</ele>
        <time>2026-06-15T11:18:36.000Z</time>
        <extensions>
          <ns3:TrackPointExtension>
            <ns3:atemp>16.0</ns3:atemp>
          </ns3:TrackPointExtension>
        </extensions>
      </trkpt>
      <trkpt lat="42.56533565931022167205810546875" lon="20.04994547925889492034912109375">
        <ele>2162.39990234375</ele>
        <time>2026-06-15T11:18:37.000Z</time>
        <extensions>
          <ns3:TrackPointExtension>
            <ns3:atemp>16.0</ns3:atemp>
          </ns3:TrackPointExtension>
        </extensions>
      </trkpt>
      <trkpt lat="42.56533565931022167205810546875" lon="20.04994547925889492034912109375">
        <ele>2162.39990234375</ele>
        <time>2026-06-15T11:18:38.000Z</time>
        <extensions>
          <ns3:TrackPointExtension>
            <ns3:atemp>16.0</ns3:atemp>
          </ns3:TrackPointExtension>
        </extensions>
      </trkpt>
      <trkpt lat="42.56533565931022167205810546875" lon="20.04994547925889492034912109375">
        <ele>2162.39990234375</ele>
        <time>2026-06-15T11:18:39.000Z</time>
        <extensions>
          <ns3:TrackPointExtension>
            <ns3:atemp>16.0</ns3:atemp>
          </ns3:TrackPointExtension>
        </extensions>
      </trkpt>
      <trkpt lat="42.56533565931022167205810546875" lon="20.04994547925889492034912109375">
        <ele>2162.39990234375</ele>
        <time>2026-06-15T11:18:40.000Z</time>
        <extensions>
          <ns3:TrackPointExtension>
            <ns3:atemp>16.0</ns3:atemp>
          </ns3:TrackPointExtension>
        </extensions>
      </trkpt>
      <trkpt lat="42.56533565931022167205810546875" lon="20.04994547925889492034912109375">
        <ele>2162.39990234375</ele>
        <time>2026-06-15T11:18:41.000Z</time>
        <extensions>
          <ns3:TrackPointExtension>
            <ns3:atemp>16.0</ns3:atemp>
          </ns3:TrackPointExtension>
        </extensions>
      </trkpt>
      <trkpt lat="42.56533565931022167205810546875" lon="20.04994547925889492034912109375">
        <ele>2162.39990234375</ele>
        <time>2026-06-15T11:18:42.000Z</time>
        <extensions>
          <ns3:TrackPointExtension>
            <ns3:atemp>16.0</ns3:atemp>
          </ns3:TrackPointExtension>
        </extensions>
      </trkpt>
      <trkpt lat="42.56533565931022167205810546875" lon="20.04994547925889492034912109375">
        <ele>2162.60009765625</ele>
        <time>2026-06-15T11:18:43.000Z</time>
        <extensions>
          <ns3:TrackPointExtension>
            <ns3:atemp>16.0</ns3:atemp>
          </ns3:TrackPointExtension>
        </extensions>
      </trkpt>
      <trkpt lat="42.56533565931022167205810546875" lon="20.04994547925889492034912109375">
        <ele>2162.60009765625</ele>
        <time>2026-06-15T11:18:44.000Z</time>
        <extensions>
          <ns3:TrackPointExtension>
            <ns3:atemp>16.0</ns3:atemp>
          </ns3:TrackPointExtension>
        </extensions>
      </trkpt>
      <trkpt lat="42.56533565931022167205810546875" lon="20.04994547925889492034912109375">
        <ele>2162.800048828125</ele>
        <time>2026-06-15T11:18:45.000Z</time>
        <extensions>
          <ns3:TrackPointExtension>
            <ns3:atemp>16.0</ns3:atemp>
          </ns3:TrackPointExtension>
        </extensions>
      </trkpt>
      <trkpt lat="42.56533565931022167205810546875" lon="20.04994547925889492034912109375">
        <ele>2163</ele>
        <time>2026-06-15T11:18:46.000Z</time>
        <extensions>
          <ns3:TrackPointExtension>
            <ns3:atemp>16.0</ns3:atemp>
          </ns3:TrackPointExtension>
        </extensions>
      </trkpt>
      <trkpt lat="42.56533565931022167205810546875" lon="20.04994547925889492034912109375">
        <ele>2163</ele>
        <time>2026-06-15T11:18:47.000Z</time>
        <extensions>
          <ns3:TrackPointExtension>
            <ns3:atemp>16.0</ns3:atemp>
          </ns3:TrackPointExtension>
        </extensions>
      </trkpt>
      <trkpt lat="42.56533565931022167205810546875" lon="20.04994547925889492034912109375">
        <ele>2163</ele>
        <time>2026-06-15T11:18:48.000Z</time>
        <extensions>
          <ns3:TrackPointExtension>
            <ns3:atemp>16.0</ns3:atemp>
          </ns3:TrackPointExtension>
        </extensions>
      </trkpt>
      <trkpt lat="42.56533565931022167205810546875" lon="20.04994547925889492034912109375">
        <ele>2163.199951171875</ele>
        <time>2026-06-15T11:18:49.000Z</time>
        <extensions>
          <ns3:TrackPointExtension>
            <ns3:atemp>16.0</ns3:atemp>
          </ns3:TrackPointExtension>
        </extensions>
      </trkpt>
      <trkpt lat="42.56533565931022167205810546875" lon="20.04994547925889492034912109375">
        <ele>2163.199951171875</ele>
        <time>2026-06-15T11:18:50.000Z</time>
        <extensions>
          <ns3:TrackPointExtension>
            <ns3:atemp>16.0</ns3:atemp>
          </ns3:TrackPointExtension>
        </extensions>
      </trkpt>
      <trkpt lat="42.56533565931022167205810546875" lon="20.04994547925889492034912109375">
        <ele>2163.199951171875</ele>
        <time>2026-06-15T11:18:51.000Z</time>
        <extensions>
          <ns3:TrackPointExtension>
            <ns3:atemp>16.0</ns3:atemp>
          </ns3:TrackPointExtension>
        </extensions>
      </trkpt>
      <trkpt lat="42.56533565931022167205810546875" lon="20.04994547925889492034912109375">
        <ele>2163.199951171875</ele>
        <time>2026-06-15T11:18:52.000Z</time>
        <extensions>
          <ns3:TrackPointExtension>
            <ns3:atemp>16.0</ns3:atemp>
          </ns3:TrackPointExtension>
        </extensions>
      </trkpt>
      <trkpt lat="42.56533565931022167205810546875" lon="20.04994547925889492034912109375">
        <ele>2163.39990234375</ele>
        <time>2026-06-15T11:18:53.000Z</time>
        <extensions>
          <ns3:TrackPointExtension>
            <ns3:atemp>16.0</ns3:atemp>
          </ns3:TrackPointExtension>
        </extensions>
      </trkpt>
      <trkpt lat="42.56533565931022167205810546875" lon="20.04994547925889492034912109375">
        <ele>2163.39990234375</ele>
        <time>2026-06-15T11:18:54.000Z</time>
        <extensions>
          <ns3:TrackPointExtension>
            <ns3:atemp>16.0</ns3:atemp>
          </ns3:TrackPointExtension>
        </extensions>
      </trkpt>
      <trkpt lat="42.56533565931022167205810546875" lon="20.04994547925889492034912109375">
        <ele>2163.39990234375</ele>
        <time>2026-06-15T11:18:55.000Z</time>
        <extensions>
          <ns3:TrackPointExtension>
            <ns3:atemp>16.0</ns3:atemp>
          </ns3:TrackPointExtension>
        </extensions>
      </trkpt>
      <trkpt lat="42.56533565931022167205810546875" lon="20.04994547925889492034912109375">
        <ele>2163.39990234375</ele>
        <time>2026-06-15T11:18:56.000Z</time>
        <extensions>
          <ns3:TrackPointExtension>
            <ns3:atemp>16.0</ns3:atemp>
          </ns3:TrackPointExtension>
        </extensions>
      </trkpt>
      <trkpt lat="42.56533565931022167205810546875" lon="20.04994547925889492034912109375">
        <ele>2163.39990234375</ele>
        <time>2026-06-15T11:18:57.000Z</time>
        <extensions>
          <ns3:TrackPointExtension>
            <ns3:atemp>16.0</ns3:atemp>
          </ns3:TrackPointExtension>
        </extensions>
      </trkpt>
      <trkpt lat="42.56533565931022167205810546875" lon="20.04994547925889492034912109375">
        <ele>2163.199951171875</ele>
        <time>2026-06-15T11:18:58.000Z</time>
        <extensions>
          <ns3:TrackPointExtension>
            <ns3:atemp>16.0</ns3:atemp>
          </ns3:TrackPointExtension>
        </extensions>
      </trkpt>
      <trkpt lat="42.56533565931022167205810546875" lon="20.04994547925889492034912109375">
        <ele>2163.199951171875</ele>
        <time>2026-06-15T11:18:59.000Z</time>
        <extensions>
          <ns3:TrackPointExtension>
            <ns3:atemp>16.0</ns3:atemp>
          </ns3:TrackPointExtension>
        </extensions>
      </trkpt>
      <trkpt lat="42.56533565931022167205810546875" lon="20.04994547925889492034912109375">
        <ele>2163</ele>
        <time>2026-06-15T11:19:00.000Z</time>
        <extensions>
          <ns3:TrackPointExtension>
            <ns3:atemp>16.0</ns3:atemp>
          </ns3:TrackPointExtension>
        </extensions>
      </trkpt>
      <trkpt lat="42.56533565931022167205810546875" lon="20.04994547925889492034912109375">
        <ele>2163</ele>
        <time>2026-06-15T11:19:01.000Z</time>
        <extensions>
          <ns3:TrackPointExtension>
            <ns3:atemp>16.0</ns3:atemp>
          </ns3:TrackPointExtension>
        </extensions>
      </trkpt>
      <trkpt lat="42.56533565931022167205810546875" lon="20.04994547925889492034912109375">
        <ele>2162.800048828125</ele>
        <time>2026-06-15T11:19:02.000Z</time>
        <extensions>
          <ns3:TrackPointExtension>
            <ns3:atemp>16.0</ns3:atemp>
          </ns3:TrackPointExtension>
        </extensions>
      </trkpt>
      <trkpt lat="42.56533565931022167205810546875" lon="20.04994547925889492034912109375">
        <ele>2162.800048828125</ele>
        <time>2026-06-15T11:19:03.000Z</time>
        <extensions>
          <ns3:TrackPointExtension>
            <ns3:atemp>16.0</ns3:atemp>
          </ns3:TrackPointExtension>
        </extensions>
      </trkpt>
      <trkpt lat="42.56533565931022167205810546875" lon="20.04994547925889492034912109375">
        <ele>2162.800048828125</ele>
        <time>2026-06-15T11:19:04.000Z</time>
        <extensions>
          <ns3:TrackPointExtension>
            <ns3:atemp>16.0</ns3:atemp>
          </ns3:TrackPointExtension>
        </extensions>
      </trkpt>
      <trkpt lat="42.56533565931022167205810546875" lon="20.04994547925889492034912109375">
        <ele>2162.800048828125</ele>
        <time>2026-06-15T11:19:05.000Z</time>
        <extensions>
          <ns3:TrackPointExtension>
            <ns3:atemp>16.0</ns3:atemp>
          </ns3:TrackPointExtension>
        </extensions>
      </trkpt>
      <trkpt lat="42.56533565931022167205810546875" lon="20.04994547925889492034912109375">
        <ele>2162.800048828125</ele>
        <time>2026-06-15T11:19:06.000Z</time>
        <extensions>
          <ns3:TrackPointExtension>
            <ns3:atemp>16.0</ns3:atemp>
          </ns3:TrackPointExtension>
        </extensions>
      </trkpt>
      <trkpt lat="42.56533565931022167205810546875" lon="20.04994547925889492034912109375">
        <ele>2163</ele>
        <time>2026-06-15T11:19:07.000Z</time>
        <extensions>
          <ns3:TrackPointExtension>
            <ns3:atemp>16.0</ns3:atemp>
          </ns3:TrackPointExtension>
        </extensions>
      </trkpt>
      <trkpt lat="42.56533565931022167205810546875" lon="20.04994547925889492034912109375">
        <ele>2163.199951171875</ele>
        <time>2026-06-15T11:19:08.000Z</time>
        <extensions>
          <ns3:TrackPointExtension>
            <ns3:atemp>16.0</ns3:atemp>
          </ns3:TrackPointExtension>
        </extensions>
      </trkpt>
      <trkpt lat="42.56533565931022167205810546875" lon="20.04994547925889492034912109375">
        <ele>2163.39990234375</ele>
        <time>2026-06-15T11:19:09.000Z</time>
        <extensions>
          <ns3:TrackPointExtension>
            <ns3:atemp>16.0</ns3:atemp>
          </ns3:TrackPointExtension>
        </extensions>
      </trkpt>
      <trkpt lat="42.56533565931022167205810546875" lon="20.04994547925889492034912109375">
        <ele>2163.39990234375</ele>
        <time>2026-06-15T11:19:10.000Z</time>
        <extensions>
          <ns3:TrackPointExtension>
            <ns3:atemp>16.0</ns3:atemp>
          </ns3:TrackPointExtension>
        </extensions>
      </trkpt>
      <trkpt lat="42.56533565931022167205810546875" lon="20.04994547925889492034912109375">
        <ele>2163.60009765625</ele>
        <time>2026-06-15T11:19:11.000Z</time>
        <extensions>
          <ns3:TrackPointExtension>
            <ns3:atemp>16.0</ns3:atemp>
          </ns3:TrackPointExtension>
        </extensions>
      </trkpt>
      <trkpt lat="42.56533565931022167205810546875" lon="20.04994547925889492034912109375">
        <ele>2163.60009765625</ele>
        <time>2026-06-15T11:19:12.000Z</time>
        <extensions>
          <ns3:TrackPointExtension>
            <ns3:atemp>16.0</ns3:atemp>
          </ns3:TrackPointExtension>
        </extensions>
      </trkpt>
      <trkpt lat="42.56533565931022167205810546875" lon="20.04994547925889492034912109375">
        <ele>2163.39990234375</ele>
        <time>2026-06-15T11:19:13.000Z</time>
        <extensions>
          <ns3:TrackPointExtension>
            <ns3:atemp>16.0</ns3:atemp>
          </ns3:TrackPointExtension>
        </extensions>
      </trkpt>
      <trkpt lat="42.56533565931022167205810546875" lon="20.04994547925889492034912109375">
        <ele>2163.39990234375</ele>
        <time>2026-06-15T11:19:14.000Z</time>
        <extensions>
          <ns3:TrackPointExtension>
            <ns3:atemp>16.0</ns3:atemp>
          </ns3:TrackPointExtension>
        </extensions>
      </trkpt>
      <trkpt lat="42.56533565931022167205810546875" lon="20.04994547925889492034912109375">
        <ele>2163.199951171875</ele>
        <time>2026-06-15T11:19:15.000Z</time>
        <extensions>
          <ns3:TrackPointExtension>
            <ns3:atemp>16.0</ns3:atemp>
          </ns3:TrackPointExtension>
        </extensions>
      </trkpt>
      <trkpt lat="42.56533565931022167205810546875" lon="20.04994547925889492034912109375">
        <ele>2163.199951171875</ele>
        <time>2026-06-15T11:19:16.000Z</time>
        <extensions>
          <ns3:TrackPointExtension>
            <ns3:atemp>16.0</ns3:atemp>
          </ns3:TrackPointExtension>
        </extensions>
      </trkpt>
      <trkpt lat="42.56533565931022167205810546875" lon="20.04994547925889492034912109375">
        <ele>2163.199951171875</ele>
        <time>2026-06-15T11:19:17.000Z</time>
        <extensions>
          <ns3:TrackPointExtension>
            <ns3:atemp>16.0</ns3:atemp>
          </ns3:TrackPointExtension>
        </extensions>
      </trkpt>
      <trkpt lat="42.56533565931022167205810546875" lon="20.04994547925889492034912109375">
        <ele>2163</ele>
        <time>2026-06-15T11:19:18.000Z</time>
        <extensions>
          <ns3:TrackPointExtension>
            <ns3:atemp>16.0</ns3:atemp>
          </ns3:TrackPointExtension>
        </extensions>
      </trkpt>
      <trkpt lat="42.56533565931022167205810546875" lon="20.04994547925889492034912109375">
        <ele>2163</ele>
        <time>2026-06-15T11:19:19.000Z</time>
        <extensions>
          <ns3:TrackPointExtension>
            <ns3:atemp>16.0</ns3:atemp>
          </ns3:TrackPointExtension>
        </extensions>
      </trkpt>
      <trkpt lat="42.56533565931022167205810546875" lon="20.04994547925889492034912109375">
        <ele>2163</ele>
        <time>2026-06-15T11:19:20.000Z</time>
        <extensions>
          <ns3:TrackPointExtension>
            <ns3:atemp>17.0</ns3:atemp>
          </ns3:TrackPointExtension>
        </extensions>
      </trkpt>
      <trkpt lat="42.56533565931022167205810546875" lon="20.04994547925889492034912109375">
        <ele>2163</ele>
        <time>2026-06-15T11:19:21.000Z</time>
        <extensions>
          <ns3:TrackPointExtension>
            <ns3:atemp>17.0</ns3:atemp>
          </ns3:TrackPointExtension>
        </extensions>
      </trkpt>
      <trkpt lat="42.56533565931022167205810546875" lon="20.04994547925889492034912109375">
        <ele>2162.800048828125</ele>
        <time>2026-06-15T11:19:22.000Z</time>
        <extensions>
          <ns3:TrackPointExtension>
            <ns3:atemp>17.0</ns3:atemp>
          </ns3:TrackPointExtension>
        </extensions>
      </trkpt>
      <trkpt lat="42.56533565931022167205810546875" lon="20.04994547925889492034912109375">
        <ele>2162.60009765625</ele>
        <time>2026-06-15T11:19:23.000Z</time>
        <extensions>
          <ns3:TrackPointExtension>
            <ns3:atemp>16.0</ns3:atemp>
          </ns3:TrackPointExtension>
        </extensions>
      </trkpt>
      <trkpt lat="42.56533565931022167205810546875" lon="20.04994547925889492034912109375">
        <ele>2162.39990234375</ele>
        <time>2026-06-15T11:19:24.000Z</time>
        <extensions>
          <ns3:TrackPointExtension>
            <ns3:atemp>16.0</ns3:atemp>
          </ns3:TrackPointExtension>
        </extensions>
      </trkpt>
      <trkpt lat="42.56533565931022167205810546875" lon="20.04994547925889492034912109375">
        <ele>2162.39990234375</ele>
        <time>2026-06-15T11:19:25.000Z</time>
        <extensions>
          <ns3:TrackPointExtension>
            <ns3:atemp>16.0</ns3:atemp>
          </ns3:TrackPointExtension>
        </extensions>
      </trkpt>
      <trkpt lat="42.56533565931022167205810546875" lon="20.04994547925889492034912109375">
        <ele>2162.39990234375</ele>
        <time>2026-06-15T11:19:26.000Z</time>
        <extensions>
          <ns3:TrackPointExtension>
            <ns3:atemp>16.0</ns3:atemp>
          </ns3:TrackPointExtension>
        </extensions>
      </trkpt>
      <trkpt lat="42.56533565931022167205810546875" lon="20.04994547925889492034912109375">
        <ele>2162.39990234375</ele>
        <time>2026-06-15T11:19:27.000Z</time>
        <extensions>
          <ns3:TrackPointExtension>
            <ns3:atemp>17.0</ns3:atemp>
          </ns3:TrackPointExtension>
        </extensions>
      </trkpt>
      <trkpt lat="42.56533565931022167205810546875" lon="20.04994547925889492034912109375">
        <ele>2162.39990234375</ele>
        <time>2026-06-15T11:19:28.000Z</time>
        <extensions>
          <ns3:TrackPointExtension>
            <ns3:atemp>17.0</ns3:atemp>
          </ns3:TrackPointExtension>
        </extensions>
      </trkpt>
      <trkpt lat="42.56533565931022167205810546875" lon="20.04994547925889492034912109375">
        <ele>2162.39990234375</ele>
        <time>2026-06-15T11:19:29.000Z</time>
        <extensions>
          <ns3:TrackPointExtension>
            <ns3:atemp>17.0</ns3:atemp>
          </ns3:TrackPointExtension>
        </extensions>
      </trkpt>
      <trkpt lat="42.56533565931022167205810546875" lon="20.04994547925889492034912109375">
        <ele>2162.39990234375</ele>
        <time>2026-06-15T11:19:30.000Z</time>
        <extensions>
          <ns3:TrackPointExtension>
            <ns3:atemp>17.0</ns3:atemp>
          </ns3:TrackPointExtension>
        </extensions>
      </trkpt>
      <trkpt lat="42.56533565931022167205810546875" lon="20.04994547925889492034912109375">
        <ele>2162.199951171875</ele>
        <time>2026-06-15T11:19:31.000Z</time>
        <extensions>
          <ns3:TrackPointExtension>
            <ns3:atemp>17.0</ns3:atemp>
          </ns3:TrackPointExtension>
        </extensions>
      </trkpt>
      <trkpt lat="42.56533565931022167205810546875" lon="20.04994547925889492034912109375">
        <ele>2162.199951171875</ele>
        <time>2026-06-15T11:19:32.000Z</time>
        <extensions>
          <ns3:TrackPointExtension>
            <ns3:atemp>17.0</ns3:atemp>
          </ns3:TrackPointExtension>
        </extensions>
      </trkpt>
      <trkpt lat="42.56533565931022167205810546875" lon="20.04994547925889492034912109375">
        <ele>2162.199951171875</ele>
        <time>2026-06-15T11:19:33.000Z</time>
        <extensions>
          <ns3:TrackPointExtension>
            <ns3:atemp>17.0</ns3:atemp>
          </ns3:TrackPointExtension>
        </extensions>
      </trkpt>
      <trkpt lat="42.56533565931022167205810546875" lon="20.04994547925889492034912109375">
        <ele>2162</ele>
        <time>2026-06-15T11:19:34.000Z</time>
        <extensions>
          <ns3:TrackPointExtension>
            <ns3:atemp>17.0</ns3:atemp>
          </ns3:TrackPointExtension>
        </extensions>
      </trkpt>
      <trkpt lat="42.56533565931022167205810546875" lon="20.04994547925889492034912109375">
        <ele>2162</ele>
        <time>2026-06-15T11:19:35.000Z</time>
        <extensions>
          <ns3:TrackPointExtension>
            <ns3:atemp>16.0</ns3:atemp>
          </ns3:TrackPointExtension>
        </extensions>
      </trkpt>
      <trkpt lat="42.56533565931022167205810546875" lon="20.04994547925889492034912109375">
        <ele>2161.800048828125</ele>
        <time>2026-06-15T11:19:36.000Z</time>
        <extensions>
          <ns3:TrackPointExtension>
            <ns3:atemp>16.0</ns3:atemp>
          </ns3:TrackPointExtension>
        </extensions>
      </trkpt>
      <trkpt lat="42.56533565931022167205810546875" lon="20.04994547925889492034912109375">
        <ele>2161.60009765625</ele>
        <time>2026-06-15T11:19:37.000Z</time>
        <extensions>
          <ns3:TrackPointExtension>
            <ns3:atemp>16.0</ns3:atemp>
          </ns3:TrackPointExtension>
        </extensions>
      </trkpt>
      <trkpt lat="42.56533565931022167205810546875" lon="20.04994547925889492034912109375">
        <ele>2161.60009765625</ele>
        <time>2026-06-15T11:19:38.000Z</time>
        <extensions>
          <ns3:TrackPointExtension>
            <ns3:atemp>16.0</ns3:atemp>
          </ns3:TrackPointExtension>
        </extensions>
      </trkpt>
      <trkpt lat="42.56533565931022167205810546875" lon="20.04994547925889492034912109375">
        <ele>2161.39990234375</ele>
        <time>2026-06-15T11:19:39.000Z</time>
        <extensions>
          <ns3:TrackPointExtension>
            <ns3:atemp>17.0</ns3:atemp>
          </ns3:TrackPointExtension>
        </extensions>
      </trkpt>
      <trkpt lat="42.56533565931022167205810546875" lon="20.04994547925889492034912109375">
        <ele>2161.39990234375</ele>
        <time>2026-06-15T11:19:40.000Z</time>
        <extensions>
          <ns3:TrackPointExtension>
            <ns3:atemp>17.0</ns3:atemp>
          </ns3:TrackPointExtension>
        </extensions>
      </trkpt>
      <trkpt lat="42.56533565931022167205810546875" lon="20.04994547925889492034912109375">
        <ele>2161.39990234375</ele>
        <time>2026-06-15T11:19:41.000Z</time>
        <extensions>
          <ns3:TrackPointExtension>
            <ns3:atemp>17.0</ns3:atemp>
          </ns3:TrackPointExtension>
        </extensions>
      </trkpt>
      <trkpt lat="42.56533565931022167205810546875" lon="20.04994547925889492034912109375">
        <ele>2161.39990234375</ele>
        <time>2026-06-15T11:19:42.000Z</time>
        <extensions>
          <ns3:TrackPointExtension>
            <ns3:atemp>17.0</ns3:atemp>
          </ns3:TrackPointExtension>
        </extensions>
      </trkpt>
      <trkpt lat="42.56533565931022167205810546875" lon="20.04994547925889492034912109375">
        <ele>2161.39990234375</ele>
        <time>2026-06-15T11:19:43.000Z</time>
        <extensions>
          <ns3:TrackPointExtension>
            <ns3:atemp>17.0</ns3:atemp>
          </ns3:TrackPointExtension>
        </extensions>
      </trkpt>
      <trkpt lat="42.56533565931022167205810546875" lon="20.04994547925889492034912109375">
        <ele>2161.39990234375</ele>
        <time>2026-06-15T11:19:44.000Z</time>
        <extensions>
          <ns3:TrackPointExtension>
            <ns3:atemp>17.0</ns3:atemp>
          </ns3:TrackPointExtension>
        </extensions>
      </trkpt>
      <trkpt lat="42.56533565931022167205810546875" lon="20.04994547925889492034912109375">
        <ele>2161.39990234375</ele>
        <time>2026-06-15T11:19:45.000Z</time>
        <extensions>
          <ns3:TrackPointExtension>
            <ns3:atemp>17.0</ns3:atemp>
          </ns3:TrackPointExtension>
        </extensions>
      </trkpt>
      <trkpt lat="42.56533565931022167205810546875" lon="20.04994547925889492034912109375">
        <ele>2161.39990234375</ele>
        <time>2026-06-15T11:19:46.000Z</time>
        <extensions>
          <ns3:TrackPointExtension>
            <ns3:atemp>17.0</ns3:atemp>
          </ns3:TrackPointExtension>
        </extensions>
      </trkpt>
      <trkpt lat="42.56533565931022167205810546875" lon="20.04994547925889492034912109375">
        <ele>2161.39990234375</ele>
        <time>2026-06-15T11:19:47.000Z</time>
        <extensions>
          <ns3:TrackPointExtension>
            <ns3:atemp>17.0</ns3:atemp>
          </ns3:TrackPointExtension>
        </extensions>
      </trkpt>
      <trkpt lat="42.56533565931022167205810546875" lon="20.04994547925889492034912109375">
        <ele>2161.39990234375</ele>
        <time>2026-06-15T11:19:48.000Z</time>
        <extensions>
          <ns3:TrackPointExtension>
            <ns3:atemp>17.0</ns3:atemp>
          </ns3:TrackPointExtension>
        </extensions>
      </trkpt>
      <trkpt lat="42.56533565931022167205810546875" lon="20.04994547925889492034912109375">
        <ele>2161.39990234375</ele>
        <time>2026-06-15T11:19:49.000Z</time>
        <extensions>
          <ns3:TrackPointExtension>
            <ns3:atemp>17.0</ns3:atemp>
          </ns3:TrackPointExtension>
        </extensions>
      </trkpt>
      <trkpt lat="42.56533565931022167205810546875" lon="20.04994547925889492034912109375">
        <ele>2161.199951171875</ele>
        <time>2026-06-15T11:19:50.000Z</time>
        <extensions>
          <ns3:TrackPointExtension>
            <ns3:atemp>17.0</ns3:atemp>
          </ns3:TrackPointExtension>
        </extensions>
      </trkpt>
      <trkpt lat="42.56533565931022167205810546875" lon="20.04994547925889492034912109375">
        <ele>2161</ele>
        <time>2026-06-15T11:19:51.000Z</time>
        <extensions>
          <ns3:TrackPointExtension>
            <ns3:atemp>17.0</ns3:atemp>
          </ns3:TrackPointExtension>
        </extensions>
      </trkpt>
      <trkpt lat="42.56533565931022167205810546875" lon="20.04994547925889492034912109375">
        <ele>2160.800048828125</ele>
        <time>2026-06-15T11:19:52.000Z</time>
        <extensions>
          <ns3:TrackPointExtension>
            <ns3:atemp>17.0</ns3:atemp>
          </ns3:TrackPointExtension>
        </extensions>
      </trkpt>
      <trkpt lat="42.56533565931022167205810546875" lon="20.04994547925889492034912109375">
        <ele>2160.800048828125</ele>
        <time>2026-06-15T11:19:53.000Z</time>
        <extensions>
          <ns3:TrackPointExtension>
            <ns3:atemp>17.0</ns3:atemp>
          </ns3:TrackPointExtension>
        </extensions>
      </trkpt>
      <trkpt lat="42.56533565931022167205810546875" lon="20.04994547925889492034912109375">
        <ele>2160.60009765625</ele>
        <time>2026-06-15T11:19:54.000Z</time>
        <extensions>
          <ns3:TrackPointExtension>
            <ns3:atemp>17.0</ns3:atemp>
          </ns3:TrackPointExtension>
        </extensions>
      </trkpt>
      <trkpt lat="42.56533565931022167205810546875" lon="20.04994547925889492034912109375">
        <ele>2160.39990234375</ele>
        <time>2026-06-15T11:19:55.000Z</time>
        <extensions>
          <ns3:TrackPointExtension>
            <ns3:atemp>17.0</ns3:atemp>
          </ns3:TrackPointExtension>
        </extensions>
      </trkpt>
      <trkpt lat="42.56533565931022167205810546875" lon="20.04994547925889492034912109375">
        <ele>2160.39990234375</ele>
        <time>2026-06-15T11:19:56.000Z</time>
        <extensions>
          <ns3:TrackPointExtension>
            <ns3:atemp>17.0</ns3:atemp>
          </ns3:TrackPointExtension>
        </extensions>
      </trkpt>
      <trkpt lat="42.56533565931022167205810546875" lon="20.04994547925889492034912109375">
        <ele>2160.39990234375</ele>
        <time>2026-06-15T11:19:57.000Z</time>
        <extensions>
          <ns3:TrackPointExtension>
            <ns3:atemp>17.0</ns3:atemp>
          </ns3:TrackPointExtension>
        </extensions>
      </trkpt>
      <trkpt lat="42.56533565931022167205810546875" lon="20.04994547925889492034912109375">
        <ele>2160.39990234375</ele>
        <time>2026-06-15T11:19:58.000Z</time>
        <extensions>
          <ns3:TrackPointExtension>
            <ns3:atemp>17.0</ns3:atemp>
          </ns3:TrackPointExtension>
        </extensions>
      </trkpt>
      <trkpt lat="42.56533565931022167205810546875" lon="20.04994547925889492034912109375">
        <ele>2160.39990234375</ele>
        <time>2026-06-15T11:19:59.000Z</time>
        <extensions>
          <ns3:TrackPointExtension>
            <ns3:atemp>17.0</ns3:atemp>
          </ns3:TrackPointExtension>
        </extensions>
      </trkpt>
      <trkpt lat="42.56533565931022167205810546875" lon="20.04994547925889492034912109375">
        <ele>2160.39990234375</ele>
        <time>2026-06-15T11:20:00.000Z</time>
        <extensions>
          <ns3:TrackPointExtension>
            <ns3:atemp>17.0</ns3:atemp>
          </ns3:TrackPointExtension>
        </extensions>
      </trkpt>
      <trkpt lat="42.56533565931022167205810546875" lon="20.04994547925889492034912109375">
        <ele>2160.39990234375</ele>
        <time>2026-06-15T11:20:01.000Z</time>
        <extensions>
          <ns3:TrackPointExtension>
            <ns3:atemp>17.0</ns3:atemp>
          </ns3:TrackPointExtension>
        </extensions>
      </trkpt>
      <trkpt lat="42.56533565931022167205810546875" lon="20.04994547925889492034912109375">
        <ele>2160.39990234375</ele>
        <time>2026-06-15T11:20:02.000Z</time>
        <extensions>
          <ns3:TrackPointExtension>
            <ns3:atemp>17.0</ns3:atemp>
          </ns3:TrackPointExtension>
        </extensions>
      </trkpt>
      <trkpt lat="42.56533565931022167205810546875" lon="20.04994547925889492034912109375">
        <ele>2160.199951171875</ele>
        <time>2026-06-15T11:20:03.000Z</time>
        <extensions>
          <ns3:TrackPointExtension>
            <ns3:atemp>17.0</ns3:atemp>
          </ns3:TrackPointExtension>
        </extensions>
      </trkpt>
      <trkpt lat="42.56533565931022167205810546875" lon="20.04994547925889492034912109375">
        <ele>2160.199951171875</ele>
        <time>2026-06-15T11:20:04.000Z</time>
        <extensions>
          <ns3:TrackPointExtension>
            <ns3:atemp>17.0</ns3:atemp>
          </ns3:TrackPointExtension>
        </extensions>
      </trkpt>
      <trkpt lat="42.56533565931022167205810546875" lon="20.04994547925889492034912109375">
        <ele>2160.199951171875</ele>
        <time>2026-06-15T11:20:05.000Z</time>
        <extensions>
          <ns3:TrackPointExtension>
            <ns3:atemp>17.0</ns3:atemp>
          </ns3:TrackPointExtension>
        </extensions>
      </trkpt>
      <trkpt lat="42.56533565931022167205810546875" lon="20.04994547925889492034912109375">
        <ele>2160.199951171875</ele>
        <time>2026-06-15T11:20:06.000Z</time>
        <extensions>
          <ns3:TrackPointExtension>
            <ns3:atemp>17.0</ns3:atemp>
          </ns3:TrackPointExtension>
        </extensions>
      </trkpt>
      <trkpt lat="42.56533565931022167205810546875" lon="20.04994547925889492034912109375">
        <ele>2160</ele>
        <time>2026-06-15T11:20:07.000Z</time>
        <extensions>
          <ns3:TrackPointExtension>
            <ns3:atemp>17.0</ns3:atemp>
          </ns3:TrackPointExtension>
        </extensions>
      </trkpt>
      <trkpt lat="42.56533565931022167205810546875" lon="20.04994547925889492034912109375">
        <ele>2160</ele>
        <time>2026-06-15T11:20:08.000Z</time>
        <extensions>
          <ns3:TrackPointExtension>
            <ns3:atemp>17.0</ns3:atemp>
          </ns3:TrackPointExtension>
        </extensions>
      </trkpt>
      <trkpt lat="42.56533565931022167205810546875" lon="20.04994547925889492034912109375">
        <ele>2160</ele>
        <time>2026-06-15T11:20:09.000Z</time>
        <extensions>
          <ns3:TrackPointExtension>
            <ns3:atemp>17.0</ns3:atemp>
          </ns3:TrackPointExtension>
        </extensions>
      </trkpt>
      <trkpt lat="42.56533565931022167205810546875" lon="20.04994547925889492034912109375">
        <ele>2160</ele>
        <time>2026-06-15T11:20:10.000Z</time>
        <extensions>
          <ns3:TrackPointExtension>
            <ns3:atemp>17.0</ns3:atemp>
          </ns3:TrackPointExtension>
        </extensions>
      </trkpt>
      <trkpt lat="42.56533565931022167205810546875" lon="20.04994547925889492034912109375">
        <ele>2160</ele>
        <time>2026-06-15T11:20:11.000Z</time>
        <extensions>
          <ns3:TrackPointExtension>
            <ns3:atemp>17.0</ns3:atemp>
          </ns3:TrackPointExtension>
        </extensions>
      </trkpt>
      <trkpt lat="42.56533565931022167205810546875" lon="20.04994547925889492034912109375">
        <ele>2160</ele>
        <time>2026-06-15T11:20:12.000Z</time>
        <extensions>
          <ns3:TrackPointExtension>
            <ns3:atemp>17.0</ns3:atemp>
          </ns3:TrackPointExtension>
        </extensions>
      </trkpt>
      <trkpt lat="42.56533565931022167205810546875" lon="20.04994547925889492034912109375">
        <ele>2160</ele>
        <time>2026-06-15T11:20:13.000Z</time>
        <extensions>
          <ns3:TrackPointExtension>
            <ns3:atemp>17.0</ns3:atemp>
          </ns3:TrackPointExtension>
        </extensions>
      </trkpt>
      <trkpt lat="42.56533565931022167205810546875" lon="20.04994547925889492034912109375">
        <ele>2160.199951171875</ele>
        <time>2026-06-15T11:20:14.000Z</time>
        <extensions>
          <ns3:TrackPointExtension>
            <ns3:atemp>17.0</ns3:atemp>
          </ns3:TrackPointExtension>
        </extensions>
      </trkpt>
      <trkpt lat="42.56533565931022167205810546875" lon="20.04994547925889492034912109375">
        <ele>2160.199951171875</ele>
        <time>2026-06-15T11:20:15.000Z</time>
        <extensions>
          <ns3:TrackPointExtension>
            <ns3:atemp>17.0</ns3:atemp>
          </ns3:TrackPointExtension>
        </extensions>
      </trkpt>
      <trkpt lat="42.56533565931022167205810546875" lon="20.04994547925889492034912109375">
        <ele>2160.199951171875</ele>
        <time>2026-06-15T11:20:16.000Z</time>
        <extensions>
          <ns3:TrackPointExtension>
            <ns3:atemp>17.0</ns3:atemp>
          </ns3:TrackPointExtension>
        </extensions>
      </trkpt>
      <trkpt lat="42.56533565931022167205810546875" lon="20.04994547925889492034912109375">
        <ele>2160.199951171875</ele>
        <time>2026-06-15T11:20:17.000Z</time>
        <extensions>
          <ns3:TrackPointExtension>
            <ns3:atemp>17.0</ns3:atemp>
          </ns3:TrackPointExtension>
        </extensions>
      </trkpt>
      <trkpt lat="42.56533565931022167205810546875" lon="20.04994547925889492034912109375">
        <ele>2160.199951171875</ele>
        <time>2026-06-15T11:20:18.000Z</time>
        <extensions>
          <ns3:TrackPointExtension>
            <ns3:atemp>17.0</ns3:atemp>
          </ns3:TrackPointExtension>
        </extensions>
      </trkpt>
      <trkpt lat="42.56533565931022167205810546875" lon="20.04994547925889492034912109375">
        <ele>2160.199951171875</ele>
        <time>2026-06-15T11:20:19.000Z</time>
        <extensions>
          <ns3:TrackPointExtension>
            <ns3:atemp>17.0</ns3:atemp>
          </ns3:TrackPointExtension>
        </extensions>
      </trkpt>
      <trkpt lat="42.56533565931022167205810546875" lon="20.04994547925889492034912109375">
        <ele>2160.39990234375</ele>
        <time>2026-06-15T11:20:20.000Z</time>
        <extensions>
          <ns3:TrackPointExtension>
            <ns3:atemp>17.0</ns3:atemp>
          </ns3:TrackPointExtension>
        </extensions>
      </trkpt>
      <trkpt lat="42.56533565931022167205810546875" lon="20.04994547925889492034912109375">
        <ele>2160.39990234375</ele>
        <time>2026-06-15T11:20:21.000Z</time>
        <extensions>
          <ns3:TrackPointExtension>
            <ns3:atemp>17.0</ns3:atemp>
          </ns3:TrackPointExtension>
        </extensions>
      </trkpt>
      <trkpt lat="42.56533565931022167205810546875" lon="20.04994547925889492034912109375">
        <ele>2160.39990234375</ele>
        <time>2026-06-15T11:20:22.000Z</time>
        <extensions>
          <ns3:TrackPointExtension>
            <ns3:atemp>17.0</ns3:atemp>
          </ns3:TrackPointExtension>
        </extensions>
      </trkpt>
      <trkpt lat="42.56533565931022167205810546875" lon="20.04994547925889492034912109375">
        <ele>2160.39990234375</ele>
        <time>2026-06-15T11:20:23.000Z</time>
        <extensions>
          <ns3:TrackPointExtension>
            <ns3:atemp>17.0</ns3:atemp>
          </ns3:TrackPointExtension>
        </extensions>
      </trkpt>
      <trkpt lat="42.56533565931022167205810546875" lon="20.04994547925889492034912109375">
        <ele>2160.39990234375</ele>
        <time>2026-06-15T11:20:24.000Z</time>
        <extensions>
          <ns3:TrackPointExtension>
            <ns3:atemp>17.0</ns3:atemp>
          </ns3:TrackPointExtension>
        </extensions>
      </trkpt>
      <trkpt lat="42.56533565931022167205810546875" lon="20.04994547925889492034912109375">
        <ele>2160.60009765625</ele>
        <time>2026-06-15T11:20:25.000Z</time>
        <extensions>
          <ns3:TrackPointExtension>
            <ns3:atemp>17.0</ns3:atemp>
          </ns3:TrackPointExtension>
        </extensions>
      </trkpt>
      <trkpt lat="42.56533565931022167205810546875" lon="20.04994547925889492034912109375">
        <ele>2160.60009765625</ele>
        <time>2026-06-15T11:20:26.000Z</time>
        <extensions>
          <ns3:TrackPointExtension>
            <ns3:atemp>17.0</ns3:atemp>
          </ns3:TrackPointExtension>
        </extensions>
      </trkpt>
      <trkpt lat="42.56533565931022167205810546875" lon="20.04994547925889492034912109375">
        <ele>2160.60009765625</ele>
        <time>2026-06-15T11:20:27.000Z</time>
        <extensions>
          <ns3:TrackPointExtension>
            <ns3:atemp>17.0</ns3:atemp>
          </ns3:TrackPointExtension>
        </extensions>
      </trkpt>
      <trkpt lat="42.56533565931022167205810546875" lon="20.04994547925889492034912109375">
        <ele>2160.60009765625</ele>
        <time>2026-06-15T11:20:28.000Z</time>
        <extensions>
          <ns3:TrackPointExtension>
            <ns3:atemp>17.0</ns3:atemp>
          </ns3:TrackPointExtension>
        </extensions>
      </trkpt>
      <trkpt lat="42.56533565931022167205810546875" lon="20.04994547925889492034912109375">
        <ele>2160.800048828125</ele>
        <time>2026-06-15T11:20:29.000Z</time>
        <extensions>
          <ns3:TrackPointExtension>
            <ns3:atemp>17.0</ns3:atemp>
          </ns3:TrackPointExtension>
        </extensions>
      </trkpt>
      <trkpt lat="42.56533565931022167205810546875" lon="20.04994547925889492034912109375">
        <ele>2160.60009765625</ele>
        <time>2026-06-15T11:20:30.000Z</time>
        <extensions>
          <ns3:TrackPointExtension>
            <ns3:atemp>17.0</ns3:atemp>
          </ns3:TrackPointExtension>
        </extensions>
      </trkpt>
      <trkpt lat="42.56533565931022167205810546875" lon="20.04994547925889492034912109375">
        <ele>2160.60009765625</ele>
        <time>2026-06-15T11:20:31.000Z</time>
        <extensions>
          <ns3:TrackPointExtension>
            <ns3:atemp>17.0</ns3:atemp>
          </ns3:TrackPointExtension>
        </extensions>
      </trkpt>
      <trkpt lat="42.56533565931022167205810546875" lon="20.04994547925889492034912109375">
        <ele>2160.60009765625</ele>
        <time>2026-06-15T11:20:32.000Z</time>
        <extensions>
          <ns3:TrackPointExtension>
            <ns3:atemp>17.0</ns3:atemp>
          </ns3:TrackPointExtension>
        </extensions>
      </trkpt>
      <trkpt lat="42.56533565931022167205810546875" lon="20.04994547925889492034912109375">
        <ele>2160.39990234375</ele>
        <time>2026-06-15T11:20:33.000Z</time>
        <extensions>
          <ns3:TrackPointExtension>
            <ns3:atemp>17.0</ns3:atemp>
          </ns3:TrackPointExtension>
        </extensions>
      </trkpt>
      <trkpt lat="42.56533565931022167205810546875" lon="20.04994547925889492034912109375">
        <ele>2160.39990234375</ele>
        <time>2026-06-15T11:20:34.000Z</time>
        <extensions>
          <ns3:TrackPointExtension>
            <ns3:atemp>17.0</ns3:atemp>
          </ns3:TrackPointExtension>
        </extensions>
      </trkpt>
      <trkpt lat="42.56533565931022167205810546875" lon="20.04994547925889492034912109375">
        <ele>2160.39990234375</ele>
        <time>2026-06-15T11:20:35.000Z</time>
        <extensions>
          <ns3:TrackPointExtension>
            <ns3:atemp>17.0</ns3:atemp>
          </ns3:TrackPointExtension>
        </extensions>
      </trkpt>
      <trkpt lat="42.56533565931022167205810546875" lon="20.04994547925889492034912109375">
        <ele>2160.39990234375</ele>
        <time>2026-06-15T11:20:36.000Z</time>
        <extensions>
          <ns3:TrackPointExtension>
            <ns3:atemp>17.0</ns3:atemp>
          </ns3:TrackPointExtension>
        </extensions>
      </trkpt>
      <trkpt lat="42.56533565931022167205810546875" lon="20.04994547925889492034912109375">
        <ele>2160.39990234375</ele>
        <time>2026-06-15T11:20:37.000Z</time>
        <extensions>
          <ns3:TrackPointExtension>
            <ns3:atemp>17.0</ns3:atemp>
          </ns3:TrackPointExtension>
        </extensions>
      </trkpt>
      <trkpt lat="42.56533565931022167205810546875" lon="20.04994547925889492034912109375">
        <ele>2160.39990234375</ele>
        <time>2026-06-15T11:20:38.000Z</time>
        <extensions>
          <ns3:TrackPointExtension>
            <ns3:atemp>17.0</ns3:atemp>
          </ns3:TrackPointExtension>
        </extensions>
      </trkpt>
      <trkpt lat="42.56533565931022167205810546875" lon="20.04994547925889492034912109375">
        <ele>2160.39990234375</ele>
        <time>2026-06-15T11:20:39.000Z</time>
        <extensions>
          <ns3:TrackPointExtension>
            <ns3:atemp>17.0</ns3:atemp>
          </ns3:TrackPointExtension>
        </extensions>
      </trkpt>
      <trkpt lat="42.56533565931022167205810546875" lon="20.04994547925889492034912109375">
        <ele>2160.39990234375</ele>
        <time>2026-06-15T11:20:40.000Z</time>
        <extensions>
          <ns3:TrackPointExtension>
            <ns3:atemp>17.0</ns3:atemp>
          </ns3:TrackPointExtension>
        </extensions>
      </trkpt>
      <trkpt lat="42.56533565931022167205810546875" lon="20.04994547925889492034912109375">
        <ele>2160.39990234375</ele>
        <time>2026-06-15T11:20:41.000Z</time>
        <extensions>
          <ns3:TrackPointExtension>
            <ns3:atemp>17.0</ns3:atemp>
          </ns3:TrackPointExtension>
        </extensions>
      </trkpt>
      <trkpt lat="42.56533565931022167205810546875" lon="20.04994547925889492034912109375">
        <ele>2160.39990234375</ele>
        <time>2026-06-15T11:20:42.000Z</time>
        <extensions>
          <ns3:TrackPointExtension>
            <ns3:atemp>17.0</ns3:atemp>
          </ns3:TrackPointExtension>
        </extensions>
      </trkpt>
      <trkpt lat="42.56533565931022167205810546875" lon="20.04994547925889492034912109375">
        <ele>2160.199951171875</ele>
        <time>2026-06-15T11:20:43.000Z</time>
        <extensions>
          <ns3:TrackPointExtension>
            <ns3:atemp>17.0</ns3:atemp>
          </ns3:TrackPointExtension>
        </extensions>
      </trkpt>
      <trkpt lat="42.56533565931022167205810546875" lon="20.04994547925889492034912109375">
        <ele>2160.199951171875</ele>
        <time>2026-06-15T11:20:44.000Z</time>
        <extensions>
          <ns3:TrackPointExtension>
            <ns3:atemp>17.0</ns3:atemp>
          </ns3:TrackPointExtension>
        </extensions>
      </trkpt>
      <trkpt lat="42.56533565931022167205810546875" lon="20.04994547925889492034912109375">
        <ele>2160</ele>
        <time>2026-06-15T11:20:45.000Z</time>
        <extensions>
          <ns3:TrackPointExtension>
            <ns3:atemp>17.0</ns3:atemp>
          </ns3:TrackPointExtension>
        </extensions>
      </trkpt>
      <trkpt lat="42.56533565931022167205810546875" lon="20.04994547925889492034912109375">
        <ele>2160</ele>
        <time>2026-06-15T11:20:46.000Z</time>
        <extensions>
          <ns3:TrackPointExtension>
            <ns3:atemp>17.0</ns3:atemp>
          </ns3:TrackPointExtension>
        </extensions>
      </trkpt>
      <trkpt lat="42.56533565931022167205810546875" lon="20.04994547925889492034912109375">
        <ele>2160.199951171875</ele>
        <time>2026-06-15T11:20:47.000Z</time>
        <extensions>
          <ns3:TrackPointExtension>
            <ns3:atemp>17.0</ns3:atemp>
          </ns3:TrackPointExtension>
        </extensions>
      </trkpt>
      <trkpt lat="42.56533565931022167205810546875" lon="20.04994547925889492034912109375">
        <ele>2160.199951171875</ele>
        <time>2026-06-15T11:20:48.000Z</time>
        <extensions>
          <ns3:TrackPointExtension>
            <ns3:atemp>17.0</ns3:atemp>
          </ns3:TrackPointExtension>
        </extensions>
      </trkpt>
      <trkpt lat="42.56533565931022167205810546875" lon="20.04994547925889492034912109375">
        <ele>2160.39990234375</ele>
        <time>2026-06-15T11:20:49.000Z</time>
        <extensions>
          <ns3:TrackPointExtension>
            <ns3:atemp>17.0</ns3:atemp>
          </ns3:TrackPointExtension>
        </extensions>
      </trkpt>
      <trkpt lat="42.56533565931022167205810546875" lon="20.04994547925889492034912109375">
        <ele>2160.60009765625</ele>
        <time>2026-06-15T11:20:50.000Z</time>
        <extensions>
          <ns3:TrackPointExtension>
            <ns3:atemp>17.0</ns3:atemp>
          </ns3:TrackPointExtension>
        </extensions>
      </trkpt>
      <trkpt lat="42.56533565931022167205810546875" lon="20.04994547925889492034912109375">
        <ele>2160.800048828125</ele>
        <time>2026-06-15T11:20:51.000Z</time>
        <extensions>
          <ns3:TrackPointExtension>
            <ns3:atemp>17.0</ns3:atemp>
          </ns3:TrackPointExtension>
        </extensions>
      </trkpt>
      <trkpt lat="42.56533565931022167205810546875" lon="20.04994547925889492034912109375">
        <ele>2160.800048828125</ele>
        <time>2026-06-15T11:20:52.000Z</time>
        <extensions>
          <ns3:TrackPointExtension>
            <ns3:atemp>17.0</ns3:atemp>
          </ns3:TrackPointExtension>
        </extensions>
      </trkpt>
      <trkpt lat="42.56533565931022167205810546875" lon="20.04994547925889492034912109375">
        <ele>2161</ele>
        <time>2026-06-15T11:20:53.000Z</time>
        <extensions>
          <ns3:TrackPointExtension>
            <ns3:atemp>17.0</ns3:atemp>
          </ns3:TrackPointExtension>
        </extensions>
      </trkpt>
      <trkpt lat="42.56533565931022167205810546875" lon="20.04994547925889492034912109375">
        <ele>2161</ele>
        <time>2026-06-15T11:20:54.000Z</time>
        <extensions>
          <ns3:TrackPointExtension>
            <ns3:atemp>17.0</ns3:atemp>
          </ns3:TrackPointExtension>
        </extensions>
      </trkpt>
      <trkpt lat="42.56533565931022167205810546875" lon="20.04994547925889492034912109375">
        <ele>2161</ele>
        <time>2026-06-15T11:20:55.000Z</time>
        <extensions>
          <ns3:TrackPointExtension>
            <ns3:atemp>17.0</ns3:atemp>
          </ns3:TrackPointExtension>
        </extensions>
      </trkpt>
      <trkpt lat="42.56533565931022167205810546875" lon="20.04994547925889492034912109375">
        <ele>2161</ele>
        <time>2026-06-15T11:20:56.000Z</time>
        <extensions>
          <ns3:TrackPointExtension>
            <ns3:atemp>17.0</ns3:atemp>
          </ns3:TrackPointExtension>
        </extensions>
      </trkpt>
      <trkpt lat="42.56533565931022167205810546875" lon="20.04994547925889492034912109375">
        <ele>2160.800048828125</ele>
        <time>2026-06-15T11:20:57.000Z</time>
        <extensions>
          <ns3:TrackPointExtension>
            <ns3:atemp>17.0</ns3:atemp>
          </ns3:TrackPointExtension>
        </extensions>
      </trkpt>
      <trkpt lat="42.56533565931022167205810546875" lon="20.04994547925889492034912109375">
        <ele>2160.800048828125</ele>
        <time>2026-06-15T11:20:58.000Z</time>
        <extensions>
          <ns3:TrackPointExtension>
            <ns3:atemp>17.0</ns3:atemp>
          </ns3:TrackPointExtension>
        </extensions>
      </trkpt>
      <trkpt lat="42.56533565931022167205810546875" lon="20.04994547925889492034912109375">
        <ele>2160.60009765625</ele>
        <time>2026-06-15T11:20:59.000Z</time>
        <extensions>
          <ns3:TrackPointExtension>
            <ns3:atemp>17.0</ns3:atemp>
          </ns3:TrackPointExtension>
        </extensions>
      </trkpt>
      <trkpt lat="42.56533565931022167205810546875" lon="20.04994547925889492034912109375">
        <ele>2160.60009765625</ele>
        <time>2026-06-15T11:21:00.000Z</time>
        <extensions>
          <ns3:TrackPointExtension>
            <ns3:atemp>17.0</ns3:atemp>
          </ns3:TrackPointExtension>
        </extensions>
      </trkpt>
      <trkpt lat="42.56533565931022167205810546875" lon="20.04994547925889492034912109375">
        <ele>2160.39990234375</ele>
        <time>2026-06-15T11:21:01.000Z</time>
        <extensions>
          <ns3:TrackPointExtension>
            <ns3:atemp>17.0</ns3:atemp>
          </ns3:TrackPointExtension>
        </extensions>
      </trkpt>
      <trkpt lat="42.56533565931022167205810546875" lon="20.04994547925889492034912109375">
        <ele>2160.39990234375</ele>
        <time>2026-06-15T11:21:02.000Z</time>
        <extensions>
          <ns3:TrackPointExtension>
            <ns3:atemp>17.0</ns3:atemp>
          </ns3:TrackPointExtension>
        </extensions>
      </trkpt>
      <trkpt lat="42.56533565931022167205810546875" lon="20.04994547925889492034912109375">
        <ele>2160.39990234375</ele>
        <time>2026-06-15T11:21:03.000Z</time>
        <extensions>
          <ns3:TrackPointExtension>
            <ns3:atemp>17.0</ns3:atemp>
          </ns3:TrackPointExtension>
        </extensions>
      </trkpt>
      <trkpt lat="42.56533565931022167205810546875" lon="20.04994547925889492034912109375">
        <ele>2160.39990234375</ele>
        <time>2026-06-15T11:21:04.000Z</time>
        <extensions>
          <ns3:TrackPointExtension>
            <ns3:atemp>17.0</ns3:atemp>
          </ns3:TrackPointExtension>
        </extensions>
      </trkpt>
      <trkpt lat="42.56533565931022167205810546875" lon="20.04994547925889492034912109375">
        <ele>2160.39990234375</ele>
        <time>2026-06-15T11:21:05.000Z</time>
        <extensions>
          <ns3:TrackPointExtension>
            <ns3:atemp>17.0</ns3:atemp>
          </ns3:TrackPointExtension>
        </extensions>
      </trkpt>
      <trkpt lat="42.56533565931022167205810546875" lon="20.04994547925889492034912109375">
        <ele>2160.39990234375</ele>
        <time>2026-06-15T11:21:06.000Z</time>
        <extensions>
          <ns3:TrackPointExtension>
            <ns3:atemp>17.0</ns3:atemp>
          </ns3:TrackPointExtension>
        </extensions>
      </trkpt>
      <trkpt lat="42.56533565931022167205810546875" lon="20.04994547925889492034912109375">
        <ele>2160.39990234375</ele>
        <time>2026-06-15T11:21:07.000Z</time>
        <extensions>
          <ns3:TrackPointExtension>
            <ns3:atemp>17.0</ns3:atemp>
          </ns3:TrackPointExtension>
        </extensions>
      </trkpt>
      <trkpt lat="42.56533565931022167205810546875" lon="20.04994547925889492034912109375">
        <ele>2160.60009765625</ele>
        <time>2026-06-15T11:21:08.000Z</time>
        <extensions>
          <ns3:TrackPointExtension>
            <ns3:atemp>17.0</ns3:atemp>
          </ns3:TrackPointExtension>
        </extensions>
      </trkpt>
      <trkpt lat="42.56533565931022167205810546875" lon="20.04994547925889492034912109375">
        <ele>2160.60009765625</ele>
        <time>2026-06-15T11:21:09.000Z</time>
        <extensions>
          <ns3:TrackPointExtension>
            <ns3:atemp>17.0</ns3:atemp>
          </ns3:TrackPointExtension>
        </extensions>
      </trkpt>
      <trkpt lat="42.56533565931022167205810546875" lon="20.04994547925889492034912109375">
        <ele>2160.60009765625</ele>
        <time>2026-06-15T11:21:10.000Z</time>
        <extensions>
          <ns3:TrackPointExtension>
            <ns3:atemp>17.0</ns3:atemp>
          </ns3:TrackPointExtension>
        </extensions>
      </trkpt>
      <trkpt lat="42.56533565931022167205810546875" lon="20.04994547925889492034912109375">
        <ele>2160.60009765625</ele>
        <time>2026-06-15T11:21:11.000Z</time>
        <extensions>
          <ns3:TrackPointExtension>
            <ns3:atemp>17.0</ns3:atemp>
          </ns3:TrackPointExtension>
        </extensions>
      </trkpt>
      <trkpt lat="42.56533565931022167205810546875" lon="20.04994547925889492034912109375">
        <ele>2160.39990234375</ele>
        <time>2026-06-15T11:21:12.000Z</time>
        <extensions>
          <ns3:TrackPointExtension>
            <ns3:atemp>17.0</ns3:atemp>
          </ns3:TrackPointExtension>
        </extensions>
      </trkpt>
      <trkpt lat="42.56533565931022167205810546875" lon="20.04994547925889492034912109375">
        <ele>2160.39990234375</ele>
        <time>2026-06-15T11:21:13.000Z</time>
        <extensions>
          <ns3:TrackPointExtension>
            <ns3:atemp>17.0</ns3:atemp>
          </ns3:TrackPointExtension>
        </extensions>
      </trkpt>
      <trkpt lat="42.56533565931022167205810546875" lon="20.04994547925889492034912109375">
        <ele>2160.39990234375</ele>
        <time>2026-06-15T11:21:14.000Z</time>
        <extensions>
          <ns3:TrackPointExtension>
            <ns3:atemp>17.0</ns3:atemp>
          </ns3:TrackPointExtension>
        </extensions>
      </trkpt>
      <trkpt lat="42.56533565931022167205810546875" lon="20.04994547925889492034912109375">
        <ele>2160.39990234375</ele>
        <time>2026-06-15T11:21:15.000Z</time>
        <extensions>
          <ns3:TrackPointExtension>
            <ns3:atemp>17.0</ns3:atemp>
          </ns3:TrackPointExtension>
        </extensions>
      </trkpt>
      <trkpt lat="42.56533565931022167205810546875" lon="20.04994547925889492034912109375">
        <ele>2160.39990234375</ele>
        <time>2026-06-15T11:21:16.000Z</time>
        <extensions>
          <ns3:TrackPointExtension>
            <ns3:atemp>17.0</ns3:atemp>
          </ns3:TrackPointExtension>
        </extensions>
      </trkpt>
      <trkpt lat="42.56533565931022167205810546875" lon="20.04994547925889492034912109375">
        <ele>2160.39990234375</ele>
        <time>2026-06-15T11:21:17.000Z</time>
        <extensions>
          <ns3:TrackPointExtension>
            <ns3:atemp>17.0</ns3:atemp>
          </ns3:TrackPointExtension>
        </extensions>
      </trkpt>
      <trkpt lat="42.56533565931022167205810546875" lon="20.04994547925889492034912109375">
        <ele>2160.39990234375</ele>
        <time>2026-06-15T11:21:18.000Z</time>
        <extensions>
          <ns3:TrackPointExtension>
            <ns3:atemp>17.0</ns3:atemp>
          </ns3:TrackPointExtension>
        </extensions>
      </trkpt>
      <trkpt lat="42.56533565931022167205810546875" lon="20.04994547925889492034912109375">
        <ele>2160.39990234375</ele>
        <time>2026-06-15T11:21:19.000Z</time>
        <extensions>
          <ns3:TrackPointExtension>
            <ns3:atemp>17.0</ns3:atemp>
          </ns3:TrackPointExtension>
        </extensions>
      </trkpt>
      <trkpt lat="42.56533565931022167205810546875" lon="20.04994547925889492034912109375">
        <ele>2160.39990234375</ele>
        <time>2026-06-15T11:21:20.000Z</time>
        <extensions>
          <ns3:TrackPointExtension>
            <ns3:atemp>17.0</ns3:atemp>
          </ns3:TrackPointExtension>
        </extensions>
      </trkpt>
      <trkpt lat="42.56533565931022167205810546875" lon="20.04994547925889492034912109375">
        <ele>2160.199951171875</ele>
        <time>2026-06-15T11:21:21.000Z</time>
        <extensions>
          <ns3:TrackPointExtension>
            <ns3:atemp>17.0</ns3:atemp>
          </ns3:TrackPointExtension>
        </extensions>
      </trkpt>
      <trkpt lat="42.56533565931022167205810546875" lon="20.04994547925889492034912109375">
        <ele>2160.199951171875</ele>
        <time>2026-06-15T11:21:22.000Z</time>
        <extensions>
          <ns3:TrackPointExtension>
            <ns3:atemp>17.0</ns3:atemp>
          </ns3:TrackPointExtension>
        </extensions>
      </trkpt>
      <trkpt lat="42.56533565931022167205810546875" lon="20.04994547925889492034912109375">
        <ele>2160.39990234375</ele>
        <time>2026-06-15T11:21:23.000Z</time>
        <extensions>
          <ns3:TrackPointExtension>
            <ns3:atemp>17.0</ns3:atemp>
          </ns3:TrackPointExtension>
        </extensions>
      </trkpt>
      <trkpt lat="42.56533565931022167205810546875" lon="20.04994547925889492034912109375">
        <ele>2160.39990234375</ele>
        <time>2026-06-15T11:21:24.000Z</time>
        <extensions>
          <ns3:TrackPointExtension>
            <ns3:atemp>17.0</ns3:atemp>
          </ns3:TrackPointExtension>
        </extensions>
      </trkpt>
      <trkpt lat="42.56533565931022167205810546875" lon="20.04994547925889492034912109375">
        <ele>2160.39990234375</ele>
        <time>2026-06-15T11:21:25.000Z</time>
        <extensions>
          <ns3:TrackPointExtension>
            <ns3:atemp>17.0</ns3:atemp>
          </ns3:TrackPointExtension>
        </extensions>
      </trkpt>
      <trkpt lat="42.56533565931022167205810546875" lon="20.04994547925889492034912109375">
        <ele>2160.39990234375</ele>
        <time>2026-06-15T11:21:26.000Z</time>
        <extensions>
          <ns3:TrackPointExtension>
            <ns3:atemp>17.0</ns3:atemp>
          </ns3:TrackPointExtension>
        </extensions>
      </trkpt>
      <trkpt lat="42.56533565931022167205810546875" lon="20.04994547925889492034912109375">
        <ele>2160.39990234375</ele>
        <time>2026-06-15T11:21:27.000Z</time>
        <extensions>
          <ns3:TrackPointExtension>
            <ns3:atemp>17.0</ns3:atemp>
          </ns3:TrackPointExtension>
        </extensions>
      </trkpt>
      <trkpt lat="42.56533565931022167205810546875" lon="20.04994547925889492034912109375">
        <ele>2160.39990234375</ele>
        <time>2026-06-15T11:21:28.000Z</time>
        <extensions>
          <ns3:TrackPointExtension>
            <ns3:atemp>17.0</ns3:atemp>
          </ns3:TrackPointExtension>
        </extensions>
      </trkpt>
      <trkpt lat="42.56533565931022167205810546875" lon="20.04994547925889492034912109375">
        <ele>2160.39990234375</ele>
        <time>2026-06-15T11:21:29.000Z</time>
        <extensions>
          <ns3:TrackPointExtension>
            <ns3:atemp>17.0</ns3:atemp>
          </ns3:TrackPointExtension>
        </extensions>
      </trkpt>
      <trkpt lat="42.56533565931022167205810546875" lon="20.04994547925889492034912109375">
        <ele>2160.39990234375</ele>
        <time>2026-06-15T11:21:30.000Z</time>
        <extensions>
          <ns3:TrackPointExtension>
            <ns3:atemp>17.0</ns3:atemp>
          </ns3:TrackPointExtension>
        </extensions>
      </trkpt>
      <trkpt lat="42.56533565931022167205810546875" lon="20.04994547925889492034912109375">
        <ele>2160.39990234375</ele>
        <time>2026-06-15T11:21:31.000Z</time>
        <extensions>
          <ns3:TrackPointExtension>
            <ns3:atemp>17.0</ns3:atemp>
          </ns3:TrackPointExtension>
        </extensions>
      </trkpt>
      <trkpt lat="42.56533565931022167205810546875" lon="20.04994547925889492034912109375">
        <ele>2160.39990234375</ele>
        <time>2026-06-15T11:21:32.000Z</time>
        <extensions>
          <ns3:TrackPointExtension>
            <ns3:atemp>17.0</ns3:atemp>
          </ns3:TrackPointExtension>
        </extensions>
      </trkpt>
      <trkpt lat="42.56533565931022167205810546875" lon="20.04994547925889492034912109375">
        <ele>2160.39990234375</ele>
        <time>2026-06-15T11:21:33.000Z</time>
        <extensions>
          <ns3:TrackPointExtension>
            <ns3:atemp>17.0</ns3:atemp>
          </ns3:TrackPointExtension>
        </extensions>
      </trkpt>
      <trkpt lat="42.56533565931022167205810546875" lon="20.04994547925889492034912109375">
        <ele>2160.39990234375</ele>
        <time>2026-06-15T11:21:34.000Z</time>
        <extensions>
          <ns3:TrackPointExtension>
            <ns3:atemp>17.0</ns3:atemp>
          </ns3:TrackPointExtension>
        </extensions>
      </trkpt>
      <trkpt lat="42.56533565931022167205810546875" lon="20.04994547925889492034912109375">
        <ele>2160.39990234375</ele>
        <time>2026-06-15T11:21:35.000Z</time>
        <extensions>
          <ns3:TrackPointExtension>
            <ns3:atemp>17.0</ns3:atemp>
          </ns3:TrackPointExtension>
        </extensions>
      </trkpt>
      <trkpt lat="42.56533565931022167205810546875" lon="20.04994547925889492034912109375">
        <ele>2160.39990234375</ele>
        <time>2026-06-15T11:21:36.000Z</time>
        <extensions>
          <ns3:TrackPointExtension>
            <ns3:atemp>17.0</ns3:atemp>
          </ns3:TrackPointExtension>
        </extensions>
      </trkpt>
      <trkpt lat="42.56533565931022167205810546875" lon="20.04994547925889492034912109375">
        <ele>2160.39990234375</ele>
        <time>2026-06-15T11:21:37.000Z</time>
        <extensions>
          <ns3:TrackPointExtension>
            <ns3:atemp>17.0</ns3:atemp>
          </ns3:TrackPointExtension>
        </extensions>
      </trkpt>
      <trkpt lat="42.56533565931022167205810546875" lon="20.04994547925889492034912109375">
        <ele>2160.39990234375</ele>
        <time>2026-06-15T11:21:38.000Z</time>
        <extensions>
          <ns3:TrackPointExtension>
            <ns3:atemp>17.0</ns3:atemp>
          </ns3:TrackPointExtension>
        </extensions>
      </trkpt>
      <trkpt lat="42.56533565931022167205810546875" lon="20.04994547925889492034912109375">
        <ele>2160.39990234375</ele>
        <time>2026-06-15T11:21:39.000Z</time>
        <extensions>
          <ns3:TrackPointExtension>
            <ns3:atemp>17.0</ns3:atemp>
          </ns3:TrackPointExtension>
        </extensions>
      </trkpt>
      <trkpt lat="42.56533565931022167205810546875" lon="20.04994547925889492034912109375">
        <ele>2160.39990234375</ele>
        <time>2026-06-15T11:21:40.000Z</time>
        <extensions>
          <ns3:TrackPointExtension>
            <ns3:atemp>17.0</ns3:atemp>
          </ns3:TrackPointExtension>
        </extensions>
      </trkpt>
      <trkpt lat="42.56533565931022167205810546875" lon="20.04994547925889492034912109375">
        <ele>2160.39990234375</ele>
        <time>2026-06-15T11:21:41.000Z</time>
        <extensions>
          <ns3:TrackPointExtension>
            <ns3:atemp>17.0</ns3:atemp>
          </ns3:TrackPointExtension>
        </extensions>
      </trkpt>
      <trkpt lat="42.56533565931022167205810546875" lon="20.04994547925889492034912109375">
        <ele>2160.39990234375</ele>
        <time>2026-06-15T11:21:42.000Z</time>
        <extensions>
          <ns3:TrackPointExtension>
            <ns3:atemp>17.0</ns3:atemp>
          </ns3:TrackPointExtension>
        </extensions>
      </trkpt>
      <trkpt lat="42.56533565931022167205810546875" lon="20.04994547925889492034912109375">
        <ele>2160.39990234375</ele>
        <time>2026-06-15T11:21:43.000Z</time>
        <extensions>
          <ns3:TrackPointExtension>
            <ns3:atemp>17.0</ns3:atemp>
          </ns3:TrackPointExtension>
        </extensions>
      </trkpt>
      <trkpt lat="42.56533565931022167205810546875" lon="20.04994547925889492034912109375">
        <ele>2160.39990234375</ele>
        <time>2026-06-15T11:21:44.000Z</time>
        <extensions>
          <ns3:TrackPointExtension>
            <ns3:atemp>17.0</ns3:atemp>
          </ns3:TrackPointExtension>
        </extensions>
      </trkpt>
      <trkpt lat="42.56533565931022167205810546875" lon="20.04994547925889492034912109375">
        <ele>2160.39990234375</ele>
        <time>2026-06-15T11:21:45.000Z</time>
        <extensions>
          <ns3:TrackPointExtension>
            <ns3:atemp>17.0</ns3:atemp>
          </ns3:TrackPointExtension>
        </extensions>
      </trkpt>
      <trkpt lat="42.56533565931022167205810546875" lon="20.04994547925889492034912109375">
        <ele>2160.39990234375</ele>
        <time>2026-06-15T11:21:46.000Z</time>
        <extensions>
          <ns3:TrackPointExtension>
            <ns3:atemp>17.0</ns3:atemp>
          </ns3:TrackPointExtension>
        </extensions>
      </trkpt>
      <trkpt lat="42.56533565931022167205810546875" lon="20.04994547925889492034912109375">
        <ele>2160.39990234375</ele>
        <time>2026-06-15T11:21:47.000Z</time>
        <extensions>
          <ns3:TrackPointExtension>
            <ns3:atemp>17.0</ns3:atemp>
          </ns3:TrackPointExtension>
        </extensions>
      </trkpt>
      <trkpt lat="42.56533565931022167205810546875" lon="20.04994547925889492034912109375">
        <ele>2160.39990234375</ele>
        <time>2026-06-15T11:21:48.000Z</time>
        <extensions>
          <ns3:TrackPointExtension>
            <ns3:atemp>17.0</ns3:atemp>
          </ns3:TrackPointExtension>
        </extensions>
      </trkpt>
      <trkpt lat="42.56533565931022167205810546875" lon="20.04994547925889492034912109375">
        <ele>2160.39990234375</ele>
        <time>2026-06-15T11:21:49.000Z</time>
        <extensions>
          <ns3:TrackPointExtension>
            <ns3:atemp>17.0</ns3:atemp>
          </ns3:TrackPointExtension>
        </extensions>
      </trkpt>
      <trkpt lat="42.56533565931022167205810546875" lon="20.04994547925889492034912109375">
        <ele>2160.39990234375</ele>
        <time>2026-06-15T11:21:50.000Z</time>
        <extensions>
          <ns3:TrackPointExtension>
            <ns3:atemp>17.0</ns3:atemp>
          </ns3:TrackPointExtension>
        </extensions>
      </trkpt>
      <trkpt lat="42.56533565931022167205810546875" lon="20.04994547925889492034912109375">
        <ele>2160.39990234375</ele>
        <time>2026-06-15T11:21:51.000Z</time>
        <extensions>
          <ns3:TrackPointExtension>
            <ns3:atemp>17.0</ns3:atemp>
          </ns3:TrackPointExtension>
        </extensions>
      </trkpt>
      <trkpt lat="42.56533565931022167205810546875" lon="20.04994547925889492034912109375">
        <ele>2160.39990234375</ele>
        <time>2026-06-15T11:21:52.000Z</time>
        <extensions>
          <ns3:TrackPointExtension>
            <ns3:atemp>17.0</ns3:atemp>
          </ns3:TrackPointExtension>
        </extensions>
      </trkpt>
      <trkpt lat="42.56533565931022167205810546875" lon="20.04994547925889492034912109375">
        <ele>2160.39990234375</ele>
        <time>2026-06-15T11:21:53.000Z</time>
        <extensions>
          <ns3:TrackPointExtension>
            <ns3:atemp>17.0</ns3:atemp>
          </ns3:TrackPointExtension>
        </extensions>
      </trkpt>
      <trkpt lat="42.56533565931022167205810546875" lon="20.04994547925889492034912109375">
        <ele>2160.39990234375</ele>
        <time>2026-06-15T11:21:54.000Z</time>
        <extensions>
          <ns3:TrackPointExtension>
            <ns3:atemp>17.0</ns3:atemp>
          </ns3:TrackPointExtension>
        </extensions>
      </trkpt>
      <trkpt lat="42.56533565931022167205810546875" lon="20.04994547925889492034912109375">
        <ele>2160.39990234375</ele>
        <time>2026-06-15T11:21:55.000Z</time>
        <extensions>
          <ns3:TrackPointExtension>
            <ns3:atemp>17.0</ns3:atemp>
          </ns3:TrackPointExtension>
        </extensions>
      </trkpt>
      <trkpt lat="42.56533565931022167205810546875" lon="20.04994547925889492034912109375">
        <ele>2160.39990234375</ele>
        <time>2026-06-15T11:21:56.000Z</time>
        <extensions>
          <ns3:TrackPointExtension>
            <ns3:atemp>17.0</ns3:atemp>
          </ns3:TrackPointExtension>
        </extensions>
      </trkpt>
      <trkpt lat="42.56533565931022167205810546875" lon="20.04994547925889492034912109375">
        <ele>2160.39990234375</ele>
        <time>2026-06-15T11:21:57.000Z</time>
        <extensions>
          <ns3:TrackPointExtension>
            <ns3:atemp>17.0</ns3:atemp>
          </ns3:TrackPointExtension>
        </extensions>
      </trkpt>
      <trkpt lat="42.56533565931022167205810546875" lon="20.04994547925889492034912109375">
        <ele>2160.39990234375</ele>
        <time>2026-06-15T11:21:58.000Z</time>
        <extensions>
          <ns3:TrackPointExtension>
            <ns3:atemp>17.0</ns3:atemp>
          </ns3:TrackPointExtension>
        </extensions>
      </trkpt>
      <trkpt lat="42.56533565931022167205810546875" lon="20.04994547925889492034912109375">
        <ele>2160.39990234375</ele>
        <time>2026-06-15T11:21:59.000Z</time>
        <extensions>
          <ns3:TrackPointExtension>
            <ns3:atemp>17.0</ns3:atemp>
          </ns3:TrackPointExtension>
        </extensions>
      </trkpt>
      <trkpt lat="42.56533565931022167205810546875" lon="20.04994547925889492034912109375">
        <ele>2160.39990234375</ele>
        <time>2026-06-15T11:22:00.000Z</time>
        <extensions>
          <ns3:TrackPointExtension>
            <ns3:atemp>17.0</ns3:atemp>
          </ns3:TrackPointExtension>
        </extensions>
      </trkpt>
      <trkpt lat="42.56533565931022167205810546875" lon="20.04994547925889492034912109375">
        <ele>2160.39990234375</ele>
        <time>2026-06-15T11:22:01.000Z</time>
        <extensions>
          <ns3:TrackPointExtension>
            <ns3:atemp>17.0</ns3:atemp>
          </ns3:TrackPointExtension>
        </extensions>
      </trkpt>
      <trkpt lat="42.56533565931022167205810546875" lon="20.04994547925889492034912109375">
        <ele>2160.39990234375</ele>
        <time>2026-06-15T11:22:02.000Z</time>
        <extensions>
          <ns3:TrackPointExtension>
            <ns3:atemp>17.0</ns3:atemp>
          </ns3:TrackPointExtension>
        </extensions>
      </trkpt>
      <trkpt lat="42.56533565931022167205810546875" lon="20.04994547925889492034912109375">
        <ele>2160.39990234375</ele>
        <time>2026-06-15T11:22:03.000Z</time>
        <extensions>
          <ns3:TrackPointExtension>
            <ns3:atemp>17.0</ns3:atemp>
          </ns3:TrackPointExtension>
        </extensions>
      </trkpt>
      <trkpt lat="42.56533565931022167205810546875" lon="20.04994547925889492034912109375">
        <ele>2160.39990234375</ele>
        <time>2026-06-15T11:22:04.000Z</time>
        <extensions>
          <ns3:TrackPointExtension>
            <ns3:atemp>17.0</ns3:atemp>
          </ns3:TrackPointExtension>
        </extensions>
      </trkpt>
      <trkpt lat="42.56533565931022167205810546875" lon="20.04994547925889492034912109375">
        <ele>2160.39990234375</ele>
        <time>2026-06-15T11:22:05.000Z</time>
        <extensions>
          <ns3:TrackPointExtension>
            <ns3:atemp>17.0</ns3:atemp>
          </ns3:TrackPointExtension>
        </extensions>
      </trkpt>
      <trkpt lat="42.56533565931022167205810546875" lon="20.04994547925889492034912109375">
        <ele>2160.39990234375</ele>
        <time>2026-06-15T11:22:06.000Z</time>
        <extensions>
          <ns3:TrackPointExtension>
            <ns3:atemp>17.0</ns3:atemp>
          </ns3:TrackPointExtension>
        </extensions>
      </trkpt>
      <trkpt lat="42.56533565931022167205810546875" lon="20.04994547925889492034912109375">
        <ele>2160.39990234375</ele>
        <time>2026-06-15T11:22:07.000Z</time>
        <extensions>
          <ns3:TrackPointExtension>
            <ns3:atemp>17.0</ns3:atemp>
          </ns3:TrackPointExtension>
        </extensions>
      </trkpt>
      <trkpt lat="42.56533565931022167205810546875" lon="20.04994547925889492034912109375">
        <ele>2160.39990234375</ele>
        <time>2026-06-15T11:22:08.000Z</time>
        <extensions>
          <ns3:TrackPointExtension>
            <ns3:atemp>17.0</ns3:atemp>
          </ns3:TrackPointExtension>
        </extensions>
      </trkpt>
      <trkpt lat="42.56533565931022167205810546875" lon="20.04994547925889492034912109375">
        <ele>2160.39990234375</ele>
        <time>2026-06-15T11:22:09.000Z</time>
        <extensions>
          <ns3:TrackPointExtension>
            <ns3:atemp>17.0</ns3:atemp>
          </ns3:TrackPointExtension>
        </extensions>
      </trkpt>
      <trkpt lat="42.56533565931022167205810546875" lon="20.04994547925889492034912109375">
        <ele>2160.39990234375</ele>
        <time>2026-06-15T11:22:10.000Z</time>
        <extensions>
          <ns3:TrackPointExtension>
            <ns3:atemp>17.0</ns3:atemp>
          </ns3:TrackPointExtension>
        </extensions>
      </trkpt>
      <trkpt lat="42.56533565931022167205810546875" lon="20.04994547925889492034912109375">
        <ele>2160.39990234375</ele>
        <time>2026-06-15T11:22:11.000Z</time>
        <extensions>
          <ns3:TrackPointExtension>
            <ns3:atemp>17.0</ns3:atemp>
          </ns3:TrackPointExtension>
        </extensions>
      </trkpt>
      <trkpt lat="42.56533565931022167205810546875" lon="20.04994547925889492034912109375">
        <ele>2160.39990234375</ele>
        <time>2026-06-15T11:22:12.000Z</time>
        <extensions>
          <ns3:TrackPointExtension>
            <ns3:atemp>17.0</ns3:atemp>
          </ns3:TrackPointExtension>
        </extensions>
      </trkpt>
      <trkpt lat="42.56533565931022167205810546875" lon="20.04994547925889492034912109375">
        <ele>2160.39990234375</ele>
        <time>2026-06-15T11:22:13.000Z</time>
        <extensions>
          <ns3:TrackPointExtension>
            <ns3:atemp>17.0</ns3:atemp>
          </ns3:TrackPointExtension>
        </extensions>
      </trkpt>
      <trkpt lat="42.56533565931022167205810546875" lon="20.04994547925889492034912109375">
        <ele>2160.39990234375</ele>
        <time>2026-06-15T11:22:14.000Z</time>
        <extensions>
          <ns3:TrackPointExtension>
            <ns3:atemp>17.0</ns3:atemp>
          </ns3:TrackPointExtension>
        </extensions>
      </trkpt>
      <trkpt lat="42.56533565931022167205810546875" lon="20.04994547925889492034912109375">
        <ele>2160.39990234375</ele>
        <time>2026-06-15T11:22:15.000Z</time>
        <extensions>
          <ns3:TrackPointExtension>
            <ns3:atemp>17.0</ns3:atemp>
          </ns3:TrackPointExtension>
        </extensions>
      </trkpt>
      <trkpt lat="42.56533565931022167205810546875" lon="20.04994547925889492034912109375">
        <ele>2160.39990234375</ele>
        <time>2026-06-15T11:22:16.000Z</time>
        <extensions>
          <ns3:TrackPointExtension>
            <ns3:atemp>17.0</ns3:atemp>
          </ns3:TrackPointExtension>
        </extensions>
      </trkpt>
      <trkpt lat="42.56533565931022167205810546875" lon="20.04994547925889492034912109375">
        <ele>2160.39990234375</ele>
        <time>2026-06-15T11:22:17.000Z</time>
        <extensions>
          <ns3:TrackPointExtension>
            <ns3:atemp>17.0</ns3:atemp>
          </ns3:TrackPointExtension>
        </extensions>
      </trkpt>
      <trkpt lat="42.56533565931022167205810546875" lon="20.04994547925889492034912109375">
        <ele>2160.39990234375</ele>
        <time>2026-06-15T11:22:18.000Z</time>
        <extensions>
          <ns3:TrackPointExtension>
            <ns3:atemp>17.0</ns3:atemp>
          </ns3:TrackPointExtension>
        </extensions>
      </trkpt>
      <trkpt lat="42.56533565931022167205810546875" lon="20.04994547925889492034912109375">
        <ele>2160.39990234375</ele>
        <time>2026-06-15T11:22:19.000Z</time>
        <extensions>
          <ns3:TrackPointExtension>
            <ns3:atemp>17.0</ns3:atemp>
          </ns3:TrackPointExtension>
        </extensions>
      </trkpt>
      <trkpt lat="42.56533565931022167205810546875" lon="20.04994547925889492034912109375">
        <ele>2160.39990234375</ele>
        <time>2026-06-15T11:22:20.000Z</time>
        <extensions>
          <ns3:TrackPointExtension>
            <ns3:atemp>17.0</ns3:atemp>
          </ns3:TrackPointExtension>
        </extensions>
      </trkpt>
      <trkpt lat="42.56533565931022167205810546875" lon="20.04994547925889492034912109375">
        <ele>2160.39990234375</ele>
        <time>2026-06-15T11:22:21.000Z</time>
        <extensions>
          <ns3:TrackPointExtension>
            <ns3:atemp>17.0</ns3:atemp>
          </ns3:TrackPointExtension>
        </extensions>
      </trkpt>
      <trkpt lat="42.56533565931022167205810546875" lon="20.04994547925889492034912109375">
        <ele>2160.39990234375</ele>
        <time>2026-06-15T11:22:22.000Z</time>
        <extensions>
          <ns3:TrackPointExtension>
            <ns3:atemp>17.0</ns3:atemp>
          </ns3:TrackPointExtension>
        </extensions>
      </trkpt>
      <trkpt lat="42.56533565931022167205810546875" lon="20.04994547925889492034912109375">
        <ele>2160.39990234375</ele>
        <time>2026-06-15T11:22:23.000Z</time>
        <extensions>
          <ns3:TrackPointExtension>
            <ns3:atemp>17.0</ns3:atemp>
          </ns3:TrackPointExtension>
        </extensions>
      </trkpt>
      <trkpt lat="42.56533565931022167205810546875" lon="20.04994547925889492034912109375">
        <ele>2160.39990234375</ele>
        <time>2026-06-15T11:22:24.000Z</time>
        <extensions>
          <ns3:TrackPointExtension>
            <ns3:atemp>17.0</ns3:atemp>
          </ns3:TrackPointExtension>
        </extensions>
      </trkpt>
      <trkpt lat="42.56533565931022167205810546875" lon="20.04994547925889492034912109375">
        <ele>2160.39990234375</ele>
        <time>2026-06-15T11:22:25.000Z</time>
        <extensions>
          <ns3:TrackPointExtension>
            <ns3:atemp>17.0</ns3:atemp>
          </ns3:TrackPointExtension>
        </extensions>
      </trkpt>
      <trkpt lat="42.56533565931022167205810546875" lon="20.04994547925889492034912109375">
        <ele>2160.39990234375</ele>
        <time>2026-06-15T11:22:26.000Z</time>
        <extensions>
          <ns3:TrackPointExtension>
            <ns3:atemp>17.0</ns3:atemp>
          </ns3:TrackPointExtension>
        </extensions>
      </trkpt>
      <trkpt lat="42.56533565931022167205810546875" lon="20.04994547925889492034912109375">
        <ele>2160.39990234375</ele>
        <time>2026-06-15T11:22:27.000Z</time>
        <extensions>
          <ns3:TrackPointExtension>
            <ns3:atemp>17.0</ns3:atemp>
          </ns3:TrackPointExtension>
        </extensions>
      </trkpt>
      <trkpt lat="42.56533565931022167205810546875" lon="20.04994547925889492034912109375">
        <ele>2160.39990234375</ele>
        <time>2026-06-15T11:22:28.000Z</time>
        <extensions>
          <ns3:TrackPointExtension>
            <ns3:atemp>17.0</ns3:atemp>
          </ns3:TrackPointExtension>
        </extensions>
      </trkpt>
      <trkpt lat="42.56533565931022167205810546875" lon="20.04994547925889492034912109375">
        <ele>2160.39990234375</ele>
        <time>2026-06-15T11:22:29.000Z</time>
        <extensions>
          <ns3:TrackPointExtension>
            <ns3:atemp>17.0</ns3:atemp>
          </ns3:TrackPointExtension>
        </extensions>
      </trkpt>
      <trkpt lat="42.56533565931022167205810546875" lon="20.04994547925889492034912109375">
        <ele>2160.39990234375</ele>
        <time>2026-06-15T11:22:30.000Z</time>
        <extensions>
          <ns3:TrackPointExtension>
            <ns3:atemp>17.0</ns3:atemp>
          </ns3:TrackPointExtension>
        </extensions>
      </trkpt>
      <trkpt lat="42.56533565931022167205810546875" lon="20.04994547925889492034912109375">
        <ele>2160.39990234375</ele>
        <time>2026-06-15T11:22:31.000Z</time>
        <extensions>
          <ns3:TrackPointExtension>
            <ns3:atemp>17.0</ns3:atemp>
          </ns3:TrackPointExtension>
        </extensions>
      </trkpt>
      <trkpt lat="42.56533565931022167205810546875" lon="20.04994547925889492034912109375">
        <ele>2160.39990234375</ele>
        <time>2026-06-15T11:22:32.000Z</time>
        <extensions>
          <ns3:TrackPointExtension>
            <ns3:atemp>17.0</ns3:atemp>
          </ns3:TrackPointExtension>
        </extensions>
      </trkpt>
      <trkpt lat="42.56533565931022167205810546875" lon="20.04994547925889492034912109375">
        <ele>2160.39990234375</ele>
        <time>2026-06-15T11:22:33.000Z</time>
        <extensions>
          <ns3:TrackPointExtension>
            <ns3:atemp>17.0</ns3:atemp>
          </ns3:TrackPointExtension>
        </extensions>
      </trkpt>
      <trkpt lat="42.56533565931022167205810546875" lon="20.04994547925889492034912109375">
        <ele>2160.39990234375</ele>
        <time>2026-06-15T11:22:34.000Z</time>
        <extensions>
          <ns3:TrackPointExtension>
            <ns3:atemp>17.0</ns3:atemp>
          </ns3:TrackPointExtension>
        </extensions>
      </trkpt>
      <trkpt lat="42.56533565931022167205810546875" lon="20.04994547925889492034912109375">
        <ele>2160.39990234375</ele>
        <time>2026-06-15T11:22:35.000Z</time>
        <extensions>
          <ns3:TrackPointExtension>
            <ns3:atemp>17.0</ns3:atemp>
          </ns3:TrackPointExtension>
        </extensions>
      </trkpt>
      <trkpt lat="42.56533565931022167205810546875" lon="20.04994547925889492034912109375">
        <ele>2160.39990234375</ele>
        <time>2026-06-15T11:22:36.000Z</time>
        <extensions>
          <ns3:TrackPointExtension>
            <ns3:atemp>17.0</ns3:atemp>
          </ns3:TrackPointExtension>
        </extensions>
      </trkpt>
      <trkpt lat="42.56533565931022167205810546875" lon="20.04994547925889492034912109375">
        <ele>2160.39990234375</ele>
        <time>2026-06-15T11:22:37.000Z</time>
        <extensions>
          <ns3:TrackPointExtension>
            <ns3:atemp>17.0</ns3:atemp>
          </ns3:TrackPointExtension>
        </extensions>
      </trkpt>
      <trkpt lat="42.56533565931022167205810546875" lon="20.04994547925889492034912109375">
        <ele>2160.39990234375</ele>
        <time>2026-06-15T11:22:38.000Z</time>
        <extensions>
          <ns3:TrackPointExtension>
            <ns3:atemp>17.0</ns3:atemp>
          </ns3:TrackPointExtension>
        </extensions>
      </trkpt>
      <trkpt lat="42.56533565931022167205810546875" lon="20.04994547925889492034912109375">
        <ele>2160.39990234375</ele>
        <time>2026-06-15T11:22:39.000Z</time>
        <extensions>
          <ns3:TrackPointExtension>
            <ns3:atemp>17.0</ns3:atemp>
          </ns3:TrackPointExtension>
        </extensions>
      </trkpt>
      <trkpt lat="42.56533565931022167205810546875" lon="20.04994547925889492034912109375">
        <ele>2160.39990234375</ele>
        <time>2026-06-15T11:22:40.000Z</time>
        <extensions>
          <ns3:TrackPointExtension>
            <ns3:atemp>17.0</ns3:atemp>
          </ns3:TrackPointExtension>
        </extensions>
      </trkpt>
      <trkpt lat="42.56533565931022167205810546875" lon="20.04994547925889492034912109375">
        <ele>2160.39990234375</ele>
        <time>2026-06-15T11:22:41.000Z</time>
        <extensions>
          <ns3:TrackPointExtension>
            <ns3:atemp>17.0</ns3:atemp>
          </ns3:TrackPointExtension>
        </extensions>
      </trkpt>
      <trkpt lat="42.56533565931022167205810546875" lon="20.04994547925889492034912109375">
        <ele>2160.39990234375</ele>
        <time>2026-06-15T11:22:42.000Z</time>
        <extensions>
          <ns3:TrackPointExtension>
            <ns3:atemp>17.0</ns3:atemp>
          </ns3:TrackPointExtension>
        </extensions>
      </trkpt>
      <trkpt lat="42.56533565931022167205810546875" lon="20.04994547925889492034912109375">
        <ele>2160.39990234375</ele>
        <time>2026-06-15T11:22:43.000Z</time>
        <extensions>
          <ns3:TrackPointExtension>
            <ns3:atemp>17.0</ns3:atemp>
          </ns3:TrackPointExtension>
        </extensions>
      </trkpt>
      <trkpt lat="42.56533565931022167205810546875" lon="20.04994547925889492034912109375">
        <ele>2160.39990234375</ele>
        <time>2026-06-15T11:22:44.000Z</time>
        <extensions>
          <ns3:TrackPointExtension>
            <ns3:atemp>17.0</ns3:atemp>
          </ns3:TrackPointExtension>
        </extensions>
      </trkpt>
      <trkpt lat="42.56533565931022167205810546875" lon="20.04994547925889492034912109375">
        <ele>2160.39990234375</ele>
        <time>2026-06-15T11:22:45.000Z</time>
        <extensions>
          <ns3:TrackPointExtension>
            <ns3:atemp>17.0</ns3:atemp>
          </ns3:TrackPointExtension>
        </extensions>
      </trkpt>
      <trkpt lat="42.56533565931022167205810546875" lon="20.04994547925889492034912109375">
        <ele>2160.39990234375</ele>
        <time>2026-06-15T11:22:46.000Z</time>
        <extensions>
          <ns3:TrackPointExtension>
            <ns3:atemp>17.0</ns3:atemp>
          </ns3:TrackPointExtension>
        </extensions>
      </trkpt>
      <trkpt lat="42.56533565931022167205810546875" lon="20.04994547925889492034912109375">
        <ele>2160.39990234375</ele>
        <time>2026-06-15T11:22:47.000Z</time>
        <extensions>
          <ns3:TrackPointExtension>
            <ns3:atemp>17.0</ns3:atemp>
          </ns3:TrackPointExtension>
        </extensions>
      </trkpt>
      <trkpt lat="42.56533565931022167205810546875" lon="20.04994547925889492034912109375">
        <ele>2160.39990234375</ele>
        <time>2026-06-15T11:22:48.000Z</time>
        <extensions>
          <ns3:TrackPointExtension>
            <ns3:atemp>17.0</ns3:atemp>
          </ns3:TrackPointExtension>
        </extensions>
      </trkpt>
      <trkpt lat="42.56533565931022167205810546875" lon="20.04994547925889492034912109375">
        <ele>2160.39990234375</ele>
        <time>2026-06-15T11:22:49.000Z</time>
        <extensions>
          <ns3:TrackPointExtension>
            <ns3:atemp>17.0</ns3:atemp>
          </ns3:TrackPointExtension>
        </extensions>
      </trkpt>
      <trkpt lat="42.56533565931022167205810546875" lon="20.04994547925889492034912109375">
        <ele>2160.39990234375</ele>
        <time>2026-06-15T11:22:50.000Z</time>
        <extensions>
          <ns3:TrackPointExtension>
            <ns3:atemp>17.0</ns3:atemp>
          </ns3:TrackPointExtension>
        </extensions>
      </trkpt>
      <trkpt lat="42.56533565931022167205810546875" lon="20.04994547925889492034912109375">
        <ele>2160.39990234375</ele>
        <time>2026-06-15T11:22:51.000Z</time>
        <extensions>
          <ns3:TrackPointExtension>
            <ns3:atemp>17.0</ns3:atemp>
          </ns3:TrackPointExtension>
        </extensions>
      </trkpt>
      <trkpt lat="42.56533565931022167205810546875" lon="20.04994547925889492034912109375">
        <ele>2160.39990234375</ele>
        <time>2026-06-15T11:22:52.000Z</time>
        <extensions>
          <ns3:TrackPointExtension>
            <ns3:atemp>17.0</ns3:atemp>
          </ns3:TrackPointExtension>
        </extensions>
      </trkpt>
      <trkpt lat="42.56533565931022167205810546875" lon="20.04994547925889492034912109375">
        <ele>2160.39990234375</ele>
        <time>2026-06-15T11:22:53.000Z</time>
        <extensions>
          <ns3:TrackPointExtension>
            <ns3:atemp>17.0</ns3:atemp>
          </ns3:TrackPointExtension>
        </extensions>
      </trkpt>
      <trkpt lat="42.56533565931022167205810546875" lon="20.04994547925889492034912109375">
        <ele>2160.39990234375</ele>
        <time>2026-06-15T11:22:54.000Z</time>
        <extensions>
          <ns3:TrackPointExtension>
            <ns3:atemp>17.0</ns3:atemp>
          </ns3:TrackPointExtension>
        </extensions>
      </trkpt>
      <trkpt lat="42.56533565931022167205810546875" lon="20.04994547925889492034912109375">
        <ele>2160.39990234375</ele>
        <time>2026-06-15T11:22:55.000Z</time>
        <extensions>
          <ns3:TrackPointExtension>
            <ns3:atemp>18.0</ns3:atemp>
          </ns3:TrackPointExtension>
        </extensions>
      </trkpt>
      <trkpt lat="42.56533565931022167205810546875" lon="20.04994547925889492034912109375">
        <ele>2160.39990234375</ele>
        <time>2026-06-15T11:22:56.000Z</time>
        <extensions>
          <ns3:TrackPointExtension>
            <ns3:atemp>17.0</ns3:atemp>
          </ns3:TrackPointExtension>
        </extensions>
      </trkpt>
      <trkpt lat="42.56533565931022167205810546875" lon="20.04994547925889492034912109375">
        <ele>2160.39990234375</ele>
        <time>2026-06-15T11:22:57.000Z</time>
        <extensions>
          <ns3:TrackPointExtension>
            <ns3:atemp>17.0</ns3:atemp>
          </ns3:TrackPointExtension>
        </extensions>
      </trkpt>
      <trkpt lat="42.56533565931022167205810546875" lon="20.04994547925889492034912109375">
        <ele>2160.39990234375</ele>
        <time>2026-06-15T11:22:58.000Z</time>
        <extensions>
          <ns3:TrackPointExtension>
            <ns3:atemp>17.0</ns3:atemp>
          </ns3:TrackPointExtension>
        </extensions>
      </trkpt>
      <trkpt lat="42.56533565931022167205810546875" lon="20.04994547925889492034912109375">
        <ele>2160.39990234375</ele>
        <time>2026-06-15T11:22:59.000Z</time>
        <extensions>
          <ns3:TrackPointExtension>
            <ns3:atemp>17.0</ns3:atemp>
          </ns3:TrackPointExtension>
        </extensions>
      </trkpt>
      <trkpt lat="42.56533565931022167205810546875" lon="20.04994547925889492034912109375">
        <ele>2160.39990234375</ele>
        <time>2026-06-15T11:23:00.000Z</time>
        <extensions>
          <ns3:TrackPointExtension>
            <ns3:atemp>17.0</ns3:atemp>
          </ns3:TrackPointExtension>
        </extensions>
      </trkpt>
      <trkpt lat="42.56533565931022167205810546875" lon="20.04994547925889492034912109375">
        <ele>2160.39990234375</ele>
        <time>2026-06-15T11:23:01.000Z</time>
        <extensions>
          <ns3:TrackPointExtension>
            <ns3:atemp>17.0</ns3:atemp>
          </ns3:TrackPointExtension>
        </extensions>
      </trkpt>
      <trkpt lat="42.56533565931022167205810546875" lon="20.04994547925889492034912109375">
        <ele>2160.39990234375</ele>
        <time>2026-06-15T11:23:02.000Z</time>
        <extensions>
          <ns3:TrackPointExtension>
            <ns3:atemp>17.0</ns3:atemp>
          </ns3:TrackPointExtension>
        </extensions>
      </trkpt>
      <trkpt lat="42.56533565931022167205810546875" lon="20.04994547925889492034912109375">
        <ele>2160.39990234375</ele>
        <time>2026-06-15T11:23:03.000Z</time>
        <extensions>
          <ns3:TrackPointExtension>
            <ns3:atemp>17.0</ns3:atemp>
          </ns3:TrackPointExtension>
        </extensions>
      </trkpt>
      <trkpt lat="42.56533565931022167205810546875" lon="20.04994547925889492034912109375">
        <ele>2160.39990234375</ele>
        <time>2026-06-15T11:23:04.000Z</time>
        <extensions>
          <ns3:TrackPointExtension>
            <ns3:atemp>17.0</ns3:atemp>
          </ns3:TrackPointExtension>
        </extensions>
      </trkpt>
      <trkpt lat="42.56533565931022167205810546875" lon="20.04994547925889492034912109375">
        <ele>2160.39990234375</ele>
        <time>2026-06-15T11:23:05.000Z</time>
        <extensions>
          <ns3:TrackPointExtension>
            <ns3:atemp>17.0</ns3:atemp>
          </ns3:TrackPointExtension>
        </extensions>
      </trkpt>
      <trkpt lat="42.56533565931022167205810546875" lon="20.04994547925889492034912109375">
        <ele>2160.39990234375</ele>
        <time>2026-06-15T11:23:06.000Z</time>
        <extensions>
          <ns3:TrackPointExtension>
            <ns3:atemp>17.0</ns3:atemp>
          </ns3:TrackPointExtension>
        </extensions>
      </trkpt>
      <trkpt lat="42.56533565931022167205810546875" lon="20.04994547925889492034912109375">
        <ele>2160.39990234375</ele>
        <time>2026-06-15T11:23:07.000Z</time>
        <extensions>
          <ns3:TrackPointExtension>
            <ns3:atemp>17.0</ns3:atemp>
          </ns3:TrackPointExtension>
        </extensions>
      </trkpt>
      <trkpt lat="42.56533565931022167205810546875" lon="20.04994547925889492034912109375">
        <ele>2160.39990234375</ele>
        <time>2026-06-15T11:23:08.000Z</time>
        <extensions>
          <ns3:TrackPointExtension>
            <ns3:atemp>18.0</ns3:atemp>
          </ns3:TrackPointExtension>
        </extensions>
      </trkpt>
      <trkpt lat="42.56533565931022167205810546875" lon="20.04994547925889492034912109375">
        <ele>2160.39990234375</ele>
        <time>2026-06-15T11:23:09.000Z</time>
        <extensions>
          <ns3:TrackPointExtension>
            <ns3:atemp>18.0</ns3:atemp>
          </ns3:TrackPointExtension>
        </extensions>
      </trkpt>
      <trkpt lat="42.56533565931022167205810546875" lon="20.04994547925889492034912109375">
        <ele>2160.39990234375</ele>
        <time>2026-06-15T11:23:10.000Z</time>
        <extensions>
          <ns3:TrackPointExtension>
            <ns3:atemp>18.0</ns3:atemp>
          </ns3:TrackPointExtension>
        </extensions>
      </trkpt>
      <trkpt lat="42.56533565931022167205810546875" lon="20.04994547925889492034912109375">
        <ele>2160.39990234375</ele>
        <time>2026-06-15T11:23:11.000Z</time>
        <extensions>
          <ns3:TrackPointExtension>
            <ns3:atemp>18.0</ns3:atemp>
          </ns3:TrackPointExtension>
        </extensions>
      </trkpt>
      <trkpt lat="42.56533565931022167205810546875" lon="20.04994547925889492034912109375">
        <ele>2160.39990234375</ele>
        <time>2026-06-15T11:23:12.000Z</time>
        <extensions>
          <ns3:TrackPointExtension>
            <ns3:atemp>18.0</ns3:atemp>
          </ns3:TrackPointExtension>
        </extensions>
      </trkpt>
      <trkpt lat="42.56533565931022167205810546875" lon="20.04994547925889492034912109375">
        <ele>2160.39990234375</ele>
        <time>2026-06-15T11:23:13.000Z</time>
        <extensions>
          <ns3:TrackPointExtension>
            <ns3:atemp>18.0</ns3:atemp>
          </ns3:TrackPointExtension>
        </extensions>
      </trkpt>
      <trkpt lat="42.56533565931022167205810546875" lon="20.04994547925889492034912109375">
        <ele>2160.39990234375</ele>
        <time>2026-06-15T11:23:14.000Z</time>
        <extensions>
          <ns3:TrackPointExtension>
            <ns3:atemp>18.0</ns3:atemp>
          </ns3:TrackPointExtension>
        </extensions>
      </trkpt>
      <trkpt lat="42.56533565931022167205810546875" lon="20.04994547925889492034912109375">
        <ele>2160.39990234375</ele>
        <time>2026-06-15T11:23:15.000Z</time>
        <extensions>
          <ns3:TrackPointExtension>
            <ns3:atemp>18.0</ns3:atemp>
          </ns3:TrackPointExtension>
        </extensions>
      </trkpt>
      <trkpt lat="42.56533565931022167205810546875" lon="20.04994547925889492034912109375">
        <ele>2160.39990234375</ele>
        <time>2026-06-15T11:23:16.000Z</time>
        <extensions>
          <ns3:TrackPointExtension>
            <ns3:atemp>18.0</ns3:atemp>
          </ns3:TrackPointExtension>
        </extensions>
      </trkpt>
      <trkpt lat="42.56533565931022167205810546875" lon="20.04994547925889492034912109375">
        <ele>2160.39990234375</ele>
        <time>2026-06-15T11:23:17.000Z</time>
        <extensions>
          <ns3:TrackPointExtension>
            <ns3:atemp>18.0</ns3:atemp>
          </ns3:TrackPointExtension>
        </extensions>
      </trkpt>
      <trkpt lat="42.56533565931022167205810546875" lon="20.04994547925889492034912109375">
        <ele>2160.39990234375</ele>
        <time>2026-06-15T11:23:18.000Z</time>
        <extensions>
          <ns3:TrackPointExtension>
            <ns3:atemp>18.0</ns3:atemp>
          </ns3:TrackPointExtension>
        </extensions>
      </trkpt>
      <trkpt lat="42.56533565931022167205810546875" lon="20.04994547925889492034912109375">
        <ele>2160.39990234375</ele>
        <time>2026-06-15T11:23:19.000Z</time>
        <extensions>
          <ns3:TrackPointExtension>
            <ns3:atemp>18.0</ns3:atemp>
          </ns3:TrackPointExtension>
        </extensions>
      </trkpt>
      <trkpt lat="42.56533565931022167205810546875" lon="20.04994547925889492034912109375">
        <ele>2160.39990234375</ele>
        <time>2026-06-15T11:23:20.000Z</time>
        <extensions>
          <ns3:TrackPointExtension>
            <ns3:atemp>18.0</ns3:atemp>
          </ns3:TrackPointExtension>
        </extensions>
      </trkpt>
      <trkpt lat="42.56533565931022167205810546875" lon="20.04994547925889492034912109375">
        <ele>2160.39990234375</ele>
        <time>2026-06-15T11:23:21.000Z</time>
        <extensions>
          <ns3:TrackPointExtension>
            <ns3:atemp>18.0</ns3:atemp>
          </ns3:TrackPointExtension>
        </extensions>
      </trkpt>
      <trkpt lat="42.56533565931022167205810546875" lon="20.04994547925889492034912109375">
        <ele>2160.39990234375</ele>
        <time>2026-06-15T11:23:22.000Z</time>
        <extensions>
          <ns3:TrackPointExtension>
            <ns3:atemp>18.0</ns3:atemp>
          </ns3:TrackPointExtension>
        </extensions>
      </trkpt>
      <trkpt lat="42.56533565931022167205810546875" lon="20.04994547925889492034912109375">
        <ele>2160.39990234375</ele>
        <time>2026-06-15T11:23:23.000Z</time>
        <extensions>
          <ns3:TrackPointExtension>
            <ns3:atemp>18.0</ns3:atemp>
          </ns3:TrackPointExtension>
        </extensions>
      </trkpt>
      <trkpt lat="42.56533565931022167205810546875" lon="20.04994547925889492034912109375">
        <ele>2160.39990234375</ele>
        <time>2026-06-15T11:23:24.000Z</time>
        <extensions>
          <ns3:TrackPointExtension>
            <ns3:atemp>18.0</ns3:atemp>
          </ns3:TrackPointExtension>
        </extensions>
      </trkpt>
      <trkpt lat="42.56533565931022167205810546875" lon="20.04994547925889492034912109375">
        <ele>2160.39990234375</ele>
        <time>2026-06-15T11:23:25.000Z</time>
        <extensions>
          <ns3:TrackPointExtension>
            <ns3:atemp>18.0</ns3:atemp>
          </ns3:TrackPointExtension>
        </extensions>
      </trkpt>
      <trkpt lat="42.56533565931022167205810546875" lon="20.04994547925889492034912109375">
        <ele>2160.39990234375</ele>
        <time>2026-06-15T11:23:26.000Z</time>
        <extensions>
          <ns3:TrackPointExtension>
            <ns3:atemp>18.0</ns3:atemp>
          </ns3:TrackPointExtension>
        </extensions>
      </trkpt>
      <trkpt lat="42.56533565931022167205810546875" lon="20.04994547925889492034912109375">
        <ele>2160.39990234375</ele>
        <time>2026-06-15T11:23:27.000Z</time>
        <extensions>
          <ns3:TrackPointExtension>
            <ns3:atemp>18.0</ns3:atemp>
          </ns3:TrackPointExtension>
        </extensions>
      </trkpt>
      <trkpt lat="42.56533565931022167205810546875" lon="20.04994547925889492034912109375">
        <ele>2160.39990234375</ele>
        <time>2026-06-15T11:23:28.000Z</time>
        <extensions>
          <ns3:TrackPointExtension>
            <ns3:atemp>18.0</ns3:atemp>
          </ns3:TrackPointExtension>
        </extensions>
      </trkpt>
      <trkpt lat="42.56533565931022167205810546875" lon="20.04994547925889492034912109375">
        <ele>2160.39990234375</ele>
        <time>2026-06-15T11:23:29.000Z</time>
        <extensions>
          <ns3:TrackPointExtension>
            <ns3:atemp>18.0</ns3:atemp>
          </ns3:TrackPointExtension>
        </extensions>
      </trkpt>
      <trkpt lat="42.56533565931022167205810546875" lon="20.04994547925889492034912109375">
        <ele>2160.39990234375</ele>
        <time>2026-06-15T11:23:30.000Z</time>
        <extensions>
          <ns3:TrackPointExtension>
            <ns3:atemp>18.0</ns3:atemp>
          </ns3:TrackPointExtension>
        </extensions>
      </trkpt>
      <trkpt lat="42.56533565931022167205810546875" lon="20.04994547925889492034912109375">
        <ele>2160.39990234375</ele>
        <time>2026-06-15T11:23:31.000Z</time>
        <extensions>
          <ns3:TrackPointExtension>
            <ns3:atemp>18.0</ns3:atemp>
          </ns3:TrackPointExtension>
        </extensions>
      </trkpt>
      <trkpt lat="42.56533565931022167205810546875" lon="20.04994547925889492034912109375">
        <ele>2160.39990234375</ele>
        <time>2026-06-15T11:23:32.000Z</time>
        <extensions>
          <ns3:TrackPointExtension>
            <ns3:atemp>18.0</ns3:atemp>
          </ns3:TrackPointExtension>
        </extensions>
      </trkpt>
      <trkpt lat="42.56533565931022167205810546875" lon="20.04994547925889492034912109375">
        <ele>2160.39990234375</ele>
        <time>2026-06-15T11:23:33.000Z</time>
        <extensions>
          <ns3:TrackPointExtension>
            <ns3:atemp>18.0</ns3:atemp>
          </ns3:TrackPointExtension>
        </extensions>
      </trkpt>
      <trkpt lat="42.56533565931022167205810546875" lon="20.04994547925889492034912109375">
        <ele>2160.39990234375</ele>
        <time>2026-06-15T11:23:34.000Z</time>
        <extensions>
          <ns3:TrackPointExtension>
            <ns3:atemp>18.0</ns3:atemp>
          </ns3:TrackPointExtension>
        </extensions>
      </trkpt>
      <trkpt lat="42.56533565931022167205810546875" lon="20.04994547925889492034912109375">
        <ele>2160.39990234375</ele>
        <time>2026-06-15T11:23:35.000Z</time>
        <extensions>
          <ns3:TrackPointExtension>
            <ns3:atemp>18.0</ns3:atemp>
          </ns3:TrackPointExtension>
        </extensions>
      </trkpt>
      <trkpt lat="42.56533565931022167205810546875" lon="20.04994547925889492034912109375">
        <ele>2160.39990234375</ele>
        <time>2026-06-15T11:23:36.000Z</time>
        <extensions>
          <ns3:TrackPointExtension>
            <ns3:atemp>18.0</ns3:atemp>
          </ns3:TrackPointExtension>
        </extensions>
      </trkpt>
      <trkpt lat="42.56533565931022167205810546875" lon="20.04994547925889492034912109375">
        <ele>2160.39990234375</ele>
        <time>2026-06-15T11:23:37.000Z</time>
        <extensions>
          <ns3:TrackPointExtension>
            <ns3:atemp>18.0</ns3:atemp>
          </ns3:TrackPointExtension>
        </extensions>
      </trkpt>
      <trkpt lat="42.56533565931022167205810546875" lon="20.04994547925889492034912109375">
        <ele>2160.39990234375</ele>
        <time>2026-06-15T11:23:38.000Z</time>
        <extensions>
          <ns3:TrackPointExtension>
            <ns3:atemp>18.0</ns3:atemp>
          </ns3:TrackPointExtension>
        </extensions>
      </trkpt>
      <trkpt lat="42.56533565931022167205810546875" lon="20.04994547925889492034912109375">
        <ele>2160.39990234375</ele>
        <time>2026-06-15T11:23:39.000Z</time>
        <extensions>
          <ns3:TrackPointExtension>
            <ns3:atemp>18.0</ns3:atemp>
          </ns3:TrackPointExtension>
        </extensions>
      </trkpt>
      <trkpt lat="42.56533565931022167205810546875" lon="20.04994547925889492034912109375">
        <ele>2160.39990234375</ele>
        <time>2026-06-15T11:23:40.000Z</time>
        <extensions>
          <ns3:TrackPointExtension>
            <ns3:atemp>18.0</ns3:atemp>
          </ns3:TrackPointExtension>
        </extensions>
      </trkpt>
      <trkpt lat="42.56533565931022167205810546875" lon="20.04994547925889492034912109375">
        <ele>2160.39990234375</ele>
        <time>2026-06-15T11:23:41.000Z</time>
        <extensions>
          <ns3:TrackPointExtension>
            <ns3:atemp>18.0</ns3:atemp>
          </ns3:TrackPointExtension>
        </extensions>
      </trkpt>
      <trkpt lat="42.56533565931022167205810546875" lon="20.04994547925889492034912109375">
        <ele>2160.39990234375</ele>
        <time>2026-06-15T11:23:42.000Z</time>
        <extensions>
          <ns3:TrackPointExtension>
            <ns3:atemp>18.0</ns3:atemp>
          </ns3:TrackPointExtension>
        </extensions>
      </trkpt>
      <trkpt lat="42.56533565931022167205810546875" lon="20.04994547925889492034912109375">
        <ele>2160.39990234375</ele>
        <time>2026-06-15T11:23:43.000Z</time>
        <extensions>
          <ns3:TrackPointExtension>
            <ns3:atemp>18.0</ns3:atemp>
          </ns3:TrackPointExtension>
        </extensions>
      </trkpt>
      <trkpt lat="42.56533565931022167205810546875" lon="20.04994547925889492034912109375">
        <ele>2160.39990234375</ele>
        <time>2026-06-15T11:23:44.000Z</time>
        <extensions>
          <ns3:TrackPointExtension>
            <ns3:atemp>18.0</ns3:atemp>
          </ns3:TrackPointExtension>
        </extensions>
      </trkpt>
      <trkpt lat="42.56533565931022167205810546875" lon="20.04994547925889492034912109375">
        <ele>2160.39990234375</ele>
        <time>2026-06-15T11:23:45.000Z</time>
        <extensions>
          <ns3:TrackPointExtension>
            <ns3:atemp>18.0</ns3:atemp>
          </ns3:TrackPointExtension>
        </extensions>
      </trkpt>
      <trkpt lat="42.56533565931022167205810546875" lon="20.04994547925889492034912109375">
        <ele>2162.60009765625</ele>
        <time>2026-06-15T11:23:46.000Z</time>
        <extensions>
          <ns3:TrackPointExtension>
            <ns3:atemp>18.0</ns3:atemp>
          </ns3:TrackPointExtension>
        </extensions>
      </trkpt>
      <trkpt lat="42.56533565931022167205810546875" lon="20.04994547925889492034912109375">
        <ele>2162.800048828125</ele>
        <time>2026-06-15T11:23:47.000Z</time>
        <extensions>
          <ns3:TrackPointExtension>
            <ns3:atemp>18.0</ns3:atemp>
          </ns3:TrackPointExtension>
        </extensions>
      </trkpt>
      <trkpt lat="42.56533565931022167205810546875" lon="20.04994547925889492034912109375">
        <ele>2162.800048828125</ele>
        <time>2026-06-15T11:23:48.000Z</time>
        <extensions>
          <ns3:TrackPointExtension>
            <ns3:atemp>18.0</ns3:atemp>
          </ns3:TrackPointExtension>
        </extensions>
      </trkpt>
      <trkpt lat="42.56533565931022167205810546875" lon="20.04994547925889492034912109375">
        <ele>2163</ele>
        <time>2026-06-15T11:23:49.000Z</time>
        <extensions>
          <ns3:TrackPointExtension>
            <ns3:atemp>18.0</ns3:atemp>
          </ns3:TrackPointExtension>
        </extensions>
      </trkpt>
      <trkpt lat="42.56533565931022167205810546875" lon="20.04994547925889492034912109375">
        <ele>2163</ele>
        <time>2026-06-15T11:23:50.000Z</time>
        <extensions>
          <ns3:TrackPointExtension>
            <ns3:atemp>18.0</ns3:atemp>
          </ns3:TrackPointExtension>
        </extensions>
      </trkpt>
      <trkpt lat="42.56533565931022167205810546875" lon="20.04994547925889492034912109375">
        <ele>2163.199951171875</ele>
        <time>2026-06-15T11:23:51.000Z</time>
        <extensions>
          <ns3:TrackPointExtension>
            <ns3:atemp>18.0</ns3:atemp>
          </ns3:TrackPointExtension>
        </extensions>
      </trkpt>
      <trkpt lat="42.56533565931022167205810546875" lon="20.04994547925889492034912109375">
        <ele>2163.199951171875</ele>
        <time>2026-06-15T11:23:52.000Z</time>
        <extensions>
          <ns3:TrackPointExtension>
            <ns3:atemp>18.0</ns3:atemp>
          </ns3:TrackPointExtension>
        </extensions>
      </trkpt>
      <trkpt lat="42.56533565931022167205810546875" lon="20.04994547925889492034912109375">
        <ele>2163.39990234375</ele>
        <time>2026-06-15T11:23:53.000Z</time>
        <extensions>
          <ns3:TrackPointExtension>
            <ns3:atemp>18.0</ns3:atemp>
          </ns3:TrackPointExtension>
        </extensions>
      </trkpt>
      <trkpt lat="42.56533565931022167205810546875" lon="20.04994547925889492034912109375">
        <ele>2163.39990234375</ele>
        <time>2026-06-15T11:23:54.000Z</time>
        <extensions>
          <ns3:TrackPointExtension>
            <ns3:atemp>18.0</ns3:atemp>
          </ns3:TrackPointExtension>
        </extensions>
      </trkpt>
      <trkpt lat="42.56533565931022167205810546875" lon="20.04994547925889492034912109375">
        <ele>2163.60009765625</ele>
        <time>2026-06-15T11:23:55.000Z</time>
        <extensions>
          <ns3:TrackPointExtension>
            <ns3:atemp>18.0</ns3:atemp>
          </ns3:TrackPointExtension>
        </extensions>
      </trkpt>
      <trkpt lat="42.56533565931022167205810546875" lon="20.04994547925889492034912109375">
        <ele>2163.60009765625</ele>
        <time>2026-06-15T11:23:56.000Z</time>
        <extensions>
          <ns3:TrackPointExtension>
            <ns3:atemp>18.0</ns3:atemp>
          </ns3:TrackPointExtension>
        </extensions>
      </trkpt>
      <trkpt lat="42.56533565931022167205810546875" lon="20.04994547925889492034912109375">
        <ele>2163.800048828125</ele>
        <time>2026-06-15T11:23:57.000Z</time>
        <extensions>
          <ns3:TrackPointExtension>
            <ns3:atemp>18.0</ns3:atemp>
          </ns3:TrackPointExtension>
        </extensions>
      </trkpt>
      <trkpt lat="42.56533565931022167205810546875" lon="20.04994547925889492034912109375">
        <ele>2164</ele>
        <time>2026-06-15T11:23:58.000Z</time>
        <extensions>
          <ns3:TrackPointExtension>
            <ns3:atemp>18.0</ns3:atemp>
          </ns3:TrackPointExtension>
        </extensions>
      </trkpt>
      <trkpt lat="42.56533565931022167205810546875" lon="20.04994547925889492034912109375">
        <ele>2164</ele>
        <time>2026-06-15T11:23:59.000Z</time>
        <extensions>
          <ns3:TrackPointExtension>
            <ns3:atemp>18.0</ns3:atemp>
          </ns3:TrackPointExtension>
        </extensions>
      </trkpt>
      <trkpt lat="42.56533565931022167205810546875" lon="20.04994547925889492034912109375">
        <ele>2164</ele>
        <time>2026-06-15T11:24:00.000Z</time>
        <extensions>
          <ns3:TrackPointExtension>
            <ns3:atemp>18.0</ns3:atemp>
          </ns3:TrackPointExtension>
        </extensions>
      </trkpt>
      <trkpt lat="42.56533565931022167205810546875" lon="20.04994547925889492034912109375">
        <ele>2164</ele>
        <time>2026-06-15T11:24:01.000Z</time>
        <extensions>
          <ns3:TrackPointExtension>
            <ns3:atemp>18.0</ns3:atemp>
          </ns3:TrackPointExtension>
        </extensions>
      </trkpt>
      <trkpt lat="42.56533565931022167205810546875" lon="20.04994547925889492034912109375">
        <ele>2164</ele>
        <time>2026-06-15T11:24:02.000Z</time>
        <extensions>
          <ns3:TrackPointExtension>
            <ns3:atemp>18.0</ns3:atemp>
          </ns3:TrackPointExtension>
        </extensions>
      </trkpt>
      <trkpt lat="42.56533565931022167205810546875" lon="20.04994547925889492034912109375">
        <ele>2164</ele>
        <time>2026-06-15T11:24:03.000Z</time>
        <extensions>
          <ns3:TrackPointExtension>
            <ns3:atemp>18.0</ns3:atemp>
          </ns3:TrackPointExtension>
        </extensions>
      </trkpt>
      <trkpt lat="42.56533565931022167205810546875" lon="20.04994547925889492034912109375">
        <ele>2164</ele>
        <time>2026-06-15T11:24:04.000Z</time>
        <extensions>
          <ns3:TrackPointExtension>
            <ns3:atemp>18.0</ns3:atemp>
          </ns3:TrackPointExtension>
        </extensions>
      </trkpt>
      <trkpt lat="42.56533565931022167205810546875" lon="20.04994547925889492034912109375">
        <ele>2164</ele>
        <time>2026-06-15T11:24:05.000Z</time>
        <extensions>
          <ns3:TrackPointExtension>
            <ns3:atemp>18.0</ns3:atemp>
          </ns3:TrackPointExtension>
        </extensions>
      </trkpt>
      <trkpt lat="42.56533565931022167205810546875" lon="20.04994547925889492034912109375">
        <ele>2164.199951171875</ele>
        <time>2026-06-15T11:24:06.000Z</time>
        <extensions>
          <ns3:TrackPointExtension>
            <ns3:atemp>18.0</ns3:atemp>
          </ns3:TrackPointExtension>
        </extensions>
      </trkpt>
      <trkpt lat="42.56533565931022167205810546875" lon="20.04994547925889492034912109375">
        <ele>2164.199951171875</ele>
        <time>2026-06-15T11:24:07.000Z</time>
        <extensions>
          <ns3:TrackPointExtension>
            <ns3:atemp>18.0</ns3:atemp>
          </ns3:TrackPointExtension>
        </extensions>
      </trkpt>
      <trkpt lat="42.56533565931022167205810546875" lon="20.04994547925889492034912109375">
        <ele>2164.39990234375</ele>
        <time>2026-06-15T11:24:08.000Z</time>
        <extensions>
          <ns3:TrackPointExtension>
            <ns3:atemp>18.0</ns3:atemp>
          </ns3:TrackPointExtension>
        </extensions>
      </trkpt>
      <trkpt lat="42.56533565931022167205810546875" lon="20.04994547925889492034912109375">
        <ele>2164.39990234375</ele>
        <time>2026-06-15T11:24:09.000Z</time>
        <extensions>
          <ns3:TrackPointExtension>
            <ns3:atemp>18.0</ns3:atemp>
          </ns3:TrackPointExtension>
        </extensions>
      </trkpt>
      <trkpt lat="42.56533565931022167205810546875" lon="20.04994547925889492034912109375">
        <ele>2164.60009765625</ele>
        <time>2026-06-15T11:24:10.000Z</time>
        <extensions>
          <ns3:TrackPointExtension>
            <ns3:atemp>18.0</ns3:atemp>
          </ns3:TrackPointExtension>
        </extensions>
      </trkpt>
      <trkpt lat="42.56533565931022167205810546875" lon="20.04994547925889492034912109375">
        <ele>2164.60009765625</ele>
        <time>2026-06-15T11:24:11.000Z</time>
        <extensions>
          <ns3:TrackPointExtension>
            <ns3:atemp>18.0</ns3:atemp>
          </ns3:TrackPointExtension>
        </extensions>
      </trkpt>
      <trkpt lat="42.56533565931022167205810546875" lon="20.04994547925889492034912109375">
        <ele>2164.60009765625</ele>
        <time>2026-06-15T11:24:12.000Z</time>
        <extensions>
          <ns3:TrackPointExtension>
            <ns3:atemp>18.0</ns3:atemp>
          </ns3:TrackPointExtension>
        </extensions>
      </trkpt>
      <trkpt lat="42.56533565931022167205810546875" lon="20.04994547925889492034912109375">
        <ele>2164.60009765625</ele>
        <time>2026-06-15T11:24:13.000Z</time>
        <extensions>
          <ns3:TrackPointExtension>
            <ns3:atemp>18.0</ns3:atemp>
          </ns3:TrackPointExtension>
        </extensions>
      </trkpt>
      <trkpt lat="42.56533565931022167205810546875" lon="20.04994547925889492034912109375">
        <ele>2164.39990234375</ele>
        <time>2026-06-15T11:24:14.000Z</time>
        <extensions>
          <ns3:TrackPointExtension>
            <ns3:atemp>18.0</ns3:atemp>
          </ns3:TrackPointExtension>
        </extensions>
      </trkpt>
      <trkpt lat="42.56533565931022167205810546875" lon="20.04994547925889492034912109375">
        <ele>2164.199951171875</ele>
        <time>2026-06-15T11:24:15.000Z</time>
        <extensions>
          <ns3:TrackPointExtension>
            <ns3:atemp>18.0</ns3:atemp>
          </ns3:TrackPointExtension>
        </extensions>
      </trkpt>
      <trkpt lat="42.56533565931022167205810546875" lon="20.04994547925889492034912109375">
        <ele>2164</ele>
        <time>2026-06-15T11:24:16.000Z</time>
        <extensions>
          <ns3:TrackPointExtension>
            <ns3:atemp>18.0</ns3:atemp>
          </ns3:TrackPointExtension>
        </extensions>
      </trkpt>
      <trkpt lat="42.56533565931022167205810546875" lon="20.04994547925889492034912109375">
        <ele>2163.800048828125</ele>
        <time>2026-06-15T11:24:17.000Z</time>
        <extensions>
          <ns3:TrackPointExtension>
            <ns3:atemp>18.0</ns3:atemp>
          </ns3:TrackPointExtension>
        </extensions>
      </trkpt>
      <trkpt lat="42.56533565931022167205810546875" lon="20.04994547925889492034912109375">
        <ele>2163.39990234375</ele>
        <time>2026-06-15T11:24:18.000Z</time>
        <extensions>
          <ns3:TrackPointExtension>
            <ns3:atemp>18.0</ns3:atemp>
          </ns3:TrackPointExtension>
        </extensions>
      </trkpt>
      <trkpt lat="42.56533565931022167205810546875" lon="20.04994547925889492034912109375">
        <ele>2163.199951171875</ele>
        <time>2026-06-15T11:24:19.000Z</time>
        <extensions>
          <ns3:TrackPointExtension>
            <ns3:atemp>18.0</ns3:atemp>
          </ns3:TrackPointExtension>
        </extensions>
      </trkpt>
      <trkpt lat="42.56533565931022167205810546875" lon="20.04994547925889492034912109375">
        <ele>2163.199951171875</ele>
        <time>2026-06-15T11:24:20.000Z</time>
        <extensions>
          <ns3:TrackPointExtension>
            <ns3:atemp>18.0</ns3:atemp>
          </ns3:TrackPointExtension>
        </extensions>
      </trkpt>
      <trkpt lat="42.56533565931022167205810546875" lon="20.04994547925889492034912109375">
        <ele>2163</ele>
        <time>2026-06-15T11:24:21.000Z</time>
        <extensions>
          <ns3:TrackPointExtension>
            <ns3:atemp>18.0</ns3:atemp>
          </ns3:TrackPointExtension>
        </extensions>
      </trkpt>
      <trkpt lat="42.56533565931022167205810546875" lon="20.04994547925889492034912109375">
        <ele>2162.800048828125</ele>
        <time>2026-06-15T11:24:22.000Z</time>
        <extensions>
          <ns3:TrackPointExtension>
            <ns3:atemp>18.0</ns3:atemp>
          </ns3:TrackPointExtension>
        </extensions>
      </trkpt>
      <trkpt lat="42.56533565931022167205810546875" lon="20.04994547925889492034912109375">
        <ele>2162.800048828125</ele>
        <time>2026-06-15T11:24:23.000Z</time>
        <extensions>
          <ns3:TrackPointExtension>
            <ns3:atemp>18.0</ns3:atemp>
          </ns3:TrackPointExtension>
        </extensions>
      </trkpt>
      <trkpt lat="42.56533565931022167205810546875" lon="20.04994547925889492034912109375">
        <ele>2162.60009765625</ele>
        <time>2026-06-15T11:24:24.000Z</time>
        <extensions>
          <ns3:TrackPointExtension>
            <ns3:atemp>18.0</ns3:atemp>
          </ns3:TrackPointExtension>
        </extensions>
      </trkpt>
      <trkpt lat="42.56533565931022167205810546875" lon="20.04994547925889492034912109375">
        <ele>2162.60009765625</ele>
        <time>2026-06-15T11:24:25.000Z</time>
        <extensions>
          <ns3:TrackPointExtension>
            <ns3:atemp>18.0</ns3:atemp>
          </ns3:TrackPointExtension>
        </extensions>
      </trkpt>
      <trkpt lat="42.56533565931022167205810546875" lon="20.04994547925889492034912109375">
        <ele>2162.39990234375</ele>
        <time>2026-06-15T11:24:26.000Z</time>
        <extensions>
          <ns3:TrackPointExtension>
            <ns3:atemp>18.0</ns3:atemp>
          </ns3:TrackPointExtension>
        </extensions>
      </trkpt>
      <trkpt lat="42.56533565931022167205810546875" lon="20.04994547925889492034912109375">
        <ele>2162.39990234375</ele>
        <time>2026-06-15T11:24:27.000Z</time>
        <extensions>
          <ns3:TrackPointExtension>
            <ns3:atemp>18.0</ns3:atemp>
          </ns3:TrackPointExtension>
        </extensions>
      </trkpt>
      <trkpt lat="42.56533565931022167205810546875" lon="20.04994547925889492034912109375">
        <ele>2162.39990234375</ele>
        <time>2026-06-15T11:24:28.000Z</time>
        <extensions>
          <ns3:TrackPointExtension>
            <ns3:atemp>18.0</ns3:atemp>
          </ns3:TrackPointExtension>
        </extensions>
      </trkpt>
      <trkpt lat="42.56533565931022167205810546875" lon="20.04994547925889492034912109375">
        <ele>2162.39990234375</ele>
        <time>2026-06-15T11:24:29.000Z</time>
        <extensions>
          <ns3:TrackPointExtension>
            <ns3:atemp>18.0</ns3:atemp>
          </ns3:TrackPointExtension>
        </extensions>
      </trkpt>
      <trkpt lat="42.56533565931022167205810546875" lon="20.04994547925889492034912109375">
        <ele>2162.39990234375</ele>
        <time>2026-06-15T11:24:30.000Z</time>
        <extensions>
          <ns3:TrackPointExtension>
            <ns3:atemp>18.0</ns3:atemp>
          </ns3:TrackPointExtension>
        </extensions>
      </trkpt>
      <trkpt lat="42.56533565931022167205810546875" lon="20.04994547925889492034912109375">
        <ele>2162.39990234375</ele>
        <time>2026-06-15T11:24:31.000Z</time>
        <extensions>
          <ns3:TrackPointExtension>
            <ns3:atemp>18.0</ns3:atemp>
          </ns3:TrackPointExtension>
        </extensions>
      </trkpt>
      <trkpt lat="42.56533565931022167205810546875" lon="20.04994547925889492034912109375">
        <ele>2162.39990234375</ele>
        <time>2026-06-15T11:24:32.000Z</time>
        <extensions>
          <ns3:TrackPointExtension>
            <ns3:atemp>18.0</ns3:atemp>
          </ns3:TrackPointExtension>
        </extensions>
      </trkpt>
      <trkpt lat="42.56533565931022167205810546875" lon="20.04994547925889492034912109375">
        <ele>2162.199951171875</ele>
        <time>2026-06-15T11:24:33.000Z</time>
        <extensions>
          <ns3:TrackPointExtension>
            <ns3:atemp>18.0</ns3:atemp>
          </ns3:TrackPointExtension>
        </extensions>
      </trkpt>
      <trkpt lat="42.56533565931022167205810546875" lon="20.04994547925889492034912109375">
        <ele>2162.199951171875</ele>
        <time>2026-06-15T11:24:34.000Z</time>
        <extensions>
          <ns3:TrackPointExtension>
            <ns3:atemp>18.0</ns3:atemp>
          </ns3:TrackPointExtension>
        </extensions>
      </trkpt>
      <trkpt lat="42.56533565931022167205810546875" lon="20.04994547925889492034912109375">
        <ele>2162.199951171875</ele>
        <time>2026-06-15T11:24:35.000Z</time>
        <extensions>
          <ns3:TrackPointExtension>
            <ns3:atemp>18.0</ns3:atemp>
          </ns3:TrackPointExtension>
        </extensions>
      </trkpt>
      <trkpt lat="42.56533565931022167205810546875" lon="20.04994547925889492034912109375">
        <ele>2162.199951171875</ele>
        <time>2026-06-15T11:24:36.000Z</time>
        <extensions>
          <ns3:TrackPointExtension>
            <ns3:atemp>18.0</ns3:atemp>
          </ns3:TrackPointExtension>
        </extensions>
      </trkpt>
      <trkpt lat="42.56533565931022167205810546875" lon="20.04994547925889492034912109375">
        <ele>2162.199951171875</ele>
        <time>2026-06-15T11:24:37.000Z</time>
        <extensions>
          <ns3:TrackPointExtension>
            <ns3:atemp>18.0</ns3:atemp>
          </ns3:TrackPointExtension>
        </extensions>
      </trkpt>
      <trkpt lat="42.56533565931022167205810546875" lon="20.04994547925889492034912109375">
        <ele>2162.199951171875</ele>
        <time>2026-06-15T11:24:38.000Z</time>
        <extensions>
          <ns3:TrackPointExtension>
            <ns3:atemp>18.0</ns3:atemp>
          </ns3:TrackPointExtension>
        </extensions>
      </trkpt>
      <trkpt lat="42.56533565931022167205810546875" lon="20.04994547925889492034912109375">
        <ele>2162.199951171875</ele>
        <time>2026-06-15T11:24:39.000Z</time>
        <extensions>
          <ns3:TrackPointExtension>
            <ns3:atemp>18.0</ns3:atemp>
          </ns3:TrackPointExtension>
        </extensions>
      </trkpt>
      <trkpt lat="42.56533565931022167205810546875" lon="20.04994547925889492034912109375">
        <ele>2162.199951171875</ele>
        <time>2026-06-15T11:24:40.000Z</time>
        <extensions>
          <ns3:TrackPointExtension>
            <ns3:atemp>18.0</ns3:atemp>
          </ns3:TrackPointExtension>
        </extensions>
      </trkpt>
      <trkpt lat="42.56533565931022167205810546875" lon="20.04994547925889492034912109375">
        <ele>2162.39990234375</ele>
        <time>2026-06-15T11:24:41.000Z</time>
        <extensions>
          <ns3:TrackPointExtension>
            <ns3:atemp>18.0</ns3:atemp>
          </ns3:TrackPointExtension>
        </extensions>
      </trkpt>
      <trkpt lat="42.56533565931022167205810546875" lon="20.04994547925889492034912109375">
        <ele>2162.39990234375</ele>
        <time>2026-06-15T11:24:42.000Z</time>
        <extensions>
          <ns3:TrackPointExtension>
            <ns3:atemp>18.0</ns3:atemp>
          </ns3:TrackPointExtension>
        </extensions>
      </trkpt>
      <trkpt lat="42.56533565931022167205810546875" lon="20.04994547925889492034912109375">
        <ele>2162.39990234375</ele>
        <time>2026-06-15T11:24:43.000Z</time>
        <extensions>
          <ns3:TrackPointExtension>
            <ns3:atemp>18.0</ns3:atemp>
          </ns3:TrackPointExtension>
        </extensions>
      </trkpt>
      <trkpt lat="42.56533565931022167205810546875" lon="20.04994547925889492034912109375">
        <ele>2162.39990234375</ele>
        <time>2026-06-15T11:24:44.000Z</time>
        <extensions>
          <ns3:TrackPointExtension>
            <ns3:atemp>18.0</ns3:atemp>
          </ns3:TrackPointExtension>
        </extensions>
      </trkpt>
      <trkpt lat="42.56533565931022167205810546875" lon="20.04994547925889492034912109375">
        <ele>2162.199951171875</ele>
        <time>2026-06-15T11:24:45.000Z</time>
        <extensions>
          <ns3:TrackPointExtension>
            <ns3:atemp>18.0</ns3:atemp>
          </ns3:TrackPointExtension>
        </extensions>
      </trkpt>
      <trkpt lat="42.56533565931022167205810546875" lon="20.04994547925889492034912109375">
        <ele>2162.199951171875</ele>
        <time>2026-06-15T11:24:46.000Z</time>
        <extensions>
          <ns3:TrackPointExtension>
            <ns3:atemp>18.0</ns3:atemp>
          </ns3:TrackPointExtension>
        </extensions>
      </trkpt>
      <trkpt lat="42.56533565931022167205810546875" lon="20.04994547925889492034912109375">
        <ele>2162.199951171875</ele>
        <time>2026-06-15T11:24:47.000Z</time>
        <extensions>
          <ns3:TrackPointExtension>
            <ns3:atemp>18.0</ns3:atemp>
          </ns3:TrackPointExtension>
        </extensions>
      </trkpt>
      <trkpt lat="42.56533565931022167205810546875" lon="20.04994547925889492034912109375">
        <ele>2162.199951171875</ele>
        <time>2026-06-15T11:24:48.000Z</time>
        <extensions>
          <ns3:TrackPointExtension>
            <ns3:atemp>18.0</ns3:atemp>
          </ns3:TrackPointExtension>
        </extensions>
      </trkpt>
      <trkpt lat="42.56533565931022167205810546875" lon="20.04994547925889492034912109375">
        <ele>2162.199951171875</ele>
        <time>2026-06-15T11:24:49.000Z</time>
        <extensions>
          <ns3:TrackPointExtension>
            <ns3:atemp>18.0</ns3:atemp>
          </ns3:TrackPointExtension>
        </extensions>
      </trkpt>
      <trkpt lat="42.56533565931022167205810546875" lon="20.04994547925889492034912109375">
        <ele>2162.199951171875</ele>
        <time>2026-06-15T11:24:50.000Z</time>
        <extensions>
          <ns3:TrackPointExtension>
            <ns3:atemp>18.0</ns3:atemp>
          </ns3:TrackPointExtension>
        </extensions>
      </trkpt>
      <trkpt lat="42.56533565931022167205810546875" lon="20.04994547925889492034912109375">
        <ele>2162.199951171875</ele>
        <time>2026-06-15T11:24:51.000Z</time>
        <extensions>
          <ns3:TrackPointExtension>
            <ns3:atemp>18.0</ns3:atemp>
          </ns3:TrackPointExtension>
        </extensions>
      </trkpt>
      <trkpt lat="42.56533565931022167205810546875" lon="20.04994547925889492034912109375">
        <ele>2162.199951171875</ele>
        <time>2026-06-15T11:24:52.000Z</time>
        <extensions>
          <ns3:TrackPointExtension>
            <ns3:atemp>18.0</ns3:atemp>
          </ns3:TrackPointExtension>
        </extensions>
      </trkpt>
      <trkpt lat="42.56533565931022167205810546875" lon="20.04994547925889492034912109375">
        <ele>2162.199951171875</ele>
        <time>2026-06-15T11:24:53.000Z</time>
        <extensions>
          <ns3:TrackPointExtension>
            <ns3:atemp>18.0</ns3:atemp>
          </ns3:TrackPointExtension>
        </extensions>
      </trkpt>
      <trkpt lat="42.56533565931022167205810546875" lon="20.04994547925889492034912109375">
        <ele>2162</ele>
        <time>2026-06-15T11:24:54.000Z</time>
        <extensions>
          <ns3:TrackPointExtension>
            <ns3:atemp>18.0</ns3:atemp>
          </ns3:TrackPointExtension>
        </extensions>
      </trkpt>
      <trkpt lat="42.56533565931022167205810546875" lon="20.04994547925889492034912109375">
        <ele>2162</ele>
        <time>2026-06-15T11:24:55.000Z</time>
        <extensions>
          <ns3:TrackPointExtension>
            <ns3:atemp>18.0</ns3:atemp>
          </ns3:TrackPointExtension>
        </extensions>
      </trkpt>
      <trkpt lat="42.56533565931022167205810546875" lon="20.04994547925889492034912109375">
        <ele>2162</ele>
        <time>2026-06-15T11:24:56.000Z</time>
        <extensions>
          <ns3:TrackPointExtension>
            <ns3:atemp>18.0</ns3:atemp>
          </ns3:TrackPointExtension>
        </extensions>
      </trkpt>
      <trkpt lat="42.56533565931022167205810546875" lon="20.04994547925889492034912109375">
        <ele>2161.800048828125</ele>
        <time>2026-06-15T11:24:57.000Z</time>
        <extensions>
          <ns3:TrackPointExtension>
            <ns3:atemp>18.0</ns3:atemp>
          </ns3:TrackPointExtension>
        </extensions>
      </trkpt>
      <trkpt lat="42.56533565931022167205810546875" lon="20.04994547925889492034912109375">
        <ele>2161.800048828125</ele>
        <time>2026-06-15T11:24:58.000Z</time>
        <extensions>
          <ns3:TrackPointExtension>
            <ns3:atemp>18.0</ns3:atemp>
          </ns3:TrackPointExtension>
        </extensions>
      </trkpt>
      <trkpt lat="42.56533565931022167205810546875" lon="20.04994547925889492034912109375">
        <ele>2161.800048828125</ele>
        <time>2026-06-15T11:24:59.000Z</time>
        <extensions>
          <ns3:TrackPointExtension>
            <ns3:atemp>18.0</ns3:atemp>
          </ns3:TrackPointExtension>
        </extensions>
      </trkpt>
      <trkpt lat="42.56533565931022167205810546875" lon="20.04994547925889492034912109375">
        <ele>2161.60009765625</ele>
        <time>2026-06-15T11:25:00.000Z</time>
        <extensions>
          <ns3:TrackPointExtension>
            <ns3:atemp>18.0</ns3:atemp>
          </ns3:TrackPointExtension>
        </extensions>
      </trkpt>
      <trkpt lat="42.56533565931022167205810546875" lon="20.04994547925889492034912109375">
        <ele>2161.60009765625</ele>
        <time>2026-06-15T11:25:01.000Z</time>
        <extensions>
          <ns3:TrackPointExtension>
            <ns3:atemp>18.0</ns3:atemp>
          </ns3:TrackPointExtension>
        </extensions>
      </trkpt>
      <trkpt lat="42.56533565931022167205810546875" lon="20.04994547925889492034912109375">
        <ele>2161.39990234375</ele>
        <time>2026-06-15T11:25:02.000Z</time>
        <extensions>
          <ns3:TrackPointExtension>
            <ns3:atemp>18.0</ns3:atemp>
          </ns3:TrackPointExtension>
        </extensions>
      </trkpt>
      <trkpt lat="42.56533565931022167205810546875" lon="20.04994547925889492034912109375">
        <ele>2161.199951171875</ele>
        <time>2026-06-15T11:25:03.000Z</time>
        <extensions>
          <ns3:TrackPointExtension>
            <ns3:atemp>18.0</ns3:atemp>
          </ns3:TrackPointExtension>
        </extensions>
      </trkpt>
      <trkpt lat="42.56533565931022167205810546875" lon="20.04994547925889492034912109375">
        <ele>2161.199951171875</ele>
        <time>2026-06-15T11:25:04.000Z</time>
        <extensions>
          <ns3:TrackPointExtension>
            <ns3:atemp>18.0</ns3:atemp>
          </ns3:TrackPointExtension>
        </extensions>
      </trkpt>
      <trkpt lat="42.56533565931022167205810546875" lon="20.04994547925889492034912109375">
        <ele>2161</ele>
        <time>2026-06-15T11:25:05.000Z</time>
        <extensions>
          <ns3:TrackPointExtension>
            <ns3:atemp>18.0</ns3:atemp>
          </ns3:TrackPointExtension>
        </extensions>
      </trkpt>
      <trkpt lat="42.56533565931022167205810546875" lon="20.04994547925889492034912109375">
        <ele>2161</ele>
        <time>2026-06-15T11:25:06.000Z</time>
        <extensions>
          <ns3:TrackPointExtension>
            <ns3:atemp>18.0</ns3:atemp>
          </ns3:TrackPointExtension>
        </extensions>
      </trkpt>
      <trkpt lat="42.56533565931022167205810546875" lon="20.04994547925889492034912109375">
        <ele>2160.800048828125</ele>
        <time>2026-06-15T11:25:07.000Z</time>
        <extensions>
          <ns3:TrackPointExtension>
            <ns3:atemp>18.0</ns3:atemp>
          </ns3:TrackPointExtension>
        </extensions>
      </trkpt>
      <trkpt lat="42.56533565931022167205810546875" lon="20.04994547925889492034912109375">
        <ele>2160.60009765625</ele>
        <time>2026-06-15T11:25:08.000Z</time>
        <extensions>
          <ns3:TrackPointExtension>
            <ns3:atemp>18.0</ns3:atemp>
          </ns3:TrackPointExtension>
        </extensions>
      </trkpt>
      <trkpt lat="42.56533565931022167205810546875" lon="20.04994547925889492034912109375">
        <ele>2160.39990234375</ele>
        <time>2026-06-15T11:25:09.000Z</time>
        <extensions>
          <ns3:TrackPointExtension>
            <ns3:atemp>18.0</ns3:atemp>
          </ns3:TrackPointExtension>
        </extensions>
      </trkpt>
      <trkpt lat="42.56533565931022167205810546875" lon="20.04994547925889492034912109375">
        <ele>2160.39990234375</ele>
        <time>2026-06-15T11:25:10.000Z</time>
        <extensions>
          <ns3:TrackPointExtension>
            <ns3:atemp>18.0</ns3:atemp>
          </ns3:TrackPointExtension>
        </extensions>
      </trkpt>
      <trkpt lat="42.56533565931022167205810546875" lon="20.04994547925889492034912109375">
        <ele>2160.39990234375</ele>
        <time>2026-06-15T11:25:11.000Z</time>
        <extensions>
          <ns3:TrackPointExtension>
            <ns3:atemp>18.0</ns3:atemp>
          </ns3:TrackPointExtension>
        </extensions>
      </trkpt>
      <trkpt lat="42.56533565931022167205810546875" lon="20.04994547925889492034912109375">
        <ele>2160.39990234375</ele>
        <time>2026-06-15T11:25:12.000Z</time>
        <extensions>
          <ns3:TrackPointExtension>
            <ns3:atemp>18.0</ns3:atemp>
          </ns3:TrackPointExtension>
        </extensions>
      </trkpt>
      <trkpt lat="42.56533565931022167205810546875" lon="20.04994547925889492034912109375">
        <ele>2160.39990234375</ele>
        <time>2026-06-15T11:25:13.000Z</time>
        <extensions>
          <ns3:TrackPointExtension>
            <ns3:atemp>18.0</ns3:atemp>
          </ns3:TrackPointExtension>
        </extensions>
      </trkpt>
      <trkpt lat="42.56533565931022167205810546875" lon="20.04994547925889492034912109375">
        <ele>2160.60009765625</ele>
        <time>2026-06-15T11:25:14.000Z</time>
        <extensions>
          <ns3:TrackPointExtension>
            <ns3:atemp>18.0</ns3:atemp>
          </ns3:TrackPointExtension>
        </extensions>
      </trkpt>
      <trkpt lat="42.56533565931022167205810546875" lon="20.04994547925889492034912109375">
        <ele>2160.60009765625</ele>
        <time>2026-06-15T11:25:15.000Z</time>
        <extensions>
          <ns3:TrackPointExtension>
            <ns3:atemp>18.0</ns3:atemp>
          </ns3:TrackPointExtension>
        </extensions>
      </trkpt>
      <trkpt lat="42.56533565931022167205810546875" lon="20.04994547925889492034912109375">
        <ele>2160.60009765625</ele>
        <time>2026-06-15T11:25:16.000Z</time>
        <extensions>
          <ns3:TrackPointExtension>
            <ns3:atemp>18.0</ns3:atemp>
          </ns3:TrackPointExtension>
        </extensions>
      </trkpt>
      <trkpt lat="42.56533565931022167205810546875" lon="20.04994547925889492034912109375">
        <ele>2160.60009765625</ele>
        <time>2026-06-15T11:25:17.000Z</time>
        <extensions>
          <ns3:TrackPointExtension>
            <ns3:atemp>18.0</ns3:atemp>
          </ns3:TrackPointExtension>
        </extensions>
      </trkpt>
      <trkpt lat="42.56533565931022167205810546875" lon="20.04994547925889492034912109375">
        <ele>2160.60009765625</ele>
        <time>2026-06-15T11:25:18.000Z</time>
        <extensions>
          <ns3:TrackPointExtension>
            <ns3:atemp>18.0</ns3:atemp>
          </ns3:TrackPointExtension>
        </extensions>
      </trkpt>
      <trkpt lat="42.56533565931022167205810546875" lon="20.04994547925889492034912109375">
        <ele>2160.60009765625</ele>
        <time>2026-06-15T11:25:19.000Z</time>
        <extensions>
          <ns3:TrackPointExtension>
            <ns3:atemp>18.0</ns3:atemp>
          </ns3:TrackPointExtension>
        </extensions>
      </trkpt>
      <trkpt lat="42.56533565931022167205810546875" lon="20.04994547925889492034912109375">
        <ele>2160.800048828125</ele>
        <time>2026-06-15T11:25:20.000Z</time>
        <extensions>
          <ns3:TrackPointExtension>
            <ns3:atemp>18.0</ns3:atemp>
          </ns3:TrackPointExtension>
        </extensions>
      </trkpt>
      <trkpt lat="42.56533565931022167205810546875" lon="20.04994547925889492034912109375">
        <ele>2160.800048828125</ele>
        <time>2026-06-15T11:25:21.000Z</time>
        <extensions>
          <ns3:TrackPointExtension>
            <ns3:atemp>18.0</ns3:atemp>
          </ns3:TrackPointExtension>
        </extensions>
      </trkpt>
      <trkpt lat="42.56533565931022167205810546875" lon="20.04994547925889492034912109375">
        <ele>2160.800048828125</ele>
        <time>2026-06-15T11:25:22.000Z</time>
        <extensions>
          <ns3:TrackPointExtension>
            <ns3:atemp>18.0</ns3:atemp>
          </ns3:TrackPointExtension>
        </extensions>
      </trkpt>
      <trkpt lat="42.56533565931022167205810546875" lon="20.04994547925889492034912109375">
        <ele>2160.800048828125</ele>
        <time>2026-06-15T11:25:23.000Z</time>
        <extensions>
          <ns3:TrackPointExtension>
            <ns3:atemp>18.0</ns3:atemp>
          </ns3:TrackPointExtension>
        </extensions>
      </trkpt>
      <trkpt lat="42.56533565931022167205810546875" lon="20.04994547925889492034912109375">
        <ele>2160.800048828125</ele>
        <time>2026-06-15T11:25:24.000Z</time>
        <extensions>
          <ns3:TrackPointExtension>
            <ns3:atemp>18.0</ns3:atemp>
          </ns3:TrackPointExtension>
        </extensions>
      </trkpt>
      <trkpt lat="42.56533565931022167205810546875" lon="20.04994547925889492034912109375">
        <ele>2160.800048828125</ele>
        <time>2026-06-15T11:25:25.000Z</time>
        <extensions>
          <ns3:TrackPointExtension>
            <ns3:atemp>18.0</ns3:atemp>
          </ns3:TrackPointExtension>
        </extensions>
      </trkpt>
      <trkpt lat="42.56533565931022167205810546875" lon="20.04994547925889492034912109375">
        <ele>2160.800048828125</ele>
        <time>2026-06-15T11:25:26.000Z</time>
        <extensions>
          <ns3:TrackPointExtension>
            <ns3:atemp>18.0</ns3:atemp>
          </ns3:TrackPointExtension>
        </extensions>
      </trkpt>
      <trkpt lat="42.56533565931022167205810546875" lon="20.04994547925889492034912109375">
        <ele>2160.800048828125</ele>
        <time>2026-06-15T11:25:27.000Z</time>
        <extensions>
          <ns3:TrackPointExtension>
            <ns3:atemp>18.0</ns3:atemp>
          </ns3:TrackPointExtension>
        </extensions>
      </trkpt>
      <trkpt lat="42.56533565931022167205810546875" lon="20.04994547925889492034912109375">
        <ele>2160.800048828125</ele>
        <time>2026-06-15T11:25:28.000Z</time>
        <extensions>
          <ns3:TrackPointExtension>
            <ns3:atemp>18.0</ns3:atemp>
          </ns3:TrackPointExtension>
        </extensions>
      </trkpt>
      <trkpt lat="42.56533565931022167205810546875" lon="20.04994547925889492034912109375">
        <ele>2160.800048828125</ele>
        <time>2026-06-15T11:25:29.000Z</time>
        <extensions>
          <ns3:TrackPointExtension>
            <ns3:atemp>18.0</ns3:atemp>
          </ns3:TrackPointExtension>
        </extensions>
      </trkpt>
      <trkpt lat="42.56533565931022167205810546875" lon="20.04994547925889492034912109375">
        <ele>2161</ele>
        <time>2026-06-15T11:25:30.000Z</time>
        <extensions>
          <ns3:TrackPointExtension>
            <ns3:atemp>18.0</ns3:atemp>
          </ns3:TrackPointExtension>
        </extensions>
      </trkpt>
      <trkpt lat="42.56533850915729999542236328125" lon="20.0499467365443706512451171875">
        <ele>2161</ele>
        <time>2026-06-15T11:25:31.000Z</time>
        <extensions>
          <ns3:TrackPointExtension>
            <ns3:atemp>18.0</ns3:atemp>
          </ns3:TrackPointExtension>
        </extensions>
      </trkpt>
      <trkpt lat="42.5653426162898540496826171875" lon="20.04996391944587230682373046875">
        <ele>2161</ele>
        <time>2026-06-15T11:25:32.000Z</time>
        <extensions>
          <ns3:TrackPointExtension>
            <ns3:atemp>18.0</ns3:atemp>
          </ns3:TrackPointExtension>
        </extensions>
      </trkpt>
      <trkpt lat="42.56534077227115631103515625" lon="20.04997381009161472320556640625">
        <ele>2161</ele>
        <time>2026-06-15T11:25:33.000Z</time>
        <extensions>
          <ns3:TrackPointExtension>
            <ns3:atemp>18.0</ns3:atemp>
          </ns3:TrackPointExtension>
        </extensions>
      </trkpt>
      <trkpt lat="42.56533867679536342620849609375" lon="20.04997531883418560028076171875">
        <ele>2161</ele>
        <time>2026-06-15T11:25:34.000Z</time>
        <extensions>
          <ns3:TrackPointExtension>
            <ns3:atemp>18.0</ns3:atemp>
          </ns3:TrackPointExtension>
        </extensions>
      </trkpt>
      <trkpt lat="42.56533884443342685699462890625" lon="20.04997615702450275421142578125">
        <ele>2161.199951171875</ele>
        <time>2026-06-15T11:25:35.000Z</time>
        <extensions>
          <ns3:TrackPointExtension>
            <ns3:atemp>18.0</ns3:atemp>
          </ns3:TrackPointExtension>
        </extensions>
      </trkpt>
      <trkpt lat="42.5653385929763317108154296875" lon="20.0499759055674076080322265625">
        <ele>2161.199951171875</ele>
        <time>2026-06-15T11:25:36.000Z</time>
        <extensions>
          <ns3:TrackPointExtension>
            <ns3:atemp>18.0</ns3:atemp>
          </ns3:TrackPointExtension>
        </extensions>
      </trkpt>
      <trkpt lat="42.56533850915729999542236328125" lon="20.04997598938643932342529296875">
        <ele>2161.199951171875</ele>
        <time>2026-06-15T11:25:37.000Z</time>
        <extensions>
          <ns3:TrackPointExtension>
            <ns3:atemp>18.0</ns3:atemp>
          </ns3:TrackPointExtension>
        </extensions>
      </trkpt>
      <trkpt lat="42.56533850915729999542236328125" lon="20.04997598938643932342529296875">
        <ele>2161.199951171875</ele>
        <time>2026-06-15T11:25:38.000Z</time>
        <extensions>
          <ns3:TrackPointExtension>
            <ns3:atemp>18.0</ns3:atemp>
          </ns3:TrackPointExtension>
        </extensions>
      </trkpt>
      <trkpt lat="42.56533850915729999542236328125" lon="20.04997598938643932342529296875">
        <ele>2161.199951171875</ele>
        <time>2026-06-15T11:25:39.000Z</time>
        <extensions>
          <ns3:TrackPointExtension>
            <ns3:atemp>18.0</ns3:atemp>
          </ns3:TrackPointExtension>
        </extensions>
      </trkpt>
      <trkpt lat="42.56533850915729999542236328125" lon="20.04997598938643932342529296875">
        <ele>2161.199951171875</ele>
        <time>2026-06-15T11:25:40.000Z</time>
        <extensions>
          <ns3:TrackPointExtension>
            <ns3:atemp>18.0</ns3:atemp>
          </ns3:TrackPointExtension>
        </extensions>
      </trkpt>
      <trkpt lat="42.56533850915729999542236328125" lon="20.04997598938643932342529296875">
        <ele>2161.199951171875</ele>
        <time>2026-06-15T11:25:41.000Z</time>
        <extensions>
          <ns3:TrackPointExtension>
            <ns3:atemp>18.0</ns3:atemp>
          </ns3:TrackPointExtension>
        </extensions>
      </trkpt>
      <trkpt lat="42.56533817388117313385009765625" lon="20.04997707903385162353515625">
        <ele>2161.199951171875</ele>
        <time>2026-06-15T11:25:42.000Z</time>
        <extensions>
          <ns3:TrackPointExtension>
            <ns3:atemp>18.0</ns3:atemp>
          </ns3:TrackPointExtension>
        </extensions>
      </trkpt>
      <trkpt lat="42.56533448584377765655517578125" lon="20.049993507564067840576171875">
        <ele>2161.39990234375</ele>
        <time>2026-06-15T11:25:43.000Z</time>
        <extensions>
          <ns3:TrackPointExtension>
            <ns3:atemp>18.0</ns3:atemp>
          </ns3:TrackPointExtension>
        </extensions>
      </trkpt>
      <trkpt lat="42.56533448584377765655517578125" lon="20.05000348202884197235107421875">
        <ele>2161.39990234375</ele>
        <time>2026-06-15T11:25:44.000Z</time>
        <extensions>
          <ns3:TrackPointExtension>
            <ns3:atemp>18.0</ns3:atemp>
          </ns3:TrackPointExtension>
        </extensions>
      </trkpt>
      <trkpt lat="42.56533448584377765655517578125" lon="20.05000348202884197235107421875">
        <ele>2161.39990234375</ele>
        <time>2026-06-15T11:25:45.000Z</time>
        <extensions>
          <ns3:TrackPointExtension>
            <ns3:atemp>18.0</ns3:atemp>
          </ns3:TrackPointExtension>
        </extensions>
      </trkpt>
      <trkpt lat="42.56533448584377765655517578125" lon="20.05000348202884197235107421875">
        <ele>2161.39990234375</ele>
        <time>2026-06-15T11:25:46.000Z</time>
        <extensions>
          <ns3:TrackPointExtension>
            <ns3:atemp>18.0</ns3:atemp>
          </ns3:TrackPointExtension>
        </extensions>
      </trkpt>
      <trkpt lat="42.56533448584377765655517578125" lon="20.05000348202884197235107421875">
        <ele>2161.39990234375</ele>
        <time>2026-06-15T11:25:47.000Z</time>
        <extensions>
          <ns3:TrackPointExtension>
            <ns3:atemp>18.0</ns3:atemp>
          </ns3:TrackPointExtension>
        </extensions>
      </trkpt>
      <trkpt lat="42.56533448584377765655517578125" lon="20.05000348202884197235107421875">
        <ele>2161.60009765625</ele>
        <time>2026-06-15T11:25:48.000Z</time>
        <extensions>
          <ns3:TrackPointExtension>
            <ns3:atemp>18.0</ns3:atemp>
          </ns3:TrackPointExtension>
        </extensions>
      </trkpt>
      <trkpt lat="42.56533448584377765655517578125" lon="20.05000348202884197235107421875">
        <ele>2161.800048828125</ele>
        <time>2026-06-15T11:25:49.000Z</time>
        <extensions>
          <ns3:TrackPointExtension>
            <ns3:atemp>18.0</ns3:atemp>
          </ns3:TrackPointExtension>
        </extensions>
      </trkpt>
      <trkpt lat="42.56533448584377765655517578125" lon="20.05000348202884197235107421875">
        <ele>2162</ele>
        <time>2026-06-15T11:25:50.000Z</time>
        <extensions>
          <ns3:TrackPointExtension>
            <ns3:atemp>18.0</ns3:atemp>
          </ns3:TrackPointExtension>
        </extensions>
      </trkpt>
      <trkpt lat="42.56533448584377765655517578125" lon="20.05000348202884197235107421875">
        <ele>2162</ele>
        <time>2026-06-15T11:25:51.000Z</time>
        <extensions>
          <ns3:TrackPointExtension>
            <ns3:atemp>18.0</ns3:atemp>
          </ns3:TrackPointExtension>
        </extensions>
      </trkpt>
      <trkpt lat="42.56533448584377765655517578125" lon="20.05000348202884197235107421875">
        <ele>2162.199951171875</ele>
        <time>2026-06-15T11:25:52.000Z</time>
        <extensions>
          <ns3:TrackPointExtension>
            <ns3:atemp>18.0</ns3:atemp>
          </ns3:TrackPointExtension>
        </extensions>
      </trkpt>
      <trkpt lat="42.56533448584377765655517578125" lon="20.05000348202884197235107421875">
        <ele>2162.199951171875</ele>
        <time>2026-06-15T11:25:53.000Z</time>
        <extensions>
          <ns3:TrackPointExtension>
            <ns3:atemp>18.0</ns3:atemp>
          </ns3:TrackPointExtension>
        </extensions>
      </trkpt>
      <trkpt lat="42.56533448584377765655517578125" lon="20.05000348202884197235107421875">
        <ele>2162.199951171875</ele>
        <time>2026-06-15T11:25:54.000Z</time>
        <extensions>
          <ns3:TrackPointExtension>
            <ns3:atemp>18.0</ns3:atemp>
          </ns3:TrackPointExtension>
        </extensions>
      </trkpt>
      <trkpt lat="42.56533448584377765655517578125" lon="20.05000348202884197235107421875">
        <ele>2162.199951171875</ele>
        <time>2026-06-15T11:25:55.000Z</time>
        <extensions>
          <ns3:TrackPointExtension>
            <ns3:atemp>18.0</ns3:atemp>
          </ns3:TrackPointExtension>
        </extensions>
      </trkpt>
      <trkpt lat="42.56533448584377765655517578125" lon="20.05000348202884197235107421875">
        <ele>2162.39990234375</ele>
        <time>2026-06-15T11:25:56.000Z</time>
        <extensions>
          <ns3:TrackPointExtension>
            <ns3:atemp>18.0</ns3:atemp>
          </ns3:TrackPointExtension>
        </extensions>
      </trkpt>
      <trkpt lat="42.56533448584377765655517578125" lon="20.05000348202884197235107421875">
        <ele>2162.60009765625</ele>
        <time>2026-06-15T11:25:57.000Z</time>
        <extensions>
          <ns3:TrackPointExtension>
            <ns3:atemp>18.0</ns3:atemp>
          </ns3:TrackPointExtension>
        </extensions>
      </trkpt>
      <trkpt lat="42.56533448584377765655517578125" lon="20.05000348202884197235107421875">
        <ele>2162.60009765625</ele>
        <time>2026-06-15T11:25:58.000Z</time>
        <extensions>
          <ns3:TrackPointExtension>
            <ns3:atemp>18.0</ns3:atemp>
          </ns3:TrackPointExtension>
        </extensions>
      </trkpt>
      <trkpt lat="42.56533448584377765655517578125" lon="20.05000348202884197235107421875">
        <ele>2162.800048828125</ele>
        <time>2026-06-15T11:25:59.000Z</time>
        <extensions>
          <ns3:TrackPointExtension>
            <ns3:atemp>18.0</ns3:atemp>
          </ns3:TrackPointExtension>
        </extensions>
      </trkpt>
      <trkpt lat="42.56533448584377765655517578125" lon="20.05000348202884197235107421875">
        <ele>2163</ele>
        <time>2026-06-15T11:26:00.000Z</time>
        <extensions>
          <ns3:TrackPointExtension>
            <ns3:atemp>18.0</ns3:atemp>
          </ns3:TrackPointExtension>
        </extensions>
      </trkpt>
      <trkpt lat="42.56533448584377765655517578125" lon="20.05000348202884197235107421875">
        <ele>2163</ele>
        <time>2026-06-15T11:26:01.000Z</time>
        <extensions>
          <ns3:TrackPointExtension>
            <ns3:atemp>18.0</ns3:atemp>
          </ns3:TrackPointExtension>
        </extensions>
      </trkpt>
      <trkpt lat="42.56533448584377765655517578125" lon="20.05000348202884197235107421875">
        <ele>2163</ele>
        <time>2026-06-15T11:26:02.000Z</time>
        <extensions>
          <ns3:TrackPointExtension>
            <ns3:atemp>18.0</ns3:atemp>
          </ns3:TrackPointExtension>
        </extensions>
      </trkpt>
      <trkpt lat="42.56533448584377765655517578125" lon="20.05000348202884197235107421875">
        <ele>2163</ele>
        <time>2026-06-15T11:26:03.000Z</time>
        <extensions>
          <ns3:TrackPointExtension>
            <ns3:atemp>18.0</ns3:atemp>
          </ns3:TrackPointExtension>
        </extensions>
      </trkpt>
      <trkpt lat="42.56533448584377765655517578125" lon="20.05000348202884197235107421875">
        <ele>2163</ele>
        <time>2026-06-15T11:26:04.000Z</time>
        <extensions>
          <ns3:TrackPointExtension>
            <ns3:atemp>18.0</ns3:atemp>
          </ns3:TrackPointExtension>
        </extensions>
      </trkpt>
      <trkpt lat="42.56533448584377765655517578125" lon="20.05000348202884197235107421875">
        <ele>2163</ele>
        <time>2026-06-15T11:26:05.000Z</time>
        <extensions>
          <ns3:TrackPointExtension>
            <ns3:atemp>18.0</ns3:atemp>
          </ns3:TrackPointExtension>
        </extensions>
      </trkpt>
      <trkpt lat="42.56533448584377765655517578125" lon="20.05000348202884197235107421875">
        <ele>2163.199951171875</ele>
        <time>2026-06-15T11:26:06.000Z</time>
        <extensions>
          <ns3:TrackPointExtension>
            <ns3:atemp>18.0</ns3:atemp>
          </ns3:TrackPointExtension>
        </extensions>
      </trkpt>
      <trkpt lat="42.56533448584377765655517578125" lon="20.05000348202884197235107421875">
        <ele>2163.199951171875</ele>
        <time>2026-06-15T11:26:07.000Z</time>
        <extensions>
          <ns3:TrackPointExtension>
            <ns3:atemp>18.0</ns3:atemp>
          </ns3:TrackPointExtension>
        </extensions>
      </trkpt>
      <trkpt lat="42.56533448584377765655517578125" lon="20.05000348202884197235107421875">
        <ele>2163.199951171875</ele>
        <time>2026-06-15T11:26:08.000Z</time>
        <extensions>
          <ns3:TrackPointExtension>
            <ns3:atemp>18.0</ns3:atemp>
          </ns3:TrackPointExtension>
        </extensions>
      </trkpt>
      <trkpt lat="42.56533448584377765655517578125" lon="20.05000348202884197235107421875">
        <ele>2163.39990234375</ele>
        <time>2026-06-15T11:26:09.000Z</time>
        <extensions>
          <ns3:TrackPointExtension>
            <ns3:atemp>18.0</ns3:atemp>
          </ns3:TrackPointExtension>
        </extensions>
      </trkpt>
      <trkpt lat="42.56533448584377765655517578125" lon="20.05000348202884197235107421875">
        <ele>2163.39990234375</ele>
        <time>2026-06-15T11:26:10.000Z</time>
        <extensions>
          <ns3:TrackPointExtension>
            <ns3:atemp>18.0</ns3:atemp>
          </ns3:TrackPointExtension>
        </extensions>
      </trkpt>
      <trkpt lat="42.56533448584377765655517578125" lon="20.05000348202884197235107421875">
        <ele>2163.199951171875</ele>
        <time>2026-06-15T11:26:11.000Z</time>
        <extensions>
          <ns3:TrackPointExtension>
            <ns3:atemp>18.0</ns3:atemp>
          </ns3:TrackPointExtension>
        </extensions>
      </trkpt>
      <trkpt lat="42.56533448584377765655517578125" lon="20.05000348202884197235107421875">
        <ele>2163.199951171875</ele>
        <time>2026-06-15T11:26:12.000Z</time>
        <extensions>
          <ns3:TrackPointExtension>
            <ns3:atemp>18.0</ns3:atemp>
          </ns3:TrackPointExtension>
        </extensions>
      </trkpt>
      <trkpt lat="42.5653342343866825103759765625" lon="20.0500023923814296722412109375">
        <ele>2163.199951171875</ele>
        <time>2026-06-15T11:26:13.000Z</time>
        <extensions>
          <ns3:TrackPointExtension>
            <ns3:atemp>18.0</ns3:atemp>
          </ns3:TrackPointExtension>
        </extensions>
      </trkpt>
      <trkpt lat="42.56533448584377765655517578125" lon="20.05000348202884197235107421875">
        <ele>2163</ele>
        <time>2026-06-15T11:26:14.000Z</time>
        <extensions>
          <ns3:TrackPointExtension>
            <ns3:atemp>18.0</ns3:atemp>
          </ns3:TrackPointExtension>
        </extensions>
      </trkpt>
      <trkpt lat="42.56533448584377765655517578125" lon="20.05000348202884197235107421875">
        <ele>2163</ele>
        <time>2026-06-15T11:26:15.000Z</time>
        <extensions>
          <ns3:TrackPointExtension>
            <ns3:atemp>18.0</ns3:atemp>
          </ns3:TrackPointExtension>
        </extensions>
      </trkpt>
      <trkpt lat="42.56533448584377765655517578125" lon="20.05000348202884197235107421875">
        <ele>2163</ele>
        <time>2026-06-15T11:26:16.000Z</time>
        <extensions>
          <ns3:TrackPointExtension>
            <ns3:atemp>18.0</ns3:atemp>
          </ns3:TrackPointExtension>
        </extensions>
      </trkpt>
      <trkpt lat="42.56533448584377765655517578125" lon="20.05000348202884197235107421875">
        <ele>2163</ele>
        <time>2026-06-15T11:26:17.000Z</time>
        <extensions>
          <ns3:TrackPointExtension>
            <ns3:atemp>18.0</ns3:atemp>
          </ns3:TrackPointExtension>
        </extensions>
      </trkpt>
      <trkpt lat="42.56533448584377765655517578125" lon="20.05000348202884197235107421875">
        <ele>2163</ele>
        <time>2026-06-15T11:26:18.000Z</time>
        <extensions>
          <ns3:TrackPointExtension>
            <ns3:atemp>18.0</ns3:atemp>
          </ns3:TrackPointExtension>
        </extensions>
      </trkpt>
      <trkpt lat="42.56533448584377765655517578125" lon="20.05000348202884197235107421875">
        <ele>2163</ele>
        <time>2026-06-15T11:26:19.000Z</time>
        <extensions>
          <ns3:TrackPointExtension>
            <ns3:atemp>18.0</ns3:atemp>
          </ns3:TrackPointExtension>
        </extensions>
      </trkpt>
      <trkpt lat="42.56533448584377765655517578125" lon="20.05000348202884197235107421875">
        <ele>2163</ele>
        <time>2026-06-15T11:26:20.000Z</time>
        <extensions>
          <ns3:TrackPointExtension>
            <ns3:atemp>18.0</ns3:atemp>
          </ns3:TrackPointExtension>
        </extensions>
      </trkpt>
      <trkpt lat="42.56533448584377765655517578125" lon="20.05000348202884197235107421875">
        <ele>2163</ele>
        <time>2026-06-15T11:26:21.000Z</time>
        <extensions>
          <ns3:TrackPointExtension>
            <ns3:atemp>18.0</ns3:atemp>
          </ns3:TrackPointExtension>
        </extensions>
      </trkpt>
      <trkpt lat="42.56533448584377765655517578125" lon="20.05000348202884197235107421875">
        <ele>2163</ele>
        <time>2026-06-15T11:26:22.000Z</time>
        <extensions>
          <ns3:TrackPointExtension>
            <ns3:atemp>18.0</ns3:atemp>
          </ns3:TrackPointExtension>
        </extensions>
      </trkpt>
      <trkpt lat="42.56533448584377765655517578125" lon="20.05000348202884197235107421875">
        <ele>2162.800048828125</ele>
        <time>2026-06-15T11:26:23.000Z</time>
        <extensions>
          <ns3:TrackPointExtension>
            <ns3:atemp>18.0</ns3:atemp>
          </ns3:TrackPointExtension>
        </extensions>
      </trkpt>
      <trkpt lat="42.56533448584377765655517578125" lon="20.05000348202884197235107421875">
        <ele>2163</ele>
        <time>2026-06-15T11:26:24.000Z</time>
        <extensions>
          <ns3:TrackPointExtension>
            <ns3:atemp>18.0</ns3:atemp>
          </ns3:TrackPointExtension>
        </extensions>
      </trkpt>
      <trkpt lat="42.56533448584377765655517578125" lon="20.05000348202884197235107421875">
        <ele>2163</ele>
        <time>2026-06-15T11:26:25.000Z</time>
        <extensions>
          <ns3:TrackPointExtension>
            <ns3:atemp>18.0</ns3:atemp>
          </ns3:TrackPointExtension>
        </extensions>
      </trkpt>
      <trkpt lat="42.56533448584377765655517578125" lon="20.05000348202884197235107421875">
        <ele>2163.199951171875</ele>
        <time>2026-06-15T11:26:26.000Z</time>
        <extensions>
          <ns3:TrackPointExtension>
            <ns3:atemp>18.0</ns3:atemp>
          </ns3:TrackPointExtension>
        </extensions>
      </trkpt>
      <trkpt lat="42.56533448584377765655517578125" lon="20.05000348202884197235107421875">
        <ele>2163.39990234375</ele>
        <time>2026-06-15T11:26:27.000Z</time>
        <extensions>
          <ns3:TrackPointExtension>
            <ns3:atemp>18.0</ns3:atemp>
          </ns3:TrackPointExtension>
        </extensions>
      </trkpt>
      <trkpt lat="42.56533448584377765655517578125" lon="20.05000348202884197235107421875">
        <ele>2163.39990234375</ele>
        <time>2026-06-15T11:26:28.000Z</time>
        <extensions>
          <ns3:TrackPointExtension>
            <ns3:atemp>18.0</ns3:atemp>
          </ns3:TrackPointExtension>
        </extensions>
      </trkpt>
      <trkpt lat="42.56533448584377765655517578125" lon="20.05000348202884197235107421875">
        <ele>2163.39990234375</ele>
        <time>2026-06-15T11:26:29.000Z</time>
        <extensions>
          <ns3:TrackPointExtension>
            <ns3:atemp>18.0</ns3:atemp>
          </ns3:TrackPointExtension>
        </extensions>
      </trkpt>
      <trkpt lat="42.56533448584377765655517578125" lon="20.05000348202884197235107421875">
        <ele>2163.39990234375</ele>
        <time>2026-06-15T11:26:30.000Z</time>
        <extensions>
          <ns3:TrackPointExtension>
            <ns3:atemp>18.0</ns3:atemp>
          </ns3:TrackPointExtension>
        </extensions>
      </trkpt>
      <trkpt lat="42.56533448584377765655517578125" lon="20.05000348202884197235107421875">
        <ele>2163.199951171875</ele>
        <time>2026-06-15T11:26:31.000Z</time>
        <extensions>
          <ns3:TrackPointExtension>
            <ns3:atemp>18.0</ns3:atemp>
          </ns3:TrackPointExtension>
        </extensions>
      </trkpt>
      <trkpt lat="42.56533448584377765655517578125" lon="20.05000348202884197235107421875">
        <ele>2163.199951171875</ele>
        <time>2026-06-15T11:26:32.000Z</time>
        <extensions>
          <ns3:TrackPointExtension>
            <ns3:atemp>18.0</ns3:atemp>
          </ns3:TrackPointExtension>
        </extensions>
      </trkpt>
      <trkpt lat="42.56533448584377765655517578125" lon="20.05000348202884197235107421875">
        <ele>2163</ele>
        <time>2026-06-15T11:26:33.000Z</time>
        <extensions>
          <ns3:TrackPointExtension>
            <ns3:atemp>18.0</ns3:atemp>
          </ns3:TrackPointExtension>
        </extensions>
      </trkpt>
      <trkpt lat="42.56533448584377765655517578125" lon="20.05000348202884197235107421875">
        <ele>2163</ele>
        <time>2026-06-15T11:26:34.000Z</time>
        <extensions>
          <ns3:TrackPointExtension>
            <ns3:atemp>18.0</ns3:atemp>
          </ns3:TrackPointExtension>
        </extensions>
      </trkpt>
      <trkpt lat="42.56533448584377765655517578125" lon="20.05000348202884197235107421875">
        <ele>2163.199951171875</ele>
        <time>2026-06-15T11:26:35.000Z</time>
        <extensions>
          <ns3:TrackPointExtension>
            <ns3:atemp>18.0</ns3:atemp>
          </ns3:TrackPointExtension>
        </extensions>
      </trkpt>
      <trkpt lat="42.56533448584377765655517578125" lon="20.05000348202884197235107421875">
        <ele>2163.199951171875</ele>
        <time>2026-06-15T11:26:36.000Z</time>
        <extensions>
          <ns3:TrackPointExtension>
            <ns3:atemp>18.0</ns3:atemp>
          </ns3:TrackPointExtension>
        </extensions>
      </trkpt>
      <trkpt lat="42.56533448584377765655517578125" lon="20.05000348202884197235107421875">
        <ele>2163.39990234375</ele>
        <time>2026-06-15T11:26:37.000Z</time>
        <extensions>
          <ns3:TrackPointExtension>
            <ns3:atemp>18.0</ns3:atemp>
          </ns3:TrackPointExtension>
        </extensions>
      </trkpt>
      <trkpt lat="42.56533448584377765655517578125" lon="20.05000348202884197235107421875">
        <ele>2163.39990234375</ele>
        <time>2026-06-15T11:26:38.000Z</time>
        <extensions>
          <ns3:TrackPointExtension>
            <ns3:atemp>18.0</ns3:atemp>
          </ns3:TrackPointExtension>
        </extensions>
      </trkpt>
      <trkpt lat="42.56533448584377765655517578125" lon="20.05000348202884197235107421875">
        <ele>2163.39990234375</ele>
        <time>2026-06-15T11:26:39.000Z</time>
        <extensions>
          <ns3:TrackPointExtension>
            <ns3:atemp>18.0</ns3:atemp>
          </ns3:TrackPointExtension>
        </extensions>
      </trkpt>
      <trkpt lat="42.56533448584377765655517578125" lon="20.05000348202884197235107421875">
        <ele>2163.199951171875</ele>
        <time>2026-06-15T11:26:40.000Z</time>
        <extensions>
          <ns3:TrackPointExtension>
            <ns3:atemp>18.0</ns3:atemp>
          </ns3:TrackPointExtension>
        </extensions>
      </trkpt>
      <trkpt lat="42.56533448584377765655517578125" lon="20.05000348202884197235107421875">
        <ele>2163</ele>
        <time>2026-06-15T11:26:41.000Z</time>
        <extensions>
          <ns3:TrackPointExtension>
            <ns3:atemp>18.0</ns3:atemp>
          </ns3:TrackPointExtension>
        </extensions>
      </trkpt>
      <trkpt lat="42.56533448584377765655517578125" lon="20.05000348202884197235107421875">
        <ele>2163</ele>
        <time>2026-06-15T11:26:42.000Z</time>
        <extensions>
          <ns3:TrackPointExtension>
            <ns3:atemp>18.0</ns3:atemp>
          </ns3:TrackPointExtension>
        </extensions>
      </trkpt>
      <trkpt lat="42.56533448584377765655517578125" lon="20.05000348202884197235107421875">
        <ele>2163</ele>
        <time>2026-06-15T11:26:43.000Z</time>
        <extensions>
          <ns3:TrackPointExtension>
            <ns3:atemp>18.0</ns3:atemp>
          </ns3:TrackPointExtension>
        </extensions>
      </trkpt>
      <trkpt lat="42.56533448584377765655517578125" lon="20.05000348202884197235107421875">
        <ele>2162.800048828125</ele>
        <time>2026-06-15T11:26:44.000Z</time>
        <extensions>
          <ns3:TrackPointExtension>
            <ns3:atemp>18.0</ns3:atemp>
          </ns3:TrackPointExtension>
        </extensions>
      </trkpt>
      <trkpt lat="42.56533448584377765655517578125" lon="20.05000348202884197235107421875">
        <ele>2162.800048828125</ele>
        <time>2026-06-15T11:26:45.000Z</time>
        <extensions>
          <ns3:TrackPointExtension>
            <ns3:atemp>18.0</ns3:atemp>
          </ns3:TrackPointExtension>
        </extensions>
      </trkpt>
      <trkpt lat="42.56533448584377765655517578125" lon="20.05000348202884197235107421875">
        <ele>2162.60009765625</ele>
        <time>2026-06-15T11:26:46.000Z</time>
        <extensions>
          <ns3:TrackPointExtension>
            <ns3:atemp>18.0</ns3:atemp>
          </ns3:TrackPointExtension>
        </extensions>
      </trkpt>
      <trkpt lat="42.56533448584377765655517578125" lon="20.05000348202884197235107421875">
        <ele>2162.39990234375</ele>
        <time>2026-06-15T11:26:47.000Z</time>
        <extensions>
          <ns3:TrackPointExtension>
            <ns3:atemp>18.0</ns3:atemp>
          </ns3:TrackPointExtension>
        </extensions>
      </trkpt>
      <trkpt lat="42.56533448584377765655517578125" lon="20.05000348202884197235107421875">
        <ele>2162.199951171875</ele>
        <time>2026-06-15T11:26:48.000Z</time>
        <extensions>
          <ns3:TrackPointExtension>
            <ns3:atemp>18.0</ns3:atemp>
          </ns3:TrackPointExtension>
        </extensions>
      </trkpt>
      <trkpt lat="42.56533448584377765655517578125" lon="20.05000348202884197235107421875">
        <ele>2162</ele>
        <time>2026-06-15T11:26:49.000Z</time>
        <extensions>
          <ns3:TrackPointExtension>
            <ns3:atemp>18.0</ns3:atemp>
          </ns3:TrackPointExtension>
        </extensions>
      </trkpt>
      <trkpt lat="42.5653345696628093719482421875" lon="20.05000532604753971099853515625">
        <ele>2161.800048828125</ele>
        <time>2026-06-15T11:26:50.000Z</time>
        <extensions>
          <ns3:TrackPointExtension>
            <ns3:atemp>18.0</ns3:atemp>
          </ns3:TrackPointExtension>
        </extensions>
      </trkpt>
      <trkpt lat="42.56533448584377765655517578125" lon="20.05000348202884197235107421875">
        <ele>2161.60009765625</ele>
        <time>2026-06-15T11:26:51.000Z</time>
        <extensions>
          <ns3:TrackPointExtension>
            <ns3:atemp>18.0</ns3:atemp>
          </ns3:TrackPointExtension>
        </extensions>
      </trkpt>
      <trkpt lat="42.56534102372825145721435546875" lon="20.0500023923814296722412109375">
        <ele>2161.60009765625</ele>
        <time>2026-06-15T11:26:52.000Z</time>
        <extensions>
          <ns3:TrackPointExtension>
            <ns3:atemp>18.0</ns3:atemp>
          </ns3:TrackPointExtension>
        </extensions>
      </trkpt>
      <trkpt lat="42.5653402693569660186767578125" lon="20.0500090979039669036865234375">
        <ele>2161.60009765625</ele>
        <time>2026-06-15T11:26:53.000Z</time>
        <extensions>
          <ns3:TrackPointExtension>
            <ns3:atemp>18.0</ns3:atemp>
          </ns3:TrackPointExtension>
        </extensions>
      </trkpt>
      <trkpt lat="42.56533448584377765655517578125" lon="20.05000348202884197235107421875">
        <ele>2161.60009765625</ele>
        <time>2026-06-15T11:26:54.000Z</time>
        <extensions>
          <ns3:TrackPointExtension>
            <ns3:atemp>18.0</ns3:atemp>
          </ns3:TrackPointExtension>
        </extensions>
      </trkpt>
      <trkpt lat="42.56533448584377765655517578125" lon="20.05000348202884197235107421875">
        <ele>2161.800048828125</ele>
        <time>2026-06-15T11:26:55.000Z</time>
        <extensions>
          <ns3:TrackPointExtension>
            <ns3:atemp>18.0</ns3:atemp>
          </ns3:TrackPointExtension>
        </extensions>
      </trkpt>
      <trkpt lat="42.56533448584377765655517578125" lon="20.05000348202884197235107421875">
        <ele>2161.800048828125</ele>
        <time>2026-06-15T11:26:56.000Z</time>
        <extensions>
          <ns3:TrackPointExtension>
            <ns3:atemp>18.0</ns3:atemp>
          </ns3:TrackPointExtension>
        </extensions>
      </trkpt>
      <trkpt lat="42.56533448584377765655517578125" lon="20.05000348202884197235107421875">
        <ele>2161.60009765625</ele>
        <time>2026-06-15T11:26:57.000Z</time>
        <extensions>
          <ns3:TrackPointExtension>
            <ns3:atemp>18.0</ns3:atemp>
          </ns3:TrackPointExtension>
        </extensions>
      </trkpt>
      <trkpt lat="42.56533448584377765655517578125" lon="20.05000348202884197235107421875">
        <ele>2161.60009765625</ele>
        <time>2026-06-15T11:26:58.000Z</time>
        <extensions>
          <ns3:TrackPointExtension>
            <ns3:atemp>18.0</ns3:atemp>
          </ns3:TrackPointExtension>
        </extensions>
      </trkpt>
      <trkpt lat="42.56533448584377765655517578125" lon="20.05000348202884197235107421875">
        <ele>2161.39990234375</ele>
        <time>2026-06-15T11:26:59.000Z</time>
        <extensions>
          <ns3:TrackPointExtension>
            <ns3:atemp>18.0</ns3:atemp>
          </ns3:TrackPointExtension>
        </extensions>
      </trkpt>
      <trkpt lat="42.56533448584377765655517578125" lon="20.05000348202884197235107421875">
        <ele>2161.199951171875</ele>
        <time>2026-06-15T11:27:00.000Z</time>
        <extensions>
          <ns3:TrackPointExtension>
            <ns3:atemp>18.0</ns3:atemp>
          </ns3:TrackPointExtension>
        </extensions>
      </trkpt>
      <trkpt lat="42.56533448584377765655517578125" lon="20.05000348202884197235107421875">
        <ele>2161</ele>
        <time>2026-06-15T11:27:01.000Z</time>
        <extensions>
          <ns3:TrackPointExtension>
            <ns3:atemp>18.0</ns3:atemp>
          </ns3:TrackPointExtension>
        </extensions>
      </trkpt>
      <trkpt lat="42.56533448584377765655517578125" lon="20.05000348202884197235107421875">
        <ele>2161</ele>
        <time>2026-06-15T11:27:02.000Z</time>
        <extensions>
          <ns3:TrackPointExtension>
            <ns3:atemp>18.0</ns3:atemp>
          </ns3:TrackPointExtension>
        </extensions>
      </trkpt>
      <trkpt lat="42.56533448584377765655517578125" lon="20.05000348202884197235107421875">
        <ele>2160.800048828125</ele>
        <time>2026-06-15T11:27:03.000Z</time>
        <extensions>
          <ns3:TrackPointExtension>
            <ns3:atemp>18.0</ns3:atemp>
          </ns3:TrackPointExtension>
        </extensions>
      </trkpt>
      <trkpt lat="42.56533448584377765655517578125" lon="20.05000348202884197235107421875">
        <ele>2160.60009765625</ele>
        <time>2026-06-15T11:27:04.000Z</time>
        <extensions>
          <ns3:TrackPointExtension>
            <ns3:atemp>18.0</ns3:atemp>
          </ns3:TrackPointExtension>
        </extensions>
      </trkpt>
      <trkpt lat="42.56533448584377765655517578125" lon="20.05000348202884197235107421875">
        <ele>2160.60009765625</ele>
        <time>2026-06-15T11:27:05.000Z</time>
        <extensions>
          <ns3:TrackPointExtension>
            <ns3:atemp>18.0</ns3:atemp>
          </ns3:TrackPointExtension>
        </extensions>
      </trkpt>
      <trkpt lat="42.56533448584377765655517578125" lon="20.05000348202884197235107421875">
        <ele>2160.60009765625</ele>
        <time>2026-06-15T11:27:06.000Z</time>
        <extensions>
          <ns3:TrackPointExtension>
            <ns3:atemp>18.0</ns3:atemp>
          </ns3:TrackPointExtension>
        </extensions>
      </trkpt>
      <trkpt lat="42.56533448584377765655517578125" lon="20.05000348202884197235107421875">
        <ele>2160.800048828125</ele>
        <time>2026-06-15T11:27:07.000Z</time>
        <extensions>
          <ns3:TrackPointExtension>
            <ns3:atemp>18.0</ns3:atemp>
          </ns3:TrackPointExtension>
        </extensions>
      </trkpt>
      <trkpt lat="42.56533448584377765655517578125" lon="20.05000348202884197235107421875">
        <ele>2160.800048828125</ele>
        <time>2026-06-15T11:27:08.000Z</time>
        <extensions>
          <ns3:TrackPointExtension>
            <ns3:atemp>18.0</ns3:atemp>
          </ns3:TrackPointExtension>
        </extensions>
      </trkpt>
      <trkpt lat="42.56533448584377765655517578125" lon="20.05000348202884197235107421875">
        <ele>2160.800048828125</ele>
        <time>2026-06-15T11:27:09.000Z</time>
        <extensions>
          <ns3:TrackPointExtension>
            <ns3:atemp>18.0</ns3:atemp>
          </ns3:TrackPointExtension>
        </extensions>
      </trkpt>
      <trkpt lat="42.56533448584377765655517578125" lon="20.05000348202884197235107421875">
        <ele>2161</ele>
        <time>2026-06-15T11:27:10.000Z</time>
        <extensions>
          <ns3:TrackPointExtension>
            <ns3:atemp>18.0</ns3:atemp>
          </ns3:TrackPointExtension>
        </extensions>
      </trkpt>
      <trkpt lat="42.56533448584377765655517578125" lon="20.05000348202884197235107421875">
        <ele>2161</ele>
        <time>2026-06-15T11:27:11.000Z</time>
        <extensions>
          <ns3:TrackPointExtension>
            <ns3:atemp>18.0</ns3:atemp>
          </ns3:TrackPointExtension>
        </extensions>
      </trkpt>
      <trkpt lat="42.56533448584377765655517578125" lon="20.05000348202884197235107421875">
        <ele>2160.800048828125</ele>
        <time>2026-06-15T11:27:12.000Z</time>
        <extensions>
          <ns3:TrackPointExtension>
            <ns3:atemp>18.0</ns3:atemp>
          </ns3:TrackPointExtension>
        </extensions>
      </trkpt>
      <trkpt lat="42.56533448584377765655517578125" lon="20.05000348202884197235107421875">
        <ele>2160.800048828125</ele>
        <time>2026-06-15T11:27:13.000Z</time>
        <extensions>
          <ns3:TrackPointExtension>
            <ns3:atemp>18.0</ns3:atemp>
          </ns3:TrackPointExtension>
        </extensions>
      </trkpt>
      <trkpt lat="42.56533448584377765655517578125" lon="20.05000348202884197235107421875">
        <ele>2160.800048828125</ele>
        <time>2026-06-15T11:27:14.000Z</time>
        <extensions>
          <ns3:TrackPointExtension>
            <ns3:atemp>18.0</ns3:atemp>
          </ns3:TrackPointExtension>
        </extensions>
      </trkpt>
      <trkpt lat="42.56533448584377765655517578125" lon="20.05000348202884197235107421875">
        <ele>2160.800048828125</ele>
        <time>2026-06-15T11:27:15.000Z</time>
        <extensions>
          <ns3:TrackPointExtension>
            <ns3:atemp>18.0</ns3:atemp>
          </ns3:TrackPointExtension>
        </extensions>
      </trkpt>
      <trkpt lat="42.56533448584377765655517578125" lon="20.05000348202884197235107421875">
        <ele>2160.800048828125</ele>
        <time>2026-06-15T11:27:16.000Z</time>
        <extensions>
          <ns3:TrackPointExtension>
            <ns3:atemp>18.0</ns3:atemp>
          </ns3:TrackPointExtension>
        </extensions>
      </trkpt>
      <trkpt lat="42.56533448584377765655517578125" lon="20.05000348202884197235107421875">
        <ele>2160.800048828125</ele>
        <time>2026-06-15T11:27:17.000Z</time>
        <extensions>
          <ns3:TrackPointExtension>
            <ns3:atemp>18.0</ns3:atemp>
          </ns3:TrackPointExtension>
        </extensions>
      </trkpt>
      <trkpt lat="42.56533448584377765655517578125" lon="20.05000348202884197235107421875">
        <ele>2160.800048828125</ele>
        <time>2026-06-15T11:27:18.000Z</time>
        <extensions>
          <ns3:TrackPointExtension>
            <ns3:atemp>18.0</ns3:atemp>
          </ns3:TrackPointExtension>
        </extensions>
      </trkpt>
      <trkpt lat="42.56533448584377765655517578125" lon="20.05000348202884197235107421875">
        <ele>2160.800048828125</ele>
        <time>2026-06-15T11:27:19.000Z</time>
        <extensions>
          <ns3:TrackPointExtension>
            <ns3:atemp>18.0</ns3:atemp>
          </ns3:TrackPointExtension>
        </extensions>
      </trkpt>
      <trkpt lat="42.56533448584377765655517578125" lon="20.05000348202884197235107421875">
        <ele>2160.800048828125</ele>
        <time>2026-06-15T11:27:20.000Z</time>
        <extensions>
          <ns3:TrackPointExtension>
            <ns3:atemp>18.0</ns3:atemp>
          </ns3:TrackPointExtension>
        </extensions>
      </trkpt>
      <trkpt lat="42.56533448584377765655517578125" lon="20.05000348202884197235107421875">
        <ele>2160.800048828125</ele>
        <time>2026-06-15T11:27:21.000Z</time>
        <extensions>
          <ns3:TrackPointExtension>
            <ns3:atemp>18.0</ns3:atemp>
          </ns3:TrackPointExtension>
        </extensions>
      </trkpt>
      <trkpt lat="42.56533448584377765655517578125" lon="20.05000348202884197235107421875">
        <ele>2160.800048828125</ele>
        <time>2026-06-15T11:27:22.000Z</time>
        <extensions>
          <ns3:TrackPointExtension>
            <ns3:atemp>18.0</ns3:atemp>
          </ns3:TrackPointExtension>
        </extensions>
      </trkpt>
      <trkpt lat="42.56533448584377765655517578125" lon="20.05000348202884197235107421875">
        <ele>2160.800048828125</ele>
        <time>2026-06-15T11:27:23.000Z</time>
        <extensions>
          <ns3:TrackPointExtension>
            <ns3:atemp>18.0</ns3:atemp>
          </ns3:TrackPointExtension>
        </extensions>
      </trkpt>
      <trkpt lat="42.56533448584377765655517578125" lon="20.05000348202884197235107421875">
        <ele>2160.800048828125</ele>
        <time>2026-06-15T11:27:24.000Z</time>
        <extensions>
          <ns3:TrackPointExtension>
            <ns3:atemp>18.0</ns3:atemp>
          </ns3:TrackPointExtension>
        </extensions>
      </trkpt>
      <trkpt lat="42.56533448584377765655517578125" lon="20.05000348202884197235107421875">
        <ele>2161</ele>
        <time>2026-06-15T11:27:25.000Z</time>
        <extensions>
          <ns3:TrackPointExtension>
            <ns3:atemp>18.0</ns3:atemp>
          </ns3:TrackPointExtension>
        </extensions>
      </trkpt>
      <trkpt lat="42.56533448584377765655517578125" lon="20.05000348202884197235107421875">
        <ele>2161</ele>
        <time>2026-06-15T11:27:26.000Z</time>
        <extensions>
          <ns3:TrackPointExtension>
            <ns3:atemp>18.0</ns3:atemp>
          </ns3:TrackPointExtension>
        </extensions>
      </trkpt>
      <trkpt lat="42.56533448584377765655517578125" lon="20.05000348202884197235107421875">
        <ele>2161</ele>
        <time>2026-06-15T11:27:27.000Z</time>
        <extensions>
          <ns3:TrackPointExtension>
            <ns3:atemp>18.0</ns3:atemp>
          </ns3:TrackPointExtension>
        </extensions>
      </trkpt>
      <trkpt lat="42.56533448584377765655517578125" lon="20.05000348202884197235107421875">
        <ele>2161</ele>
        <time>2026-06-15T11:27:28.000Z</time>
        <extensions>
          <ns3:TrackPointExtension>
            <ns3:atemp>18.0</ns3:atemp>
          </ns3:TrackPointExtension>
        </extensions>
      </trkpt>
      <trkpt lat="42.56533448584377765655517578125" lon="20.05000348202884197235107421875">
        <ele>2161</ele>
        <time>2026-06-15T11:27:29.000Z</time>
        <extensions>
          <ns3:TrackPointExtension>
            <ns3:atemp>18.0</ns3:atemp>
          </ns3:TrackPointExtension>
        </extensions>
      </trkpt>
      <trkpt lat="42.56533448584377765655517578125" lon="20.05000348202884197235107421875">
        <ele>2160.800048828125</ele>
        <time>2026-06-15T11:27:30.000Z</time>
        <extensions>
          <ns3:TrackPointExtension>
            <ns3:atemp>18.0</ns3:atemp>
          </ns3:TrackPointExtension>
        </extensions>
      </trkpt>
      <trkpt lat="42.56533448584377765655517578125" lon="20.05000348202884197235107421875">
        <ele>2160.800048828125</ele>
        <time>2026-06-15T11:27:31.000Z</time>
        <extensions>
          <ns3:TrackPointExtension>
            <ns3:atemp>18.0</ns3:atemp>
          </ns3:TrackPointExtension>
        </extensions>
      </trkpt>
      <trkpt lat="42.56533448584377765655517578125" lon="20.05000348202884197235107421875">
        <ele>2160.60009765625</ele>
        <time>2026-06-15T11:27:32.000Z</time>
        <extensions>
          <ns3:TrackPointExtension>
            <ns3:atemp>18.0</ns3:atemp>
          </ns3:TrackPointExtension>
        </extensions>
      </trkpt>
      <trkpt lat="42.56533448584377765655517578125" lon="20.05000348202884197235107421875">
        <ele>2160.60009765625</ele>
        <time>2026-06-15T11:27:33.000Z</time>
        <extensions>
          <ns3:TrackPointExtension>
            <ns3:atemp>18.0</ns3:atemp>
          </ns3:TrackPointExtension>
        </extensions>
      </trkpt>
      <trkpt lat="42.56533448584377765655517578125" lon="20.05000348202884197235107421875">
        <ele>2160.60009765625</ele>
        <time>2026-06-15T11:27:34.000Z</time>
        <extensions>
          <ns3:TrackPointExtension>
            <ns3:atemp>18.0</ns3:atemp>
          </ns3:TrackPointExtension>
        </extensions>
      </trkpt>
      <trkpt lat="42.56533448584377765655517578125" lon="20.05000348202884197235107421875">
        <ele>2160.60009765625</ele>
        <time>2026-06-15T11:27:35.000Z</time>
        <extensions>
          <ns3:TrackPointExtension>
            <ns3:atemp>18.0</ns3:atemp>
          </ns3:TrackPointExtension>
        </extensions>
      </trkpt>
      <trkpt lat="42.56533448584377765655517578125" lon="20.05000348202884197235107421875">
        <ele>2160.60009765625</ele>
        <time>2026-06-15T11:27:36.000Z</time>
        <extensions>
          <ns3:TrackPointExtension>
            <ns3:atemp>18.0</ns3:atemp>
          </ns3:TrackPointExtension>
        </extensions>
      </trkpt>
      <trkpt lat="42.56533448584377765655517578125" lon="20.05000348202884197235107421875">
        <ele>2160.60009765625</ele>
        <time>2026-06-15T11:27:37.000Z</time>
        <extensions>
          <ns3:TrackPointExtension>
            <ns3:atemp>18.0</ns3:atemp>
          </ns3:TrackPointExtension>
        </extensions>
      </trkpt>
      <trkpt lat="42.56533448584377765655517578125" lon="20.05000348202884197235107421875">
        <ele>2160.60009765625</ele>
        <time>2026-06-15T11:27:38.000Z</time>
        <extensions>
          <ns3:TrackPointExtension>
            <ns3:atemp>18.0</ns3:atemp>
          </ns3:TrackPointExtension>
        </extensions>
      </trkpt>
      <trkpt lat="42.56533448584377765655517578125" lon="20.05000348202884197235107421875">
        <ele>2160.60009765625</ele>
        <time>2026-06-15T11:27:39.000Z</time>
        <extensions>
          <ns3:TrackPointExtension>
            <ns3:atemp>18.0</ns3:atemp>
          </ns3:TrackPointExtension>
        </extensions>
      </trkpt>
      <trkpt lat="42.56533448584377765655517578125" lon="20.05000348202884197235107421875">
        <ele>2160.60009765625</ele>
        <time>2026-06-15T11:27:40.000Z</time>
        <extensions>
          <ns3:TrackPointExtension>
            <ns3:atemp>18.0</ns3:atemp>
          </ns3:TrackPointExtension>
        </extensions>
      </trkpt>
      <trkpt lat="42.56533448584377765655517578125" lon="20.05000348202884197235107421875">
        <ele>2160.60009765625</ele>
        <time>2026-06-15T11:27:41.000Z</time>
        <extensions>
          <ns3:TrackPointExtension>
            <ns3:atemp>18.0</ns3:atemp>
          </ns3:TrackPointExtension>
        </extensions>
      </trkpt>
      <trkpt lat="42.56533448584377765655517578125" lon="20.05000348202884197235107421875">
        <ele>2160.60009765625</ele>
        <time>2026-06-15T11:27:42.000Z</time>
        <extensions>
          <ns3:TrackPointExtension>
            <ns3:atemp>18.0</ns3:atemp>
          </ns3:TrackPointExtension>
        </extensions>
      </trkpt>
      <trkpt lat="42.56533448584377765655517578125" lon="20.05000348202884197235107421875">
        <ele>2160.60009765625</ele>
        <time>2026-06-15T11:27:43.000Z</time>
        <extensions>
          <ns3:TrackPointExtension>
            <ns3:atemp>18.0</ns3:atemp>
          </ns3:TrackPointExtension>
        </extensions>
      </trkpt>
      <trkpt lat="42.56533448584377765655517578125" lon="20.05000348202884197235107421875">
        <ele>2160.60009765625</ele>
        <time>2026-06-15T11:27:44.000Z</time>
        <extensions>
          <ns3:TrackPointExtension>
            <ns3:atemp>18.0</ns3:atemp>
          </ns3:TrackPointExtension>
        </extensions>
      </trkpt>
      <trkpt lat="42.56533448584377765655517578125" lon="20.05000348202884197235107421875">
        <ele>2160.60009765625</ele>
        <time>2026-06-15T11:27:45.000Z</time>
        <extensions>
          <ns3:TrackPointExtension>
            <ns3:atemp>18.0</ns3:atemp>
          </ns3:TrackPointExtension>
        </extensions>
      </trkpt>
      <trkpt lat="42.56533448584377765655517578125" lon="20.05000348202884197235107421875">
        <ele>2160.60009765625</ele>
        <time>2026-06-15T11:27:46.000Z</time>
        <extensions>
          <ns3:TrackPointExtension>
            <ns3:atemp>18.0</ns3:atemp>
          </ns3:TrackPointExtension>
        </extensions>
      </trkpt>
      <trkpt lat="42.56533448584377765655517578125" lon="20.05000348202884197235107421875">
        <ele>2160.60009765625</ele>
        <time>2026-06-15T11:27:47.000Z</time>
        <extensions>
          <ns3:TrackPointExtension>
            <ns3:atemp>18.0</ns3:atemp>
          </ns3:TrackPointExtension>
        </extensions>
      </trkpt>
      <trkpt lat="42.56533448584377765655517578125" lon="20.05000348202884197235107421875">
        <ele>2160.800048828125</ele>
        <time>2026-06-15T11:27:48.000Z</time>
        <extensions>
          <ns3:TrackPointExtension>
            <ns3:atemp>18.0</ns3:atemp>
          </ns3:TrackPointExtension>
        </extensions>
      </trkpt>
      <trkpt lat="42.56533448584377765655517578125" lon="20.05000348202884197235107421875">
        <ele>2160.800048828125</ele>
        <time>2026-06-15T11:27:49.000Z</time>
        <extensions>
          <ns3:TrackPointExtension>
            <ns3:atemp>18.0</ns3:atemp>
          </ns3:TrackPointExtension>
        </extensions>
      </trkpt>
      <trkpt lat="42.56533448584377765655517578125" lon="20.05000348202884197235107421875">
        <ele>2160.800048828125</ele>
        <time>2026-06-15T11:27:50.000Z</time>
        <extensions>
          <ns3:TrackPointExtension>
            <ns3:atemp>18.0</ns3:atemp>
          </ns3:TrackPointExtension>
        </extensions>
      </trkpt>
      <trkpt lat="42.56533448584377765655517578125" lon="20.05000348202884197235107421875">
        <ele>2161</ele>
        <time>2026-06-15T11:27:51.000Z</time>
        <extensions>
          <ns3:TrackPointExtension>
            <ns3:atemp>18.0</ns3:atemp>
          </ns3:TrackPointExtension>
        </extensions>
      </trkpt>
      <trkpt lat="42.56533448584377765655517578125" lon="20.05000348202884197235107421875">
        <ele>2161</ele>
        <time>2026-06-15T11:27:52.000Z</time>
        <extensions>
          <ns3:TrackPointExtension>
            <ns3:atemp>18.0</ns3:atemp>
          </ns3:TrackPointExtension>
        </extensions>
      </trkpt>
      <trkpt lat="42.56533448584377765655517578125" lon="20.05000348202884197235107421875">
        <ele>2161</ele>
        <time>2026-06-15T11:27:53.000Z</time>
        <extensions>
          <ns3:TrackPointExtension>
            <ns3:atemp>18.0</ns3:atemp>
          </ns3:TrackPointExtension>
        </extensions>
      </trkpt>
      <trkpt lat="42.56533448584377765655517578125" lon="20.05000348202884197235107421875">
        <ele>2160.800048828125</ele>
        <time>2026-06-15T11:27:54.000Z</time>
        <extensions>
          <ns3:TrackPointExtension>
            <ns3:atemp>18.0</ns3:atemp>
          </ns3:TrackPointExtension>
        </extensions>
      </trkpt>
      <trkpt lat="42.56533448584377765655517578125" lon="20.05000348202884197235107421875">
        <ele>2160.800048828125</ele>
        <time>2026-06-15T11:27:55.000Z</time>
        <extensions>
          <ns3:TrackPointExtension>
            <ns3:atemp>18.0</ns3:atemp>
          </ns3:TrackPointExtension>
        </extensions>
      </trkpt>
      <trkpt lat="42.56533448584377765655517578125" lon="20.05000348202884197235107421875">
        <ele>2160.800048828125</ele>
        <time>2026-06-15T11:27:56.000Z</time>
        <extensions>
          <ns3:TrackPointExtension>
            <ns3:atemp>18.0</ns3:atemp>
          </ns3:TrackPointExtension>
        </extensions>
      </trkpt>
      <trkpt lat="42.56533448584377765655517578125" lon="20.05000348202884197235107421875">
        <ele>2160.800048828125</ele>
        <time>2026-06-15T11:27:57.000Z</time>
        <extensions>
          <ns3:TrackPointExtension>
            <ns3:atemp>18.0</ns3:atemp>
          </ns3:TrackPointExtension>
        </extensions>
      </trkpt>
      <trkpt lat="42.56533448584377765655517578125" lon="20.05000348202884197235107421875">
        <ele>2160.60009765625</ele>
        <time>2026-06-15T11:27:58.000Z</time>
        <extensions>
          <ns3:TrackPointExtension>
            <ns3:atemp>18.0</ns3:atemp>
          </ns3:TrackPointExtension>
        </extensions>
      </trkpt>
      <trkpt lat="42.56533448584377765655517578125" lon="20.05000348202884197235107421875">
        <ele>2160.60009765625</ele>
        <time>2026-06-15T11:27:59.000Z</time>
        <extensions>
          <ns3:TrackPointExtension>
            <ns3:atemp>18.0</ns3:atemp>
          </ns3:TrackPointExtension>
        </extensions>
      </trkpt>
      <trkpt lat="42.56533448584377765655517578125" lon="20.05000348202884197235107421875">
        <ele>2160.60009765625</ele>
        <time>2026-06-15T11:28:00.000Z</time>
        <extensions>
          <ns3:TrackPointExtension>
            <ns3:atemp>18.0</ns3:atemp>
          </ns3:TrackPointExtension>
        </extensions>
      </trkpt>
      <trkpt lat="42.56533448584377765655517578125" lon="20.05000348202884197235107421875">
        <ele>2160.60009765625</ele>
        <time>2026-06-15T11:28:01.000Z</time>
        <extensions>
          <ns3:TrackPointExtension>
            <ns3:atemp>18.0</ns3:atemp>
          </ns3:TrackPointExtension>
        </extensions>
      </trkpt>
      <trkpt lat="42.56533448584377765655517578125" lon="20.05000348202884197235107421875">
        <ele>2160.60009765625</ele>
        <time>2026-06-15T11:28:02.000Z</time>
        <extensions>
          <ns3:TrackPointExtension>
            <ns3:atemp>18.0</ns3:atemp>
          </ns3:TrackPointExtension>
        </extensions>
      </trkpt>
      <trkpt lat="42.56533448584377765655517578125" lon="20.05000348202884197235107421875">
        <ele>2160.60009765625</ele>
        <time>2026-06-15T11:28:03.000Z</time>
        <extensions>
          <ns3:TrackPointExtension>
            <ns3:atemp>18.0</ns3:atemp>
          </ns3:TrackPointExtension>
        </extensions>
      </trkpt>
      <trkpt lat="42.56533448584377765655517578125" lon="20.05000348202884197235107421875">
        <ele>2160.60009765625</ele>
        <time>2026-06-15T11:28:04.000Z</time>
        <extensions>
          <ns3:TrackPointExtension>
            <ns3:atemp>18.0</ns3:atemp>
          </ns3:TrackPointExtension>
        </extensions>
      </trkpt>
      <trkpt lat="42.56533448584377765655517578125" lon="20.05000348202884197235107421875">
        <ele>2160.60009765625</ele>
        <time>2026-06-15T11:28:05.000Z</time>
        <extensions>
          <ns3:TrackPointExtension>
            <ns3:atemp>18.0</ns3:atemp>
          </ns3:TrackPointExtension>
        </extensions>
      </trkpt>
      <trkpt lat="42.56533448584377765655517578125" lon="20.05000348202884197235107421875">
        <ele>2160.60009765625</ele>
        <time>2026-06-15T11:28:06.000Z</time>
        <extensions>
          <ns3:TrackPointExtension>
            <ns3:atemp>18.0</ns3:atemp>
          </ns3:TrackPointExtension>
        </extensions>
      </trkpt>
      <trkpt lat="42.56533448584377765655517578125" lon="20.05000348202884197235107421875">
        <ele>2160.39990234375</ele>
        <time>2026-06-15T11:28:07.000Z</time>
        <extensions>
          <ns3:TrackPointExtension>
            <ns3:atemp>18.0</ns3:atemp>
          </ns3:TrackPointExtension>
        </extensions>
      </trkpt>
      <trkpt lat="42.56533448584377765655517578125" lon="20.05000348202884197235107421875">
        <ele>2160.39990234375</ele>
        <time>2026-06-15T11:28:08.000Z</time>
        <extensions>
          <ns3:TrackPointExtension>
            <ns3:atemp>18.0</ns3:atemp>
          </ns3:TrackPointExtension>
        </extensions>
      </trkpt>
      <trkpt lat="42.56533448584377765655517578125" lon="20.05000348202884197235107421875">
        <ele>2160.39990234375</ele>
        <time>2026-06-15T11:28:09.000Z</time>
        <extensions>
          <ns3:TrackPointExtension>
            <ns3:atemp>18.0</ns3:atemp>
          </ns3:TrackPointExtension>
        </extensions>
      </trkpt>
      <trkpt lat="42.56533448584377765655517578125" lon="20.05000348202884197235107421875">
        <ele>2160.39990234375</ele>
        <time>2026-06-15T11:28:10.000Z</time>
        <extensions>
          <ns3:TrackPointExtension>
            <ns3:atemp>18.0</ns3:atemp>
          </ns3:TrackPointExtension>
        </extensions>
      </trkpt>
      <trkpt lat="42.56533448584377765655517578125" lon="20.05000348202884197235107421875">
        <ele>2160.199951171875</ele>
        <time>2026-06-15T11:28:11.000Z</time>
        <extensions>
          <ns3:TrackPointExtension>
            <ns3:atemp>18.0</ns3:atemp>
          </ns3:TrackPointExtension>
        </extensions>
      </trkpt>
      <trkpt lat="42.56533448584377765655517578125" lon="20.05000348202884197235107421875">
        <ele>2160.199951171875</ele>
        <time>2026-06-15T11:28:12.000Z</time>
        <extensions>
          <ns3:TrackPointExtension>
            <ns3:atemp>18.0</ns3:atemp>
          </ns3:TrackPointExtension>
        </extensions>
      </trkpt>
      <trkpt lat="42.56533448584377765655517578125" lon="20.05000348202884197235107421875">
        <ele>2160.199951171875</ele>
        <time>2026-06-15T11:28:13.000Z</time>
        <extensions>
          <ns3:TrackPointExtension>
            <ns3:atemp>18.0</ns3:atemp>
          </ns3:TrackPointExtension>
        </extensions>
      </trkpt>
      <trkpt lat="42.56533448584377765655517578125" lon="20.05000348202884197235107421875">
        <ele>2160.199951171875</ele>
        <time>2026-06-15T11:28:14.000Z</time>
        <extensions>
          <ns3:TrackPointExtension>
            <ns3:atemp>18.0</ns3:atemp>
          </ns3:TrackPointExtension>
        </extensions>
      </trkpt>
      <trkpt lat="42.56533448584377765655517578125" lon="20.05000348202884197235107421875">
        <ele>2160.199951171875</ele>
        <time>2026-06-15T11:28:15.000Z</time>
        <extensions>
          <ns3:TrackPointExtension>
            <ns3:atemp>18.0</ns3:atemp>
          </ns3:TrackPointExtension>
        </extensions>
      </trkpt>
      <trkpt lat="42.56533448584377765655517578125" lon="20.05000348202884197235107421875">
        <ele>2160.199951171875</ele>
        <time>2026-06-15T11:28:16.000Z</time>
        <extensions>
          <ns3:TrackPointExtension>
            <ns3:atemp>18.0</ns3:atemp>
          </ns3:TrackPointExtension>
        </extensions>
      </trkpt>
      <trkpt lat="42.56533448584377765655517578125" lon="20.05000348202884197235107421875">
        <ele>2160.199951171875</ele>
        <time>2026-06-15T11:28:17.000Z</time>
        <extensions>
          <ns3:TrackPointExtension>
            <ns3:atemp>18.0</ns3:atemp>
          </ns3:TrackPointExtension>
        </extensions>
      </trkpt>
      <trkpt lat="42.56533448584377765655517578125" lon="20.05000348202884197235107421875">
        <ele>2160.39990234375</ele>
        <time>2026-06-15T11:28:18.000Z</time>
        <extensions>
          <ns3:TrackPointExtension>
            <ns3:atemp>18.0</ns3:atemp>
          </ns3:TrackPointExtension>
        </extensions>
      </trkpt>
      <trkpt lat="42.56533448584377765655517578125" lon="20.05000348202884197235107421875">
        <ele>2160.39990234375</ele>
        <time>2026-06-15T11:28:19.000Z</time>
        <extensions>
          <ns3:TrackPointExtension>
            <ns3:atemp>18.0</ns3:atemp>
          </ns3:TrackPointExtension>
        </extensions>
      </trkpt>
      <trkpt lat="42.56533448584377765655517578125" lon="20.05000348202884197235107421875">
        <ele>2160.39990234375</ele>
        <time>2026-06-15T11:28:20.000Z</time>
        <extensions>
          <ns3:TrackPointExtension>
            <ns3:atemp>18.0</ns3:atemp>
          </ns3:TrackPointExtension>
        </extensions>
      </trkpt>
      <trkpt lat="42.56533448584377765655517578125" lon="20.05000348202884197235107421875">
        <ele>2160.60009765625</ele>
        <time>2026-06-15T11:28:21.000Z</time>
        <extensions>
          <ns3:TrackPointExtension>
            <ns3:atemp>18.0</ns3:atemp>
          </ns3:TrackPointExtension>
        </extensions>
      </trkpt>
      <trkpt lat="42.56533448584377765655517578125" lon="20.05000348202884197235107421875">
        <ele>2160.60009765625</ele>
        <time>2026-06-15T11:28:22.000Z</time>
        <extensions>
          <ns3:TrackPointExtension>
            <ns3:atemp>18.0</ns3:atemp>
          </ns3:TrackPointExtension>
        </extensions>
      </trkpt>
      <trkpt lat="42.56533448584377765655517578125" lon="20.05000348202884197235107421875">
        <ele>2160.60009765625</ele>
        <time>2026-06-15T11:28:23.000Z</time>
        <extensions>
          <ns3:TrackPointExtension>
            <ns3:atemp>18.0</ns3:atemp>
          </ns3:TrackPointExtension>
        </extensions>
      </trkpt>
      <trkpt lat="42.56533448584377765655517578125" lon="20.05000348202884197235107421875">
        <ele>2160.60009765625</ele>
        <time>2026-06-15T11:28:24.000Z</time>
        <extensions>
          <ns3:TrackPointExtension>
            <ns3:atemp>18.0</ns3:atemp>
          </ns3:TrackPointExtension>
        </extensions>
      </trkpt>
      <trkpt lat="42.56533448584377765655517578125" lon="20.05000348202884197235107421875">
        <ele>2160.60009765625</ele>
        <time>2026-06-15T11:28:25.000Z</time>
        <extensions>
          <ns3:TrackPointExtension>
            <ns3:atemp>18.0</ns3:atemp>
          </ns3:TrackPointExtension>
        </extensions>
      </trkpt>
      <trkpt lat="42.56533448584377765655517578125" lon="20.05000348202884197235107421875">
        <ele>2160.800048828125</ele>
        <time>2026-06-15T11:28:26.000Z</time>
        <extensions>
          <ns3:TrackPointExtension>
            <ns3:atemp>18.0</ns3:atemp>
          </ns3:TrackPointExtension>
        </extensions>
      </trkpt>
      <trkpt lat="42.56533448584377765655517578125" lon="20.05000348202884197235107421875">
        <ele>2160.800048828125</ele>
        <time>2026-06-15T11:28:27.000Z</time>
        <extensions>
          <ns3:TrackPointExtension>
            <ns3:atemp>18.0</ns3:atemp>
          </ns3:TrackPointExtension>
        </extensions>
      </trkpt>
      <trkpt lat="42.56533448584377765655517578125" lon="20.05000348202884197235107421875">
        <ele>2160.800048828125</ele>
        <time>2026-06-15T11:28:28.000Z</time>
        <extensions>
          <ns3:TrackPointExtension>
            <ns3:atemp>18.0</ns3:atemp>
          </ns3:TrackPointExtension>
        </extensions>
      </trkpt>
      <trkpt lat="42.56533448584377765655517578125" lon="20.05000348202884197235107421875">
        <ele>2161</ele>
        <time>2026-06-15T11:28:29.000Z</time>
        <extensions>
          <ns3:TrackPointExtension>
            <ns3:atemp>18.0</ns3:atemp>
          </ns3:TrackPointExtension>
        </extensions>
      </trkpt>
      <trkpt lat="42.56533448584377765655517578125" lon="20.05000348202884197235107421875">
        <ele>2161</ele>
        <time>2026-06-15T11:28:30.000Z</time>
        <extensions>
          <ns3:TrackPointExtension>
            <ns3:atemp>18.0</ns3:atemp>
          </ns3:TrackPointExtension>
        </extensions>
      </trkpt>
      <trkpt lat="42.56533448584377765655517578125" lon="20.05000348202884197235107421875">
        <ele>2161</ele>
        <time>2026-06-15T11:28:31.000Z</time>
        <extensions>
          <ns3:TrackPointExtension>
            <ns3:atemp>18.0</ns3:atemp>
          </ns3:TrackPointExtension>
        </extensions>
      </trkpt>
      <trkpt lat="42.56533448584377765655517578125" lon="20.05000348202884197235107421875">
        <ele>2161</ele>
        <time>2026-06-15T11:28:32.000Z</time>
        <extensions>
          <ns3:TrackPointExtension>
            <ns3:atemp>18.0</ns3:atemp>
          </ns3:TrackPointExtension>
        </extensions>
      </trkpt>
      <trkpt lat="42.56533448584377765655517578125" lon="20.05000348202884197235107421875">
        <ele>2161</ele>
        <time>2026-06-15T11:28:33.000Z</time>
        <extensions>
          <ns3:TrackPointExtension>
            <ns3:atemp>18.0</ns3:atemp>
          </ns3:TrackPointExtension>
        </extensions>
      </trkpt>
      <trkpt lat="42.56533448584377765655517578125" lon="20.05000348202884197235107421875">
        <ele>2160.800048828125</ele>
        <time>2026-06-15T11:28:34.000Z</time>
        <extensions>
          <ns3:TrackPointExtension>
            <ns3:atemp>18.0</ns3:atemp>
          </ns3:TrackPointExtension>
        </extensions>
      </trkpt>
      <trkpt lat="42.56533448584377765655517578125" lon="20.05000348202884197235107421875">
        <ele>2160.800048828125</ele>
        <time>2026-06-15T11:28:35.000Z</time>
        <extensions>
          <ns3:TrackPointExtension>
            <ns3:atemp>18.0</ns3:atemp>
          </ns3:TrackPointExtension>
        </extensions>
      </trkpt>
      <trkpt lat="42.56533448584377765655517578125" lon="20.05000348202884197235107421875">
        <ele>2160.800048828125</ele>
        <time>2026-06-15T11:28:36.000Z</time>
        <extensions>
          <ns3:TrackPointExtension>
            <ns3:atemp>18.0</ns3:atemp>
          </ns3:TrackPointExtension>
        </extensions>
      </trkpt>
      <trkpt lat="42.56533448584377765655517578125" lon="20.05000348202884197235107421875">
        <ele>2160.800048828125</ele>
        <time>2026-06-15T11:28:37.000Z</time>
        <extensions>
          <ns3:TrackPointExtension>
            <ns3:atemp>18.0</ns3:atemp>
          </ns3:TrackPointExtension>
        </extensions>
      </trkpt>
      <trkpt lat="42.56533448584377765655517578125" lon="20.05000348202884197235107421875">
        <ele>2161</ele>
        <time>2026-06-15T11:28:38.000Z</time>
        <extensions>
          <ns3:TrackPointExtension>
            <ns3:atemp>18.0</ns3:atemp>
          </ns3:TrackPointExtension>
        </extensions>
      </trkpt>
      <trkpt lat="42.56533448584377765655517578125" lon="20.05000348202884197235107421875">
        <ele>2161</ele>
        <time>2026-06-15T11:28:39.000Z</time>
        <extensions>
          <ns3:TrackPointExtension>
            <ns3:atemp>18.0</ns3:atemp>
          </ns3:TrackPointExtension>
        </extensions>
      </trkpt>
      <trkpt lat="42.56533448584377765655517578125" lon="20.05000348202884197235107421875">
        <ele>2161</ele>
        <time>2026-06-15T11:28:40.000Z</time>
        <extensions>
          <ns3:TrackPointExtension>
            <ns3:atemp>18.0</ns3:atemp>
          </ns3:TrackPointExtension>
        </extensions>
      </trkpt>
      <trkpt lat="42.56533448584377765655517578125" lon="20.05000348202884197235107421875">
        <ele>2161</ele>
        <time>2026-06-15T11:28:41.000Z</time>
        <extensions>
          <ns3:TrackPointExtension>
            <ns3:atemp>18.0</ns3:atemp>
          </ns3:TrackPointExtension>
        </extensions>
      </trkpt>
      <trkpt lat="42.56533448584377765655517578125" lon="20.05000348202884197235107421875">
        <ele>2161.199951171875</ele>
        <time>2026-06-15T11:28:42.000Z</time>
        <extensions>
          <ns3:TrackPointExtension>
            <ns3:atemp>18.0</ns3:atemp>
          </ns3:TrackPointExtension>
        </extensions>
      </trkpt>
      <trkpt lat="42.56533448584377765655517578125" lon="20.05000348202884197235107421875">
        <ele>2161.199951171875</ele>
        <time>2026-06-15T11:28:43.000Z</time>
        <extensions>
          <ns3:TrackPointExtension>
            <ns3:atemp>18.0</ns3:atemp>
          </ns3:TrackPointExtension>
        </extensions>
      </trkpt>
      <trkpt lat="42.56533448584377765655517578125" lon="20.05000348202884197235107421875">
        <ele>2161.199951171875</ele>
        <time>2026-06-15T11:28:44.000Z</time>
        <extensions>
          <ns3:TrackPointExtension>
            <ns3:atemp>18.0</ns3:atemp>
          </ns3:TrackPointExtension>
        </extensions>
      </trkpt>
      <trkpt lat="42.56533448584377765655517578125" lon="20.05000348202884197235107421875">
        <ele>2161.199951171875</ele>
        <time>2026-06-15T11:28:45.000Z</time>
        <extensions>
          <ns3:TrackPointExtension>
            <ns3:atemp>18.0</ns3:atemp>
          </ns3:TrackPointExtension>
        </extensions>
      </trkpt>
      <trkpt lat="42.56533448584377765655517578125" lon="20.05000348202884197235107421875">
        <ele>2161.199951171875</ele>
        <time>2026-06-15T11:28:46.000Z</time>
        <extensions>
          <ns3:TrackPointExtension>
            <ns3:atemp>18.0</ns3:atemp>
          </ns3:TrackPointExtension>
        </extensions>
      </trkpt>
      <trkpt lat="42.56533448584377765655517578125" lon="20.05000348202884197235107421875">
        <ele>2161.199951171875</ele>
        <time>2026-06-15T11:28:47.000Z</time>
        <extensions>
          <ns3:TrackPointExtension>
            <ns3:atemp>18.0</ns3:atemp>
          </ns3:TrackPointExtension>
        </extensions>
      </trkpt>
      <trkpt lat="42.56533448584377765655517578125" lon="20.05000348202884197235107421875">
        <ele>2161.199951171875</ele>
        <time>2026-06-15T11:28:48.000Z</time>
        <extensions>
          <ns3:TrackPointExtension>
            <ns3:atemp>18.0</ns3:atemp>
          </ns3:TrackPointExtension>
        </extensions>
      </trkpt>
      <trkpt lat="42.56533448584377765655517578125" lon="20.05000348202884197235107421875">
        <ele>2161.199951171875</ele>
        <time>2026-06-15T11:28:49.000Z</time>
        <extensions>
          <ns3:TrackPointExtension>
            <ns3:atemp>18.0</ns3:atemp>
          </ns3:TrackPointExtension>
        </extensions>
      </trkpt>
      <trkpt lat="42.56533448584377765655517578125" lon="20.05000348202884197235107421875">
        <ele>2161.199951171875</ele>
        <time>2026-06-15T11:28:50.000Z</time>
        <extensions>
          <ns3:TrackPointExtension>
            <ns3:atemp>18.0</ns3:atemp>
          </ns3:TrackPointExtension>
        </extensions>
      </trkpt>
      <trkpt lat="42.56533448584377765655517578125" lon="20.05000348202884197235107421875">
        <ele>2161.199951171875</ele>
        <time>2026-06-15T11:28:51.000Z</time>
        <extensions>
          <ns3:TrackPointExtension>
            <ns3:atemp>18.0</ns3:atemp>
          </ns3:TrackPointExtension>
        </extensions>
      </trkpt>
      <trkpt lat="42.56533448584377765655517578125" lon="20.05000348202884197235107421875">
        <ele>2161.199951171875</ele>
        <time>2026-06-15T11:28:52.000Z</time>
        <extensions>
          <ns3:TrackPointExtension>
            <ns3:atemp>18.0</ns3:atemp>
          </ns3:TrackPointExtension>
        </extensions>
      </trkpt>
      <trkpt lat="42.56533448584377765655517578125" lon="20.05000348202884197235107421875">
        <ele>2161.199951171875</ele>
        <time>2026-06-15T11:28:53.000Z</time>
        <extensions>
          <ns3:TrackPointExtension>
            <ns3:atemp>18.0</ns3:atemp>
          </ns3:TrackPointExtension>
        </extensions>
      </trkpt>
      <trkpt lat="42.56533448584377765655517578125" lon="20.05000348202884197235107421875">
        <ele>2161.39990234375</ele>
        <time>2026-06-15T11:28:54.000Z</time>
        <extensions>
          <ns3:TrackPointExtension>
            <ns3:atemp>18.0</ns3:atemp>
          </ns3:TrackPointExtension>
        </extensions>
      </trkpt>
      <trkpt lat="42.56533448584377765655517578125" lon="20.05000348202884197235107421875">
        <ele>2161.39990234375</ele>
        <time>2026-06-15T11:28:55.000Z</time>
        <extensions>
          <ns3:TrackPointExtension>
            <ns3:atemp>18.0</ns3:atemp>
          </ns3:TrackPointExtension>
        </extensions>
      </trkpt>
      <trkpt lat="42.56533448584377765655517578125" lon="20.05000348202884197235107421875">
        <ele>2161.60009765625</ele>
        <time>2026-06-15T11:28:56.000Z</time>
        <extensions>
          <ns3:TrackPointExtension>
            <ns3:atemp>18.0</ns3:atemp>
          </ns3:TrackPointExtension>
        </extensions>
      </trkpt>
      <trkpt lat="42.56533448584377765655517578125" lon="20.05000348202884197235107421875">
        <ele>2161.60009765625</ele>
        <time>2026-06-15T11:28:57.000Z</time>
        <extensions>
          <ns3:TrackPointExtension>
            <ns3:atemp>18.0</ns3:atemp>
          </ns3:TrackPointExtension>
        </extensions>
      </trkpt>
      <trkpt lat="42.56533448584377765655517578125" lon="20.05000348202884197235107421875">
        <ele>2161.60009765625</ele>
        <time>2026-06-15T11:28:58.000Z</time>
        <extensions>
          <ns3:TrackPointExtension>
            <ns3:atemp>18.0</ns3:atemp>
          </ns3:TrackPointExtension>
        </extensions>
      </trkpt>
      <trkpt lat="42.56533448584377765655517578125" lon="20.05000348202884197235107421875">
        <ele>2161.60009765625</ele>
        <time>2026-06-15T11:28:59.000Z</time>
        <extensions>
          <ns3:TrackPointExtension>
            <ns3:atemp>18.0</ns3:atemp>
          </ns3:TrackPointExtension>
        </extensions>
      </trkpt>
      <trkpt lat="42.56533448584377765655517578125" lon="20.05000348202884197235107421875">
        <ele>2161.60009765625</ele>
        <time>2026-06-15T11:29:00.000Z</time>
        <extensions>
          <ns3:TrackPointExtension>
            <ns3:atemp>18.0</ns3:atemp>
          </ns3:TrackPointExtension>
        </extensions>
      </trkpt>
      <trkpt lat="42.56533448584377765655517578125" lon="20.05000348202884197235107421875">
        <ele>2161.60009765625</ele>
        <time>2026-06-15T11:29:01.000Z</time>
        <extensions>
          <ns3:TrackPointExtension>
            <ns3:atemp>18.0</ns3:atemp>
          </ns3:TrackPointExtension>
        </extensions>
      </trkpt>
      <trkpt lat="42.56533448584377765655517578125" lon="20.05000348202884197235107421875">
        <ele>2161.60009765625</ele>
        <time>2026-06-15T11:29:02.000Z</time>
        <extensions>
          <ns3:TrackPointExtension>
            <ns3:atemp>18.0</ns3:atemp>
          </ns3:TrackPointExtension>
        </extensions>
      </trkpt>
      <trkpt lat="42.56533448584377765655517578125" lon="20.05000348202884197235107421875">
        <ele>2161.60009765625</ele>
        <time>2026-06-15T11:29:03.000Z</time>
        <extensions>
          <ns3:TrackPointExtension>
            <ns3:atemp>18.0</ns3:atemp>
          </ns3:TrackPointExtension>
        </extensions>
      </trkpt>
      <trkpt lat="42.56533448584377765655517578125" lon="20.05000348202884197235107421875">
        <ele>2161.60009765625</ele>
        <time>2026-06-15T11:29:04.000Z</time>
        <extensions>
          <ns3:TrackPointExtension>
            <ns3:atemp>18.0</ns3:atemp>
          </ns3:TrackPointExtension>
        </extensions>
      </trkpt>
      <trkpt lat="42.56533448584377765655517578125" lon="20.05000348202884197235107421875">
        <ele>2161.60009765625</ele>
        <time>2026-06-15T11:29:05.000Z</time>
        <extensions>
          <ns3:TrackPointExtension>
            <ns3:atemp>18.0</ns3:atemp>
          </ns3:TrackPointExtension>
        </extensions>
      </trkpt>
      <trkpt lat="42.56533448584377765655517578125" lon="20.05000348202884197235107421875">
        <ele>2161.60009765625</ele>
        <time>2026-06-15T11:29:06.000Z</time>
        <extensions>
          <ns3:TrackPointExtension>
            <ns3:atemp>18.0</ns3:atemp>
          </ns3:TrackPointExtension>
        </extensions>
      </trkpt>
      <trkpt lat="42.56533448584377765655517578125" lon="20.05000348202884197235107421875">
        <ele>2161.800048828125</ele>
        <time>2026-06-15T11:29:07.000Z</time>
        <extensions>
          <ns3:TrackPointExtension>
            <ns3:atemp>18.0</ns3:atemp>
          </ns3:TrackPointExtension>
        </extensions>
      </trkpt>
      <trkpt lat="42.56533448584377765655517578125" lon="20.05000348202884197235107421875">
        <ele>2161.800048828125</ele>
        <time>2026-06-15T11:29:08.000Z</time>
        <extensions>
          <ns3:TrackPointExtension>
            <ns3:atemp>18.0</ns3:atemp>
          </ns3:TrackPointExtension>
        </extensions>
      </trkpt>
      <trkpt lat="42.56533448584377765655517578125" lon="20.05000348202884197235107421875">
        <ele>2161.800048828125</ele>
        <time>2026-06-15T11:29:09.000Z</time>
        <extensions>
          <ns3:TrackPointExtension>
            <ns3:atemp>18.0</ns3:atemp>
          </ns3:TrackPointExtension>
        </extensions>
      </trkpt>
      <trkpt lat="42.56533448584377765655517578125" lon="20.05000348202884197235107421875">
        <ele>2161.800048828125</ele>
        <time>2026-06-15T11:29:10.000Z</time>
        <extensions>
          <ns3:TrackPointExtension>
            <ns3:atemp>18.0</ns3:atemp>
          </ns3:TrackPointExtension>
        </extensions>
      </trkpt>
      <trkpt lat="42.56533448584377765655517578125" lon="20.05000348202884197235107421875">
        <ele>2161.800048828125</ele>
        <time>2026-06-15T11:29:11.000Z</time>
        <extensions>
          <ns3:TrackPointExtension>
            <ns3:atemp>18.0</ns3:atemp>
          </ns3:TrackPointExtension>
        </extensions>
      </trkpt>
      <trkpt lat="42.56533448584377765655517578125" lon="20.05000348202884197235107421875">
        <ele>2161.60009765625</ele>
        <time>2026-06-15T11:29:12.000Z</time>
        <extensions>
          <ns3:TrackPointExtension>
            <ns3:atemp>18.0</ns3:atemp>
          </ns3:TrackPointExtension>
        </extensions>
      </trkpt>
      <trkpt lat="42.56533448584377765655517578125" lon="20.05000348202884197235107421875">
        <ele>2161.60009765625</ele>
        <time>2026-06-15T11:29:13.000Z</time>
        <extensions>
          <ns3:TrackPointExtension>
            <ns3:atemp>18.0</ns3:atemp>
          </ns3:TrackPointExtension>
        </extensions>
      </trkpt>
      <trkpt lat="42.56533448584377765655517578125" lon="20.05000348202884197235107421875">
        <ele>2161.60009765625</ele>
        <time>2026-06-15T11:29:14.000Z</time>
        <extensions>
          <ns3:TrackPointExtension>
            <ns3:atemp>18.0</ns3:atemp>
          </ns3:TrackPointExtension>
        </extensions>
      </trkpt>
      <trkpt lat="42.56533448584377765655517578125" lon="20.05000348202884197235107421875">
        <ele>2161.39990234375</ele>
        <time>2026-06-15T11:29:15.000Z</time>
        <extensions>
          <ns3:TrackPointExtension>
            <ns3:atemp>18.0</ns3:atemp>
          </ns3:TrackPointExtension>
        </extensions>
      </trkpt>
      <trkpt lat="42.56533448584377765655517578125" lon="20.05000348202884197235107421875">
        <ele>2161.60009765625</ele>
        <time>2026-06-15T11:29:16.000Z</time>
        <extensions>
          <ns3:TrackPointExtension>
            <ns3:atemp>18.0</ns3:atemp>
          </ns3:TrackPointExtension>
        </extensions>
      </trkpt>
      <trkpt lat="42.56533448584377765655517578125" lon="20.05000348202884197235107421875">
        <ele>2161.60009765625</ele>
        <time>2026-06-15T11:29:17.000Z</time>
        <extensions>
          <ns3:TrackPointExtension>
            <ns3:atemp>18.0</ns3:atemp>
          </ns3:TrackPointExtension>
        </extensions>
      </trkpt>
      <trkpt lat="42.56533448584377765655517578125" lon="20.05000348202884197235107421875">
        <ele>2161.60009765625</ele>
        <time>2026-06-15T11:29:18.000Z</time>
        <extensions>
          <ns3:TrackPointExtension>
            <ns3:atemp>18.0</ns3:atemp>
          </ns3:TrackPointExtension>
        </extensions>
      </trkpt>
      <trkpt lat="42.56533448584377765655517578125" lon="20.05000348202884197235107421875">
        <ele>2161.800048828125</ele>
        <time>2026-06-15T11:29:19.000Z</time>
        <extensions>
          <ns3:TrackPointExtension>
            <ns3:atemp>18.0</ns3:atemp>
          </ns3:TrackPointExtension>
        </extensions>
      </trkpt>
      <trkpt lat="42.56533448584377765655517578125" lon="20.05000348202884197235107421875">
        <ele>2161.800048828125</ele>
        <time>2026-06-15T11:29:20.000Z</time>
        <extensions>
          <ns3:TrackPointExtension>
            <ns3:atemp>18.0</ns3:atemp>
          </ns3:TrackPointExtension>
        </extensions>
      </trkpt>
      <trkpt lat="42.56533448584377765655517578125" lon="20.05000348202884197235107421875">
        <ele>2161.800048828125</ele>
        <time>2026-06-15T11:29:21.000Z</time>
        <extensions>
          <ns3:TrackPointExtension>
            <ns3:atemp>18.0</ns3:atemp>
          </ns3:TrackPointExtension>
        </extensions>
      </trkpt>
      <trkpt lat="42.56533448584377765655517578125" lon="20.05000348202884197235107421875">
        <ele>2162</ele>
        <time>2026-06-15T11:29:22.000Z</time>
        <extensions>
          <ns3:TrackPointExtension>
            <ns3:atemp>18.0</ns3:atemp>
          </ns3:TrackPointExtension>
        </extensions>
      </trkpt>
      <trkpt lat="42.56533448584377765655517578125" lon="20.05000348202884197235107421875">
        <ele>2162</ele>
        <time>2026-06-15T11:29:23.000Z</time>
        <extensions>
          <ns3:TrackPointExtension>
            <ns3:atemp>18.0</ns3:atemp>
          </ns3:TrackPointExtension>
        </extensions>
      </trkpt>
      <trkpt lat="42.56533448584377765655517578125" lon="20.05000348202884197235107421875">
        <ele>2162</ele>
        <time>2026-06-15T11:29:24.000Z</time>
        <extensions>
          <ns3:TrackPointExtension>
            <ns3:atemp>18.0</ns3:atemp>
          </ns3:TrackPointExtension>
        </extensions>
      </trkpt>
      <trkpt lat="42.56533448584377765655517578125" lon="20.05000348202884197235107421875">
        <ele>2162.199951171875</ele>
        <time>2026-06-15T11:29:25.000Z</time>
        <extensions>
          <ns3:TrackPointExtension>
            <ns3:atemp>18.0</ns3:atemp>
          </ns3:TrackPointExtension>
        </extensions>
      </trkpt>
      <trkpt lat="42.56533448584377765655517578125" lon="20.05000348202884197235107421875">
        <ele>2162.199951171875</ele>
        <time>2026-06-15T11:29:26.000Z</time>
        <extensions>
          <ns3:TrackPointExtension>
            <ns3:atemp>18.0</ns3:atemp>
          </ns3:TrackPointExtension>
        </extensions>
      </trkpt>
      <trkpt lat="42.56533448584377765655517578125" lon="20.05000348202884197235107421875">
        <ele>2162.199951171875</ele>
        <time>2026-06-15T11:29:27.000Z</time>
        <extensions>
          <ns3:TrackPointExtension>
            <ns3:atemp>18.0</ns3:atemp>
          </ns3:TrackPointExtension>
        </extensions>
      </trkpt>
      <trkpt lat="42.56533448584377765655517578125" lon="20.05000348202884197235107421875">
        <ele>2162.199951171875</ele>
        <time>2026-06-15T11:29:28.000Z</time>
        <extensions>
          <ns3:TrackPointExtension>
            <ns3:atemp>18.0</ns3:atemp>
          </ns3:TrackPointExtension>
        </extensions>
      </trkpt>
      <trkpt lat="42.56533448584377765655517578125" lon="20.05000348202884197235107421875">
        <ele>2162.199951171875</ele>
        <time>2026-06-15T11:29:29.000Z</time>
        <extensions>
          <ns3:TrackPointExtension>
            <ns3:atemp>18.0</ns3:atemp>
          </ns3:TrackPointExtension>
        </extensions>
      </trkpt>
      <trkpt lat="42.56533448584377765655517578125" lon="20.05000348202884197235107421875">
        <ele>2162.199951171875</ele>
        <time>2026-06-15T11:29:30.000Z</time>
        <extensions>
          <ns3:TrackPointExtension>
            <ns3:atemp>18.0</ns3:atemp>
          </ns3:TrackPointExtension>
        </extensions>
      </trkpt>
      <trkpt lat="42.56533448584377765655517578125" lon="20.05000348202884197235107421875">
        <ele>2162.199951171875</ele>
        <time>2026-06-15T11:29:31.000Z</time>
        <extensions>
          <ns3:TrackPointExtension>
            <ns3:atemp>18.0</ns3:atemp>
          </ns3:TrackPointExtension>
        </extensions>
      </trkpt>
      <trkpt lat="42.56533448584377765655517578125" lon="20.05000348202884197235107421875">
        <ele>2162.199951171875</ele>
        <time>2026-06-15T11:29:32.000Z</time>
        <extensions>
          <ns3:TrackPointExtension>
            <ns3:atemp>18.0</ns3:atemp>
          </ns3:TrackPointExtension>
        </extensions>
      </trkpt>
      <trkpt lat="42.56533448584377765655517578125" lon="20.05000348202884197235107421875">
        <ele>2162.199951171875</ele>
        <time>2026-06-15T11:29:33.000Z</time>
        <extensions>
          <ns3:TrackPointExtension>
            <ns3:atemp>18.0</ns3:atemp>
          </ns3:TrackPointExtension>
        </extensions>
      </trkpt>
      <trkpt lat="42.56533448584377765655517578125" lon="20.05000348202884197235107421875">
        <ele>2162.199951171875</ele>
        <time>2026-06-15T11:29:34.000Z</time>
        <extensions>
          <ns3:TrackPointExtension>
            <ns3:atemp>18.0</ns3:atemp>
          </ns3:TrackPointExtension>
        </extensions>
      </trkpt>
      <trkpt lat="42.56533448584377765655517578125" lon="20.05000348202884197235107421875">
        <ele>2162.199951171875</ele>
        <time>2026-06-15T11:29:35.000Z</time>
        <extensions>
          <ns3:TrackPointExtension>
            <ns3:atemp>18.0</ns3:atemp>
          </ns3:TrackPointExtension>
        </extensions>
      </trkpt>
      <trkpt lat="42.56533448584377765655517578125" lon="20.05000348202884197235107421875">
        <ele>2162.199951171875</ele>
        <time>2026-06-15T11:29:36.000Z</time>
        <extensions>
          <ns3:TrackPointExtension>
            <ns3:atemp>18.0</ns3:atemp>
          </ns3:TrackPointExtension>
        </extensions>
      </trkpt>
      <trkpt lat="42.56533448584377765655517578125" lon="20.05000348202884197235107421875">
        <ele>2162.199951171875</ele>
        <time>2026-06-15T11:29:37.000Z</time>
        <extensions>
          <ns3:TrackPointExtension>
            <ns3:atemp>18.0</ns3:atemp>
          </ns3:TrackPointExtension>
        </extensions>
      </trkpt>
      <trkpt lat="42.56533448584377765655517578125" lon="20.05000348202884197235107421875">
        <ele>2162.199951171875</ele>
        <time>2026-06-15T11:29:38.000Z</time>
        <extensions>
          <ns3:TrackPointExtension>
            <ns3:atemp>18.0</ns3:atemp>
          </ns3:TrackPointExtension>
        </extensions>
      </trkpt>
      <trkpt lat="42.56533448584377765655517578125" lon="20.05000348202884197235107421875">
        <ele>2162.199951171875</ele>
        <time>2026-06-15T11:29:39.000Z</time>
        <extensions>
          <ns3:TrackPointExtension>
            <ns3:atemp>18.0</ns3:atemp>
          </ns3:TrackPointExtension>
        </extensions>
      </trkpt>
      <trkpt lat="42.56533448584377765655517578125" lon="20.05000348202884197235107421875">
        <ele>2162.199951171875</ele>
        <time>2026-06-15T11:29:40.000Z</time>
        <extensions>
          <ns3:TrackPointExtension>
            <ns3:atemp>18.0</ns3:atemp>
          </ns3:TrackPointExtension>
        </extensions>
      </trkpt>
      <trkpt lat="42.56533448584377765655517578125" lon="20.05000348202884197235107421875">
        <ele>2162.199951171875</ele>
        <time>2026-06-15T11:29:41.000Z</time>
        <extensions>
          <ns3:TrackPointExtension>
            <ns3:atemp>18.0</ns3:atemp>
          </ns3:TrackPointExtension>
        </extensions>
      </trkpt>
      <trkpt lat="42.56533448584377765655517578125" lon="20.05000348202884197235107421875">
        <ele>2162.199951171875</ele>
        <time>2026-06-15T11:29:42.000Z</time>
        <extensions>
          <ns3:TrackPointExtension>
            <ns3:atemp>18.0</ns3:atemp>
          </ns3:TrackPointExtension>
        </extensions>
      </trkpt>
      <trkpt lat="42.56533448584377765655517578125" lon="20.05000348202884197235107421875">
        <ele>2162.199951171875</ele>
        <time>2026-06-15T11:29:43.000Z</time>
        <extensions>
          <ns3:TrackPointExtension>
            <ns3:atemp>18.0</ns3:atemp>
          </ns3:TrackPointExtension>
        </extensions>
      </trkpt>
      <trkpt lat="42.56533448584377765655517578125" lon="20.05000348202884197235107421875">
        <ele>2162.199951171875</ele>
        <time>2026-06-15T11:29:44.000Z</time>
        <extensions>
          <ns3:TrackPointExtension>
            <ns3:atemp>18.0</ns3:atemp>
          </ns3:TrackPointExtension>
        </extensions>
      </trkpt>
      <trkpt lat="42.56533448584377765655517578125" lon="20.05000348202884197235107421875">
        <ele>2162.199951171875</ele>
        <time>2026-06-15T11:29:45.000Z</time>
        <extensions>
          <ns3:TrackPointExtension>
            <ns3:atemp>18.0</ns3:atemp>
          </ns3:TrackPointExtension>
        </extensions>
      </trkpt>
      <trkpt lat="42.56533448584377765655517578125" lon="20.05000348202884197235107421875">
        <ele>2162.199951171875</ele>
        <time>2026-06-15T11:29:46.000Z</time>
        <extensions>
          <ns3:TrackPointExtension>
            <ns3:atemp>18.0</ns3:atemp>
          </ns3:TrackPointExtension>
        </extensions>
      </trkpt>
      <trkpt lat="42.56533448584377765655517578125" lon="20.05000348202884197235107421875">
        <ele>2162.199951171875</ele>
        <time>2026-06-15T11:29:47.000Z</time>
        <extensions>
          <ns3:TrackPointExtension>
            <ns3:atemp>18.0</ns3:atemp>
          </ns3:TrackPointExtension>
        </extensions>
      </trkpt>
      <trkpt lat="42.56533448584377765655517578125" lon="20.05000348202884197235107421875">
        <ele>2162.199951171875</ele>
        <time>2026-06-15T11:29:48.000Z</time>
        <extensions>
          <ns3:TrackPointExtension>
            <ns3:atemp>18.0</ns3:atemp>
          </ns3:TrackPointExtension>
        </extensions>
      </trkpt>
      <trkpt lat="42.56533448584377765655517578125" lon="20.05000348202884197235107421875">
        <ele>2162.199951171875</ele>
        <time>2026-06-15T11:29:49.000Z</time>
        <extensions>
          <ns3:TrackPointExtension>
            <ns3:atemp>18.0</ns3:atemp>
          </ns3:TrackPointExtension>
        </extensions>
      </trkpt>
      <trkpt lat="42.56533448584377765655517578125" lon="20.05000348202884197235107421875">
        <ele>2162.199951171875</ele>
        <time>2026-06-15T11:29:50.000Z</time>
        <extensions>
          <ns3:TrackPointExtension>
            <ns3:atemp>18.0</ns3:atemp>
          </ns3:TrackPointExtension>
        </extensions>
      </trkpt>
      <trkpt lat="42.56533448584377765655517578125" lon="20.05000348202884197235107421875">
        <ele>2162.199951171875</ele>
        <time>2026-06-15T11:29:51.000Z</time>
        <extensions>
          <ns3:TrackPointExtension>
            <ns3:atemp>18.0</ns3:atemp>
          </ns3:TrackPointExtension>
        </extensions>
      </trkpt>
      <trkpt lat="42.56533448584377765655517578125" lon="20.05000348202884197235107421875">
        <ele>2162.199951171875</ele>
        <time>2026-06-15T11:29:52.000Z</time>
        <extensions>
          <ns3:TrackPointExtension>
            <ns3:atemp>18.0</ns3:atemp>
          </ns3:TrackPointExtension>
        </extensions>
      </trkpt>
      <trkpt lat="42.56533448584377765655517578125" lon="20.05000348202884197235107421875">
        <ele>2162.199951171875</ele>
        <time>2026-06-15T11:29:53.000Z</time>
        <extensions>
          <ns3:TrackPointExtension>
            <ns3:atemp>18.0</ns3:atemp>
          </ns3:TrackPointExtension>
        </extensions>
      </trkpt>
      <trkpt lat="42.56533448584377765655517578125" lon="20.05000348202884197235107421875">
        <ele>2162.199951171875</ele>
        <time>2026-06-15T11:29:54.000Z</time>
        <extensions>
          <ns3:TrackPointExtension>
            <ns3:atemp>18.0</ns3:atemp>
          </ns3:TrackPointExtension>
        </extensions>
      </trkpt>
      <trkpt lat="42.56533448584377765655517578125" lon="20.05000348202884197235107421875">
        <ele>2162</ele>
        <time>2026-06-15T11:29:55.000Z</time>
        <extensions>
          <ns3:TrackPointExtension>
            <ns3:atemp>18.0</ns3:atemp>
          </ns3:TrackPointExtension>
        </extensions>
      </trkpt>
      <trkpt lat="42.56533448584377765655517578125" lon="20.05000348202884197235107421875">
        <ele>2162</ele>
        <time>2026-06-15T11:29:56.000Z</time>
        <extensions>
          <ns3:TrackPointExtension>
            <ns3:atemp>18.0</ns3:atemp>
          </ns3:TrackPointExtension>
        </extensions>
      </trkpt>
      <trkpt lat="42.56533448584377765655517578125" lon="20.05000348202884197235107421875">
        <ele>2162</ele>
        <time>2026-06-15T11:29:57.000Z</time>
        <extensions>
          <ns3:TrackPointExtension>
            <ns3:atemp>18.0</ns3:atemp>
          </ns3:TrackPointExtension>
        </extensions>
      </trkpt>
      <trkpt lat="42.56533448584377765655517578125" lon="20.05000348202884197235107421875">
        <ele>2162</ele>
        <time>2026-06-15T11:29:58.000Z</time>
        <extensions>
          <ns3:TrackPointExtension>
            <ns3:atemp>18.0</ns3:atemp>
          </ns3:TrackPointExtension>
        </extensions>
      </trkpt>
      <trkpt lat="42.56533448584377765655517578125" lon="20.05000348202884197235107421875">
        <ele>2161.800048828125</ele>
        <time>2026-06-15T11:29:59.000Z</time>
        <extensions>
          <ns3:TrackPointExtension>
            <ns3:atemp>18.0</ns3:atemp>
          </ns3:TrackPointExtension>
        </extensions>
      </trkpt>
      <trkpt lat="42.56533448584377765655517578125" lon="20.05000348202884197235107421875">
        <ele>2162</ele>
        <time>2026-06-15T11:30:00.000Z</time>
        <extensions>
          <ns3:TrackPointExtension>
            <ns3:atemp>18.0</ns3:atemp>
          </ns3:TrackPointExtension>
        </extensions>
      </trkpt>
      <trkpt lat="42.56533448584377765655517578125" lon="20.05000348202884197235107421875">
        <ele>2162</ele>
        <time>2026-06-15T11:30:01.000Z</time>
        <extensions>
          <ns3:TrackPointExtension>
            <ns3:atemp>18.0</ns3:atemp>
          </ns3:TrackPointExtension>
        </extensions>
      </trkpt>
      <trkpt lat="42.56533448584377765655517578125" lon="20.05000348202884197235107421875">
        <ele>2162</ele>
        <time>2026-06-15T11:30:02.000Z</time>
        <extensions>
          <ns3:TrackPointExtension>
            <ns3:atemp>18.0</ns3:atemp>
          </ns3:TrackPointExtension>
        </extensions>
      </trkpt>
      <trkpt lat="42.56533448584377765655517578125" lon="20.05000348202884197235107421875">
        <ele>2162</ele>
        <time>2026-06-15T11:30:03.000Z</time>
        <extensions>
          <ns3:TrackPointExtension>
            <ns3:atemp>18.0</ns3:atemp>
          </ns3:TrackPointExtension>
        </extensions>
      </trkpt>
      <trkpt lat="42.56533448584377765655517578125" lon="20.05000348202884197235107421875">
        <ele>2162</ele>
        <time>2026-06-15T11:30:04.000Z</time>
        <extensions>
          <ns3:TrackPointExtension>
            <ns3:atemp>18.0</ns3:atemp>
          </ns3:TrackPointExtension>
        </extensions>
      </trkpt>
      <trkpt lat="42.56533448584377765655517578125" lon="20.05000348202884197235107421875">
        <ele>2162</ele>
        <time>2026-06-15T11:30:05.000Z</time>
        <extensions>
          <ns3:TrackPointExtension>
            <ns3:atemp>18.0</ns3:atemp>
          </ns3:TrackPointExtension>
        </extensions>
      </trkpt>
      <trkpt lat="42.56533448584377765655517578125" lon="20.05000348202884197235107421875">
        <ele>2162</ele>
        <time>2026-06-15T11:30:06.000Z</time>
        <extensions>
          <ns3:TrackPointExtension>
            <ns3:atemp>18.0</ns3:atemp>
          </ns3:TrackPointExtension>
        </extensions>
      </trkpt>
      <trkpt lat="42.56533448584377765655517578125" lon="20.05000348202884197235107421875">
        <ele>2162</ele>
        <time>2026-06-15T11:30:07.000Z</time>
        <extensions>
          <ns3:TrackPointExtension>
            <ns3:atemp>18.0</ns3:atemp>
          </ns3:TrackPointExtension>
        </extensions>
      </trkpt>
      <trkpt lat="42.56533448584377765655517578125" lon="20.05000348202884197235107421875">
        <ele>2162</ele>
        <time>2026-06-15T11:30:08.000Z</time>
        <extensions>
          <ns3:TrackPointExtension>
            <ns3:atemp>18.0</ns3:atemp>
          </ns3:TrackPointExtension>
        </extensions>
      </trkpt>
      <trkpt lat="42.56533448584377765655517578125" lon="20.05000348202884197235107421875">
        <ele>2162</ele>
        <time>2026-06-15T11:30:09.000Z</time>
        <extensions>
          <ns3:TrackPointExtension>
            <ns3:atemp>18.0</ns3:atemp>
          </ns3:TrackPointExtension>
        </extensions>
      </trkpt>
      <trkpt lat="42.56533448584377765655517578125" lon="20.05000348202884197235107421875">
        <ele>2161.800048828125</ele>
        <time>2026-06-15T11:30:10.000Z</time>
        <extensions>
          <ns3:TrackPointExtension>
            <ns3:atemp>18.0</ns3:atemp>
          </ns3:TrackPointExtension>
        </extensions>
      </trkpt>
      <trkpt lat="42.56533448584377765655517578125" lon="20.05000348202884197235107421875">
        <ele>2161.800048828125</ele>
        <time>2026-06-15T11:30:11.000Z</time>
        <extensions>
          <ns3:TrackPointExtension>
            <ns3:atemp>18.0</ns3:atemp>
          </ns3:TrackPointExtension>
        </extensions>
      </trkpt>
      <trkpt lat="42.56533448584377765655517578125" lon="20.05000348202884197235107421875">
        <ele>2161.800048828125</ele>
        <time>2026-06-15T11:30:12.000Z</time>
        <extensions>
          <ns3:TrackPointExtension>
            <ns3:atemp>18.0</ns3:atemp>
          </ns3:TrackPointExtension>
        </extensions>
      </trkpt>
      <trkpt lat="42.56533448584377765655517578125" lon="20.05000348202884197235107421875">
        <ele>2161.800048828125</ele>
        <time>2026-06-15T11:30:13.000Z</time>
        <extensions>
          <ns3:TrackPointExtension>
            <ns3:atemp>18.0</ns3:atemp>
          </ns3:TrackPointExtension>
        </extensions>
      </trkpt>
      <trkpt lat="42.56533448584377765655517578125" lon="20.05000348202884197235107421875">
        <ele>2161.60009765625</ele>
        <time>2026-06-15T11:30:14.000Z</time>
        <extensions>
          <ns3:TrackPointExtension>
            <ns3:atemp>18.0</ns3:atemp>
          </ns3:TrackPointExtension>
        </extensions>
      </trkpt>
      <trkpt lat="42.56533448584377765655517578125" lon="20.05000348202884197235107421875">
        <ele>2161.60009765625</ele>
        <time>2026-06-15T11:30:15.000Z</time>
        <extensions>
          <ns3:TrackPointExtension>
            <ns3:atemp>18.0</ns3:atemp>
          </ns3:TrackPointExtension>
        </extensions>
      </trkpt>
      <trkpt lat="42.56533448584377765655517578125" lon="20.05000348202884197235107421875">
        <ele>2161.60009765625</ele>
        <time>2026-06-15T11:30:16.000Z</time>
        <extensions>
          <ns3:TrackPointExtension>
            <ns3:atemp>18.0</ns3:atemp>
          </ns3:TrackPointExtension>
        </extensions>
      </trkpt>
      <trkpt lat="42.56533448584377765655517578125" lon="20.05000348202884197235107421875">
        <ele>2161.60009765625</ele>
        <time>2026-06-15T11:30:17.000Z</time>
        <extensions>
          <ns3:TrackPointExtension>
            <ns3:atemp>18.0</ns3:atemp>
          </ns3:TrackPointExtension>
        </extensions>
      </trkpt>
      <trkpt lat="42.56533448584377765655517578125" lon="20.05000348202884197235107421875">
        <ele>2161.60009765625</ele>
        <time>2026-06-15T11:30:18.000Z</time>
        <extensions>
          <ns3:TrackPointExtension>
            <ns3:atemp>18.0</ns3:atemp>
          </ns3:TrackPointExtension>
        </extensions>
      </trkpt>
      <trkpt lat="42.56533448584377765655517578125" lon="20.05000348202884197235107421875">
        <ele>2161.800048828125</ele>
        <time>2026-06-15T11:30:19.000Z</time>
        <extensions>
          <ns3:TrackPointExtension>
            <ns3:atemp>18.0</ns3:atemp>
          </ns3:TrackPointExtension>
        </extensions>
      </trkpt>
      <trkpt lat="42.56533448584377765655517578125" lon="20.05000348202884197235107421875">
        <ele>2161.800048828125</ele>
        <time>2026-06-15T11:30:20.000Z</time>
        <extensions>
          <ns3:TrackPointExtension>
            <ns3:atemp>18.0</ns3:atemp>
          </ns3:TrackPointExtension>
        </extensions>
      </trkpt>
      <trkpt lat="42.56533448584377765655517578125" lon="20.05000348202884197235107421875">
        <ele>2161.800048828125</ele>
        <time>2026-06-15T11:30:21.000Z</time>
        <extensions>
          <ns3:TrackPointExtension>
            <ns3:atemp>18.0</ns3:atemp>
          </ns3:TrackPointExtension>
        </extensions>
      </trkpt>
      <trkpt lat="42.56533448584377765655517578125" lon="20.05000348202884197235107421875">
        <ele>2161.800048828125</ele>
        <time>2026-06-15T11:30:22.000Z</time>
        <extensions>
          <ns3:TrackPointExtension>
            <ns3:atemp>18.0</ns3:atemp>
          </ns3:TrackPointExtension>
        </extensions>
      </trkpt>
      <trkpt lat="42.56533448584377765655517578125" lon="20.05000348202884197235107421875">
        <ele>2161.800048828125</ele>
        <time>2026-06-15T11:30:23.000Z</time>
        <extensions>
          <ns3:TrackPointExtension>
            <ns3:atemp>18.0</ns3:atemp>
          </ns3:TrackPointExtension>
        </extensions>
      </trkpt>
      <trkpt lat="42.56533448584377765655517578125" lon="20.05000348202884197235107421875">
        <ele>2161.800048828125</ele>
        <time>2026-06-15T11:30:24.000Z</time>
        <extensions>
          <ns3:TrackPointExtension>
            <ns3:atemp>18.0</ns3:atemp>
          </ns3:TrackPointExtension>
        </extensions>
      </trkpt>
      <trkpt lat="42.56533448584377765655517578125" lon="20.05000348202884197235107421875">
        <ele>2161.800048828125</ele>
        <time>2026-06-15T11:30:25.000Z</time>
        <extensions>
          <ns3:TrackPointExtension>
            <ns3:atemp>18.0</ns3:atemp>
          </ns3:TrackPointExtension>
        </extensions>
      </trkpt>
      <trkpt lat="42.56533448584377765655517578125" lon="20.05000348202884197235107421875">
        <ele>2161.800048828125</ele>
        <time>2026-06-15T11:30:26.000Z</time>
        <extensions>
          <ns3:TrackPointExtension>
            <ns3:atemp>18.0</ns3:atemp>
          </ns3:TrackPointExtension>
        </extensions>
      </trkpt>
      <trkpt lat="42.56533448584377765655517578125" lon="20.05000348202884197235107421875">
        <ele>2161.800048828125</ele>
        <time>2026-06-15T11:30:27.000Z</time>
        <extensions>
          <ns3:TrackPointExtension>
            <ns3:atemp>18.0</ns3:atemp>
          </ns3:TrackPointExtension>
        </extensions>
      </trkpt>
      <trkpt lat="42.56533448584377765655517578125" lon="20.05000348202884197235107421875">
        <ele>2161.800048828125</ele>
        <time>2026-06-15T11:30:28.000Z</time>
        <extensions>
          <ns3:TrackPointExtension>
            <ns3:atemp>18.0</ns3:atemp>
          </ns3:TrackPointExtension>
        </extensions>
      </trkpt>
      <trkpt lat="42.56533448584377765655517578125" lon="20.05000348202884197235107421875">
        <ele>2161.800048828125</ele>
        <time>2026-06-15T11:30:29.000Z</time>
        <extensions>
          <ns3:TrackPointExtension>
            <ns3:atemp>18.0</ns3:atemp>
          </ns3:TrackPointExtension>
        </extensions>
      </trkpt>
      <trkpt lat="42.56533448584377765655517578125" lon="20.05000348202884197235107421875">
        <ele>2161.800048828125</ele>
        <time>2026-06-15T11:30:30.000Z</time>
        <extensions>
          <ns3:TrackPointExtension>
            <ns3:atemp>18.0</ns3:atemp>
          </ns3:TrackPointExtension>
        </extensions>
      </trkpt>
      <trkpt lat="42.56533448584377765655517578125" lon="20.05000348202884197235107421875">
        <ele>2161.800048828125</ele>
        <time>2026-06-15T11:30:31.000Z</time>
        <extensions>
          <ns3:TrackPointExtension>
            <ns3:atemp>18.0</ns3:atemp>
          </ns3:TrackPointExtension>
        </extensions>
      </trkpt>
      <trkpt lat="42.56533448584377765655517578125" lon="20.05000348202884197235107421875">
        <ele>2161.800048828125</ele>
        <time>2026-06-15T11:30:32.000Z</time>
        <extensions>
          <ns3:TrackPointExtension>
            <ns3:atemp>18.0</ns3:atemp>
          </ns3:TrackPointExtension>
        </extensions>
      </trkpt>
      <trkpt lat="42.56533448584377765655517578125" lon="20.05000348202884197235107421875">
        <ele>2161.800048828125</ele>
        <time>2026-06-15T11:30:33.000Z</time>
        <extensions>
          <ns3:TrackPointExtension>
            <ns3:atemp>18.0</ns3:atemp>
          </ns3:TrackPointExtension>
        </extensions>
      </trkpt>
      <trkpt lat="42.56533448584377765655517578125" lon="20.05000348202884197235107421875">
        <ele>2161.800048828125</ele>
        <time>2026-06-15T11:30:34.000Z</time>
        <extensions>
          <ns3:TrackPointExtension>
            <ns3:atemp>18.0</ns3:atemp>
          </ns3:TrackPointExtension>
        </extensions>
      </trkpt>
      <trkpt lat="42.56533448584377765655517578125" lon="20.05000348202884197235107421875">
        <ele>2161.800048828125</ele>
        <time>2026-06-15T11:30:35.000Z</time>
        <extensions>
          <ns3:TrackPointExtension>
            <ns3:atemp>18.0</ns3:atemp>
          </ns3:TrackPointExtension>
        </extensions>
      </trkpt>
      <trkpt lat="42.56533448584377765655517578125" lon="20.05000348202884197235107421875">
        <ele>2162</ele>
        <time>2026-06-15T11:30:36.000Z</time>
        <extensions>
          <ns3:TrackPointExtension>
            <ns3:atemp>18.0</ns3:atemp>
          </ns3:TrackPointExtension>
        </extensions>
      </trkpt>
      <trkpt lat="42.56533448584377765655517578125" lon="20.05000348202884197235107421875">
        <ele>2162</ele>
        <time>2026-06-15T11:30:37.000Z</time>
        <extensions>
          <ns3:TrackPointExtension>
            <ns3:atemp>18.0</ns3:atemp>
          </ns3:TrackPointExtension>
        </extensions>
      </trkpt>
      <trkpt lat="42.56533448584377765655517578125" lon="20.05000348202884197235107421875">
        <ele>2162</ele>
        <time>2026-06-15T11:30:38.000Z</time>
        <extensions>
          <ns3:TrackPointExtension>
            <ns3:atemp>18.0</ns3:atemp>
          </ns3:TrackPointExtension>
        </extensions>
      </trkpt>
      <trkpt lat="42.56533448584377765655517578125" lon="20.05000348202884197235107421875">
        <ele>2162</ele>
        <time>2026-06-15T11:30:39.000Z</time>
        <extensions>
          <ns3:TrackPointExtension>
            <ns3:atemp>18.0</ns3:atemp>
          </ns3:TrackPointExtension>
        </extensions>
      </trkpt>
      <trkpt lat="42.56533448584377765655517578125" lon="20.05000348202884197235107421875">
        <ele>2162.199951171875</ele>
        <time>2026-06-15T11:30:40.000Z</time>
        <extensions>
          <ns3:TrackPointExtension>
            <ns3:atemp>18.0</ns3:atemp>
          </ns3:TrackPointExtension>
        </extensions>
      </trkpt>
      <trkpt lat="42.56533448584377765655517578125" lon="20.05000348202884197235107421875">
        <ele>2162.199951171875</ele>
        <time>2026-06-15T11:30:41.000Z</time>
        <extensions>
          <ns3:TrackPointExtension>
            <ns3:atemp>18.0</ns3:atemp>
          </ns3:TrackPointExtension>
        </extensions>
      </trkpt>
      <trkpt lat="42.56533448584377765655517578125" lon="20.05000348202884197235107421875">
        <ele>2162.199951171875</ele>
        <time>2026-06-15T11:30:42.000Z</time>
        <extensions>
          <ns3:TrackPointExtension>
            <ns3:atemp>18.0</ns3:atemp>
          </ns3:TrackPointExtension>
        </extensions>
      </trkpt>
      <trkpt lat="42.56533448584377765655517578125" lon="20.05000348202884197235107421875">
        <ele>2162.199951171875</ele>
        <time>2026-06-15T11:30:43.000Z</time>
        <extensions>
          <ns3:TrackPointExtension>
            <ns3:atemp>18.0</ns3:atemp>
          </ns3:TrackPointExtension>
        </extensions>
      </trkpt>
      <trkpt lat="42.56533448584377765655517578125" lon="20.05000348202884197235107421875">
        <ele>2162.199951171875</ele>
        <time>2026-06-15T11:30:44.000Z</time>
        <extensions>
          <ns3:TrackPointExtension>
            <ns3:atemp>18.0</ns3:atemp>
          </ns3:TrackPointExtension>
        </extensions>
      </trkpt>
      <trkpt lat="42.56533448584377765655517578125" lon="20.05000348202884197235107421875">
        <ele>2162.199951171875</ele>
        <time>2026-06-15T11:30:45.000Z</time>
        <extensions>
          <ns3:TrackPointExtension>
            <ns3:atemp>18.0</ns3:atemp>
          </ns3:TrackPointExtension>
        </extensions>
      </trkpt>
      <trkpt lat="42.56533448584377765655517578125" lon="20.05000348202884197235107421875">
        <ele>2162.199951171875</ele>
        <time>2026-06-15T11:30:46.000Z</time>
        <extensions>
          <ns3:TrackPointExtension>
            <ns3:atemp>18.0</ns3:atemp>
          </ns3:TrackPointExtension>
        </extensions>
      </trkpt>
      <trkpt lat="42.56533448584377765655517578125" lon="20.05000348202884197235107421875">
        <ele>2162.199951171875</ele>
        <time>2026-06-15T11:30:47.000Z</time>
        <extensions>
          <ns3:TrackPointExtension>
            <ns3:atemp>18.0</ns3:atemp>
          </ns3:TrackPointExtension>
        </extensions>
      </trkpt>
      <trkpt lat="42.56533448584377765655517578125" lon="20.05000348202884197235107421875">
        <ele>2162.199951171875</ele>
        <time>2026-06-15T11:30:48.000Z</time>
        <extensions>
          <ns3:TrackPointExtension>
            <ns3:atemp>18.0</ns3:atemp>
          </ns3:TrackPointExtension>
        </extensions>
      </trkpt>
      <trkpt lat="42.56533448584377765655517578125" lon="20.05000348202884197235107421875">
        <ele>2162.199951171875</ele>
        <time>2026-06-15T11:30:49.000Z</time>
        <extensions>
          <ns3:TrackPointExtension>
            <ns3:atemp>18.0</ns3:atemp>
          </ns3:TrackPointExtension>
        </extensions>
      </trkpt>
      <trkpt lat="42.56533448584377765655517578125" lon="20.05000348202884197235107421875">
        <ele>2162.199951171875</ele>
        <time>2026-06-15T11:30:50.000Z</time>
        <extensions>
          <ns3:TrackPointExtension>
            <ns3:atemp>18.0</ns3:atemp>
          </ns3:TrackPointExtension>
        </extensions>
      </trkpt>
      <trkpt lat="42.56533448584377765655517578125" lon="20.05000348202884197235107421875">
        <ele>2162.199951171875</ele>
        <time>2026-06-15T11:30:51.000Z</time>
        <extensions>
          <ns3:TrackPointExtension>
            <ns3:atemp>18.0</ns3:atemp>
          </ns3:TrackPointExtension>
        </extensions>
      </trkpt>
      <trkpt lat="42.56533448584377765655517578125" lon="20.05000348202884197235107421875">
        <ele>2162.199951171875</ele>
        <time>2026-06-15T11:30:52.000Z</time>
        <extensions>
          <ns3:TrackPointExtension>
            <ns3:atemp>18.0</ns3:atemp>
          </ns3:TrackPointExtension>
        </extensions>
      </trkpt>
      <trkpt lat="42.56533448584377765655517578125" lon="20.05000348202884197235107421875">
        <ele>2162.199951171875</ele>
        <time>2026-06-15T11:30:53.000Z</time>
        <extensions>
          <ns3:TrackPointExtension>
            <ns3:atemp>18.0</ns3:atemp>
          </ns3:TrackPointExtension>
        </extensions>
      </trkpt>
      <trkpt lat="42.56533448584377765655517578125" lon="20.05000348202884197235107421875">
        <ele>2162.199951171875</ele>
        <time>2026-06-15T11:30:54.000Z</time>
        <extensions>
          <ns3:TrackPointExtension>
            <ns3:atemp>18.0</ns3:atemp>
          </ns3:TrackPointExtension>
        </extensions>
      </trkpt>
      <trkpt lat="42.56533448584377765655517578125" lon="20.05000348202884197235107421875">
        <ele>2162.199951171875</ele>
        <time>2026-06-15T11:30:55.000Z</time>
        <extensions>
          <ns3:TrackPointExtension>
            <ns3:atemp>18.0</ns3:atemp>
          </ns3:TrackPointExtension>
        </extensions>
      </trkpt>
      <trkpt lat="42.56533448584377765655517578125" lon="20.05000348202884197235107421875">
        <ele>2162.199951171875</ele>
        <time>2026-06-15T11:30:56.000Z</time>
        <extensions>
          <ns3:TrackPointExtension>
            <ns3:atemp>18.0</ns3:atemp>
          </ns3:TrackPointExtension>
        </extensions>
      </trkpt>
      <trkpt lat="42.56533448584377765655517578125" lon="20.05000348202884197235107421875">
        <ele>2162.199951171875</ele>
        <time>2026-06-15T11:30:57.000Z</time>
        <extensions>
          <ns3:TrackPointExtension>
            <ns3:atemp>18.0</ns3:atemp>
          </ns3:TrackPointExtension>
        </extensions>
      </trkpt>
      <trkpt lat="42.56533448584377765655517578125" lon="20.05000348202884197235107421875">
        <ele>2162.199951171875</ele>
        <time>2026-06-15T11:30:58.000Z</time>
        <extensions>
          <ns3:TrackPointExtension>
            <ns3:atemp>18.0</ns3:atemp>
          </ns3:TrackPointExtension>
        </extensions>
      </trkpt>
      <trkpt lat="42.56533448584377765655517578125" lon="20.05000348202884197235107421875">
        <ele>2162.199951171875</ele>
        <time>2026-06-15T11:30:59.000Z</time>
        <extensions>
          <ns3:TrackPointExtension>
            <ns3:atemp>18.0</ns3:atemp>
          </ns3:TrackPointExtension>
        </extensions>
      </trkpt>
      <trkpt lat="42.56533448584377765655517578125" lon="20.05000348202884197235107421875">
        <ele>2162.199951171875</ele>
        <time>2026-06-15T11:31:00.000Z</time>
        <extensions>
          <ns3:TrackPointExtension>
            <ns3:atemp>18.0</ns3:atemp>
          </ns3:TrackPointExtension>
        </extensions>
      </trkpt>
      <trkpt lat="42.56533448584377765655517578125" lon="20.05000348202884197235107421875">
        <ele>2162.199951171875</ele>
        <time>2026-06-15T11:31:01.000Z</time>
        <extensions>
          <ns3:TrackPointExtension>
            <ns3:atemp>18.0</ns3:atemp>
          </ns3:TrackPointExtension>
        </extensions>
      </trkpt>
      <trkpt lat="42.56533448584377765655517578125" lon="20.05000348202884197235107421875">
        <ele>2162.199951171875</ele>
        <time>2026-06-15T11:31:02.000Z</time>
        <extensions>
          <ns3:TrackPointExtension>
            <ns3:atemp>18.0</ns3:atemp>
          </ns3:TrackPointExtension>
        </extensions>
      </trkpt>
      <trkpt lat="42.56533448584377765655517578125" lon="20.05000348202884197235107421875">
        <ele>2162.199951171875</ele>
        <time>2026-06-15T11:31:03.000Z</time>
        <extensions>
          <ns3:TrackPointExtension>
            <ns3:atemp>18.0</ns3:atemp>
          </ns3:TrackPointExtension>
        </extensions>
      </trkpt>
      <trkpt lat="42.56533448584377765655517578125" lon="20.05000348202884197235107421875">
        <ele>2162.199951171875</ele>
        <time>2026-06-15T11:31:04.000Z</time>
        <extensions>
          <ns3:TrackPointExtension>
            <ns3:atemp>18.0</ns3:atemp>
          </ns3:TrackPointExtension>
        </extensions>
      </trkpt>
      <trkpt lat="42.56533448584377765655517578125" lon="20.05000348202884197235107421875">
        <ele>2162.199951171875</ele>
        <time>2026-06-15T11:31:05.000Z</time>
        <extensions>
          <ns3:TrackPointExtension>
            <ns3:atemp>17.0</ns3:atemp>
          </ns3:TrackPointExtension>
        </extensions>
      </trkpt>
      <trkpt lat="42.56533448584377765655517578125" lon="20.05000348202884197235107421875">
        <ele>2162.199951171875</ele>
        <time>2026-06-15T11:31:06.000Z</time>
        <extensions>
          <ns3:TrackPointExtension>
            <ns3:atemp>17.0</ns3:atemp>
          </ns3:TrackPointExtension>
        </extensions>
      </trkpt>
      <trkpt lat="42.56533448584377765655517578125" lon="20.05000348202884197235107421875">
        <ele>2162.199951171875</ele>
        <time>2026-06-15T11:31:07.000Z</time>
        <extensions>
          <ns3:TrackPointExtension>
            <ns3:atemp>18.0</ns3:atemp>
          </ns3:TrackPointExtension>
        </extensions>
      </trkpt>
      <trkpt lat="42.56533448584377765655517578125" lon="20.05000348202884197235107421875">
        <ele>2162.199951171875</ele>
        <time>2026-06-15T11:31:08.000Z</time>
        <extensions>
          <ns3:TrackPointExtension>
            <ns3:atemp>18.0</ns3:atemp>
          </ns3:TrackPointExtension>
        </extensions>
      </trkpt>
      <trkpt lat="42.56533448584377765655517578125" lon="20.05000348202884197235107421875">
        <ele>2162.199951171875</ele>
        <time>2026-06-15T11:31:09.000Z</time>
        <extensions>
          <ns3:TrackPointExtension>
            <ns3:atemp>17.0</ns3:atemp>
          </ns3:TrackPointExtension>
        </extensions>
      </trkpt>
      <trkpt lat="42.56533448584377765655517578125" lon="20.05000348202884197235107421875">
        <ele>2162.199951171875</ele>
        <time>2026-06-15T11:31:10.000Z</time>
        <extensions>
          <ns3:TrackPointExtension>
            <ns3:atemp>17.0</ns3:atemp>
          </ns3:TrackPointExtension>
        </extensions>
      </trkpt>
      <trkpt lat="42.56533448584377765655517578125" lon="20.05000348202884197235107421875">
        <ele>2162.199951171875</ele>
        <time>2026-06-15T11:31:11.000Z</time>
        <extensions>
          <ns3:TrackPointExtension>
            <ns3:atemp>17.0</ns3:atemp>
          </ns3:TrackPointExtension>
        </extensions>
      </trkpt>
      <trkpt lat="42.56533448584377765655517578125" lon="20.05000348202884197235107421875">
        <ele>2162.199951171875</ele>
        <time>2026-06-15T11:31:12.000Z</time>
        <extensions>
          <ns3:TrackPointExtension>
            <ns3:atemp>18.0</ns3:atemp>
          </ns3:TrackPointExtension>
        </extensions>
      </trkpt>
      <trkpt lat="42.56533448584377765655517578125" lon="20.05000348202884197235107421875">
        <ele>2162.199951171875</ele>
        <time>2026-06-15T11:31:13.000Z</time>
        <extensions>
          <ns3:TrackPointExtension>
            <ns3:atemp>18.0</ns3:atemp>
          </ns3:TrackPointExtension>
        </extensions>
      </trkpt>
      <trkpt lat="42.56533448584377765655517578125" lon="20.05000348202884197235107421875">
        <ele>2162.199951171875</ele>
        <time>2026-06-15T11:31:14.000Z</time>
        <extensions>
          <ns3:TrackPointExtension>
            <ns3:atemp>18.0</ns3:atemp>
          </ns3:TrackPointExtension>
        </extensions>
      </trkpt>
      <trkpt lat="42.56533448584377765655517578125" lon="20.05000348202884197235107421875">
        <ele>2162.199951171875</ele>
        <time>2026-06-15T11:31:15.000Z</time>
        <extensions>
          <ns3:TrackPointExtension>
            <ns3:atemp>18.0</ns3:atemp>
          </ns3:TrackPointExtension>
        </extensions>
      </trkpt>
      <trkpt lat="42.56533448584377765655517578125" lon="20.05000348202884197235107421875">
        <ele>2162.199951171875</ele>
        <time>2026-06-15T11:31:16.000Z</time>
        <extensions>
          <ns3:TrackPointExtension>
            <ns3:atemp>18.0</ns3:atemp>
          </ns3:TrackPointExtension>
        </extensions>
      </trkpt>
      <trkpt lat="42.56533448584377765655517578125" lon="20.05000348202884197235107421875">
        <ele>2162.199951171875</ele>
        <time>2026-06-15T11:31:17.000Z</time>
        <extensions>
          <ns3:TrackPointExtension>
            <ns3:atemp>18.0</ns3:atemp>
          </ns3:TrackPointExtension>
        </extensions>
      </trkpt>
      <trkpt lat="42.56533448584377765655517578125" lon="20.05000348202884197235107421875">
        <ele>2162.199951171875</ele>
        <time>2026-06-15T11:31:18.000Z</time>
        <extensions>
          <ns3:TrackPointExtension>
            <ns3:atemp>18.0</ns3:atemp>
          </ns3:TrackPointExtension>
        </extensions>
      </trkpt>
      <trkpt lat="42.56533448584377765655517578125" lon="20.05000348202884197235107421875">
        <ele>2162.199951171875</ele>
        <time>2026-06-15T11:31:19.000Z</time>
        <extensions>
          <ns3:TrackPointExtension>
            <ns3:atemp>17.0</ns3:atemp>
          </ns3:TrackPointExtension>
        </extensions>
      </trkpt>
      <trkpt lat="42.56533448584377765655517578125" lon="20.05000348202884197235107421875">
        <ele>2162.199951171875</ele>
        <time>2026-06-15T11:31:20.000Z</time>
        <extensions>
          <ns3:TrackPointExtension>
            <ns3:atemp>17.0</ns3:atemp>
          </ns3:TrackPointExtension>
        </extensions>
      </trkpt>
      <trkpt lat="42.56533448584377765655517578125" lon="20.05000348202884197235107421875">
        <ele>2162.199951171875</ele>
        <time>2026-06-15T11:31:21.000Z</time>
        <extensions>
          <ns3:TrackPointExtension>
            <ns3:atemp>17.0</ns3:atemp>
          </ns3:TrackPointExtension>
        </extensions>
      </trkpt>
      <trkpt lat="42.56533448584377765655517578125" lon="20.05000348202884197235107421875">
        <ele>2162.199951171875</ele>
        <time>2026-06-15T11:31:22.000Z</time>
        <extensions>
          <ns3:TrackPointExtension>
            <ns3:atemp>17.0</ns3:atemp>
          </ns3:TrackPointExtension>
        </extensions>
      </trkpt>
      <trkpt lat="42.56533448584377765655517578125" lon="20.05000348202884197235107421875">
        <ele>2162.199951171875</ele>
        <time>2026-06-15T11:31:23.000Z</time>
        <extensions>
          <ns3:TrackPointExtension>
            <ns3:atemp>17.0</ns3:atemp>
          </ns3:TrackPointExtension>
        </extensions>
      </trkpt>
      <trkpt lat="42.56533448584377765655517578125" lon="20.05000348202884197235107421875">
        <ele>2162.199951171875</ele>
        <time>2026-06-15T11:31:24.000Z</time>
        <extensions>
          <ns3:TrackPointExtension>
            <ns3:atemp>17.0</ns3:atemp>
          </ns3:TrackPointExtension>
        </extensions>
      </trkpt>
      <trkpt lat="42.56533448584377765655517578125" lon="20.05000348202884197235107421875">
        <ele>2162.199951171875</ele>
        <time>2026-06-15T11:31:25.000Z</time>
        <extensions>
          <ns3:TrackPointExtension>
            <ns3:atemp>17.0</ns3:atemp>
          </ns3:TrackPointExtension>
        </extensions>
      </trkpt>
      <trkpt lat="42.56533448584377765655517578125" lon="20.05000348202884197235107421875">
        <ele>2162.199951171875</ele>
        <time>2026-06-15T11:31:26.000Z</time>
        <extensions>
          <ns3:TrackPointExtension>
            <ns3:atemp>17.0</ns3:atemp>
          </ns3:TrackPointExtension>
        </extensions>
      </trkpt>
      <trkpt lat="42.56533448584377765655517578125" lon="20.05000348202884197235107421875">
        <ele>2162.199951171875</ele>
        <time>2026-06-15T11:31:27.000Z</time>
        <extensions>
          <ns3:TrackPointExtension>
            <ns3:atemp>17.0</ns3:atemp>
          </ns3:TrackPointExtension>
        </extensions>
      </trkpt>
      <trkpt lat="42.56533448584377765655517578125" lon="20.05000348202884197235107421875">
        <ele>2162.199951171875</ele>
        <time>2026-06-15T11:31:28.000Z</time>
        <extensions>
          <ns3:TrackPointExtension>
            <ns3:atemp>17.0</ns3:atemp>
          </ns3:TrackPointExtension>
        </extensions>
      </trkpt>
      <trkpt lat="42.56533448584377765655517578125" lon="20.05000348202884197235107421875">
        <ele>2162.199951171875</ele>
        <time>2026-06-15T11:31:29.000Z</time>
        <extensions>
          <ns3:TrackPointExtension>
            <ns3:atemp>17.0</ns3:atemp>
          </ns3:TrackPointExtension>
        </extensions>
      </trkpt>
      <trkpt lat="42.56533448584377765655517578125" lon="20.05000348202884197235107421875">
        <ele>2162.199951171875</ele>
        <time>2026-06-15T11:31:30.000Z</time>
        <extensions>
          <ns3:TrackPointExtension>
            <ns3:atemp>17.0</ns3:atemp>
          </ns3:TrackPointExtension>
        </extensions>
      </trkpt>
      <trkpt lat="42.56533448584377765655517578125" lon="20.05000348202884197235107421875">
        <ele>2162.199951171875</ele>
        <time>2026-06-15T11:31:31.000Z</time>
        <extensions>
          <ns3:TrackPointExtension>
            <ns3:atemp>17.0</ns3:atemp>
          </ns3:TrackPointExtension>
        </extensions>
      </trkpt>
      <trkpt lat="42.56533448584377765655517578125" lon="20.05000348202884197235107421875">
        <ele>2162.199951171875</ele>
        <time>2026-06-15T11:31:32.000Z</time>
        <extensions>
          <ns3:TrackPointExtension>
            <ns3:atemp>17.0</ns3:atemp>
          </ns3:TrackPointExtension>
        </extensions>
      </trkpt>
      <trkpt lat="42.56533448584377765655517578125" lon="20.05000348202884197235107421875">
        <ele>2162.199951171875</ele>
        <time>2026-06-15T11:31:33.000Z</time>
        <extensions>
          <ns3:TrackPointExtension>
            <ns3:atemp>17.0</ns3:atemp>
          </ns3:TrackPointExtension>
        </extensions>
      </trkpt>
      <trkpt lat="42.56533448584377765655517578125" lon="20.05000348202884197235107421875">
        <ele>2162.199951171875</ele>
        <time>2026-06-15T11:31:34.000Z</time>
        <extensions>
          <ns3:TrackPointExtension>
            <ns3:atemp>17.0</ns3:atemp>
          </ns3:TrackPointExtension>
        </extensions>
      </trkpt>
      <trkpt lat="42.56533448584377765655517578125" lon="20.05000348202884197235107421875">
        <ele>2162.199951171875</ele>
        <time>2026-06-15T11:31:35.000Z</time>
        <extensions>
          <ns3:TrackPointExtension>
            <ns3:atemp>17.0</ns3:atemp>
          </ns3:TrackPointExtension>
        </extensions>
      </trkpt>
      <trkpt lat="42.56533448584377765655517578125" lon="20.05000348202884197235107421875">
        <ele>2162.199951171875</ele>
        <time>2026-06-15T11:31:36.000Z</time>
        <extensions>
          <ns3:TrackPointExtension>
            <ns3:atemp>17.0</ns3:atemp>
          </ns3:TrackPointExtension>
        </extensions>
      </trkpt>
      <trkpt lat="42.56533448584377765655517578125" lon="20.05000348202884197235107421875">
        <ele>2162.199951171875</ele>
        <time>2026-06-15T11:31:37.000Z</time>
        <extensions>
          <ns3:TrackPointExtension>
            <ns3:atemp>17.0</ns3:atemp>
          </ns3:TrackPointExtension>
        </extensions>
      </trkpt>
      <trkpt lat="42.56533448584377765655517578125" lon="20.05000348202884197235107421875">
        <ele>2162.199951171875</ele>
        <time>2026-06-15T11:31:38.000Z</time>
        <extensions>
          <ns3:TrackPointExtension>
            <ns3:atemp>17.0</ns3:atemp>
          </ns3:TrackPointExtension>
        </extensions>
      </trkpt>
      <trkpt lat="42.56533448584377765655517578125" lon="20.05000348202884197235107421875">
        <ele>2162.199951171875</ele>
        <time>2026-06-15T11:31:39.000Z</time>
        <extensions>
          <ns3:TrackPointExtension>
            <ns3:atemp>17.0</ns3:atemp>
          </ns3:TrackPointExtension>
        </extensions>
      </trkpt>
      <trkpt lat="42.56533448584377765655517578125" lon="20.05000348202884197235107421875">
        <ele>2162.199951171875</ele>
        <time>2026-06-15T11:31:40.000Z</time>
        <extensions>
          <ns3:TrackPointExtension>
            <ns3:atemp>17.0</ns3:atemp>
          </ns3:TrackPointExtension>
        </extensions>
      </trkpt>
      <trkpt lat="42.56533448584377765655517578125" lon="20.05000348202884197235107421875">
        <ele>2162.199951171875</ele>
        <time>2026-06-15T11:31:41.000Z</time>
        <extensions>
          <ns3:TrackPointExtension>
            <ns3:atemp>17.0</ns3:atemp>
          </ns3:TrackPointExtension>
        </extensions>
      </trkpt>
      <trkpt lat="42.56533448584377765655517578125" lon="20.05000348202884197235107421875">
        <ele>2162.199951171875</ele>
        <time>2026-06-15T11:31:42.000Z</time>
        <extensions>
          <ns3:TrackPointExtension>
            <ns3:atemp>17.0</ns3:atemp>
          </ns3:TrackPointExtension>
        </extensions>
      </trkpt>
      <trkpt lat="42.56533448584377765655517578125" lon="20.05000348202884197235107421875">
        <ele>2162.199951171875</ele>
        <time>2026-06-15T11:31:43.000Z</time>
        <extensions>
          <ns3:TrackPointExtension>
            <ns3:atemp>17.0</ns3:atemp>
          </ns3:TrackPointExtension>
        </extensions>
      </trkpt>
      <trkpt lat="42.56533448584377765655517578125" lon="20.05000348202884197235107421875">
        <ele>2162.199951171875</ele>
        <time>2026-06-15T11:31:44.000Z</time>
        <extensions>
          <ns3:TrackPointExtension>
            <ns3:atemp>17.0</ns3:atemp>
          </ns3:TrackPointExtension>
        </extensions>
      </trkpt>
      <trkpt lat="42.56533448584377765655517578125" lon="20.05000348202884197235107421875">
        <ele>2162.199951171875</ele>
        <time>2026-06-15T11:31:45.000Z</time>
        <extensions>
          <ns3:TrackPointExtension>
            <ns3:atemp>17.0</ns3:atemp>
          </ns3:TrackPointExtension>
        </extensions>
      </trkpt>
      <trkpt lat="42.56533448584377765655517578125" lon="20.05000348202884197235107421875">
        <ele>2162.199951171875</ele>
        <time>2026-06-15T11:31:46.000Z</time>
        <extensions>
          <ns3:TrackPointExtension>
            <ns3:atemp>17.0</ns3:atemp>
          </ns3:TrackPointExtension>
        </extensions>
      </trkpt>
      <trkpt lat="42.56533448584377765655517578125" lon="20.05000348202884197235107421875">
        <ele>2162.199951171875</ele>
        <time>2026-06-15T11:31:47.000Z</time>
        <extensions>
          <ns3:TrackPointExtension>
            <ns3:atemp>17.0</ns3:atemp>
          </ns3:TrackPointExtension>
        </extensions>
      </trkpt>
      <trkpt lat="42.56533448584377765655517578125" lon="20.05000348202884197235107421875">
        <ele>2162.199951171875</ele>
        <time>2026-06-15T11:31:48.000Z</time>
        <extensions>
          <ns3:TrackPointExtension>
            <ns3:atemp>17.0</ns3:atemp>
          </ns3:TrackPointExtension>
        </extensions>
      </trkpt>
      <trkpt lat="42.56533448584377765655517578125" lon="20.05000348202884197235107421875">
        <ele>2162.199951171875</ele>
        <time>2026-06-15T11:31:49.000Z</time>
        <extensions>
          <ns3:TrackPointExtension>
            <ns3:atemp>17.0</ns3:atemp>
          </ns3:TrackPointExtension>
        </extensions>
      </trkpt>
      <trkpt lat="42.56533448584377765655517578125" lon="20.05000348202884197235107421875">
        <ele>2162.199951171875</ele>
        <time>2026-06-15T11:31:50.000Z</time>
        <extensions>
          <ns3:TrackPointExtension>
            <ns3:atemp>17.0</ns3:atemp>
          </ns3:TrackPointExtension>
        </extensions>
      </trkpt>
      <trkpt lat="42.56533448584377765655517578125" lon="20.05000348202884197235107421875">
        <ele>2162.199951171875</ele>
        <time>2026-06-15T11:31:51.000Z</time>
        <extensions>
          <ns3:TrackPointExtension>
            <ns3:atemp>17.0</ns3:atemp>
          </ns3:TrackPointExtension>
        </extensions>
      </trkpt>
      <trkpt lat="42.56533448584377765655517578125" lon="20.05000348202884197235107421875">
        <ele>2162.199951171875</ele>
        <time>2026-06-15T11:31:52.000Z</time>
        <extensions>
          <ns3:TrackPointExtension>
            <ns3:atemp>17.0</ns3:atemp>
          </ns3:TrackPointExtension>
        </extensions>
      </trkpt>
      <trkpt lat="42.56533448584377765655517578125" lon="20.05000348202884197235107421875">
        <ele>2162.199951171875</ele>
        <time>2026-06-15T11:31:53.000Z</time>
        <extensions>
          <ns3:TrackPointExtension>
            <ns3:atemp>17.0</ns3:atemp>
          </ns3:TrackPointExtension>
        </extensions>
      </trkpt>
      <trkpt lat="42.56533448584377765655517578125" lon="20.05000348202884197235107421875">
        <ele>2162.199951171875</ele>
        <time>2026-06-15T11:31:54.000Z</time>
        <extensions>
          <ns3:TrackPointExtension>
            <ns3:atemp>17.0</ns3:atemp>
          </ns3:TrackPointExtension>
        </extensions>
      </trkpt>
      <trkpt lat="42.56533448584377765655517578125" lon="20.05000348202884197235107421875">
        <ele>2162.199951171875</ele>
        <time>2026-06-15T11:31:55.000Z</time>
        <extensions>
          <ns3:TrackPointExtension>
            <ns3:atemp>17.0</ns3:atemp>
          </ns3:TrackPointExtension>
        </extensions>
      </trkpt>
      <trkpt lat="42.56533448584377765655517578125" lon="20.05000348202884197235107421875">
        <ele>2162.199951171875</ele>
        <time>2026-06-15T11:31:56.000Z</time>
        <extensions>
          <ns3:TrackPointExtension>
            <ns3:atemp>17.0</ns3:atemp>
          </ns3:TrackPointExtension>
        </extensions>
      </trkpt>
      <trkpt lat="42.56533448584377765655517578125" lon="20.05000348202884197235107421875">
        <ele>2162.199951171875</ele>
        <time>2026-06-15T11:31:57.000Z</time>
        <extensions>
          <ns3:TrackPointExtension>
            <ns3:atemp>17.0</ns3:atemp>
          </ns3:TrackPointExtension>
        </extensions>
      </trkpt>
      <trkpt lat="42.56533448584377765655517578125" lon="20.05000348202884197235107421875">
        <ele>2162.199951171875</ele>
        <time>2026-06-15T11:31:58.000Z</time>
        <extensions>
          <ns3:TrackPointExtension>
            <ns3:atemp>17.0</ns3:atemp>
          </ns3:TrackPointExtension>
        </extensions>
      </trkpt>
      <trkpt lat="42.56533448584377765655517578125" lon="20.05000348202884197235107421875">
        <ele>2162.199951171875</ele>
        <time>2026-06-15T11:31:59.000Z</time>
        <extensions>
          <ns3:TrackPointExtension>
            <ns3:atemp>17.0</ns3:atemp>
          </ns3:TrackPointExtension>
        </extensions>
      </trkpt>
      <trkpt lat="42.56533448584377765655517578125" lon="20.05000348202884197235107421875">
        <ele>2162.199951171875</ele>
        <time>2026-06-15T11:32:00.000Z</time>
        <extensions>
          <ns3:TrackPointExtension>
            <ns3:atemp>17.0</ns3:atemp>
          </ns3:TrackPointExtension>
        </extensions>
      </trkpt>
      <trkpt lat="42.56533448584377765655517578125" lon="20.05000348202884197235107421875">
        <ele>2162.199951171875</ele>
        <time>2026-06-15T11:32:01.000Z</time>
        <extensions>
          <ns3:TrackPointExtension>
            <ns3:atemp>17.0</ns3:atemp>
          </ns3:TrackPointExtension>
        </extensions>
      </trkpt>
      <trkpt lat="42.56533448584377765655517578125" lon="20.05000348202884197235107421875">
        <ele>2162.199951171875</ele>
        <time>2026-06-15T11:32:02.000Z</time>
        <extensions>
          <ns3:TrackPointExtension>
            <ns3:atemp>17.0</ns3:atemp>
          </ns3:TrackPointExtension>
        </extensions>
      </trkpt>
      <trkpt lat="42.56533448584377765655517578125" lon="20.05000348202884197235107421875">
        <ele>2162.199951171875</ele>
        <time>2026-06-15T11:32:03.000Z</time>
        <extensions>
          <ns3:TrackPointExtension>
            <ns3:atemp>17.0</ns3:atemp>
          </ns3:TrackPointExtension>
        </extensions>
      </trkpt>
      <trkpt lat="42.56533448584377765655517578125" lon="20.05000348202884197235107421875">
        <ele>2162.199951171875</ele>
        <time>2026-06-15T11:32:04.000Z</time>
        <extensions>
          <ns3:TrackPointExtension>
            <ns3:atemp>17.0</ns3:atemp>
          </ns3:TrackPointExtension>
        </extensions>
      </trkpt>
      <trkpt lat="42.56533448584377765655517578125" lon="20.05000348202884197235107421875">
        <ele>2162.199951171875</ele>
        <time>2026-06-15T11:32:05.000Z</time>
        <extensions>
          <ns3:TrackPointExtension>
            <ns3:atemp>17.0</ns3:atemp>
          </ns3:TrackPointExtension>
        </extensions>
      </trkpt>
      <trkpt lat="42.56533448584377765655517578125" lon="20.05000348202884197235107421875">
        <ele>2162.199951171875</ele>
        <time>2026-06-15T11:32:06.000Z</time>
        <extensions>
          <ns3:TrackPointExtension>
            <ns3:atemp>17.0</ns3:atemp>
          </ns3:TrackPointExtension>
        </extensions>
      </trkpt>
      <trkpt lat="42.56533448584377765655517578125" lon="20.05000348202884197235107421875">
        <ele>2162.199951171875</ele>
        <time>2026-06-15T11:32:07.000Z</time>
        <extensions>
          <ns3:TrackPointExtension>
            <ns3:atemp>17.0</ns3:atemp>
          </ns3:TrackPointExtension>
        </extensions>
      </trkpt>
      <trkpt lat="42.56533448584377765655517578125" lon="20.05000348202884197235107421875">
        <ele>2162.199951171875</ele>
        <time>2026-06-15T11:32:08.000Z</time>
        <extensions>
          <ns3:TrackPointExtension>
            <ns3:atemp>17.0</ns3:atemp>
          </ns3:TrackPointExtension>
        </extensions>
      </trkpt>
      <trkpt lat="42.56533448584377765655517578125" lon="20.05000348202884197235107421875">
        <ele>2162.199951171875</ele>
        <time>2026-06-15T11:32:09.000Z</time>
        <extensions>
          <ns3:TrackPointExtension>
            <ns3:atemp>17.0</ns3:atemp>
          </ns3:TrackPointExtension>
        </extensions>
      </trkpt>
      <trkpt lat="42.56533448584377765655517578125" lon="20.05000348202884197235107421875">
        <ele>2162.199951171875</ele>
        <time>2026-06-15T11:32:10.000Z</time>
        <extensions>
          <ns3:TrackPointExtension>
            <ns3:atemp>17.0</ns3:atemp>
          </ns3:TrackPointExtension>
        </extensions>
      </trkpt>
      <trkpt lat="42.56533448584377765655517578125" lon="20.05000348202884197235107421875">
        <ele>2162.199951171875</ele>
        <time>2026-06-15T11:32:11.000Z</time>
        <extensions>
          <ns3:TrackPointExtension>
            <ns3:atemp>17.0</ns3:atemp>
          </ns3:TrackPointExtension>
        </extensions>
      </trkpt>
      <trkpt lat="42.56533448584377765655517578125" lon="20.05000348202884197235107421875">
        <ele>2162.199951171875</ele>
        <time>2026-06-15T11:32:12.000Z</time>
        <extensions>
          <ns3:TrackPointExtension>
            <ns3:atemp>17.0</ns3:atemp>
          </ns3:TrackPointExtension>
        </extensions>
      </trkpt>
      <trkpt lat="42.56533448584377765655517578125" lon="20.05000348202884197235107421875">
        <ele>2162.199951171875</ele>
        <time>2026-06-15T11:32:13.000Z</time>
        <extensions>
          <ns3:TrackPointExtension>
            <ns3:atemp>17.0</ns3:atemp>
          </ns3:TrackPointExtension>
        </extensions>
      </trkpt>
      <trkpt lat="42.56533448584377765655517578125" lon="20.05000348202884197235107421875">
        <ele>2162.199951171875</ele>
        <time>2026-06-15T11:32:14.000Z</time>
        <extensions>
          <ns3:TrackPointExtension>
            <ns3:atemp>17.0</ns3:atemp>
          </ns3:TrackPointExtension>
        </extensions>
      </trkpt>
      <trkpt lat="42.56533448584377765655517578125" lon="20.05000348202884197235107421875">
        <ele>2162.199951171875</ele>
        <time>2026-06-15T11:32:15.000Z</time>
        <extensions>
          <ns3:TrackPointExtension>
            <ns3:atemp>17.0</ns3:atemp>
          </ns3:TrackPointExtension>
        </extensions>
      </trkpt>
      <trkpt lat="42.56533448584377765655517578125" lon="20.05000348202884197235107421875">
        <ele>2162.199951171875</ele>
        <time>2026-06-15T11:32:16.000Z</time>
        <extensions>
          <ns3:TrackPointExtension>
            <ns3:atemp>17.0</ns3:atemp>
          </ns3:TrackPointExtension>
        </extensions>
      </trkpt>
      <trkpt lat="42.56533448584377765655517578125" lon="20.05000348202884197235107421875">
        <ele>2162.199951171875</ele>
        <time>2026-06-15T11:32:17.000Z</time>
        <extensions>
          <ns3:TrackPointExtension>
            <ns3:atemp>17.0</ns3:atemp>
          </ns3:TrackPointExtension>
        </extensions>
      </trkpt>
      <trkpt lat="42.56533448584377765655517578125" lon="20.05000348202884197235107421875">
        <ele>2162.199951171875</ele>
        <time>2026-06-15T11:32:18.000Z</time>
        <extensions>
          <ns3:TrackPointExtension>
            <ns3:atemp>17.0</ns3:atemp>
          </ns3:TrackPointExtension>
        </extensions>
      </trkpt>
      <trkpt lat="42.56533448584377765655517578125" lon="20.05000348202884197235107421875">
        <ele>2162.199951171875</ele>
        <time>2026-06-15T11:32:19.000Z</time>
        <extensions>
          <ns3:TrackPointExtension>
            <ns3:atemp>17.0</ns3:atemp>
          </ns3:TrackPointExtension>
        </extensions>
      </trkpt>
      <trkpt lat="42.56533448584377765655517578125" lon="20.05000348202884197235107421875">
        <ele>2162.199951171875</ele>
        <time>2026-06-15T11:32:20.000Z</time>
        <extensions>
          <ns3:TrackPointExtension>
            <ns3:atemp>17.0</ns3:atemp>
          </ns3:TrackPointExtension>
        </extensions>
      </trkpt>
      <trkpt lat="42.56533448584377765655517578125" lon="20.05000348202884197235107421875">
        <ele>2162.199951171875</ele>
        <time>2026-06-15T11:32:21.000Z</time>
        <extensions>
          <ns3:TrackPointExtension>
            <ns3:atemp>17.0</ns3:atemp>
          </ns3:TrackPointExtension>
        </extensions>
      </trkpt>
      <trkpt lat="42.56533448584377765655517578125" lon="20.05000348202884197235107421875">
        <ele>2162.199951171875</ele>
        <time>2026-06-15T11:32:22.000Z</time>
        <extensions>
          <ns3:TrackPointExtension>
            <ns3:atemp>17.0</ns3:atemp>
          </ns3:TrackPointExtension>
        </extensions>
      </trkpt>
      <trkpt lat="42.56533448584377765655517578125" lon="20.05000348202884197235107421875">
        <ele>2162.199951171875</ele>
        <time>2026-06-15T11:32:23.000Z</time>
        <extensions>
          <ns3:TrackPointExtension>
            <ns3:atemp>17.0</ns3:atemp>
          </ns3:TrackPointExtension>
        </extensions>
      </trkpt>
      <trkpt lat="42.56533448584377765655517578125" lon="20.05000348202884197235107421875">
        <ele>2162.199951171875</ele>
        <time>2026-06-15T11:32:24.000Z</time>
        <extensions>
          <ns3:TrackPointExtension>
            <ns3:atemp>17.0</ns3:atemp>
          </ns3:TrackPointExtension>
        </extensions>
      </trkpt>
      <trkpt lat="42.56533448584377765655517578125" lon="20.05000348202884197235107421875">
        <ele>2162.199951171875</ele>
        <time>2026-06-15T11:32:25.000Z</time>
        <extensions>
          <ns3:TrackPointExtension>
            <ns3:atemp>17.0</ns3:atemp>
          </ns3:TrackPointExtension>
        </extensions>
      </trkpt>
      <trkpt lat="42.56533448584377765655517578125" lon="20.05000348202884197235107421875">
        <ele>2162.199951171875</ele>
        <time>2026-06-15T11:32:26.000Z</time>
        <extensions>
          <ns3:TrackPointExtension>
            <ns3:atemp>17.0</ns3:atemp>
          </ns3:TrackPointExtension>
        </extensions>
      </trkpt>
      <trkpt lat="42.56533448584377765655517578125" lon="20.05000348202884197235107421875">
        <ele>2162.199951171875</ele>
        <time>2026-06-15T11:32:27.000Z</time>
        <extensions>
          <ns3:TrackPointExtension>
            <ns3:atemp>17.0</ns3:atemp>
          </ns3:TrackPointExtension>
        </extensions>
      </trkpt>
      <trkpt lat="42.56533448584377765655517578125" lon="20.05000348202884197235107421875">
        <ele>2162.199951171875</ele>
        <time>2026-06-15T11:32:28.000Z</time>
        <extensions>
          <ns3:TrackPointExtension>
            <ns3:atemp>17.0</ns3:atemp>
          </ns3:TrackPointExtension>
        </extensions>
      </trkpt>
      <trkpt lat="42.56533448584377765655517578125" lon="20.05000348202884197235107421875">
        <ele>2162.199951171875</ele>
        <time>2026-06-15T11:32:29.000Z</time>
        <extensions>
          <ns3:TrackPointExtension>
            <ns3:atemp>17.0</ns3:atemp>
          </ns3:TrackPointExtension>
        </extensions>
      </trkpt>
      <trkpt lat="42.56533448584377765655517578125" lon="20.05000348202884197235107421875">
        <ele>2162.199951171875</ele>
        <time>2026-06-15T11:32:30.000Z</time>
        <extensions>
          <ns3:TrackPointExtension>
            <ns3:atemp>17.0</ns3:atemp>
          </ns3:TrackPointExtension>
        </extensions>
      </trkpt>
      <trkpt lat="42.56533448584377765655517578125" lon="20.05000348202884197235107421875">
        <ele>2162.199951171875</ele>
        <time>2026-06-15T11:32:31.000Z</time>
        <extensions>
          <ns3:TrackPointExtension>
            <ns3:atemp>17.0</ns3:atemp>
          </ns3:TrackPointExtension>
        </extensions>
      </trkpt>
      <trkpt lat="42.56533448584377765655517578125" lon="20.05000348202884197235107421875">
        <ele>2162.199951171875</ele>
        <time>2026-06-15T11:32:32.000Z</time>
        <extensions>
          <ns3:TrackPointExtension>
            <ns3:atemp>17.0</ns3:atemp>
          </ns3:TrackPointExtension>
        </extensions>
      </trkpt>
      <trkpt lat="42.56533448584377765655517578125" lon="20.05000348202884197235107421875">
        <ele>2162.199951171875</ele>
        <time>2026-06-15T11:32:33.000Z</time>
        <extensions>
          <ns3:TrackPointExtension>
            <ns3:atemp>17.0</ns3:atemp>
          </ns3:TrackPointExtension>
        </extensions>
      </trkpt>
      <trkpt lat="42.56533448584377765655517578125" lon="20.05000348202884197235107421875">
        <ele>2162.199951171875</ele>
        <time>2026-06-15T11:32:34.000Z</time>
        <extensions>
          <ns3:TrackPointExtension>
            <ns3:atemp>17.0</ns3:atemp>
          </ns3:TrackPointExtension>
        </extensions>
      </trkpt>
      <trkpt lat="42.56533901207149028778076171875" lon="20.05001152865588665008544921875">
        <ele>2162.199951171875</ele>
        <time>2026-06-15T11:32:35.000Z</time>
        <extensions>
          <ns3:TrackPointExtension>
            <ns3:atemp>17.0</ns3:atemp>
          </ns3:TrackPointExtension>
        </extensions>
      </trkpt>
      <trkpt lat="42.56532778032124042510986328125" lon="20.05000524222850799560546875">
        <ele>2162.199951171875</ele>
        <time>2026-06-15T11:32:36.000Z</time>
        <extensions>
          <ns3:TrackPointExtension>
            <ns3:atemp>17.0</ns3:atemp>
          </ns3:TrackPointExtension>
        </extensions>
      </trkpt>
      <trkpt lat="42.56533448584377765655517578125" lon="20.05000348202884197235107421875">
        <ele>2162.199951171875</ele>
        <time>2026-06-15T11:32:37.000Z</time>
        <extensions>
          <ns3:TrackPointExtension>
            <ns3:atemp>17.0</ns3:atemp>
          </ns3:TrackPointExtension>
        </extensions>
      </trkpt>
      <trkpt lat="42.56533448584377765655517578125" lon="20.05000348202884197235107421875">
        <ele>2162.199951171875</ele>
        <time>2026-06-15T11:32:38.000Z</time>
        <extensions>
          <ns3:TrackPointExtension>
            <ns3:atemp>17.0</ns3:atemp>
          </ns3:TrackPointExtension>
        </extensions>
      </trkpt>
      <trkpt lat="42.56533448584377765655517578125" lon="20.05000348202884197235107421875">
        <ele>2162.199951171875</ele>
        <time>2026-06-15T11:32:39.000Z</time>
        <extensions>
          <ns3:TrackPointExtension>
            <ns3:atemp>17.0</ns3:atemp>
          </ns3:TrackPointExtension>
        </extensions>
      </trkpt>
      <trkpt lat="42.56533448584377765655517578125" lon="20.05000348202884197235107421875">
        <ele>2162.199951171875</ele>
        <time>2026-06-15T11:32:40.000Z</time>
        <extensions>
          <ns3:TrackPointExtension>
            <ns3:atemp>17.0</ns3:atemp>
          </ns3:TrackPointExtension>
        </extensions>
      </trkpt>
      <trkpt lat="42.56533448584377765655517578125" lon="20.05000348202884197235107421875">
        <ele>2162.199951171875</ele>
        <time>2026-06-15T11:32:41.000Z</time>
        <extensions>
          <ns3:TrackPointExtension>
            <ns3:atemp>17.0</ns3:atemp>
          </ns3:TrackPointExtension>
        </extensions>
      </trkpt>
      <trkpt lat="42.56533448584377765655517578125" lon="20.05000348202884197235107421875">
        <ele>2162.199951171875</ele>
        <time>2026-06-15T11:32:42.000Z</time>
        <extensions>
          <ns3:TrackPointExtension>
            <ns3:atemp>17.0</ns3:atemp>
          </ns3:TrackPointExtension>
        </extensions>
      </trkpt>
      <trkpt lat="42.56533448584377765655517578125" lon="20.05000348202884197235107421875">
        <ele>2162.199951171875</ele>
        <time>2026-06-15T11:32:43.000Z</time>
        <extensions>
          <ns3:TrackPointExtension>
            <ns3:atemp>17.0</ns3:atemp>
          </ns3:TrackPointExtension>
        </extensions>
      </trkpt>
      <trkpt lat="42.56533448584377765655517578125" lon="20.05000348202884197235107421875">
        <ele>2162.199951171875</ele>
        <time>2026-06-15T11:32:44.000Z</time>
        <extensions>
          <ns3:TrackPointExtension>
            <ns3:atemp>17.0</ns3:atemp>
          </ns3:TrackPointExtension>
        </extensions>
      </trkpt>
      <trkpt lat="42.56533448584377765655517578125" lon="20.05000348202884197235107421875">
        <ele>2162.199951171875</ele>
        <time>2026-06-15T11:32:45.000Z</time>
        <extensions>
          <ns3:TrackPointExtension>
            <ns3:atemp>17.0</ns3:atemp>
          </ns3:TrackPointExtension>
        </extensions>
      </trkpt>
      <trkpt lat="42.56533448584377765655517578125" lon="20.05000348202884197235107421875">
        <ele>2162.199951171875</ele>
        <time>2026-06-15T11:32:46.000Z</time>
        <extensions>
          <ns3:TrackPointExtension>
            <ns3:atemp>17.0</ns3:atemp>
          </ns3:TrackPointExtension>
        </extensions>
      </trkpt>
      <trkpt lat="42.56533448584377765655517578125" lon="20.05000348202884197235107421875">
        <ele>2162.199951171875</ele>
        <time>2026-06-15T11:32:47.000Z</time>
        <extensions>
          <ns3:TrackPointExtension>
            <ns3:atemp>17.0</ns3:atemp>
          </ns3:TrackPointExtension>
        </extensions>
      </trkpt>
      <trkpt lat="42.56533448584377765655517578125" lon="20.05000348202884197235107421875">
        <ele>2162.199951171875</ele>
        <time>2026-06-15T11:32:48.000Z</time>
        <extensions>
          <ns3:TrackPointExtension>
            <ns3:atemp>17.0</ns3:atemp>
          </ns3:TrackPointExtension>
        </extensions>
      </trkpt>
      <trkpt lat="42.5653265230357646942138671875" lon="20.0500047393143177032470703125">
        <ele>2162.199951171875</ele>
        <time>2026-06-15T11:32:49.000Z</time>
        <extensions>
          <ns3:TrackPointExtension>
            <ns3:atemp>17.0</ns3:atemp>
          </ns3:TrackPointExtension>
        </extensions>
      </trkpt>
      <trkpt lat="42.56531956605613231658935546875" lon="20.04999912343919277191162109375">
        <ele>2162.199951171875</ele>
        <time>2026-06-15T11:32:50.000Z</time>
        <extensions>
          <ns3:TrackPointExtension>
            <ns3:atemp>17.0</ns3:atemp>
          </ns3:TrackPointExtension>
        </extensions>
      </trkpt>
      <trkpt lat="42.56533448584377765655517578125" lon="20.05000348202884197235107421875">
        <ele>2162.199951171875</ele>
        <time>2026-06-15T11:32:51.000Z</time>
        <extensions>
          <ns3:TrackPointExtension>
            <ns3:atemp>17.0</ns3:atemp>
          </ns3:TrackPointExtension>
        </extensions>
      </trkpt>
      <trkpt lat="42.56533448584377765655517578125" lon="20.05000348202884197235107421875">
        <ele>2162.199951171875</ele>
        <time>2026-06-15T11:32:52.000Z</time>
        <extensions>
          <ns3:TrackPointExtension>
            <ns3:atemp>17.0</ns3:atemp>
          </ns3:TrackPointExtension>
        </extensions>
      </trkpt>
      <trkpt lat="42.56533448584377765655517578125" lon="20.05000348202884197235107421875">
        <ele>2162.199951171875</ele>
        <time>2026-06-15T11:32:53.000Z</time>
        <extensions>
          <ns3:TrackPointExtension>
            <ns3:atemp>17.0</ns3:atemp>
          </ns3:TrackPointExtension>
        </extensions>
      </trkpt>
      <trkpt lat="42.56533448584377765655517578125" lon="20.05000348202884197235107421875">
        <ele>2162.199951171875</ele>
        <time>2026-06-15T11:32:54.000Z</time>
        <extensions>
          <ns3:TrackPointExtension>
            <ns3:atemp>17.0</ns3:atemp>
          </ns3:TrackPointExtension>
        </extensions>
      </trkpt>
      <trkpt lat="42.56533448584377765655517578125" lon="20.05000348202884197235107421875">
        <ele>2162.199951171875</ele>
        <time>2026-06-15T11:32:55.000Z</time>
        <extensions>
          <ns3:TrackPointExtension>
            <ns3:atemp>17.0</ns3:atemp>
          </ns3:TrackPointExtension>
        </extensions>
      </trkpt>
      <trkpt lat="42.56533448584377765655517578125" lon="20.05000348202884197235107421875">
        <ele>2162.199951171875</ele>
        <time>2026-06-15T11:32:56.000Z</time>
        <extensions>
          <ns3:TrackPointExtension>
            <ns3:atemp>17.0</ns3:atemp>
          </ns3:TrackPointExtension>
        </extensions>
      </trkpt>
      <trkpt lat="42.5653221644461154937744140625" lon="20.04999577067792415618896484375">
        <ele>2162.199951171875</ele>
        <time>2026-06-15T11:32:57.000Z</time>
        <extensions>
          <ns3:TrackPointExtension>
            <ns3:atemp>17.0</ns3:atemp>
          </ns3:TrackPointExtension>
        </extensions>
      </trkpt>
      <trkpt lat="42.5653221644461154937744140625" lon="20.04999577067792415618896484375">
        <ele>2162.199951171875</ele>
        <time>2026-06-15T11:32:58.000Z</time>
        <extensions>
          <ns3:TrackPointExtension>
            <ns3:atemp>17.0</ns3:atemp>
          </ns3:TrackPointExtension>
        </extensions>
      </trkpt>
      <trkpt lat="42.5653221644461154937744140625" lon="20.04999577067792415618896484375">
        <ele>2162.199951171875</ele>
        <time>2026-06-15T11:32:59.000Z</time>
        <extensions>
          <ns3:TrackPointExtension>
            <ns3:atemp>17.0</ns3:atemp>
          </ns3:TrackPointExtension>
        </extensions>
      </trkpt>
      <trkpt lat="42.5653221644461154937744140625" lon="20.04999577067792415618896484375">
        <ele>2162.199951171875</ele>
        <time>2026-06-15T11:33:00.000Z</time>
        <extensions>
          <ns3:TrackPointExtension>
            <ns3:atemp>17.0</ns3:atemp>
          </ns3:TrackPointExtension>
        </extensions>
      </trkpt>
      <trkpt lat="42.5653221644461154937744140625" lon="20.04999577067792415618896484375">
        <ele>2162.199951171875</ele>
        <time>2026-06-15T11:33:01.000Z</time>
        <extensions>
          <ns3:TrackPointExtension>
            <ns3:atemp>17.0</ns3:atemp>
          </ns3:TrackPointExtension>
        </extensions>
      </trkpt>
      <trkpt lat="42.5653221644461154937744140625" lon="20.04999577067792415618896484375">
        <ele>2162.199951171875</ele>
        <time>2026-06-15T11:33:02.000Z</time>
        <extensions>
          <ns3:TrackPointExtension>
            <ns3:atemp>17.0</ns3:atemp>
          </ns3:TrackPointExtension>
        </extensions>
      </trkpt>
      <trkpt lat="42.5653221644461154937744140625" lon="20.04999577067792415618896484375">
        <ele>2162.199951171875</ele>
        <time>2026-06-15T11:33:03.000Z</time>
        <extensions>
          <ns3:TrackPointExtension>
            <ns3:atemp>17.0</ns3:atemp>
          </ns3:TrackPointExtension>
        </extensions>
      </trkpt>
      <trkpt lat="42.5653221644461154937744140625" lon="20.04999577067792415618896484375">
        <ele>2162.199951171875</ele>
        <time>2026-06-15T11:33:04.000Z</time>
        <extensions>
          <ns3:TrackPointExtension>
            <ns3:atemp>17.0</ns3:atemp>
          </ns3:TrackPointExtension>
        </extensions>
      </trkpt>
      <trkpt lat="42.5653221644461154937744140625" lon="20.04999577067792415618896484375">
        <ele>2162.199951171875</ele>
        <time>2026-06-15T11:33:05.000Z</time>
        <extensions>
          <ns3:TrackPointExtension>
            <ns3:atemp>17.0</ns3:atemp>
          </ns3:TrackPointExtension>
        </extensions>
      </trkpt>
      <trkpt lat="42.5653221644461154937744140625" lon="20.04999577067792415618896484375">
        <ele>2162.199951171875</ele>
        <time>2026-06-15T11:33:06.000Z</time>
        <extensions>
          <ns3:TrackPointExtension>
            <ns3:atemp>17.0</ns3:atemp>
          </ns3:TrackPointExtension>
        </extensions>
      </trkpt>
      <trkpt lat="42.5653221644461154937744140625" lon="20.04999577067792415618896484375">
        <ele>2162.199951171875</ele>
        <time>2026-06-15T11:33:07.000Z</time>
        <extensions>
          <ns3:TrackPointExtension>
            <ns3:atemp>17.0</ns3:atemp>
          </ns3:TrackPointExtension>
        </extensions>
      </trkpt>
      <trkpt lat="42.5653221644461154937744140625" lon="20.04999577067792415618896484375">
        <ele>2162.199951171875</ele>
        <time>2026-06-15T11:33:08.000Z</time>
        <extensions>
          <ns3:TrackPointExtension>
            <ns3:atemp>17.0</ns3:atemp>
          </ns3:TrackPointExtension>
        </extensions>
      </trkpt>
      <trkpt lat="42.5653221644461154937744140625" lon="20.04999577067792415618896484375">
        <ele>2162.199951171875</ele>
        <time>2026-06-15T11:33:09.000Z</time>
        <extensions>
          <ns3:TrackPointExtension>
            <ns3:atemp>17.0</ns3:atemp>
          </ns3:TrackPointExtension>
        </extensions>
      </trkpt>
      <trkpt lat="42.565321661531925201416015625" lon="20.04999392665922641754150390625">
        <ele>2162.199951171875</ele>
        <time>2026-06-15T11:33:10.000Z</time>
        <extensions>
          <ns3:TrackPointExtension>
            <ns3:atemp>17.0</ns3:atemp>
          </ns3:TrackPointExtension>
        </extensions>
      </trkpt>
      <trkpt lat="42.5653161294758319854736328125" lon="20.04999895580112934112548828125">
        <ele>2162.199951171875</ele>
        <time>2026-06-15T11:33:11.000Z</time>
        <extensions>
          <ns3:TrackPointExtension>
            <ns3:atemp>17.0</ns3:atemp>
          </ns3:TrackPointExtension>
        </extensions>
      </trkpt>
      <trkpt lat="42.5653221644461154937744140625" lon="20.04999577067792415618896484375">
        <ele>2162.199951171875</ele>
        <time>2026-06-15T11:33:12.000Z</time>
        <extensions>
          <ns3:TrackPointExtension>
            <ns3:atemp>17.0</ns3:atemp>
          </ns3:TrackPointExtension>
        </extensions>
      </trkpt>
      <trkpt lat="42.5653221644461154937744140625" lon="20.04999577067792415618896484375">
        <ele>2162.199951171875</ele>
        <time>2026-06-15T11:33:13.000Z</time>
        <extensions>
          <ns3:TrackPointExtension>
            <ns3:atemp>17.0</ns3:atemp>
          </ns3:TrackPointExtension>
        </extensions>
      </trkpt>
      <trkpt lat="42.5653221644461154937744140625" lon="20.04999577067792415618896484375">
        <ele>2162.199951171875</ele>
        <time>2026-06-15T11:33:14.000Z</time>
        <extensions>
          <ns3:TrackPointExtension>
            <ns3:atemp>17.0</ns3:atemp>
          </ns3:TrackPointExtension>
        </extensions>
      </trkpt>
      <trkpt lat="42.5653221644461154937744140625" lon="20.04999577067792415618896484375">
        <ele>2162.199951171875</ele>
        <time>2026-06-15T11:33:15.000Z</time>
        <extensions>
          <ns3:TrackPointExtension>
            <ns3:atemp>17.0</ns3:atemp>
          </ns3:TrackPointExtension>
        </extensions>
      </trkpt>
      <trkpt lat="42.5653221644461154937744140625" lon="20.04999577067792415618896484375">
        <ele>2162.199951171875</ele>
        <time>2026-06-15T11:33:16.000Z</time>
        <extensions>
          <ns3:TrackPointExtension>
            <ns3:atemp>17.0</ns3:atemp>
          </ns3:TrackPointExtension>
        </extensions>
      </trkpt>
      <trkpt lat="42.5653221644461154937744140625" lon="20.04999577067792415618896484375">
        <ele>2162.199951171875</ele>
        <time>2026-06-15T11:33:17.000Z</time>
        <extensions>
          <ns3:TrackPointExtension>
            <ns3:atemp>17.0</ns3:atemp>
          </ns3:TrackPointExtension>
        </extensions>
      </trkpt>
      <trkpt lat="42.5653221644461154937744140625" lon="20.04999577067792415618896484375">
        <ele>2162.199951171875</ele>
        <time>2026-06-15T11:33:18.000Z</time>
        <extensions>
          <ns3:TrackPointExtension>
            <ns3:atemp>17.0</ns3:atemp>
          </ns3:TrackPointExtension>
        </extensions>
      </trkpt>
      <trkpt lat="42.5653221644461154937744140625" lon="20.04999577067792415618896484375">
        <ele>2162.199951171875</ele>
        <time>2026-06-15T11:33:19.000Z</time>
        <extensions>
          <ns3:TrackPointExtension>
            <ns3:atemp>17.0</ns3:atemp>
          </ns3:TrackPointExtension>
        </extensions>
      </trkpt>
      <trkpt lat="42.5653221644461154937744140625" lon="20.04999577067792415618896484375">
        <ele>2162.199951171875</ele>
        <time>2026-06-15T11:33:20.000Z</time>
        <extensions>
          <ns3:TrackPointExtension>
            <ns3:atemp>17.0</ns3:atemp>
          </ns3:TrackPointExtension>
        </extensions>
      </trkpt>
      <trkpt lat="42.5653221644461154937744140625" lon="20.04999577067792415618896484375">
        <ele>2162.199951171875</ele>
        <time>2026-06-15T11:33:21.000Z</time>
        <extensions>
          <ns3:TrackPointExtension>
            <ns3:atemp>17.0</ns3:atemp>
          </ns3:TrackPointExtension>
        </extensions>
      </trkpt>
      <trkpt lat="42.5653221644461154937744140625" lon="20.04999577067792415618896484375">
        <ele>2162.199951171875</ele>
        <time>2026-06-15T11:33:22.000Z</time>
        <extensions>
          <ns3:TrackPointExtension>
            <ns3:atemp>17.0</ns3:atemp>
          </ns3:TrackPointExtension>
        </extensions>
      </trkpt>
      <trkpt lat="42.5653221644461154937744140625" lon="20.04999577067792415618896484375">
        <ele>2162.199951171875</ele>
        <time>2026-06-15T11:33:23.000Z</time>
        <extensions>
          <ns3:TrackPointExtension>
            <ns3:atemp>17.0</ns3:atemp>
          </ns3:TrackPointExtension>
        </extensions>
      </trkpt>
      <trkpt lat="42.5653221644461154937744140625" lon="20.04999577067792415618896484375">
        <ele>2162.199951171875</ele>
        <time>2026-06-15T11:33:24.000Z</time>
        <extensions>
          <ns3:TrackPointExtension>
            <ns3:atemp>17.0</ns3:atemp>
          </ns3:TrackPointExtension>
        </extensions>
      </trkpt>
      <trkpt lat="42.5653221644461154937744140625" lon="20.04999577067792415618896484375">
        <ele>2162.199951171875</ele>
        <time>2026-06-15T11:33:25.000Z</time>
        <extensions>
          <ns3:TrackPointExtension>
            <ns3:atemp>17.0</ns3:atemp>
          </ns3:TrackPointExtension>
        </extensions>
      </trkpt>
      <trkpt lat="42.5653221644461154937744140625" lon="20.04999577067792415618896484375">
        <ele>2162.199951171875</ele>
        <time>2026-06-15T11:33:26.000Z</time>
        <extensions>
          <ns3:TrackPointExtension>
            <ns3:atemp>17.0</ns3:atemp>
          </ns3:TrackPointExtension>
        </extensions>
      </trkpt>
      <trkpt lat="42.5653221644461154937744140625" lon="20.04999577067792415618896484375">
        <ele>2162.199951171875</ele>
        <time>2026-06-15T11:33:27.000Z</time>
        <extensions>
          <ns3:TrackPointExtension>
            <ns3:atemp>17.0</ns3:atemp>
          </ns3:TrackPointExtension>
        </extensions>
      </trkpt>
      <trkpt lat="42.5653221644461154937744140625" lon="20.04999577067792415618896484375">
        <ele>2162.199951171875</ele>
        <time>2026-06-15T11:33:28.000Z</time>
        <extensions>
          <ns3:TrackPointExtension>
            <ns3:atemp>17.0</ns3:atemp>
          </ns3:TrackPointExtension>
        </extensions>
      </trkpt>
      <trkpt lat="42.5653221644461154937744140625" lon="20.04999577067792415618896484375">
        <ele>2162.199951171875</ele>
        <time>2026-06-15T11:33:29.000Z</time>
        <extensions>
          <ns3:TrackPointExtension>
            <ns3:atemp>17.0</ns3:atemp>
          </ns3:TrackPointExtension>
        </extensions>
      </trkpt>
      <trkpt lat="42.5653221644461154937744140625" lon="20.04999577067792415618896484375">
        <ele>2162.199951171875</ele>
        <time>2026-06-15T11:33:30.000Z</time>
        <extensions>
          <ns3:TrackPointExtension>
            <ns3:atemp>17.0</ns3:atemp>
          </ns3:TrackPointExtension>
        </extensions>
      </trkpt>
      <trkpt lat="42.5653221644461154937744140625" lon="20.04999577067792415618896484375">
        <ele>2162.199951171875</ele>
        <time>2026-06-15T11:33:31.000Z</time>
        <extensions>
          <ns3:TrackPointExtension>
            <ns3:atemp>17.0</ns3:atemp>
          </ns3:TrackPointExtension>
        </extensions>
      </trkpt>
      <trkpt lat="42.5653221644461154937744140625" lon="20.04999577067792415618896484375">
        <ele>2162.199951171875</ele>
        <time>2026-06-15T11:33:32.000Z</time>
        <extensions>
          <ns3:TrackPointExtension>
            <ns3:atemp>17.0</ns3:atemp>
          </ns3:TrackPointExtension>
        </extensions>
      </trkpt>
      <trkpt lat="42.5653221644461154937744140625" lon="20.04999577067792415618896484375">
        <ele>2162.199951171875</ele>
        <time>2026-06-15T11:33:33.000Z</time>
        <extensions>
          <ns3:TrackPointExtension>
            <ns3:atemp>17.0</ns3:atemp>
          </ns3:TrackPointExtension>
        </extensions>
      </trkpt>
      <trkpt lat="42.5653221644461154937744140625" lon="20.04999577067792415618896484375">
        <ele>2162.199951171875</ele>
        <time>2026-06-15T11:33:34.000Z</time>
        <extensions>
          <ns3:TrackPointExtension>
            <ns3:atemp>17.0</ns3:atemp>
          </ns3:TrackPointExtension>
        </extensions>
      </trkpt>
      <trkpt lat="42.5653221644461154937744140625" lon="20.04999577067792415618896484375">
        <ele>2162.199951171875</ele>
        <time>2026-06-15T11:33:35.000Z</time>
        <extensions>
          <ns3:TrackPointExtension>
            <ns3:atemp>17.0</ns3:atemp>
          </ns3:TrackPointExtension>
        </extensions>
      </trkpt>
      <trkpt lat="42.5653221644461154937744140625" lon="20.04999577067792415618896484375">
        <ele>2162.199951171875</ele>
        <time>2026-06-15T11:33:36.000Z</time>
        <extensions>
          <ns3:TrackPointExtension>
            <ns3:atemp>17.0</ns3:atemp>
          </ns3:TrackPointExtension>
        </extensions>
      </trkpt>
      <trkpt lat="42.5653221644461154937744140625" lon="20.04999577067792415618896484375">
        <ele>2162.199951171875</ele>
        <time>2026-06-15T11:33:37.000Z</time>
        <extensions>
          <ns3:TrackPointExtension>
            <ns3:atemp>17.0</ns3:atemp>
          </ns3:TrackPointExtension>
        </extensions>
      </trkpt>
      <trkpt lat="42.5653221644461154937744140625" lon="20.04999577067792415618896484375">
        <ele>2162.199951171875</ele>
        <time>2026-06-15T11:33:38.000Z</time>
        <extensions>
          <ns3:TrackPointExtension>
            <ns3:atemp>17.0</ns3:atemp>
          </ns3:TrackPointExtension>
        </extensions>
      </trkpt>
      <trkpt lat="42.5653221644461154937744140625" lon="20.04999577067792415618896484375">
        <ele>2162.199951171875</ele>
        <time>2026-06-15T11:33:39.000Z</time>
        <extensions>
          <ns3:TrackPointExtension>
            <ns3:atemp>17.0</ns3:atemp>
          </ns3:TrackPointExtension>
        </extensions>
      </trkpt>
      <trkpt lat="42.5653221644461154937744140625" lon="20.04999577067792415618896484375">
        <ele>2162.199951171875</ele>
        <time>2026-06-15T11:33:40.000Z</time>
        <extensions>
          <ns3:TrackPointExtension>
            <ns3:atemp>17.0</ns3:atemp>
          </ns3:TrackPointExtension>
        </extensions>
      </trkpt>
      <trkpt lat="42.5653221644461154937744140625" lon="20.04999577067792415618896484375">
        <ele>2162.199951171875</ele>
        <time>2026-06-15T11:33:41.000Z</time>
        <extensions>
          <ns3:TrackPointExtension>
            <ns3:atemp>17.0</ns3:atemp>
          </ns3:TrackPointExtension>
        </extensions>
      </trkpt>
      <trkpt lat="42.5653221644461154937744140625" lon="20.04999577067792415618896484375">
        <ele>2162.199951171875</ele>
        <time>2026-06-15T11:33:42.000Z</time>
        <extensions>
          <ns3:TrackPointExtension>
            <ns3:atemp>17.0</ns3:atemp>
          </ns3:TrackPointExtension>
        </extensions>
      </trkpt>
      <trkpt lat="42.5653221644461154937744140625" lon="20.04999577067792415618896484375">
        <ele>2162.199951171875</ele>
        <time>2026-06-15T11:33:43.000Z</time>
        <extensions>
          <ns3:TrackPointExtension>
            <ns3:atemp>17.0</ns3:atemp>
          </ns3:TrackPointExtension>
        </extensions>
      </trkpt>
      <trkpt lat="42.5653221644461154937744140625" lon="20.04999577067792415618896484375">
        <ele>2162.199951171875</ele>
        <time>2026-06-15T11:33:44.000Z</time>
        <extensions>
          <ns3:TrackPointExtension>
            <ns3:atemp>17.0</ns3:atemp>
          </ns3:TrackPointExtension>
        </extensions>
      </trkpt>
      <trkpt lat="42.56531797349452972412109375" lon="20.0500010512769222259521484375">
        <ele>2160</ele>
        <time>2026-06-15T11:33:45.000Z</time>
        <extensions>
          <ns3:TrackPointExtension>
            <ns3:atemp>17.0</ns3:atemp>
          </ns3:TrackPointExtension>
        </extensions>
      </trkpt>
      <trkpt lat="42.56531235761940479278564453125" lon="20.050001554191112518310546875">
        <ele>2160</ele>
        <time>2026-06-15T11:33:46.000Z</time>
        <extensions>
          <ns3:TrackPointExtension>
            <ns3:atemp>17.0</ns3:atemp>
          </ns3:TrackPointExtension>
        </extensions>
      </trkpt>
      <trkpt lat="42.5653221644461154937744140625" lon="20.04999577067792415618896484375">
        <ele>2160</ele>
        <time>2026-06-15T11:33:47.000Z</time>
        <extensions>
          <ns3:TrackPointExtension>
            <ns3:atemp>17.0</ns3:atemp>
          </ns3:TrackPointExtension>
        </extensions>
      </trkpt>
      <trkpt lat="42.5653221644461154937744140625" lon="20.04999577067792415618896484375">
        <ele>2160</ele>
        <time>2026-06-15T11:33:48.000Z</time>
        <extensions>
          <ns3:TrackPointExtension>
            <ns3:atemp>17.0</ns3:atemp>
          </ns3:TrackPointExtension>
        </extensions>
      </trkpt>
      <trkpt lat="42.56531185470521450042724609375" lon="20.0500013865530490875244140625">
        <ele>2160.199951171875</ele>
        <time>2026-06-15T11:33:49.000Z</time>
        <extensions>
          <ns3:TrackPointExtension>
            <ns3:atemp>17.0</ns3:atemp>
          </ns3:TrackPointExtension>
        </extensions>
      </trkpt>
      <trkpt lat="42.565304897725582122802734375" lon="20.05002259276807308197021484375">
        <ele>2160.60009765625</ele>
        <time>2026-06-15T11:33:50.000Z</time>
        <extensions>
          <ns3:TrackPointExtension>
            <ns3:atemp>17.0</ns3:atemp>
          </ns3:TrackPointExtension>
        </extensions>
      </trkpt>
      <trkpt lat="42.5653007067739963531494140625" lon="20.05003617145121097564697265625">
        <ele>2160.800048828125</ele>
        <time>2026-06-15T11:33:51.000Z</time>
        <extensions>
          <ns3:TrackPointExtension>
            <ns3:atemp>17.0</ns3:atemp>
          </ns3:TrackPointExtension>
        </extensions>
      </trkpt>
      <trkpt lat="42.5653047300875186920166015625" lon="20.05004170350730419158935546875">
        <ele>2161</ele>
        <time>2026-06-15T11:33:52.000Z</time>
        <extensions>
          <ns3:TrackPointExtension>
            <ns3:atemp>17.0</ns3:atemp>
          </ns3:TrackPointExtension>
        </extensions>
      </trkpt>
      <trkpt lat="42.5653074122965335845947265625" lon="20.05004555918276309967041015625">
        <ele>2161.199951171875</ele>
        <time>2026-06-15T11:33:53.000Z</time>
        <extensions>
          <ns3:TrackPointExtension>
            <ns3:atemp>17.0</ns3:atemp>
          </ns3:TrackPointExtension>
        </extensions>
      </trkpt>
      <trkpt lat="42.5653087534010410308837890625" lon="20.05004949867725372314453125">
        <ele>2161.199951171875</ele>
        <time>2026-06-15T11:33:54.000Z</time>
        <extensions>
          <ns3:TrackPointExtension>
            <ns3:atemp>17.0</ns3:atemp>
          </ns3:TrackPointExtension>
        </extensions>
      </trkpt>
      <trkpt lat="42.5653087534010410308837890625" lon="20.05004949867725372314453125">
        <ele>2161.199951171875</ele>
        <time>2026-06-15T11:33:55.000Z</time>
        <extensions>
          <ns3:TrackPointExtension>
            <ns3:atemp>17.0</ns3:atemp>
          </ns3:TrackPointExtension>
        </extensions>
      </trkpt>
      <trkpt lat="42.5653087534010410308837890625" lon="20.05004949867725372314453125">
        <ele>2161.199951171875</ele>
        <time>2026-06-15T11:33:56.000Z</time>
        <extensions>
          <ns3:TrackPointExtension>
            <ns3:atemp>16.0</ns3:atemp>
          </ns3:TrackPointExtension>
        </extensions>
      </trkpt>
      <trkpt lat="42.5653087534010410308837890625" lon="20.05004949867725372314453125">
        <ele>2161.199951171875</ele>
        <time>2026-06-15T11:33:57.000Z</time>
        <extensions>
          <ns3:TrackPointExtension>
            <ns3:atemp>16.0</ns3:atemp>
          </ns3:TrackPointExtension>
        </extensions>
      </trkpt>
      <trkpt lat="42.5653087534010410308837890625" lon="20.05004949867725372314453125">
        <ele>2161.199951171875</ele>
        <time>2026-06-15T11:33:58.000Z</time>
        <extensions>
          <ns3:TrackPointExtension>
            <ns3:atemp>16.0</ns3:atemp>
          </ns3:TrackPointExtension>
        </extensions>
      </trkpt>
      <trkpt lat="42.5653087534010410308837890625" lon="20.05004949867725372314453125">
        <ele>2161.199951171875</ele>
        <time>2026-06-15T11:33:59.000Z</time>
        <extensions>
          <ns3:TrackPointExtension>
            <ns3:atemp>16.0</ns3:atemp>
          </ns3:TrackPointExtension>
        </extensions>
      </trkpt>
      <trkpt lat="42.5653087534010410308837890625" lon="20.05004949867725372314453125">
        <ele>2161.199951171875</ele>
        <time>2026-06-15T11:34:00.000Z</time>
        <extensions>
          <ns3:TrackPointExtension>
            <ns3:atemp>16.0</ns3:atemp>
          </ns3:TrackPointExtension>
        </extensions>
      </trkpt>
      <trkpt lat="42.5653087534010410308837890625" lon="20.05004949867725372314453125">
        <ele>2161.199951171875</ele>
        <time>2026-06-15T11:34:01.000Z</time>
        <extensions>
          <ns3:TrackPointExtension>
            <ns3:atemp>16.0</ns3:atemp>
          </ns3:TrackPointExtension>
        </extensions>
      </trkpt>
      <trkpt lat="42.5653087534010410308837890625" lon="20.05004891194403171539306640625">
        <ele>2161.199951171875</ele>
        <time>2026-06-15T11:34:02.000Z</time>
        <extensions>
          <ns3:TrackPointExtension>
            <ns3:atemp>16.0</ns3:atemp>
          </ns3:TrackPointExtension>
        </extensions>
      </trkpt>
      <trkpt lat="42.56530799902975559234619140625" lon="20.05006953142583370208740234375">
        <ele>2161.199951171875</ele>
        <time>2026-06-15T11:34:03.000Z</time>
        <extensions>
          <ns3:TrackPointExtension>
            <ns3:atemp>16.0</ns3:atemp>
          </ns3:TrackPointExtension>
        </extensions>
      </trkpt>
      <trkpt lat="42.56531084887683391571044921875" lon="20.050089396536350250244140625">
        <ele>2161.199951171875</ele>
        <time>2026-06-15T11:34:04.000Z</time>
        <extensions>
          <ns3:TrackPointExtension>
            <ns3:atemp>16.0</ns3:atemp>
          </ns3:TrackPointExtension>
        </extensions>
      </trkpt>
      <trkpt lat="42.5653104297816753387451171875" lon="20.05012569017708301544189453125">
        <ele>2161</ele>
        <time>2026-06-15T11:34:05.000Z</time>
        <extensions>
          <ns3:TrackPointExtension>
            <ns3:atemp>16.0</ns3:atemp>
          </ns3:TrackPointExtension>
        </extensions>
      </trkpt>
      <trkpt lat="42.56530632264912128448486328125" lon="20.05017447285354137420654296875">
        <ele>2160.800048828125</ele>
        <time>2026-06-15T11:34:06.000Z</time>
        <extensions>
          <ns3:TrackPointExtension>
            <ns3:atemp>16.0</ns3:atemp>
          </ns3:TrackPointExtension>
        </extensions>
      </trkpt>
      <trkpt lat="42.56529442034661769866943359375" lon="20.05023457109928131103515625">
        <ele>2160.39990234375</ele>
        <time>2026-06-15T11:34:07.000Z</time>
        <extensions>
          <ns3:TrackPointExtension>
            <ns3:atemp>16.0</ns3:atemp>
          </ns3:TrackPointExtension>
        </extensions>
      </trkpt>
      <trkpt lat="42.56527598015964031219482421875" lon="20.05030028522014617919921875">
        <ele>2160</ele>
        <time>2026-06-15T11:34:08.000Z</time>
        <extensions>
          <ns3:TrackPointExtension>
            <ns3:atemp>16.0</ns3:atemp>
          </ns3:TrackPointExtension>
        </extensions>
      </trkpt>
      <trkpt lat="42.56526541896164417266845703125" lon="20.05036197602748870849609375">
        <ele>2159.199951171875</ele>
        <time>2026-06-15T11:34:09.000Z</time>
        <extensions>
          <ns3:TrackPointExtension>
            <ns3:atemp>16.0</ns3:atemp>
          </ns3:TrackPointExtension>
        </extensions>
      </trkpt>
      <trkpt lat="42.565259635448455810546875" lon="20.05041872151196002960205078125">
        <ele>2158.60009765625</ele>
        <time>2026-06-15T11:34:10.000Z</time>
        <extensions>
          <ns3:TrackPointExtension>
            <ns3:atemp>16.0</ns3:atemp>
          </ns3:TrackPointExtension>
        </extensions>
      </trkpt>
      <trkpt lat="42.5652618147432804107666015625" lon="20.05046247504651546478271484375">
        <ele>2158.199951171875</ele>
        <time>2026-06-15T11:34:11.000Z</time>
        <extensions>
          <ns3:TrackPointExtension>
            <ns3:atemp>16.0</ns3:atemp>
          </ns3:TrackPointExtension>
        </extensions>
      </trkpt>
      <trkpt lat="42.565268017351627349853515625" lon="20.0504989363253116607666015625">
        <ele>2157.800048828125</ele>
        <time>2026-06-15T11:34:12.000Z</time>
        <extensions>
          <ns3:TrackPointExtension>
            <ns3:atemp>16.0</ns3:atemp>
          </ns3:TrackPointExtension>
        </extensions>
      </trkpt>
      <trkpt lat="42.56527245976030826568603515625" lon="20.050526596605777740478515625">
        <ele>2157.39990234375</ele>
        <time>2026-06-15T11:34:13.000Z</time>
        <extensions>
          <ns3:TrackPointExtension>
            <ns3:atemp>16.0</ns3:atemp>
          </ns3:TrackPointExtension>
        </extensions>
      </trkpt>
      <trkpt lat="42.56527983583509922027587890625" lon="20.0505428574979305267333984375">
        <ele>2157</ele>
        <time>2026-06-15T11:34:14.000Z</time>
        <extensions>
          <ns3:TrackPointExtension>
            <ns3:atemp>16.0</ns3:atemp>
          </ns3:TrackPointExtension>
        </extensions>
      </trkpt>
      <trkpt lat="42.56527849473059177398681640625" lon="20.0505653209984302520751953125">
        <ele>2156.60009765625</ele>
        <time>2026-06-15T11:34:15.000Z</time>
        <extensions>
          <ns3:TrackPointExtension>
            <ns3:atemp>16.0</ns3:atemp>
          </ns3:TrackPointExtension>
        </extensions>
      </trkpt>
      <trkpt lat="42.56527329795062541961669921875" lon="20.0505851022899150848388671875">
        <ele>2156.199951171875</ele>
        <time>2026-06-15T11:34:16.000Z</time>
        <extensions>
          <ns3:TrackPointExtension>
            <ns3:atemp>16.0</ns3:atemp>
          </ns3:TrackPointExtension>
        </extensions>
      </trkpt>
      <trkpt lat="42.565270029008388519287109375" lon="20.0506062246859073638916015625">
        <ele>2155.800048828125</ele>
        <time>2026-06-15T11:34:17.000Z</time>
        <extensions>
          <ns3:TrackPointExtension>
            <ns3:atemp>16.0</ns3:atemp>
          </ns3:TrackPointExtension>
        </extensions>
      </trkpt>
      <trkpt lat="42.5652730464935302734375" lon="20.05062910728156566619873046875">
        <ele>2155.39990234375</ele>
        <time>2026-06-15T11:34:18.000Z</time>
        <extensions>
          <ns3:TrackPointExtension>
            <ns3:atemp>16.0</ns3:atemp>
          </ns3:TrackPointExtension>
        </extensions>
      </trkpt>
      <trkpt lat="42.5652732141315937042236328125" lon="20.0506581924855709075927734375">
        <ele>2155</ele>
        <time>2026-06-15T11:34:19.000Z</time>
        <extensions>
          <ns3:TrackPointExtension>
            <ns3:atemp>16.0</ns3:atemp>
          </ns3:TrackPointExtension>
        </extensions>
      </trkpt>
      <trkpt lat="42.56526676006615161895751953125" lon="20.05069348029792308807373046875">
        <ele>2154.60009765625</ele>
        <time>2026-06-15T11:34:20.000Z</time>
        <extensions>
          <ns3:TrackPointExtension>
            <ns3:atemp>16.0</ns3:atemp>
          </ns3:TrackPointExtension>
        </extensions>
      </trkpt>
      <trkpt lat="42.56526835262775421142578125" lon="20.0507341325283050537109375">
        <ele>2154</ele>
        <time>2026-06-15T11:34:21.000Z</time>
        <extensions>
          <ns3:TrackPointExtension>
            <ns3:atemp>16.0</ns3:atemp>
          </ns3:TrackPointExtension>
        </extensions>
      </trkpt>
      <trkpt lat="42.56528050638735294342041015625" lon="20.050759278237819671630859375">
        <ele>2153.199951171875</ele>
        <time>2026-06-15T11:34:22.000Z</time>
        <extensions>
          <ns3:TrackPointExtension>
            <ns3:atemp>16.0</ns3:atemp>
          </ns3:TrackPointExtension>
        </extensions>
      </trkpt>
      <trkpt lat="42.56529710255563259124755859375" lon="20.05077210254967212677001953125">
        <ele>2152.60009765625</ele>
        <time>2026-06-15T11:34:23.000Z</time>
        <extensions>
          <ns3:TrackPointExtension>
            <ns3:atemp>16.0</ns3:atemp>
          </ns3:TrackPointExtension>
        </extensions>
      </trkpt>
      <trkpt lat="42.5653194822371006011962890625" lon="20.05077813751995563507080078125">
        <ele>2152</ele>
        <time>2026-06-15T11:34:24.000Z</time>
        <extensions>
          <ns3:TrackPointExtension>
            <ns3:atemp>16.0</ns3:atemp>
          </ns3:TrackPointExtension>
        </extensions>
      </trkpt>
      <trkpt lat="42.5653473101556301116943359375" lon="20.050782747566699981689453125">
        <ele>2151.199951171875</ele>
        <time>2026-06-15T11:34:25.000Z</time>
        <extensions>
          <ns3:TrackPointExtension>
            <ns3:atemp>16.0</ns3:atemp>
          </ns3:TrackPointExtension>
        </extensions>
      </trkpt>
      <trkpt lat="42.56537304259836673736572265625" lon="20.05078232847154140472412109375">
        <ele>2150.60009765625</ele>
        <time>2026-06-15T11:34:26.000Z</time>
        <extensions>
          <ns3:TrackPointExtension>
            <ns3:atemp>16.0</ns3:atemp>
          </ns3:TrackPointExtension>
        </extensions>
      </trkpt>
      <trkpt lat="42.56539952941238880157470703125" lon="20.05077931098639965057373046875">
        <ele>2150</ele>
        <time>2026-06-15T11:34:27.000Z</time>
        <extensions>
          <ns3:TrackPointExtension>
            <ns3:atemp>16.0</ns3:atemp>
          </ns3:TrackPointExtension>
        </extensions>
      </trkpt>
      <trkpt lat="42.56542081944644451141357421875" lon="20.0507772155106067657470703125">
        <ele>2149.60009765625</ele>
        <time>2026-06-15T11:34:28.000Z</time>
        <extensions>
          <ns3:TrackPointExtension>
            <ns3:atemp>16.0</ns3:atemp>
          </ns3:TrackPointExtension>
        </extensions>
      </trkpt>
      <trkpt lat="42.56544898264110088348388671875" lon="20.050768665969371795654296875">
        <ele>2148.800048828125</ele>
        <time>2026-06-15T11:34:29.000Z</time>
        <extensions>
          <ns3:TrackPointExtension>
            <ns3:atemp>16.0</ns3:atemp>
          </ns3:TrackPointExtension>
        </extensions>
      </trkpt>
      <trkpt lat="42.56547060795128345489501953125" lon="20.0507604517042636871337890625">
        <ele>2148.199951171875</ele>
        <time>2026-06-15T11:34:30.000Z</time>
        <extensions>
          <ns3:TrackPointExtension>
            <ns3:atemp>16.0</ns3:atemp>
          </ns3:TrackPointExtension>
        </extensions>
      </trkpt>
      <trkpt lat="42.56548519246280193328857421875" lon="20.0507547520101070404052734375">
        <ele>2147.800048828125</ele>
        <time>2026-06-15T11:34:31.000Z</time>
        <extensions>
          <ns3:TrackPointExtension>
            <ns3:atemp>16.0</ns3:atemp>
          </ns3:TrackPointExtension>
        </extensions>
      </trkpt>
      <trkpt lat="42.565499357879161834716796875" lon="20.05074293352663516998291015625">
        <ele>2147.39990234375</ele>
        <time>2026-06-15T11:34:32.000Z</time>
        <extensions>
          <ns3:TrackPointExtension>
            <ns3:atemp>16.0</ns3:atemp>
          </ns3:TrackPointExtension>
        </extensions>
      </trkpt>
      <trkpt lat="42.565510086715221405029296875" lon="20.050725750625133514404296875">
        <ele>2147</ele>
        <time>2026-06-15T11:34:33.000Z</time>
        <extensions>
          <ns3:TrackPointExtension>
            <ns3:atemp>16.0</ns3:atemp>
          </ns3:TrackPointExtension>
        </extensions>
      </trkpt>
      <trkpt lat="42.56551972590386867523193359375" lon="20.05070806480944156646728515625">
        <ele>2146.800048828125</ele>
        <time>2026-06-15T11:34:34.000Z</time>
        <extensions>
          <ns3:TrackPointExtension>
            <ns3:atemp>16.0</ns3:atemp>
          </ns3:TrackPointExtension>
        </extensions>
      </trkpt>
      <trkpt lat="42.5655318796634674072265625" lon="20.0506876967847347259521484375">
        <ele>2146.60009765625</ele>
        <time>2026-06-15T11:34:35.000Z</time>
        <extensions>
          <ns3:TrackPointExtension>
            <ns3:atemp>16.0</ns3:atemp>
          </ns3:TrackPointExtension>
        </extensions>
      </trkpt>
      <trkpt lat="42.5655434466898441314697265625" lon="20.05067118443548679351806640625">
        <ele>2146.60009765625</ele>
        <time>2026-06-15T11:34:36.000Z</time>
        <extensions>
          <ns3:TrackPointExtension>
            <ns3:atemp>16.0</ns3:atemp>
          </ns3:TrackPointExtension>
        </extensions>
      </trkpt>
      <trkpt lat="42.56555358879268169403076171875" lon="20.05065408535301685333251953125">
        <ele>2146.60009765625</ele>
        <time>2026-06-15T11:34:37.000Z</time>
        <extensions>
          <ns3:TrackPointExtension>
            <ns3:atemp>16.0</ns3:atemp>
          </ns3:TrackPointExtension>
        </extensions>
      </trkpt>
      <trkpt lat="42.56556616164743900299072265625" lon="20.05063480697572231292724609375">
        <ele>2146.60009765625</ele>
        <time>2026-06-15T11:34:38.000Z</time>
        <extensions>
          <ns3:TrackPointExtension>
            <ns3:atemp>16.0</ns3:atemp>
          </ns3:TrackPointExtension>
        </extensions>
      </trkpt>
      <trkpt lat="42.565574459731578826904296875" lon="20.05061921663582324981689453125">
        <ele>2146.60009765625</ele>
        <time>2026-06-15T11:34:39.000Z</time>
        <extensions>
          <ns3:TrackPointExtension>
            <ns3:atemp>16.0</ns3:atemp>
          </ns3:TrackPointExtension>
        </extensions>
      </trkpt>
      <trkpt lat="42.565583176910877227783203125" lon="20.05060672760009765625">
        <ele>2146.60009765625</ele>
        <time>2026-06-15T11:34:40.000Z</time>
        <extensions>
          <ns3:TrackPointExtension>
            <ns3:atemp>16.0</ns3:atemp>
          </ns3:TrackPointExtension>
        </extensions>
      </trkpt>
      <trkpt lat="42.565591894090175628662109375" lon="20.0505965016782283782958984375">
        <ele>2146.60009765625</ele>
        <time>2026-06-15T11:34:41.000Z</time>
        <extensions>
          <ns3:TrackPointExtension>
            <ns3:atemp>16.0</ns3:atemp>
          </ns3:TrackPointExtension>
        </extensions>
      </trkpt>
      <trkpt lat="42.56560840643942356109619140625" lon="20.05057990550994873046875">
        <ele>2146.39990234375</ele>
        <time>2026-06-15T11:34:42.000Z</time>
        <extensions>
          <ns3:TrackPointExtension>
            <ns3:atemp>16.0</ns3:atemp>
          </ns3:TrackPointExtension>
        </extensions>
      </trkpt>
      <trkpt lat="42.5656242482364177703857421875" lon="20.0505616329610347747802734375">
        <ele>2146.199951171875</ele>
        <time>2026-06-15T11:34:43.000Z</time>
        <extensions>
          <ns3:TrackPointExtension>
            <ns3:atemp>16.0</ns3:atemp>
          </ns3:TrackPointExtension>
        </extensions>
      </trkpt>
      <trkpt lat="42.56564059294760227203369140625" lon="20.05054210312664508819580078125">
        <ele>2146</ele>
        <time>2026-06-15T11:34:44.000Z</time>
        <extensions>
          <ns3:TrackPointExtension>
            <ns3:atemp>16.0</ns3:atemp>
          </ns3:TrackPointExtension>
        </extensions>
      </trkpt>
      <trkpt lat="42.56565165705978870391845703125" lon="20.05051393993198871612548828125">
        <ele>2145.60009765625</ele>
        <time>2026-06-15T11:34:45.000Z</time>
        <extensions>
          <ns3:TrackPointExtension>
            <ns3:atemp>16.0</ns3:atemp>
          </ns3:TrackPointExtension>
        </extensions>
      </trkpt>
      <trkpt lat="42.565664313733577728271484375" lon="20.050491392612457275390625">
        <ele>2145.39990234375</ele>
        <time>2026-06-15T11:34:46.000Z</time>
        <extensions>
          <ns3:TrackPointExtension>
            <ns3:atemp>16.0</ns3:atemp>
          </ns3:TrackPointExtension>
        </extensions>
      </trkpt>
      <trkpt lat="42.56567965261638164520263671875" lon="20.050479657948017120361328125">
        <ele>2145.39990234375</ele>
        <time>2026-06-15T11:34:47.000Z</time>
        <extensions>
          <ns3:TrackPointExtension>
            <ns3:atemp>16.0</ns3:atemp>
          </ns3:TrackPointExtension>
        </extensions>
      </trkpt>
      <trkpt lat="42.56569423712790012359619140625" lon="20.0504751317203044891357421875">
        <ele>2145.199951171875</ele>
        <time>2026-06-15T11:34:48.000Z</time>
        <extensions>
          <ns3:TrackPointExtension>
            <ns3:atemp>16.0</ns3:atemp>
          </ns3:TrackPointExtension>
        </extensions>
      </trkpt>
      <trkpt lat="42.5657134316861629486083984375" lon="20.05047789774835109710693359375">
        <ele>2145.199951171875</ele>
        <time>2026-06-15T11:34:49.000Z</time>
        <extensions>
          <ns3:TrackPointExtension>
            <ns3:atemp>16.0</ns3:atemp>
          </ns3:TrackPointExtension>
        </extensions>
      </trkpt>
      <trkpt lat="42.5657315365970134735107421875" lon="20.05048535764217376708984375">
        <ele>2145.199951171875</ele>
        <time>2026-06-15T11:34:50.000Z</time>
        <extensions>
          <ns3:TrackPointExtension>
            <ns3:atemp>16.0</ns3:atemp>
          </ns3:TrackPointExtension>
        </extensions>
      </trkpt>
      <trkpt lat="42.56575341336429119110107421875" lon="20.05049399100244045257568359375">
        <ele>2145.199951171875</ele>
        <time>2026-06-15T11:34:51.000Z</time>
        <extensions>
          <ns3:TrackPointExtension>
            <ns3:atemp>16.0</ns3:atemp>
          </ns3:TrackPointExtension>
        </extensions>
      </trkpt>
      <trkpt lat="42.5657771341502666473388671875" lon="20.050498433411121368408203125">
        <ele>2145.199951171875</ele>
        <time>2026-06-15T11:34:52.000Z</time>
        <extensions>
          <ns3:TrackPointExtension>
            <ns3:atemp>16.0</ns3:atemp>
          </ns3:TrackPointExtension>
        </extensions>
      </trkpt>
      <trkpt lat="42.56580219604074954986572265625" lon="20.0505007803440093994140625">
        <ele>2145.199951171875</ele>
        <time>2026-06-15T11:34:53.000Z</time>
        <extensions>
          <ns3:TrackPointExtension>
            <ns3:atemp>16.0</ns3:atemp>
          </ns3:TrackPointExtension>
        </extensions>
      </trkpt>
      <trkpt lat="42.56582885049283504486083984375" lon="20.050509162247180938720703125">
        <ele>2145.199951171875</ele>
        <time>2026-06-15T11:34:54.000Z</time>
        <extensions>
          <ns3:TrackPointExtension>
            <ns3:atemp>16.0</ns3:atemp>
          </ns3:TrackPointExtension>
        </extensions>
      </trkpt>
      <trkpt lat="42.5658562593162059783935546875" lon="20.05052064545452594757080078125">
        <ele>2145.199951171875</ele>
        <time>2026-06-15T11:34:55.000Z</time>
        <extensions>
          <ns3:TrackPointExtension>
            <ns3:atemp>16.0</ns3:atemp>
          </ns3:TrackPointExtension>
        </extensions>
      </trkpt>
      <trkpt lat="42.5658859312534332275390625" lon="20.0505361519753932952880859375">
        <ele>2145.39990234375</ele>
        <time>2026-06-15T11:34:56.000Z</time>
        <extensions>
          <ns3:TrackPointExtension>
            <ns3:atemp>16.0</ns3:atemp>
          </ns3:TrackPointExtension>
        </extensions>
      </trkpt>
      <trkpt lat="42.56591082550585269927978515625" lon="20.050551407039165496826171875">
        <ele>2145.39990234375</ele>
        <time>2026-06-15T11:34:57.000Z</time>
        <extensions>
          <ns3:TrackPointExtension>
            <ns3:atemp>16.0</ns3:atemp>
          </ns3:TrackPointExtension>
        </extensions>
      </trkpt>
      <trkpt lat="42.5659270025789737701416015625" lon="20.0505680032074451446533203125">
        <ele>2145.39990234375</ele>
        <time>2026-06-15T11:34:58.000Z</time>
        <extensions>
          <ns3:TrackPointExtension>
            <ns3:atemp>16.0</ns3:atemp>
          </ns3:TrackPointExtension>
        </extensions>
      </trkpt>
      <trkpt lat="42.56594292819499969482421875" lon="20.050566829741001129150390625">
        <ele>2145.60009765625</ele>
        <time>2026-06-15T11:34:59.000Z</time>
        <extensions>
          <ns3:TrackPointExtension>
            <ns3:atemp>16.0</ns3:atemp>
          </ns3:TrackPointExtension>
        </extensions>
      </trkpt>
      <trkpt lat="42.5659551657736301422119140625" lon="20.05055584944784641265869140625">
        <ele>2145.60009765625</ele>
        <time>2026-06-15T11:35:00.000Z</time>
        <extensions>
          <ns3:TrackPointExtension>
            <ns3:atemp>16.0</ns3:atemp>
          </ns3:TrackPointExtension>
        </extensions>
      </trkpt>
      <trkpt lat="42.5659638829529285430908203125" lon="20.05054428242146968841552734375">
        <ele>2145.60009765625</ele>
        <time>2026-06-15T11:35:01.000Z</time>
        <extensions>
          <ns3:TrackPointExtension>
            <ns3:atemp>16.0</ns3:atemp>
          </ns3:TrackPointExtension>
        </extensions>
      </trkpt>
      <trkpt lat="42.56596597842872142791748046875" lon="20.05052567459642887115478515625">
        <ele>2145.39990234375</ele>
        <time>2026-06-15T11:35:02.000Z</time>
        <extensions>
          <ns3:TrackPointExtension>
            <ns3:atemp>16.0</ns3:atemp>
          </ns3:TrackPointExtension>
        </extensions>
      </trkpt>
      <trkpt lat="42.56595474667847156524658203125" lon="20.0505089946091175079345703125">
        <ele>2145.199951171875</ele>
        <time>2026-06-15T11:35:03.000Z</time>
        <extensions>
          <ns3:TrackPointExtension>
            <ns3:atemp>16.0</ns3:atemp>
          </ns3:TrackPointExtension>
        </extensions>
      </trkpt>
      <trkpt lat="42.56594401784241199493408203125" lon="20.05048879422247409820556640625">
        <ele>2145.199951171875</ele>
        <time>2026-06-15T11:35:04.000Z</time>
        <extensions>
          <ns3:TrackPointExtension>
            <ns3:atemp>16.0</ns3:atemp>
          </ns3:TrackPointExtension>
        </extensions>
      </trkpt>
      <trkpt lat="42.5659380666911602020263671875" lon="20.05046524107456207275390625">
        <ele>2145.199951171875</ele>
        <time>2026-06-15T11:35:05.000Z</time>
        <extensions>
          <ns3:TrackPointExtension>
            <ns3:atemp>16.0</ns3:atemp>
          </ns3:TrackPointExtension>
        </extensions>
      </trkpt>
      <trkpt lat="42.56593949161469936370849609375" lon="20.05043565295636653900146484375">
        <ele>2145.39990234375</ele>
        <time>2026-06-15T11:35:06.000Z</time>
        <extensions>
          <ns3:TrackPointExtension>
            <ns3:atemp>16.0</ns3:atemp>
          </ns3:TrackPointExtension>
        </extensions>
      </trkpt>
      <trkpt lat="42.56595441140234470367431640625" lon="20.05041486583650112152099609375">
        <ele>2145.39990234375</ele>
        <time>2026-06-15T11:35:07.000Z</time>
        <extensions>
          <ns3:TrackPointExtension>
            <ns3:atemp>16.0</ns3:atemp>
          </ns3:TrackPointExtension>
        </extensions>
      </trkpt>
      <trkpt lat="42.5659772939980030059814453125" lon="20.05040916614234447479248046875">
        <ele>2145.60009765625</ele>
        <time>2026-06-15T11:35:08.000Z</time>
        <extensions>
          <ns3:TrackPointExtension>
            <ns3:atemp>16.0</ns3:atemp>
          </ns3:TrackPointExtension>
        </extensions>
      </trkpt>
      <trkpt lat="42.56599028594791889190673828125" lon="20.05041285417973995208740234375">
        <ele>2145.800048828125</ele>
        <time>2026-06-15T11:35:09.000Z</time>
        <extensions>
          <ns3:TrackPointExtension>
            <ns3:atemp>16.0</ns3:atemp>
          </ns3:TrackPointExtension>
        </extensions>
      </trkpt>
      <trkpt lat="42.56599581800401210784912109375" lon="20.05041603930294513702392578125">
        <ele>2145.800048828125</ele>
        <time>2026-06-15T11:35:10.000Z</time>
        <extensions>
          <ns3:TrackPointExtension>
            <ns3:atemp>16.0</ns3:atemp>
          </ns3:TrackPointExtension>
        </extensions>
      </trkpt>
      <trkpt lat="42.5659960694611072540283203125" lon="20.050415955483913421630859375">
        <ele>2146</ele>
        <time>2026-06-15T11:35:11.000Z</time>
        <extensions>
          <ns3:TrackPointExtension>
            <ns3:atemp>16.0</ns3:atemp>
          </ns3:TrackPointExtension>
        </extensions>
      </trkpt>
      <trkpt lat="42.56599699147045612335205078125" lon="20.05040547810494899749755859375">
        <ele>2146</ele>
        <time>2026-06-15T11:35:12.000Z</time>
        <extensions>
          <ns3:TrackPointExtension>
            <ns3:atemp>16.0</ns3:atemp>
          </ns3:TrackPointExtension>
        </extensions>
      </trkpt>
      <trkpt lat="42.56598961539566516876220703125" lon="20.05039391107857227325439453125">
        <ele>2146</ele>
        <time>2026-06-15T11:35:13.000Z</time>
        <extensions>
          <ns3:TrackPointExtension>
            <ns3:atemp>16.0</ns3:atemp>
          </ns3:TrackPointExtension>
        </extensions>
      </trkpt>
      <trkpt lat="42.56597788073122501373291015625" lon="20.05038536153733730316162109375">
        <ele>2146.199951171875</ele>
        <time>2026-06-15T11:35:14.000Z</time>
        <extensions>
          <ns3:TrackPointExtension>
            <ns3:atemp>16.0</ns3:atemp>
          </ns3:TrackPointExtension>
        </extensions>
      </trkpt>
      <trkpt lat="42.5659598596394062042236328125" lon="20.05037966184318065643310546875">
        <ele>2146.199951171875</ele>
        <time>2026-06-15T11:35:15.000Z</time>
        <extensions>
          <ns3:TrackPointExtension>
            <ns3:atemp>16.0</ns3:atemp>
          </ns3:TrackPointExtension>
        </extensions>
      </trkpt>
      <trkpt lat="42.565941922366619110107421875" lon="20.05039441399276256561279296875">
        <ele>2146.39990234375</ele>
        <time>2026-06-15T11:35:16.000Z</time>
        <extensions>
          <ns3:TrackPointExtension>
            <ns3:atemp>16.0</ns3:atemp>
          </ns3:TrackPointExtension>
        </extensions>
      </trkpt>
      <trkpt lat="42.56592390127480030059814453125" lon="20.0504218228161334991455078125">
        <ele>2146.39990234375</ele>
        <time>2026-06-15T11:35:17.000Z</time>
        <extensions>
          <ns3:TrackPointExtension>
            <ns3:atemp>16.0</ns3:atemp>
          </ns3:TrackPointExtension>
        </extensions>
      </trkpt>
      <trkpt lat="42.56591199897229671478271484375" lon="20.05046364851295948028564453125">
        <ele>2146.199951171875</ele>
        <time>2026-06-15T11:35:18.000Z</time>
        <extensions>
          <ns3:TrackPointExtension>
            <ns3:atemp>16.0</ns3:atemp>
          </ns3:TrackPointExtension>
        </extensions>
      </trkpt>
      <trkpt lat="42.56591954268515110015869140625" lon="20.05051393993198871612548828125">
        <ele>2146</ele>
        <time>2026-06-15T11:35:19.000Z</time>
        <extensions>
          <ns3:TrackPointExtension>
            <ns3:atemp>16.0</ns3:atemp>
          </ns3:TrackPointExtension>
        </extensions>
      </trkpt>
      <trkpt lat="42.5659410841763019561767578125" lon="20.0505545921623706817626953125">
        <ele>2146</ele>
        <time>2026-06-15T11:35:20.000Z</time>
        <extensions>
          <ns3:TrackPointExtension>
            <ns3:atemp>16.0</ns3:atemp>
          </ns3:TrackPointExtension>
        </extensions>
      </trkpt>
      <trkpt lat="42.56596664898097515106201171875" lon="20.0505918078124523162841796875">
        <ele>2145.60009765625</ele>
        <time>2026-06-15T11:35:21.000Z</time>
        <extensions>
          <ns3:TrackPointExtension>
            <ns3:atemp>16.0</ns3:atemp>
          </ns3:TrackPointExtension>
        </extensions>
      </trkpt>
      <trkpt lat="42.565999589860439300537109375" lon="20.05063019692897796630859375">
        <ele>2145.199951171875</ele>
        <time>2026-06-15T11:35:22.000Z</time>
        <extensions>
          <ns3:TrackPointExtension>
            <ns3:atemp>16.0</ns3:atemp>
          </ns3:TrackPointExtension>
        </extensions>
      </trkpt>
      <trkpt lat="42.566033117473125457763671875" lon="20.05066364072263240814208984375">
        <ele>2145</ele>
        <time>2026-06-15T11:35:23.000Z</time>
        <extensions>
          <ns3:TrackPointExtension>
            <ns3:atemp>16.0</ns3:atemp>
          </ns3:TrackPointExtension>
        </extensions>
      </trkpt>
      <trkpt lat="42.5660691596567630767822265625" lon="20.0506947375833988189697265625">
        <ele>2144.800048828125</ele>
        <time>2026-06-15T11:35:24.000Z</time>
        <extensions>
          <ns3:TrackPointExtension>
            <ns3:atemp>16.0</ns3:atemp>
          </ns3:TrackPointExtension>
        </extensions>
      </trkpt>
      <trkpt lat="42.56610520184040069580078125" lon="20.0507287681102752685546875">
        <ele>2144.39990234375</ele>
        <time>2026-06-15T11:35:25.000Z</time>
        <extensions>
          <ns3:TrackPointExtension>
            <ns3:atemp>16.0</ns3:atemp>
          </ns3:TrackPointExtension>
        </extensions>
      </trkpt>
      <trkpt lat="42.5661331973969936370849609375" lon="20.0507684983313083648681640625">
        <ele>2144</ele>
        <time>2026-06-15T11:35:26.000Z</time>
        <extensions>
          <ns3:TrackPointExtension>
            <ns3:atemp>16.0</ns3:atemp>
          </ns3:TrackPointExtension>
        </extensions>
      </trkpt>
      <trkpt lat="42.56615121848881244659423828125" lon="20.0508094020187854766845703125">
        <ele>2143.800048828125</ele>
        <time>2026-06-15T11:35:27.000Z</time>
        <extensions>
          <ns3:TrackPointExtension>
            <ns3:atemp>16.0</ns3:atemp>
          </ns3:TrackPointExtension>
        </extensions>
      </trkpt>
      <trkpt lat="42.56615708582103252410888671875" lon="20.05082331597805023193359375">
        <ele>2143.39990234375</ele>
        <time>2026-06-15T11:35:28.000Z</time>
        <extensions>
          <ns3:TrackPointExtension>
            <ns3:atemp>16.0</ns3:atemp>
          </ns3:TrackPointExtension>
        </extensions>
      </trkpt>
      <trkpt lat="42.56614945828914642333984375" lon="20.0508265011012554168701171875">
        <ele>2143.199951171875</ele>
        <time>2026-06-15T11:35:29.000Z</time>
        <extensions>
          <ns3:TrackPointExtension>
            <ns3:atemp>16.0</ns3:atemp>
          </ns3:TrackPointExtension>
        </extensions>
      </trkpt>
      <trkpt lat="42.56615473888814449310302734375" lon="20.05082742311060428619384765625">
        <ele>2143</ele>
        <time>2026-06-15T11:35:30.000Z</time>
        <extensions>
          <ns3:TrackPointExtension>
            <ns3:atemp>16.0</ns3:atemp>
          </ns3:TrackPointExtension>
        </extensions>
      </trkpt>
      <trkpt lat="42.56617317907512187957763671875" lon="20.050825662910938262939453125">
        <ele>2142.800048828125</ele>
        <time>2026-06-15T11:35:31.000Z</time>
        <extensions>
          <ns3:TrackPointExtension>
            <ns3:atemp>16.0</ns3:atemp>
          </ns3:TrackPointExtension>
        </extensions>
      </trkpt>
      <trkpt lat="42.56618793122470378875732421875" lon="20.05081434734165668487548828125">
        <ele>2142.39990234375</ele>
        <time>2026-06-15T11:35:32.000Z</time>
        <extensions>
          <ns3:TrackPointExtension>
            <ns3:atemp>16.0</ns3:atemp>
          </ns3:TrackPointExtension>
        </extensions>
      </trkpt>
      <trkpt lat="42.5661885179579257965087890625" lon="20.05079825408756732940673828125">
        <ele>2142.199951171875</ele>
        <time>2026-06-15T11:35:33.000Z</time>
        <extensions>
          <ns3:TrackPointExtension>
            <ns3:atemp>16.0</ns3:atemp>
          </ns3:TrackPointExtension>
        </extensions>
      </trkpt>
      <trkpt lat="42.56618122570216655731201171875" lon="20.05077931098639965057373046875">
        <ele>2142</ele>
        <time>2026-06-15T11:35:34.000Z</time>
        <extensions>
          <ns3:TrackPointExtension>
            <ns3:atemp>16.0</ns3:atemp>
          </ns3:TrackPointExtension>
        </extensions>
      </trkpt>
      <trkpt lat="42.5661751069128513336181640625" lon="20.05076791159808635711669921875">
        <ele>2141.800048828125</ele>
        <time>2026-06-15T11:35:35.000Z</time>
        <extensions>
          <ns3:TrackPointExtension>
            <ns3:atemp>16.0</ns3:atemp>
          </ns3:TrackPointExtension>
        </extensions>
      </trkpt>
      <trkpt lat="42.566169910132884979248046875" lon="20.05076170898973941802978515625">
        <ele>2141.60009765625</ele>
        <time>2026-06-15T11:35:36.000Z</time>
        <extensions>
          <ns3:TrackPointExtension>
            <ns3:atemp>16.0</ns3:atemp>
          </ns3:TrackPointExtension>
        </extensions>
      </trkpt>
      <trkpt lat="42.56616555154323577880859375" lon="20.05075785331428050994873046875">
        <ele>2141.60009765625</ele>
        <time>2026-06-15T11:35:37.000Z</time>
        <extensions>
          <ns3:TrackPointExtension>
            <ns3:atemp>16.0</ns3:atemp>
          </ns3:TrackPointExtension>
        </extensions>
      </trkpt>
      <trkpt lat="42.5661620311439037322998046875" lon="20.0507529079914093017578125">
        <ele>2141.800048828125</ele>
        <time>2026-06-15T11:35:38.000Z</time>
        <extensions>
          <ns3:TrackPointExtension>
            <ns3:atemp>16.0</ns3:atemp>
          </ns3:TrackPointExtension>
        </extensions>
      </trkpt>
      <trkpt lat="42.5661563314497470855712890625" lon="20.05075098015367984771728515625">
        <ele>2142</ele>
        <time>2026-06-15T11:35:39.000Z</time>
        <extensions>
          <ns3:TrackPointExtension>
            <ns3:atemp>16.0</ns3:atemp>
          </ns3:TrackPointExtension>
        </extensions>
      </trkpt>
      <trkpt lat="42.56614719517529010772705078125" lon="20.05074419081211090087890625">
        <ele>2142.199951171875</ele>
        <time>2026-06-15T11:35:40.000Z</time>
        <extensions>
          <ns3:TrackPointExtension>
            <ns3:atemp>16.0</ns3:atemp>
          </ns3:TrackPointExtension>
        </extensions>
      </trkpt>
      <trkpt lat="42.5661419145762920379638671875" lon="20.05073773674666881561279296875">
        <ele>2142.199951171875</ele>
        <time>2026-06-15T11:35:41.000Z</time>
        <extensions>
          <ns3:TrackPointExtension>
            <ns3:atemp>16.0</ns3:atemp>
          </ns3:TrackPointExtension>
        </extensions>
      </trkpt>
      <trkpt lat="42.566133029758930206298828125" lon="20.05072541534900665283203125">
        <ele>2142.39990234375</ele>
        <time>2026-06-15T11:35:42.000Z</time>
        <extensions>
          <ns3:TrackPointExtension>
            <ns3:atemp>16.0</ns3:atemp>
          </ns3:TrackPointExtension>
        </extensions>
      </trkpt>
      <trkpt lat="42.566122971475124359130859375" lon="20.05070923827588558197021484375">
        <ele>2142.199951171875</ele>
        <time>2026-06-15T11:35:43.000Z</time>
        <extensions>
          <ns3:TrackPointExtension>
            <ns3:atemp>16.0</ns3:atemp>
          </ns3:TrackPointExtension>
        </extensions>
      </trkpt>
      <trkpt lat="42.56611936725676059722900390625" lon="20.05070655606687068939208984375">
        <ele>2142.199951171875</ele>
        <time>2026-06-15T11:35:44.000Z</time>
        <extensions>
          <ns3:TrackPointExtension>
            <ns3:atemp>16.0</ns3:atemp>
          </ns3:TrackPointExtension>
        </extensions>
      </trkpt>
      <trkpt lat="42.5661097280681133270263671875" lon="20.0506890378892421722412109375">
        <ele>2142.199951171875</ele>
        <time>2026-06-15T11:35:45.000Z</time>
        <extensions>
          <ns3:TrackPointExtension>
            <ns3:atemp>16.0</ns3:atemp>
          </ns3:TrackPointExtension>
        </extensions>
      </trkpt>
      <trkpt lat="42.56609455682337284088134765625" lon="20.0506778061389923095703125">
        <ele>2142.199951171875</ele>
        <time>2026-06-15T11:35:46.000Z</time>
        <extensions>
          <ns3:TrackPointExtension>
            <ns3:atemp>16.0</ns3:atemp>
          </ns3:TrackPointExtension>
        </extensions>
      </trkpt>
      <trkpt lat="42.566087432205677032470703125" lon="20.05067386664450168609619140625">
        <ele>2142.199951171875</ele>
        <time>2026-06-15T11:35:47.000Z</time>
        <extensions>
          <ns3:TrackPointExtension>
            <ns3:atemp>16.0</ns3:atemp>
          </ns3:TrackPointExtension>
        </extensions>
      </trkpt>
      <trkpt lat="42.56608349271118640899658203125" lon="20.0506746210157871246337890625">
        <ele>2142.199951171875</ele>
        <time>2026-06-15T11:35:48.000Z</time>
        <extensions>
          <ns3:TrackPointExtension>
            <ns3:atemp>16.0</ns3:atemp>
          </ns3:TrackPointExtension>
        </extensions>
      </trkpt>
      <trkpt lat="42.56607695482671260833740234375" lon="20.050670094788074493408203125">
        <ele>2142.39990234375</ele>
        <time>2026-06-15T11:35:49.000Z</time>
        <extensions>
          <ns3:TrackPointExtension>
            <ns3:atemp>16.0</ns3:atemp>
          </ns3:TrackPointExtension>
        </extensions>
      </trkpt>
      <trkpt lat="42.56607511080801486968994140625" lon="20.0506642274558544158935546875">
        <ele>2142.39990234375</ele>
        <time>2026-06-15T11:35:50.000Z</time>
        <extensions>
          <ns3:TrackPointExtension>
            <ns3:atemp>16.0</ns3:atemp>
          </ns3:TrackPointExtension>
        </extensions>
      </trkpt>
      <trkpt lat="42.5660688243806362152099609375" lon="20.05065433681011199951171875">
        <ele>2142.60009765625</ele>
        <time>2026-06-15T11:35:51.000Z</time>
        <extensions>
          <ns3:TrackPointExtension>
            <ns3:atemp>16.0</ns3:atemp>
          </ns3:TrackPointExtension>
        </extensions>
      </trkpt>
      <trkpt lat="42.56605784408748149871826171875" lon="20.05064318887889385223388671875">
        <ele>2142.800048828125</ele>
        <time>2026-06-15T11:35:52.000Z</time>
        <extensions>
          <ns3:TrackPointExtension>
            <ns3:atemp>16.0</ns3:atemp>
          </ns3:TrackPointExtension>
        </extensions>
      </trkpt>
      <trkpt lat="42.5660455226898193359375" lon="20.05063564516603946685791015625">
        <ele>2143</ele>
        <time>2026-06-15T11:35:53.000Z</time>
        <extensions>
          <ns3:TrackPointExtension>
            <ns3:atemp>16.0</ns3:atemp>
          </ns3:TrackPointExtension>
        </extensions>
      </trkpt>
      <trkpt lat="42.56602942943572998046875" lon="20.0506196357309818267822265625">
        <ele>2143</ele>
        <time>2026-06-15T11:35:54.000Z</time>
        <extensions>
          <ns3:TrackPointExtension>
            <ns3:atemp>16.0</ns3:atemp>
          </ns3:TrackPointExtension>
        </extensions>
      </trkpt>
      <trkpt lat="42.5660141743719577789306640625" lon="20.050604380667209625244140625">
        <ele>2143.199951171875</ele>
        <time>2026-06-15T11:35:55.000Z</time>
        <extensions>
          <ns3:TrackPointExtension>
            <ns3:atemp>16.0</ns3:atemp>
          </ns3:TrackPointExtension>
        </extensions>
      </trkpt>
      <trkpt lat="42.5659994222223758697509765625" lon="20.0505891256034374237060546875">
        <ele>2143.199951171875</ele>
        <time>2026-06-15T11:35:56.000Z</time>
        <extensions>
          <ns3:TrackPointExtension>
            <ns3:atemp>16.0</ns3:atemp>
          </ns3:TrackPointExtension>
        </extensions>
      </trkpt>
      <trkpt lat="42.565980814397335052490234375" lon="20.05056858994066715240478515625">
        <ele>2143.39990234375</ele>
        <time>2026-06-15T11:35:57.000Z</time>
        <extensions>
          <ns3:TrackPointExtension>
            <ns3:atemp>16.0</ns3:atemp>
          </ns3:TrackPointExtension>
        </extensions>
      </trkpt>
      <trkpt lat="42.56596346385776996612548828125" lon="20.0505522452294826507568359375">
        <ele>2143.60009765625</ele>
        <time>2026-06-15T11:35:58.000Z</time>
        <extensions>
          <ns3:TrackPointExtension>
            <ns3:atemp>16.0</ns3:atemp>
          </ns3:TrackPointExtension>
        </extensions>
      </trkpt>
      <trkpt lat="42.5659484602510929107666015625" lon="20.05053154192864894866943359375">
        <ele>2143.800048828125</ele>
        <time>2026-06-15T11:35:59.000Z</time>
        <extensions>
          <ns3:TrackPointExtension>
            <ns3:atemp>16.0</ns3:atemp>
          </ns3:TrackPointExtension>
        </extensions>
      </trkpt>
      <trkpt lat="42.565941251814365386962890625" lon="20.05050103180110454559326171875">
        <ele>2144.199951171875</ele>
        <time>2026-06-15T11:36:00.000Z</time>
        <extensions>
          <ns3:TrackPointExtension>
            <ns3:atemp>16.0</ns3:atemp>
          </ns3:TrackPointExtension>
        </extensions>
      </trkpt>
      <trkpt lat="42.5659367255866527557373046875" lon="20.0504697673022747039794921875">
        <ele>2144.39990234375</ele>
        <time>2026-06-15T11:36:01.000Z</time>
        <extensions>
          <ns3:TrackPointExtension>
            <ns3:atemp>16.0</ns3:atemp>
          </ns3:TrackPointExtension>
        </extensions>
      </trkpt>
      <trkpt lat="42.56594100035727024078369140625" lon="20.050441436469554901123046875">
        <ele>2144.800048828125</ele>
        <time>2026-06-15T11:36:02.000Z</time>
        <extensions>
          <ns3:TrackPointExtension>
            <ns3:atemp>16.0</ns3:atemp>
          </ns3:TrackPointExtension>
        </extensions>
      </trkpt>
      <trkpt lat="42.56595340557396411895751953125" lon="20.050424672663211822509765625">
        <ele>2145</ele>
        <time>2026-06-15T11:36:03.000Z</time>
        <extensions>
          <ns3:TrackPointExtension>
            <ns3:atemp>16.0</ns3:atemp>
          </ns3:TrackPointExtension>
        </extensions>
      </trkpt>
      <trkpt lat="42.56597117520868778228759765625" lon="20.05042073316872119903564453125">
        <ele>2145.199951171875</ele>
        <time>2026-06-15T11:36:04.000Z</time>
        <extensions>
          <ns3:TrackPointExtension>
            <ns3:atemp>16.0</ns3:atemp>
          </ns3:TrackPointExtension>
        </extensions>
      </trkpt>
      <trkpt lat="42.56598995067179203033447265625" lon="20.05042877979576587677001953125">
        <ele>2145.39990234375</ele>
        <time>2026-06-15T11:36:05.000Z</time>
        <extensions>
          <ns3:TrackPointExtension>
            <ns3:atemp>16.0</ns3:atemp>
          </ns3:TrackPointExtension>
        </extensions>
      </trkpt>
      <trkpt lat="42.56600386463105678558349609375" lon="20.0504337251186370849609375">
        <ele>2145.60009765625</ele>
        <time>2026-06-15T11:36:06.000Z</time>
        <extensions>
          <ns3:TrackPointExtension>
            <ns3:atemp>16.0</ns3:atemp>
          </ns3:TrackPointExtension>
        </extensions>
      </trkpt>
      <trkpt lat="42.5660245679318904876708984375" lon="20.050442777574062347412109375">
        <ele>2145.800048828125</ele>
        <time>2026-06-15T11:36:07.000Z</time>
        <extensions>
          <ns3:TrackPointExtension>
            <ns3:atemp>16.0</ns3:atemp>
          </ns3:TrackPointExtension>
        </extensions>
      </trkpt>
      <trkpt lat="42.566048204898834228515625" lon="20.05044990219175815582275390625">
        <ele>2145.800048828125</ele>
        <time>2026-06-15T11:36:08.000Z</time>
        <extensions>
          <ns3:TrackPointExtension>
            <ns3:atemp>16.0</ns3:atemp>
          </ns3:TrackPointExtension>
        </extensions>
      </trkpt>
      <trkpt lat="42.5660745240747928619384765625" lon="20.05045895464718341827392578125">
        <ele>2146</ele>
        <time>2026-06-15T11:36:09.000Z</time>
        <extensions>
          <ns3:TrackPointExtension>
            <ns3:atemp>16.0</ns3:atemp>
          </ns3:TrackPointExtension>
        </extensions>
      </trkpt>
      <trkpt lat="42.56609858013689517974853515625" lon="20.05047596991062164306640625">
        <ele>2146</ele>
        <time>2026-06-15T11:36:10.000Z</time>
        <extensions>
          <ns3:TrackPointExtension>
            <ns3:atemp>16.0</ns3:atemp>
          </ns3:TrackPointExtension>
        </extensions>
      </trkpt>
      <trkpt lat="42.56612640805542469024658203125" lon="20.0505026243627071380615234375">
        <ele>2146.199951171875</ele>
        <time>2026-06-15T11:36:11.000Z</time>
        <extensions>
          <ns3:TrackPointExtension>
            <ns3:atemp>16.0</ns3:atemp>
          </ns3:TrackPointExtension>
        </extensions>
      </trkpt>
      <trkpt lat="42.5661514699459075927734375" lon="20.05052936263382434844970703125">
        <ele>2146.199951171875</ele>
        <time>2026-06-15T11:36:12.000Z</time>
        <extensions>
          <ns3:TrackPointExtension>
            <ns3:atemp>16.0</ns3:atemp>
          </ns3:TrackPointExtension>
        </extensions>
      </trkpt>
      <trkpt lat="42.5661751069128513336181640625" lon="20.0505498982965946197509765625">
        <ele>2146.60009765625</ele>
        <time>2026-06-15T11:36:13.000Z</time>
        <extensions>
          <ns3:TrackPointExtension>
            <ns3:atemp>16.0</ns3:atemp>
          </ns3:TrackPointExtension>
        </extensions>
      </trkpt>
      <trkpt lat="42.5662019290030002593994140625" lon="20.05056255497038364410400390625">
        <ele>2146.800048828125</ele>
        <time>2026-06-15T11:36:14.000Z</time>
        <extensions>
          <ns3:TrackPointExtension>
            <ns3:atemp>16.0</ns3:atemp>
          </ns3:TrackPointExtension>
        </extensions>
      </trkpt>
      <trkpt lat="42.56622984074056148529052734375" lon="20.05056741647422313690185546875">
        <ele>2147</ele>
        <time>2026-06-15T11:36:15.000Z</time>
        <extensions>
          <ns3:TrackPointExtension>
            <ns3:atemp>16.0</ns3:atemp>
          </ns3:TrackPointExtension>
        </extensions>
      </trkpt>
      <trkpt lat="42.56625808775424957275390625" lon="20.0505602918565273284912109375">
        <ele>2147</ele>
        <time>2026-06-15T11:36:16.000Z</time>
        <extensions>
          <ns3:TrackPointExtension>
            <ns3:atemp>16.0</ns3:atemp>
          </ns3:TrackPointExtension>
        </extensions>
      </trkpt>
      <trkpt lat="42.56628013215959072113037109375" lon="20.0505383312702178955078125">
        <ele>2147.199951171875</ele>
        <time>2026-06-15T11:36:17.000Z</time>
        <extensions>
          <ns3:TrackPointExtension>
            <ns3:atemp>16.0</ns3:atemp>
          </ns3:TrackPointExtension>
        </extensions>
      </trkpt>
      <trkpt lat="42.56629404611885547637939453125" lon="20.0505110062658786773681640625">
        <ele>2147.199951171875</ele>
        <time>2026-06-15T11:36:18.000Z</time>
        <extensions>
          <ns3:TrackPointExtension>
            <ns3:atemp>16.0</ns3:atemp>
          </ns3:TrackPointExtension>
        </extensions>
      </trkpt>
      <trkpt lat="42.56629429757595062255859375" lon="20.050478987395763397216796875">
        <ele>2147.39990234375</ele>
        <time>2026-06-15T11:36:19.000Z</time>
        <extensions>
          <ns3:TrackPointExtension>
            <ns3:atemp>16.0</ns3:atemp>
          </ns3:TrackPointExtension>
        </extensions>
      </trkpt>
      <trkpt lat="42.5662891007959842681884765625" lon="20.050456523895263671875">
        <ele>2147.60009765625</ele>
        <time>2026-06-15T11:36:20.000Z</time>
        <extensions>
          <ns3:TrackPointExtension>
            <ns3:atemp>16.0</ns3:atemp>
          </ns3:TrackPointExtension>
        </extensions>
      </trkpt>
      <trkpt lat="42.5662760250270366668701171875" lon="20.0504342280328273773193359375">
        <ele>2147.800048828125</ele>
        <time>2026-06-15T11:36:21.000Z</time>
        <extensions>
          <ns3:TrackPointExtension>
            <ns3:atemp>16.0</ns3:atemp>
          </ns3:TrackPointExtension>
        </extensions>
      </trkpt>
      <trkpt lat="42.56626035086810588836669921875" lon="20.0504137761890888214111328125">
        <ele>2148.199951171875</ele>
        <time>2026-06-15T11:36:22.000Z</time>
        <extensions>
          <ns3:TrackPointExtension>
            <ns3:atemp>16.0</ns3:atemp>
          </ns3:TrackPointExtension>
        </extensions>
      </trkpt>
      <trkpt lat="42.56624509580433368682861328125" lon="20.0503919832408428192138671875">
        <ele>2148.39990234375</ele>
        <time>2026-06-15T11:36:23.000Z</time>
        <extensions>
          <ns3:TrackPointExtension>
            <ns3:atemp>16.0</ns3:atemp>
          </ns3:TrackPointExtension>
        </extensions>
      </trkpt>
      <trkpt lat="42.56622782908380031585693359375" lon="20.0503675080835819244384765625">
        <ele>2148.60009765625</ele>
        <time>2026-06-15T11:36:24.000Z</time>
        <extensions>
          <ns3:TrackPointExtension>
            <ns3:atemp>16.0</ns3:atemp>
          </ns3:TrackPointExtension>
        </extensions>
      </trkpt>
      <trkpt lat="42.56621274165809154510498046875" lon="20.05034429021179676055908203125">
        <ele>2149</ele>
        <time>2026-06-15T11:36:25.000Z</time>
        <extensions>
          <ns3:TrackPointExtension>
            <ns3:atemp>16.0</ns3:atemp>
          </ns3:TrackPointExtension>
        </extensions>
      </trkpt>
      <trkpt lat="42.56619899533689022064208984375" lon="20.0503185577690601348876953125">
        <ele>2149.39990234375</ele>
        <time>2026-06-15T11:36:26.000Z</time>
        <extensions>
          <ns3:TrackPointExtension>
            <ns3:atemp>16.0</ns3:atemp>
          </ns3:TrackPointExtension>
        </extensions>
      </trkpt>
      <trkpt lat="42.56618642248213291168212890625" lon="20.05029584281146526336669921875">
        <ele>2149.60009765625</ele>
        <time>2026-06-15T11:36:27.000Z</time>
        <extensions>
          <ns3:TrackPointExtension>
            <ns3:atemp>16.0</ns3:atemp>
          </ns3:TrackPointExtension>
        </extensions>
      </trkpt>
      <trkpt lat="42.56617485545575618743896484375" lon="20.05027606151998043060302734375">
        <ele>2149.800048828125</ele>
        <time>2026-06-15T11:36:28.000Z</time>
        <extensions>
          <ns3:TrackPointExtension>
            <ns3:atemp>16.0</ns3:atemp>
          </ns3:TrackPointExtension>
        </extensions>
      </trkpt>
      <trkpt lat="42.56616731174290180206298828125" lon="20.05025334656238555908203125">
        <ele>2150.199951171875</ele>
        <time>2026-06-15T11:36:29.000Z</time>
        <extensions>
          <ns3:TrackPointExtension>
            <ns3:atemp>16.0</ns3:atemp>
          </ns3:TrackPointExtension>
        </extensions>
      </trkpt>
      <trkpt lat="42.5661616958677768707275390625" lon="20.05023063160479068756103515625">
        <ele>2150.60009765625</ele>
        <time>2026-06-15T11:36:30.000Z</time>
        <extensions>
          <ns3:TrackPointExtension>
            <ns3:atemp>16.0</ns3:atemp>
          </ns3:TrackPointExtension>
        </extensions>
      </trkpt>
      <trkpt lat="42.56615289486944675445556640625" lon="20.0502097606658935546875">
        <ele>2151</ele>
        <time>2026-06-15T11:36:31.000Z</time>
        <extensions>
          <ns3:TrackPointExtension>
            <ns3:atemp>16.0</ns3:atemp>
          </ns3:TrackPointExtension>
        </extensions>
      </trkpt>
      <trkpt lat="42.5661435909569263458251953125" lon="20.0501864589750766754150390625">
        <ele>2151.39990234375</ele>
        <time>2026-06-15T11:36:32.000Z</time>
        <extensions>
          <ns3:TrackPointExtension>
            <ns3:atemp>16.0</ns3:atemp>
          </ns3:TrackPointExtension>
        </extensions>
      </trkpt>
      <trkpt lat="42.56613344885408878326416015625" lon="20.05016089417040348052978515625">
        <ele>2151.800048828125</ele>
        <time>2026-06-15T11:36:33.000Z</time>
        <extensions>
          <ns3:TrackPointExtension>
            <ns3:atemp>16.0</ns3:atemp>
          </ns3:TrackPointExtension>
        </extensions>
      </trkpt>
      <trkpt lat="42.5661234743893146514892578125" lon="20.05014094524085521697998046875">
        <ele>2152</ele>
        <time>2026-06-15T11:36:34.000Z</time>
        <extensions>
          <ns3:TrackPointExtension>
            <ns3:atemp>16.0</ns3:atemp>
          </ns3:TrackPointExtension>
        </extensions>
      </trkpt>
      <trkpt lat="42.56610788404941558837890625" lon="20.05012325942516326904296875">
        <ele>2152.39990234375</ele>
        <time>2026-06-15T11:36:35.000Z</time>
        <extensions>
          <ns3:TrackPointExtension>
            <ns3:atemp>16.0</ns3:atemp>
          </ns3:TrackPointExtension>
        </extensions>
      </trkpt>
      <trkpt lat="42.56608776748180389404296875" lon="20.0501110218465328216552734375">
        <ele>2152.60009765625</ele>
        <time>2026-06-15T11:36:36.000Z</time>
        <extensions>
          <ns3:TrackPointExtension>
            <ns3:atemp>16.0</ns3:atemp>
          </ns3:TrackPointExtension>
        </extensions>
      </trkpt>
      <trkpt lat="42.566072009503841400146484375" lon="20.050094760954380035400390625">
        <ele>2152.800048828125</ele>
        <time>2026-06-15T11:36:37.000Z</time>
        <extensions>
          <ns3:TrackPointExtension>
            <ns3:atemp>16.0</ns3:atemp>
          </ns3:TrackPointExtension>
        </extensions>
      </trkpt>
      <trkpt lat="42.56605968810617923736572265625" lon="20.0500769913196563720703125">
        <ele>2153.199951171875</ele>
        <time>2026-06-15T11:36:38.000Z</time>
        <extensions>
          <ns3:TrackPointExtension>
            <ns3:atemp>16.0</ns3:atemp>
          </ns3:TrackPointExtension>
        </extensions>
      </trkpt>
      <trkpt lat="42.56604661233723163604736328125" lon="20.0500597245991230010986328125">
        <ele>2153.39990234375</ele>
        <time>2026-06-15T11:36:39.000Z</time>
        <extensions>
          <ns3:TrackPointExtension>
            <ns3:atemp>16.0</ns3:atemp>
          </ns3:TrackPointExtension>
        </extensions>
      </trkpt>
      <trkpt lat="42.5660339556634426116943359375" lon="20.05004723556339740753173828125">
        <ele>2153.60009765625</ele>
        <time>2026-06-15T11:36:40.000Z</time>
        <extensions>
          <ns3:TrackPointExtension>
            <ns3:atemp>16.0</ns3:atemp>
          </ns3:TrackPointExtension>
        </extensions>
      </trkpt>
      <trkpt lat="42.56602113135159015655517578125" lon="20.05003399215638637542724609375">
        <ele>2153.800048828125</ele>
        <time>2026-06-15T11:36:41.000Z</time>
        <extensions>
          <ns3:TrackPointExtension>
            <ns3:atemp>16.0</ns3:atemp>
          </ns3:TrackPointExtension>
        </extensions>
      </trkpt>
      <trkpt lat="42.5660054571926593780517578125" lon="20.05002477206289768218994140625">
        <ele>2154</ele>
        <time>2026-06-15T11:36:42.000Z</time>
        <extensions>
          <ns3:TrackPointExtension>
            <ns3:atemp>16.0</ns3:atemp>
          </ns3:TrackPointExtension>
        </extensions>
      </trkpt>
      <trkpt lat="42.5659967400133609771728515625" lon="20.0500260293483734130859375">
        <ele>2154.39990234375</ele>
        <time>2026-06-15T11:36:43.000Z</time>
        <extensions>
          <ns3:TrackPointExtension>
            <ns3:atemp>16.0</ns3:atemp>
          </ns3:TrackPointExtension>
        </extensions>
      </trkpt>
      <trkpt lat="42.5659851729869842529296875" lon="20.0500318966805934906005859375">
        <ele>2154.60009765625</ele>
        <time>2026-06-15T11:36:44.000Z</time>
        <extensions>
          <ns3:TrackPointExtension>
            <ns3:atemp>16.0</ns3:atemp>
          </ns3:TrackPointExtension>
        </extensions>
      </trkpt>
      <trkpt lat="42.5659672357141971588134765625" lon="20.05005058832466602325439453125">
        <ele>2154.800048828125</ele>
        <time>2026-06-15T11:36:45.000Z</time>
        <extensions>
          <ns3:TrackPointExtension>
            <ns3:atemp>16.0</ns3:atemp>
          </ns3:TrackPointExtension>
        </extensions>
      </trkpt>
      <trkpt lat="42.56595994345843791961669921875" lon="20.05007724277675151824951171875">
        <ele>2154.60009765625</ele>
        <time>2026-06-15T11:36:46.000Z</time>
        <extensions>
          <ns3:TrackPointExtension>
            <ns3:atemp>16.0</ns3:atemp>
          </ns3:TrackPointExtension>
        </extensions>
      </trkpt>
      <trkpt lat="42.56595273502171039581298828125" lon="20.0500882230699062347412109375">
        <ele>2154.39990234375</ele>
        <time>2026-06-15T11:36:47.000Z</time>
        <extensions>
          <ns3:TrackPointExtension>
            <ns3:atemp>16.0</ns3:atemp>
          </ns3:TrackPointExtension>
        </extensions>
      </trkpt>
      <trkpt lat="42.56594686768949031829833984375" lon="20.05009501241147518157958984375">
        <ele>2154</ele>
        <time>2026-06-15T11:36:48.000Z</time>
        <extensions>
          <ns3:TrackPointExtension>
            <ns3:atemp>16.0</ns3:atemp>
          </ns3:TrackPointExtension>
        </extensions>
      </trkpt>
      <trkpt lat="42.56594686768949031829833984375" lon="20.0500955991446971893310546875">
        <ele>2153.60009765625</ele>
        <time>2026-06-15T11:36:49.000Z</time>
        <extensions>
          <ns3:TrackPointExtension>
            <ns3:atemp>16.0</ns3:atemp>
          </ns3:TrackPointExtension>
        </extensions>
      </trkpt>
      <trkpt lat="42.5659467838704586029052734375" lon="20.05009568296372890472412109375">
        <ele>2153.199951171875</ele>
        <time>2026-06-15T11:36:50.000Z</time>
        <extensions>
          <ns3:TrackPointExtension>
            <ns3:atemp>16.0</ns3:atemp>
          </ns3:TrackPointExtension>
        </extensions>
      </trkpt>
      <trkpt lat="42.56594686768949031829833984375" lon="20.0500955991446971893310546875">
        <ele>2153</ele>
        <time>2026-06-15T11:36:51.000Z</time>
        <extensions>
          <ns3:TrackPointExtension>
            <ns3:atemp>16.0</ns3:atemp>
          </ns3:TrackPointExtension>
        </extensions>
      </trkpt>
      <trkpt lat="42.56594686768949031829833984375" lon="20.0500955991446971893310546875">
        <ele>2152.800048828125</ele>
        <time>2026-06-15T11:36:52.000Z</time>
        <extensions>
          <ns3:TrackPointExtension>
            <ns3:atemp>16.0</ns3:atemp>
          </ns3:TrackPointExtension>
        </extensions>
      </trkpt>
      <trkpt lat="42.56594686768949031829833984375" lon="20.0500955991446971893310546875">
        <ele>2152.60009765625</ele>
        <time>2026-06-15T11:36:53.000Z</time>
        <extensions>
          <ns3:TrackPointExtension>
            <ns3:atemp>16.0</ns3:atemp>
          </ns3:TrackPointExtension>
        </extensions>
      </trkpt>
      <trkpt lat="42.565943263471126556396484375" lon="20.0500957667827606201171875">
        <ele>2152.39990234375</ele>
        <time>2026-06-15T11:36:54.000Z</time>
        <extensions>
          <ns3:TrackPointExtension>
            <ns3:atemp>16.0</ns3:atemp>
          </ns3:TrackPointExtension>
        </extensions>
      </trkpt>
      <trkpt lat="42.56592390127480030059814453125" lon="20.05010507069528102874755859375">
        <ele>2152</ele>
        <time>2026-06-15T11:36:55.000Z</time>
        <extensions>
          <ns3:TrackPointExtension>
            <ns3:atemp>16.0</ns3:atemp>
          </ns3:TrackPointExtension>
        </extensions>
      </trkpt>
      <trkpt lat="42.5659109093248844146728515625" lon="20.05011529661715030670166015625">
        <ele>2151.800048828125</ele>
        <time>2026-06-15T11:36:56.000Z</time>
        <extensions>
          <ns3:TrackPointExtension>
            <ns3:atemp>16.0</ns3:atemp>
          </ns3:TrackPointExtension>
        </extensions>
      </trkpt>
      <trkpt lat="42.56591149605810642242431640625" lon="20.05013960413634777069091796875">
        <ele>2151.39990234375</ele>
        <time>2026-06-15T11:36:57.000Z</time>
        <extensions>
          <ns3:TrackPointExtension>
            <ns3:atemp>16.0</ns3:atemp>
          </ns3:TrackPointExtension>
        </extensions>
      </trkpt>
      <trkpt lat="42.565901018679141998291015625" lon="20.0501735508441925048828125">
        <ele>2151.199951171875</ele>
        <time>2026-06-15T11:36:58.000Z</time>
        <extensions>
          <ns3:TrackPointExtension>
            <ns3:atemp>16.0</ns3:atemp>
          </ns3:TrackPointExtension>
        </extensions>
      </trkpt>
      <trkpt lat="42.56588819436728954315185546875" lon="20.05022392608225345611572265625">
        <ele>2151</ele>
        <time>2026-06-15T11:36:59.000Z</time>
        <extensions>
          <ns3:TrackPointExtension>
            <ns3:atemp>16.0</ns3:atemp>
          </ns3:TrackPointExtension>
        </extensions>
      </trkpt>
      <trkpt lat="42.56586254574358463287353515625" lon="20.0502781569957733154296875">
        <ele>2150.60009765625</ele>
        <time>2026-06-15T11:37:00.000Z</time>
        <extensions>
          <ns3:TrackPointExtension>
            <ns3:atemp>16.0</ns3:atemp>
          </ns3:TrackPointExtension>
        </extensions>
      </trkpt>
      <trkpt lat="42.56582784466445446014404296875" lon="20.0503168813884258270263671875">
        <ele>2150.39990234375</ele>
        <time>2026-06-15T11:37:01.000Z</time>
        <extensions>
          <ns3:TrackPointExtension>
            <ns3:atemp>16.0</ns3:atemp>
          </ns3:TrackPointExtension>
        </extensions>
      </trkpt>
      <trkpt lat="42.565799765288829803466796875" lon="20.05034764297306537628173828125">
        <ele>2149.800048828125</ele>
        <time>2026-06-15T11:37:02.000Z</time>
        <extensions>
          <ns3:TrackPointExtension>
            <ns3:atemp>16.0</ns3:atemp>
          </ns3:TrackPointExtension>
        </extensions>
      </trkpt>
      <trkpt lat="42.56576900370419025421142578125" lon="20.0503799133002758026123046875">
        <ele>2149</ele>
        <time>2026-06-15T11:37:03.000Z</time>
        <extensions>
          <ns3:TrackPointExtension>
            <ns3:atemp>16.0</ns3:atemp>
          </ns3:TrackPointExtension>
        </extensions>
      </trkpt>
      <trkpt lat="42.56574301980435848236083984375" lon="20.0504050590097904205322265625">
        <ele>2148.39990234375</ele>
        <time>2026-06-15T11:37:04.000Z</time>
        <extensions>
          <ns3:TrackPointExtension>
            <ns3:atemp>16.0</ns3:atemp>
          </ns3:TrackPointExtension>
        </extensions>
      </trkpt>
      <trkpt lat="42.565720975399017333984375" lon="20.05042911507189273834228515625">
        <ele>2148.199951171875</ele>
        <time>2026-06-15T11:37:05.000Z</time>
        <extensions>
          <ns3:TrackPointExtension>
            <ns3:atemp>16.0</ns3:atemp>
          </ns3:TrackPointExtension>
        </extensions>
      </trkpt>
      <trkpt lat="42.56570094265043735504150390625" lon="20.05045258440077304840087890625">
        <ele>2147.60009765625</ele>
        <time>2026-06-15T11:37:06.000Z</time>
        <extensions>
          <ns3:TrackPointExtension>
            <ns3:atemp>16.0</ns3:atemp>
          </ns3:TrackPointExtension>
        </extensions>
      </trkpt>
      <trkpt lat="42.565689124166965484619140625" lon="20.0504739582538604736328125">
        <ele>2147.39990234375</ele>
        <time>2026-06-15T11:37:07.000Z</time>
        <extensions>
          <ns3:TrackPointExtension>
            <ns3:atemp>16.0</ns3:atemp>
          </ns3:TrackPointExtension>
        </extensions>
      </trkpt>
      <trkpt lat="42.5656713545322418212890625" lon="20.05049851723015308380126953125">
        <ele>2147.199951171875</ele>
        <time>2026-06-15T11:37:08.000Z</time>
        <extensions>
          <ns3:TrackPointExtension>
            <ns3:atemp>16.0</ns3:atemp>
          </ns3:TrackPointExtension>
        </extensions>
      </trkpt>
      <trkpt lat="42.5656617991626262664794921875" lon="20.0505150295794010162353515625">
        <ele>2147</ele>
        <time>2026-06-15T11:37:09.000Z</time>
        <extensions>
          <ns3:TrackPointExtension>
            <ns3:atemp>16.0</ns3:atemp>
          </ns3:TrackPointExtension>
        </extensions>
      </trkpt>
      <trkpt lat="42.5656493939459323883056640625" lon="20.0505324639379978179931640625">
        <ele>2147</ele>
        <time>2026-06-15T11:37:10.000Z</time>
        <extensions>
          <ns3:TrackPointExtension>
            <ns3:atemp>16.0</ns3:atemp>
          </ns3:TrackPointExtension>
        </extensions>
      </trkpt>
      <trkpt lat="42.56563137285411357879638671875" lon="20.050551407039165496826171875">
        <ele>2147</ele>
        <time>2026-06-15T11:37:11.000Z</time>
        <extensions>
          <ns3:TrackPointExtension>
            <ns3:atemp>16.0</ns3:atemp>
          </ns3:TrackPointExtension>
        </extensions>
      </trkpt>
      <trkpt lat="42.5656037963926792144775390625" lon="20.0505758821964263916015625">
        <ele>2147.199951171875</ele>
        <time>2026-06-15T11:37:12.000Z</time>
        <extensions>
          <ns3:TrackPointExtension>
            <ns3:atemp>16.0</ns3:atemp>
          </ns3:TrackPointExtension>
        </extensions>
      </trkpt>
      <trkpt lat="42.56558577530086040496826171875" lon="20.05058652721345424652099609375">
        <ele>2147.39990234375</ele>
        <time>2026-06-15T11:37:13.000Z</time>
        <extensions>
          <ns3:TrackPointExtension>
            <ns3:atemp>16.0</ns3:atemp>
          </ns3:TrackPointExtension>
        </extensions>
      </trkpt>
      <trkpt lat="42.5655669160187244415283203125" lon="20.0506028719246387481689453125">
        <ele>2147.60009765625</ele>
        <time>2026-06-15T11:37:14.000Z</time>
        <extensions>
          <ns3:TrackPointExtension>
            <ns3:atemp>16.0</ns3:atemp>
          </ns3:TrackPointExtension>
        </extensions>
      </trkpt>
      <trkpt lat="42.56554864346981048583984375" lon="20.05062055774033069610595703125">
        <ele>2147.60009765625</ele>
        <time>2026-06-15T11:37:15.000Z</time>
        <extensions>
          <ns3:TrackPointExtension>
            <ns3:atemp>16.0</ns3:atemp>
          </ns3:TrackPointExtension>
        </extensions>
      </trkpt>
      <trkpt lat="42.56553347222506999969482421875" lon="20.05064285360276699066162109375">
        <ele>2147.800048828125</ele>
        <time>2026-06-15T11:37:16.000Z</time>
        <extensions>
          <ns3:TrackPointExtension>
            <ns3:atemp>16.0</ns3:atemp>
          </ns3:TrackPointExtension>
        </extensions>
      </trkpt>
      <trkpt lat="42.56551503203809261322021484375" lon="20.0506662391126155853271484375">
        <ele>2148</ele>
        <time>2026-06-15T11:37:17.000Z</time>
        <extensions>
          <ns3:TrackPointExtension>
            <ns3:atemp>16.0</ns3:atemp>
          </ns3:TrackPointExtension>
        </extensions>
      </trkpt>
      <trkpt lat="42.5654955022037029266357421875" lon="20.050680823624134063720703125">
        <ele>2148</ele>
        <time>2026-06-15T11:37:18.000Z</time>
        <extensions>
          <ns3:TrackPointExtension>
            <ns3:atemp>16.0</ns3:atemp>
          </ns3:TrackPointExtension>
        </extensions>
      </trkpt>
      <trkpt lat="42.56547597236931324005126953125" lon="20.05069968290627002716064453125">
        <ele>2148</ele>
        <time>2026-06-15T11:37:19.000Z</time>
        <extensions>
          <ns3:TrackPointExtension>
            <ns3:atemp>16.0</ns3:atemp>
          </ns3:TrackPointExtension>
        </extensions>
      </trkpt>
      <trkpt lat="42.56545518524944782257080078125" lon="20.0507195480167865753173828125">
        <ele>2148</ele>
        <time>2026-06-15T11:37:20.000Z</time>
        <extensions>
          <ns3:TrackPointExtension>
            <ns3:atemp>16.0</ns3:atemp>
          </ns3:TrackPointExtension>
        </extensions>
      </trkpt>
      <trkpt lat="42.5654299557209014892578125" lon="20.05074142478406429290771484375">
        <ele>2148</ele>
        <time>2026-06-15T11:37:21.000Z</time>
        <extensions>
          <ns3:TrackPointExtension>
            <ns3:atemp>16.0</ns3:atemp>
          </ns3:TrackPointExtension>
        </extensions>
      </trkpt>
      <trkpt lat="42.56540740840137004852294921875" lon="20.0507421791553497314453125">
        <ele>2148.39990234375</ele>
        <time>2026-06-15T11:37:22.000Z</time>
        <extensions>
          <ns3:TrackPointExtension>
            <ns3:atemp>16.0</ns3:atemp>
          </ns3:TrackPointExtension>
        </extensions>
      </trkpt>
      <trkpt lat="42.56539450027048587799072265625" lon="20.050730444490909576416015625">
        <ele>2148.60009765625</ele>
        <time>2026-06-15T11:37:23.000Z</time>
        <extensions>
          <ns3:TrackPointExtension>
            <ns3:atemp>16.0</ns3:atemp>
          </ns3:TrackPointExtension>
        </extensions>
      </trkpt>
      <trkpt lat="42.56538368761539459228515625" lon="20.05071736872196197509765625">
        <ele>2149</ele>
        <time>2026-06-15T11:37:24.000Z</time>
        <extensions>
          <ns3:TrackPointExtension>
            <ns3:atemp>16.0</ns3:atemp>
          </ns3:TrackPointExtension>
        </extensions>
      </trkpt>
      <trkpt lat="42.565369270741939544677734375" lon="20.05070672370493412017822265625">
        <ele>2149.60009765625</ele>
        <time>2026-06-15T11:37:25.000Z</time>
        <extensions>
          <ns3:TrackPointExtension>
            <ns3:atemp>16.0</ns3:atemp>
          </ns3:TrackPointExtension>
        </extensions>
      </trkpt>
      <trkpt lat="42.5653553567826747894287109375" lon="20.0507046282291412353515625">
        <ele>2150</ele>
        <time>2026-06-15T11:37:26.000Z</time>
        <extensions>
          <ns3:TrackPointExtension>
            <ns3:atemp>16.0</ns3:atemp>
          </ns3:TrackPointExtension>
        </extensions>
      </trkpt>
      <trkpt lat="42.56533985026180744171142578125" lon="20.05070320330560207366943359375">
        <ele>2150.60009765625</ele>
        <time>2026-06-15T11:37:27.000Z</time>
        <extensions>
          <ns3:TrackPointExtension>
            <ns3:atemp>16.0</ns3:atemp>
          </ns3:TrackPointExtension>
        </extensions>
      </trkpt>
      <trkpt lat="42.56532778032124042510986328125" lon="20.0507064722478389739990234375">
        <ele>2151.199951171875</ele>
        <time>2026-06-15T11:37:28.000Z</time>
        <extensions>
          <ns3:TrackPointExtension>
            <ns3:atemp>16.0</ns3:atemp>
          </ns3:TrackPointExtension>
        </extensions>
      </trkpt>
      <trkpt lat="42.56530799902975559234619140625" lon="20.05071393214166164398193359375">
        <ele>2151.800048828125</ele>
        <time>2026-06-15T11:37:29.000Z</time>
        <extensions>
          <ns3:TrackPointExtension>
            <ns3:atemp>16.0</ns3:atemp>
          </ns3:TrackPointExtension>
        </extensions>
      </trkpt>
      <trkpt lat="42.56528520025312900543212890625" lon="20.0507118366658687591552734375">
        <ele>2152.199951171875</ele>
        <time>2026-06-15T11:37:30.000Z</time>
        <extensions>
          <ns3:TrackPointExtension>
            <ns3:atemp>16.0</ns3:atemp>
          </ns3:TrackPointExtension>
        </extensions>
      </trkpt>
      <trkpt lat="42.56527983583509922027587890625" lon="20.050698928534984588623046875">
        <ele>2152.39990234375</ele>
        <time>2026-06-15T11:37:31.000Z</time>
        <extensions>
          <ns3:TrackPointExtension>
            <ns3:atemp>16.0</ns3:atemp>
          </ns3:TrackPointExtension>
        </extensions>
      </trkpt>
      <trkpt lat="42.5652805902063846588134765625" lon="20.05068652331829071044921875">
        <ele>2152.800048828125</ele>
        <time>2026-06-15T11:37:32.000Z</time>
        <extensions>
          <ns3:TrackPointExtension>
            <ns3:atemp>16.0</ns3:atemp>
          </ns3:TrackPointExtension>
        </extensions>
      </trkpt>
      <trkpt lat="42.5652842782437801361083984375" lon="20.0506749562919139862060546875">
        <ele>2153.199951171875</ele>
        <time>2026-06-15T11:37:33.000Z</time>
        <extensions>
          <ns3:TrackPointExtension>
            <ns3:atemp>16.0</ns3:atemp>
          </ns3:TrackPointExtension>
        </extensions>
      </trkpt>
      <trkpt lat="42.5652852840721607208251953125" lon="20.05066162906587123870849609375">
        <ele>2153.39990234375</ele>
        <time>2026-06-15T11:37:34.000Z</time>
        <extensions>
          <ns3:TrackPointExtension>
            <ns3:atemp>16.0</ns3:atemp>
          </ns3:TrackPointExtension>
        </extensions>
      </trkpt>
      <trkpt lat="42.565282769501209259033203125" lon="20.05064360797405242919921875">
        <ele>2153.800048828125</ele>
        <time>2026-06-15T11:37:35.000Z</time>
        <extensions>
          <ns3:TrackPointExtension>
            <ns3:atemp>16.0</ns3:atemp>
          </ns3:TrackPointExtension>
        </extensions>
      </trkpt>
      <trkpt lat="42.5652829371392726898193359375" lon="20.05062273703515529632568359375">
        <ele>2154</ele>
        <time>2026-06-15T11:37:36.000Z</time>
        <extensions>
          <ns3:TrackPointExtension>
            <ns3:atemp>16.0</ns3:atemp>
          </ns3:TrackPointExtension>
        </extensions>
      </trkpt>
      <trkpt lat="42.56528587080538272857666015625" lon="20.050601698458194732666015625">
        <ele>2154.39990234375</ele>
        <time>2026-06-15T11:37:37.000Z</time>
        <extensions>
          <ns3:TrackPointExtension>
            <ns3:atemp>16.0</ns3:atemp>
          </ns3:TrackPointExtension>
        </extensions>
      </trkpt>
      <trkpt lat="42.56529291160404682159423828125" lon="20.0505763851106166839599609375">
        <ele>2154.800048828125</ele>
        <time>2026-06-15T11:37:38.000Z</time>
        <extensions>
          <ns3:TrackPointExtension>
            <ns3:atemp>16.0</ns3:atemp>
          </ns3:TrackPointExtension>
        </extensions>
      </trkpt>
      <trkpt lat="42.56529542617499828338623046875" lon="20.050550401210784912109375">
        <ele>2155.199951171875</ele>
        <time>2026-06-15T11:37:39.000Z</time>
        <extensions>
          <ns3:TrackPointExtension>
            <ns3:atemp>16.0</ns3:atemp>
          </ns3:TrackPointExtension>
        </extensions>
      </trkpt>
      <trkpt lat="42.5652929954230785369873046875" lon="20.0505210645496845245361328125">
        <ele>2155.60009765625</ele>
        <time>2026-06-15T11:37:40.000Z</time>
        <extensions>
          <ns3:TrackPointExtension>
            <ns3:atemp>16.0</ns3:atemp>
          </ns3:TrackPointExtension>
        </extensions>
      </trkpt>
      <trkpt lat="42.56528737954795360565185546875" lon="20.05048812367022037506103515625">
        <ele>2156</ele>
        <time>2026-06-15T11:37:41.000Z</time>
        <extensions>
          <ns3:TrackPointExtension>
            <ns3:atemp>16.0</ns3:atemp>
          </ns3:TrackPointExtension>
        </extensions>
      </trkpt>
      <trkpt lat="42.5652851164340972900390625" lon="20.050460211932659149169921875">
        <ele>2156.39990234375</ele>
        <time>2026-06-15T11:37:42.000Z</time>
        <extensions>
          <ns3:TrackPointExtension>
            <ns3:atemp>16.0</ns3:atemp>
          </ns3:TrackPointExtension>
        </extensions>
      </trkpt>
      <trkpt lat="42.56528050638735294342041015625" lon="20.050435401499271392822265625">
        <ele>2156.60009765625</ele>
        <time>2026-06-15T11:37:43.000Z</time>
        <extensions>
          <ns3:TrackPointExtension>
            <ns3:atemp>16.0</ns3:atemp>
          </ns3:TrackPointExtension>
        </extensions>
      </trkpt>
      <trkpt lat="42.5652718730270862579345703125" lon="20.0504053942859172821044921875">
        <ele>2157.199951171875</ele>
        <time>2026-06-15T11:37:44.000Z</time>
        <extensions>
          <ns3:TrackPointExtension>
            <ns3:atemp>16.0</ns3:atemp>
          </ns3:TrackPointExtension>
        </extensions>
      </trkpt>
      <trkpt lat="42.56526810117065906524658203125" lon="20.05037647671997547149658203125">
        <ele>2157.60009765625</ele>
        <time>2026-06-15T11:37:45.000Z</time>
        <extensions>
          <ns3:TrackPointExtension>
            <ns3:atemp>16.0</ns3:atemp>
          </ns3:TrackPointExtension>
        </extensions>
      </trkpt>
      <trkpt lat="42.565273381769657135009765625" lon="20.05034395493566989898681640625">
        <ele>2158</ele>
        <time>2026-06-15T11:37:46.000Z</time>
        <extensions>
          <ns3:TrackPointExtension>
            <ns3:atemp>16.0</ns3:atemp>
          </ns3:TrackPointExtension>
        </extensions>
      </trkpt>
      <trkpt lat="42.56528235040605068206787109375" lon="20.050306655466556549072265625">
        <ele>2158.39990234375</ele>
        <time>2026-06-15T11:37:47.000Z</time>
        <extensions>
          <ns3:TrackPointExtension>
            <ns3:atemp>16.0</ns3:atemp>
          </ns3:TrackPointExtension>
        </extensions>
      </trkpt>
      <trkpt lat="42.565296851098537445068359375" lon="20.050271451473236083984375">
        <ele>2158.60009765625</ele>
        <time>2026-06-15T11:37:48.000Z</time>
        <extensions>
          <ns3:TrackPointExtension>
            <ns3:atemp>16.0</ns3:atemp>
          </ns3:TrackPointExtension>
        </extensions>
      </trkpt>
      <trkpt lat="42.56530632264912128448486328125" lon="20.05024571903049945831298828125">
        <ele>2158.800048828125</ele>
        <time>2026-06-15T11:37:49.000Z</time>
        <extensions>
          <ns3:TrackPointExtension>
            <ns3:atemp>16.0</ns3:atemp>
          </ns3:TrackPointExtension>
        </extensions>
      </trkpt>
      <trkpt lat="42.5653127767145633697509765625" lon="20.0502152927219867706298828125">
        <ele>2159</ele>
        <time>2026-06-15T11:37:50.000Z</time>
        <extensions>
          <ns3:TrackPointExtension>
            <ns3:atemp>16.0</ns3:atemp>
          </ns3:TrackPointExtension>
        </extensions>
      </trkpt>
      <trkpt lat="42.56531772203743457794189453125" lon="20.05019593052566051483154296875">
        <ele>2159.199951171875</ele>
        <time>2026-06-15T11:37:51.000Z</time>
        <extensions>
          <ns3:TrackPointExtension>
            <ns3:atemp>16.0</ns3:atemp>
          </ns3:TrackPointExtension>
        </extensions>
      </trkpt>
      <trkpt lat="42.56532174535095691680908203125" lon="20.0501710362732410430908203125">
        <ele>2159.39990234375</ele>
        <time>2026-06-15T11:37:52.000Z</time>
        <extensions>
          <ns3:TrackPointExtension>
            <ns3:atemp>16.0</ns3:atemp>
          </ns3:TrackPointExtension>
        </extensions>
      </trkpt>
      <trkpt lat="42.565327696502208709716796875" lon="20.05014915950596332550048828125">
        <ele>2159.60009765625</ele>
        <time>2026-06-15T11:37:53.000Z</time>
        <extensions>
          <ns3:TrackPointExtension>
            <ns3:atemp>16.0</ns3:atemp>
          </ns3:TrackPointExtension>
        </extensions>
      </trkpt>
      <trkpt lat="42.56533138453960418701171875" lon="20.0501239299774169921875">
        <ele>2160</ele>
        <time>2026-06-15T11:37:54.000Z</time>
        <extensions>
          <ns3:TrackPointExtension>
            <ns3:atemp>16.0</ns3:atemp>
          </ns3:TrackPointExtension>
        </extensions>
      </trkpt>
      <trkpt lat="42.56533348001539707183837890625" lon="20.050096102058887481689453125">
        <ele>2160</ele>
        <time>2026-06-15T11:37:55.000Z</time>
        <extensions>
          <ns3:TrackPointExtension>
            <ns3:atemp>16.0</ns3:atemp>
          </ns3:TrackPointExtension>
        </extensions>
      </trkpt>
      <trkpt lat="42.56533482111990451812744140625" lon="20.05007590167224407196044921875">
        <ele>2160.199951171875</ele>
        <time>2026-06-15T11:37:56.000Z</time>
        <extensions>
          <ns3:TrackPointExtension>
            <ns3:atemp>16.0</ns3:atemp>
          </ns3:TrackPointExtension>
        </extensions>
      </trkpt>
      <trkpt lat="42.56533448584377765655517578125" lon="20.05004815757274627685546875">
        <ele>2160.39990234375</ele>
        <time>2026-06-15T11:37:57.000Z</time>
        <extensions>
          <ns3:TrackPointExtension>
            <ns3:atemp>16.0</ns3:atemp>
          </ns3:TrackPointExtension>
        </extensions>
      </trkpt>
      <trkpt lat="42.56533750332891941070556640625" lon="20.0500221736729145050048828125">
        <ele>2160.60009765625</ele>
        <time>2026-06-15T11:37:58.000Z</time>
        <extensions>
          <ns3:TrackPointExtension>
            <ns3:atemp>16.0</ns3:atemp>
          </ns3:TrackPointExtension>
        </extensions>
      </trkpt>
      <trkpt lat="42.5653439573943614959716796875" lon="20.050000883638858795166015625">
        <ele>2160.800048828125</ele>
        <time>2026-06-15T11:37:59.000Z</time>
        <extensions>
          <ns3:TrackPointExtension>
            <ns3:atemp>16.0</ns3:atemp>
          </ns3:TrackPointExtension>
        </extensions>
      </trkpt>
      <trkpt lat="42.5653489865362644195556640625" lon="20.04998914897441864013671875">
        <ele>2161</ele>
        <time>2026-06-15T11:38:00.000Z</time>
        <extensions>
          <ns3:TrackPointExtension>
            <ns3:atemp>16.0</ns3:atemp>
          </ns3:TrackPointExtension>
        </extensions>
      </trkpt>
      <trkpt lat="42.5653496570885181427001953125" lon="20.0499859638512134552001953125">
        <ele>2161.199951171875</ele>
        <time>2026-06-15T11:38:01.000Z</time>
        <extensions>
          <ns3:TrackPointExtension>
            <ns3:atemp>16.0</ns3:atemp>
          </ns3:TrackPointExtension>
        </extensions>
      </trkpt>
      <trkpt lat="42.56534957326948642730712890625" lon="20.04998588003218173980712890625">
        <ele>2161.60009765625</ele>
        <time>2026-06-15T11:38:02.000Z</time>
        <extensions>
          <ns3:TrackPointExtension>
            <ns3:atemp>16.0</ns3:atemp>
          </ns3:TrackPointExtension>
        </extensions>
      </trkpt>
      <trkpt lat="42.56534957326948642730712890625" lon="20.04998588003218173980712890625">
        <ele>2161.800048828125</ele>
        <time>2026-06-15T11:38:03.000Z</time>
        <extensions>
          <ns3:TrackPointExtension>
            <ns3:atemp>16.0</ns3:atemp>
          </ns3:TrackPointExtension>
        </extensions>
      </trkpt>
      <trkpt lat="42.5653494894504547119140625" lon="20.0499856285750865936279296875">
        <ele>2162</ele>
        <time>2026-06-15T11:38:04.000Z</time>
        <extensions>
          <ns3:TrackPointExtension>
            <ns3:atemp>16.0</ns3:atemp>
          </ns3:TrackPointExtension>
        </extensions>
      </trkpt>
      <trkpt lat="42.5653479807078838348388671875" lon="20.0499809347093105316162109375">
        <ele>2162.39990234375</ele>
        <time>2026-06-15T11:38:05.000Z</time>
        <extensions>
          <ns3:TrackPointExtension>
            <ns3:atemp>16.0</ns3:atemp>
          </ns3:TrackPointExtension>
        </extensions>
      </trkpt>
      <trkpt lat="42.56534957326948642730712890625" lon="20.04998588003218173980712890625">
        <ele>2162.39990234375</ele>
        <time>2026-06-15T11:38:06.000Z</time>
        <extensions>
          <ns3:TrackPointExtension>
            <ns3:atemp>16.0</ns3:atemp>
          </ns3:TrackPointExtension>
        </extensions>
      </trkpt>
      <trkpt lat="42.56534957326948642730712890625" lon="20.04998588003218173980712890625">
        <ele>2162.60009765625</ele>
        <time>2026-06-15T11:38:07.000Z</time>
        <extensions>
          <ns3:TrackPointExtension>
            <ns3:atemp>16.0</ns3:atemp>
          </ns3:TrackPointExtension>
        </extensions>
      </trkpt>
      <trkpt lat="42.56534957326948642730712890625" lon="20.04998588003218173980712890625">
        <ele>2162.60009765625</ele>
        <time>2026-06-15T11:38:08.000Z</time>
        <extensions>
          <ns3:TrackPointExtension>
            <ns3:atemp>16.0</ns3:atemp>
          </ns3:TrackPointExtension>
        </extensions>
      </trkpt>
      <trkpt lat="42.56534957326948642730712890625" lon="20.04998588003218173980712890625">
        <ele>2162.39990234375</ele>
        <time>2026-06-15T11:38:09.000Z</time>
        <extensions>
          <ns3:TrackPointExtension>
            <ns3:atemp>16.0</ns3:atemp>
          </ns3:TrackPointExtension>
        </extensions>
      </trkpt>
      <trkpt lat="42.56534957326948642730712890625" lon="20.04998588003218173980712890625">
        <ele>2162.39990234375</ele>
        <time>2026-06-15T11:38:10.000Z</time>
        <extensions>
          <ns3:TrackPointExtension>
            <ns3:atemp>16.0</ns3:atemp>
          </ns3:TrackPointExtension>
        </extensions>
      </trkpt>
      <trkpt lat="42.56534957326948642730712890625" lon="20.04998588003218173980712890625">
        <ele>2162.199951171875</ele>
        <time>2026-06-15T11:38:11.000Z</time>
        <extensions>
          <ns3:TrackPointExtension>
            <ns3:atemp>16.0</ns3:atemp>
          </ns3:TrackPointExtension>
        </extensions>
      </trkpt>
      <trkpt lat="42.56534957326948642730712890625" lon="20.04998588003218173980712890625">
        <ele>2162</ele>
        <time>2026-06-15T11:38:12.000Z</time>
        <extensions>
          <ns3:TrackPointExtension>
            <ns3:atemp>16.0</ns3:atemp>
          </ns3:TrackPointExtension>
        </extensions>
      </trkpt>
      <trkpt lat="42.56534957326948642730712890625" lon="20.04998588003218173980712890625">
        <ele>2162</ele>
        <time>2026-06-15T11:38:13.000Z</time>
        <extensions>
          <ns3:TrackPointExtension>
            <ns3:atemp>16.0</ns3:atemp>
          </ns3:TrackPointExtension>
        </extensions>
      </trkpt>
      <trkpt lat="42.56534957326948642730712890625" lon="20.04998588003218173980712890625">
        <ele>2162</ele>
        <time>2026-06-15T11:38:14.000Z</time>
        <extensions>
          <ns3:TrackPointExtension>
            <ns3:atemp>16.0</ns3:atemp>
          </ns3:TrackPointExtension>
        </extensions>
      </trkpt>
      <trkpt lat="42.56534957326948642730712890625" lon="20.04998588003218173980712890625">
        <ele>2161.800048828125</ele>
        <time>2026-06-15T11:38:15.000Z</time>
        <extensions>
          <ns3:TrackPointExtension>
            <ns3:atemp>16.0</ns3:atemp>
          </ns3:TrackPointExtension>
        </extensions>
      </trkpt>
      <trkpt lat="42.56534957326948642730712890625" lon="20.04998588003218173980712890625">
        <ele>2161.800048828125</ele>
        <time>2026-06-15T11:38:16.000Z</time>
        <extensions>
          <ns3:TrackPointExtension>
            <ns3:atemp>16.0</ns3:atemp>
          </ns3:TrackPointExtension>
        </extensions>
      </trkpt>
      <trkpt lat="42.56534957326948642730712890625" lon="20.04998588003218173980712890625">
        <ele>2161.800048828125</ele>
        <time>2026-06-15T11:38:17.000Z</time>
        <extensions>
          <ns3:TrackPointExtension>
            <ns3:atemp>16.0</ns3:atemp>
          </ns3:TrackPointExtension>
        </extensions>
      </trkpt>
      <trkpt lat="42.56534957326948642730712890625" lon="20.04998588003218173980712890625">
        <ele>2161.800048828125</ele>
        <time>2026-06-15T11:38:18.000Z</time>
        <extensions>
          <ns3:TrackPointExtension>
            <ns3:atemp>16.0</ns3:atemp>
          </ns3:TrackPointExtension>
        </extensions>
      </trkpt>
      <trkpt lat="42.56534957326948642730712890625" lon="20.04998588003218173980712890625">
        <ele>2161.800048828125</ele>
        <time>2026-06-15T11:38:19.000Z</time>
        <extensions>
          <ns3:TrackPointExtension>
            <ns3:atemp>16.0</ns3:atemp>
          </ns3:TrackPointExtension>
        </extensions>
      </trkpt>
      <trkpt lat="42.56534957326948642730712890625" lon="20.04998588003218173980712890625">
        <ele>2161.800048828125</ele>
        <time>2026-06-15T11:38:20.000Z</time>
        <extensions>
          <ns3:TrackPointExtension>
            <ns3:atemp>16.0</ns3:atemp>
          </ns3:TrackPointExtension>
        </extensions>
      </trkpt>
      <trkpt lat="42.56534957326948642730712890625" lon="20.04998588003218173980712890625">
        <ele>2161.800048828125</ele>
        <time>2026-06-15T11:38:21.000Z</time>
        <extensions>
          <ns3:TrackPointExtension>
            <ns3:atemp>16.0</ns3:atemp>
          </ns3:TrackPointExtension>
        </extensions>
      </trkpt>
      <trkpt lat="42.56534957326948642730712890625" lon="20.04998588003218173980712890625">
        <ele>2161.800048828125</ele>
        <time>2026-06-15T11:38:22.000Z</time>
        <extensions>
          <ns3:TrackPointExtension>
            <ns3:atemp>16.0</ns3:atemp>
          </ns3:TrackPointExtension>
        </extensions>
      </trkpt>
      <trkpt lat="42.56534957326948642730712890625" lon="20.04998588003218173980712890625">
        <ele>2161.800048828125</ele>
        <time>2026-06-15T11:38:23.000Z</time>
        <extensions>
          <ns3:TrackPointExtension>
            <ns3:atemp>16.0</ns3:atemp>
          </ns3:TrackPointExtension>
        </extensions>
      </trkpt>
      <trkpt lat="42.56534957326948642730712890625" lon="20.04998588003218173980712890625">
        <ele>2161.60009765625</ele>
        <time>2026-06-15T11:38:24.000Z</time>
        <extensions>
          <ns3:TrackPointExtension>
            <ns3:atemp>16.0</ns3:atemp>
          </ns3:TrackPointExtension>
        </extensions>
      </trkpt>
      <trkpt lat="42.56534957326948642730712890625" lon="20.04998588003218173980712890625">
        <ele>2161.60009765625</ele>
        <time>2026-06-15T11:38:25.000Z</time>
        <extensions>
          <ns3:TrackPointExtension>
            <ns3:atemp>16.0</ns3:atemp>
          </ns3:TrackPointExtension>
        </extensions>
      </trkpt>
      <trkpt lat="42.56534957326948642730712890625" lon="20.04998588003218173980712890625">
        <ele>2161.60009765625</ele>
        <time>2026-06-15T11:38:26.000Z</time>
        <extensions>
          <ns3:TrackPointExtension>
            <ns3:atemp>16.0</ns3:atemp>
          </ns3:TrackPointExtension>
        </extensions>
      </trkpt>
      <trkpt lat="42.56534957326948642730712890625" lon="20.04998588003218173980712890625">
        <ele>2161.60009765625</ele>
        <time>2026-06-15T11:38:27.000Z</time>
        <extensions>
          <ns3:TrackPointExtension>
            <ns3:atemp>16.0</ns3:atemp>
          </ns3:TrackPointExtension>
        </extensions>
      </trkpt>
      <trkpt lat="42.56534957326948642730712890625" lon="20.04998588003218173980712890625">
        <ele>2161.39990234375</ele>
        <time>2026-06-15T11:38:28.000Z</time>
        <extensions>
          <ns3:TrackPointExtension>
            <ns3:atemp>16.0</ns3:atemp>
          </ns3:TrackPointExtension>
        </extensions>
      </trkpt>
      <trkpt lat="42.56534957326948642730712890625" lon="20.04998588003218173980712890625">
        <ele>2161.39990234375</ele>
        <time>2026-06-15T11:38:29.000Z</time>
        <extensions>
          <ns3:TrackPointExtension>
            <ns3:atemp>16.0</ns3:atemp>
          </ns3:TrackPointExtension>
        </extensions>
      </trkpt>
      <trkpt lat="42.56534957326948642730712890625" lon="20.04998588003218173980712890625">
        <ele>2161.199951171875</ele>
        <time>2026-06-15T11:38:30.000Z</time>
        <extensions>
          <ns3:TrackPointExtension>
            <ns3:atemp>16.0</ns3:atemp>
          </ns3:TrackPointExtension>
        </extensions>
      </trkpt>
      <trkpt lat="42.56534957326948642730712890625" lon="20.04998588003218173980712890625">
        <ele>2161.199951171875</ele>
        <time>2026-06-15T11:38:31.000Z</time>
        <extensions>
          <ns3:TrackPointExtension>
            <ns3:atemp>16.0</ns3:atemp>
          </ns3:TrackPointExtension>
        </extensions>
      </trkpt>
      <trkpt lat="42.56534957326948642730712890625" lon="20.04998588003218173980712890625">
        <ele>2161</ele>
        <time>2026-06-15T11:38:32.000Z</time>
        <extensions>
          <ns3:TrackPointExtension>
            <ns3:atemp>16.0</ns3:atemp>
          </ns3:TrackPointExtension>
        </extensions>
      </trkpt>
      <trkpt lat="42.56534957326948642730712890625" lon="20.04998588003218173980712890625">
        <ele>2161</ele>
        <time>2026-06-15T11:38:33.000Z</time>
        <extensions>
          <ns3:TrackPointExtension>
            <ns3:atemp>16.0</ns3:atemp>
          </ns3:TrackPointExtension>
        </extensions>
      </trkpt>
      <trkpt lat="42.56534957326948642730712890625" lon="20.04998588003218173980712890625">
        <ele>2161</ele>
        <time>2026-06-15T11:38:34.000Z</time>
        <extensions>
          <ns3:TrackPointExtension>
            <ns3:atemp>16.0</ns3:atemp>
          </ns3:TrackPointExtension>
        </extensions>
      </trkpt>
      <trkpt lat="42.56534957326948642730712890625" lon="20.04998588003218173980712890625">
        <ele>2161</ele>
        <time>2026-06-15T11:38:35.000Z</time>
        <extensions>
          <ns3:TrackPointExtension>
            <ns3:atemp>16.0</ns3:atemp>
          </ns3:TrackPointExtension>
        </extensions>
      </trkpt>
      <trkpt lat="42.56534957326948642730712890625" lon="20.04998588003218173980712890625">
        <ele>2161</ele>
        <time>2026-06-15T11:38:36.000Z</time>
        <extensions>
          <ns3:TrackPointExtension>
            <ns3:atemp>16.0</ns3:atemp>
          </ns3:TrackPointExtension>
        </extensions>
      </trkpt>
      <trkpt lat="42.56534957326948642730712890625" lon="20.04998588003218173980712890625">
        <ele>2161</ele>
        <time>2026-06-15T11:38:37.000Z</time>
        <extensions>
          <ns3:TrackPointExtension>
            <ns3:atemp>16.0</ns3:atemp>
          </ns3:TrackPointExtension>
        </extensions>
      </trkpt>
      <trkpt lat="42.56534957326948642730712890625" lon="20.04998588003218173980712890625">
        <ele>2161</ele>
        <time>2026-06-15T11:38:38.000Z</time>
        <extensions>
          <ns3:TrackPointExtension>
            <ns3:atemp>16.0</ns3:atemp>
          </ns3:TrackPointExtension>
        </extensions>
      </trkpt>
      <trkpt lat="42.56534957326948642730712890625" lon="20.04998588003218173980712890625">
        <ele>2161</ele>
        <time>2026-06-15T11:38:39.000Z</time>
        <extensions>
          <ns3:TrackPointExtension>
            <ns3:atemp>16.0</ns3:atemp>
          </ns3:TrackPointExtension>
        </extensions>
      </trkpt>
      <trkpt lat="42.56534957326948642730712890625" lon="20.04998588003218173980712890625">
        <ele>2161</ele>
        <time>2026-06-15T11:38:40.000Z</time>
        <extensions>
          <ns3:TrackPointExtension>
            <ns3:atemp>16.0</ns3:atemp>
          </ns3:TrackPointExtension>
        </extensions>
      </trkpt>
      <trkpt lat="42.56534957326948642730712890625" lon="20.04998588003218173980712890625">
        <ele>2161</ele>
        <time>2026-06-15T11:38:41.000Z</time>
        <extensions>
          <ns3:TrackPointExtension>
            <ns3:atemp>16.0</ns3:atemp>
          </ns3:TrackPointExtension>
        </extensions>
      </trkpt>
      <trkpt lat="42.56534957326948642730712890625" lon="20.04998588003218173980712890625">
        <ele>2161</ele>
        <time>2026-06-15T11:38:42.000Z</time>
        <extensions>
          <ns3:TrackPointExtension>
            <ns3:atemp>16.0</ns3:atemp>
          </ns3:TrackPointExtension>
        </extensions>
      </trkpt>
      <trkpt lat="42.56534957326948642730712890625" lon="20.04998588003218173980712890625">
        <ele>2161</ele>
        <time>2026-06-15T11:38:43.000Z</time>
        <extensions>
          <ns3:TrackPointExtension>
            <ns3:atemp>16.0</ns3:atemp>
          </ns3:TrackPointExtension>
        </extensions>
      </trkpt>
      <trkpt lat="42.56534957326948642730712890625" lon="20.04998588003218173980712890625">
        <ele>2161</ele>
        <time>2026-06-15T11:38:44.000Z</time>
        <extensions>
          <ns3:TrackPointExtension>
            <ns3:atemp>16.0</ns3:atemp>
          </ns3:TrackPointExtension>
        </extensions>
      </trkpt>
      <trkpt lat="42.56534957326948642730712890625" lon="20.04998588003218173980712890625">
        <ele>2161</ele>
        <time>2026-06-15T11:38:45.000Z</time>
        <extensions>
          <ns3:TrackPointExtension>
            <ns3:atemp>16.0</ns3:atemp>
          </ns3:TrackPointExtension>
        </extensions>
      </trkpt>
      <trkpt lat="42.56534957326948642730712890625" lon="20.04998588003218173980712890625">
        <ele>2160.800048828125</ele>
        <time>2026-06-15T11:38:46.000Z</time>
        <extensions>
          <ns3:TrackPointExtension>
            <ns3:atemp>16.0</ns3:atemp>
          </ns3:TrackPointExtension>
        </extensions>
      </trkpt>
      <trkpt lat="42.56534957326948642730712890625" lon="20.04998588003218173980712890625">
        <ele>2160.800048828125</ele>
        <time>2026-06-15T11:38:47.000Z</time>
        <extensions>
          <ns3:TrackPointExtension>
            <ns3:atemp>16.0</ns3:atemp>
          </ns3:TrackPointExtension>
        </extensions>
      </trkpt>
      <trkpt lat="42.56534957326948642730712890625" lon="20.04998588003218173980712890625">
        <ele>2160.60009765625</ele>
        <time>2026-06-15T11:38:48.000Z</time>
        <extensions>
          <ns3:TrackPointExtension>
            <ns3:atemp>16.0</ns3:atemp>
          </ns3:TrackPointExtension>
        </extensions>
      </trkpt>
      <trkpt lat="42.56534957326948642730712890625" lon="20.04998588003218173980712890625">
        <ele>2160.60009765625</ele>
        <time>2026-06-15T11:38:49.000Z</time>
        <extensions>
          <ns3:TrackPointExtension>
            <ns3:atemp>16.0</ns3:atemp>
          </ns3:TrackPointExtension>
        </extensions>
      </trkpt>
      <trkpt lat="42.56534957326948642730712890625" lon="20.04998588003218173980712890625">
        <ele>2160.60009765625</ele>
        <time>2026-06-15T11:38:50.000Z</time>
        <extensions>
          <ns3:TrackPointExtension>
            <ns3:atemp>16.0</ns3:atemp>
          </ns3:TrackPointExtension>
        </extensions>
      </trkpt>
      <trkpt lat="42.56534957326948642730712890625" lon="20.04998588003218173980712890625">
        <ele>2160.60009765625</ele>
        <time>2026-06-15T11:38:51.000Z</time>
        <extensions>
          <ns3:TrackPointExtension>
            <ns3:atemp>16.0</ns3:atemp>
          </ns3:TrackPointExtension>
        </extensions>
      </trkpt>
      <trkpt lat="42.56534957326948642730712890625" lon="20.04998588003218173980712890625">
        <ele>2160.800048828125</ele>
        <time>2026-06-15T11:38:52.000Z</time>
        <extensions>
          <ns3:TrackPointExtension>
            <ns3:atemp>16.0</ns3:atemp>
          </ns3:TrackPointExtension>
        </extensions>
      </trkpt>
      <trkpt lat="42.56534957326948642730712890625" lon="20.04998588003218173980712890625">
        <ele>2160.800048828125</ele>
        <time>2026-06-15T11:38:53.000Z</time>
        <extensions>
          <ns3:TrackPointExtension>
            <ns3:atemp>16.0</ns3:atemp>
          </ns3:TrackPointExtension>
        </extensions>
      </trkpt>
      <trkpt lat="42.56534957326948642730712890625" lon="20.04998588003218173980712890625">
        <ele>2160.800048828125</ele>
        <time>2026-06-15T11:38:54.000Z</time>
        <extensions>
          <ns3:TrackPointExtension>
            <ns3:atemp>16.0</ns3:atemp>
          </ns3:TrackPointExtension>
        </extensions>
      </trkpt>
      <trkpt lat="42.56534957326948642730712890625" lon="20.04998588003218173980712890625">
        <ele>2161</ele>
        <time>2026-06-15T11:38:55.000Z</time>
        <extensions>
          <ns3:TrackPointExtension>
            <ns3:atemp>16.0</ns3:atemp>
          </ns3:TrackPointExtension>
        </extensions>
      </trkpt>
      <trkpt lat="42.56534957326948642730712890625" lon="20.04998588003218173980712890625">
        <ele>2161</ele>
        <time>2026-06-15T11:38:56.000Z</time>
        <extensions>
          <ns3:TrackPointExtension>
            <ns3:atemp>16.0</ns3:atemp>
          </ns3:TrackPointExtension>
        </extensions>
      </trkpt>
      <trkpt lat="42.56534957326948642730712890625" lon="20.04998588003218173980712890625">
        <ele>2161</ele>
        <time>2026-06-15T11:38:57.000Z</time>
        <extensions>
          <ns3:TrackPointExtension>
            <ns3:atemp>16.0</ns3:atemp>
          </ns3:TrackPointExtension>
        </extensions>
      </trkpt>
      <trkpt lat="42.56534957326948642730712890625" lon="20.04998588003218173980712890625">
        <ele>2161</ele>
        <time>2026-06-15T11:38:58.000Z</time>
        <extensions>
          <ns3:TrackPointExtension>
            <ns3:atemp>16.0</ns3:atemp>
          </ns3:TrackPointExtension>
        </extensions>
      </trkpt>
      <trkpt lat="42.56534957326948642730712890625" lon="20.04998588003218173980712890625">
        <ele>2161</ele>
        <time>2026-06-15T11:38:59.000Z</time>
        <extensions>
          <ns3:TrackPointExtension>
            <ns3:atemp>16.0</ns3:atemp>
          </ns3:TrackPointExtension>
        </extensions>
      </trkpt>
      <trkpt lat="42.56534957326948642730712890625" lon="20.04998588003218173980712890625">
        <ele>2161</ele>
        <time>2026-06-15T11:39:00.000Z</time>
        <extensions>
          <ns3:TrackPointExtension>
            <ns3:atemp>16.0</ns3:atemp>
          </ns3:TrackPointExtension>
        </extensions>
      </trkpt>
      <trkpt lat="42.56534957326948642730712890625" lon="20.04998588003218173980712890625">
        <ele>2161</ele>
        <time>2026-06-15T11:39:01.000Z</time>
        <extensions>
          <ns3:TrackPointExtension>
            <ns3:atemp>16.0</ns3:atemp>
          </ns3:TrackPointExtension>
        </extensions>
      </trkpt>
      <trkpt lat="42.56534957326948642730712890625" lon="20.04998588003218173980712890625">
        <ele>2161</ele>
        <time>2026-06-15T11:39:02.000Z</time>
        <extensions>
          <ns3:TrackPointExtension>
            <ns3:atemp>16.0</ns3:atemp>
          </ns3:TrackPointExtension>
        </extensions>
      </trkpt>
      <trkpt lat="42.56534957326948642730712890625" lon="20.04998588003218173980712890625">
        <ele>2161</ele>
        <time>2026-06-15T11:39:03.000Z</time>
        <extensions>
          <ns3:TrackPointExtension>
            <ns3:atemp>16.0</ns3:atemp>
          </ns3:TrackPointExtension>
        </extensions>
      </trkpt>
      <trkpt lat="42.56534957326948642730712890625" lon="20.04998588003218173980712890625">
        <ele>2161</ele>
        <time>2026-06-15T11:39:04.000Z</time>
        <extensions>
          <ns3:TrackPointExtension>
            <ns3:atemp>16.0</ns3:atemp>
          </ns3:TrackPointExtension>
        </extensions>
      </trkpt>
      <trkpt lat="42.56534957326948642730712890625" lon="20.04998588003218173980712890625">
        <ele>2161</ele>
        <time>2026-06-15T11:39:05.000Z</time>
        <extensions>
          <ns3:TrackPointExtension>
            <ns3:atemp>16.0</ns3:atemp>
          </ns3:TrackPointExtension>
        </extensions>
      </trkpt>
      <trkpt lat="42.56534957326948642730712890625" lon="20.04998588003218173980712890625">
        <ele>2161</ele>
        <time>2026-06-15T11:39:06.000Z</time>
        <extensions>
          <ns3:TrackPointExtension>
            <ns3:atemp>16.0</ns3:atemp>
          </ns3:TrackPointExtension>
        </extensions>
      </trkpt>
      <trkpt lat="42.56534957326948642730712890625" lon="20.04998588003218173980712890625">
        <ele>2161</ele>
        <time>2026-06-15T11:39:07.000Z</time>
        <extensions>
          <ns3:TrackPointExtension>
            <ns3:atemp>16.0</ns3:atemp>
          </ns3:TrackPointExtension>
        </extensions>
      </trkpt>
      <trkpt lat="42.56534957326948642730712890625" lon="20.04998588003218173980712890625">
        <ele>2161.199951171875</ele>
        <time>2026-06-15T11:39:08.000Z</time>
        <extensions>
          <ns3:TrackPointExtension>
            <ns3:atemp>16.0</ns3:atemp>
          </ns3:TrackPointExtension>
        </extensions>
      </trkpt>
      <trkpt lat="42.56534957326948642730712890625" lon="20.04998588003218173980712890625">
        <ele>2161.199951171875</ele>
        <time>2026-06-15T11:39:09.000Z</time>
        <extensions>
          <ns3:TrackPointExtension>
            <ns3:atemp>16.0</ns3:atemp>
          </ns3:TrackPointExtension>
        </extensions>
      </trkpt>
      <trkpt lat="42.56534957326948642730712890625" lon="20.04998588003218173980712890625">
        <ele>2161.199951171875</ele>
        <time>2026-06-15T11:39:10.000Z</time>
        <extensions>
          <ns3:TrackPointExtension>
            <ns3:atemp>16.0</ns3:atemp>
          </ns3:TrackPointExtension>
        </extensions>
      </trkpt>
      <trkpt lat="42.56534957326948642730712890625" lon="20.04998588003218173980712890625">
        <ele>2161.199951171875</ele>
        <time>2026-06-15T11:39:11.000Z</time>
        <extensions>
          <ns3:TrackPointExtension>
            <ns3:atemp>16.0</ns3:atemp>
          </ns3:TrackPointExtension>
        </extensions>
      </trkpt>
      <trkpt lat="42.56534957326948642730712890625" lon="20.04998588003218173980712890625">
        <ele>2161.199951171875</ele>
        <time>2026-06-15T11:39:12.000Z</time>
        <extensions>
          <ns3:TrackPointExtension>
            <ns3:atemp>16.0</ns3:atemp>
          </ns3:TrackPointExtension>
        </extensions>
      </trkpt>
      <trkpt lat="42.56534957326948642730712890625" lon="20.04998588003218173980712890625">
        <ele>2161.199951171875</ele>
        <time>2026-06-15T11:39:13.000Z</time>
        <extensions>
          <ns3:TrackPointExtension>
            <ns3:atemp>16.0</ns3:atemp>
          </ns3:TrackPointExtension>
        </extensions>
      </trkpt>
      <trkpt lat="42.56534957326948642730712890625" lon="20.04998588003218173980712890625">
        <ele>2161.199951171875</ele>
        <time>2026-06-15T11:39:14.000Z</time>
        <extensions>
          <ns3:TrackPointExtension>
            <ns3:atemp>16.0</ns3:atemp>
          </ns3:TrackPointExtension>
        </extensions>
      </trkpt>
      <trkpt lat="42.56534957326948642730712890625" lon="20.04998588003218173980712890625">
        <ele>2161.199951171875</ele>
        <time>2026-06-15T11:39:15.000Z</time>
        <extensions>
          <ns3:TrackPointExtension>
            <ns3:atemp>16.0</ns3:atemp>
          </ns3:TrackPointExtension>
        </extensions>
      </trkpt>
      <trkpt lat="42.56534957326948642730712890625" lon="20.04998588003218173980712890625">
        <ele>2161.199951171875</ele>
        <time>2026-06-15T11:39:16.000Z</time>
        <extensions>
          <ns3:TrackPointExtension>
            <ns3:atemp>16.0</ns3:atemp>
          </ns3:TrackPointExtension>
        </extensions>
      </trkpt>
      <trkpt lat="42.56534957326948642730712890625" lon="20.04998588003218173980712890625">
        <ele>2161.199951171875</ele>
        <time>2026-06-15T11:39:17.000Z</time>
        <extensions>
          <ns3:TrackPointExtension>
            <ns3:atemp>16.0</ns3:atemp>
          </ns3:TrackPointExtension>
        </extensions>
      </trkpt>
      <trkpt lat="42.56534957326948642730712890625" lon="20.04998588003218173980712890625">
        <ele>2161.199951171875</ele>
        <time>2026-06-15T11:39:18.000Z</time>
        <extensions>
          <ns3:TrackPointExtension>
            <ns3:atemp>16.0</ns3:atemp>
          </ns3:TrackPointExtension>
        </extensions>
      </trkpt>
      <trkpt lat="42.56534957326948642730712890625" lon="20.04998588003218173980712890625">
        <ele>2161.199951171875</ele>
        <time>2026-06-15T11:39:19.000Z</time>
        <extensions>
          <ns3:TrackPointExtension>
            <ns3:atemp>16.0</ns3:atemp>
          </ns3:TrackPointExtension>
        </extensions>
      </trkpt>
      <trkpt lat="42.565350495278835296630859375" lon="20.049984119832515716552734375">
        <ele>2161.199951171875</ele>
        <time>2026-06-15T11:39:20.000Z</time>
        <extensions>
          <ns3:TrackPointExtension>
            <ns3:atemp>16.0</ns3:atemp>
          </ns3:TrackPointExtension>
        </extensions>
      </trkpt>
      <trkpt lat="42.56534957326948642730712890625" lon="20.04998588003218173980712890625">
        <ele>2161.199951171875</ele>
        <time>2026-06-15T11:39:21.000Z</time>
        <extensions>
          <ns3:TrackPointExtension>
            <ns3:atemp>16.0</ns3:atemp>
          </ns3:TrackPointExtension>
        </extensions>
      </trkpt>
      <trkpt lat="42.5653533451259136199951171875" lon="20.04998856224119663238525390625">
        <ele>2161.199951171875</ele>
        <time>2026-06-15T11:39:22.000Z</time>
        <extensions>
          <ns3:TrackPointExtension>
            <ns3:atemp>16.0</ns3:atemp>
          </ns3:TrackPointExtension>
        </extensions>
      </trkpt>
      <trkpt lat="42.5653496570885181427001953125" lon="20.04997280426323413848876953125">
        <ele>2161.199951171875</ele>
        <time>2026-06-15T11:39:23.000Z</time>
        <extensions>
          <ns3:TrackPointExtension>
            <ns3:atemp>16.0</ns3:atemp>
          </ns3:TrackPointExtension>
        </extensions>
      </trkpt>
      <trkpt lat="42.5653426162898540496826171875" lon="20.049955956637859344482421875">
        <ele>2161.199951171875</ele>
        <time>2026-06-15T11:39:24.000Z</time>
        <extensions>
          <ns3:TrackPointExtension>
            <ns3:atemp>16.0</ns3:atemp>
          </ns3:TrackPointExtension>
        </extensions>
      </trkpt>
      <trkpt lat="42.5653268583118915557861328125" lon="20.04995084367692470550537109375">
        <ele>2161.199951171875</ele>
        <time>2026-06-15T11:39:25.000Z</time>
        <extensions>
          <ns3:TrackPointExtension>
            <ns3:atemp>16.0</ns3:atemp>
          </ns3:TrackPointExtension>
        </extensions>
      </trkpt>
      <trkpt lat="42.56531084887683391571044921875" lon="20.049953274428844451904296875">
        <ele>2161.199951171875</ele>
        <time>2026-06-15T11:39:26.000Z</time>
        <extensions>
          <ns3:TrackPointExtension>
            <ns3:atemp>16.0</ns3:atemp>
          </ns3:TrackPointExtension>
        </extensions>
      </trkpt>
      <trkpt lat="42.56530112586915493011474609375" lon="20.04996232688426971435546875">
        <ele>2161.39990234375</ele>
        <time>2026-06-15T11:39:27.000Z</time>
        <extensions>
          <ns3:TrackPointExtension>
            <ns3:atemp>16.0</ns3:atemp>
          </ns3:TrackPointExtension>
        </extensions>
      </trkpt>
      <trkpt lat="42.56529123522341251373291015625" lon="20.04998588003218173980712890625">
        <ele>2161.39990234375</ele>
        <time>2026-06-15T11:39:28.000Z</time>
        <extensions>
          <ns3:TrackPointExtension>
            <ns3:atemp>16.0</ns3:atemp>
          </ns3:TrackPointExtension>
        </extensions>
      </trkpt>
      <trkpt lat="42.56528318859636783599853515625" lon="20.0500194914638996124267578125">
        <ele>2161.60009765625</ele>
        <time>2026-06-15T11:39:29.000Z</time>
        <extensions>
          <ns3:TrackPointExtension>
            <ns3:atemp>16.0</ns3:atemp>
          </ns3:TrackPointExtension>
        </extensions>
      </trkpt>
      <trkpt lat="42.56527371704578399658203125" lon="20.05004740320146083831787109375">
        <ele>2161.60009765625</ele>
        <time>2026-06-15T11:39:30.000Z</time>
        <extensions>
          <ns3:TrackPointExtension>
            <ns3:atemp>16.0</ns3:atemp>
          </ns3:TrackPointExtension>
        </extensions>
      </trkpt>
      <trkpt lat="42.56525821052491664886474609375" lon="20.0500731356441974639892578125">
        <ele>2161.800048828125</ele>
        <time>2026-06-15T11:39:31.000Z</time>
        <extensions>
          <ns3:TrackPointExtension>
            <ns3:atemp>16.0</ns3:atemp>
          </ns3:TrackPointExtension>
        </extensions>
      </trkpt>
      <trkpt lat="42.56524178199470043182373046875" lon="20.05009652115404605865478515625">
        <ele>2162</ele>
        <time>2026-06-15T11:39:32.000Z</time>
        <extensions>
          <ns3:TrackPointExtension>
            <ns3:atemp>16.0</ns3:atemp>
          </ns3:TrackPointExtension>
        </extensions>
      </trkpt>
      <trkpt lat="42.56522082723677158355712890625" lon="20.0501183979213237762451171875">
        <ele>2162</ele>
        <time>2026-06-15T11:39:33.000Z</time>
        <extensions>
          <ns3:TrackPointExtension>
            <ns3:atemp>16.0</ns3:atemp>
          </ns3:TrackPointExtension>
        </extensions>
      </trkpt>
      <trkpt lat="42.5651974417269229888916015625" lon="20.0501354970037937164306640625">
        <ele>2162</ele>
        <time>2026-06-15T11:39:34.000Z</time>
        <extensions>
          <ns3:TrackPointExtension>
            <ns3:atemp>16.0</ns3:atemp>
          </ns3:TrackPointExtension>
        </extensions>
      </trkpt>
      <trkpt lat="42.56517707370221614837646484375" lon="20.050144381821155548095703125">
        <ele>2162.199951171875</ele>
        <time>2026-06-15T11:39:35.000Z</time>
        <extensions>
          <ns3:TrackPointExtension>
            <ns3:atemp>16.0</ns3:atemp>
          </ns3:TrackPointExtension>
        </extensions>
      </trkpt>
      <trkpt lat="42.565161399543285369873046875" lon="20.0501492433249950408935546875">
        <ele>2162.199951171875</ele>
        <time>2026-06-15T11:39:36.000Z</time>
        <extensions>
          <ns3:TrackPointExtension>
            <ns3:atemp>16.0</ns3:atemp>
          </ns3:TrackPointExtension>
        </extensions>
      </trkpt>
      <trkpt lat="42.56514756940305233001708984375" lon="20.0501603074371814727783203125">
        <ele>2162.199951171875</ele>
        <time>2026-06-15T11:39:37.000Z</time>
        <extensions>
          <ns3:TrackPointExtension>
            <ns3:atemp>16.0</ns3:atemp>
          </ns3:TrackPointExtension>
        </extensions>
      </trkpt>
      <trkpt lat="42.5651307217776775360107421875" lon="20.05017497576773166656494140625">
        <ele>2162.199951171875</ele>
        <time>2026-06-15T11:39:38.000Z</time>
        <extensions>
          <ns3:TrackPointExtension>
            <ns3:atemp>16.0</ns3:atemp>
          </ns3:TrackPointExtension>
        </extensions>
      </trkpt>
      <trkpt lat="42.5651129521429538726806640625" lon="20.05019140429794788360595703125">
        <ele>2162.39990234375</ele>
        <time>2026-06-15T11:39:39.000Z</time>
        <extensions>
          <ns3:TrackPointExtension>
            <ns3:atemp>16.0</ns3:atemp>
          </ns3:TrackPointExtension>
        </extensions>
      </trkpt>
      <trkpt lat="42.56509509868919849395751953125" lon="20.05020397715270519256591796875">
        <ele>2162.60009765625</ele>
        <time>2026-06-15T11:39:40.000Z</time>
        <extensions>
          <ns3:TrackPointExtension>
            <ns3:atemp>16.0</ns3:atemp>
          </ns3:TrackPointExtension>
        </extensions>
      </trkpt>
      <trkpt lat="42.5650764070451259613037109375" lon="20.0502136163413524627685546875">
        <ele>2163</ele>
        <time>2026-06-15T11:39:41.000Z</time>
        <extensions>
          <ns3:TrackPointExtension>
            <ns3:atemp>16.0</ns3:atemp>
          </ns3:TrackPointExtension>
        </extensions>
      </trkpt>
      <trkpt lat="42.56505939178168773651123046875" lon="20.05022778175771236419677734375">
        <ele>2163.39990234375</ele>
        <time>2026-06-15T11:39:42.000Z</time>
        <extensions>
          <ns3:TrackPointExtension>
            <ns3:atemp>16.0</ns3:atemp>
          </ns3:TrackPointExtension>
        </extensions>
      </trkpt>
      <trkpt lat="42.5650412030518054962158203125" lon="20.0502447970211505889892578125">
        <ele>2163.800048828125</ele>
        <time>2026-06-15T11:39:43.000Z</time>
        <extensions>
          <ns3:TrackPointExtension>
            <ns3:atemp>16.0</ns3:atemp>
          </ns3:TrackPointExtension>
        </extensions>
      </trkpt>
      <trkpt lat="42.56502184085547924041748046875" lon="20.05025527440011501312255859375">
        <ele>2164.39990234375</ele>
        <time>2026-06-15T11:39:44.000Z</time>
        <extensions>
          <ns3:TrackPointExtension>
            <ns3:atemp>16.0</ns3:atemp>
          </ns3:TrackPointExtension>
        </extensions>
      </trkpt>
      <trkpt lat="42.565000467002391815185546875" lon="20.05026407539844512939453125">
        <ele>2165</ele>
        <time>2026-06-15T11:39:45.000Z</time>
        <extensions>
          <ns3:TrackPointExtension>
            <ns3:atemp>16.0</ns3:atemp>
          </ns3:TrackPointExtension>
        </extensions>
      </trkpt>
      <trkpt lat="42.5649791769683361053466796875" lon="20.0502719543874263763427734375">
        <ele>2165.39990234375</ele>
        <time>2026-06-15T11:39:46.000Z</time>
        <extensions>
          <ns3:TrackPointExtension>
            <ns3:atemp>16.0</ns3:atemp>
          </ns3:TrackPointExtension>
        </extensions>
      </trkpt>
      <trkpt lat="42.564966268837451934814453125" lon="20.050285197794437408447265625">
        <ele>2165.60009765625</ele>
        <time>2026-06-15T11:39:47.000Z</time>
        <extensions>
          <ns3:TrackPointExtension>
            <ns3:atemp>16.0</ns3:atemp>
          </ns3:TrackPointExtension>
        </extensions>
      </trkpt>
      <trkpt lat="42.564953863620758056640625" lon="20.050297938287258148193359375">
        <ele>2165.800048828125</ele>
        <time>2026-06-15T11:39:48.000Z</time>
        <extensions>
          <ns3:TrackPointExtension>
            <ns3:atemp>16.0</ns3:atemp>
          </ns3:TrackPointExtension>
        </extensions>
      </trkpt>
      <trkpt lat="42.56494439207017421722412109375" lon="20.05031361244618892669677734375">
        <ele>2166</ele>
        <time>2026-06-15T11:39:49.000Z</time>
        <extensions>
          <ns3:TrackPointExtension>
            <ns3:atemp>16.0</ns3:atemp>
          </ns3:TrackPointExtension>
        </extensions>
      </trkpt>
      <trkpt lat="42.56493601016700267791748046875" lon="20.05032710731029510498046875">
        <ele>2166.199951171875</ele>
        <time>2026-06-15T11:39:50.000Z</time>
        <extensions>
          <ns3:TrackPointExtension>
            <ns3:atemp>16.0</ns3:atemp>
          </ns3:TrackPointExtension>
        </extensions>
      </trkpt>
      <trkpt lat="42.564926035702228546142578125" lon="20.05034185945987701416015625">
        <ele>2166.39990234375</ele>
        <time>2026-06-15T11:39:51.000Z</time>
        <extensions>
          <ns3:TrackPointExtension>
            <ns3:atemp>16.0</ns3:atemp>
          </ns3:TrackPointExtension>
        </extensions>
      </trkpt>
      <trkpt lat="42.56491740234196186065673828125" lon="20.05035602487623691558837890625">
        <ele>2166.39990234375</ele>
        <time>2026-06-15T11:39:52.000Z</time>
        <extensions>
          <ns3:TrackPointExtension>
            <ns3:atemp>16.0</ns3:atemp>
          </ns3:TrackPointExtension>
        </extensions>
      </trkpt>
      <trkpt lat="42.56490918807685375213623046875" lon="20.05036725662648677825927734375">
        <ele>2166.39990234375</ele>
        <time>2026-06-15T11:39:53.000Z</time>
        <extensions>
          <ns3:TrackPointExtension>
            <ns3:atemp>16.0</ns3:atemp>
          </ns3:TrackPointExtension>
        </extensions>
      </trkpt>
      <trkpt lat="42.56490281783044338226318359375" lon="20.05038636736571788787841796875">
        <ele>2166.39990234375</ele>
        <time>2026-06-15T11:39:54.000Z</time>
        <extensions>
          <ns3:TrackPointExtension>
            <ns3:atemp>16.0</ns3:atemp>
          </ns3:TrackPointExtension>
        </extensions>
      </trkpt>
      <trkpt lat="42.56489912979304790496826171875" lon="20.0504104234278202056884765625">
        <ele>2166.199951171875</ele>
        <time>2026-06-15T11:39:55.000Z</time>
        <extensions>
          <ns3:TrackPointExtension>
            <ns3:atemp>16.0</ns3:atemp>
          </ns3:TrackPointExtension>
        </extensions>
      </trkpt>
      <trkpt lat="42.56490063853561878204345703125" lon="20.05043246783316135406494140625">
        <ele>2166.199951171875</ele>
        <time>2026-06-15T11:39:56.000Z</time>
        <extensions>
          <ns3:TrackPointExtension>
            <ns3:atemp>16.0</ns3:atemp>
          </ns3:TrackPointExtension>
        </extensions>
      </trkpt>
      <trkpt lat="42.5649040751159191131591796875" lon="20.0504499860107898712158203125">
        <ele>2166.199951171875</ele>
        <time>2026-06-15T11:39:57.000Z</time>
        <extensions>
          <ns3:TrackPointExtension>
            <ns3:atemp>16.0</ns3:atemp>
          </ns3:TrackPointExtension>
        </extensions>
      </trkpt>
      <trkpt lat="42.56490700878202915191650390625" lon="20.05046096630394458770751953125">
        <ele>2166</ele>
        <time>2026-06-15T11:39:58.000Z</time>
        <extensions>
          <ns3:TrackPointExtension>
            <ns3:atemp>16.0</ns3:atemp>
          </ns3:TrackPointExtension>
        </extensions>
      </trkpt>
      <trkpt lat="42.5649151392281055450439453125" lon="20.050469599664211273193359375">
        <ele>2166</ele>
        <time>2026-06-15T11:39:59.000Z</time>
        <extensions>
          <ns3:TrackPointExtension>
            <ns3:atemp>16.0</ns3:atemp>
          </ns3:TrackPointExtension>
        </extensions>
      </trkpt>
      <trkpt lat="42.56492159329354763031005859375" lon="20.05046934820711612701416015625">
        <ele>2166</ele>
        <time>2026-06-15T11:40:00.000Z</time>
        <extensions>
          <ns3:TrackPointExtension>
            <ns3:atemp>16.0</ns3:atemp>
          </ns3:TrackPointExtension>
        </extensions>
      </trkpt>
      <trkpt lat="42.5649272091686725616455078125" lon="20.05046582780778408050537109375">
        <ele>2165.800048828125</ele>
        <time>2026-06-15T11:40:01.000Z</time>
        <extensions>
          <ns3:TrackPointExtension>
            <ns3:atemp>16.0</ns3:atemp>
          </ns3:TrackPointExtension>
        </extensions>
      </trkpt>
      <trkpt lat="42.5649272091686725616455078125" lon="20.050467588007450103759765625">
        <ele>2165.800048828125</ele>
        <time>2026-06-15T11:40:02.000Z</time>
        <extensions>
          <ns3:TrackPointExtension>
            <ns3:atemp>16.0</ns3:atemp>
          </ns3:TrackPointExtension>
        </extensions>
      </trkpt>
      <trkpt lat="42.5649272091686725616455078125" lon="20.050467588007450103759765625">
        <ele>2165.800048828125</ele>
        <time>2026-06-15T11:40:03.000Z</time>
        <extensions>
          <ns3:TrackPointExtension>
            <ns3:atemp>16.0</ns3:atemp>
          </ns3:TrackPointExtension>
        </extensions>
      </trkpt>
      <trkpt lat="42.5649272091686725616455078125" lon="20.050467588007450103759765625">
        <ele>2165.800048828125</ele>
        <time>2026-06-15T11:40:04.000Z</time>
        <extensions>
          <ns3:TrackPointExtension>
            <ns3:atemp>16.0</ns3:atemp>
          </ns3:TrackPointExtension>
        </extensions>
      </trkpt>
      <trkpt lat="42.5649272091686725616455078125" lon="20.050467588007450103759765625">
        <ele>2165.800048828125</ele>
        <time>2026-06-15T11:40:05.000Z</time>
        <extensions>
          <ns3:TrackPointExtension>
            <ns3:atemp>16.0</ns3:atemp>
          </ns3:TrackPointExtension>
        </extensions>
      </trkpt>
      <trkpt lat="42.5649272091686725616455078125" lon="20.050467588007450103759765625">
        <ele>2165.800048828125</ele>
        <time>2026-06-15T11:40:06.000Z</time>
        <extensions>
          <ns3:TrackPointExtension>
            <ns3:atemp>16.0</ns3:atemp>
          </ns3:TrackPointExtension>
        </extensions>
      </trkpt>
      <trkpt lat="42.5649272091686725616455078125" lon="20.050467588007450103759765625">
        <ele>2165.800048828125</ele>
        <time>2026-06-15T11:40:07.000Z</time>
        <extensions>
          <ns3:TrackPointExtension>
            <ns3:atemp>16.0</ns3:atemp>
          </ns3:TrackPointExtension>
        </extensions>
      </trkpt>
      <trkpt lat="42.5649272091686725616455078125" lon="20.050467588007450103759765625">
        <ele>2165.800048828125</ele>
        <time>2026-06-15T11:40:08.000Z</time>
        <extensions>
          <ns3:TrackPointExtension>
            <ns3:atemp>16.0</ns3:atemp>
          </ns3:TrackPointExtension>
        </extensions>
      </trkpt>
      <trkpt lat="42.5649272091686725616455078125" lon="20.050467588007450103759765625">
        <ele>2165.800048828125</ele>
        <time>2026-06-15T11:40:09.000Z</time>
        <extensions>
          <ns3:TrackPointExtension>
            <ns3:atemp>16.0</ns3:atemp>
          </ns3:TrackPointExtension>
        </extensions>
      </trkpt>
      <trkpt lat="42.5649272091686725616455078125" lon="20.050467588007450103759765625">
        <ele>2165.800048828125</ele>
        <time>2026-06-15T11:40:10.000Z</time>
        <extensions>
          <ns3:TrackPointExtension>
            <ns3:atemp>16.0</ns3:atemp>
          </ns3:TrackPointExtension>
        </extensions>
      </trkpt>
      <trkpt lat="42.5649272091686725616455078125" lon="20.050467588007450103759765625">
        <ele>2165.60009765625</ele>
        <time>2026-06-15T11:40:11.000Z</time>
        <extensions>
          <ns3:TrackPointExtension>
            <ns3:atemp>16.0</ns3:atemp>
          </ns3:TrackPointExtension>
        </extensions>
      </trkpt>
      <trkpt lat="42.5649272091686725616455078125" lon="20.050467588007450103759765625">
        <ele>2165.60009765625</ele>
        <time>2026-06-15T11:40:12.000Z</time>
        <extensions>
          <ns3:TrackPointExtension>
            <ns3:atemp>16.0</ns3:atemp>
          </ns3:TrackPointExtension>
        </extensions>
      </trkpt>
      <trkpt lat="42.5649272091686725616455078125" lon="20.050467588007450103759765625">
        <ele>2165.60009765625</ele>
        <time>2026-06-15T11:40:13.000Z</time>
        <extensions>
          <ns3:TrackPointExtension>
            <ns3:atemp>16.0</ns3:atemp>
          </ns3:TrackPointExtension>
        </extensions>
      </trkpt>
      <trkpt lat="42.5649272091686725616455078125" lon="20.050467588007450103759765625">
        <ele>2165.60009765625</ele>
        <time>2026-06-15T11:40:14.000Z</time>
        <extensions>
          <ns3:TrackPointExtension>
            <ns3:atemp>16.0</ns3:atemp>
          </ns3:TrackPointExtension>
        </extensions>
      </trkpt>
      <trkpt lat="42.5649272091686725616455078125" lon="20.050467588007450103759765625">
        <ele>2165.60009765625</ele>
        <time>2026-06-15T11:40:15.000Z</time>
        <extensions>
          <ns3:TrackPointExtension>
            <ns3:atemp>16.0</ns3:atemp>
          </ns3:TrackPointExtension>
        </extensions>
      </trkpt>
      <trkpt lat="42.5649272091686725616455078125" lon="20.050467588007450103759765625">
        <ele>2165.60009765625</ele>
        <time>2026-06-15T11:40:16.000Z</time>
        <extensions>
          <ns3:TrackPointExtension>
            <ns3:atemp>16.0</ns3:atemp>
          </ns3:TrackPointExtension>
        </extensions>
      </trkpt>
      <trkpt lat="42.5649272091686725616455078125" lon="20.050467588007450103759765625">
        <ele>2165.60009765625</ele>
        <time>2026-06-15T11:40:17.000Z</time>
        <extensions>
          <ns3:TrackPointExtension>
            <ns3:atemp>16.0</ns3:atemp>
          </ns3:TrackPointExtension>
        </extensions>
      </trkpt>
      <trkpt lat="42.5649272091686725616455078125" lon="20.050467588007450103759765625">
        <ele>2165.60009765625</ele>
        <time>2026-06-15T11:40:18.000Z</time>
        <extensions>
          <ns3:TrackPointExtension>
            <ns3:atemp>16.0</ns3:atemp>
          </ns3:TrackPointExtension>
        </extensions>
      </trkpt>
      <trkpt lat="42.5649272091686725616455078125" lon="20.050467588007450103759765625">
        <ele>2165.60009765625</ele>
        <time>2026-06-15T11:40:19.000Z</time>
        <extensions>
          <ns3:TrackPointExtension>
            <ns3:atemp>16.0</ns3:atemp>
          </ns3:TrackPointExtension>
        </extensions>
      </trkpt>
      <trkpt lat="42.5649272091686725616455078125" lon="20.050467588007450103759765625">
        <ele>2165.60009765625</ele>
        <time>2026-06-15T11:40:20.000Z</time>
        <extensions>
          <ns3:TrackPointExtension>
            <ns3:atemp>16.0</ns3:atemp>
          </ns3:TrackPointExtension>
        </extensions>
      </trkpt>
      <trkpt lat="42.5649272091686725616455078125" lon="20.050467588007450103759765625">
        <ele>2165.60009765625</ele>
        <time>2026-06-15T11:40:21.000Z</time>
        <extensions>
          <ns3:TrackPointExtension>
            <ns3:atemp>16.0</ns3:atemp>
          </ns3:TrackPointExtension>
        </extensions>
      </trkpt>
      <trkpt lat="42.5649272091686725616455078125" lon="20.050467588007450103759765625">
        <ele>2165.39990234375</ele>
        <time>2026-06-15T11:40:22.000Z</time>
        <extensions>
          <ns3:TrackPointExtension>
            <ns3:atemp>16.0</ns3:atemp>
          </ns3:TrackPointExtension>
        </extensions>
      </trkpt>
      <trkpt lat="42.5649272091686725616455078125" lon="20.050467588007450103759765625">
        <ele>2165.39990234375</ele>
        <time>2026-06-15T11:40:23.000Z</time>
        <extensions>
          <ns3:TrackPointExtension>
            <ns3:atemp>16.0</ns3:atemp>
          </ns3:TrackPointExtension>
        </extensions>
      </trkpt>
      <trkpt lat="42.5649272091686725616455078125" lon="20.050467588007450103759765625">
        <ele>2165.39990234375</ele>
        <time>2026-06-15T11:40:24.000Z</time>
        <extensions>
          <ns3:TrackPointExtension>
            <ns3:atemp>16.0</ns3:atemp>
          </ns3:TrackPointExtension>
        </extensions>
      </trkpt>
      <trkpt lat="42.5649272091686725616455078125" lon="20.050467588007450103759765625">
        <ele>2165.39990234375</ele>
        <time>2026-06-15T11:40:25.000Z</time>
        <extensions>
          <ns3:TrackPointExtension>
            <ns3:atemp>16.0</ns3:atemp>
          </ns3:TrackPointExtension>
        </extensions>
      </trkpt>
      <trkpt lat="42.5649272091686725616455078125" lon="20.050467588007450103759765625">
        <ele>2165.60009765625</ele>
        <time>2026-06-15T11:40:26.000Z</time>
        <extensions>
          <ns3:TrackPointExtension>
            <ns3:atemp>16.0</ns3:atemp>
          </ns3:TrackPointExtension>
        </extensions>
      </trkpt>
      <trkpt lat="42.5649272091686725616455078125" lon="20.050467588007450103759765625">
        <ele>2165.60009765625</ele>
        <time>2026-06-15T11:40:27.000Z</time>
        <extensions>
          <ns3:TrackPointExtension>
            <ns3:atemp>16.0</ns3:atemp>
          </ns3:TrackPointExtension>
        </extensions>
      </trkpt>
      <trkpt lat="42.5649272091686725616455078125" lon="20.050467588007450103759765625">
        <ele>2165.39990234375</ele>
        <time>2026-06-15T11:40:28.000Z</time>
        <extensions>
          <ns3:TrackPointExtension>
            <ns3:atemp>16.0</ns3:atemp>
          </ns3:TrackPointExtension>
        </extensions>
      </trkpt>
      <trkpt lat="42.5649272091686725616455078125" lon="20.050467588007450103759765625">
        <ele>2165.60009765625</ele>
        <time>2026-06-15T11:40:29.000Z</time>
        <extensions>
          <ns3:TrackPointExtension>
            <ns3:atemp>16.0</ns3:atemp>
          </ns3:TrackPointExtension>
        </extensions>
      </trkpt>
      <trkpt lat="42.5649272091686725616455078125" lon="20.050467588007450103759765625">
        <ele>2165.60009765625</ele>
        <time>2026-06-15T11:40:30.000Z</time>
        <extensions>
          <ns3:TrackPointExtension>
            <ns3:atemp>16.0</ns3:atemp>
          </ns3:TrackPointExtension>
        </extensions>
      </trkpt>
      <trkpt lat="42.5649272091686725616455078125" lon="20.050467588007450103759765625">
        <ele>2165.60009765625</ele>
        <time>2026-06-15T11:40:31.000Z</time>
        <extensions>
          <ns3:TrackPointExtension>
            <ns3:atemp>16.0</ns3:atemp>
          </ns3:TrackPointExtension>
        </extensions>
      </trkpt>
      <trkpt lat="42.5649272091686725616455078125" lon="20.050467588007450103759765625">
        <ele>2165.60009765625</ele>
        <time>2026-06-15T11:40:32.000Z</time>
        <extensions>
          <ns3:TrackPointExtension>
            <ns3:atemp>16.0</ns3:atemp>
          </ns3:TrackPointExtension>
        </extensions>
      </trkpt>
      <trkpt lat="42.5649272091686725616455078125" lon="20.050467588007450103759765625">
        <ele>2165.60009765625</ele>
        <time>2026-06-15T11:40:33.000Z</time>
        <extensions>
          <ns3:TrackPointExtension>
            <ns3:atemp>16.0</ns3:atemp>
          </ns3:TrackPointExtension>
        </extensions>
      </trkpt>
      <trkpt lat="42.5649272091686725616455078125" lon="20.050467588007450103759765625">
        <ele>2165.60009765625</ele>
        <time>2026-06-15T11:40:34.000Z</time>
        <extensions>
          <ns3:TrackPointExtension>
            <ns3:atemp>16.0</ns3:atemp>
          </ns3:TrackPointExtension>
        </extensions>
      </trkpt>
      <trkpt lat="42.5649272091686725616455078125" lon="20.050467588007450103759765625">
        <ele>2165.60009765625</ele>
        <time>2026-06-15T11:40:35.000Z</time>
        <extensions>
          <ns3:TrackPointExtension>
            <ns3:atemp>16.0</ns3:atemp>
          </ns3:TrackPointExtension>
        </extensions>
      </trkpt>
      <trkpt lat="42.5649272091686725616455078125" lon="20.050467588007450103759765625">
        <ele>2165.60009765625</ele>
        <time>2026-06-15T11:40:36.000Z</time>
        <extensions>
          <ns3:TrackPointExtension>
            <ns3:atemp>16.0</ns3:atemp>
          </ns3:TrackPointExtension>
        </extensions>
      </trkpt>
      <trkpt lat="42.5649272091686725616455078125" lon="20.050467588007450103759765625">
        <ele>2165.39990234375</ele>
        <time>2026-06-15T11:40:37.000Z</time>
        <extensions>
          <ns3:TrackPointExtension>
            <ns3:atemp>16.0</ns3:atemp>
          </ns3:TrackPointExtension>
        </extensions>
      </trkpt>
      <trkpt lat="42.5649272091686725616455078125" lon="20.050467588007450103759765625">
        <ele>2165.39990234375</ele>
        <time>2026-06-15T11:40:38.000Z</time>
        <extensions>
          <ns3:TrackPointExtension>
            <ns3:atemp>16.0</ns3:atemp>
          </ns3:TrackPointExtension>
        </extensions>
      </trkpt>
      <trkpt lat="42.5649272091686725616455078125" lon="20.050467588007450103759765625">
        <ele>2165.199951171875</ele>
        <time>2026-06-15T11:40:39.000Z</time>
        <extensions>
          <ns3:TrackPointExtension>
            <ns3:atemp>16.0</ns3:atemp>
          </ns3:TrackPointExtension>
        </extensions>
      </trkpt>
      <trkpt lat="42.5649272091686725616455078125" lon="20.050467588007450103759765625">
        <ele>2165.199951171875</ele>
        <time>2026-06-15T11:40:40.000Z</time>
        <extensions>
          <ns3:TrackPointExtension>
            <ns3:atemp>16.0</ns3:atemp>
          </ns3:TrackPointExtension>
        </extensions>
      </trkpt>
      <trkpt lat="42.5649272091686725616455078125" lon="20.050467588007450103759765625">
        <ele>2165.199951171875</ele>
        <time>2026-06-15T11:40:41.000Z</time>
        <extensions>
          <ns3:TrackPointExtension>
            <ns3:atemp>16.0</ns3:atemp>
          </ns3:TrackPointExtension>
        </extensions>
      </trkpt>
      <trkpt lat="42.5649272091686725616455078125" lon="20.050467588007450103759765625">
        <ele>2165.199951171875</ele>
        <time>2026-06-15T11:40:42.000Z</time>
        <extensions>
          <ns3:TrackPointExtension>
            <ns3:atemp>16.0</ns3:atemp>
          </ns3:TrackPointExtension>
        </extensions>
      </trkpt>
      <trkpt lat="42.5649272091686725616455078125" lon="20.050467588007450103759765625">
        <ele>2165</ele>
        <time>2026-06-15T11:40:43.000Z</time>
        <extensions>
          <ns3:TrackPointExtension>
            <ns3:atemp>16.0</ns3:atemp>
          </ns3:TrackPointExtension>
        </extensions>
      </trkpt>
      <trkpt lat="42.5649272091686725616455078125" lon="20.050467588007450103759765625">
        <ele>2165</ele>
        <time>2026-06-15T11:40:44.000Z</time>
        <extensions>
          <ns3:TrackPointExtension>
            <ns3:atemp>16.0</ns3:atemp>
          </ns3:TrackPointExtension>
        </extensions>
      </trkpt>
      <trkpt lat="42.5649272091686725616455078125" lon="20.050467588007450103759765625">
        <ele>2165</ele>
        <time>2026-06-15T11:40:45.000Z</time>
        <extensions>
          <ns3:TrackPointExtension>
            <ns3:atemp>16.0</ns3:atemp>
          </ns3:TrackPointExtension>
        </extensions>
      </trkpt>
      <trkpt lat="42.5649272091686725616455078125" lon="20.050467588007450103759765625">
        <ele>2165</ele>
        <time>2026-06-15T11:40:46.000Z</time>
        <extensions>
          <ns3:TrackPointExtension>
            <ns3:atemp>16.0</ns3:atemp>
          </ns3:TrackPointExtension>
        </extensions>
      </trkpt>
      <trkpt lat="42.5649272091686725616455078125" lon="20.050467588007450103759765625">
        <ele>2165</ele>
        <time>2026-06-15T11:40:47.000Z</time>
        <extensions>
          <ns3:TrackPointExtension>
            <ns3:atemp>16.0</ns3:atemp>
          </ns3:TrackPointExtension>
        </extensions>
      </trkpt>
      <trkpt lat="42.5649272091686725616455078125" lon="20.050467588007450103759765625">
        <ele>2165</ele>
        <time>2026-06-15T11:40:48.000Z</time>
        <extensions>
          <ns3:TrackPointExtension>
            <ns3:atemp>16.0</ns3:atemp>
          </ns3:TrackPointExtension>
        </extensions>
      </trkpt>
      <trkpt lat="42.5649272091686725616455078125" lon="20.050467588007450103759765625">
        <ele>2165</ele>
        <time>2026-06-15T11:40:49.000Z</time>
        <extensions>
          <ns3:TrackPointExtension>
            <ns3:atemp>16.0</ns3:atemp>
          </ns3:TrackPointExtension>
        </extensions>
      </trkpt>
      <trkpt lat="42.5649272091686725616455078125" lon="20.050467588007450103759765625">
        <ele>2165</ele>
        <time>2026-06-15T11:40:50.000Z</time>
        <extensions>
          <ns3:TrackPointExtension>
            <ns3:atemp>16.0</ns3:atemp>
          </ns3:TrackPointExtension>
        </extensions>
      </trkpt>
      <trkpt lat="42.5649272091686725616455078125" lon="20.050467588007450103759765625">
        <ele>2165</ele>
        <time>2026-06-15T11:40:51.000Z</time>
        <extensions>
          <ns3:TrackPointExtension>
            <ns3:atemp>16.0</ns3:atemp>
          </ns3:TrackPointExtension>
        </extensions>
      </trkpt>
      <trkpt lat="42.5649272091686725616455078125" lon="20.050467588007450103759765625">
        <ele>2165.199951171875</ele>
        <time>2026-06-15T11:40:52.000Z</time>
        <extensions>
          <ns3:TrackPointExtension>
            <ns3:atemp>16.0</ns3:atemp>
          </ns3:TrackPointExtension>
        </extensions>
      </trkpt>
      <trkpt lat="42.5649272091686725616455078125" lon="20.050467588007450103759765625">
        <ele>2165.199951171875</ele>
        <time>2026-06-15T11:40:53.000Z</time>
        <extensions>
          <ns3:TrackPointExtension>
            <ns3:atemp>16.0</ns3:atemp>
          </ns3:TrackPointExtension>
        </extensions>
      </trkpt>
      <trkpt lat="42.5649272091686725616455078125" lon="20.050467588007450103759765625">
        <ele>2165.199951171875</ele>
        <time>2026-06-15T11:40:54.000Z</time>
        <extensions>
          <ns3:TrackPointExtension>
            <ns3:atemp>16.0</ns3:atemp>
          </ns3:TrackPointExtension>
        </extensions>
      </trkpt>
      <trkpt lat="42.5649272091686725616455078125" lon="20.050467588007450103759765625">
        <ele>2165.199951171875</ele>
        <time>2026-06-15T11:40:55.000Z</time>
        <extensions>
          <ns3:TrackPointExtension>
            <ns3:atemp>16.0</ns3:atemp>
          </ns3:TrackPointExtension>
        </extensions>
      </trkpt>
      <trkpt lat="42.5649272091686725616455078125" lon="20.050467588007450103759765625">
        <ele>2165.199951171875</ele>
        <time>2026-06-15T11:40:56.000Z</time>
        <extensions>
          <ns3:TrackPointExtension>
            <ns3:atemp>16.0</ns3:atemp>
          </ns3:TrackPointExtension>
        </extensions>
      </trkpt>
      <trkpt lat="42.5649272091686725616455078125" lon="20.050467588007450103759765625">
        <ele>2165.199951171875</ele>
        <time>2026-06-15T11:40:57.000Z</time>
        <extensions>
          <ns3:TrackPointExtension>
            <ns3:atemp>16.0</ns3:atemp>
          </ns3:TrackPointExtension>
        </extensions>
      </trkpt>
      <trkpt lat="42.5649272091686725616455078125" lon="20.050467588007450103759765625">
        <ele>2165.199951171875</ele>
        <time>2026-06-15T11:40:58.000Z</time>
        <extensions>
          <ns3:TrackPointExtension>
            <ns3:atemp>16.0</ns3:atemp>
          </ns3:TrackPointExtension>
        </extensions>
      </trkpt>
      <trkpt lat="42.5649272091686725616455078125" lon="20.050467588007450103759765625">
        <ele>2165.199951171875</ele>
        <time>2026-06-15T11:40:59.000Z</time>
        <extensions>
          <ns3:TrackPointExtension>
            <ns3:atemp>16.0</ns3:atemp>
          </ns3:TrackPointExtension>
        </extensions>
      </trkpt>
      <trkpt lat="42.5649272091686725616455078125" lon="20.050467588007450103759765625">
        <ele>2165.199951171875</ele>
        <time>2026-06-15T11:41:00.000Z</time>
        <extensions>
          <ns3:TrackPointExtension>
            <ns3:atemp>16.0</ns3:atemp>
          </ns3:TrackPointExtension>
        </extensions>
      </trkpt>
      <trkpt lat="42.5649272091686725616455078125" lon="20.050467588007450103759765625">
        <ele>2165.199951171875</ele>
        <time>2026-06-15T11:41:01.000Z</time>
        <extensions>
          <ns3:TrackPointExtension>
            <ns3:atemp>16.0</ns3:atemp>
          </ns3:TrackPointExtension>
        </extensions>
      </trkpt>
      <trkpt lat="42.5649272091686725616455078125" lon="20.050467588007450103759765625">
        <ele>2165.199951171875</ele>
        <time>2026-06-15T11:41:02.000Z</time>
        <extensions>
          <ns3:TrackPointExtension>
            <ns3:atemp>16.0</ns3:atemp>
          </ns3:TrackPointExtension>
        </extensions>
      </trkpt>
      <trkpt lat="42.5649272091686725616455078125" lon="20.050467588007450103759765625">
        <ele>2165.199951171875</ele>
        <time>2026-06-15T11:41:03.000Z</time>
        <extensions>
          <ns3:TrackPointExtension>
            <ns3:atemp>16.0</ns3:atemp>
          </ns3:TrackPointExtension>
        </extensions>
      </trkpt>
      <trkpt lat="42.5649272091686725616455078125" lon="20.050467588007450103759765625">
        <ele>2165.199951171875</ele>
        <time>2026-06-15T11:41:04.000Z</time>
        <extensions>
          <ns3:TrackPointExtension>
            <ns3:atemp>16.0</ns3:atemp>
          </ns3:TrackPointExtension>
        </extensions>
      </trkpt>
      <trkpt lat="42.5649272091686725616455078125" lon="20.050467588007450103759765625">
        <ele>2165</ele>
        <time>2026-06-15T11:41:05.000Z</time>
        <extensions>
          <ns3:TrackPointExtension>
            <ns3:atemp>16.0</ns3:atemp>
          </ns3:TrackPointExtension>
        </extensions>
      </trkpt>
      <trkpt lat="42.5649272091686725616455078125" lon="20.050467588007450103759765625">
        <ele>2165</ele>
        <time>2026-06-15T11:41:06.000Z</time>
        <extensions>
          <ns3:TrackPointExtension>
            <ns3:atemp>16.0</ns3:atemp>
          </ns3:TrackPointExtension>
        </extensions>
      </trkpt>
      <trkpt lat="42.5649272091686725616455078125" lon="20.050467588007450103759765625">
        <ele>2165</ele>
        <time>2026-06-15T11:41:07.000Z</time>
        <extensions>
          <ns3:TrackPointExtension>
            <ns3:atemp>16.0</ns3:atemp>
          </ns3:TrackPointExtension>
        </extensions>
      </trkpt>
      <trkpt lat="42.5649272091686725616455078125" lon="20.050467588007450103759765625">
        <ele>2164.800048828125</ele>
        <time>2026-06-15T11:41:08.000Z</time>
        <extensions>
          <ns3:TrackPointExtension>
            <ns3:atemp>16.0</ns3:atemp>
          </ns3:TrackPointExtension>
        </extensions>
      </trkpt>
      <trkpt lat="42.5649272091686725616455078125" lon="20.050467588007450103759765625">
        <ele>2164.800048828125</ele>
        <time>2026-06-15T11:41:09.000Z</time>
        <extensions>
          <ns3:TrackPointExtension>
            <ns3:atemp>16.0</ns3:atemp>
          </ns3:TrackPointExtension>
        </extensions>
      </trkpt>
      <trkpt lat="42.5649272091686725616455078125" lon="20.050467588007450103759765625">
        <ele>2164.800048828125</ele>
        <time>2026-06-15T11:41:10.000Z</time>
        <extensions>
          <ns3:TrackPointExtension>
            <ns3:atemp>16.0</ns3:atemp>
          </ns3:TrackPointExtension>
        </extensions>
      </trkpt>
      <trkpt lat="42.5649272091686725616455078125" lon="20.050467588007450103759765625">
        <ele>2164.60009765625</ele>
        <time>2026-06-15T11:41:11.000Z</time>
        <extensions>
          <ns3:TrackPointExtension>
            <ns3:atemp>16.0</ns3:atemp>
          </ns3:TrackPointExtension>
        </extensions>
      </trkpt>
      <trkpt lat="42.5649272091686725616455078125" lon="20.050467588007450103759765625">
        <ele>2164.60009765625</ele>
        <time>2026-06-15T11:41:12.000Z</time>
        <extensions>
          <ns3:TrackPointExtension>
            <ns3:atemp>16.0</ns3:atemp>
          </ns3:TrackPointExtension>
        </extensions>
      </trkpt>
      <trkpt lat="42.5649272091686725616455078125" lon="20.050467588007450103759765625">
        <ele>2164.60009765625</ele>
        <time>2026-06-15T11:41:13.000Z</time>
        <extensions>
          <ns3:TrackPointExtension>
            <ns3:atemp>16.0</ns3:atemp>
          </ns3:TrackPointExtension>
        </extensions>
      </trkpt>
      <trkpt lat="42.5649272091686725616455078125" lon="20.050467588007450103759765625">
        <ele>2164.60009765625</ele>
        <time>2026-06-15T11:41:14.000Z</time>
        <extensions>
          <ns3:TrackPointExtension>
            <ns3:atemp>16.0</ns3:atemp>
          </ns3:TrackPointExtension>
        </extensions>
      </trkpt>
      <trkpt lat="42.5649272091686725616455078125" lon="20.050467588007450103759765625">
        <ele>2164.60009765625</ele>
        <time>2026-06-15T11:41:15.000Z</time>
        <extensions>
          <ns3:TrackPointExtension>
            <ns3:atemp>16.0</ns3:atemp>
          </ns3:TrackPointExtension>
        </extensions>
      </trkpt>
      <trkpt lat="42.5649272091686725616455078125" lon="20.050467588007450103759765625">
        <ele>2164.60009765625</ele>
        <time>2026-06-15T11:41:16.000Z</time>
        <extensions>
          <ns3:TrackPointExtension>
            <ns3:atemp>16.0</ns3:atemp>
          </ns3:TrackPointExtension>
        </extensions>
      </trkpt>
      <trkpt lat="42.5649272091686725616455078125" lon="20.050467588007450103759765625">
        <ele>2164.60009765625</ele>
        <time>2026-06-15T11:41:17.000Z</time>
        <extensions>
          <ns3:TrackPointExtension>
            <ns3:atemp>16.0</ns3:atemp>
          </ns3:TrackPointExtension>
        </extensions>
      </trkpt>
      <trkpt lat="42.5649272091686725616455078125" lon="20.050467588007450103759765625">
        <ele>2164.60009765625</ele>
        <time>2026-06-15T11:41:18.000Z</time>
        <extensions>
          <ns3:TrackPointExtension>
            <ns3:atemp>16.0</ns3:atemp>
          </ns3:TrackPointExtension>
        </extensions>
      </trkpt>
      <trkpt lat="42.5649272091686725616455078125" lon="20.050467588007450103759765625">
        <ele>2164.800048828125</ele>
        <time>2026-06-15T11:41:19.000Z</time>
        <extensions>
          <ns3:TrackPointExtension>
            <ns3:atemp>16.0</ns3:atemp>
          </ns3:TrackPointExtension>
        </extensions>
      </trkpt>
      <trkpt lat="42.5649272091686725616455078125" lon="20.050467588007450103759765625">
        <ele>2164.800048828125</ele>
        <time>2026-06-15T11:41:20.000Z</time>
        <extensions>
          <ns3:TrackPointExtension>
            <ns3:atemp>16.0</ns3:atemp>
          </ns3:TrackPointExtension>
        </extensions>
      </trkpt>
      <trkpt lat="42.5649272091686725616455078125" lon="20.050467588007450103759765625">
        <ele>2164.800048828125</ele>
        <time>2026-06-15T11:41:21.000Z</time>
        <extensions>
          <ns3:TrackPointExtension>
            <ns3:atemp>16.0</ns3:atemp>
          </ns3:TrackPointExtension>
        </extensions>
      </trkpt>
      <trkpt lat="42.5649272091686725616455078125" lon="20.050467588007450103759765625">
        <ele>2164.60009765625</ele>
        <time>2026-06-15T11:41:22.000Z</time>
        <extensions>
          <ns3:TrackPointExtension>
            <ns3:atemp>16.0</ns3:atemp>
          </ns3:TrackPointExtension>
        </extensions>
      </trkpt>
      <trkpt lat="42.5649272091686725616455078125" lon="20.050467588007450103759765625">
        <ele>2164.60009765625</ele>
        <time>2026-06-15T11:41:23.000Z</time>
        <extensions>
          <ns3:TrackPointExtension>
            <ns3:atemp>16.0</ns3:atemp>
          </ns3:TrackPointExtension>
        </extensions>
      </trkpt>
      <trkpt lat="42.5649272091686725616455078125" lon="20.050467588007450103759765625">
        <ele>2164.60009765625</ele>
        <time>2026-06-15T11:41:24.000Z</time>
        <extensions>
          <ns3:TrackPointExtension>
            <ns3:atemp>16.0</ns3:atemp>
          </ns3:TrackPointExtension>
        </extensions>
      </trkpt>
      <trkpt lat="42.5649272091686725616455078125" lon="20.050467588007450103759765625">
        <ele>2164.39990234375</ele>
        <time>2026-06-15T11:41:25.000Z</time>
        <extensions>
          <ns3:TrackPointExtension>
            <ns3:atemp>16.0</ns3:atemp>
          </ns3:TrackPointExtension>
        </extensions>
      </trkpt>
      <trkpt lat="42.5649272091686725616455078125" lon="20.050467588007450103759765625">
        <ele>2164.39990234375</ele>
        <time>2026-06-15T11:41:26.000Z</time>
        <extensions>
          <ns3:TrackPointExtension>
            <ns3:atemp>16.0</ns3:atemp>
          </ns3:TrackPointExtension>
        </extensions>
      </trkpt>
      <trkpt lat="42.5649272091686725616455078125" lon="20.050467588007450103759765625">
        <ele>2164.39990234375</ele>
        <time>2026-06-15T11:41:27.000Z</time>
        <extensions>
          <ns3:TrackPointExtension>
            <ns3:atemp>16.0</ns3:atemp>
          </ns3:TrackPointExtension>
        </extensions>
      </trkpt>
      <trkpt lat="42.5649272091686725616455078125" lon="20.050467588007450103759765625">
        <ele>2164.39990234375</ele>
        <time>2026-06-15T11:41:28.000Z</time>
        <extensions>
          <ns3:TrackPointExtension>
            <ns3:atemp>16.0</ns3:atemp>
          </ns3:TrackPointExtension>
        </extensions>
      </trkpt>
      <trkpt lat="42.5649272091686725616455078125" lon="20.050467588007450103759765625">
        <ele>2164.39990234375</ele>
        <time>2026-06-15T11:41:29.000Z</time>
        <extensions>
          <ns3:TrackPointExtension>
            <ns3:atemp>16.0</ns3:atemp>
          </ns3:TrackPointExtension>
        </extensions>
      </trkpt>
      <trkpt lat="42.5649272091686725616455078125" lon="20.050467588007450103759765625">
        <ele>2164.39990234375</ele>
        <time>2026-06-15T11:41:30.000Z</time>
        <extensions>
          <ns3:TrackPointExtension>
            <ns3:atemp>16.0</ns3:atemp>
          </ns3:TrackPointExtension>
        </extensions>
      </trkpt>
      <trkpt lat="42.5649272091686725616455078125" lon="20.050467588007450103759765625">
        <ele>2164.39990234375</ele>
        <time>2026-06-15T11:41:31.000Z</time>
        <extensions>
          <ns3:TrackPointExtension>
            <ns3:atemp>16.0</ns3:atemp>
          </ns3:TrackPointExtension>
        </extensions>
      </trkpt>
      <trkpt lat="42.5649272091686725616455078125" lon="20.050467588007450103759765625">
        <ele>2164.60009765625</ele>
        <time>2026-06-15T11:41:32.000Z</time>
        <extensions>
          <ns3:TrackPointExtension>
            <ns3:atemp>16.0</ns3:atemp>
          </ns3:TrackPointExtension>
        </extensions>
      </trkpt>
      <trkpt lat="42.5649272091686725616455078125" lon="20.050467588007450103759765625">
        <ele>2164.60009765625</ele>
        <time>2026-06-15T11:41:33.000Z</time>
        <extensions>
          <ns3:TrackPointExtension>
            <ns3:atemp>16.0</ns3:atemp>
          </ns3:TrackPointExtension>
        </extensions>
      </trkpt>
      <trkpt lat="42.5649272091686725616455078125" lon="20.050467588007450103759765625">
        <ele>2164.60009765625</ele>
        <time>2026-06-15T11:41:34.000Z</time>
        <extensions>
          <ns3:TrackPointExtension>
            <ns3:atemp>16.0</ns3:atemp>
          </ns3:TrackPointExtension>
        </extensions>
      </trkpt>
      <trkpt lat="42.5649272091686725616455078125" lon="20.050467588007450103759765625">
        <ele>2164.39990234375</ele>
        <time>2026-06-15T11:41:35.000Z</time>
        <extensions>
          <ns3:TrackPointExtension>
            <ns3:atemp>16.0</ns3:atemp>
          </ns3:TrackPointExtension>
        </extensions>
      </trkpt>
      <trkpt lat="42.5649272091686725616455078125" lon="20.050467588007450103759765625">
        <ele>2164.39990234375</ele>
        <time>2026-06-15T11:41:36.000Z</time>
        <extensions>
          <ns3:TrackPointExtension>
            <ns3:atemp>16.0</ns3:atemp>
          </ns3:TrackPointExtension>
        </extensions>
      </trkpt>
      <trkpt lat="42.5649272091686725616455078125" lon="20.050467588007450103759765625">
        <ele>2164.39990234375</ele>
        <time>2026-06-15T11:41:37.000Z</time>
        <extensions>
          <ns3:TrackPointExtension>
            <ns3:atemp>16.0</ns3:atemp>
          </ns3:TrackPointExtension>
        </extensions>
      </trkpt>
      <trkpt lat="42.5649272091686725616455078125" lon="20.050467588007450103759765625">
        <ele>2164.199951171875</ele>
        <time>2026-06-15T11:41:38.000Z</time>
        <extensions>
          <ns3:TrackPointExtension>
            <ns3:atemp>16.0</ns3:atemp>
          </ns3:TrackPointExtension>
        </extensions>
      </trkpt>
      <trkpt lat="42.5649272091686725616455078125" lon="20.050467588007450103759765625">
        <ele>2164.199951171875</ele>
        <time>2026-06-15T11:41:39.000Z</time>
        <extensions>
          <ns3:TrackPointExtension>
            <ns3:atemp>16.0</ns3:atemp>
          </ns3:TrackPointExtension>
        </extensions>
      </trkpt>
      <trkpt lat="42.5649272091686725616455078125" lon="20.050467588007450103759765625">
        <ele>2164.199951171875</ele>
        <time>2026-06-15T11:41:40.000Z</time>
        <extensions>
          <ns3:TrackPointExtension>
            <ns3:atemp>16.0</ns3:atemp>
          </ns3:TrackPointExtension>
        </extensions>
      </trkpt>
      <trkpt lat="42.5649272091686725616455078125" lon="20.050467588007450103759765625">
        <ele>2164.199951171875</ele>
        <time>2026-06-15T11:41:41.000Z</time>
        <extensions>
          <ns3:TrackPointExtension>
            <ns3:atemp>16.0</ns3:atemp>
          </ns3:TrackPointExtension>
        </extensions>
      </trkpt>
      <trkpt lat="42.5649272091686725616455078125" lon="20.050467588007450103759765625">
        <ele>2164.199951171875</ele>
        <time>2026-06-15T11:41:42.000Z</time>
        <extensions>
          <ns3:TrackPointExtension>
            <ns3:atemp>16.0</ns3:atemp>
          </ns3:TrackPointExtension>
        </extensions>
      </trkpt>
      <trkpt lat="42.5649272091686725616455078125" lon="20.050467588007450103759765625">
        <ele>2164.39990234375</ele>
        <time>2026-06-15T11:41:43.000Z</time>
        <extensions>
          <ns3:TrackPointExtension>
            <ns3:atemp>16.0</ns3:atemp>
          </ns3:TrackPointExtension>
        </extensions>
      </trkpt>
      <trkpt lat="42.5649272091686725616455078125" lon="20.050467588007450103759765625">
        <ele>2164.39990234375</ele>
        <time>2026-06-15T11:41:44.000Z</time>
        <extensions>
          <ns3:TrackPointExtension>
            <ns3:atemp>16.0</ns3:atemp>
          </ns3:TrackPointExtension>
        </extensions>
      </trkpt>
      <trkpt lat="42.5649272091686725616455078125" lon="20.050467588007450103759765625">
        <ele>2164.39990234375</ele>
        <time>2026-06-15T11:41:45.000Z</time>
        <extensions>
          <ns3:TrackPointExtension>
            <ns3:atemp>16.0</ns3:atemp>
          </ns3:TrackPointExtension>
        </extensions>
      </trkpt>
      <trkpt lat="42.5649272091686725616455078125" lon="20.050467588007450103759765625">
        <ele>2164.39990234375</ele>
        <time>2026-06-15T11:41:46.000Z</time>
        <extensions>
          <ns3:TrackPointExtension>
            <ns3:atemp>16.0</ns3:atemp>
          </ns3:TrackPointExtension>
        </extensions>
      </trkpt>
      <trkpt lat="42.5649272091686725616455078125" lon="20.050467588007450103759765625">
        <ele>2164.39990234375</ele>
        <time>2026-06-15T11:41:47.000Z</time>
        <extensions>
          <ns3:TrackPointExtension>
            <ns3:atemp>16.0</ns3:atemp>
          </ns3:TrackPointExtension>
        </extensions>
      </trkpt>
      <trkpt lat="42.5649272091686725616455078125" lon="20.050467588007450103759765625">
        <ele>2164.39990234375</ele>
        <time>2026-06-15T11:41:48.000Z</time>
        <extensions>
          <ns3:TrackPointExtension>
            <ns3:atemp>16.0</ns3:atemp>
          </ns3:TrackPointExtension>
        </extensions>
      </trkpt>
      <trkpt lat="42.5649272091686725616455078125" lon="20.050467588007450103759765625">
        <ele>2164.39990234375</ele>
        <time>2026-06-15T11:41:49.000Z</time>
        <extensions>
          <ns3:TrackPointExtension>
            <ns3:atemp>16.0</ns3:atemp>
          </ns3:TrackPointExtension>
        </extensions>
      </trkpt>
      <trkpt lat="42.5649272091686725616455078125" lon="20.050467588007450103759765625">
        <ele>2164.199951171875</ele>
        <time>2026-06-15T11:41:50.000Z</time>
        <extensions>
          <ns3:TrackPointExtension>
            <ns3:atemp>16.0</ns3:atemp>
          </ns3:TrackPointExtension>
        </extensions>
      </trkpt>
      <trkpt lat="42.5649272091686725616455078125" lon="20.050467588007450103759765625">
        <ele>2164.199951171875</ele>
        <time>2026-06-15T11:41:51.000Z</time>
        <extensions>
          <ns3:TrackPointExtension>
            <ns3:atemp>16.0</ns3:atemp>
          </ns3:TrackPointExtension>
        </extensions>
      </trkpt>
      <trkpt lat="42.5649272091686725616455078125" lon="20.050467588007450103759765625">
        <ele>2164.199951171875</ele>
        <time>2026-06-15T11:41:52.000Z</time>
        <extensions>
          <ns3:TrackPointExtension>
            <ns3:atemp>16.0</ns3:atemp>
          </ns3:TrackPointExtension>
        </extensions>
      </trkpt>
      <trkpt lat="42.5649272091686725616455078125" lon="20.050467588007450103759765625">
        <ele>2164.199951171875</ele>
        <time>2026-06-15T11:41:53.000Z</time>
        <extensions>
          <ns3:TrackPointExtension>
            <ns3:atemp>16.0</ns3:atemp>
          </ns3:TrackPointExtension>
        </extensions>
      </trkpt>
      <trkpt lat="42.5649272091686725616455078125" lon="20.050467588007450103759765625">
        <ele>2164.199951171875</ele>
        <time>2026-06-15T11:41:54.000Z</time>
        <extensions>
          <ns3:TrackPointExtension>
            <ns3:atemp>16.0</ns3:atemp>
          </ns3:TrackPointExtension>
        </extensions>
      </trkpt>
      <trkpt lat="42.5649272091686725616455078125" lon="20.050467588007450103759765625">
        <ele>2164.199951171875</ele>
        <time>2026-06-15T11:41:55.000Z</time>
        <extensions>
          <ns3:TrackPointExtension>
            <ns3:atemp>16.0</ns3:atemp>
          </ns3:TrackPointExtension>
        </extensions>
      </trkpt>
      <trkpt lat="42.5649272091686725616455078125" lon="20.050467588007450103759765625">
        <ele>2164</ele>
        <time>2026-06-15T11:41:56.000Z</time>
        <extensions>
          <ns3:TrackPointExtension>
            <ns3:atemp>16.0</ns3:atemp>
          </ns3:TrackPointExtension>
        </extensions>
      </trkpt>
      <trkpt lat="42.5649272091686725616455078125" lon="20.050467588007450103759765625">
        <ele>2164</ele>
        <time>2026-06-15T11:41:57.000Z</time>
        <extensions>
          <ns3:TrackPointExtension>
            <ns3:atemp>16.0</ns3:atemp>
          </ns3:TrackPointExtension>
        </extensions>
      </trkpt>
      <trkpt lat="42.5649272091686725616455078125" lon="20.050467588007450103759765625">
        <ele>2163.800048828125</ele>
        <time>2026-06-15T11:41:58.000Z</time>
        <extensions>
          <ns3:TrackPointExtension>
            <ns3:atemp>16.0</ns3:atemp>
          </ns3:TrackPointExtension>
        </extensions>
      </trkpt>
      <trkpt lat="42.5649272091686725616455078125" lon="20.050467588007450103759765625">
        <ele>2163.800048828125</ele>
        <time>2026-06-15T11:41:59.000Z</time>
        <extensions>
          <ns3:TrackPointExtension>
            <ns3:atemp>16.0</ns3:atemp>
          </ns3:TrackPointExtension>
        </extensions>
      </trkpt>
      <trkpt lat="42.5649272091686725616455078125" lon="20.050467588007450103759765625">
        <ele>2163.800048828125</ele>
        <time>2026-06-15T11:42:00.000Z</time>
        <extensions>
          <ns3:TrackPointExtension>
            <ns3:atemp>16.0</ns3:atemp>
          </ns3:TrackPointExtension>
        </extensions>
      </trkpt>
      <trkpt lat="42.5649272091686725616455078125" lon="20.050467588007450103759765625">
        <ele>2163.800048828125</ele>
        <time>2026-06-15T11:42:01.000Z</time>
        <extensions>
          <ns3:TrackPointExtension>
            <ns3:atemp>16.0</ns3:atemp>
          </ns3:TrackPointExtension>
        </extensions>
      </trkpt>
      <trkpt lat="42.5649272091686725616455078125" lon="20.050467588007450103759765625">
        <ele>2163.800048828125</ele>
        <time>2026-06-15T11:42:02.000Z</time>
        <extensions>
          <ns3:TrackPointExtension>
            <ns3:atemp>16.0</ns3:atemp>
          </ns3:TrackPointExtension>
        </extensions>
      </trkpt>
      <trkpt lat="42.5649272091686725616455078125" lon="20.050467588007450103759765625">
        <ele>2163.60009765625</ele>
        <time>2026-06-15T11:42:03.000Z</time>
        <extensions>
          <ns3:TrackPointExtension>
            <ns3:atemp>16.0</ns3:atemp>
          </ns3:TrackPointExtension>
        </extensions>
      </trkpt>
      <trkpt lat="42.5649272091686725616455078125" lon="20.050467588007450103759765625">
        <ele>2163.60009765625</ele>
        <time>2026-06-15T11:42:04.000Z</time>
        <extensions>
          <ns3:TrackPointExtension>
            <ns3:atemp>16.0</ns3:atemp>
          </ns3:TrackPointExtension>
        </extensions>
      </trkpt>
      <trkpt lat="42.5649272091686725616455078125" lon="20.050467588007450103759765625">
        <ele>2163.60009765625</ele>
        <time>2026-06-15T11:42:05.000Z</time>
        <extensions>
          <ns3:TrackPointExtension>
            <ns3:atemp>16.0</ns3:atemp>
          </ns3:TrackPointExtension>
        </extensions>
      </trkpt>
      <trkpt lat="42.5649272091686725616455078125" lon="20.050467588007450103759765625">
        <ele>2163.39990234375</ele>
        <time>2026-06-15T11:42:06.000Z</time>
        <extensions>
          <ns3:TrackPointExtension>
            <ns3:atemp>16.0</ns3:atemp>
          </ns3:TrackPointExtension>
        </extensions>
      </trkpt>
      <trkpt lat="42.5649272091686725616455078125" lon="20.050467588007450103759765625">
        <ele>2163.39990234375</ele>
        <time>2026-06-15T11:42:07.000Z</time>
        <extensions>
          <ns3:TrackPointExtension>
            <ns3:atemp>16.0</ns3:atemp>
          </ns3:TrackPointExtension>
        </extensions>
      </trkpt>
      <trkpt lat="42.5649272091686725616455078125" lon="20.050467588007450103759765625">
        <ele>2163.199951171875</ele>
        <time>2026-06-15T11:42:08.000Z</time>
        <extensions>
          <ns3:TrackPointExtension>
            <ns3:atemp>16.0</ns3:atemp>
          </ns3:TrackPointExtension>
        </extensions>
      </trkpt>
      <trkpt lat="42.5649272091686725616455078125" lon="20.050467588007450103759765625">
        <ele>2163</ele>
        <time>2026-06-15T11:42:09.000Z</time>
        <extensions>
          <ns3:TrackPointExtension>
            <ns3:atemp>16.0</ns3:atemp>
          </ns3:TrackPointExtension>
        </extensions>
      </trkpt>
      <trkpt lat="42.5649272091686725616455078125" lon="20.050467588007450103759765625">
        <ele>2163</ele>
        <time>2026-06-15T11:42:10.000Z</time>
        <extensions>
          <ns3:TrackPointExtension>
            <ns3:atemp>16.0</ns3:atemp>
          </ns3:TrackPointExtension>
        </extensions>
      </trkpt>
      <trkpt lat="42.5649272091686725616455078125" lon="20.050467588007450103759765625">
        <ele>2162.800048828125</ele>
        <time>2026-06-15T11:42:11.000Z</time>
        <extensions>
          <ns3:TrackPointExtension>
            <ns3:atemp>16.0</ns3:atemp>
          </ns3:TrackPointExtension>
        </extensions>
      </trkpt>
      <trkpt lat="42.5649272091686725616455078125" lon="20.050467588007450103759765625">
        <ele>2162.800048828125</ele>
        <time>2026-06-15T11:42:12.000Z</time>
        <extensions>
          <ns3:TrackPointExtension>
            <ns3:atemp>16.0</ns3:atemp>
          </ns3:TrackPointExtension>
        </extensions>
      </trkpt>
      <trkpt lat="42.5649272091686725616455078125" lon="20.050467588007450103759765625">
        <ele>2162.800048828125</ele>
        <time>2026-06-15T11:42:13.000Z</time>
        <extensions>
          <ns3:TrackPointExtension>
            <ns3:atemp>16.0</ns3:atemp>
          </ns3:TrackPointExtension>
        </extensions>
      </trkpt>
      <trkpt lat="42.5649272091686725616455078125" lon="20.050467588007450103759765625">
        <ele>2162.60009765625</ele>
        <time>2026-06-15T11:42:14.000Z</time>
        <extensions>
          <ns3:TrackPointExtension>
            <ns3:atemp>16.0</ns3:atemp>
          </ns3:TrackPointExtension>
        </extensions>
      </trkpt>
      <trkpt lat="42.5649272091686725616455078125" lon="20.050467588007450103759765625">
        <ele>2162.60009765625</ele>
        <time>2026-06-15T11:42:15.000Z</time>
        <extensions>
          <ns3:TrackPointExtension>
            <ns3:atemp>16.0</ns3:atemp>
          </ns3:TrackPointExtension>
        </extensions>
      </trkpt>
      <trkpt lat="42.5649272091686725616455078125" lon="20.050467588007450103759765625">
        <ele>2162.60009765625</ele>
        <time>2026-06-15T11:42:16.000Z</time>
        <extensions>
          <ns3:TrackPointExtension>
            <ns3:atemp>16.0</ns3:atemp>
          </ns3:TrackPointExtension>
        </extensions>
      </trkpt>
      <trkpt lat="42.5649272091686725616455078125" lon="20.050467588007450103759765625">
        <ele>2162.800048828125</ele>
        <time>2026-06-15T11:42:17.000Z</time>
        <extensions>
          <ns3:TrackPointExtension>
            <ns3:atemp>16.0</ns3:atemp>
          </ns3:TrackPointExtension>
        </extensions>
      </trkpt>
      <trkpt lat="42.5649272091686725616455078125" lon="20.050467588007450103759765625">
        <ele>2162.800048828125</ele>
        <time>2026-06-15T11:42:18.000Z</time>
        <extensions>
          <ns3:TrackPointExtension>
            <ns3:atemp>16.0</ns3:atemp>
          </ns3:TrackPointExtension>
        </extensions>
      </trkpt>
      <trkpt lat="42.5649272091686725616455078125" lon="20.050467588007450103759765625">
        <ele>2162.800048828125</ele>
        <time>2026-06-15T11:42:19.000Z</time>
        <extensions>
          <ns3:TrackPointExtension>
            <ns3:atemp>16.0</ns3:atemp>
          </ns3:TrackPointExtension>
        </extensions>
      </trkpt>
      <trkpt lat="42.5649272091686725616455078125" lon="20.050467588007450103759765625">
        <ele>2162.800048828125</ele>
        <time>2026-06-15T11:42:20.000Z</time>
        <extensions>
          <ns3:TrackPointExtension>
            <ns3:atemp>16.0</ns3:atemp>
          </ns3:TrackPointExtension>
        </extensions>
      </trkpt>
      <trkpt lat="42.5649272091686725616455078125" lon="20.050467588007450103759765625">
        <ele>2162.800048828125</ele>
        <time>2026-06-15T11:42:21.000Z</time>
        <extensions>
          <ns3:TrackPointExtension>
            <ns3:atemp>16.0</ns3:atemp>
          </ns3:TrackPointExtension>
        </extensions>
      </trkpt>
      <trkpt lat="42.5649272091686725616455078125" lon="20.050467588007450103759765625">
        <ele>2162.60009765625</ele>
        <time>2026-06-15T11:42:22.000Z</time>
        <extensions>
          <ns3:TrackPointExtension>
            <ns3:atemp>16.0</ns3:atemp>
          </ns3:TrackPointExtension>
        </extensions>
      </trkpt>
      <trkpt lat="42.5649272091686725616455078125" lon="20.050467588007450103759765625">
        <ele>2162.39990234375</ele>
        <time>2026-06-15T11:42:23.000Z</time>
        <extensions>
          <ns3:TrackPointExtension>
            <ns3:atemp>16.0</ns3:atemp>
          </ns3:TrackPointExtension>
        </extensions>
      </trkpt>
      <trkpt lat="42.5649272091686725616455078125" lon="20.050467588007450103759765625">
        <ele>2162.39990234375</ele>
        <time>2026-06-15T11:42:24.000Z</time>
        <extensions>
          <ns3:TrackPointExtension>
            <ns3:atemp>16.0</ns3:atemp>
          </ns3:TrackPointExtension>
        </extensions>
      </trkpt>
      <trkpt lat="42.5649272091686725616455078125" lon="20.050467588007450103759765625">
        <ele>2162.199951171875</ele>
        <time>2026-06-15T11:42:25.000Z</time>
        <extensions>
          <ns3:TrackPointExtension>
            <ns3:atemp>16.0</ns3:atemp>
          </ns3:TrackPointExtension>
        </extensions>
      </trkpt>
      <trkpt lat="42.5649272091686725616455078125" lon="20.050467588007450103759765625">
        <ele>2162</ele>
        <time>2026-06-15T11:42:26.000Z</time>
        <extensions>
          <ns3:TrackPointExtension>
            <ns3:atemp>16.0</ns3:atemp>
          </ns3:TrackPointExtension>
        </extensions>
      </trkpt>
      <trkpt lat="42.5649272091686725616455078125" lon="20.050467588007450103759765625">
        <ele>2162</ele>
        <time>2026-06-15T11:42:27.000Z</time>
        <extensions>
          <ns3:TrackPointExtension>
            <ns3:atemp>16.0</ns3:atemp>
          </ns3:TrackPointExtension>
        </extensions>
      </trkpt>
      <trkpt lat="42.5649272091686725616455078125" lon="20.050467588007450103759765625">
        <ele>2161.800048828125</ele>
        <time>2026-06-15T11:42:28.000Z</time>
        <extensions>
          <ns3:TrackPointExtension>
            <ns3:atemp>16.0</ns3:atemp>
          </ns3:TrackPointExtension>
        </extensions>
      </trkpt>
      <trkpt lat="42.5649272091686725616455078125" lon="20.050467588007450103759765625">
        <ele>2161.800048828125</ele>
        <time>2026-06-15T11:42:29.000Z</time>
        <extensions>
          <ns3:TrackPointExtension>
            <ns3:atemp>16.0</ns3:atemp>
          </ns3:TrackPointExtension>
        </extensions>
      </trkpt>
      <trkpt lat="42.5649272091686725616455078125" lon="20.050467588007450103759765625">
        <ele>2161.60009765625</ele>
        <time>2026-06-15T11:42:30.000Z</time>
        <extensions>
          <ns3:TrackPointExtension>
            <ns3:atemp>16.0</ns3:atemp>
          </ns3:TrackPointExtension>
        </extensions>
      </trkpt>
      <trkpt lat="42.5649272091686725616455078125" lon="20.050467588007450103759765625">
        <ele>2161.60009765625</ele>
        <time>2026-06-15T11:42:31.000Z</time>
        <extensions>
          <ns3:TrackPointExtension>
            <ns3:atemp>16.0</ns3:atemp>
          </ns3:TrackPointExtension>
        </extensions>
      </trkpt>
      <trkpt lat="42.5649272091686725616455078125" lon="20.050467588007450103759765625">
        <ele>2161.60009765625</ele>
        <time>2026-06-15T11:42:32.000Z</time>
        <extensions>
          <ns3:TrackPointExtension>
            <ns3:atemp>16.0</ns3:atemp>
          </ns3:TrackPointExtension>
        </extensions>
      </trkpt>
      <trkpt lat="42.5649272091686725616455078125" lon="20.050467588007450103759765625">
        <ele>2161.39990234375</ele>
        <time>2026-06-15T11:42:33.000Z</time>
        <extensions>
          <ns3:TrackPointExtension>
            <ns3:atemp>16.0</ns3:atemp>
          </ns3:TrackPointExtension>
        </extensions>
      </trkpt>
      <trkpt lat="42.5649272091686725616455078125" lon="20.050467588007450103759765625">
        <ele>2161.39990234375</ele>
        <time>2026-06-15T11:42:34.000Z</time>
        <extensions>
          <ns3:TrackPointExtension>
            <ns3:atemp>16.0</ns3:atemp>
          </ns3:TrackPointExtension>
        </extensions>
      </trkpt>
      <trkpt lat="42.5649272091686725616455078125" lon="20.050467588007450103759765625">
        <ele>2161.199951171875</ele>
        <time>2026-06-15T11:42:35.000Z</time>
        <extensions>
          <ns3:TrackPointExtension>
            <ns3:atemp>16.0</ns3:atemp>
          </ns3:TrackPointExtension>
        </extensions>
      </trkpt>
      <trkpt lat="42.5649272091686725616455078125" lon="20.050467588007450103759765625">
        <ele>2161.199951171875</ele>
        <time>2026-06-15T11:42:36.000Z</time>
        <extensions>
          <ns3:TrackPointExtension>
            <ns3:atemp>16.0</ns3:atemp>
          </ns3:TrackPointExtension>
        </extensions>
      </trkpt>
      <trkpt lat="42.5649272091686725616455078125" lon="20.050467588007450103759765625">
        <ele>2161</ele>
        <time>2026-06-15T11:42:37.000Z</time>
        <extensions>
          <ns3:TrackPointExtension>
            <ns3:atemp>16.0</ns3:atemp>
          </ns3:TrackPointExtension>
        </extensions>
      </trkpt>
      <trkpt lat="42.5649272091686725616455078125" lon="20.050467588007450103759765625">
        <ele>2161</ele>
        <time>2026-06-15T11:42:38.000Z</time>
        <extensions>
          <ns3:TrackPointExtension>
            <ns3:atemp>16.0</ns3:atemp>
          </ns3:TrackPointExtension>
        </extensions>
      </trkpt>
      <trkpt lat="42.5649272091686725616455078125" lon="20.050467588007450103759765625">
        <ele>2160.800048828125</ele>
        <time>2026-06-15T11:42:39.000Z</time>
        <extensions>
          <ns3:TrackPointExtension>
            <ns3:atemp>16.0</ns3:atemp>
          </ns3:TrackPointExtension>
        </extensions>
      </trkpt>
      <trkpt lat="42.5649272091686725616455078125" lon="20.050467588007450103759765625">
        <ele>2160.800048828125</ele>
        <time>2026-06-15T11:42:40.000Z</time>
        <extensions>
          <ns3:TrackPointExtension>
            <ns3:atemp>16.0</ns3:atemp>
          </ns3:TrackPointExtension>
        </extensions>
      </trkpt>
      <trkpt lat="42.56492913700640201568603515625" lon="20.05046255886554718017578125">
        <ele>2160.800048828125</ele>
        <time>2026-06-15T11:42:41.000Z</time>
        <extensions>
          <ns3:TrackPointExtension>
            <ns3:atemp>16.0</ns3:atemp>
          </ns3:TrackPointExtension>
        </extensions>
      </trkpt>
      <trkpt lat="42.5649376027286052703857421875" lon="20.05044839344918727874755859375">
        <ele>2160.800048828125</ele>
        <time>2026-06-15T11:42:42.000Z</time>
        <extensions>
          <ns3:TrackPointExtension>
            <ns3:atemp>16.0</ns3:atemp>
          </ns3:TrackPointExtension>
        </extensions>
      </trkpt>
      <trkpt lat="42.56493584252893924713134765625" lon="20.0504399277269840240478515625">
        <ele>2160.800048828125</ele>
        <time>2026-06-15T11:42:43.000Z</time>
        <extensions>
          <ns3:TrackPointExtension>
            <ns3:atemp>16.0</ns3:atemp>
          </ns3:TrackPointExtension>
        </extensions>
      </trkpt>
      <trkpt lat="42.564937770366668701171875" lon="20.05043347366154193878173828125">
        <ele>2161</ele>
        <time>2026-06-15T11:42:44.000Z</time>
        <extensions>
          <ns3:TrackPointExtension>
            <ns3:atemp>16.0</ns3:atemp>
          </ns3:TrackPointExtension>
        </extensions>
      </trkpt>
      <trkpt lat="42.56494170986115932464599609375" lon="20.0504234991967678070068359375">
        <ele>2161</ele>
        <time>2026-06-15T11:42:45.000Z</time>
        <extensions>
          <ns3:TrackPointExtension>
            <ns3:atemp>16.0</ns3:atemp>
          </ns3:TrackPointExtension>
        </extensions>
      </trkpt>
      <trkpt lat="42.56495445035398006439208984375" lon="20.05039215087890625">
        <ele>2161</ele>
        <time>2026-06-15T11:42:46.000Z</time>
        <extensions>
          <ns3:TrackPointExtension>
            <ns3:atemp>16.0</ns3:atemp>
          </ns3:TrackPointExtension>
        </extensions>
      </trkpt>
      <trkpt lat="42.56496802903711795806884765625" lon="20.0503651611506938934326171875">
        <ele>2161</ele>
        <time>2026-06-15T11:42:47.000Z</time>
        <extensions>
          <ns3:TrackPointExtension>
            <ns3:atemp>16.0</ns3:atemp>
          </ns3:TrackPointExtension>
        </extensions>
      </trkpt>
      <trkpt lat="42.56497724913060665130615234375" lon="20.050339512526988983154296875">
        <ele>2161</ele>
        <time>2026-06-15T11:42:48.000Z</time>
        <extensions>
          <ns3:TrackPointExtension>
            <ns3:atemp>16.0</ns3:atemp>
          </ns3:TrackPointExtension>
        </extensions>
      </trkpt>
      <trkpt lat="42.56499342620372772216796875" lon="20.05031025968492031097412109375">
        <ele>2161</ele>
        <time>2026-06-15T11:42:49.000Z</time>
        <extensions>
          <ns3:TrackPointExtension>
            <ns3:atemp>16.0</ns3:atemp>
          </ns3:TrackPointExtension>
        </extensions>
      </trkpt>
      <trkpt lat="42.56501463241875171661376953125" lon="20.05028016865253448486328125">
        <ele>2161</ele>
        <time>2026-06-15T11:42:50.000Z</time>
        <extensions>
          <ns3:TrackPointExtension>
            <ns3:atemp>16.0</ns3:atemp>
          </ns3:TrackPointExtension>
        </extensions>
      </trkpt>
      <trkpt lat="42.5650401972234249114990234375" lon="20.05024990998208522796630859375">
        <ele>2161</ele>
        <time>2026-06-15T11:42:51.000Z</time>
        <extensions>
          <ns3:TrackPointExtension>
            <ns3:atemp>16.0</ns3:atemp>
          </ns3:TrackPointExtension>
        </extensions>
      </trkpt>
      <trkpt lat="42.56507179699838161468505859375" lon="20.05021973513066768646240234375">
        <ele>2161</ele>
        <time>2026-06-15T11:42:52.000Z</time>
        <extensions>
          <ns3:TrackPointExtension>
            <ns3:atemp>16.0</ns3:atemp>
          </ns3:TrackPointExtension>
        </extensions>
      </trkpt>
      <trkpt lat="42.56511370651423931121826171875" lon="20.050192661583423614501953125">
        <ele>2160.800048828125</ele>
        <time>2026-06-15T11:42:53.000Z</time>
        <extensions>
          <ns3:TrackPointExtension>
            <ns3:atemp>16.0</ns3:atemp>
          </ns3:TrackPointExtension>
        </extensions>
      </trkpt>
      <trkpt lat="42.56515762768685817718505859375" lon="20.0501656718552112579345703125">
        <ele>2160.800048828125</ele>
        <time>2026-06-15T11:42:54.000Z</time>
        <extensions>
          <ns3:TrackPointExtension>
            <ns3:atemp>16.0</ns3:atemp>
          </ns3:TrackPointExtension>
        </extensions>
      </trkpt>
      <trkpt lat="42.56520624272525310516357421875" lon="20.0501354970037937164306640625">
        <ele>2160.39990234375</ele>
        <time>2026-06-15T11:42:55.000Z</time>
        <extensions>
          <ns3:TrackPointExtension>
            <ns3:atemp>16.0</ns3:atemp>
          </ns3:TrackPointExtension>
        </extensions>
      </trkpt>
      <trkpt lat="42.565247900784015655517578125" lon="20.0500962696969509124755859375">
        <ele>2160</ele>
        <time>2026-06-15T11:42:56.000Z</time>
        <extensions>
          <ns3:TrackPointExtension>
            <ns3:atemp>16.0</ns3:atemp>
          </ns3:TrackPointExtension>
        </extensions>
      </trkpt>
      <trkpt lat="42.56527715362608432769775390625" lon="20.0500587187707424163818359375">
        <ele>2159.60009765625</ele>
        <time>2026-06-15T11:42:57.000Z</time>
        <extensions>
          <ns3:TrackPointExtension>
            <ns3:atemp>16.0</ns3:atemp>
          </ns3:TrackPointExtension>
        </extensions>
      </trkpt>
      <trkpt lat="42.56530649028718471527099609375" lon="20.05002938210964202880859375">
        <ele>2159.199951171875</ele>
        <time>2026-06-15T11:42:58.000Z</time>
        <extensions>
          <ns3:TrackPointExtension>
            <ns3:atemp>16.0</ns3:atemp>
          </ns3:TrackPointExtension>
        </extensions>
      </trkpt>
      <trkpt lat="42.56533381529152393341064453125" lon="20.05000918172299861907958984375">
        <ele>2158.60009765625</ele>
        <time>2026-06-15T11:42:59.000Z</time>
        <extensions>
          <ns3:TrackPointExtension>
            <ns3:atemp>16.0</ns3:atemp>
          </ns3:TrackPointExtension>
        </extensions>
      </trkpt>
      <trkpt lat="42.56534881889820098876953125" lon="20.05000364966690540313720703125">
        <ele>2158.199951171875</ele>
        <time>2026-06-15T11:43:00.000Z</time>
        <extensions>
          <ns3:TrackPointExtension>
            <ns3:atemp>16.0</ns3:atemp>
          </ns3:TrackPointExtension>
        </extensions>
      </trkpt>
      <trkpt lat="42.5653566978871822357177734375" lon="20.05000717006623744964599609375">
        <ele>2158.199951171875</ele>
        <time>2026-06-15T11:43:01.000Z</time>
        <extensions>
          <ns3:TrackPointExtension>
            <ns3:atemp>16.0</ns3:atemp>
          </ns3:TrackPointExtension>
        </extensions>
      </trkpt>
      <trkpt lat="42.56535284221172332763671875" lon="20.05002276040613651275634765625">
        <ele>2158.199951171875</ele>
        <time>2026-06-15T11:43:02.000Z</time>
        <extensions>
          <ns3:TrackPointExtension>
            <ns3:atemp>16.0</ns3:atemp>
          </ns3:TrackPointExtension>
        </extensions>
      </trkpt>
      <trkpt lat="42.565345801413059234619140625" lon="20.05002493970096111297607421875">
        <ele>2158.199951171875</ele>
        <time>2026-06-15T11:43:03.000Z</time>
        <extensions>
          <ns3:TrackPointExtension>
            <ns3:atemp>16.0</ns3:atemp>
          </ns3:TrackPointExtension>
        </extensions>
      </trkpt>
      <trkpt lat="42.56533666513860225677490234375" lon="20.05002141930162906646728515625">
        <ele>2158.199951171875</ele>
        <time>2026-06-15T11:43:04.000Z</time>
        <extensions>
          <ns3:TrackPointExtension>
            <ns3:atemp>16.0</ns3:atemp>
          </ns3:TrackPointExtension>
        </extensions>
      </trkpt>
      <trkpt lat="42.56533448584377765655517578125" lon="20.05001555196940898895263671875">
        <ele>2158.199951171875</ele>
        <time>2026-06-15T11:43:05.000Z</time>
        <extensions>
          <ns3:TrackPointExtension>
            <ns3:atemp>16.0</ns3:atemp>
          </ns3:TrackPointExtension>
        </extensions>
      </trkpt>
      <trkpt lat="42.56533448584377765655517578125" lon="20.05001555196940898895263671875">
        <ele>2158.199951171875</ele>
        <time>2026-06-15T11:43:06.000Z</time>
        <extensions>
          <ns3:TrackPointExtension>
            <ns3:atemp>16.0</ns3:atemp>
          </ns3:TrackPointExtension>
        </extensions>
      </trkpt>
      <trkpt lat="42.56533448584377765655517578125" lon="20.05001555196940898895263671875">
        <ele>2158.199951171875</ele>
        <time>2026-06-15T11:43:07.000Z</time>
        <extensions>
          <ns3:TrackPointExtension>
            <ns3:atemp>16.0</ns3:atemp>
          </ns3:TrackPointExtension>
        </extensions>
      </trkpt>
      <trkpt lat="42.56533448584377765655517578125" lon="20.05001555196940898895263671875">
        <ele>2158.39990234375</ele>
        <time>2026-06-15T11:43:08.000Z</time>
        <extensions>
          <ns3:TrackPointExtension>
            <ns3:atemp>16.0</ns3:atemp>
          </ns3:TrackPointExtension>
        </extensions>
      </trkpt>
      <trkpt lat="42.56533448584377765655517578125" lon="20.05001555196940898895263671875">
        <ele>2158.39990234375</ele>
        <time>2026-06-15T11:43:09.000Z</time>
        <extensions>
          <ns3:TrackPointExtension>
            <ns3:atemp>16.0</ns3:atemp>
          </ns3:TrackPointExtension>
        </extensions>
      </trkpt>
      <trkpt lat="42.56533448584377765655517578125" lon="20.05001555196940898895263671875">
        <ele>2158.39990234375</ele>
        <time>2026-06-15T11:43:10.000Z</time>
        <extensions>
          <ns3:TrackPointExtension>
            <ns3:atemp>16.0</ns3:atemp>
          </ns3:TrackPointExtension>
        </extensions>
      </trkpt>
      <trkpt lat="42.56533448584377765655517578125" lon="20.05001555196940898895263671875">
        <ele>2158.39990234375</ele>
        <time>2026-06-15T11:43:11.000Z</time>
        <extensions>
          <ns3:TrackPointExtension>
            <ns3:atemp>16.0</ns3:atemp>
          </ns3:TrackPointExtension>
        </extensions>
      </trkpt>
      <trkpt lat="42.56533448584377765655517578125" lon="20.05001555196940898895263671875">
        <ele>2158.199951171875</ele>
        <time>2026-06-15T11:43:12.000Z</time>
        <extensions>
          <ns3:TrackPointExtension>
            <ns3:atemp>16.0</ns3:atemp>
          </ns3:TrackPointExtension>
        </extensions>
      </trkpt>
      <trkpt lat="42.56533415056765079498291015625" lon="20.05001622252166271209716796875">
        <ele>2158.199951171875</ele>
        <time>2026-06-15T11:43:13.000Z</time>
        <extensions>
          <ns3:TrackPointExtension>
            <ns3:atemp>16.0</ns3:atemp>
          </ns3:TrackPointExtension>
        </extensions>
      </trkpt>
      <trkpt lat="42.565310262143611907958984375" lon="20.0500318966805934906005859375">
        <ele>2158.199951171875</ele>
        <time>2026-06-15T11:43:14.000Z</time>
        <extensions>
          <ns3:TrackPointExtension>
            <ns3:atemp>16.0</ns3:atemp>
          </ns3:TrackPointExtension>
        </extensions>
      </trkpt>
      <trkpt lat="42.56529056467115879058837890625" lon="20.05005125887691974639892578125">
        <ele>2158.199951171875</ele>
        <time>2026-06-15T11:43:15.000Z</time>
        <extensions>
          <ns3:TrackPointExtension>
            <ns3:atemp>16.0</ns3:atemp>
          </ns3:TrackPointExtension>
        </extensions>
      </trkpt>
      <trkpt lat="42.56527698598802089691162109375" lon="20.0500743091106414794921875">
        <ele>2158.199951171875</ele>
        <time>2026-06-15T11:43:16.000Z</time>
        <extensions>
          <ns3:TrackPointExtension>
            <ns3:atemp>16.0</ns3:atemp>
          </ns3:TrackPointExtension>
        </extensions>
      </trkpt>
      <trkpt lat="42.56526189856231212615966796875" lon="20.05009434185922145843505859375">
        <ele>2158.199951171875</ele>
        <time>2026-06-15T11:43:17.000Z</time>
        <extensions>
          <ns3:TrackPointExtension>
            <ns3:atemp>16.0</ns3:atemp>
          </ns3:TrackPointExtension>
        </extensions>
      </trkpt>
      <trkpt lat="42.56524999625980854034423828125" lon="20.050105489790439605712890625">
        <ele>2158.39990234375</ele>
        <time>2026-06-15T11:43:18.000Z</time>
        <extensions>
          <ns3:TrackPointExtension>
            <ns3:atemp>16.0</ns3:atemp>
          </ns3:TrackPointExtension>
        </extensions>
      </trkpt>
      <trkpt lat="42.56523524411022663116455078125" lon="20.05011680535972118377685546875">
        <ele>2158.800048828125</ele>
        <time>2026-06-15T11:43:19.000Z</time>
        <extensions>
          <ns3:TrackPointExtension>
            <ns3:atemp>16.0</ns3:atemp>
          </ns3:TrackPointExtension>
        </extensions>
      </trkpt>
      <trkpt lat="42.56521663628518581390380859375" lon="20.05013222806155681610107421875">
        <ele>2159.199951171875</ele>
        <time>2026-06-15T11:43:20.000Z</time>
        <extensions>
          <ns3:TrackPointExtension>
            <ns3:atemp>16.0</ns3:atemp>
          </ns3:TrackPointExtension>
        </extensions>
      </trkpt>
      <trkpt lat="42.56519970484077930450439453125" lon="20.050141699612140655517578125">
        <ele>2159.39990234375</ele>
        <time>2026-06-15T11:43:21.000Z</time>
        <extensions>
          <ns3:TrackPointExtension>
            <ns3:atemp>16.0</ns3:atemp>
          </ns3:TrackPointExtension>
        </extensions>
      </trkpt>
      <trkpt lat="42.5651830248534679412841796875" lon="20.0501536019146442413330078125">
        <ele>2159.800048828125</ele>
        <time>2026-06-15T11:43:22.000Z</time>
        <extensions>
          <ns3:TrackPointExtension>
            <ns3:atemp>16.0</ns3:atemp>
          </ns3:TrackPointExtension>
        </extensions>
      </trkpt>
      <trkpt lat="42.5651709549129009246826171875" lon="20.050157792866230010986328125">
        <ele>2160.199951171875</ele>
        <time>2026-06-15T11:43:23.000Z</time>
        <extensions>
          <ns3:TrackPointExtension>
            <ns3:atemp>16.0</ns3:atemp>
          </ns3:TrackPointExtension>
        </extensions>
      </trkpt>
      <trkpt lat="42.56515846587717533111572265625" lon="20.05016005598008632659912109375">
        <ele>2160.60009765625</ele>
        <time>2026-06-15T11:43:24.000Z</time>
        <extensions>
          <ns3:TrackPointExtension>
            <ns3:atemp>16.0</ns3:atemp>
          </ns3:TrackPointExtension>
        </extensions>
      </trkpt>
      <trkpt lat="42.56514539010822772979736328125" lon="20.05016340874135494232177734375">
        <ele>2161.199951171875</ele>
        <time>2026-06-15T11:43:25.000Z</time>
        <extensions>
          <ns3:TrackPointExtension>
            <ns3:atemp>16.0</ns3:atemp>
          </ns3:TrackPointExtension>
        </extensions>
      </trkpt>
      <trkpt lat="42.5651354156434535980224609375" lon="20.0501707009971141815185546875">
        <ele>2161.60009765625</ele>
        <time>2026-06-15T11:43:26.000Z</time>
        <extensions>
          <ns3:TrackPointExtension>
            <ns3:atemp>16.0</ns3:atemp>
          </ns3:TrackPointExtension>
        </extensions>
      </trkpt>
      <trkpt lat="42.5651233457028865814208984375" lon="20.0501789152622222900390625">
        <ele>2161.800048828125</ele>
        <time>2026-06-15T11:43:27.000Z</time>
        <extensions>
          <ns3:TrackPointExtension>
            <ns3:atemp>16.0</ns3:atemp>
          </ns3:TrackPointExtension>
        </extensions>
      </trkpt>
      <trkpt lat="42.56511052139103412628173828125" lon="20.05019073374569416046142578125">
        <ele>2162</ele>
        <time>2026-06-15T11:43:28.000Z</time>
        <extensions>
          <ns3:TrackPointExtension>
            <ns3:atemp>16.0</ns3:atemp>
          </ns3:TrackPointExtension>
        </extensions>
      </trkpt>
      <trkpt lat="42.56510264240205287933349609375" lon="20.05019475705921649932861328125">
        <ele>2162.199951171875</ele>
        <time>2026-06-15T11:43:29.000Z</time>
        <extensions>
          <ns3:TrackPointExtension>
            <ns3:atemp>16.0</ns3:atemp>
          </ns3:TrackPointExtension>
        </extensions>
      </trkpt>
      <trkpt lat="42.56509409286081790924072265625" lon="20.05019945092499256134033203125">
        <ele>2162.39990234375</ele>
        <time>2026-06-15T11:43:30.000Z</time>
        <extensions>
          <ns3:TrackPointExtension>
            <ns3:atemp>16.0</ns3:atemp>
          </ns3:TrackPointExtension>
        </extensions>
      </trkpt>
      <trkpt lat="42.5650812685489654541015625" lon="20.05020867101848125457763671875">
        <ele>2163</ele>
        <time>2026-06-15T11:43:31.000Z</time>
        <extensions>
          <ns3:TrackPointExtension>
            <ns3:atemp>16.0</ns3:atemp>
          </ns3:TrackPointExtension>
        </extensions>
      </trkpt>
      <trkpt lat="42.56506777368485927581787109375" lon="20.05021906457841396331787109375">
        <ele>2163.199951171875</ele>
        <time>2026-06-15T11:43:32.000Z</time>
        <extensions>
          <ns3:TrackPointExtension>
            <ns3:atemp>16.0</ns3:atemp>
          </ns3:TrackPointExtension>
        </extensions>
      </trkpt>
      <trkpt lat="42.56505721248686313629150390625" lon="20.0502293743193149566650390625">
        <ele>2163.60009765625</ele>
        <time>2026-06-15T11:43:33.000Z</time>
        <extensions>
          <ns3:TrackPointExtension>
            <ns3:atemp>16.0</ns3:atemp>
          </ns3:TrackPointExtension>
        </extensions>
      </trkpt>
      <trkpt lat="42.56504631601274013519287109375" lon="20.05023683421313762664794921875">
        <ele>2164</ele>
        <time>2026-06-15T11:43:34.000Z</time>
        <extensions>
          <ns3:TrackPointExtension>
            <ns3:atemp>16.0</ns3:atemp>
          </ns3:TrackPointExtension>
        </extensions>
      </trkpt>
      <trkpt lat="42.56502469070255756378173828125" lon="20.05024261772632598876953125">
        <ele>2164.199951171875</ele>
        <time>2026-06-15T11:43:35.000Z</time>
        <extensions>
          <ns3:TrackPointExtension>
            <ns3:atemp>16.0</ns3:atemp>
          </ns3:TrackPointExtension>
        </extensions>
      </trkpt>
      <trkpt lat="42.56500415503978729248046875" lon="20.050244964659214019775390625">
        <ele>2164.39990234375</ele>
        <time>2026-06-15T11:43:36.000Z</time>
        <extensions>
          <ns3:TrackPointExtension>
            <ns3:atemp>16.0</ns3:atemp>
          </ns3:TrackPointExtension>
        </extensions>
      </trkpt>
      <trkpt lat="42.56498211063444614410400390625" lon="20.0502639077603816986083984375">
        <ele>2164.60009765625</ele>
        <time>2026-06-15T11:43:37.000Z</time>
        <extensions>
          <ns3:TrackPointExtension>
            <ns3:atemp>16.0</ns3:atemp>
          </ns3:TrackPointExtension>
        </extensions>
      </trkpt>
      <trkpt lat="42.56496484391391277313232421875" lon="20.05028980784118175506591796875">
        <ele>2165</ele>
        <time>2026-06-15T11:43:38.000Z</time>
        <extensions>
          <ns3:TrackPointExtension>
            <ns3:atemp>16.0</ns3:atemp>
          </ns3:TrackPointExtension>
        </extensions>
      </trkpt>
      <trkpt lat="42.5649657659232616424560546875" lon="20.05032308399677276611328125">
        <ele>2165.199951171875</ele>
        <time>2026-06-15T11:43:39.000Z</time>
        <extensions>
          <ns3:TrackPointExtension>
            <ns3:atemp>16.0</ns3:atemp>
          </ns3:TrackPointExtension>
        </extensions>
      </trkpt>
      <trkpt lat="42.56497674621641635894775390625" lon="20.05034076981246471405029296875">
        <ele>2165.39990234375</ele>
        <time>2026-06-15T11:43:40.000Z</time>
        <extensions>
          <ns3:TrackPointExtension>
            <ns3:atemp>16.0</ns3:atemp>
          </ns3:TrackPointExtension>
        </extensions>
      </trkpt>
      <trkpt lat="42.5649754889309406280517578125" lon="20.0503413565456867218017578125">
        <ele>2165.60009765625</ele>
        <time>2026-06-15T11:43:41.000Z</time>
        <extensions>
          <ns3:TrackPointExtension>
            <ns3:atemp>16.0</ns3:atemp>
          </ns3:TrackPointExtension>
        </extensions>
      </trkpt>
      <trkpt lat="42.564975656569004058837890625" lon="20.05034127272665500640869140625">
        <ele>2165.60009765625</ele>
        <time>2026-06-15T11:43:42.000Z</time>
        <extensions>
          <ns3:TrackPointExtension>
            <ns3:atemp>16.0</ns3:atemp>
          </ns3:TrackPointExtension>
        </extensions>
      </trkpt>
      <trkpt lat="42.564986050128936767578125" lon="20.05033255554735660552978515625">
        <ele>2165.60009765625</ele>
        <time>2026-06-15T11:43:43.000Z</time>
        <extensions>
          <ns3:TrackPointExtension>
            <ns3:atemp>16.0</ns3:atemp>
          </ns3:TrackPointExtension>
        </extensions>
      </trkpt>
      <trkpt lat="42.56499837152659893035888671875" lon="20.0503229163587093353271484375">
        <ele>2165.60009765625</ele>
        <time>2026-06-15T11:43:44.000Z</time>
        <extensions>
          <ns3:TrackPointExtension>
            <ns3:atemp>16.0</ns3:atemp>
          </ns3:TrackPointExtension>
        </extensions>
      </trkpt>
      <trkpt lat="42.565007843077182769775390625" lon="20.0503152050077915191650390625">
        <ele>2165.39990234375</ele>
        <time>2026-06-15T11:43:45.000Z</time>
        <extensions>
          <ns3:TrackPointExtension>
            <ns3:atemp>16.0</ns3:atemp>
          </ns3:TrackPointExtension>
        </extensions>
      </trkpt>
      <trkpt lat="42.56501848809421062469482421875" lon="20.050303973257541656494140625">
        <ele>2165.39990234375</ele>
        <time>2026-06-15T11:43:46.000Z</time>
        <extensions>
          <ns3:TrackPointExtension>
            <ns3:atemp>16.0</ns3:atemp>
          </ns3:TrackPointExtension>
        </extensions>
      </trkpt>
      <trkpt lat="42.56502653472125530242919921875" lon="20.05028326995670795440673828125">
        <ele>2165.39990234375</ele>
        <time>2026-06-15T11:43:47.000Z</time>
        <extensions>
          <ns3:TrackPointExtension>
            <ns3:atemp>16.0</ns3:atemp>
          </ns3:TrackPointExtension>
        </extensions>
      </trkpt>
      <trkpt lat="42.56503240205347537994384765625" lon="20.05026633851230144500732421875">
        <ele>2165.199951171875</ele>
        <time>2026-06-15T11:43:48.000Z</time>
        <extensions>
          <ns3:TrackPointExtension>
            <ns3:atemp>16.0</ns3:atemp>
          </ns3:TrackPointExtension>
        </extensions>
      </trkpt>
      <trkpt lat="42.565038688480854034423828125" lon="20.0502548553049564361572265625">
        <ele>2165</ele>
        <time>2026-06-15T11:43:49.000Z</time>
        <extensions>
          <ns3:TrackPointExtension>
            <ns3:atemp>16.0</ns3:atemp>
          </ns3:TrackPointExtension>
        </extensions>
      </trkpt>
      <trkpt lat="42.56504413671791553497314453125" lon="20.0502461381256580352783203125">
        <ele>2164.800048828125</ele>
        <time>2026-06-15T11:43:50.000Z</time>
        <extensions>
          <ns3:TrackPointExtension>
            <ns3:atemp>16.0</ns3:atemp>
          </ns3:TrackPointExtension>
        </extensions>
      </trkpt>
      <trkpt lat="42.56504413671791553497314453125" lon="20.0502461381256580352783203125">
        <ele>2164.800048828125</ele>
        <time>2026-06-15T11:43:51.000Z</time>
        <extensions>
          <ns3:TrackPointExtension>
            <ns3:atemp>16.0</ns3:atemp>
          </ns3:TrackPointExtension>
        </extensions>
      </trkpt>
      <trkpt lat="42.56504413671791553497314453125" lon="20.0502461381256580352783203125">
        <ele>2164.60009765625</ele>
        <time>2026-06-15T11:43:52.000Z</time>
        <extensions>
          <ns3:TrackPointExtension>
            <ns3:atemp>16.0</ns3:atemp>
          </ns3:TrackPointExtension>
        </extensions>
      </trkpt>
      <trkpt lat="42.56504413671791553497314453125" lon="20.0502461381256580352783203125">
        <ele>2164.39990234375</ele>
        <time>2026-06-15T11:43:53.000Z</time>
        <extensions>
          <ns3:TrackPointExtension>
            <ns3:atemp>16.0</ns3:atemp>
          </ns3:TrackPointExtension>
        </extensions>
      </trkpt>
      <trkpt lat="42.56504413671791553497314453125" lon="20.0502461381256580352783203125">
        <ele>2164.39990234375</ele>
        <time>2026-06-15T11:43:54.000Z</time>
        <extensions>
          <ns3:TrackPointExtension>
            <ns3:atemp>16.0</ns3:atemp>
          </ns3:TrackPointExtension>
        </extensions>
      </trkpt>
      <trkpt lat="42.56504413671791553497314453125" lon="20.0502461381256580352783203125">
        <ele>2164.199951171875</ele>
        <time>2026-06-15T11:43:55.000Z</time>
        <extensions>
          <ns3:TrackPointExtension>
            <ns3:atemp>16.0</ns3:atemp>
          </ns3:TrackPointExtension>
        </extensions>
      </trkpt>
      <trkpt lat="42.56504463963210582733154296875" lon="20.050245635211467742919921875">
        <ele>2164.199951171875</ele>
        <time>2026-06-15T11:43:56.000Z</time>
        <extensions>
          <ns3:TrackPointExtension>
            <ns3:atemp>16.0</ns3:atemp>
          </ns3:TrackPointExtension>
        </extensions>
      </trkpt>
      <trkpt lat="42.56505017168819904327392578125" lon="20.05023859441280364990234375">
        <ele>2164</ele>
        <time>2026-06-15T11:43:57.000Z</time>
        <extensions>
          <ns3:TrackPointExtension>
            <ns3:atemp>16.0</ns3:atemp>
          </ns3:TrackPointExtension>
        </extensions>
      </trkpt>
      <trkpt lat="42.56504413671791553497314453125" lon="20.0502461381256580352783203125">
        <ele>2164</ele>
        <time>2026-06-15T11:43:58.000Z</time>
        <extensions>
          <ns3:TrackPointExtension>
            <ns3:atemp>16.0</ns3:atemp>
          </ns3:TrackPointExtension>
        </extensions>
      </trkpt>
      <trkpt lat="42.56504413671791553497314453125" lon="20.0502461381256580352783203125">
        <ele>2164</ele>
        <time>2026-06-15T11:43:59.000Z</time>
        <extensions>
          <ns3:TrackPointExtension>
            <ns3:atemp>16.0</ns3:atemp>
          </ns3:TrackPointExtension>
        </extensions>
      </trkpt>
      <trkpt lat="42.56504413671791553497314453125" lon="20.0502461381256580352783203125">
        <ele>2164</ele>
        <time>2026-06-15T11:44:00.000Z</time>
        <extensions>
          <ns3:TrackPointExtension>
            <ns3:atemp>16.0</ns3:atemp>
          </ns3:TrackPointExtension>
        </extensions>
      </trkpt>
      <trkpt lat="42.56504413671791553497314453125" lon="20.0502461381256580352783203125">
        <ele>2164</ele>
        <time>2026-06-15T11:44:01.000Z</time>
        <extensions>
          <ns3:TrackPointExtension>
            <ns3:atemp>16.0</ns3:atemp>
          </ns3:TrackPointExtension>
        </extensions>
      </trkpt>
      <trkpt lat="42.56504413671791553497314453125" lon="20.0502461381256580352783203125">
        <ele>2164</ele>
        <time>2026-06-15T11:44:02.000Z</time>
        <extensions>
          <ns3:TrackPointExtension>
            <ns3:atemp>16.0</ns3:atemp>
          </ns3:TrackPointExtension>
        </extensions>
      </trkpt>
      <trkpt lat="42.56504413671791553497314453125" lon="20.0502461381256580352783203125">
        <ele>2164</ele>
        <time>2026-06-15T11:44:03.000Z</time>
        <extensions>
          <ns3:TrackPointExtension>
            <ns3:atemp>16.0</ns3:atemp>
          </ns3:TrackPointExtension>
        </extensions>
      </trkpt>
      <trkpt lat="42.56504413671791553497314453125" lon="20.0502461381256580352783203125">
        <ele>2164.199951171875</ele>
        <time>2026-06-15T11:44:04.000Z</time>
        <extensions>
          <ns3:TrackPointExtension>
            <ns3:atemp>16.0</ns3:atemp>
          </ns3:TrackPointExtension>
        </extensions>
      </trkpt>
      <trkpt lat="42.56504413671791553497314453125" lon="20.0502461381256580352783203125">
        <ele>2164.199951171875</ele>
        <time>2026-06-15T11:44:05.000Z</time>
        <extensions>
          <ns3:TrackPointExtension>
            <ns3:atemp>16.0</ns3:atemp>
          </ns3:TrackPointExtension>
        </extensions>
      </trkpt>
      <trkpt lat="42.56504413671791553497314453125" lon="20.0502461381256580352783203125">
        <ele>2164.199951171875</ele>
        <time>2026-06-15T11:44:06.000Z</time>
        <extensions>
          <ns3:TrackPointExtension>
            <ns3:atemp>16.0</ns3:atemp>
          </ns3:TrackPointExtension>
        </extensions>
      </trkpt>
      <trkpt lat="42.56504413671791553497314453125" lon="20.0502461381256580352783203125">
        <ele>2164.199951171875</ele>
        <time>2026-06-15T11:44:07.000Z</time>
        <extensions>
          <ns3:TrackPointExtension>
            <ns3:atemp>16.0</ns3:atemp>
          </ns3:TrackPointExtension>
        </extensions>
      </trkpt>
      <trkpt lat="42.56504681892693042755126953125" lon="20.05023901350796222686767578125">
        <ele>2164.39990234375</ele>
        <time>2026-06-15T11:44:08.000Z</time>
        <extensions>
          <ns3:TrackPointExtension>
            <ns3:atemp>16.0</ns3:atemp>
          </ns3:TrackPointExtension>
        </extensions>
      </trkpt>
      <trkpt lat="42.565050423145294189453125" lon="20.05022677592933177947998046875">
        <ele>2164.39990234375</ele>
        <time>2026-06-15T11:44:09.000Z</time>
        <extensions>
          <ns3:TrackPointExtension>
            <ns3:atemp>16.0</ns3:atemp>
          </ns3:TrackPointExtension>
        </extensions>
      </trkpt>
      <trkpt lat="42.565060146152973175048828125" lon="20.05021403543651103973388671875">
        <ele>2164.199951171875</ele>
        <time>2026-06-15T11:44:10.000Z</time>
        <extensions>
          <ns3:TrackPointExtension>
            <ns3:atemp>16.0</ns3:atemp>
          </ns3:TrackPointExtension>
        </extensions>
      </trkpt>
      <trkpt lat="42.56507196463644504547119140625" lon="20.05020246841013431549072265625">
        <ele>2164.199951171875</ele>
        <time>2026-06-15T11:44:11.000Z</time>
        <extensions>
          <ns3:TrackPointExtension>
            <ns3:atemp>16.0</ns3:atemp>
          </ns3:TrackPointExtension>
        </extensions>
      </trkpt>
      <trkpt lat="42.565086297690868377685546875" lon="20.05018620751798152923583984375">
        <ele>2164</ele>
        <time>2026-06-15T11:44:12.000Z</time>
        <extensions>
          <ns3:TrackPointExtension>
            <ns3:atemp>16.0</ns3:atemp>
          </ns3:TrackPointExtension>
        </extensions>
      </trkpt>
      <trkpt lat="42.565101049840450286865234375" lon="20.0501717068254947662353515625">
        <ele>2163.800048828125</ele>
        <time>2026-06-15T11:44:13.000Z</time>
        <extensions>
          <ns3:TrackPointExtension>
            <ns3:atemp>16.0</ns3:atemp>
          </ns3:TrackPointExtension>
        </extensions>
      </trkpt>
      <trkpt lat="42.56511789746582508087158203125" lon="20.050159804522991180419921875">
        <ele>2163.60009765625</ele>
        <time>2026-06-15T11:44:14.000Z</time>
        <extensions>
          <ns3:TrackPointExtension>
            <ns3:atemp>16.0</ns3:atemp>
          </ns3:TrackPointExtension>
        </extensions>
      </trkpt>
      <trkpt lat="42.56513432599604129791259765625" lon="20.05014312453567981719970703125">
        <ele>2163.39990234375</ele>
        <time>2026-06-15T11:44:15.000Z</time>
        <extensions>
          <ns3:TrackPointExtension>
            <ns3:atemp>16.0</ns3:atemp>
          </ns3:TrackPointExtension>
        </extensions>
      </trkpt>
      <trkpt lat="42.5651515088975429534912109375" lon="20.0501279532909393310546875">
        <ele>2163.199951171875</ele>
        <time>2026-06-15T11:44:16.000Z</time>
        <extensions>
          <ns3:TrackPointExtension>
            <ns3:atemp>16.0</ns3:atemp>
          </ns3:TrackPointExtension>
        </extensions>
      </trkpt>
      <trkpt lat="42.5651697814464569091796875" lon="20.0501076690852642059326171875">
        <ele>2163</ele>
        <time>2026-06-15T11:44:17.000Z</time>
        <extensions>
          <ns3:TrackPointExtension>
            <ns3:atemp>16.0</ns3:atemp>
          </ns3:TrackPointExtension>
        </extensions>
      </trkpt>
      <trkpt lat="42.5651914067566394805908203125" lon="20.05009182728826999664306640625">
        <ele>2162.60009765625</ele>
        <time>2026-06-15T11:44:18.000Z</time>
        <extensions>
          <ns3:TrackPointExtension>
            <ns3:atemp>16.0</ns3:atemp>
          </ns3:TrackPointExtension>
        </extensions>
      </trkpt>
      <trkpt lat="42.5652182288467884063720703125" lon="20.0500895641744136810302734375">
        <ele>2162.39990234375</ele>
        <time>2026-06-15T11:44:19.000Z</time>
        <extensions>
          <ns3:TrackPointExtension>
            <ns3:atemp>16.0</ns3:atemp>
          </ns3:TrackPointExtension>
        </extensions>
      </trkpt>
      <trkpt lat="42.56523348391056060791015625" lon="20.05009165965020656585693359375">
        <ele>2162.199951171875</ele>
        <time>2026-06-15T11:44:20.000Z</time>
        <extensions>
          <ns3:TrackPointExtension>
            <ns3:atemp>16.0</ns3:atemp>
          </ns3:TrackPointExtension>
        </extensions>
      </trkpt>
      <trkpt lat="42.56524966098368167877197265625" lon="20.05010155029594898223876953125">
        <ele>2161.800048828125</ele>
        <time>2026-06-15T11:44:21.000Z</time>
        <extensions>
          <ns3:TrackPointExtension>
            <ns3:atemp>16.0</ns3:atemp>
          </ns3:TrackPointExtension>
        </extensions>
      </trkpt>
      <trkpt lat="42.5652688555419445037841796875" lon="20.05010590888559818267822265625">
        <ele>2161.39990234375</ele>
        <time>2026-06-15T11:44:22.000Z</time>
        <extensions>
          <ns3:TrackPointExtension>
            <ns3:atemp>16.0</ns3:atemp>
          </ns3:TrackPointExtension>
        </extensions>
      </trkpt>
      <trkpt lat="42.56528436206281185150146484375" lon="20.05009819753468036651611328125">
        <ele>2161.199951171875</ele>
        <time>2026-06-15T11:44:23.000Z</time>
        <extensions>
          <ns3:TrackPointExtension>
            <ns3:atemp>16.0</ns3:atemp>
          </ns3:TrackPointExtension>
        </extensions>
      </trkpt>
      <trkpt lat="42.5652909837663173675537109375" lon="20.05007858388125896453857421875">
        <ele>2161</ele>
        <time>2026-06-15T11:44:24.000Z</time>
        <extensions>
          <ns3:TrackPointExtension>
            <ns3:atemp>16.0</ns3:atemp>
          </ns3:TrackPointExtension>
        </extensions>
      </trkpt>
      <trkpt lat="42.56528855301439762115478515625" lon="20.0500624068081378936767578125">
        <ele>2160.800048828125</ele>
        <time>2026-06-15T11:44:25.000Z</time>
        <extensions>
          <ns3:TrackPointExtension>
            <ns3:atemp>16.0</ns3:atemp>
          </ns3:TrackPointExtension>
        </extensions>
      </trkpt>
      <trkpt lat="42.565275393426418304443359375" lon="20.05005092360079288482666015625">
        <ele>2160.60009765625</ele>
        <time>2026-06-15T11:44:26.000Z</time>
        <extensions>
          <ns3:TrackPointExtension>
            <ns3:atemp>16.0</ns3:atemp>
          </ns3:TrackPointExtension>
        </extensions>
      </trkpt>
      <trkpt lat="42.56526139564812183380126953125" lon="20.050048492848873138427734375">
        <ele>2160.39990234375</ele>
        <time>2026-06-15T11:44:27.000Z</time>
        <extensions>
          <ns3:TrackPointExtension>
            <ns3:atemp>16.0</ns3:atemp>
          </ns3:TrackPointExtension>
        </extensions>
      </trkpt>
      <trkpt lat="42.56524748168885707855224609375" lon="20.0500595569610595703125">
        <ele>2160.39990234375</ele>
        <time>2026-06-15T11:44:28.000Z</time>
        <extensions>
          <ns3:TrackPointExtension>
            <ns3:atemp>16.0</ns3:atemp>
          </ns3:TrackPointExtension>
        </extensions>
      </trkpt>
      <trkpt lat="42.5652423687279224395751953125" lon="20.05007095634937286376953125">
        <ele>2160.60009765625</ele>
        <time>2026-06-15T11:44:29.000Z</time>
        <extensions>
          <ns3:TrackPointExtension>
            <ns3:atemp>16.0</ns3:atemp>
          </ns3:TrackPointExtension>
        </extensions>
      </trkpt>
      <trkpt lat="42.56523759104311466217041015625" lon="20.05008973181247711181640625">
        <ele>2161</ele>
        <time>2026-06-15T11:44:30.000Z</time>
        <extensions>
          <ns3:TrackPointExtension>
            <ns3:atemp>16.0</ns3:atemp>
          </ns3:TrackPointExtension>
        </extensions>
      </trkpt>
      <trkpt lat="42.565232813358306884765625" lon="20.05010406486690044403076171875">
        <ele>2161.39990234375</ele>
        <time>2026-06-15T11:44:31.000Z</time>
        <extensions>
          <ns3:TrackPointExtension>
            <ns3:atemp>16.0</ns3:atemp>
          </ns3:TrackPointExtension>
        </extensions>
      </trkpt>
      <trkpt lat="42.5652182288467884063720703125" lon="20.05012317560613155364990234375">
        <ele>2161.800048828125</ele>
        <time>2026-06-15T11:44:32.000Z</time>
        <extensions>
          <ns3:TrackPointExtension>
            <ns3:atemp>16.0</ns3:atemp>
          </ns3:TrackPointExtension>
        </extensions>
      </trkpt>
      <trkpt lat="42.5652034766972064971923828125" lon="20.05014044232666492462158203125">
        <ele>2162.199951171875</ele>
        <time>2026-06-15T11:44:33.000Z</time>
        <extensions>
          <ns3:TrackPointExtension>
            <ns3:atemp>16.0</ns3:atemp>
          </ns3:TrackPointExtension>
        </extensions>
      </trkpt>
      <trkpt lat="42.565187551081180572509765625" lon="20.0501515902578830718994140625">
        <ele>2162.39990234375</ele>
        <time>2026-06-15T11:44:34.000Z</time>
        <extensions>
          <ns3:TrackPointExtension>
            <ns3:atemp>16.0</ns3:atemp>
          </ns3:TrackPointExtension>
        </extensions>
      </trkpt>
      <trkpt lat="42.565173469483852386474609375" lon="20.050158463418483734130859375">
        <ele>2162.39990234375</ele>
        <time>2026-06-15T11:44:35.000Z</time>
        <extensions>
          <ns3:TrackPointExtension>
            <ns3:atemp>16.0</ns3:atemp>
          </ns3:TrackPointExtension>
        </extensions>
      </trkpt>
      <trkpt lat="42.56516248919069766998291015625" lon="20.05016215145587921142578125">
        <ele>2162.60009765625</ele>
        <time>2026-06-15T11:44:36.000Z</time>
        <extensions>
          <ns3:TrackPointExtension>
            <ns3:atemp>16.0</ns3:atemp>
          </ns3:TrackPointExtension>
        </extensions>
      </trkpt>
      <trkpt lat="42.56514639593660831451416015625" lon="20.0501636601984500885009765625">
        <ele>2162.800048828125</ele>
        <time>2026-06-15T11:44:37.000Z</time>
        <extensions>
          <ns3:TrackPointExtension>
            <ns3:atemp>16.0</ns3:atemp>
          </ns3:TrackPointExtension>
        </extensions>
      </trkpt>
      <trkpt lat="42.5651303865015506744384765625" lon="20.0501703657209873199462890625">
        <ele>2162.800048828125</ele>
        <time>2026-06-15T11:44:38.000Z</time>
        <extensions>
          <ns3:TrackPointExtension>
            <ns3:atemp>16.0</ns3:atemp>
          </ns3:TrackPointExtension>
        </extensions>
      </trkpt>
      <trkpt lat="42.56511622108519077301025390625" lon="20.0501854531466960906982421875">
        <ele>2163</ele>
        <time>2026-06-15T11:44:39.000Z</time>
        <extensions>
          <ns3:TrackPointExtension>
            <ns3:atemp>16.0</ns3:atemp>
          </ns3:TrackPointExtension>
        </extensions>
      </trkpt>
      <trkpt lat="42.5651119463145732879638671875" lon="20.05020598880946636199951171875">
        <ele>2163</ele>
        <time>2026-06-15T11:44:40.000Z</time>
        <extensions>
          <ns3:TrackPointExtension>
            <ns3:atemp>16.0</ns3:atemp>
          </ns3:TrackPointExtension>
        </extensions>
      </trkpt>
      <trkpt lat="42.5651000440120697021484375" lon="20.0502203218638896942138671875">
        <ele>2163</ele>
        <time>2026-06-15T11:44:41.000Z</time>
        <extensions>
          <ns3:TrackPointExtension>
            <ns3:atemp>16.0</ns3:atemp>
          </ns3:TrackPointExtension>
        </extensions>
      </trkpt>
      <trkpt lat="42.5650878064334392547607421875" lon="20.0502233393490314483642578125">
        <ele>2163</ele>
        <time>2026-06-15T11:44:42.000Z</time>
        <extensions>
          <ns3:TrackPointExtension>
            <ns3:atemp>16.0</ns3:atemp>
          </ns3:TrackPointExtension>
        </extensions>
      </trkpt>
      <trkpt lat="42.56507523357868194580078125" lon="20.0502354092895984649658203125">
        <ele>2163</ele>
        <time>2026-06-15T11:44:43.000Z</time>
        <extensions>
          <ns3:TrackPointExtension>
            <ns3:atemp>16.0</ns3:atemp>
          </ns3:TrackPointExtension>
        </extensions>
      </trkpt>
      <trkpt lat="42.56506157107651233673095703125" lon="20.05024655722081661224365234375">
        <ele>2163.199951171875</ele>
        <time>2026-06-15T11:44:44.000Z</time>
        <extensions>
          <ns3:TrackPointExtension>
            <ns3:atemp>16.0</ns3:atemp>
          </ns3:TrackPointExtension>
        </extensions>
      </trkpt>
      <trkpt lat="42.56505402736365795135498046875" lon="20.05025577731430530548095703125">
        <ele>2163.199951171875</ele>
        <time>2026-06-15T11:44:45.000Z</time>
        <extensions>
          <ns3:TrackPointExtension>
            <ns3:atemp>16.0</ns3:atemp>
          </ns3:TrackPointExtension>
        </extensions>
      </trkpt>
      <trkpt lat="42.5650415383279323577880859375" lon="20.050271116197109222412109375">
        <ele>2163.60009765625</ele>
        <time>2026-06-15T11:44:46.000Z</time>
        <extensions>
          <ns3:TrackPointExtension>
            <ns3:atemp>16.0</ns3:atemp>
          </ns3:TrackPointExtension>
        </extensions>
      </trkpt>
      <trkpt lat="42.56503039039671421051025390625" lon="20.050283856689929962158203125">
        <ele>2164</ele>
        <time>2026-06-15T11:44:47.000Z</time>
        <extensions>
          <ns3:TrackPointExtension>
            <ns3:atemp>16.0</ns3:atemp>
          </ns3:TrackPointExtension>
        </extensions>
      </trkpt>
      <trkpt lat="42.56501832045614719390869140625" lon="20.0502964295446872711181640625">
        <ele>2164.199951171875</ele>
        <time>2026-06-15T11:44:48.000Z</time>
        <extensions>
          <ns3:TrackPointExtension>
            <ns3:atemp>16.0</ns3:atemp>
          </ns3:TrackPointExtension>
        </extensions>
      </trkpt>
      <trkpt lat="42.56500708870589733123779296875" lon="20.050309337675571441650390625">
        <ele>2164.60009765625</ele>
        <time>2026-06-15T11:44:49.000Z</time>
        <extensions>
          <ns3:TrackPointExtension>
            <ns3:atemp>16.0</ns3:atemp>
          </ns3:TrackPointExtension>
        </extensions>
      </trkpt>
      <trkpt lat="42.5649919174611568450927734375" lon="20.05032383836805820465087890625">
        <ele>2164.60009765625</ele>
        <time>2026-06-15T11:44:50.000Z</time>
        <extensions>
          <ns3:TrackPointExtension>
            <ns3:atemp>16.0</ns3:atemp>
          </ns3:TrackPointExtension>
        </extensions>
      </trkpt>
      <trkpt lat="42.56497909314930438995361328125" lon="20.05033507011830806732177734375">
        <ele>2164.60009765625</ele>
        <time>2026-06-15T11:44:51.000Z</time>
        <extensions>
          <ns3:TrackPointExtension>
            <ns3:atemp>16.0</ns3:atemp>
          </ns3:TrackPointExtension>
        </extensions>
      </trkpt>
      <trkpt lat="42.56496534682810306549072265625" lon="20.050348900258541107177734375">
        <ele>2164.60009765625</ele>
        <time>2026-06-15T11:44:52.000Z</time>
        <extensions>
          <ns3:TrackPointExtension>
            <ns3:atemp>16.0</ns3:atemp>
          </ns3:TrackPointExtension>
        </extensions>
      </trkpt>
      <trkpt lat="42.5649516843259334564208984375" lon="20.0503634847700595855712890625">
        <ele>2164.39990234375</ele>
        <time>2026-06-15T11:44:53.000Z</time>
        <extensions>
          <ns3:TrackPointExtension>
            <ns3:atemp>16.0</ns3:atemp>
          </ns3:TrackPointExtension>
        </extensions>
      </trkpt>
      <trkpt lat="42.5649382732808589935302734375" lon="20.05037681199610233306884765625">
        <ele>2164.199951171875</ele>
        <time>2026-06-15T11:44:54.000Z</time>
        <extensions>
          <ns3:TrackPointExtension>
            <ns3:atemp>16.0</ns3:atemp>
          </ns3:TrackPointExtension>
        </extensions>
      </trkpt>
      <trkpt lat="42.5649278797209262847900390625" lon="20.05039391107857227325439453125">
        <ele>2164.199951171875</ele>
        <time>2026-06-15T11:44:55.000Z</time>
        <extensions>
          <ns3:TrackPointExtension>
            <ns3:atemp>16.0</ns3:atemp>
          </ns3:TrackPointExtension>
        </extensions>
      </trkpt>
      <trkpt lat="42.56492310203611850738525390625" lon="20.0504176318645477294921875">
        <ele>2164.199951171875</ele>
        <time>2026-06-15T11:44:56.000Z</time>
        <extensions>
          <ns3:TrackPointExtension>
            <ns3:atemp>16.0</ns3:atemp>
          </ns3:TrackPointExtension>
        </extensions>
      </trkpt>
      <trkpt lat="42.5649272091686725616455078125" lon="20.0504382513463497161865234375">
        <ele>2164</ele>
        <time>2026-06-15T11:44:57.000Z</time>
        <extensions>
          <ns3:TrackPointExtension>
            <ns3:atemp>16.0</ns3:atemp>
          </ns3:TrackPointExtension>
        </extensions>
      </trkpt>
      <trkpt lat="42.564922012388706207275390625" lon="20.05046415142714977264404296875">
        <ele>2163.800048828125</ele>
        <time>2026-06-15T11:44:58.000Z</time>
        <extensions>
          <ns3:TrackPointExtension>
            <ns3:atemp>16.0</ns3:atemp>
          </ns3:TrackPointExtension>
        </extensions>
      </trkpt>
      <trkpt lat="42.5649084337055683135986328125" lon="20.05047194659709930419921875">
        <ele>2163.60009765625</ele>
        <time>2026-06-15T11:44:59.000Z</time>
        <extensions>
          <ns3:TrackPointExtension>
            <ns3:atemp>16.0</ns3:atemp>
          </ns3:TrackPointExtension>
        </extensions>
      </trkpt>
      <trkpt lat="42.56489577703177928924560546875" lon="20.05046733655035495758056640625">
        <ele>2163.39990234375</ele>
        <time>2026-06-15T11:45:00.000Z</time>
        <extensions>
          <ns3:TrackPointExtension>
            <ns3:atemp>16.0</ns3:atemp>
          </ns3:TrackPointExtension>
        </extensions>
      </trkpt>
      <trkpt lat="42.56489493884146213531494140625" lon="20.0504486449062824249267578125">
        <ele>2163.199951171875</ele>
        <time>2026-06-15T11:45:01.000Z</time>
        <extensions>
          <ns3:TrackPointExtension>
            <ns3:atemp>16.0</ns3:atemp>
          </ns3:TrackPointExtension>
        </extensions>
      </trkpt>
      <trkpt lat="42.5649007223546504974365234375" lon="20.0504278577864170074462890625">
        <ele>2163</ele>
        <time>2026-06-15T11:45:02.000Z</time>
        <extensions>
          <ns3:TrackPointExtension>
            <ns3:atemp>16.0</ns3:atemp>
          </ns3:TrackPointExtension>
        </extensions>
      </trkpt>
      <trkpt lat="42.56490801461040973663330078125" lon="20.05041268654167652130126953125">
        <ele>2162.800048828125</ele>
        <time>2026-06-15T11:45:03.000Z</time>
        <extensions>
          <ns3:TrackPointExtension>
            <ns3:atemp>16.0</ns3:atemp>
          </ns3:TrackPointExtension>
        </extensions>
      </trkpt>
      <trkpt lat="42.5649191625416278839111328125" lon="20.05039818584918975830078125">
        <ele>2162.800048828125</ele>
        <time>2026-06-15T11:45:04.000Z</time>
        <extensions>
          <ns3:TrackPointExtension>
            <ns3:atemp>16.0</ns3:atemp>
          </ns3:TrackPointExtension>
        </extensions>
      </trkpt>
      <trkpt lat="42.56492905318737030029296875" lon="20.0503886304795742034912109375">
        <ele>2162.800048828125</ele>
        <time>2026-06-15T11:45:05.000Z</time>
        <extensions>
          <ns3:TrackPointExtension>
            <ns3:atemp>16.0</ns3:atemp>
          </ns3:TrackPointExtension>
        </extensions>
      </trkpt>
      <trkpt lat="42.5649419613182544708251953125" lon="20.05037530325353145599365234375">
        <ele>2163</ele>
        <time>2026-06-15T11:45:06.000Z</time>
        <extensions>
          <ns3:TrackPointExtension>
            <ns3:atemp>16.0</ns3:atemp>
          </ns3:TrackPointExtension>
        </extensions>
      </trkpt>
      <trkpt lat="42.5649557076394557952880859375" lon="20.050350241363048553466796875">
        <ele>2163.199951171875</ele>
        <time>2026-06-15T11:45:07.000Z</time>
        <extensions>
          <ns3:TrackPointExtension>
            <ns3:atemp>16.0</ns3:atemp>
          </ns3:TrackPointExtension>
        </extensions>
      </trkpt>
      <trkpt lat="42.5649738125503063201904296875" lon="20.050315372645854949951171875">
        <ele>2163</ele>
        <time>2026-06-15T11:45:08.000Z</time>
        <extensions>
          <ns3:TrackPointExtension>
            <ns3:atemp>16.0</ns3:atemp>
          </ns3:TrackPointExtension>
        </extensions>
      </trkpt>
      <trkpt lat="42.5649902410805225372314453125" lon="20.05028544925153255462646484375">
        <ele>2163.199951171875</ele>
        <time>2026-06-15T11:45:09.000Z</time>
        <extensions>
          <ns3:TrackPointExtension>
            <ns3:atemp>16.0</ns3:atemp>
          </ns3:TrackPointExtension>
        </extensions>
      </trkpt>
      <trkpt lat="42.5650163926184177398681640625" lon="20.050259046256542205810546875">
        <ele>2163</ele>
        <time>2026-06-15T11:45:10.000Z</time>
        <extensions>
          <ns3:TrackPointExtension>
            <ns3:atemp>16.0</ns3:atemp>
          </ns3:TrackPointExtension>
        </extensions>
      </trkpt>
      <trkpt lat="42.56504732184112071990966796875" lon="20.05022644065320491790771484375">
        <ele>2163</ele>
        <time>2026-06-15T11:45:11.000Z</time>
        <extensions>
          <ns3:TrackPointExtension>
            <ns3:atemp>16.0</ns3:atemp>
          </ns3:TrackPointExtension>
        </extensions>
      </trkpt>
      <trkpt lat="42.56508688442409038543701171875" lon="20.0502052344381809234619140625">
        <ele>2162.60009765625</ele>
        <time>2026-06-15T11:45:12.000Z</time>
        <extensions>
          <ns3:TrackPointExtension>
            <ns3:atemp>16.0</ns3:atemp>
          </ns3:TrackPointExtension>
        </extensions>
      </trkpt>
      <trkpt lat="42.56513030268251895904541015625" lon="20.050181262195110321044921875">
        <ele>2162.39990234375</ele>
        <time>2026-06-15T11:45:13.000Z</time>
        <extensions>
          <ns3:TrackPointExtension>
            <ns3:atemp>16.0</ns3:atemp>
          </ns3:TrackPointExtension>
        </extensions>
      </trkpt>
      <trkpt lat="42.56518277339637279510498046875" lon="20.05015552975237369537353515625">
        <ele>2162</ele>
        <time>2026-06-15T11:45:14.000Z</time>
        <extensions>
          <ns3:TrackPointExtension>
            <ns3:atemp>16.0</ns3:atemp>
          </ns3:TrackPointExtension>
        </extensions>
      </trkpt>
      <trkpt lat="42.565231807529926300048828125" lon="20.050113536417484283447265625">
        <ele>2161.60009765625</ele>
        <time>2026-06-15T11:45:15.000Z</time>
        <extensions>
          <ns3:TrackPointExtension>
            <ns3:atemp>16.0</ns3:atemp>
          </ns3:TrackPointExtension>
        </extensions>
      </trkpt>
      <trkpt lat="42.56527463905513286590576171875" lon="20.05007305182516574859619140625">
        <ele>2161</ele>
        <time>2026-06-15T11:45:16.000Z</time>
        <extensions>
          <ns3:TrackPointExtension>
            <ns3:atemp>16.0</ns3:atemp>
          </ns3:TrackPointExtension>
        </extensions>
      </trkpt>
      <trkpt lat="42.5653038918972015380859375" lon="20.05002527497708797454833984375">
        <ele>2160.199951171875</ele>
        <time>2026-06-15T11:45:17.000Z</time>
        <extensions>
          <ns3:TrackPointExtension>
            <ns3:atemp>16.0</ns3:atemp>
          </ns3:TrackPointExtension>
        </extensions>
      </trkpt>
      <trkpt lat="42.5653168000280857086181640625" lon="20.04999644123017787933349609375">
        <ele>2159.800048828125</ele>
        <time>2026-06-15T11:45:18.000Z</time>
        <extensions>
          <ns3:TrackPointExtension>
            <ns3:atemp>16.0</ns3:atemp>
          </ns3:TrackPointExtension>
        </extensions>
      </trkpt>
      <trkpt lat="42.56531403400003910064697265625" lon="20.0499816052615642547607421875">
        <ele>2159.60009765625</ele>
        <time>2026-06-15T11:45:19.000Z</time>
        <extensions>
          <ns3:TrackPointExtension>
            <ns3:atemp>16.0</ns3:atemp>
          </ns3:TrackPointExtension>
        </extensions>
      </trkpt>
      <trkpt lat="42.56531252525746822357177734375" lon="20.04997665993869304656982421875">
        <ele>2159.39990234375</ele>
        <time>2026-06-15T11:45:20.000Z</time>
        <extensions>
          <ns3:TrackPointExtension>
            <ns3:atemp>16.0</ns3:atemp>
          </ns3:TrackPointExtension>
        </extensions>
      </trkpt>
      <trkpt lat="42.5653124414384365081787109375" lon="20.049976743757724761962890625">
        <ele>2159.199951171875</ele>
        <time>2026-06-15T11:45:21.000Z</time>
        <extensions>
          <ns3:TrackPointExtension>
            <ns3:atemp>16.0</ns3:atemp>
          </ns3:TrackPointExtension>
        </extensions>
      </trkpt>
      <trkpt lat="42.5653124414384365081787109375" lon="20.049976743757724761962890625">
        <ele>2159.199951171875</ele>
        <time>2026-06-15T11:45:22.000Z</time>
        <extensions>
          <ns3:TrackPointExtension>
            <ns3:atemp>16.0</ns3:atemp>
          </ns3:TrackPointExtension>
        </extensions>
      </trkpt>
      <trkpt lat="42.5653124414384365081787109375" lon="20.049976743757724761962890625">
        <ele>2159.199951171875</ele>
        <time>2026-06-15T11:45:23.000Z</time>
        <extensions>
          <ns3:TrackPointExtension>
            <ns3:atemp>16.0</ns3:atemp>
          </ns3:TrackPointExtension>
        </extensions>
      </trkpt>
      <trkpt lat="42.5653124414384365081787109375" lon="20.049976743757724761962890625">
        <ele>2159.39990234375</ele>
        <time>2026-06-15T11:45:24.000Z</time>
        <extensions>
          <ns3:TrackPointExtension>
            <ns3:atemp>16.0</ns3:atemp>
          </ns3:TrackPointExtension>
        </extensions>
      </trkpt>
      <trkpt lat="42.5653124414384365081787109375" lon="20.049976743757724761962890625">
        <ele>2159.39990234375</ele>
        <time>2026-06-15T11:45:25.000Z</time>
        <extensions>
          <ns3:TrackPointExtension>
            <ns3:atemp>16.0</ns3:atemp>
          </ns3:TrackPointExtension>
        </extensions>
      </trkpt>
      <trkpt lat="42.5653124414384365081787109375" lon="20.049976743757724761962890625">
        <ele>2159.39990234375</ele>
        <time>2026-06-15T11:45:26.000Z</time>
        <extensions>
          <ns3:TrackPointExtension>
            <ns3:atemp>16.0</ns3:atemp>
          </ns3:TrackPointExtension>
        </extensions>
      </trkpt>
      <trkpt lat="42.5653124414384365081787109375" lon="20.049976743757724761962890625">
        <ele>2159.60009765625</ele>
        <time>2026-06-15T11:45:27.000Z</time>
        <extensions>
          <ns3:TrackPointExtension>
            <ns3:atemp>16.0</ns3:atemp>
          </ns3:TrackPointExtension>
        </extensions>
      </trkpt>
      <trkpt lat="42.5653124414384365081787109375" lon="20.049976743757724761962890625">
        <ele>2159.60009765625</ele>
        <time>2026-06-15T11:45:28.000Z</time>
        <extensions>
          <ns3:TrackPointExtension>
            <ns3:atemp>16.0</ns3:atemp>
          </ns3:TrackPointExtension>
        </extensions>
      </trkpt>
      <trkpt lat="42.5653124414384365081787109375" lon="20.049976743757724761962890625">
        <ele>2159.60009765625</ele>
        <time>2026-06-15T11:45:29.000Z</time>
        <extensions>
          <ns3:TrackPointExtension>
            <ns3:atemp>16.0</ns3:atemp>
          </ns3:TrackPointExtension>
        </extensions>
      </trkpt>
      <trkpt lat="42.5653124414384365081787109375" lon="20.049976743757724761962890625">
        <ele>2159.60009765625</ele>
        <time>2026-06-15T11:45:30.000Z</time>
        <extensions>
          <ns3:TrackPointExtension>
            <ns3:atemp>16.0</ns3:atemp>
          </ns3:TrackPointExtension>
        </extensions>
      </trkpt>
      <trkpt lat="42.5653124414384365081787109375" lon="20.049976743757724761962890625">
        <ele>2159.60009765625</ele>
        <time>2026-06-15T11:45:31.000Z</time>
        <extensions>
          <ns3:TrackPointExtension>
            <ns3:atemp>16.0</ns3:atemp>
          </ns3:TrackPointExtension>
        </extensions>
      </trkpt>
      <trkpt lat="42.5653124414384365081787109375" lon="20.049976743757724761962890625">
        <ele>2159.60009765625</ele>
        <time>2026-06-15T11:45:32.000Z</time>
        <extensions>
          <ns3:TrackPointExtension>
            <ns3:atemp>16.0</ns3:atemp>
          </ns3:TrackPointExtension>
        </extensions>
      </trkpt>
      <trkpt lat="42.5653124414384365081787109375" lon="20.049976743757724761962890625">
        <ele>2159.60009765625</ele>
        <time>2026-06-15T11:45:33.000Z</time>
        <extensions>
          <ns3:TrackPointExtension>
            <ns3:atemp>16.0</ns3:atemp>
          </ns3:TrackPointExtension>
        </extensions>
      </trkpt>
      <trkpt lat="42.5653124414384365081787109375" lon="20.049976743757724761962890625">
        <ele>2159.60009765625</ele>
        <time>2026-06-15T11:45:34.000Z</time>
        <extensions>
          <ns3:TrackPointExtension>
            <ns3:atemp>16.0</ns3:atemp>
          </ns3:TrackPointExtension>
        </extensions>
      </trkpt>
      <trkpt lat="42.5653124414384365081787109375" lon="20.049976743757724761962890625">
        <ele>2159.60009765625</ele>
        <time>2026-06-15T11:45:35.000Z</time>
        <extensions>
          <ns3:TrackPointExtension>
            <ns3:atemp>16.0</ns3:atemp>
          </ns3:TrackPointExtension>
        </extensions>
      </trkpt>
      <trkpt lat="42.5653124414384365081787109375" lon="20.049976743757724761962890625">
        <ele>2159.60009765625</ele>
        <time>2026-06-15T11:45:36.000Z</time>
        <extensions>
          <ns3:TrackPointExtension>
            <ns3:atemp>16.0</ns3:atemp>
          </ns3:TrackPointExtension>
        </extensions>
      </trkpt>
      <trkpt lat="42.5653124414384365081787109375" lon="20.049976743757724761962890625">
        <ele>2159.60009765625</ele>
        <time>2026-06-15T11:45:37.000Z</time>
        <extensions>
          <ns3:TrackPointExtension>
            <ns3:atemp>16.0</ns3:atemp>
          </ns3:TrackPointExtension>
        </extensions>
      </trkpt>
      <trkpt lat="42.5653124414384365081787109375" lon="20.049976743757724761962890625">
        <ele>2159.60009765625</ele>
        <time>2026-06-15T11:45:38.000Z</time>
        <extensions>
          <ns3:TrackPointExtension>
            <ns3:atemp>16.0</ns3:atemp>
          </ns3:TrackPointExtension>
        </extensions>
      </trkpt>
      <trkpt lat="42.5653124414384365081787109375" lon="20.049976743757724761962890625">
        <ele>2159.60009765625</ele>
        <time>2026-06-15T11:45:39.000Z</time>
        <extensions>
          <ns3:TrackPointExtension>
            <ns3:atemp>16.0</ns3:atemp>
          </ns3:TrackPointExtension>
        </extensions>
      </trkpt>
      <trkpt lat="42.5653124414384365081787109375" lon="20.049976743757724761962890625">
        <ele>2159.60009765625</ele>
        <time>2026-06-15T11:45:40.000Z</time>
        <extensions>
          <ns3:TrackPointExtension>
            <ns3:atemp>16.0</ns3:atemp>
          </ns3:TrackPointExtension>
        </extensions>
      </trkpt>
      <trkpt lat="42.5653124414384365081787109375" lon="20.049976743757724761962890625">
        <ele>2159.60009765625</ele>
        <time>2026-06-15T11:45:41.000Z</time>
        <extensions>
          <ns3:TrackPointExtension>
            <ns3:atemp>16.0</ns3:atemp>
          </ns3:TrackPointExtension>
        </extensions>
      </trkpt>
      <trkpt lat="42.5653124414384365081787109375" lon="20.049976743757724761962890625">
        <ele>2159.39990234375</ele>
        <time>2026-06-15T11:45:42.000Z</time>
        <extensions>
          <ns3:TrackPointExtension>
            <ns3:atemp>16.0</ns3:atemp>
          </ns3:TrackPointExtension>
        </extensions>
      </trkpt>
      <trkpt lat="42.5653124414384365081787109375" lon="20.049976743757724761962890625">
        <ele>2159.39990234375</ele>
        <time>2026-06-15T11:45:43.000Z</time>
        <extensions>
          <ns3:TrackPointExtension>
            <ns3:atemp>16.0</ns3:atemp>
          </ns3:TrackPointExtension>
        </extensions>
      </trkpt>
      <trkpt lat="42.5653124414384365081787109375" lon="20.049976743757724761962890625">
        <ele>2159.39990234375</ele>
        <time>2026-06-15T11:45:44.000Z</time>
        <extensions>
          <ns3:TrackPointExtension>
            <ns3:atemp>16.0</ns3:atemp>
          </ns3:TrackPointExtension>
        </extensions>
      </trkpt>
      <trkpt lat="42.5653124414384365081787109375" lon="20.049976743757724761962890625">
        <ele>2159.39990234375</ele>
        <time>2026-06-15T11:45:45.000Z</time>
        <extensions>
          <ns3:TrackPointExtension>
            <ns3:atemp>16.0</ns3:atemp>
          </ns3:TrackPointExtension>
        </extensions>
      </trkpt>
      <trkpt lat="42.5653124414384365081787109375" lon="20.049976743757724761962890625">
        <ele>2159.39990234375</ele>
        <time>2026-06-15T11:45:46.000Z</time>
        <extensions>
          <ns3:TrackPointExtension>
            <ns3:atemp>16.0</ns3:atemp>
          </ns3:TrackPointExtension>
        </extensions>
      </trkpt>
      <trkpt lat="42.5653124414384365081787109375" lon="20.049976743757724761962890625">
        <ele>2159.39990234375</ele>
        <time>2026-06-15T11:45:47.000Z</time>
        <extensions>
          <ns3:TrackPointExtension>
            <ns3:atemp>16.0</ns3:atemp>
          </ns3:TrackPointExtension>
        </extensions>
      </trkpt>
      <trkpt lat="42.5653124414384365081787109375" lon="20.049976743757724761962890625">
        <ele>2159.39990234375</ele>
        <time>2026-06-15T11:45:48.000Z</time>
        <extensions>
          <ns3:TrackPointExtension>
            <ns3:atemp>16.0</ns3:atemp>
          </ns3:TrackPointExtension>
        </extensions>
      </trkpt>
      <trkpt lat="42.5653124414384365081787109375" lon="20.049976743757724761962890625">
        <ele>2159.199951171875</ele>
        <time>2026-06-15T11:45:49.000Z</time>
        <extensions>
          <ns3:TrackPointExtension>
            <ns3:atemp>16.0</ns3:atemp>
          </ns3:TrackPointExtension>
        </extensions>
      </trkpt>
      <trkpt lat="42.5653124414384365081787109375" lon="20.049976743757724761962890625">
        <ele>2159.199951171875</ele>
        <time>2026-06-15T11:45:50.000Z</time>
        <extensions>
          <ns3:TrackPointExtension>
            <ns3:atemp>16.0</ns3:atemp>
          </ns3:TrackPointExtension>
        </extensions>
      </trkpt>
      <trkpt lat="42.5653124414384365081787109375" lon="20.049976743757724761962890625">
        <ele>2159.199951171875</ele>
        <time>2026-06-15T11:45:51.000Z</time>
        <extensions>
          <ns3:TrackPointExtension>
            <ns3:atemp>16.0</ns3:atemp>
          </ns3:TrackPointExtension>
        </extensions>
      </trkpt>
      <trkpt lat="42.5653124414384365081787109375" lon="20.049976743757724761962890625">
        <ele>2159.199951171875</ele>
        <time>2026-06-15T11:45:52.000Z</time>
        <extensions>
          <ns3:TrackPointExtension>
            <ns3:atemp>16.0</ns3:atemp>
          </ns3:TrackPointExtension>
        </extensions>
      </trkpt>
      <trkpt lat="42.5653124414384365081787109375" lon="20.049976743757724761962890625">
        <ele>2159.199951171875</ele>
        <time>2026-06-15T11:45:53.000Z</time>
        <extensions>
          <ns3:TrackPointExtension>
            <ns3:atemp>16.0</ns3:atemp>
          </ns3:TrackPointExtension>
        </extensions>
      </trkpt>
      <trkpt lat="42.5653124414384365081787109375" lon="20.049976743757724761962890625">
        <ele>2159.199951171875</ele>
        <time>2026-06-15T11:45:54.000Z</time>
        <extensions>
          <ns3:TrackPointExtension>
            <ns3:atemp>16.0</ns3:atemp>
          </ns3:TrackPointExtension>
        </extensions>
      </trkpt>
      <trkpt lat="42.5653124414384365081787109375" lon="20.049976743757724761962890625">
        <ele>2159.39990234375</ele>
        <time>2026-06-15T11:45:55.000Z</time>
        <extensions>
          <ns3:TrackPointExtension>
            <ns3:atemp>16.0</ns3:atemp>
          </ns3:TrackPointExtension>
        </extensions>
      </trkpt>
      <trkpt lat="42.5653124414384365081787109375" lon="20.049976743757724761962890625">
        <ele>2159.39990234375</ele>
        <time>2026-06-15T11:45:56.000Z</time>
        <extensions>
          <ns3:TrackPointExtension>
            <ns3:atemp>16.0</ns3:atemp>
          </ns3:TrackPointExtension>
        </extensions>
      </trkpt>
      <trkpt lat="42.5653124414384365081787109375" lon="20.049976743757724761962890625">
        <ele>2159.60009765625</ele>
        <time>2026-06-15T11:45:57.000Z</time>
        <extensions>
          <ns3:TrackPointExtension>
            <ns3:atemp>16.0</ns3:atemp>
          </ns3:TrackPointExtension>
        </extensions>
      </trkpt>
      <trkpt lat="42.5653124414384365081787109375" lon="20.049976743757724761962890625">
        <ele>2159.60009765625</ele>
        <time>2026-06-15T11:45:58.000Z</time>
        <extensions>
          <ns3:TrackPointExtension>
            <ns3:atemp>16.0</ns3:atemp>
          </ns3:TrackPointExtension>
        </extensions>
      </trkpt>
      <trkpt lat="42.5653124414384365081787109375" lon="20.049976743757724761962890625">
        <ele>2159.800048828125</ele>
        <time>2026-06-15T11:45:59.000Z</time>
        <extensions>
          <ns3:TrackPointExtension>
            <ns3:atemp>16.0</ns3:atemp>
          </ns3:TrackPointExtension>
        </extensions>
      </trkpt>
      <trkpt lat="42.5653124414384365081787109375" lon="20.049976743757724761962890625">
        <ele>2160</ele>
        <time>2026-06-15T11:46:00.000Z</time>
        <extensions>
          <ns3:TrackPointExtension>
            <ns3:atemp>16.0</ns3:atemp>
          </ns3:TrackPointExtension>
        </extensions>
      </trkpt>
      <trkpt lat="42.5653124414384365081787109375" lon="20.049976743757724761962890625">
        <ele>2160.199951171875</ele>
        <time>2026-06-15T11:46:01.000Z</time>
        <extensions>
          <ns3:TrackPointExtension>
            <ns3:atemp>16.0</ns3:atemp>
          </ns3:TrackPointExtension>
        </extensions>
      </trkpt>
      <trkpt lat="42.5653124414384365081787109375" lon="20.049976743757724761962890625">
        <ele>2160.39990234375</ele>
        <time>2026-06-15T11:46:02.000Z</time>
        <extensions>
          <ns3:TrackPointExtension>
            <ns3:atemp>16.0</ns3:atemp>
          </ns3:TrackPointExtension>
        </extensions>
      </trkpt>
      <trkpt lat="42.5653124414384365081787109375" lon="20.049976743757724761962890625">
        <ele>2160.39990234375</ele>
        <time>2026-06-15T11:46:03.000Z</time>
        <extensions>
          <ns3:TrackPointExtension>
            <ns3:atemp>16.0</ns3:atemp>
          </ns3:TrackPointExtension>
        </extensions>
      </trkpt>
      <trkpt lat="42.5653124414384365081787109375" lon="20.049976743757724761962890625">
        <ele>2160.39990234375</ele>
        <time>2026-06-15T11:46:04.000Z</time>
        <extensions>
          <ns3:TrackPointExtension>
            <ns3:atemp>16.0</ns3:atemp>
          </ns3:TrackPointExtension>
        </extensions>
      </trkpt>
      <trkpt lat="42.5653124414384365081787109375" lon="20.049976743757724761962890625">
        <ele>2160.199951171875</ele>
        <time>2026-06-15T11:46:05.000Z</time>
        <extensions>
          <ns3:TrackPointExtension>
            <ns3:atemp>16.0</ns3:atemp>
          </ns3:TrackPointExtension>
        </extensions>
      </trkpt>
      <trkpt lat="42.5653124414384365081787109375" lon="20.049976743757724761962890625">
        <ele>2160</ele>
        <time>2026-06-15T11:46:06.000Z</time>
        <extensions>
          <ns3:TrackPointExtension>
            <ns3:atemp>16.0</ns3:atemp>
          </ns3:TrackPointExtension>
        </extensions>
      </trkpt>
      <trkpt lat="42.56531235761940479278564453125" lon="20.04997531883418560028076171875">
        <ele>2159.800048828125</ele>
        <time>2026-06-15T11:46:07.000Z</time>
        <extensions>
          <ns3:TrackPointExtension>
            <ns3:atemp>16.0</ns3:atemp>
          </ns3:TrackPointExtension>
        </extensions>
      </trkpt>
      <trkpt lat="42.5653124414384365081787109375" lon="20.049976743757724761962890625">
        <ele>2159.60009765625</ele>
        <time>2026-06-15T11:46:08.000Z</time>
        <extensions>
          <ns3:TrackPointExtension>
            <ns3:atemp>16.0</ns3:atemp>
          </ns3:TrackPointExtension>
        </extensions>
      </trkpt>
      <trkpt lat="42.5653124414384365081787109375" lon="20.049976743757724761962890625">
        <ele>2159.60009765625</ele>
        <time>2026-06-15T11:46:09.000Z</time>
        <extensions>
          <ns3:TrackPointExtension>
            <ns3:atemp>16.0</ns3:atemp>
          </ns3:TrackPointExtension>
        </extensions>
      </trkpt>
      <trkpt lat="42.5653124414384365081787109375" lon="20.049976743757724761962890625">
        <ele>2159.39990234375</ele>
        <time>2026-06-15T11:46:10.000Z</time>
        <extensions>
          <ns3:TrackPointExtension>
            <ns3:atemp>16.0</ns3:atemp>
          </ns3:TrackPointExtension>
        </extensions>
      </trkpt>
      <trkpt lat="42.5653124414384365081787109375" lon="20.049976743757724761962890625">
        <ele>2159.39990234375</ele>
        <time>2026-06-15T11:46:11.000Z</time>
        <extensions>
          <ns3:TrackPointExtension>
            <ns3:atemp>16.0</ns3:atemp>
          </ns3:TrackPointExtension>
        </extensions>
      </trkpt>
      <trkpt lat="42.5653124414384365081787109375" lon="20.049976743757724761962890625">
        <ele>2159.39990234375</ele>
        <time>2026-06-15T11:46:12.000Z</time>
        <extensions>
          <ns3:TrackPointExtension>
            <ns3:atemp>16.0</ns3:atemp>
          </ns3:TrackPointExtension>
        </extensions>
      </trkpt>
      <trkpt lat="42.5653124414384365081787109375" lon="20.049976743757724761962890625">
        <ele>2159.39990234375</ele>
        <time>2026-06-15T11:46:13.000Z</time>
        <extensions>
          <ns3:TrackPointExtension>
            <ns3:atemp>16.0</ns3:atemp>
          </ns3:TrackPointExtension>
        </extensions>
      </trkpt>
      <trkpt lat="42.5653124414384365081787109375" lon="20.049976743757724761962890625">
        <ele>2159.39990234375</ele>
        <time>2026-06-15T11:46:14.000Z</time>
        <extensions>
          <ns3:TrackPointExtension>
            <ns3:atemp>16.0</ns3:atemp>
          </ns3:TrackPointExtension>
        </extensions>
      </trkpt>
      <trkpt lat="42.5653124414384365081787109375" lon="20.049976743757724761962890625">
        <ele>2159.39990234375</ele>
        <time>2026-06-15T11:46:15.000Z</time>
        <extensions>
          <ns3:TrackPointExtension>
            <ns3:atemp>16.0</ns3:atemp>
          </ns3:TrackPointExtension>
        </extensions>
      </trkpt>
      <trkpt lat="42.5653124414384365081787109375" lon="20.049976743757724761962890625">
        <ele>2159.39990234375</ele>
        <time>2026-06-15T11:46:16.000Z</time>
        <extensions>
          <ns3:TrackPointExtension>
            <ns3:atemp>16.0</ns3:atemp>
          </ns3:TrackPointExtension>
        </extensions>
      </trkpt>
      <trkpt lat="42.5653124414384365081787109375" lon="20.049976743757724761962890625">
        <ele>2159.39990234375</ele>
        <time>2026-06-15T11:46:17.000Z</time>
        <extensions>
          <ns3:TrackPointExtension>
            <ns3:atemp>16.0</ns3:atemp>
          </ns3:TrackPointExtension>
        </extensions>
      </trkpt>
      <trkpt lat="42.5653124414384365081787109375" lon="20.049976743757724761962890625">
        <ele>2159.39990234375</ele>
        <time>2026-06-15T11:46:18.000Z</time>
        <extensions>
          <ns3:TrackPointExtension>
            <ns3:atemp>16.0</ns3:atemp>
          </ns3:TrackPointExtension>
        </extensions>
      </trkpt>
      <trkpt lat="42.5653124414384365081787109375" lon="20.049976743757724761962890625">
        <ele>2159.39990234375</ele>
        <time>2026-06-15T11:46:19.000Z</time>
        <extensions>
          <ns3:TrackPointExtension>
            <ns3:atemp>16.0</ns3:atemp>
          </ns3:TrackPointExtension>
        </extensions>
      </trkpt>
      <trkpt lat="42.5653124414384365081787109375" lon="20.049976743757724761962890625">
        <ele>2159.60009765625</ele>
        <time>2026-06-15T11:46:20.000Z</time>
        <extensions>
          <ns3:TrackPointExtension>
            <ns3:atemp>16.0</ns3:atemp>
          </ns3:TrackPointExtension>
        </extensions>
      </trkpt>
      <trkpt lat="42.56531051360070705413818359375" lon="20.049975402653217315673828125">
        <ele>2159.60009765625</ele>
        <time>2026-06-15T11:46:21.000Z</time>
        <extensions>
          <ns3:TrackPointExtension>
            <ns3:atemp>16.0</ns3:atemp>
          </ns3:TrackPointExtension>
        </extensions>
      </trkpt>
      <trkpt lat="42.565303556621074676513671875" lon="20.049976743757724761962890625">
        <ele>2159.800048828125</ele>
        <time>2026-06-15T11:46:22.000Z</time>
        <extensions>
          <ns3:TrackPointExtension>
            <ns3:atemp>16.0</ns3:atemp>
          </ns3:TrackPointExtension>
        </extensions>
      </trkpt>
      <trkpt lat="42.5653124414384365081787109375" lon="20.049976743757724761962890625">
        <ele>2159.800048828125</ele>
        <time>2026-06-15T11:46:23.000Z</time>
        <extensions>
          <ns3:TrackPointExtension>
            <ns3:atemp>16.0</ns3:atemp>
          </ns3:TrackPointExtension>
        </extensions>
      </trkpt>
      <trkpt lat="42.5653124414384365081787109375" lon="20.049976743757724761962890625">
        <ele>2159.800048828125</ele>
        <time>2026-06-15T11:46:24.000Z</time>
        <extensions>
          <ns3:TrackPointExtension>
            <ns3:atemp>16.0</ns3:atemp>
          </ns3:TrackPointExtension>
        </extensions>
      </trkpt>
      <trkpt lat="42.5653124414384365081787109375" lon="20.049976743757724761962890625">
        <ele>2160</ele>
        <time>2026-06-15T11:46:25.000Z</time>
        <extensions>
          <ns3:TrackPointExtension>
            <ns3:atemp>16.0</ns3:atemp>
          </ns3:TrackPointExtension>
        </extensions>
      </trkpt>
      <trkpt lat="42.5653124414384365081787109375" lon="20.049976743757724761962890625">
        <ele>2160</ele>
        <time>2026-06-15T11:46:26.000Z</time>
        <extensions>
          <ns3:TrackPointExtension>
            <ns3:atemp>16.0</ns3:atemp>
          </ns3:TrackPointExtension>
        </extensions>
      </trkpt>
      <trkpt lat="42.5653124414384365081787109375" lon="20.049976743757724761962890625">
        <ele>2159.800048828125</ele>
        <time>2026-06-15T11:46:27.000Z</time>
        <extensions>
          <ns3:TrackPointExtension>
            <ns3:atemp>16.0</ns3:atemp>
          </ns3:TrackPointExtension>
        </extensions>
      </trkpt>
      <trkpt lat="42.5653124414384365081787109375" lon="20.049976743757724761962890625">
        <ele>2159.800048828125</ele>
        <time>2026-06-15T11:46:28.000Z</time>
        <extensions>
          <ns3:TrackPointExtension>
            <ns3:atemp>16.0</ns3:atemp>
          </ns3:TrackPointExtension>
        </extensions>
      </trkpt>
      <trkpt lat="42.5653124414384365081787109375" lon="20.049976743757724761962890625">
        <ele>2159.800048828125</ele>
        <time>2026-06-15T11:46:29.000Z</time>
        <extensions>
          <ns3:TrackPointExtension>
            <ns3:atemp>16.0</ns3:atemp>
          </ns3:TrackPointExtension>
        </extensions>
      </trkpt>
      <trkpt lat="42.5653124414384365081787109375" lon="20.049976743757724761962890625">
        <ele>2159.800048828125</ele>
        <time>2026-06-15T11:46:30.000Z</time>
        <extensions>
          <ns3:TrackPointExtension>
            <ns3:atemp>16.0</ns3:atemp>
          </ns3:TrackPointExtension>
        </extensions>
      </trkpt>
      <trkpt lat="42.5653124414384365081787109375" lon="20.049976743757724761962890625">
        <ele>2159.60009765625</ele>
        <time>2026-06-15T11:46:31.000Z</time>
        <extensions>
          <ns3:TrackPointExtension>
            <ns3:atemp>16.0</ns3:atemp>
          </ns3:TrackPointExtension>
        </extensions>
      </trkpt>
      <trkpt lat="42.5653124414384365081787109375" lon="20.049976743757724761962890625">
        <ele>2159.39990234375</ele>
        <time>2026-06-15T11:46:32.000Z</time>
        <extensions>
          <ns3:TrackPointExtension>
            <ns3:atemp>16.0</ns3:atemp>
          </ns3:TrackPointExtension>
        </extensions>
      </trkpt>
      <trkpt lat="42.5653124414384365081787109375" lon="20.049976743757724761962890625">
        <ele>2159.39990234375</ele>
        <time>2026-06-15T11:46:33.000Z</time>
        <extensions>
          <ns3:TrackPointExtension>
            <ns3:atemp>16.0</ns3:atemp>
          </ns3:TrackPointExtension>
        </extensions>
      </trkpt>
      <trkpt lat="42.5653124414384365081787109375" lon="20.049976743757724761962890625">
        <ele>2159.199951171875</ele>
        <time>2026-06-15T11:46:34.000Z</time>
        <extensions>
          <ns3:TrackPointExtension>
            <ns3:atemp>16.0</ns3:atemp>
          </ns3:TrackPointExtension>
        </extensions>
      </trkpt>
      <trkpt lat="42.5653124414384365081787109375" lon="20.049976743757724761962890625">
        <ele>2159.199951171875</ele>
        <time>2026-06-15T11:46:35.000Z</time>
        <extensions>
          <ns3:TrackPointExtension>
            <ns3:atemp>16.0</ns3:atemp>
          </ns3:TrackPointExtension>
        </extensions>
      </trkpt>
      <trkpt lat="42.5653124414384365081787109375" lon="20.049976743757724761962890625">
        <ele>2159.199951171875</ele>
        <time>2026-06-15T11:46:36.000Z</time>
        <extensions>
          <ns3:TrackPointExtension>
            <ns3:atemp>16.0</ns3:atemp>
          </ns3:TrackPointExtension>
        </extensions>
      </trkpt>
      <trkpt lat="42.5653124414384365081787109375" lon="20.049976743757724761962890625">
        <ele>2159.199951171875</ele>
        <time>2026-06-15T11:46:37.000Z</time>
        <extensions>
          <ns3:TrackPointExtension>
            <ns3:atemp>16.0</ns3:atemp>
          </ns3:TrackPointExtension>
        </extensions>
      </trkpt>
      <trkpt lat="42.5653124414384365081787109375" lon="20.049976743757724761962890625">
        <ele>2159.199951171875</ele>
        <time>2026-06-15T11:46:38.000Z</time>
        <extensions>
          <ns3:TrackPointExtension>
            <ns3:atemp>16.0</ns3:atemp>
          </ns3:TrackPointExtension>
        </extensions>
      </trkpt>
      <trkpt lat="42.5653124414384365081787109375" lon="20.049976743757724761962890625">
        <ele>2159</ele>
        <time>2026-06-15T11:46:39.000Z</time>
        <extensions>
          <ns3:TrackPointExtension>
            <ns3:atemp>16.0</ns3:atemp>
          </ns3:TrackPointExtension>
        </extensions>
      </trkpt>
      <trkpt lat="42.5653124414384365081787109375" lon="20.049976743757724761962890625">
        <ele>2159</ele>
        <time>2026-06-15T11:46:40.000Z</time>
        <extensions>
          <ns3:TrackPointExtension>
            <ns3:atemp>16.0</ns3:atemp>
          </ns3:TrackPointExtension>
        </extensions>
      </trkpt>
      <trkpt lat="42.5653124414384365081787109375" lon="20.049976743757724761962890625">
        <ele>2159</ele>
        <time>2026-06-15T11:46:41.000Z</time>
        <extensions>
          <ns3:TrackPointExtension>
            <ns3:atemp>16.0</ns3:atemp>
          </ns3:TrackPointExtension>
        </extensions>
      </trkpt>
      <trkpt lat="42.5653124414384365081787109375" lon="20.049976743757724761962890625">
        <ele>2159</ele>
        <time>2026-06-15T11:46:42.000Z</time>
        <extensions>
          <ns3:TrackPointExtension>
            <ns3:atemp>16.0</ns3:atemp>
          </ns3:TrackPointExtension>
        </extensions>
      </trkpt>
      <trkpt lat="42.5653124414384365081787109375" lon="20.049976743757724761962890625">
        <ele>2159</ele>
        <time>2026-06-15T11:46:43.000Z</time>
        <extensions>
          <ns3:TrackPointExtension>
            <ns3:atemp>16.0</ns3:atemp>
          </ns3:TrackPointExtension>
        </extensions>
      </trkpt>
      <trkpt lat="42.5653124414384365081787109375" lon="20.049976743757724761962890625">
        <ele>2159.199951171875</ele>
        <time>2026-06-15T11:46:44.000Z</time>
        <extensions>
          <ns3:TrackPointExtension>
            <ns3:atemp>16.0</ns3:atemp>
          </ns3:TrackPointExtension>
        </extensions>
      </trkpt>
      <trkpt lat="42.56530263461172580718994140625" lon="20.04997548647224903106689453125">
        <ele>2159.199951171875</ele>
        <time>2026-06-15T11:46:45.000Z</time>
        <extensions>
          <ns3:TrackPointExtension>
            <ns3:atemp>16.0</ns3:atemp>
          </ns3:TrackPointExtension>
        </extensions>
      </trkpt>
      <trkpt lat="42.56528771482408046722412109375" lon="20.0499678589403629302978515625">
        <ele>2159.199951171875</ele>
        <time>2026-06-15T11:46:46.000Z</time>
        <extensions>
          <ns3:TrackPointExtension>
            <ns3:atemp>16.0</ns3:atemp>
          </ns3:TrackPointExtension>
        </extensions>
      </trkpt>
      <trkpt lat="42.5652826018631458282470703125" lon="20.049965679645538330078125">
        <ele>2159.199951171875</ele>
        <time>2026-06-15T11:46:47.000Z</time>
        <extensions>
          <ns3:TrackPointExtension>
            <ns3:atemp>16.0</ns3:atemp>
          </ns3:TrackPointExtension>
        </extensions>
      </trkpt>
      <trkpt lat="42.5652836076915264129638671875" lon="20.04996341653168201446533203125">
        <ele>2159.199951171875</ele>
        <time>2026-06-15T11:46:48.000Z</time>
        <extensions>
          <ns3:TrackPointExtension>
            <ns3:atemp>16.0</ns3:atemp>
          </ns3:TrackPointExtension>
        </extensions>
      </trkpt>
      <trkpt lat="42.5652836076915264129638671875" lon="20.04996341653168201446533203125">
        <ele>2159</ele>
        <time>2026-06-15T11:46:49.000Z</time>
        <extensions>
          <ns3:TrackPointExtension>
            <ns3:atemp>16.0</ns3:atemp>
          </ns3:TrackPointExtension>
        </extensions>
      </trkpt>
      <trkpt lat="42.5652836076915264129638671875" lon="20.04996341653168201446533203125">
        <ele>2159</ele>
        <time>2026-06-15T11:46:50.000Z</time>
        <extensions>
          <ns3:TrackPointExtension>
            <ns3:atemp>16.0</ns3:atemp>
          </ns3:TrackPointExtension>
        </extensions>
      </trkpt>
      <trkpt lat="42.56528369151055812835693359375" lon="20.04996341653168201446533203125">
        <ele>2159</ele>
        <time>2026-06-15T11:46:51.000Z</time>
        <extensions>
          <ns3:TrackPointExtension>
            <ns3:atemp>16.0</ns3:atemp>
          </ns3:TrackPointExtension>
        </extensions>
      </trkpt>
      <trkpt lat="42.5652738846838474273681640625" lon="20.04996341653168201446533203125">
        <ele>2159</ele>
        <time>2026-06-15T11:46:52.000Z</time>
        <extensions>
          <ns3:TrackPointExtension>
            <ns3:atemp>16.0</ns3:atemp>
          </ns3:TrackPointExtension>
        </extensions>
      </trkpt>
      <trkpt lat="42.5652587972581386566162109375" lon="20.04996366798877716064453125">
        <ele>2159</ele>
        <time>2026-06-15T11:46:53.000Z</time>
        <extensions>
          <ns3:TrackPointExtension>
            <ns3:atemp>16.0</ns3:atemp>
          </ns3:TrackPointExtension>
        </extensions>
      </trkpt>
      <trkpt lat="42.5652395188808441162109375" lon="20.04996635019779205322265625">
        <ele>2159</ele>
        <time>2026-06-15T11:46:54.000Z</time>
        <extensions>
          <ns3:TrackPointExtension>
            <ns3:atemp>16.0</ns3:atemp>
          </ns3:TrackPointExtension>
        </extensions>
      </trkpt>
      <trkpt lat="42.56521428935229778289794921875" lon="20.04996894858777523040771484375">
        <ele>2159</ele>
        <time>2026-06-15T11:46:55.000Z</time>
        <extensions>
          <ns3:TrackPointExtension>
            <ns3:atemp>16.0</ns3:atemp>
          </ns3:TrackPointExtension>
        </extensions>
      </trkpt>
      <trkpt lat="42.56517958827316761016845703125" lon="20.04996844567358493804931640625">
        <ele>2158.800048828125</ele>
        <time>2026-06-15T11:46:56.000Z</time>
        <extensions>
          <ns3:TrackPointExtension>
            <ns3:atemp>16.0</ns3:atemp>
          </ns3:TrackPointExtension>
        </extensions>
      </trkpt>
      <trkpt lat="42.56514631211757659912109375" lon="20.04997171461582183837890625">
        <ele>2158.60009765625</ele>
        <time>2026-06-15T11:46:57.000Z</time>
        <extensions>
          <ns3:TrackPointExtension>
            <ns3:atemp>16.0</ns3:atemp>
          </ns3:TrackPointExtension>
        </extensions>
      </trkpt>
      <trkpt lat="42.565115801990032196044921875" lon="20.0499777495861053466796875">
        <ele>2158.39990234375</ele>
        <time>2026-06-15T11:46:58.000Z</time>
        <extensions>
          <ns3:TrackPointExtension>
            <ns3:atemp>16.0</ns3:atemp>
          </ns3:TrackPointExtension>
        </extensions>
      </trkpt>
      <trkpt lat="42.5650878064334392547607421875" lon="20.04998303018510341644287109375">
        <ele>2158.199951171875</ele>
        <time>2026-06-15T11:46:59.000Z</time>
        <extensions>
          <ns3:TrackPointExtension>
            <ns3:atemp>16.0</ns3:atemp>
          </ns3:TrackPointExtension>
        </extensions>
      </trkpt>
      <trkpt lat="42.5650690309703350067138671875" lon="20.04998981952667236328125">
        <ele>2158</ele>
        <time>2026-06-15T11:47:00.000Z</time>
        <extensions>
          <ns3:TrackPointExtension>
            <ns3:atemp>16.0</ns3:atemp>
          </ns3:TrackPointExtension>
        </extensions>
      </trkpt>
      <trkpt lat="42.5650532729923725128173828125" lon="20.05000029690563678741455078125">
        <ele>2157.800048828125</ele>
        <time>2026-06-15T11:47:01.000Z</time>
        <extensions>
          <ns3:TrackPointExtension>
            <ns3:atemp>16.0</ns3:atemp>
          </ns3:TrackPointExtension>
        </extensions>
      </trkpt>
      <trkpt lat="42.5650438852608203887939453125" lon="20.0500134564936161041259765625">
        <ele>2157.60009765625</ele>
        <time>2026-06-15T11:47:02.000Z</time>
        <extensions>
          <ns3:TrackPointExtension>
            <ns3:atemp>16.0</ns3:atemp>
          </ns3:TrackPointExtension>
        </extensions>
      </trkpt>
      <trkpt lat="42.5650303065776824951171875" lon="20.05001873709261417388916015625">
        <ele>2157.60009765625</ele>
        <time>2026-06-15T11:47:03.000Z</time>
        <extensions>
          <ns3:TrackPointExtension>
            <ns3:atemp>16.0</ns3:atemp>
          </ns3:TrackPointExtension>
        </extensions>
      </trkpt>
      <trkpt lat="42.565018236637115478515625" lon="20.05001731216907501220703125">
        <ele>2157.39990234375</ele>
        <time>2026-06-15T11:47:04.000Z</time>
        <extensions>
          <ns3:TrackPointExtension>
            <ns3:atemp>16.0</ns3:atemp>
          </ns3:TrackPointExtension>
        </extensions>
      </trkpt>
      <trkpt lat="42.56499753333628177642822265625" lon="20.05001974292099475860595703125">
        <ele>2157.199951171875</ele>
        <time>2026-06-15T11:47:05.000Z</time>
        <extensions>
          <ns3:TrackPointExtension>
            <ns3:atemp>16.0</ns3:atemp>
          </ns3:TrackPointExtension>
        </extensions>
      </trkpt>
      <trkpt lat="42.56497322581708431243896484375" lon="20.05003206431865692138671875">
        <ele>2157</ele>
        <time>2026-06-15T11:47:06.000Z</time>
        <extensions>
          <ns3:TrackPointExtension>
            <ns3:atemp>16.0</ns3:atemp>
          </ns3:TrackPointExtension>
        </extensions>
      </trkpt>
      <trkpt lat="42.5649523548781871795654296875" lon="20.0500446371734142303466796875">
        <ele>2157</ele>
        <time>2026-06-15T11:47:07.000Z</time>
        <extensions>
          <ns3:TrackPointExtension>
            <ns3:atemp>16.0</ns3:atemp>
          </ns3:TrackPointExtension>
        </extensions>
      </trkpt>
      <trkpt lat="42.5649285502731800079345703125" lon="20.050059221684932708740234375">
        <ele>2156.800048828125</ele>
        <time>2026-06-15T11:47:08.000Z</time>
        <extensions>
          <ns3:TrackPointExtension>
            <ns3:atemp>16.0</ns3:atemp>
          </ns3:TrackPointExtension>
        </extensions>
      </trkpt>
      <trkpt lat="42.56490734405815601348876953125" lon="20.0500785000622272491455078125">
        <ele>2156.800048828125</ele>
        <time>2026-06-15T11:47:09.000Z</time>
        <extensions>
          <ns3:TrackPointExtension>
            <ns3:atemp>16.0</ns3:atemp>
          </ns3:TrackPointExtension>
        </extensions>
      </trkpt>
      <trkpt lat="42.56488270126283168792724609375" lon="20.05009283311665058135986328125">
        <ele>2156.800048828125</ele>
        <time>2026-06-15T11:47:10.000Z</time>
        <extensions>
          <ns3:TrackPointExtension>
            <ns3:atemp>16.0</ns3:atemp>
          </ns3:TrackPointExtension>
        </extensions>
      </trkpt>
      <trkpt lat="42.56486023776233196258544921875" lon="20.05010456778109073638916015625">
        <ele>2156.60009765625</ele>
        <time>2026-06-15T11:47:11.000Z</time>
        <extensions>
          <ns3:TrackPointExtension>
            <ns3:atemp>16.0</ns3:atemp>
          </ns3:TrackPointExtension>
        </extensions>
      </trkpt>
      <trkpt lat="42.56484129466116428375244140625" lon="20.05011630244553089141845703125">
        <ele>2156.39990234375</ele>
        <time>2026-06-15T11:47:12.000Z</time>
        <extensions>
          <ns3:TrackPointExtension>
            <ns3:atemp>16.0</ns3:atemp>
          </ns3:TrackPointExtension>
        </extensions>
      </trkpt>
      <trkpt lat="42.56482738070189952850341796875" lon="20.05012585781514644622802734375">
        <ele>2156.199951171875</ele>
        <time>2026-06-15T11:47:13.000Z</time>
        <extensions>
          <ns3:TrackPointExtension>
            <ns3:atemp>16.0</ns3:atemp>
          </ns3:TrackPointExtension>
        </extensions>
      </trkpt>
      <trkpt lat="42.5648078508675098419189453125" lon="20.05013708956539630889892578125">
        <ele>2156</ele>
        <time>2026-06-15T11:47:14.000Z</time>
        <extensions>
          <ns3:TrackPointExtension>
            <ns3:atemp>16.0</ns3:atemp>
          </ns3:TrackPointExtension>
        </extensions>
      </trkpt>
      <trkpt lat="42.56478547118604183197021484375" lon="20.05015435628592967987060546875">
        <ele>2155.800048828125</ele>
        <time>2026-06-15T11:47:15.000Z</time>
        <extensions>
          <ns3:TrackPointExtension>
            <ns3:atemp>16.0</ns3:atemp>
          </ns3:TrackPointExtension>
        </extensions>
      </trkpt>
      <trkpt lat="42.564757727086544036865234375" lon="20.05018235184252262115478515625">
        <ele>2155.800048828125</ele>
        <time>2026-06-15T11:47:16.000Z</time>
        <extensions>
          <ns3:TrackPointExtension>
            <ns3:atemp>16.0</ns3:atemp>
          </ns3:TrackPointExtension>
        </extensions>
      </trkpt>
      <trkpt lat="42.56472922861576080322265625" lon="20.0502069108188152313232421875">
        <ele>2155.60009765625</ele>
        <time>2026-06-15T11:47:17.000Z</time>
        <extensions>
          <ns3:TrackPointExtension>
            <ns3:atemp>16.0</ns3:atemp>
          </ns3:TrackPointExtension>
        </extensions>
      </trkpt>
      <trkpt lat="42.564700059592723846435546875" lon="20.05023515783250331878662109375">
        <ele>2155.39990234375</ele>
        <time>2026-06-15T11:47:18.000Z</time>
        <extensions>
          <ns3:TrackPointExtension>
            <ns3:atemp>16.0</ns3:atemp>
          </ns3:TrackPointExtension>
        </extensions>
      </trkpt>
      <trkpt lat="42.56467734463512897491455078125" lon="20.0502568669617176055908203125">
        <ele>2155.199951171875</ele>
        <time>2026-06-15T11:47:19.000Z</time>
        <extensions>
          <ns3:TrackPointExtension>
            <ns3:atemp>16.0</ns3:atemp>
          </ns3:TrackPointExtension>
        </extensions>
      </trkpt>
      <trkpt lat="42.56465957500040531158447265625" lon="20.0502816773951053619384765625">
        <ele>2155</ele>
        <time>2026-06-15T11:47:20.000Z</time>
        <extensions>
          <ns3:TrackPointExtension>
            <ns3:atemp>16.0</ns3:atemp>
          </ns3:TrackPointExtension>
        </extensions>
      </trkpt>
      <trkpt lat="42.564643733203411102294921875" lon="20.050304643809795379638671875">
        <ele>2154.800048828125</ele>
        <time>2026-06-15T11:47:21.000Z</time>
        <extensions>
          <ns3:TrackPointExtension>
            <ns3:atemp>16.0</ns3:atemp>
          </ns3:TrackPointExtension>
        </extensions>
      </trkpt>
      <trkpt lat="42.56462864577770233154296875" lon="20.0503343157470226287841796875">
        <ele>2154.60009765625</ele>
        <time>2026-06-15T11:47:22.000Z</time>
        <extensions>
          <ns3:TrackPointExtension>
            <ns3:atemp>16.0</ns3:atemp>
          </ns3:TrackPointExtension>
        </extensions>
      </trkpt>
      <trkpt lat="42.564619593322277069091796875" lon="20.05036692135035991668701171875">
        <ele>2154.39990234375</ele>
        <time>2026-06-15T11:47:23.000Z</time>
        <extensions>
          <ns3:TrackPointExtension>
            <ns3:atemp>16.0</ns3:atemp>
          </ns3:TrackPointExtension>
        </extensions>
      </trkpt>
      <trkpt lat="42.56460526026785373687744140625" lon="20.05039726383984088897705078125">
        <ele>2154.199951171875</ele>
        <time>2026-06-15T11:47:24.000Z</time>
        <extensions>
          <ns3:TrackPointExtension>
            <ns3:atemp>16.0</ns3:atemp>
          </ns3:TrackPointExtension>
        </extensions>
      </trkpt>
      <trkpt lat="42.5645936094224452972412109375" lon="20.05042743869125843048095703125">
        <ele>2153.800048828125</ele>
        <time>2026-06-15T11:47:25.000Z</time>
        <extensions>
          <ns3:TrackPointExtension>
            <ns3:atemp>16.0</ns3:atemp>
          </ns3:TrackPointExtension>
        </extensions>
      </trkpt>
      <trkpt lat="42.5645825453102588653564453125" lon="20.0504498183727264404296875">
        <ele>2153.60009765625</ele>
        <time>2026-06-15T11:47:26.000Z</time>
        <extensions>
          <ns3:TrackPointExtension>
            <ns3:atemp>16.0</ns3:atemp>
          </ns3:TrackPointExtension>
        </extensions>
      </trkpt>
      <trkpt lat="42.56457340903580188751220703125" lon="20.05047840066254138946533203125">
        <ele>2153.39990234375</ele>
        <time>2026-06-15T11:47:27.000Z</time>
        <extensions>
          <ns3:TrackPointExtension>
            <ns3:atemp>16.0</ns3:atemp>
          </ns3:TrackPointExtension>
        </extensions>
      </trkpt>
      <trkpt lat="42.5645637698471546173095703125" lon="20.0505136884748935699462890625">
        <ele>2153.199951171875</ele>
        <time>2026-06-15T11:47:28.000Z</time>
        <extensions>
          <ns3:TrackPointExtension>
            <ns3:atemp>16.0</ns3:atemp>
          </ns3:TrackPointExtension>
        </extensions>
      </trkpt>
      <trkpt lat="42.564547173678874969482421875" lon="20.05054864101111888885498046875">
        <ele>2153</ele>
        <time>2026-06-15T11:47:29.000Z</time>
        <extensions>
          <ns3:TrackPointExtension>
            <ns3:atemp>16.0</ns3:atemp>
          </ns3:TrackPointExtension>
        </extensions>
      </trkpt>
      <trkpt lat="42.564535103738307952880859375" lon="20.0505747087299823760986328125">
        <ele>2152.60009765625</ele>
        <time>2026-06-15T11:47:30.000Z</time>
        <extensions>
          <ns3:TrackPointExtension>
            <ns3:atemp>16.0</ns3:atemp>
          </ns3:TrackPointExtension>
        </extensions>
      </trkpt>
      <trkpt lat="42.56452948786318302154541015625" lon="20.05057529546320438385009765625">
        <ele>2152.39990234375</ele>
        <time>2026-06-15T11:47:31.000Z</time>
        <extensions>
          <ns3:TrackPointExtension>
            <ns3:atemp>16.0</ns3:atemp>
          </ns3:TrackPointExtension>
        </extensions>
      </trkpt>
      <trkpt lat="42.56452747620642185211181640625" lon="20.05056875757873058319091796875">
        <ele>2152.39990234375</ele>
        <time>2026-06-15T11:47:32.000Z</time>
        <extensions>
          <ns3:TrackPointExtension>
            <ns3:atemp>16.0</ns3:atemp>
          </ns3:TrackPointExtension>
        </extensions>
      </trkpt>
      <trkpt lat="42.56452739238739013671875" lon="20.050568841397762298583984375">
        <ele>2152.199951171875</ele>
        <time>2026-06-15T11:47:33.000Z</time>
        <extensions>
          <ns3:TrackPointExtension>
            <ns3:atemp>16.0</ns3:atemp>
          </ns3:TrackPointExtension>
        </extensions>
      </trkpt>
      <trkpt lat="42.56452739238739013671875" lon="20.050568841397762298583984375">
        <ele>2152</ele>
        <time>2026-06-15T11:47:34.000Z</time>
        <extensions>
          <ns3:TrackPointExtension>
            <ns3:atemp>16.0</ns3:atemp>
          </ns3:TrackPointExtension>
        </extensions>
      </trkpt>
      <trkpt lat="42.56452739238739013671875" lon="20.050568841397762298583984375">
        <ele>2152</ele>
        <time>2026-06-15T11:47:35.000Z</time>
        <extensions>
          <ns3:TrackPointExtension>
            <ns3:atemp>16.0</ns3:atemp>
          </ns3:TrackPointExtension>
        </extensions>
      </trkpt>
      <trkpt lat="42.56452739238739013671875" lon="20.050568841397762298583984375">
        <ele>2152</ele>
        <time>2026-06-15T11:47:36.000Z</time>
        <extensions>
          <ns3:TrackPointExtension>
            <ns3:atemp>16.0</ns3:atemp>
          </ns3:TrackPointExtension>
        </extensions>
      </trkpt>
      <trkpt lat="42.56452714093029499053955078125" lon="20.0505693443119525909423828125">
        <ele>2152</ele>
        <time>2026-06-15T11:47:37.000Z</time>
        <extensions>
          <ns3:TrackPointExtension>
            <ns3:atemp>16.0</ns3:atemp>
          </ns3:TrackPointExtension>
        </extensions>
      </trkpt>
      <trkpt lat="42.564523033797740936279296875" lon="20.05059323273599147796630859375">
        <ele>2151.800048828125</ele>
        <time>2026-06-15T11:47:38.000Z</time>
        <extensions>
          <ns3:TrackPointExtension>
            <ns3:atemp>16.0</ns3:atemp>
          </ns3:TrackPointExtension>
        </extensions>
      </trkpt>
      <trkpt lat="42.56451666355133056640625" lon="20.05061871372163295745849609375">
        <ele>2151.60009765625</ele>
        <time>2026-06-15T11:47:39.000Z</time>
        <extensions>
          <ns3:TrackPointExtension>
            <ns3:atemp>16.0</ns3:atemp>
          </ns3:TrackPointExtension>
        </extensions>
      </trkpt>
      <trkpt lat="42.56451104767620563507080078125" lon="20.05064905621111392974853515625">
        <ele>2151.60009765625</ele>
        <time>2026-06-15T11:47:40.000Z</time>
        <extensions>
          <ns3:TrackPointExtension>
            <ns3:atemp>16.0</ns3:atemp>
          </ns3:TrackPointExtension>
        </extensions>
      </trkpt>
      <trkpt lat="42.56451473571360111236572265625" lon="20.05069054663181304931640625">
        <ele>2151.39990234375</ele>
        <time>2026-06-15T11:47:41.000Z</time>
        <extensions>
          <ns3:TrackPointExtension>
            <ns3:atemp>16.0</ns3:atemp>
          </ns3:TrackPointExtension>
        </extensions>
      </trkpt>
      <trkpt lat="42.5645287334918975830078125" lon="20.0507309474050998687744140625">
        <ele>2151</ele>
        <time>2026-06-15T11:47:42.000Z</time>
        <extensions>
          <ns3:TrackPointExtension>
            <ns3:atemp>16.0</ns3:atemp>
          </ns3:TrackPointExtension>
        </extensions>
      </trkpt>
      <trkpt lat="42.56454457528889179229736328125" lon="20.050776712596416473388671875">
        <ele>2150.800048828125</ele>
        <time>2026-06-15T11:47:43.000Z</time>
        <extensions>
          <ns3:TrackPointExtension>
            <ns3:atemp>16.0</ns3:atemp>
          </ns3:TrackPointExtension>
        </extensions>
      </trkpt>
      <trkpt lat="42.56454574875533580780029296875" lon="20.05082155577838420867919921875">
        <ele>2150.39990234375</ele>
        <time>2026-06-15T11:47:44.000Z</time>
        <extensions>
          <ns3:TrackPointExtension>
            <ns3:atemp>16.0</ns3:atemp>
          </ns3:TrackPointExtension>
        </extensions>
      </trkpt>
      <trkpt lat="42.5645289011299610137939453125" lon="20.05086648277938365936279296875">
        <ele>2150</ele>
        <time>2026-06-15T11:47:45.000Z</time>
        <extensions>
          <ns3:TrackPointExtension>
            <ns3:atemp>16.0</ns3:atemp>
          </ns3:TrackPointExtension>
        </extensions>
      </trkpt>
      <trkpt lat="42.56449679844081401824951171875" lon="20.0508878566324710845947265625">
        <ele>2149.39990234375</ele>
        <time>2026-06-15T11:47:46.000Z</time>
        <extensions>
          <ns3:TrackPointExtension>
            <ns3:atemp>16.0</ns3:atemp>
          </ns3:TrackPointExtension>
        </extensions>
      </trkpt>
      <trkpt lat="42.56446042098104953765869140625" lon="20.0508784689009189605712890625">
        <ele>2149</ele>
        <time>2026-06-15T11:47:47.000Z</time>
        <extensions>
          <ns3:TrackPointExtension>
            <ns3:atemp>16.0</ns3:atemp>
          </ns3:TrackPointExtension>
        </extensions>
      </trkpt>
      <trkpt lat="42.5644269771873950958251953125" lon="20.05084812641143798828125">
        <ele>2148.60009765625</ele>
        <time>2026-06-15T11:47:48.000Z</time>
        <extensions>
          <ns3:TrackPointExtension>
            <ns3:atemp>16.0</ns3:atemp>
          </ns3:TrackPointExtension>
        </extensions>
      </trkpt>
      <trkpt lat="42.56439437158405780792236328125" lon="20.05080009810626506805419921875">
        <ele>2147.800048828125</ele>
        <time>2026-06-15T11:47:49.000Z</time>
        <extensions>
          <ns3:TrackPointExtension>
            <ns3:atemp>16.0</ns3:atemp>
          </ns3:TrackPointExtension>
        </extensions>
      </trkpt>
      <trkpt lat="42.56436847150325775146484375" lon="20.05075215362012386322021484375">
        <ele>2147.199951171875</ele>
        <time>2026-06-15T11:47:50.000Z</time>
        <extensions>
          <ns3:TrackPointExtension>
            <ns3:atemp>16.0</ns3:atemp>
          </ns3:TrackPointExtension>
        </extensions>
      </trkpt>
      <trkpt lat="42.56435682065784931182861328125" lon="20.0506933964788913726806640625">
        <ele>2146.800048828125</ele>
        <time>2026-06-15T11:47:51.000Z</time>
        <extensions>
          <ns3:TrackPointExtension>
            <ns3:atemp>16.0</ns3:atemp>
          </ns3:TrackPointExtension>
        </extensions>
      </trkpt>
      <trkpt lat="42.56435765884816646575927734375" lon="20.05062039010226726531982421875">
        <ele>2146.199951171875</ele>
        <time>2026-06-15T11:47:52.000Z</time>
        <extensions>
          <ns3:TrackPointExtension>
            <ns3:atemp>16.0</ns3:atemp>
          </ns3:TrackPointExtension>
        </extensions>
      </trkpt>
      <trkpt lat="42.56436637602746486663818359375" lon="20.05054344423115253448486328125">
        <ele>2145.60009765625</ele>
        <time>2026-06-15T11:47:53.000Z</time>
        <extensions>
          <ns3:TrackPointExtension>
            <ns3:atemp>16.0</ns3:atemp>
          </ns3:TrackPointExtension>
        </extensions>
      </trkpt>
      <trkpt lat="42.56436838768422603607177734375" lon="20.0504540093243122100830078125">
        <ele>2144.800048828125</ele>
        <time>2026-06-15T11:47:54.000Z</time>
        <extensions>
          <ns3:TrackPointExtension>
            <ns3:atemp>16.0</ns3:atemp>
          </ns3:TrackPointExtension>
        </extensions>
      </trkpt>
      <trkpt lat="42.5643615983426570892333984375" lon="20.05036423914134502410888671875">
        <ele>2144</ele>
        <time>2026-06-15T11:47:55.000Z</time>
        <extensions>
          <ns3:TrackPointExtension>
            <ns3:atemp>16.0</ns3:atemp>
          </ns3:TrackPointExtension>
        </extensions>
      </trkpt>
      <trkpt lat="42.56435899995267391204833984375" lon="20.05027287639677524566650390625">
        <ele>2143.199951171875</ele>
        <time>2026-06-15T11:47:56.000Z</time>
        <extensions>
          <ns3:TrackPointExtension>
            <ns3:atemp>16.0</ns3:atemp>
          </ns3:TrackPointExtension>
        </extensions>
      </trkpt>
      <trkpt lat="42.5643651187419891357421875" lon="20.05019442178308963775634765625">
        <ele>2142.199951171875</ele>
        <time>2026-06-15T11:47:57.000Z</time>
        <extensions>
          <ns3:TrackPointExtension>
            <ns3:atemp>16.0</ns3:atemp>
          </ns3:TrackPointExtension>
        </extensions>
      </trkpt>
      <trkpt lat="42.56437559612095355987548828125" lon="20.05011345259845256805419921875">
        <ele>2141.60009765625</ele>
        <time>2026-06-15T11:47:58.000Z</time>
        <extensions>
          <ns3:TrackPointExtension>
            <ns3:atemp>16.0</ns3:atemp>
          </ns3:TrackPointExtension>
        </extensions>
      </trkpt>
      <trkpt lat="42.56438934244215488433837890625" lon="20.0500355847179889678955078125">
        <ele>2140.60009765625</ele>
        <time>2026-06-15T11:47:59.000Z</time>
        <extensions>
          <ns3:TrackPointExtension>
            <ns3:atemp>16.0</ns3:atemp>
          </ns3:TrackPointExtension>
        </extensions>
      </trkpt>
      <trkpt lat="42.56439051590859889984130859375" lon="20.04995570518076419830322265625">
        <ele>2139.800048828125</ele>
        <time>2026-06-15T11:48:00.000Z</time>
        <extensions>
          <ns3:TrackPointExtension>
            <ns3:atemp>16.0</ns3:atemp>
          </ns3:TrackPointExtension>
        </extensions>
      </trkpt>
      <trkpt lat="42.56438867188990116119384765625" lon="20.049864761531352996826171875">
        <ele>2138.60009765625</ele>
        <time>2026-06-15T11:48:01.000Z</time>
        <extensions>
          <ns3:TrackPointExtension>
            <ns3:atemp>16.0</ns3:atemp>
          </ns3:TrackPointExtension>
        </extensions>
      </trkpt>
      <trkpt lat="42.564404010772705078125" lon="20.0497739017009735107421875">
        <ele>2137.60009765625</ele>
        <time>2026-06-15T11:48:02.000Z</time>
        <extensions>
          <ns3:TrackPointExtension>
            <ns3:atemp>16.0</ns3:atemp>
          </ns3:TrackPointExtension>
        </extensions>
      </trkpt>
      <trkpt lat="42.5644172541797161102294921875" lon="20.049678348004817962646484375">
        <ele>2136.800048828125</ele>
        <time>2026-06-15T11:48:03.000Z</time>
        <extensions>
          <ns3:TrackPointExtension>
            <ns3:atemp>16.0</ns3:atemp>
          </ns3:TrackPointExtension>
        </extensions>
      </trkpt>
      <trkpt lat="42.564419768750667572021484375" lon="20.0495742447674274444580078125">
        <ele>2135.800048828125</ele>
        <time>2026-06-15T11:48:04.000Z</time>
        <extensions>
          <ns3:TrackPointExtension>
            <ns3:atemp>16.0</ns3:atemp>
          </ns3:TrackPointExtension>
        </extensions>
      </trkpt>
      <trkpt lat="42.5644323416054248809814453125" lon="20.04948128946125507354736328125">
        <ele>2134.800048828125</ele>
        <time>2026-06-15T11:48:05.000Z</time>
        <extensions>
          <ns3:TrackPointExtension>
            <ns3:atemp>16.0</ns3:atemp>
          </ns3:TrackPointExtension>
        </extensions>
      </trkpt>
      <trkpt lat="42.56445572711527347564697265625" lon="20.04939378239214420318603515625">
        <ele>2133.60009765625</ele>
        <time>2026-06-15T11:48:06.000Z</time>
        <extensions>
          <ns3:TrackPointExtension>
            <ns3:atemp>16.0</ns3:atemp>
          </ns3:TrackPointExtension>
        </extensions>
      </trkpt>
      <trkpt lat="42.564482130110263824462890625" lon="20.04931197501718997955322265625">
        <ele>2132.60009765625</ele>
        <time>2026-06-15T11:48:07.000Z</time>
        <extensions>
          <ns3:TrackPointExtension>
            <ns3:atemp>16.0</ns3:atemp>
          </ns3:TrackPointExtension>
        </extensions>
      </trkpt>
      <trkpt lat="42.56450660526752471923828125" lon="20.0492416508495807647705078125">
        <ele>2131.39990234375</ele>
        <time>2026-06-15T11:48:08.000Z</time>
        <extensions>
          <ns3:TrackPointExtension>
            <ns3:atemp>16.0</ns3:atemp>
          </ns3:TrackPointExtension>
        </extensions>
      </trkpt>
      <trkpt lat="42.5645342655479907989501953125" lon="20.04918104968965053558349609375">
        <ele>2130.60009765625</ele>
        <time>2026-06-15T11:48:09.000Z</time>
        <extensions>
          <ns3:TrackPointExtension>
            <ns3:atemp>16.0</ns3:atemp>
          </ns3:TrackPointExtension>
        </extensions>
      </trkpt>
      <trkpt lat="42.5645463354885578155517578125" lon="20.04913327284157276153564453125">
        <ele>2130</ele>
        <time>2026-06-15T11:48:10.000Z</time>
        <extensions>
          <ns3:TrackPointExtension>
            <ns3:atemp>16.0</ns3:atemp>
          </ns3:TrackPointExtension>
        </extensions>
      </trkpt>
      <trkpt lat="42.5645356066524982452392578125" lon="20.04908666945993900299072265625">
        <ele>2129.60009765625</ele>
        <time>2026-06-15T11:48:11.000Z</time>
        <extensions>
          <ns3:TrackPointExtension>
            <ns3:atemp>16.0</ns3:atemp>
          </ns3:TrackPointExtension>
        </extensions>
      </trkpt>
      <trkpt lat="42.56451129913330078125" lon="20.04904844798147678375244140625">
        <ele>2129.199951171875</ele>
        <time>2026-06-15T11:48:12.000Z</time>
        <extensions>
          <ns3:TrackPointExtension>
            <ns3:atemp>16.0</ns3:atemp>
          </ns3:TrackPointExtension>
        </extensions>
      </trkpt>
      <trkpt lat="42.56448154337704181671142578125" lon="20.049032606184482574462890625">
        <ele>2128.800048828125</ele>
        <time>2026-06-15T11:48:13.000Z</time>
        <extensions>
          <ns3:TrackPointExtension>
            <ns3:atemp>16.0</ns3:atemp>
          </ns3:TrackPointExtension>
        </extensions>
      </trkpt>
      <trkpt lat="42.564450614154338836669921875" lon="20.0490418262779712677001953125">
        <ele>2128.199951171875</ele>
        <time>2026-06-15T11:48:14.000Z</time>
        <extensions>
          <ns3:TrackPointExtension>
            <ns3:atemp>16.0</ns3:atemp>
          </ns3:TrackPointExtension>
        </extensions>
      </trkpt>
      <trkpt lat="42.564435191452503204345703125" lon="20.04907049238681793212890625">
        <ele>2127.800048828125</ele>
        <time>2026-06-15T11:48:15.000Z</time>
        <extensions>
          <ns3:TrackPointExtension>
            <ns3:atemp>16.0</ns3:atemp>
          </ns3:TrackPointExtension>
        </extensions>
      </trkpt>
      <trkpt lat="42.56442035548388957977294921875" lon="20.0490927882492542266845703125">
        <ele>2127.39990234375</ele>
        <time>2026-06-15T11:48:16.000Z</time>
        <extensions>
          <ns3:TrackPointExtension>
            <ns3:atemp>16.0</ns3:atemp>
          </ns3:TrackPointExtension>
        </extensions>
      </trkpt>
      <trkpt lat="42.56440644152462482452392578125" lon="20.04911667667329311370849609375">
        <ele>2127</ele>
        <time>2026-06-15T11:48:17.000Z</time>
        <extensions>
          <ns3:TrackPointExtension>
            <ns3:atemp>16.0</ns3:atemp>
          </ns3:TrackPointExtension>
        </extensions>
      </trkpt>
      <trkpt lat="42.5643921084702014923095703125" lon="20.04915070720016956329345703125">
        <ele>2126.800048828125</ele>
        <time>2026-06-15T11:48:18.000Z</time>
        <extensions>
          <ns3:TrackPointExtension>
            <ns3:atemp>16.0</ns3:atemp>
          </ns3:TrackPointExtension>
        </extensions>
      </trkpt>
      <trkpt lat="42.5643820501863956451416015625" lon="20.04918172024190425872802734375">
        <ele>2126.60009765625</ele>
        <time>2026-06-15T11:48:19.000Z</time>
        <extensions>
          <ns3:TrackPointExtension>
            <ns3:atemp>16.0</ns3:atemp>
          </ns3:TrackPointExtension>
        </extensions>
      </trkpt>
      <trkpt lat="42.56436847150325775146484375" lon="20.0492165051400661468505859375">
        <ele>2126.39990234375</ele>
        <time>2026-06-15T11:48:20.000Z</time>
        <extensions>
          <ns3:TrackPointExtension>
            <ns3:atemp>16.0</ns3:atemp>
          </ns3:TrackPointExtension>
        </extensions>
      </trkpt>
      <trkpt lat="42.5643565692007541656494140625" lon="20.04924483597278594970703125">
        <ele>2126.199951171875</ele>
        <time>2026-06-15T11:48:21.000Z</time>
        <extensions>
          <ns3:TrackPointExtension>
            <ns3:atemp>16.0</ns3:atemp>
          </ns3:TrackPointExtension>
        </extensions>
      </trkpt>
      <trkpt lat="42.564343996345996856689453125" lon="20.04927425645291805267333984375">
        <ele>2126.199951171875</ele>
        <time>2026-06-15T11:48:22.000Z</time>
        <extensions>
          <ns3:TrackPointExtension>
            <ns3:atemp>16.0</ns3:atemp>
          </ns3:TrackPointExtension>
        </extensions>
      </trkpt>
      <trkpt lat="42.56432899273931980133056640625" lon="20.04930652678012847900390625">
        <ele>2126</ele>
        <time>2026-06-15T11:48:23.000Z</time>
        <extensions>
          <ns3:TrackPointExtension>
            <ns3:atemp>16.0</ns3:atemp>
          </ns3:TrackPointExtension>
        </extensions>
      </trkpt>
      <trkpt lat="42.5643056072294712066650390625" lon="20.0493375398218631744384765625">
        <ele>2125.800048828125</ele>
        <time>2026-06-15T11:48:24.000Z</time>
        <extensions>
          <ns3:TrackPointExtension>
            <ns3:atemp>16.0</ns3:atemp>
          </ns3:TrackPointExtension>
        </extensions>
      </trkpt>
      <trkpt lat="42.56428004242479801177978515625" lon="20.04934617318212985992431640625">
        <ele>2126</ele>
        <time>2026-06-15T11:48:25.000Z</time>
        <extensions>
          <ns3:TrackPointExtension>
            <ns3:atemp>16.0</ns3:atemp>
          </ns3:TrackPointExtension>
        </extensions>
      </trkpt>
      <trkpt lat="42.56426361389458179473876953125" lon="20.04934818483889102935791015625">
        <ele>2125.800048828125</ele>
        <time>2026-06-15T11:48:26.000Z</time>
        <extensions>
          <ns3:TrackPointExtension>
            <ns3:atemp>16.0</ns3:atemp>
          </ns3:TrackPointExtension>
        </extensions>
      </trkpt>
      <trkpt lat="42.56426394917070865631103515625" lon="20.04933007992804050445556640625">
        <ele>2125.60009765625</ele>
        <time>2026-06-15T11:48:27.000Z</time>
        <extensions>
          <ns3:TrackPointExtension>
            <ns3:atemp>16.0</ns3:atemp>
          </ns3:TrackPointExtension>
        </extensions>
      </trkpt>
      <trkpt lat="42.56426654756069183349609375" lon="20.04932790063321590423583984375">
        <ele>2125.60009765625</ele>
        <time>2026-06-15T11:48:28.000Z</time>
        <extensions>
          <ns3:TrackPointExtension>
            <ns3:atemp>16.0</ns3:atemp>
          </ns3:TrackPointExtension>
        </extensions>
      </trkpt>
      <trkpt lat="42.56426461972296237945556640625" lon="20.0493278168141841888427734375">
        <ele>2125.60009765625</ele>
        <time>2026-06-15T11:48:29.000Z</time>
        <extensions>
          <ns3:TrackPointExtension>
            <ns3:atemp>16.0</ns3:atemp>
          </ns3:TrackPointExtension>
        </extensions>
      </trkpt>
      <trkpt lat="42.5642647035419940948486328125" lon="20.0493278168141841888427734375">
        <ele>2125.39990234375</ele>
        <time>2026-06-15T11:48:30.000Z</time>
        <extensions>
          <ns3:TrackPointExtension>
            <ns3:atemp>16.0</ns3:atemp>
          </ns3:TrackPointExtension>
        </extensions>
      </trkpt>
      <trkpt lat="42.5642647035419940948486328125" lon="20.0493278168141841888427734375">
        <ele>2125.39990234375</ele>
        <time>2026-06-15T11:48:31.000Z</time>
        <extensions>
          <ns3:TrackPointExtension>
            <ns3:atemp>16.0</ns3:atemp>
          </ns3:TrackPointExtension>
        </extensions>
      </trkpt>
      <trkpt lat="42.5642647035419940948486328125" lon="20.0493278168141841888427734375">
        <ele>2125.39990234375</ele>
        <time>2026-06-15T11:48:32.000Z</time>
        <extensions>
          <ns3:TrackPointExtension>
            <ns3:atemp>16.0</ns3:atemp>
          </ns3:TrackPointExtension>
        </extensions>
      </trkpt>
      <trkpt lat="42.5642647035419940948486328125" lon="20.0493278168141841888427734375">
        <ele>2125.39990234375</ele>
        <time>2026-06-15T11:48:33.000Z</time>
        <extensions>
          <ns3:TrackPointExtension>
            <ns3:atemp>16.0</ns3:atemp>
          </ns3:TrackPointExtension>
        </extensions>
      </trkpt>
      <trkpt lat="42.5642647035419940948486328125" lon="20.0493278168141841888427734375">
        <ele>2125.39990234375</ele>
        <time>2026-06-15T11:48:34.000Z</time>
        <extensions>
          <ns3:TrackPointExtension>
            <ns3:atemp>16.0</ns3:atemp>
          </ns3:TrackPointExtension>
        </extensions>
      </trkpt>
      <trkpt lat="42.5642647035419940948486328125" lon="20.0493278168141841888427734375">
        <ele>2125.39990234375</ele>
        <time>2026-06-15T11:48:35.000Z</time>
        <extensions>
          <ns3:TrackPointExtension>
            <ns3:atemp>16.0</ns3:atemp>
          </ns3:TrackPointExtension>
        </extensions>
      </trkpt>
      <trkpt lat="42.5642647035419940948486328125" lon="20.0493278168141841888427734375">
        <ele>2125.199951171875</ele>
        <time>2026-06-15T11:48:36.000Z</time>
        <extensions>
          <ns3:TrackPointExtension>
            <ns3:atemp>16.0</ns3:atemp>
          </ns3:TrackPointExtension>
        </extensions>
      </trkpt>
      <trkpt lat="42.5642647035419940948486328125" lon="20.0493278168141841888427734375">
        <ele>2125.199951171875</ele>
        <time>2026-06-15T11:48:37.000Z</time>
        <extensions>
          <ns3:TrackPointExtension>
            <ns3:atemp>16.0</ns3:atemp>
          </ns3:TrackPointExtension>
        </extensions>
      </trkpt>
      <trkpt lat="42.5642647035419940948486328125" lon="20.0493278168141841888427734375">
        <ele>2125.199951171875</ele>
        <time>2026-06-15T11:48:38.000Z</time>
        <extensions>
          <ns3:TrackPointExtension>
            <ns3:atemp>16.0</ns3:atemp>
          </ns3:TrackPointExtension>
        </extensions>
      </trkpt>
      <trkpt lat="42.5642647035419940948486328125" lon="20.0493278168141841888427734375">
        <ele>2125</ele>
        <time>2026-06-15T11:48:39.000Z</time>
        <extensions>
          <ns3:TrackPointExtension>
            <ns3:atemp>16.0</ns3:atemp>
          </ns3:TrackPointExtension>
        </extensions>
      </trkpt>
      <trkpt lat="42.5642647035419940948486328125" lon="20.0493278168141841888427734375">
        <ele>2124.800048828125</ele>
        <time>2026-06-15T11:48:40.000Z</time>
        <extensions>
          <ns3:TrackPointExtension>
            <ns3:atemp>16.0</ns3:atemp>
          </ns3:TrackPointExtension>
        </extensions>
      </trkpt>
      <trkpt lat="42.56426529027521610260009765625" lon="20.0493264757096767425537109375">
        <ele>2124.60009765625</ele>
        <time>2026-06-15T11:48:41.000Z</time>
        <extensions>
          <ns3:TrackPointExtension>
            <ns3:atemp>16.0</ns3:atemp>
          </ns3:TrackPointExtension>
        </extensions>
      </trkpt>
      <trkpt lat="42.564260177314281463623046875" lon="20.04929772578179836273193359375">
        <ele>2124.39990234375</ele>
        <time>2026-06-15T11:48:42.000Z</time>
        <extensions>
          <ns3:TrackPointExtension>
            <ns3:atemp>16.0</ns3:atemp>
          </ns3:TrackPointExtension>
        </extensions>
      </trkpt>
      <trkpt lat="42.56425439380109310150146484375" lon="20.0492589175701141357421875">
        <ele>2124</ele>
        <time>2026-06-15T11:48:43.000Z</time>
        <extensions>
          <ns3:TrackPointExtension>
            <ns3:atemp>16.0</ns3:atemp>
          </ns3:TrackPointExtension>
        </extensions>
      </trkpt>
      <trkpt lat="42.56425053812563419342041015625" lon="20.04921357147395610809326171875">
        <ele>2123.60009765625</ele>
        <time>2026-06-15T11:48:44.000Z</time>
        <extensions>
          <ns3:TrackPointExtension>
            <ns3:atemp>16.0</ns3:atemp>
          </ns3:TrackPointExtension>
        </extensions>
      </trkpt>
      <trkpt lat="42.56425254978239536285400390625" lon="20.049159340560436248779296875">
        <ele>2123.199951171875</ele>
        <time>2026-06-15T11:48:45.000Z</time>
        <extensions>
          <ns3:TrackPointExtension>
            <ns3:atemp>16.0</ns3:atemp>
          </ns3:TrackPointExtension>
        </extensions>
      </trkpt>
      <trkpt lat="42.56425322033464908599853515625" lon="20.049092955887317657470703125">
        <ele>2122.800048828125</ele>
        <time>2026-06-15T11:48:46.000Z</time>
        <extensions>
          <ns3:TrackPointExtension>
            <ns3:atemp>16.0</ns3:atemp>
          </ns3:TrackPointExtension>
        </extensions>
      </trkpt>
      <trkpt lat="42.5642516277730464935302734375" lon="20.04902984015643596649169921875">
        <ele>2122.199951171875</ele>
        <time>2026-06-15T11:48:47.000Z</time>
        <extensions>
          <ns3:TrackPointExtension>
            <ns3:atemp>16.0</ns3:atemp>
          </ns3:TrackPointExtension>
        </extensions>
      </trkpt>
      <trkpt lat="42.56425489671528339385986328125" lon="20.04896320402622222900390625">
        <ele>2121.800048828125</ele>
        <time>2026-06-15T11:48:48.000Z</time>
        <extensions>
          <ns3:TrackPointExtension>
            <ns3:atemp>16.0</ns3:atemp>
          </ns3:TrackPointExtension>
        </extensions>
      </trkpt>
      <trkpt lat="42.56427065469324588775634765625" lon="20.0488973222672939300537109375">
        <ele>2121.39990234375</ele>
        <time>2026-06-15T11:48:49.000Z</time>
        <extensions>
          <ns3:TrackPointExtension>
            <ns3:atemp>16.0</ns3:atemp>
          </ns3:TrackPointExtension>
        </extensions>
      </trkpt>
      <trkpt lat="42.56428456865251064300537109375" lon="20.048835463821887969970703125">
        <ele>2120.800048828125</ele>
        <time>2026-06-15T11:48:50.000Z</time>
        <extensions>
          <ns3:TrackPointExtension>
            <ns3:atemp>16.0</ns3:atemp>
          </ns3:TrackPointExtension>
        </extensions>
      </trkpt>
      <trkpt lat="42.56428138352930545806884765625" lon="20.04877385683357715606689453125">
        <ele>2120.39990234375</ele>
        <time>2026-06-15T11:48:51.000Z</time>
        <extensions>
          <ns3:TrackPointExtension>
            <ns3:atemp>16.0</ns3:atemp>
          </ns3:TrackPointExtension>
        </extensions>
      </trkpt>
      <trkpt lat="42.56428264081478118896484375" lon="20.04871367476880550384521484375">
        <ele>2120</ele>
        <time>2026-06-15T11:48:52.000Z</time>
        <extensions>
          <ns3:TrackPointExtension>
            <ns3:atemp>16.0</ns3:atemp>
          </ns3:TrackPointExtension>
        </extensions>
      </trkpt>
      <trkpt lat="42.56428272463381290435791015625" lon="20.04863739944994449615478515625">
        <ele>2119.39990234375</ele>
        <time>2026-06-15T11:48:53.000Z</time>
        <extensions>
          <ns3:TrackPointExtension>
            <ns3:atemp>16.0</ns3:atemp>
          </ns3:TrackPointExtension>
        </extensions>
      </trkpt>
      <trkpt lat="42.564277946949005126953125" lon="20.048561207950115203857421875">
        <ele>2118.800048828125</ele>
        <time>2026-06-15T11:48:54.000Z</time>
        <extensions>
          <ns3:TrackPointExtension>
            <ns3:atemp>16.0</ns3:atemp>
          </ns3:TrackPointExtension>
        </extensions>
      </trkpt>
      <trkpt lat="42.5642673857510089874267578125" lon="20.04848417825996875762939453125">
        <ele>2118.39990234375</ele>
        <time>2026-06-15T11:48:55.000Z</time>
        <extensions>
          <ns3:TrackPointExtension>
            <ns3:atemp>16.0</ns3:atemp>
          </ns3:TrackPointExtension>
        </extensions>
      </trkpt>
      <trkpt lat="42.56425942294299602508544921875" lon="20.048406310379505157470703125">
        <ele>2118</ele>
        <time>2026-06-15T11:48:56.000Z</time>
        <extensions>
          <ns3:TrackPointExtension>
            <ns3:atemp>16.0</ns3:atemp>
          </ns3:TrackPointExtension>
        </extensions>
      </trkpt>
      <trkpt lat="42.56426026113331317901611328125" lon="20.0483320467174053192138671875">
        <ele>2117.199951171875</ele>
        <time>2026-06-15T11:48:57.000Z</time>
        <extensions>
          <ns3:TrackPointExtension>
            <ns3:atemp>16.0</ns3:atemp>
          </ns3:TrackPointExtension>
        </extensions>
      </trkpt>
      <trkpt lat="42.5642549805343151092529296875" lon="20.048264153301715850830078125">
        <ele>2116.39990234375</ele>
        <time>2026-06-15T11:48:58.000Z</time>
        <extensions>
          <ns3:TrackPointExtension>
            <ns3:atemp>16.0</ns3:atemp>
          </ns3:TrackPointExtension>
        </extensions>
      </trkpt>
      <trkpt lat="42.56424366496503353118896484375" lon="20.04821964539587497711181640625">
        <ele>2115.800048828125</ele>
        <time>2026-06-15T11:48:59.000Z</time>
        <extensions>
          <ns3:TrackPointExtension>
            <ns3:atemp>16.0</ns3:atemp>
          </ns3:TrackPointExtension>
        </extensions>
      </trkpt>
      <trkpt lat="42.5642321817576885223388671875" lon="20.04820338450372219085693359375">
        <ele>2115.199951171875</ele>
        <time>2026-06-15T11:49:00.000Z</time>
        <extensions>
          <ns3:TrackPointExtension>
            <ns3:atemp>16.0</ns3:atemp>
          </ns3:TrackPointExtension>
        </extensions>
      </trkpt>
      <trkpt lat="42.56423628889024257659912109375" lon="20.04820791073143482208251953125">
        <ele>2114.60009765625</ele>
        <time>2026-06-15T11:49:01.000Z</time>
        <extensions>
          <ns3:TrackPointExtension>
            <ns3:atemp>16.0</ns3:atemp>
          </ns3:TrackPointExtension>
        </extensions>
      </trkpt>
      <trkpt lat="42.5642363727092742919921875" lon="20.048207826912403106689453125">
        <ele>2114.199951171875</ele>
        <time>2026-06-15T11:49:02.000Z</time>
        <extensions>
          <ns3:TrackPointExtension>
            <ns3:atemp>16.0</ns3:atemp>
          </ns3:TrackPointExtension>
        </extensions>
      </trkpt>
      <trkpt lat="42.5642363727092742919921875" lon="20.048207826912403106689453125">
        <ele>2114</ele>
        <time>2026-06-15T11:49:03.000Z</time>
        <extensions>
          <ns3:TrackPointExtension>
            <ns3:atemp>16.0</ns3:atemp>
          </ns3:TrackPointExtension>
        </extensions>
      </trkpt>
      <trkpt lat="42.5642363727092742919921875" lon="20.048207826912403106689453125">
        <ele>2113.800048828125</ele>
        <time>2026-06-15T11:49:04.000Z</time>
        <extensions>
          <ns3:TrackPointExtension>
            <ns3:atemp>16.0</ns3:atemp>
          </ns3:TrackPointExtension>
        </extensions>
      </trkpt>
      <trkpt lat="42.5642363727092742919921875" lon="20.048207826912403106689453125">
        <ele>2113.800048828125</ele>
        <time>2026-06-15T11:49:05.000Z</time>
        <extensions>
          <ns3:TrackPointExtension>
            <ns3:atemp>16.0</ns3:atemp>
          </ns3:TrackPointExtension>
        </extensions>
      </trkpt>
      <trkpt lat="42.5642363727092742919921875" lon="20.048207826912403106689453125">
        <ele>2113.800048828125</ele>
        <time>2026-06-15T11:49:06.000Z</time>
        <extensions>
          <ns3:TrackPointExtension>
            <ns3:atemp>16.0</ns3:atemp>
          </ns3:TrackPointExtension>
        </extensions>
      </trkpt>
      <trkpt lat="42.5642363727092742919921875" lon="20.048207826912403106689453125">
        <ele>2113.800048828125</ele>
        <time>2026-06-15T11:49:07.000Z</time>
        <extensions>
          <ns3:TrackPointExtension>
            <ns3:atemp>16.0</ns3:atemp>
          </ns3:TrackPointExtension>
        </extensions>
      </trkpt>
      <trkpt lat="42.5642363727092742919921875" lon="20.048207826912403106689453125">
        <ele>2114</ele>
        <time>2026-06-15T11:49:08.000Z</time>
        <extensions>
          <ns3:TrackPointExtension>
            <ns3:atemp>16.0</ns3:atemp>
          </ns3:TrackPointExtension>
        </extensions>
      </trkpt>
      <trkpt lat="42.5642363727092742919921875" lon="20.048207826912403106689453125">
        <ele>2113.800048828125</ele>
        <time>2026-06-15T11:49:09.000Z</time>
        <extensions>
          <ns3:TrackPointExtension>
            <ns3:atemp>16.0</ns3:atemp>
          </ns3:TrackPointExtension>
        </extensions>
      </trkpt>
      <trkpt lat="42.5642363727092742919921875" lon="20.048207826912403106689453125">
        <ele>2113.800048828125</ele>
        <time>2026-06-15T11:49:10.000Z</time>
        <extensions>
          <ns3:TrackPointExtension>
            <ns3:atemp>16.0</ns3:atemp>
          </ns3:TrackPointExtension>
        </extensions>
      </trkpt>
      <trkpt lat="42.5642363727092742919921875" lon="20.048207826912403106689453125">
        <ele>2113.800048828125</ele>
        <time>2026-06-15T11:49:11.000Z</time>
        <extensions>
          <ns3:TrackPointExtension>
            <ns3:atemp>16.0</ns3:atemp>
          </ns3:TrackPointExtension>
        </extensions>
      </trkpt>
      <trkpt lat="42.5642363727092742919921875" lon="20.048207826912403106689453125">
        <ele>2113.60009765625</ele>
        <time>2026-06-15T11:49:12.000Z</time>
        <extensions>
          <ns3:TrackPointExtension>
            <ns3:atemp>16.0</ns3:atemp>
          </ns3:TrackPointExtension>
        </extensions>
      </trkpt>
      <trkpt lat="42.5642363727092742919921875" lon="20.048207826912403106689453125">
        <ele>2113.60009765625</ele>
        <time>2026-06-15T11:49:13.000Z</time>
        <extensions>
          <ns3:TrackPointExtension>
            <ns3:atemp>16.0</ns3:atemp>
          </ns3:TrackPointExtension>
        </extensions>
      </trkpt>
      <trkpt lat="42.5642363727092742919921875" lon="20.048207826912403106689453125">
        <ele>2113.60009765625</ele>
        <time>2026-06-15T11:49:14.000Z</time>
        <extensions>
          <ns3:TrackPointExtension>
            <ns3:atemp>16.0</ns3:atemp>
          </ns3:TrackPointExtension>
        </extensions>
      </trkpt>
      <trkpt lat="42.5642363727092742919921875" lon="20.048207826912403106689453125">
        <ele>2113.60009765625</ele>
        <time>2026-06-15T11:49:15.000Z</time>
        <extensions>
          <ns3:TrackPointExtension>
            <ns3:atemp>16.0</ns3:atemp>
          </ns3:TrackPointExtension>
        </extensions>
      </trkpt>
      <trkpt lat="42.5642345286905765533447265625" lon="20.0482066534459590911865234375">
        <ele>2113.60009765625</ele>
        <time>2026-06-15T11:49:16.000Z</time>
        <extensions>
          <ns3:TrackPointExtension>
            <ns3:atemp>16.0</ns3:atemp>
          </ns3:TrackPointExtension>
        </extensions>
      </trkpt>
      <trkpt lat="42.56422287784516811370849609375" lon="20.04818913526833057403564453125">
        <ele>2113.39990234375</ele>
        <time>2026-06-15T11:49:17.000Z</time>
        <extensions>
          <ns3:TrackPointExtension>
            <ns3:atemp>16.0</ns3:atemp>
          </ns3:TrackPointExtension>
        </extensions>
      </trkpt>
      <trkpt lat="42.564211897552013397216796875" lon="20.0481677614152431488037109375">
        <ele>2113.199951171875</ele>
        <time>2026-06-15T11:49:18.000Z</time>
        <extensions>
          <ns3:TrackPointExtension>
            <ns3:atemp>16.0</ns3:atemp>
          </ns3:TrackPointExtension>
        </extensions>
      </trkpt>
      <trkpt lat="42.56419546902179718017578125" lon="20.04814110696315765380859375">
        <ele>2112.800048828125</ele>
        <time>2026-06-15T11:49:19.000Z</time>
        <extensions>
          <ns3:TrackPointExtension>
            <ns3:atemp>16.0</ns3:atemp>
          </ns3:TrackPointExtension>
        </extensions>
      </trkpt>
      <trkpt lat="42.5641775317490100860595703125" lon="20.0481064058840274810791015625">
        <ele>2112.60009765625</ele>
        <time>2026-06-15T11:49:20.000Z</time>
        <extensions>
          <ns3:TrackPointExtension>
            <ns3:atemp>16.0</ns3:atemp>
          </ns3:TrackPointExtension>
        </extensions>
      </trkpt>
      <trkpt lat="42.56416462361812591552734375" lon="20.04806173034012317657470703125">
        <ele>2112.199951171875</ele>
        <time>2026-06-15T11:49:21.000Z</time>
        <extensions>
          <ns3:TrackPointExtension>
            <ns3:atemp>16.0</ns3:atemp>
          </ns3:TrackPointExtension>
        </extensions>
      </trkpt>
      <trkpt lat="42.56415096111595630645751953125" lon="20.0480064935982227325439453125">
        <ele>2111.800048828125</ele>
        <time>2026-06-15T11:49:22.000Z</time>
        <extensions>
          <ns3:TrackPointExtension>
            <ns3:atemp>16.0</ns3:atemp>
          </ns3:TrackPointExtension>
        </extensions>
      </trkpt>
      <trkpt lat="42.564129419624805450439453125" lon="20.04794991575181484222412109375">
        <ele>2111.39990234375</ele>
        <time>2026-06-15T11:49:23.000Z</time>
        <extensions>
          <ns3:TrackPointExtension>
            <ns3:atemp>16.0</ns3:atemp>
          </ns3:TrackPointExtension>
        </extensions>
      </trkpt>
      <trkpt lat="42.56413017399609088897705078125" lon="20.0478748977184295654296875">
        <ele>2111</ele>
        <time>2026-06-15T11:49:24.000Z</time>
        <extensions>
          <ns3:TrackPointExtension>
            <ns3:atemp>16.0</ns3:atemp>
          </ns3:TrackPointExtension>
        </extensions>
      </trkpt>
      <trkpt lat="42.56412832997739315032958984375" lon="20.0477986223995685577392578125">
        <ele>2110.39990234375</ele>
        <time>2026-06-15T11:49:25.000Z</time>
        <extensions>
          <ns3:TrackPointExtension>
            <ns3:atemp>16.0</ns3:atemp>
          </ns3:TrackPointExtension>
        </extensions>
      </trkpt>
      <trkpt lat="42.5640980713069438934326171875" lon="20.04773986525833606719970703125">
        <ele>2109.60009765625</ele>
        <time>2026-06-15T11:49:26.000Z</time>
        <extensions>
          <ns3:TrackPointExtension>
            <ns3:atemp>16.0</ns3:atemp>
          </ns3:TrackPointExtension>
        </extensions>
      </trkpt>
      <trkpt lat="42.56405976600944995880126953125" lon="20.04768404178321361541748046875">
        <ele>2109</ele>
        <time>2026-06-15T11:49:27.000Z</time>
        <extensions>
          <ns3:TrackPointExtension>
            <ns3:atemp>16.0</ns3:atemp>
          </ns3:TrackPointExtension>
        </extensions>
      </trkpt>
      <trkpt lat="42.5640199519693851470947265625" lon="20.04761463962495326995849609375">
        <ele>2108.199951171875</ele>
        <time>2026-06-15T11:49:28.000Z</time>
        <extensions>
          <ns3:TrackPointExtension>
            <ns3:atemp>16.0</ns3:atemp>
          </ns3:TrackPointExtension>
        </extensions>
      </trkpt>
      <trkpt lat="42.563998661935329437255859375" lon="20.0475347600877285003662109375">
        <ele>2107.199951171875</ele>
        <time>2026-06-15T11:49:29.000Z</time>
        <extensions>
          <ns3:TrackPointExtension>
            <ns3:atemp>16.0</ns3:atemp>
          </ns3:TrackPointExtension>
        </extensions>
      </trkpt>
      <trkpt lat="42.56397016346454620361328125" lon="20.0474643521010875701904296875">
        <ele>2106.60009765625</ele>
        <time>2026-06-15T11:49:30.000Z</time>
        <extensions>
          <ns3:TrackPointExtension>
            <ns3:atemp>16.0</ns3:atemp>
          </ns3:TrackPointExtension>
        </extensions>
      </trkpt>
      <trkpt lat="42.563945353031158447265625" lon="20.04739788360893726348876953125">
        <ele>2106</ele>
        <time>2026-06-15T11:49:31.000Z</time>
        <extensions>
          <ns3:TrackPointExtension>
            <ns3:atemp>16.0</ns3:atemp>
          </ns3:TrackPointExtension>
        </extensions>
      </trkpt>
      <trkpt lat="42.563933618366718292236328125" lon="20.04734708927571773529052734375">
        <ele>2105.199951171875</ele>
        <time>2026-06-15T11:49:32.000Z</time>
        <extensions>
          <ns3:TrackPointExtension>
            <ns3:atemp>16.0</ns3:atemp>
          </ns3:TrackPointExtension>
        </extensions>
      </trkpt>
      <trkpt lat="42.5639279186725616455078125" lon="20.0473198480904102325439453125">
        <ele>2104.800048828125</ele>
        <time>2026-06-15T11:49:33.000Z</time>
        <extensions>
          <ns3:TrackPointExtension>
            <ns3:atemp>16.0</ns3:atemp>
          </ns3:TrackPointExtension>
        </extensions>
      </trkpt>
      <trkpt lat="42.56392213515937328338623046875" lon="20.04731758497655391693115234375">
        <ele>2104.60009765625</ele>
        <time>2026-06-15T11:49:34.000Z</time>
        <extensions>
          <ns3:TrackPointExtension>
            <ns3:atemp>16.0</ns3:atemp>
          </ns3:TrackPointExtension>
        </extensions>
      </trkpt>
      <trkpt lat="42.5639225542545318603515625" lon="20.04731775261461734771728515625">
        <ele>2104.39990234375</ele>
        <time>2026-06-15T11:49:35.000Z</time>
        <extensions>
          <ns3:TrackPointExtension>
            <ns3:atemp>16.0</ns3:atemp>
          </ns3:TrackPointExtension>
        </extensions>
      </trkpt>
      <trkpt lat="42.56392448209226131439208984375" lon="20.0473285652697086334228515625">
        <ele>2104.39990234375</ele>
        <time>2026-06-15T11:49:36.000Z</time>
        <extensions>
          <ns3:TrackPointExtension>
            <ns3:atemp>16.0</ns3:atemp>
          </ns3:TrackPointExtension>
        </extensions>
      </trkpt>
      <trkpt lat="42.56392858922481536865234375" lon="20.04733703099191188812255859375">
        <ele>2104.60009765625</ele>
        <time>2026-06-15T11:49:37.000Z</time>
        <extensions>
          <ns3:TrackPointExtension>
            <ns3:atemp>16.0</ns3:atemp>
          </ns3:TrackPointExtension>
        </extensions>
      </trkpt>
      <trkpt lat="42.5639334507286548614501953125" lon="20.04735144786536693572998046875">
        <ele>2104.800048828125</ele>
        <time>2026-06-15T11:49:38.000Z</time>
        <extensions>
          <ns3:TrackPointExtension>
            <ns3:atemp>16.0</ns3:atemp>
          </ns3:TrackPointExtension>
        </extensions>
      </trkpt>
      <trkpt lat="42.563930936157703399658203125" lon="20.04735681228339672088623046875">
        <ele>2104.800048828125</ele>
        <time>2026-06-15T11:49:39.000Z</time>
        <extensions>
          <ns3:TrackPointExtension>
            <ns3:atemp>16.0</ns3:atemp>
          </ns3:TrackPointExtension>
        </extensions>
      </trkpt>
      <trkpt lat="42.563932947814464569091796875" lon="20.0473567284643650054931640625">
        <ele>2104.800048828125</ele>
        <time>2026-06-15T11:49:40.000Z</time>
        <extensions>
          <ns3:TrackPointExtension>
            <ns3:atemp>16.0</ns3:atemp>
          </ns3:TrackPointExtension>
        </extensions>
      </trkpt>
      <trkpt lat="42.563932947814464569091796875" lon="20.0473567284643650054931640625">
        <ele>2105</ele>
        <time>2026-06-15T11:49:41.000Z</time>
        <extensions>
          <ns3:TrackPointExtension>
            <ns3:atemp>16.0</ns3:atemp>
          </ns3:TrackPointExtension>
        </extensions>
      </trkpt>
      <trkpt lat="42.56393303163349628448486328125" lon="20.04735681228339672088623046875">
        <ele>2104.60009765625</ele>
        <time>2026-06-15T11:49:42.000Z</time>
        <extensions>
          <ns3:TrackPointExtension>
            <ns3:atemp>16.0</ns3:atemp>
          </ns3:TrackPointExtension>
        </extensions>
      </trkpt>
      <trkpt lat="42.56393487565219402313232421875" lon="20.04736670292913913726806640625">
        <ele>2104.60009765625</ele>
        <time>2026-06-15T11:49:43.000Z</time>
        <extensions>
          <ns3:TrackPointExtension>
            <ns3:atemp>16.0</ns3:atemp>
          </ns3:TrackPointExtension>
        </extensions>
      </trkpt>
      <trkpt lat="42.56393873132765293121337890625" lon="20.0473773479461669921875">
        <ele>2104.39990234375</ele>
        <time>2026-06-15T11:49:44.000Z</time>
        <extensions>
          <ns3:TrackPointExtension>
            <ns3:atemp>16.0</ns3:atemp>
          </ns3:TrackPointExtension>
        </extensions>
      </trkpt>
      <trkpt lat="42.56394468247890472412109375" lon="20.0473949499428272247314453125">
        <ele>2104.199951171875</ele>
        <time>2026-06-15T11:49:45.000Z</time>
        <extensions>
          <ns3:TrackPointExtension>
            <ns3:atemp>16.0</ns3:atemp>
          </ns3:TrackPointExtension>
        </extensions>
      </trkpt>
      <trkpt lat="42.56395096890628337860107421875" lon="20.04741934128105640411376953125">
        <ele>2104.199951171875</ele>
        <time>2026-06-15T11:49:46.000Z</time>
        <extensions>
          <ns3:TrackPointExtension>
            <ns3:atemp>16.0</ns3:atemp>
          </ns3:TrackPointExtension>
        </extensions>
      </trkpt>
      <trkpt lat="42.56396572105586528778076171875" lon="20.047448091208934783935546875">
        <ele>2104.199951171875</ele>
        <time>2026-06-15T11:49:47.000Z</time>
        <extensions>
          <ns3:TrackPointExtension>
            <ns3:atemp>16.0</ns3:atemp>
          </ns3:TrackPointExtension>
        </extensions>
      </trkpt>
      <trkpt lat="42.56397846154868602752685546875" lon="20.04748119972646236419677734375">
        <ele>2104.39990234375</ele>
        <time>2026-06-15T11:49:48.000Z</time>
        <extensions>
          <ns3:TrackPointExtension>
            <ns3:atemp>16.0</ns3:atemp>
          </ns3:TrackPointExtension>
        </extensions>
      </trkpt>
      <trkpt lat="42.56398935802280902862548828125" lon="20.04751506261527538299560546875">
        <ele>2104.39990234375</ele>
        <time>2026-06-15T11:49:49.000Z</time>
        <extensions>
          <ns3:TrackPointExtension>
            <ns3:atemp>16.0</ns3:atemp>
          </ns3:TrackPointExtension>
        </extensions>
      </trkpt>
      <trkpt lat="42.56399841047823429107666015625" lon="20.0475491769611835479736328125">
        <ele>2104.60009765625</ele>
        <time>2026-06-15T11:49:50.000Z</time>
        <extensions>
          <ns3:TrackPointExtension>
            <ns3:atemp>16.0</ns3:atemp>
          </ns3:TrackPointExtension>
        </extensions>
      </trkpt>
      <trkpt lat="42.56400679238140583038330078125" lon="20.047579519450664520263671875">
        <ele>2104.800048828125</ele>
        <time>2026-06-15T11:49:51.000Z</time>
        <extensions>
          <ns3:TrackPointExtension>
            <ns3:atemp>16.0</ns3:atemp>
          </ns3:TrackPointExtension>
        </extensions>
      </trkpt>
      <trkpt lat="42.5640159286558628082275390625" lon="20.04760474897921085357666015625">
        <ele>2105</ele>
        <time>2026-06-15T11:49:52.000Z</time>
        <extensions>
          <ns3:TrackPointExtension>
            <ns3:atemp>16.0</ns3:atemp>
          </ns3:TrackPointExtension>
        </extensions>
      </trkpt>
      <trkpt lat="42.56403244100511074066162109375" lon="20.04762922413647174835205078125">
        <ele>2105</ele>
        <time>2026-06-15T11:49:53.000Z</time>
        <extensions>
          <ns3:TrackPointExtension>
            <ns3:atemp>16.0</ns3:atemp>
          </ns3:TrackPointExtension>
        </extensions>
      </trkpt>
      <trkpt lat="42.56404803134500980377197265625" lon="20.0476514361798763275146484375">
        <ele>2105.199951171875</ele>
        <time>2026-06-15T11:49:54.000Z</time>
        <extensions>
          <ns3:TrackPointExtension>
            <ns3:atemp>16.0</ns3:atemp>
          </ns3:TrackPointExtension>
        </extensions>
      </trkpt>
      <trkpt lat="42.564060352742671966552734375" lon="20.04767130129039287567138671875">
        <ele>2105.60009765625</ele>
        <time>2026-06-15T11:49:55.000Z</time>
        <extensions>
          <ns3:TrackPointExtension>
            <ns3:atemp>16.0</ns3:atemp>
          </ns3:TrackPointExtension>
        </extensions>
      </trkpt>
      <trkpt lat="42.5640742667019367218017578125" lon="20.04768990911543369293212890625">
        <ele>2106</ele>
        <time>2026-06-15T11:49:56.000Z</time>
        <extensions>
          <ns3:TrackPointExtension>
            <ns3:atemp>16.0</ns3:atemp>
          </ns3:TrackPointExtension>
        </extensions>
      </trkpt>
      <trkpt lat="42.56409061141312122344970703125" lon="20.04771186970174312591552734375">
        <ele>2106.39990234375</ele>
        <time>2026-06-15T11:49:57.000Z</time>
        <extensions>
          <ns3:TrackPointExtension>
            <ns3:atemp>16.0</ns3:atemp>
          </ns3:TrackPointExtension>
        </extensions>
      </trkpt>
      <trkpt lat="42.564107961952686309814453125" lon="20.0477352552115917205810546875">
        <ele>2106.800048828125</ele>
        <time>2026-06-15T11:49:58.000Z</time>
        <extensions>
          <ns3:TrackPointExtension>
            <ns3:atemp>16.0</ns3:atemp>
          </ns3:TrackPointExtension>
        </extensions>
      </trkpt>
      <trkpt lat="42.56412061862647533416748046875" lon="20.0477637536823749542236328125">
        <ele>2107.39990234375</ele>
        <time>2026-06-15T11:49:59.000Z</time>
        <extensions>
          <ns3:TrackPointExtension>
            <ns3:atemp>16.0</ns3:atemp>
          </ns3:TrackPointExtension>
        </extensions>
      </trkpt>
      <trkpt lat="42.5641264021396636962890625" lon="20.0477905757725238800048828125">
        <ele>2108</ele>
        <time>2026-06-15T11:50:00.000Z</time>
        <extensions>
          <ns3:TrackPointExtension>
            <ns3:atemp>16.0</ns3:atemp>
          </ns3:TrackPointExtension>
        </extensions>
      </trkpt>
      <trkpt lat="42.56412447430193424224853515625" lon="20.0478163920342922210693359375">
        <ele>2108.199951171875</ele>
        <time>2026-06-15T11:50:01.000Z</time>
        <extensions>
          <ns3:TrackPointExtension>
            <ns3:atemp>16.0</ns3:atemp>
          </ns3:TrackPointExtension>
        </extensions>
      </trkpt>
      <trkpt lat="42.5641228817403316497802734375" lon="20.04784581251442432403564453125">
        <ele>2108.39990234375</ele>
        <time>2026-06-15T11:50:02.000Z</time>
        <extensions>
          <ns3:TrackPointExtension>
            <ns3:atemp>16.0</ns3:atemp>
          </ns3:TrackPointExtension>
        </extensions>
      </trkpt>
      <trkpt lat="42.56412279792129993438720703125" lon="20.04787690937519073486328125">
        <ele>2108.60009765625</ele>
        <time>2026-06-15T11:50:03.000Z</time>
        <extensions>
          <ns3:TrackPointExtension>
            <ns3:atemp>16.0</ns3:atemp>
          </ns3:TrackPointExtension>
        </extensions>
      </trkpt>
      <trkpt lat="42.56412330083549022674560546875" lon="20.047907419502735137939453125">
        <ele>2108.60009765625</ele>
        <time>2026-06-15T11:50:04.000Z</time>
        <extensions>
          <ns3:TrackPointExtension>
            <ns3:atemp>16.0</ns3:atemp>
          </ns3:TrackPointExtension>
        </extensions>
      </trkpt>
      <trkpt lat="42.56413101218640804290771484375" lon="20.047934912145137786865234375">
        <ele>2108.800048828125</ele>
        <time>2026-06-15T11:50:05.000Z</time>
        <extensions>
          <ns3:TrackPointExtension>
            <ns3:atemp>16.0</ns3:atemp>
          </ns3:TrackPointExtension>
        </extensions>
      </trkpt>
      <trkpt lat="42.56414241157472133636474609375" lon="20.0479595549404621124267578125">
        <ele>2108.800048828125</ele>
        <time>2026-06-15T11:50:06.000Z</time>
        <extensions>
          <ns3:TrackPointExtension>
            <ns3:atemp>16.0</ns3:atemp>
          </ns3:TrackPointExtension>
        </extensions>
      </trkpt>
      <trkpt lat="42.56415330804884433746337890625" lon="20.04798126406967639923095703125">
        <ele>2109.199951171875</ele>
        <time>2026-06-15T11:50:07.000Z</time>
        <extensions>
          <ns3:TrackPointExtension>
            <ns3:atemp>16.0</ns3:atemp>
          </ns3:TrackPointExtension>
        </extensions>
      </trkpt>
      <trkpt lat="42.5641580857336521148681640625" lon="20.0480064935982227325439453125">
        <ele>2109.60009765625</ele>
        <time>2026-06-15T11:50:08.000Z</time>
        <extensions>
          <ns3:TrackPointExtension>
            <ns3:atemp>16.0</ns3:atemp>
          </ns3:TrackPointExtension>
        </extensions>
      </trkpt>
      <trkpt lat="42.5641597621142864227294921875" lon="20.04803524352610111236572265625">
        <ele>2110</ele>
        <time>2026-06-15T11:50:09.000Z</time>
        <extensions>
          <ns3:TrackPointExtension>
            <ns3:atemp>16.0</ns3:atemp>
          </ns3:TrackPointExtension>
        </extensions>
      </trkpt>
      <trkpt lat="42.5641664676368236541748046875" lon="20.0480648316442966461181640625">
        <ele>2110.39990234375</ele>
        <time>2026-06-15T11:50:10.000Z</time>
        <extensions>
          <ns3:TrackPointExtension>
            <ns3:atemp>16.0</ns3:atemp>
          </ns3:TrackPointExtension>
        </extensions>
      </trkpt>
      <trkpt lat="42.56417275406420230865478515625" lon="20.0480879656970500946044921875">
        <ele>2110.60009765625</ele>
        <time>2026-06-15T11:50:11.000Z</time>
        <extensions>
          <ns3:TrackPointExtension>
            <ns3:atemp>16.0</ns3:atemp>
          </ns3:TrackPointExtension>
        </extensions>
      </trkpt>
      <trkpt lat="42.56417694501578807830810546875" lon="20.04808704368770122528076171875">
        <ele>2111</ele>
        <time>2026-06-15T11:50:12.000Z</time>
        <extensions>
          <ns3:TrackPointExtension>
            <ns3:atemp>16.0</ns3:atemp>
          </ns3:TrackPointExtension>
        </extensions>
      </trkpt>
      <trkpt lat="42.564179711043834686279296875" lon="20.04808587022125720977783203125">
        <ele>2111.199951171875</ele>
        <time>2026-06-15T11:50:13.000Z</time>
        <extensions>
          <ns3:TrackPointExtension>
            <ns3:atemp>16.0</ns3:atemp>
          </ns3:TrackPointExtension>
        </extensions>
      </trkpt>
      <trkpt lat="42.5641795434057712554931640625" lon="20.04808587022125720977783203125">
        <ele>2111.60009765625</ele>
        <time>2026-06-15T11:50:14.000Z</time>
        <extensions>
          <ns3:TrackPointExtension>
            <ns3:atemp>16.0</ns3:atemp>
          </ns3:TrackPointExtension>
        </extensions>
      </trkpt>
      <trkpt lat="42.5641795434057712554931640625" lon="20.04808587022125720977783203125">
        <ele>2111.800048828125</ele>
        <time>2026-06-15T11:50:15.000Z</time>
        <extensions>
          <ns3:TrackPointExtension>
            <ns3:atemp>16.0</ns3:atemp>
          </ns3:TrackPointExtension>
        </extensions>
      </trkpt>
      <trkpt lat="42.56417929194867610931396484375" lon="20.04808587022125720977783203125">
        <ele>2111.800048828125</ele>
        <time>2026-06-15T11:50:16.000Z</time>
        <extensions>
          <ns3:TrackPointExtension>
            <ns3:atemp>16.0</ns3:atemp>
          </ns3:TrackPointExtension>
        </extensions>
      </trkpt>
      <trkpt lat="42.56417107768356800079345703125" lon="20.048082768917083740234375">
        <ele>2112</ele>
        <time>2026-06-15T11:50:17.000Z</time>
        <extensions>
          <ns3:TrackPointExtension>
            <ns3:atemp>16.0</ns3:atemp>
          </ns3:TrackPointExtension>
        </extensions>
      </trkpt>
      <trkpt lat="42.564170658588409423828125" lon="20.0480789132416248321533203125">
        <ele>2112.199951171875</ele>
        <time>2026-06-15T11:50:18.000Z</time>
        <extensions>
          <ns3:TrackPointExtension>
            <ns3:atemp>16.0</ns3:atemp>
          </ns3:TrackPointExtension>
        </extensions>
      </trkpt>
      <trkpt lat="42.56416889838874340057373046875" lon="20.0480752252042293548583984375">
        <ele>2112.60009765625</ele>
        <time>2026-06-15T11:50:19.000Z</time>
        <extensions>
          <ns3:TrackPointExtension>
            <ns3:atemp>16.0</ns3:atemp>
          </ns3:TrackPointExtension>
        </extensions>
      </trkpt>
      <trkpt lat="42.564170323312282562255859375" lon="20.04806407727301120758056640625">
        <ele>2112.60009765625</ele>
        <time>2026-06-15T11:50:20.000Z</time>
        <extensions>
          <ns3:TrackPointExtension>
            <ns3:atemp>16.0</ns3:atemp>
          </ns3:TrackPointExtension>
        </extensions>
      </trkpt>
      <trkpt lat="42.564170323312282562255859375" lon="20.0480641610920429229736328125">
        <ele>2112.800048828125</ele>
        <time>2026-06-15T11:50:21.000Z</time>
        <extensions>
          <ns3:TrackPointExtension>
            <ns3:atemp>16.0</ns3:atemp>
          </ns3:TrackPointExtension>
        </extensions>
      </trkpt>
      <trkpt lat="42.564170323312282562255859375" lon="20.04806424491107463836669921875">
        <ele>2112.60009765625</ele>
        <time>2026-06-15T11:50:22.000Z</time>
        <extensions>
          <ns3:TrackPointExtension>
            <ns3:atemp>16.0</ns3:atemp>
          </ns3:TrackPointExtension>
        </extensions>
      </trkpt>
      <trkpt lat="42.564170323312282562255859375" lon="20.04806424491107463836669921875">
        <ele>2112</ele>
        <time>2026-06-15T11:50:23.000Z</time>
        <extensions>
          <ns3:TrackPointExtension>
            <ns3:atemp>16.0</ns3:atemp>
          </ns3:TrackPointExtension>
        </extensions>
      </trkpt>
      <trkpt lat="42.564170323312282562255859375" lon="20.04806424491107463836669921875">
        <ele>2111.60009765625</ele>
        <time>2026-06-15T11:50:24.000Z</time>
        <extensions>
          <ns3:TrackPointExtension>
            <ns3:atemp>16.0</ns3:atemp>
          </ns3:TrackPointExtension>
        </extensions>
      </trkpt>
      <trkpt lat="42.564170323312282562255859375" lon="20.04806424491107463836669921875">
        <ele>2111.199951171875</ele>
        <time>2026-06-15T11:50:25.000Z</time>
        <extensions>
          <ns3:TrackPointExtension>
            <ns3:atemp>16.0</ns3:atemp>
          </ns3:TrackPointExtension>
        </extensions>
      </trkpt>
      <trkpt lat="42.564170323312282562255859375" lon="20.04806424491107463836669921875">
        <ele>2111</ele>
        <time>2026-06-15T11:50:26.000Z</time>
        <extensions>
          <ns3:TrackPointExtension>
            <ns3:atemp>16.0</ns3:atemp>
          </ns3:TrackPointExtension>
        </extensions>
      </trkpt>
      <trkpt lat="42.564170323312282562255859375" lon="20.04806424491107463836669921875">
        <ele>2111.199951171875</ele>
        <time>2026-06-15T11:50:27.000Z</time>
        <extensions>
          <ns3:TrackPointExtension>
            <ns3:atemp>16.0</ns3:atemp>
          </ns3:TrackPointExtension>
        </extensions>
      </trkpt>
      <trkpt lat="42.564170323312282562255859375" lon="20.04806424491107463836669921875">
        <ele>2111.39990234375</ele>
        <time>2026-06-15T11:50:28.000Z</time>
        <extensions>
          <ns3:TrackPointExtension>
            <ns3:atemp>16.0</ns3:atemp>
          </ns3:TrackPointExtension>
        </extensions>
      </trkpt>
      <trkpt lat="42.564170323312282562255859375" lon="20.04806424491107463836669921875">
        <ele>2111.60009765625</ele>
        <time>2026-06-15T11:50:29.000Z</time>
        <extensions>
          <ns3:TrackPointExtension>
            <ns3:atemp>16.0</ns3:atemp>
          </ns3:TrackPointExtension>
        </extensions>
      </trkpt>
      <trkpt lat="42.564170323312282562255859375" lon="20.04806424491107463836669921875">
        <ele>2111.800048828125</ele>
        <time>2026-06-15T11:50:30.000Z</time>
        <extensions>
          <ns3:TrackPointExtension>
            <ns3:atemp>16.0</ns3:atemp>
          </ns3:TrackPointExtension>
        </extensions>
      </trkpt>
      <trkpt lat="42.564170323312282562255859375" lon="20.04806424491107463836669921875">
        <ele>2112</ele>
        <time>2026-06-15T11:50:31.000Z</time>
        <extensions>
          <ns3:TrackPointExtension>
            <ns3:atemp>16.0</ns3:atemp>
          </ns3:TrackPointExtension>
        </extensions>
      </trkpt>
      <trkpt lat="42.564170323312282562255859375" lon="20.04806424491107463836669921875">
        <ele>2112</ele>
        <time>2026-06-15T11:50:32.000Z</time>
        <extensions>
          <ns3:TrackPointExtension>
            <ns3:atemp>16.0</ns3:atemp>
          </ns3:TrackPointExtension>
        </extensions>
      </trkpt>
      <trkpt lat="42.564170323312282562255859375" lon="20.04806424491107463836669921875">
        <ele>2112</ele>
        <time>2026-06-15T11:50:33.000Z</time>
        <extensions>
          <ns3:TrackPointExtension>
            <ns3:atemp>16.0</ns3:atemp>
          </ns3:TrackPointExtension>
        </extensions>
      </trkpt>
      <trkpt lat="42.564170323312282562255859375" lon="20.04806424491107463836669921875">
        <ele>2112</ele>
        <time>2026-06-15T11:50:34.000Z</time>
        <extensions>
          <ns3:TrackPointExtension>
            <ns3:atemp>16.0</ns3:atemp>
          </ns3:TrackPointExtension>
        </extensions>
      </trkpt>
      <trkpt lat="42.564170323312282562255859375" lon="20.04806424491107463836669921875">
        <ele>2112</ele>
        <time>2026-06-15T11:50:35.000Z</time>
        <extensions>
          <ns3:TrackPointExtension>
            <ns3:atemp>16.0</ns3:atemp>
          </ns3:TrackPointExtension>
        </extensions>
      </trkpt>
      <trkpt lat="42.564170323312282562255859375" lon="20.04806424491107463836669921875">
        <ele>2111.800048828125</ele>
        <time>2026-06-15T11:50:36.000Z</time>
        <extensions>
          <ns3:TrackPointExtension>
            <ns3:atemp>16.0</ns3:atemp>
          </ns3:TrackPointExtension>
        </extensions>
      </trkpt>
      <trkpt lat="42.564170323312282562255859375" lon="20.04806424491107463836669921875">
        <ele>2112</ele>
        <time>2026-06-15T11:50:37.000Z</time>
        <extensions>
          <ns3:TrackPointExtension>
            <ns3:atemp>16.0</ns3:atemp>
          </ns3:TrackPointExtension>
        </extensions>
      </trkpt>
      <trkpt lat="42.564170323312282562255859375" lon="20.04806424491107463836669921875">
        <ele>2112</ele>
        <time>2026-06-15T11:50:38.000Z</time>
        <extensions>
          <ns3:TrackPointExtension>
            <ns3:atemp>16.0</ns3:atemp>
          </ns3:TrackPointExtension>
        </extensions>
      </trkpt>
      <trkpt lat="42.564170323312282562255859375" lon="20.04806424491107463836669921875">
        <ele>2112.199951171875</ele>
        <time>2026-06-15T11:50:39.000Z</time>
        <extensions>
          <ns3:TrackPointExtension>
            <ns3:atemp>16.0</ns3:atemp>
          </ns3:TrackPointExtension>
        </extensions>
      </trkpt>
      <trkpt lat="42.564170323312282562255859375" lon="20.04806424491107463836669921875">
        <ele>2112.199951171875</ele>
        <time>2026-06-15T11:50:40.000Z</time>
        <extensions>
          <ns3:TrackPointExtension>
            <ns3:atemp>16.0</ns3:atemp>
          </ns3:TrackPointExtension>
        </extensions>
      </trkpt>
      <trkpt lat="42.564170323312282562255859375" lon="20.04806424491107463836669921875">
        <ele>2112.39990234375</ele>
        <time>2026-06-15T11:50:41.000Z</time>
        <extensions>
          <ns3:TrackPointExtension>
            <ns3:atemp>16.0</ns3:atemp>
          </ns3:TrackPointExtension>
        </extensions>
      </trkpt>
      <trkpt lat="42.564170323312282562255859375" lon="20.04806424491107463836669921875">
        <ele>2112.39990234375</ele>
        <time>2026-06-15T11:50:42.000Z</time>
        <extensions>
          <ns3:TrackPointExtension>
            <ns3:atemp>16.0</ns3:atemp>
          </ns3:TrackPointExtension>
        </extensions>
      </trkpt>
      <trkpt lat="42.564170323312282562255859375" lon="20.04806424491107463836669921875">
        <ele>2112.39990234375</ele>
        <time>2026-06-15T11:50:43.000Z</time>
        <extensions>
          <ns3:TrackPointExtension>
            <ns3:atemp>16.0</ns3:atemp>
          </ns3:TrackPointExtension>
        </extensions>
      </trkpt>
      <trkpt lat="42.564170323312282562255859375" lon="20.04806424491107463836669921875">
        <ele>2112.39990234375</ele>
        <time>2026-06-15T11:50:44.000Z</time>
        <extensions>
          <ns3:TrackPointExtension>
            <ns3:atemp>16.0</ns3:atemp>
          </ns3:TrackPointExtension>
        </extensions>
      </trkpt>
      <trkpt lat="42.564170323312282562255859375" lon="20.04806424491107463836669921875">
        <ele>2112.39990234375</ele>
        <time>2026-06-15T11:50:45.000Z</time>
        <extensions>
          <ns3:TrackPointExtension>
            <ns3:atemp>16.0</ns3:atemp>
          </ns3:TrackPointExtension>
        </extensions>
      </trkpt>
      <trkpt lat="42.564170323312282562255859375" lon="20.04806424491107463836669921875">
        <ele>2112.39990234375</ele>
        <time>2026-06-15T11:50:46.000Z</time>
        <extensions>
          <ns3:TrackPointExtension>
            <ns3:atemp>16.0</ns3:atemp>
          </ns3:TrackPointExtension>
        </extensions>
      </trkpt>
      <trkpt lat="42.564170323312282562255859375" lon="20.04806424491107463836669921875">
        <ele>2112.39990234375</ele>
        <time>2026-06-15T11:50:47.000Z</time>
        <extensions>
          <ns3:TrackPointExtension>
            <ns3:atemp>16.0</ns3:atemp>
          </ns3:TrackPointExtension>
        </extensions>
      </trkpt>
      <trkpt lat="42.564170323312282562255859375" lon="20.04806424491107463836669921875">
        <ele>2112.39990234375</ele>
        <time>2026-06-15T11:50:48.000Z</time>
        <extensions>
          <ns3:TrackPointExtension>
            <ns3:atemp>16.0</ns3:atemp>
          </ns3:TrackPointExtension>
        </extensions>
      </trkpt>
      <trkpt lat="42.564170323312282562255859375" lon="20.04806424491107463836669921875">
        <ele>2112.39990234375</ele>
        <time>2026-06-15T11:50:49.000Z</time>
        <extensions>
          <ns3:TrackPointExtension>
            <ns3:atemp>16.0</ns3:atemp>
          </ns3:TrackPointExtension>
        </extensions>
      </trkpt>
      <trkpt lat="42.564170323312282562255859375" lon="20.04806424491107463836669921875">
        <ele>2112.39990234375</ele>
        <time>2026-06-15T11:50:50.000Z</time>
        <extensions>
          <ns3:TrackPointExtension>
            <ns3:atemp>16.0</ns3:atemp>
          </ns3:TrackPointExtension>
        </extensions>
      </trkpt>
      <trkpt lat="42.564170323312282562255859375" lon="20.04806424491107463836669921875">
        <ele>2112.39990234375</ele>
        <time>2026-06-15T11:50:51.000Z</time>
        <extensions>
          <ns3:TrackPointExtension>
            <ns3:atemp>16.0</ns3:atemp>
          </ns3:TrackPointExtension>
        </extensions>
      </trkpt>
      <trkpt lat="42.564170323312282562255859375" lon="20.04806424491107463836669921875">
        <ele>2112.39990234375</ele>
        <time>2026-06-15T11:50:52.000Z</time>
        <extensions>
          <ns3:TrackPointExtension>
            <ns3:atemp>16.0</ns3:atemp>
          </ns3:TrackPointExtension>
        </extensions>
      </trkpt>
      <trkpt lat="42.564170323312282562255859375" lon="20.04806424491107463836669921875">
        <ele>2112.199951171875</ele>
        <time>2026-06-15T11:50:53.000Z</time>
        <extensions>
          <ns3:TrackPointExtension>
            <ns3:atemp>16.0</ns3:atemp>
          </ns3:TrackPointExtension>
        </extensions>
      </trkpt>
      <trkpt lat="42.564170323312282562255859375" lon="20.04806424491107463836669921875">
        <ele>2112.199951171875</ele>
        <time>2026-06-15T11:50:54.000Z</time>
        <extensions>
          <ns3:TrackPointExtension>
            <ns3:atemp>16.0</ns3:atemp>
          </ns3:TrackPointExtension>
        </extensions>
      </trkpt>
      <trkpt lat="42.564170323312282562255859375" lon="20.04806424491107463836669921875">
        <ele>2112</ele>
        <time>2026-06-15T11:50:55.000Z</time>
        <extensions>
          <ns3:TrackPointExtension>
            <ns3:atemp>16.0</ns3:atemp>
          </ns3:TrackPointExtension>
        </extensions>
      </trkpt>
      <trkpt lat="42.564170323312282562255859375" lon="20.04806424491107463836669921875">
        <ele>2112</ele>
        <time>2026-06-15T11:50:56.000Z</time>
        <extensions>
          <ns3:TrackPointExtension>
            <ns3:atemp>16.0</ns3:atemp>
          </ns3:TrackPointExtension>
        </extensions>
      </trkpt>
      <trkpt lat="42.564170323312282562255859375" lon="20.04806424491107463836669921875">
        <ele>2112</ele>
        <time>2026-06-15T11:50:57.000Z</time>
        <extensions>
          <ns3:TrackPointExtension>
            <ns3:atemp>16.0</ns3:atemp>
          </ns3:TrackPointExtension>
        </extensions>
      </trkpt>
      <trkpt lat="42.564170323312282562255859375" lon="20.04806424491107463836669921875">
        <ele>2111.800048828125</ele>
        <time>2026-06-15T11:50:58.000Z</time>
        <extensions>
          <ns3:TrackPointExtension>
            <ns3:atemp>16.0</ns3:atemp>
          </ns3:TrackPointExtension>
        </extensions>
      </trkpt>
      <trkpt lat="42.564170323312282562255859375" lon="20.04806424491107463836669921875">
        <ele>2112</ele>
        <time>2026-06-15T11:50:59.000Z</time>
        <extensions>
          <ns3:TrackPointExtension>
            <ns3:atemp>16.0</ns3:atemp>
          </ns3:TrackPointExtension>
        </extensions>
      </trkpt>
      <trkpt lat="42.564170323312282562255859375" lon="20.04806424491107463836669921875">
        <ele>2111.800048828125</ele>
        <time>2026-06-15T11:51:00.000Z</time>
        <extensions>
          <ns3:TrackPointExtension>
            <ns3:atemp>16.0</ns3:atemp>
          </ns3:TrackPointExtension>
        </extensions>
      </trkpt>
      <trkpt lat="42.564170323312282562255859375" lon="20.04806424491107463836669921875">
        <ele>2111.800048828125</ele>
        <time>2026-06-15T11:51:01.000Z</time>
        <extensions>
          <ns3:TrackPointExtension>
            <ns3:atemp>16.0</ns3:atemp>
          </ns3:TrackPointExtension>
        </extensions>
      </trkpt>
      <trkpt lat="42.564170323312282562255859375" lon="20.04806424491107463836669921875">
        <ele>2111.800048828125</ele>
        <time>2026-06-15T11:51:02.000Z</time>
        <extensions>
          <ns3:TrackPointExtension>
            <ns3:atemp>16.0</ns3:atemp>
          </ns3:TrackPointExtension>
        </extensions>
      </trkpt>
      <trkpt lat="42.564170323312282562255859375" lon="20.04806424491107463836669921875">
        <ele>2111.60009765625</ele>
        <time>2026-06-15T11:51:03.000Z</time>
        <extensions>
          <ns3:TrackPointExtension>
            <ns3:atemp>16.0</ns3:atemp>
          </ns3:TrackPointExtension>
        </extensions>
      </trkpt>
      <trkpt lat="42.564170323312282562255859375" lon="20.04806424491107463836669921875">
        <ele>2111.60009765625</ele>
        <time>2026-06-15T11:51:04.000Z</time>
        <extensions>
          <ns3:TrackPointExtension>
            <ns3:atemp>16.0</ns3:atemp>
          </ns3:TrackPointExtension>
        </extensions>
      </trkpt>
      <trkpt lat="42.564170323312282562255859375" lon="20.04806424491107463836669921875">
        <ele>2111.60009765625</ele>
        <time>2026-06-15T11:51:05.000Z</time>
        <extensions>
          <ns3:TrackPointExtension>
            <ns3:atemp>16.0</ns3:atemp>
          </ns3:TrackPointExtension>
        </extensions>
      </trkpt>
      <trkpt lat="42.564170323312282562255859375" lon="20.04806424491107463836669921875">
        <ele>2111.39990234375</ele>
        <time>2026-06-15T11:51:06.000Z</time>
        <extensions>
          <ns3:TrackPointExtension>
            <ns3:atemp>16.0</ns3:atemp>
          </ns3:TrackPointExtension>
        </extensions>
      </trkpt>
      <trkpt lat="42.564170323312282562255859375" lon="20.04806424491107463836669921875">
        <ele>2111.39990234375</ele>
        <time>2026-06-15T11:51:07.000Z</time>
        <extensions>
          <ns3:TrackPointExtension>
            <ns3:atemp>16.0</ns3:atemp>
          </ns3:TrackPointExtension>
        </extensions>
      </trkpt>
      <trkpt lat="42.564170323312282562255859375" lon="20.04806424491107463836669921875">
        <ele>2111.39990234375</ele>
        <time>2026-06-15T11:51:08.000Z</time>
        <extensions>
          <ns3:TrackPointExtension>
            <ns3:atemp>16.0</ns3:atemp>
          </ns3:TrackPointExtension>
        </extensions>
      </trkpt>
      <trkpt lat="42.564170323312282562255859375" lon="20.04806424491107463836669921875">
        <ele>2111.199951171875</ele>
        <time>2026-06-15T11:51:09.000Z</time>
        <extensions>
          <ns3:TrackPointExtension>
            <ns3:atemp>16.0</ns3:atemp>
          </ns3:TrackPointExtension>
        </extensions>
      </trkpt>
      <trkpt lat="42.564170323312282562255859375" lon="20.04806424491107463836669921875">
        <ele>2111.199951171875</ele>
        <time>2026-06-15T11:51:10.000Z</time>
        <extensions>
          <ns3:TrackPointExtension>
            <ns3:atemp>16.0</ns3:atemp>
          </ns3:TrackPointExtension>
        </extensions>
      </trkpt>
      <trkpt lat="42.564170323312282562255859375" lon="20.04806424491107463836669921875">
        <ele>2111.39990234375</ele>
        <time>2026-06-15T11:51:11.000Z</time>
        <extensions>
          <ns3:TrackPointExtension>
            <ns3:atemp>16.0</ns3:atemp>
          </ns3:TrackPointExtension>
        </extensions>
      </trkpt>
      <trkpt lat="42.564170323312282562255859375" lon="20.04806424491107463836669921875">
        <ele>2111.39990234375</ele>
        <time>2026-06-15T11:51:12.000Z</time>
        <extensions>
          <ns3:TrackPointExtension>
            <ns3:atemp>16.0</ns3:atemp>
          </ns3:TrackPointExtension>
        </extensions>
      </trkpt>
      <trkpt lat="42.564170323312282562255859375" lon="20.04806424491107463836669921875">
        <ele>2111.39990234375</ele>
        <time>2026-06-15T11:51:13.000Z</time>
        <extensions>
          <ns3:TrackPointExtension>
            <ns3:atemp>16.0</ns3:atemp>
          </ns3:TrackPointExtension>
        </extensions>
      </trkpt>
      <trkpt lat="42.564170323312282562255859375" lon="20.04806424491107463836669921875">
        <ele>2111.39990234375</ele>
        <time>2026-06-15T11:51:14.000Z</time>
        <extensions>
          <ns3:TrackPointExtension>
            <ns3:atemp>16.0</ns3:atemp>
          </ns3:TrackPointExtension>
        </extensions>
      </trkpt>
      <trkpt lat="42.564170323312282562255859375" lon="20.04806424491107463836669921875">
        <ele>2111.60009765625</ele>
        <time>2026-06-15T11:51:15.000Z</time>
        <extensions>
          <ns3:TrackPointExtension>
            <ns3:atemp>16.0</ns3:atemp>
          </ns3:TrackPointExtension>
        </extensions>
      </trkpt>
      <trkpt lat="42.564170323312282562255859375" lon="20.04806424491107463836669921875">
        <ele>2111.60009765625</ele>
        <time>2026-06-15T11:51:16.000Z</time>
        <extensions>
          <ns3:TrackPointExtension>
            <ns3:atemp>16.0</ns3:atemp>
          </ns3:TrackPointExtension>
        </extensions>
      </trkpt>
      <trkpt lat="42.564170323312282562255859375" lon="20.04806424491107463836669921875">
        <ele>2111.60009765625</ele>
        <time>2026-06-15T11:51:17.000Z</time>
        <extensions>
          <ns3:TrackPointExtension>
            <ns3:atemp>16.0</ns3:atemp>
          </ns3:TrackPointExtension>
        </extensions>
      </trkpt>
      <trkpt lat="42.564170323312282562255859375" lon="20.04806424491107463836669921875">
        <ele>2111.60009765625</ele>
        <time>2026-06-15T11:51:18.000Z</time>
        <extensions>
          <ns3:TrackPointExtension>
            <ns3:atemp>16.0</ns3:atemp>
          </ns3:TrackPointExtension>
        </extensions>
      </trkpt>
      <trkpt lat="42.564170323312282562255859375" lon="20.04806424491107463836669921875">
        <ele>2111.60009765625</ele>
        <time>2026-06-15T11:51:19.000Z</time>
        <extensions>
          <ns3:TrackPointExtension>
            <ns3:atemp>16.0</ns3:atemp>
          </ns3:TrackPointExtension>
        </extensions>
      </trkpt>
      <trkpt lat="42.564170323312282562255859375" lon="20.04806424491107463836669921875">
        <ele>2111.60009765625</ele>
        <time>2026-06-15T11:51:20.000Z</time>
        <extensions>
          <ns3:TrackPointExtension>
            <ns3:atemp>16.0</ns3:atemp>
          </ns3:TrackPointExtension>
        </extensions>
      </trkpt>
      <trkpt lat="42.564170323312282562255859375" lon="20.04806424491107463836669921875">
        <ele>2111.39990234375</ele>
        <time>2026-06-15T11:51:21.000Z</time>
        <extensions>
          <ns3:TrackPointExtension>
            <ns3:atemp>16.0</ns3:atemp>
          </ns3:TrackPointExtension>
        </extensions>
      </trkpt>
      <trkpt lat="42.564170323312282562255859375" lon="20.04806424491107463836669921875">
        <ele>2111.39990234375</ele>
        <time>2026-06-15T11:51:22.000Z</time>
        <extensions>
          <ns3:TrackPointExtension>
            <ns3:atemp>16.0</ns3:atemp>
          </ns3:TrackPointExtension>
        </extensions>
      </trkpt>
      <trkpt lat="42.564170323312282562255859375" lon="20.04806424491107463836669921875">
        <ele>2111.39990234375</ele>
        <time>2026-06-15T11:51:23.000Z</time>
        <extensions>
          <ns3:TrackPointExtension>
            <ns3:atemp>16.0</ns3:atemp>
          </ns3:TrackPointExtension>
        </extensions>
      </trkpt>
      <trkpt lat="42.564170323312282562255859375" lon="20.04806424491107463836669921875">
        <ele>2111.39990234375</ele>
        <time>2026-06-15T11:51:24.000Z</time>
        <extensions>
          <ns3:TrackPointExtension>
            <ns3:atemp>16.0</ns3:atemp>
          </ns3:TrackPointExtension>
        </extensions>
      </trkpt>
      <trkpt lat="42.564170323312282562255859375" lon="20.04806424491107463836669921875">
        <ele>2111.39990234375</ele>
        <time>2026-06-15T11:51:25.000Z</time>
        <extensions>
          <ns3:TrackPointExtension>
            <ns3:atemp>17.0</ns3:atemp>
          </ns3:TrackPointExtension>
        </extensions>
      </trkpt>
      <trkpt lat="42.564170323312282562255859375" lon="20.04806424491107463836669921875">
        <ele>2111.39990234375</ele>
        <time>2026-06-15T11:51:26.000Z</time>
        <extensions>
          <ns3:TrackPointExtension>
            <ns3:atemp>16.0</ns3:atemp>
          </ns3:TrackPointExtension>
        </extensions>
      </trkpt>
      <trkpt lat="42.564170323312282562255859375" lon="20.04806424491107463836669921875">
        <ele>2111.39990234375</ele>
        <time>2026-06-15T11:51:27.000Z</time>
        <extensions>
          <ns3:TrackPointExtension>
            <ns3:atemp>16.0</ns3:atemp>
          </ns3:TrackPointExtension>
        </extensions>
      </trkpt>
      <trkpt lat="42.564170323312282562255859375" lon="20.04806424491107463836669921875">
        <ele>2111.39990234375</ele>
        <time>2026-06-15T11:51:28.000Z</time>
        <extensions>
          <ns3:TrackPointExtension>
            <ns3:atemp>16.0</ns3:atemp>
          </ns3:TrackPointExtension>
        </extensions>
      </trkpt>
      <trkpt lat="42.564170323312282562255859375" lon="20.04806424491107463836669921875">
        <ele>2111.39990234375</ele>
        <time>2026-06-15T11:51:29.000Z</time>
        <extensions>
          <ns3:TrackPointExtension>
            <ns3:atemp>17.0</ns3:atemp>
          </ns3:TrackPointExtension>
        </extensions>
      </trkpt>
      <trkpt lat="42.564170323312282562255859375" lon="20.04806424491107463836669921875">
        <ele>2111.39990234375</ele>
        <time>2026-06-15T11:51:30.000Z</time>
        <extensions>
          <ns3:TrackPointExtension>
            <ns3:atemp>17.0</ns3:atemp>
          </ns3:TrackPointExtension>
        </extensions>
      </trkpt>
      <trkpt lat="42.564170323312282562255859375" lon="20.04806424491107463836669921875">
        <ele>2111.60009765625</ele>
        <time>2026-06-15T11:51:31.000Z</time>
        <extensions>
          <ns3:TrackPointExtension>
            <ns3:atemp>16.0</ns3:atemp>
          </ns3:TrackPointExtension>
        </extensions>
      </trkpt>
      <trkpt lat="42.564170323312282562255859375" lon="20.04806424491107463836669921875">
        <ele>2111.60009765625</ele>
        <time>2026-06-15T11:51:32.000Z</time>
        <extensions>
          <ns3:TrackPointExtension>
            <ns3:atemp>17.0</ns3:atemp>
          </ns3:TrackPointExtension>
        </extensions>
      </trkpt>
      <trkpt lat="42.564170323312282562255859375" lon="20.04806424491107463836669921875">
        <ele>2111.60009765625</ele>
        <time>2026-06-15T11:51:33.000Z</time>
        <extensions>
          <ns3:TrackPointExtension>
            <ns3:atemp>17.0</ns3:atemp>
          </ns3:TrackPointExtension>
        </extensions>
      </trkpt>
      <trkpt lat="42.564170323312282562255859375" lon="20.04806424491107463836669921875">
        <ele>2111.60009765625</ele>
        <time>2026-06-15T11:51:34.000Z</time>
        <extensions>
          <ns3:TrackPointExtension>
            <ns3:atemp>17.0</ns3:atemp>
          </ns3:TrackPointExtension>
        </extensions>
      </trkpt>
      <trkpt lat="42.564170323312282562255859375" lon="20.04806424491107463836669921875">
        <ele>2111.60009765625</ele>
        <time>2026-06-15T11:51:35.000Z</time>
        <extensions>
          <ns3:TrackPointExtension>
            <ns3:atemp>17.0</ns3:atemp>
          </ns3:TrackPointExtension>
        </extensions>
      </trkpt>
      <trkpt lat="42.564170323312282562255859375" lon="20.04806424491107463836669921875">
        <ele>2111.60009765625</ele>
        <time>2026-06-15T11:51:36.000Z</time>
        <extensions>
          <ns3:TrackPointExtension>
            <ns3:atemp>17.0</ns3:atemp>
          </ns3:TrackPointExtension>
        </extensions>
      </trkpt>
      <trkpt lat="42.564170323312282562255859375" lon="20.04806424491107463836669921875">
        <ele>2111.60009765625</ele>
        <time>2026-06-15T11:51:37.000Z</time>
        <extensions>
          <ns3:TrackPointExtension>
            <ns3:atemp>17.0</ns3:atemp>
          </ns3:TrackPointExtension>
        </extensions>
      </trkpt>
      <trkpt lat="42.564170323312282562255859375" lon="20.04806424491107463836669921875">
        <ele>2111.39990234375</ele>
        <time>2026-06-15T11:51:38.000Z</time>
        <extensions>
          <ns3:TrackPointExtension>
            <ns3:atemp>17.0</ns3:atemp>
          </ns3:TrackPointExtension>
        </extensions>
      </trkpt>
      <trkpt lat="42.564170323312282562255859375" lon="20.04806424491107463836669921875">
        <ele>2111.39990234375</ele>
        <time>2026-06-15T11:51:39.000Z</time>
        <extensions>
          <ns3:TrackPointExtension>
            <ns3:atemp>17.0</ns3:atemp>
          </ns3:TrackPointExtension>
        </extensions>
      </trkpt>
      <trkpt lat="42.56417023949325084686279296875" lon="20.048062317073345184326171875">
        <ele>2111.39990234375</ele>
        <time>2026-06-15T11:51:40.000Z</time>
        <extensions>
          <ns3:TrackPointExtension>
            <ns3:atemp>17.0</ns3:atemp>
          </ns3:TrackPointExtension>
        </extensions>
      </trkpt>
      <trkpt lat="42.56416118703782558441162109375" lon="20.04802174866199493408203125">
        <ele>2111.199951171875</ele>
        <time>2026-06-15T11:51:41.000Z</time>
        <extensions>
          <ns3:TrackPointExtension>
            <ns3:atemp>17.0</ns3:atemp>
          </ns3:TrackPointExtension>
        </extensions>
      </trkpt>
      <trkpt lat="42.5641424953937530517578125" lon="20.04798025824129581451416015625">
        <ele>2111</ele>
        <time>2026-06-15T11:51:42.000Z</time>
        <extensions>
          <ns3:TrackPointExtension>
            <ns3:atemp>17.0</ns3:atemp>
          </ns3:TrackPointExtension>
        </extensions>
      </trkpt>
      <trkpt lat="42.5641272403299808502197265625" lon="20.0479263626039028167724609375">
        <ele>2110.800048828125</ele>
        <time>2026-06-15T11:51:43.000Z</time>
        <extensions>
          <ns3:TrackPointExtension>
            <ns3:atemp>17.0</ns3:atemp>
          </ns3:TrackPointExtension>
        </extensions>
      </trkpt>
      <trkpt lat="42.56413134746253490447998046875" lon="20.04785947501659393310546875">
        <ele>2110.60009765625</ele>
        <time>2026-06-15T11:51:44.000Z</time>
        <extensions>
          <ns3:TrackPointExtension>
            <ns3:atemp>17.0</ns3:atemp>
          </ns3:TrackPointExtension>
        </extensions>
      </trkpt>
      <trkpt lat="42.5641275756061077117919921875" lon="20.0477902404963970184326171875">
        <ele>2110.39990234375</ele>
        <time>2026-06-15T11:51:45.000Z</time>
        <extensions>
          <ns3:TrackPointExtension>
            <ns3:atemp>17.0</ns3:atemp>
          </ns3:TrackPointExtension>
        </extensions>
      </trkpt>
      <trkpt lat="42.564096562564373016357421875" lon="20.04773047752678394317626953125">
        <ele>2110</ele>
        <time>2026-06-15T11:51:46.000Z</time>
        <extensions>
          <ns3:TrackPointExtension>
            <ns3:atemp>17.0</ns3:atemp>
          </ns3:TrackPointExtension>
        </extensions>
      </trkpt>
      <trkpt lat="42.56405591033399105072021484375" lon="20.04767163656651973724365234375">
        <ele>2109.800048828125</ele>
        <time>2026-06-15T11:51:47.000Z</time>
        <extensions>
          <ns3:TrackPointExtension>
            <ns3:atemp>17.0</ns3:atemp>
          </ns3:TrackPointExtension>
        </extensions>
      </trkpt>
      <trkpt lat="42.56401802413165569305419921875" lon="20.04760139621794223785400390625">
        <ele>2109.199951171875</ele>
        <time>2026-06-15T11:51:48.000Z</time>
        <extensions>
          <ns3:TrackPointExtension>
            <ns3:atemp>17.0</ns3:atemp>
          </ns3:TrackPointExtension>
        </extensions>
      </trkpt>
      <trkpt lat="42.56399556063115596771240234375" lon="20.04752210341393947601318359375">
        <ele>2108.39990234375</ele>
        <time>2026-06-15T11:51:49.000Z</time>
        <extensions>
          <ns3:TrackPointExtension>
            <ns3:atemp>17.0</ns3:atemp>
          </ns3:TrackPointExtension>
        </extensions>
      </trkpt>
      <trkpt lat="42.5639681518077850341796875" lon="20.04746644757688045501708984375">
        <ele>2107.800048828125</ele>
        <time>2026-06-15T11:51:50.000Z</time>
        <extensions>
          <ns3:TrackPointExtension>
            <ns3:atemp>17.0</ns3:atemp>
          </ns3:TrackPointExtension>
        </extensions>
      </trkpt>
      <trkpt lat="42.5639461912214756011962890625" lon="20.04740743897855281829833984375">
        <ele>2107.199951171875</ele>
        <time>2026-06-15T11:51:51.000Z</time>
        <extensions>
          <ns3:TrackPointExtension>
            <ns3:atemp>17.0</ns3:atemp>
          </ns3:TrackPointExtension>
        </extensions>
      </trkpt>
      <trkpt lat="42.5639337860047817230224609375" lon="20.04735982976853847503662109375">
        <ele>2106.39990234375</ele>
        <time>2026-06-15T11:51:52.000Z</time>
        <extensions>
          <ns3:TrackPointExtension>
            <ns3:atemp>17.0</ns3:atemp>
          </ns3:TrackPointExtension>
        </extensions>
      </trkpt>
      <trkpt lat="42.56393386982381343841552734375" lon="20.04733803682029247283935546875">
        <ele>2106</ele>
        <time>2026-06-15T11:51:53.000Z</time>
        <extensions>
          <ns3:TrackPointExtension>
            <ns3:atemp>17.0</ns3:atemp>
          </ns3:TrackPointExtension>
        </extensions>
      </trkpt>
      <trkpt lat="42.56393152289092540740966796875" lon="20.04734390415251255035400390625">
        <ele>2105.800048828125</ele>
        <time>2026-06-15T11:51:54.000Z</time>
        <extensions>
          <ns3:TrackPointExtension>
            <ns3:atemp>17.0</ns3:atemp>
          </ns3:TrackPointExtension>
        </extensions>
      </trkpt>
      <trkpt lat="42.56393252871930599212646484375" lon="20.04733979701995849609375">
        <ele>2105.800048828125</ele>
        <time>2026-06-15T11:51:55.000Z</time>
        <extensions>
          <ns3:TrackPointExtension>
            <ns3:atemp>17.0</ns3:atemp>
          </ns3:TrackPointExtension>
        </extensions>
      </trkpt>
      <trkpt lat="42.5639260746538639068603515625" lon="20.047342143952846527099609375">
        <ele>2105.800048828125</ele>
        <time>2026-06-15T11:51:56.000Z</time>
        <extensions>
          <ns3:TrackPointExtension>
            <ns3:atemp>17.0</ns3:atemp>
          </ns3:TrackPointExtension>
        </extensions>
      </trkpt>
      <trkpt lat="42.5639277510344982147216796875" lon="20.0473465025424957275390625">
        <ele>2106</ele>
        <time>2026-06-15T11:51:57.000Z</time>
        <extensions>
          <ns3:TrackPointExtension>
            <ns3:atemp>17.0</ns3:atemp>
          </ns3:TrackPointExtension>
        </extensions>
      </trkpt>
      <trkpt lat="42.563930265605449676513671875" lon="20.04735521972179412841796875">
        <ele>2106.199951171875</ele>
        <time>2026-06-15T11:51:58.000Z</time>
        <extensions>
          <ns3:TrackPointExtension>
            <ns3:atemp>17.0</ns3:atemp>
          </ns3:TrackPointExtension>
        </extensions>
      </trkpt>
      <trkpt lat="42.56393395364284515380859375" lon="20.04736502654850482940673828125">
        <ele>2106.199951171875</ele>
        <time>2026-06-15T11:51:59.000Z</time>
        <extensions>
          <ns3:TrackPointExtension>
            <ns3:atemp>17.0</ns3:atemp>
          </ns3:TrackPointExtension>
        </extensions>
      </trkpt>
      <trkpt lat="42.56393839605152606964111328125" lon="20.0473781861364841461181640625">
        <ele>2106.199951171875</ele>
        <time>2026-06-15T11:52:00.000Z</time>
        <extensions>
          <ns3:TrackPointExtension>
            <ns3:atemp>17.0</ns3:atemp>
          </ns3:TrackPointExtension>
        </extensions>
      </trkpt>
      <trkpt lat="42.56394141353666782379150390625" lon="20.04739905707538127899169921875">
        <ele>2106</ele>
        <time>2026-06-15T11:52:01.000Z</time>
        <extensions>
          <ns3:TrackPointExtension>
            <ns3:atemp>17.0</ns3:atemp>
          </ns3:TrackPointExtension>
        </extensions>
      </trkpt>
      <trkpt lat="42.5639525614678859710693359375" lon="20.04742520861327648162841796875">
        <ele>2106</ele>
        <time>2026-06-15T11:52:02.000Z</time>
        <extensions>
          <ns3:TrackPointExtension>
            <ns3:atemp>17.0</ns3:atemp>
          </ns3:TrackPointExtension>
        </extensions>
      </trkpt>
      <trkpt lat="42.5639679841697216033935546875" lon="20.047455132007598876953125">
        <ele>2106</ele>
        <time>2026-06-15T11:52:03.000Z</time>
        <extensions>
          <ns3:TrackPointExtension>
            <ns3:atemp>17.0</ns3:atemp>
          </ns3:TrackPointExtension>
        </extensions>
      </trkpt>
      <trkpt lat="42.56398064084351062774658203125" lon="20.0474868156015872955322265625">
        <ele>2106</ele>
        <time>2026-06-15T11:52:04.000Z</time>
        <extensions>
          <ns3:TrackPointExtension>
            <ns3:atemp>17.0</ns3:atemp>
          </ns3:TrackPointExtension>
        </extensions>
      </trkpt>
      <trkpt lat="42.56399028003215789794921875" lon="20.04752017557621002197265625">
        <ele>2106.199951171875</ele>
        <time>2026-06-15T11:52:05.000Z</time>
        <extensions>
          <ns3:TrackPointExtension>
            <ns3:atemp>17.0</ns3:atemp>
          </ns3:TrackPointExtension>
        </extensions>
      </trkpt>
      <trkpt lat="42.56399966776371002197265625" lon="20.04755462519824504852294921875">
        <ele>2106.39990234375</ele>
        <time>2026-06-15T11:52:06.000Z</time>
        <extensions>
          <ns3:TrackPointExtension>
            <ns3:atemp>17.0</ns3:atemp>
          </ns3:TrackPointExtension>
        </extensions>
      </trkpt>
      <trkpt lat="42.56401048041880130767822265625" lon="20.0475810281932353973388671875">
        <ele>2106.39990234375</ele>
        <time>2026-06-15T11:52:07.000Z</time>
        <extensions>
          <ns3:TrackPointExtension>
            <ns3:atemp>17.0</ns3:atemp>
          </ns3:TrackPointExtension>
        </extensions>
      </trkpt>
      <trkpt lat="42.56401584483683109283447265625" lon="20.0476034916937351226806640625">
        <ele>2106.60009765625</ele>
        <time>2026-06-15T11:52:08.000Z</time>
        <extensions>
          <ns3:TrackPointExtension>
            <ns3:atemp>17.0</ns3:atemp>
          </ns3:TrackPointExtension>
        </extensions>
      </trkpt>
      <trkpt lat="42.564031518995761871337890625" lon="20.04762939177453517913818359375">
        <ele>2106.60009765625</ele>
        <time>2026-06-15T11:52:09.000Z</time>
        <extensions>
          <ns3:TrackPointExtension>
            <ns3:atemp>17.0</ns3:atemp>
          </ns3:TrackPointExtension>
        </extensions>
      </trkpt>
      <trkpt lat="42.5640457682311534881591796875" lon="20.04765068180859088897705078125">
        <ele>2106.60009765625</ele>
        <time>2026-06-15T11:52:10.000Z</time>
        <extensions>
          <ns3:TrackPointExtension>
            <ns3:atemp>17.0</ns3:atemp>
          </ns3:TrackPointExtension>
        </extensions>
      </trkpt>
      <trkpt lat="42.56405892781913280487060546875" lon="20.0476737320423126220703125">
        <ele>2106.800048828125</ele>
        <time>2026-06-15T11:52:11.000Z</time>
        <extensions>
          <ns3:TrackPointExtension>
            <ns3:atemp>17.0</ns3:atemp>
          </ns3:TrackPointExtension>
        </extensions>
      </trkpt>
      <trkpt lat="42.56407745182514190673828125" lon="20.04769762046635150909423828125">
        <ele>2107.199951171875</ele>
        <time>2026-06-15T11:52:12.000Z</time>
        <extensions>
          <ns3:TrackPointExtension>
            <ns3:atemp>17.0</ns3:atemp>
          </ns3:TrackPointExtension>
        </extensions>
      </trkpt>
      <trkpt lat="42.5640963949263095855712890625" lon="20.04772293381392955780029296875">
        <ele>2107.60009765625</ele>
        <time>2026-06-15T11:52:13.000Z</time>
        <extensions>
          <ns3:TrackPointExtension>
            <ns3:atemp>17.0</ns3:atemp>
          </ns3:TrackPointExtension>
        </extensions>
      </trkpt>
      <trkpt lat="42.564112655818462371826171875" lon="20.04775143228471279144287109375">
        <ele>2108</ele>
        <time>2026-06-15T11:52:14.000Z</time>
        <extensions>
          <ns3:TrackPointExtension>
            <ns3:atemp>17.0</ns3:atemp>
          </ns3:TrackPointExtension>
        </extensions>
      </trkpt>
      <trkpt lat="42.5641208700835704803466796875" lon="20.04777808673679828643798828125">
        <ele>2108.60009765625</ele>
        <time>2026-06-15T11:52:15.000Z</time>
        <extensions>
          <ns3:TrackPointExtension>
            <ns3:atemp>17.0</ns3:atemp>
          </ns3:TrackPointExtension>
        </extensions>
      </trkpt>
      <trkpt lat="42.56412179209291934967041015625" lon="20.04780708812177181243896484375">
        <ele>2109</ele>
        <time>2026-06-15T11:52:16.000Z</time>
        <extensions>
          <ns3:TrackPointExtension>
            <ns3:atemp>17.0</ns3:atemp>
          </ns3:TrackPointExtension>
        </extensions>
      </trkpt>
      <trkpt lat="42.56412061862647533416748046875" lon="20.0478375144302845001220703125">
        <ele>2109.39990234375</ele>
        <time>2026-06-15T11:52:17.000Z</time>
        <extensions>
          <ns3:TrackPointExtension>
            <ns3:atemp>17.0</ns3:atemp>
          </ns3:TrackPointExtension>
        </extensions>
      </trkpt>
      <trkpt lat="42.56411760114133358001708984375" lon="20.047872550785541534423828125">
        <ele>2109.800048828125</ele>
        <time>2026-06-15T11:52:18.000Z</time>
        <extensions>
          <ns3:TrackPointExtension>
            <ns3:atemp>17.0</ns3:atemp>
          </ns3:TrackPointExtension>
        </extensions>
      </trkpt>
      <trkpt lat="42.56412011571228504180908203125" lon="20.0479032285511493682861328125">
        <ele>2110</ele>
        <time>2026-06-15T11:52:19.000Z</time>
        <extensions>
          <ns3:TrackPointExtension>
            <ns3:atemp>17.0</ns3:atemp>
          </ns3:TrackPointExtension>
        </extensions>
      </trkpt>
      <trkpt lat="42.5641262345016002655029296875" lon="20.04792577587068080902099609375">
        <ele>2110.199951171875</ele>
        <time>2026-06-15T11:52:20.000Z</time>
        <extensions>
          <ns3:TrackPointExtension>
            <ns3:atemp>17.0</ns3:atemp>
          </ns3:TrackPointExtension>
        </extensions>
      </trkpt>
      <trkpt lat="42.56413201801478862762451171875" lon="20.04794924519956111907958984375">
        <ele>2110.39990234375</ele>
        <time>2026-06-15T11:52:21.000Z</time>
        <extensions>
          <ns3:TrackPointExtension>
            <ns3:atemp>17.0</ns3:atemp>
          </ns3:TrackPointExtension>
        </extensions>
      </trkpt>
      <trkpt lat="42.56414375267922878265380859375" lon="20.04797304980456829071044921875">
        <ele>2110.800048828125</ele>
        <time>2026-06-15T11:52:22.000Z</time>
        <extensions>
          <ns3:TrackPointExtension>
            <ns3:atemp>17.0</ns3:atemp>
          </ns3:TrackPointExtension>
        </extensions>
      </trkpt>
      <trkpt lat="42.56415448151528835296630859375" lon="20.04799501039087772369384765625">
        <ele>2111.199951171875</ele>
        <time>2026-06-15T11:52:23.000Z</time>
        <extensions>
          <ns3:TrackPointExtension>
            <ns3:atemp>17.0</ns3:atemp>
          </ns3:TrackPointExtension>
        </extensions>
      </trkpt>
      <trkpt lat="42.5641614384949207305908203125" lon="20.0480138696730136871337890625">
        <ele>2111.60009765625</ele>
        <time>2026-06-15T11:52:24.000Z</time>
        <extensions>
          <ns3:TrackPointExtension>
            <ns3:atemp>17.0</ns3:atemp>
          </ns3:TrackPointExtension>
        </extensions>
      </trkpt>
      <trkpt lat="42.56415884010493755340576171875" lon="20.0480256043374538421630859375">
        <ele>2112</ele>
        <time>2026-06-15T11:52:25.000Z</time>
        <extensions>
          <ns3:TrackPointExtension>
            <ns3:atemp>17.0</ns3:atemp>
          </ns3:TrackPointExtension>
        </extensions>
      </trkpt>
      <trkpt lat="42.56415766663849353790283203125" lon="20.04804178141057491302490234375">
        <ele>2112.39990234375</ele>
        <time>2026-06-15T11:52:26.000Z</time>
        <extensions>
          <ns3:TrackPointExtension>
            <ns3:atemp>17.0</ns3:atemp>
          </ns3:TrackPointExtension>
        </extensions>
      </trkpt>
      <trkpt lat="42.56415481679141521453857421875" lon="20.048053599894046783447265625">
        <ele>2112.60009765625</ele>
        <time>2026-06-15T11:52:27.000Z</time>
        <extensions>
          <ns3:TrackPointExtension>
            <ns3:atemp>17.0</ns3:atemp>
          </ns3:TrackPointExtension>
        </extensions>
      </trkpt>
      <trkpt lat="42.5641532242298126220703125" lon="20.04806927405297756195068359375">
        <ele>2112.60009765625</ele>
        <time>2026-06-15T11:52:28.000Z</time>
        <extensions>
          <ns3:TrackPointExtension>
            <ns3:atemp>17.0</ns3:atemp>
          </ns3:TrackPointExtension>
        </extensions>
      </trkpt>
      <trkpt lat="42.56415934301912784576416015625" lon="20.04808637313544750213623046875">
        <ele>2112.60009765625</ele>
        <time>2026-06-15T11:52:29.000Z</time>
        <extensions>
          <ns3:TrackPointExtension>
            <ns3:atemp>17.0</ns3:atemp>
          </ns3:TrackPointExtension>
        </extensions>
      </trkpt>
      <trkpt lat="42.564167641103267669677734375" lon="20.04810129292309284210205078125">
        <ele>2112.800048828125</ele>
        <time>2026-06-15T11:52:30.000Z</time>
        <extensions>
          <ns3:TrackPointExtension>
            <ns3:atemp>17.0</ns3:atemp>
          </ns3:TrackPointExtension>
        </extensions>
      </trkpt>
      <trkpt lat="42.56417627446353435516357421875" lon="20.048110596835613250732421875">
        <ele>2113</ele>
        <time>2026-06-15T11:52:31.000Z</time>
        <extensions>
          <ns3:TrackPointExtension>
            <ns3:atemp>17.0</ns3:atemp>
          </ns3:TrackPointExtension>
        </extensions>
      </trkpt>
      <trkpt lat="42.56418432109057903289794921875" lon="20.04811788909137248992919921875">
        <ele>2113.199951171875</ele>
        <time>2026-06-15T11:52:32.000Z</time>
        <extensions>
          <ns3:TrackPointExtension>
            <ns3:atemp>17.0</ns3:atemp>
          </ns3:TrackPointExtension>
        </extensions>
      </trkpt>
      <trkpt lat="42.564195804297924041748046875" lon="20.048134736716747283935546875">
        <ele>2113.60009765625</ele>
        <time>2026-06-15T11:52:33.000Z</time>
        <extensions>
          <ns3:TrackPointExtension>
            <ns3:atemp>17.0</ns3:atemp>
          </ns3:TrackPointExtension>
        </extensions>
      </trkpt>
      <trkpt lat="42.56420041434466838836669921875" lon="20.048147477209568023681640625">
        <ele>2113.800048828125</ele>
        <time>2026-06-15T11:52:34.000Z</time>
        <extensions>
          <ns3:TrackPointExtension>
            <ns3:atemp>17.0</ns3:atemp>
          </ns3:TrackPointExtension>
        </extensions>
      </trkpt>
      <trkpt lat="42.56420795805752277374267578125" lon="20.04816382192075252532958984375">
        <ele>2114</ele>
        <time>2026-06-15T11:52:35.000Z</time>
        <extensions>
          <ns3:TrackPointExtension>
            <ns3:atemp>17.0</ns3:atemp>
          </ns3:TrackPointExtension>
        </extensions>
      </trkpt>
      <trkpt lat="42.5642207823693752288818359375" lon="20.04817471839487552642822265625">
        <ele>2114.199951171875</ele>
        <time>2026-06-15T11:52:36.000Z</time>
        <extensions>
          <ns3:TrackPointExtension>
            <ns3:atemp>17.0</ns3:atemp>
          </ns3:TrackPointExtension>
        </extensions>
      </trkpt>
      <trkpt lat="42.5642241351306438446044921875" lon="20.04819047637283802032470703125">
        <ele>2114.39990234375</ele>
        <time>2026-06-15T11:52:37.000Z</time>
        <extensions>
          <ns3:TrackPointExtension>
            <ns3:atemp>17.0</ns3:atemp>
          </ns3:TrackPointExtension>
        </extensions>
      </trkpt>
      <trkpt lat="42.56422421894967555999755859375" lon="20.04819701425731182098388671875">
        <ele>2114.39990234375</ele>
        <time>2026-06-15T11:52:38.000Z</time>
        <extensions>
          <ns3:TrackPointExtension>
            <ns3:atemp>17.0</ns3:atemp>
          </ns3:TrackPointExtension>
        </extensions>
      </trkpt>
      <trkpt lat="42.5642288289964199066162109375" lon="20.04819810390472412109375">
        <ele>2114.60009765625</ele>
        <time>2026-06-15T11:52:39.000Z</time>
        <extensions>
          <ns3:TrackPointExtension>
            <ns3:atemp>17.0</ns3:atemp>
          </ns3:TrackPointExtension>
        </extensions>
      </trkpt>
      <trkpt lat="42.5642341934144496917724609375" lon="20.04820053465664386749267578125">
        <ele>2114.60009765625</ele>
        <time>2026-06-15T11:52:40.000Z</time>
        <extensions>
          <ns3:TrackPointExtension>
            <ns3:atemp>17.0</ns3:atemp>
          </ns3:TrackPointExtension>
        </extensions>
      </trkpt>
      <trkpt lat="42.5642325170338153839111328125" lon="20.04820154048502445220947265625">
        <ele>2114.800048828125</ele>
        <time>2026-06-15T11:52:41.000Z</time>
        <extensions>
          <ns3:TrackPointExtension>
            <ns3:atemp>17.0</ns3:atemp>
          </ns3:TrackPointExtension>
        </extensions>
      </trkpt>
      <trkpt lat="42.56422941572964191436767578125" lon="20.04819382913410663604736328125">
        <ele>2115</ele>
        <time>2026-06-15T11:52:42.000Z</time>
        <extensions>
          <ns3:TrackPointExtension>
            <ns3:atemp>17.0</ns3:atemp>
          </ns3:TrackPointExtension>
        </extensions>
      </trkpt>
      <trkpt lat="42.5642248056828975677490234375" lon="20.04819072782993316650390625">
        <ele>2115.39990234375</ele>
        <time>2026-06-15T11:52:43.000Z</time>
        <extensions>
          <ns3:TrackPointExtension>
            <ns3:atemp>17.0</ns3:atemp>
          </ns3:TrackPointExtension>
        </extensions>
      </trkpt>
      <trkpt lat="42.56421717815101146697998046875" lon="20.0481835193932056427001953125">
        <ele>2115.39990234375</ele>
        <time>2026-06-15T11:52:44.000Z</time>
        <extensions>
          <ns3:TrackPointExtension>
            <ns3:atemp>17.0</ns3:atemp>
          </ns3:TrackPointExtension>
        </extensions>
      </trkpt>
      <trkpt lat="42.56421625614166259765625" lon="20.04817823879420757293701171875">
        <ele>2115.39990234375</ele>
        <time>2026-06-15T11:52:45.000Z</time>
        <extensions>
          <ns3:TrackPointExtension>
            <ns3:atemp>17.0</ns3:atemp>
          </ns3:TrackPointExtension>
        </extensions>
      </trkpt>
      <trkpt lat="42.56421332247555255889892578125" lon="20.0481731258332729339599609375">
        <ele>2115.39990234375</ele>
        <time>2026-06-15T11:52:46.000Z</time>
        <extensions>
          <ns3:TrackPointExtension>
            <ns3:atemp>17.0</ns3:atemp>
          </ns3:TrackPointExtension>
        </extensions>
      </trkpt>
      <trkpt lat="42.5642134062945842742919921875" lon="20.0481731258332729339599609375">
        <ele>2114.39990234375</ele>
        <time>2026-06-15T11:52:47.000Z</time>
        <extensions>
          <ns3:TrackPointExtension>
            <ns3:atemp>17.0</ns3:atemp>
          </ns3:TrackPointExtension>
        </extensions>
      </trkpt>
      <trkpt lat="42.5642134062945842742919921875" lon="20.0481731258332729339599609375">
        <ele>2113.60009765625</ele>
        <time>2026-06-15T11:52:48.000Z</time>
        <extensions>
          <ns3:TrackPointExtension>
            <ns3:atemp>17.0</ns3:atemp>
          </ns3:TrackPointExtension>
        </extensions>
      </trkpt>
      <trkpt lat="42.5642134062945842742919921875" lon="20.0481731258332729339599609375">
        <ele>2113.199951171875</ele>
        <time>2026-06-15T11:52:49.000Z</time>
        <extensions>
          <ns3:TrackPointExtension>
            <ns3:atemp>17.0</ns3:atemp>
          </ns3:TrackPointExtension>
        </extensions>
      </trkpt>
      <trkpt lat="42.5642134062945842742919921875" lon="20.0481731258332729339599609375">
        <ele>2113.199951171875</ele>
        <time>2026-06-15T11:52:50.000Z</time>
        <extensions>
          <ns3:TrackPointExtension>
            <ns3:atemp>17.0</ns3:atemp>
          </ns3:TrackPointExtension>
        </extensions>
      </trkpt>
      <trkpt lat="42.5642134062945842742919921875" lon="20.0481731258332729339599609375">
        <ele>2113.39990234375</ele>
        <time>2026-06-15T11:52:51.000Z</time>
        <extensions>
          <ns3:TrackPointExtension>
            <ns3:atemp>17.0</ns3:atemp>
          </ns3:TrackPointExtension>
        </extensions>
      </trkpt>
      <trkpt lat="42.5642134062945842742919921875" lon="20.0481731258332729339599609375">
        <ele>2113.800048828125</ele>
        <time>2026-06-15T11:52:52.000Z</time>
        <extensions>
          <ns3:TrackPointExtension>
            <ns3:atemp>17.0</ns3:atemp>
          </ns3:TrackPointExtension>
        </extensions>
      </trkpt>
      <trkpt lat="42.5642134062945842742919921875" lon="20.0481731258332729339599609375">
        <ele>2114</ele>
        <time>2026-06-15T11:52:53.000Z</time>
        <extensions>
          <ns3:TrackPointExtension>
            <ns3:atemp>17.0</ns3:atemp>
          </ns3:TrackPointExtension>
        </extensions>
      </trkpt>
      <trkpt lat="42.5642134062945842742919921875" lon="20.0481731258332729339599609375">
        <ele>2114.199951171875</ele>
        <time>2026-06-15T11:52:54.000Z</time>
        <extensions>
          <ns3:TrackPointExtension>
            <ns3:atemp>17.0</ns3:atemp>
          </ns3:TrackPointExtension>
        </extensions>
      </trkpt>
      <trkpt lat="42.5642134062945842742919921875" lon="20.0481731258332729339599609375">
        <ele>2114.39990234375</ele>
        <time>2026-06-15T11:52:55.000Z</time>
        <extensions>
          <ns3:TrackPointExtension>
            <ns3:atemp>17.0</ns3:atemp>
          </ns3:TrackPointExtension>
        </extensions>
      </trkpt>
      <trkpt lat="42.5642134062945842742919921875" lon="20.0481731258332729339599609375">
        <ele>2114.39990234375</ele>
        <time>2026-06-15T11:52:56.000Z</time>
        <extensions>
          <ns3:TrackPointExtension>
            <ns3:atemp>17.0</ns3:atemp>
          </ns3:TrackPointExtension>
        </extensions>
      </trkpt>
      <trkpt lat="42.5642134062945842742919921875" lon="20.0481731258332729339599609375">
        <ele>2114.60009765625</ele>
        <time>2026-06-15T11:52:57.000Z</time>
        <extensions>
          <ns3:TrackPointExtension>
            <ns3:atemp>17.0</ns3:atemp>
          </ns3:TrackPointExtension>
        </extensions>
      </trkpt>
      <trkpt lat="42.5642134062945842742919921875" lon="20.0481731258332729339599609375">
        <ele>2114.60009765625</ele>
        <time>2026-06-15T11:52:58.000Z</time>
        <extensions>
          <ns3:TrackPointExtension>
            <ns3:atemp>17.0</ns3:atemp>
          </ns3:TrackPointExtension>
        </extensions>
      </trkpt>
      <trkpt lat="42.5642134062945842742919921875" lon="20.0481731258332729339599609375">
        <ele>2114.60009765625</ele>
        <time>2026-06-15T11:52:59.000Z</time>
        <extensions>
          <ns3:TrackPointExtension>
            <ns3:atemp>17.0</ns3:atemp>
          </ns3:TrackPointExtension>
        </extensions>
      </trkpt>
      <trkpt lat="42.5642134062945842742919921875" lon="20.0481731258332729339599609375">
        <ele>2114.60009765625</ele>
        <time>2026-06-15T11:53:00.000Z</time>
        <extensions>
          <ns3:TrackPointExtension>
            <ns3:atemp>17.0</ns3:atemp>
          </ns3:TrackPointExtension>
        </extensions>
      </trkpt>
      <trkpt lat="42.5642134062945842742919921875" lon="20.0481731258332729339599609375">
        <ele>2114.39990234375</ele>
        <time>2026-06-15T11:53:01.000Z</time>
        <extensions>
          <ns3:TrackPointExtension>
            <ns3:atemp>17.0</ns3:atemp>
          </ns3:TrackPointExtension>
        </extensions>
      </trkpt>
      <trkpt lat="42.5642134062945842742919921875" lon="20.0481731258332729339599609375">
        <ele>2114.39990234375</ele>
        <time>2026-06-15T11:53:02.000Z</time>
        <extensions>
          <ns3:TrackPointExtension>
            <ns3:atemp>17.0</ns3:atemp>
          </ns3:TrackPointExtension>
        </extensions>
      </trkpt>
      <trkpt lat="42.5642134062945842742919921875" lon="20.0481731258332729339599609375">
        <ele>2114.39990234375</ele>
        <time>2026-06-15T11:53:03.000Z</time>
        <extensions>
          <ns3:TrackPointExtension>
            <ns3:atemp>17.0</ns3:atemp>
          </ns3:TrackPointExtension>
        </extensions>
      </trkpt>
      <trkpt lat="42.56421332247555255889892578125" lon="20.0481712818145751953125">
        <ele>2114.60009765625</ele>
        <time>2026-06-15T11:53:04.000Z</time>
        <extensions>
          <ns3:TrackPointExtension>
            <ns3:atemp>17.0</ns3:atemp>
          </ns3:TrackPointExtension>
        </extensions>
      </trkpt>
      <trkpt lat="42.56419681012630462646484375" lon="20.04814554937183856964111328125">
        <ele>2114.60009765625</ele>
        <time>2026-06-15T11:53:05.000Z</time>
        <extensions>
          <ns3:TrackPointExtension>
            <ns3:atemp>17.0</ns3:atemp>
          </ns3:TrackPointExtension>
        </extensions>
      </trkpt>
      <trkpt lat="42.56418331526219844818115234375" lon="20.048114620149135589599609375">
        <ele>2114.60009765625</ele>
        <time>2026-06-15T11:53:06.000Z</time>
        <extensions>
          <ns3:TrackPointExtension>
            <ns3:atemp>17.0</ns3:atemp>
          </ns3:TrackPointExtension>
        </extensions>
      </trkpt>
      <trkpt lat="42.5641728378832340240478515625" lon="20.0480735488235950469970703125">
        <ele>2114.39990234375</ele>
        <time>2026-06-15T11:53:07.000Z</time>
        <extensions>
          <ns3:TrackPointExtension>
            <ns3:atemp>17.0</ns3:atemp>
          </ns3:TrackPointExtension>
        </extensions>
      </trkpt>
      <trkpt lat="42.5641639530658721923828125" lon="20.04802635870873928070068359375">
        <ele>2114.199951171875</ele>
        <time>2026-06-15T11:53:08.000Z</time>
        <extensions>
          <ns3:TrackPointExtension>
            <ns3:atemp>17.0</ns3:atemp>
          </ns3:TrackPointExtension>
        </extensions>
      </trkpt>
      <trkpt lat="42.5641470216214656829833984375" lon="20.04798528738319873809814453125">
        <ele>2114</ele>
        <time>2026-06-15T11:53:09.000Z</time>
        <extensions>
          <ns3:TrackPointExtension>
            <ns3:atemp>17.0</ns3:atemp>
          </ns3:TrackPointExtension>
        </extensions>
      </trkpt>
      <trkpt lat="42.56412841379642486572265625" lon="20.04794119857251644134521484375">
        <ele>2113.60009765625</ele>
        <time>2026-06-15T11:53:10.000Z</time>
        <extensions>
          <ns3:TrackPointExtension>
            <ns3:atemp>17.0</ns3:atemp>
          </ns3:TrackPointExtension>
        </extensions>
      </trkpt>
      <trkpt lat="42.564128749072551727294921875" lon="20.0478908233344554901123046875">
        <ele>2113.199951171875</ele>
        <time>2026-06-15T11:53:11.000Z</time>
        <extensions>
          <ns3:TrackPointExtension>
            <ns3:atemp>17.0</ns3:atemp>
          </ns3:TrackPointExtension>
        </extensions>
      </trkpt>
      <trkpt lat="42.564128078520298004150390625" lon="20.04783206619322299957275390625">
        <ele>2112.800048828125</ele>
        <time>2026-06-15T11:53:12.000Z</time>
        <extensions>
          <ns3:TrackPointExtension>
            <ns3:atemp>17.0</ns3:atemp>
          </ns3:TrackPointExtension>
        </extensions>
      </trkpt>
      <trkpt lat="42.564122043550014495849609375" lon="20.04778009839355945587158203125">
        <ele>2112.39990234375</ele>
        <time>2026-06-15T11:53:13.000Z</time>
        <extensions>
          <ns3:TrackPointExtension>
            <ns3:atemp>17.0</ns3:atemp>
          </ns3:TrackPointExtension>
        </extensions>
      </trkpt>
      <trkpt lat="42.56410293281078338623046875" lon="20.047739110887050628662109375">
        <ele>2112</ele>
        <time>2026-06-15T11:53:14.000Z</time>
        <extensions>
          <ns3:TrackPointExtension>
            <ns3:atemp>17.0</ns3:atemp>
          </ns3:TrackPointExtension>
        </extensions>
      </trkpt>
      <trkpt lat="42.5640796311199665069580078125" lon="20.0477050803601741790771484375">
        <ele>2111.60009765625</ele>
        <time>2026-06-15T11:53:15.000Z</time>
        <extensions>
          <ns3:TrackPointExtension>
            <ns3:atemp>17.0</ns3:atemp>
          </ns3:TrackPointExtension>
        </extensions>
      </trkpt>
      <trkpt lat="42.5640551559627056121826171875" lon="20.0476695410907268524169921875">
        <ele>2111.199951171875</ele>
        <time>2026-06-15T11:53:16.000Z</time>
        <extensions>
          <ns3:TrackPointExtension>
            <ns3:atemp>17.0</ns3:atemp>
          </ns3:TrackPointExtension>
        </extensions>
      </trkpt>
      <trkpt lat="42.56403260864317417144775390625" lon="20.0476316548883914947509765625">
        <ele>2111</ele>
        <time>2026-06-15T11:53:17.000Z</time>
        <extensions>
          <ns3:TrackPointExtension>
            <ns3:atemp>17.0</ns3:atemp>
          </ns3:TrackPointExtension>
        </extensions>
      </trkpt>
      <trkpt lat="42.56401710212230682373046875" lon="20.04759167321026325225830078125">
        <ele>2110.60009765625</ele>
        <time>2026-06-15T11:53:18.000Z</time>
        <extensions>
          <ns3:TrackPointExtension>
            <ns3:atemp>17.0</ns3:atemp>
          </ns3:TrackPointExtension>
        </extensions>
      </trkpt>
      <trkpt lat="42.56400746293365955352783203125" lon="20.04755412228405475616455078125">
        <ele>2110.199951171875</ele>
        <time>2026-06-15T11:53:19.000Z</time>
        <extensions>
          <ns3:TrackPointExtension>
            <ns3:atemp>17.0</ns3:atemp>
          </ns3:TrackPointExtension>
        </extensions>
      </trkpt>
      <trkpt lat="42.56399539299309253692626953125" lon="20.04751238040626049041748046875">
        <ele>2109.800048828125</ele>
        <time>2026-06-15T11:53:20.000Z</time>
        <extensions>
          <ns3:TrackPointExtension>
            <ns3:atemp>17.0</ns3:atemp>
          </ns3:TrackPointExtension>
        </extensions>
      </trkpt>
      <trkpt lat="42.563980557024478912353515625" lon="20.04747918806970119476318359375">
        <ele>2109</ele>
        <time>2026-06-15T11:53:21.000Z</time>
        <extensions>
          <ns3:TrackPointExtension>
            <ns3:atemp>17.0</ns3:atemp>
          </ns3:TrackPointExtension>
        </extensions>
      </trkpt>
      <trkpt lat="42.56396203301846981048583984375" lon="20.0474430620670318603515625">
        <ele>2108.39990234375</ele>
        <time>2026-06-15T11:53:22.000Z</time>
        <extensions>
          <ns3:TrackPointExtension>
            <ns3:atemp>17.0</ns3:atemp>
          </ns3:TrackPointExtension>
        </extensions>
      </trkpt>
      <trkpt lat="42.56395130418241024017333984375" lon="20.0474056787788867950439453125">
        <ele>2108</ele>
        <time>2026-06-15T11:53:23.000Z</time>
        <extensions>
          <ns3:TrackPointExtension>
            <ns3:atemp>17.0</ns3:atemp>
          </ns3:TrackPointExtension>
        </extensions>
      </trkpt>
      <trkpt lat="42.563940994441509246826171875" lon="20.04737240262329578399658203125">
        <ele>2107.800048828125</ele>
        <time>2026-06-15T11:53:24.000Z</time>
        <extensions>
          <ns3:TrackPointExtension>
            <ns3:atemp>17.0</ns3:atemp>
          </ns3:TrackPointExtension>
        </extensions>
      </trkpt>
      <trkpt lat="42.56393739022314548492431640625" lon="20.0473476760089397430419921875">
        <ele>2107.60009765625</ele>
        <time>2026-06-15T11:53:25.000Z</time>
        <extensions>
          <ns3:TrackPointExtension>
            <ns3:atemp>17.0</ns3:atemp>
          </ns3:TrackPointExtension>
        </extensions>
      </trkpt>
      <trkpt lat="42.56393705494701862335205078125" lon="20.0473255477845668792724609375">
        <ele>2107.60009765625</ele>
        <time>2026-06-15T11:53:26.000Z</time>
        <extensions>
          <ns3:TrackPointExtension>
            <ns3:atemp>17.0</ns3:atemp>
          </ns3:TrackPointExtension>
        </extensions>
      </trkpt>
      <trkpt lat="42.5639297626912593841552734375" lon="20.04729948006570339202880859375">
        <ele>2107.39990234375</ele>
        <time>2026-06-15T11:53:27.000Z</time>
        <extensions>
          <ns3:TrackPointExtension>
            <ns3:atemp>17.0</ns3:atemp>
          </ns3:TrackPointExtension>
        </extensions>
      </trkpt>
      <trkpt lat="42.563917525112628936767578125" lon="20.04725974984467029571533203125">
        <ele>2107.199951171875</ele>
        <time>2026-06-15T11:53:28.000Z</time>
        <extensions>
          <ns3:TrackPointExtension>
            <ns3:atemp>17.0</ns3:atemp>
          </ns3:TrackPointExtension>
        </extensions>
      </trkpt>
      <trkpt lat="42.56391610018908977508544921875" lon="20.0472185947000980377197265625">
        <ele>2106.800048828125</ele>
        <time>2026-06-15T11:53:29.000Z</time>
        <extensions>
          <ns3:TrackPointExtension>
            <ns3:atemp>17.0</ns3:atemp>
          </ns3:TrackPointExtension>
        </extensions>
      </trkpt>
      <trkpt lat="42.563902102410793304443359375" lon="20.047169812023639678955078125">
        <ele>2106.39990234375</ele>
        <time>2026-06-15T11:53:30.000Z</time>
        <extensions>
          <ns3:TrackPointExtension>
            <ns3:atemp>17.0</ns3:atemp>
          </ns3:TrackPointExtension>
        </extensions>
      </trkpt>
      <trkpt lat="42.56388927809894084930419921875" lon="20.0471206940710544586181640625">
        <ele>2106</ele>
        <time>2026-06-15T11:53:31.000Z</time>
        <extensions>
          <ns3:TrackPointExtension>
            <ns3:atemp>17.0</ns3:atemp>
          </ns3:TrackPointExtension>
        </extensions>
      </trkpt>
      <trkpt lat="42.56387419067323207855224609375" lon="20.04707970656454563140869140625">
        <ele>2105.39990234375</ele>
        <time>2026-06-15T11:53:32.000Z</time>
        <extensions>
          <ns3:TrackPointExtension>
            <ns3:atemp>17.0</ns3:atemp>
          </ns3:TrackPointExtension>
        </extensions>
      </trkpt>
      <trkpt lat="42.5638573430478572845458984375" lon="20.04705053754150867462158203125">
        <ele>2104.800048828125</ele>
        <time>2026-06-15T11:53:33.000Z</time>
        <extensions>
          <ns3:TrackPointExtension>
            <ns3:atemp>18.0</ns3:atemp>
          </ns3:TrackPointExtension>
        </extensions>
      </trkpt>
      <trkpt lat="42.56384384818375110626220703125" lon="20.0470301695168018341064453125">
        <ele>2104.199951171875</ele>
        <time>2026-06-15T11:53:34.000Z</time>
        <extensions>
          <ns3:TrackPointExtension>
            <ns3:atemp>17.0</ns3:atemp>
          </ns3:TrackPointExtension>
        </extensions>
      </trkpt>
      <trkpt lat="42.56383378989994525909423828125" lon="20.04703377373516559600830078125">
        <ele>2103.800048828125</ele>
        <time>2026-06-15T11:53:35.000Z</time>
        <extensions>
          <ns3:TrackPointExtension>
            <ns3:atemp>17.0</ns3:atemp>
          </ns3:TrackPointExtension>
        </extensions>
      </trkpt>
      <trkpt lat="42.5638271681964397430419921875" lon="20.0470326840877532958984375">
        <ele>2103.39990234375</ele>
        <time>2026-06-15T11:53:36.000Z</time>
        <extensions>
          <ns3:TrackPointExtension>
            <ns3:atemp>17.0</ns3:atemp>
          </ns3:TrackPointExtension>
        </extensions>
      </trkpt>
      <trkpt lat="42.5638261623680591583251953125" lon="20.04702706821262836456298828125">
        <ele>2103.199951171875</ele>
        <time>2026-06-15T11:53:37.000Z</time>
        <extensions>
          <ns3:TrackPointExtension>
            <ns3:atemp>17.0</ns3:atemp>
          </ns3:TrackPointExtension>
        </extensions>
      </trkpt>
      <trkpt lat="42.56382607854902744293212890625" lon="20.04702706821262836456298828125">
        <ele>2103</ele>
        <time>2026-06-15T11:53:38.000Z</time>
        <extensions>
          <ns3:TrackPointExtension>
            <ns3:atemp>17.0</ns3:atemp>
          </ns3:TrackPointExtension>
        </extensions>
      </trkpt>
      <trkpt lat="42.56382607854902744293212890625" lon="20.04702706821262836456298828125">
        <ele>2102.800048828125</ele>
        <time>2026-06-15T11:53:39.000Z</time>
        <extensions>
          <ns3:TrackPointExtension>
            <ns3:atemp>17.0</ns3:atemp>
          </ns3:TrackPointExtension>
        </extensions>
      </trkpt>
      <trkpt lat="42.56382607854902744293212890625" lon="20.04702706821262836456298828125">
        <ele>2102.60009765625</ele>
        <time>2026-06-15T11:53:40.000Z</time>
        <extensions>
          <ns3:TrackPointExtension>
            <ns3:atemp>17.0</ns3:atemp>
          </ns3:TrackPointExtension>
        </extensions>
      </trkpt>
      <trkpt lat="42.56382607854902744293212890625" lon="20.04702706821262836456298828125">
        <ele>2102.39990234375</ele>
        <time>2026-06-15T11:53:41.000Z</time>
        <extensions>
          <ns3:TrackPointExtension>
            <ns3:atemp>17.0</ns3:atemp>
          </ns3:TrackPointExtension>
        </extensions>
      </trkpt>
      <trkpt lat="42.56382607854902744293212890625" lon="20.04702706821262836456298828125">
        <ele>2102.199951171875</ele>
        <time>2026-06-15T11:53:42.000Z</time>
        <extensions>
          <ns3:TrackPointExtension>
            <ns3:atemp>17.0</ns3:atemp>
          </ns3:TrackPointExtension>
        </extensions>
      </trkpt>
      <trkpt lat="42.56382607854902744293212890625" lon="20.04702706821262836456298828125">
        <ele>2102</ele>
        <time>2026-06-15T11:53:43.000Z</time>
        <extensions>
          <ns3:TrackPointExtension>
            <ns3:atemp>17.0</ns3:atemp>
          </ns3:TrackPointExtension>
        </extensions>
      </trkpt>
      <trkpt lat="42.56382607854902744293212890625" lon="20.04702706821262836456298828125">
        <ele>2102</ele>
        <time>2026-06-15T11:53:44.000Z</time>
        <extensions>
          <ns3:TrackPointExtension>
            <ns3:atemp>17.0</ns3:atemp>
          </ns3:TrackPointExtension>
        </extensions>
      </trkpt>
      <trkpt lat="42.56382607854902744293212890625" lon="20.04702706821262836456298828125">
        <ele>2102</ele>
        <time>2026-06-15T11:53:45.000Z</time>
        <extensions>
          <ns3:TrackPointExtension>
            <ns3:atemp>17.0</ns3:atemp>
          </ns3:TrackPointExtension>
        </extensions>
      </trkpt>
      <trkpt lat="42.56382607854902744293212890625" lon="20.04702706821262836456298828125">
        <ele>2102</ele>
        <time>2026-06-15T11:53:46.000Z</time>
        <extensions>
          <ns3:TrackPointExtension>
            <ns3:atemp>17.0</ns3:atemp>
          </ns3:TrackPointExtension>
        </extensions>
      </trkpt>
      <trkpt lat="42.56382607854902744293212890625" lon="20.04702706821262836456298828125">
        <ele>2102</ele>
        <time>2026-06-15T11:53:47.000Z</time>
        <extensions>
          <ns3:TrackPointExtension>
            <ns3:atemp>17.0</ns3:atemp>
          </ns3:TrackPointExtension>
        </extensions>
      </trkpt>
      <trkpt lat="42.56382607854902744293212890625" lon="20.04702706821262836456298828125">
        <ele>2102</ele>
        <time>2026-06-15T11:53:48.000Z</time>
        <extensions>
          <ns3:TrackPointExtension>
            <ns3:atemp>17.0</ns3:atemp>
          </ns3:TrackPointExtension>
        </extensions>
      </trkpt>
      <trkpt lat="42.56382607854902744293212890625" lon="20.04702706821262836456298828125">
        <ele>2102.199951171875</ele>
        <time>2026-06-15T11:53:49.000Z</time>
        <extensions>
          <ns3:TrackPointExtension>
            <ns3:atemp>17.0</ns3:atemp>
          </ns3:TrackPointExtension>
        </extensions>
      </trkpt>
      <trkpt lat="42.56382607854902744293212890625" lon="20.04702706821262836456298828125">
        <ele>2102.199951171875</ele>
        <time>2026-06-15T11:53:50.000Z</time>
        <extensions>
          <ns3:TrackPointExtension>
            <ns3:atemp>17.0</ns3:atemp>
          </ns3:TrackPointExtension>
        </extensions>
      </trkpt>
      <trkpt lat="42.56382607854902744293212890625" lon="20.04702706821262836456298828125">
        <ele>2102.199951171875</ele>
        <time>2026-06-15T11:53:51.000Z</time>
        <extensions>
          <ns3:TrackPointExtension>
            <ns3:atemp>17.0</ns3:atemp>
          </ns3:TrackPointExtension>
        </extensions>
      </trkpt>
      <trkpt lat="42.56382607854902744293212890625" lon="20.04702706821262836456298828125">
        <ele>2102.199951171875</ele>
        <time>2026-06-15T11:53:52.000Z</time>
        <extensions>
          <ns3:TrackPointExtension>
            <ns3:atemp>17.0</ns3:atemp>
          </ns3:TrackPointExtension>
        </extensions>
      </trkpt>
      <trkpt lat="42.56382607854902744293212890625" lon="20.04702706821262836456298828125">
        <ele>2102.199951171875</ele>
        <time>2026-06-15T11:53:53.000Z</time>
        <extensions>
          <ns3:TrackPointExtension>
            <ns3:atemp>17.0</ns3:atemp>
          </ns3:TrackPointExtension>
        </extensions>
      </trkpt>
      <trkpt lat="42.56382607854902744293212890625" lon="20.04702706821262836456298828125">
        <ele>2102.199951171875</ele>
        <time>2026-06-15T11:53:54.000Z</time>
        <extensions>
          <ns3:TrackPointExtension>
            <ns3:atemp>17.0</ns3:atemp>
          </ns3:TrackPointExtension>
        </extensions>
      </trkpt>
      <trkpt lat="42.56382607854902744293212890625" lon="20.04702706821262836456298828125">
        <ele>2102</ele>
        <time>2026-06-15T11:53:55.000Z</time>
        <extensions>
          <ns3:TrackPointExtension>
            <ns3:atemp>17.0</ns3:atemp>
          </ns3:TrackPointExtension>
        </extensions>
      </trkpt>
      <trkpt lat="42.56382607854902744293212890625" lon="20.04702706821262836456298828125">
        <ele>2102</ele>
        <time>2026-06-15T11:53:56.000Z</time>
        <extensions>
          <ns3:TrackPointExtension>
            <ns3:atemp>17.0</ns3:atemp>
          </ns3:TrackPointExtension>
        </extensions>
      </trkpt>
      <trkpt lat="42.56382607854902744293212890625" lon="20.04702706821262836456298828125">
        <ele>2102</ele>
        <time>2026-06-15T11:53:57.000Z</time>
        <extensions>
          <ns3:TrackPointExtension>
            <ns3:atemp>17.0</ns3:atemp>
          </ns3:TrackPointExtension>
        </extensions>
      </trkpt>
      <trkpt lat="42.56382607854902744293212890625" lon="20.04702706821262836456298828125">
        <ele>2102</ele>
        <time>2026-06-15T11:53:58.000Z</time>
        <extensions>
          <ns3:TrackPointExtension>
            <ns3:atemp>18.0</ns3:atemp>
          </ns3:TrackPointExtension>
        </extensions>
      </trkpt>
      <trkpt lat="42.56382607854902744293212890625" lon="20.04702706821262836456298828125">
        <ele>2102</ele>
        <time>2026-06-15T11:53:59.000Z</time>
        <extensions>
          <ns3:TrackPointExtension>
            <ns3:atemp>18.0</ns3:atemp>
          </ns3:TrackPointExtension>
        </extensions>
      </trkpt>
      <trkpt lat="42.56382607854902744293212890625" lon="20.04702706821262836456298828125">
        <ele>2102.199951171875</ele>
        <time>2026-06-15T11:54:00.000Z</time>
        <extensions>
          <ns3:TrackPointExtension>
            <ns3:atemp>18.0</ns3:atemp>
          </ns3:TrackPointExtension>
        </extensions>
      </trkpt>
      <trkpt lat="42.56382607854902744293212890625" lon="20.04702706821262836456298828125">
        <ele>2102.199951171875</ele>
        <time>2026-06-15T11:54:01.000Z</time>
        <extensions>
          <ns3:TrackPointExtension>
            <ns3:atemp>18.0</ns3:atemp>
          </ns3:TrackPointExtension>
        </extensions>
      </trkpt>
      <trkpt lat="42.56382607854902744293212890625" lon="20.04702706821262836456298828125">
        <ele>2102.199951171875</ele>
        <time>2026-06-15T11:54:02.000Z</time>
        <extensions>
          <ns3:TrackPointExtension>
            <ns3:atemp>18.0</ns3:atemp>
          </ns3:TrackPointExtension>
        </extensions>
      </trkpt>
      <trkpt lat="42.56382607854902744293212890625" lon="20.04702706821262836456298828125">
        <ele>2102.199951171875</ele>
        <time>2026-06-15T11:54:03.000Z</time>
        <extensions>
          <ns3:TrackPointExtension>
            <ns3:atemp>18.0</ns3:atemp>
          </ns3:TrackPointExtension>
        </extensions>
      </trkpt>
      <trkpt lat="42.56382607854902744293212890625" lon="20.04702706821262836456298828125">
        <ele>2102.199951171875</ele>
        <time>2026-06-15T11:54:04.000Z</time>
        <extensions>
          <ns3:TrackPointExtension>
            <ns3:atemp>18.0</ns3:atemp>
          </ns3:TrackPointExtension>
        </extensions>
      </trkpt>
      <trkpt lat="42.56382607854902744293212890625" lon="20.04702706821262836456298828125">
        <ele>2102.199951171875</ele>
        <time>2026-06-15T11:54:05.000Z</time>
        <extensions>
          <ns3:TrackPointExtension>
            <ns3:atemp>18.0</ns3:atemp>
          </ns3:TrackPointExtension>
        </extensions>
      </trkpt>
      <trkpt lat="42.56382607854902744293212890625" lon="20.04702706821262836456298828125">
        <ele>2102.199951171875</ele>
        <time>2026-06-15T11:54:06.000Z</time>
        <extensions>
          <ns3:TrackPointExtension>
            <ns3:atemp>18.0</ns3:atemp>
          </ns3:TrackPointExtension>
        </extensions>
      </trkpt>
      <trkpt lat="42.56382607854902744293212890625" lon="20.04702706821262836456298828125">
        <ele>2102.199951171875</ele>
        <time>2026-06-15T11:54:07.000Z</time>
        <extensions>
          <ns3:TrackPointExtension>
            <ns3:atemp>18.0</ns3:atemp>
          </ns3:TrackPointExtension>
        </extensions>
      </trkpt>
      <trkpt lat="42.56382607854902744293212890625" lon="20.04702706821262836456298828125">
        <ele>2102.199951171875</ele>
        <time>2026-06-15T11:54:08.000Z</time>
        <extensions>
          <ns3:TrackPointExtension>
            <ns3:atemp>18.0</ns3:atemp>
          </ns3:TrackPointExtension>
        </extensions>
      </trkpt>
      <trkpt lat="42.56382607854902744293212890625" lon="20.04702706821262836456298828125">
        <ele>2102</ele>
        <time>2026-06-15T11:54:09.000Z</time>
        <extensions>
          <ns3:TrackPointExtension>
            <ns3:atemp>18.0</ns3:atemp>
          </ns3:TrackPointExtension>
        </extensions>
      </trkpt>
      <trkpt lat="42.56382607854902744293212890625" lon="20.04702706821262836456298828125">
        <ele>2102</ele>
        <time>2026-06-15T11:54:10.000Z</time>
        <extensions>
          <ns3:TrackPointExtension>
            <ns3:atemp>18.0</ns3:atemp>
          </ns3:TrackPointExtension>
        </extensions>
      </trkpt>
      <trkpt lat="42.56382607854902744293212890625" lon="20.04702706821262836456298828125">
        <ele>2101.800048828125</ele>
        <time>2026-06-15T11:54:11.000Z</time>
        <extensions>
          <ns3:TrackPointExtension>
            <ns3:atemp>18.0</ns3:atemp>
          </ns3:TrackPointExtension>
        </extensions>
      </trkpt>
      <trkpt lat="42.56382607854902744293212890625" lon="20.04702706821262836456298828125">
        <ele>2101.60009765625</ele>
        <time>2026-06-15T11:54:12.000Z</time>
        <extensions>
          <ns3:TrackPointExtension>
            <ns3:atemp>18.0</ns3:atemp>
          </ns3:TrackPointExtension>
        </extensions>
      </trkpt>
      <trkpt lat="42.56382607854902744293212890625" lon="20.04702706821262836456298828125">
        <ele>2101.60009765625</ele>
        <time>2026-06-15T11:54:13.000Z</time>
        <extensions>
          <ns3:TrackPointExtension>
            <ns3:atemp>18.0</ns3:atemp>
          </ns3:TrackPointExtension>
        </extensions>
      </trkpt>
      <trkpt lat="42.56382607854902744293212890625" lon="20.04702706821262836456298828125">
        <ele>2101.60009765625</ele>
        <time>2026-06-15T11:54:14.000Z</time>
        <extensions>
          <ns3:TrackPointExtension>
            <ns3:atemp>18.0</ns3:atemp>
          </ns3:TrackPointExtension>
        </extensions>
      </trkpt>
      <trkpt lat="42.56382607854902744293212890625" lon="20.04702706821262836456298828125">
        <ele>2101.60009765625</ele>
        <time>2026-06-15T11:54:15.000Z</time>
        <extensions>
          <ns3:TrackPointExtension>
            <ns3:atemp>18.0</ns3:atemp>
          </ns3:TrackPointExtension>
        </extensions>
      </trkpt>
      <trkpt lat="42.56382607854902744293212890625" lon="20.04702706821262836456298828125">
        <ele>2101.60009765625</ele>
        <time>2026-06-15T11:54:16.000Z</time>
        <extensions>
          <ns3:TrackPointExtension>
            <ns3:atemp>18.0</ns3:atemp>
          </ns3:TrackPointExtension>
        </extensions>
      </trkpt>
      <trkpt lat="42.56382607854902744293212890625" lon="20.04702706821262836456298828125">
        <ele>2101.60009765625</ele>
        <time>2026-06-15T11:54:17.000Z</time>
        <extensions>
          <ns3:TrackPointExtension>
            <ns3:atemp>18.0</ns3:atemp>
          </ns3:TrackPointExtension>
        </extensions>
      </trkpt>
      <trkpt lat="42.56382607854902744293212890625" lon="20.04702706821262836456298828125">
        <ele>2101.60009765625</ele>
        <time>2026-06-15T11:54:18.000Z</time>
        <extensions>
          <ns3:TrackPointExtension>
            <ns3:atemp>18.0</ns3:atemp>
          </ns3:TrackPointExtension>
        </extensions>
      </trkpt>
      <trkpt lat="42.5638295151293277740478515625" lon="20.04702606238424777984619140625">
        <ele>2101.39990234375</ele>
        <time>2026-06-15T11:54:19.000Z</time>
        <extensions>
          <ns3:TrackPointExtension>
            <ns3:atemp>18.0</ns3:atemp>
          </ns3:TrackPointExtension>
        </extensions>
      </trkpt>
      <trkpt lat="42.56383446045219898223876953125" lon="20.04702706821262836456298828125">
        <ele>2101.39990234375</ele>
        <time>2026-06-15T11:54:20.000Z</time>
        <extensions>
          <ns3:TrackPointExtension>
            <ns3:atemp>18.0</ns3:atemp>
          </ns3:TrackPointExtension>
        </extensions>
      </trkpt>
      <trkpt lat="42.5638288445770740509033203125" lon="20.0470234639942646026611328125">
        <ele>2101.199951171875</ele>
        <time>2026-06-15T11:54:21.000Z</time>
        <extensions>
          <ns3:TrackPointExtension>
            <ns3:atemp>18.0</ns3:atemp>
          </ns3:TrackPointExtension>
        </extensions>
      </trkpt>
      <trkpt lat="42.5638295151293277740478515625" lon="20.0470050238072872161865234375">
        <ele>2101.199951171875</ele>
        <time>2026-06-15T11:54:22.000Z</time>
        <extensions>
          <ns3:TrackPointExtension>
            <ns3:atemp>18.0</ns3:atemp>
          </ns3:TrackPointExtension>
        </extensions>
      </trkpt>
      <trkpt lat="42.5638328678905963897705078125" lon="20.0469718314707279205322265625">
        <ele>2101</ele>
        <time>2026-06-15T11:54:23.000Z</time>
        <extensions>
          <ns3:TrackPointExtension>
            <ns3:atemp>18.0</ns3:atemp>
          </ns3:TrackPointExtension>
        </extensions>
      </trkpt>
      <trkpt lat="42.56384770385921001434326171875" lon="20.04692983813583850860595703125">
        <ele>2100.60009765625</ele>
        <time>2026-06-15T11:54:24.000Z</time>
        <extensions>
          <ns3:TrackPointExtension>
            <ns3:atemp>18.0</ns3:atemp>
          </ns3:TrackPointExtension>
        </extensions>
      </trkpt>
      <trkpt lat="42.563863210380077362060546875" lon="20.04687778651714324951171875">
        <ele>2100.199951171875</ele>
        <time>2026-06-15T11:54:25.000Z</time>
        <extensions>
          <ns3:TrackPointExtension>
            <ns3:atemp>18.0</ns3:atemp>
          </ns3:TrackPointExtension>
        </extensions>
      </trkpt>
      <trkpt lat="42.56386899389326572418212890625" lon="20.0468108989298343658447265625">
        <ele>2099.39990234375</ele>
        <time>2026-06-15T11:54:26.000Z</time>
        <extensions>
          <ns3:TrackPointExtension>
            <ns3:atemp>18.0</ns3:atemp>
          </ns3:TrackPointExtension>
        </extensions>
      </trkpt>
      <trkpt lat="42.5638796389102935791015625" lon="20.04675499163568019866943359375">
        <ele>2098.60009765625</ele>
        <time>2026-06-15T11:54:27.000Z</time>
        <extensions>
          <ns3:TrackPointExtension>
            <ns3:atemp>18.0</ns3:atemp>
          </ns3:TrackPointExtension>
        </extensions>
      </trkpt>
      <trkpt lat="42.5638992525637149810791015625" lon="20.046707130968570709228515625">
        <ele>2097.800048828125</ele>
        <time>2026-06-15T11:54:28.000Z</time>
        <extensions>
          <ns3:TrackPointExtension>
            <ns3:atemp>18.0</ns3:atemp>
          </ns3:TrackPointExtension>
        </extensions>
      </trkpt>
      <trkpt lat="42.5639156810939311981201171875" lon="20.04667821340262889862060546875">
        <ele>2097</ele>
        <time>2026-06-15T11:54:29.000Z</time>
        <extensions>
          <ns3:TrackPointExtension>
            <ns3:atemp>18.0</ns3:atemp>
          </ns3:TrackPointExtension>
        </extensions>
      </trkpt>
      <trkpt lat="42.56392532028257846832275390625" lon="20.04665893502533435821533203125">
        <ele>2096.39990234375</ele>
        <time>2026-06-15T11:54:30.000Z</time>
        <extensions>
          <ns3:TrackPointExtension>
            <ns3:atemp>18.0</ns3:atemp>
          </ns3:TrackPointExtension>
        </extensions>
      </trkpt>
      <trkpt lat="42.5639304332435131072998046875" lon="20.04664418287575244903564453125">
        <ele>2096</ele>
        <time>2026-06-15T11:54:31.000Z</time>
        <extensions>
          <ns3:TrackPointExtension>
            <ns3:atemp>18.0</ns3:atemp>
          </ns3:TrackPointExtension>
        </extensions>
      </trkpt>
      <trkpt lat="42.563937641680240631103515625" lon="20.0466315262019634246826171875">
        <ele>2095.60009765625</ele>
        <time>2026-06-15T11:54:32.000Z</time>
        <extensions>
          <ns3:TrackPointExtension>
            <ns3:atemp>18.0</ns3:atemp>
          </ns3:TrackPointExtension>
        </extensions>
      </trkpt>
      <trkpt lat="42.5639438442885875701904296875" lon="20.046613924205303192138671875">
        <ele>2095.199951171875</ele>
        <time>2026-06-15T11:54:33.000Z</time>
        <extensions>
          <ns3:TrackPointExtension>
            <ns3:atemp>18.0</ns3:atemp>
          </ns3:TrackPointExtension>
        </extensions>
      </trkpt>
      <trkpt lat="42.56394091062247753143310546875" lon="20.04658500663936138153076171875">
        <ele>2094.800048828125</ele>
        <time>2026-06-15T11:54:34.000Z</time>
        <extensions>
          <ns3:TrackPointExtension>
            <ns3:atemp>18.0</ns3:atemp>
          </ns3:TrackPointExtension>
        </extensions>
      </trkpt>
      <trkpt lat="42.563934288918972015380859375" lon="20.046559274196624755859375">
        <ele>2094.199951171875</ele>
        <time>2026-06-15T11:54:35.000Z</time>
        <extensions>
          <ns3:TrackPointExtension>
            <ns3:atemp>18.0</ns3:atemp>
          </ns3:TrackPointExtension>
        </extensions>
      </trkpt>
      <trkpt lat="42.5639344565570354461669921875" lon="20.0465319491922855377197265625">
        <ele>2093.60009765625</ele>
        <time>2026-06-15T11:54:36.000Z</time>
        <extensions>
          <ns3:TrackPointExtension>
            <ns3:atemp>18.0</ns3:atemp>
          </ns3:TrackPointExtension>
        </extensions>
      </trkpt>
      <trkpt lat="42.563934624195098876953125" lon="20.04649800248444080352783203125">
        <ele>2093</ele>
        <time>2026-06-15T11:54:37.000Z</time>
        <extensions>
          <ns3:TrackPointExtension>
            <ns3:atemp>18.0</ns3:atemp>
          </ns3:TrackPointExtension>
        </extensions>
      </trkpt>
      <trkpt lat="42.5639311037957668304443359375" lon="20.04646003246307373046875">
        <ele>2092.60009765625</ele>
        <time>2026-06-15T11:54:38.000Z</time>
        <extensions>
          <ns3:TrackPointExtension>
            <ns3:atemp>18.0</ns3:atemp>
          </ns3:TrackPointExtension>
        </extensions>
      </trkpt>
      <trkpt lat="42.56394158117473125457763671875" lon="20.046422481536865234375">
        <ele>2092</ele>
        <time>2026-06-15T11:54:39.000Z</time>
        <extensions>
          <ns3:TrackPointExtension>
            <ns3:atemp>18.0</ns3:atemp>
          </ns3:TrackPointExtension>
        </extensions>
      </trkpt>
      <trkpt lat="42.56395700387656688690185546875" lon="20.04637864418327808380126953125">
        <ele>2091.60009765625</ele>
        <time>2026-06-15T11:54:40.000Z</time>
        <extensions>
          <ns3:TrackPointExtension>
            <ns3:atemp>18.0</ns3:atemp>
          </ns3:TrackPointExtension>
        </extensions>
      </trkpt>
      <trkpt lat="42.5639761984348297119140625" lon="20.04633103497326374053955078125">
        <ele>2091.199951171875</ele>
        <time>2026-06-15T11:54:41.000Z</time>
        <extensions>
          <ns3:TrackPointExtension>
            <ns3:atemp>18.0</ns3:atemp>
          </ns3:TrackPointExtension>
        </extensions>
      </trkpt>
      <trkpt lat="42.56399698555469512939453125" lon="20.04627722315490245819091796875">
        <ele>2090.39990234375</ele>
        <time>2026-06-15T11:54:42.000Z</time>
        <extensions>
          <ns3:TrackPointExtension>
            <ns3:atemp>18.0</ns3:atemp>
          </ns3:TrackPointExtension>
        </extensions>
      </trkpt>
      <trkpt lat="42.56400561891496181488037109375" lon="20.046234391629695892333984375">
        <ele>2089.800048828125</ele>
        <time>2026-06-15T11:54:43.000Z</time>
        <extensions>
          <ns3:TrackPointExtension>
            <ns3:atemp>18.0</ns3:atemp>
          </ns3:TrackPointExtension>
        </extensions>
      </trkpt>
      <trkpt lat="42.56399706937372684478759765625" lon="20.0461819209158420562744140625">
        <ele>2089.39990234375</ele>
        <time>2026-06-15T11:54:44.000Z</time>
        <extensions>
          <ns3:TrackPointExtension>
            <ns3:atemp>18.0</ns3:atemp>
          </ns3:TrackPointExtension>
        </extensions>
      </trkpt>
      <trkpt lat="42.56398097611963748931884765625" lon="20.04614478908479213714599609375">
        <ele>2088.800048828125</ele>
        <time>2026-06-15T11:54:45.000Z</time>
        <extensions>
          <ns3:TrackPointExtension>
            <ns3:atemp>18.0</ns3:atemp>
          </ns3:TrackPointExtension>
        </extensions>
      </trkpt>
      <trkpt lat="42.56396069191396236419677734375" lon="20.04612232558429241180419921875">
        <ele>2088.199951171875</ele>
        <time>2026-06-15T11:54:46.000Z</time>
        <extensions>
          <ns3:TrackPointExtension>
            <ns3:atemp>18.0</ns3:atemp>
          </ns3:TrackPointExtension>
        </extensions>
      </trkpt>
      <trkpt lat="42.5639341212809085845947265625" lon="20.0460984371602535247802734375">
        <ele>2087.60009765625</ele>
        <time>2026-06-15T11:54:47.000Z</time>
        <extensions>
          <ns3:TrackPointExtension>
            <ns3:atemp>18.0</ns3:atemp>
          </ns3:TrackPointExtension>
        </extensions>
      </trkpt>
      <trkpt lat="42.56391023285686969757080078125" lon="20.04606566391885280609130859375">
        <ele>2087</ele>
        <time>2026-06-15T11:54:48.000Z</time>
        <extensions>
          <ns3:TrackPointExtension>
            <ns3:atemp>18.0</ns3:atemp>
          </ns3:TrackPointExtension>
        </extensions>
      </trkpt>
      <trkpt lat="42.563896067440509796142578125" lon="20.0460092537105083465576171875">
        <ele>2086.39990234375</ele>
        <time>2026-06-15T11:54:49.000Z</time>
        <extensions>
          <ns3:TrackPointExtension>
            <ns3:atemp>18.0</ns3:atemp>
          </ns3:TrackPointExtension>
        </extensions>
      </trkpt>
      <trkpt lat="42.56388022564351558685302734375" lon="20.04594345577061176300048828125">
        <ele>2086</ele>
        <time>2026-06-15T11:54:50.000Z</time>
        <extensions>
          <ns3:TrackPointExtension>
            <ns3:atemp>18.0</ns3:atemp>
          </ns3:TrackPointExtension>
        </extensions>
      </trkpt>
      <trkpt lat="42.5638769567012786865234375" lon="20.04588075913488864898681640625">
        <ele>2085.39990234375</ele>
        <time>2026-06-15T11:54:51.000Z</time>
        <extensions>
          <ns3:TrackPointExtension>
            <ns3:atemp>18.0</ns3:atemp>
          </ns3:TrackPointExtension>
        </extensions>
      </trkpt>
      <trkpt lat="42.56387083791196346282958984375" lon="20.0458275340497493743896484375">
        <ele>2085</ele>
        <time>2026-06-15T11:54:52.000Z</time>
        <extensions>
          <ns3:TrackPointExtension>
            <ns3:atemp>18.0</ns3:atemp>
          </ns3:TrackPointExtension>
        </extensions>
      </trkpt>
      <trkpt lat="42.563859522342681884765625" lon="20.04578520543873310089111328125">
        <ele>2084.199951171875</ele>
        <time>2026-06-15T11:54:53.000Z</time>
        <extensions>
          <ns3:TrackPointExtension>
            <ns3:atemp>18.0</ns3:atemp>
          </ns3:TrackPointExtension>
        </extensions>
      </trkpt>
      <trkpt lat="42.56386530585587024688720703125" lon="20.04575586877763271331787109375">
        <ele>2083.800048828125</ele>
        <time>2026-06-15T11:54:54.000Z</time>
        <extensions>
          <ns3:TrackPointExtension>
            <ns3:atemp>18.0</ns3:atemp>
          </ns3:TrackPointExtension>
        </extensions>
      </trkpt>
      <trkpt lat="42.563873268663883209228515625" lon="20.04572938196361064910888671875">
        <ele>2083.39990234375</ele>
        <time>2026-06-15T11:54:55.000Z</time>
        <extensions>
          <ns3:TrackPointExtension>
            <ns3:atemp>18.0</ns3:atemp>
          </ns3:TrackPointExtension>
        </extensions>
      </trkpt>
      <trkpt lat="42.5638796389102935791015625" lon="20.04570339806377887725830078125">
        <ele>2083</ele>
        <time>2026-06-15T11:54:56.000Z</time>
        <extensions>
          <ns3:TrackPointExtension>
            <ns3:atemp>18.0</ns3:atemp>
          </ns3:TrackPointExtension>
        </extensions>
      </trkpt>
      <trkpt lat="42.5638868473470211029052734375" lon="20.04567070864140987396240234375">
        <ele>2082.60009765625</ele>
        <time>2026-06-15T11:54:57.000Z</time>
        <extensions>
          <ns3:TrackPointExtension>
            <ns3:atemp>18.0</ns3:atemp>
          </ns3:TrackPointExtension>
        </extensions>
      </trkpt>
      <trkpt lat="42.56389497779309749603271484375" lon="20.04563282243907451629638671875">
        <ele>2082.39990234375</ele>
        <time>2026-06-15T11:54:58.000Z</time>
        <extensions>
          <ns3:TrackPointExtension>
            <ns3:atemp>18.0</ns3:atemp>
          </ns3:TrackPointExtension>
        </extensions>
      </trkpt>
      <trkpt lat="42.56389506161212921142578125" lon="20.0456012226641178131103515625">
        <ele>2082.199951171875</ele>
        <time>2026-06-15T11:54:59.000Z</time>
        <extensions>
          <ns3:TrackPointExtension>
            <ns3:atemp>18.0</ns3:atemp>
          </ns3:TrackPointExtension>
        </extensions>
      </trkpt>
      <trkpt lat="42.5638945586979389190673828125" lon="20.04558236338198184967041015625">
        <ele>2082</ele>
        <time>2026-06-15T11:55:00.000Z</time>
        <extensions>
          <ns3:TrackPointExtension>
            <ns3:atemp>18.0</ns3:atemp>
          </ns3:TrackPointExtension>
        </extensions>
      </trkpt>
      <trkpt lat="42.5638932175934314727783203125" lon="20.04556660540401935577392578125">
        <ele>2081.800048828125</ele>
        <time>2026-06-15T11:55:01.000Z</time>
        <extensions>
          <ns3:TrackPointExtension>
            <ns3:atemp>18.0</ns3:atemp>
          </ns3:TrackPointExtension>
        </extensions>
      </trkpt>
      <trkpt lat="42.56388994865119457244873046875" lon="20.0455552898347377777099609375">
        <ele>2081.800048828125</ele>
        <time>2026-06-15T11:55:02.000Z</time>
        <extensions>
          <ns3:TrackPointExtension>
            <ns3:atemp>18.0</ns3:atemp>
          </ns3:TrackPointExtension>
        </extensions>
      </trkpt>
      <trkpt lat="42.56389246322214603424072265625" lon="20.04555755294859409332275390625">
        <ele>2081.800048828125</ele>
        <time>2026-06-15T11:55:03.000Z</time>
        <extensions>
          <ns3:TrackPointExtension>
            <ns3:atemp>18.0</ns3:atemp>
          </ns3:TrackPointExtension>
        </extensions>
      </trkpt>
      <trkpt lat="42.56389246322214603424072265625" lon="20.04555755294859409332275390625">
        <ele>2081.800048828125</ele>
        <time>2026-06-15T11:55:04.000Z</time>
        <extensions>
          <ns3:TrackPointExtension>
            <ns3:atemp>18.0</ns3:atemp>
          </ns3:TrackPointExtension>
        </extensions>
      </trkpt>
      <trkpt lat="42.56389246322214603424072265625" lon="20.04555755294859409332275390625">
        <ele>2081.800048828125</ele>
        <time>2026-06-15T11:55:05.000Z</time>
        <extensions>
          <ns3:TrackPointExtension>
            <ns3:atemp>18.0</ns3:atemp>
          </ns3:TrackPointExtension>
        </extensions>
      </trkpt>
      <trkpt lat="42.56389246322214603424072265625" lon="20.04555755294859409332275390625">
        <ele>2081.800048828125</ele>
        <time>2026-06-15T11:55:06.000Z</time>
        <extensions>
          <ns3:TrackPointExtension>
            <ns3:atemp>18.0</ns3:atemp>
          </ns3:TrackPointExtension>
        </extensions>
      </trkpt>
      <trkpt lat="42.56389246322214603424072265625" lon="20.04555755294859409332275390625">
        <ele>2081.800048828125</ele>
        <time>2026-06-15T11:55:07.000Z</time>
        <extensions>
          <ns3:TrackPointExtension>
            <ns3:atemp>18.0</ns3:atemp>
          </ns3:TrackPointExtension>
        </extensions>
      </trkpt>
      <trkpt lat="42.56389246322214603424072265625" lon="20.04555755294859409332275390625">
        <ele>2081.60009765625</ele>
        <time>2026-06-15T11:55:08.000Z</time>
        <extensions>
          <ns3:TrackPointExtension>
            <ns3:atemp>18.0</ns3:atemp>
          </ns3:TrackPointExtension>
        </extensions>
      </trkpt>
      <trkpt lat="42.56389229558408260345458984375" lon="20.04555705003440380096435546875">
        <ele>2081.60009765625</ele>
        <time>2026-06-15T11:55:09.000Z</time>
        <extensions>
          <ns3:TrackPointExtension>
            <ns3:atemp>18.0</ns3:atemp>
          </ns3:TrackPointExtension>
        </extensions>
      </trkpt>
      <trkpt lat="42.563891373574733734130859375" lon="20.04553492181003093719482421875">
        <ele>2081.60009765625</ele>
        <time>2026-06-15T11:55:10.000Z</time>
        <extensions>
          <ns3:TrackPointExtension>
            <ns3:atemp>18.0</ns3:atemp>
          </ns3:TrackPointExtension>
        </extensions>
      </trkpt>
      <trkpt lat="42.5638922117650508880615234375" lon="20.045512877404689788818359375">
        <ele>2081.39990234375</ele>
        <time>2026-06-15T11:55:11.000Z</time>
        <extensions>
          <ns3:TrackPointExtension>
            <ns3:atemp>18.0</ns3:atemp>
          </ns3:TrackPointExtension>
        </extensions>
      </trkpt>
      <trkpt lat="42.56389698944985866546630859375" lon="20.04548412747681140899658203125">
        <ele>2081.39990234375</ele>
        <time>2026-06-15T11:55:12.000Z</time>
        <extensions>
          <ns3:TrackPointExtension>
            <ns3:atemp>18.0</ns3:atemp>
          </ns3:TrackPointExtension>
        </extensions>
      </trkpt>
      <trkpt lat="42.56390511989593505859375" lon="20.045457221567630767822265625">
        <ele>2081.60009765625</ele>
        <time>2026-06-15T11:55:13.000Z</time>
        <extensions>
          <ns3:TrackPointExtension>
            <ns3:atemp>18.0</ns3:atemp>
          </ns3:TrackPointExtension>
        </extensions>
      </trkpt>
      <trkpt lat="42.563911490142345428466796875" lon="20.045432746410369873046875">
        <ele>2081.60009765625</ele>
        <time>2026-06-15T11:55:14.000Z</time>
        <extensions>
          <ns3:TrackPointExtension>
            <ns3:atemp>18.0</ns3:atemp>
          </ns3:TrackPointExtension>
        </extensions>
      </trkpt>
      <trkpt lat="42.56391492672264575958251953125" lon="20.04541321657598018646240234375">
        <ele>2081.60009765625</ele>
        <time>2026-06-15T11:55:15.000Z</time>
        <extensions>
          <ns3:TrackPointExtension>
            <ns3:atemp>18.0</ns3:atemp>
          </ns3:TrackPointExtension>
        </extensions>
      </trkpt>
      <trkpt lat="42.56391962058842182159423828125" lon="20.0453967042267322540283203125">
        <ele>2082</ele>
        <time>2026-06-15T11:55:16.000Z</time>
        <extensions>
          <ns3:TrackPointExtension>
            <ns3:atemp>18.0</ns3:atemp>
          </ns3:TrackPointExtension>
        </extensions>
      </trkpt>
      <trkpt lat="42.5639250688254833221435546875" lon="20.0453715585172176361083984375">
        <ele>2082.199951171875</ele>
        <time>2026-06-15T11:55:17.000Z</time>
        <extensions>
          <ns3:TrackPointExtension>
            <ns3:atemp>18.0</ns3:atemp>
          </ns3:TrackPointExtension>
        </extensions>
      </trkpt>
      <trkpt lat="42.5639300979673862457275390625" lon="20.04534264095127582550048828125">
        <ele>2082.39990234375</ele>
        <time>2026-06-15T11:55:18.000Z</time>
        <extensions>
          <ns3:TrackPointExtension>
            <ns3:atemp>18.0</ns3:atemp>
          </ns3:TrackPointExtension>
        </extensions>
      </trkpt>
      <trkpt lat="42.56394040770828723907470703125" lon="20.0453205965459346771240234375">
        <ele>2082.800048828125</ele>
        <time>2026-06-15T11:55:19.000Z</time>
        <extensions>
          <ns3:TrackPointExtension>
            <ns3:atemp>18.0</ns3:atemp>
          </ns3:TrackPointExtension>
        </extensions>
      </trkpt>
      <trkpt lat="42.56394334137439727783203125" lon="20.045298971235752105712890625">
        <ele>2083</ele>
        <time>2026-06-15T11:55:20.000Z</time>
        <extensions>
          <ns3:TrackPointExtension>
            <ns3:atemp>18.0</ns3:atemp>
          </ns3:TrackPointExtension>
        </extensions>
      </trkpt>
      <trkpt lat="42.563949041068553924560546875" lon="20.045270808041095733642578125">
        <ele>2083.199951171875</ele>
        <time>2026-06-15T11:55:21.000Z</time>
        <extensions>
          <ns3:TrackPointExtension>
            <ns3:atemp>18.0</ns3:atemp>
          </ns3:TrackPointExtension>
        </extensions>
      </trkpt>
      <trkpt lat="42.563952393829822540283203125" lon="20.045245327055454254150390625">
        <ele>2083.199951171875</ele>
        <time>2026-06-15T11:55:22.000Z</time>
        <extensions>
          <ns3:TrackPointExtension>
            <ns3:atemp>18.0</ns3:atemp>
          </ns3:TrackPointExtension>
        </extensions>
      </trkpt>
      <trkpt lat="42.56394870579242706298828125" lon="20.04522286355495452880859375">
        <ele>2083.39990234375</ele>
        <time>2026-06-15T11:55:23.000Z</time>
        <extensions>
          <ns3:TrackPointExtension>
            <ns3:atemp>18.0</ns3:atemp>
          </ns3:TrackPointExtension>
        </extensions>
      </trkpt>
      <trkpt lat="42.563935630023479461669921875" lon="20.0451935268938541412353515625">
        <ele>2083.199951171875</ele>
        <time>2026-06-15T11:55:24.000Z</time>
        <extensions>
          <ns3:TrackPointExtension>
            <ns3:atemp>18.0</ns3:atemp>
          </ns3:TrackPointExtension>
        </extensions>
      </trkpt>
      <trkpt lat="42.563913501799106597900390625" lon="20.0451658666133880615234375">
        <ele>2083.199951171875</ele>
        <time>2026-06-15T11:55:25.000Z</time>
        <extensions>
          <ns3:TrackPointExtension>
            <ns3:atemp>18.0</ns3:atemp>
          </ns3:TrackPointExtension>
        </extensions>
      </trkpt>
      <trkpt lat="42.5638985820114612579345703125" lon="20.045131333172321319580078125">
        <ele>2083</ele>
        <time>2026-06-15T11:55:26.000Z</time>
        <extensions>
          <ns3:TrackPointExtension>
            <ns3:atemp>18.0</ns3:atemp>
          </ns3:TrackPointExtension>
        </extensions>
      </trkpt>
      <trkpt lat="42.5638841651380062103271484375" lon="20.04509034566581249237060546875">
        <ele>2082.800048828125</ele>
        <time>2026-06-15T11:55:27.000Z</time>
        <extensions>
          <ns3:TrackPointExtension>
            <ns3:atemp>18.0</ns3:atemp>
          </ns3:TrackPointExtension>
        </extensions>
      </trkpt>
      <trkpt lat="42.56387502886354923248291015625" lon="20.04504986107349395751953125">
        <ele>2082.800048828125</ele>
        <time>2026-06-15T11:55:28.000Z</time>
        <extensions>
          <ns3:TrackPointExtension>
            <ns3:atemp>18.0</ns3:atemp>
          </ns3:TrackPointExtension>
        </extensions>
      </trkpt>
      <trkpt lat="42.5638694129884243011474609375" lon="20.04500132985413074493408203125">
        <ele>2082.60009765625</ele>
        <time>2026-06-15T11:55:29.000Z</time>
        <extensions>
          <ns3:TrackPointExtension>
            <ns3:atemp>18.0</ns3:atemp>
          </ns3:TrackPointExtension>
        </extensions>
      </trkpt>
      <trkpt lat="42.5638724304735660552978515625" lon="20.04495522938668727874755859375">
        <ele>2082.39990234375</ele>
        <time>2026-06-15T11:55:30.000Z</time>
        <extensions>
          <ns3:TrackPointExtension>
            <ns3:atemp>18.0</ns3:atemp>
          </ns3:TrackPointExtension>
        </extensions>
      </trkpt>
      <trkpt lat="42.5638741068542003631591796875" lon="20.04491298459470272064208984375">
        <ele>2082.199951171875</ele>
        <time>2026-06-15T11:55:31.000Z</time>
        <extensions>
          <ns3:TrackPointExtension>
            <ns3:atemp>18.0</ns3:atemp>
          </ns3:TrackPointExtension>
        </extensions>
      </trkpt>
      <trkpt lat="42.563877962529659271240234375" lon="20.04486889578402042388916015625">
        <ele>2082</ele>
        <time>2026-06-15T11:55:32.000Z</time>
        <extensions>
          <ns3:TrackPointExtension>
            <ns3:atemp>18.0</ns3:atemp>
          </ns3:TrackPointExtension>
        </extensions>
      </trkpt>
      <trkpt lat="42.56388424895703792572021484375" lon="20.04482782445847988128662109375">
        <ele>2081.800048828125</ele>
        <time>2026-06-15T11:55:33.000Z</time>
        <extensions>
          <ns3:TrackPointExtension>
            <ns3:atemp>18.0</ns3:atemp>
          </ns3:TrackPointExtension>
        </extensions>
      </trkpt>
      <trkpt lat="42.5638885237276554107666015625" lon="20.04479127936065196990966796875">
        <ele>2081.60009765625</ele>
        <time>2026-06-15T11:55:34.000Z</time>
        <extensions>
          <ns3:TrackPointExtension>
            <ns3:atemp>18.0</ns3:atemp>
          </ns3:TrackPointExtension>
        </extensions>
      </trkpt>
      <trkpt lat="42.56389346905052661895751953125" lon="20.04475439898669719696044921875">
        <ele>2081.39990234375</ele>
        <time>2026-06-15T11:55:35.000Z</time>
        <extensions>
          <ns3:TrackPointExtension>
            <ns3:atemp>18.0</ns3:atemp>
          </ns3:TrackPointExtension>
        </extensions>
      </trkpt>
      <trkpt lat="42.5638955645263195037841796875" lon="20.0447221286594867706298828125">
        <ele>2081.39990234375</ele>
        <time>2026-06-15T11:55:36.000Z</time>
        <extensions>
          <ns3:TrackPointExtension>
            <ns3:atemp>18.0</ns3:atemp>
          </ns3:TrackPointExtension>
        </extensions>
      </trkpt>
      <trkpt lat="42.56390176713466644287109375" lon="20.0446943007409572601318359375">
        <ele>2081.39990234375</ele>
        <time>2026-06-15T11:55:37.000Z</time>
        <extensions>
          <ns3:TrackPointExtension>
            <ns3:atemp>18.0</ns3:atemp>
          </ns3:TrackPointExtension>
        </extensions>
      </trkpt>
      <trkpt lat="42.5639123283326625823974609375" lon="20.04466705955564975738525390625">
        <ele>2081.39990234375</ele>
        <time>2026-06-15T11:55:38.000Z</time>
        <extensions>
          <ns3:TrackPointExtension>
            <ns3:atemp>18.0</ns3:atemp>
          </ns3:TrackPointExtension>
        </extensions>
      </trkpt>
      <trkpt lat="42.5639257393777370452880859375" lon="20.04463680088520050048828125">
        <ele>2081.60009765625</ele>
        <time>2026-06-15T11:55:39.000Z</time>
        <extensions>
          <ns3:TrackPointExtension>
            <ns3:atemp>18.0</ns3:atemp>
          </ns3:TrackPointExtension>
        </extensions>
      </trkpt>
      <trkpt lat="42.56393688730895519256591796875" lon="20.04461190663278102874755859375">
        <ele>2081.60009765625</ele>
        <time>2026-06-15T11:55:40.000Z</time>
        <extensions>
          <ns3:TrackPointExtension>
            <ns3:atemp>18.0</ns3:atemp>
          </ns3:TrackPointExtension>
        </extensions>
      </trkpt>
      <trkpt lat="42.5639448501169681549072265625" lon="20.04458793438971042633056640625">
        <ele>2082</ele>
        <time>2026-06-15T11:55:41.000Z</time>
        <extensions>
          <ns3:TrackPointExtension>
            <ns3:atemp>18.0</ns3:atemp>
          </ns3:TrackPointExtension>
        </extensions>
      </trkpt>
      <trkpt lat="42.5639579258859157562255859375" lon="20.0445749424397945404052734375">
        <ele>2082.199951171875</ele>
        <time>2026-06-15T11:55:42.000Z</time>
        <extensions>
          <ns3:TrackPointExtension>
            <ns3:atemp>18.0</ns3:atemp>
          </ns3:TrackPointExtension>
        </extensions>
      </trkpt>
      <trkpt lat="42.5639761984348297119140625" lon="20.044561363756656646728515625">
        <ele>2082.39990234375</ele>
        <time>2026-06-15T11:55:43.000Z</time>
        <extensions>
          <ns3:TrackPointExtension>
            <ns3:atemp>18.0</ns3:atemp>
          </ns3:TrackPointExtension>
        </extensions>
      </trkpt>
      <trkpt lat="42.56399556063115596771240234375" lon="20.04454434849321842193603515625">
        <ele>2082.60009765625</ele>
        <time>2026-06-15T11:55:44.000Z</time>
        <extensions>
          <ns3:TrackPointExtension>
            <ns3:atemp>18.0</ns3:atemp>
          </ns3:TrackPointExtension>
        </extensions>
      </trkpt>
      <trkpt lat="42.5640085525810718536376953125" lon="20.04451987333595752716064453125">
        <ele>2082.800048828125</ele>
        <time>2026-06-15T11:55:45.000Z</time>
        <extensions>
          <ns3:TrackPointExtension>
            <ns3:atemp>18.0</ns3:atemp>
          </ns3:TrackPointExtension>
        </extensions>
      </trkpt>
      <trkpt lat="42.56402456201612949371337890625" lon="20.04449288360774517059326171875">
        <ele>2083</ele>
        <time>2026-06-15T11:55:46.000Z</time>
        <extensions>
          <ns3:TrackPointExtension>
            <ns3:atemp>18.0</ns3:atemp>
          </ns3:TrackPointExtension>
        </extensions>
      </trkpt>
      <trkpt lat="42.56404283456504344940185546875" lon="20.044457428157329559326171875">
        <ele>2083.199951171875</ele>
        <time>2026-06-15T11:55:47.000Z</time>
        <extensions>
          <ns3:TrackPointExtension>
            <ns3:atemp>18.0</ns3:atemp>
          </ns3:TrackPointExtension>
        </extensions>
      </trkpt>
      <trkpt lat="42.56405289284884929656982421875" lon="20.04442230798304080963134765625">
        <ele>2083.39990234375</ele>
        <time>2026-06-15T11:55:48.000Z</time>
        <extensions>
          <ns3:TrackPointExtension>
            <ns3:atemp>18.0</ns3:atemp>
          </ns3:TrackPointExtension>
        </extensions>
      </trkpt>
      <trkpt lat="42.56405691616237163543701171875" lon="20.0443875230848789215087890625">
        <ele>2083.60009765625</ele>
        <time>2026-06-15T11:55:49.000Z</time>
        <extensions>
          <ns3:TrackPointExtension>
            <ns3:atemp>18.0</ns3:atemp>
          </ns3:TrackPointExtension>
        </extensions>
      </trkpt>
      <trkpt lat="42.56405842490494251251220703125" lon="20.0443499721586704254150390625">
        <ele>2083.800048828125</ele>
        <time>2026-06-15T11:55:50.000Z</time>
        <extensions>
          <ns3:TrackPointExtension>
            <ns3:atemp>18.0</ns3:atemp>
          </ns3:TrackPointExtension>
        </extensions>
      </trkpt>
      <trkpt lat="42.56405465304851531982421875" lon="20.04431116394698619842529296875">
        <ele>2084</ele>
        <time>2026-06-15T11:55:51.000Z</time>
        <extensions>
          <ns3:TrackPointExtension>
            <ns3:atemp>18.0</ns3:atemp>
          </ns3:TrackPointExtension>
        </extensions>
      </trkpt>
      <trkpt lat="42.5640507973730564117431640625" lon="20.04426824860274791717529296875">
        <ele>2084.199951171875</ele>
        <time>2026-06-15T11:55:52.000Z</time>
        <extensions>
          <ns3:TrackPointExtension>
            <ns3:atemp>18.0</ns3:atemp>
          </ns3:TrackPointExtension>
        </extensions>
      </trkpt>
      <trkpt lat="42.56404149346053600311279296875" lon="20.0442299433052539825439453125">
        <ele>2084.199951171875</ele>
        <time>2026-06-15T11:55:53.000Z</time>
        <extensions>
          <ns3:TrackPointExtension>
            <ns3:atemp>18.0</ns3:atemp>
          </ns3:TrackPointExtension>
        </extensions>
      </trkpt>
      <trkpt lat="42.56402640603482723236083984375" lon="20.0441870279610157012939453125">
        <ele>2084.199951171875</ele>
        <time>2026-06-15T11:55:54.000Z</time>
        <extensions>
          <ns3:TrackPointExtension>
            <ns3:atemp>18.0</ns3:atemp>
          </ns3:TrackPointExtension>
        </extensions>
      </trkpt>
      <trkpt lat="42.56400813348591327667236328125" lon="20.044142939150333404541015625">
        <ele>2084.199951171875</ele>
        <time>2026-06-15T11:55:55.000Z</time>
        <extensions>
          <ns3:TrackPointExtension>
            <ns3:atemp>18.0</ns3:atemp>
          </ns3:TrackPointExtension>
        </extensions>
      </trkpt>
      <trkpt lat="42.5639884360134601593017578125" lon="20.04409968852996826171875">
        <ele>2084</ele>
        <time>2026-06-15T11:55:56.000Z</time>
        <extensions>
          <ns3:TrackPointExtension>
            <ns3:atemp>18.0</ns3:atemp>
          </ns3:TrackPointExtension>
        </extensions>
      </trkpt>
      <trkpt lat="42.56396840326488018035888671875" lon="20.04405451007187366485595703125">
        <ele>2083.800048828125</ele>
        <time>2026-06-15T11:55:57.000Z</time>
        <extensions>
          <ns3:TrackPointExtension>
            <ns3:atemp>18.0</ns3:atemp>
          </ns3:TrackPointExtension>
        </extensions>
      </trkpt>
      <trkpt lat="42.56394661031663417816162109375" lon="20.04400623030960559844970703125">
        <ele>2083.800048828125</ele>
        <time>2026-06-15T11:55:58.000Z</time>
        <extensions>
          <ns3:TrackPointExtension>
            <ns3:atemp>18.0</ns3:atemp>
          </ns3:TrackPointExtension>
        </extensions>
      </trkpt>
      <trkpt lat="42.56392590701580047607421875" lon="20.0439489819109439849853515625">
        <ele>2083.60009765625</ele>
        <time>2026-06-15T11:55:59.000Z</time>
        <extensions>
          <ns3:TrackPointExtension>
            <ns3:atemp>18.0</ns3:atemp>
          </ns3:TrackPointExtension>
        </extensions>
      </trkpt>
      <trkpt lat="42.56390302442014217376708984375" lon="20.043890476226806640625">
        <ele>2083.199951171875</ele>
        <time>2026-06-15T11:56:00.000Z</time>
        <extensions>
          <ns3:TrackPointExtension>
            <ns3:atemp>18.0</ns3:atemp>
          </ns3:TrackPointExtension>
        </extensions>
      </trkpt>
      <trkpt lat="42.563883326947689056396484375" lon="20.04383121617138385772705078125">
        <ele>2083</ele>
        <time>2026-06-15T11:56:01.000Z</time>
        <extensions>
          <ns3:TrackPointExtension>
            <ns3:atemp>18.0</ns3:atemp>
          </ns3:TrackPointExtension>
        </extensions>
      </trkpt>
      <trkpt lat="42.56386731751263141632080078125" lon="20.04376550205051898956298828125">
        <ele>2082.60009765625</ele>
        <time>2026-06-15T11:56:02.000Z</time>
        <extensions>
          <ns3:TrackPointExtension>
            <ns3:atemp>18.0</ns3:atemp>
          </ns3:TrackPointExtension>
        </extensions>
      </trkpt>
      <trkpt lat="42.5638486258685588836669921875" lon="20.04369442351162433624267578125">
        <ele>2082.39990234375</ele>
        <time>2026-06-15T11:56:03.000Z</time>
        <extensions>
          <ns3:TrackPointExtension>
            <ns3:atemp>18.0</ns3:atemp>
          </ns3:TrackPointExtension>
        </extensions>
      </trkpt>
      <trkpt lat="42.56382104940712451934814453125" lon="20.0436234287917613983154296875">
        <ele>2081.800048828125</ele>
        <time>2026-06-15T11:56:04.000Z</time>
        <extensions>
          <ns3:TrackPointExtension>
            <ns3:atemp>18.0</ns3:atemp>
          </ns3:TrackPointExtension>
        </extensions>
      </trkpt>
      <trkpt lat="42.5637803971767425537109375" lon="20.043556205928325653076171875">
        <ele>2081.39990234375</ele>
        <time>2026-06-15T11:56:05.000Z</time>
        <extensions>
          <ns3:TrackPointExtension>
            <ns3:atemp>18.0</ns3:atemp>
          </ns3:TrackPointExtension>
        </extensions>
      </trkpt>
      <trkpt lat="42.56373370997607707977294921875" lon="20.04349577240645885467529296875">
        <ele>2081</ele>
        <time>2026-06-15T11:56:06.000Z</time>
        <extensions>
          <ns3:TrackPointExtension>
            <ns3:atemp>18.0</ns3:atemp>
          </ns3:TrackPointExtension>
        </extensions>
      </trkpt>
      <trkpt lat="42.56368308328092098236083984375" lon="20.0434380210936069488525390625">
        <ele>2080.800048828125</ele>
        <time>2026-06-15T11:56:07.000Z</time>
        <extensions>
          <ns3:TrackPointExtension>
            <ns3:atemp>18.0</ns3:atemp>
          </ns3:TrackPointExtension>
        </extensions>
      </trkpt>
      <trkpt lat="42.5636370666325092315673828125" lon="20.0433682836592197418212890625">
        <ele>2080.199951171875</ele>
        <time>2026-06-15T11:56:08.000Z</time>
        <extensions>
          <ns3:TrackPointExtension>
            <ns3:atemp>18.0</ns3:atemp>
          </ns3:TrackPointExtension>
        </extensions>
      </trkpt>
      <trkpt lat="42.56359138526022434234619140625" lon="20.04330064170062541961669921875">
        <ele>2080</ele>
        <time>2026-06-15T11:56:09.000Z</time>
        <extensions>
          <ns3:TrackPointExtension>
            <ns3:atemp>18.0</ns3:atemp>
          </ns3:TrackPointExtension>
        </extensions>
      </trkpt>
      <trkpt lat="42.56353606469929218292236328125" lon="20.04326778464019298553466796875">
        <ele>2079.60009765625</ele>
        <time>2026-06-15T11:56:10.000Z</time>
        <extensions>
          <ns3:TrackPointExtension>
            <ns3:atemp>18.0</ns3:atemp>
          </ns3:TrackPointExtension>
        </extensions>
      </trkpt>
      <trkpt lat="42.56347336806356906890869140625" lon="20.04326225258409976959228515625">
        <ele>2079</ele>
        <time>2026-06-15T11:56:11.000Z</time>
        <extensions>
          <ns3:TrackPointExtension>
            <ns3:atemp>18.0</ns3:atemp>
          </ns3:TrackPointExtension>
        </extensions>
      </trkpt>
      <trkpt lat="42.5634167902171611785888671875" lon="20.043276585638523101806640625">
        <ele>2078.39990234375</ele>
        <time>2026-06-15T11:56:12.000Z</time>
        <extensions>
          <ns3:TrackPointExtension>
            <ns3:atemp>18.0</ns3:atemp>
          </ns3:TrackPointExtension>
        </extensions>
      </trkpt>
      <trkpt lat="42.56335518322885036468505859375" lon="20.0432868115603923797607421875">
        <ele>2077.800048828125</ele>
        <time>2026-06-15T11:56:13.000Z</time>
        <extensions>
          <ns3:TrackPointExtension>
            <ns3:atemp>18.0</ns3:atemp>
          </ns3:TrackPointExtension>
        </extensions>
      </trkpt>
      <trkpt lat="42.5632934086024761199951171875" lon="20.0432948581874370574951171875">
        <ele>2077.199951171875</ele>
        <time>2026-06-15T11:56:14.000Z</time>
        <extensions>
          <ns3:TrackPointExtension>
            <ns3:atemp>18.0</ns3:atemp>
          </ns3:TrackPointExtension>
        </extensions>
      </trkpt>
      <trkpt lat="42.56323716603219509124755859375" lon="20.04332126118242740631103515625">
        <ele>2076.199951171875</ele>
        <time>2026-06-15T11:56:15.000Z</time>
        <extensions>
          <ns3:TrackPointExtension>
            <ns3:atemp>18.0</ns3:atemp>
          </ns3:TrackPointExtension>
        </extensions>
      </trkpt>
      <trkpt lat="42.5631916522979736328125" lon="20.0433746539056301116943359375">
        <ele>2075.39990234375</ele>
        <time>2026-06-15T11:56:16.000Z</time>
        <extensions>
          <ns3:TrackPointExtension>
            <ns3:atemp>18.0</ns3:atemp>
          </ns3:TrackPointExtension>
        </extensions>
      </trkpt>
      <trkpt lat="42.563153095543384552001953125" lon="20.04343508742749691009521484375">
        <ele>2075</ele>
        <time>2026-06-15T11:56:17.000Z</time>
        <extensions>
          <ns3:TrackPointExtension>
            <ns3:atemp>18.0</ns3:atemp>
          </ns3:TrackPointExtension>
        </extensions>
      </trkpt>
      <trkpt lat="42.56311596371233463287353515625" lon="20.04348487593233585357666015625">
        <ele>2074.39990234375</ele>
        <time>2026-06-15T11:56:18.000Z</time>
        <extensions>
          <ns3:TrackPointExtension>
            <ns3:atemp>18.0</ns3:atemp>
          </ns3:TrackPointExtension>
        </extensions>
      </trkpt>
      <trkpt lat="42.5630858726799488067626953125" lon="20.0435121171176433563232421875">
        <ele>2074</ele>
        <time>2026-06-15T11:56:19.000Z</time>
        <extensions>
          <ns3:TrackPointExtension>
            <ns3:atemp>18.0</ns3:atemp>
          </ns3:TrackPointExtension>
        </extensions>
      </trkpt>
      <trkpt lat="42.56306651048362255096435546875" lon="20.0435194931924343109130859375">
        <ele>2073.800048828125</ele>
        <time>2026-06-15T11:56:20.000Z</time>
        <extensions>
          <ns3:TrackPointExtension>
            <ns3:atemp>18.0</ns3:atemp>
          </ns3:TrackPointExtension>
        </extensions>
      </trkpt>
      <trkpt lat="42.56305309943854808807373046875" lon="20.043532736599445343017578125">
        <ele>2073.800048828125</ele>
        <time>2026-06-15T11:56:21.000Z</time>
        <extensions>
          <ns3:TrackPointExtension>
            <ns3:atemp>18.0</ns3:atemp>
          </ns3:TrackPointExtension>
        </extensions>
      </trkpt>
      <trkpt lat="42.5630414485931396484375" lon="20.04354572854936122894287109375">
        <ele>2073.60009765625</ele>
        <time>2026-06-15T11:56:22.000Z</time>
        <extensions>
          <ns3:TrackPointExtension>
            <ns3:atemp>18.0</ns3:atemp>
          </ns3:TrackPointExtension>
        </extensions>
      </trkpt>
      <trkpt lat="42.56302879191935062408447265625" lon="20.043558888137340545654296875">
        <ele>2073.60009765625</ele>
        <time>2026-06-15T11:56:23.000Z</time>
        <extensions>
          <ns3:TrackPointExtension>
            <ns3:atemp>18.0</ns3:atemp>
          </ns3:TrackPointExtension>
        </extensions>
      </trkpt>
      <trkpt lat="42.56301370449364185333251953125" lon="20.04357674159109592437744140625">
        <ele>2073.800048828125</ele>
        <time>2026-06-15T11:56:24.000Z</time>
        <extensions>
          <ns3:TrackPointExtension>
            <ns3:atemp>18.0</ns3:atemp>
          </ns3:TrackPointExtension>
        </extensions>
      </trkpt>
      <trkpt lat="42.56300230510532855987548828125" lon="20.04360222257673740386962890625">
        <ele>2073.800048828125</ele>
        <time>2026-06-15T11:56:25.000Z</time>
        <extensions>
          <ns3:TrackPointExtension>
            <ns3:atemp>18.0</ns3:atemp>
          </ns3:TrackPointExtension>
        </extensions>
      </trkpt>
      <trkpt lat="42.562990821897983551025390625" lon="20.04362988285720348358154296875">
        <ele>2073.800048828125</ele>
        <time>2026-06-15T11:56:26.000Z</time>
        <extensions>
          <ns3:TrackPointExtension>
            <ns3:atemp>18.0</ns3:atemp>
          </ns3:TrackPointExtension>
        </extensions>
      </trkpt>
      <trkpt lat="42.5629842840135097503662109375" lon="20.043657124042510986328125">
        <ele>2074</ele>
        <time>2026-06-15T11:56:27.000Z</time>
        <extensions>
          <ns3:TrackPointExtension>
            <ns3:atemp>18.0</ns3:atemp>
          </ns3:TrackPointExtension>
        </extensions>
      </trkpt>
      <trkpt lat="42.56298202089965343475341796875" lon="20.04369107075035572052001953125">
        <ele>2074.199951171875</ele>
        <time>2026-06-15T11:56:28.000Z</time>
        <extensions>
          <ns3:TrackPointExtension>
            <ns3:atemp>18.0</ns3:atemp>
          </ns3:TrackPointExtension>
        </extensions>
      </trkpt>
      <trkpt lat="42.5629879720509052276611328125" lon="20.043723843991756439208984375">
        <ele>2074.39990234375</ele>
        <time>2026-06-15T11:56:29.000Z</time>
        <extensions>
          <ns3:TrackPointExtension>
            <ns3:atemp>18.0</ns3:atemp>
          </ns3:TrackPointExtension>
        </extensions>
      </trkpt>
      <trkpt lat="42.56299627013504505157470703125" lon="20.0437531806528568267822265625">
        <ele>2074.60009765625</ele>
        <time>2026-06-15T11:56:30.000Z</time>
        <extensions>
          <ns3:TrackPointExtension>
            <ns3:atemp>18.0</ns3:atemp>
          </ns3:TrackPointExtension>
        </extensions>
      </trkpt>
      <trkpt lat="42.56300565786659717559814453125" lon="20.04377581179141998291015625">
        <ele>2075</ele>
        <time>2026-06-15T11:56:31.000Z</time>
        <extensions>
          <ns3:TrackPointExtension>
            <ns3:atemp>18.0</ns3:atemp>
          </ns3:TrackPointExtension>
        </extensions>
      </trkpt>
      <trkpt lat="42.56301873363554477691650390625" lon="20.04379718564450740814208984375">
        <ele>2075.39990234375</ele>
        <time>2026-06-15T11:56:32.000Z</time>
        <extensions>
          <ns3:TrackPointExtension>
            <ns3:atemp>18.0</ns3:atemp>
          </ns3:TrackPointExtension>
        </extensions>
      </trkpt>
      <trkpt lat="42.56303214468061923980712890625" lon="20.04381679929792881011962890625">
        <ele>2075.60009765625</ele>
        <time>2026-06-15T11:56:33.000Z</time>
        <extensions>
          <ns3:TrackPointExtension>
            <ns3:atemp>18.0</ns3:atemp>
          </ns3:TrackPointExtension>
        </extensions>
      </trkpt>
      <trkpt lat="42.56305108778178691864013671875" lon="20.04383750259876251220703125">
        <ele>2075.800048828125</ele>
        <time>2026-06-15T11:56:34.000Z</time>
        <extensions>
          <ns3:TrackPointExtension>
            <ns3:atemp>18.0</ns3:atemp>
          </ns3:TrackPointExtension>
        </extensions>
      </trkpt>
      <trkpt lat="42.5630711205303668975830078125" lon="20.0438547693192958831787109375">
        <ele>2076</ele>
        <time>2026-06-15T11:56:35.000Z</time>
        <extensions>
          <ns3:TrackPointExtension>
            <ns3:atemp>18.0</ns3:atemp>
          </ns3:TrackPointExtension>
        </extensions>
      </trkpt>
      <trkpt lat="42.56308369338512420654296875" lon="20.043878741562366485595703125">
        <ele>2076.199951171875</ele>
        <time>2026-06-15T11:56:36.000Z</time>
        <extensions>
          <ns3:TrackPointExtension>
            <ns3:atemp>18.0</ns3:atemp>
          </ns3:TrackPointExtension>
        </extensions>
      </trkpt>
      <trkpt lat="42.56309534423053264617919921875" lon="20.04390631802380084991455078125">
        <ele>2076.39990234375</ele>
        <time>2026-06-15T11:56:37.000Z</time>
        <extensions>
          <ns3:TrackPointExtension>
            <ns3:atemp>18.0</ns3:atemp>
          </ns3:TrackPointExtension>
        </extensions>
      </trkpt>
      <trkpt lat="42.5631058216094970703125" lon="20.04393213428556919097900390625">
        <ele>2076.60009765625</ele>
        <time>2026-06-15T11:56:38.000Z</time>
        <extensions>
          <ns3:TrackPointExtension>
            <ns3:atemp>18.0</ns3:atemp>
          </ns3:TrackPointExtension>
        </extensions>
      </trkpt>
      <trkpt lat="42.56311110220849514007568359375" lon="20.04395241849124431610107421875">
        <ele>2076.800048828125</ele>
        <time>2026-06-15T11:56:39.000Z</time>
        <extensions>
          <ns3:TrackPointExtension>
            <ns3:atemp>18.0</ns3:atemp>
          </ns3:TrackPointExtension>
        </extensions>
      </trkpt>
      <trkpt lat="42.5631207413971424102783203125" lon="20.0439744628965854644775390625">
        <ele>2077</ele>
        <time>2026-06-15T11:56:40.000Z</time>
        <extensions>
          <ns3:TrackPointExtension>
            <ns3:atemp>18.0</ns3:atemp>
          </ns3:TrackPointExtension>
        </extensions>
      </trkpt>
      <trkpt lat="42.56313054822385311126708984375" lon="20.0439992733299732208251953125">
        <ele>2077.199951171875</ele>
        <time>2026-06-15T11:56:41.000Z</time>
        <extensions>
          <ns3:TrackPointExtension>
            <ns3:atemp>18.0</ns3:atemp>
          </ns3:TrackPointExtension>
        </extensions>
      </trkpt>
      <trkpt lat="42.563135661184787750244140625" lon="20.04402525722980499267578125">
        <ele>2077.60009765625</ele>
        <time>2026-06-15T11:56:42.000Z</time>
        <extensions>
          <ns3:TrackPointExtension>
            <ns3:atemp>18.0</ns3:atemp>
          </ns3:TrackPointExtension>
        </extensions>
      </trkpt>
      <trkpt lat="42.5631442107260227203369140625" lon="20.044051073491573333740234375">
        <ele>2077.60009765625</ele>
        <time>2026-06-15T11:56:43.000Z</time>
        <extensions>
          <ns3:TrackPointExtension>
            <ns3:atemp>18.0</ns3:atemp>
          </ns3:TrackPointExtension>
        </extensions>
      </trkpt>
      <trkpt lat="42.5631532631814479827880859375" lon="20.0440753810107707977294921875">
        <ele>2077.800048828125</ele>
        <time>2026-06-15T11:56:44.000Z</time>
        <extensions>
          <ns3:TrackPointExtension>
            <ns3:atemp>18.0</ns3:atemp>
          </ns3:TrackPointExtension>
        </extensions>
      </trkpt>
      <trkpt lat="42.563156783580780029296875" lon="20.04409993998706340789794921875">
        <ele>2078.199951171875</ele>
        <time>2026-06-15T11:56:45.000Z</time>
        <extensions>
          <ns3:TrackPointExtension>
            <ns3:atemp>18.0</ns3:atemp>
          </ns3:TrackPointExtension>
        </extensions>
      </trkpt>
      <trkpt lat="42.5631619803607463836669921875" lon="20.0441256724298000335693359375">
        <ele>2078.199951171875</ele>
        <time>2026-06-15T11:56:46.000Z</time>
        <extensions>
          <ns3:TrackPointExtension>
            <ns3:atemp>18.0</ns3:atemp>
          </ns3:TrackPointExtension>
        </extensions>
      </trkpt>
      <trkpt lat="42.56316558457911014556884765625" lon="20.04414972849190235137939453125">
        <ele>2078.39990234375</ele>
        <time>2026-06-15T11:56:47.000Z</time>
        <extensions>
          <ns3:TrackPointExtension>
            <ns3:atemp>18.0</ns3:atemp>
          </ns3:TrackPointExtension>
        </extensions>
      </trkpt>
      <trkpt lat="42.56317363120615482330322265625" lon="20.04417470656335353851318359375">
        <ele>2078.60009765625</ele>
        <time>2026-06-15T11:56:48.000Z</time>
        <extensions>
          <ns3:TrackPointExtension>
            <ns3:atemp>18.0</ns3:atemp>
          </ns3:TrackPointExtension>
        </extensions>
      </trkpt>
      <trkpt lat="42.563175894320011138916015625" lon="20.04419825971126556396484375">
        <ele>2078.800048828125</ele>
        <time>2026-06-15T11:56:49.000Z</time>
        <extensions>
          <ns3:TrackPointExtension>
            <ns3:atemp>18.0</ns3:atemp>
          </ns3:TrackPointExtension>
        </extensions>
      </trkpt>
      <trkpt lat="42.56317899562418460845947265625" lon="20.0442249141633510589599609375">
        <ele>2078.800048828125</ele>
        <time>2026-06-15T11:56:50.000Z</time>
        <extensions>
          <ns3:TrackPointExtension>
            <ns3:atemp>18.0</ns3:atemp>
          </ns3:TrackPointExtension>
        </extensions>
      </trkpt>
      <trkpt lat="42.56318519823253154754638671875" lon="20.04424989223480224609375">
        <ele>2078.800048828125</ele>
        <time>2026-06-15T11:56:51.000Z</time>
        <extensions>
          <ns3:TrackPointExtension>
            <ns3:atemp>18.0</ns3:atemp>
          </ns3:TrackPointExtension>
        </extensions>
      </trkpt>
      <trkpt lat="42.563191317021846771240234375" lon="20.04427679814398288726806640625">
        <ele>2079</ele>
        <time>2026-06-15T11:56:52.000Z</time>
        <extensions>
          <ns3:TrackPointExtension>
            <ns3:atemp>18.0</ns3:atemp>
          </ns3:TrackPointExtension>
        </extensions>
      </trkpt>
      <trkpt lat="42.5631955079734325408935546875" lon="20.0443073920905590057373046875">
        <ele>2079.199951171875</ele>
        <time>2026-06-15T11:56:53.000Z</time>
        <extensions>
          <ns3:TrackPointExtension>
            <ns3:atemp>18.0</ns3:atemp>
          </ns3:TrackPointExtension>
        </extensions>
      </trkpt>
      <trkpt lat="42.563190646469593048095703125" lon="20.04433396272361278533935546875">
        <ele>2079</ele>
        <time>2026-06-15T11:56:54.000Z</time>
        <extensions>
          <ns3:TrackPointExtension>
            <ns3:atemp>18.0</ns3:atemp>
          </ns3:TrackPointExtension>
        </extensions>
      </trkpt>
      <trkpt lat="42.5631867907941341400146484375" lon="20.04436480812728404998779296875">
        <ele>2079</ele>
        <time>2026-06-15T11:56:55.000Z</time>
        <extensions>
          <ns3:TrackPointExtension>
            <ns3:atemp>18.0</ns3:atemp>
          </ns3:TrackPointExtension>
        </extensions>
      </trkpt>
      <trkpt lat="42.56317488849163055419921875" lon="20.04438492469489574432373046875">
        <ele>2079</ele>
        <time>2026-06-15T11:56:56.000Z</time>
        <extensions>
          <ns3:TrackPointExtension>
            <ns3:atemp>18.0</ns3:atemp>
          </ns3:TrackPointExtension>
        </extensions>
      </trkpt>
      <trkpt lat="42.56316642276942729949951171875" lon="20.04440881311893463134765625">
        <ele>2079</ele>
        <time>2026-06-15T11:56:57.000Z</time>
        <extensions>
          <ns3:TrackPointExtension>
            <ns3:atemp>18.0</ns3:atemp>
          </ns3:TrackPointExtension>
        </extensions>
      </trkpt>
      <trkpt lat="42.56315452046692371368408203125" lon="20.04443035461008548736572265625">
        <ele>2079.199951171875</ele>
        <time>2026-06-15T11:56:58.000Z</time>
        <extensions>
          <ns3:TrackPointExtension>
            <ns3:atemp>18.0</ns3:atemp>
          </ns3:TrackPointExtension>
        </extensions>
      </trkpt>
      <trkpt lat="42.5631418637931346893310546875" lon="20.04444862715899944305419921875">
        <ele>2079.199951171875</ele>
        <time>2026-06-15T11:56:59.000Z</time>
        <extensions>
          <ns3:TrackPointExtension>
            <ns3:atemp>18.0</ns3:atemp>
          </ns3:TrackPointExtension>
        </extensions>
      </trkpt>
      <trkpt lat="42.5631313025951385498046875" lon="20.04447109065949916839599609375">
        <ele>2079.60009765625</ele>
        <time>2026-06-15T11:57:00.000Z</time>
        <extensions>
          <ns3:TrackPointExtension>
            <ns3:atemp>18.0</ns3:atemp>
          </ns3:TrackPointExtension>
        </extensions>
      </trkpt>
      <trkpt lat="42.5631217472255229949951171875" lon="20.04449573345482349395751953125">
        <ele>2079.800048828125</ele>
        <time>2026-06-15T11:57:01.000Z</time>
        <extensions>
          <ns3:TrackPointExtension>
            <ns3:atemp>18.0</ns3:atemp>
          </ns3:TrackPointExtension>
        </extensions>
      </trkpt>
      <trkpt lat="42.56311177276074886322021484375" lon="20.04452272318303585052490234375">
        <ele>2080</ele>
        <time>2026-06-15T11:57:02.000Z</time>
        <extensions>
          <ns3:TrackPointExtension>
            <ns3:atemp>18.0</ns3:atemp>
          </ns3:TrackPointExtension>
        </extensions>
      </trkpt>
      <trkpt lat="42.563100792467594146728515625" lon="20.0445477850735187530517578125">
        <ele>2080.199951171875</ele>
        <time>2026-06-15T11:57:03.000Z</time>
        <extensions>
          <ns3:TrackPointExtension>
            <ns3:atemp>18.0</ns3:atemp>
          </ns3:TrackPointExtension>
        </extensions>
      </trkpt>
      <trkpt lat="42.56309316493570804595947265625" lon="20.0445752777159214019775390625">
        <ele>2080.39990234375</ele>
        <time>2026-06-15T11:57:04.000Z</time>
        <extensions>
          <ns3:TrackPointExtension>
            <ns3:atemp>18.0</ns3:atemp>
          </ns3:TrackPointExtension>
        </extensions>
      </trkpt>
      <trkpt lat="42.56308880634605884552001953125" lon="20.04460235126316547393798828125">
        <ele>2080.800048828125</ele>
        <time>2026-06-15T11:57:05.000Z</time>
        <extensions>
          <ns3:TrackPointExtension>
            <ns3:atemp>18.0</ns3:atemp>
          </ns3:TrackPointExtension>
        </extensions>
      </trkpt>
      <trkpt lat="42.563088722527027130126953125" lon="20.044627748429775238037109375">
        <ele>2081.199951171875</ele>
        <time>2026-06-15T11:57:06.000Z</time>
        <extensions>
          <ns3:TrackPointExtension>
            <ns3:atemp>18.0</ns3:atemp>
          </ns3:TrackPointExtension>
        </extensions>
      </trkpt>
      <trkpt lat="42.56308947689831256866455078125" lon="20.04465180449187755584716796875">
        <ele>2081.60009765625</ele>
        <time>2026-06-15T11:57:07.000Z</time>
        <extensions>
          <ns3:TrackPointExtension>
            <ns3:atemp>18.0</ns3:atemp>
          </ns3:TrackPointExtension>
        </extensions>
      </trkpt>
      <trkpt lat="42.563094086945056915283203125" lon="20.04467544145882129669189453125">
        <ele>2081.800048828125</ele>
        <time>2026-06-15T11:57:08.000Z</time>
        <extensions>
          <ns3:TrackPointExtension>
            <ns3:atemp>18.0</ns3:atemp>
          </ns3:TrackPointExtension>
        </extensions>
      </trkpt>
      <trkpt lat="42.56309282965958118438720703125" lon="20.0446943007409572601318359375">
        <ele>2082.199951171875</ele>
        <time>2026-06-15T11:57:09.000Z</time>
        <extensions>
          <ns3:TrackPointExtension>
            <ns3:atemp>18.0</ns3:atemp>
          </ns3:TrackPointExtension>
        </extensions>
      </trkpt>
      <trkpt lat="42.56309232674539089202880859375" lon="20.0447117350995540618896484375">
        <ele>2082.60009765625</ele>
        <time>2026-06-15T11:57:10.000Z</time>
        <extensions>
          <ns3:TrackPointExtension>
            <ns3:atemp>18.0</ns3:atemp>
          </ns3:TrackPointExtension>
        </extensions>
      </trkpt>
      <trkpt lat="42.5630922429263591766357421875" lon="20.04471768625080585479736328125">
        <ele>2082.800048828125</ele>
        <time>2026-06-15T11:57:11.000Z</time>
        <extensions>
          <ns3:TrackPointExtension>
            <ns3:atemp>18.0</ns3:atemp>
          </ns3:TrackPointExtension>
        </extensions>
      </trkpt>
      <trkpt lat="42.563092410564422607421875" lon="20.044717602431774139404296875">
        <ele>2082.800048828125</ele>
        <time>2026-06-15T11:57:12.000Z</time>
        <extensions>
          <ns3:TrackPointExtension>
            <ns3:atemp>18.0</ns3:atemp>
          </ns3:TrackPointExtension>
        </extensions>
      </trkpt>
      <trkpt lat="42.563092410564422607421875" lon="20.044717602431774139404296875">
        <ele>2083</ele>
        <time>2026-06-15T11:57:13.000Z</time>
        <extensions>
          <ns3:TrackPointExtension>
            <ns3:atemp>18.0</ns3:atemp>
          </ns3:TrackPointExtension>
        </extensions>
      </trkpt>
      <trkpt lat="42.563092745840549468994140625" lon="20.04471751861274242401123046875">
        <ele>2083</ele>
        <time>2026-06-15T11:57:14.000Z</time>
        <extensions>
          <ns3:TrackPointExtension>
            <ns3:atemp>18.0</ns3:atemp>
          </ns3:TrackPointExtension>
        </extensions>
      </trkpt>
      <trkpt lat="42.563092410564422607421875" lon="20.044717602431774139404296875">
        <ele>2083</ele>
        <time>2026-06-15T11:57:15.000Z</time>
        <extensions>
          <ns3:TrackPointExtension>
            <ns3:atemp>18.0</ns3:atemp>
          </ns3:TrackPointExtension>
        </extensions>
      </trkpt>
      <trkpt lat="42.563092410564422607421875" lon="20.044717602431774139404296875">
        <ele>2083</ele>
        <time>2026-06-15T11:57:16.000Z</time>
        <extensions>
          <ns3:TrackPointExtension>
            <ns3:atemp>18.0</ns3:atemp>
          </ns3:TrackPointExtension>
        </extensions>
      </trkpt>
      <trkpt lat="42.563092410564422607421875" lon="20.044717602431774139404296875">
        <ele>2083</ele>
        <time>2026-06-15T11:57:17.000Z</time>
        <extensions>
          <ns3:TrackPointExtension>
            <ns3:atemp>18.0</ns3:atemp>
          </ns3:TrackPointExtension>
        </extensions>
      </trkpt>
      <trkpt lat="42.563092410564422607421875" lon="20.044717602431774139404296875">
        <ele>2083</ele>
        <time>2026-06-15T11:57:18.000Z</time>
        <extensions>
          <ns3:TrackPointExtension>
            <ns3:atemp>18.0</ns3:atemp>
          </ns3:TrackPointExtension>
        </extensions>
      </trkpt>
      <trkpt lat="42.563092410564422607421875" lon="20.044717602431774139404296875">
        <ele>2083</ele>
        <time>2026-06-15T11:57:19.000Z</time>
        <extensions>
          <ns3:TrackPointExtension>
            <ns3:atemp>18.0</ns3:atemp>
          </ns3:TrackPointExtension>
        </extensions>
      </trkpt>
      <trkpt lat="42.563092410564422607421875" lon="20.044717602431774139404296875">
        <ele>2082.800048828125</ele>
        <time>2026-06-15T11:57:20.000Z</time>
        <extensions>
          <ns3:TrackPointExtension>
            <ns3:atemp>18.0</ns3:atemp>
          </ns3:TrackPointExtension>
        </extensions>
      </trkpt>
      <trkpt lat="42.563092410564422607421875" lon="20.044717602431774139404296875">
        <ele>2082.60009765625</ele>
        <time>2026-06-15T11:57:21.000Z</time>
        <extensions>
          <ns3:TrackPointExtension>
            <ns3:atemp>18.0</ns3:atemp>
          </ns3:TrackPointExtension>
        </extensions>
      </trkpt>
      <trkpt lat="42.563092410564422607421875" lon="20.044717602431774139404296875">
        <ele>2082.60009765625</ele>
        <time>2026-06-15T11:57:22.000Z</time>
        <extensions>
          <ns3:TrackPointExtension>
            <ns3:atemp>18.0</ns3:atemp>
          </ns3:TrackPointExtension>
        </extensions>
      </trkpt>
      <trkpt lat="42.563092410564422607421875" lon="20.044717602431774139404296875">
        <ele>2082.39990234375</ele>
        <time>2026-06-15T11:57:23.000Z</time>
        <extensions>
          <ns3:TrackPointExtension>
            <ns3:atemp>18.0</ns3:atemp>
          </ns3:TrackPointExtension>
        </extensions>
      </trkpt>
      <trkpt lat="42.563092410564422607421875" lon="20.044717602431774139404296875">
        <ele>2082.39990234375</ele>
        <time>2026-06-15T11:57:24.000Z</time>
        <extensions>
          <ns3:TrackPointExtension>
            <ns3:atemp>18.0</ns3:atemp>
          </ns3:TrackPointExtension>
        </extensions>
      </trkpt>
      <trkpt lat="42.563092410564422607421875" lon="20.044717602431774139404296875">
        <ele>2082.199951171875</ele>
        <time>2026-06-15T11:57:25.000Z</time>
        <extensions>
          <ns3:TrackPointExtension>
            <ns3:atemp>18.0</ns3:atemp>
          </ns3:TrackPointExtension>
        </extensions>
      </trkpt>
      <trkpt lat="42.563092410564422607421875" lon="20.044717602431774139404296875">
        <ele>2082.199951171875</ele>
        <time>2026-06-15T11:57:26.000Z</time>
        <extensions>
          <ns3:TrackPointExtension>
            <ns3:atemp>18.0</ns3:atemp>
          </ns3:TrackPointExtension>
        </extensions>
      </trkpt>
      <trkpt lat="42.563092410564422607421875" lon="20.044717602431774139404296875">
        <ele>2082.199951171875</ele>
        <time>2026-06-15T11:57:27.000Z</time>
        <extensions>
          <ns3:TrackPointExtension>
            <ns3:atemp>18.0</ns3:atemp>
          </ns3:TrackPointExtension>
        </extensions>
      </trkpt>
      <trkpt lat="42.563092410564422607421875" lon="20.044717602431774139404296875">
        <ele>2082.199951171875</ele>
        <time>2026-06-15T11:57:28.000Z</time>
        <extensions>
          <ns3:TrackPointExtension>
            <ns3:atemp>18.0</ns3:atemp>
          </ns3:TrackPointExtension>
        </extensions>
      </trkpt>
      <trkpt lat="42.563092410564422607421875" lon="20.044717602431774139404296875">
        <ele>2082.199951171875</ele>
        <time>2026-06-15T11:57:29.000Z</time>
        <extensions>
          <ns3:TrackPointExtension>
            <ns3:atemp>18.0</ns3:atemp>
          </ns3:TrackPointExtension>
        </extensions>
      </trkpt>
      <trkpt lat="42.563092410564422607421875" lon="20.044717602431774139404296875">
        <ele>2082.199951171875</ele>
        <time>2026-06-15T11:57:30.000Z</time>
        <extensions>
          <ns3:TrackPointExtension>
            <ns3:atemp>18.0</ns3:atemp>
          </ns3:TrackPointExtension>
        </extensions>
      </trkpt>
      <trkpt lat="42.563092410564422607421875" lon="20.044717602431774139404296875">
        <ele>2082.199951171875</ele>
        <time>2026-06-15T11:57:31.000Z</time>
        <extensions>
          <ns3:TrackPointExtension>
            <ns3:atemp>18.0</ns3:atemp>
          </ns3:TrackPointExtension>
        </extensions>
      </trkpt>
      <trkpt lat="42.563092410564422607421875" lon="20.044717602431774139404296875">
        <ele>2082.199951171875</ele>
        <time>2026-06-15T11:57:32.000Z</time>
        <extensions>
          <ns3:TrackPointExtension>
            <ns3:atemp>18.0</ns3:atemp>
          </ns3:TrackPointExtension>
        </extensions>
      </trkpt>
      <trkpt lat="42.563092410564422607421875" lon="20.044717602431774139404296875">
        <ele>2082.199951171875</ele>
        <time>2026-06-15T11:57:33.000Z</time>
        <extensions>
          <ns3:TrackPointExtension>
            <ns3:atemp>18.0</ns3:atemp>
          </ns3:TrackPointExtension>
        </extensions>
      </trkpt>
      <trkpt lat="42.563092410564422607421875" lon="20.044717602431774139404296875">
        <ele>2082.199951171875</ele>
        <time>2026-06-15T11:57:34.000Z</time>
        <extensions>
          <ns3:TrackPointExtension>
            <ns3:atemp>18.0</ns3:atemp>
          </ns3:TrackPointExtension>
        </extensions>
      </trkpt>
      <trkpt lat="42.563092410564422607421875" lon="20.044717602431774139404296875">
        <ele>2082.199951171875</ele>
        <time>2026-06-15T11:57:35.000Z</time>
        <extensions>
          <ns3:TrackPointExtension>
            <ns3:atemp>18.0</ns3:atemp>
          </ns3:TrackPointExtension>
        </extensions>
      </trkpt>
      <trkpt lat="42.563092410564422607421875" lon="20.044717602431774139404296875">
        <ele>2082.199951171875</ele>
        <time>2026-06-15T11:57:36.000Z</time>
        <extensions>
          <ns3:TrackPointExtension>
            <ns3:atemp>18.0</ns3:atemp>
          </ns3:TrackPointExtension>
        </extensions>
      </trkpt>
      <trkpt lat="42.563092410564422607421875" lon="20.044717602431774139404296875">
        <ele>2082</ele>
        <time>2026-06-15T11:57:37.000Z</time>
        <extensions>
          <ns3:TrackPointExtension>
            <ns3:atemp>18.0</ns3:atemp>
          </ns3:TrackPointExtension>
        </extensions>
      </trkpt>
      <trkpt lat="42.563092410564422607421875" lon="20.044717602431774139404296875">
        <ele>2082.199951171875</ele>
        <time>2026-06-15T11:57:38.000Z</time>
        <extensions>
          <ns3:TrackPointExtension>
            <ns3:atemp>18.0</ns3:atemp>
          </ns3:TrackPointExtension>
        </extensions>
      </trkpt>
      <trkpt lat="42.563092410564422607421875" lon="20.044717602431774139404296875">
        <ele>2082.199951171875</ele>
        <time>2026-06-15T11:57:39.000Z</time>
        <extensions>
          <ns3:TrackPointExtension>
            <ns3:atemp>18.0</ns3:atemp>
          </ns3:TrackPointExtension>
        </extensions>
      </trkpt>
      <trkpt lat="42.563092410564422607421875" lon="20.044717602431774139404296875">
        <ele>2082.199951171875</ele>
        <time>2026-06-15T11:57:40.000Z</time>
        <extensions>
          <ns3:TrackPointExtension>
            <ns3:atemp>18.0</ns3:atemp>
          </ns3:TrackPointExtension>
        </extensions>
      </trkpt>
      <trkpt lat="42.563092410564422607421875" lon="20.044717602431774139404296875">
        <ele>2082</ele>
        <time>2026-06-15T11:57:41.000Z</time>
        <extensions>
          <ns3:TrackPointExtension>
            <ns3:atemp>18.0</ns3:atemp>
          </ns3:TrackPointExtension>
        </extensions>
      </trkpt>
      <trkpt lat="42.563092410564422607421875" lon="20.044717602431774139404296875">
        <ele>2082</ele>
        <time>2026-06-15T11:57:42.000Z</time>
        <extensions>
          <ns3:TrackPointExtension>
            <ns3:atemp>18.0</ns3:atemp>
          </ns3:TrackPointExtension>
        </extensions>
      </trkpt>
      <trkpt lat="42.563092410564422607421875" lon="20.044717602431774139404296875">
        <ele>2082</ele>
        <time>2026-06-15T11:57:43.000Z</time>
        <extensions>
          <ns3:TrackPointExtension>
            <ns3:atemp>18.0</ns3:atemp>
          </ns3:TrackPointExtension>
        </extensions>
      </trkpt>
      <trkpt lat="42.563092410564422607421875" lon="20.044717602431774139404296875">
        <ele>2082</ele>
        <time>2026-06-15T11:57:44.000Z</time>
        <extensions>
          <ns3:TrackPointExtension>
            <ns3:atemp>19.0</ns3:atemp>
          </ns3:TrackPointExtension>
        </extensions>
      </trkpt>
      <trkpt lat="42.563092410564422607421875" lon="20.044717602431774139404296875">
        <ele>2082</ele>
        <time>2026-06-15T11:57:45.000Z</time>
        <extensions>
          <ns3:TrackPointExtension>
            <ns3:atemp>19.0</ns3:atemp>
          </ns3:TrackPointExtension>
        </extensions>
      </trkpt>
      <trkpt lat="42.563092410564422607421875" lon="20.044717602431774139404296875">
        <ele>2082</ele>
        <time>2026-06-15T11:57:46.000Z</time>
        <extensions>
          <ns3:TrackPointExtension>
            <ns3:atemp>19.0</ns3:atemp>
          </ns3:TrackPointExtension>
        </extensions>
      </trkpt>
      <trkpt lat="42.563092410564422607421875" lon="20.044717602431774139404296875">
        <ele>2081.800048828125</ele>
        <time>2026-06-15T11:57:47.000Z</time>
        <extensions>
          <ns3:TrackPointExtension>
            <ns3:atemp>19.0</ns3:atemp>
          </ns3:TrackPointExtension>
        </extensions>
      </trkpt>
      <trkpt lat="42.563092410564422607421875" lon="20.044717602431774139404296875">
        <ele>2081.800048828125</ele>
        <time>2026-06-15T11:57:48.000Z</time>
        <extensions>
          <ns3:TrackPointExtension>
            <ns3:atemp>19.0</ns3:atemp>
          </ns3:TrackPointExtension>
        </extensions>
      </trkpt>
      <trkpt lat="42.563092410564422607421875" lon="20.044717602431774139404296875">
        <ele>2081.800048828125</ele>
        <time>2026-06-15T11:57:49.000Z</time>
        <extensions>
          <ns3:TrackPointExtension>
            <ns3:atemp>19.0</ns3:atemp>
          </ns3:TrackPointExtension>
        </extensions>
      </trkpt>
      <trkpt lat="42.563092410564422607421875" lon="20.044717602431774139404296875">
        <ele>2081.800048828125</ele>
        <time>2026-06-15T11:57:50.000Z</time>
        <extensions>
          <ns3:TrackPointExtension>
            <ns3:atemp>19.0</ns3:atemp>
          </ns3:TrackPointExtension>
        </extensions>
      </trkpt>
      <trkpt lat="42.563092410564422607421875" lon="20.044717602431774139404296875">
        <ele>2081.60009765625</ele>
        <time>2026-06-15T11:57:51.000Z</time>
        <extensions>
          <ns3:TrackPointExtension>
            <ns3:atemp>19.0</ns3:atemp>
          </ns3:TrackPointExtension>
        </extensions>
      </trkpt>
      <trkpt lat="42.563092410564422607421875" lon="20.044717602431774139404296875">
        <ele>2081.60009765625</ele>
        <time>2026-06-15T11:57:52.000Z</time>
        <extensions>
          <ns3:TrackPointExtension>
            <ns3:atemp>19.0</ns3:atemp>
          </ns3:TrackPointExtension>
        </extensions>
      </trkpt>
      <trkpt lat="42.563092410564422607421875" lon="20.044717602431774139404296875">
        <ele>2081.60009765625</ele>
        <time>2026-06-15T11:57:53.000Z</time>
        <extensions>
          <ns3:TrackPointExtension>
            <ns3:atemp>19.0</ns3:atemp>
          </ns3:TrackPointExtension>
        </extensions>
      </trkpt>
      <trkpt lat="42.563092410564422607421875" lon="20.044717602431774139404296875">
        <ele>2081.60009765625</ele>
        <time>2026-06-15T11:57:54.000Z</time>
        <extensions>
          <ns3:TrackPointExtension>
            <ns3:atemp>19.0</ns3:atemp>
          </ns3:TrackPointExtension>
        </extensions>
      </trkpt>
      <trkpt lat="42.563092410564422607421875" lon="20.044717602431774139404296875">
        <ele>2081.60009765625</ele>
        <time>2026-06-15T11:57:55.000Z</time>
        <extensions>
          <ns3:TrackPointExtension>
            <ns3:atemp>19.0</ns3:atemp>
          </ns3:TrackPointExtension>
        </extensions>
      </trkpt>
      <trkpt lat="42.563092410564422607421875" lon="20.044717602431774139404296875">
        <ele>2081.60009765625</ele>
        <time>2026-06-15T11:57:56.000Z</time>
        <extensions>
          <ns3:TrackPointExtension>
            <ns3:atemp>19.0</ns3:atemp>
          </ns3:TrackPointExtension>
        </extensions>
      </trkpt>
      <trkpt lat="42.563092410564422607421875" lon="20.044717602431774139404296875">
        <ele>2081.60009765625</ele>
        <time>2026-06-15T11:57:57.000Z</time>
        <extensions>
          <ns3:TrackPointExtension>
            <ns3:atemp>19.0</ns3:atemp>
          </ns3:TrackPointExtension>
        </extensions>
      </trkpt>
      <trkpt lat="42.563092410564422607421875" lon="20.044717602431774139404296875">
        <ele>2081.60009765625</ele>
        <time>2026-06-15T11:57:58.000Z</time>
        <extensions>
          <ns3:TrackPointExtension>
            <ns3:atemp>19.0</ns3:atemp>
          </ns3:TrackPointExtension>
        </extensions>
      </trkpt>
      <trkpt lat="42.563092410564422607421875" lon="20.044717602431774139404296875">
        <ele>2081.60009765625</ele>
        <time>2026-06-15T11:57:59.000Z</time>
        <extensions>
          <ns3:TrackPointExtension>
            <ns3:atemp>19.0</ns3:atemp>
          </ns3:TrackPointExtension>
        </extensions>
      </trkpt>
      <trkpt lat="42.563092410564422607421875" lon="20.044717602431774139404296875">
        <ele>2081.60009765625</ele>
        <time>2026-06-15T11:58:00.000Z</time>
        <extensions>
          <ns3:TrackPointExtension>
            <ns3:atemp>19.0</ns3:atemp>
          </ns3:TrackPointExtension>
        </extensions>
      </trkpt>
      <trkpt lat="42.563092410564422607421875" lon="20.044717602431774139404296875">
        <ele>2081.800048828125</ele>
        <time>2026-06-15T11:58:01.000Z</time>
        <extensions>
          <ns3:TrackPointExtension>
            <ns3:atemp>19.0</ns3:atemp>
          </ns3:TrackPointExtension>
        </extensions>
      </trkpt>
      <trkpt lat="42.563092410564422607421875" lon="20.044717602431774139404296875">
        <ele>2081.800048828125</ele>
        <time>2026-06-15T11:58:02.000Z</time>
        <extensions>
          <ns3:TrackPointExtension>
            <ns3:atemp>19.0</ns3:atemp>
          </ns3:TrackPointExtension>
        </extensions>
      </trkpt>
      <trkpt lat="42.563092410564422607421875" lon="20.044717602431774139404296875">
        <ele>2081.800048828125</ele>
        <time>2026-06-15T11:58:03.000Z</time>
        <extensions>
          <ns3:TrackPointExtension>
            <ns3:atemp>19.0</ns3:atemp>
          </ns3:TrackPointExtension>
        </extensions>
      </trkpt>
      <trkpt lat="42.563092410564422607421875" lon="20.044717602431774139404296875">
        <ele>2081.800048828125</ele>
        <time>2026-06-15T11:58:04.000Z</time>
        <extensions>
          <ns3:TrackPointExtension>
            <ns3:atemp>19.0</ns3:atemp>
          </ns3:TrackPointExtension>
        </extensions>
      </trkpt>
      <trkpt lat="42.563092410564422607421875" lon="20.044717602431774139404296875">
        <ele>2081.60009765625</ele>
        <time>2026-06-15T11:58:05.000Z</time>
        <extensions>
          <ns3:TrackPointExtension>
            <ns3:atemp>19.0</ns3:atemp>
          </ns3:TrackPointExtension>
        </extensions>
      </trkpt>
      <trkpt lat="42.563092410564422607421875" lon="20.044717602431774139404296875">
        <ele>2081.60009765625</ele>
        <time>2026-06-15T11:58:06.000Z</time>
        <extensions>
          <ns3:TrackPointExtension>
            <ns3:atemp>19.0</ns3:atemp>
          </ns3:TrackPointExtension>
        </extensions>
      </trkpt>
      <trkpt lat="42.563092410564422607421875" lon="20.044717602431774139404296875">
        <ele>2081.60009765625</ele>
        <time>2026-06-15T11:58:07.000Z</time>
        <extensions>
          <ns3:TrackPointExtension>
            <ns3:atemp>19.0</ns3:atemp>
          </ns3:TrackPointExtension>
        </extensions>
      </trkpt>
      <trkpt lat="42.563092410564422607421875" lon="20.044717602431774139404296875">
        <ele>2081.60009765625</ele>
        <time>2026-06-15T11:58:08.000Z</time>
        <extensions>
          <ns3:TrackPointExtension>
            <ns3:atemp>19.0</ns3:atemp>
          </ns3:TrackPointExtension>
        </extensions>
      </trkpt>
      <trkpt lat="42.563092410564422607421875" lon="20.044717602431774139404296875">
        <ele>2081.60009765625</ele>
        <time>2026-06-15T11:58:09.000Z</time>
        <extensions>
          <ns3:TrackPointExtension>
            <ns3:atemp>19.0</ns3:atemp>
          </ns3:TrackPointExtension>
        </extensions>
      </trkpt>
      <trkpt lat="42.563092410564422607421875" lon="20.044717602431774139404296875">
        <ele>2081.60009765625</ele>
        <time>2026-06-15T11:58:10.000Z</time>
        <extensions>
          <ns3:TrackPointExtension>
            <ns3:atemp>19.0</ns3:atemp>
          </ns3:TrackPointExtension>
        </extensions>
      </trkpt>
      <trkpt lat="42.563092410564422607421875" lon="20.044717602431774139404296875">
        <ele>2081.60009765625</ele>
        <time>2026-06-15T11:58:11.000Z</time>
        <extensions>
          <ns3:TrackPointExtension>
            <ns3:atemp>19.0</ns3:atemp>
          </ns3:TrackPointExtension>
        </extensions>
      </trkpt>
      <trkpt lat="42.563092410564422607421875" lon="20.044717602431774139404296875">
        <ele>2081.60009765625</ele>
        <time>2026-06-15T11:58:12.000Z</time>
        <extensions>
          <ns3:TrackPointExtension>
            <ns3:atemp>19.0</ns3:atemp>
          </ns3:TrackPointExtension>
        </extensions>
      </trkpt>
      <trkpt lat="42.563092410564422607421875" lon="20.044717602431774139404296875">
        <ele>2081.60009765625</ele>
        <time>2026-06-15T11:58:13.000Z</time>
        <extensions>
          <ns3:TrackPointExtension>
            <ns3:atemp>19.0</ns3:atemp>
          </ns3:TrackPointExtension>
        </extensions>
      </trkpt>
      <trkpt lat="42.563092410564422607421875" lon="20.044717602431774139404296875">
        <ele>2081.60009765625</ele>
        <time>2026-06-15T11:58:14.000Z</time>
        <extensions>
          <ns3:TrackPointExtension>
            <ns3:atemp>19.0</ns3:atemp>
          </ns3:TrackPointExtension>
        </extensions>
      </trkpt>
      <trkpt lat="42.563092410564422607421875" lon="20.044717602431774139404296875">
        <ele>2081.60009765625</ele>
        <time>2026-06-15T11:58:15.000Z</time>
        <extensions>
          <ns3:TrackPointExtension>
            <ns3:atemp>19.0</ns3:atemp>
          </ns3:TrackPointExtension>
        </extensions>
      </trkpt>
      <trkpt lat="42.563092410564422607421875" lon="20.044717602431774139404296875">
        <ele>2081.60009765625</ele>
        <time>2026-06-15T11:58:16.000Z</time>
        <extensions>
          <ns3:TrackPointExtension>
            <ns3:atemp>19.0</ns3:atemp>
          </ns3:TrackPointExtension>
        </extensions>
      </trkpt>
      <trkpt lat="42.563092410564422607421875" lon="20.044717602431774139404296875">
        <ele>2081.60009765625</ele>
        <time>2026-06-15T11:58:17.000Z</time>
        <extensions>
          <ns3:TrackPointExtension>
            <ns3:atemp>19.0</ns3:atemp>
          </ns3:TrackPointExtension>
        </extensions>
      </trkpt>
      <trkpt lat="42.563092410564422607421875" lon="20.044717602431774139404296875">
        <ele>2081.60009765625</ele>
        <time>2026-06-15T11:58:18.000Z</time>
        <extensions>
          <ns3:TrackPointExtension>
            <ns3:atemp>19.0</ns3:atemp>
          </ns3:TrackPointExtension>
        </extensions>
      </trkpt>
      <trkpt lat="42.563092410564422607421875" lon="20.044717602431774139404296875">
        <ele>2081.60009765625</ele>
        <time>2026-06-15T11:58:19.000Z</time>
        <extensions>
          <ns3:TrackPointExtension>
            <ns3:atemp>19.0</ns3:atemp>
          </ns3:TrackPointExtension>
        </extensions>
      </trkpt>
      <trkpt lat="42.563092410564422607421875" lon="20.044717602431774139404296875">
        <ele>2081.60009765625</ele>
        <time>2026-06-15T11:58:20.000Z</time>
        <extensions>
          <ns3:TrackPointExtension>
            <ns3:atemp>19.0</ns3:atemp>
          </ns3:TrackPointExtension>
        </extensions>
      </trkpt>
      <trkpt lat="42.563092410564422607421875" lon="20.044717602431774139404296875">
        <ele>2081.60009765625</ele>
        <time>2026-06-15T11:58:21.000Z</time>
        <extensions>
          <ns3:TrackPointExtension>
            <ns3:atemp>19.0</ns3:atemp>
          </ns3:TrackPointExtension>
        </extensions>
      </trkpt>
      <trkpt lat="42.563092410564422607421875" lon="20.044717602431774139404296875">
        <ele>2081.60009765625</ele>
        <time>2026-06-15T11:58:22.000Z</time>
        <extensions>
          <ns3:TrackPointExtension>
            <ns3:atemp>19.0</ns3:atemp>
          </ns3:TrackPointExtension>
        </extensions>
      </trkpt>
      <trkpt lat="42.563092410564422607421875" lon="20.044717602431774139404296875">
        <ele>2081.60009765625</ele>
        <time>2026-06-15T11:58:23.000Z</time>
        <extensions>
          <ns3:TrackPointExtension>
            <ns3:atemp>19.0</ns3:atemp>
          </ns3:TrackPointExtension>
        </extensions>
      </trkpt>
      <trkpt lat="42.563092410564422607421875" lon="20.044717602431774139404296875">
        <ele>2081.60009765625</ele>
        <time>2026-06-15T11:58:24.000Z</time>
        <extensions>
          <ns3:TrackPointExtension>
            <ns3:atemp>19.0</ns3:atemp>
          </ns3:TrackPointExtension>
        </extensions>
      </trkpt>
      <trkpt lat="42.563092410564422607421875" lon="20.044717602431774139404296875">
        <ele>2081.800048828125</ele>
        <time>2026-06-15T11:58:25.000Z</time>
        <extensions>
          <ns3:TrackPointExtension>
            <ns3:atemp>19.0</ns3:atemp>
          </ns3:TrackPointExtension>
        </extensions>
      </trkpt>
      <trkpt lat="42.563092410564422607421875" lon="20.044717602431774139404296875">
        <ele>2081.800048828125</ele>
        <time>2026-06-15T11:58:26.000Z</time>
        <extensions>
          <ns3:TrackPointExtension>
            <ns3:atemp>19.0</ns3:atemp>
          </ns3:TrackPointExtension>
        </extensions>
      </trkpt>
      <trkpt lat="42.563092410564422607421875" lon="20.044717602431774139404296875">
        <ele>2082</ele>
        <time>2026-06-15T11:58:27.000Z</time>
        <extensions>
          <ns3:TrackPointExtension>
            <ns3:atemp>19.0</ns3:atemp>
          </ns3:TrackPointExtension>
        </extensions>
      </trkpt>
      <trkpt lat="42.563092410564422607421875" lon="20.044717602431774139404296875">
        <ele>2082</ele>
        <time>2026-06-15T11:58:28.000Z</time>
        <extensions>
          <ns3:TrackPointExtension>
            <ns3:atemp>19.0</ns3:atemp>
          </ns3:TrackPointExtension>
        </extensions>
      </trkpt>
      <trkpt lat="42.563092410564422607421875" lon="20.044717602431774139404296875">
        <ele>2082.199951171875</ele>
        <time>2026-06-15T11:58:29.000Z</time>
        <extensions>
          <ns3:TrackPointExtension>
            <ns3:atemp>19.0</ns3:atemp>
          </ns3:TrackPointExtension>
        </extensions>
      </trkpt>
      <trkpt lat="42.563092410564422607421875" lon="20.044717602431774139404296875">
        <ele>2082.199951171875</ele>
        <time>2026-06-15T11:58:30.000Z</time>
        <extensions>
          <ns3:TrackPointExtension>
            <ns3:atemp>19.0</ns3:atemp>
          </ns3:TrackPointExtension>
        </extensions>
      </trkpt>
      <trkpt lat="42.563092410564422607421875" lon="20.044717602431774139404296875">
        <ele>2082.199951171875</ele>
        <time>2026-06-15T11:58:31.000Z</time>
        <extensions>
          <ns3:TrackPointExtension>
            <ns3:atemp>19.0</ns3:atemp>
          </ns3:TrackPointExtension>
        </extensions>
      </trkpt>
      <trkpt lat="42.563092410564422607421875" lon="20.044717602431774139404296875">
        <ele>2082.199951171875</ele>
        <time>2026-06-15T11:58:32.000Z</time>
        <extensions>
          <ns3:TrackPointExtension>
            <ns3:atemp>19.0</ns3:atemp>
          </ns3:TrackPointExtension>
        </extensions>
      </trkpt>
      <trkpt lat="42.563092410564422607421875" lon="20.044717602431774139404296875">
        <ele>2082.199951171875</ele>
        <time>2026-06-15T11:58:33.000Z</time>
        <extensions>
          <ns3:TrackPointExtension>
            <ns3:atemp>19.0</ns3:atemp>
          </ns3:TrackPointExtension>
        </extensions>
      </trkpt>
      <trkpt lat="42.563092410564422607421875" lon="20.044717602431774139404296875">
        <ele>2082.199951171875</ele>
        <time>2026-06-15T11:58:34.000Z</time>
        <extensions>
          <ns3:TrackPointExtension>
            <ns3:atemp>19.0</ns3:atemp>
          </ns3:TrackPointExtension>
        </extensions>
      </trkpt>
      <trkpt lat="42.563092410564422607421875" lon="20.044717602431774139404296875">
        <ele>2082.39990234375</ele>
        <time>2026-06-15T11:58:35.000Z</time>
        <extensions>
          <ns3:TrackPointExtension>
            <ns3:atemp>19.0</ns3:atemp>
          </ns3:TrackPointExtension>
        </extensions>
      </trkpt>
      <trkpt lat="42.563092410564422607421875" lon="20.044717602431774139404296875">
        <ele>2082.39990234375</ele>
        <time>2026-06-15T11:58:36.000Z</time>
        <extensions>
          <ns3:TrackPointExtension>
            <ns3:atemp>19.0</ns3:atemp>
          </ns3:TrackPointExtension>
        </extensions>
      </trkpt>
      <trkpt lat="42.563092410564422607421875" lon="20.044717602431774139404296875">
        <ele>2082.39990234375</ele>
        <time>2026-06-15T11:58:37.000Z</time>
        <extensions>
          <ns3:TrackPointExtension>
            <ns3:atemp>19.0</ns3:atemp>
          </ns3:TrackPointExtension>
        </extensions>
      </trkpt>
      <trkpt lat="42.563092410564422607421875" lon="20.044717602431774139404296875">
        <ele>2082.39990234375</ele>
        <time>2026-06-15T11:58:38.000Z</time>
        <extensions>
          <ns3:TrackPointExtension>
            <ns3:atemp>19.0</ns3:atemp>
          </ns3:TrackPointExtension>
        </extensions>
      </trkpt>
      <trkpt lat="42.563092410564422607421875" lon="20.044717602431774139404296875">
        <ele>2082.39990234375</ele>
        <time>2026-06-15T11:58:39.000Z</time>
        <extensions>
          <ns3:TrackPointExtension>
            <ns3:atemp>19.0</ns3:atemp>
          </ns3:TrackPointExtension>
        </extensions>
      </trkpt>
      <trkpt lat="42.563092410564422607421875" lon="20.044717602431774139404296875">
        <ele>2082.39990234375</ele>
        <time>2026-06-15T11:58:40.000Z</time>
        <extensions>
          <ns3:TrackPointExtension>
            <ns3:atemp>19.0</ns3:atemp>
          </ns3:TrackPointExtension>
        </extensions>
      </trkpt>
      <trkpt lat="42.563092410564422607421875" lon="20.044717602431774139404296875">
        <ele>2082.39990234375</ele>
        <time>2026-06-15T11:58:41.000Z</time>
        <extensions>
          <ns3:TrackPointExtension>
            <ns3:atemp>19.0</ns3:atemp>
          </ns3:TrackPointExtension>
        </extensions>
      </trkpt>
      <trkpt lat="42.563092410564422607421875" lon="20.044717602431774139404296875">
        <ele>2082.39990234375</ele>
        <time>2026-06-15T11:58:42.000Z</time>
        <extensions>
          <ns3:TrackPointExtension>
            <ns3:atemp>19.0</ns3:atemp>
          </ns3:TrackPointExtension>
        </extensions>
      </trkpt>
      <trkpt lat="42.563092410564422607421875" lon="20.044717602431774139404296875">
        <ele>2082.199951171875</ele>
        <time>2026-06-15T11:58:43.000Z</time>
        <extensions>
          <ns3:TrackPointExtension>
            <ns3:atemp>19.0</ns3:atemp>
          </ns3:TrackPointExtension>
        </extensions>
      </trkpt>
      <trkpt lat="42.563092410564422607421875" lon="20.044717602431774139404296875">
        <ele>2082.199951171875</ele>
        <time>2026-06-15T11:58:44.000Z</time>
        <extensions>
          <ns3:TrackPointExtension>
            <ns3:atemp>19.0</ns3:atemp>
          </ns3:TrackPointExtension>
        </extensions>
      </trkpt>
      <trkpt lat="42.563092410564422607421875" lon="20.044717602431774139404296875">
        <ele>2082.39990234375</ele>
        <time>2026-06-15T11:58:45.000Z</time>
        <extensions>
          <ns3:TrackPointExtension>
            <ns3:atemp>19.0</ns3:atemp>
          </ns3:TrackPointExtension>
        </extensions>
      </trkpt>
      <trkpt lat="42.563092410564422607421875" lon="20.044717602431774139404296875">
        <ele>2082.39990234375</ele>
        <time>2026-06-15T11:58:46.000Z</time>
        <extensions>
          <ns3:TrackPointExtension>
            <ns3:atemp>19.0</ns3:atemp>
          </ns3:TrackPointExtension>
        </extensions>
      </trkpt>
      <trkpt lat="42.563092410564422607421875" lon="20.044717602431774139404296875">
        <ele>2082.39990234375</ele>
        <time>2026-06-15T11:58:47.000Z</time>
        <extensions>
          <ns3:TrackPointExtension>
            <ns3:atemp>19.0</ns3:atemp>
          </ns3:TrackPointExtension>
        </extensions>
      </trkpt>
      <trkpt lat="42.563092410564422607421875" lon="20.044717602431774139404296875">
        <ele>2082.39990234375</ele>
        <time>2026-06-15T11:58:48.000Z</time>
        <extensions>
          <ns3:TrackPointExtension>
            <ns3:atemp>19.0</ns3:atemp>
          </ns3:TrackPointExtension>
        </extensions>
      </trkpt>
      <trkpt lat="42.563092410564422607421875" lon="20.044717602431774139404296875">
        <ele>2082.39990234375</ele>
        <time>2026-06-15T11:58:49.000Z</time>
        <extensions>
          <ns3:TrackPointExtension>
            <ns3:atemp>19.0</ns3:atemp>
          </ns3:TrackPointExtension>
        </extensions>
      </trkpt>
      <trkpt lat="42.563092410564422607421875" lon="20.044717602431774139404296875">
        <ele>2082.39990234375</ele>
        <time>2026-06-15T11:58:50.000Z</time>
        <extensions>
          <ns3:TrackPointExtension>
            <ns3:atemp>19.0</ns3:atemp>
          </ns3:TrackPointExtension>
        </extensions>
      </trkpt>
      <trkpt lat="42.563092410564422607421875" lon="20.044717602431774139404296875">
        <ele>2082.39990234375</ele>
        <time>2026-06-15T11:58:51.000Z</time>
        <extensions>
          <ns3:TrackPointExtension>
            <ns3:atemp>19.0</ns3:atemp>
          </ns3:TrackPointExtension>
        </extensions>
      </trkpt>
      <trkpt lat="42.563092410564422607421875" lon="20.044717602431774139404296875">
        <ele>2082.39990234375</ele>
        <time>2026-06-15T11:58:52.000Z</time>
        <extensions>
          <ns3:TrackPointExtension>
            <ns3:atemp>19.0</ns3:atemp>
          </ns3:TrackPointExtension>
        </extensions>
      </trkpt>
      <trkpt lat="42.563092410564422607421875" lon="20.044717602431774139404296875">
        <ele>2082.39990234375</ele>
        <time>2026-06-15T11:58:53.000Z</time>
        <extensions>
          <ns3:TrackPointExtension>
            <ns3:atemp>19.0</ns3:atemp>
          </ns3:TrackPointExtension>
        </extensions>
      </trkpt>
      <trkpt lat="42.563092410564422607421875" lon="20.044717602431774139404296875">
        <ele>2082.39990234375</ele>
        <time>2026-06-15T11:58:54.000Z</time>
        <extensions>
          <ns3:TrackPointExtension>
            <ns3:atemp>19.0</ns3:atemp>
          </ns3:TrackPointExtension>
        </extensions>
      </trkpt>
      <trkpt lat="42.563092410564422607421875" lon="20.044717602431774139404296875">
        <ele>2082.39990234375</ele>
        <time>2026-06-15T11:58:55.000Z</time>
        <extensions>
          <ns3:TrackPointExtension>
            <ns3:atemp>19.0</ns3:atemp>
          </ns3:TrackPointExtension>
        </extensions>
      </trkpt>
      <trkpt lat="42.563092410564422607421875" lon="20.044717602431774139404296875">
        <ele>2082.39990234375</ele>
        <time>2026-06-15T11:58:56.000Z</time>
        <extensions>
          <ns3:TrackPointExtension>
            <ns3:atemp>19.0</ns3:atemp>
          </ns3:TrackPointExtension>
        </extensions>
      </trkpt>
      <trkpt lat="42.563092410564422607421875" lon="20.044717602431774139404296875">
        <ele>2082.39990234375</ele>
        <time>2026-06-15T11:58:57.000Z</time>
        <extensions>
          <ns3:TrackPointExtension>
            <ns3:atemp>19.0</ns3:atemp>
          </ns3:TrackPointExtension>
        </extensions>
      </trkpt>
      <trkpt lat="42.563092410564422607421875" lon="20.044717602431774139404296875">
        <ele>2082.39990234375</ele>
        <time>2026-06-15T11:58:58.000Z</time>
        <extensions>
          <ns3:TrackPointExtension>
            <ns3:atemp>19.0</ns3:atemp>
          </ns3:TrackPointExtension>
        </extensions>
      </trkpt>
      <trkpt lat="42.563092410564422607421875" lon="20.044717602431774139404296875">
        <ele>2082.39990234375</ele>
        <time>2026-06-15T11:58:59.000Z</time>
        <extensions>
          <ns3:TrackPointExtension>
            <ns3:atemp>19.0</ns3:atemp>
          </ns3:TrackPointExtension>
        </extensions>
      </trkpt>
      <trkpt lat="42.563092410564422607421875" lon="20.044717602431774139404296875">
        <ele>2082.39990234375</ele>
        <time>2026-06-15T11:59:00.000Z</time>
        <extensions>
          <ns3:TrackPointExtension>
            <ns3:atemp>19.0</ns3:atemp>
          </ns3:TrackPointExtension>
        </extensions>
      </trkpt>
      <trkpt lat="42.563092410564422607421875" lon="20.044717602431774139404296875">
        <ele>2082.39990234375</ele>
        <time>2026-06-15T11:59:01.000Z</time>
        <extensions>
          <ns3:TrackPointExtension>
            <ns3:atemp>19.0</ns3:atemp>
          </ns3:TrackPointExtension>
        </extensions>
      </trkpt>
      <trkpt lat="42.563092410564422607421875" lon="20.044717602431774139404296875">
        <ele>2082.39990234375</ele>
        <time>2026-06-15T11:59:02.000Z</time>
        <extensions>
          <ns3:TrackPointExtension>
            <ns3:atemp>19.0</ns3:atemp>
          </ns3:TrackPointExtension>
        </extensions>
      </trkpt>
      <trkpt lat="42.563092410564422607421875" lon="20.044717602431774139404296875">
        <ele>2082.39990234375</ele>
        <time>2026-06-15T11:59:03.000Z</time>
        <extensions>
          <ns3:TrackPointExtension>
            <ns3:atemp>19.0</ns3:atemp>
          </ns3:TrackPointExtension>
        </extensions>
      </trkpt>
      <trkpt lat="42.563092410564422607421875" lon="20.044717602431774139404296875">
        <ele>2082.39990234375</ele>
        <time>2026-06-15T11:59:04.000Z</time>
        <extensions>
          <ns3:TrackPointExtension>
            <ns3:atemp>19.0</ns3:atemp>
          </ns3:TrackPointExtension>
        </extensions>
      </trkpt>
      <trkpt lat="42.563092410564422607421875" lon="20.044717602431774139404296875">
        <ele>2082.39990234375</ele>
        <time>2026-06-15T11:59:05.000Z</time>
        <extensions>
          <ns3:TrackPointExtension>
            <ns3:atemp>19.0</ns3:atemp>
          </ns3:TrackPointExtension>
        </extensions>
      </trkpt>
      <trkpt lat="42.563092410564422607421875" lon="20.044717602431774139404296875">
        <ele>2082.39990234375</ele>
        <time>2026-06-15T11:59:06.000Z</time>
        <extensions>
          <ns3:TrackPointExtension>
            <ns3:atemp>19.0</ns3:atemp>
          </ns3:TrackPointExtension>
        </extensions>
      </trkpt>
      <trkpt lat="42.563092410564422607421875" lon="20.044717602431774139404296875">
        <ele>2082.199951171875</ele>
        <time>2026-06-15T11:59:07.000Z</time>
        <extensions>
          <ns3:TrackPointExtension>
            <ns3:atemp>19.0</ns3:atemp>
          </ns3:TrackPointExtension>
        </extensions>
      </trkpt>
      <trkpt lat="42.563092410564422607421875" lon="20.044717602431774139404296875">
        <ele>2082.199951171875</ele>
        <time>2026-06-15T11:59:08.000Z</time>
        <extensions>
          <ns3:TrackPointExtension>
            <ns3:atemp>19.0</ns3:atemp>
          </ns3:TrackPointExtension>
        </extensions>
      </trkpt>
      <trkpt lat="42.563092410564422607421875" lon="20.044717602431774139404296875">
        <ele>2082.199951171875</ele>
        <time>2026-06-15T11:59:09.000Z</time>
        <extensions>
          <ns3:TrackPointExtension>
            <ns3:atemp>19.0</ns3:atemp>
          </ns3:TrackPointExtension>
        </extensions>
      </trkpt>
      <trkpt lat="42.563092410564422607421875" lon="20.044717602431774139404296875">
        <ele>2082.199951171875</ele>
        <time>2026-06-15T11:59:10.000Z</time>
        <extensions>
          <ns3:TrackPointExtension>
            <ns3:atemp>19.0</ns3:atemp>
          </ns3:TrackPointExtension>
        </extensions>
      </trkpt>
      <trkpt lat="42.563092410564422607421875" lon="20.044717602431774139404296875">
        <ele>2082.199951171875</ele>
        <time>2026-06-15T11:59:11.000Z</time>
        <extensions>
          <ns3:TrackPointExtension>
            <ns3:atemp>19.0</ns3:atemp>
          </ns3:TrackPointExtension>
        </extensions>
      </trkpt>
      <trkpt lat="42.563092410564422607421875" lon="20.044717602431774139404296875">
        <ele>2082.199951171875</ele>
        <time>2026-06-15T11:59:12.000Z</time>
        <extensions>
          <ns3:TrackPointExtension>
            <ns3:atemp>19.0</ns3:atemp>
          </ns3:TrackPointExtension>
        </extensions>
      </trkpt>
      <trkpt lat="42.563092410564422607421875" lon="20.044717602431774139404296875">
        <ele>2082.199951171875</ele>
        <time>2026-06-15T11:59:13.000Z</time>
        <extensions>
          <ns3:TrackPointExtension>
            <ns3:atemp>19.0</ns3:atemp>
          </ns3:TrackPointExtension>
        </extensions>
      </trkpt>
      <trkpt lat="42.563092410564422607421875" lon="20.044717602431774139404296875">
        <ele>2082.199951171875</ele>
        <time>2026-06-15T11:59:14.000Z</time>
        <extensions>
          <ns3:TrackPointExtension>
            <ns3:atemp>19.0</ns3:atemp>
          </ns3:TrackPointExtension>
        </extensions>
      </trkpt>
      <trkpt lat="42.563092410564422607421875" lon="20.044717602431774139404296875">
        <ele>2082.199951171875</ele>
        <time>2026-06-15T11:59:15.000Z</time>
        <extensions>
          <ns3:TrackPointExtension>
            <ns3:atemp>19.0</ns3:atemp>
          </ns3:TrackPointExtension>
        </extensions>
      </trkpt>
      <trkpt lat="42.563092410564422607421875" lon="20.044717602431774139404296875">
        <ele>2082.199951171875</ele>
        <time>2026-06-15T11:59:16.000Z</time>
        <extensions>
          <ns3:TrackPointExtension>
            <ns3:atemp>19.0</ns3:atemp>
          </ns3:TrackPointExtension>
        </extensions>
      </trkpt>
      <trkpt lat="42.563092410564422607421875" lon="20.044717602431774139404296875">
        <ele>2082.199951171875</ele>
        <time>2026-06-15T11:59:17.000Z</time>
        <extensions>
          <ns3:TrackPointExtension>
            <ns3:atemp>19.0</ns3:atemp>
          </ns3:TrackPointExtension>
        </extensions>
      </trkpt>
      <trkpt lat="42.563092410564422607421875" lon="20.044717602431774139404296875">
        <ele>2082.199951171875</ele>
        <time>2026-06-15T11:59:18.000Z</time>
        <extensions>
          <ns3:TrackPointExtension>
            <ns3:atemp>19.0</ns3:atemp>
          </ns3:TrackPointExtension>
        </extensions>
      </trkpt>
      <trkpt lat="42.563092410564422607421875" lon="20.044717602431774139404296875">
        <ele>2082</ele>
        <time>2026-06-15T11:59:19.000Z</time>
        <extensions>
          <ns3:TrackPointExtension>
            <ns3:atemp>19.0</ns3:atemp>
          </ns3:TrackPointExtension>
        </extensions>
      </trkpt>
      <trkpt lat="42.563092410564422607421875" lon="20.044717602431774139404296875">
        <ele>2082</ele>
        <time>2026-06-15T11:59:20.000Z</time>
        <extensions>
          <ns3:TrackPointExtension>
            <ns3:atemp>19.0</ns3:atemp>
          </ns3:TrackPointExtension>
        </extensions>
      </trkpt>
      <trkpt lat="42.563092410564422607421875" lon="20.044717602431774139404296875">
        <ele>2082</ele>
        <time>2026-06-15T11:59:21.000Z</time>
        <extensions>
          <ns3:TrackPointExtension>
            <ns3:atemp>19.0</ns3:atemp>
          </ns3:TrackPointExtension>
        </extensions>
      </trkpt>
      <trkpt lat="42.563092410564422607421875" lon="20.044717602431774139404296875">
        <ele>2082</ele>
        <time>2026-06-15T11:59:22.000Z</time>
        <extensions>
          <ns3:TrackPointExtension>
            <ns3:atemp>19.0</ns3:atemp>
          </ns3:TrackPointExtension>
        </extensions>
      </trkpt>
      <trkpt lat="42.563092410564422607421875" lon="20.044717602431774139404296875">
        <ele>2082</ele>
        <time>2026-06-15T11:59:23.000Z</time>
        <extensions>
          <ns3:TrackPointExtension>
            <ns3:atemp>19.0</ns3:atemp>
          </ns3:TrackPointExtension>
        </extensions>
      </trkpt>
      <trkpt lat="42.563092410564422607421875" lon="20.044717602431774139404296875">
        <ele>2082</ele>
        <time>2026-06-15T11:59:24.000Z</time>
        <extensions>
          <ns3:TrackPointExtension>
            <ns3:atemp>19.0</ns3:atemp>
          </ns3:TrackPointExtension>
        </extensions>
      </trkpt>
      <trkpt lat="42.563092410564422607421875" lon="20.044717602431774139404296875">
        <ele>2082</ele>
        <time>2026-06-15T11:59:25.000Z</time>
        <extensions>
          <ns3:TrackPointExtension>
            <ns3:atemp>19.0</ns3:atemp>
          </ns3:TrackPointExtension>
        </extensions>
      </trkpt>
      <trkpt lat="42.563092410564422607421875" lon="20.044717602431774139404296875">
        <ele>2082</ele>
        <time>2026-06-15T11:59:26.000Z</time>
        <extensions>
          <ns3:TrackPointExtension>
            <ns3:atemp>19.0</ns3:atemp>
          </ns3:TrackPointExtension>
        </extensions>
      </trkpt>
      <trkpt lat="42.563092410564422607421875" lon="20.044717602431774139404296875">
        <ele>2082</ele>
        <time>2026-06-15T11:59:27.000Z</time>
        <extensions>
          <ns3:TrackPointExtension>
            <ns3:atemp>19.0</ns3:atemp>
          </ns3:TrackPointExtension>
        </extensions>
      </trkpt>
      <trkpt lat="42.563092410564422607421875" lon="20.044717602431774139404296875">
        <ele>2082</ele>
        <time>2026-06-15T11:59:28.000Z</time>
        <extensions>
          <ns3:TrackPointExtension>
            <ns3:atemp>19.0</ns3:atemp>
          </ns3:TrackPointExtension>
        </extensions>
      </trkpt>
      <trkpt lat="42.563092410564422607421875" lon="20.044717602431774139404296875">
        <ele>2082</ele>
        <time>2026-06-15T11:59:29.000Z</time>
        <extensions>
          <ns3:TrackPointExtension>
            <ns3:atemp>19.0</ns3:atemp>
          </ns3:TrackPointExtension>
        </extensions>
      </trkpt>
      <trkpt lat="42.563092410564422607421875" lon="20.044717602431774139404296875">
        <ele>2082</ele>
        <time>2026-06-15T11:59:30.000Z</time>
        <extensions>
          <ns3:TrackPointExtension>
            <ns3:atemp>19.0</ns3:atemp>
          </ns3:TrackPointExtension>
        </extensions>
      </trkpt>
      <trkpt lat="42.563092410564422607421875" lon="20.044717602431774139404296875">
        <ele>2082</ele>
        <time>2026-06-15T11:59:31.000Z</time>
        <extensions>
          <ns3:TrackPointExtension>
            <ns3:atemp>19.0</ns3:atemp>
          </ns3:TrackPointExtension>
        </extensions>
      </trkpt>
      <trkpt lat="42.563092410564422607421875" lon="20.044717602431774139404296875">
        <ele>2081.800048828125</ele>
        <time>2026-06-15T11:59:32.000Z</time>
        <extensions>
          <ns3:TrackPointExtension>
            <ns3:atemp>19.0</ns3:atemp>
          </ns3:TrackPointExtension>
        </extensions>
      </trkpt>
      <trkpt lat="42.563092410564422607421875" lon="20.044717602431774139404296875">
        <ele>2081.800048828125</ele>
        <time>2026-06-15T11:59:33.000Z</time>
        <extensions>
          <ns3:TrackPointExtension>
            <ns3:atemp>19.0</ns3:atemp>
          </ns3:TrackPointExtension>
        </extensions>
      </trkpt>
      <trkpt lat="42.563092410564422607421875" lon="20.044717602431774139404296875">
        <ele>2081.800048828125</ele>
        <time>2026-06-15T11:59:34.000Z</time>
        <extensions>
          <ns3:TrackPointExtension>
            <ns3:atemp>19.0</ns3:atemp>
          </ns3:TrackPointExtension>
        </extensions>
      </trkpt>
      <trkpt lat="42.563092410564422607421875" lon="20.044717602431774139404296875">
        <ele>2081.800048828125</ele>
        <time>2026-06-15T11:59:35.000Z</time>
        <extensions>
          <ns3:TrackPointExtension>
            <ns3:atemp>19.0</ns3:atemp>
          </ns3:TrackPointExtension>
        </extensions>
      </trkpt>
      <trkpt lat="42.563092410564422607421875" lon="20.044717602431774139404296875">
        <ele>2081.800048828125</ele>
        <time>2026-06-15T11:59:36.000Z</time>
        <extensions>
          <ns3:TrackPointExtension>
            <ns3:atemp>19.0</ns3:atemp>
          </ns3:TrackPointExtension>
        </extensions>
      </trkpt>
      <trkpt lat="42.563092410564422607421875" lon="20.044717602431774139404296875">
        <ele>2081.800048828125</ele>
        <time>2026-06-15T11:59:37.000Z</time>
        <extensions>
          <ns3:TrackPointExtension>
            <ns3:atemp>19.0</ns3:atemp>
          </ns3:TrackPointExtension>
        </extensions>
      </trkpt>
      <trkpt lat="42.563092410564422607421875" lon="20.044717602431774139404296875">
        <ele>2081.800048828125</ele>
        <time>2026-06-15T11:59:38.000Z</time>
        <extensions>
          <ns3:TrackPointExtension>
            <ns3:atemp>19.0</ns3:atemp>
          </ns3:TrackPointExtension>
        </extensions>
      </trkpt>
      <trkpt lat="42.563092410564422607421875" lon="20.044717602431774139404296875">
        <ele>2081.800048828125</ele>
        <time>2026-06-15T11:59:39.000Z</time>
        <extensions>
          <ns3:TrackPointExtension>
            <ns3:atemp>19.0</ns3:atemp>
          </ns3:TrackPointExtension>
        </extensions>
      </trkpt>
      <trkpt lat="42.563092410564422607421875" lon="20.044717602431774139404296875">
        <ele>2081.800048828125</ele>
        <time>2026-06-15T11:59:40.000Z</time>
        <extensions>
          <ns3:TrackPointExtension>
            <ns3:atemp>19.0</ns3:atemp>
          </ns3:TrackPointExtension>
        </extensions>
      </trkpt>
      <trkpt lat="42.563092410564422607421875" lon="20.044717602431774139404296875">
        <ele>2081.800048828125</ele>
        <time>2026-06-15T11:59:41.000Z</time>
        <extensions>
          <ns3:TrackPointExtension>
            <ns3:atemp>19.0</ns3:atemp>
          </ns3:TrackPointExtension>
        </extensions>
      </trkpt>
      <trkpt lat="42.563092410564422607421875" lon="20.044717602431774139404296875">
        <ele>2081.800048828125</ele>
        <time>2026-06-15T11:59:42.000Z</time>
        <extensions>
          <ns3:TrackPointExtension>
            <ns3:atemp>19.0</ns3:atemp>
          </ns3:TrackPointExtension>
        </extensions>
      </trkpt>
      <trkpt lat="42.563092410564422607421875" lon="20.044717602431774139404296875">
        <ele>2081.800048828125</ele>
        <time>2026-06-15T11:59:43.000Z</time>
        <extensions>
          <ns3:TrackPointExtension>
            <ns3:atemp>19.0</ns3:atemp>
          </ns3:TrackPointExtension>
        </extensions>
      </trkpt>
      <trkpt lat="42.563092410564422607421875" lon="20.044717602431774139404296875">
        <ele>2081.800048828125</ele>
        <time>2026-06-15T11:59:44.000Z</time>
        <extensions>
          <ns3:TrackPointExtension>
            <ns3:atemp>19.0</ns3:atemp>
          </ns3:TrackPointExtension>
        </extensions>
      </trkpt>
      <trkpt lat="42.563092410564422607421875" lon="20.044717602431774139404296875">
        <ele>2081.60009765625</ele>
        <time>2026-06-15T11:59:45.000Z</time>
        <extensions>
          <ns3:TrackPointExtension>
            <ns3:atemp>19.0</ns3:atemp>
          </ns3:TrackPointExtension>
        </extensions>
      </trkpt>
      <trkpt lat="42.563092410564422607421875" lon="20.044717602431774139404296875">
        <ele>2081.60009765625</ele>
        <time>2026-06-15T11:59:46.000Z</time>
        <extensions>
          <ns3:TrackPointExtension>
            <ns3:atemp>19.0</ns3:atemp>
          </ns3:TrackPointExtension>
        </extensions>
      </trkpt>
      <trkpt lat="42.563092410564422607421875" lon="20.044717602431774139404296875">
        <ele>2081.60009765625</ele>
        <time>2026-06-15T11:59:47.000Z</time>
        <extensions>
          <ns3:TrackPointExtension>
            <ns3:atemp>19.0</ns3:atemp>
          </ns3:TrackPointExtension>
        </extensions>
      </trkpt>
      <trkpt lat="42.563092410564422607421875" lon="20.044717602431774139404296875">
        <ele>2081.60009765625</ele>
        <time>2026-06-15T11:59:48.000Z</time>
        <extensions>
          <ns3:TrackPointExtension>
            <ns3:atemp>19.0</ns3:atemp>
          </ns3:TrackPointExtension>
        </extensions>
      </trkpt>
      <trkpt lat="42.563092410564422607421875" lon="20.044717602431774139404296875">
        <ele>2081.60009765625</ele>
        <time>2026-06-15T11:59:49.000Z</time>
        <extensions>
          <ns3:TrackPointExtension>
            <ns3:atemp>19.0</ns3:atemp>
          </ns3:TrackPointExtension>
        </extensions>
      </trkpt>
      <trkpt lat="42.563092410564422607421875" lon="20.044717602431774139404296875">
        <ele>2081.60009765625</ele>
        <time>2026-06-15T11:59:50.000Z</time>
        <extensions>
          <ns3:TrackPointExtension>
            <ns3:atemp>19.0</ns3:atemp>
          </ns3:TrackPointExtension>
        </extensions>
      </trkpt>
      <trkpt lat="42.563092410564422607421875" lon="20.044717602431774139404296875">
        <ele>2081.60009765625</ele>
        <time>2026-06-15T11:59:51.000Z</time>
        <extensions>
          <ns3:TrackPointExtension>
            <ns3:atemp>19.0</ns3:atemp>
          </ns3:TrackPointExtension>
        </extensions>
      </trkpt>
      <trkpt lat="42.563092410564422607421875" lon="20.044717602431774139404296875">
        <ele>2081.60009765625</ele>
        <time>2026-06-15T11:59:52.000Z</time>
        <extensions>
          <ns3:TrackPointExtension>
            <ns3:atemp>19.0</ns3:atemp>
          </ns3:TrackPointExtension>
        </extensions>
      </trkpt>
      <trkpt lat="42.563092410564422607421875" lon="20.044717602431774139404296875">
        <ele>2081.60009765625</ele>
        <time>2026-06-15T11:59:53.000Z</time>
        <extensions>
          <ns3:TrackPointExtension>
            <ns3:atemp>19.0</ns3:atemp>
          </ns3:TrackPointExtension>
        </extensions>
      </trkpt>
      <trkpt lat="42.563092410564422607421875" lon="20.044717602431774139404296875">
        <ele>2081.60009765625</ele>
        <time>2026-06-15T11:59:54.000Z</time>
        <extensions>
          <ns3:TrackPointExtension>
            <ns3:atemp>19.0</ns3:atemp>
          </ns3:TrackPointExtension>
        </extensions>
      </trkpt>
      <trkpt lat="42.563092410564422607421875" lon="20.044717602431774139404296875">
        <ele>2081.60009765625</ele>
        <time>2026-06-15T11:59:55.000Z</time>
        <extensions>
          <ns3:TrackPointExtension>
            <ns3:atemp>19.0</ns3:atemp>
          </ns3:TrackPointExtension>
        </extensions>
      </trkpt>
      <trkpt lat="42.563092410564422607421875" lon="20.044717602431774139404296875">
        <ele>2081.60009765625</ele>
        <time>2026-06-15T11:59:56.000Z</time>
        <extensions>
          <ns3:TrackPointExtension>
            <ns3:atemp>19.0</ns3:atemp>
          </ns3:TrackPointExtension>
        </extensions>
      </trkpt>
      <trkpt lat="42.563092410564422607421875" lon="20.044717602431774139404296875">
        <ele>2081.800048828125</ele>
        <time>2026-06-15T11:59:57.000Z</time>
        <extensions>
          <ns3:TrackPointExtension>
            <ns3:atemp>19.0</ns3:atemp>
          </ns3:TrackPointExtension>
        </extensions>
      </trkpt>
      <trkpt lat="42.563092410564422607421875" lon="20.044717602431774139404296875">
        <ele>2081.800048828125</ele>
        <time>2026-06-15T11:59:58.000Z</time>
        <extensions>
          <ns3:TrackPointExtension>
            <ns3:atemp>19.0</ns3:atemp>
          </ns3:TrackPointExtension>
        </extensions>
      </trkpt>
      <trkpt lat="42.563092410564422607421875" lon="20.044717602431774139404296875">
        <ele>2081.800048828125</ele>
        <time>2026-06-15T11:59:59.000Z</time>
        <extensions>
          <ns3:TrackPointExtension>
            <ns3:atemp>19.0</ns3:atemp>
          </ns3:TrackPointExtension>
        </extensions>
      </trkpt>
      <trkpt lat="42.563092410564422607421875" lon="20.044717602431774139404296875">
        <ele>2081.800048828125</ele>
        <time>2026-06-15T12:00:00.000Z</time>
        <extensions>
          <ns3:TrackPointExtension>
            <ns3:atemp>19.0</ns3:atemp>
          </ns3:TrackPointExtension>
        </extensions>
      </trkpt>
      <trkpt lat="42.563092410564422607421875" lon="20.044717602431774139404296875">
        <ele>2082</ele>
        <time>2026-06-15T12:00:01.000Z</time>
        <extensions>
          <ns3:TrackPointExtension>
            <ns3:atemp>19.0</ns3:atemp>
          </ns3:TrackPointExtension>
        </extensions>
      </trkpt>
      <trkpt lat="42.563092410564422607421875" lon="20.044717602431774139404296875">
        <ele>2081.800048828125</ele>
        <time>2026-06-15T12:00:02.000Z</time>
        <extensions>
          <ns3:TrackPointExtension>
            <ns3:atemp>19.0</ns3:atemp>
          </ns3:TrackPointExtension>
        </extensions>
      </trkpt>
      <trkpt lat="42.563092410564422607421875" lon="20.044717602431774139404296875">
        <ele>2081.800048828125</ele>
        <time>2026-06-15T12:00:03.000Z</time>
        <extensions>
          <ns3:TrackPointExtension>
            <ns3:atemp>19.0</ns3:atemp>
          </ns3:TrackPointExtension>
        </extensions>
      </trkpt>
      <trkpt lat="42.563092410564422607421875" lon="20.044717602431774139404296875">
        <ele>2081.800048828125</ele>
        <time>2026-06-15T12:00:04.000Z</time>
        <extensions>
          <ns3:TrackPointExtension>
            <ns3:atemp>19.0</ns3:atemp>
          </ns3:TrackPointExtension>
        </extensions>
      </trkpt>
      <trkpt lat="42.563092410564422607421875" lon="20.044717602431774139404296875">
        <ele>2081.800048828125</ele>
        <time>2026-06-15T12:00:05.000Z</time>
        <extensions>
          <ns3:TrackPointExtension>
            <ns3:atemp>19.0</ns3:atemp>
          </ns3:TrackPointExtension>
        </extensions>
      </trkpt>
      <trkpt lat="42.563092410564422607421875" lon="20.044717602431774139404296875">
        <ele>2081.800048828125</ele>
        <time>2026-06-15T12:00:06.000Z</time>
        <extensions>
          <ns3:TrackPointExtension>
            <ns3:atemp>19.0</ns3:atemp>
          </ns3:TrackPointExtension>
        </extensions>
      </trkpt>
      <trkpt lat="42.563092410564422607421875" lon="20.044717602431774139404296875">
        <ele>2081.800048828125</ele>
        <time>2026-06-15T12:00:07.000Z</time>
        <extensions>
          <ns3:TrackPointExtension>
            <ns3:atemp>19.0</ns3:atemp>
          </ns3:TrackPointExtension>
        </extensions>
      </trkpt>
      <trkpt lat="42.563092410564422607421875" lon="20.044717602431774139404296875">
        <ele>2081.60009765625</ele>
        <time>2026-06-15T12:00:08.000Z</time>
        <extensions>
          <ns3:TrackPointExtension>
            <ns3:atemp>19.0</ns3:atemp>
          </ns3:TrackPointExtension>
        </extensions>
      </trkpt>
      <trkpt lat="42.563092410564422607421875" lon="20.044717602431774139404296875">
        <ele>2081.60009765625</ele>
        <time>2026-06-15T12:00:09.000Z</time>
        <extensions>
          <ns3:TrackPointExtension>
            <ns3:atemp>19.0</ns3:atemp>
          </ns3:TrackPointExtension>
        </extensions>
      </trkpt>
      <trkpt lat="42.563092410564422607421875" lon="20.044717602431774139404296875">
        <ele>2081.39990234375</ele>
        <time>2026-06-15T12:00:10.000Z</time>
        <extensions>
          <ns3:TrackPointExtension>
            <ns3:atemp>19.0</ns3:atemp>
          </ns3:TrackPointExtension>
        </extensions>
      </trkpt>
      <trkpt lat="42.563092410564422607421875" lon="20.044717602431774139404296875">
        <ele>2081.39990234375</ele>
        <time>2026-06-15T12:00:11.000Z</time>
        <extensions>
          <ns3:TrackPointExtension>
            <ns3:atemp>19.0</ns3:atemp>
          </ns3:TrackPointExtension>
        </extensions>
      </trkpt>
      <trkpt lat="42.563092410564422607421875" lon="20.044717602431774139404296875">
        <ele>2081.199951171875</ele>
        <time>2026-06-15T12:00:12.000Z</time>
        <extensions>
          <ns3:TrackPointExtension>
            <ns3:atemp>19.0</ns3:atemp>
          </ns3:TrackPointExtension>
        </extensions>
      </trkpt>
      <trkpt lat="42.563092410564422607421875" lon="20.044717602431774139404296875">
        <ele>2081.199951171875</ele>
        <time>2026-06-15T12:00:13.000Z</time>
        <extensions>
          <ns3:TrackPointExtension>
            <ns3:atemp>19.0</ns3:atemp>
          </ns3:TrackPointExtension>
        </extensions>
      </trkpt>
      <trkpt lat="42.563092410564422607421875" lon="20.044717602431774139404296875">
        <ele>2081.199951171875</ele>
        <time>2026-06-15T12:00:14.000Z</time>
        <extensions>
          <ns3:TrackPointExtension>
            <ns3:atemp>19.0</ns3:atemp>
          </ns3:TrackPointExtension>
        </extensions>
      </trkpt>
      <trkpt lat="42.563092410564422607421875" lon="20.044717602431774139404296875">
        <ele>2081.199951171875</ele>
        <time>2026-06-15T12:00:15.000Z</time>
        <extensions>
          <ns3:TrackPointExtension>
            <ns3:atemp>19.0</ns3:atemp>
          </ns3:TrackPointExtension>
        </extensions>
      </trkpt>
      <trkpt lat="42.563092410564422607421875" lon="20.044717602431774139404296875">
        <ele>2081</ele>
        <time>2026-06-15T12:00:16.000Z</time>
        <extensions>
          <ns3:TrackPointExtension>
            <ns3:atemp>19.0</ns3:atemp>
          </ns3:TrackPointExtension>
        </extensions>
      </trkpt>
      <trkpt lat="42.563092410564422607421875" lon="20.044717602431774139404296875">
        <ele>2081</ele>
        <time>2026-06-15T12:00:17.000Z</time>
        <extensions>
          <ns3:TrackPointExtension>
            <ns3:atemp>19.0</ns3:atemp>
          </ns3:TrackPointExtension>
        </extensions>
      </trkpt>
      <trkpt lat="42.563092410564422607421875" lon="20.044717602431774139404296875">
        <ele>2081</ele>
        <time>2026-06-15T12:00:18.000Z</time>
        <extensions>
          <ns3:TrackPointExtension>
            <ns3:atemp>20.0</ns3:atemp>
          </ns3:TrackPointExtension>
        </extensions>
      </trkpt>
      <trkpt lat="42.563092410564422607421875" lon="20.044717602431774139404296875">
        <ele>2081</ele>
        <time>2026-06-15T12:00:19.000Z</time>
        <extensions>
          <ns3:TrackPointExtension>
            <ns3:atemp>20.0</ns3:atemp>
          </ns3:TrackPointExtension>
        </extensions>
      </trkpt>
      <trkpt lat="42.563092410564422607421875" lon="20.044717602431774139404296875">
        <ele>2081</ele>
        <time>2026-06-15T12:00:20.000Z</time>
        <extensions>
          <ns3:TrackPointExtension>
            <ns3:atemp>19.0</ns3:atemp>
          </ns3:TrackPointExtension>
        </extensions>
      </trkpt>
      <trkpt lat="42.563092410564422607421875" lon="20.044717602431774139404296875">
        <ele>2081</ele>
        <time>2026-06-15T12:00:21.000Z</time>
        <extensions>
          <ns3:TrackPointExtension>
            <ns3:atemp>20.0</ns3:atemp>
          </ns3:TrackPointExtension>
        </extensions>
      </trkpt>
      <trkpt lat="42.563092410564422607421875" lon="20.044717602431774139404296875">
        <ele>2081</ele>
        <time>2026-06-15T12:00:22.000Z</time>
        <extensions>
          <ns3:TrackPointExtension>
            <ns3:atemp>20.0</ns3:atemp>
          </ns3:TrackPointExtension>
        </extensions>
      </trkpt>
      <trkpt lat="42.563092410564422607421875" lon="20.044717602431774139404296875">
        <ele>2081</ele>
        <time>2026-06-15T12:00:23.000Z</time>
        <extensions>
          <ns3:TrackPointExtension>
            <ns3:atemp>20.0</ns3:atemp>
          </ns3:TrackPointExtension>
        </extensions>
      </trkpt>
      <trkpt lat="42.563092410564422607421875" lon="20.044717602431774139404296875">
        <ele>2080.800048828125</ele>
        <time>2026-06-15T12:00:24.000Z</time>
        <extensions>
          <ns3:TrackPointExtension>
            <ns3:atemp>20.0</ns3:atemp>
          </ns3:TrackPointExtension>
        </extensions>
      </trkpt>
      <trkpt lat="42.563092410564422607421875" lon="20.044717602431774139404296875">
        <ele>2080.800048828125</ele>
        <time>2026-06-15T12:00:25.000Z</time>
        <extensions>
          <ns3:TrackPointExtension>
            <ns3:atemp>20.0</ns3:atemp>
          </ns3:TrackPointExtension>
        </extensions>
      </trkpt>
      <trkpt lat="42.563092410564422607421875" lon="20.044717602431774139404296875">
        <ele>2080.800048828125</ele>
        <time>2026-06-15T12:00:26.000Z</time>
        <extensions>
          <ns3:TrackPointExtension>
            <ns3:atemp>20.0</ns3:atemp>
          </ns3:TrackPointExtension>
        </extensions>
      </trkpt>
      <trkpt lat="42.563092410564422607421875" lon="20.044717602431774139404296875">
        <ele>2080.800048828125</ele>
        <time>2026-06-15T12:00:27.000Z</time>
        <extensions>
          <ns3:TrackPointExtension>
            <ns3:atemp>20.0</ns3:atemp>
          </ns3:TrackPointExtension>
        </extensions>
      </trkpt>
      <trkpt lat="42.563092410564422607421875" lon="20.044717602431774139404296875">
        <ele>2080.800048828125</ele>
        <time>2026-06-15T12:00:28.000Z</time>
        <extensions>
          <ns3:TrackPointExtension>
            <ns3:atemp>20.0</ns3:atemp>
          </ns3:TrackPointExtension>
        </extensions>
      </trkpt>
      <trkpt lat="42.563092410564422607421875" lon="20.044717602431774139404296875">
        <ele>2080.800048828125</ele>
        <time>2026-06-15T12:00:29.000Z</time>
        <extensions>
          <ns3:TrackPointExtension>
            <ns3:atemp>20.0</ns3:atemp>
          </ns3:TrackPointExtension>
        </extensions>
      </trkpt>
      <trkpt lat="42.563092410564422607421875" lon="20.044717602431774139404296875">
        <ele>2080.800048828125</ele>
        <time>2026-06-15T12:00:30.000Z</time>
        <extensions>
          <ns3:TrackPointExtension>
            <ns3:atemp>20.0</ns3:atemp>
          </ns3:TrackPointExtension>
        </extensions>
      </trkpt>
      <trkpt lat="42.563092410564422607421875" lon="20.044717602431774139404296875">
        <ele>2080.800048828125</ele>
        <time>2026-06-15T12:00:31.000Z</time>
        <extensions>
          <ns3:TrackPointExtension>
            <ns3:atemp>20.0</ns3:atemp>
          </ns3:TrackPointExtension>
        </extensions>
      </trkpt>
      <trkpt lat="42.563092410564422607421875" lon="20.044717602431774139404296875">
        <ele>2081</ele>
        <time>2026-06-15T12:00:32.000Z</time>
        <extensions>
          <ns3:TrackPointExtension>
            <ns3:atemp>20.0</ns3:atemp>
          </ns3:TrackPointExtension>
        </extensions>
      </trkpt>
      <trkpt lat="42.563092410564422607421875" lon="20.044717602431774139404296875">
        <ele>2081</ele>
        <time>2026-06-15T12:00:33.000Z</time>
        <extensions>
          <ns3:TrackPointExtension>
            <ns3:atemp>20.0</ns3:atemp>
          </ns3:TrackPointExtension>
        </extensions>
      </trkpt>
      <trkpt lat="42.563092410564422607421875" lon="20.044717602431774139404296875">
        <ele>2081</ele>
        <time>2026-06-15T12:00:34.000Z</time>
        <extensions>
          <ns3:TrackPointExtension>
            <ns3:atemp>20.0</ns3:atemp>
          </ns3:TrackPointExtension>
        </extensions>
      </trkpt>
      <trkpt lat="42.563092410564422607421875" lon="20.044717602431774139404296875">
        <ele>2081</ele>
        <time>2026-06-15T12:00:35.000Z</time>
        <extensions>
          <ns3:TrackPointExtension>
            <ns3:atemp>20.0</ns3:atemp>
          </ns3:TrackPointExtension>
        </extensions>
      </trkpt>
      <trkpt lat="42.563092410564422607421875" lon="20.044717602431774139404296875">
        <ele>2081.199951171875</ele>
        <time>2026-06-15T12:00:36.000Z</time>
        <extensions>
          <ns3:TrackPointExtension>
            <ns3:atemp>20.0</ns3:atemp>
          </ns3:TrackPointExtension>
        </extensions>
      </trkpt>
      <trkpt lat="42.563092410564422607421875" lon="20.044717602431774139404296875">
        <ele>2081.199951171875</ele>
        <time>2026-06-15T12:00:37.000Z</time>
        <extensions>
          <ns3:TrackPointExtension>
            <ns3:atemp>20.0</ns3:atemp>
          </ns3:TrackPointExtension>
        </extensions>
      </trkpt>
      <trkpt lat="42.563092410564422607421875" lon="20.044717602431774139404296875">
        <ele>2081.39990234375</ele>
        <time>2026-06-15T12:00:38.000Z</time>
        <extensions>
          <ns3:TrackPointExtension>
            <ns3:atemp>20.0</ns3:atemp>
          </ns3:TrackPointExtension>
        </extensions>
      </trkpt>
      <trkpt lat="42.563092410564422607421875" lon="20.044717602431774139404296875">
        <ele>2081.39990234375</ele>
        <time>2026-06-15T12:00:39.000Z</time>
        <extensions>
          <ns3:TrackPointExtension>
            <ns3:atemp>20.0</ns3:atemp>
          </ns3:TrackPointExtension>
        </extensions>
      </trkpt>
      <trkpt lat="42.563092410564422607421875" lon="20.044717602431774139404296875">
        <ele>2081.60009765625</ele>
        <time>2026-06-15T12:00:40.000Z</time>
        <extensions>
          <ns3:TrackPointExtension>
            <ns3:atemp>20.0</ns3:atemp>
          </ns3:TrackPointExtension>
        </extensions>
      </trkpt>
      <trkpt lat="42.563092410564422607421875" lon="20.044717602431774139404296875">
        <ele>2081.60009765625</ele>
        <time>2026-06-15T12:00:41.000Z</time>
        <extensions>
          <ns3:TrackPointExtension>
            <ns3:atemp>20.0</ns3:atemp>
          </ns3:TrackPointExtension>
        </extensions>
      </trkpt>
      <trkpt lat="42.563092410564422607421875" lon="20.044717602431774139404296875">
        <ele>2081.800048828125</ele>
        <time>2026-06-15T12:00:42.000Z</time>
        <extensions>
          <ns3:TrackPointExtension>
            <ns3:atemp>20.0</ns3:atemp>
          </ns3:TrackPointExtension>
        </extensions>
      </trkpt>
      <trkpt lat="42.563092410564422607421875" lon="20.044717602431774139404296875">
        <ele>2081.800048828125</ele>
        <time>2026-06-15T12:00:43.000Z</time>
        <extensions>
          <ns3:TrackPointExtension>
            <ns3:atemp>20.0</ns3:atemp>
          </ns3:TrackPointExtension>
        </extensions>
      </trkpt>
      <trkpt lat="42.563092410564422607421875" lon="20.044717602431774139404296875">
        <ele>2081.800048828125</ele>
        <time>2026-06-15T12:00:44.000Z</time>
        <extensions>
          <ns3:TrackPointExtension>
            <ns3:atemp>20.0</ns3:atemp>
          </ns3:TrackPointExtension>
        </extensions>
      </trkpt>
      <trkpt lat="42.563092410564422607421875" lon="20.044717602431774139404296875">
        <ele>2081.800048828125</ele>
        <time>2026-06-15T12:00:45.000Z</time>
        <extensions>
          <ns3:TrackPointExtension>
            <ns3:atemp>20.0</ns3:atemp>
          </ns3:TrackPointExtension>
        </extensions>
      </trkpt>
      <trkpt lat="42.563092410564422607421875" lon="20.044717602431774139404296875">
        <ele>2081.800048828125</ele>
        <time>2026-06-15T12:00:46.000Z</time>
        <extensions>
          <ns3:TrackPointExtension>
            <ns3:atemp>20.0</ns3:atemp>
          </ns3:TrackPointExtension>
        </extensions>
      </trkpt>
      <trkpt lat="42.563092410564422607421875" lon="20.044717602431774139404296875">
        <ele>2081.800048828125</ele>
        <time>2026-06-15T12:00:47.000Z</time>
        <extensions>
          <ns3:TrackPointExtension>
            <ns3:atemp>20.0</ns3:atemp>
          </ns3:TrackPointExtension>
        </extensions>
      </trkpt>
      <trkpt lat="42.563092410564422607421875" lon="20.044717602431774139404296875">
        <ele>2081.800048828125</ele>
        <time>2026-06-15T12:00:48.000Z</time>
        <extensions>
          <ns3:TrackPointExtension>
            <ns3:atemp>20.0</ns3:atemp>
          </ns3:TrackPointExtension>
        </extensions>
      </trkpt>
      <trkpt lat="42.563092410564422607421875" lon="20.044717602431774139404296875">
        <ele>2081.800048828125</ele>
        <time>2026-06-15T12:00:49.000Z</time>
        <extensions>
          <ns3:TrackPointExtension>
            <ns3:atemp>20.0</ns3:atemp>
          </ns3:TrackPointExtension>
        </extensions>
      </trkpt>
      <trkpt lat="42.563092410564422607421875" lon="20.044717602431774139404296875">
        <ele>2082</ele>
        <time>2026-06-15T12:00:50.000Z</time>
        <extensions>
          <ns3:TrackPointExtension>
            <ns3:atemp>20.0</ns3:atemp>
          </ns3:TrackPointExtension>
        </extensions>
      </trkpt>
      <trkpt lat="42.563092410564422607421875" lon="20.044717602431774139404296875">
        <ele>2082</ele>
        <time>2026-06-15T12:00:51.000Z</time>
        <extensions>
          <ns3:TrackPointExtension>
            <ns3:atemp>20.0</ns3:atemp>
          </ns3:TrackPointExtension>
        </extensions>
      </trkpt>
      <trkpt lat="42.563092410564422607421875" lon="20.044717602431774139404296875">
        <ele>2082</ele>
        <time>2026-06-15T12:00:52.000Z</time>
        <extensions>
          <ns3:TrackPointExtension>
            <ns3:atemp>20.0</ns3:atemp>
          </ns3:TrackPointExtension>
        </extensions>
      </trkpt>
      <trkpt lat="42.563092410564422607421875" lon="20.044717602431774139404296875">
        <ele>2082</ele>
        <time>2026-06-15T12:00:53.000Z</time>
        <extensions>
          <ns3:TrackPointExtension>
            <ns3:atemp>20.0</ns3:atemp>
          </ns3:TrackPointExtension>
        </extensions>
      </trkpt>
      <trkpt lat="42.563092410564422607421875" lon="20.044717602431774139404296875">
        <ele>2082.199951171875</ele>
        <time>2026-06-15T12:00:54.000Z</time>
        <extensions>
          <ns3:TrackPointExtension>
            <ns3:atemp>20.0</ns3:atemp>
          </ns3:TrackPointExtension>
        </extensions>
      </trkpt>
      <trkpt lat="42.563092410564422607421875" lon="20.044717602431774139404296875">
        <ele>2082.199951171875</ele>
        <time>2026-06-15T12:00:55.000Z</time>
        <extensions>
          <ns3:TrackPointExtension>
            <ns3:atemp>20.0</ns3:atemp>
          </ns3:TrackPointExtension>
        </extensions>
      </trkpt>
      <trkpt lat="42.563092410564422607421875" lon="20.044717602431774139404296875">
        <ele>2082.199951171875</ele>
        <time>2026-06-15T12:00:56.000Z</time>
        <extensions>
          <ns3:TrackPointExtension>
            <ns3:atemp>20.0</ns3:atemp>
          </ns3:TrackPointExtension>
        </extensions>
      </trkpt>
      <trkpt lat="42.563092410564422607421875" lon="20.044717602431774139404296875">
        <ele>2082.39990234375</ele>
        <time>2026-06-15T12:00:57.000Z</time>
        <extensions>
          <ns3:TrackPointExtension>
            <ns3:atemp>20.0</ns3:atemp>
          </ns3:TrackPointExtension>
        </extensions>
      </trkpt>
      <trkpt lat="42.563092410564422607421875" lon="20.044717602431774139404296875">
        <ele>2082.39990234375</ele>
        <time>2026-06-15T12:00:58.000Z</time>
        <extensions>
          <ns3:TrackPointExtension>
            <ns3:atemp>20.0</ns3:atemp>
          </ns3:TrackPointExtension>
        </extensions>
      </trkpt>
      <trkpt lat="42.563092410564422607421875" lon="20.044717602431774139404296875">
        <ele>2082.39990234375</ele>
        <time>2026-06-15T12:00:59.000Z</time>
        <extensions>
          <ns3:TrackPointExtension>
            <ns3:atemp>20.0</ns3:atemp>
          </ns3:TrackPointExtension>
        </extensions>
      </trkpt>
      <trkpt lat="42.563092410564422607421875" lon="20.044717602431774139404296875">
        <ele>2082.39990234375</ele>
        <time>2026-06-15T12:01:00.000Z</time>
        <extensions>
          <ns3:TrackPointExtension>
            <ns3:atemp>20.0</ns3:atemp>
          </ns3:TrackPointExtension>
        </extensions>
      </trkpt>
      <trkpt lat="42.563092410564422607421875" lon="20.044717602431774139404296875">
        <ele>2082.39990234375</ele>
        <time>2026-06-15T12:01:01.000Z</time>
        <extensions>
          <ns3:TrackPointExtension>
            <ns3:atemp>20.0</ns3:atemp>
          </ns3:TrackPointExtension>
        </extensions>
      </trkpt>
      <trkpt lat="42.563092410564422607421875" lon="20.044717602431774139404296875">
        <ele>2082.39990234375</ele>
        <time>2026-06-15T12:01:02.000Z</time>
        <extensions>
          <ns3:TrackPointExtension>
            <ns3:atemp>20.0</ns3:atemp>
          </ns3:TrackPointExtension>
        </extensions>
      </trkpt>
      <trkpt lat="42.563092410564422607421875" lon="20.044717602431774139404296875">
        <ele>2082.39990234375</ele>
        <time>2026-06-15T12:01:03.000Z</time>
        <extensions>
          <ns3:TrackPointExtension>
            <ns3:atemp>20.0</ns3:atemp>
          </ns3:TrackPointExtension>
        </extensions>
      </trkpt>
      <trkpt lat="42.563092410564422607421875" lon="20.044717602431774139404296875">
        <ele>2082.39990234375</ele>
        <time>2026-06-15T12:01:04.000Z</time>
        <extensions>
          <ns3:TrackPointExtension>
            <ns3:atemp>20.0</ns3:atemp>
          </ns3:TrackPointExtension>
        </extensions>
      </trkpt>
      <trkpt lat="42.563092410564422607421875" lon="20.044717602431774139404296875">
        <ele>2082.199951171875</ele>
        <time>2026-06-15T12:01:05.000Z</time>
        <extensions>
          <ns3:TrackPointExtension>
            <ns3:atemp>20.0</ns3:atemp>
          </ns3:TrackPointExtension>
        </extensions>
      </trkpt>
      <trkpt lat="42.563092410564422607421875" lon="20.044717602431774139404296875">
        <ele>2082.199951171875</ele>
        <time>2026-06-15T12:01:06.000Z</time>
        <extensions>
          <ns3:TrackPointExtension>
            <ns3:atemp>20.0</ns3:atemp>
          </ns3:TrackPointExtension>
        </extensions>
      </trkpt>
      <trkpt lat="42.563092410564422607421875" lon="20.044717602431774139404296875">
        <ele>2082.199951171875</ele>
        <time>2026-06-15T12:01:07.000Z</time>
        <extensions>
          <ns3:TrackPointExtension>
            <ns3:atemp>20.0</ns3:atemp>
          </ns3:TrackPointExtension>
        </extensions>
      </trkpt>
      <trkpt lat="42.563092410564422607421875" lon="20.044717602431774139404296875">
        <ele>2082</ele>
        <time>2026-06-15T12:01:08.000Z</time>
        <extensions>
          <ns3:TrackPointExtension>
            <ns3:atemp>20.0</ns3:atemp>
          </ns3:TrackPointExtension>
        </extensions>
      </trkpt>
      <trkpt lat="42.563092410564422607421875" lon="20.044717602431774139404296875">
        <ele>2082</ele>
        <time>2026-06-15T12:01:09.000Z</time>
        <extensions>
          <ns3:TrackPointExtension>
            <ns3:atemp>20.0</ns3:atemp>
          </ns3:TrackPointExtension>
        </extensions>
      </trkpt>
      <trkpt lat="42.563092410564422607421875" lon="20.044717602431774139404296875">
        <ele>2081.800048828125</ele>
        <time>2026-06-15T12:01:10.000Z</time>
        <extensions>
          <ns3:TrackPointExtension>
            <ns3:atemp>20.0</ns3:atemp>
          </ns3:TrackPointExtension>
        </extensions>
      </trkpt>
      <trkpt lat="42.563092410564422607421875" lon="20.044717602431774139404296875">
        <ele>2081.800048828125</ele>
        <time>2026-06-15T12:01:11.000Z</time>
        <extensions>
          <ns3:TrackPointExtension>
            <ns3:atemp>20.0</ns3:atemp>
          </ns3:TrackPointExtension>
        </extensions>
      </trkpt>
      <trkpt lat="42.563092410564422607421875" lon="20.044717602431774139404296875">
        <ele>2081.800048828125</ele>
        <time>2026-06-15T12:01:12.000Z</time>
        <extensions>
          <ns3:TrackPointExtension>
            <ns3:atemp>20.0</ns3:atemp>
          </ns3:TrackPointExtension>
        </extensions>
      </trkpt>
      <trkpt lat="42.563092410564422607421875" lon="20.044717602431774139404296875">
        <ele>2081.800048828125</ele>
        <time>2026-06-15T12:01:13.000Z</time>
        <extensions>
          <ns3:TrackPointExtension>
            <ns3:atemp>20.0</ns3:atemp>
          </ns3:TrackPointExtension>
        </extensions>
      </trkpt>
      <trkpt lat="42.563092410564422607421875" lon="20.044717602431774139404296875">
        <ele>2081.800048828125</ele>
        <time>2026-06-15T12:01:14.000Z</time>
        <extensions>
          <ns3:TrackPointExtension>
            <ns3:atemp>20.0</ns3:atemp>
          </ns3:TrackPointExtension>
        </extensions>
      </trkpt>
      <trkpt lat="42.563092410564422607421875" lon="20.044717602431774139404296875">
        <ele>2081.60009765625</ele>
        <time>2026-06-15T12:01:15.000Z</time>
        <extensions>
          <ns3:TrackPointExtension>
            <ns3:atemp>20.0</ns3:atemp>
          </ns3:TrackPointExtension>
        </extensions>
      </trkpt>
      <trkpt lat="42.563092410564422607421875" lon="20.044717602431774139404296875">
        <ele>2081.60009765625</ele>
        <time>2026-06-15T12:01:16.000Z</time>
        <extensions>
          <ns3:TrackPointExtension>
            <ns3:atemp>20.0</ns3:atemp>
          </ns3:TrackPointExtension>
        </extensions>
      </trkpt>
      <trkpt lat="42.563092410564422607421875" lon="20.044717602431774139404296875">
        <ele>2081.60009765625</ele>
        <time>2026-06-15T12:01:17.000Z</time>
        <extensions>
          <ns3:TrackPointExtension>
            <ns3:atemp>20.0</ns3:atemp>
          </ns3:TrackPointExtension>
        </extensions>
      </trkpt>
      <trkpt lat="42.563092410564422607421875" lon="20.044717602431774139404296875">
        <ele>2081.60009765625</ele>
        <time>2026-06-15T12:01:18.000Z</time>
        <extensions>
          <ns3:TrackPointExtension>
            <ns3:atemp>20.0</ns3:atemp>
          </ns3:TrackPointExtension>
        </extensions>
      </trkpt>
      <trkpt lat="42.563092410564422607421875" lon="20.044717602431774139404296875">
        <ele>2081.60009765625</ele>
        <time>2026-06-15T12:01:19.000Z</time>
        <extensions>
          <ns3:TrackPointExtension>
            <ns3:atemp>20.0</ns3:atemp>
          </ns3:TrackPointExtension>
        </extensions>
      </trkpt>
      <trkpt lat="42.563092410564422607421875" lon="20.044717602431774139404296875">
        <ele>2081.60009765625</ele>
        <time>2026-06-15T12:01:20.000Z</time>
        <extensions>
          <ns3:TrackPointExtension>
            <ns3:atemp>20.0</ns3:atemp>
          </ns3:TrackPointExtension>
        </extensions>
      </trkpt>
      <trkpt lat="42.563092410564422607421875" lon="20.044717602431774139404296875">
        <ele>2081.60009765625</ele>
        <time>2026-06-15T12:01:21.000Z</time>
        <extensions>
          <ns3:TrackPointExtension>
            <ns3:atemp>20.0</ns3:atemp>
          </ns3:TrackPointExtension>
        </extensions>
      </trkpt>
      <trkpt lat="42.563092410564422607421875" lon="20.044717602431774139404296875">
        <ele>2081.39990234375</ele>
        <time>2026-06-15T12:01:22.000Z</time>
        <extensions>
          <ns3:TrackPointExtension>
            <ns3:atemp>20.0</ns3:atemp>
          </ns3:TrackPointExtension>
        </extensions>
      </trkpt>
      <trkpt lat="42.563092410564422607421875" lon="20.044717602431774139404296875">
        <ele>2081.39990234375</ele>
        <time>2026-06-15T12:01:23.000Z</time>
        <extensions>
          <ns3:TrackPointExtension>
            <ns3:atemp>20.0</ns3:atemp>
          </ns3:TrackPointExtension>
        </extensions>
      </trkpt>
      <trkpt lat="42.563092410564422607421875" lon="20.044717602431774139404296875">
        <ele>2081.39990234375</ele>
        <time>2026-06-15T12:01:24.000Z</time>
        <extensions>
          <ns3:TrackPointExtension>
            <ns3:atemp>20.0</ns3:atemp>
          </ns3:TrackPointExtension>
        </extensions>
      </trkpt>
      <trkpt lat="42.563092410564422607421875" lon="20.044717602431774139404296875">
        <ele>2081.39990234375</ele>
        <time>2026-06-15T12:01:25.000Z</time>
        <extensions>
          <ns3:TrackPointExtension>
            <ns3:atemp>20.0</ns3:atemp>
          </ns3:TrackPointExtension>
        </extensions>
      </trkpt>
      <trkpt lat="42.563092410564422607421875" lon="20.044717602431774139404296875">
        <ele>2081.39990234375</ele>
        <time>2026-06-15T12:01:26.000Z</time>
        <extensions>
          <ns3:TrackPointExtension>
            <ns3:atemp>20.0</ns3:atemp>
          </ns3:TrackPointExtension>
        </extensions>
      </trkpt>
      <trkpt lat="42.563092410564422607421875" lon="20.044717602431774139404296875">
        <ele>2081.39990234375</ele>
        <time>2026-06-15T12:01:27.000Z</time>
        <extensions>
          <ns3:TrackPointExtension>
            <ns3:atemp>20.0</ns3:atemp>
          </ns3:TrackPointExtension>
        </extensions>
      </trkpt>
      <trkpt lat="42.563092410564422607421875" lon="20.044717602431774139404296875">
        <ele>2081.39990234375</ele>
        <time>2026-06-15T12:01:28.000Z</time>
        <extensions>
          <ns3:TrackPointExtension>
            <ns3:atemp>20.0</ns3:atemp>
          </ns3:TrackPointExtension>
        </extensions>
      </trkpt>
      <trkpt lat="42.563092410564422607421875" lon="20.044717602431774139404296875">
        <ele>2081.39990234375</ele>
        <time>2026-06-15T12:01:29.000Z</time>
        <extensions>
          <ns3:TrackPointExtension>
            <ns3:atemp>20.0</ns3:atemp>
          </ns3:TrackPointExtension>
        </extensions>
      </trkpt>
      <trkpt lat="42.563092410564422607421875" lon="20.044717602431774139404296875">
        <ele>2081.199951171875</ele>
        <time>2026-06-15T12:01:30.000Z</time>
        <extensions>
          <ns3:TrackPointExtension>
            <ns3:atemp>20.0</ns3:atemp>
          </ns3:TrackPointExtension>
        </extensions>
      </trkpt>
      <trkpt lat="42.563092410564422607421875" lon="20.044717602431774139404296875">
        <ele>2081.199951171875</ele>
        <time>2026-06-15T12:01:31.000Z</time>
        <extensions>
          <ns3:TrackPointExtension>
            <ns3:atemp>20.0</ns3:atemp>
          </ns3:TrackPointExtension>
        </extensions>
      </trkpt>
      <trkpt lat="42.563092410564422607421875" lon="20.044717602431774139404296875">
        <ele>2081.199951171875</ele>
        <time>2026-06-15T12:01:32.000Z</time>
        <extensions>
          <ns3:TrackPointExtension>
            <ns3:atemp>20.0</ns3:atemp>
          </ns3:TrackPointExtension>
        </extensions>
      </trkpt>
      <trkpt lat="42.563092410564422607421875" lon="20.044717602431774139404296875">
        <ele>2081.199951171875</ele>
        <time>2026-06-15T12:01:33.000Z</time>
        <extensions>
          <ns3:TrackPointExtension>
            <ns3:atemp>20.0</ns3:atemp>
          </ns3:TrackPointExtension>
        </extensions>
      </trkpt>
      <trkpt lat="42.563092410564422607421875" lon="20.044717602431774139404296875">
        <ele>2081.199951171875</ele>
        <time>2026-06-15T12:01:34.000Z</time>
        <extensions>
          <ns3:TrackPointExtension>
            <ns3:atemp>20.0</ns3:atemp>
          </ns3:TrackPointExtension>
        </extensions>
      </trkpt>
      <trkpt lat="42.563092410564422607421875" lon="20.044717602431774139404296875">
        <ele>2081.199951171875</ele>
        <time>2026-06-15T12:01:35.000Z</time>
        <extensions>
          <ns3:TrackPointExtension>
            <ns3:atemp>20.0</ns3:atemp>
          </ns3:TrackPointExtension>
        </extensions>
      </trkpt>
      <trkpt lat="42.563092410564422607421875" lon="20.044717602431774139404296875">
        <ele>2081.199951171875</ele>
        <time>2026-06-15T12:01:36.000Z</time>
        <extensions>
          <ns3:TrackPointExtension>
            <ns3:atemp>20.0</ns3:atemp>
          </ns3:TrackPointExtension>
        </extensions>
      </trkpt>
      <trkpt lat="42.563092410564422607421875" lon="20.044717602431774139404296875">
        <ele>2081.199951171875</ele>
        <time>2026-06-15T12:01:37.000Z</time>
        <extensions>
          <ns3:TrackPointExtension>
            <ns3:atemp>20.0</ns3:atemp>
          </ns3:TrackPointExtension>
        </extensions>
      </trkpt>
      <trkpt lat="42.563092410564422607421875" lon="20.044717602431774139404296875">
        <ele>2081.199951171875</ele>
        <time>2026-06-15T12:01:38.000Z</time>
        <extensions>
          <ns3:TrackPointExtension>
            <ns3:atemp>20.0</ns3:atemp>
          </ns3:TrackPointExtension>
        </extensions>
      </trkpt>
      <trkpt lat="42.563092410564422607421875" lon="20.044717602431774139404296875">
        <ele>2081.199951171875</ele>
        <time>2026-06-15T12:01:39.000Z</time>
        <extensions>
          <ns3:TrackPointExtension>
            <ns3:atemp>20.0</ns3:atemp>
          </ns3:TrackPointExtension>
        </extensions>
      </trkpt>
      <trkpt lat="42.563092410564422607421875" lon="20.044717602431774139404296875">
        <ele>2081.199951171875</ele>
        <time>2026-06-15T12:01:40.000Z</time>
        <extensions>
          <ns3:TrackPointExtension>
            <ns3:atemp>20.0</ns3:atemp>
          </ns3:TrackPointExtension>
        </extensions>
      </trkpt>
      <trkpt lat="42.563092410564422607421875" lon="20.044717602431774139404296875">
        <ele>2081.199951171875</ele>
        <time>2026-06-15T12:01:41.000Z</time>
        <extensions>
          <ns3:TrackPointExtension>
            <ns3:atemp>20.0</ns3:atemp>
          </ns3:TrackPointExtension>
        </extensions>
      </trkpt>
      <trkpt lat="42.563092410564422607421875" lon="20.044717602431774139404296875">
        <ele>2081.39990234375</ele>
        <time>2026-06-15T12:01:42.000Z</time>
        <extensions>
          <ns3:TrackPointExtension>
            <ns3:atemp>20.0</ns3:atemp>
          </ns3:TrackPointExtension>
        </extensions>
      </trkpt>
      <trkpt lat="42.563092410564422607421875" lon="20.044717602431774139404296875">
        <ele>2081.39990234375</ele>
        <time>2026-06-15T12:01:43.000Z</time>
        <extensions>
          <ns3:TrackPointExtension>
            <ns3:atemp>20.0</ns3:atemp>
          </ns3:TrackPointExtension>
        </extensions>
      </trkpt>
      <trkpt lat="42.563092410564422607421875" lon="20.044717602431774139404296875">
        <ele>2081.39990234375</ele>
        <time>2026-06-15T12:01:44.000Z</time>
        <extensions>
          <ns3:TrackPointExtension>
            <ns3:atemp>20.0</ns3:atemp>
          </ns3:TrackPointExtension>
        </extensions>
      </trkpt>
      <trkpt lat="42.563092410564422607421875" lon="20.044717602431774139404296875">
        <ele>2081.39990234375</ele>
        <time>2026-06-15T12:01:45.000Z</time>
        <extensions>
          <ns3:TrackPointExtension>
            <ns3:atemp>20.0</ns3:atemp>
          </ns3:TrackPointExtension>
        </extensions>
      </trkpt>
      <trkpt lat="42.563092410564422607421875" lon="20.044717602431774139404296875">
        <ele>2081.39990234375</ele>
        <time>2026-06-15T12:01:46.000Z</time>
        <extensions>
          <ns3:TrackPointExtension>
            <ns3:atemp>20.0</ns3:atemp>
          </ns3:TrackPointExtension>
        </extensions>
      </trkpt>
      <trkpt lat="42.563092410564422607421875" lon="20.044717602431774139404296875">
        <ele>2081.39990234375</ele>
        <time>2026-06-15T12:01:47.000Z</time>
        <extensions>
          <ns3:TrackPointExtension>
            <ns3:atemp>20.0</ns3:atemp>
          </ns3:TrackPointExtension>
        </extensions>
      </trkpt>
      <trkpt lat="42.563092410564422607421875" lon="20.044717602431774139404296875">
        <ele>2081.60009765625</ele>
        <time>2026-06-15T12:01:48.000Z</time>
        <extensions>
          <ns3:TrackPointExtension>
            <ns3:atemp>20.0</ns3:atemp>
          </ns3:TrackPointExtension>
        </extensions>
      </trkpt>
      <trkpt lat="42.563092410564422607421875" lon="20.044717602431774139404296875">
        <ele>2081.60009765625</ele>
        <time>2026-06-15T12:01:49.000Z</time>
        <extensions>
          <ns3:TrackPointExtension>
            <ns3:atemp>20.0</ns3:atemp>
          </ns3:TrackPointExtension>
        </extensions>
      </trkpt>
      <trkpt lat="42.563092410564422607421875" lon="20.044717602431774139404296875">
        <ele>2081.60009765625</ele>
        <time>2026-06-15T12:01:50.000Z</time>
        <extensions>
          <ns3:TrackPointExtension>
            <ns3:atemp>20.0</ns3:atemp>
          </ns3:TrackPointExtension>
        </extensions>
      </trkpt>
      <trkpt lat="42.563092410564422607421875" lon="20.044717602431774139404296875">
        <ele>2081.39990234375</ele>
        <time>2026-06-15T12:01:51.000Z</time>
        <extensions>
          <ns3:TrackPointExtension>
            <ns3:atemp>20.0</ns3:atemp>
          </ns3:TrackPointExtension>
        </extensions>
      </trkpt>
      <trkpt lat="42.563092410564422607421875" lon="20.044717602431774139404296875">
        <ele>2081.39990234375</ele>
        <time>2026-06-15T12:01:52.000Z</time>
        <extensions>
          <ns3:TrackPointExtension>
            <ns3:atemp>20.0</ns3:atemp>
          </ns3:TrackPointExtension>
        </extensions>
      </trkpt>
      <trkpt lat="42.563092410564422607421875" lon="20.044717602431774139404296875">
        <ele>2081.39990234375</ele>
        <time>2026-06-15T12:01:53.000Z</time>
        <extensions>
          <ns3:TrackPointExtension>
            <ns3:atemp>20.0</ns3:atemp>
          </ns3:TrackPointExtension>
        </extensions>
      </trkpt>
      <trkpt lat="42.563092410564422607421875" lon="20.044717602431774139404296875">
        <ele>2081.39990234375</ele>
        <time>2026-06-15T12:01:54.000Z</time>
        <extensions>
          <ns3:TrackPointExtension>
            <ns3:atemp>20.0</ns3:atemp>
          </ns3:TrackPointExtension>
        </extensions>
      </trkpt>
      <trkpt lat="42.563092410564422607421875" lon="20.044717602431774139404296875">
        <ele>2081.39990234375</ele>
        <time>2026-06-15T12:01:55.000Z</time>
        <extensions>
          <ns3:TrackPointExtension>
            <ns3:atemp>20.0</ns3:atemp>
          </ns3:TrackPointExtension>
        </extensions>
      </trkpt>
      <trkpt lat="42.563092410564422607421875" lon="20.044717602431774139404296875">
        <ele>2081.60009765625</ele>
        <time>2026-06-15T12:01:56.000Z</time>
        <extensions>
          <ns3:TrackPointExtension>
            <ns3:atemp>20.0</ns3:atemp>
          </ns3:TrackPointExtension>
        </extensions>
      </trkpt>
      <trkpt lat="42.563092410564422607421875" lon="20.044717602431774139404296875">
        <ele>2081.60009765625</ele>
        <time>2026-06-15T12:01:57.000Z</time>
        <extensions>
          <ns3:TrackPointExtension>
            <ns3:atemp>20.0</ns3:atemp>
          </ns3:TrackPointExtension>
        </extensions>
      </trkpt>
      <trkpt lat="42.563092410564422607421875" lon="20.044717602431774139404296875">
        <ele>2081.60009765625</ele>
        <time>2026-06-15T12:01:58.000Z</time>
        <extensions>
          <ns3:TrackPointExtension>
            <ns3:atemp>20.0</ns3:atemp>
          </ns3:TrackPointExtension>
        </extensions>
      </trkpt>
      <trkpt lat="42.563092410564422607421875" lon="20.044717602431774139404296875">
        <ele>2081.800048828125</ele>
        <time>2026-06-15T12:01:59.000Z</time>
        <extensions>
          <ns3:TrackPointExtension>
            <ns3:atemp>20.0</ns3:atemp>
          </ns3:TrackPointExtension>
        </extensions>
      </trkpt>
      <trkpt lat="42.563092410564422607421875" lon="20.044717602431774139404296875">
        <ele>2081.800048828125</ele>
        <time>2026-06-15T12:02:00.000Z</time>
        <extensions>
          <ns3:TrackPointExtension>
            <ns3:atemp>20.0</ns3:atemp>
          </ns3:TrackPointExtension>
        </extensions>
      </trkpt>
      <trkpt lat="42.563092410564422607421875" lon="20.044717602431774139404296875">
        <ele>2081.800048828125</ele>
        <time>2026-06-15T12:02:01.000Z</time>
        <extensions>
          <ns3:TrackPointExtension>
            <ns3:atemp>20.0</ns3:atemp>
          </ns3:TrackPointExtension>
        </extensions>
      </trkpt>
      <trkpt lat="42.563092410564422607421875" lon="20.044717602431774139404296875">
        <ele>2081.800048828125</ele>
        <time>2026-06-15T12:02:02.000Z</time>
        <extensions>
          <ns3:TrackPointExtension>
            <ns3:atemp>20.0</ns3:atemp>
          </ns3:TrackPointExtension>
        </extensions>
      </trkpt>
      <trkpt lat="42.563092410564422607421875" lon="20.044717602431774139404296875">
        <ele>2082</ele>
        <time>2026-06-15T12:02:03.000Z</time>
        <extensions>
          <ns3:TrackPointExtension>
            <ns3:atemp>20.0</ns3:atemp>
          </ns3:TrackPointExtension>
        </extensions>
      </trkpt>
      <trkpt lat="42.563092410564422607421875" lon="20.044717602431774139404296875">
        <ele>2082</ele>
        <time>2026-06-15T12:02:04.000Z</time>
        <extensions>
          <ns3:TrackPointExtension>
            <ns3:atemp>20.0</ns3:atemp>
          </ns3:TrackPointExtension>
        </extensions>
      </trkpt>
      <trkpt lat="42.563092410564422607421875" lon="20.044717602431774139404296875">
        <ele>2082</ele>
        <time>2026-06-15T12:02:05.000Z</time>
        <extensions>
          <ns3:TrackPointExtension>
            <ns3:atemp>20.0</ns3:atemp>
          </ns3:TrackPointExtension>
        </extensions>
      </trkpt>
      <trkpt lat="42.563092410564422607421875" lon="20.044717602431774139404296875">
        <ele>2082.199951171875</ele>
        <time>2026-06-15T12:02:06.000Z</time>
        <extensions>
          <ns3:TrackPointExtension>
            <ns3:atemp>20.0</ns3:atemp>
          </ns3:TrackPointExtension>
        </extensions>
      </trkpt>
      <trkpt lat="42.563092410564422607421875" lon="20.044717602431774139404296875">
        <ele>2082.199951171875</ele>
        <time>2026-06-15T12:02:07.000Z</time>
        <extensions>
          <ns3:TrackPointExtension>
            <ns3:atemp>20.0</ns3:atemp>
          </ns3:TrackPointExtension>
        </extensions>
      </trkpt>
      <trkpt lat="42.563092410564422607421875" lon="20.044717602431774139404296875">
        <ele>2082.199951171875</ele>
        <time>2026-06-15T12:02:08.000Z</time>
        <extensions>
          <ns3:TrackPointExtension>
            <ns3:atemp>20.0</ns3:atemp>
          </ns3:TrackPointExtension>
        </extensions>
      </trkpt>
      <trkpt lat="42.563092410564422607421875" lon="20.044717602431774139404296875">
        <ele>2082.199951171875</ele>
        <time>2026-06-15T12:02:09.000Z</time>
        <extensions>
          <ns3:TrackPointExtension>
            <ns3:atemp>20.0</ns3:atemp>
          </ns3:TrackPointExtension>
        </extensions>
      </trkpt>
      <trkpt lat="42.563092410564422607421875" lon="20.044717602431774139404296875">
        <ele>2082.199951171875</ele>
        <time>2026-06-15T12:02:10.000Z</time>
        <extensions>
          <ns3:TrackPointExtension>
            <ns3:atemp>20.0</ns3:atemp>
          </ns3:TrackPointExtension>
        </extensions>
      </trkpt>
      <trkpt lat="42.563092410564422607421875" lon="20.044717602431774139404296875">
        <ele>2082.199951171875</ele>
        <time>2026-06-15T12:02:11.000Z</time>
        <extensions>
          <ns3:TrackPointExtension>
            <ns3:atemp>20.0</ns3:atemp>
          </ns3:TrackPointExtension>
        </extensions>
      </trkpt>
      <trkpt lat="42.563092410564422607421875" lon="20.044717602431774139404296875">
        <ele>2082.39990234375</ele>
        <time>2026-06-15T12:02:12.000Z</time>
        <extensions>
          <ns3:TrackPointExtension>
            <ns3:atemp>20.0</ns3:atemp>
          </ns3:TrackPointExtension>
        </extensions>
      </trkpt>
      <trkpt lat="42.563092410564422607421875" lon="20.044717602431774139404296875">
        <ele>2082.39990234375</ele>
        <time>2026-06-15T12:02:13.000Z</time>
        <extensions>
          <ns3:TrackPointExtension>
            <ns3:atemp>20.0</ns3:atemp>
          </ns3:TrackPointExtension>
        </extensions>
      </trkpt>
      <trkpt lat="42.563092410564422607421875" lon="20.044717602431774139404296875">
        <ele>2082.199951171875</ele>
        <time>2026-06-15T12:02:14.000Z</time>
        <extensions>
          <ns3:TrackPointExtension>
            <ns3:atemp>20.0</ns3:atemp>
          </ns3:TrackPointExtension>
        </extensions>
      </trkpt>
      <trkpt lat="42.563092410564422607421875" lon="20.044717602431774139404296875">
        <ele>2082.199951171875</ele>
        <time>2026-06-15T12:02:15.000Z</time>
        <extensions>
          <ns3:TrackPointExtension>
            <ns3:atemp>20.0</ns3:atemp>
          </ns3:TrackPointExtension>
        </extensions>
      </trkpt>
      <trkpt lat="42.563092410564422607421875" lon="20.044717602431774139404296875">
        <ele>2082.199951171875</ele>
        <time>2026-06-15T12:02:16.000Z</time>
        <extensions>
          <ns3:TrackPointExtension>
            <ns3:atemp>20.0</ns3:atemp>
          </ns3:TrackPointExtension>
        </extensions>
      </trkpt>
      <trkpt lat="42.563092410564422607421875" lon="20.044717602431774139404296875">
        <ele>2082.199951171875</ele>
        <time>2026-06-15T12:02:17.000Z</time>
        <extensions>
          <ns3:TrackPointExtension>
            <ns3:atemp>20.0</ns3:atemp>
          </ns3:TrackPointExtension>
        </extensions>
      </trkpt>
      <trkpt lat="42.563092410564422607421875" lon="20.044717602431774139404296875">
        <ele>2082.199951171875</ele>
        <time>2026-06-15T12:02:18.000Z</time>
        <extensions>
          <ns3:TrackPointExtension>
            <ns3:atemp>20.0</ns3:atemp>
          </ns3:TrackPointExtension>
        </extensions>
      </trkpt>
      <trkpt lat="42.563092410564422607421875" lon="20.044717602431774139404296875">
        <ele>2082.199951171875</ele>
        <time>2026-06-15T12:02:19.000Z</time>
        <extensions>
          <ns3:TrackPointExtension>
            <ns3:atemp>20.0</ns3:atemp>
          </ns3:TrackPointExtension>
        </extensions>
      </trkpt>
      <trkpt lat="42.563092410564422607421875" lon="20.044717602431774139404296875">
        <ele>2082.199951171875</ele>
        <time>2026-06-15T12:02:20.000Z</time>
        <extensions>
          <ns3:TrackPointExtension>
            <ns3:atemp>20.0</ns3:atemp>
          </ns3:TrackPointExtension>
        </extensions>
      </trkpt>
      <trkpt lat="42.563092410564422607421875" lon="20.044717602431774139404296875">
        <ele>2082.199951171875</ele>
        <time>2026-06-15T12:02:21.000Z</time>
        <extensions>
          <ns3:TrackPointExtension>
            <ns3:atemp>20.0</ns3:atemp>
          </ns3:TrackPointExtension>
        </extensions>
      </trkpt>
      <trkpt lat="42.563092410564422607421875" lon="20.044717602431774139404296875">
        <ele>2082.199951171875</ele>
        <time>2026-06-15T12:02:22.000Z</time>
        <extensions>
          <ns3:TrackPointExtension>
            <ns3:atemp>20.0</ns3:atemp>
          </ns3:TrackPointExtension>
        </extensions>
      </trkpt>
      <trkpt lat="42.563092410564422607421875" lon="20.044717602431774139404296875">
        <ele>2082.39990234375</ele>
        <time>2026-06-15T12:02:23.000Z</time>
        <extensions>
          <ns3:TrackPointExtension>
            <ns3:atemp>20.0</ns3:atemp>
          </ns3:TrackPointExtension>
        </extensions>
      </trkpt>
      <trkpt lat="42.563092410564422607421875" lon="20.044717602431774139404296875">
        <ele>2082.39990234375</ele>
        <time>2026-06-15T12:02:24.000Z</time>
        <extensions>
          <ns3:TrackPointExtension>
            <ns3:atemp>20.0</ns3:atemp>
          </ns3:TrackPointExtension>
        </extensions>
      </trkpt>
      <trkpt lat="42.563092410564422607421875" lon="20.044717602431774139404296875">
        <ele>2082.39990234375</ele>
        <time>2026-06-15T12:02:25.000Z</time>
        <extensions>
          <ns3:TrackPointExtension>
            <ns3:atemp>20.0</ns3:atemp>
          </ns3:TrackPointExtension>
        </extensions>
      </trkpt>
      <trkpt lat="42.563092410564422607421875" lon="20.044717602431774139404296875">
        <ele>2082.199951171875</ele>
        <time>2026-06-15T12:02:26.000Z</time>
        <extensions>
          <ns3:TrackPointExtension>
            <ns3:atemp>20.0</ns3:atemp>
          </ns3:TrackPointExtension>
        </extensions>
      </trkpt>
      <trkpt lat="42.563092410564422607421875" lon="20.044717602431774139404296875">
        <ele>2082.199951171875</ele>
        <time>2026-06-15T12:02:27.000Z</time>
        <extensions>
          <ns3:TrackPointExtension>
            <ns3:atemp>20.0</ns3:atemp>
          </ns3:TrackPointExtension>
        </extensions>
      </trkpt>
      <trkpt lat="42.563092410564422607421875" lon="20.044717602431774139404296875">
        <ele>2082.199951171875</ele>
        <time>2026-06-15T12:02:28.000Z</time>
        <extensions>
          <ns3:TrackPointExtension>
            <ns3:atemp>20.0</ns3:atemp>
          </ns3:TrackPointExtension>
        </extensions>
      </trkpt>
      <trkpt lat="42.563092410564422607421875" lon="20.044717602431774139404296875">
        <ele>2082.199951171875</ele>
        <time>2026-06-15T12:02:29.000Z</time>
        <extensions>
          <ns3:TrackPointExtension>
            <ns3:atemp>20.0</ns3:atemp>
          </ns3:TrackPointExtension>
        </extensions>
      </trkpt>
      <trkpt lat="42.563092410564422607421875" lon="20.044717602431774139404296875">
        <ele>2082.199951171875</ele>
        <time>2026-06-15T12:02:30.000Z</time>
        <extensions>
          <ns3:TrackPointExtension>
            <ns3:atemp>20.0</ns3:atemp>
          </ns3:TrackPointExtension>
        </extensions>
      </trkpt>
      <trkpt lat="42.563092410564422607421875" lon="20.044717602431774139404296875">
        <ele>2082.199951171875</ele>
        <time>2026-06-15T12:02:31.000Z</time>
        <extensions>
          <ns3:TrackPointExtension>
            <ns3:atemp>20.0</ns3:atemp>
          </ns3:TrackPointExtension>
        </extensions>
      </trkpt>
      <trkpt lat="42.563092410564422607421875" lon="20.044717602431774139404296875">
        <ele>2082.199951171875</ele>
        <time>2026-06-15T12:02:32.000Z</time>
        <extensions>
          <ns3:TrackPointExtension>
            <ns3:atemp>20.0</ns3:atemp>
          </ns3:TrackPointExtension>
        </extensions>
      </trkpt>
      <trkpt lat="42.563092410564422607421875" lon="20.044717602431774139404296875">
        <ele>2082.199951171875</ele>
        <time>2026-06-15T12:02:33.000Z</time>
        <extensions>
          <ns3:TrackPointExtension>
            <ns3:atemp>20.0</ns3:atemp>
          </ns3:TrackPointExtension>
        </extensions>
      </trkpt>
      <trkpt lat="42.563092410564422607421875" lon="20.044717602431774139404296875">
        <ele>2082.39990234375</ele>
        <time>2026-06-15T12:02:34.000Z</time>
        <extensions>
          <ns3:TrackPointExtension>
            <ns3:atemp>20.0</ns3:atemp>
          </ns3:TrackPointExtension>
        </extensions>
      </trkpt>
      <trkpt lat="42.563092410564422607421875" lon="20.044717602431774139404296875">
        <ele>2082.39990234375</ele>
        <time>2026-06-15T12:02:35.000Z</time>
        <extensions>
          <ns3:TrackPointExtension>
            <ns3:atemp>20.0</ns3:atemp>
          </ns3:TrackPointExtension>
        </extensions>
      </trkpt>
      <trkpt lat="42.563092410564422607421875" lon="20.044717602431774139404296875">
        <ele>2082.39990234375</ele>
        <time>2026-06-15T12:02:36.000Z</time>
        <extensions>
          <ns3:TrackPointExtension>
            <ns3:atemp>20.0</ns3:atemp>
          </ns3:TrackPointExtension>
        </extensions>
      </trkpt>
      <trkpt lat="42.563092410564422607421875" lon="20.044717602431774139404296875">
        <ele>2082.39990234375</ele>
        <time>2026-06-15T12:02:37.000Z</time>
        <extensions>
          <ns3:TrackPointExtension>
            <ns3:atemp>20.0</ns3:atemp>
          </ns3:TrackPointExtension>
        </extensions>
      </trkpt>
      <trkpt lat="42.563092410564422607421875" lon="20.044717602431774139404296875">
        <ele>2082.39990234375</ele>
        <time>2026-06-15T12:02:38.000Z</time>
        <extensions>
          <ns3:TrackPointExtension>
            <ns3:atemp>20.0</ns3:atemp>
          </ns3:TrackPointExtension>
        </extensions>
      </trkpt>
      <trkpt lat="42.563092410564422607421875" lon="20.044717602431774139404296875">
        <ele>2082.39990234375</ele>
        <time>2026-06-15T12:02:39.000Z</time>
        <extensions>
          <ns3:TrackPointExtension>
            <ns3:atemp>20.0</ns3:atemp>
          </ns3:TrackPointExtension>
        </extensions>
      </trkpt>
      <trkpt lat="42.563092410564422607421875" lon="20.044717602431774139404296875">
        <ele>2082.39990234375</ele>
        <time>2026-06-15T12:02:40.000Z</time>
        <extensions>
          <ns3:TrackPointExtension>
            <ns3:atemp>20.0</ns3:atemp>
          </ns3:TrackPointExtension>
        </extensions>
      </trkpt>
      <trkpt lat="42.563092410564422607421875" lon="20.044717602431774139404296875">
        <ele>2082.39990234375</ele>
        <time>2026-06-15T12:02:41.000Z</time>
        <extensions>
          <ns3:TrackPointExtension>
            <ns3:atemp>20.0</ns3:atemp>
          </ns3:TrackPointExtension>
        </extensions>
      </trkpt>
      <trkpt lat="42.563092410564422607421875" lon="20.044717602431774139404296875">
        <ele>2082.39990234375</ele>
        <time>2026-06-15T12:02:42.000Z</time>
        <extensions>
          <ns3:TrackPointExtension>
            <ns3:atemp>20.0</ns3:atemp>
          </ns3:TrackPointExtension>
        </extensions>
      </trkpt>
      <trkpt lat="42.563092410564422607421875" lon="20.044717602431774139404296875">
        <ele>2082.39990234375</ele>
        <time>2026-06-15T12:02:43.000Z</time>
        <extensions>
          <ns3:TrackPointExtension>
            <ns3:atemp>20.0</ns3:atemp>
          </ns3:TrackPointExtension>
        </extensions>
      </trkpt>
      <trkpt lat="42.563092410564422607421875" lon="20.044717602431774139404296875">
        <ele>2082.39990234375</ele>
        <time>2026-06-15T12:02:44.000Z</time>
        <extensions>
          <ns3:TrackPointExtension>
            <ns3:atemp>20.0</ns3:atemp>
          </ns3:TrackPointExtension>
        </extensions>
      </trkpt>
      <trkpt lat="42.563092410564422607421875" lon="20.044717602431774139404296875">
        <ele>2082.39990234375</ele>
        <time>2026-06-15T12:02:45.000Z</time>
        <extensions>
          <ns3:TrackPointExtension>
            <ns3:atemp>20.0</ns3:atemp>
          </ns3:TrackPointExtension>
        </extensions>
      </trkpt>
      <trkpt lat="42.563092410564422607421875" lon="20.044717602431774139404296875">
        <ele>2082.39990234375</ele>
        <time>2026-06-15T12:02:46.000Z</time>
        <extensions>
          <ns3:TrackPointExtension>
            <ns3:atemp>20.0</ns3:atemp>
          </ns3:TrackPointExtension>
        </extensions>
      </trkpt>
      <trkpt lat="42.563092410564422607421875" lon="20.044717602431774139404296875">
        <ele>2082.39990234375</ele>
        <time>2026-06-15T12:02:47.000Z</time>
        <extensions>
          <ns3:TrackPointExtension>
            <ns3:atemp>20.0</ns3:atemp>
          </ns3:TrackPointExtension>
        </extensions>
      </trkpt>
      <trkpt lat="42.563092410564422607421875" lon="20.044717602431774139404296875">
        <ele>2082.39990234375</ele>
        <time>2026-06-15T12:02:48.000Z</time>
        <extensions>
          <ns3:TrackPointExtension>
            <ns3:atemp>20.0</ns3:atemp>
          </ns3:TrackPointExtension>
        </extensions>
      </trkpt>
      <trkpt lat="42.563092410564422607421875" lon="20.044717602431774139404296875">
        <ele>2082.39990234375</ele>
        <time>2026-06-15T12:02:49.000Z</time>
        <extensions>
          <ns3:TrackPointExtension>
            <ns3:atemp>20.0</ns3:atemp>
          </ns3:TrackPointExtension>
        </extensions>
      </trkpt>
      <trkpt lat="42.563092410564422607421875" lon="20.044717602431774139404296875">
        <ele>2082.39990234375</ele>
        <time>2026-06-15T12:02:50.000Z</time>
        <extensions>
          <ns3:TrackPointExtension>
            <ns3:atemp>20.0</ns3:atemp>
          </ns3:TrackPointExtension>
        </extensions>
      </trkpt>
      <trkpt lat="42.563092410564422607421875" lon="20.044717602431774139404296875">
        <ele>2082.39990234375</ele>
        <time>2026-06-15T12:02:51.000Z</time>
        <extensions>
          <ns3:TrackPointExtension>
            <ns3:atemp>20.0</ns3:atemp>
          </ns3:TrackPointExtension>
        </extensions>
      </trkpt>
      <trkpt lat="42.563092410564422607421875" lon="20.044717602431774139404296875">
        <ele>2082.39990234375</ele>
        <time>2026-06-15T12:02:52.000Z</time>
        <extensions>
          <ns3:TrackPointExtension>
            <ns3:atemp>20.0</ns3:atemp>
          </ns3:TrackPointExtension>
        </extensions>
      </trkpt>
      <trkpt lat="42.563092410564422607421875" lon="20.044717602431774139404296875">
        <ele>2082.60009765625</ele>
        <time>2026-06-15T12:02:53.000Z</time>
        <extensions>
          <ns3:TrackPointExtension>
            <ns3:atemp>20.0</ns3:atemp>
          </ns3:TrackPointExtension>
        </extensions>
      </trkpt>
      <trkpt lat="42.563092410564422607421875" lon="20.044717602431774139404296875">
        <ele>2082.60009765625</ele>
        <time>2026-06-15T12:02:54.000Z</time>
        <extensions>
          <ns3:TrackPointExtension>
            <ns3:atemp>20.0</ns3:atemp>
          </ns3:TrackPointExtension>
        </extensions>
      </trkpt>
      <trkpt lat="42.563092410564422607421875" lon="20.044717602431774139404296875">
        <ele>2082.60009765625</ele>
        <time>2026-06-15T12:02:55.000Z</time>
        <extensions>
          <ns3:TrackPointExtension>
            <ns3:atemp>20.0</ns3:atemp>
          </ns3:TrackPointExtension>
        </extensions>
      </trkpt>
      <trkpt lat="42.563092410564422607421875" lon="20.044717602431774139404296875">
        <ele>2082.60009765625</ele>
        <time>2026-06-15T12:02:56.000Z</time>
        <extensions>
          <ns3:TrackPointExtension>
            <ns3:atemp>20.0</ns3:atemp>
          </ns3:TrackPointExtension>
        </extensions>
      </trkpt>
      <trkpt lat="42.563092410564422607421875" lon="20.044717602431774139404296875">
        <ele>2082.39990234375</ele>
        <time>2026-06-15T12:02:57.000Z</time>
        <extensions>
          <ns3:TrackPointExtension>
            <ns3:atemp>20.0</ns3:atemp>
          </ns3:TrackPointExtension>
        </extensions>
      </trkpt>
      <trkpt lat="42.563092410564422607421875" lon="20.044717602431774139404296875">
        <ele>2082.39990234375</ele>
        <time>2026-06-15T12:02:58.000Z</time>
        <extensions>
          <ns3:TrackPointExtension>
            <ns3:atemp>20.0</ns3:atemp>
          </ns3:TrackPointExtension>
        </extensions>
      </trkpt>
      <trkpt lat="42.563092410564422607421875" lon="20.044717602431774139404296875">
        <ele>2082.60009765625</ele>
        <time>2026-06-15T12:02:59.000Z</time>
        <extensions>
          <ns3:TrackPointExtension>
            <ns3:atemp>20.0</ns3:atemp>
          </ns3:TrackPointExtension>
        </extensions>
      </trkpt>
      <trkpt lat="42.563092410564422607421875" lon="20.044717602431774139404296875">
        <ele>2082.60009765625</ele>
        <time>2026-06-15T12:03:00.000Z</time>
        <extensions>
          <ns3:TrackPointExtension>
            <ns3:atemp>20.0</ns3:atemp>
          </ns3:TrackPointExtension>
        </extensions>
      </trkpt>
      <trkpt lat="42.563092410564422607421875" lon="20.044717602431774139404296875">
        <ele>2082.60009765625</ele>
        <time>2026-06-15T12:03:01.000Z</time>
        <extensions>
          <ns3:TrackPointExtension>
            <ns3:atemp>20.0</ns3:atemp>
          </ns3:TrackPointExtension>
        </extensions>
      </trkpt>
      <trkpt lat="42.563092410564422607421875" lon="20.044717602431774139404296875">
        <ele>2082.60009765625</ele>
        <time>2026-06-15T12:03:02.000Z</time>
        <extensions>
          <ns3:TrackPointExtension>
            <ns3:atemp>20.0</ns3:atemp>
          </ns3:TrackPointExtension>
        </extensions>
      </trkpt>
      <trkpt lat="42.563092410564422607421875" lon="20.044717602431774139404296875">
        <ele>2082.60009765625</ele>
        <time>2026-06-15T12:03:03.000Z</time>
        <extensions>
          <ns3:TrackPointExtension>
            <ns3:atemp>20.0</ns3:atemp>
          </ns3:TrackPointExtension>
        </extensions>
      </trkpt>
      <trkpt lat="42.563092410564422607421875" lon="20.044717602431774139404296875">
        <ele>2082.60009765625</ele>
        <time>2026-06-15T12:03:04.000Z</time>
        <extensions>
          <ns3:TrackPointExtension>
            <ns3:atemp>20.0</ns3:atemp>
          </ns3:TrackPointExtension>
        </extensions>
      </trkpt>
      <trkpt lat="42.563092410564422607421875" lon="20.044717602431774139404296875">
        <ele>2082.39990234375</ele>
        <time>2026-06-15T12:03:05.000Z</time>
        <extensions>
          <ns3:TrackPointExtension>
            <ns3:atemp>20.0</ns3:atemp>
          </ns3:TrackPointExtension>
        </extensions>
      </trkpt>
      <trkpt lat="42.563092410564422607421875" lon="20.044717602431774139404296875">
        <ele>2082.39990234375</ele>
        <time>2026-06-15T12:03:06.000Z</time>
        <extensions>
          <ns3:TrackPointExtension>
            <ns3:atemp>20.0</ns3:atemp>
          </ns3:TrackPointExtension>
        </extensions>
      </trkpt>
      <trkpt lat="42.563092410564422607421875" lon="20.044717602431774139404296875">
        <ele>2082.39990234375</ele>
        <time>2026-06-15T12:03:07.000Z</time>
        <extensions>
          <ns3:TrackPointExtension>
            <ns3:atemp>20.0</ns3:atemp>
          </ns3:TrackPointExtension>
        </extensions>
      </trkpt>
      <trkpt lat="42.563092410564422607421875" lon="20.044717602431774139404296875">
        <ele>2082.39990234375</ele>
        <time>2026-06-15T12:03:08.000Z</time>
        <extensions>
          <ns3:TrackPointExtension>
            <ns3:atemp>20.0</ns3:atemp>
          </ns3:TrackPointExtension>
        </extensions>
      </trkpt>
      <trkpt lat="42.563092410564422607421875" lon="20.044717602431774139404296875">
        <ele>2082.39990234375</ele>
        <time>2026-06-15T12:03:09.000Z</time>
        <extensions>
          <ns3:TrackPointExtension>
            <ns3:atemp>20.0</ns3:atemp>
          </ns3:TrackPointExtension>
        </extensions>
      </trkpt>
      <trkpt lat="42.563092410564422607421875" lon="20.044717602431774139404296875">
        <ele>2082.199951171875</ele>
        <time>2026-06-15T12:03:10.000Z</time>
        <extensions>
          <ns3:TrackPointExtension>
            <ns3:atemp>20.0</ns3:atemp>
          </ns3:TrackPointExtension>
        </extensions>
      </trkpt>
      <trkpt lat="42.563092410564422607421875" lon="20.044717602431774139404296875">
        <ele>2082.199951171875</ele>
        <time>2026-06-15T12:03:11.000Z</time>
        <extensions>
          <ns3:TrackPointExtension>
            <ns3:atemp>20.0</ns3:atemp>
          </ns3:TrackPointExtension>
        </extensions>
      </trkpt>
      <trkpt lat="42.563092410564422607421875" lon="20.044717602431774139404296875">
        <ele>2082.199951171875</ele>
        <time>2026-06-15T12:03:12.000Z</time>
        <extensions>
          <ns3:TrackPointExtension>
            <ns3:atemp>20.0</ns3:atemp>
          </ns3:TrackPointExtension>
        </extensions>
      </trkpt>
      <trkpt lat="42.563092410564422607421875" lon="20.044717602431774139404296875">
        <ele>2082.199951171875</ele>
        <time>2026-06-15T12:03:13.000Z</time>
        <extensions>
          <ns3:TrackPointExtension>
            <ns3:atemp>20.0</ns3:atemp>
          </ns3:TrackPointExtension>
        </extensions>
      </trkpt>
      <trkpt lat="42.563092410564422607421875" lon="20.044717602431774139404296875">
        <ele>2082.199951171875</ele>
        <time>2026-06-15T12:03:14.000Z</time>
        <extensions>
          <ns3:TrackPointExtension>
            <ns3:atemp>20.0</ns3:atemp>
          </ns3:TrackPointExtension>
        </extensions>
      </trkpt>
      <trkpt lat="42.563092410564422607421875" lon="20.044717602431774139404296875">
        <ele>2082.199951171875</ele>
        <time>2026-06-15T12:03:15.000Z</time>
        <extensions>
          <ns3:TrackPointExtension>
            <ns3:atemp>20.0</ns3:atemp>
          </ns3:TrackPointExtension>
        </extensions>
      </trkpt>
      <trkpt lat="42.563092410564422607421875" lon="20.044717602431774139404296875">
        <ele>2082.199951171875</ele>
        <time>2026-06-15T12:03:16.000Z</time>
        <extensions>
          <ns3:TrackPointExtension>
            <ns3:atemp>20.0</ns3:atemp>
          </ns3:TrackPointExtension>
        </extensions>
      </trkpt>
      <trkpt lat="42.563092410564422607421875" lon="20.044717602431774139404296875">
        <ele>2082.199951171875</ele>
        <time>2026-06-15T12:03:17.000Z</time>
        <extensions>
          <ns3:TrackPointExtension>
            <ns3:atemp>20.0</ns3:atemp>
          </ns3:TrackPointExtension>
        </extensions>
      </trkpt>
      <trkpt lat="42.563092410564422607421875" lon="20.044717602431774139404296875">
        <ele>2082.199951171875</ele>
        <time>2026-06-15T12:03:18.000Z</time>
        <extensions>
          <ns3:TrackPointExtension>
            <ns3:atemp>20.0</ns3:atemp>
          </ns3:TrackPointExtension>
        </extensions>
      </trkpt>
      <trkpt lat="42.563092410564422607421875" lon="20.044717602431774139404296875">
        <ele>2082.199951171875</ele>
        <time>2026-06-15T12:03:19.000Z</time>
        <extensions>
          <ns3:TrackPointExtension>
            <ns3:atemp>20.0</ns3:atemp>
          </ns3:TrackPointExtension>
        </extensions>
      </trkpt>
      <trkpt lat="42.563092410564422607421875" lon="20.044717602431774139404296875">
        <ele>2082.199951171875</ele>
        <time>2026-06-15T12:03:20.000Z</time>
        <extensions>
          <ns3:TrackPointExtension>
            <ns3:atemp>20.0</ns3:atemp>
          </ns3:TrackPointExtension>
        </extensions>
      </trkpt>
      <trkpt lat="42.563092410564422607421875" lon="20.044717602431774139404296875">
        <ele>2082.199951171875</ele>
        <time>2026-06-15T12:03:21.000Z</time>
        <extensions>
          <ns3:TrackPointExtension>
            <ns3:atemp>20.0</ns3:atemp>
          </ns3:TrackPointExtension>
        </extensions>
      </trkpt>
      <trkpt lat="42.563092410564422607421875" lon="20.044717602431774139404296875">
        <ele>2082.199951171875</ele>
        <time>2026-06-15T12:03:22.000Z</time>
        <extensions>
          <ns3:TrackPointExtension>
            <ns3:atemp>20.0</ns3:atemp>
          </ns3:TrackPointExtension>
        </extensions>
      </trkpt>
      <trkpt lat="42.563092410564422607421875" lon="20.044717602431774139404296875">
        <ele>2082.199951171875</ele>
        <time>2026-06-15T12:03:23.000Z</time>
        <extensions>
          <ns3:TrackPointExtension>
            <ns3:atemp>20.0</ns3:atemp>
          </ns3:TrackPointExtension>
        </extensions>
      </trkpt>
      <trkpt lat="42.563092410564422607421875" lon="20.044717602431774139404296875">
        <ele>2082.199951171875</ele>
        <time>2026-06-15T12:03:24.000Z</time>
        <extensions>
          <ns3:TrackPointExtension>
            <ns3:atemp>20.0</ns3:atemp>
          </ns3:TrackPointExtension>
        </extensions>
      </trkpt>
      <trkpt lat="42.563092410564422607421875" lon="20.044717602431774139404296875">
        <ele>2082.199951171875</ele>
        <time>2026-06-15T12:03:25.000Z</time>
        <extensions>
          <ns3:TrackPointExtension>
            <ns3:atemp>20.0</ns3:atemp>
          </ns3:TrackPointExtension>
        </extensions>
      </trkpt>
      <trkpt lat="42.563092410564422607421875" lon="20.044717602431774139404296875">
        <ele>2082.199951171875</ele>
        <time>2026-06-15T12:03:26.000Z</time>
        <extensions>
          <ns3:TrackPointExtension>
            <ns3:atemp>20.0</ns3:atemp>
          </ns3:TrackPointExtension>
        </extensions>
      </trkpt>
      <trkpt lat="42.563092410564422607421875" lon="20.044717602431774139404296875">
        <ele>2082.199951171875</ele>
        <time>2026-06-15T12:03:27.000Z</time>
        <extensions>
          <ns3:TrackPointExtension>
            <ns3:atemp>20.0</ns3:atemp>
          </ns3:TrackPointExtension>
        </extensions>
      </trkpt>
      <trkpt lat="42.563092410564422607421875" lon="20.044717602431774139404296875">
        <ele>2082.199951171875</ele>
        <time>2026-06-15T12:03:28.000Z</time>
        <extensions>
          <ns3:TrackPointExtension>
            <ns3:atemp>20.0</ns3:atemp>
          </ns3:TrackPointExtension>
        </extensions>
      </trkpt>
      <trkpt lat="42.563092410564422607421875" lon="20.044717602431774139404296875">
        <ele>2082.199951171875</ele>
        <time>2026-06-15T12:03:29.000Z</time>
        <extensions>
          <ns3:TrackPointExtension>
            <ns3:atemp>20.0</ns3:atemp>
          </ns3:TrackPointExtension>
        </extensions>
      </trkpt>
      <trkpt lat="42.563092410564422607421875" lon="20.044717602431774139404296875">
        <ele>2082.199951171875</ele>
        <time>2026-06-15T12:03:30.000Z</time>
        <extensions>
          <ns3:TrackPointExtension>
            <ns3:atemp>20.0</ns3:atemp>
          </ns3:TrackPointExtension>
        </extensions>
      </trkpt>
      <trkpt lat="42.563092410564422607421875" lon="20.044717602431774139404296875">
        <ele>2082.199951171875</ele>
        <time>2026-06-15T12:03:31.000Z</time>
        <extensions>
          <ns3:TrackPointExtension>
            <ns3:atemp>20.0</ns3:atemp>
          </ns3:TrackPointExtension>
        </extensions>
      </trkpt>
      <trkpt lat="42.563092410564422607421875" lon="20.044717602431774139404296875">
        <ele>2082.199951171875</ele>
        <time>2026-06-15T12:03:32.000Z</time>
        <extensions>
          <ns3:TrackPointExtension>
            <ns3:atemp>20.0</ns3:atemp>
          </ns3:TrackPointExtension>
        </extensions>
      </trkpt>
      <trkpt lat="42.563092410564422607421875" lon="20.044717602431774139404296875">
        <ele>2082.199951171875</ele>
        <time>2026-06-15T12:03:33.000Z</time>
        <extensions>
          <ns3:TrackPointExtension>
            <ns3:atemp>20.0</ns3:atemp>
          </ns3:TrackPointExtension>
        </extensions>
      </trkpt>
      <trkpt lat="42.563092410564422607421875" lon="20.044717602431774139404296875">
        <ele>2082.199951171875</ele>
        <time>2026-06-15T12:03:34.000Z</time>
        <extensions>
          <ns3:TrackPointExtension>
            <ns3:atemp>20.0</ns3:atemp>
          </ns3:TrackPointExtension>
        </extensions>
      </trkpt>
      <trkpt lat="42.563092410564422607421875" lon="20.044717602431774139404296875">
        <ele>2082.199951171875</ele>
        <time>2026-06-15T12:03:35.000Z</time>
        <extensions>
          <ns3:TrackPointExtension>
            <ns3:atemp>20.0</ns3:atemp>
          </ns3:TrackPointExtension>
        </extensions>
      </trkpt>
      <trkpt lat="42.563092410564422607421875" lon="20.044717602431774139404296875">
        <ele>2082.199951171875</ele>
        <time>2026-06-15T12:03:36.000Z</time>
        <extensions>
          <ns3:TrackPointExtension>
            <ns3:atemp>20.0</ns3:atemp>
          </ns3:TrackPointExtension>
        </extensions>
      </trkpt>
      <trkpt lat="42.563092410564422607421875" lon="20.044717602431774139404296875">
        <ele>2082.199951171875</ele>
        <time>2026-06-15T12:03:37.000Z</time>
        <extensions>
          <ns3:TrackPointExtension>
            <ns3:atemp>20.0</ns3:atemp>
          </ns3:TrackPointExtension>
        </extensions>
      </trkpt>
      <trkpt lat="42.563092410564422607421875" lon="20.044717602431774139404296875">
        <ele>2082.199951171875</ele>
        <time>2026-06-15T12:03:38.000Z</time>
        <extensions>
          <ns3:TrackPointExtension>
            <ns3:atemp>20.0</ns3:atemp>
          </ns3:TrackPointExtension>
        </extensions>
      </trkpt>
      <trkpt lat="42.563092410564422607421875" lon="20.044717602431774139404296875">
        <ele>2082.199951171875</ele>
        <time>2026-06-15T12:03:39.000Z</time>
        <extensions>
          <ns3:TrackPointExtension>
            <ns3:atemp>20.0</ns3:atemp>
          </ns3:TrackPointExtension>
        </extensions>
      </trkpt>
      <trkpt lat="42.563092410564422607421875" lon="20.044717602431774139404296875">
        <ele>2082.199951171875</ele>
        <time>2026-06-15T12:03:40.000Z</time>
        <extensions>
          <ns3:TrackPointExtension>
            <ns3:atemp>20.0</ns3:atemp>
          </ns3:TrackPointExtension>
        </extensions>
      </trkpt>
      <trkpt lat="42.563092410564422607421875" lon="20.044717602431774139404296875">
        <ele>2082.199951171875</ele>
        <time>2026-06-15T12:03:41.000Z</time>
        <extensions>
          <ns3:TrackPointExtension>
            <ns3:atemp>20.0</ns3:atemp>
          </ns3:TrackPointExtension>
        </extensions>
      </trkpt>
      <trkpt lat="42.563092410564422607421875" lon="20.044717602431774139404296875">
        <ele>2082.199951171875</ele>
        <time>2026-06-15T12:03:42.000Z</time>
        <extensions>
          <ns3:TrackPointExtension>
            <ns3:atemp>20.0</ns3:atemp>
          </ns3:TrackPointExtension>
        </extensions>
      </trkpt>
      <trkpt lat="42.563092410564422607421875" lon="20.044717602431774139404296875">
        <ele>2082.199951171875</ele>
        <time>2026-06-15T12:03:43.000Z</time>
        <extensions>
          <ns3:TrackPointExtension>
            <ns3:atemp>20.0</ns3:atemp>
          </ns3:TrackPointExtension>
        </extensions>
      </trkpt>
      <trkpt lat="42.563092410564422607421875" lon="20.044717602431774139404296875">
        <ele>2082.199951171875</ele>
        <time>2026-06-15T12:03:44.000Z</time>
        <extensions>
          <ns3:TrackPointExtension>
            <ns3:atemp>20.0</ns3:atemp>
          </ns3:TrackPointExtension>
        </extensions>
      </trkpt>
      <trkpt lat="42.563092410564422607421875" lon="20.044717602431774139404296875">
        <ele>2082.199951171875</ele>
        <time>2026-06-15T12:03:45.000Z</time>
        <extensions>
          <ns3:TrackPointExtension>
            <ns3:atemp>20.0</ns3:atemp>
          </ns3:TrackPointExtension>
        </extensions>
      </trkpt>
      <trkpt lat="42.563092410564422607421875" lon="20.044717602431774139404296875">
        <ele>2082.199951171875</ele>
        <time>2026-06-15T12:03:46.000Z</time>
        <extensions>
          <ns3:TrackPointExtension>
            <ns3:atemp>20.0</ns3:atemp>
          </ns3:TrackPointExtension>
        </extensions>
      </trkpt>
      <trkpt lat="42.563092410564422607421875" lon="20.044717602431774139404296875">
        <ele>2082.199951171875</ele>
        <time>2026-06-15T12:03:47.000Z</time>
        <extensions>
          <ns3:TrackPointExtension>
            <ns3:atemp>20.0</ns3:atemp>
          </ns3:TrackPointExtension>
        </extensions>
      </trkpt>
      <trkpt lat="42.563092410564422607421875" lon="20.044717602431774139404296875">
        <ele>2082.199951171875</ele>
        <time>2026-06-15T12:03:48.000Z</time>
        <extensions>
          <ns3:TrackPointExtension>
            <ns3:atemp>20.0</ns3:atemp>
          </ns3:TrackPointExtension>
        </extensions>
      </trkpt>
      <trkpt lat="42.563092410564422607421875" lon="20.044717602431774139404296875">
        <ele>2082.199951171875</ele>
        <time>2026-06-15T12:03:49.000Z</time>
        <extensions>
          <ns3:TrackPointExtension>
            <ns3:atemp>20.0</ns3:atemp>
          </ns3:TrackPointExtension>
        </extensions>
      </trkpt>
      <trkpt lat="42.563092410564422607421875" lon="20.044717602431774139404296875">
        <ele>2082.199951171875</ele>
        <time>2026-06-15T12:03:50.000Z</time>
        <extensions>
          <ns3:TrackPointExtension>
            <ns3:atemp>20.0</ns3:atemp>
          </ns3:TrackPointExtension>
        </extensions>
      </trkpt>
      <trkpt lat="42.563092410564422607421875" lon="20.044717602431774139404296875">
        <ele>2082.199951171875</ele>
        <time>2026-06-15T12:03:51.000Z</time>
        <extensions>
          <ns3:TrackPointExtension>
            <ns3:atemp>20.0</ns3:atemp>
          </ns3:TrackPointExtension>
        </extensions>
      </trkpt>
      <trkpt lat="42.563092410564422607421875" lon="20.044717602431774139404296875">
        <ele>2082.199951171875</ele>
        <time>2026-06-15T12:03:52.000Z</time>
        <extensions>
          <ns3:TrackPointExtension>
            <ns3:atemp>20.0</ns3:atemp>
          </ns3:TrackPointExtension>
        </extensions>
      </trkpt>
      <trkpt lat="42.563092410564422607421875" lon="20.044717602431774139404296875">
        <ele>2082.199951171875</ele>
        <time>2026-06-15T12:03:53.000Z</time>
        <extensions>
          <ns3:TrackPointExtension>
            <ns3:atemp>20.0</ns3:atemp>
          </ns3:TrackPointExtension>
        </extensions>
      </trkpt>
      <trkpt lat="42.563092410564422607421875" lon="20.044717602431774139404296875">
        <ele>2082.199951171875</ele>
        <time>2026-06-15T12:03:54.000Z</time>
        <extensions>
          <ns3:TrackPointExtension>
            <ns3:atemp>20.0</ns3:atemp>
          </ns3:TrackPointExtension>
        </extensions>
      </trkpt>
      <trkpt lat="42.563092410564422607421875" lon="20.044717602431774139404296875">
        <ele>2082.199951171875</ele>
        <time>2026-06-15T12:03:55.000Z</time>
        <extensions>
          <ns3:TrackPointExtension>
            <ns3:atemp>20.0</ns3:atemp>
          </ns3:TrackPointExtension>
        </extensions>
      </trkpt>
      <trkpt lat="42.563092410564422607421875" lon="20.044717602431774139404296875">
        <ele>2082.199951171875</ele>
        <time>2026-06-15T12:03:56.000Z</time>
        <extensions>
          <ns3:TrackPointExtension>
            <ns3:atemp>20.0</ns3:atemp>
          </ns3:TrackPointExtension>
        </extensions>
      </trkpt>
      <trkpt lat="42.563092410564422607421875" lon="20.044717602431774139404296875">
        <ele>2082.199951171875</ele>
        <time>2026-06-15T12:03:57.000Z</time>
        <extensions>
          <ns3:TrackPointExtension>
            <ns3:atemp>20.0</ns3:atemp>
          </ns3:TrackPointExtension>
        </extensions>
      </trkpt>
      <trkpt lat="42.563092410564422607421875" lon="20.044717602431774139404296875">
        <ele>2082.199951171875</ele>
        <time>2026-06-15T12:03:58.000Z</time>
        <extensions>
          <ns3:TrackPointExtension>
            <ns3:atemp>20.0</ns3:atemp>
          </ns3:TrackPointExtension>
        </extensions>
      </trkpt>
      <trkpt lat="42.563092410564422607421875" lon="20.044717602431774139404296875">
        <ele>2082.199951171875</ele>
        <time>2026-06-15T12:03:59.000Z</time>
        <extensions>
          <ns3:TrackPointExtension>
            <ns3:atemp>20.0</ns3:atemp>
          </ns3:TrackPointExtension>
        </extensions>
      </trkpt>
      <trkpt lat="42.563092410564422607421875" lon="20.044717602431774139404296875">
        <ele>2082.199951171875</ele>
        <time>2026-06-15T12:04:00.000Z</time>
        <extensions>
          <ns3:TrackPointExtension>
            <ns3:atemp>20.0</ns3:atemp>
          </ns3:TrackPointExtension>
        </extensions>
      </trkpt>
      <trkpt lat="42.563092410564422607421875" lon="20.044717602431774139404296875">
        <ele>2082.199951171875</ele>
        <time>2026-06-15T12:04:01.000Z</time>
        <extensions>
          <ns3:TrackPointExtension>
            <ns3:atemp>20.0</ns3:atemp>
          </ns3:TrackPointExtension>
        </extensions>
      </trkpt>
      <trkpt lat="42.563092410564422607421875" lon="20.044717602431774139404296875">
        <ele>2082.199951171875</ele>
        <time>2026-06-15T12:04:02.000Z</time>
        <extensions>
          <ns3:TrackPointExtension>
            <ns3:atemp>20.0</ns3:atemp>
          </ns3:TrackPointExtension>
        </extensions>
      </trkpt>
      <trkpt lat="42.563092410564422607421875" lon="20.044717602431774139404296875">
        <ele>2082.199951171875</ele>
        <time>2026-06-15T12:04:03.000Z</time>
        <extensions>
          <ns3:TrackPointExtension>
            <ns3:atemp>20.0</ns3:atemp>
          </ns3:TrackPointExtension>
        </extensions>
      </trkpt>
      <trkpt lat="42.563092410564422607421875" lon="20.044717602431774139404296875">
        <ele>2082.199951171875</ele>
        <time>2026-06-15T12:04:04.000Z</time>
        <extensions>
          <ns3:TrackPointExtension>
            <ns3:atemp>20.0</ns3:atemp>
          </ns3:TrackPointExtension>
        </extensions>
      </trkpt>
      <trkpt lat="42.563092410564422607421875" lon="20.044717602431774139404296875">
        <ele>2082.199951171875</ele>
        <time>2026-06-15T12:04:05.000Z</time>
        <extensions>
          <ns3:TrackPointExtension>
            <ns3:atemp>20.0</ns3:atemp>
          </ns3:TrackPointExtension>
        </extensions>
      </trkpt>
      <trkpt lat="42.563092410564422607421875" lon="20.044717602431774139404296875">
        <ele>2082.199951171875</ele>
        <time>2026-06-15T12:04:06.000Z</time>
        <extensions>
          <ns3:TrackPointExtension>
            <ns3:atemp>20.0</ns3:atemp>
          </ns3:TrackPointExtension>
        </extensions>
      </trkpt>
      <trkpt lat="42.563092410564422607421875" lon="20.044717602431774139404296875">
        <ele>2082.199951171875</ele>
        <time>2026-06-15T12:04:07.000Z</time>
        <extensions>
          <ns3:TrackPointExtension>
            <ns3:atemp>20.0</ns3:atemp>
          </ns3:TrackPointExtension>
        </extensions>
      </trkpt>
      <trkpt lat="42.563092410564422607421875" lon="20.044717602431774139404296875">
        <ele>2082.199951171875</ele>
        <time>2026-06-15T12:04:08.000Z</time>
        <extensions>
          <ns3:TrackPointExtension>
            <ns3:atemp>20.0</ns3:atemp>
          </ns3:TrackPointExtension>
        </extensions>
      </trkpt>
      <trkpt lat="42.563092410564422607421875" lon="20.044717602431774139404296875">
        <ele>2082.199951171875</ele>
        <time>2026-06-15T12:04:09.000Z</time>
        <extensions>
          <ns3:TrackPointExtension>
            <ns3:atemp>20.0</ns3:atemp>
          </ns3:TrackPointExtension>
        </extensions>
      </trkpt>
      <trkpt lat="42.563092410564422607421875" lon="20.044717602431774139404296875">
        <ele>2082.199951171875</ele>
        <time>2026-06-15T12:04:10.000Z</time>
        <extensions>
          <ns3:TrackPointExtension>
            <ns3:atemp>20.0</ns3:atemp>
          </ns3:TrackPointExtension>
        </extensions>
      </trkpt>
      <trkpt lat="42.563092410564422607421875" lon="20.044717602431774139404296875">
        <ele>2082.199951171875</ele>
        <time>2026-06-15T12:04:11.000Z</time>
        <extensions>
          <ns3:TrackPointExtension>
            <ns3:atemp>20.0</ns3:atemp>
          </ns3:TrackPointExtension>
        </extensions>
      </trkpt>
      <trkpt lat="42.563092410564422607421875" lon="20.044717602431774139404296875">
        <ele>2082.199951171875</ele>
        <time>2026-06-15T12:04:12.000Z</time>
        <extensions>
          <ns3:TrackPointExtension>
            <ns3:atemp>20.0</ns3:atemp>
          </ns3:TrackPointExtension>
        </extensions>
      </trkpt>
      <trkpt lat="42.563092410564422607421875" lon="20.044717602431774139404296875">
        <ele>2082.199951171875</ele>
        <time>2026-06-15T12:04:13.000Z</time>
        <extensions>
          <ns3:TrackPointExtension>
            <ns3:atemp>20.0</ns3:atemp>
          </ns3:TrackPointExtension>
        </extensions>
      </trkpt>
      <trkpt lat="42.563092410564422607421875" lon="20.044717602431774139404296875">
        <ele>2082.199951171875</ele>
        <time>2026-06-15T12:04:14.000Z</time>
        <extensions>
          <ns3:TrackPointExtension>
            <ns3:atemp>20.0</ns3:atemp>
          </ns3:TrackPointExtension>
        </extensions>
      </trkpt>
      <trkpt lat="42.563092410564422607421875" lon="20.044717602431774139404296875">
        <ele>2082.199951171875</ele>
        <time>2026-06-15T12:04:15.000Z</time>
        <extensions>
          <ns3:TrackPointExtension>
            <ns3:atemp>20.0</ns3:atemp>
          </ns3:TrackPointExtension>
        </extensions>
      </trkpt>
      <trkpt lat="42.563092410564422607421875" lon="20.044717602431774139404296875">
        <ele>2082.199951171875</ele>
        <time>2026-06-15T12:04:16.000Z</time>
        <extensions>
          <ns3:TrackPointExtension>
            <ns3:atemp>20.0</ns3:atemp>
          </ns3:TrackPointExtension>
        </extensions>
      </trkpt>
      <trkpt lat="42.563092410564422607421875" lon="20.044717602431774139404296875">
        <ele>2082.199951171875</ele>
        <time>2026-06-15T12:04:17.000Z</time>
        <extensions>
          <ns3:TrackPointExtension>
            <ns3:atemp>20.0</ns3:atemp>
          </ns3:TrackPointExtension>
        </extensions>
      </trkpt>
      <trkpt lat="42.563092410564422607421875" lon="20.044717602431774139404296875">
        <ele>2082.199951171875</ele>
        <time>2026-06-15T12:04:18.000Z</time>
        <extensions>
          <ns3:TrackPointExtension>
            <ns3:atemp>20.0</ns3:atemp>
          </ns3:TrackPointExtension>
        </extensions>
      </trkpt>
      <trkpt lat="42.563092410564422607421875" lon="20.044717602431774139404296875">
        <ele>2082.199951171875</ele>
        <time>2026-06-15T12:04:19.000Z</time>
        <extensions>
          <ns3:TrackPointExtension>
            <ns3:atemp>20.0</ns3:atemp>
          </ns3:TrackPointExtension>
        </extensions>
      </trkpt>
      <trkpt lat="42.563092410564422607421875" lon="20.044717602431774139404296875">
        <ele>2082.199951171875</ele>
        <time>2026-06-15T12:04:20.000Z</time>
        <extensions>
          <ns3:TrackPointExtension>
            <ns3:atemp>20.0</ns3:atemp>
          </ns3:TrackPointExtension>
        </extensions>
      </trkpt>
      <trkpt lat="42.563092410564422607421875" lon="20.044717602431774139404296875">
        <ele>2082.199951171875</ele>
        <time>2026-06-15T12:04:21.000Z</time>
        <extensions>
          <ns3:TrackPointExtension>
            <ns3:atemp>20.0</ns3:atemp>
          </ns3:TrackPointExtension>
        </extensions>
      </trkpt>
      <trkpt lat="42.563092410564422607421875" lon="20.044717602431774139404296875">
        <ele>2082.199951171875</ele>
        <time>2026-06-15T12:04:22.000Z</time>
        <extensions>
          <ns3:TrackPointExtension>
            <ns3:atemp>20.0</ns3:atemp>
          </ns3:TrackPointExtension>
        </extensions>
      </trkpt>
      <trkpt lat="42.563092410564422607421875" lon="20.044717602431774139404296875">
        <ele>2082.199951171875</ele>
        <time>2026-06-15T12:04:23.000Z</time>
        <extensions>
          <ns3:TrackPointExtension>
            <ns3:atemp>20.0</ns3:atemp>
          </ns3:TrackPointExtension>
        </extensions>
      </trkpt>
      <trkpt lat="42.563092410564422607421875" lon="20.044717602431774139404296875">
        <ele>2082.199951171875</ele>
        <time>2026-06-15T12:04:24.000Z</time>
        <extensions>
          <ns3:TrackPointExtension>
            <ns3:atemp>20.0</ns3:atemp>
          </ns3:TrackPointExtension>
        </extensions>
      </trkpt>
      <trkpt lat="42.563092410564422607421875" lon="20.044717602431774139404296875">
        <ele>2082.199951171875</ele>
        <time>2026-06-15T12:04:25.000Z</time>
        <extensions>
          <ns3:TrackPointExtension>
            <ns3:atemp>20.0</ns3:atemp>
          </ns3:TrackPointExtension>
        </extensions>
      </trkpt>
      <trkpt lat="42.563092410564422607421875" lon="20.044717602431774139404296875">
        <ele>2082.199951171875</ele>
        <time>2026-06-15T12:04:26.000Z</time>
        <extensions>
          <ns3:TrackPointExtension>
            <ns3:atemp>20.0</ns3:atemp>
          </ns3:TrackPointExtension>
        </extensions>
      </trkpt>
      <trkpt lat="42.563092410564422607421875" lon="20.044717602431774139404296875">
        <ele>2082.199951171875</ele>
        <time>2026-06-15T12:04:27.000Z</time>
        <extensions>
          <ns3:TrackPointExtension>
            <ns3:atemp>20.0</ns3:atemp>
          </ns3:TrackPointExtension>
        </extensions>
      </trkpt>
      <trkpt lat="42.563092410564422607421875" lon="20.044717602431774139404296875">
        <ele>2082.199951171875</ele>
        <time>2026-06-15T12:04:28.000Z</time>
        <extensions>
          <ns3:TrackPointExtension>
            <ns3:atemp>20.0</ns3:atemp>
          </ns3:TrackPointExtension>
        </extensions>
      </trkpt>
      <trkpt lat="42.563092410564422607421875" lon="20.044717602431774139404296875">
        <ele>2082.199951171875</ele>
        <time>2026-06-15T12:04:29.000Z</time>
        <extensions>
          <ns3:TrackPointExtension>
            <ns3:atemp>20.0</ns3:atemp>
          </ns3:TrackPointExtension>
        </extensions>
      </trkpt>
      <trkpt lat="42.563092410564422607421875" lon="20.044717602431774139404296875">
        <ele>2082.199951171875</ele>
        <time>2026-06-15T12:04:30.000Z</time>
        <extensions>
          <ns3:TrackPointExtension>
            <ns3:atemp>20.0</ns3:atemp>
          </ns3:TrackPointExtension>
        </extensions>
      </trkpt>
      <trkpt lat="42.563092410564422607421875" lon="20.044717602431774139404296875">
        <ele>2082.199951171875</ele>
        <time>2026-06-15T12:04:31.000Z</time>
        <extensions>
          <ns3:TrackPointExtension>
            <ns3:atemp>20.0</ns3:atemp>
          </ns3:TrackPointExtension>
        </extensions>
      </trkpt>
      <trkpt lat="42.563092410564422607421875" lon="20.044717602431774139404296875">
        <ele>2082.199951171875</ele>
        <time>2026-06-15T12:04:32.000Z</time>
        <extensions>
          <ns3:TrackPointExtension>
            <ns3:atemp>20.0</ns3:atemp>
          </ns3:TrackPointExtension>
        </extensions>
      </trkpt>
      <trkpt lat="42.563092410564422607421875" lon="20.044717602431774139404296875">
        <ele>2082.199951171875</ele>
        <time>2026-06-15T12:04:33.000Z</time>
        <extensions>
          <ns3:TrackPointExtension>
            <ns3:atemp>20.0</ns3:atemp>
          </ns3:TrackPointExtension>
        </extensions>
      </trkpt>
      <trkpt lat="42.563092410564422607421875" lon="20.044717602431774139404296875">
        <ele>2082.199951171875</ele>
        <time>2026-06-15T12:04:34.000Z</time>
        <extensions>
          <ns3:TrackPointExtension>
            <ns3:atemp>20.0</ns3:atemp>
          </ns3:TrackPointExtension>
        </extensions>
      </trkpt>
      <trkpt lat="42.563092410564422607421875" lon="20.044717602431774139404296875">
        <ele>2082.199951171875</ele>
        <time>2026-06-15T12:04:35.000Z</time>
        <extensions>
          <ns3:TrackPointExtension>
            <ns3:atemp>20.0</ns3:atemp>
          </ns3:TrackPointExtension>
        </extensions>
      </trkpt>
      <trkpt lat="42.563092410564422607421875" lon="20.044717602431774139404296875">
        <ele>2082.199951171875</ele>
        <time>2026-06-15T12:04:36.000Z</time>
        <extensions>
          <ns3:TrackPointExtension>
            <ns3:atemp>20.0</ns3:atemp>
          </ns3:TrackPointExtension>
        </extensions>
      </trkpt>
      <trkpt lat="42.563092410564422607421875" lon="20.044717602431774139404296875">
        <ele>2082.199951171875</ele>
        <time>2026-06-15T12:04:37.000Z</time>
        <extensions>
          <ns3:TrackPointExtension>
            <ns3:atemp>20.0</ns3:atemp>
          </ns3:TrackPointExtension>
        </extensions>
      </trkpt>
      <trkpt lat="42.563092410564422607421875" lon="20.044717602431774139404296875">
        <ele>2082.199951171875</ele>
        <time>2026-06-15T12:04:38.000Z</time>
        <extensions>
          <ns3:TrackPointExtension>
            <ns3:atemp>20.0</ns3:atemp>
          </ns3:TrackPointExtension>
        </extensions>
      </trkpt>
      <trkpt lat="42.563092410564422607421875" lon="20.044717602431774139404296875">
        <ele>2082.199951171875</ele>
        <time>2026-06-15T12:04:39.000Z</time>
        <extensions>
          <ns3:TrackPointExtension>
            <ns3:atemp>20.0</ns3:atemp>
          </ns3:TrackPointExtension>
        </extensions>
      </trkpt>
      <trkpt lat="42.563092410564422607421875" lon="20.044717602431774139404296875">
        <ele>2082.199951171875</ele>
        <time>2026-06-15T12:04:40.000Z</time>
        <extensions>
          <ns3:TrackPointExtension>
            <ns3:atemp>20.0</ns3:atemp>
          </ns3:TrackPointExtension>
        </extensions>
      </trkpt>
      <trkpt lat="42.563092410564422607421875" lon="20.044717602431774139404296875">
        <ele>2082.199951171875</ele>
        <time>2026-06-15T12:04:41.000Z</time>
        <extensions>
          <ns3:TrackPointExtension>
            <ns3:atemp>20.0</ns3:atemp>
          </ns3:TrackPointExtension>
        </extensions>
      </trkpt>
      <trkpt lat="42.563092410564422607421875" lon="20.044717602431774139404296875">
        <ele>2082.199951171875</ele>
        <time>2026-06-15T12:04:42.000Z</time>
        <extensions>
          <ns3:TrackPointExtension>
            <ns3:atemp>20.0</ns3:atemp>
          </ns3:TrackPointExtension>
        </extensions>
      </trkpt>
      <trkpt lat="42.563092410564422607421875" lon="20.044717602431774139404296875">
        <ele>2082.199951171875</ele>
        <time>2026-06-15T12:04:43.000Z</time>
        <extensions>
          <ns3:TrackPointExtension>
            <ns3:atemp>20.0</ns3:atemp>
          </ns3:TrackPointExtension>
        </extensions>
      </trkpt>
      <trkpt lat="42.563092410564422607421875" lon="20.044717602431774139404296875">
        <ele>2082.199951171875</ele>
        <time>2026-06-15T12:04:44.000Z</time>
        <extensions>
          <ns3:TrackPointExtension>
            <ns3:atemp>20.0</ns3:atemp>
          </ns3:TrackPointExtension>
        </extensions>
      </trkpt>
      <trkpt lat="42.563092410564422607421875" lon="20.044717602431774139404296875">
        <ele>2082.199951171875</ele>
        <time>2026-06-15T12:04:45.000Z</time>
        <extensions>
          <ns3:TrackPointExtension>
            <ns3:atemp>20.0</ns3:atemp>
          </ns3:TrackPointExtension>
        </extensions>
      </trkpt>
      <trkpt lat="42.563092410564422607421875" lon="20.044717602431774139404296875">
        <ele>2082.199951171875</ele>
        <time>2026-06-15T12:04:46.000Z</time>
        <extensions>
          <ns3:TrackPointExtension>
            <ns3:atemp>20.0</ns3:atemp>
          </ns3:TrackPointExtension>
        </extensions>
      </trkpt>
      <trkpt lat="42.563092410564422607421875" lon="20.044717602431774139404296875">
        <ele>2082.199951171875</ele>
        <time>2026-06-15T12:04:47.000Z</time>
        <extensions>
          <ns3:TrackPointExtension>
            <ns3:atemp>20.0</ns3:atemp>
          </ns3:TrackPointExtension>
        </extensions>
      </trkpt>
      <trkpt lat="42.563092410564422607421875" lon="20.044717602431774139404296875">
        <ele>2082.199951171875</ele>
        <time>2026-06-15T12:04:48.000Z</time>
        <extensions>
          <ns3:TrackPointExtension>
            <ns3:atemp>20.0</ns3:atemp>
          </ns3:TrackPointExtension>
        </extensions>
      </trkpt>
      <trkpt lat="42.563092410564422607421875" lon="20.044717602431774139404296875">
        <ele>2082.199951171875</ele>
        <time>2026-06-15T12:04:49.000Z</time>
        <extensions>
          <ns3:TrackPointExtension>
            <ns3:atemp>20.0</ns3:atemp>
          </ns3:TrackPointExtension>
        </extensions>
      </trkpt>
      <trkpt lat="42.563092410564422607421875" lon="20.044717602431774139404296875">
        <ele>2082.199951171875</ele>
        <time>2026-06-15T12:04:50.000Z</time>
        <extensions>
          <ns3:TrackPointExtension>
            <ns3:atemp>20.0</ns3:atemp>
          </ns3:TrackPointExtension>
        </extensions>
      </trkpt>
      <trkpt lat="42.563092410564422607421875" lon="20.044717602431774139404296875">
        <ele>2082.199951171875</ele>
        <time>2026-06-15T12:04:51.000Z</time>
        <extensions>
          <ns3:TrackPointExtension>
            <ns3:atemp>20.0</ns3:atemp>
          </ns3:TrackPointExtension>
        </extensions>
      </trkpt>
      <trkpt lat="42.563092410564422607421875" lon="20.044717602431774139404296875">
        <ele>2082.199951171875</ele>
        <time>2026-06-15T12:04:52.000Z</time>
        <extensions>
          <ns3:TrackPointExtension>
            <ns3:atemp>20.0</ns3:atemp>
          </ns3:TrackPointExtension>
        </extensions>
      </trkpt>
      <trkpt lat="42.563092410564422607421875" lon="20.044717602431774139404296875">
        <ele>2082.199951171875</ele>
        <time>2026-06-15T12:04:53.000Z</time>
        <extensions>
          <ns3:TrackPointExtension>
            <ns3:atemp>20.0</ns3:atemp>
          </ns3:TrackPointExtension>
        </extensions>
      </trkpt>
      <trkpt lat="42.563092410564422607421875" lon="20.044717602431774139404296875">
        <ele>2082.199951171875</ele>
        <time>2026-06-15T12:04:54.000Z</time>
        <extensions>
          <ns3:TrackPointExtension>
            <ns3:atemp>20.0</ns3:atemp>
          </ns3:TrackPointExtension>
        </extensions>
      </trkpt>
      <trkpt lat="42.563092410564422607421875" lon="20.044717602431774139404296875">
        <ele>2082.199951171875</ele>
        <time>2026-06-15T12:04:55.000Z</time>
        <extensions>
          <ns3:TrackPointExtension>
            <ns3:atemp>20.0</ns3:atemp>
          </ns3:TrackPointExtension>
        </extensions>
      </trkpt>
      <trkpt lat="42.563092410564422607421875" lon="20.044717602431774139404296875">
        <ele>2082.199951171875</ele>
        <time>2026-06-15T12:04:56.000Z</time>
        <extensions>
          <ns3:TrackPointExtension>
            <ns3:atemp>20.0</ns3:atemp>
          </ns3:TrackPointExtension>
        </extensions>
      </trkpt>
      <trkpt lat="42.563092410564422607421875" lon="20.044717602431774139404296875">
        <ele>2082.199951171875</ele>
        <time>2026-06-15T12:04:57.000Z</time>
        <extensions>
          <ns3:TrackPointExtension>
            <ns3:atemp>20.0</ns3:atemp>
          </ns3:TrackPointExtension>
        </extensions>
      </trkpt>
      <trkpt lat="42.563092410564422607421875" lon="20.044717602431774139404296875">
        <ele>2082.199951171875</ele>
        <time>2026-06-15T12:04:58.000Z</time>
        <extensions>
          <ns3:TrackPointExtension>
            <ns3:atemp>20.0</ns3:atemp>
          </ns3:TrackPointExtension>
        </extensions>
      </trkpt>
      <trkpt lat="42.563092410564422607421875" lon="20.044717602431774139404296875">
        <ele>2082.199951171875</ele>
        <time>2026-06-15T12:04:59.000Z</time>
        <extensions>
          <ns3:TrackPointExtension>
            <ns3:atemp>20.0</ns3:atemp>
          </ns3:TrackPointExtension>
        </extensions>
      </trkpt>
      <trkpt lat="42.563092410564422607421875" lon="20.044717602431774139404296875">
        <ele>2082.199951171875</ele>
        <time>2026-06-15T12:05:00.000Z</time>
        <extensions>
          <ns3:TrackPointExtension>
            <ns3:atemp>20.0</ns3:atemp>
          </ns3:TrackPointExtension>
        </extensions>
      </trkpt>
      <trkpt lat="42.563092410564422607421875" lon="20.044717602431774139404296875">
        <ele>2082.199951171875</ele>
        <time>2026-06-15T12:05:01.000Z</time>
        <extensions>
          <ns3:TrackPointExtension>
            <ns3:atemp>20.0</ns3:atemp>
          </ns3:TrackPointExtension>
        </extensions>
      </trkpt>
      <trkpt lat="42.563092410564422607421875" lon="20.044717602431774139404296875">
        <ele>2082.199951171875</ele>
        <time>2026-06-15T12:05:02.000Z</time>
        <extensions>
          <ns3:TrackPointExtension>
            <ns3:atemp>20.0</ns3:atemp>
          </ns3:TrackPointExtension>
        </extensions>
      </trkpt>
      <trkpt lat="42.563092410564422607421875" lon="20.044717602431774139404296875">
        <ele>2082.199951171875</ele>
        <time>2026-06-15T12:05:03.000Z</time>
        <extensions>
          <ns3:TrackPointExtension>
            <ns3:atemp>20.0</ns3:atemp>
          </ns3:TrackPointExtension>
        </extensions>
      </trkpt>
      <trkpt lat="42.563092410564422607421875" lon="20.044717602431774139404296875">
        <ele>2082.199951171875</ele>
        <time>2026-06-15T12:05:04.000Z</time>
        <extensions>
          <ns3:TrackPointExtension>
            <ns3:atemp>20.0</ns3:atemp>
          </ns3:TrackPointExtension>
        </extensions>
      </trkpt>
      <trkpt lat="42.563092410564422607421875" lon="20.044717602431774139404296875">
        <ele>2082.199951171875</ele>
        <time>2026-06-15T12:05:05.000Z</time>
        <extensions>
          <ns3:TrackPointExtension>
            <ns3:atemp>20.0</ns3:atemp>
          </ns3:TrackPointExtension>
        </extensions>
      </trkpt>
      <trkpt lat="42.563092410564422607421875" lon="20.044717602431774139404296875">
        <ele>2082.199951171875</ele>
        <time>2026-06-15T12:05:06.000Z</time>
        <extensions>
          <ns3:TrackPointExtension>
            <ns3:atemp>20.0</ns3:atemp>
          </ns3:TrackPointExtension>
        </extensions>
      </trkpt>
      <trkpt lat="42.563092410564422607421875" lon="20.044717602431774139404296875">
        <ele>2082.199951171875</ele>
        <time>2026-06-15T12:05:07.000Z</time>
        <extensions>
          <ns3:TrackPointExtension>
            <ns3:atemp>20.0</ns3:atemp>
          </ns3:TrackPointExtension>
        </extensions>
      </trkpt>
      <trkpt lat="42.563092410564422607421875" lon="20.044717602431774139404296875">
        <ele>2082.199951171875</ele>
        <time>2026-06-15T12:05:08.000Z</time>
        <extensions>
          <ns3:TrackPointExtension>
            <ns3:atemp>20.0</ns3:atemp>
          </ns3:TrackPointExtension>
        </extensions>
      </trkpt>
      <trkpt lat="42.563092410564422607421875" lon="20.044717602431774139404296875">
        <ele>2082.199951171875</ele>
        <time>2026-06-15T12:05:09.000Z</time>
        <extensions>
          <ns3:TrackPointExtension>
            <ns3:atemp>20.0</ns3:atemp>
          </ns3:TrackPointExtension>
        </extensions>
      </trkpt>
      <trkpt lat="42.563092410564422607421875" lon="20.044717602431774139404296875">
        <ele>2082.199951171875</ele>
        <time>2026-06-15T12:05:10.000Z</time>
        <extensions>
          <ns3:TrackPointExtension>
            <ns3:atemp>20.0</ns3:atemp>
          </ns3:TrackPointExtension>
        </extensions>
      </trkpt>
      <trkpt lat="42.563092410564422607421875" lon="20.044717602431774139404296875">
        <ele>2082.199951171875</ele>
        <time>2026-06-15T12:05:11.000Z</time>
        <extensions>
          <ns3:TrackPointExtension>
            <ns3:atemp>20.0</ns3:atemp>
          </ns3:TrackPointExtension>
        </extensions>
      </trkpt>
      <trkpt lat="42.563092410564422607421875" lon="20.044717602431774139404296875">
        <ele>2082.199951171875</ele>
        <time>2026-06-15T12:05:12.000Z</time>
        <extensions>
          <ns3:TrackPointExtension>
            <ns3:atemp>20.0</ns3:atemp>
          </ns3:TrackPointExtension>
        </extensions>
      </trkpt>
      <trkpt lat="42.563092410564422607421875" lon="20.044717602431774139404296875">
        <ele>2082.199951171875</ele>
        <time>2026-06-15T12:05:13.000Z</time>
        <extensions>
          <ns3:TrackPointExtension>
            <ns3:atemp>20.0</ns3:atemp>
          </ns3:TrackPointExtension>
        </extensions>
      </trkpt>
      <trkpt lat="42.563092410564422607421875" lon="20.044717602431774139404296875">
        <ele>2082.199951171875</ele>
        <time>2026-06-15T12:05:14.000Z</time>
        <extensions>
          <ns3:TrackPointExtension>
            <ns3:atemp>20.0</ns3:atemp>
          </ns3:TrackPointExtension>
        </extensions>
      </trkpt>
      <trkpt lat="42.563092410564422607421875" lon="20.044717602431774139404296875">
        <ele>2082.199951171875</ele>
        <time>2026-06-15T12:05:15.000Z</time>
        <extensions>
          <ns3:TrackPointExtension>
            <ns3:atemp>20.0</ns3:atemp>
          </ns3:TrackPointExtension>
        </extensions>
      </trkpt>
      <trkpt lat="42.563092410564422607421875" lon="20.044717602431774139404296875">
        <ele>2082.199951171875</ele>
        <time>2026-06-15T12:05:16.000Z</time>
        <extensions>
          <ns3:TrackPointExtension>
            <ns3:atemp>20.0</ns3:atemp>
          </ns3:TrackPointExtension>
        </extensions>
      </trkpt>
      <trkpt lat="42.563092410564422607421875" lon="20.044717602431774139404296875">
        <ele>2082.199951171875</ele>
        <time>2026-06-15T12:05:17.000Z</time>
        <extensions>
          <ns3:TrackPointExtension>
            <ns3:atemp>20.0</ns3:atemp>
          </ns3:TrackPointExtension>
        </extensions>
      </trkpt>
      <trkpt lat="42.563092410564422607421875" lon="20.044717602431774139404296875">
        <ele>2082.199951171875</ele>
        <time>2026-06-15T12:05:18.000Z</time>
        <extensions>
          <ns3:TrackPointExtension>
            <ns3:atemp>20.0</ns3:atemp>
          </ns3:TrackPointExtension>
        </extensions>
      </trkpt>
      <trkpt lat="42.563092410564422607421875" lon="20.044717602431774139404296875">
        <ele>2082.199951171875</ele>
        <time>2026-06-15T12:05:19.000Z</time>
        <extensions>
          <ns3:TrackPointExtension>
            <ns3:atemp>20.0</ns3:atemp>
          </ns3:TrackPointExtension>
        </extensions>
      </trkpt>
      <trkpt lat="42.563092410564422607421875" lon="20.044717602431774139404296875">
        <ele>2082.199951171875</ele>
        <time>2026-06-15T12:05:20.000Z</time>
        <extensions>
          <ns3:TrackPointExtension>
            <ns3:atemp>20.0</ns3:atemp>
          </ns3:TrackPointExtension>
        </extensions>
      </trkpt>
      <trkpt lat="42.563092410564422607421875" lon="20.044717602431774139404296875">
        <ele>2082.199951171875</ele>
        <time>2026-06-15T12:05:21.000Z</time>
        <extensions>
          <ns3:TrackPointExtension>
            <ns3:atemp>20.0</ns3:atemp>
          </ns3:TrackPointExtension>
        </extensions>
      </trkpt>
      <trkpt lat="42.563092410564422607421875" lon="20.044717602431774139404296875">
        <ele>2082.199951171875</ele>
        <time>2026-06-15T12:05:22.000Z</time>
        <extensions>
          <ns3:TrackPointExtension>
            <ns3:atemp>20.0</ns3:atemp>
          </ns3:TrackPointExtension>
        </extensions>
      </trkpt>
      <trkpt lat="42.563092410564422607421875" lon="20.044717602431774139404296875">
        <ele>2082.199951171875</ele>
        <time>2026-06-15T12:05:23.000Z</time>
        <extensions>
          <ns3:TrackPointExtension>
            <ns3:atemp>20.0</ns3:atemp>
          </ns3:TrackPointExtension>
        </extensions>
      </trkpt>
      <trkpt lat="42.563092410564422607421875" lon="20.044717602431774139404296875">
        <ele>2082.199951171875</ele>
        <time>2026-06-15T12:05:24.000Z</time>
        <extensions>
          <ns3:TrackPointExtension>
            <ns3:atemp>20.0</ns3:atemp>
          </ns3:TrackPointExtension>
        </extensions>
      </trkpt>
      <trkpt lat="42.563092410564422607421875" lon="20.044717602431774139404296875">
        <ele>2082.199951171875</ele>
        <time>2026-06-15T12:05:25.000Z</time>
        <extensions>
          <ns3:TrackPointExtension>
            <ns3:atemp>20.0</ns3:atemp>
          </ns3:TrackPointExtension>
        </extensions>
      </trkpt>
      <trkpt lat="42.563092410564422607421875" lon="20.044717602431774139404296875">
        <ele>2082.199951171875</ele>
        <time>2026-06-15T12:05:26.000Z</time>
        <extensions>
          <ns3:TrackPointExtension>
            <ns3:atemp>20.0</ns3:atemp>
          </ns3:TrackPointExtension>
        </extensions>
      </trkpt>
      <trkpt lat="42.563092410564422607421875" lon="20.044717602431774139404296875">
        <ele>2082.199951171875</ele>
        <time>2026-06-15T12:05:27.000Z</time>
        <extensions>
          <ns3:TrackPointExtension>
            <ns3:atemp>20.0</ns3:atemp>
          </ns3:TrackPointExtension>
        </extensions>
      </trkpt>
      <trkpt lat="42.563092410564422607421875" lon="20.044717602431774139404296875">
        <ele>2082.199951171875</ele>
        <time>2026-06-15T12:05:28.000Z</time>
        <extensions>
          <ns3:TrackPointExtension>
            <ns3:atemp>20.0</ns3:atemp>
          </ns3:TrackPointExtension>
        </extensions>
      </trkpt>
      <trkpt lat="42.563092410564422607421875" lon="20.044717602431774139404296875">
        <ele>2082.199951171875</ele>
        <time>2026-06-15T12:05:29.000Z</time>
        <extensions>
          <ns3:TrackPointExtension>
            <ns3:atemp>20.0</ns3:atemp>
          </ns3:TrackPointExtension>
        </extensions>
      </trkpt>
      <trkpt lat="42.563092410564422607421875" lon="20.044717602431774139404296875">
        <ele>2082.199951171875</ele>
        <time>2026-06-15T12:05:30.000Z</time>
        <extensions>
          <ns3:TrackPointExtension>
            <ns3:atemp>20.0</ns3:atemp>
          </ns3:TrackPointExtension>
        </extensions>
      </trkpt>
      <trkpt lat="42.563092410564422607421875" lon="20.044717602431774139404296875">
        <ele>2082.199951171875</ele>
        <time>2026-06-15T12:05:31.000Z</time>
        <extensions>
          <ns3:TrackPointExtension>
            <ns3:atemp>20.0</ns3:atemp>
          </ns3:TrackPointExtension>
        </extensions>
      </trkpt>
      <trkpt lat="42.563092410564422607421875" lon="20.044717602431774139404296875">
        <ele>2082.199951171875</ele>
        <time>2026-06-15T12:05:32.000Z</time>
        <extensions>
          <ns3:TrackPointExtension>
            <ns3:atemp>20.0</ns3:atemp>
          </ns3:TrackPointExtension>
        </extensions>
      </trkpt>
      <trkpt lat="42.563092410564422607421875" lon="20.044717602431774139404296875">
        <ele>2082.199951171875</ele>
        <time>2026-06-15T12:05:33.000Z</time>
        <extensions>
          <ns3:TrackPointExtension>
            <ns3:atemp>20.0</ns3:atemp>
          </ns3:TrackPointExtension>
        </extensions>
      </trkpt>
      <trkpt lat="42.563092410564422607421875" lon="20.044717602431774139404296875">
        <ele>2082.199951171875</ele>
        <time>2026-06-15T12:05:34.000Z</time>
        <extensions>
          <ns3:TrackPointExtension>
            <ns3:atemp>20.0</ns3:atemp>
          </ns3:TrackPointExtension>
        </extensions>
      </trkpt>
      <trkpt lat="42.563092410564422607421875" lon="20.044717602431774139404296875">
        <ele>2082.199951171875</ele>
        <time>2026-06-15T12:05:35.000Z</time>
        <extensions>
          <ns3:TrackPointExtension>
            <ns3:atemp>20.0</ns3:atemp>
          </ns3:TrackPointExtension>
        </extensions>
      </trkpt>
      <trkpt lat="42.563092410564422607421875" lon="20.044717602431774139404296875">
        <ele>2082.199951171875</ele>
        <time>2026-06-15T12:05:36.000Z</time>
        <extensions>
          <ns3:TrackPointExtension>
            <ns3:atemp>20.0</ns3:atemp>
          </ns3:TrackPointExtension>
        </extensions>
      </trkpt>
      <trkpt lat="42.563092410564422607421875" lon="20.044717602431774139404296875">
        <ele>2082.199951171875</ele>
        <time>2026-06-15T12:05:37.000Z</time>
        <extensions>
          <ns3:TrackPointExtension>
            <ns3:atemp>20.0</ns3:atemp>
          </ns3:TrackPointExtension>
        </extensions>
      </trkpt>
      <trkpt lat="42.563092410564422607421875" lon="20.044717602431774139404296875">
        <ele>2082.199951171875</ele>
        <time>2026-06-15T12:05:38.000Z</time>
        <extensions>
          <ns3:TrackPointExtension>
            <ns3:atemp>20.0</ns3:atemp>
          </ns3:TrackPointExtension>
        </extensions>
      </trkpt>
      <trkpt lat="42.563092410564422607421875" lon="20.044717602431774139404296875">
        <ele>2082.199951171875</ele>
        <time>2026-06-15T12:05:39.000Z</time>
        <extensions>
          <ns3:TrackPointExtension>
            <ns3:atemp>20.0</ns3:atemp>
          </ns3:TrackPointExtension>
        </extensions>
      </trkpt>
      <trkpt lat="42.563092410564422607421875" lon="20.044717602431774139404296875">
        <ele>2082.199951171875</ele>
        <time>2026-06-15T12:05:40.000Z</time>
        <extensions>
          <ns3:TrackPointExtension>
            <ns3:atemp>20.0</ns3:atemp>
          </ns3:TrackPointExtension>
        </extensions>
      </trkpt>
      <trkpt lat="42.563092410564422607421875" lon="20.044717602431774139404296875">
        <ele>2082.199951171875</ele>
        <time>2026-06-15T12:05:41.000Z</time>
        <extensions>
          <ns3:TrackPointExtension>
            <ns3:atemp>20.0</ns3:atemp>
          </ns3:TrackPointExtension>
        </extensions>
      </trkpt>
      <trkpt lat="42.563092410564422607421875" lon="20.044717602431774139404296875">
        <ele>2082.199951171875</ele>
        <time>2026-06-15T12:05:42.000Z</time>
        <extensions>
          <ns3:TrackPointExtension>
            <ns3:atemp>20.0</ns3:atemp>
          </ns3:TrackPointExtension>
        </extensions>
      </trkpt>
      <trkpt lat="42.563092410564422607421875" lon="20.044717602431774139404296875">
        <ele>2082.199951171875</ele>
        <time>2026-06-15T12:05:43.000Z</time>
        <extensions>
          <ns3:TrackPointExtension>
            <ns3:atemp>20.0</ns3:atemp>
          </ns3:TrackPointExtension>
        </extensions>
      </trkpt>
      <trkpt lat="42.563092410564422607421875" lon="20.044717602431774139404296875">
        <ele>2082.199951171875</ele>
        <time>2026-06-15T12:05:44.000Z</time>
        <extensions>
          <ns3:TrackPointExtension>
            <ns3:atemp>20.0</ns3:atemp>
          </ns3:TrackPointExtension>
        </extensions>
      </trkpt>
      <trkpt lat="42.563092410564422607421875" lon="20.044717602431774139404296875">
        <ele>2082.199951171875</ele>
        <time>2026-06-15T12:05:45.000Z</time>
        <extensions>
          <ns3:TrackPointExtension>
            <ns3:atemp>20.0</ns3:atemp>
          </ns3:TrackPointExtension>
        </extensions>
      </trkpt>
      <trkpt lat="42.563092410564422607421875" lon="20.044717602431774139404296875">
        <ele>2082.199951171875</ele>
        <time>2026-06-15T12:05:46.000Z</time>
        <extensions>
          <ns3:TrackPointExtension>
            <ns3:atemp>20.0</ns3:atemp>
          </ns3:TrackPointExtension>
        </extensions>
      </trkpt>
      <trkpt lat="42.563092410564422607421875" lon="20.044717602431774139404296875">
        <ele>2082.199951171875</ele>
        <time>2026-06-15T12:05:47.000Z</time>
        <extensions>
          <ns3:TrackPointExtension>
            <ns3:atemp>20.0</ns3:atemp>
          </ns3:TrackPointExtension>
        </extensions>
      </trkpt>
      <trkpt lat="42.563092410564422607421875" lon="20.044717602431774139404296875">
        <ele>2082.199951171875</ele>
        <time>2026-06-15T12:05:48.000Z</time>
        <extensions>
          <ns3:TrackPointExtension>
            <ns3:atemp>20.0</ns3:atemp>
          </ns3:TrackPointExtension>
        </extensions>
      </trkpt>
      <trkpt lat="42.563092410564422607421875" lon="20.044717602431774139404296875">
        <ele>2082.199951171875</ele>
        <time>2026-06-15T12:05:49.000Z</time>
        <extensions>
          <ns3:TrackPointExtension>
            <ns3:atemp>20.0</ns3:atemp>
          </ns3:TrackPointExtension>
        </extensions>
      </trkpt>
      <trkpt lat="42.563092410564422607421875" lon="20.044717602431774139404296875">
        <ele>2082.199951171875</ele>
        <time>2026-06-15T12:05:50.000Z</time>
        <extensions>
          <ns3:TrackPointExtension>
            <ns3:atemp>20.0</ns3:atemp>
          </ns3:TrackPointExtension>
        </extensions>
      </trkpt>
      <trkpt lat="42.563092410564422607421875" lon="20.044717602431774139404296875">
        <ele>2082.199951171875</ele>
        <time>2026-06-15T12:05:51.000Z</time>
        <extensions>
          <ns3:TrackPointExtension>
            <ns3:atemp>20.0</ns3:atemp>
          </ns3:TrackPointExtension>
        </extensions>
      </trkpt>
      <trkpt lat="42.563092410564422607421875" lon="20.044717602431774139404296875">
        <ele>2082.199951171875</ele>
        <time>2026-06-15T12:05:52.000Z</time>
        <extensions>
          <ns3:TrackPointExtension>
            <ns3:atemp>20.0</ns3:atemp>
          </ns3:TrackPointExtension>
        </extensions>
      </trkpt>
      <trkpt lat="42.563092410564422607421875" lon="20.044717602431774139404296875">
        <ele>2082.199951171875</ele>
        <time>2026-06-15T12:05:53.000Z</time>
        <extensions>
          <ns3:TrackPointExtension>
            <ns3:atemp>20.0</ns3:atemp>
          </ns3:TrackPointExtension>
        </extensions>
      </trkpt>
      <trkpt lat="42.563092410564422607421875" lon="20.044717602431774139404296875">
        <ele>2082.199951171875</ele>
        <time>2026-06-15T12:05:54.000Z</time>
        <extensions>
          <ns3:TrackPointExtension>
            <ns3:atemp>20.0</ns3:atemp>
          </ns3:TrackPointExtension>
        </extensions>
      </trkpt>
      <trkpt lat="42.563092410564422607421875" lon="20.044717602431774139404296875">
        <ele>2082.199951171875</ele>
        <time>2026-06-15T12:05:55.000Z</time>
        <extensions>
          <ns3:TrackPointExtension>
            <ns3:atemp>20.0</ns3:atemp>
          </ns3:TrackPointExtension>
        </extensions>
      </trkpt>
      <trkpt lat="42.563092410564422607421875" lon="20.044717602431774139404296875">
        <ele>2082.199951171875</ele>
        <time>2026-06-15T12:05:56.000Z</time>
        <extensions>
          <ns3:TrackPointExtension>
            <ns3:atemp>20.0</ns3:atemp>
          </ns3:TrackPointExtension>
        </extensions>
      </trkpt>
      <trkpt lat="42.563092410564422607421875" lon="20.044717602431774139404296875">
        <ele>2082.199951171875</ele>
        <time>2026-06-15T12:05:57.000Z</time>
        <extensions>
          <ns3:TrackPointExtension>
            <ns3:atemp>20.0</ns3:atemp>
          </ns3:TrackPointExtension>
        </extensions>
      </trkpt>
      <trkpt lat="42.563092410564422607421875" lon="20.044717602431774139404296875">
        <ele>2082.199951171875</ele>
        <time>2026-06-15T12:05:58.000Z</time>
        <extensions>
          <ns3:TrackPointExtension>
            <ns3:atemp>20.0</ns3:atemp>
          </ns3:TrackPointExtension>
        </extensions>
      </trkpt>
      <trkpt lat="42.563092410564422607421875" lon="20.044717602431774139404296875">
        <ele>2082.199951171875</ele>
        <time>2026-06-15T12:05:59.000Z</time>
        <extensions>
          <ns3:TrackPointExtension>
            <ns3:atemp>20.0</ns3:atemp>
          </ns3:TrackPointExtension>
        </extensions>
      </trkpt>
      <trkpt lat="42.563092410564422607421875" lon="20.044717602431774139404296875">
        <ele>2082.199951171875</ele>
        <time>2026-06-15T12:06:00.000Z</time>
        <extensions>
          <ns3:TrackPointExtension>
            <ns3:atemp>20.0</ns3:atemp>
          </ns3:TrackPointExtension>
        </extensions>
      </trkpt>
      <trkpt lat="42.563092410564422607421875" lon="20.044717602431774139404296875">
        <ele>2082.199951171875</ele>
        <time>2026-06-15T12:06:01.000Z</time>
        <extensions>
          <ns3:TrackPointExtension>
            <ns3:atemp>20.0</ns3:atemp>
          </ns3:TrackPointExtension>
        </extensions>
      </trkpt>
      <trkpt lat="42.563092410564422607421875" lon="20.044717602431774139404296875">
        <ele>2082.199951171875</ele>
        <time>2026-06-15T12:06:02.000Z</time>
        <extensions>
          <ns3:TrackPointExtension>
            <ns3:atemp>20.0</ns3:atemp>
          </ns3:TrackPointExtension>
        </extensions>
      </trkpt>
      <trkpt lat="42.563092410564422607421875" lon="20.044717602431774139404296875">
        <ele>2082.199951171875</ele>
        <time>2026-06-15T12:06:03.000Z</time>
        <extensions>
          <ns3:TrackPointExtension>
            <ns3:atemp>20.0</ns3:atemp>
          </ns3:TrackPointExtension>
        </extensions>
      </trkpt>
      <trkpt lat="42.563092410564422607421875" lon="20.044717602431774139404296875">
        <ele>2082.199951171875</ele>
        <time>2026-06-15T12:06:04.000Z</time>
        <extensions>
          <ns3:TrackPointExtension>
            <ns3:atemp>20.0</ns3:atemp>
          </ns3:TrackPointExtension>
        </extensions>
      </trkpt>
      <trkpt lat="42.563092410564422607421875" lon="20.044717602431774139404296875">
        <ele>2082.199951171875</ele>
        <time>2026-06-15T12:06:05.000Z</time>
        <extensions>
          <ns3:TrackPointExtension>
            <ns3:atemp>20.0</ns3:atemp>
          </ns3:TrackPointExtension>
        </extensions>
      </trkpt>
      <trkpt lat="42.563092410564422607421875" lon="20.044717602431774139404296875">
        <ele>2082.199951171875</ele>
        <time>2026-06-15T12:06:06.000Z</time>
        <extensions>
          <ns3:TrackPointExtension>
            <ns3:atemp>20.0</ns3:atemp>
          </ns3:TrackPointExtension>
        </extensions>
      </trkpt>
      <trkpt lat="42.563092410564422607421875" lon="20.044717602431774139404296875">
        <ele>2082.199951171875</ele>
        <time>2026-06-15T12:06:07.000Z</time>
        <extensions>
          <ns3:TrackPointExtension>
            <ns3:atemp>20.0</ns3:atemp>
          </ns3:TrackPointExtension>
        </extensions>
      </trkpt>
      <trkpt lat="42.563092410564422607421875" lon="20.044717602431774139404296875">
        <ele>2082.199951171875</ele>
        <time>2026-06-15T12:06:08.000Z</time>
        <extensions>
          <ns3:TrackPointExtension>
            <ns3:atemp>20.0</ns3:atemp>
          </ns3:TrackPointExtension>
        </extensions>
      </trkpt>
      <trkpt lat="42.5630939193069934844970703125" lon="20.044709555804729461669921875">
        <ele>2082.199951171875</ele>
        <time>2026-06-15T12:06:09.000Z</time>
        <extensions>
          <ns3:TrackPointExtension>
            <ns3:atemp>20.0</ns3:atemp>
          </ns3:TrackPointExtension>
        </extensions>
      </trkpt>
      <trkpt lat="42.56308830343186855316162109375" lon="20.04470611922442913055419921875">
        <ele>2082.199951171875</ele>
        <time>2026-06-15T12:06:10.000Z</time>
        <extensions>
          <ns3:TrackPointExtension>
            <ns3:atemp>20.0</ns3:atemp>
          </ns3:TrackPointExtension>
        </extensions>
      </trkpt>
      <trkpt lat="42.563092410564422607421875" lon="20.044717602431774139404296875">
        <ele>2082.199951171875</ele>
        <time>2026-06-15T12:06:11.000Z</time>
        <extensions>
          <ns3:TrackPointExtension>
            <ns3:atemp>20.0</ns3:atemp>
          </ns3:TrackPointExtension>
        </extensions>
      </trkpt>
      <trkpt lat="42.563092410564422607421875" lon="20.044717602431774139404296875">
        <ele>2082.199951171875</ele>
        <time>2026-06-15T12:06:12.000Z</time>
        <extensions>
          <ns3:TrackPointExtension>
            <ns3:atemp>20.0</ns3:atemp>
          </ns3:TrackPointExtension>
        </extensions>
      </trkpt>
      <trkpt lat="42.563092410564422607421875" lon="20.044717602431774139404296875">
        <ele>2082.199951171875</ele>
        <time>2026-06-15T12:06:13.000Z</time>
        <extensions>
          <ns3:TrackPointExtension>
            <ns3:atemp>20.0</ns3:atemp>
          </ns3:TrackPointExtension>
        </extensions>
      </trkpt>
      <trkpt lat="42.563092410564422607421875" lon="20.044717602431774139404296875">
        <ele>2082.199951171875</ele>
        <time>2026-06-15T12:06:14.000Z</time>
        <extensions>
          <ns3:TrackPointExtension>
            <ns3:atemp>20.0</ns3:atemp>
          </ns3:TrackPointExtension>
        </extensions>
      </trkpt>
      <trkpt lat="42.563092410564422607421875" lon="20.044717602431774139404296875">
        <ele>2082.199951171875</ele>
        <time>2026-06-15T12:06:15.000Z</time>
        <extensions>
          <ns3:TrackPointExtension>
            <ns3:atemp>20.0</ns3:atemp>
          </ns3:TrackPointExtension>
        </extensions>
      </trkpt>
      <trkpt lat="42.563092410564422607421875" lon="20.044717602431774139404296875">
        <ele>2082.199951171875</ele>
        <time>2026-06-15T12:06:16.000Z</time>
        <extensions>
          <ns3:TrackPointExtension>
            <ns3:atemp>20.0</ns3:atemp>
          </ns3:TrackPointExtension>
        </extensions>
      </trkpt>
      <trkpt lat="42.563092410564422607421875" lon="20.044717602431774139404296875">
        <ele>2082.199951171875</ele>
        <time>2026-06-15T12:06:17.000Z</time>
        <extensions>
          <ns3:TrackPointExtension>
            <ns3:atemp>20.0</ns3:atemp>
          </ns3:TrackPointExtension>
        </extensions>
      </trkpt>
      <trkpt lat="42.563092410564422607421875" lon="20.044717602431774139404296875">
        <ele>2082.199951171875</ele>
        <time>2026-06-15T12:06:18.000Z</time>
        <extensions>
          <ns3:TrackPointExtension>
            <ns3:atemp>20.0</ns3:atemp>
          </ns3:TrackPointExtension>
        </extensions>
      </trkpt>
      <trkpt lat="42.563092410564422607421875" lon="20.044717602431774139404296875">
        <ele>2082.199951171875</ele>
        <time>2026-06-15T12:06:19.000Z</time>
        <extensions>
          <ns3:TrackPointExtension>
            <ns3:atemp>20.0</ns3:atemp>
          </ns3:TrackPointExtension>
        </extensions>
      </trkpt>
      <trkpt lat="42.563092410564422607421875" lon="20.044717602431774139404296875">
        <ele>2082.199951171875</ele>
        <time>2026-06-15T12:06:20.000Z</time>
        <extensions>
          <ns3:TrackPointExtension>
            <ns3:atemp>20.0</ns3:atemp>
          </ns3:TrackPointExtension>
        </extensions>
      </trkpt>
      <trkpt lat="42.563092410564422607421875" lon="20.044717602431774139404296875">
        <ele>2082.199951171875</ele>
        <time>2026-06-15T12:06:21.000Z</time>
        <extensions>
          <ns3:TrackPointExtension>
            <ns3:atemp>20.0</ns3:atemp>
          </ns3:TrackPointExtension>
        </extensions>
      </trkpt>
      <trkpt lat="42.563092410564422607421875" lon="20.044717602431774139404296875">
        <ele>2082.199951171875</ele>
        <time>2026-06-15T12:06:22.000Z</time>
        <extensions>
          <ns3:TrackPointExtension>
            <ns3:atemp>20.0</ns3:atemp>
          </ns3:TrackPointExtension>
        </extensions>
      </trkpt>
      <trkpt lat="42.563092410564422607421875" lon="20.044717602431774139404296875">
        <ele>2082.199951171875</ele>
        <time>2026-06-15T12:06:23.000Z</time>
        <extensions>
          <ns3:TrackPointExtension>
            <ns3:atemp>20.0</ns3:atemp>
          </ns3:TrackPointExtension>
        </extensions>
      </trkpt>
      <trkpt lat="42.563092410564422607421875" lon="20.044717602431774139404296875">
        <ele>2082.199951171875</ele>
        <time>2026-06-15T12:06:24.000Z</time>
        <extensions>
          <ns3:TrackPointExtension>
            <ns3:atemp>20.0</ns3:atemp>
          </ns3:TrackPointExtension>
        </extensions>
      </trkpt>
      <trkpt lat="42.563092410564422607421875" lon="20.044717602431774139404296875">
        <ele>2082.199951171875</ele>
        <time>2026-06-15T12:06:25.000Z</time>
        <extensions>
          <ns3:TrackPointExtension>
            <ns3:atemp>20.0</ns3:atemp>
          </ns3:TrackPointExtension>
        </extensions>
      </trkpt>
      <trkpt lat="42.563092410564422607421875" lon="20.044717602431774139404296875">
        <ele>2082.199951171875</ele>
        <time>2026-06-15T12:06:26.000Z</time>
        <extensions>
          <ns3:TrackPointExtension>
            <ns3:atemp>20.0</ns3:atemp>
          </ns3:TrackPointExtension>
        </extensions>
      </trkpt>
      <trkpt lat="42.563092410564422607421875" lon="20.044717602431774139404296875">
        <ele>2082.199951171875</ele>
        <time>2026-06-15T12:06:27.000Z</time>
        <extensions>
          <ns3:TrackPointExtension>
            <ns3:atemp>20.0</ns3:atemp>
          </ns3:TrackPointExtension>
        </extensions>
      </trkpt>
      <trkpt lat="42.563092410564422607421875" lon="20.044717602431774139404296875">
        <ele>2082.199951171875</ele>
        <time>2026-06-15T12:06:28.000Z</time>
        <extensions>
          <ns3:TrackPointExtension>
            <ns3:atemp>20.0</ns3:atemp>
          </ns3:TrackPointExtension>
        </extensions>
      </trkpt>
      <trkpt lat="42.563092410564422607421875" lon="20.044717602431774139404296875">
        <ele>2082.199951171875</ele>
        <time>2026-06-15T12:06:29.000Z</time>
        <extensions>
          <ns3:TrackPointExtension>
            <ns3:atemp>20.0</ns3:atemp>
          </ns3:TrackPointExtension>
        </extensions>
      </trkpt>
      <trkpt lat="42.563092410564422607421875" lon="20.044717602431774139404296875">
        <ele>2082.199951171875</ele>
        <time>2026-06-15T12:06:30.000Z</time>
        <extensions>
          <ns3:TrackPointExtension>
            <ns3:atemp>20.0</ns3:atemp>
          </ns3:TrackPointExtension>
        </extensions>
      </trkpt>
      <trkpt lat="42.563092410564422607421875" lon="20.044717602431774139404296875">
        <ele>2082.199951171875</ele>
        <time>2026-06-15T12:06:31.000Z</time>
        <extensions>
          <ns3:TrackPointExtension>
            <ns3:atemp>20.0</ns3:atemp>
          </ns3:TrackPointExtension>
        </extensions>
      </trkpt>
      <trkpt lat="42.563092410564422607421875" lon="20.044717602431774139404296875">
        <ele>2082.199951171875</ele>
        <time>2026-06-15T12:06:32.000Z</time>
        <extensions>
          <ns3:TrackPointExtension>
            <ns3:atemp>20.0</ns3:atemp>
          </ns3:TrackPointExtension>
        </extensions>
      </trkpt>
      <trkpt lat="42.563092410564422607421875" lon="20.044717602431774139404296875">
        <ele>2082.199951171875</ele>
        <time>2026-06-15T12:06:33.000Z</time>
        <extensions>
          <ns3:TrackPointExtension>
            <ns3:atemp>20.0</ns3:atemp>
          </ns3:TrackPointExtension>
        </extensions>
      </trkpt>
      <trkpt lat="42.563092410564422607421875" lon="20.044717602431774139404296875">
        <ele>2082.199951171875</ele>
        <time>2026-06-15T12:06:34.000Z</time>
        <extensions>
          <ns3:TrackPointExtension>
            <ns3:atemp>20.0</ns3:atemp>
          </ns3:TrackPointExtension>
        </extensions>
      </trkpt>
      <trkpt lat="42.563092410564422607421875" lon="20.044717602431774139404296875">
        <ele>2082.199951171875</ele>
        <time>2026-06-15T12:06:35.000Z</time>
        <extensions>
          <ns3:TrackPointExtension>
            <ns3:atemp>20.0</ns3:atemp>
          </ns3:TrackPointExtension>
        </extensions>
      </trkpt>
      <trkpt lat="42.563092410564422607421875" lon="20.044717602431774139404296875">
        <ele>2082.199951171875</ele>
        <time>2026-06-15T12:06:36.000Z</time>
        <extensions>
          <ns3:TrackPointExtension>
            <ns3:atemp>20.0</ns3:atemp>
          </ns3:TrackPointExtension>
        </extensions>
      </trkpt>
      <trkpt lat="42.563092410564422607421875" lon="20.044717602431774139404296875">
        <ele>2082.199951171875</ele>
        <time>2026-06-15T12:06:37.000Z</time>
        <extensions>
          <ns3:TrackPointExtension>
            <ns3:atemp>20.0</ns3:atemp>
          </ns3:TrackPointExtension>
        </extensions>
      </trkpt>
      <trkpt lat="42.563092410564422607421875" lon="20.044717602431774139404296875">
        <ele>2082.199951171875</ele>
        <time>2026-06-15T12:06:38.000Z</time>
        <extensions>
          <ns3:TrackPointExtension>
            <ns3:atemp>20.0</ns3:atemp>
          </ns3:TrackPointExtension>
        </extensions>
      </trkpt>
      <trkpt lat="42.563092410564422607421875" lon="20.044717602431774139404296875">
        <ele>2082.199951171875</ele>
        <time>2026-06-15T12:06:39.000Z</time>
        <extensions>
          <ns3:TrackPointExtension>
            <ns3:atemp>20.0</ns3:atemp>
          </ns3:TrackPointExtension>
        </extensions>
      </trkpt>
      <trkpt lat="42.563092410564422607421875" lon="20.044717602431774139404296875">
        <ele>2082.199951171875</ele>
        <time>2026-06-15T12:06:40.000Z</time>
        <extensions>
          <ns3:TrackPointExtension>
            <ns3:atemp>20.0</ns3:atemp>
          </ns3:TrackPointExtension>
        </extensions>
      </trkpt>
      <trkpt lat="42.563092410564422607421875" lon="20.044717602431774139404296875">
        <ele>2082.199951171875</ele>
        <time>2026-06-15T12:06:41.000Z</time>
        <extensions>
          <ns3:TrackPointExtension>
            <ns3:atemp>20.0</ns3:atemp>
          </ns3:TrackPointExtension>
        </extensions>
      </trkpt>
      <trkpt lat="42.563092410564422607421875" lon="20.044717602431774139404296875">
        <ele>2082.199951171875</ele>
        <time>2026-06-15T12:06:42.000Z</time>
        <extensions>
          <ns3:TrackPointExtension>
            <ns3:atemp>20.0</ns3:atemp>
          </ns3:TrackPointExtension>
        </extensions>
      </trkpt>
      <trkpt lat="42.563092410564422607421875" lon="20.044717602431774139404296875">
        <ele>2082.199951171875</ele>
        <time>2026-06-15T12:06:43.000Z</time>
        <extensions>
          <ns3:TrackPointExtension>
            <ns3:atemp>20.0</ns3:atemp>
          </ns3:TrackPointExtension>
        </extensions>
      </trkpt>
      <trkpt lat="42.563092410564422607421875" lon="20.044717602431774139404296875">
        <ele>2082.199951171875</ele>
        <time>2026-06-15T12:06:44.000Z</time>
        <extensions>
          <ns3:TrackPointExtension>
            <ns3:atemp>20.0</ns3:atemp>
          </ns3:TrackPointExtension>
        </extensions>
      </trkpt>
      <trkpt lat="42.563092410564422607421875" lon="20.044717602431774139404296875">
        <ele>2082.199951171875</ele>
        <time>2026-06-15T12:06:45.000Z</time>
        <extensions>
          <ns3:TrackPointExtension>
            <ns3:atemp>20.0</ns3:atemp>
          </ns3:TrackPointExtension>
        </extensions>
      </trkpt>
      <trkpt lat="42.563092410564422607421875" lon="20.044717602431774139404296875">
        <ele>2082.199951171875</ele>
        <time>2026-06-15T12:06:46.000Z</time>
        <extensions>
          <ns3:TrackPointExtension>
            <ns3:atemp>20.0</ns3:atemp>
          </ns3:TrackPointExtension>
        </extensions>
      </trkpt>
      <trkpt lat="42.563092410564422607421875" lon="20.044717602431774139404296875">
        <ele>2082.199951171875</ele>
        <time>2026-06-15T12:06:47.000Z</time>
        <extensions>
          <ns3:TrackPointExtension>
            <ns3:atemp>20.0</ns3:atemp>
          </ns3:TrackPointExtension>
        </extensions>
      </trkpt>
      <trkpt lat="42.563092410564422607421875" lon="20.044717602431774139404296875">
        <ele>2082.199951171875</ele>
        <time>2026-06-15T12:06:48.000Z</time>
        <extensions>
          <ns3:TrackPointExtension>
            <ns3:atemp>20.0</ns3:atemp>
          </ns3:TrackPointExtension>
        </extensions>
      </trkpt>
      <trkpt lat="42.563092410564422607421875" lon="20.044717602431774139404296875">
        <ele>2082.199951171875</ele>
        <time>2026-06-15T12:06:49.000Z</time>
        <extensions>
          <ns3:TrackPointExtension>
            <ns3:atemp>20.0</ns3:atemp>
          </ns3:TrackPointExtension>
        </extensions>
      </trkpt>
      <trkpt lat="42.563092410564422607421875" lon="20.044717602431774139404296875">
        <ele>2082.199951171875</ele>
        <time>2026-06-15T12:06:50.000Z</time>
        <extensions>
          <ns3:TrackPointExtension>
            <ns3:atemp>20.0</ns3:atemp>
          </ns3:TrackPointExtension>
        </extensions>
      </trkpt>
      <trkpt lat="42.563092410564422607421875" lon="20.044717602431774139404296875">
        <ele>2082.199951171875</ele>
        <time>2026-06-15T12:06:51.000Z</time>
        <extensions>
          <ns3:TrackPointExtension>
            <ns3:atemp>20.0</ns3:atemp>
          </ns3:TrackPointExtension>
        </extensions>
      </trkpt>
      <trkpt lat="42.563092410564422607421875" lon="20.044717602431774139404296875">
        <ele>2082.199951171875</ele>
        <time>2026-06-15T12:06:52.000Z</time>
        <extensions>
          <ns3:TrackPointExtension>
            <ns3:atemp>20.0</ns3:atemp>
          </ns3:TrackPointExtension>
        </extensions>
      </trkpt>
      <trkpt lat="42.563092410564422607421875" lon="20.044717602431774139404296875">
        <ele>2082.199951171875</ele>
        <time>2026-06-15T12:06:53.000Z</time>
        <extensions>
          <ns3:TrackPointExtension>
            <ns3:atemp>20.0</ns3:atemp>
          </ns3:TrackPointExtension>
        </extensions>
      </trkpt>
      <trkpt lat="42.563092410564422607421875" lon="20.044717602431774139404296875">
        <ele>2082.199951171875</ele>
        <time>2026-06-15T12:06:54.000Z</time>
        <extensions>
          <ns3:TrackPointExtension>
            <ns3:atemp>20.0</ns3:atemp>
          </ns3:TrackPointExtension>
        </extensions>
      </trkpt>
      <trkpt lat="42.563092410564422607421875" lon="20.044717602431774139404296875">
        <ele>2082.199951171875</ele>
        <time>2026-06-15T12:06:55.000Z</time>
        <extensions>
          <ns3:TrackPointExtension>
            <ns3:atemp>20.0</ns3:atemp>
          </ns3:TrackPointExtension>
        </extensions>
      </trkpt>
      <trkpt lat="42.563092410564422607421875" lon="20.044717602431774139404296875">
        <ele>2082.199951171875</ele>
        <time>2026-06-15T12:06:56.000Z</time>
        <extensions>
          <ns3:TrackPointExtension>
            <ns3:atemp>20.0</ns3:atemp>
          </ns3:TrackPointExtension>
        </extensions>
      </trkpt>
      <trkpt lat="42.563092410564422607421875" lon="20.044717602431774139404296875">
        <ele>2082.199951171875</ele>
        <time>2026-06-15T12:06:57.000Z</time>
        <extensions>
          <ns3:TrackPointExtension>
            <ns3:atemp>20.0</ns3:atemp>
          </ns3:TrackPointExtension>
        </extensions>
      </trkpt>
      <trkpt lat="42.563092410564422607421875" lon="20.044717602431774139404296875">
        <ele>2082.199951171875</ele>
        <time>2026-06-15T12:06:58.000Z</time>
        <extensions>
          <ns3:TrackPointExtension>
            <ns3:atemp>20.0</ns3:atemp>
          </ns3:TrackPointExtension>
        </extensions>
      </trkpt>
      <trkpt lat="42.563092410564422607421875" lon="20.044717602431774139404296875">
        <ele>2082.199951171875</ele>
        <time>2026-06-15T12:06:59.000Z</time>
        <extensions>
          <ns3:TrackPointExtension>
            <ns3:atemp>20.0</ns3:atemp>
          </ns3:TrackPointExtension>
        </extensions>
      </trkpt>
      <trkpt lat="42.563092410564422607421875" lon="20.044717602431774139404296875">
        <ele>2082.199951171875</ele>
        <time>2026-06-15T12:07:00.000Z</time>
        <extensions>
          <ns3:TrackPointExtension>
            <ns3:atemp>20.0</ns3:atemp>
          </ns3:TrackPointExtension>
        </extensions>
      </trkpt>
      <trkpt lat="42.563092410564422607421875" lon="20.044717602431774139404296875">
        <ele>2082.199951171875</ele>
        <time>2026-06-15T12:07:01.000Z</time>
        <extensions>
          <ns3:TrackPointExtension>
            <ns3:atemp>20.0</ns3:atemp>
          </ns3:TrackPointExtension>
        </extensions>
      </trkpt>
      <trkpt lat="42.563092410564422607421875" lon="20.044717602431774139404296875">
        <ele>2082.199951171875</ele>
        <time>2026-06-15T12:07:02.000Z</time>
        <extensions>
          <ns3:TrackPointExtension>
            <ns3:atemp>20.0</ns3:atemp>
          </ns3:TrackPointExtension>
        </extensions>
      </trkpt>
      <trkpt lat="42.563092410564422607421875" lon="20.044717602431774139404296875">
        <ele>2082.199951171875</ele>
        <time>2026-06-15T12:07:03.000Z</time>
        <extensions>
          <ns3:TrackPointExtension>
            <ns3:atemp>20.0</ns3:atemp>
          </ns3:TrackPointExtension>
        </extensions>
      </trkpt>
      <trkpt lat="42.563092410564422607421875" lon="20.044717602431774139404296875">
        <ele>2082.199951171875</ele>
        <time>2026-06-15T12:07:04.000Z</time>
        <extensions>
          <ns3:TrackPointExtension>
            <ns3:atemp>20.0</ns3:atemp>
          </ns3:TrackPointExtension>
        </extensions>
      </trkpt>
      <trkpt lat="42.563092410564422607421875" lon="20.044717602431774139404296875">
        <ele>2079.39990234375</ele>
        <time>2026-06-15T12:07:05.000Z</time>
        <extensions>
          <ns3:TrackPointExtension>
            <ns3:atemp>20.0</ns3:atemp>
          </ns3:TrackPointExtension>
        </extensions>
      </trkpt>
      <trkpt lat="42.5630872137844562530517578125" lon="20.044706873595714569091796875">
        <ele>2079.39990234375</ele>
        <time>2026-06-15T12:07:06.000Z</time>
        <extensions>
          <ns3:TrackPointExtension>
            <ns3:atemp>20.0</ns3:atemp>
          </ns3:TrackPointExtension>
        </extensions>
      </trkpt>
      <trkpt lat="42.56307891570031642913818359375" lon="20.04473528824746608734130859375">
        <ele>2079.199951171875</ele>
        <time>2026-06-15T12:07:07.000Z</time>
        <extensions>
          <ns3:TrackPointExtension>
            <ns3:atemp>20.0</ns3:atemp>
          </ns3:TrackPointExtension>
        </extensions>
      </trkpt>
      <trkpt lat="42.56307321600615978240966796875" lon="20.04474869929254055023193359375">
        <ele>2079.199951171875</ele>
        <time>2026-06-15T12:07:08.000Z</time>
        <extensions>
          <ns3:TrackPointExtension>
            <ns3:atemp>20.0</ns3:atemp>
          </ns3:TrackPointExtension>
        </extensions>
      </trkpt>
      <trkpt lat="42.56307204253971576690673828125" lon="20.0447626970708370208740234375">
        <ele>2079.199951171875</ele>
        <time>2026-06-15T12:07:09.000Z</time>
        <extensions>
          <ns3:TrackPointExtension>
            <ns3:atemp>20.0</ns3:atemp>
          </ns3:TrackPointExtension>
        </extensions>
      </trkpt>
      <trkpt lat="42.56306223571300506591796875" lon="20.04477786831557750701904296875">
        <ele>2079.199951171875</ele>
        <time>2026-06-15T12:07:10.000Z</time>
        <extensions>
          <ns3:TrackPointExtension>
            <ns3:atemp>20.0</ns3:atemp>
          </ns3:TrackPointExtension>
        </extensions>
      </trkpt>
      <trkpt lat="42.5630523450672626495361328125" lon="20.044787339866161346435546875">
        <ele>2079.199951171875</ele>
        <time>2026-06-15T12:07:11.000Z</time>
        <extensions>
          <ns3:TrackPointExtension>
            <ns3:atemp>20.0</ns3:atemp>
          </ns3:TrackPointExtension>
        </extensions>
      </trkpt>
      <trkpt lat="42.5630442984402179718017578125" lon="20.044796057045459747314453125">
        <ele>2079.199951171875</ele>
        <time>2026-06-15T12:07:12.000Z</time>
        <extensions>
          <ns3:TrackPointExtension>
            <ns3:atemp>20.0</ns3:atemp>
          </ns3:TrackPointExtension>
        </extensions>
      </trkpt>
      <trkpt lat="42.5630345754325389862060546875" lon="20.0448072887957096099853515625">
        <ele>2079.199951171875</ele>
        <time>2026-06-15T12:07:13.000Z</time>
        <extensions>
          <ns3:TrackPointExtension>
            <ns3:atemp>20.0</ns3:atemp>
          </ns3:TrackPointExtension>
        </extensions>
      </trkpt>
      <trkpt lat="42.5630318932235240936279296875" lon="20.0448227114975452423095703125">
        <ele>2079.199951171875</ele>
        <time>2026-06-15T12:07:14.000Z</time>
        <extensions>
          <ns3:TrackPointExtension>
            <ns3:atemp>20.0</ns3:atemp>
          </ns3:TrackPointExtension>
        </extensions>
      </trkpt>
      <trkpt lat="42.56303767673671245574951171875" lon="20.04483888857066631317138671875">
        <ele>2079.199951171875</ele>
        <time>2026-06-15T12:07:15.000Z</time>
        <extensions>
          <ns3:TrackPointExtension>
            <ns3:atemp>20.0</ns3:atemp>
          </ns3:TrackPointExtension>
        </extensions>
      </trkpt>
      <trkpt lat="42.56305175833404064178466796875" lon="20.04484609700739383697509765625">
        <ele>2079.199951171875</ele>
        <time>2026-06-15T12:07:16.000Z</time>
        <extensions>
          <ns3:TrackPointExtension>
            <ns3:atemp>20.0</ns3:atemp>
          </ns3:TrackPointExtension>
        </extensions>
      </trkpt>
      <trkpt lat="42.56306433118879795074462890625" lon="20.04485062323510646820068359375">
        <ele>2079.39990234375</ele>
        <time>2026-06-15T12:07:17.000Z</time>
        <extensions>
          <ns3:TrackPointExtension>
            <ns3:atemp>20.0</ns3:atemp>
          </ns3:TrackPointExtension>
        </extensions>
      </trkpt>
      <trkpt lat="42.56307355128228664398193359375" lon="20.04484727047383785247802734375">
        <ele>2079.39990234375</ele>
        <time>2026-06-15T12:07:18.000Z</time>
        <extensions>
          <ns3:TrackPointExtension>
            <ns3:atemp>20.0</ns3:atemp>
          </ns3:TrackPointExtension>
        </extensions>
      </trkpt>
      <trkpt lat="42.56308411248028278350830078125" lon="20.044840313494205474853515625">
        <ele>2079.39990234375</ele>
        <time>2026-06-15T12:07:19.000Z</time>
        <extensions>
          <ns3:TrackPointExtension>
            <ns3:atemp>20.0</ns3:atemp>
          </ns3:TrackPointExtension>
        </extensions>
      </trkpt>
      <trkpt lat="42.56309182383120059967041015625" lon="20.04482933320105075836181640625">
        <ele>2079.39990234375</ele>
        <time>2026-06-15T12:07:20.000Z</time>
        <extensions>
          <ns3:TrackPointExtension>
            <ns3:atemp>20.0</ns3:atemp>
          </ns3:TrackPointExtension>
        </extensions>
      </trkpt>
      <trkpt lat="42.56309567950665950775146484375" lon="20.04481944255530834197998046875">
        <ele>2079.39990234375</ele>
        <time>2026-06-15T12:07:21.000Z</time>
        <extensions>
          <ns3:TrackPointExtension>
            <ns3:atemp>20.0</ns3:atemp>
          </ns3:TrackPointExtension>
        </extensions>
      </trkpt>
      <trkpt lat="42.5630976073443889617919921875" lon="20.04481424577534198760986328125">
        <ele>2079.60009765625</ele>
        <time>2026-06-15T12:07:22.000Z</time>
        <extensions>
          <ns3:TrackPointExtension>
            <ns3:atemp>20.0</ns3:atemp>
          </ns3:TrackPointExtension>
        </extensions>
      </trkpt>
      <trkpt lat="42.56309735588729381561279296875" lon="20.04480938427150249481201171875">
        <ele>2079.60009765625</ele>
        <time>2026-06-15T12:07:23.000Z</time>
        <extensions>
          <ns3:TrackPointExtension>
            <ns3:atemp>20.0</ns3:atemp>
          </ns3:TrackPointExtension>
        </extensions>
      </trkpt>
      <trkpt lat="42.56308847106993198394775390625" lon="20.04480284638702869415283203125">
        <ele>2079.800048828125</ele>
        <time>2026-06-15T12:07:24.000Z</time>
        <extensions>
          <ns3:TrackPointExtension>
            <ns3:atemp>20.0</ns3:atemp>
          </ns3:TrackPointExtension>
        </extensions>
      </trkpt>
      <trkpt lat="42.56307120434939861297607421875" lon="20.0447932071983814239501953125">
        <ele>2080</ele>
        <time>2026-06-15T12:07:25.000Z</time>
        <extensions>
          <ns3:TrackPointExtension>
            <ns3:atemp>20.0</ns3:atemp>
          </ns3:TrackPointExtension>
        </extensions>
      </trkpt>
      <trkpt lat="42.56305594928562641143798828125" lon="20.04479412920773029327392578125">
        <ele>2080.199951171875</ele>
        <time>2026-06-15T12:07:26.000Z</time>
        <extensions>
          <ns3:TrackPointExtension>
            <ns3:atemp>20.0</ns3:atemp>
          </ns3:TrackPointExtension>
        </extensions>
      </trkpt>
      <trkpt lat="42.56304656155407428741455078125" lon="20.04479832015931606292724609375">
        <ele>2080.39990234375</ele>
        <time>2026-06-15T12:07:27.000Z</time>
        <extensions>
          <ns3:TrackPointExtension>
            <ns3:atemp>20.0</ns3:atemp>
          </ns3:TrackPointExtension>
        </extensions>
      </trkpt>
      <trkpt lat="42.56304614245891571044921875" lon="20.0447965599596500396728515625">
        <ele>2080.39990234375</ele>
        <time>2026-06-15T12:07:28.000Z</time>
        <extensions>
          <ns3:TrackPointExtension>
            <ns3:atemp>20.0</ns3:atemp>
          </ns3:TrackPointExtension>
        </extensions>
      </trkpt>
      <trkpt lat="42.56304471753537654876708984375" lon="20.04479228518903255462646484375">
        <ele>2080.60009765625</ele>
        <time>2026-06-15T12:07:29.000Z</time>
        <extensions>
          <ns3:TrackPointExtension>
            <ns3:atemp>20.0</ns3:atemp>
          </ns3:TrackPointExtension>
        </extensions>
      </trkpt>
      <trkpt lat="42.56304480135440826416015625" lon="20.04480041563510894775390625">
        <ele>2080.60009765625</ele>
        <time>2026-06-15T12:07:30.000Z</time>
        <extensions>
          <ns3:TrackPointExtension>
            <ns3:atemp>20.0</ns3:atemp>
          </ns3:TrackPointExtension>
        </extensions>
      </trkpt>
      <trkpt lat="42.56303918547928333282470703125" lon="20.04481114447116851806640625">
        <ele>2080.60009765625</ele>
        <time>2026-06-15T12:07:31.000Z</time>
        <extensions>
          <ns3:TrackPointExtension>
            <ns3:atemp>20.0</ns3:atemp>
          </ns3:TrackPointExtension>
        </extensions>
      </trkpt>
      <trkpt lat="42.5630374252796173095703125" lon="20.04482547752559185028076171875">
        <ele>2080.39990234375</ele>
        <time>2026-06-15T12:07:32.000Z</time>
        <extensions>
          <ns3:TrackPointExtension>
            <ns3:atemp>20.0</ns3:atemp>
          </ns3:TrackPointExtension>
        </extensions>
      </trkpt>
      <trkpt lat="42.5630382634699344635009765625" lon="20.04484693519771099090576171875">
        <ele>2080.199951171875</ele>
        <time>2026-06-15T12:07:33.000Z</time>
        <extensions>
          <ns3:TrackPointExtension>
            <ns3:atemp>20.0</ns3:atemp>
          </ns3:TrackPointExtension>
        </extensions>
      </trkpt>
      <trkpt lat="42.56303541362285614013671875" lon="20.04486101679503917694091796875">
        <ele>2080</ele>
        <time>2026-06-15T12:07:34.000Z</time>
        <extensions>
          <ns3:TrackPointExtension>
            <ns3:atemp>20.0</ns3:atemp>
          </ns3:TrackPointExtension>
        </extensions>
      </trkpt>
      <trkpt lat="42.56303315050899982452392578125" lon="20.044871158897876739501953125">
        <ele>2079.800048828125</ele>
        <time>2026-06-15T12:07:35.000Z</time>
        <extensions>
          <ns3:TrackPointExtension>
            <ns3:atemp>20.0</ns3:atemp>
          </ns3:TrackPointExtension>
        </extensions>
      </trkpt>
      <trkpt lat="42.563029713928699493408203125" lon="20.0448842346668243408203125">
        <ele>2079.800048828125</ele>
        <time>2026-06-15T12:07:36.000Z</time>
        <extensions>
          <ns3:TrackPointExtension>
            <ns3:atemp>20.0</ns3:atemp>
          </ns3:TrackPointExtension>
        </extensions>
      </trkpt>
      <trkpt lat="42.56303214468061923980712890625" lon="20.04489789716899394989013671875">
        <ele>2079.800048828125</ele>
        <time>2026-06-15T12:07:37.000Z</time>
        <extensions>
          <ns3:TrackPointExtension>
            <ns3:atemp>20.0</ns3:atemp>
          </ns3:TrackPointExtension>
        </extensions>
      </trkpt>
      <trkpt lat="42.5630339048802852630615234375" lon="20.04491399042308330535888671875">
        <ele>2079.800048828125</ele>
        <time>2026-06-15T12:07:38.000Z</time>
        <extensions>
          <ns3:TrackPointExtension>
            <ns3:atemp>19.0</ns3:atemp>
          </ns3:TrackPointExtension>
        </extensions>
      </trkpt>
      <trkpt lat="42.5630342401564121246337890625" lon="20.04492807202041149139404296875">
        <ele>2080</ele>
        <time>2026-06-15T12:07:39.000Z</time>
        <extensions>
          <ns3:TrackPointExtension>
            <ns3:atemp>19.0</ns3:atemp>
          </ns3:TrackPointExtension>
        </extensions>
      </trkpt>
      <trkpt lat="42.5630345754325389862060546875" lon="20.044941566884517669677734375">
        <ele>2080</ele>
        <time>2026-06-15T12:07:40.000Z</time>
        <extensions>
          <ns3:TrackPointExtension>
            <ns3:atemp>20.0</ns3:atemp>
          </ns3:TrackPointExtension>
        </extensions>
      </trkpt>
      <trkpt lat="42.56303482688963413238525390625" lon="20.0449548102915287017822265625">
        <ele>2080.199951171875</ele>
        <time>2026-06-15T12:07:41.000Z</time>
        <extensions>
          <ns3:TrackPointExtension>
            <ns3:atemp>20.0</ns3:atemp>
          </ns3:TrackPointExtension>
        </extensions>
      </trkpt>
      <trkpt lat="42.56303675472736358642578125" lon="20.04496964626014232635498046875">
        <ele>2080.39990234375</ele>
        <time>2026-06-15T12:07:42.000Z</time>
        <extensions>
          <ns3:TrackPointExtension>
            <ns3:atemp>20.0</ns3:atemp>
          </ns3:TrackPointExtension>
        </extensions>
      </trkpt>
      <trkpt lat="42.5630422867834568023681640625" lon="20.04498104564845561981201171875">
        <ele>2080.39990234375</ele>
        <time>2026-06-15T12:07:43.000Z</time>
        <extensions>
          <ns3:TrackPointExtension>
            <ns3:atemp>20.0</ns3:atemp>
          </ns3:TrackPointExtension>
        </extensions>
      </trkpt>
      <trkpt lat="42.56304019130766391754150390625" lon="20.044987499713897705078125">
        <ele>2080.60009765625</ele>
        <time>2026-06-15T12:07:44.000Z</time>
        <extensions>
          <ns3:TrackPointExtension>
            <ns3:atemp>20.0</ns3:atemp>
          </ns3:TrackPointExtension>
        </extensions>
      </trkpt>
      <trkpt lat="42.5630392692983150482177734375" lon="20.0449933670461177825927734375">
        <ele>2080.800048828125</ele>
        <time>2026-06-15T12:07:45.000Z</time>
        <extensions>
          <ns3:TrackPointExtension>
            <ns3:atemp>20.0</ns3:atemp>
          </ns3:TrackPointExtension>
        </extensions>
      </trkpt>
      <trkpt lat="42.5630419515073299407958984375" lon="20.04499864764511585235595703125">
        <ele>2081</ele>
        <time>2026-06-15T12:07:46.000Z</time>
        <extensions>
          <ns3:TrackPointExtension>
            <ns3:atemp>19.0</ns3:atemp>
          </ns3:TrackPointExtension>
        </extensions>
      </trkpt>
      <trkpt lat="42.5630419515073299407958984375" lon="20.04499864764511585235595703125">
        <ele>2081.39990234375</ele>
        <time>2026-06-15T12:07:47.000Z</time>
        <extensions>
          <ns3:TrackPointExtension>
            <ns3:atemp>20.0</ns3:atemp>
          </ns3:TrackPointExtension>
        </extensions>
      </trkpt>
      <trkpt lat="42.5630419515073299407958984375" lon="20.04499864764511585235595703125">
        <ele>2081.800048828125</ele>
        <time>2026-06-15T12:07:48.000Z</time>
        <extensions>
          <ns3:TrackPointExtension>
            <ns3:atemp>20.0</ns3:atemp>
          </ns3:TrackPointExtension>
        </extensions>
      </trkpt>
      <trkpt lat="42.5630419515073299407958984375" lon="20.04499864764511585235595703125">
        <ele>2082</ele>
        <time>2026-06-15T12:07:49.000Z</time>
        <extensions>
          <ns3:TrackPointExtension>
            <ns3:atemp>19.0</ns3:atemp>
          </ns3:TrackPointExtension>
        </extensions>
      </trkpt>
      <trkpt lat="42.5630419515073299407958984375" lon="20.04499864764511585235595703125">
        <ele>2082.39990234375</ele>
        <time>2026-06-15T12:07:50.000Z</time>
        <extensions>
          <ns3:TrackPointExtension>
            <ns3:atemp>20.0</ns3:atemp>
          </ns3:TrackPointExtension>
        </extensions>
      </trkpt>
      <trkpt lat="42.5630419515073299407958984375" lon="20.04499864764511585235595703125">
        <ele>2082.39990234375</ele>
        <time>2026-06-15T12:07:51.000Z</time>
        <extensions>
          <ns3:TrackPointExtension>
            <ns3:atemp>20.0</ns3:atemp>
          </ns3:TrackPointExtension>
        </extensions>
      </trkpt>
      <trkpt lat="42.5630419515073299407958984375" lon="20.04499864764511585235595703125">
        <ele>2082.199951171875</ele>
        <time>2026-06-15T12:07:52.000Z</time>
        <extensions>
          <ns3:TrackPointExtension>
            <ns3:atemp>19.0</ns3:atemp>
          </ns3:TrackPointExtension>
        </extensions>
      </trkpt>
      <trkpt lat="42.5630419515073299407958984375" lon="20.04499864764511585235595703125">
        <ele>2082</ele>
        <time>2026-06-15T12:07:53.000Z</time>
        <extensions>
          <ns3:TrackPointExtension>
            <ns3:atemp>19.0</ns3:atemp>
          </ns3:TrackPointExtension>
        </extensions>
      </trkpt>
      <trkpt lat="42.5630419515073299407958984375" lon="20.04499864764511585235595703125">
        <ele>2081.800048828125</ele>
        <time>2026-06-15T12:07:54.000Z</time>
        <extensions>
          <ns3:TrackPointExtension>
            <ns3:atemp>19.0</ns3:atemp>
          </ns3:TrackPointExtension>
        </extensions>
      </trkpt>
      <trkpt lat="42.5630419515073299407958984375" lon="20.04499864764511585235595703125">
        <ele>2081.60009765625</ele>
        <time>2026-06-15T12:07:55.000Z</time>
        <extensions>
          <ns3:TrackPointExtension>
            <ns3:atemp>20.0</ns3:atemp>
          </ns3:TrackPointExtension>
        </extensions>
      </trkpt>
      <trkpt lat="42.5630419515073299407958984375" lon="20.04499864764511585235595703125">
        <ele>2081.39990234375</ele>
        <time>2026-06-15T12:07:56.000Z</time>
        <extensions>
          <ns3:TrackPointExtension>
            <ns3:atemp>19.0</ns3:atemp>
          </ns3:TrackPointExtension>
        </extensions>
      </trkpt>
      <trkpt lat="42.5630419515073299407958984375" lon="20.04499864764511585235595703125">
        <ele>2081.60009765625</ele>
        <time>2026-06-15T12:07:57.000Z</time>
        <extensions>
          <ns3:TrackPointExtension>
            <ns3:atemp>19.0</ns3:atemp>
          </ns3:TrackPointExtension>
        </extensions>
      </trkpt>
      <trkpt lat="42.5630419515073299407958984375" lon="20.04499864764511585235595703125">
        <ele>2081.800048828125</ele>
        <time>2026-06-15T12:07:58.000Z</time>
        <extensions>
          <ns3:TrackPointExtension>
            <ns3:atemp>19.0</ns3:atemp>
          </ns3:TrackPointExtension>
        </extensions>
      </trkpt>
      <trkpt lat="42.5630419515073299407958984375" lon="20.04499864764511585235595703125">
        <ele>2082</ele>
        <time>2026-06-15T12:07:59.000Z</time>
        <extensions>
          <ns3:TrackPointExtension>
            <ns3:atemp>19.0</ns3:atemp>
          </ns3:TrackPointExtension>
        </extensions>
      </trkpt>
      <trkpt lat="42.5630419515073299407958984375" lon="20.04499864764511585235595703125">
        <ele>2082.39990234375</ele>
        <time>2026-06-15T12:08:00.000Z</time>
        <extensions>
          <ns3:TrackPointExtension>
            <ns3:atemp>19.0</ns3:atemp>
          </ns3:TrackPointExtension>
        </extensions>
      </trkpt>
      <trkpt lat="42.5630419515073299407958984375" lon="20.04499864764511585235595703125">
        <ele>2082.60009765625</ele>
        <time>2026-06-15T12:08:01.000Z</time>
        <extensions>
          <ns3:TrackPointExtension>
            <ns3:atemp>19.0</ns3:atemp>
          </ns3:TrackPointExtension>
        </extensions>
      </trkpt>
      <trkpt lat="42.5630419515073299407958984375" lon="20.04499864764511585235595703125">
        <ele>2082.60009765625</ele>
        <time>2026-06-15T12:08:02.000Z</time>
        <extensions>
          <ns3:TrackPointExtension>
            <ns3:atemp>19.0</ns3:atemp>
          </ns3:TrackPointExtension>
        </extensions>
      </trkpt>
      <trkpt lat="42.5630419515073299407958984375" lon="20.04499864764511585235595703125">
        <ele>2082.800048828125</ele>
        <time>2026-06-15T12:08:03.000Z</time>
        <extensions>
          <ns3:TrackPointExtension>
            <ns3:atemp>19.0</ns3:atemp>
          </ns3:TrackPointExtension>
        </extensions>
      </trkpt>
      <trkpt lat="42.5630419515073299407958984375" lon="20.04499864764511585235595703125">
        <ele>2082.800048828125</ele>
        <time>2026-06-15T12:08:04.000Z</time>
        <extensions>
          <ns3:TrackPointExtension>
            <ns3:atemp>19.0</ns3:atemp>
          </ns3:TrackPointExtension>
        </extensions>
      </trkpt>
      <trkpt lat="42.5630419515073299407958984375" lon="20.04499864764511585235595703125">
        <ele>2083</ele>
        <time>2026-06-15T12:08:05.000Z</time>
        <extensions>
          <ns3:TrackPointExtension>
            <ns3:atemp>19.0</ns3:atemp>
          </ns3:TrackPointExtension>
        </extensions>
      </trkpt>
      <trkpt lat="42.5630419515073299407958984375" lon="20.04499864764511585235595703125">
        <ele>2083</ele>
        <time>2026-06-15T12:08:06.000Z</time>
        <extensions>
          <ns3:TrackPointExtension>
            <ns3:atemp>19.0</ns3:atemp>
          </ns3:TrackPointExtension>
        </extensions>
      </trkpt>
      <trkpt lat="42.5630419515073299407958984375" lon="20.04499864764511585235595703125">
        <ele>2083.199951171875</ele>
        <time>2026-06-15T12:08:07.000Z</time>
        <extensions>
          <ns3:TrackPointExtension>
            <ns3:atemp>19.0</ns3:atemp>
          </ns3:TrackPointExtension>
        </extensions>
      </trkpt>
      <trkpt lat="42.5630414485931396484375" lon="20.04499345086514949798583984375">
        <ele>2083.199951171875</ele>
        <time>2026-06-15T12:08:08.000Z</time>
        <extensions>
          <ns3:TrackPointExtension>
            <ns3:atemp>19.0</ns3:atemp>
          </ns3:TrackPointExtension>
        </extensions>
      </trkpt>
      <trkpt lat="42.563036419451236724853515625" lon="20.04500853829085826873779296875">
        <ele>2083.39990234375</ele>
        <time>2026-06-15T12:08:09.000Z</time>
        <extensions>
          <ns3:TrackPointExtension>
            <ns3:atemp>19.0</ns3:atemp>
          </ns3:TrackPointExtension>
        </extensions>
      </trkpt>
      <trkpt lat="42.5630315579473972320556640625" lon="20.045031420886516571044921875">
        <ele>2083.39990234375</ele>
        <time>2026-06-15T12:08:10.000Z</time>
        <extensions>
          <ns3:TrackPointExtension>
            <ns3:atemp>19.0</ns3:atemp>
          </ns3:TrackPointExtension>
        </extensions>
      </trkpt>
      <trkpt lat="42.563035078346729278564453125" lon="20.04506285302340984344482421875">
        <ele>2083.60009765625</ele>
        <time>2026-06-15T12:08:11.000Z</time>
        <extensions>
          <ns3:TrackPointExtension>
            <ns3:atemp>19.0</ns3:atemp>
          </ns3:TrackPointExtension>
        </extensions>
      </trkpt>
      <trkpt lat="42.56304186768829822540283203125" lon="20.04509755410254001617431640625">
        <ele>2083.60009765625</ele>
        <time>2026-06-15T12:08:12.000Z</time>
        <extensions>
          <ns3:TrackPointExtension>
            <ns3:atemp>19.0</ns3:atemp>
          </ns3:TrackPointExtension>
        </extensions>
      </trkpt>
      <trkpt lat="42.56304706446826457977294921875" lon="20.0451264716684818267822265625">
        <ele>2083.800048828125</ele>
        <time>2026-06-15T12:08:13.000Z</time>
        <extensions>
          <ns3:TrackPointExtension>
            <ns3:atemp>19.0</ns3:atemp>
          </ns3:TrackPointExtension>
        </extensions>
      </trkpt>
      <trkpt lat="42.563054524362087249755859375" lon="20.045162178575992584228515625">
        <ele>2084.199951171875</ele>
        <time>2026-06-15T12:08:14.000Z</time>
        <extensions>
          <ns3:TrackPointExtension>
            <ns3:atemp>19.0</ns3:atemp>
          </ns3:TrackPointExtension>
        </extensions>
      </trkpt>
      <trkpt lat="42.56305879913270473480224609375" lon="20.045196712017059326171875">
        <ele>2084.39990234375</ele>
        <time>2026-06-15T12:08:15.000Z</time>
        <extensions>
          <ns3:TrackPointExtension>
            <ns3:atemp>19.0</ns3:atemp>
          </ns3:TrackPointExtension>
        </extensions>
      </trkpt>
      <trkpt lat="42.56305754184722900390625" lon="20.04523434676229953765869140625">
        <ele>2084.60009765625</ele>
        <time>2026-06-15T12:08:16.000Z</time>
        <extensions>
          <ns3:TrackPointExtension>
            <ns3:atemp>19.0</ns3:atemp>
          </ns3:TrackPointExtension>
        </extensions>
      </trkpt>
      <trkpt lat="42.5630567036569118499755859375" lon="20.0452726520597934722900390625">
        <ele>2085</ele>
        <time>2026-06-15T12:08:17.000Z</time>
        <extensions>
          <ns3:TrackPointExtension>
            <ns3:atemp>19.0</ns3:atemp>
          </ns3:TrackPointExtension>
        </extensions>
      </trkpt>
      <trkpt lat="42.5630657561123371124267578125" lon="20.04531062208116054534912109375">
        <ele>2085.39990234375</ele>
        <time>2026-06-15T12:08:18.000Z</time>
        <extensions>
          <ns3:TrackPointExtension>
            <ns3:atemp>19.0</ns3:atemp>
          </ns3:TrackPointExtension>
        </extensions>
      </trkpt>
      <trkpt lat="42.5630778260529041290283203125" lon="20.04535236395895481109619140625">
        <ele>2085.60009765625</ele>
        <time>2026-06-15T12:08:19.000Z</time>
        <extensions>
          <ns3:TrackPointExtension>
            <ns3:atemp>19.0</ns3:atemp>
          </ns3:TrackPointExtension>
        </extensions>
      </trkpt>
      <trkpt lat="42.56308092735707759857177734375" lon="20.04539444111287593841552734375">
        <ele>2085.800048828125</ele>
        <time>2026-06-15T12:08:20.000Z</time>
        <extensions>
          <ns3:TrackPointExtension>
            <ns3:atemp>19.0</ns3:atemp>
          </ns3:TrackPointExtension>
        </extensions>
      </trkpt>
      <trkpt lat="42.56307790987193584442138671875" lon="20.04543702118098735809326171875">
        <ele>2086.199951171875</ele>
        <time>2026-06-15T12:08:21.000Z</time>
        <extensions>
          <ns3:TrackPointExtension>
            <ns3:atemp>19.0</ns3:atemp>
          </ns3:TrackPointExtension>
        </extensions>
      </trkpt>
      <trkpt lat="42.5630734674632549285888671875" lon="20.045466609299182891845703125">
        <ele>2086.39990234375</ele>
        <time>2026-06-15T12:08:22.000Z</time>
        <extensions>
          <ns3:TrackPointExtension>
            <ns3:atemp>19.0</ns3:atemp>
          </ns3:TrackPointExtension>
        </extensions>
      </trkpt>
      <trkpt lat="42.56306835450232028961181640625" lon="20.04548949189484119415283203125">
        <ele>2086.39990234375</ele>
        <time>2026-06-15T12:08:23.000Z</time>
        <extensions>
          <ns3:TrackPointExtension>
            <ns3:atemp>19.0</ns3:atemp>
          </ns3:TrackPointExtension>
        </extensions>
      </trkpt>
      <trkpt lat="42.56306835450232028961181640625" lon="20.04551312886178493499755859375">
        <ele>2086.60009765625</ele>
        <time>2026-06-15T12:08:24.000Z</time>
        <extensions>
          <ns3:TrackPointExtension>
            <ns3:atemp>19.0</ns3:atemp>
          </ns3:TrackPointExtension>
        </extensions>
      </trkpt>
      <trkpt lat="42.56307723931968212127685546875" lon="20.045536346733570098876953125">
        <ele>2086.60009765625</ele>
        <time>2026-06-15T12:08:25.000Z</time>
        <extensions>
          <ns3:TrackPointExtension>
            <ns3:atemp>19.0</ns3:atemp>
          </ns3:TrackPointExtension>
        </extensions>
      </trkpt>
      <trkpt lat="42.56309098564088344573974609375" lon="20.0455428846180438995361328125">
        <ele>2086.60009765625</ele>
        <time>2026-06-15T12:08:26.000Z</time>
        <extensions>
          <ns3:TrackPointExtension>
            <ns3:atemp>19.0</ns3:atemp>
          </ns3:TrackPointExtension>
        </extensions>
      </trkpt>
      <trkpt lat="42.56310406140983104705810546875" lon="20.04553643055260181427001953125">
        <ele>2086.60009765625</ele>
        <time>2026-06-15T12:08:27.000Z</time>
        <extensions>
          <ns3:TrackPointExtension>
            <ns3:atemp>19.0</ns3:atemp>
          </ns3:TrackPointExtension>
        </extensions>
      </trkpt>
      <trkpt lat="42.56310942582786083221435546875" lon="20.04552251659333705902099609375">
        <ele>2086.60009765625</ele>
        <time>2026-06-15T12:08:28.000Z</time>
        <extensions>
          <ns3:TrackPointExtension>
            <ns3:atemp>19.0</ns3:atemp>
          </ns3:TrackPointExtension>
        </extensions>
      </trkpt>
      <trkpt lat="42.56310758180916309356689453125" lon="20.04550793208181858062744140625">
        <ele>2086.60009765625</ele>
        <time>2026-06-15T12:08:29.000Z</time>
        <extensions>
          <ns3:TrackPointExtension>
            <ns3:atemp>19.0</ns3:atemp>
          </ns3:TrackPointExtension>
        </extensions>
      </trkpt>
      <trkpt lat="42.56310322321951389312744140625" lon="20.045492760837078094482421875">
        <ele>2086.800048828125</ele>
        <time>2026-06-15T12:08:30.000Z</time>
        <extensions>
          <ns3:TrackPointExtension>
            <ns3:atemp>19.0</ns3:atemp>
          </ns3:TrackPointExtension>
        </extensions>
      </trkpt>
      <trkpt lat="42.56309936754405498504638671875" lon="20.04547842778265476226806640625">
        <ele>2086.800048828125</ele>
        <time>2026-06-15T12:08:31.000Z</time>
        <extensions>
          <ns3:TrackPointExtension>
            <ns3:atemp>19.0</ns3:atemp>
          </ns3:TrackPointExtension>
        </extensions>
      </trkpt>
      <trkpt lat="42.56309844553470611572265625" lon="20.04546250216662883758544921875">
        <ele>2086.800048828125</ele>
        <time>2026-06-15T12:08:32.000Z</time>
        <extensions>
          <ns3:TrackPointExtension>
            <ns3:atemp>19.0</ns3:atemp>
          </ns3:TrackPointExtension>
        </extensions>
      </trkpt>
      <trkpt lat="42.5630950927734375" lon="20.04544959403574466705322265625">
        <ele>2086.800048828125</ele>
        <time>2026-06-15T12:08:33.000Z</time>
        <extensions>
          <ns3:TrackPointExtension>
            <ns3:atemp>19.0</ns3:atemp>
          </ns3:TrackPointExtension>
        </extensions>
      </trkpt>
      <trkpt lat="42.563102133572101593017578125" lon="20.045448839664459228515625">
        <ele>2086.800048828125</ele>
        <time>2026-06-15T12:08:34.000Z</time>
        <extensions>
          <ns3:TrackPointExtension>
            <ns3:atemp>19.0</ns3:atemp>
          </ns3:TrackPointExtension>
        </extensions>
      </trkpt>
      <trkpt lat="42.5631058216094970703125" lon="20.0454461574554443359375">
        <ele>2086.800048828125</ele>
        <time>2026-06-15T12:08:35.000Z</time>
        <extensions>
          <ns3:TrackPointExtension>
            <ns3:atemp>19.0</ns3:atemp>
          </ns3:TrackPointExtension>
        </extensions>
      </trkpt>
      <trkpt lat="42.56310557015240192413330078125" lon="20.045443810522556304931640625">
        <ele>2086.800048828125</ele>
        <time>2026-06-15T12:08:36.000Z</time>
        <extensions>
          <ns3:TrackPointExtension>
            <ns3:atemp>19.0</ns3:atemp>
          </ns3:TrackPointExtension>
        </extensions>
      </trkpt>
      <trkpt lat="42.56310540251433849334716796875" lon="20.04544372670352458953857421875">
        <ele>2086.800048828125</ele>
        <time>2026-06-15T12:08:37.000Z</time>
        <extensions>
          <ns3:TrackPointExtension>
            <ns3:atemp>19.0</ns3:atemp>
          </ns3:TrackPointExtension>
        </extensions>
      </trkpt>
      <trkpt lat="42.56310540251433849334716796875" lon="20.04544372670352458953857421875">
        <ele>2087</ele>
        <time>2026-06-15T12:08:38.000Z</time>
        <extensions>
          <ns3:TrackPointExtension>
            <ns3:atemp>19.0</ns3:atemp>
          </ns3:TrackPointExtension>
        </extensions>
      </trkpt>
      <trkpt lat="42.56310540251433849334716796875" lon="20.04544372670352458953857421875">
        <ele>2087</ele>
        <time>2026-06-15T12:08:39.000Z</time>
        <extensions>
          <ns3:TrackPointExtension>
            <ns3:atemp>19.0</ns3:atemp>
          </ns3:TrackPointExtension>
        </extensions>
      </trkpt>
      <trkpt lat="42.563104815781116485595703125" lon="20.04544280469417572021484375">
        <ele>2087</ele>
        <time>2026-06-15T12:08:40.000Z</time>
        <extensions>
          <ns3:TrackPointExtension>
            <ns3:atemp>19.0</ns3:atemp>
          </ns3:TrackPointExtension>
        </extensions>
      </trkpt>
      <trkpt lat="42.5630989484488964080810546875" lon="20.0454282201826572418212890625">
        <ele>2086.800048828125</ele>
        <time>2026-06-15T12:08:41.000Z</time>
        <extensions>
          <ns3:TrackPointExtension>
            <ns3:atemp>19.0</ns3:atemp>
          </ns3:TrackPointExtension>
        </extensions>
      </trkpt>
      <trkpt lat="42.5630986131727695465087890625" lon="20.04542696289718151092529296875">
        <ele>2086.800048828125</ele>
        <time>2026-06-15T12:08:42.000Z</time>
        <extensions>
          <ns3:TrackPointExtension>
            <ns3:atemp>19.0</ns3:atemp>
          </ns3:TrackPointExtension>
        </extensions>
      </trkpt>
      <trkpt lat="42.56309919990599155426025390625" lon="20.04542578943073749542236328125">
        <ele>2086.800048828125</ele>
        <time>2026-06-15T12:08:43.000Z</time>
        <extensions>
          <ns3:TrackPointExtension>
            <ns3:atemp>19.0</ns3:atemp>
          </ns3:TrackPointExtension>
        </extensions>
      </trkpt>
      <trkpt lat="42.56309936754405498504638671875" lon="20.0454255379736423492431640625">
        <ele>2086.800048828125</ele>
        <time>2026-06-15T12:08:44.000Z</time>
        <extensions>
          <ns3:TrackPointExtension>
            <ns3:atemp>19.0</ns3:atemp>
          </ns3:TrackPointExtension>
        </extensions>
      </trkpt>
      <trkpt lat="42.56309936754405498504638671875" lon="20.0454255379736423492431640625">
        <ele>2086.800048828125</ele>
        <time>2026-06-15T12:08:45.000Z</time>
        <extensions>
          <ns3:TrackPointExtension>
            <ns3:atemp>19.0</ns3:atemp>
          </ns3:TrackPointExtension>
        </extensions>
      </trkpt>
      <trkpt lat="42.56309936754405498504638671875" lon="20.0454255379736423492431640625">
        <ele>2087</ele>
        <time>2026-06-15T12:08:46.000Z</time>
        <extensions>
          <ns3:TrackPointExtension>
            <ns3:atemp>19.0</ns3:atemp>
          </ns3:TrackPointExtension>
        </extensions>
      </trkpt>
      <trkpt lat="42.56309936754405498504638671875" lon="20.0454255379736423492431640625">
        <ele>2087</ele>
        <time>2026-06-15T12:08:47.000Z</time>
        <extensions>
          <ns3:TrackPointExtension>
            <ns3:atemp>19.0</ns3:atemp>
          </ns3:TrackPointExtension>
        </extensions>
      </trkpt>
      <trkpt lat="42.56309936754405498504638671875" lon="20.0454255379736423492431640625">
        <ele>2086.800048828125</ele>
        <time>2026-06-15T12:08:48.000Z</time>
        <extensions>
          <ns3:TrackPointExtension>
            <ns3:atemp>19.0</ns3:atemp>
          </ns3:TrackPointExtension>
        </extensions>
      </trkpt>
      <trkpt lat="42.56309936754405498504638671875" lon="20.0454255379736423492431640625">
        <ele>2086.800048828125</ele>
        <time>2026-06-15T12:08:49.000Z</time>
        <extensions>
          <ns3:TrackPointExtension>
            <ns3:atemp>19.0</ns3:atemp>
          </ns3:TrackPointExtension>
        </extensions>
      </trkpt>
      <trkpt lat="42.56309936754405498504638671875" lon="20.0454255379736423492431640625">
        <ele>2086.60009765625</ele>
        <time>2026-06-15T12:08:50.000Z</time>
        <extensions>
          <ns3:TrackPointExtension>
            <ns3:atemp>19.0</ns3:atemp>
          </ns3:TrackPointExtension>
        </extensions>
      </trkpt>
      <trkpt lat="42.56309936754405498504638671875" lon="20.0454255379736423492431640625">
        <ele>2086.39990234375</ele>
        <time>2026-06-15T12:08:51.000Z</time>
        <extensions>
          <ns3:TrackPointExtension>
            <ns3:atemp>19.0</ns3:atemp>
          </ns3:TrackPointExtension>
        </extensions>
      </trkpt>
      <trkpt lat="42.56309936754405498504638671875" lon="20.0454255379736423492431640625">
        <ele>2086.199951171875</ele>
        <time>2026-06-15T12:08:52.000Z</time>
        <extensions>
          <ns3:TrackPointExtension>
            <ns3:atemp>19.0</ns3:atemp>
          </ns3:TrackPointExtension>
        </extensions>
      </trkpt>
      <trkpt lat="42.56309936754405498504638671875" lon="20.0454255379736423492431640625">
        <ele>2086.199951171875</ele>
        <time>2026-06-15T12:08:53.000Z</time>
        <extensions>
          <ns3:TrackPointExtension>
            <ns3:atemp>19.0</ns3:atemp>
          </ns3:TrackPointExtension>
        </extensions>
      </trkpt>
      <trkpt lat="42.56309936754405498504638671875" lon="20.0454255379736423492431640625">
        <ele>2086.199951171875</ele>
        <time>2026-06-15T12:08:54.000Z</time>
        <extensions>
          <ns3:TrackPointExtension>
            <ns3:atemp>19.0</ns3:atemp>
          </ns3:TrackPointExtension>
        </extensions>
      </trkpt>
      <trkpt lat="42.56309936754405498504638671875" lon="20.0454255379736423492431640625">
        <ele>2086.39990234375</ele>
        <time>2026-06-15T12:08:55.000Z</time>
        <extensions>
          <ns3:TrackPointExtension>
            <ns3:atemp>19.0</ns3:atemp>
          </ns3:TrackPointExtension>
        </extensions>
      </trkpt>
      <trkpt lat="42.56310003809630870819091796875" lon="20.0454231910407543182373046875">
        <ele>2086.39990234375</ele>
        <time>2026-06-15T12:08:56.000Z</time>
        <extensions>
          <ns3:TrackPointExtension>
            <ns3:atemp>19.0</ns3:atemp>
          </ns3:TrackPointExtension>
        </extensions>
      </trkpt>
      <trkpt lat="42.5630999542772769927978515625" lon="20.04539527930319309234619140625">
        <ele>2086.60009765625</ele>
        <time>2026-06-15T12:08:57.000Z</time>
        <extensions>
          <ns3:TrackPointExtension>
            <ns3:atemp>19.0</ns3:atemp>
          </ns3:TrackPointExtension>
        </extensions>
      </trkpt>
      <trkpt lat="42.56309635005891323089599609375" lon="20.0453594885766506195068359375">
        <ele>2086.60009765625</ele>
        <time>2026-06-15T12:08:58.000Z</time>
        <extensions>
          <ns3:TrackPointExtension>
            <ns3:atemp>19.0</ns3:atemp>
          </ns3:TrackPointExtension>
        </extensions>
      </trkpt>
      <trkpt lat="42.56309048272669315338134765625" lon="20.045325122773647308349609375">
        <ele>2086.60009765625</ele>
        <time>2026-06-15T12:08:59.000Z</time>
        <extensions>
          <ns3:TrackPointExtension>
            <ns3:atemp>19.0</ns3:atemp>
          </ns3:TrackPointExtension>
        </extensions>
      </trkpt>
      <trkpt lat="42.56308545358479022979736328125" lon="20.0452972948551177978515625">
        <ele>2086.60009765625</ele>
        <time>2026-06-15T12:09:00.000Z</time>
        <extensions>
          <ns3:TrackPointExtension>
            <ns3:atemp>19.0</ns3:atemp>
          </ns3:TrackPointExtension>
        </extensions>
      </trkpt>
      <trkpt lat="42.5630808435380458831787109375" lon="20.04525865428149700164794921875">
        <ele>2086.39990234375</ele>
        <time>2026-06-15T12:09:01.000Z</time>
        <extensions>
          <ns3:TrackPointExtension>
            <ns3:atemp>19.0</ns3:atemp>
          </ns3:TrackPointExtension>
        </extensions>
      </trkpt>
      <trkpt lat="42.56307564675807952880859375" lon="20.045213811099529266357421875">
        <ele>2086.39990234375</ele>
        <time>2026-06-15T12:09:02.000Z</time>
        <extensions>
          <ns3:TrackPointExtension>
            <ns3:atemp>19.0</ns3:atemp>
          </ns3:TrackPointExtension>
        </extensions>
      </trkpt>
      <trkpt lat="42.56306986324489116668701171875" lon="20.04516326822340488433837890625">
        <ele>2086.199951171875</ele>
        <time>2026-06-15T12:09:03.000Z</time>
        <extensions>
          <ns3:TrackPointExtension>
            <ns3:atemp>19.0</ns3:atemp>
          </ns3:TrackPointExtension>
        </extensions>
      </trkpt>
      <trkpt lat="42.563063241541385650634765625" lon="20.04510643891990184783935546875">
        <ele>2086</ele>
        <time>2026-06-15T12:09:04.000Z</time>
        <extensions>
          <ns3:TrackPointExtension>
            <ns3:atemp>19.0</ns3:atemp>
          </ns3:TrackPointExtension>
        </extensions>
      </trkpt>
      <trkpt lat="42.56306265480816364288330078125" lon="20.0450557284057140350341796875">
        <ele>2085.800048828125</ele>
        <time>2026-06-15T12:09:05.000Z</time>
        <extensions>
          <ns3:TrackPointExtension>
            <ns3:atemp>19.0</ns3:atemp>
          </ns3:TrackPointExtension>
        </extensions>
      </trkpt>
      <trkpt lat="42.56306852214038372039794921875" lon="20.0449943728744983673095703125">
        <ele>2085.39990234375</ele>
        <time>2026-06-15T12:09:06.000Z</time>
        <extensions>
          <ns3:TrackPointExtension>
            <ns3:atemp>19.0</ns3:atemp>
          </ns3:TrackPointExtension>
        </extensions>
      </trkpt>
      <trkpt lat="42.56307841278612613677978515625" lon="20.04492689855396747589111328125">
        <ele>2085</ele>
        <time>2026-06-15T12:09:07.000Z</time>
        <extensions>
          <ns3:TrackPointExtension>
            <ns3:atemp>19.0</ns3:atemp>
          </ns3:TrackPointExtension>
        </extensions>
      </trkpt>
      <trkpt lat="42.5630857050418853759765625" lon="20.04486344754695892333984375">
        <ele>2084.39990234375</ele>
        <time>2026-06-15T12:09:08.000Z</time>
        <extensions>
          <ns3:TrackPointExtension>
            <ns3:atemp>19.0</ns3:atemp>
          </ns3:TrackPointExtension>
        </extensions>
      </trkpt>
      <trkpt lat="42.563096098601818084716796875" lon="20.04479764960706233978271484375">
        <ele>2083.800048828125</ele>
        <time>2026-06-15T12:09:09.000Z</time>
        <extensions>
          <ns3:TrackPointExtension>
            <ns3:atemp>19.0</ns3:atemp>
          </ns3:TrackPointExtension>
        </extensions>
      </trkpt>
      <trkpt lat="42.5631049834191799163818359375" lon="20.0447402335703372955322265625">
        <ele>2083.199951171875</ele>
        <time>2026-06-15T12:09:10.000Z</time>
        <extensions>
          <ns3:TrackPointExtension>
            <ns3:atemp>19.0</ns3:atemp>
          </ns3:TrackPointExtension>
        </extensions>
      </trkpt>
      <trkpt lat="42.5631076656281948089599609375" lon="20.04469036124646663665771484375">
        <ele>2082.800048828125</ele>
        <time>2026-06-15T12:09:11.000Z</time>
        <extensions>
          <ns3:TrackPointExtension>
            <ns3:atemp>19.0</ns3:atemp>
          </ns3:TrackPointExtension>
        </extensions>
      </trkpt>
      <trkpt lat="42.563108839094638824462890625" lon="20.04466454498469829559326171875">
        <ele>2082.39990234375</ele>
        <time>2026-06-15T12:09:12.000Z</time>
        <extensions>
          <ns3:TrackPointExtension>
            <ns3:atemp>19.0</ns3:atemp>
          </ns3:TrackPointExtension>
        </extensions>
      </trkpt>
      <trkpt lat="42.563101463019847869873046875" lon="20.04464694298803806304931640625">
        <ele>2082.199951171875</ele>
        <time>2026-06-15T12:09:13.000Z</time>
        <extensions>
          <ns3:TrackPointExtension>
            <ns3:atemp>19.0</ns3:atemp>
          </ns3:TrackPointExtension>
        </extensions>
      </trkpt>
      <trkpt lat="42.5630875490605831146240234375" lon="20.0446419976651668548583984375">
        <ele>2082</ele>
        <time>2026-06-15T12:09:14.000Z</time>
        <extensions>
          <ns3:TrackPointExtension>
            <ns3:atemp>19.0</ns3:atemp>
          </ns3:TrackPointExtension>
        </extensions>
      </trkpt>
      <trkpt lat="42.563071288168430328369140625" lon="20.04463680088520050048828125">
        <ele>2082</ele>
        <time>2026-06-15T12:09:15.000Z</time>
        <extensions>
          <ns3:TrackPointExtension>
            <ns3:atemp>19.0</ns3:atemp>
          </ns3:TrackPointExtension>
        </extensions>
      </trkpt>
      <trkpt lat="42.56305494345724582672119140625" lon="20.0446455180644989013671875">
        <ele>2082</ele>
        <time>2026-06-15T12:09:16.000Z</time>
        <extensions>
          <ns3:TrackPointExtension>
            <ns3:atemp>19.0</ns3:atemp>
          </ns3:TrackPointExtension>
        </extensions>
      </trkpt>
      <trkpt lat="42.56304991431534290313720703125" lon="20.0446678139269351959228515625">
        <ele>2082</ele>
        <time>2026-06-15T12:09:17.000Z</time>
        <extensions>
          <ns3:TrackPointExtension>
            <ns3:atemp>19.0</ns3:atemp>
          </ns3:TrackPointExtension>
        </extensions>
      </trkpt>
      <trkpt lat="42.563049830496311187744140625" lon="20.0446857511997222900390625">
        <ele>2082</ele>
        <time>2026-06-15T12:09:18.000Z</time>
        <extensions>
          <ns3:TrackPointExtension>
            <ns3:atemp>19.0</ns3:atemp>
          </ns3:TrackPointExtension>
        </extensions>
      </trkpt>
      <trkpt lat="42.56304924376308917999267578125" lon="20.0446963123977184295654296875">
        <ele>2082.199951171875</ele>
        <time>2026-06-15T12:09:19.000Z</time>
        <extensions>
          <ns3:TrackPointExtension>
            <ns3:atemp>19.0</ns3:atemp>
          </ns3:TrackPointExtension>
        </extensions>
      </trkpt>
      <trkpt lat="42.56304639391601085662841796875" lon="20.044702179729938507080078125">
        <ele>2082.199951171875</ele>
        <time>2026-06-15T12:09:20.000Z</time>
        <extensions>
          <ns3:TrackPointExtension>
            <ns3:atemp>19.0</ns3:atemp>
          </ns3:TrackPointExtension>
        </extensions>
      </trkpt>
      <trkpt lat="42.5630473159253597259521484375" lon="20.04472522996366024017333984375">
        <ele>2082.199951171875</ele>
        <time>2026-06-15T12:09:21.000Z</time>
        <extensions>
          <ns3:TrackPointExtension>
            <ns3:atemp>19.0</ns3:atemp>
          </ns3:TrackPointExtension>
        </extensions>
      </trkpt>
      <trkpt lat="42.56304790265858173370361328125" lon="20.044737048447132110595703125">
        <ele>2082.199951171875</ele>
        <time>2026-06-15T12:09:22.000Z</time>
        <extensions>
          <ns3:TrackPointExtension>
            <ns3:atemp>19.0</ns3:atemp>
          </ns3:TrackPointExtension>
        </extensions>
      </trkpt>
      <trkpt lat="42.56304471753537654876708984375" lon="20.0447340309619903564453125">
        <ele>2082</ele>
        <time>2026-06-15T12:09:23.000Z</time>
        <extensions>
          <ns3:TrackPointExtension>
            <ns3:atemp>19.0</ns3:atemp>
          </ns3:TrackPointExtension>
        </extensions>
      </trkpt>
      <trkpt lat="42.56304480135440826416015625" lon="20.04473411478102207183837890625">
        <ele>2082</ele>
        <time>2026-06-15T12:09:24.000Z</time>
        <extensions>
          <ns3:TrackPointExtension>
            <ns3:atemp>19.0</ns3:atemp>
          </ns3:TrackPointExtension>
        </extensions>
      </trkpt>
      <trkpt lat="42.56304480135440826416015625" lon="20.04473411478102207183837890625">
        <ele>2082</ele>
        <time>2026-06-15T12:09:25.000Z</time>
        <extensions>
          <ns3:TrackPointExtension>
            <ns3:atemp>19.0</ns3:atemp>
          </ns3:TrackPointExtension>
        </extensions>
      </trkpt>
      <trkpt lat="42.56304480135440826416015625" lon="20.04473411478102207183837890625">
        <ele>2082</ele>
        <time>2026-06-15T12:09:26.000Z</time>
        <extensions>
          <ns3:TrackPointExtension>
            <ns3:atemp>19.0</ns3:atemp>
          </ns3:TrackPointExtension>
        </extensions>
      </trkpt>
      <trkpt lat="42.56304480135440826416015625" lon="20.04473411478102207183837890625">
        <ele>2082</ele>
        <time>2026-06-15T12:09:27.000Z</time>
        <extensions>
          <ns3:TrackPointExtension>
            <ns3:atemp>19.0</ns3:atemp>
          </ns3:TrackPointExtension>
        </extensions>
      </trkpt>
      <trkpt lat="42.56304480135440826416015625" lon="20.04473411478102207183837890625">
        <ele>2082</ele>
        <time>2026-06-15T12:09:28.000Z</time>
        <extensions>
          <ns3:TrackPointExtension>
            <ns3:atemp>19.0</ns3:atemp>
          </ns3:TrackPointExtension>
        </extensions>
      </trkpt>
      <trkpt lat="42.56304480135440826416015625" lon="20.04473411478102207183837890625">
        <ele>2082</ele>
        <time>2026-06-15T12:09:29.000Z</time>
        <extensions>
          <ns3:TrackPointExtension>
            <ns3:atemp>19.0</ns3:atemp>
          </ns3:TrackPointExtension>
        </extensions>
      </trkpt>
      <trkpt lat="42.56304480135440826416015625" lon="20.04473411478102207183837890625">
        <ele>2082</ele>
        <time>2026-06-15T12:09:30.000Z</time>
        <extensions>
          <ns3:TrackPointExtension>
            <ns3:atemp>19.0</ns3:atemp>
          </ns3:TrackPointExtension>
        </extensions>
      </trkpt>
      <trkpt lat="42.56304480135440826416015625" lon="20.04473411478102207183837890625">
        <ele>2082</ele>
        <time>2026-06-15T12:09:31.000Z</time>
        <extensions>
          <ns3:TrackPointExtension>
            <ns3:atemp>19.0</ns3:atemp>
          </ns3:TrackPointExtension>
        </extensions>
      </trkpt>
      <trkpt lat="42.56304480135440826416015625" lon="20.04473411478102207183837890625">
        <ele>2082</ele>
        <time>2026-06-15T12:09:32.000Z</time>
        <extensions>
          <ns3:TrackPointExtension>
            <ns3:atemp>19.0</ns3:atemp>
          </ns3:TrackPointExtension>
        </extensions>
      </trkpt>
      <trkpt lat="42.56304480135440826416015625" lon="20.04473411478102207183837890625">
        <ele>2082</ele>
        <time>2026-06-15T12:09:33.000Z</time>
        <extensions>
          <ns3:TrackPointExtension>
            <ns3:atemp>19.0</ns3:atemp>
          </ns3:TrackPointExtension>
        </extensions>
      </trkpt>
      <trkpt lat="42.56304480135440826416015625" lon="20.04473411478102207183837890625">
        <ele>2081.800048828125</ele>
        <time>2026-06-15T12:09:34.000Z</time>
        <extensions>
          <ns3:TrackPointExtension>
            <ns3:atemp>19.0</ns3:atemp>
          </ns3:TrackPointExtension>
        </extensions>
      </trkpt>
      <trkpt lat="42.56304480135440826416015625" lon="20.04473411478102207183837890625">
        <ele>2081.800048828125</ele>
        <time>2026-06-15T12:09:35.000Z</time>
        <extensions>
          <ns3:TrackPointExtension>
            <ns3:atemp>19.0</ns3:atemp>
          </ns3:TrackPointExtension>
        </extensions>
      </trkpt>
      <trkpt lat="42.56304480135440826416015625" lon="20.04473411478102207183837890625">
        <ele>2081.800048828125</ele>
        <time>2026-06-15T12:09:36.000Z</time>
        <extensions>
          <ns3:TrackPointExtension>
            <ns3:atemp>19.0</ns3:atemp>
          </ns3:TrackPointExtension>
        </extensions>
      </trkpt>
      <trkpt lat="42.56304480135440826416015625" lon="20.04473411478102207183837890625">
        <ele>2081.800048828125</ele>
        <time>2026-06-15T12:09:37.000Z</time>
        <extensions>
          <ns3:TrackPointExtension>
            <ns3:atemp>19.0</ns3:atemp>
          </ns3:TrackPointExtension>
        </extensions>
      </trkpt>
      <trkpt lat="42.56304480135440826416015625" lon="20.04473411478102207183837890625">
        <ele>2081.800048828125</ele>
        <time>2026-06-15T12:09:38.000Z</time>
        <extensions>
          <ns3:TrackPointExtension>
            <ns3:atemp>19.0</ns3:atemp>
          </ns3:TrackPointExtension>
        </extensions>
      </trkpt>
      <trkpt lat="42.56304480135440826416015625" lon="20.04473411478102207183837890625">
        <ele>2081.800048828125</ele>
        <time>2026-06-15T12:09:39.000Z</time>
        <extensions>
          <ns3:TrackPointExtension>
            <ns3:atemp>19.0</ns3:atemp>
          </ns3:TrackPointExtension>
        </extensions>
      </trkpt>
      <trkpt lat="42.56304480135440826416015625" lon="20.04473411478102207183837890625">
        <ele>2081.800048828125</ele>
        <time>2026-06-15T12:09:40.000Z</time>
        <extensions>
          <ns3:TrackPointExtension>
            <ns3:atemp>19.0</ns3:atemp>
          </ns3:TrackPointExtension>
        </extensions>
      </trkpt>
      <trkpt lat="42.56304480135440826416015625" lon="20.04473411478102207183837890625">
        <ele>2081.800048828125</ele>
        <time>2026-06-15T12:09:41.000Z</time>
        <extensions>
          <ns3:TrackPointExtension>
            <ns3:atemp>19.0</ns3:atemp>
          </ns3:TrackPointExtension>
        </extensions>
      </trkpt>
      <trkpt lat="42.56304480135440826416015625" lon="20.04473411478102207183837890625">
        <ele>2081.800048828125</ele>
        <time>2026-06-15T12:09:42.000Z</time>
        <extensions>
          <ns3:TrackPointExtension>
            <ns3:atemp>19.0</ns3:atemp>
          </ns3:TrackPointExtension>
        </extensions>
      </trkpt>
      <trkpt lat="42.56304480135440826416015625" lon="20.04473411478102207183837890625">
        <ele>2081.800048828125</ele>
        <time>2026-06-15T12:09:43.000Z</time>
        <extensions>
          <ns3:TrackPointExtension>
            <ns3:atemp>19.0</ns3:atemp>
          </ns3:TrackPointExtension>
        </extensions>
      </trkpt>
      <trkpt lat="42.56304480135440826416015625" lon="20.04473411478102207183837890625">
        <ele>2081.800048828125</ele>
        <time>2026-06-15T12:09:44.000Z</time>
        <extensions>
          <ns3:TrackPointExtension>
            <ns3:atemp>19.0</ns3:atemp>
          </ns3:TrackPointExtension>
        </extensions>
      </trkpt>
      <trkpt lat="42.56304480135440826416015625" lon="20.04473411478102207183837890625">
        <ele>2081.800048828125</ele>
        <time>2026-06-15T12:09:45.000Z</time>
        <extensions>
          <ns3:TrackPointExtension>
            <ns3:atemp>19.0</ns3:atemp>
          </ns3:TrackPointExtension>
        </extensions>
      </trkpt>
      <trkpt lat="42.56304480135440826416015625" lon="20.04473411478102207183837890625">
        <ele>2081.800048828125</ele>
        <time>2026-06-15T12:09:46.000Z</time>
        <extensions>
          <ns3:TrackPointExtension>
            <ns3:atemp>19.0</ns3:atemp>
          </ns3:TrackPointExtension>
        </extensions>
      </trkpt>
      <trkpt lat="42.56304480135440826416015625" lon="20.04473411478102207183837890625">
        <ele>2081.800048828125</ele>
        <time>2026-06-15T12:09:47.000Z</time>
        <extensions>
          <ns3:TrackPointExtension>
            <ns3:atemp>19.0</ns3:atemp>
          </ns3:TrackPointExtension>
        </extensions>
      </trkpt>
      <trkpt lat="42.56304480135440826416015625" lon="20.04473411478102207183837890625">
        <ele>2081.60009765625</ele>
        <time>2026-06-15T12:09:48.000Z</time>
        <extensions>
          <ns3:TrackPointExtension>
            <ns3:atemp>19.0</ns3:atemp>
          </ns3:TrackPointExtension>
        </extensions>
      </trkpt>
      <trkpt lat="42.56304480135440826416015625" lon="20.04473411478102207183837890625">
        <ele>2081.60009765625</ele>
        <time>2026-06-15T12:09:49.000Z</time>
        <extensions>
          <ns3:TrackPointExtension>
            <ns3:atemp>19.0</ns3:atemp>
          </ns3:TrackPointExtension>
        </extensions>
      </trkpt>
      <trkpt lat="42.56304480135440826416015625" lon="20.04473411478102207183837890625">
        <ele>2081.60009765625</ele>
        <time>2026-06-15T12:09:50.000Z</time>
        <extensions>
          <ns3:TrackPointExtension>
            <ns3:atemp>19.0</ns3:atemp>
          </ns3:TrackPointExtension>
        </extensions>
      </trkpt>
      <trkpt lat="42.5630439631640911102294921875" lon="20.04473646171391010284423828125">
        <ele>2081.60009765625</ele>
        <time>2026-06-15T12:09:51.000Z</time>
        <extensions>
          <ns3:TrackPointExtension>
            <ns3:atemp>19.0</ns3:atemp>
          </ns3:TrackPointExtension>
        </extensions>
      </trkpt>
      <trkpt lat="42.56304756738245487213134765625" lon="20.04475808702409267425537109375">
        <ele>2081.60009765625</ele>
        <time>2026-06-15T12:09:52.000Z</time>
        <extensions>
          <ns3:TrackPointExtension>
            <ns3:atemp>19.0</ns3:atemp>
          </ns3:TrackPointExtension>
        </extensions>
      </trkpt>
      <trkpt lat="42.5630546920001506805419921875" lon="20.04477501846849918365478515625">
        <ele>2081.60009765625</ele>
        <time>2026-06-15T12:09:53.000Z</time>
        <extensions>
          <ns3:TrackPointExtension>
            <ns3:atemp>19.0</ns3:atemp>
          </ns3:TrackPointExtension>
        </extensions>
      </trkpt>
      <trkpt lat="42.5630597211420536041259765625" lon="20.04479479975998401641845703125">
        <ele>2081.60009765625</ele>
        <time>2026-06-15T12:09:54.000Z</time>
        <extensions>
          <ns3:TrackPointExtension>
            <ns3:atemp>19.0</ns3:atemp>
          </ns3:TrackPointExtension>
        </extensions>
      </trkpt>
      <trkpt lat="42.56305745802819728851318359375" lon="20.0448106415569782257080078125">
        <ele>2081.39990234375</ele>
        <time>2026-06-15T12:09:55.000Z</time>
        <extensions>
          <ns3:TrackPointExtension>
            <ns3:atemp>19.0</ns3:atemp>
          </ns3:TrackPointExtension>
        </extensions>
      </trkpt>
      <trkpt lat="42.56305293180048465728759765625" lon="20.04483218304812908172607421875">
        <ele>2081.39990234375</ele>
        <time>2026-06-15T12:09:56.000Z</time>
        <extensions>
          <ns3:TrackPointExtension>
            <ns3:atemp>19.0</ns3:atemp>
          </ns3:TrackPointExtension>
        </extensions>
      </trkpt>
      <trkpt lat="42.5630483217537403106689453125" lon="20.04485565237700939178466796875">
        <ele>2081.39990234375</ele>
        <time>2026-06-15T12:09:57.000Z</time>
        <extensions>
          <ns3:TrackPointExtension>
            <ns3:atemp>19.0</ns3:atemp>
          </ns3:TrackPointExtension>
        </extensions>
      </trkpt>
      <trkpt lat="42.5630446337163448333740234375" lon="20.04487677477300167083740234375">
        <ele>2081.39990234375</ele>
        <time>2026-06-15T12:09:58.000Z</time>
        <extensions>
          <ns3:TrackPointExtension>
            <ns3:atemp>19.0</ns3:atemp>
          </ns3:TrackPointExtension>
        </extensions>
      </trkpt>
      <trkpt lat="42.563039101660251617431640625" lon="20.04489940591156482696533203125">
        <ele>2081.60009765625</ele>
        <time>2026-06-15T12:09:59.000Z</time>
        <extensions>
          <ns3:TrackPointExtension>
            <ns3:atemp>19.0</ns3:atemp>
          </ns3:TrackPointExtension>
        </extensions>
      </trkpt>
      <trkpt lat="42.56303499452769756317138671875" lon="20.0449249707162380218505859375">
        <ele>2081.60009765625</ele>
        <time>2026-06-15T12:10:00.000Z</time>
        <extensions>
          <ns3:TrackPointExtension>
            <ns3:atemp>19.0</ns3:atemp>
          </ns3:TrackPointExtension>
        </extensions>
      </trkpt>
      <trkpt lat="42.56303331814706325531005859375" lon="20.04495388828217983245849609375">
        <ele>2081.60009765625</ele>
        <time>2026-06-15T12:10:01.000Z</time>
        <extensions>
          <ns3:TrackPointExtension>
            <ns3:atemp>19.0</ns3:atemp>
          </ns3:TrackPointExtension>
        </extensions>
      </trkpt>
      <trkpt lat="42.56303247995674610137939453125" lon="20.0449752621352672576904296875">
        <ele>2081.800048828125</ele>
        <time>2026-06-15T12:10:02.000Z</time>
        <extensions>
          <ns3:TrackPointExtension>
            <ns3:atemp>19.0</ns3:atemp>
          </ns3:TrackPointExtension>
        </extensions>
      </trkpt>
      <trkpt lat="42.5630312226712703704833984375" lon="20.04499889910221099853515625">
        <ele>2082</ele>
        <time>2026-06-15T12:10:03.000Z</time>
        <extensions>
          <ns3:TrackPointExtension>
            <ns3:atemp>19.0</ns3:atemp>
          </ns3:TrackPointExtension>
        </extensions>
      </trkpt>
      <trkpt lat="42.563031055033206939697265625" lon="20.0450208596885204315185546875">
        <ele>2082</ele>
        <time>2026-06-15T12:10:04.000Z</time>
        <extensions>
          <ns3:TrackPointExtension>
            <ns3:atemp>19.0</ns3:atemp>
          </ns3:TrackPointExtension>
        </extensions>
      </trkpt>
      <trkpt lat="42.56303130649030208587646484375" lon="20.0450446642935276031494140625">
        <ele>2082.199951171875</ele>
        <time>2026-06-15T12:10:05.000Z</time>
        <extensions>
          <ns3:TrackPointExtension>
            <ns3:atemp>19.0</ns3:atemp>
          </ns3:TrackPointExtension>
        </extensions>
      </trkpt>
      <trkpt lat="42.56303583271801471710205078125" lon="20.04507131874561309814453125">
        <ele>2082.60009765625</ele>
        <time>2026-06-15T12:10:06.000Z</time>
        <extensions>
          <ns3:TrackPointExtension>
            <ns3:atemp>19.0</ns3:atemp>
          </ns3:TrackPointExtension>
        </extensions>
      </trkpt>
      <trkpt lat="42.563037090003490447998046875" lon="20.04509453661739826202392578125">
        <ele>2082.800048828125</ele>
        <time>2026-06-15T12:10:07.000Z</time>
        <extensions>
          <ns3:TrackPointExtension>
            <ns3:atemp>19.0</ns3:atemp>
          </ns3:TrackPointExtension>
        </extensions>
      </trkpt>
      <trkpt lat="42.56303633563220500946044921875" lon="20.0451174192130565643310546875">
        <ele>2083.199951171875</ele>
        <time>2026-06-15T12:10:08.000Z</time>
        <extensions>
          <ns3:TrackPointExtension>
            <ns3:atemp>19.0</ns3:atemp>
          </ns3:TrackPointExtension>
        </extensions>
      </trkpt>
      <trkpt lat="42.5630369223654270172119140625" lon="20.045144073665142059326171875">
        <ele>2083.60009765625</ele>
        <time>2026-06-15T12:10:09.000Z</time>
        <extensions>
          <ns3:TrackPointExtension>
            <ns3:atemp>19.0</ns3:atemp>
          </ns3:TrackPointExtension>
        </extensions>
      </trkpt>
      <trkpt lat="42.56303935311734676361083984375" lon="20.04517315886914730072021484375">
        <ele>2084</ele>
        <time>2026-06-15T12:10:10.000Z</time>
        <extensions>
          <ns3:TrackPointExtension>
            <ns3:atemp>19.0</ns3:atemp>
          </ns3:TrackPointExtension>
        </extensions>
      </trkpt>
      <trkpt lat="42.563043795526027679443359375" lon="20.04519629292190074920654296875">
        <ele>2084.39990234375</ele>
        <time>2026-06-15T12:10:11.000Z</time>
        <extensions>
          <ns3:TrackPointExtension>
            <ns3:atemp>19.0</ns3:atemp>
          </ns3:TrackPointExtension>
        </extensions>
      </trkpt>
      <trkpt lat="42.56304823793470859527587890625" lon="20.04521942697465419769287109375">
        <ele>2084.800048828125</ele>
        <time>2026-06-15T12:10:12.000Z</time>
        <extensions>
          <ns3:TrackPointExtension>
            <ns3:atemp>19.0</ns3:atemp>
          </ns3:TrackPointExtension>
        </extensions>
      </trkpt>
      <trkpt lat="42.563050501048564910888671875" lon="20.04524038173258304595947265625">
        <ele>2085</ele>
        <time>2026-06-15T12:10:13.000Z</time>
        <extensions>
          <ns3:TrackPointExtension>
            <ns3:atemp>19.0</ns3:atemp>
          </ns3:TrackPointExtension>
        </extensions>
      </trkpt>
      <trkpt lat="42.5630530156195163726806640625" lon="20.04526770673692226409912109375">
        <ele>2085.39990234375</ele>
        <time>2026-06-15T12:10:14.000Z</time>
        <extensions>
          <ns3:TrackPointExtension>
            <ns3:atemp>19.0</ns3:atemp>
          </ns3:TrackPointExtension>
        </extensions>
      </trkpt>
      <trkpt lat="42.5630590505897998809814453125" lon="20.04529721103608608245849609375">
        <ele>2085.60009765625</ele>
        <time>2026-06-15T12:10:15.000Z</time>
        <extensions>
          <ns3:TrackPointExtension>
            <ns3:atemp>19.0</ns3:atemp>
          </ns3:TrackPointExtension>
        </extensions>
      </trkpt>
      <trkpt lat="42.56306852214038372039794921875" lon="20.045322440564632415771484375">
        <ele>2085.800048828125</ele>
        <time>2026-06-15T12:10:16.000Z</time>
        <extensions>
          <ns3:TrackPointExtension>
            <ns3:atemp>19.0</ns3:atemp>
          </ns3:TrackPointExtension>
        </extensions>
      </trkpt>
      <trkpt lat="42.5630795024335384368896484375" lon="20.0453460775315761566162109375">
        <ele>2086</ele>
        <time>2026-06-15T12:10:17.000Z</time>
        <extensions>
          <ns3:TrackPointExtension>
            <ns3:atemp>19.0</ns3:atemp>
          </ns3:TrackPointExtension>
        </extensions>
      </trkpt>
      <trkpt lat="42.56308235228061676025390625" lon="20.04537683911621570587158203125">
        <ele>2086.199951171875</ele>
        <time>2026-06-15T12:10:18.000Z</time>
        <extensions>
          <ns3:TrackPointExtension>
            <ns3:atemp>19.0</ns3:atemp>
          </ns3:TrackPointExtension>
        </extensions>
      </trkpt>
      <trkpt lat="42.5630801729857921600341796875" lon="20.04540734924376010894775390625">
        <ele>2086.39990234375</ele>
        <time>2026-06-15T12:10:19.000Z</time>
        <extensions>
          <ns3:TrackPointExtension>
            <ns3:atemp>19.0</ns3:atemp>
          </ns3:TrackPointExtension>
        </extensions>
      </trkpt>
      <trkpt lat="42.56307790987193584442138671875" lon="20.045443475246429443359375">
        <ele>2086.39990234375</ele>
        <time>2026-06-15T12:10:20.000Z</time>
        <extensions>
          <ns3:TrackPointExtension>
            <ns3:atemp>19.0</ns3:atemp>
          </ns3:TrackPointExtension>
        </extensions>
      </trkpt>
      <trkpt lat="42.56307162344455718994140625" lon="20.04547121934592723846435546875">
        <ele>2086.39990234375</ele>
        <time>2026-06-15T12:10:21.000Z</time>
        <extensions>
          <ns3:TrackPointExtension>
            <ns3:atemp>19.0</ns3:atemp>
          </ns3:TrackPointExtension>
        </extensions>
      </trkpt>
      <trkpt lat="42.56307120434939861297607421875" lon="20.04549971781671047210693359375">
        <ele>2086.39990234375</ele>
        <time>2026-06-15T12:10:22.000Z</time>
        <extensions>
          <ns3:TrackPointExtension>
            <ns3:atemp>19.0</ns3:atemp>
          </ns3:TrackPointExtension>
        </extensions>
      </trkpt>
      <trkpt lat="42.5630803406238555908203125" lon="20.04552536644041538238525390625">
        <ele>2086.39990234375</ele>
        <time>2026-06-15T12:10:23.000Z</time>
        <extensions>
          <ns3:TrackPointExtension>
            <ns3:atemp>19.0</ns3:atemp>
          </ns3:TrackPointExtension>
        </extensions>
      </trkpt>
      <trkpt lat="42.56309685297310352325439453125" lon="20.0455301441252231597900390625">
        <ele>2086.39990234375</ele>
        <time>2026-06-15T12:10:24.000Z</time>
        <extensions>
          <ns3:TrackPointExtension>
            <ns3:atemp>19.0</ns3:atemp>
          </ns3:TrackPointExtension>
        </extensions>
      </trkpt>
      <trkpt lat="42.56310791708528995513916015625" lon="20.04551656544208526611328125">
        <ele>2086.39990234375</ele>
        <time>2026-06-15T12:10:25.000Z</time>
        <extensions>
          <ns3:TrackPointExtension>
            <ns3:atemp>19.0</ns3:atemp>
          </ns3:TrackPointExtension>
        </extensions>
      </trkpt>
      <trkpt lat="42.5631090067327022552490234375" lon="20.0454959459602832794189453125">
        <ele>2086.39990234375</ele>
        <time>2026-06-15T12:10:26.000Z</time>
        <extensions>
          <ns3:TrackPointExtension>
            <ns3:atemp>19.0</ns3:atemp>
          </ns3:TrackPointExtension>
        </extensions>
      </trkpt>
      <trkpt lat="42.5631044805049896240234375" lon="20.0454775057733058929443359375">
        <ele>2086.199951171875</ele>
        <time>2026-06-15T12:10:27.000Z</time>
        <extensions>
          <ns3:TrackPointExtension>
            <ns3:atemp>19.0</ns3:atemp>
          </ns3:TrackPointExtension>
        </extensions>
      </trkpt>
      <trkpt lat="42.56309769116342067718505859375" lon="20.04545646719634532928466796875">
        <ele>2086.199951171875</ele>
        <time>2026-06-15T12:10:28.000Z</time>
        <extensions>
          <ns3:TrackPointExtension>
            <ns3:atemp>19.0</ns3:atemp>
          </ns3:TrackPointExtension>
        </extensions>
      </trkpt>
      <trkpt lat="42.563090734183788299560546875" lon="20.04542696289718151092529296875">
        <ele>2086</ele>
        <time>2026-06-15T12:10:29.000Z</time>
        <extensions>
          <ns3:TrackPointExtension>
            <ns3:atemp>19.0</ns3:atemp>
          </ns3:TrackPointExtension>
        </extensions>
      </trkpt>
      <trkpt lat="42.56308578886091709136962890625" lon="20.0453879870474338531494140625">
        <ele>2085.800048828125</ele>
        <time>2026-06-15T12:10:30.000Z</time>
        <extensions>
          <ns3:TrackPointExtension>
            <ns3:atemp>19.0</ns3:atemp>
          </ns3:TrackPointExtension>
        </extensions>
      </trkpt>
      <trkpt lat="42.56308235228061676025390625" lon="20.04535320214927196502685546875">
        <ele>2085.800048828125</ele>
        <time>2026-06-15T12:10:31.000Z</time>
        <extensions>
          <ns3:TrackPointExtension>
            <ns3:atemp>19.0</ns3:atemp>
          </ns3:TrackPointExtension>
        </extensions>
      </trkpt>
      <trkpt lat="42.56307790987193584442138671875" lon="20.04532420076429843902587890625">
        <ele>2085.60009765625</ele>
        <time>2026-06-15T12:10:32.000Z</time>
        <extensions>
          <ns3:TrackPointExtension>
            <ns3:atemp>19.0</ns3:atemp>
          </ns3:TrackPointExtension>
        </extensions>
      </trkpt>
      <trkpt lat="42.5630677677690982818603515625" lon="20.0452941097319126129150390625">
        <ele>2085.60009765625</ele>
        <time>2026-06-15T12:10:33.000Z</time>
        <extensions>
          <ns3:TrackPointExtension>
            <ns3:atemp>19.0</ns3:atemp>
          </ns3:TrackPointExtension>
        </extensions>
      </trkpt>
      <trkpt lat="42.563056536018848419189453125" lon="20.04525370895862579345703125">
        <ele>2085.39990234375</ele>
        <time>2026-06-15T12:10:34.000Z</time>
        <extensions>
          <ns3:TrackPointExtension>
            <ns3:atemp>19.0</ns3:atemp>
          </ns3:TrackPointExtension>
        </extensions>
      </trkpt>
      <trkpt lat="42.56305192597210407257080078125" lon="20.0452096201479434967041015625">
        <ele>2085.39990234375</ele>
        <time>2026-06-15T12:10:35.000Z</time>
        <extensions>
          <ns3:TrackPointExtension>
            <ns3:atemp>19.0</ns3:atemp>
          </ns3:TrackPointExtension>
        </extensions>
      </trkpt>
      <trkpt lat="42.5630483217537403106689453125" lon="20.0451620109379291534423828125">
        <ele>2085.199951171875</ele>
        <time>2026-06-15T12:10:36.000Z</time>
        <extensions>
          <ns3:TrackPointExtension>
            <ns3:atemp>19.0</ns3:atemp>
          </ns3:TrackPointExtension>
        </extensions>
      </trkpt>
      <trkpt lat="42.563043795526027679443359375" lon="20.04511783830821514129638671875">
        <ele>2085.199951171875</ele>
        <time>2026-06-15T12:10:37.000Z</time>
        <extensions>
          <ns3:TrackPointExtension>
            <ns3:atemp>19.0</ns3:atemp>
          </ns3:TrackPointExtension>
        </extensions>
      </trkpt>
      <trkpt lat="42.56304337643086910247802734375" lon="20.0450704805552959442138671875">
        <ele>2085</ele>
        <time>2026-06-15T12:10:38.000Z</time>
        <extensions>
          <ns3:TrackPointExtension>
            <ns3:atemp>19.0</ns3:atemp>
          </ns3:TrackPointExtension>
        </extensions>
      </trkpt>
      <trkpt lat="42.56304387934505939483642578125" lon="20.04502035677433013916015625">
        <ele>2084.800048828125</ele>
        <time>2026-06-15T12:10:39.000Z</time>
        <extensions>
          <ns3:TrackPointExtension>
            <ns3:atemp>19.0</ns3:atemp>
          </ns3:TrackPointExtension>
        </extensions>
      </trkpt>
      <trkpt lat="42.5630499981343746185302734375" lon="20.044967718422412872314453125">
        <ele>2084.39990234375</ele>
        <time>2026-06-15T12:10:40.000Z</time>
        <extensions>
          <ns3:TrackPointExtension>
            <ns3:atemp>19.0</ns3:atemp>
          </ns3:TrackPointExtension>
        </extensions>
      </trkpt>
      <trkpt lat="42.56305561400949954986572265625" lon="20.044910721480846405029296875">
        <ele>2084</ele>
        <time>2026-06-15T12:10:41.000Z</time>
        <extensions>
          <ns3:TrackPointExtension>
            <ns3:atemp>19.0</ns3:atemp>
          </ns3:TrackPointExtension>
        </extensions>
      </trkpt>
      <trkpt lat="42.56306550465524196624755859375" lon="20.04484894685447216033935546875">
        <ele>2083.60009765625</ele>
        <time>2026-06-15T12:10:42.000Z</time>
        <extensions>
          <ns3:TrackPointExtension>
            <ns3:atemp>19.0</ns3:atemp>
          </ns3:TrackPointExtension>
        </extensions>
      </trkpt>
      <trkpt lat="42.5630751438438892364501953125" lon="20.04478457383811473846435546875">
        <ele>2083.199951171875</ele>
        <time>2026-06-15T12:10:43.000Z</time>
        <extensions>
          <ns3:TrackPointExtension>
            <ns3:atemp>19.0</ns3:atemp>
          </ns3:TrackPointExtension>
        </extensions>
      </trkpt>
      <trkpt lat="42.5630835257470607757568359375" lon="20.044722296297550201416015625">
        <ele>2082.800048828125</ele>
        <time>2026-06-15T12:10:44.000Z</time>
        <extensions>
          <ns3:TrackPointExtension>
            <ns3:atemp>19.0</ns3:atemp>
          </ns3:TrackPointExtension>
        </extensions>
      </trkpt>
      <trkpt lat="42.56308344192802906036376953125" lon="20.04466605372726917266845703125">
        <ele>2082.199951171875</ele>
        <time>2026-06-15T12:10:45.000Z</time>
        <extensions>
          <ns3:TrackPointExtension>
            <ns3:atemp>19.0</ns3:atemp>
          </ns3:TrackPointExtension>
        </extensions>
      </trkpt>
      <trkpt lat="42.5630781613290309906005859375" lon="20.04460805095732212066650390625">
        <ele>2081.800048828125</ele>
        <time>2026-06-15T12:10:46.000Z</time>
        <extensions>
          <ns3:TrackPointExtension>
            <ns3:atemp>19.0</ns3:atemp>
          </ns3:TrackPointExtension>
        </extensions>
      </trkpt>
      <trkpt lat="42.5630895607173442840576171875" lon="20.04455876536667346954345703125">
        <ele>2081.39990234375</ele>
        <time>2026-06-15T12:10:47.000Z</time>
        <extensions>
          <ns3:TrackPointExtension>
            <ns3:atemp>19.0</ns3:atemp>
          </ns3:TrackPointExtension>
        </extensions>
      </trkpt>
      <trkpt lat="42.56310339085757732391357421875" lon="20.0445155985653400421142578125">
        <ele>2081.199951171875</ele>
        <time>2026-06-15T12:10:48.000Z</time>
        <extensions>
          <ns3:TrackPointExtension>
            <ns3:atemp>19.0</ns3:atemp>
          </ns3:TrackPointExtension>
        </extensions>
      </trkpt>
      <trkpt lat="42.563123591244220733642578125" lon="20.04447293467819690704345703125">
        <ele>2081</ele>
        <time>2026-06-15T12:10:49.000Z</time>
        <extensions>
          <ns3:TrackPointExtension>
            <ns3:atemp>19.0</ns3:atemp>
          </ns3:TrackPointExtension>
        </extensions>
      </trkpt>
      <trkpt lat="42.56314446218311786651611328125" lon="20.0444334559142589569091796875">
        <ele>2080.800048828125</ele>
        <time>2026-06-15T12:10:50.000Z</time>
        <extensions>
          <ns3:TrackPointExtension>
            <ns3:atemp>19.0</ns3:atemp>
          </ns3:TrackPointExtension>
        </extensions>
      </trkpt>
      <trkpt lat="42.56316726095974445343017578125" lon="20.04438978619873523712158203125">
        <ele>2080.800048828125</ele>
        <time>2026-06-15T12:10:51.000Z</time>
        <extensions>
          <ns3:TrackPointExtension>
            <ns3:atemp>19.0</ns3:atemp>
          </ns3:TrackPointExtension>
        </extensions>
      </trkpt>
      <trkpt lat="42.5631871260702610015869140625" lon="20.0443456135690212249755859375">
        <ele>2080.39990234375</ele>
        <time>2026-06-15T12:10:52.000Z</time>
        <extensions>
          <ns3:TrackPointExtension>
            <ns3:atemp>19.0</ns3:atemp>
          </ns3:TrackPointExtension>
        </extensions>
      </trkpt>
      <trkpt lat="42.56318938918411731719970703125" lon="20.04429993219673633575439453125">
        <ele>2080</ele>
        <time>2026-06-15T12:10:53.000Z</time>
        <extensions>
          <ns3:TrackPointExtension>
            <ns3:atemp>19.0</ns3:atemp>
          </ns3:TrackPointExtension>
        </extensions>
      </trkpt>
      <trkpt lat="42.56319039501249790191650390625" lon="20.04426321946084499359130859375">
        <ele>2079.800048828125</ele>
        <time>2026-06-15T12:10:54.000Z</time>
        <extensions>
          <ns3:TrackPointExtension>
            <ns3:atemp>19.0</ns3:atemp>
          </ns3:TrackPointExtension>
        </extensions>
      </trkpt>
      <trkpt lat="42.56317916326224803924560546875" lon="20.0442457012832164764404296875">
        <ele>2079.60009765625</ele>
        <time>2026-06-15T12:10:55.000Z</time>
        <extensions>
          <ns3:TrackPointExtension>
            <ns3:atemp>19.0</ns3:atemp>
          </ns3:TrackPointExtension>
        </extensions>
      </trkpt>
      <trkpt lat="42.56316692568361759185791015625" lon="20.04424461163580417633056640625">
        <ele>2079.39990234375</ele>
        <time>2026-06-15T12:10:56.000Z</time>
        <extensions>
          <ns3:TrackPointExtension>
            <ns3:atemp>19.0</ns3:atemp>
          </ns3:TrackPointExtension>
        </extensions>
      </trkpt>
      <trkpt lat="42.563167177140712738037109375" lon="20.0442550890147686004638671875">
        <ele>2079.199951171875</ele>
        <time>2026-06-15T12:10:57.000Z</time>
        <extensions>
          <ns3:TrackPointExtension>
            <ns3:atemp>19.0</ns3:atemp>
          </ns3:TrackPointExtension>
        </extensions>
      </trkpt>
      <trkpt lat="42.56316290237009525299072265625" lon="20.04426606930792331695556640625">
        <ele>2079.199951171875</ele>
        <time>2026-06-15T12:10:58.000Z</time>
        <extensions>
          <ns3:TrackPointExtension>
            <ns3:atemp>19.0</ns3:atemp>
          </ns3:TrackPointExtension>
        </extensions>
      </trkpt>
      <trkpt lat="42.5631643272936344146728515625" lon="20.04426137544214725494384765625">
        <ele>2079.199951171875</ele>
        <time>2026-06-15T12:10:59.000Z</time>
        <extensions>
          <ns3:TrackPointExtension>
            <ns3:atemp>19.0</ns3:atemp>
          </ns3:TrackPointExtension>
        </extensions>
      </trkpt>
      <trkpt lat="42.56316441111266613006591796875" lon="20.04426137544214725494384765625">
        <ele>2079.199951171875</ele>
        <time>2026-06-15T12:11:00.000Z</time>
        <extensions>
          <ns3:TrackPointExtension>
            <ns3:atemp>19.0</ns3:atemp>
          </ns3:TrackPointExtension>
        </extensions>
      </trkpt>
      <trkpt lat="42.5631661713123321533203125" lon="20.0442745350301265716552734375">
        <ele>2079.199951171875</ele>
        <time>2026-06-15T12:11:01.000Z</time>
        <extensions>
          <ns3:TrackPointExtension>
            <ns3:atemp>19.0</ns3:atemp>
          </ns3:TrackPointExtension>
        </extensions>
      </trkpt>
      <trkpt lat="42.56317229010164737701416015625" lon="20.04429724998772144317626953125">
        <ele>2079</ele>
        <time>2026-06-15T12:11:02.000Z</time>
        <extensions>
          <ns3:TrackPointExtension>
            <ns3:atemp>19.0</ns3:atemp>
          </ns3:TrackPointExtension>
        </extensions>
      </trkpt>
      <trkpt lat="42.56317681632936000823974609375" lon="20.04431501962244510650634765625">
        <ele>2079</ele>
        <time>2026-06-15T12:11:03.000Z</time>
        <extensions>
          <ns3:TrackPointExtension>
            <ns3:atemp>19.0</ns3:atemp>
          </ns3:TrackPointExtension>
        </extensions>
      </trkpt>
      <trkpt lat="42.5631794147193431854248046875" lon="20.04432960413396358489990234375">
        <ele>2079</ele>
        <time>2026-06-15T12:11:04.000Z</time>
        <extensions>
          <ns3:TrackPointExtension>
            <ns3:atemp>19.0</ns3:atemp>
          </ns3:TrackPointExtension>
        </extensions>
      </trkpt>
      <trkpt lat="42.5631861202418804168701171875" lon="20.04434385336935520172119140625">
        <ele>2078.800048828125</ele>
        <time>2026-06-15T12:11:05.000Z</time>
        <extensions>
          <ns3:TrackPointExtension>
            <ns3:atemp>19.0</ns3:atemp>
          </ns3:TrackPointExtension>
        </extensions>
      </trkpt>
      <trkpt lat="42.5631831027567386627197265625" lon="20.04435206763446331024169921875">
        <ele>2078.800048828125</ele>
        <time>2026-06-15T12:11:06.000Z</time>
        <extensions>
          <ns3:TrackPointExtension>
            <ns3:atemp>19.0</ns3:atemp>
          </ns3:TrackPointExtension>
        </extensions>
      </trkpt>
      <trkpt lat="42.563181258738040924072265625" lon="20.044361539185047149658203125">
        <ele>2078.800048828125</ele>
        <time>2026-06-15T12:11:07.000Z</time>
        <extensions>
          <ns3:TrackPointExtension>
            <ns3:atemp>19.0</ns3:atemp>
          </ns3:TrackPointExtension>
        </extensions>
      </trkpt>
      <trkpt lat="42.563174553215503692626953125" lon="20.04436816088855266571044921875">
        <ele>2078.800048828125</ele>
        <time>2026-06-15T12:11:08.000Z</time>
        <extensions>
          <ns3:TrackPointExtension>
            <ns3:atemp>19.0</ns3:atemp>
          </ns3:TrackPointExtension>
        </extensions>
      </trkpt>
      <trkpt lat="42.56317027844488620758056640625" lon="20.04438760690391063690185546875">
        <ele>2078.800048828125</ele>
        <time>2026-06-15T12:11:09.000Z</time>
        <extensions>
          <ns3:TrackPointExtension>
            <ns3:atemp>19.0</ns3:atemp>
          </ns3:TrackPointExtension>
        </extensions>
      </trkpt>
      <trkpt lat="42.56316307000815868377685546875" lon="20.04440906457602977752685546875">
        <ele>2078.800048828125</ele>
        <time>2026-06-15T12:11:10.000Z</time>
        <extensions>
          <ns3:TrackPointExtension>
            <ns3:atemp>19.0</ns3:atemp>
          </ns3:TrackPointExtension>
        </extensions>
      </trkpt>
      <trkpt lat="42.5631559453904628753662109375" lon="20.0444347970187664031982421875">
        <ele>2078.800048828125</ele>
        <time>2026-06-15T12:11:11.000Z</time>
        <extensions>
          <ns3:TrackPointExtension>
            <ns3:atemp>19.0</ns3:atemp>
          </ns3:TrackPointExtension>
        </extensions>
      </trkpt>
      <trkpt lat="42.56314580328762531280517578125" lon="20.04445550031960010528564453125">
        <ele>2079</ele>
        <time>2026-06-15T12:11:12.000Z</time>
        <extensions>
          <ns3:TrackPointExtension>
            <ns3:atemp>19.0</ns3:atemp>
          </ns3:TrackPointExtension>
        </extensions>
      </trkpt>
      <trkpt lat="42.56313272751867771148681640625" lon="20.04447896964848041534423828125">
        <ele>2079</ele>
        <time>2026-06-15T12:11:13.000Z</time>
        <extensions>
          <ns3:TrackPointExtension>
            <ns3:atemp>19.0</ns3:atemp>
          </ns3:TrackPointExtension>
        </extensions>
      </trkpt>
      <trkpt lat="42.563119567930698394775390625" lon="20.044505707919597625732421875">
        <ele>2079</ele>
        <time>2026-06-15T12:11:14.000Z</time>
        <extensions>
          <ns3:TrackPointExtension>
            <ns3:atemp>19.0</ns3:atemp>
          </ns3:TrackPointExtension>
        </extensions>
      </trkpt>
      <trkpt lat="42.56310724653303623199462890625" lon="20.044535882771015167236328125">
        <ele>2079.199951171875</ele>
        <time>2026-06-15T12:11:15.000Z</time>
        <extensions>
          <ns3:TrackPointExtension>
            <ns3:atemp>19.0</ns3:atemp>
          </ns3:TrackPointExtension>
        </extensions>
      </trkpt>
      <trkpt lat="42.563097439706325531005859375" lon="20.044568069279193878173828125">
        <ele>2079.39990234375</ele>
        <time>2026-06-15T12:11:16.000Z</time>
        <extensions>
          <ns3:TrackPointExtension>
            <ns3:atemp>19.0</ns3:atemp>
          </ns3:TrackPointExtension>
        </extensions>
      </trkpt>
      <trkpt lat="42.5630915723741054534912109375" lon="20.04460134543478488922119140625">
        <ele>2079.60009765625</ele>
        <time>2026-06-15T12:11:17.000Z</time>
        <extensions>
          <ns3:TrackPointExtension>
            <ns3:atemp>19.0</ns3:atemp>
          </ns3:TrackPointExtension>
        </extensions>
      </trkpt>
      <trkpt lat="42.56309115327894687652587890625" lon="20.04463143646717071533203125">
        <ele>2079.60009765625</ele>
        <time>2026-06-15T12:11:18.000Z</time>
        <extensions>
          <ns3:TrackPointExtension>
            <ns3:atemp>19.0</ns3:atemp>
          </ns3:TrackPointExtension>
        </extensions>
      </trkpt>
      <trkpt lat="42.56309400312602519989013671875" lon="20.04465985111892223358154296875">
        <ele>2079.800048828125</ele>
        <time>2026-06-15T12:11:19.000Z</time>
        <extensions>
          <ns3:TrackPointExtension>
            <ns3:atemp>19.0</ns3:atemp>
          </ns3:TrackPointExtension>
        </extensions>
      </trkpt>
      <trkpt lat="42.56309333257377147674560546875" lon="20.04469371400773525238037109375">
        <ele>2080</ele>
        <time>2026-06-15T12:11:20.000Z</time>
        <extensions>
          <ns3:TrackPointExtension>
            <ns3:atemp>19.0</ns3:atemp>
          </ns3:TrackPointExtension>
        </extensions>
      </trkpt>
      <trkpt lat="42.5630902312695980072021484375" lon="20.04472992382943630218505859375">
        <ele>2080.199951171875</ele>
        <time>2026-06-15T12:11:21.000Z</time>
        <extensions>
          <ns3:TrackPointExtension>
            <ns3:atemp>19.0</ns3:atemp>
          </ns3:TrackPointExtension>
        </extensions>
      </trkpt>
      <trkpt lat="42.56308545358479022979736328125" lon="20.0447653792798519134521484375">
        <ele>2080.39990234375</ele>
        <time>2026-06-15T12:11:22.000Z</time>
        <extensions>
          <ns3:TrackPointExtension>
            <ns3:atemp>19.0</ns3:atemp>
          </ns3:TrackPointExtension>
        </extensions>
      </trkpt>
      <trkpt lat="42.5630788318812847137451171875" lon="20.04479295574128627777099609375">
        <ele>2080.39990234375</ele>
        <time>2026-06-15T12:11:23.000Z</time>
        <extensions>
          <ns3:TrackPointExtension>
            <ns3:atemp>19.0</ns3:atemp>
          </ns3:TrackPointExtension>
        </extensions>
      </trkpt>
      <trkpt lat="42.56307271309196949005126953125" lon="20.04482078365981578826904296875">
        <ele>2080.60009765625</ele>
        <time>2026-06-15T12:11:24.000Z</time>
        <extensions>
          <ns3:TrackPointExtension>
            <ns3:atemp>19.0</ns3:atemp>
          </ns3:TrackPointExtension>
        </extensions>
      </trkpt>
      <trkpt lat="42.56306667812168598175048828125" lon="20.04485129378736019134521484375">
        <ele>2080.60009765625</ele>
        <time>2026-06-15T12:11:25.000Z</time>
        <extensions>
          <ns3:TrackPointExtension>
            <ns3:atemp>19.0</ns3:atemp>
          </ns3:TrackPointExtension>
        </extensions>
      </trkpt>
      <trkpt lat="42.56306315772235393524169921875" lon="20.0448857434093952178955078125">
        <ele>2080.800048828125</ele>
        <time>2026-06-15T12:11:26.000Z</time>
        <extensions>
          <ns3:TrackPointExtension>
            <ns3:atemp>19.0</ns3:atemp>
          </ns3:TrackPointExtension>
        </extensions>
      </trkpt>
      <trkpt lat="42.5630617327988147735595703125" lon="20.04492203705012798309326171875">
        <ele>2081</ele>
        <time>2026-06-15T12:11:27.000Z</time>
        <extensions>
          <ns3:TrackPointExtension>
            <ns3:atemp>19.0</ns3:atemp>
          </ns3:TrackPointExtension>
        </extensions>
      </trkpt>
      <trkpt lat="42.56306114606559276580810546875" lon="20.044956989586353302001953125">
        <ele>2081.39990234375</ele>
        <time>2026-06-15T12:11:28.000Z</time>
        <extensions>
          <ns3:TrackPointExtension>
            <ns3:atemp>19.0</ns3:atemp>
          </ns3:TrackPointExtension>
        </extensions>
      </trkpt>
      <trkpt lat="42.56305494345724582672119140625" lon="20.04498825408518314361572265625">
        <ele>2081.60009765625</ele>
        <time>2026-06-15T12:11:29.000Z</time>
        <extensions>
          <ns3:TrackPointExtension>
            <ns3:atemp>19.0</ns3:atemp>
          </ns3:TrackPointExtension>
        </extensions>
      </trkpt>
      <trkpt lat="42.56305125541985034942626953125" lon="20.04502044059336185455322265625">
        <ele>2081.800048828125</ele>
        <time>2026-06-15T12:11:30.000Z</time>
        <extensions>
          <ns3:TrackPointExtension>
            <ns3:atemp>19.0</ns3:atemp>
          </ns3:TrackPointExtension>
        </extensions>
      </trkpt>
      <trkpt lat="42.5630503334105014801025390625" lon="20.045048855245113372802734375">
        <ele>2082.199951171875</ele>
        <time>2026-06-15T12:11:31.000Z</time>
        <extensions>
          <ns3:TrackPointExtension>
            <ns3:atemp>19.0</ns3:atemp>
          </ns3:TrackPointExtension>
        </extensions>
      </trkpt>
      <trkpt lat="42.56305226124823093414306640625" lon="20.0450838916003704071044921875">
        <ele>2082.60009765625</ele>
        <time>2026-06-15T12:11:32.000Z</time>
        <extensions>
          <ns3:TrackPointExtension>
            <ns3:atemp>19.0</ns3:atemp>
          </ns3:TrackPointExtension>
        </extensions>
      </trkpt>
      <trkpt lat="42.56305192597210407257080078125" lon="20.04510325379669666290283203125">
        <ele>2083</ele>
        <time>2026-06-15T12:11:33.000Z</time>
        <extensions>
          <ns3:TrackPointExtension>
            <ns3:atemp>19.0</ns3:atemp>
          </ns3:TrackPointExtension>
        </extensions>
      </trkpt>
      <trkpt lat="42.56305427290499210357666015625" lon="20.04512672312557697296142578125">
        <ele>2083.39990234375</ele>
        <time>2026-06-15T12:11:34.000Z</time>
        <extensions>
          <ns3:TrackPointExtension>
            <ns3:atemp>19.0</ns3:atemp>
          </ns3:TrackPointExtension>
        </extensions>
      </trkpt>
      <trkpt lat="42.56305645219981670379638671875" lon="20.04515320993959903717041015625">
        <ele>2083.60009765625</ele>
        <time>2026-06-15T12:11:35.000Z</time>
        <extensions>
          <ns3:TrackPointExtension>
            <ns3:atemp>19.0</ns3:atemp>
          </ns3:TrackPointExtension>
        </extensions>
      </trkpt>
      <trkpt lat="42.5630590505897998809814453125" lon="20.04519042558968067169189453125">
        <ele>2084</ele>
        <time>2026-06-15T12:11:36.000Z</time>
        <extensions>
          <ns3:TrackPointExtension>
            <ns3:atemp>19.0</ns3:atemp>
          </ns3:TrackPointExtension>
        </extensions>
      </trkpt>
      <trkpt lat="42.56306760013103485107421875" lon="20.04522512666881084442138671875">
        <ele>2084.199951171875</ele>
        <time>2026-06-15T12:11:37.000Z</time>
        <extensions>
          <ns3:TrackPointExtension>
            <ns3:atemp>19.0</ns3:atemp>
          </ns3:TrackPointExtension>
        </extensions>
      </trkpt>
      <trkpt lat="42.56307405419647693634033203125" lon="20.045259408652782440185546875">
        <ele>2084.60009765625</ele>
        <time>2026-06-15T12:11:38.000Z</time>
        <extensions>
          <ns3:TrackPointExtension>
            <ns3:atemp>19.0</ns3:atemp>
          </ns3:TrackPointExtension>
        </extensions>
      </trkpt>
      <trkpt lat="42.56307967007160186767578125" lon="20.04529134370386600494384765625">
        <ele>2084.800048828125</ele>
        <time>2026-06-15T12:11:39.000Z</time>
        <extensions>
          <ns3:TrackPointExtension>
            <ns3:atemp>19.0</ns3:atemp>
          </ns3:TrackPointExtension>
        </extensions>
      </trkpt>
      <trkpt lat="42.56308830343186855316162109375" lon="20.0453241169452667236328125">
        <ele>2085</ele>
        <time>2026-06-15T12:11:40.000Z</time>
        <extensions>
          <ns3:TrackPointExtension>
            <ns3:atemp>19.0</ns3:atemp>
          </ns3:TrackPointExtension>
        </extensions>
      </trkpt>
      <trkpt lat="42.56309450604021549224853515625" lon="20.04535102285444736480712890625">
        <ele>2085.199951171875</ele>
        <time>2026-06-15T12:11:41.000Z</time>
        <extensions>
          <ns3:TrackPointExtension>
            <ns3:atemp>19.0</ns3:atemp>
          </ns3:TrackPointExtension>
        </extensions>
      </trkpt>
      <trkpt lat="42.56309551186859607696533203125" lon="20.0453804433345794677734375">
        <ele>2085.39990234375</ele>
        <time>2026-06-15T12:11:42.000Z</time>
        <extensions>
          <ns3:TrackPointExtension>
            <ns3:atemp>19.0</ns3:atemp>
          </ns3:TrackPointExtension>
        </extensions>
      </trkpt>
      <trkpt lat="42.5630942545831203460693359375" lon="20.04541086964309215545654296875">
        <ele>2085.60009765625</ele>
        <time>2026-06-15T12:11:43.000Z</time>
        <extensions>
          <ns3:TrackPointExtension>
            <ns3:atemp>19.0</ns3:atemp>
          </ns3:TrackPointExtension>
        </extensions>
      </trkpt>
      <trkpt lat="42.5630925782024860382080078125" lon="20.045438110828399658203125">
        <ele>2085.800048828125</ele>
        <time>2026-06-15T12:11:44.000Z</time>
        <extensions>
          <ns3:TrackPointExtension>
            <ns3:atemp>19.0</ns3:atemp>
          </ns3:TrackPointExtension>
        </extensions>
      </trkpt>
      <trkpt lat="42.56308813579380512237548828125" lon="20.0454590655863285064697265625">
        <ele>2085.800048828125</ele>
        <time>2026-06-15T12:11:45.000Z</time>
        <extensions>
          <ns3:TrackPointExtension>
            <ns3:atemp>19.0</ns3:atemp>
          </ns3:TrackPointExtension>
        </extensions>
      </trkpt>
      <trkpt lat="42.563096098601818084716796875" lon="20.04547792486846446990966796875">
        <ele>2086</ele>
        <time>2026-06-15T12:11:46.000Z</time>
        <extensions>
          <ns3:TrackPointExtension>
            <ns3:atemp>19.0</ns3:atemp>
          </ns3:TrackPointExtension>
        </extensions>
      </trkpt>
      <trkpt lat="42.56310272030532360076904296875" lon="20.04548798315227031707763671875">
        <ele>2086</ele>
        <time>2026-06-15T12:11:47.000Z</time>
        <extensions>
          <ns3:TrackPointExtension>
            <ns3:atemp>19.0</ns3:atemp>
          </ns3:TrackPointExtension>
        </extensions>
      </trkpt>
      <trkpt lat="42.563108503818511962890625" lon="20.04549913108348846435546875">
        <ele>2086.199951171875</ele>
        <time>2026-06-15T12:11:48.000Z</time>
        <extensions>
          <ns3:TrackPointExtension>
            <ns3:atemp>19.0</ns3:atemp>
          </ns3:TrackPointExtension>
        </extensions>
      </trkpt>
      <trkpt lat="42.5631056539714336395263671875" lon="20.04551279358565807342529296875">
        <ele>2086.199951171875</ele>
        <time>2026-06-15T12:11:49.000Z</time>
        <extensions>
          <ns3:TrackPointExtension>
            <ns3:atemp>19.0</ns3:atemp>
          </ns3:TrackPointExtension>
        </extensions>
      </trkpt>
      <trkpt lat="42.56310054101049900054931640625" lon="20.04552721045911312103271484375">
        <ele>2086.199951171875</ele>
        <time>2026-06-15T12:11:50.000Z</time>
        <extensions>
          <ns3:TrackPointExtension>
            <ns3:atemp>19.0</ns3:atemp>
          </ns3:TrackPointExtension>
        </extensions>
      </trkpt>
      <trkpt lat="42.56308637559413909912109375" lon="20.04553257487714290618896484375">
        <ele>2086.199951171875</ele>
        <time>2026-06-15T12:11:51.000Z</time>
        <extensions>
          <ns3:TrackPointExtension>
            <ns3:atemp>19.0</ns3:atemp>
          </ns3:TrackPointExtension>
        </extensions>
      </trkpt>
      <trkpt lat="42.56307539530098438262939453125" lon="20.04552192986011505126953125">
        <ele>2086.199951171875</ele>
        <time>2026-06-15T12:11:52.000Z</time>
        <extensions>
          <ns3:TrackPointExtension>
            <ns3:atemp>19.0</ns3:atemp>
          </ns3:TrackPointExtension>
        </extensions>
      </trkpt>
      <trkpt lat="42.56307790987193584442138671875" lon="20.04550457932054996490478515625">
        <ele>2086.199951171875</ele>
        <time>2026-06-15T12:11:53.000Z</time>
        <extensions>
          <ns3:TrackPointExtension>
            <ns3:atemp>19.0</ns3:atemp>
          </ns3:TrackPointExtension>
        </extensions>
      </trkpt>
      <trkpt lat="42.563083358108997344970703125" lon="20.04548295401036739349365234375">
        <ele>2086</ele>
        <time>2026-06-15T12:11:54.000Z</time>
        <extensions>
          <ns3:TrackPointExtension>
            <ns3:atemp>19.0</ns3:atemp>
          </ns3:TrackPointExtension>
        </extensions>
      </trkpt>
      <trkpt lat="42.563088051974773406982421875" lon="20.0454594008624553680419921875">
        <ele>2085.800048828125</ele>
        <time>2026-06-15T12:11:55.000Z</time>
        <extensions>
          <ns3:TrackPointExtension>
            <ns3:atemp>19.0</ns3:atemp>
          </ns3:TrackPointExtension>
        </extensions>
      </trkpt>
      <trkpt lat="42.563090734183788299560546875" lon="20.045427381992340087890625">
        <ele>2085.60009765625</ele>
        <time>2026-06-15T12:11:56.000Z</time>
        <extensions>
          <ns3:TrackPointExtension>
            <ns3:atemp>19.0</ns3:atemp>
          </ns3:TrackPointExtension>
        </extensions>
      </trkpt>
      <trkpt lat="42.56308947689831256866455078125" lon="20.045395195484161376953125">
        <ele>2085.60009765625</ele>
        <time>2026-06-15T12:11:57.000Z</time>
        <extensions>
          <ns3:TrackPointExtension>
            <ns3:atemp>19.0</ns3:atemp>
          </ns3:TrackPointExtension>
        </extensions>
      </trkpt>
      <trkpt lat="42.5630845315754413604736328125" lon="20.045368038117885589599609375">
        <ele>2085.39990234375</ele>
        <time>2026-06-15T12:11:58.000Z</time>
        <extensions>
          <ns3:TrackPointExtension>
            <ns3:atemp>19.0</ns3:atemp>
          </ns3:TrackPointExtension>
        </extensions>
      </trkpt>
      <trkpt lat="42.56307774223387241363525390625" lon="20.0453390367329120635986328125">
        <ele>2085.39990234375</ele>
        <time>2026-06-15T12:11:59.000Z</time>
        <extensions>
          <ns3:TrackPointExtension>
            <ns3:atemp>19.0</ns3:atemp>
          </ns3:TrackPointExtension>
        </extensions>
      </trkpt>
      <trkpt lat="42.56307430565357208251953125" lon="20.045311041176319122314453125">
        <ele>2085.199951171875</ele>
        <time>2026-06-15T12:12:00.000Z</time>
        <extensions>
          <ns3:TrackPointExtension>
            <ns3:atemp>19.0</ns3:atemp>
          </ns3:TrackPointExtension>
        </extensions>
      </trkpt>
      <trkpt lat="42.563063912093639373779296875" lon="20.04528514109551906585693359375">
        <ele>2085.199951171875</ele>
        <time>2026-06-15T12:12:01.000Z</time>
        <extensions>
          <ns3:TrackPointExtension>
            <ns3:atemp>19.0</ns3:atemp>
          </ns3:TrackPointExtension>
        </extensions>
      </trkpt>
      <trkpt lat="42.5630580447614192962646484375" lon="20.04525815136730670928955078125">
        <ele>2085.199951171875</ele>
        <time>2026-06-15T12:12:02.000Z</time>
        <extensions>
          <ns3:TrackPointExtension>
            <ns3:atemp>19.0</ns3:atemp>
          </ns3:TrackPointExtension>
        </extensions>
      </trkpt>
      <trkpt lat="42.56305159069597721099853515625" lon="20.04523132927715778350830078125">
        <ele>2085.199951171875</ele>
        <time>2026-06-15T12:12:03.000Z</time>
        <extensions>
          <ns3:TrackPointExtension>
            <ns3:atemp>19.0</ns3:atemp>
          </ns3:TrackPointExtension>
        </extensions>
      </trkpt>
      <trkpt lat="42.56305175833404064178466796875" lon="20.04519478417932987213134765625">
        <ele>2085</ele>
        <time>2026-06-15T12:12:04.000Z</time>
        <extensions>
          <ns3:TrackPointExtension>
            <ns3:atemp>19.0</ns3:atemp>
          </ns3:TrackPointExtension>
        </extensions>
      </trkpt>
      <trkpt lat="42.56304941140115261077880859375" lon="20.04516243003308773040771484375">
        <ele>2085</ele>
        <time>2026-06-15T12:12:05.000Z</time>
        <extensions>
          <ns3:TrackPointExtension>
            <ns3:atemp>19.0</ns3:atemp>
          </ns3:TrackPointExtension>
        </extensions>
      </trkpt>
      <trkpt lat="42.563045136630535125732421875" lon="20.04512538202106952667236328125">
        <ele>2084.800048828125</ele>
        <time>2026-06-15T12:12:06.000Z</time>
        <extensions>
          <ns3:TrackPointExtension>
            <ns3:atemp>19.0</ns3:atemp>
          </ns3:TrackPointExtension>
        </extensions>
      </trkpt>
      <trkpt lat="42.5630439631640911102294921875" lon="20.045092105865478515625">
        <ele>2084.60009765625</ele>
        <time>2026-06-15T12:12:07.000Z</time>
        <extensions>
          <ns3:TrackPointExtension>
            <ns3:atemp>19.0</ns3:atemp>
          </ns3:TrackPointExtension>
        </extensions>
      </trkpt>
      <trkpt lat="42.56304438225924968719482421875" lon="20.045053549110889434814453125">
        <ele>2084.199951171875</ele>
        <time>2026-06-15T12:12:08.000Z</time>
        <extensions>
          <ns3:TrackPointExtension>
            <ns3:atemp>19.0</ns3:atemp>
          </ns3:TrackPointExtension>
        </extensions>
      </trkpt>
      <trkpt lat="42.56304622627794742584228515625" lon="20.04501507617533206939697265625">
        <ele>2083.800048828125</ele>
        <time>2026-06-15T12:12:09.000Z</time>
        <extensions>
          <ns3:TrackPointExtension>
            <ns3:atemp>19.0</ns3:atemp>
          </ns3:TrackPointExtension>
        </extensions>
      </trkpt>
      <trkpt lat="42.56305008195340633392333984375" lon="20.0449725799262523651123046875">
        <ele>2083.60009765625</ele>
        <time>2026-06-15T12:12:10.000Z</time>
        <extensions>
          <ns3:TrackPointExtension>
            <ns3:atemp>19.0</ns3:atemp>
          </ns3:TrackPointExtension>
        </extensions>
      </trkpt>
      <trkpt lat="42.5630563683807849884033203125" lon="20.044929496943950653076171875">
        <ele>2083.199951171875</ele>
        <time>2026-06-15T12:12:11.000Z</time>
        <extensions>
          <ns3:TrackPointExtension>
            <ns3:atemp>19.0</ns3:atemp>
          </ns3:TrackPointExtension>
        </extensions>
      </trkpt>
      <trkpt lat="42.56306382827460765838623046875" lon="20.04488716833293437957763671875">
        <ele>2082.60009765625</ele>
        <time>2026-06-15T12:12:12.000Z</time>
        <extensions>
          <ns3:TrackPointExtension>
            <ns3:atemp>19.0</ns3:atemp>
          </ns3:TrackPointExtension>
        </extensions>
      </trkpt>
      <trkpt lat="42.56306734867393970489501953125" lon="20.04484475590288639068603515625">
        <ele>2082.199951171875</ele>
        <time>2026-06-15T12:12:13.000Z</time>
        <extensions>
          <ns3:TrackPointExtension>
            <ns3:atemp>19.0</ns3:atemp>
          </ns3:TrackPointExtension>
        </extensions>
      </trkpt>
      <trkpt lat="42.5630744732916355133056640625" lon="20.04479262046515941619873046875">
        <ele>2082</ele>
        <time>2026-06-15T12:12:14.000Z</time>
        <extensions>
          <ns3:TrackPointExtension>
            <ns3:atemp>19.0</ns3:atemp>
          </ns3:TrackPointExtension>
        </extensions>
      </trkpt>
      <trkpt lat="42.56307992152869701385498046875" lon="20.04474383778870105743408203125">
        <ele>2081.60009765625</ele>
        <time>2026-06-15T12:12:15.000Z</time>
        <extensions>
          <ns3:TrackPointExtension>
            <ns3:atemp>19.0</ns3:atemp>
          </ns3:TrackPointExtension>
        </extensions>
      </trkpt>
      <trkpt lat="42.5630848668515682220458984375" lon="20.044696815311908721923828125">
        <ele>2081.39990234375</ele>
        <time>2026-06-15T12:12:16.000Z</time>
        <extensions>
          <ns3:TrackPointExtension>
            <ns3:atemp>19.0</ns3:atemp>
          </ns3:TrackPointExtension>
        </extensions>
      </trkpt>
      <trkpt lat="42.56308293901383876800537109375" lon="20.0446589291095733642578125">
        <ele>2081.199951171875</ele>
        <time>2026-06-15T12:12:17.000Z</time>
        <extensions>
          <ns3:TrackPointExtension>
            <ns3:atemp>19.0</ns3:atemp>
          </ns3:TrackPointExtension>
        </extensions>
      </trkpt>
      <trkpt lat="42.56308260373771190643310546875" lon="20.0446074642241001129150390625">
        <ele>2081</ele>
        <time>2026-06-15T12:12:18.000Z</time>
        <extensions>
          <ns3:TrackPointExtension>
            <ns3:atemp>19.0</ns3:atemp>
          </ns3:TrackPointExtension>
        </extensions>
      </trkpt>
      <trkpt lat="42.5630909018218517303466796875" lon="20.04456035792827606201171875">
        <ele>2080.800048828125</ele>
        <time>2026-06-15T12:12:19.000Z</time>
        <extensions>
          <ns3:TrackPointExtension>
            <ns3:atemp>19.0</ns3:atemp>
          </ns3:TrackPointExtension>
        </extensions>
      </trkpt>
      <trkpt lat="42.563104145228862762451171875" lon="20.04451744258403778076171875">
        <ele>2080.60009765625</ele>
        <time>2026-06-15T12:12:20.000Z</time>
        <extensions>
          <ns3:TrackPointExtension>
            <ns3:atemp>19.0</ns3:atemp>
          </ns3:TrackPointExtension>
        </extensions>
      </trkpt>
      <trkpt lat="42.56312149576842784881591796875" lon="20.04447930492460727691650390625">
        <ele>2080.39990234375</ele>
        <time>2026-06-15T12:12:21.000Z</time>
        <extensions>
          <ns3:TrackPointExtension>
            <ns3:atemp>19.0</ns3:atemp>
          </ns3:TrackPointExtension>
        </extensions>
      </trkpt>
      <trkpt lat="42.56313658319413661956787109375" lon="20.04445315338671207427978515625">
        <ele>2080.39990234375</ele>
        <time>2026-06-15T12:12:22.000Z</time>
        <extensions>
          <ns3:TrackPointExtension>
            <ns3:atemp>19.0</ns3:atemp>
          </ns3:TrackPointExtension>
        </extensions>
      </trkpt>
      <trkpt lat="42.56315351463854312896728515625" lon="20.04442079924046993255615234375">
        <ele>2080.39990234375</ele>
        <time>2026-06-15T12:12:23.000Z</time>
        <extensions>
          <ns3:TrackPointExtension>
            <ns3:atemp>19.0</ns3:atemp>
          </ns3:TrackPointExtension>
        </extensions>
      </trkpt>
      <trkpt lat="42.56316994316875934600830078125" lon="20.0443841703236103057861328125">
        <ele>2080.199951171875</ele>
        <time>2026-06-15T12:12:24.000Z</time>
        <extensions>
          <ns3:TrackPointExtension>
            <ns3:atemp>19.0</ns3:atemp>
          </ns3:TrackPointExtension>
        </extensions>
      </trkpt>
      <trkpt lat="42.56317882798612117767333984375" lon="20.04434905014932155609130859375">
        <ele>2079.800048828125</ele>
        <time>2026-06-15T12:12:25.000Z</time>
        <extensions>
          <ns3:TrackPointExtension>
            <ns3:atemp>19.0</ns3:atemp>
          </ns3:TrackPointExtension>
        </extensions>
      </trkpt>
      <trkpt lat="42.5631770677864551544189453125" lon="20.044305212795734405517578125">
        <ele>2079.60009765625</ele>
        <time>2026-06-15T12:12:26.000Z</time>
        <extensions>
          <ns3:TrackPointExtension>
            <ns3:atemp>19.0</ns3:atemp>
          </ns3:TrackPointExtension>
        </extensions>
      </trkpt>
      <trkpt lat="42.56316977553069591522216796875" lon="20.0442644767463207244873046875">
        <ele>2079.199951171875</ele>
        <time>2026-06-15T12:12:27.000Z</time>
        <extensions>
          <ns3:TrackPointExtension>
            <ns3:atemp>19.0</ns3:atemp>
          </ns3:TrackPointExtension>
        </extensions>
      </trkpt>
      <trkpt lat="42.56316122598946094512939453125" lon="20.04423354752361774444580078125">
        <ele>2078.800048828125</ele>
        <time>2026-06-15T12:12:28.000Z</time>
        <extensions>
          <ns3:TrackPointExtension>
            <ns3:atemp>19.0</ns3:atemp>
          </ns3:TrackPointExtension>
        </extensions>
      </trkpt>
      <trkpt lat="42.56315167061984539031982421875" lon="20.04420622251927852630615234375">
        <ele>2078.800048828125</ele>
        <time>2026-06-15T12:12:29.000Z</time>
        <extensions>
          <ns3:TrackPointExtension>
            <ns3:atemp>19.0</ns3:atemp>
          </ns3:TrackPointExtension>
        </extensions>
      </trkpt>
      <trkpt lat="42.56315770559012889862060546875" lon="20.04418627358973026275634765625">
        <ele>2078.60009765625</ele>
        <time>2026-06-15T12:12:30.000Z</time>
        <extensions>
          <ns3:TrackPointExtension>
            <ns3:atemp>19.0</ns3:atemp>
          </ns3:TrackPointExtension>
        </extensions>
      </trkpt>
      <trkpt lat="42.563167847692966461181640625" lon="20.04417546093463897705078125">
        <ele>2078.60009765625</ele>
        <time>2026-06-15T12:12:31.000Z</time>
        <extensions>
          <ns3:TrackPointExtension>
            <ns3:atemp>19.0</ns3:atemp>
          </ns3:TrackPointExtension>
        </extensions>
      </trkpt>
      <trkpt lat="42.56317220628261566162109375" lon="20.04417814314365386962890625">
        <ele>2078.60009765625</ele>
        <time>2026-06-15T12:12:32.000Z</time>
        <extensions>
          <ns3:TrackPointExtension>
            <ns3:atemp>19.0</ns3:atemp>
          </ns3:TrackPointExtension>
        </extensions>
      </trkpt>
      <trkpt lat="42.563174553215503692626953125" lon="20.0441880337893962860107421875">
        <ele>2078.800048828125</ele>
        <time>2026-06-15T12:12:33.000Z</time>
        <extensions>
          <ns3:TrackPointExtension>
            <ns3:atemp>19.0</ns3:atemp>
          </ns3:TrackPointExtension>
        </extensions>
      </trkpt>
      <trkpt lat="42.5631686858832836151123046875" lon="20.044204294681549072265625">
        <ele>2078.800048828125</ele>
        <time>2026-06-15T12:12:34.000Z</time>
        <extensions>
          <ns3:TrackPointExtension>
            <ns3:atemp>19.0</ns3:atemp>
          </ns3:TrackPointExtension>
        </extensions>
      </trkpt>
      <trkpt lat="42.56316818296909332275390625" lon="20.04422415979206562042236328125">
        <ele>2079</ele>
        <time>2026-06-15T12:12:35.000Z</time>
        <extensions>
          <ns3:TrackPointExtension>
            <ns3:atemp>19.0</ns3:atemp>
          </ns3:TrackPointExtension>
        </extensions>
      </trkpt>
      <trkpt lat="42.5631717033684253692626953125" lon="20.04423840902745723724365234375">
        <ele>2079</ele>
        <time>2026-06-15T12:12:36.000Z</time>
        <extensions>
          <ns3:TrackPointExtension>
            <ns3:atemp>19.0</ns3:atemp>
          </ns3:TrackPointExtension>
        </extensions>
      </trkpt>
      <trkpt lat="42.56317815743386745452880859375" lon="20.0442564301192760467529296875">
        <ele>2079.199951171875</ele>
        <time>2026-06-15T12:12:37.000Z</time>
        <extensions>
          <ns3:TrackPointExtension>
            <ns3:atemp>19.0</ns3:atemp>
          </ns3:TrackPointExtension>
        </extensions>
      </trkpt>
      <trkpt lat="42.563182599842548370361328125" lon="20.04426908679306507110595703125">
        <ele>2079.199951171875</ele>
        <time>2026-06-15T12:12:38.000Z</time>
        <extensions>
          <ns3:TrackPointExtension>
            <ns3:atemp>19.0</ns3:atemp>
          </ns3:TrackPointExtension>
        </extensions>
      </trkpt>
      <trkpt lat="42.56318704225122928619384765625" lon="20.04428316839039325714111328125">
        <ele>2079.199951171875</ele>
        <time>2026-06-15T12:12:39.000Z</time>
        <extensions>
          <ns3:TrackPointExtension>
            <ns3:atemp>19.0</ns3:atemp>
          </ns3:TrackPointExtension>
        </extensions>
      </trkpt>
      <trkpt lat="42.5631876289844512939453125" lon="20.04429255612194538116455078125">
        <ele>2079.39990234375</ele>
        <time>2026-06-15T12:12:40.000Z</time>
        <extensions>
          <ns3:TrackPointExtension>
            <ns3:atemp>19.0</ns3:atemp>
          </ns3:TrackPointExtension>
        </extensions>
      </trkpt>
      <trkpt lat="42.56319005973637104034423828125" lon="20.04430227912962436676025390625">
        <ele>2079.39990234375</ele>
        <time>2026-06-15T12:12:41.000Z</time>
        <extensions>
          <ns3:TrackPointExtension>
            <ns3:atemp>19.0</ns3:atemp>
          </ns3:TrackPointExtension>
        </extensions>
      </trkpt>
      <trkpt lat="42.5631884671747684478759765625" lon="20.04432172514498233795166015625">
        <ele>2079.39990234375</ele>
        <time>2026-06-15T12:12:42.000Z</time>
        <extensions>
          <ns3:TrackPointExtension>
            <ns3:atemp>19.0</ns3:atemp>
          </ns3:TrackPointExtension>
        </extensions>
      </trkpt>
      <trkpt lat="42.5631814263761043548583984375" lon="20.044354833662509918212890625">
        <ele>2079.39990234375</ele>
        <time>2026-06-15T12:12:43.000Z</time>
        <extensions>
          <ns3:TrackPointExtension>
            <ns3:atemp>19.0</ns3:atemp>
          </ns3:TrackPointExtension>
        </extensions>
      </trkpt>
      <trkpt lat="42.5631706975400447845458984375" lon="20.04439297132194042205810546875">
        <ele>2079.60009765625</ele>
        <time>2026-06-15T12:12:44.000Z</time>
        <extensions>
          <ns3:TrackPointExtension>
            <ns3:atemp>19.0</ns3:atemp>
          </ns3:TrackPointExtension>
        </extensions>
      </trkpt>
      <trkpt lat="42.5631569512188434600830078125" lon="20.0444304384291172027587890625">
        <ele>2079.60009765625</ele>
        <time>2026-06-15T12:12:45.000Z</time>
        <extensions>
          <ns3:TrackPointExtension>
            <ns3:atemp>19.0</ns3:atemp>
          </ns3:TrackPointExtension>
        </extensions>
      </trkpt>
      <trkpt lat="42.5631408579647541046142578125" lon="20.0444577634334564208984375">
        <ele>2079.60009765625</ele>
        <time>2026-06-15T12:12:46.000Z</time>
        <extensions>
          <ns3:TrackPointExtension>
            <ns3:atemp>19.0</ns3:atemp>
          </ns3:TrackPointExtension>
        </extensions>
      </trkpt>
      <trkpt lat="42.5631271116435527801513671875" lon="20.04448123276233673095703125">
        <ele>2079.60009765625</ele>
        <time>2026-06-15T12:12:47.000Z</time>
        <extensions>
          <ns3:TrackPointExtension>
            <ns3:atemp>19.0</ns3:atemp>
          </ns3:TrackPointExtension>
        </extensions>
      </trkpt>
      <trkpt lat="42.5631147064268589019775390625" lon="20.0445115752518177032470703125">
        <ele>2079.800048828125</ele>
        <time>2026-06-15T12:12:48.000Z</time>
        <extensions>
          <ns3:TrackPointExtension>
            <ns3:atemp>19.0</ns3:atemp>
          </ns3:TrackPointExtension>
        </extensions>
      </trkpt>
      <trkpt lat="42.5631016306579113006591796875" lon="20.04454351030290126800537109375">
        <ele>2079.800048828125</ele>
        <time>2026-06-15T12:12:49.000Z</time>
        <extensions>
          <ns3:TrackPointExtension>
            <ns3:atemp>19.0</ns3:atemp>
          </ns3:TrackPointExtension>
        </extensions>
      </trkpt>
      <trkpt lat="42.563092410564422607421875" lon="20.04457837902009487152099609375">
        <ele>2079.800048828125</ele>
        <time>2026-06-15T12:12:50.000Z</time>
        <extensions>
          <ns3:TrackPointExtension>
            <ns3:atemp>19.0</ns3:atemp>
          </ns3:TrackPointExtension>
        </extensions>
      </trkpt>
      <trkpt lat="42.56308914162218570709228515625" lon="20.04461358301341533660888671875">
        <ele>2080</ele>
        <time>2026-06-15T12:12:51.000Z</time>
        <extensions>
          <ns3:TrackPointExtension>
            <ns3:atemp>19.0</ns3:atemp>
          </ns3:TrackPointExtension>
        </extensions>
      </trkpt>
      <trkpt lat="42.56309132091701030731201171875" lon="20.04464484751224517822265625">
        <ele>2080</ele>
        <time>2026-06-15T12:12:52.000Z</time>
        <extensions>
          <ns3:TrackPointExtension>
            <ns3:atemp>19.0</ns3:atemp>
          </ns3:TrackPointExtension>
        </extensions>
      </trkpt>
      <trkpt lat="42.56308897398412227630615234375" lon="20.04467896185815334320068359375">
        <ele>2080.199951171875</ele>
        <time>2026-06-15T12:12:53.000Z</time>
        <extensions>
          <ns3:TrackPointExtension>
            <ns3:atemp>19.0</ns3:atemp>
          </ns3:TrackPointExtension>
        </extensions>
      </trkpt>
      <trkpt lat="42.56308545358479022979736328125" lon="20.0447231344878673553466796875">
        <ele>2080.199951171875</ele>
        <time>2026-06-15T12:12:54.000Z</time>
        <extensions>
          <ns3:TrackPointExtension>
            <ns3:atemp>19.0</ns3:atemp>
          </ns3:TrackPointExtension>
        </extensions>
      </trkpt>
      <trkpt lat="42.56308025680482387542724609375" lon="20.04477049224078655242919921875">
        <ele>2080.39990234375</ele>
        <time>2026-06-15T12:12:55.000Z</time>
        <extensions>
          <ns3:TrackPointExtension>
            <ns3:atemp>19.0</ns3:atemp>
          </ns3:TrackPointExtension>
        </extensions>
      </trkpt>
      <trkpt lat="42.563071958720684051513671875" lon="20.044814161956310272216796875">
        <ele>2080.39990234375</ele>
        <time>2026-06-15T12:12:56.000Z</time>
        <extensions>
          <ns3:TrackPointExtension>
            <ns3:atemp>19.0</ns3:atemp>
          </ns3:TrackPointExtension>
        </extensions>
      </trkpt>
      <trkpt lat="42.563063912093639373779296875" lon="20.0448548980057239532470703125">
        <ele>2080.60009765625</ele>
        <time>2026-06-15T12:12:57.000Z</time>
        <extensions>
          <ns3:TrackPointExtension>
            <ns3:atemp>19.0</ns3:atemp>
          </ns3:TrackPointExtension>
        </extensions>
      </trkpt>
      <trkpt lat="42.563059218227863311767578125" lon="20.0448994897305965423583984375">
        <ele>2080.60009765625</ele>
        <time>2026-06-15T12:12:58.000Z</time>
        <extensions>
          <ns3:TrackPointExtension>
            <ns3:atemp>19.0</ns3:atemp>
          </ns3:TrackPointExtension>
        </extensions>
      </trkpt>
      <trkpt lat="42.5630590505897998809814453125" lon="20.04493829794228076934814453125">
        <ele>2080.800048828125</ele>
        <time>2026-06-15T12:12:59.000Z</time>
        <extensions>
          <ns3:TrackPointExtension>
            <ns3:atemp>19.0</ns3:atemp>
          </ns3:TrackPointExtension>
        </extensions>
      </trkpt>
      <trkpt lat="42.5630550272762775421142578125" lon="20.0449781119823455810546875">
        <ele>2081.199951171875</ele>
        <time>2026-06-15T12:13:00.000Z</time>
        <extensions>
          <ns3:TrackPointExtension>
            <ns3:atemp>19.0</ns3:atemp>
          </ns3:TrackPointExtension>
        </extensions>
      </trkpt>
      <trkpt lat="42.5630520097911357879638671875" lon="20.0450151599943637847900390625">
        <ele>2081.39990234375</ele>
        <time>2026-06-15T12:13:01.000Z</time>
        <extensions>
          <ns3:TrackPointExtension>
            <ns3:atemp>19.0</ns3:atemp>
          </ns3:TrackPointExtension>
        </extensions>
      </trkpt>
      <trkpt lat="42.5630493275821208953857421875" lon="20.04504659213125705718994140625">
        <ele>2081.800048828125</ele>
        <time>2026-06-15T12:13:02.000Z</time>
        <extensions>
          <ns3:TrackPointExtension>
            <ns3:atemp>19.0</ns3:atemp>
          </ns3:TrackPointExtension>
        </extensions>
      </trkpt>
      <trkpt lat="42.5630536861717700958251953125" lon="20.045081041753292083740234375">
        <ele>2082</ele>
        <time>2026-06-15T12:13:03.000Z</time>
        <extensions>
          <ns3:TrackPointExtension>
            <ns3:atemp>19.0</ns3:atemp>
          </ns3:TrackPointExtension>
        </extensions>
      </trkpt>
      <trkpt lat="42.56305611692368984222412109375" lon="20.04511146806180477142333984375">
        <ele>2082.39990234375</ele>
        <time>2026-06-15T12:13:04.000Z</time>
        <extensions>
          <ns3:TrackPointExtension>
            <ns3:atemp>19.0</ns3:atemp>
          </ns3:TrackPointExtension>
        </extensions>
      </trkpt>
      <trkpt lat="42.5630553625524044036865234375" lon="20.045154131948947906494140625">
        <ele>2082.800048828125</ele>
        <time>2026-06-15T12:13:05.000Z</time>
        <extensions>
          <ns3:TrackPointExtension>
            <ns3:atemp>19.0</ns3:atemp>
          </ns3:TrackPointExtension>
        </extensions>
      </trkpt>
      <trkpt lat="42.5630573742091655731201171875" lon="20.045195706188678741455078125">
        <ele>2083.39990234375</ele>
        <time>2026-06-15T12:13:06.000Z</time>
        <extensions>
          <ns3:TrackPointExtension>
            <ns3:atemp>19.0</ns3:atemp>
          </ns3:TrackPointExtension>
        </extensions>
      </trkpt>
      <trkpt lat="42.56306500174105167388916015625" lon="20.04523702897131443023681640625">
        <ele>2083.60009765625</ele>
        <time>2026-06-15T12:13:07.000Z</time>
        <extensions>
          <ns3:TrackPointExtension>
            <ns3:atemp>19.0</ns3:atemp>
          </ns3:TrackPointExtension>
        </extensions>
      </trkpt>
      <trkpt lat="42.56307296454906463623046875" lon="20.0452726520597934722900390625">
        <ele>2084</ele>
        <time>2026-06-15T12:13:08.000Z</time>
        <extensions>
          <ns3:TrackPointExtension>
            <ns3:atemp>19.0</ns3:atemp>
          </ns3:TrackPointExtension>
        </extensions>
      </trkpt>
      <trkpt lat="42.56308042444288730621337890625" lon="20.04530408419668674468994140625">
        <ele>2084.199951171875</ele>
        <time>2026-06-15T12:13:09.000Z</time>
        <extensions>
          <ns3:TrackPointExtension>
            <ns3:atemp>19.0</ns3:atemp>
          </ns3:TrackPointExtension>
        </extensions>
      </trkpt>
      <trkpt lat="42.5630888901650905609130859375" lon="20.04533509723842144012451171875">
        <ele>2084.60009765625</ele>
        <time>2026-06-15T12:13:10.000Z</time>
        <extensions>
          <ns3:TrackPointExtension>
            <ns3:atemp>19.0</ns3:atemp>
          </ns3:TrackPointExtension>
        </extensions>
      </trkpt>
      <trkpt lat="42.56309199146926403045654296875" lon="20.045368708670139312744140625">
        <ele>2084.800048828125</ele>
        <time>2026-06-15T12:13:11.000Z</time>
        <extensions>
          <ns3:TrackPointExtension>
            <ns3:atemp>19.0</ns3:atemp>
          </ns3:TrackPointExtension>
        </extensions>
      </trkpt>
      <trkpt lat="42.563087046146392822265625" lon="20.045400895178318023681640625">
        <ele>2085</ele>
        <time>2026-06-15T12:13:12.000Z</time>
        <extensions>
          <ns3:TrackPointExtension>
            <ns3:atemp>19.0</ns3:atemp>
          </ns3:TrackPointExtension>
        </extensions>
      </trkpt>
      <trkpt lat="42.5630831904709339141845703125" lon="20.045434422791004180908203125">
        <ele>2085.199951171875</ele>
        <time>2026-06-15T12:13:13.000Z</time>
        <extensions>
          <ns3:TrackPointExtension>
            <ns3:atemp>19.0</ns3:atemp>
          </ns3:TrackPointExtension>
        </extensions>
      </trkpt>
      <trkpt lat="42.56307740695774555206298828125" lon="20.045455209910869598388671875">
        <ele>2085.39990234375</ele>
        <time>2026-06-15T12:13:14.000Z</time>
        <extensions>
          <ns3:TrackPointExtension>
            <ns3:atemp>19.0</ns3:atemp>
          </ns3:TrackPointExtension>
        </extensions>
      </trkpt>
      <trkpt lat="42.5630674324929714202880859375" lon="20.04546904005110263824462890625">
        <ele>2085.39990234375</ele>
        <time>2026-06-15T12:13:15.000Z</time>
        <extensions>
          <ns3:TrackPointExtension>
            <ns3:atemp>19.0</ns3:atemp>
          </ns3:TrackPointExtension>
        </extensions>
      </trkpt>
      <trkpt lat="42.5630613975226879119873046875" lon="20.04548882134258747100830078125">
        <ele>2085.60009765625</ele>
        <time>2026-06-15T12:13:16.000Z</time>
        <extensions>
          <ns3:TrackPointExtension>
            <ns3:atemp>19.0</ns3:atemp>
          </ns3:TrackPointExtension>
        </extensions>
      </trkpt>
      <trkpt lat="42.5630613975226879119873046875" lon="20.04551111720502376556396484375">
        <ele>2085.60009765625</ele>
        <time>2026-06-15T12:13:17.000Z</time>
        <extensions>
          <ns3:TrackPointExtension>
            <ns3:atemp>19.0</ns3:atemp>
          </ns3:TrackPointExtension>
        </extensions>
      </trkpt>
      <trkpt lat="42.5630714558064937591552734375" lon="20.04552687518298625946044921875">
        <ele>2085.800048828125</ele>
        <time>2026-06-15T12:13:18.000Z</time>
        <extensions>
          <ns3:TrackPointExtension>
            <ns3:atemp>19.0</ns3:atemp>
          </ns3:TrackPointExtension>
        </extensions>
      </trkpt>
      <trkpt lat="42.563087046146392822265625" lon="20.04553425125777721405029296875">
        <ele>2085.800048828125</ele>
        <time>2026-06-15T12:13:19.000Z</time>
        <extensions>
          <ns3:TrackPointExtension>
            <ns3:atemp>19.0</ns3:atemp>
          </ns3:TrackPointExtension>
        </extensions>
      </trkpt>
      <trkpt lat="42.56310037337243556976318359375" lon="20.0455227680504322052001953125">
        <ele>2085.800048828125</ele>
        <time>2026-06-15T12:13:20.000Z</time>
        <extensions>
          <ns3:TrackPointExtension>
            <ns3:atemp>19.0</ns3:atemp>
          </ns3:TrackPointExtension>
        </extensions>
      </trkpt>
      <trkpt lat="42.56310791708528995513916015625" lon="20.04549971781671047210693359375">
        <ele>2085.800048828125</ele>
        <time>2026-06-15T12:13:21.000Z</time>
        <extensions>
          <ns3:TrackPointExtension>
            <ns3:atemp>19.0</ns3:atemp>
          </ns3:TrackPointExtension>
        </extensions>
      </trkpt>
      <trkpt lat="42.563108168542385101318359375" lon="20.0454778410494327545166015625">
        <ele>2085.800048828125</ele>
        <time>2026-06-15T12:13:22.000Z</time>
        <extensions>
          <ns3:TrackPointExtension>
            <ns3:atemp>19.0</ns3:atemp>
          </ns3:TrackPointExtension>
        </extensions>
      </trkpt>
      <trkpt lat="42.563102133572101593017578125" lon="20.04545412026345729827880859375">
        <ele>2085.800048828125</ele>
        <time>2026-06-15T12:13:23.000Z</time>
        <extensions>
          <ns3:TrackPointExtension>
            <ns3:atemp>19.0</ns3:atemp>
          </ns3:TrackPointExtension>
        </extensions>
      </trkpt>
      <trkpt lat="42.56309702061116695404052734375" lon="20.045423023402690887451171875">
        <ele>2085.60009765625</ele>
        <time>2026-06-15T12:13:24.000Z</time>
        <extensions>
          <ns3:TrackPointExtension>
            <ns3:atemp>19.0</ns3:atemp>
          </ns3:TrackPointExtension>
        </extensions>
      </trkpt>
      <trkpt lat="42.56308997981250286102294921875" lon="20.0453893281519412994384765625">
        <ele>2085.60009765625</ele>
        <time>2026-06-15T12:13:25.000Z</time>
        <extensions>
          <ns3:TrackPointExtension>
            <ns3:atemp>19.0</ns3:atemp>
          </ns3:TrackPointExtension>
        </extensions>
      </trkpt>
      <trkpt lat="42.56308629177510738372802734375" lon="20.04535655491054058074951171875">
        <ele>2085.60009765625</ele>
        <time>2026-06-15T12:13:26.000Z</time>
        <extensions>
          <ns3:TrackPointExtension>
            <ns3:atemp>19.0</ns3:atemp>
          </ns3:TrackPointExtension>
        </extensions>
      </trkpt>
      <trkpt lat="42.56307941861450672149658203125" lon="20.04532705061137676239013671875">
        <ele>2085.39990234375</ele>
        <time>2026-06-15T12:13:27.000Z</time>
        <extensions>
          <ns3:TrackPointExtension>
            <ns3:atemp>19.0</ns3:atemp>
          </ns3:TrackPointExtension>
        </extensions>
      </trkpt>
      <trkpt lat="42.5630691088736057281494140625" lon="20.0452951155602931976318359375">
        <ele>2085.39990234375</ele>
        <time>2026-06-15T12:13:28.000Z</time>
        <extensions>
          <ns3:TrackPointExtension>
            <ns3:atemp>19.0</ns3:atemp>
          </ns3:TrackPointExtension>
        </extensions>
      </trkpt>
      <trkpt lat="42.563059218227863311767578125" lon="20.045254714787006378173828125">
        <ele>2085.199951171875</ele>
        <time>2026-06-15T12:13:29.000Z</time>
        <extensions>
          <ns3:TrackPointExtension>
            <ns3:atemp>19.0</ns3:atemp>
          </ns3:TrackPointExtension>
        </extensions>
      </trkpt>
      <trkpt lat="42.56305494345724582672119140625" lon="20.04521523602306842803955078125">
        <ele>2085.199951171875</ele>
        <time>2026-06-15T12:13:30.000Z</time>
        <extensions>
          <ns3:TrackPointExtension>
            <ns3:atemp>19.0</ns3:atemp>
          </ns3:TrackPointExtension>
        </extensions>
      </trkpt>
      <trkpt lat="42.56304991431534290313720703125" lon="20.0451754219830036163330078125">
        <ele>2085</ele>
        <time>2026-06-15T12:13:31.000Z</time>
        <extensions>
          <ns3:TrackPointExtension>
            <ns3:atemp>19.0</ns3:atemp>
          </ns3:TrackPointExtension>
        </extensions>
      </trkpt>
      <trkpt lat="42.56304471753537654876708984375" lon="20.04513225518167018890380859375">
        <ele>2084.60009765625</ele>
        <time>2026-06-15T12:13:32.000Z</time>
        <extensions>
          <ns3:TrackPointExtension>
            <ns3:atemp>19.0</ns3:atemp>
          </ns3:TrackPointExtension>
        </extensions>
      </trkpt>
      <trkpt lat="42.56303784437477588653564453125" lon="20.0450845621526241302490234375">
        <ele>2084.39990234375</ele>
        <time>2026-06-15T12:13:33.000Z</time>
        <extensions>
          <ns3:TrackPointExtension>
            <ns3:atemp>19.0</ns3:atemp>
          </ns3:TrackPointExtension>
        </extensions>
      </trkpt>
      <trkpt lat="42.56304387934505939483642578125" lon="20.0450309179723262786865234375">
        <ele>2084</ele>
        <time>2026-06-15T12:13:34.000Z</time>
        <extensions>
          <ns3:TrackPointExtension>
            <ns3:atemp>19.0</ns3:atemp>
          </ns3:TrackPointExtension>
        </extensions>
      </trkpt>
      <trkpt lat="42.56304689683020114898681640625" lon="20.04497081972658634185791015625">
        <ele>2083.60009765625</ele>
        <time>2026-06-15T12:13:35.000Z</time>
        <extensions>
          <ns3:TrackPointExtension>
            <ns3:atemp>19.0</ns3:atemp>
          </ns3:TrackPointExtension>
        </extensions>
      </trkpt>
      <trkpt lat="42.56305594928562641143798828125" lon="20.04491013474762439727783203125">
        <ele>2083</ele>
        <time>2026-06-15T12:13:36.000Z</time>
        <extensions>
          <ns3:TrackPointExtension>
            <ns3:atemp>19.0</ns3:atemp>
          </ns3:TrackPointExtension>
        </extensions>
      </trkpt>
      <trkpt lat="42.5630660913884639739990234375" lon="20.04484877921640872955322265625">
        <ele>2082.60009765625</ele>
        <time>2026-06-15T12:13:37.000Z</time>
        <extensions>
          <ns3:TrackPointExtension>
            <ns3:atemp>19.0</ns3:atemp>
          </ns3:TrackPointExtension>
        </extensions>
      </trkpt>
      <trkpt lat="42.56307556293904781341552734375" lon="20.04478490911424160003662109375">
        <ele>2082.199951171875</ele>
        <time>2026-06-15T12:13:38.000Z</time>
        <extensions>
          <ns3:TrackPointExtension>
            <ns3:atemp>19.0</ns3:atemp>
          </ns3:TrackPointExtension>
        </extensions>
      </trkpt>
      <trkpt lat="42.56308478303253650665283203125" lon="20.0447231344878673553466796875">
        <ele>2081.800048828125</ele>
        <time>2026-06-15T12:13:39.000Z</time>
        <extensions>
          <ns3:TrackPointExtension>
            <ns3:atemp>19.0</ns3:atemp>
          </ns3:TrackPointExtension>
        </extensions>
      </trkpt>
      <trkpt lat="42.56308092735707759857177734375" lon="20.0446668080985546112060546875">
        <ele>2081.39990234375</ele>
        <time>2026-06-15T12:13:40.000Z</time>
        <extensions>
          <ns3:TrackPointExtension>
            <ns3:atemp>19.0</ns3:atemp>
          </ns3:TrackPointExtension>
        </extensions>
      </trkpt>
      <trkpt lat="42.5630801729857921600341796875" lon="20.04460729658603668212890625">
        <ele>2081</ele>
        <time>2026-06-15T12:13:41.000Z</time>
        <extensions>
          <ns3:TrackPointExtension>
            <ns3:atemp>19.0</ns3:atemp>
          </ns3:TrackPointExtension>
        </extensions>
      </trkpt>
      <trkpt lat="42.56309282965958118438720703125" lon="20.04454837180674076080322265625">
        <ele>2080.800048828125</ele>
        <time>2026-06-15T12:13:42.000Z</time>
        <extensions>
          <ns3:TrackPointExtension>
            <ns3:atemp>19.0</ns3:atemp>
          </ns3:TrackPointExtension>
        </extensions>
      </trkpt>
      <trkpt lat="42.5631125271320343017578125" lon="20.04449732601642608642578125">
        <ele>2080.39990234375</ele>
        <time>2026-06-15T12:13:43.000Z</time>
        <extensions>
          <ns3:TrackPointExtension>
            <ns3:atemp>19.0</ns3:atemp>
          </ns3:TrackPointExtension>
        </extensions>
      </trkpt>
      <trkpt lat="42.56313457153737545013427734375" lon="20.0444529019296169281005859375">
        <ele>2080.199951171875</ele>
        <time>2026-06-15T12:13:44.000Z</time>
        <extensions>
          <ns3:TrackPointExtension>
            <ns3:atemp>19.0</ns3:atemp>
          </ns3:TrackPointExtension>
        </extensions>
      </trkpt>
      <trkpt lat="42.5631581246852874755859375" lon="20.04440856166183948516845703125">
        <ele>2080</ele>
        <time>2026-06-15T12:13:45.000Z</time>
        <extensions>
          <ns3:TrackPointExtension>
            <ns3:atemp>19.0</ns3:atemp>
          </ns3:TrackPointExtension>
        </extensions>
      </trkpt>
      <trkpt lat="42.56317346356809139251708984375" lon="20.0443585216999053955078125">
        <ele>2079.60009765625</ele>
        <time>2026-06-15T12:13:46.000Z</time>
        <extensions>
          <ns3:TrackPointExtension>
            <ns3:atemp>19.0</ns3:atemp>
          </ns3:TrackPointExtension>
        </extensions>
      </trkpt>
      <trkpt lat="42.5631769001483917236328125" lon="20.0443134270608425140380859375">
        <ele>2079.39990234375</ele>
        <time>2026-06-15T12:13:47.000Z</time>
        <extensions>
          <ns3:TrackPointExtension>
            <ns3:atemp>19.0</ns3:atemp>
          </ns3:TrackPointExtension>
        </extensions>
      </trkpt>
      <trkpt lat="42.56316818296909332275390625" lon="20.0442862696945667266845703125">
        <ele>2079</ele>
        <time>2026-06-15T12:13:48.000Z</time>
        <extensions>
          <ns3:TrackPointExtension>
            <ns3:atemp>19.0</ns3:atemp>
          </ns3:TrackPointExtension>
        </extensions>
      </trkpt>
      <trkpt lat="42.56316206417977809906005859375" lon="20.04426623694598674774169921875">
        <ele>2078.800048828125</ele>
        <time>2026-06-15T12:13:49.000Z</time>
        <extensions>
          <ns3:TrackPointExtension>
            <ns3:atemp>19.0</ns3:atemp>
          </ns3:TrackPointExtension>
        </extensions>
      </trkpt>
      <trkpt lat="42.56316944025456905364990234375" lon="20.04425701685249805450439453125">
        <ele>2078.60009765625</ele>
        <time>2026-06-15T12:13:50.000Z</time>
        <extensions>
          <ns3:TrackPointExtension>
            <ns3:atemp>19.0</ns3:atemp>
          </ns3:TrackPointExtension>
        </extensions>
      </trkpt>
      <trkpt lat="42.56317463703453540802001953125" lon="20.04424645565450191497802734375">
        <ele>2078.39990234375</ele>
        <time>2026-06-15T12:13:51.000Z</time>
        <extensions>
          <ns3:TrackPointExtension>
            <ns3:atemp>19.0</ns3:atemp>
          </ns3:TrackPointExtension>
        </extensions>
      </trkpt>
      <trkpt lat="42.5631817616522312164306640625" lon="20.04424377344548702239990234375">
        <ele>2078.39990234375</ele>
        <time>2026-06-15T12:13:52.000Z</time>
        <extensions>
          <ns3:TrackPointExtension>
            <ns3:atemp>19.0</ns3:atemp>
          </ns3:TrackPointExtension>
        </extensions>
      </trkpt>
      <trkpt lat="42.56318603642284870147705078125" lon="20.0442450307309627532958984375">
        <ele>2078.39990234375</ele>
        <time>2026-06-15T12:13:53.000Z</time>
        <extensions>
          <ns3:TrackPointExtension>
            <ns3:atemp>19.0</ns3:atemp>
          </ns3:TrackPointExtension>
        </extensions>
      </trkpt>
      <trkpt lat="42.56318754516541957855224609375" lon="20.0442581064999103546142578125">
        <ele>2078.39990234375</ele>
        <time>2026-06-15T12:13:54.000Z</time>
        <extensions>
          <ns3:TrackPointExtension>
            <ns3:atemp>19.0</ns3:atemp>
          </ns3:TrackPointExtension>
        </extensions>
      </trkpt>
      <trkpt lat="42.56318695843219757080078125" lon="20.044277049601078033447265625">
        <ele>2078.39990234375</ele>
        <time>2026-06-15T12:13:55.000Z</time>
        <extensions>
          <ns3:TrackPointExtension>
            <ns3:atemp>19.0</ns3:atemp>
          </ns3:TrackPointExtension>
        </extensions>
      </trkpt>
      <trkpt lat="42.56318301893770694732666015625" lon="20.04428735934197902679443359375">
        <ele>2078.39990234375</ele>
        <time>2026-06-15T12:13:56.000Z</time>
        <extensions>
          <ns3:TrackPointExtension>
            <ns3:atemp>19.0</ns3:atemp>
          </ns3:TrackPointExtension>
        </extensions>
      </trkpt>
      <trkpt lat="42.56318402476608753204345703125" lon="20.04430211149156093597412109375">
        <ele>2078.39990234375</ele>
        <time>2026-06-15T12:13:57.000Z</time>
        <extensions>
          <ns3:TrackPointExtension>
            <ns3:atemp>19.0</ns3:atemp>
          </ns3:TrackPointExtension>
        </extensions>
      </trkpt>
      <trkpt lat="42.5631807558238506317138671875" lon="20.0443130917847156524658203125">
        <ele>2078.39990234375</ele>
        <time>2026-06-15T12:13:58.000Z</time>
        <extensions>
          <ns3:TrackPointExtension>
            <ns3:atemp>19.0</ns3:atemp>
          </ns3:TrackPointExtension>
        </extensions>
      </trkpt>
      <trkpt lat="42.56318050436675548553466796875" lon="20.04432625137269496917724609375">
        <ele>2078.39990234375</ele>
        <time>2026-06-15T12:13:59.000Z</time>
        <extensions>
          <ns3:TrackPointExtension>
            <ns3:atemp>19.0</ns3:atemp>
          </ns3:TrackPointExtension>
        </extensions>
      </trkpt>
      <trkpt lat="42.5631837733089923858642578125" lon="20.0443402491509914398193359375">
        <ele>2078.39990234375</ele>
        <time>2026-06-15T12:14:00.000Z</time>
        <extensions>
          <ns3:TrackPointExtension>
            <ns3:atemp>19.0</ns3:atemp>
          </ns3:TrackPointExtension>
        </extensions>
      </trkpt>
      <trkpt lat="42.56318503059446811676025390625" lon="20.0443523190915584564208984375">
        <ele>2078.39990234375</ele>
        <time>2026-06-15T12:14:01.000Z</time>
        <extensions>
          <ns3:TrackPointExtension>
            <ns3:atemp>19.0</ns3:atemp>
          </ns3:TrackPointExtension>
        </extensions>
      </trkpt>
      <trkpt lat="42.56317983381450176239013671875" lon="20.04436011426150798797607421875">
        <ele>2078.39990234375</ele>
        <time>2026-06-15T12:14:02.000Z</time>
        <extensions>
          <ns3:TrackPointExtension>
            <ns3:atemp>19.0</ns3:atemp>
          </ns3:TrackPointExtension>
        </extensions>
      </trkpt>
      <trkpt lat="42.56318083964288234710693359375" lon="20.04437218420207500457763671875">
        <ele>2078.39990234375</ele>
        <time>2026-06-15T12:14:03.000Z</time>
        <extensions>
          <ns3:TrackPointExtension>
            <ns3:atemp>19.0</ns3:atemp>
          </ns3:TrackPointExtension>
        </extensions>
      </trkpt>
      <trkpt lat="42.5631784088909626007080078125" lon="20.04438123665750026702880859375">
        <ele>2078.39990234375</ele>
        <time>2026-06-15T12:14:04.000Z</time>
        <extensions>
          <ns3:TrackPointExtension>
            <ns3:atemp>19.0</ns3:atemp>
          </ns3:TrackPointExtension>
        </extensions>
      </trkpt>
      <trkpt lat="42.56317564286291599273681640625" lon="20.04439230076968669891357421875">
        <ele>2078.39990234375</ele>
        <time>2026-06-15T12:14:05.000Z</time>
        <extensions>
          <ns3:TrackPointExtension>
            <ns3:atemp>19.0</ns3:atemp>
          </ns3:TrackPointExtension>
        </extensions>
      </trkpt>
      <trkpt lat="42.56316944025456905364990234375" lon="20.0444073043763637542724609375">
        <ele>2078.60009765625</ele>
        <time>2026-06-15T12:14:06.000Z</time>
        <extensions>
          <ns3:TrackPointExtension>
            <ns3:atemp>19.0</ns3:atemp>
          </ns3:TrackPointExtension>
        </extensions>
      </trkpt>
      <trkpt lat="42.56315787322819232940673828125" lon="20.04442549310624599456787109375">
        <ele>2078.60009765625</ele>
        <time>2026-06-15T12:14:07.000Z</time>
        <extensions>
          <ns3:TrackPointExtension>
            <ns3:atemp>19.0</ns3:atemp>
          </ns3:TrackPointExtension>
        </extensions>
      </trkpt>
      <trkpt lat="42.563146054744720458984375" lon="20.04444795660674571990966796875">
        <ele>2078.60009765625</ele>
        <time>2026-06-15T12:14:08.000Z</time>
        <extensions>
          <ns3:TrackPointExtension>
            <ns3:atemp>19.0</ns3:atemp>
          </ns3:TrackPointExtension>
        </extensions>
      </trkpt>
      <trkpt lat="42.56313507445156574249267578125" lon="20.0444738566875457763671875">
        <ele>2078.60009765625</ele>
        <time>2026-06-15T12:14:09.000Z</time>
        <extensions>
          <ns3:TrackPointExtension>
            <ns3:atemp>19.0</ns3:atemp>
          </ns3:TrackPointExtension>
        </extensions>
      </trkpt>
      <trkpt lat="42.563124597072601318359375" lon="20.04450227133929729461669921875">
        <ele>2078.800048828125</ele>
        <time>2026-06-15T12:14:10.000Z</time>
        <extensions>
          <ns3:TrackPointExtension>
            <ns3:atemp>19.0</ns3:atemp>
          </ns3:TrackPointExtension>
        </extensions>
      </trkpt>
      <trkpt lat="42.56311244331300258636474609375" lon="20.0445256568491458892822265625">
        <ele>2078.800048828125</ele>
        <time>2026-06-15T12:14:11.000Z</time>
        <extensions>
          <ns3:TrackPointExtension>
            <ns3:atemp>19.0</ns3:atemp>
          </ns3:TrackPointExtension>
        </extensions>
      </trkpt>
      <trkpt lat="42.56310305558145046234130859375" lon="20.04455029964447021484375">
        <ele>2079</ele>
        <time>2026-06-15T12:14:12.000Z</time>
        <extensions>
          <ns3:TrackPointExtension>
            <ns3:atemp>19.0</ns3:atemp>
          </ns3:TrackPointExtension>
        </extensions>
      </trkpt>
      <trkpt lat="42.5630959309637546539306640625" lon="20.04458106122910976409912109375">
        <ele>2079</ele>
        <time>2026-06-15T12:14:13.000Z</time>
        <extensions>
          <ns3:TrackPointExtension>
            <ns3:atemp>19.0</ns3:atemp>
          </ns3:TrackPointExtension>
        </extensions>
      </trkpt>
      <trkpt lat="42.56309366784989833831787109375" lon="20.04461660049855709075927734375">
        <ele>2079.199951171875</ele>
        <time>2026-06-15T12:14:14.000Z</time>
        <extensions>
          <ns3:TrackPointExtension>
            <ns3:atemp>19.0</ns3:atemp>
          </ns3:TrackPointExtension>
        </extensions>
      </trkpt>
      <trkpt lat="42.56309718824923038482666015625" lon="20.044653229415416717529296875">
        <ele>2079.39990234375</ele>
        <time>2026-06-15T12:14:15.000Z</time>
        <extensions>
          <ns3:TrackPointExtension>
            <ns3:atemp>19.0</ns3:atemp>
          </ns3:TrackPointExtension>
        </extensions>
      </trkpt>
      <trkpt lat="42.5630949251353740692138671875" lon="20.044674687087535858154296875">
        <ele>2079.60009765625</ele>
        <time>2026-06-15T12:14:16.000Z</time>
        <extensions>
          <ns3:TrackPointExtension>
            <ns3:atemp>19.0</ns3:atemp>
          </ns3:TrackPointExtension>
        </extensions>
      </trkpt>
      <trkpt lat="42.563092745840549468994140625" lon="20.04468902014195919036865234375">
        <ele>2079.800048828125</ele>
        <time>2026-06-15T12:14:17.000Z</time>
        <extensions>
          <ns3:TrackPointExtension>
            <ns3:atemp>19.0</ns3:atemp>
          </ns3:TrackPointExtension>
        </extensions>
      </trkpt>
      <trkpt lat="42.56308897398412227630615234375" lon="20.04469673149287700653076171875">
        <ele>2080</ele>
        <time>2026-06-15T12:14:18.000Z</time>
        <extensions>
          <ns3:TrackPointExtension>
            <ns3:atemp>19.0</ns3:atemp>
          </ns3:TrackPointExtension>
        </extensions>
      </trkpt>
      <trkpt lat="42.5630878843367099761962890625" lon="20.0447073765099048614501953125">
        <ele>2080</ele>
        <time>2026-06-15T12:14:19.000Z</time>
        <extensions>
          <ns3:TrackPointExtension>
            <ns3:atemp>19.0</ns3:atemp>
          </ns3:TrackPointExtension>
        </extensions>
      </trkpt>
      <trkpt lat="42.5630872137844562530517578125" lon="20.04472757689654827117919921875">
        <ele>2080.199951171875</ele>
        <time>2026-06-15T12:14:20.000Z</time>
        <extensions>
          <ns3:TrackPointExtension>
            <ns3:atemp>19.0</ns3:atemp>
          </ns3:TrackPointExtension>
        </extensions>
      </trkpt>
      <trkpt lat="42.56308595649898052215576171875" lon="20.0447425805032253265380859375">
        <ele>2080.39990234375</ele>
        <time>2026-06-15T12:14:21.000Z</time>
        <extensions>
          <ns3:TrackPointExtension>
            <ns3:atemp>19.0</ns3:atemp>
          </ns3:TrackPointExtension>
        </extensions>
      </trkpt>
      <trkpt lat="42.56308478303253650665283203125" lon="20.0447502918541431427001953125">
        <ele>2080.39990234375</ele>
        <time>2026-06-15T12:14:22.000Z</time>
        <extensions>
          <ns3:TrackPointExtension>
            <ns3:atemp>19.0</ns3:atemp>
          </ns3:TrackPointExtension>
        </extensions>
      </trkpt>
      <trkpt lat="42.56308176554739475250244140625" lon="20.0447650440037250518798828125">
        <ele>2080.39990234375</ele>
        <time>2026-06-15T12:14:23.000Z</time>
        <extensions>
          <ns3:TrackPointExtension>
            <ns3:atemp>19.0</ns3:atemp>
          </ns3:TrackPointExtension>
        </extensions>
      </trkpt>
      <trkpt lat="42.56307908333837985992431640625" lon="20.04478038288652896881103515625">
        <ele>2080.39990234375</ele>
        <time>2026-06-15T12:14:24.000Z</time>
        <extensions>
          <ns3:TrackPointExtension>
            <ns3:atemp>19.0</ns3:atemp>
          </ns3:TrackPointExtension>
        </extensions>
      </trkpt>
      <trkpt lat="42.56307455711066722869873046875" lon="20.04480200819671154022216796875">
        <ele>2080.39990234375</ele>
        <time>2026-06-15T12:14:25.000Z</time>
        <extensions>
          <ns3:TrackPointExtension>
            <ns3:atemp>19.0</ns3:atemp>
          </ns3:TrackPointExtension>
        </extensions>
      </trkpt>
      <trkpt lat="42.5630696117877960205078125" lon="20.04482849501073360443115234375">
        <ele>2080.39990234375</ele>
        <time>2026-06-15T12:14:26.000Z</time>
        <extensions>
          <ns3:TrackPointExtension>
            <ns3:atemp>19.0</ns3:atemp>
          </ns3:TrackPointExtension>
        </extensions>
      </trkpt>
      <trkpt lat="42.56306315772235393524169921875" lon="20.0448646210134029388427734375">
        <ele>2080.39990234375</ele>
        <time>2026-06-15T12:14:27.000Z</time>
        <extensions>
          <ns3:TrackPointExtension>
            <ns3:atemp>19.0</ns3:atemp>
          </ns3:TrackPointExtension>
        </extensions>
      </trkpt>
      <trkpt lat="42.563057206571102142333984375" lon="20.04490527324378490447998046875">
        <ele>2080.39990234375</ele>
        <time>2026-06-15T12:14:28.000Z</time>
        <extensions>
          <ns3:TrackPointExtension>
            <ns3:atemp>19.0</ns3:atemp>
          </ns3:TrackPointExtension>
        </extensions>
      </trkpt>
      <trkpt lat="42.56305376999080181121826171875" lon="20.04495187662541866302490234375">
        <ele>2080.60009765625</ele>
        <time>2026-06-15T12:14:29.000Z</time>
        <extensions>
          <ns3:TrackPointExtension>
            <ns3:atemp>19.0</ns3:atemp>
          </ns3:TrackPointExtension>
        </extensions>
      </trkpt>
      <trkpt lat="42.563054524362087249755859375" lon="20.0450007431209087371826171875">
        <ele>2080.800048828125</ele>
        <time>2026-06-15T12:14:30.000Z</time>
        <extensions>
          <ns3:TrackPointExtension>
            <ns3:atemp>19.0</ns3:atemp>
          </ns3:TrackPointExtension>
        </extensions>
      </trkpt>
      <trkpt lat="42.56305712275207042694091796875" lon="20.04504692740738391876220703125">
        <ele>2081</ele>
        <time>2026-06-15T12:14:31.000Z</time>
        <extensions>
          <ns3:TrackPointExtension>
            <ns3:atemp>19.0</ns3:atemp>
          </ns3:TrackPointExtension>
        </extensions>
      </trkpt>
      <trkpt lat="42.5630550272762775421142578125" lon="20.04508665762841701507568359375">
        <ele>2081.39990234375</ele>
        <time>2026-06-15T12:14:32.000Z</time>
        <extensions>
          <ns3:TrackPointExtension>
            <ns3:atemp>19.0</ns3:atemp>
          </ns3:TrackPointExtension>
        </extensions>
      </trkpt>
      <trkpt lat="42.56305427290499210357666015625" lon="20.04513225518167018890380859375">
        <ele>2081.800048828125</ele>
        <time>2026-06-15T12:14:33.000Z</time>
        <extensions>
          <ns3:TrackPointExtension>
            <ns3:atemp>19.0</ns3:atemp>
          </ns3:TrackPointExtension>
        </extensions>
      </trkpt>
      <trkpt lat="42.56306030787527561187744140625" lon="20.0451807864010334014892578125">
        <ele>2082.199951171875</ele>
        <time>2026-06-15T12:14:34.000Z</time>
        <extensions>
          <ns3:TrackPointExtension>
            <ns3:atemp>19.0</ns3:atemp>
          </ns3:TrackPointExtension>
        </extensions>
      </trkpt>
      <trkpt lat="42.563069276511669158935546875" lon="20.04523334093391895294189453125">
        <ele>2082.800048828125</ele>
        <time>2026-06-15T12:14:35.000Z</time>
        <extensions>
          <ns3:TrackPointExtension>
            <ns3:atemp>19.0</ns3:atemp>
          </ns3:TrackPointExtension>
        </extensions>
      </trkpt>
      <trkpt lat="42.56307824514806270599365234375" lon="20.04528882913291454315185546875">
        <ele>2083.39990234375</ele>
        <time>2026-06-15T12:14:36.000Z</time>
        <extensions>
          <ns3:TrackPointExtension>
            <ns3:atemp>19.0</ns3:atemp>
          </ns3:TrackPointExtension>
        </extensions>
      </trkpt>
      <trkpt lat="42.5630912370979785919189453125" lon="20.045351944863796234130859375">
        <ele>2083.800048828125</ele>
        <time>2026-06-15T12:14:37.000Z</time>
        <extensions>
          <ns3:TrackPointExtension>
            <ns3:atemp>19.0</ns3:atemp>
          </ns3:TrackPointExtension>
        </extensions>
      </trkpt>
      <trkpt lat="42.56308997981250286102294921875" lon="20.0454127974808216094970703125">
        <ele>2084</ele>
        <time>2026-06-15T12:14:38.000Z</time>
        <extensions>
          <ns3:TrackPointExtension>
            <ns3:atemp>19.0</ns3:atemp>
          </ns3:TrackPointExtension>
        </extensions>
      </trkpt>
      <trkpt lat="42.56308562122285366058349609375" lon="20.0454734824597835540771484375">
        <ele>2084.39990234375</ele>
        <time>2026-06-15T12:14:39.000Z</time>
        <extensions>
          <ns3:TrackPointExtension>
            <ns3:atemp>19.0</ns3:atemp>
          </ns3:TrackPointExtension>
        </extensions>
      </trkpt>
      <trkpt lat="42.56307707168161869049072265625" lon="20.045530982315540313720703125">
        <ele>2084.800048828125</ele>
        <time>2026-06-15T12:14:40.000Z</time>
        <extensions>
          <ns3:TrackPointExtension>
            <ns3:atemp>19.0</ns3:atemp>
          </ns3:TrackPointExtension>
        </extensions>
      </trkpt>
      <trkpt lat="42.5630644150078296661376953125" lon="20.0455928407609462738037109375">
        <ele>2085</ele>
        <time>2026-06-15T12:14:41.000Z</time>
        <extensions>
          <ns3:TrackPointExtension>
            <ns3:atemp>19.0</ns3:atemp>
          </ns3:TrackPointExtension>
        </extensions>
      </trkpt>
      <trkpt lat="42.563048489391803741455078125" lon="20.04565335810184478759765625">
        <ele>2085.39990234375</ele>
        <time>2026-06-15T12:14:42.000Z</time>
        <extensions>
          <ns3:TrackPointExtension>
            <ns3:atemp>19.0</ns3:atemp>
          </ns3:TrackPointExtension>
        </extensions>
      </trkpt>
      <trkpt lat="42.56303197704255580902099609375" lon="20.04571462981402873992919921875">
        <ele>2085.60009765625</ele>
        <time>2026-06-15T12:14:43.000Z</time>
        <extensions>
          <ns3:TrackPointExtension>
            <ns3:atemp>19.0</ns3:atemp>
          </ns3:TrackPointExtension>
        </extensions>
      </trkpt>
      <trkpt lat="42.56301420740783214569091796875" lon="20.045769698917865753173828125">
        <ele>2085.60009765625</ele>
        <time>2026-06-15T12:14:44.000Z</time>
        <extensions>
          <ns3:TrackPointExtension>
            <ns3:atemp>19.0</ns3:atemp>
          </ns3:TrackPointExtension>
        </extensions>
      </trkpt>
      <trkpt lat="42.56299861706793308258056640625" lon="20.0458033941686153411865234375">
        <ele>2085.60009765625</ele>
        <time>2026-06-15T12:14:45.000Z</time>
        <extensions>
          <ns3:TrackPointExtension>
            <ns3:atemp>19.0</ns3:atemp>
          </ns3:TrackPointExtension>
        </extensions>
      </trkpt>
      <trkpt lat="42.56298637948930263519287109375" lon="20.04582460038363933563232421875">
        <ele>2085.60009765625</ele>
        <time>2026-06-15T12:14:46.000Z</time>
        <extensions>
          <ns3:TrackPointExtension>
            <ns3:atemp>19.0</ns3:atemp>
          </ns3:TrackPointExtension>
        </extensions>
      </trkpt>
      <trkpt lat="42.56297682411968708038330078125" lon="20.045854859054088592529296875">
        <ele>2085.60009765625</ele>
        <time>2026-06-15T12:14:47.000Z</time>
        <extensions>
          <ns3:TrackPointExtension>
            <ns3:atemp>19.0</ns3:atemp>
          </ns3:TrackPointExtension>
        </extensions>
      </trkpt>
      <trkpt lat="42.56296508945524692535400390625" lon="20.04589232616126537322998046875">
        <ele>2085.60009765625</ele>
        <time>2026-06-15T12:14:48.000Z</time>
        <extensions>
          <ns3:TrackPointExtension>
            <ns3:atemp>19.0</ns3:atemp>
          </ns3:TrackPointExtension>
        </extensions>
      </trkpt>
      <trkpt lat="42.56294262595474720001220703125" lon="20.04592384211719036102294921875">
        <ele>2085.60009765625</ele>
        <time>2026-06-15T12:14:49.000Z</time>
        <extensions>
          <ns3:TrackPointExtension>
            <ns3:atemp>19.0</ns3:atemp>
          </ns3:TrackPointExtension>
        </extensions>
      </trkpt>
      <trkpt lat="42.5629145465791225433349609375" lon="20.04596491344273090362548828125">
        <ele>2085.39990234375</ele>
        <time>2026-06-15T12:14:50.000Z</time>
        <extensions>
          <ns3:TrackPointExtension>
            <ns3:atemp>19.0</ns3:atemp>
          </ns3:TrackPointExtension>
        </extensions>
      </trkpt>
      <trkpt lat="42.5628847070038318634033203125" lon="20.04601319320499897003173828125">
        <ele>2085.199951171875</ele>
        <time>2026-06-15T12:14:51.000Z</time>
        <extensions>
          <ns3:TrackPointExtension>
            <ns3:atemp>19.0</ns3:atemp>
          </ns3:TrackPointExtension>
        </extensions>
      </trkpt>
      <trkpt lat="42.5628505088388919830322265625" lon="20.04606306552886962890625">
        <ele>2084.800048828125</ele>
        <time>2026-06-15T12:14:52.000Z</time>
        <extensions>
          <ns3:TrackPointExtension>
            <ns3:atemp>19.0</ns3:atemp>
          </ns3:TrackPointExtension>
        </extensions>
      </trkpt>
      <trkpt lat="42.562816478312015533447265625" lon="20.04611075855791568756103515625">
        <ele>2084.39990234375</ele>
        <time>2026-06-15T12:14:53.000Z</time>
        <extensions>
          <ns3:TrackPointExtension>
            <ns3:atemp>19.0</ns3:atemp>
          </ns3:TrackPointExtension>
        </extensions>
      </trkpt>
      <trkpt lat="42.56278487853705883026123046875" lon="20.04615317098796367645263671875">
        <ele>2084</ele>
        <time>2026-06-15T12:14:54.000Z</time>
        <extensions>
          <ns3:TrackPointExtension>
            <ns3:atemp>19.0</ns3:atemp>
          </ns3:TrackPointExtension>
        </extensions>
      </trkpt>
      <trkpt lat="42.56275705061852931976318359375" lon="20.04619759507477283477783203125">
        <ele>2084</ele>
        <time>2026-06-15T12:14:55.000Z</time>
        <extensions>
          <ns3:TrackPointExtension>
            <ns3:atemp>19.0</ns3:atemp>
          </ns3:TrackPointExtension>
        </extensions>
      </trkpt>
      <trkpt lat="42.56273257546126842498779296875" lon="20.04624478518962860107421875">
        <ele>2083.800048828125</ele>
        <time>2026-06-15T12:14:56.000Z</time>
        <extensions>
          <ns3:TrackPointExtension>
            <ns3:atemp>19.0</ns3:atemp>
          </ns3:TrackPointExtension>
        </extensions>
      </trkpt>
      <trkpt lat="42.56271262653172016143798828125" lon="20.04629231058061122894287109375">
        <ele>2083.800048828125</ele>
        <time>2026-06-15T12:14:57.000Z</time>
        <extensions>
          <ns3:TrackPointExtension>
            <ns3:atemp>19.0</ns3:atemp>
          </ns3:TrackPointExtension>
        </extensions>
      </trkpt>
      <trkpt lat="42.56270491518080234527587890625" lon="20.04634645767509937286376953125">
        <ele>2084</ele>
        <time>2026-06-15T12:14:58.000Z</time>
        <extensions>
          <ns3:TrackPointExtension>
            <ns3:atemp>19.0</ns3:atemp>
          </ns3:TrackPointExtension>
        </extensions>
      </trkpt>
      <trkpt lat="42.562706507742404937744140625" lon="20.04639205522835254669189453125">
        <ele>2084.199951171875</ele>
        <time>2026-06-15T12:14:59.000Z</time>
        <extensions>
          <ns3:TrackPointExtension>
            <ns3:atemp>19.0</ns3:atemp>
          </ns3:TrackPointExtension>
        </extensions>
      </trkpt>
      <trkpt lat="42.56270424462854862213134765625" lon="20.0464345514774322509765625">
        <ele>2084.60009765625</ele>
        <time>2026-06-15T12:15:00.000Z</time>
        <extensions>
          <ns3:TrackPointExtension>
            <ns3:atemp>19.0</ns3:atemp>
          </ns3:TrackPointExtension>
        </extensions>
      </trkpt>
      <trkpt lat="42.56269938312470912933349609375" lon="20.04647679626941680908203125">
        <ele>2085</ele>
        <time>2026-06-15T12:15:01.000Z</time>
        <extensions>
          <ns3:TrackPointExtension>
            <ns3:atemp>19.0</ns3:atemp>
          </ns3:TrackPointExtension>
        </extensions>
      </trkpt>
      <trkpt lat="42.562696449458599090576171875" lon="20.04650638438761234283447265625">
        <ele>2085.39990234375</ele>
        <time>2026-06-15T12:15:02.000Z</time>
        <extensions>
          <ns3:TrackPointExtension>
            <ns3:atemp>19.0</ns3:atemp>
          </ns3:TrackPointExtension>
        </extensions>
      </trkpt>
      <trkpt lat="42.56269318051636219024658203125" lon="20.04654041491448879241943359375">
        <ele>2085.800048828125</ele>
        <time>2026-06-15T12:15:03.000Z</time>
        <extensions>
          <ns3:TrackPointExtension>
            <ns3:atemp>19.0</ns3:atemp>
          </ns3:TrackPointExtension>
        </extensions>
      </trkpt>
      <trkpt lat="42.562689743936061859130859375" lon="20.04656908102333545684814453125">
        <ele>2086.39990234375</ele>
        <time>2026-06-15T12:15:04.000Z</time>
        <extensions>
          <ns3:TrackPointExtension>
            <ns3:atemp>19.0</ns3:atemp>
          </ns3:TrackPointExtension>
        </extensions>
      </trkpt>
      <trkpt lat="42.562689743936061859130859375" lon="20.046597160398960113525390625">
        <ele>2087</ele>
        <time>2026-06-15T12:15:05.000Z</time>
        <extensions>
          <ns3:TrackPointExtension>
            <ns3:atemp>19.0</ns3:atemp>
          </ns3:TrackPointExtension>
        </extensions>
      </trkpt>
      <trkpt lat="42.5626969523727893829345703125" lon="20.04662641324102878570556640625">
        <ele>2087.39990234375</ele>
        <time>2026-06-15T12:15:06.000Z</time>
        <extensions>
          <ns3:TrackPointExtension>
            <ns3:atemp>19.0</ns3:atemp>
          </ns3:TrackPointExtension>
        </extensions>
      </trkpt>
      <trkpt lat="42.56269611418247222900390625" lon="20.04665256477892398834228515625">
        <ele>2087.800048828125</ele>
        <time>2026-06-15T12:15:07.000Z</time>
        <extensions>
          <ns3:TrackPointExtension>
            <ns3:atemp>19.0</ns3:atemp>
          </ns3:TrackPointExtension>
        </extensions>
      </trkpt>
      <trkpt lat="42.56269250996410846710205078125" lon="20.04668533802032470703125">
        <ele>2088.199951171875</ele>
        <time>2026-06-15T12:15:08.000Z</time>
        <extensions>
          <ns3:TrackPointExtension>
            <ns3:atemp>19.0</ns3:atemp>
          </ns3:TrackPointExtension>
        </extensions>
      </trkpt>
      <trkpt lat="42.56269535981118679046630859375" lon="20.0467227213084697723388671875">
        <ele>2088.60009765625</ele>
        <time>2026-06-15T12:15:09.000Z</time>
        <extensions>
          <ns3:TrackPointExtension>
            <ns3:atemp>19.0</ns3:atemp>
          </ns3:TrackPointExtension>
        </extensions>
      </trkpt>
      <trkpt lat="42.56269745528697967529296875" lon="20.0467602722346782684326171875">
        <ele>2088.800048828125</ele>
        <time>2026-06-15T12:15:10.000Z</time>
        <extensions>
          <ns3:TrackPointExtension>
            <ns3:atemp>19.0</ns3:atemp>
          </ns3:TrackPointExtension>
        </extensions>
      </trkpt>
      <trkpt lat="42.56269854493439197540283203125" lon="20.04679338075220584869384765625">
        <ele>2089.199951171875</ele>
        <time>2026-06-15T12:15:11.000Z</time>
        <extensions>
          <ns3:TrackPointExtension>
            <ns3:atemp>18.0</ns3:atemp>
          </ns3:TrackPointExtension>
        </extensions>
      </trkpt>
      <trkpt lat="42.5626989640295505523681640625" lon="20.04683026112616062164306640625">
        <ele>2089.60009765625</ele>
        <time>2026-06-15T12:15:12.000Z</time>
        <extensions>
          <ns3:TrackPointExtension>
            <ns3:atemp>18.0</ns3:atemp>
          </ns3:TrackPointExtension>
        </extensions>
      </trkpt>
      <trkpt lat="42.56270005367696285247802734375" lon="20.04686814732849597930908203125">
        <ele>2089.800048828125</ele>
        <time>2026-06-15T12:15:13.000Z</time>
        <extensions>
          <ns3:TrackPointExtension>
            <ns3:atemp>18.0</ns3:atemp>
          </ns3:TrackPointExtension>
        </extensions>
      </trkpt>
      <trkpt lat="42.56270206533372402191162109375" lon="20.0469138287007808685302734375">
        <ele>2090</ele>
        <time>2026-06-15T12:15:14.000Z</time>
        <extensions>
          <ns3:TrackPointExtension>
            <ns3:atemp>18.0</ns3:atemp>
          </ns3:TrackPointExtension>
        </extensions>
      </trkpt>
      <trkpt lat="42.56270013749599456787109375" lon="20.0469570793211460113525390625">
        <ele>2090.199951171875</ele>
        <time>2026-06-15T12:15:15.000Z</time>
        <extensions>
          <ns3:TrackPointExtension>
            <ns3:atemp>18.0</ns3:atemp>
          </ns3:TrackPointExtension>
        </extensions>
      </trkpt>
      <trkpt lat="42.5626959465444087982177734375" lon="20.04700242541730403900146484375">
        <ele>2090.60009765625</ele>
        <time>2026-06-15T12:15:16.000Z</time>
        <extensions>
          <ns3:TrackPointExtension>
            <ns3:atemp>18.0</ns3:atemp>
          </ns3:TrackPointExtension>
        </extensions>
      </trkpt>
      <trkpt lat="42.562691085040569305419921875" lon="20.04704902879893779754638671875">
        <ele>2090.800048828125</ele>
        <time>2026-06-15T12:15:17.000Z</time>
        <extensions>
          <ns3:TrackPointExtension>
            <ns3:atemp>19.0</ns3:atemp>
          </ns3:TrackPointExtension>
        </extensions>
      </trkpt>
      <trkpt lat="42.562689073383808135986328125" lon="20.04709144122898578643798828125">
        <ele>2091</ele>
        <time>2026-06-15T12:15:18.000Z</time>
        <extensions>
          <ns3:TrackPointExtension>
            <ns3:atemp>18.0</ns3:atemp>
          </ns3:TrackPointExtension>
        </extensions>
      </trkpt>
      <trkpt lat="42.56268798373639583587646484375" lon="20.04713402129709720611572265625">
        <ele>2091.39990234375</ele>
        <time>2026-06-15T12:15:19.000Z</time>
        <extensions>
          <ns3:TrackPointExtension>
            <ns3:atemp>19.0</ns3:atemp>
          </ns3:TrackPointExtension>
        </extensions>
      </trkpt>
      <trkpt lat="42.56268546916544437408447265625" lon="20.0471793673932552337646484375">
        <ele>2091.60009765625</ele>
        <time>2026-06-15T12:15:20.000Z</time>
        <extensions>
          <ns3:TrackPointExtension>
            <ns3:atemp>19.0</ns3:atemp>
          </ns3:TrackPointExtension>
        </extensions>
      </trkpt>
      <trkpt lat="42.56268798373639583587646484375" lon="20.04722521640360355377197265625">
        <ele>2092</ele>
        <time>2026-06-15T12:15:21.000Z</time>
        <extensions>
          <ns3:TrackPointExtension>
            <ns3:atemp>19.0</ns3:atemp>
          </ns3:TrackPointExtension>
        </extensions>
      </trkpt>
      <trkpt lat="42.56269385106861591339111328125" lon="20.0472729094326496124267578125">
        <ele>2092.199951171875</ele>
        <time>2026-06-15T12:15:22.000Z</time>
        <extensions>
          <ns3:TrackPointExtension>
            <ns3:atemp>19.0</ns3:atemp>
          </ns3:TrackPointExtension>
        </extensions>
      </trkpt>
      <trkpt lat="42.56269502453505992889404296875" lon="20.047321356832981109619140625">
        <ele>2092.60009765625</ele>
        <time>2026-06-15T12:15:23.000Z</time>
        <extensions>
          <ns3:TrackPointExtension>
            <ns3:atemp>19.0</ns3:atemp>
          </ns3:TrackPointExtension>
        </extensions>
      </trkpt>
      <trkpt lat="42.56269276142120361328125" lon="20.0473641045391559600830078125">
        <ele>2092.800048828125</ele>
        <time>2026-06-15T12:15:24.000Z</time>
        <extensions>
          <ns3:TrackPointExtension>
            <ns3:atemp>19.0</ns3:atemp>
          </ns3:TrackPointExtension>
        </extensions>
      </trkpt>
      <trkpt lat="42.5626833736896514892578125" lon="20.047403164207935333251953125">
        <ele>2093</ele>
        <time>2026-06-15T12:15:25.000Z</time>
        <extensions>
          <ns3:TrackPointExtension>
            <ns3:atemp>19.0</ns3:atemp>
          </ns3:TrackPointExtension>
        </extensions>
      </trkpt>
      <trkpt lat="42.56267507560551166534423828125" lon="20.04744113422930240631103515625">
        <ele>2093.39990234375</ele>
        <time>2026-06-15T12:15:26.000Z</time>
        <extensions>
          <ns3:TrackPointExtension>
            <ns3:atemp>19.0</ns3:atemp>
          </ns3:TrackPointExtension>
        </extensions>
      </trkpt>
      <trkpt lat="42.56266786716878414154052734375" lon="20.04748438484966754913330078125">
        <ele>2093.800048828125</ele>
        <time>2026-06-15T12:15:27.000Z</time>
        <extensions>
          <ns3:TrackPointExtension>
            <ns3:atemp>19.0</ns3:atemp>
          </ns3:TrackPointExtension>
        </extensions>
      </trkpt>
      <trkpt lat="42.56266853772103786468505859375" lon="20.04753098823130130767822265625">
        <ele>2094.199951171875</ele>
        <time>2026-06-15T12:15:28.000Z</time>
        <extensions>
          <ns3:TrackPointExtension>
            <ns3:atemp>19.0</ns3:atemp>
          </ns3:TrackPointExtension>
        </extensions>
      </trkpt>
      <trkpt lat="42.56267130374908447265625" lon="20.047578178346157073974609375">
        <ele>2094.60009765625</ele>
        <time>2026-06-15T12:15:29.000Z</time>
        <extensions>
          <ns3:TrackPointExtension>
            <ns3:atemp>18.0</ns3:atemp>
          </ns3:TrackPointExtension>
        </extensions>
      </trkpt>
      <trkpt lat="42.562677003443241119384765625" lon="20.0476259551942348480224609375">
        <ele>2095</ele>
        <time>2026-06-15T12:15:30.000Z</time>
        <extensions>
          <ns3:TrackPointExtension>
            <ns3:atemp>18.0</ns3:atemp>
          </ns3:TrackPointExtension>
        </extensions>
      </trkpt>
      <trkpt lat="42.5626858882606029510498046875" lon="20.0476708821952342987060546875">
        <ele>2095.39990234375</ele>
        <time>2026-06-15T12:15:31.000Z</time>
        <extensions>
          <ns3:TrackPointExtension>
            <ns3:atemp>18.0</ns3:atemp>
          </ns3:TrackPointExtension>
        </extensions>
      </trkpt>
      <trkpt lat="42.5627033226191997528076171875" lon="20.0477151386439800262451171875">
        <ele>2095.800048828125</ele>
        <time>2026-06-15T12:15:32.000Z</time>
        <extensions>
          <ns3:TrackPointExtension>
            <ns3:atemp>18.0</ns3:atemp>
          </ns3:TrackPointExtension>
        </extensions>
      </trkpt>
      <trkpt lat="42.5627195835113525390625" lon="20.047753192484378814697265625">
        <ele>2096</ele>
        <time>2026-06-15T12:15:33.000Z</time>
        <extensions>
          <ns3:TrackPointExtension>
            <ns3:atemp>18.0</ns3:atemp>
          </ns3:TrackPointExtension>
        </extensions>
      </trkpt>
      <trkpt lat="42.56273022852838039398193359375" lon="20.04778965376317501068115234375">
        <ele>2096.39990234375</ele>
        <time>2026-06-15T12:15:34.000Z</time>
        <extensions>
          <ns3:TrackPointExtension>
            <ns3:atemp>18.0</ns3:atemp>
          </ns3:TrackPointExtension>
        </extensions>
      </trkpt>
      <trkpt lat="42.562738358974456787109375" lon="20.04783667623996734619140625">
        <ele>2096.800048828125</ele>
        <time>2026-06-15T12:15:35.000Z</time>
        <extensions>
          <ns3:TrackPointExtension>
            <ns3:atemp>18.0</ns3:atemp>
          </ns3:TrackPointExtension>
        </extensions>
      </trkpt>
      <trkpt lat="42.56274246610701084136962890625" lon="20.04788286052644252777099609375">
        <ele>2097</ele>
        <time>2026-06-15T12:15:36.000Z</time>
        <extensions>
          <ns3:TrackPointExtension>
            <ns3:atemp>18.0</ns3:atemp>
          </ns3:TrackPointExtension>
        </extensions>
      </trkpt>
      <trkpt lat="42.5627462379634380340576171875" lon="20.04792259074747562408447265625">
        <ele>2097.39990234375</ele>
        <time>2026-06-15T12:15:37.000Z</time>
        <extensions>
          <ns3:TrackPointExtension>
            <ns3:atemp>18.0</ns3:atemp>
          </ns3:TrackPointExtension>
        </extensions>
      </trkpt>
      <trkpt lat="42.56275118328630924224853515625" lon="20.0479615665972232818603515625">
        <ele>2097.800048828125</ele>
        <time>2026-06-15T12:15:38.000Z</time>
        <extensions>
          <ns3:TrackPointExtension>
            <ns3:atemp>18.0</ns3:atemp>
          </ns3:TrackPointExtension>
        </extensions>
      </trkpt>
      <trkpt lat="42.56275570951402187347412109375" lon="20.04799987189471721649169921875">
        <ele>2098.199951171875</ele>
        <time>2026-06-15T12:15:39.000Z</time>
        <extensions>
          <ns3:TrackPointExtension>
            <ns3:atemp>18.0</ns3:atemp>
          </ns3:TrackPointExtension>
        </extensions>
      </trkpt>
      <trkpt lat="42.56275855936110019683837890625" lon="20.04803574644029140472412109375">
        <ele>2098.60009765625</ele>
        <time>2026-06-15T12:15:40.000Z</time>
        <extensions>
          <ns3:TrackPointExtension>
            <ns3:atemp>18.0</ns3:atemp>
          </ns3:TrackPointExtension>
        </extensions>
      </trkpt>
      <trkpt lat="42.56275721825659275054931640625" lon="20.04807530902326107025146484375">
        <ele>2099</ele>
        <time>2026-06-15T12:15:41.000Z</time>
        <extensions>
          <ns3:TrackPointExtension>
            <ns3:atemp>18.0</ns3:atemp>
          </ns3:TrackPointExtension>
        </extensions>
      </trkpt>
      <trkpt lat="42.56275721825659275054931640625" lon="20.04811830818653106689453125">
        <ele>2099.39990234375</ele>
        <time>2026-06-15T12:15:42.000Z</time>
        <extensions>
          <ns3:TrackPointExtension>
            <ns3:atemp>18.0</ns3:atemp>
          </ns3:TrackPointExtension>
        </extensions>
      </trkpt>
      <trkpt lat="42.562752775847911834716796875" lon="20.04815510474145412445068359375">
        <ele>2099.800048828125</ele>
        <time>2026-06-15T12:15:43.000Z</time>
        <extensions>
          <ns3:TrackPointExtension>
            <ns3:atemp>18.0</ns3:atemp>
          </ns3:TrackPointExtension>
        </extensions>
      </trkpt>
      <trkpt lat="42.5627448968589305877685546875" lon="20.048193074762821197509765625">
        <ele>2100.199951171875</ele>
        <time>2026-06-15T12:15:44.000Z</time>
        <extensions>
          <ns3:TrackPointExtension>
            <ns3:atemp>18.0</ns3:atemp>
          </ns3:TrackPointExtension>
        </extensions>
      </trkpt>
      <trkpt lat="42.562744729220867156982421875" lon="20.04822970367968082427978515625">
        <ele>2100.60009765625</ele>
        <time>2026-06-15T12:15:45.000Z</time>
        <extensions>
          <ns3:TrackPointExtension>
            <ns3:atemp>18.0</ns3:atemp>
          </ns3:TrackPointExtension>
        </extensions>
      </trkpt>
      <trkpt lat="42.5627452321350574493408203125" lon="20.0482633151113986968994140625">
        <ele>2101</ele>
        <time>2026-06-15T12:15:46.000Z</time>
        <extensions>
          <ns3:TrackPointExtension>
            <ns3:atemp>18.0</ns3:atemp>
          </ns3:TrackPointExtension>
        </extensions>
      </trkpt>
      <trkpt lat="42.56274498067796230316162109375" lon="20.04829667508602142333984375">
        <ele>2101.60009765625</ele>
        <time>2026-06-15T12:15:47.000Z</time>
        <extensions>
          <ns3:TrackPointExtension>
            <ns3:atemp>18.0</ns3:atemp>
          </ns3:TrackPointExtension>
        </extensions>
      </trkpt>
      <trkpt lat="42.5627435557544231414794921875" lon="20.04833514802157878875732421875">
        <ele>2102</ele>
        <time>2026-06-15T12:15:48.000Z</time>
        <extensions>
          <ns3:TrackPointExtension>
            <ns3:atemp>18.0</ns3:atemp>
          </ns3:TrackPointExtension>
        </extensions>
      </trkpt>
      <trkpt lat="42.5627445615828037261962890625" lon="20.04836968146264553070068359375">
        <ele>2102.60009765625</ele>
        <time>2026-06-15T12:15:49.000Z</time>
        <extensions>
          <ns3:TrackPointExtension>
            <ns3:atemp>18.0</ns3:atemp>
          </ns3:TrackPointExtension>
        </extensions>
      </trkpt>
      <trkpt lat="42.56275000981986522674560546875" lon="20.048402287065982818603515625">
        <ele>2103.199951171875</ele>
        <time>2026-06-15T12:15:50.000Z</time>
        <extensions>
          <ns3:TrackPointExtension>
            <ns3:atemp>18.0</ns3:atemp>
          </ns3:TrackPointExtension>
        </extensions>
      </trkpt>
      <trkpt lat="42.56275570951402187347412109375" lon="20.048436485230922698974609375">
        <ele>2103.60009765625</ele>
        <time>2026-06-15T12:15:51.000Z</time>
        <extensions>
          <ns3:TrackPointExtension>
            <ns3:atemp>18.0</ns3:atemp>
          </ns3:TrackPointExtension>
        </extensions>
      </trkpt>
      <trkpt lat="42.56275872699916362762451171875" lon="20.04847076721489429473876953125">
        <ele>2104</ele>
        <time>2026-06-15T12:15:52.000Z</time>
        <extensions>
          <ns3:TrackPointExtension>
            <ns3:atemp>18.0</ns3:atemp>
          </ns3:TrackPointExtension>
        </extensions>
      </trkpt>
      <trkpt lat="42.5627603195607662200927734375" lon="20.04850580357015132904052734375">
        <ele>2104.800048828125</ele>
        <time>2026-06-15T12:15:53.000Z</time>
        <extensions>
          <ns3:TrackPointExtension>
            <ns3:atemp>18.0</ns3:atemp>
          </ns3:TrackPointExtension>
        </extensions>
      </trkpt>
      <trkpt lat="42.5627613253891468048095703125" lon="20.04854167811572551727294921875">
        <ele>2105.199951171875</ele>
        <time>2026-06-15T12:15:54.000Z</time>
        <extensions>
          <ns3:TrackPointExtension>
            <ns3:atemp>18.0</ns3:atemp>
          </ns3:TrackPointExtension>
        </extensions>
      </trkpt>
      <trkpt lat="42.56276526488363742828369140625" lon="20.04858501255512237548828125">
        <ele>2105.60009765625</ele>
        <time>2026-06-15T12:15:55.000Z</time>
        <extensions>
          <ns3:TrackPointExtension>
            <ns3:atemp>18.0</ns3:atemp>
          </ns3:TrackPointExtension>
        </extensions>
      </trkpt>
      <trkpt lat="42.56277297623455524444580078125" lon="20.04862750880420207977294921875">
        <ele>2106</ele>
        <time>2026-06-15T12:15:56.000Z</time>
        <extensions>
          <ns3:TrackPointExtension>
            <ns3:atemp>18.0</ns3:atemp>
          </ns3:TrackPointExtension>
        </extensions>
      </trkpt>
      <trkpt lat="42.56277632899582386016845703125" lon="20.04866858012974262237548828125">
        <ele>2106.60009765625</ele>
        <time>2026-06-15T12:15:57.000Z</time>
        <extensions>
          <ns3:TrackPointExtension>
            <ns3:atemp>18.0</ns3:atemp>
          </ns3:TrackPointExtension>
        </extensions>
      </trkpt>
      <trkpt lat="42.562778256833553314208984375" lon="20.04870998673141002655029296875">
        <ele>2107</ele>
        <time>2026-06-15T12:15:58.000Z</time>
        <extensions>
          <ns3:TrackPointExtension>
            <ns3:atemp>18.0</ns3:atemp>
          </ns3:TrackPointExtension>
        </extensions>
      </trkpt>
      <trkpt lat="42.562781274318695068359375" lon="20.04875089041888713836669921875">
        <ele>2107.60009765625</ele>
        <time>2026-06-15T12:15:59.000Z</time>
        <extensions>
          <ns3:TrackPointExtension>
            <ns3:atemp>18.0</ns3:atemp>
          </ns3:TrackPointExtension>
        </extensions>
      </trkpt>
      <trkpt lat="42.5627827830612659454345703125" lon="20.04879288375377655029296875">
        <ele>2108.199951171875</ele>
        <time>2026-06-15T12:16:00.000Z</time>
        <extensions>
          <ns3:TrackPointExtension>
            <ns3:atemp>18.0</ns3:atemp>
          </ns3:TrackPointExtension>
        </extensions>
      </trkpt>
      <trkpt lat="42.56278328597545623779296875" lon="20.0488342903554439544677734375">
        <ele>2109</ele>
        <time>2026-06-15T12:16:01.000Z</time>
        <extensions>
          <ns3:TrackPointExtension>
            <ns3:atemp>18.0</ns3:atemp>
          </ns3:TrackPointExtension>
        </extensions>
      </trkpt>
      <trkpt lat="42.56278353743255138397216796875" lon="20.04887200891971588134765625">
        <ele>2109.60009765625</ele>
        <time>2026-06-15T12:16:02.000Z</time>
        <extensions>
          <ns3:TrackPointExtension>
            <ns3:atemp>18.0</ns3:atemp>
          </ns3:TrackPointExtension>
        </extensions>
      </trkpt>
      <trkpt lat="42.562779597938060760498046875" lon="20.04891416989266872406005859375">
        <ele>2110.199951171875</ele>
        <time>2026-06-15T12:16:03.000Z</time>
        <extensions>
          <ns3:TrackPointExtension>
            <ns3:atemp>18.0</ns3:atemp>
          </ns3:TrackPointExtension>
        </extensions>
      </trkpt>
      <trkpt lat="42.56277658045291900634765625" lon="20.04895985126495361328125">
        <ele>2110.800048828125</ele>
        <time>2026-06-15T12:16:04.000Z</time>
        <extensions>
          <ns3:TrackPointExtension>
            <ns3:atemp>18.0</ns3:atemp>
          </ns3:TrackPointExtension>
        </extensions>
      </trkpt>
      <trkpt lat="42.5627717189490795135498046875" lon="20.04900905303657054901123046875">
        <ele>2111.39990234375</ele>
        <time>2026-06-15T12:16:05.000Z</time>
        <extensions>
          <ns3:TrackPointExtension>
            <ns3:atemp>18.0</ns3:atemp>
          </ns3:TrackPointExtension>
        </extensions>
      </trkpt>
      <trkpt lat="42.562770545482635498046875" lon="20.04905833862721920013427734375">
        <ele>2112</ele>
        <time>2026-06-15T12:16:06.000Z</time>
        <extensions>
          <ns3:TrackPointExtension>
            <ns3:atemp>18.0</ns3:atemp>
          </ns3:TrackPointExtension>
        </extensions>
      </trkpt>
      <trkpt lat="42.56277389824390411376953125" lon="20.04910578019917011260986328125">
        <ele>2112.39990234375</ele>
        <time>2026-06-15T12:16:07.000Z</time>
        <extensions>
          <ns3:TrackPointExtension>
            <ns3:atemp>18.0</ns3:atemp>
          </ns3:TrackPointExtension>
        </extensions>
      </trkpt>
      <trkpt lat="42.56278119049966335296630859375" lon="20.0491491146385669708251953125">
        <ele>2112.800048828125</ele>
        <time>2026-06-15T12:16:08.000Z</time>
        <extensions>
          <ns3:TrackPointExtension>
            <ns3:atemp>18.0</ns3:atemp>
          </ns3:TrackPointExtension>
        </extensions>
      </trkpt>
      <trkpt lat="42.56279527209699153900146484375" lon="20.0491933710873126983642578125">
        <ele>2113.199951171875</ele>
        <time>2026-06-15T12:16:09.000Z</time>
        <extensions>
          <ns3:TrackPointExtension>
            <ns3:atemp>18.0</ns3:atemp>
          </ns3:TrackPointExtension>
        </extensions>
      </trkpt>
      <trkpt lat="42.56281220354139804840087890625" lon="20.0492356158792972564697265625">
        <ele>2113.60009765625</ele>
        <time>2026-06-15T12:16:10.000Z</time>
        <extensions>
          <ns3:TrackPointExtension>
            <ns3:atemp>18.0</ns3:atemp>
          </ns3:TrackPointExtension>
        </extensions>
      </trkpt>
      <trkpt lat="42.56282947026193141937255859375" lon="20.04927308298647403717041015625">
        <ele>2114</ele>
        <time>2026-06-15T12:16:11.000Z</time>
        <extensions>
          <ns3:TrackPointExtension>
            <ns3:atemp>18.0</ns3:atemp>
          </ns3:TrackPointExtension>
        </extensions>
      </trkpt>
      <trkpt lat="42.5628448091447353363037109375" lon="20.04930510185658931732177734375">
        <ele>2114.199951171875</ele>
        <time>2026-06-15T12:16:12.000Z</time>
        <extensions>
          <ns3:TrackPointExtension>
            <ns3:atemp>18.0</ns3:atemp>
          </ns3:TrackPointExtension>
        </extensions>
      </trkpt>
      <trkpt lat="42.56286165677011013031005859375" lon="20.04934600554406642913818359375">
        <ele>2114.60009765625</ele>
        <time>2026-06-15T12:16:13.000Z</time>
        <extensions>
          <ns3:TrackPointExtension>
            <ns3:atemp>18.0</ns3:atemp>
          </ns3:TrackPointExtension>
        </extensions>
      </trkpt>
      <trkpt lat="42.56288043223321437835693359375" lon="20.04938305355608463287353515625">
        <ele>2114.800048828125</ele>
        <time>2026-06-15T12:16:14.000Z</time>
        <extensions>
          <ns3:TrackPointExtension>
            <ns3:atemp>18.0</ns3:atemp>
          </ns3:TrackPointExtension>
        </extensions>
      </trkpt>
      <trkpt lat="42.56290205754339694976806640625" lon="20.04941649734973907470703125">
        <ele>2115.199951171875</ele>
        <time>2026-06-15T12:16:15.000Z</time>
        <extensions>
          <ns3:TrackPointExtension>
            <ns3:atemp>18.0</ns3:atemp>
          </ns3:TrackPointExtension>
        </extensions>
      </trkpt>
      <trkpt lat="42.56292946636676788330078125" lon="20.0494431518018245697021484375">
        <ele>2115.39990234375</ele>
        <time>2026-06-15T12:16:16.000Z</time>
        <extensions>
          <ns3:TrackPointExtension>
            <ns3:atemp>18.0</ns3:atemp>
          </ns3:TrackPointExtension>
        </extensions>
      </trkpt>
      <trkpt lat="42.56295771338045597076416015625" lon="20.0494654476642608642578125">
        <ele>2115.800048828125</ele>
        <time>2026-06-15T12:16:17.000Z</time>
        <extensions>
          <ns3:TrackPointExtension>
            <ns3:atemp>18.0</ns3:atemp>
          </ns3:TrackPointExtension>
        </extensions>
      </trkpt>
      <trkpt lat="42.56299316883087158203125" lon="20.04947860725224018096923828125">
        <ele>2116.199951171875</ele>
        <time>2026-06-15T12:16:18.000Z</time>
        <extensions>
          <ns3:TrackPointExtension>
            <ns3:atemp>18.0</ns3:atemp>
          </ns3:TrackPointExtension>
        </extensions>
      </trkpt>
      <trkpt lat="42.56302963010966777801513671875" lon="20.0494914315640926361083984375">
        <ele>2116.39990234375</ele>
        <time>2026-06-15T12:16:19.000Z</time>
        <extensions>
          <ns3:TrackPointExtension>
            <ns3:atemp>18.0</ns3:atemp>
          </ns3:TrackPointExtension>
        </extensions>
      </trkpt>
      <trkpt lat="42.5630637444555759429931640625" lon="20.04949905909597873687744140625">
        <ele>2116.800048828125</ele>
        <time>2026-06-15T12:16:20.000Z</time>
        <extensions>
          <ns3:TrackPointExtension>
            <ns3:atemp>18.0</ns3:atemp>
          </ns3:TrackPointExtension>
        </extensions>
      </trkpt>
      <trkpt lat="42.56309635005891323089599609375" lon="20.049506686627864837646484375">
        <ele>2117</ele>
        <time>2026-06-15T12:16:21.000Z</time>
        <extensions>
          <ns3:TrackPointExtension>
            <ns3:atemp>18.0</ns3:atemp>
          </ns3:TrackPointExtension>
        </extensions>
      </trkpt>
      <trkpt lat="42.5631274469196796417236328125" lon="20.0495222769677639007568359375">
        <ele>2117.199951171875</ele>
        <time>2026-06-15T12:16:22.000Z</time>
        <extensions>
          <ns3:TrackPointExtension>
            <ns3:atemp>18.0</ns3:atemp>
          </ns3:TrackPointExtension>
        </extensions>
      </trkpt>
      <trkpt lat="42.563154436647891998291015625" lon="20.049544908106327056884765625">
        <ele>2117.39990234375</ele>
        <time>2026-06-15T12:16:23.000Z</time>
        <extensions>
          <ns3:TrackPointExtension>
            <ns3:atemp>18.0</ns3:atemp>
          </ns3:TrackPointExtension>
        </extensions>
      </trkpt>
      <trkpt lat="42.56317815743386745452880859375" lon="20.04957877099514007568359375">
        <ele>2117.60009765625</ele>
        <time>2026-06-15T12:16:24.000Z</time>
        <extensions>
          <ns3:TrackPointExtension>
            <ns3:atemp>18.0</ns3:atemp>
          </ns3:TrackPointExtension>
        </extensions>
      </trkpt>
      <trkpt lat="42.56320162676274776458740234375" lon="20.0496168248355388641357421875">
        <ele>2117.800048828125</ele>
        <time>2026-06-15T12:16:25.000Z</time>
        <extensions>
          <ns3:TrackPointExtension>
            <ns3:atemp>18.0</ns3:atemp>
          </ns3:TrackPointExtension>
        </extensions>
      </trkpt>
      <trkpt lat="42.5632260181009769439697265625" lon="20.04965253174304962158203125">
        <ele>2117.800048828125</ele>
        <time>2026-06-15T12:16:26.000Z</time>
        <extensions>
          <ns3:TrackPointExtension>
            <ns3:atemp>18.0</ns3:atemp>
          </ns3:TrackPointExtension>
        </extensions>
      </trkpt>
      <trkpt lat="42.56324772723019123077392578125" lon="20.0496889092028141021728515625">
        <ele>2118</ele>
        <time>2026-06-15T12:16:27.000Z</time>
        <extensions>
          <ns3:TrackPointExtension>
            <ns3:atemp>18.0</ns3:atemp>
          </ns3:TrackPointExtension>
        </extensions>
      </trkpt>
      <trkpt lat="42.56327102892100811004638671875" lon="20.04972369410097599029541015625">
        <ele>2118</ele>
        <time>2026-06-15T12:16:28.000Z</time>
        <extensions>
          <ns3:TrackPointExtension>
            <ns3:atemp>18.0</ns3:atemp>
          </ns3:TrackPointExtension>
        </extensions>
      </trkpt>
      <trkpt lat="42.56329164840281009674072265625" lon="20.04975521005690097808837890625">
        <ele>2118.199951171875</ele>
        <time>2026-06-15T12:16:29.000Z</time>
        <extensions>
          <ns3:TrackPointExtension>
            <ns3:atemp>18.0</ns3:atemp>
          </ns3:TrackPointExtension>
        </extensions>
      </trkpt>
      <trkpt lat="42.563310004770755767822265625" lon="20.04978320561349391937255859375">
        <ele>2118.39990234375</ele>
        <time>2026-06-15T12:16:30.000Z</time>
        <extensions>
          <ns3:TrackPointExtension>
            <ns3:atemp>18.0</ns3:atemp>
          </ns3:TrackPointExtension>
        </extensions>
      </trkpt>
      <trkpt lat="42.5633309595286846160888671875" lon="20.04981346428394317626953125">
        <ele>2118.60009765625</ele>
        <time>2026-06-15T12:16:31.000Z</time>
        <extensions>
          <ns3:TrackPointExtension>
            <ns3:atemp>18.0</ns3:atemp>
          </ns3:TrackPointExtension>
        </extensions>
      </trkpt>
      <trkpt lat="42.563355267047882080078125" lon="20.04984942264854907989501953125">
        <ele>2118.800048828125</ele>
        <time>2026-06-15T12:16:32.000Z</time>
        <extensions>
          <ns3:TrackPointExtension>
            <ns3:atemp>18.0</ns3:atemp>
          </ns3:TrackPointExtension>
        </extensions>
      </trkpt>
      <trkpt lat="42.56338217295706272125244140625" lon="20.04988496191799640655517578125">
        <ele>2119.199951171875</ele>
        <time>2026-06-15T12:16:33.000Z</time>
        <extensions>
          <ns3:TrackPointExtension>
            <ns3:atemp>18.0</ns3:atemp>
          </ns3:TrackPointExtension>
        </extensions>
      </trkpt>
      <trkpt lat="42.56341318599879741668701171875" lon="20.04991161637008190155029296875">
        <ele>2119.39990234375</ele>
        <time>2026-06-15T12:16:34.000Z</time>
        <extensions>
          <ns3:TrackPointExtension>
            <ns3:atemp>18.0</ns3:atemp>
          </ns3:TrackPointExtension>
        </extensions>
      </trkpt>
      <trkpt lat="42.56344671361148357391357421875" lon="20.0499308109283447265625">
        <ele>2119.60009765625</ele>
        <time>2026-06-15T12:16:35.000Z</time>
        <extensions>
          <ns3:TrackPointExtension>
            <ns3:atemp>18.0</ns3:atemp>
          </ns3:TrackPointExtension>
        </extensions>
      </trkpt>
      <trkpt lat="42.563482336699962615966796875" lon="20.0499407015740871429443359375">
        <ele>2119.800048828125</ele>
        <time>2026-06-15T12:16:36.000Z</time>
        <extensions>
          <ns3:TrackPointExtension>
            <ns3:atemp>18.0</ns3:atemp>
          </ns3:TrackPointExtension>
        </extensions>
      </trkpt>
      <trkpt lat="42.563517205417156219482421875" lon="20.04994715563952922821044921875">
        <ele>2119.800048828125</ele>
        <time>2026-06-15T12:16:37.000Z</time>
        <extensions>
          <ns3:TrackPointExtension>
            <ns3:atemp>18.0</ns3:atemp>
          </ns3:TrackPointExtension>
        </extensions>
      </trkpt>
      <trkpt lat="42.56355064921081066131591796875" lon="20.04993324168026447296142578125">
        <ele>2120</ele>
        <time>2026-06-15T12:16:38.000Z</time>
        <extensions>
          <ns3:TrackPointExtension>
            <ns3:atemp>18.0</ns3:atemp>
          </ns3:TrackPointExtension>
        </extensions>
      </trkpt>
      <trkpt lat="42.56357948295772075653076171875" lon="20.0499128736555576324462890625">
        <ele>2120.199951171875</ele>
        <time>2026-06-15T12:16:39.000Z</time>
        <extensions>
          <ns3:TrackPointExtension>
            <ns3:atemp>18.0</ns3:atemp>
          </ns3:TrackPointExtension>
        </extensions>
      </trkpt>
      <trkpt lat="42.56360764615237712860107421875" lon="20.0498880632221698760986328125">
        <ele>2120.39990234375</ele>
        <time>2026-06-15T12:16:40.000Z</time>
        <extensions>
          <ns3:TrackPointExtension>
            <ns3:atemp>18.0</ns3:atemp>
          </ns3:TrackPointExtension>
        </extensions>
      </trkpt>
      <trkpt lat="42.56363614462316036224365234375" lon="20.04986216314136981964111328125">
        <ele>2120.39990234375</ele>
        <time>2026-06-15T12:16:41.000Z</time>
        <extensions>
          <ns3:TrackPointExtension>
            <ns3:atemp>18.0</ns3:atemp>
          </ns3:TrackPointExtension>
        </extensions>
      </trkpt>
      <trkpt lat="42.5636602006852626800537109375" lon="20.0498454831540584564208984375">
        <ele>2120.60009765625</ele>
        <time>2026-06-15T12:16:42.000Z</time>
        <extensions>
          <ns3:TrackPointExtension>
            <ns3:atemp>18.0</ns3:atemp>
          </ns3:TrackPointExtension>
        </extensions>
      </trkpt>
      <trkpt lat="42.5636860169470310211181640625" lon="20.049836598336696624755859375">
        <ele>2120.800048828125</ele>
        <time>2026-06-15T12:16:43.000Z</time>
        <extensions>
          <ns3:TrackPointExtension>
            <ns3:atemp>18.0</ns3:atemp>
          </ns3:TrackPointExtension>
        </extensions>
      </trkpt>
      <trkpt lat="42.5637114979326725006103515625" lon="20.049822516739368438720703125">
        <ele>2121</ele>
        <time>2026-06-15T12:16:44.000Z</time>
        <extensions>
          <ns3:TrackPointExtension>
            <ns3:atemp>18.0</ns3:atemp>
          </ns3:TrackPointExtension>
        </extensions>
      </trkpt>
      <trkpt lat="42.56373815238475799560546875" lon="20.04980742931365966796875">
        <ele>2121</ele>
        <time>2026-06-15T12:16:45.000Z</time>
        <extensions>
          <ns3:TrackPointExtension>
            <ns3:atemp>18.0</ns3:atemp>
          </ns3:TrackPointExtension>
        </extensions>
      </trkpt>
      <trkpt lat="42.563765309751033782958984375" lon="20.04979443736374378204345703125">
        <ele>2121.199951171875</ele>
        <time>2026-06-15T12:16:46.000Z</time>
        <extensions>
          <ns3:TrackPointExtension>
            <ns3:atemp>18.0</ns3:atemp>
          </ns3:TrackPointExtension>
        </extensions>
      </trkpt>
      <trkpt lat="42.563790120184421539306640625" lon="20.0497847981750965118408203125">
        <ele>2121.199951171875</ele>
        <time>2026-06-15T12:16:47.000Z</time>
        <extensions>
          <ns3:TrackPointExtension>
            <ns3:atemp>18.0</ns3:atemp>
          </ns3:TrackPointExtension>
        </extensions>
      </trkpt>
      <trkpt lat="42.56381199695169925689697265625" lon="20.0497797690331935882568359375">
        <ele>2121.39990234375</ele>
        <time>2026-06-15T12:16:48.000Z</time>
        <extensions>
          <ns3:TrackPointExtension>
            <ns3:atemp>18.0</ns3:atemp>
          </ns3:TrackPointExtension>
        </extensions>
      </trkpt>
      <trkpt lat="42.5638332031667232513427734375" lon="20.049775578081607818603515625">
        <ele>2121.60009765625</ele>
        <time>2026-06-15T12:16:49.000Z</time>
        <extensions>
          <ns3:TrackPointExtension>
            <ns3:atemp>18.0</ns3:atemp>
          </ns3:TrackPointExtension>
        </extensions>
      </trkpt>
      <trkpt lat="42.56385809741914272308349609375" lon="20.049769878387451171875">
        <ele>2121.60009765625</ele>
        <time>2026-06-15T12:16:50.000Z</time>
        <extensions>
          <ns3:TrackPointExtension>
            <ns3:atemp>18.0</ns3:atemp>
          </ns3:TrackPointExtension>
        </extensions>
      </trkpt>
      <trkpt lat="42.56387989036738872528076171875" lon="20.0497569702565670013427734375">
        <ele>2121.800048828125</ele>
        <time>2026-06-15T12:16:51.000Z</time>
        <extensions>
          <ns3:TrackPointExtension>
            <ns3:atemp>18.0</ns3:atemp>
          </ns3:TrackPointExtension>
        </extensions>
      </trkpt>
      <trkpt lat="42.56390470080077648162841796875" lon="20.0497443974018096923828125">
        <ele>2122</ele>
        <time>2026-06-15T12:16:52.000Z</time>
        <extensions>
          <ns3:TrackPointExtension>
            <ns3:atemp>18.0</ns3:atemp>
          </ns3:TrackPointExtension>
        </extensions>
      </trkpt>
      <trkpt lat="42.56393034942448139190673828125" lon="20.04973676986992359161376953125">
        <ele>2122</ele>
        <time>2026-06-15T12:16:53.000Z</time>
        <extensions>
          <ns3:TrackPointExtension>
            <ns3:atemp>18.0</ns3:atemp>
          </ns3:TrackPointExtension>
        </extensions>
      </trkpt>
      <trkpt lat="42.56395675241947174072265625" lon="20.04972553811967372894287109375">
        <ele>2122.199951171875</ele>
        <time>2026-06-15T12:16:54.000Z</time>
        <extensions>
          <ns3:TrackPointExtension>
            <ns3:atemp>18.0</ns3:atemp>
          </ns3:TrackPointExtension>
        </extensions>
      </trkpt>
      <trkpt lat="42.56398131139576435089111328125" lon="20.049707181751728057861328125">
        <ele>2122.39990234375</ele>
        <time>2026-06-15T12:16:55.000Z</time>
        <extensions>
          <ns3:TrackPointExtension>
            <ns3:atemp>18.0</ns3:atemp>
          </ns3:TrackPointExtension>
        </extensions>
      </trkpt>
      <trkpt lat="42.56400327198207378387451171875" lon="20.0496885739266872406005859375">
        <ele>2122.60009765625</ele>
        <time>2026-06-15T12:16:56.000Z</time>
        <extensions>
          <ns3:TrackPointExtension>
            <ns3:atemp>18.0</ns3:atemp>
          </ns3:TrackPointExtension>
        </extensions>
      </trkpt>
      <trkpt lat="42.56402372382581233978271484375" lon="20.04966150037944316864013671875">
        <ele>2122.800048828125</ele>
        <time>2026-06-15T12:16:57.000Z</time>
        <extensions>
          <ns3:TrackPointExtension>
            <ns3:atemp>18.0</ns3:atemp>
          </ns3:TrackPointExtension>
        </extensions>
      </trkpt>
      <trkpt lat="42.56403981707990169525146484375" lon="20.04963300190865993499755859375">
        <ele>2123</ele>
        <time>2026-06-15T12:16:58.000Z</time>
        <extensions>
          <ns3:TrackPointExtension>
            <ns3:atemp>18.0</ns3:atemp>
          </ns3:TrackPointExtension>
        </extensions>
      </trkpt>
      <trkpt lat="42.56405473686754703521728515625" lon="20.04960802383720874786376953125">
        <ele>2123.199951171875</ele>
        <time>2026-06-15T12:16:59.000Z</time>
        <extensions>
          <ns3:TrackPointExtension>
            <ns3:atemp>18.0</ns3:atemp>
          </ns3:TrackPointExtension>
        </extensions>
      </trkpt>
      <trkpt lat="42.56407233886420726776123046875" lon="20.049587152898311614990234375">
        <ele>2123.60009765625</ele>
        <time>2026-06-15T12:17:00.000Z</time>
        <extensions>
          <ns3:TrackPointExtension>
            <ns3:atemp>18.0</ns3:atemp>
          </ns3:TrackPointExtension>
        </extensions>
      </trkpt>
      <trkpt lat="42.564093880355358123779296875" lon="20.04956510849297046661376953125">
        <ele>2123.800048828125</ele>
        <time>2026-06-15T12:17:01.000Z</time>
        <extensions>
          <ns3:TrackPointExtension>
            <ns3:atemp>18.0</ns3:atemp>
          </ns3:TrackPointExtension>
        </extensions>
      </trkpt>
      <trkpt lat="42.56411357782781124114990234375" lon="20.04953728057444095611572265625">
        <ele>2124.199951171875</ele>
        <time>2026-06-15T12:17:02.000Z</time>
        <extensions>
          <ns3:TrackPointExtension>
            <ns3:atemp>18.0</ns3:atemp>
          </ns3:TrackPointExtension>
        </extensions>
      </trkpt>
      <trkpt lat="42.56413553841412067413330078125" lon="20.04951381124556064605712890625">
        <ele>2124.39990234375</ele>
        <time>2026-06-15T12:17:03.000Z</time>
        <extensions>
          <ns3:TrackPointExtension>
            <ns3:atemp>18.0</ns3:atemp>
          </ns3:TrackPointExtension>
        </extensions>
      </trkpt>
      <trkpt lat="42.56415783427655696868896484375" lon="20.0494991429150104522705078125">
        <ele>2124.800048828125</ele>
        <time>2026-06-15T12:17:04.000Z</time>
        <extensions>
          <ns3:TrackPointExtension>
            <ns3:atemp>18.0</ns3:atemp>
          </ns3:TrackPointExtension>
        </extensions>
      </trkpt>
      <trkpt lat="42.56417728029191493988037109375" lon="20.04947642795741558074951171875">
        <ele>2125</ele>
        <time>2026-06-15T12:17:05.000Z</time>
        <extensions>
          <ns3:TrackPointExtension>
            <ns3:atemp>18.0</ns3:atemp>
          </ns3:TrackPointExtension>
        </extensions>
      </trkpt>
      <trkpt lat="42.56419672630727291107177734375" lon="20.0494525395333766937255859375">
        <ele>2125.199951171875</ele>
        <time>2026-06-15T12:17:06.000Z</time>
        <extensions>
          <ns3:TrackPointExtension>
            <ns3:atemp>18.0</ns3:atemp>
          </ns3:TrackPointExtension>
        </extensions>
      </trkpt>
      <trkpt lat="42.56421692669391632080078125" lon="20.0494327582418918609619140625">
        <ele>2125.60009765625</ele>
        <time>2026-06-15T12:17:07.000Z</time>
        <extensions>
          <ns3:TrackPointExtension>
            <ns3:atemp>18.0</ns3:atemp>
          </ns3:TrackPointExtension>
        </extensions>
      </trkpt>
      <trkpt lat="42.56423679180443286895751953125" lon="20.04941607825458049774169921875">
        <ele>2125.800048828125</ele>
        <time>2026-06-15T12:17:08.000Z</time>
        <extensions>
          <ns3:TrackPointExtension>
            <ns3:atemp>18.0</ns3:atemp>
          </ns3:TrackPointExtension>
        </extensions>
      </trkpt>
      <trkpt lat="42.5642543099820613861083984375" lon="20.04939311183989048004150390625">
        <ele>2126</ele>
        <time>2026-06-15T12:17:09.000Z</time>
        <extensions>
          <ns3:TrackPointExtension>
            <ns3:atemp>18.0</ns3:atemp>
          </ns3:TrackPointExtension>
        </extensions>
      </trkpt>
      <trkpt lat="42.56426428444683551788330078125" lon="20.04936478100717067718505859375">
        <ele>2126.199951171875</ele>
        <time>2026-06-15T12:17:10.000Z</time>
        <extensions>
          <ns3:TrackPointExtension>
            <ns3:atemp>18.0</ns3:atemp>
          </ns3:TrackPointExtension>
        </extensions>
      </trkpt>
      <trkpt lat="42.5642610155045986175537109375" lon="20.0493361987173557281494140625">
        <ele>2126.199951171875</ele>
        <time>2026-06-15T12:17:11.000Z</time>
        <extensions>
          <ns3:TrackPointExtension>
            <ns3:atemp>18.0</ns3:atemp>
          </ns3:TrackPointExtension>
        </extensions>
      </trkpt>
      <trkpt lat="42.56425489671528339385986328125" lon="20.04930392839014530181884765625">
        <ele>2126.199951171875</ele>
        <time>2026-06-15T12:17:12.000Z</time>
        <extensions>
          <ns3:TrackPointExtension>
            <ns3:atemp>18.0</ns3:atemp>
          </ns3:TrackPointExtension>
        </extensions>
      </trkpt>
      <trkpt lat="42.564252130687236785888671875" lon="20.04926721565425395965576171875">
        <ele>2126</ele>
        <time>2026-06-15T12:17:13.000Z</time>
        <extensions>
          <ns3:TrackPointExtension>
            <ns3:atemp>18.0</ns3:atemp>
          </ns3:TrackPointExtension>
        </extensions>
      </trkpt>
      <trkpt lat="42.56425053812563419342041015625" lon="20.04922899417579174041748046875">
        <ele>2125.800048828125</ele>
        <time>2026-06-15T12:17:14.000Z</time>
        <extensions>
          <ns3:TrackPointExtension>
            <ns3:atemp>18.0</ns3:atemp>
          </ns3:TrackPointExtension>
        </extensions>
      </trkpt>
      <trkpt lat="42.56424919702112674713134765625" lon="20.04918658174574375152587890625">
        <ele>2125.60009765625</ele>
        <time>2026-06-15T12:17:15.000Z</time>
        <extensions>
          <ns3:TrackPointExtension>
            <ns3:atemp>18.0</ns3:atemp>
          </ns3:TrackPointExtension>
        </extensions>
      </trkpt>
      <trkpt lat="42.5642489455640316009521484375" lon="20.04914199002087116241455078125">
        <ele>2125.199951171875</ele>
        <time>2026-06-15T12:17:16.000Z</time>
        <extensions>
          <ns3:TrackPointExtension>
            <ns3:atemp>18.0</ns3:atemp>
          </ns3:TrackPointExtension>
        </extensions>
      </trkpt>
      <trkpt lat="42.5642496161162853240966796875" lon="20.04909605719149112701416015625">
        <ele>2124.800048828125</ele>
        <time>2026-06-15T12:17:17.000Z</time>
        <extensions>
          <ns3:TrackPointExtension>
            <ns3:atemp>18.0</ns3:atemp>
          </ns3:TrackPointExtension>
        </extensions>
      </trkpt>
      <trkpt lat="42.564247436821460723876953125" lon="20.0490445084869861602783203125">
        <ele>2124.39990234375</ele>
        <time>2026-06-15T12:17:18.000Z</time>
        <extensions>
          <ns3:TrackPointExtension>
            <ns3:atemp>18.0</ns3:atemp>
          </ns3:TrackPointExtension>
        </extensions>
      </trkpt>
      <trkpt lat="42.5642506219446659088134765625" lon="20.0489898584783077239990234375">
        <ele>2124.199951171875</ele>
        <time>2026-06-15T12:17:19.000Z</time>
        <extensions>
          <ns3:TrackPointExtension>
            <ns3:atemp>18.0</ns3:atemp>
          </ns3:TrackPointExtension>
        </extensions>
      </trkpt>
      <trkpt lat="42.56425892002880573272705078125" lon="20.048935376107692718505859375">
        <ele>2123.800048828125</ele>
        <time>2026-06-15T12:17:20.000Z</time>
        <extensions>
          <ns3:TrackPointExtension>
            <ns3:atemp>18.0</ns3:atemp>
          </ns3:TrackPointExtension>
        </extensions>
      </trkpt>
      <trkpt lat="42.56427400745451450347900390625" lon="20.04888416267931461334228515625">
        <ele>2123.39990234375</ele>
        <time>2026-06-15T12:17:21.000Z</time>
        <extensions>
          <ns3:TrackPointExtension>
            <ns3:atemp>18.0</ns3:atemp>
          </ns3:TrackPointExtension>
        </extensions>
      </trkpt>
      <trkpt lat="42.56428021006286144256591796875" lon="20.04883437417447566986083984375">
        <ele>2123</ele>
        <time>2026-06-15T12:17:22.000Z</time>
        <extensions>
          <ns3:TrackPointExtension>
            <ns3:atemp>18.0</ns3:atemp>
          </ns3:TrackPointExtension>
        </extensions>
      </trkpt>
      <trkpt lat="42.56427585147321224212646484375" lon="20.04877150990068912506103515625">
        <ele>2122.39990234375</ele>
        <time>2026-06-15T12:17:23.000Z</time>
        <extensions>
          <ns3:TrackPointExtension>
            <ns3:atemp>18.0</ns3:atemp>
          </ns3:TrackPointExtension>
        </extensions>
      </trkpt>
      <trkpt lat="42.5642757676541805267333984375" lon="20.04870914854109287261962890625">
        <ele>2122</ele>
        <time>2026-06-15T12:17:24.000Z</time>
        <extensions>
          <ns3:TrackPointExtension>
            <ns3:atemp>18.0</ns3:atemp>
          </ns3:TrackPointExtension>
        </extensions>
      </trkpt>
      <trkpt lat="42.564277611672878265380859375" lon="20.04863798618316650390625">
        <ele>2121.60009765625</ele>
        <time>2026-06-15T12:17:25.000Z</time>
        <extensions>
          <ns3:TrackPointExtension>
            <ns3:atemp>18.0</ns3:atemp>
          </ns3:TrackPointExtension>
        </extensions>
      </trkpt>
      <trkpt lat="42.5642730854451656341552734375" lon="20.04856313578784465789794921875">
        <ele>2121.199951171875</ele>
        <time>2026-06-15T12:17:26.000Z</time>
        <extensions>
          <ns3:TrackPointExtension>
            <ns3:atemp>18.0</ns3:atemp>
          </ns3:TrackPointExtension>
        </extensions>
      </trkpt>
      <trkpt lat="42.564261518418788909912109375" lon="20.048492141067981719970703125">
        <ele>2120.800048828125</ele>
        <time>2026-06-15T12:17:27.000Z</time>
        <extensions>
          <ns3:TrackPointExtension>
            <ns3:atemp>18.0</ns3:atemp>
          </ns3:TrackPointExtension>
        </extensions>
      </trkpt>
      <trkpt lat="42.56425573490560054779052734375" lon="20.04841662012040615081787109375">
        <ele>2120.199951171875</ele>
        <time>2026-06-15T12:17:28.000Z</time>
        <extensions>
          <ns3:TrackPointExtension>
            <ns3:atemp>18.0</ns3:atemp>
          </ns3:TrackPointExtension>
        </extensions>
      </trkpt>
      <trkpt lat="42.5642606802284717559814453125" lon="20.04833883605897426605224609375">
        <ele>2119.60009765625</ele>
        <time>2026-06-15T12:17:29.000Z</time>
        <extensions>
          <ns3:TrackPointExtension>
            <ns3:atemp>18.0</ns3:atemp>
          </ns3:TrackPointExtension>
        </extensions>
      </trkpt>
      <trkpt lat="42.5642497837543487548828125" lon="20.04826758988201618194580078125">
        <ele>2119</ele>
        <time>2026-06-15T12:17:30.000Z</time>
        <extensions>
          <ns3:TrackPointExtension>
            <ns3:atemp>18.0</ns3:atemp>
          </ns3:TrackPointExtension>
        </extensions>
      </trkpt>
      <trkpt lat="42.5642216205596923828125" lon="20.0482036359608173370361328125">
        <ele>2118.199951171875</ele>
        <time>2026-06-15T12:17:31.000Z</time>
        <extensions>
          <ns3:TrackPointExtension>
            <ns3:atemp>18.0</ns3:atemp>
          </ns3:TrackPointExtension>
        </extensions>
      </trkpt>
      <trkpt lat="42.56418608129024505615234375" lon="20.0481426157057285308837890625">
        <ele>2117.39990234375</ele>
        <time>2026-06-15T12:17:32.000Z</time>
        <extensions>
          <ns3:TrackPointExtension>
            <ns3:atemp>18.0</ns3:atemp>
          </ns3:TrackPointExtension>
        </extensions>
      </trkpt>
      <trkpt lat="42.5641639530658721923828125" lon="20.0480681844055652618408203125">
        <ele>2116.60009765625</ele>
        <time>2026-06-15T12:17:33.000Z</time>
        <extensions>
          <ns3:TrackPointExtension>
            <ns3:atemp>18.0</ns3:atemp>
          </ns3:TrackPointExtension>
        </extensions>
      </trkpt>
      <trkpt lat="42.56414324976503849029541015625" lon="20.04799492657184600830078125">
        <ele>2115.60009765625</ele>
        <time>2026-06-15T12:17:34.000Z</time>
        <extensions>
          <ns3:TrackPointExtension>
            <ns3:atemp>18.0</ns3:atemp>
          </ns3:TrackPointExtension>
        </extensions>
      </trkpt>
      <trkpt lat="42.56413268856704235076904296875" lon="20.04791068844497203826904296875">
        <ele>2114.60009765625</ele>
        <time>2026-06-15T12:17:35.000Z</time>
        <extensions>
          <ns3:TrackPointExtension>
            <ns3:atemp>18.0</ns3:atemp>
          </ns3:TrackPointExtension>
        </extensions>
      </trkpt>
      <trkpt lat="42.56413537077605724334716796875" lon="20.04782100208103656768798828125">
        <ele>2113.800048828125</ele>
        <time>2026-06-15T12:17:36.000Z</time>
        <extensions>
          <ns3:TrackPointExtension>
            <ns3:atemp>18.0</ns3:atemp>
          </ns3:TrackPointExtension>
        </extensions>
      </trkpt>
      <trkpt lat="42.56410921923816204071044921875" lon="20.04774740897119045257568359375">
        <ele>2112.800048828125</ele>
        <time>2026-06-15T12:17:37.000Z</time>
        <extensions>
          <ns3:TrackPointExtension>
            <ns3:atemp>18.0</ns3:atemp>
          </ns3:TrackPointExtension>
        </extensions>
      </trkpt>
      <trkpt lat="42.564073763787746429443359375" lon="20.04769049584865570068359375">
        <ele>2112</ele>
        <time>2026-06-15T12:17:38.000Z</time>
        <extensions>
          <ns3:TrackPointExtension>
            <ns3:atemp>18.0</ns3:atemp>
          </ns3:TrackPointExtension>
        </extensions>
      </trkpt>
      <trkpt lat="42.56403897888958454132080078125" lon="20.04763509146869182586669921875">
        <ele>2111.39990234375</ele>
        <time>2026-06-15T12:17:39.000Z</time>
        <extensions>
          <ns3:TrackPointExtension>
            <ns3:atemp>18.0</ns3:atemp>
          </ns3:TrackPointExtension>
        </extensions>
      </trkpt>
      <trkpt lat="42.56401240825653076171875" lon="20.04756820388138294219970703125">
        <ele>2110.800048828125</ele>
        <time>2026-06-15T12:17:40.000Z</time>
        <extensions>
          <ns3:TrackPointExtension>
            <ns3:atemp>18.0</ns3:atemp>
          </ns3:TrackPointExtension>
        </extensions>
      </trkpt>
      <trkpt lat="42.56399136967957019805908203125" lon="20.04750718362629413604736328125">
        <ele>2110</ele>
        <time>2026-06-15T12:17:41.000Z</time>
        <extensions>
          <ns3:TrackPointExtension>
            <ns3:atemp>18.0</ns3:atemp>
          </ns3:TrackPointExtension>
        </extensions>
      </trkpt>
      <trkpt lat="42.56396991200745105743408203125" lon="20.04745823331177234649658203125">
        <ele>2109.199951171875</ele>
        <time>2026-06-15T12:17:42.000Z</time>
        <extensions>
          <ns3:TrackPointExtension>
            <ns3:atemp>18.0</ns3:atemp>
          </ns3:TrackPointExtension>
        </extensions>
      </trkpt>
      <trkpt lat="42.563953734934329986572265625" lon="20.0474150665104389190673828125">
        <ele>2108.39990234375</ele>
        <time>2026-06-15T12:17:43.000Z</time>
        <extensions>
          <ns3:TrackPointExtension>
            <ns3:atemp>18.0</ns3:atemp>
          </ns3:TrackPointExtension>
        </extensions>
      </trkpt>
      <trkpt lat="42.56394292227923870086669921875" lon="20.04738011397421360015869140625">
        <ele>2108</ele>
        <time>2026-06-15T12:17:44.000Z</time>
        <extensions>
          <ns3:TrackPointExtension>
            <ns3:atemp>18.0</ns3:atemp>
          </ns3:TrackPointExtension>
        </extensions>
      </trkpt>
      <trkpt lat="42.5639386475086212158203125" lon="20.04734172485768795013427734375">
        <ele>2107.800048828125</ele>
        <time>2026-06-15T12:17:45.000Z</time>
        <extensions>
          <ns3:TrackPointExtension>
            <ns3:atemp>18.0</ns3:atemp>
          </ns3:TrackPointExtension>
        </extensions>
      </trkpt>
      <trkpt lat="42.563926912844181060791015625" lon="20.04729344509541988372802734375">
        <ele>2107.39990234375</ele>
        <time>2026-06-15T12:17:46.000Z</time>
        <extensions>
          <ns3:TrackPointExtension>
            <ns3:atemp>18.0</ns3:atemp>
          </ns3:TrackPointExtension>
        </extensions>
      </trkpt>
      <trkpt lat="42.5639227218925952911376953125" lon="20.04724969156086444854736328125">
        <ele>2107.199951171875</ele>
        <time>2026-06-15T12:17:47.000Z</time>
        <extensions>
          <ns3:TrackPointExtension>
            <ns3:atemp>18.0</ns3:atemp>
          </ns3:TrackPointExtension>
        </extensions>
      </trkpt>
      <trkpt lat="42.5639089755713939666748046875" lon="20.0472061894834041595458984375">
        <ele>2106.800048828125</ele>
        <time>2026-06-15T12:17:48.000Z</time>
        <extensions>
          <ns3:TrackPointExtension>
            <ns3:atemp>18.0</ns3:atemp>
          </ns3:TrackPointExtension>
        </extensions>
      </trkpt>
      <trkpt lat="42.56389548070728778839111328125" lon="20.04715866409242153167724609375">
        <ele>2106.199951171875</ele>
        <time>2026-06-15T12:17:49.000Z</time>
        <extensions>
          <ns3:TrackPointExtension>
            <ns3:atemp>18.0</ns3:atemp>
          </ns3:TrackPointExtension>
        </extensions>
      </trkpt>
      <trkpt lat="42.5638814829289913177490234375" lon="20.047111809253692626953125">
        <ele>2105.60009765625</ele>
        <time>2026-06-15T12:17:50.000Z</time>
        <extensions>
          <ns3:TrackPointExtension>
            <ns3:atemp>18.0</ns3:atemp>
          </ns3:TrackPointExtension>
        </extensions>
      </trkpt>
      <trkpt lat="42.56386413238942623138427734375" lon="20.0470794551074504852294921875">
        <ele>2105</ele>
        <time>2026-06-15T12:17:51.000Z</time>
        <extensions>
          <ns3:TrackPointExtension>
            <ns3:atemp>18.0</ns3:atemp>
          </ns3:TrackPointExtension>
        </extensions>
      </trkpt>
      <trkpt lat="42.56385139189660549163818359375" lon="20.04703159444034099578857421875">
        <ele>2104.39990234375</ele>
        <time>2026-06-15T12:17:52.000Z</time>
        <extensions>
          <ns3:TrackPointExtension>
            <ns3:atemp>18.0</ns3:atemp>
          </ns3:TrackPointExtension>
        </extensions>
      </trkpt>
      <trkpt lat="42.56384083069860935211181640625" lon="20.04698901437222957611083984375">
        <ele>2103.800048828125</ele>
        <time>2026-06-15T12:17:53.000Z</time>
        <extensions>
          <ns3:TrackPointExtension>
            <ns3:atemp>18.0</ns3:atemp>
          </ns3:TrackPointExtension>
        </extensions>
      </trkpt>
      <trkpt lat="42.56384183652698993682861328125" lon="20.04694660194218158721923828125">
        <ele>2103</ele>
        <time>2026-06-15T12:17:54.000Z</time>
        <extensions>
          <ns3:TrackPointExtension>
            <ns3:atemp>18.0</ns3:atemp>
          </ns3:TrackPointExtension>
        </extensions>
      </trkpt>
      <trkpt lat="42.563857845962047576904296875" lon="20.04690050147473812103271484375">
        <ele>2102</ele>
        <time>2026-06-15T12:17:55.000Z</time>
        <extensions>
          <ns3:TrackPointExtension>
            <ns3:atemp>18.0</ns3:atemp>
          </ns3:TrackPointExtension>
        </extensions>
      </trkpt>
      <trkpt lat="42.5638583488762378692626953125" lon="20.04684836603701114654541015625">
        <ele>2101.199951171875</ele>
        <time>2026-06-15T12:17:56.000Z</time>
        <extensions>
          <ns3:TrackPointExtension>
            <ns3:atemp>18.0</ns3:atemp>
          </ns3:TrackPointExtension>
        </extensions>
      </trkpt>
      <trkpt lat="42.56386480294167995452880859375" lon="20.04679597914218902587890625">
        <ele>2100.39990234375</ele>
        <time>2026-06-15T12:17:57.000Z</time>
        <extensions>
          <ns3:TrackPointExtension>
            <ns3:atemp>18.0</ns3:atemp>
          </ns3:TrackPointExtension>
        </extensions>
      </trkpt>
      <trkpt lat="42.563881985843181610107421875" lon="20.0467431731522083282470703125">
        <ele>2099.39990234375</ele>
        <time>2026-06-15T12:17:58.000Z</time>
        <extensions>
          <ns3:TrackPointExtension>
            <ns3:atemp>18.0</ns3:atemp>
          </ns3:TrackPointExtension>
        </extensions>
      </trkpt>
      <trkpt lat="42.56390520371496677398681640625" lon="20.0466999225318431854248046875">
        <ele>2098.60009765625</ele>
        <time>2026-06-15T12:17:59.000Z</time>
        <extensions>
          <ns3:TrackPointExtension>
            <ns3:atemp>18.0</ns3:atemp>
          </ns3:TrackPointExtension>
        </extensions>
      </trkpt>
      <trkpt lat="42.563920207321643829345703125" lon="20.04667150788009166717529296875">
        <ele>2097.800048828125</ele>
        <time>2026-06-15T12:18:00.000Z</time>
        <extensions>
          <ns3:TrackPointExtension>
            <ns3:atemp>18.0</ns3:atemp>
          </ns3:TrackPointExtension>
        </extensions>
      </trkpt>
      <trkpt lat="42.56392951123416423797607421875" lon="20.04664535634219646453857421875">
        <ele>2097</ele>
        <time>2026-06-15T12:18:01.000Z</time>
        <extensions>
          <ns3:TrackPointExtension>
            <ns3:atemp>18.0</ns3:atemp>
          </ns3:TrackPointExtension>
        </extensions>
      </trkpt>
      <trkpt lat="42.56393739022314548492431640625" lon="20.046625994145870208740234375">
        <ele>2096.39990234375</ele>
        <time>2026-06-15T12:18:02.000Z</time>
        <extensions>
          <ns3:TrackPointExtension>
            <ns3:atemp>18.0</ns3:atemp>
          </ns3:TrackPointExtension>
        </extensions>
      </trkpt>
      <trkpt lat="42.5639414973556995391845703125" lon="20.04659950733184814453125">
        <ele>2095.800048828125</ele>
        <time>2026-06-15T12:18:03.000Z</time>
        <extensions>
          <ns3:TrackPointExtension>
            <ns3:atemp>18.0</ns3:atemp>
          </ns3:TrackPointExtension>
        </extensions>
      </trkpt>
      <trkpt lat="42.56393135525286197662353515625" lon="20.0465812347829341888427734375">
        <ele>2095.199951171875</ele>
        <time>2026-06-15T12:18:04.000Z</time>
        <extensions>
          <ns3:TrackPointExtension>
            <ns3:atemp>18.0</ns3:atemp>
          </ns3:TrackPointExtension>
        </extensions>
      </trkpt>
      <trkpt lat="42.56393236108124256134033203125" lon="20.046547539532184600830078125">
        <ele>2094.60009765625</ele>
        <time>2026-06-15T12:18:05.000Z</time>
        <extensions>
          <ns3:TrackPointExtension>
            <ns3:atemp>18.0</ns3:atemp>
          </ns3:TrackPointExtension>
        </extensions>
      </trkpt>
      <trkpt lat="42.563934288918972015380859375" lon="20.04650588147342205047607421875">
        <ele>2094</ele>
        <time>2026-06-15T12:18:06.000Z</time>
        <extensions>
          <ns3:TrackPointExtension>
            <ns3:atemp>18.0</ns3:atemp>
          </ns3:TrackPointExtension>
        </extensions>
      </trkpt>
      <trkpt lat="42.563935630023479461669921875" lon="20.046465061604976654052734375">
        <ele>2093.60009765625</ele>
        <time>2026-06-15T12:18:07.000Z</time>
        <extensions>
          <ns3:TrackPointExtension>
            <ns3:atemp>18.0</ns3:atemp>
          </ns3:TrackPointExtension>
        </extensions>
      </trkpt>
      <trkpt lat="42.56394292227923870086669921875" lon="20.04641820676624774932861328125">
        <ele>2093</ele>
        <time>2026-06-15T12:18:08.000Z</time>
        <extensions>
          <ns3:TrackPointExtension>
            <ns3:atemp>18.0</ns3:atemp>
          </ns3:TrackPointExtension>
        </extensions>
      </trkpt>
      <trkpt lat="42.5639609433710575103759765625" lon="20.04636657424271106719970703125">
        <ele>2092.60009765625</ele>
        <time>2026-06-15T12:18:09.000Z</time>
        <extensions>
          <ns3:TrackPointExtension>
            <ns3:atemp>18.0</ns3:atemp>
          </ns3:TrackPointExtension>
        </extensions>
      </trkpt>
      <trkpt lat="42.56397929973900318145751953125" lon="20.0463140197098255157470703125">
        <ele>2092</ele>
        <time>2026-06-15T12:18:10.000Z</time>
        <extensions>
          <ns3:TrackPointExtension>
            <ns3:atemp>18.0</ns3:atemp>
          </ns3:TrackPointExtension>
        </extensions>
      </trkpt>
      <trkpt lat="42.56399623118340969085693359375" lon="20.04626615904271602630615234375">
        <ele>2091.39990234375</ele>
        <time>2026-06-15T12:18:11.000Z</time>
        <extensions>
          <ns3:TrackPointExtension>
            <ns3:atemp>18.0</ns3:atemp>
          </ns3:TrackPointExtension>
        </extensions>
      </trkpt>
      <trkpt lat="42.56399472244083881378173828125" lon="20.0462245009839534759521484375">
        <ele>2091</ele>
        <time>2026-06-15T12:18:12.000Z</time>
        <extensions>
          <ns3:TrackPointExtension>
            <ns3:atemp>18.0</ns3:atemp>
          </ns3:TrackPointExtension>
        </extensions>
      </trkpt>
      <trkpt lat="42.56398617289960384368896484375" lon="20.04619625397026538848876953125">
        <ele>2090.39990234375</ele>
        <time>2026-06-15T12:18:13.000Z</time>
        <extensions>
          <ns3:TrackPointExtension>
            <ns3:atemp>18.0</ns3:atemp>
          </ns3:TrackPointExtension>
        </extensions>
      </trkpt>
      <trkpt lat="42.56397360004484653472900390625" lon="20.04616775549948215484619140625">
        <ele>2089.800048828125</ele>
        <time>2026-06-15T12:18:14.000Z</time>
        <extensions>
          <ns3:TrackPointExtension>
            <ns3:atemp>18.0</ns3:atemp>
          </ns3:TrackPointExtension>
        </extensions>
      </trkpt>
      <trkpt lat="42.563953399658203125" lon="20.04613883793354034423828125">
        <ele>2089.39990234375</ele>
        <time>2026-06-15T12:18:15.000Z</time>
        <extensions>
          <ns3:TrackPointExtension>
            <ns3:atemp>18.0</ns3:atemp>
          </ns3:TrackPointExtension>
        </extensions>
      </trkpt>
      <trkpt lat="42.56393386982381343841552734375" lon="20.0461138598620891571044921875">
        <ele>2089</ele>
        <time>2026-06-15T12:18:16.000Z</time>
        <extensions>
          <ns3:TrackPointExtension>
            <ns3:atemp>18.0</ns3:atemp>
          </ns3:TrackPointExtension>
        </extensions>
      </trkpt>
      <trkpt lat="42.56391325034201145172119140625" lon="20.0460773147642612457275390625">
        <ele>2088.60009765625</ele>
        <time>2026-06-15T12:18:17.000Z</time>
        <extensions>
          <ns3:TrackPointExtension>
            <ns3:atemp>18.0</ns3:atemp>
          </ns3:TrackPointExtension>
        </extensions>
      </trkpt>
      <trkpt lat="42.56390034221112728118896484375" lon="20.04602618515491485595703125">
        <ele>2088</ele>
        <time>2026-06-15T12:18:18.000Z</time>
        <extensions>
          <ns3:TrackPointExtension>
            <ns3:atemp>18.0</ns3:atemp>
          </ns3:TrackPointExtension>
        </extensions>
      </trkpt>
      <trkpt lat="42.563883997499942779541015625" lon="20.04597547464072704315185546875">
        <ele>2087.199951171875</ele>
        <time>2026-06-15T12:18:19.000Z</time>
        <extensions>
          <ns3:TrackPointExtension>
            <ns3:atemp>18.0</ns3:atemp>
          </ns3:TrackPointExtension>
        </extensions>
      </trkpt>
      <trkpt lat="42.56388357840478420257568359375" lon="20.04591177217662334442138671875">
        <ele>2086.60009765625</ele>
        <time>2026-06-15T12:18:20.000Z</time>
        <extensions>
          <ns3:TrackPointExtension>
            <ns3:atemp>18.0</ns3:atemp>
          </ns3:TrackPointExtension>
        </extensions>
      </trkpt>
      <trkpt lat="42.563868574798107147216796875" lon="20.04584379494190216064453125">
        <ele>2086</ele>
        <time>2026-06-15T12:18:21.000Z</time>
        <extensions>
          <ns3:TrackPointExtension>
            <ns3:atemp>18.0</ns3:atemp>
          </ns3:TrackPointExtension>
        </extensions>
      </trkpt>
      <trkpt lat="42.5638586841523647308349609375" lon="20.0457854568958282470703125">
        <ele>2085.199951171875</ele>
        <time>2026-06-15T12:18:22.000Z</time>
        <extensions>
          <ns3:TrackPointExtension>
            <ns3:atemp>18.0</ns3:atemp>
          </ns3:TrackPointExtension>
        </extensions>
      </trkpt>
      <trkpt lat="42.56386421620845794677734375" lon="20.04573457874357700347900390625">
        <ele>2084.39990234375</ele>
        <time>2026-06-15T12:18:23.000Z</time>
        <extensions>
          <ns3:TrackPointExtension>
            <ns3:atemp>18.0</ns3:atemp>
          </ns3:TrackPointExtension>
        </extensions>
      </trkpt>
      <trkpt lat="42.56386966444551944732666015625" lon="20.04568143747746944427490234375">
        <ele>2083.800048828125</ele>
        <time>2026-06-15T12:18:24.000Z</time>
        <extensions>
          <ns3:TrackPointExtension>
            <ns3:atemp>18.0</ns3:atemp>
          </ns3:TrackPointExtension>
        </extensions>
      </trkpt>
      <trkpt lat="42.56388223730027675628662109375" lon="20.04563114605844020843505859375">
        <ele>2083.39990234375</ele>
        <time>2026-06-15T12:18:25.000Z</time>
        <extensions>
          <ns3:TrackPointExtension>
            <ns3:atemp>18.0</ns3:atemp>
          </ns3:TrackPointExtension>
        </extensions>
      </trkpt>
      <trkpt lat="42.5638881884515285491943359375" lon="20.045582950115203857421875">
        <ele>2083</ele>
        <time>2026-06-15T12:18:26.000Z</time>
        <extensions>
          <ns3:TrackPointExtension>
            <ns3:atemp>18.0</ns3:atemp>
          </ns3:TrackPointExtension>
        </extensions>
      </trkpt>
      <trkpt lat="42.5638905353844165802001953125" lon="20.04554296843707561492919921875">
        <ele>2082.800048828125</ele>
        <time>2026-06-15T12:18:27.000Z</time>
        <extensions>
          <ns3:TrackPointExtension>
            <ns3:atemp>18.0</ns3:atemp>
          </ns3:TrackPointExtension>
        </extensions>
      </trkpt>
      <trkpt lat="42.56389631889760494232177734375" lon="20.04550977610051631927490234375">
        <ele>2082.60009765625</ele>
        <time>2026-06-15T12:18:28.000Z</time>
        <extensions>
          <ns3:TrackPointExtension>
            <ns3:atemp>18.0</ns3:atemp>
          </ns3:TrackPointExtension>
        </extensions>
      </trkpt>
      <trkpt lat="42.56390352733433246612548828125" lon="20.04547691904008388519287109375">
        <ele>2082.39990234375</ele>
        <time>2026-06-15T12:18:29.000Z</time>
        <extensions>
          <ns3:TrackPointExtension>
            <ns3:atemp>18.0</ns3:atemp>
          </ns3:TrackPointExtension>
        </extensions>
      </trkpt>
      <trkpt lat="42.56391006521880626678466796875" lon="20.04545026458799839019775390625">
        <ele>2082.39990234375</ele>
        <time>2026-06-15T12:18:30.000Z</time>
        <extensions>
          <ns3:TrackPointExtension>
            <ns3:atemp>18.0</ns3:atemp>
          </ns3:TrackPointExtension>
        </extensions>
      </trkpt>
      <trkpt lat="42.5639171898365020751953125" lon="20.04541791044175624847412109375">
        <ele>2082.60009765625</ele>
        <time>2026-06-15T12:18:31.000Z</time>
        <extensions>
          <ns3:TrackPointExtension>
            <ns3:atemp>18.0</ns3:atemp>
          </ns3:TrackPointExtension>
        </extensions>
      </trkpt>
      <trkpt lat="42.56392280571162700653076171875" lon="20.04538622684776782989501953125">
        <ele>2082.800048828125</ele>
        <time>2026-06-15T12:18:32.000Z</time>
        <extensions>
          <ns3:TrackPointExtension>
            <ns3:atemp>18.0</ns3:atemp>
          </ns3:TrackPointExtension>
        </extensions>
      </trkpt>
      <trkpt lat="42.5639321096241474151611328125" lon="20.04534984938800334930419921875">
        <ele>2083</ele>
        <time>2026-06-15T12:18:33.000Z</time>
        <extensions>
          <ns3:TrackPointExtension>
            <ns3:atemp>18.0</ns3:atemp>
          </ns3:TrackPointExtension>
        </extensions>
      </trkpt>
      <trkpt lat="42.56394024007022380828857421875" lon="20.04531682468950748443603515625">
        <ele>2083.199951171875</ele>
        <time>2026-06-15T12:18:34.000Z</time>
        <extensions>
          <ns3:TrackPointExtension>
            <ns3:atemp>18.0</ns3:atemp>
          </ns3:TrackPointExtension>
        </extensions>
      </trkpt>
      <trkpt lat="42.563945017755031585693359375" lon="20.0452796928584575653076171875">
        <ele>2083.39990234375</ele>
        <time>2026-06-15T12:18:35.000Z</time>
        <extensions>
          <ns3:TrackPointExtension>
            <ns3:atemp>18.0</ns3:atemp>
          </ns3:TrackPointExtension>
        </extensions>
      </trkpt>
      <trkpt lat="42.56395080126821994781494140625" lon="20.04524490796029567718505859375">
        <ele>2083.60009765625</ele>
        <time>2026-06-15T12:18:36.000Z</time>
        <extensions>
          <ns3:TrackPointExtension>
            <ns3:atemp>18.0</ns3:atemp>
          </ns3:TrackPointExtension>
        </extensions>
      </trkpt>
      <trkpt lat="42.5639466941356658935546875" lon="20.04521506838500499725341796875">
        <ele>2083.60009765625</ele>
        <time>2026-06-15T12:18:37.000Z</time>
        <extensions>
          <ns3:TrackPointExtension>
            <ns3:atemp>18.0</ns3:atemp>
          </ns3:TrackPointExtension>
        </extensions>
      </trkpt>
      <trkpt lat="42.56393487565219402313232421875" lon="20.0452032499015331268310546875">
        <ele>2083.60009765625</ele>
        <time>2026-06-15T12:18:38.000Z</time>
        <extensions>
          <ns3:TrackPointExtension>
            <ns3:atemp>18.0</ns3:atemp>
          </ns3:TrackPointExtension>
        </extensions>
      </trkpt>
      <trkpt lat="42.56392548792064189910888671875" lon="20.04519562236964702606201171875">
        <ele>2083.39990234375</ele>
        <time>2026-06-15T12:18:39.000Z</time>
        <extensions>
          <ns3:TrackPointExtension>
            <ns3:atemp>18.0</ns3:atemp>
          </ns3:TrackPointExtension>
        </extensions>
      </trkpt>
      <trkpt lat="42.5639227218925952911376953125" lon="20.04518707282841205596923828125">
        <ele>2083.39990234375</ele>
        <time>2026-06-15T12:18:40.000Z</time>
        <extensions>
          <ns3:TrackPointExtension>
            <ns3:atemp>18.0</ns3:atemp>
          </ns3:TrackPointExtension>
        </extensions>
      </trkpt>
      <trkpt lat="42.5639227218925952911376953125" lon="20.04518707282841205596923828125">
        <ele>2083.60009765625</ele>
        <time>2026-06-15T12:18:41.000Z</time>
        <extensions>
          <ns3:TrackPointExtension>
            <ns3:atemp>18.0</ns3:atemp>
          </ns3:TrackPointExtension>
        </extensions>
      </trkpt>
      <trkpt lat="42.5639227218925952911376953125" lon="20.04518707282841205596923828125">
        <ele>2083.800048828125</ele>
        <time>2026-06-15T12:18:42.000Z</time>
        <extensions>
          <ns3:TrackPointExtension>
            <ns3:atemp>18.0</ns3:atemp>
          </ns3:TrackPointExtension>
        </extensions>
      </trkpt>
      <trkpt lat="42.5639227218925952911376953125" lon="20.04518707282841205596923828125">
        <ele>2083.800048828125</ele>
        <time>2026-06-15T12:18:43.000Z</time>
        <extensions>
          <ns3:TrackPointExtension>
            <ns3:atemp>18.0</ns3:atemp>
          </ns3:TrackPointExtension>
        </extensions>
      </trkpt>
      <trkpt lat="42.5639227218925952911376953125" lon="20.04518707282841205596923828125">
        <ele>2083.800048828125</ele>
        <time>2026-06-15T12:18:44.000Z</time>
        <extensions>
          <ns3:TrackPointExtension>
            <ns3:atemp>18.0</ns3:atemp>
          </ns3:TrackPointExtension>
        </extensions>
      </trkpt>
      <trkpt lat="42.5639227218925952911376953125" lon="20.04518707282841205596923828125">
        <ele>2083.800048828125</ele>
        <time>2026-06-15T12:18:45.000Z</time>
        <extensions>
          <ns3:TrackPointExtension>
            <ns3:atemp>18.0</ns3:atemp>
          </ns3:TrackPointExtension>
        </extensions>
      </trkpt>
      <trkpt lat="42.5639227218925952911376953125" lon="20.04518707282841205596923828125">
        <ele>2083.800048828125</ele>
        <time>2026-06-15T12:18:46.000Z</time>
        <extensions>
          <ns3:TrackPointExtension>
            <ns3:atemp>18.0</ns3:atemp>
          </ns3:TrackPointExtension>
        </extensions>
      </trkpt>
      <trkpt lat="42.5639227218925952911376953125" lon="20.04518606700003147125244140625">
        <ele>2083.800048828125</ele>
        <time>2026-06-15T12:18:47.000Z</time>
        <extensions>
          <ns3:TrackPointExtension>
            <ns3:atemp>18.0</ns3:atemp>
          </ns3:TrackPointExtension>
        </extensions>
      </trkpt>
      <trkpt lat="42.56391811184585094451904296875" lon="20.0451672077178955078125">
        <ele>2083.800048828125</ele>
        <time>2026-06-15T12:18:48.000Z</time>
        <extensions>
          <ns3:TrackPointExtension>
            <ns3:atemp>18.0</ns3:atemp>
          </ns3:TrackPointExtension>
        </extensions>
      </trkpt>
      <trkpt lat="42.5639096461236476898193359375" lon="20.045150779187679290771484375">
        <ele>2084.199951171875</ele>
        <time>2026-06-15T12:18:49.000Z</time>
        <extensions>
          <ns3:TrackPointExtension>
            <ns3:atemp>18.0</ns3:atemp>
          </ns3:TrackPointExtension>
        </extensions>
      </trkpt>
      <trkpt lat="42.56391358561813831329345703125" lon="20.04514583386480808258056640625">
        <ele>2084</ele>
        <time>2026-06-15T12:18:50.000Z</time>
        <extensions>
          <ns3:TrackPointExtension>
            <ns3:atemp>18.0</ns3:atemp>
          </ns3:TrackPointExtension>
        </extensions>
      </trkpt>
      <trkpt lat="42.5639136694371700286865234375" lon="20.04514776170253753662109375">
        <ele>2083.800048828125</ele>
        <time>2026-06-15T12:18:51.000Z</time>
        <extensions>
          <ns3:TrackPointExtension>
            <ns3:atemp>18.0</ns3:atemp>
          </ns3:TrackPointExtension>
        </extensions>
      </trkpt>
      <trkpt lat="42.56391358561813831329345703125" lon="20.04514784552156925201416015625">
        <ele>2083.800048828125</ele>
        <time>2026-06-15T12:18:52.000Z</time>
        <extensions>
          <ns3:TrackPointExtension>
            <ns3:atemp>18.0</ns3:atemp>
          </ns3:TrackPointExtension>
        </extensions>
      </trkpt>
      <trkpt lat="42.56391358561813831329345703125" lon="20.04514784552156925201416015625">
        <ele>2083.800048828125</ele>
        <time>2026-06-15T12:18:53.000Z</time>
        <extensions>
          <ns3:TrackPointExtension>
            <ns3:atemp>18.0</ns3:atemp>
          </ns3:TrackPointExtension>
        </extensions>
      </trkpt>
      <trkpt lat="42.56391358561813831329345703125" lon="20.04514784552156925201416015625">
        <ele>2083.800048828125</ele>
        <time>2026-06-15T12:18:54.000Z</time>
        <extensions>
          <ns3:TrackPointExtension>
            <ns3:atemp>18.0</ns3:atemp>
          </ns3:TrackPointExtension>
        </extensions>
      </trkpt>
      <trkpt lat="42.56391358561813831329345703125" lon="20.04514784552156925201416015625">
        <ele>2083.60009765625</ele>
        <time>2026-06-15T12:18:55.000Z</time>
        <extensions>
          <ns3:TrackPointExtension>
            <ns3:atemp>18.0</ns3:atemp>
          </ns3:TrackPointExtension>
        </extensions>
      </trkpt>
      <trkpt lat="42.56391358561813831329345703125" lon="20.04514784552156925201416015625">
        <ele>2083.60009765625</ele>
        <time>2026-06-15T12:18:56.000Z</time>
        <extensions>
          <ns3:TrackPointExtension>
            <ns3:atemp>17.0</ns3:atemp>
          </ns3:TrackPointExtension>
        </extensions>
      </trkpt>
      <trkpt lat="42.56391358561813831329345703125" lon="20.04514784552156925201416015625">
        <ele>2083.39990234375</ele>
        <time>2026-06-15T12:18:57.000Z</time>
        <extensions>
          <ns3:TrackPointExtension>
            <ns3:atemp>17.0</ns3:atemp>
          </ns3:TrackPointExtension>
        </extensions>
      </trkpt>
      <trkpt lat="42.56391358561813831329345703125" lon="20.04514784552156925201416015625">
        <ele>2083.39990234375</ele>
        <time>2026-06-15T12:18:58.000Z</time>
        <extensions>
          <ns3:TrackPointExtension>
            <ns3:atemp>17.0</ns3:atemp>
          </ns3:TrackPointExtension>
        </extensions>
      </trkpt>
      <trkpt lat="42.56391358561813831329345703125" lon="20.04514784552156925201416015625">
        <ele>2083.39990234375</ele>
        <time>2026-06-15T12:18:59.000Z</time>
        <extensions>
          <ns3:TrackPointExtension>
            <ns3:atemp>17.0</ns3:atemp>
          </ns3:TrackPointExtension>
        </extensions>
      </trkpt>
      <trkpt lat="42.56391358561813831329345703125" lon="20.04514784552156925201416015625">
        <ele>2083.39990234375</ele>
        <time>2026-06-15T12:19:00.000Z</time>
        <extensions>
          <ns3:TrackPointExtension>
            <ns3:atemp>17.0</ns3:atemp>
          </ns3:TrackPointExtension>
        </extensions>
      </trkpt>
      <trkpt lat="42.56391358561813831329345703125" lon="20.04514784552156925201416015625">
        <ele>2083.39990234375</ele>
        <time>2026-06-15T12:19:01.000Z</time>
        <extensions>
          <ns3:TrackPointExtension>
            <ns3:atemp>17.0</ns3:atemp>
          </ns3:TrackPointExtension>
        </extensions>
      </trkpt>
      <trkpt lat="42.56391358561813831329345703125" lon="20.04514784552156925201416015625">
        <ele>2083.39990234375</ele>
        <time>2026-06-15T12:19:02.000Z</time>
        <extensions>
          <ns3:TrackPointExtension>
            <ns3:atemp>17.0</ns3:atemp>
          </ns3:TrackPointExtension>
        </extensions>
      </trkpt>
      <trkpt lat="42.56391358561813831329345703125" lon="20.04514784552156925201416015625">
        <ele>2083.199951171875</ele>
        <time>2026-06-15T12:19:03.000Z</time>
        <extensions>
          <ns3:TrackPointExtension>
            <ns3:atemp>17.0</ns3:atemp>
          </ns3:TrackPointExtension>
        </extensions>
      </trkpt>
      <trkpt lat="42.56391358561813831329345703125" lon="20.04514784552156925201416015625">
        <ele>2083.199951171875</ele>
        <time>2026-06-15T12:19:04.000Z</time>
        <extensions>
          <ns3:TrackPointExtension>
            <ns3:atemp>17.0</ns3:atemp>
          </ns3:TrackPointExtension>
        </extensions>
      </trkpt>
      <trkpt lat="42.56391358561813831329345703125" lon="20.04514784552156925201416015625">
        <ele>2083.199951171875</ele>
        <time>2026-06-15T12:19:05.000Z</time>
        <extensions>
          <ns3:TrackPointExtension>
            <ns3:atemp>17.0</ns3:atemp>
          </ns3:TrackPointExtension>
        </extensions>
      </trkpt>
      <trkpt lat="42.56391358561813831329345703125" lon="20.04514784552156925201416015625">
        <ele>2083</ele>
        <time>2026-06-15T12:19:06.000Z</time>
        <extensions>
          <ns3:TrackPointExtension>
            <ns3:atemp>17.0</ns3:atemp>
          </ns3:TrackPointExtension>
        </extensions>
      </trkpt>
      <trkpt lat="42.56391358561813831329345703125" lon="20.04514784552156925201416015625">
        <ele>2083</ele>
        <time>2026-06-15T12:19:07.000Z</time>
        <extensions>
          <ns3:TrackPointExtension>
            <ns3:atemp>17.0</ns3:atemp>
          </ns3:TrackPointExtension>
        </extensions>
      </trkpt>
      <trkpt lat="42.56391358561813831329345703125" lon="20.04514784552156925201416015625">
        <ele>2083</ele>
        <time>2026-06-15T12:19:08.000Z</time>
        <extensions>
          <ns3:TrackPointExtension>
            <ns3:atemp>17.0</ns3:atemp>
          </ns3:TrackPointExtension>
        </extensions>
      </trkpt>
      <trkpt lat="42.56391358561813831329345703125" lon="20.04514784552156925201416015625">
        <ele>2083</ele>
        <time>2026-06-15T12:19:09.000Z</time>
        <extensions>
          <ns3:TrackPointExtension>
            <ns3:atemp>17.0</ns3:atemp>
          </ns3:TrackPointExtension>
        </extensions>
      </trkpt>
      <trkpt lat="42.56391358561813831329345703125" lon="20.04514784552156925201416015625">
        <ele>2083</ele>
        <time>2026-06-15T12:19:10.000Z</time>
        <extensions>
          <ns3:TrackPointExtension>
            <ns3:atemp>18.0</ns3:atemp>
          </ns3:TrackPointExtension>
        </extensions>
      </trkpt>
      <trkpt lat="42.56391358561813831329345703125" lon="20.04514784552156925201416015625">
        <ele>2083</ele>
        <time>2026-06-15T12:19:11.000Z</time>
        <extensions>
          <ns3:TrackPointExtension>
            <ns3:atemp>18.0</ns3:atemp>
          </ns3:TrackPointExtension>
        </extensions>
      </trkpt>
      <trkpt lat="42.56391358561813831329345703125" lon="20.04514784552156925201416015625">
        <ele>2083</ele>
        <time>2026-06-15T12:19:12.000Z</time>
        <extensions>
          <ns3:TrackPointExtension>
            <ns3:atemp>18.0</ns3:atemp>
          </ns3:TrackPointExtension>
        </extensions>
      </trkpt>
      <trkpt lat="42.56391358561813831329345703125" lon="20.04514784552156925201416015625">
        <ele>2082.800048828125</ele>
        <time>2026-06-15T12:19:13.000Z</time>
        <extensions>
          <ns3:TrackPointExtension>
            <ns3:atemp>17.0</ns3:atemp>
          </ns3:TrackPointExtension>
        </extensions>
      </trkpt>
      <trkpt lat="42.56391358561813831329345703125" lon="20.04514784552156925201416015625">
        <ele>2082.800048828125</ele>
        <time>2026-06-15T12:19:14.000Z</time>
        <extensions>
          <ns3:TrackPointExtension>
            <ns3:atemp>18.0</ns3:atemp>
          </ns3:TrackPointExtension>
        </extensions>
      </trkpt>
      <trkpt lat="42.56390981376171112060546875" lon="20.04514734260737895965576171875">
        <ele>2082.800048828125</ele>
        <time>2026-06-15T12:19:15.000Z</time>
        <extensions>
          <ns3:TrackPointExtension>
            <ns3:atemp>18.0</ns3:atemp>
          </ns3:TrackPointExtension>
        </extensions>
      </trkpt>
      <trkpt lat="42.5638928823173046112060546875" lon="20.045134015381336212158203125">
        <ele>2082.60009765625</ele>
        <time>2026-06-15T12:19:16.000Z</time>
        <extensions>
          <ns3:TrackPointExtension>
            <ns3:atemp>18.0</ns3:atemp>
          </ns3:TrackPointExtension>
        </extensions>
      </trkpt>
      <trkpt lat="42.5638831593096256256103515625" lon="20.045115239918231964111328125">
        <ele>2082.60009765625</ele>
        <time>2026-06-15T12:19:17.000Z</time>
        <extensions>
          <ns3:TrackPointExtension>
            <ns3:atemp>17.0</ns3:atemp>
          </ns3:TrackPointExtension>
        </extensions>
      </trkpt>
      <trkpt lat="42.56387217901647090911865234375" lon="20.0450869090855121612548828125">
        <ele>2082.60009765625</ele>
        <time>2026-06-15T12:19:18.000Z</time>
        <extensions>
          <ns3:TrackPointExtension>
            <ns3:atemp>18.0</ns3:atemp>
          </ns3:TrackPointExtension>
        </extensions>
      </trkpt>
      <trkpt lat="42.56386564113199710845947265625" lon="20.045052208006381988525390625">
        <ele>2082.39990234375</ele>
        <time>2026-06-15T12:19:19.000Z</time>
        <extensions>
          <ns3:TrackPointExtension>
            <ns3:atemp>17.0</ns3:atemp>
          </ns3:TrackPointExtension>
        </extensions>
      </trkpt>
      <trkpt lat="42.5638663955032825469970703125" lon="20.04501323215663433074951171875">
        <ele>2082.199951171875</ele>
        <time>2026-06-15T12:19:20.000Z</time>
        <extensions>
          <ns3:TrackPointExtension>
            <ns3:atemp>17.0</ns3:atemp>
          </ns3:TrackPointExtension>
        </extensions>
      </trkpt>
      <trkpt lat="42.5638677366077899932861328125" lon="20.0449709035456180572509765625">
        <ele>2082.199951171875</ele>
        <time>2026-06-15T12:19:21.000Z</time>
        <extensions>
          <ns3:TrackPointExtension>
            <ns3:atemp>17.0</ns3:atemp>
          </ns3:TrackPointExtension>
        </extensions>
      </trkpt>
      <trkpt lat="42.5638720951974391937255859375" lon="20.04492505453526973724365234375">
        <ele>2082</ele>
        <time>2026-06-15T12:19:22.000Z</time>
        <extensions>
          <ns3:TrackPointExtension>
            <ns3:atemp>17.0</ns3:atemp>
          </ns3:TrackPointExtension>
        </extensions>
      </trkpt>
      <trkpt lat="42.56387921981513500213623046875" lon="20.04487677477300167083740234375">
        <ele>2081.800048828125</ele>
        <time>2026-06-15T12:19:23.000Z</time>
        <extensions>
          <ns3:TrackPointExtension>
            <ns3:atemp>17.0</ns3:atemp>
          </ns3:TrackPointExtension>
        </extensions>
      </trkpt>
      <trkpt lat="42.56388709880411624908447265625" lon="20.04482455551624298095703125">
        <ele>2081.60009765625</ele>
        <time>2026-06-15T12:19:24.000Z</time>
        <extensions>
          <ns3:TrackPointExtension>
            <ns3:atemp>17.0</ns3:atemp>
          </ns3:TrackPointExtension>
        </extensions>
      </trkpt>
      <trkpt lat="42.563897073268890380859375" lon="20.044773928821086883544921875">
        <ele>2081.60009765625</ele>
        <time>2026-06-15T12:19:25.000Z</time>
        <extensions>
          <ns3:TrackPointExtension>
            <ns3:atemp>17.0</ns3:atemp>
          </ns3:TrackPointExtension>
        </extensions>
      </trkpt>
      <trkpt lat="42.56390847265720367431640625" lon="20.04472506232559680938720703125">
        <ele>2081.39990234375</ele>
        <time>2026-06-15T12:19:26.000Z</time>
        <extensions>
          <ns3:TrackPointExtension>
            <ns3:atemp>17.0</ns3:atemp>
          </ns3:TrackPointExtension>
        </extensions>
      </trkpt>
      <trkpt lat="42.5639225542545318603515625" lon="20.04467762075364589691162109375">
        <ele>2081.39990234375</ele>
        <time>2026-06-15T12:19:27.000Z</time>
        <extensions>
          <ns3:TrackPointExtension>
            <ns3:atemp>17.0</ns3:atemp>
          </ns3:TrackPointExtension>
        </extensions>
      </trkpt>
      <trkpt lat="42.563940323889255523681640625" lon="20.04462540149688720703125">
        <ele>2081.60009765625</ele>
        <time>2026-06-15T12:19:28.000Z</time>
        <extensions>
          <ns3:TrackPointExtension>
            <ns3:atemp>17.0</ns3:atemp>
          </ns3:TrackPointExtension>
        </extensions>
      </trkpt>
      <trkpt lat="42.56396270357072353363037109375" lon="20.04458692856132984161376953125">
        <ele>2081.800048828125</ele>
        <time>2026-06-15T12:19:29.000Z</time>
        <extensions>
          <ns3:TrackPointExtension>
            <ns3:atemp>17.0</ns3:atemp>
          </ns3:TrackPointExtension>
        </extensions>
      </trkpt>
      <trkpt lat="42.56398969329893589019775390625" lon="20.0445538200438022613525390625">
        <ele>2082.199951171875</ele>
        <time>2026-06-15T12:19:30.000Z</time>
        <extensions>
          <ns3:TrackPointExtension>
            <ns3:atemp>17.0</ns3:atemp>
          </ns3:TrackPointExtension>
        </extensions>
      </trkpt>
      <trkpt lat="42.56401651538908481597900390625" lon="20.04452020861208438873291015625">
        <ele>2082.39990234375</ele>
        <time>2026-06-15T12:19:31.000Z</time>
        <extensions>
          <ns3:TrackPointExtension>
            <ns3:atemp>17.0</ns3:atemp>
          </ns3:TrackPointExtension>
        </extensions>
      </trkpt>
      <trkpt lat="42.56403713487088680267333984375" lon="20.0444773770868778228759765625">
        <ele>2082.800048828125</ele>
        <time>2026-06-15T12:19:32.000Z</time>
        <extensions>
          <ns3:TrackPointExtension>
            <ns3:atemp>17.0</ns3:atemp>
          </ns3:TrackPointExtension>
        </extensions>
      </trkpt>
      <trkpt lat="42.56405306048691272735595703125" lon="20.04443236626684665679931640625">
        <ele>2083.199951171875</ele>
        <time>2026-06-15T12:19:33.000Z</time>
        <extensions>
          <ns3:TrackPointExtension>
            <ns3:atemp>17.0</ns3:atemp>
          </ns3:TrackPointExtension>
        </extensions>
      </trkpt>
      <trkpt lat="42.56405741907656192779541015625" lon="20.04439045675098896026611328125">
        <ele>2083.60009765625</ele>
        <time>2026-06-15T12:19:34.000Z</time>
        <extensions>
          <ns3:TrackPointExtension>
            <ns3:atemp>17.0</ns3:atemp>
          </ns3:TrackPointExtension>
        </extensions>
      </trkpt>
      <trkpt lat="42.56406010128557682037353515625" lon="20.0443415902554988861083984375">
        <ele>2083.800048828125</ele>
        <time>2026-06-15T12:19:35.000Z</time>
        <extensions>
          <ns3:TrackPointExtension>
            <ns3:atemp>17.0</ns3:atemp>
          </ns3:TrackPointExtension>
        </extensions>
      </trkpt>
      <trkpt lat="42.5640528090298175811767578125" lon="20.04428886808454990386962890625">
        <ele>2084</ele>
        <time>2026-06-15T12:19:36.000Z</time>
        <extensions>
          <ns3:TrackPointExtension>
            <ns3:atemp>17.0</ns3:atemp>
          </ns3:TrackPointExtension>
        </extensions>
      </trkpt>
      <trkpt lat="42.56403931416571140289306640625" lon="20.04423581063747406005859375">
        <ele>2084.199951171875</ele>
        <time>2026-06-15T12:19:37.000Z</time>
        <extensions>
          <ns3:TrackPointExtension>
            <ns3:atemp>17.0</ns3:atemp>
          </ns3:TrackPointExtension>
        </extensions>
      </trkpt>
      <trkpt lat="42.5640191137790679931640625" lon="20.044186525046825408935546875">
        <ele>2084.199951171875</ele>
        <time>2026-06-15T12:19:38.000Z</time>
        <extensions>
          <ns3:TrackPointExtension>
            <ns3:atemp>17.0</ns3:atemp>
          </ns3:TrackPointExtension>
        </extensions>
      </trkpt>
      <trkpt lat="42.5639949738979339599609375" lon="20.0441347248852252960205078125">
        <ele>2084</ele>
        <time>2026-06-15T12:19:39.000Z</time>
        <extensions>
          <ns3:TrackPointExtension>
            <ns3:atemp>17.0</ns3:atemp>
          </ns3:TrackPointExtension>
        </extensions>
      </trkpt>
      <trkpt lat="42.5639780424535274505615234375" lon="20.04408300854265689849853515625">
        <ele>2084</ele>
        <time>2026-06-15T12:19:40.000Z</time>
        <extensions>
          <ns3:TrackPointExtension>
            <ns3:atemp>17.0</ns3:atemp>
          </ns3:TrackPointExtension>
        </extensions>
      </trkpt>
      <trkpt lat="42.5639592669904232025146484375" lon="20.04402165301144123077392578125">
        <ele>2083.800048828125</ele>
        <time>2026-06-15T12:19:41.000Z</time>
        <extensions>
          <ns3:TrackPointExtension>
            <ns3:atemp>17.0</ns3:atemp>
          </ns3:TrackPointExtension>
        </extensions>
      </trkpt>
      <trkpt lat="42.56393797695636749267578125" lon="20.04395644180476665496826171875">
        <ele>2083.800048828125</ele>
        <time>2026-06-15T12:19:42.000Z</time>
        <extensions>
          <ns3:TrackPointExtension>
            <ns3:atemp>17.0</ns3:atemp>
          </ns3:TrackPointExtension>
        </extensions>
      </trkpt>
      <trkpt lat="42.56391274742782115936279296875" lon="20.04388720728456974029541015625">
        <ele>2083.60009765625</ele>
        <time>2026-06-15T12:19:43.000Z</time>
        <extensions>
          <ns3:TrackPointExtension>
            <ns3:atemp>17.0</ns3:atemp>
          </ns3:TrackPointExtension>
        </extensions>
      </trkpt>
      <trkpt lat="42.56388944573700428009033203125" lon="20.0438178889453411102294921875">
        <ele>2083.39990234375</ele>
        <time>2026-06-15T12:19:44.000Z</time>
        <extensions>
          <ns3:TrackPointExtension>
            <ns3:atemp>17.0</ns3:atemp>
          </ns3:TrackPointExtension>
        </extensions>
      </trkpt>
      <trkpt lat="42.56387419067323207855224609375" lon="20.043741278350353240966796875">
        <ele>2083</ele>
        <time>2026-06-15T12:19:45.000Z</time>
        <extensions>
          <ns3:TrackPointExtension>
            <ns3:atemp>17.0</ns3:atemp>
          </ns3:TrackPointExtension>
        </extensions>
      </trkpt>
      <trkpt lat="42.5638519786298274993896484375" lon="20.0436703674495220184326171875">
        <ele>2082.60009765625</ele>
        <time>2026-06-15T12:19:46.000Z</time>
        <extensions>
          <ns3:TrackPointExtension>
            <ns3:atemp>17.0</ns3:atemp>
          </ns3:TrackPointExtension>
        </extensions>
      </trkpt>
      <trkpt lat="42.5638197921216487884521484375" lon="20.04360088147222995758056640625">
        <ele>2082.199951171875</ele>
        <time>2026-06-15T12:19:47.000Z</time>
        <extensions>
          <ns3:TrackPointExtension>
            <ns3:atemp>17.0</ns3:atemp>
          </ns3:TrackPointExtension>
        </extensions>
      </trkpt>
      <trkpt lat="42.5637832470238208770751953125" lon="20.04353231750428676605224609375">
        <ele>2081.800048828125</ele>
        <time>2026-06-15T12:19:48.000Z</time>
        <extensions>
          <ns3:TrackPointExtension>
            <ns3:atemp>17.0</ns3:atemp>
          </ns3:TrackPointExtension>
        </extensions>
      </trkpt>
      <trkpt lat="42.563736476004123687744140625" lon="20.043479092419147491455078125">
        <ele>2081.199951171875</ele>
        <time>2026-06-15T12:19:49.000Z</time>
        <extensions>
          <ns3:TrackPointExtension>
            <ns3:atemp>17.0</ns3:atemp>
          </ns3:TrackPointExtension>
        </extensions>
      </trkpt>
      <trkpt lat="42.56368023343384265899658203125" lon="20.043428130447864532470703125">
        <ele>2080.60009765625</ele>
        <time>2026-06-15T12:19:50.000Z</time>
        <extensions>
          <ns3:TrackPointExtension>
            <ns3:atemp>17.0</ns3:atemp>
          </ns3:TrackPointExtension>
        </extensions>
      </trkpt>
      <trkpt lat="42.56363413296639919281005859375" lon="20.04336048848927021026611328125">
        <ele>2080.199951171875</ele>
        <time>2026-06-15T12:19:51.000Z</time>
        <extensions>
          <ns3:TrackPointExtension>
            <ns3:atemp>17.0</ns3:atemp>
          </ns3:TrackPointExtension>
        </extensions>
      </trkpt>
      <trkpt lat="42.563580907881259918212890625" lon="20.04329410381615161895751953125">
        <ele>2079.39990234375</ele>
        <time>2026-06-15T12:19:52.000Z</time>
        <extensions>
          <ns3:TrackPointExtension>
            <ns3:atemp>17.0</ns3:atemp>
          </ns3:TrackPointExtension>
        </extensions>
      </trkpt>
      <trkpt lat="42.5635146908462047576904296875" lon="20.04326493479311466217041015625">
        <ele>2078.800048828125</ele>
        <time>2026-06-15T12:19:53.000Z</time>
        <extensions>
          <ns3:TrackPointExtension>
            <ns3:atemp>17.0</ns3:atemp>
          </ns3:TrackPointExtension>
        </extensions>
      </trkpt>
      <trkpt lat="42.56344847381114959716796875" lon="20.04326728172600269317626953125">
        <ele>2078.199951171875</ele>
        <time>2026-06-15T12:19:54.000Z</time>
        <extensions>
          <ns3:TrackPointExtension>
            <ns3:atemp>17.0</ns3:atemp>
          </ns3:TrackPointExtension>
        </extensions>
      </trkpt>
      <trkpt lat="42.5633815862238407135009765625" lon="20.04328236915171146392822265625">
        <ele>2077.60009765625</ele>
        <time>2026-06-15T12:19:55.000Z</time>
        <extensions>
          <ns3:TrackPointExtension>
            <ns3:atemp>17.0</ns3:atemp>
          </ns3:TrackPointExtension>
        </extensions>
      </trkpt>
      <trkpt lat="42.5633108429610729217529296875" lon="20.043288655579090118408203125">
        <ele>2077</ele>
        <time>2026-06-15T12:19:56.000Z</time>
        <extensions>
          <ns3:TrackPointExtension>
            <ns3:atemp>17.0</ns3:atemp>
          </ns3:TrackPointExtension>
        </extensions>
      </trkpt>
      <trkpt lat="42.56324102170765399932861328125" lon="20.0433226861059665679931640625">
        <ele>2076.199951171875</ele>
        <time>2026-06-15T12:19:57.000Z</time>
        <extensions>
          <ns3:TrackPointExtension>
            <ns3:atemp>17.0</ns3:atemp>
          </ns3:TrackPointExtension>
        </extensions>
      </trkpt>
      <trkpt lat="42.56319089792668819427490234375" lon="20.04339217208325862884521484375">
        <ele>2075.39990234375</ele>
        <time>2026-06-15T12:19:58.000Z</time>
        <extensions>
          <ns3:TrackPointExtension>
            <ns3:atemp>17.0</ns3:atemp>
          </ns3:TrackPointExtension>
        </extensions>
      </trkpt>
      <trkpt lat="42.56314043886959552764892578125" lon="20.043458305299282073974609375">
        <ele>2074</ele>
        <time>2026-06-15T12:19:59.000Z</time>
        <extensions>
          <ns3:TrackPointExtension>
            <ns3:atemp>17.0</ns3:atemp>
          </ns3:TrackPointExtension>
        </extensions>
      </trkpt>
      <trkpt lat="42.5631029717624187469482421875" lon="20.04349577240645885467529296875">
        <ele>2072.800048828125</ele>
        <time>2026-06-15T12:20:00.000Z</time>
        <extensions>
          <ns3:TrackPointExtension>
            <ns3:atemp>17.0</ns3:atemp>
          </ns3:TrackPointExtension>
        </extensions>
      </trkpt>
      <trkpt lat="42.5630687735974788665771484375" lon="20.04351924173533916473388671875">
        <ele>2072.39990234375</ele>
        <time>2026-06-15T12:20:01.000Z</time>
        <extensions>
          <ns3:TrackPointExtension>
            <ns3:atemp>17.0</ns3:atemp>
          </ns3:TrackPointExtension>
        </extensions>
      </trkpt>
      <trkpt lat="42.5630469806492328643798828125" lon="20.04352762363851070404052734375">
        <ele>2072</ele>
        <time>2026-06-15T12:20:02.000Z</time>
        <extensions>
          <ns3:TrackPointExtension>
            <ns3:atemp>17.0</ns3:atemp>
          </ns3:TrackPointExtension>
        </extensions>
      </trkpt>
      <trkpt lat="42.56303667090833187103271484375" lon="20.04354606382548809051513671875">
        <ele>2071.60009765625</ele>
        <time>2026-06-15T12:20:03.000Z</time>
        <extensions>
          <ns3:TrackPointExtension>
            <ns3:atemp>17.0</ns3:atemp>
          </ns3:TrackPointExtension>
        </extensions>
      </trkpt>
      <trkpt lat="42.563025690615177154541015625" lon="20.0435664318501949310302734375">
        <ele>2071.60009765625</ele>
        <time>2026-06-15T12:20:04.000Z</time>
        <extensions>
          <ns3:TrackPointExtension>
            <ns3:atemp>17.0</ns3:atemp>
          </ns3:TrackPointExtension>
        </extensions>
      </trkpt>
      <trkpt lat="42.5630132853984832763671875" lon="20.0435862131416797637939453125">
        <ele>2071.800048828125</ele>
        <time>2026-06-15T12:20:05.000Z</time>
        <extensions>
          <ns3:TrackPointExtension>
            <ns3:atemp>17.0</ns3:atemp>
          </ns3:TrackPointExtension>
        </extensions>
      </trkpt>
      <trkpt lat="42.5630007125437259674072265625" lon="20.043610520660877227783203125">
        <ele>2072</ele>
        <time>2026-06-15T12:20:06.000Z</time>
        <extensions>
          <ns3:TrackPointExtension>
            <ns3:atemp>17.0</ns3:atemp>
          </ns3:TrackPointExtension>
        </extensions>
      </trkpt>
      <trkpt lat="42.5629886426031589508056640625" lon="20.04363977350294589996337890625">
        <ele>2072.39990234375</ele>
        <time>2026-06-15T12:20:07.000Z</time>
        <extensions>
          <ns3:TrackPointExtension>
            <ns3:atemp>17.0</ns3:atemp>
          </ns3:TrackPointExtension>
        </extensions>
      </trkpt>
      <trkpt lat="42.5629832781851291656494140625" lon="20.0436720438301563262939453125">
        <ele>2072.60009765625</ele>
        <time>2026-06-15T12:20:08.000Z</time>
        <extensions>
          <ns3:TrackPointExtension>
            <ns3:atemp>17.0</ns3:atemp>
          </ns3:TrackPointExtension>
        </extensions>
      </trkpt>
      <trkpt lat="42.5629836134612560272216796875" lon="20.0437045656144618988037109375">
        <ele>2073</ele>
        <time>2026-06-15T12:20:09.000Z</time>
        <extensions>
          <ns3:TrackPointExtension>
            <ns3:atemp>17.0</ns3:atemp>
          </ns3:TrackPointExtension>
        </extensions>
      </trkpt>
      <trkpt lat="42.56299115717411041259765625" lon="20.0437364168465137481689453125">
        <ele>2073.39990234375</ele>
        <time>2026-06-15T12:20:10.000Z</time>
        <extensions>
          <ns3:TrackPointExtension>
            <ns3:atemp>17.0</ns3:atemp>
          </ns3:TrackPointExtension>
        </extensions>
      </trkpt>
      <trkpt lat="42.56300230510532855987548828125" lon="20.0437582097947597503662109375">
        <ele>2073.800048828125</ele>
        <time>2026-06-15T12:20:11.000Z</time>
        <extensions>
          <ns3:TrackPointExtension>
            <ns3:atemp>17.0</ns3:atemp>
          </ns3:TrackPointExtension>
        </extensions>
      </trkpt>
      <trkpt lat="42.56301051937043666839599609375" lon="20.0437749736011028289794921875">
        <ele>2074.199951171875</ele>
        <time>2026-06-15T12:20:12.000Z</time>
        <extensions>
          <ns3:TrackPointExtension>
            <ns3:atemp>17.0</ns3:atemp>
          </ns3:TrackPointExtension>
        </extensions>
      </trkpt>
      <trkpt lat="42.56301638670265674591064453125" lon="20.0437977723777294158935546875">
        <ele>2074.39990234375</ele>
        <time>2026-06-15T12:20:13.000Z</time>
        <extensions>
          <ns3:TrackPointExtension>
            <ns3:atemp>17.0</ns3:atemp>
          </ns3:TrackPointExtension>
        </extensions>
      </trkpt>
      <trkpt lat="42.56302778609097003936767578125" lon="20.0438193976879119873046875">
        <ele>2074.60009765625</ele>
        <time>2026-06-15T12:20:14.000Z</time>
        <extensions>
          <ns3:TrackPointExtension>
            <ns3:atemp>17.0</ns3:atemp>
          </ns3:TrackPointExtension>
        </extensions>
      </trkpt>
      <trkpt lat="42.56304287351667881011962890625" lon="20.04383490420877933502197265625">
        <ele>2074.800048828125</ele>
        <time>2026-06-15T12:20:15.000Z</time>
        <extensions>
          <ns3:TrackPointExtension>
            <ns3:atemp>17.0</ns3:atemp>
          </ns3:TrackPointExtension>
        </extensions>
      </trkpt>
      <trkpt lat="42.56305812858045101165771484375" lon="20.04385761916637420654296875">
        <ele>2075</ele>
        <time>2026-06-15T12:20:16.000Z</time>
        <extensions>
          <ns3:TrackPointExtension>
            <ns3:atemp>17.0</ns3:atemp>
          </ns3:TrackPointExtension>
        </extensions>
      </trkpt>
      <trkpt lat="42.56306801922619342803955078125" lon="20.0438822619616985321044921875">
        <ele>2075.39990234375</ele>
        <time>2026-06-15T12:20:17.000Z</time>
        <extensions>
          <ns3:TrackPointExtension>
            <ns3:atemp>17.0</ns3:atemp>
          </ns3:TrackPointExtension>
        </extensions>
      </trkpt>
      <trkpt lat="42.56307841278612613677978515625" lon="20.04390413872897624969482421875">
        <ele>2075.60009765625</ele>
        <time>2026-06-15T12:20:18.000Z</time>
        <extensions>
          <ns3:TrackPointExtension>
            <ns3:atemp>17.0</ns3:atemp>
          </ns3:TrackPointExtension>
        </extensions>
      </trkpt>
      <trkpt lat="42.5630898959934711456298828125" lon="20.04393012262880802154541015625">
        <ele>2075.800048828125</ele>
        <time>2026-06-15T12:20:19.000Z</time>
        <extensions>
          <ns3:TrackPointExtension>
            <ns3:atemp>17.0</ns3:atemp>
          </ns3:TrackPointExtension>
        </extensions>
      </trkpt>
      <trkpt lat="42.5630976073443889617919921875" lon="20.043957196176052093505859375">
        <ele>2076.199951171875</ele>
        <time>2026-06-15T12:20:20.000Z</time>
        <extensions>
          <ns3:TrackPointExtension>
            <ns3:atemp>17.0</ns3:atemp>
          </ns3:TrackPointExtension>
        </extensions>
      </trkpt>
      <trkpt lat="42.56310825236141681671142578125" lon="20.04398192279040813446044921875">
        <ele>2076.39990234375</ele>
        <time>2026-06-15T12:20:21.000Z</time>
        <extensions>
          <ns3:TrackPointExtension>
            <ns3:atemp>17.0</ns3:atemp>
          </ns3:TrackPointExtension>
        </extensions>
      </trkpt>
      <trkpt lat="42.5631177239120006561279296875" lon="20.044011175632476806640625">
        <ele>2076.800048828125</ele>
        <time>2026-06-15T12:20:22.000Z</time>
        <extensions>
          <ns3:TrackPointExtension>
            <ns3:atemp>17.0</ns3:atemp>
          </ns3:TrackPointExtension>
        </extensions>
      </trkpt>
      <trkpt lat="42.56312518380582332611083984375" lon="20.04404176957905292510986328125">
        <ele>2077.199951171875</ele>
        <time>2026-06-15T12:20:23.000Z</time>
        <extensions>
          <ns3:TrackPointExtension>
            <ns3:atemp>17.0</ns3:atemp>
          </ns3:TrackPointExtension>
        </extensions>
      </trkpt>
      <trkpt lat="42.56313373334705829620361328125" lon="20.0440715253353118896484375">
        <ele>2077.39990234375</ele>
        <time>2026-06-15T12:20:24.000Z</time>
        <extensions>
          <ns3:TrackPointExtension>
            <ns3:atemp>17.0</ns3:atemp>
          </ns3:TrackPointExtension>
        </extensions>
      </trkpt>
      <trkpt lat="42.5631385110318660736083984375" lon="20.044099353253841400146484375">
        <ele>2077.800048828125</ele>
        <time>2026-06-15T12:20:25.000Z</time>
        <extensions>
          <ns3:TrackPointExtension>
            <ns3:atemp>17.0</ns3:atemp>
          </ns3:TrackPointExtension>
        </extensions>
      </trkpt>
      <trkpt lat="42.56313893012702465057373046875" lon="20.0441265106201171875">
        <ele>2078</ele>
        <time>2026-06-15T12:20:26.000Z</time>
        <extensions>
          <ns3:TrackPointExtension>
            <ns3:atemp>17.0</ns3:atemp>
          </ns3:TrackPointExtension>
        </extensions>
      </trkpt>
      <trkpt lat="42.5631425343453884124755859375" lon="20.04415861330926418304443359375">
        <ele>2078.39990234375</ele>
        <time>2026-06-15T12:20:27.000Z</time>
        <extensions>
          <ns3:TrackPointExtension>
            <ns3:atemp>17.0</ns3:atemp>
          </ns3:TrackPointExtension>
        </extensions>
      </trkpt>
      <trkpt lat="42.56315049715340137481689453125" lon="20.04419029690325260162353515625">
        <ele>2078.60009765625</ele>
        <time>2026-06-15T12:20:28.000Z</time>
        <extensions>
          <ns3:TrackPointExtension>
            <ns3:atemp>17.0</ns3:atemp>
          </ns3:TrackPointExtension>
        </extensions>
      </trkpt>
      <trkpt lat="42.56315703503787517547607421875" lon="20.04422147758305072784423828125">
        <ele>2079</ele>
        <time>2026-06-15T12:20:29.000Z</time>
        <extensions>
          <ns3:TrackPointExtension>
            <ns3:atemp>17.0</ns3:atemp>
          </ns3:TrackPointExtension>
        </extensions>
      </trkpt>
      <trkpt lat="42.56316357292234897613525390625" lon="20.04424913786351680755615234375">
        <ele>2079.199951171875</ele>
        <time>2026-06-15T12:20:30.000Z</time>
        <extensions>
          <ns3:TrackPointExtension>
            <ns3:atemp>17.0</ns3:atemp>
          </ns3:TrackPointExtension>
        </extensions>
      </trkpt>
      <trkpt lat="42.56316876970231533050537109375" lon="20.0442778877913951873779296875">
        <ele>2079.39990234375</ele>
        <time>2026-06-15T12:20:31.000Z</time>
        <extensions>
          <ns3:TrackPointExtension>
            <ns3:atemp>17.0</ns3:atemp>
          </ns3:TrackPointExtension>
        </extensions>
      </trkpt>
      <trkpt lat="42.563167512416839599609375" lon="20.04431015811860561370849609375">
        <ele>2079.800048828125</ele>
        <time>2026-06-15T12:20:32.000Z</time>
        <extensions>
          <ns3:TrackPointExtension>
            <ns3:atemp>17.0</ns3:atemp>
          </ns3:TrackPointExtension>
        </extensions>
      </trkpt>
      <trkpt lat="42.5631619803607463836669921875" lon="20.04434200935065746307373046875">
        <ele>2080</ele>
        <time>2026-06-15T12:20:33.000Z</time>
        <extensions>
          <ns3:TrackPointExtension>
            <ns3:atemp>17.0</ns3:atemp>
          </ns3:TrackPointExtension>
        </extensions>
      </trkpt>
      <trkpt lat="42.56315401755273342132568359375" lon="20.0443687476217746734619140625">
        <ele>2080.199951171875</ele>
        <time>2026-06-15T12:20:34.000Z</time>
        <extensions>
          <ns3:TrackPointExtension>
            <ns3:atemp>17.0</ns3:atemp>
          </ns3:TrackPointExtension>
        </extensions>
      </trkpt>
      <trkpt lat="42.563146390020847320556640625" lon="20.0443918816745281219482421875">
        <ele>2080.39990234375</ele>
        <time>2026-06-15T12:20:35.000Z</time>
        <extensions>
          <ns3:TrackPointExtension>
            <ns3:atemp>17.0</ns3:atemp>
          </ns3:TrackPointExtension>
        </extensions>
      </trkpt>
      <trkpt lat="42.563137002289295196533203125" lon="20.04441677592694759368896484375">
        <ele>2080.60009765625</ele>
        <time>2026-06-15T12:20:36.000Z</time>
        <extensions>
          <ns3:TrackPointExtension>
            <ns3:atemp>17.0</ns3:atemp>
          </ns3:TrackPointExtension>
        </extensions>
      </trkpt>
      <trkpt lat="42.5631297938525676727294921875" lon="20.04444460384547710418701171875">
        <ele>2080.800048828125</ele>
        <time>2026-06-15T12:20:37.000Z</time>
        <extensions>
          <ns3:TrackPointExtension>
            <ns3:atemp>17.0</ns3:atemp>
          </ns3:TrackPointExtension>
        </extensions>
      </trkpt>
      <trkpt lat="42.5631157122552394866943359375" lon="20.04446773789823055267333984375">
        <ele>2081</ele>
        <time>2026-06-15T12:20:38.000Z</time>
        <extensions>
          <ns3:TrackPointExtension>
            <ns3:atemp>18.0</ns3:atemp>
          </ns3:TrackPointExtension>
        </extensions>
      </trkpt>
      <trkpt lat="42.563100121915340423583984375" lon="20.04449665546417236328125">
        <ele>2081.199951171875</ele>
        <time>2026-06-15T12:20:39.000Z</time>
        <extensions>
          <ns3:TrackPointExtension>
            <ns3:atemp>17.0</ns3:atemp>
          </ns3:TrackPointExtension>
        </extensions>
      </trkpt>
      <trkpt lat="42.5630912370979785919189453125" lon="20.04452641122043132781982421875">
        <ele>2081.39990234375</ele>
        <time>2026-06-15T12:20:40.000Z</time>
        <extensions>
          <ns3:TrackPointExtension>
            <ns3:atemp>18.0</ns3:atemp>
          </ns3:TrackPointExtension>
        </extensions>
      </trkpt>
      <trkpt lat="42.563087381422519683837890625" lon="20.0445571728050708770751953125">
        <ele>2081.60009765625</ele>
        <time>2026-06-15T12:20:41.000Z</time>
        <extensions>
          <ns3:TrackPointExtension>
            <ns3:atemp>18.0</ns3:atemp>
          </ns3:TrackPointExtension>
        </extensions>
      </trkpt>
      <trkpt lat="42.5630808435380458831787109375" lon="20.04458877258002758026123046875">
        <ele>2081.60009765625</ele>
        <time>2026-06-15T12:20:42.000Z</time>
        <extensions>
          <ns3:TrackPointExtension>
            <ns3:atemp>18.0</ns3:atemp>
          </ns3:TrackPointExtension>
        </extensions>
      </trkpt>
      <trkpt lat="42.56308226846158504486083984375" lon="20.04461928270757198333740234375">
        <ele>2081.800048828125</ele>
        <time>2026-06-15T12:20:43.000Z</time>
        <extensions>
          <ns3:TrackPointExtension>
            <ns3:atemp>18.0</ns3:atemp>
          </ns3:TrackPointExtension>
        </extensions>
      </trkpt>
      <trkpt lat="42.56308578886091709136962890625" lon="20.0446446798741817474365234375">
        <ele>2082</ele>
        <time>2026-06-15T12:20:44.000Z</time>
        <extensions>
          <ns3:TrackPointExtension>
            <ns3:atemp>18.0</ns3:atemp>
          </ns3:TrackPointExtension>
        </extensions>
      </trkpt>
      <trkpt lat="42.56308075971901416778564453125" lon="20.0446688197553157806396484375">
        <ele>2082.199951171875</ele>
        <time>2026-06-15T12:20:45.000Z</time>
        <extensions>
          <ns3:TrackPointExtension>
            <ns3:atemp>18.0</ns3:atemp>
          </ns3:TrackPointExtension>
        </extensions>
      </trkpt>
      <trkpt lat="42.56307556293904781341552734375" lon="20.04469539038836956024169921875">
        <ele>2082.39990234375</ele>
        <time>2026-06-15T12:20:46.000Z</time>
        <extensions>
          <ns3:TrackPointExtension>
            <ns3:atemp>18.0</ns3:atemp>
          </ns3:TrackPointExtension>
        </extensions>
      </trkpt>
      <trkpt lat="42.5630724616348743438720703125" lon="20.04471282474696636199951171875">
        <ele>2082.39990234375</ele>
        <time>2026-06-15T12:20:47.000Z</time>
        <extensions>
          <ns3:TrackPointExtension>
            <ns3:atemp>18.0</ns3:atemp>
          </ns3:TrackPointExtension>
        </extensions>
      </trkpt>
      <trkpt lat="42.563069947063922882080078125" lon="20.04472355358302593231201171875">
        <ele>2082.60009765625</ele>
        <time>2026-06-15T12:20:48.000Z</time>
        <extensions>
          <ns3:TrackPointExtension>
            <ns3:atemp>18.0</ns3:atemp>
          </ns3:TrackPointExtension>
        </extensions>
      </trkpt>
      <trkpt lat="42.56306600756943225860595703125" lon="20.044732354581356048583984375">
        <ele>2082.60009765625</ele>
        <time>2026-06-15T12:20:49.000Z</time>
        <extensions>
          <ns3:TrackPointExtension>
            <ns3:atemp>18.0</ns3:atemp>
          </ns3:TrackPointExtension>
        </extensions>
      </trkpt>
      <trkpt lat="42.5630674324929714202880859375" lon="20.0447274930775165557861328125">
        <ele>2082.800048828125</ele>
        <time>2026-06-15T12:20:50.000Z</time>
        <extensions>
          <ns3:TrackPointExtension>
            <ns3:atemp>18.0</ns3:atemp>
          </ns3:TrackPointExtension>
        </extensions>
      </trkpt>
      <trkpt lat="42.5630674324929714202880859375" lon="20.0447274930775165557861328125">
        <ele>2083</ele>
        <time>2026-06-15T12:20:51.000Z</time>
        <extensions>
          <ns3:TrackPointExtension>
            <ns3:atemp>18.0</ns3:atemp>
          </ns3:TrackPointExtension>
        </extensions>
      </trkpt>
      <trkpt lat="42.5630674324929714202880859375" lon="20.0447274930775165557861328125">
        <ele>2083</ele>
        <time>2026-06-15T12:20:52.000Z</time>
        <extensions>
          <ns3:TrackPointExtension>
            <ns3:atemp>18.0</ns3:atemp>
          </ns3:TrackPointExtension>
        </extensions>
      </trkpt>
      <trkpt lat="42.5630674324929714202880859375" lon="20.0447274930775165557861328125">
        <ele>2083</ele>
        <time>2026-06-15T12:20:53.000Z</time>
        <extensions>
          <ns3:TrackPointExtension>
            <ns3:atemp>18.0</ns3:atemp>
          </ns3:TrackPointExtension>
        </extensions>
      </trkpt>
      <trkpt lat="42.5630674324929714202880859375" lon="20.0447274930775165557861328125">
        <ele>2083</ele>
        <time>2026-06-15T12:20:54.000Z</time>
        <extensions>
          <ns3:TrackPointExtension>
            <ns3:atemp>17.0</ns3:atemp>
          </ns3:TrackPointExtension>
        </extensions>
      </trkpt>
      <trkpt lat="42.5630674324929714202880859375" lon="20.0447274930775165557861328125">
        <ele>2083</ele>
        <time>2026-06-15T12:20:55.000Z</time>
        <extensions>
          <ns3:TrackPointExtension>
            <ns3:atemp>18.0</ns3:atemp>
          </ns3:TrackPointExtension>
        </extensions>
      </trkpt>
      <trkpt lat="42.5630674324929714202880859375" lon="20.0447274930775165557861328125">
        <ele>2083</ele>
        <time>2026-06-15T12:20:56.000Z</time>
        <extensions>
          <ns3:TrackPointExtension>
            <ns3:atemp>17.0</ns3:atemp>
          </ns3:TrackPointExtension>
        </extensions>
      </trkpt>
      <trkpt lat="42.56306751631200313568115234375" lon="20.0447274930775165557861328125">
        <ele>2083</ele>
        <time>2026-06-15T12:20:57.000Z</time>
        <extensions>
          <ns3:TrackPointExtension>
            <ns3:atemp>17.0</ns3:atemp>
          </ns3:TrackPointExtension>
        </extensions>
      </trkpt>
      <trkpt lat="42.5630657561123371124267578125" lon="20.04473612643778324127197265625">
        <ele>2083</ele>
        <time>2026-06-15T12:20:58.000Z</time>
        <extensions>
          <ns3:TrackPointExtension>
            <ns3:atemp>17.0</ns3:atemp>
          </ns3:TrackPointExtension>
        </extensions>
      </trkpt>
      <trkpt lat="42.5630674324929714202880859375" lon="20.0447274930775165557861328125">
        <ele>2083</ele>
        <time>2026-06-15T12:20:59.000Z</time>
        <extensions>
          <ns3:TrackPointExtension>
            <ns3:atemp>17.0</ns3:atemp>
          </ns3:TrackPointExtension>
        </extensions>
      </trkpt>
      <trkpt lat="42.5630674324929714202880859375" lon="20.0447274930775165557861328125">
        <ele>2083</ele>
        <time>2026-06-15T12:21:00.000Z</time>
        <extensions>
          <ns3:TrackPointExtension>
            <ns3:atemp>17.0</ns3:atemp>
          </ns3:TrackPointExtension>
        </extensions>
      </trkpt>
      <trkpt lat="42.5630674324929714202880859375" lon="20.0447274930775165557861328125">
        <ele>2083</ele>
        <time>2026-06-15T12:21:01.000Z</time>
        <extensions>
          <ns3:TrackPointExtension>
            <ns3:atemp>17.0</ns3:atemp>
          </ns3:TrackPointExtension>
        </extensions>
      </trkpt>
      <trkpt lat="42.5630674324929714202880859375" lon="20.0447274930775165557861328125">
        <ele>2083</ele>
        <time>2026-06-15T12:21:02.000Z</time>
        <extensions>
          <ns3:TrackPointExtension>
            <ns3:atemp>17.0</ns3:atemp>
          </ns3:TrackPointExtension>
        </extensions>
      </trkpt>
      <trkpt lat="42.5630674324929714202880859375" lon="20.0447274930775165557861328125">
        <ele>2083</ele>
        <time>2026-06-15T12:21:03.000Z</time>
        <extensions>
          <ns3:TrackPointExtension>
            <ns3:atemp>17.0</ns3:atemp>
          </ns3:TrackPointExtension>
        </extensions>
      </trkpt>
      <trkpt lat="42.5630674324929714202880859375" lon="20.0447274930775165557861328125">
        <ele>2083</ele>
        <time>2026-06-15T12:21:04.000Z</time>
        <extensions>
          <ns3:TrackPointExtension>
            <ns3:atemp>17.0</ns3:atemp>
          </ns3:TrackPointExtension>
        </extensions>
      </trkpt>
      <trkpt lat="42.5630674324929714202880859375" lon="20.0447274930775165557861328125">
        <ele>2083</ele>
        <time>2026-06-15T12:21:05.000Z</time>
        <extensions>
          <ns3:TrackPointExtension>
            <ns3:atemp>17.0</ns3:atemp>
          </ns3:TrackPointExtension>
        </extensions>
      </trkpt>
      <trkpt lat="42.5630674324929714202880859375" lon="20.0447274930775165557861328125">
        <ele>2083</ele>
        <time>2026-06-15T12:21:06.000Z</time>
        <extensions>
          <ns3:TrackPointExtension>
            <ns3:atemp>17.0</ns3:atemp>
          </ns3:TrackPointExtension>
        </extensions>
      </trkpt>
      <trkpt lat="42.5630674324929714202880859375" lon="20.0447274930775165557861328125">
        <ele>2083</ele>
        <time>2026-06-15T12:21:07.000Z</time>
        <extensions>
          <ns3:TrackPointExtension>
            <ns3:atemp>17.0</ns3:atemp>
          </ns3:TrackPointExtension>
        </extensions>
      </trkpt>
      <trkpt lat="42.5630674324929714202880859375" lon="20.0447274930775165557861328125">
        <ele>2083</ele>
        <time>2026-06-15T12:21:08.000Z</time>
        <extensions>
          <ns3:TrackPointExtension>
            <ns3:atemp>17.0</ns3:atemp>
          </ns3:TrackPointExtension>
        </extensions>
      </trkpt>
      <trkpt lat="42.5630674324929714202880859375" lon="20.0447274930775165557861328125">
        <ele>2083</ele>
        <time>2026-06-15T12:21:09.000Z</time>
        <extensions>
          <ns3:TrackPointExtension>
            <ns3:atemp>17.0</ns3:atemp>
          </ns3:TrackPointExtension>
        </extensions>
      </trkpt>
      <trkpt lat="42.56306148134171962738037109375" lon="20.04473713226616382598876953125">
        <ele>2083</ele>
        <time>2026-06-15T12:21:10.000Z</time>
        <extensions>
          <ns3:TrackPointExtension>
            <ns3:atemp>17.0</ns3:atemp>
          </ns3:TrackPointExtension>
        </extensions>
      </trkpt>
      <trkpt lat="42.56305159069597721099853515625" lon="20.0447452627122402191162109375">
        <ele>2083</ele>
        <time>2026-06-15T12:21:11.000Z</time>
        <extensions>
          <ns3:TrackPointExtension>
            <ns3:atemp>18.0</ns3:atemp>
          </ns3:TrackPointExtension>
        </extensions>
      </trkpt>
      <trkpt lat="42.563056536018848419189453125" lon="20.044764541089534759521484375">
        <ele>2083</ele>
        <time>2026-06-15T12:21:12.000Z</time>
        <extensions>
          <ns3:TrackPointExtension>
            <ns3:atemp>18.0</ns3:atemp>
          </ns3:TrackPointExtension>
        </extensions>
      </trkpt>
      <trkpt lat="42.56306902505457401275634765625" lon="20.0447714142501354217529296875">
        <ele>2083.199951171875</ele>
        <time>2026-06-15T12:21:13.000Z</time>
        <extensions>
          <ns3:TrackPointExtension>
            <ns3:atemp>18.0</ns3:atemp>
          </ns3:TrackPointExtension>
        </extensions>
      </trkpt>
      <trkpt lat="42.56307807750999927520751953125" lon="20.04477300681173801422119140625">
        <ele>2083</ele>
        <time>2026-06-15T12:21:14.000Z</time>
        <extensions>
          <ns3:TrackPointExtension>
            <ns3:atemp>18.0</ns3:atemp>
          </ns3:TrackPointExtension>
        </extensions>
      </trkpt>
      <trkpt lat="42.5630845315754413604736328125" lon="20.04477493464946746826171875">
        <ele>2083</ele>
        <time>2026-06-15T12:21:15.000Z</time>
        <extensions>
          <ns3:TrackPointExtension>
            <ns3:atemp>18.0</ns3:atemp>
          </ns3:TrackPointExtension>
        </extensions>
      </trkpt>
      <trkpt lat="42.56308360956609249114990234375" lon="20.04477418027818202972412109375">
        <ele>2083</ele>
        <time>2026-06-15T12:21:16.000Z</time>
        <extensions>
          <ns3:TrackPointExtension>
            <ns3:atemp>18.0</ns3:atemp>
          </ns3:TrackPointExtension>
        </extensions>
      </trkpt>
      <trkpt lat="42.5630835257470607757568359375" lon="20.0447740964591503143310546875">
        <ele>2082.800048828125</ele>
        <time>2026-06-15T12:21:17.000Z</time>
        <extensions>
          <ns3:TrackPointExtension>
            <ns3:atemp>18.0</ns3:atemp>
          </ns3:TrackPointExtension>
        </extensions>
      </trkpt>
      <trkpt lat="42.5630811788141727447509765625" lon="20.044768564403057098388671875">
        <ele>2082.800048828125</ele>
        <time>2026-06-15T12:21:18.000Z</time>
        <extensions>
          <ns3:TrackPointExtension>
            <ns3:atemp>18.0</ns3:atemp>
          </ns3:TrackPointExtension>
        </extensions>
      </trkpt>
      <trkpt lat="42.5630811788141727447509765625" lon="20.044768564403057098388671875">
        <ele>2082.800048828125</ele>
        <time>2026-06-15T12:21:19.000Z</time>
        <extensions>
          <ns3:TrackPointExtension>
            <ns3:atemp>18.0</ns3:atemp>
          </ns3:TrackPointExtension>
        </extensions>
      </trkpt>
      <trkpt lat="42.5630811788141727447509765625" lon="20.044768564403057098388671875">
        <ele>2082.800048828125</ele>
        <time>2026-06-15T12:21:20.000Z</time>
        <extensions>
          <ns3:TrackPointExtension>
            <ns3:atemp>18.0</ns3:atemp>
          </ns3:TrackPointExtension>
        </extensions>
      </trkpt>
      <trkpt lat="42.5630811788141727447509765625" lon="20.044768564403057098388671875">
        <ele>2082.800048828125</ele>
        <time>2026-06-15T12:21:21.000Z</time>
        <extensions>
          <ns3:TrackPointExtension>
            <ns3:atemp>18.0</ns3:atemp>
          </ns3:TrackPointExtension>
        </extensions>
      </trkpt>
      <trkpt lat="42.5630811788141727447509765625" lon="20.044768564403057098388671875">
        <ele>2083</ele>
        <time>2026-06-15T12:21:22.000Z</time>
        <extensions>
          <ns3:TrackPointExtension>
            <ns3:atemp>18.0</ns3:atemp>
          </ns3:TrackPointExtension>
        </extensions>
      </trkpt>
      <trkpt lat="42.5630811788141727447509765625" lon="20.044768564403057098388671875">
        <ele>2082.800048828125</ele>
        <time>2026-06-15T12:21:23.000Z</time>
        <extensions>
          <ns3:TrackPointExtension>
            <ns3:atemp>18.0</ns3:atemp>
          </ns3:TrackPointExtension>
        </extensions>
      </trkpt>
      <trkpt lat="42.5630811788141727447509765625" lon="20.044768564403057098388671875">
        <ele>2082.800048828125</ele>
        <time>2026-06-15T12:21:24.000Z</time>
        <extensions>
          <ns3:TrackPointExtension>
            <ns3:atemp>18.0</ns3:atemp>
          </ns3:TrackPointExtension>
        </extensions>
      </trkpt>
      <trkpt lat="42.5630811788141727447509765625" lon="20.044768564403057098388671875">
        <ele>2082.800048828125</ele>
        <time>2026-06-15T12:21:25.000Z</time>
        <extensions>
          <ns3:TrackPointExtension>
            <ns3:atemp>18.0</ns3:atemp>
          </ns3:TrackPointExtension>
        </extensions>
      </trkpt>
      <trkpt lat="42.5630811788141727447509765625" lon="20.044768564403057098388671875">
        <ele>2082.800048828125</ele>
        <time>2026-06-15T12:21:26.000Z</time>
        <extensions>
          <ns3:TrackPointExtension>
            <ns3:atemp>18.0</ns3:atemp>
          </ns3:TrackPointExtension>
        </extensions>
      </trkpt>
      <trkpt lat="42.5630811788141727447509765625" lon="20.044768564403057098388671875">
        <ele>2082.800048828125</ele>
        <time>2026-06-15T12:21:27.000Z</time>
        <extensions>
          <ns3:TrackPointExtension>
            <ns3:atemp>18.0</ns3:atemp>
          </ns3:TrackPointExtension>
        </extensions>
      </trkpt>
      <trkpt lat="42.5630811788141727447509765625" lon="20.044768564403057098388671875">
        <ele>2083</ele>
        <time>2026-06-15T12:21:28.000Z</time>
        <extensions>
          <ns3:TrackPointExtension>
            <ns3:atemp>18.0</ns3:atemp>
          </ns3:TrackPointExtension>
        </extensions>
      </trkpt>
      <trkpt lat="42.5630811788141727447509765625" lon="20.044768564403057098388671875">
        <ele>2083.199951171875</ele>
        <time>2026-06-15T12:21:29.000Z</time>
        <extensions>
          <ns3:TrackPointExtension>
            <ns3:atemp>18.0</ns3:atemp>
          </ns3:TrackPointExtension>
        </extensions>
      </trkpt>
      <trkpt lat="42.5630811788141727447509765625" lon="20.044768564403057098388671875">
        <ele>2083.199951171875</ele>
        <time>2026-06-15T12:21:30.000Z</time>
        <extensions>
          <ns3:TrackPointExtension>
            <ns3:atemp>18.0</ns3:atemp>
          </ns3:TrackPointExtension>
        </extensions>
      </trkpt>
      <trkpt lat="42.56308235228061676025390625" lon="20.04476680420339107513427734375">
        <ele>2083.39990234375</ele>
        <time>2026-06-15T12:21:31.000Z</time>
        <extensions>
          <ns3:TrackPointExtension>
            <ns3:atemp>18.0</ns3:atemp>
          </ns3:TrackPointExtension>
        </extensions>
      </trkpt>
      <trkpt lat="42.56308478303253650665283203125" lon="20.0447375513613224029541015625">
        <ele>2083.39990234375</ele>
        <time>2026-06-15T12:21:32.000Z</time>
        <extensions>
          <ns3:TrackPointExtension>
            <ns3:atemp>18.0</ns3:atemp>
          </ns3:TrackPointExtension>
        </extensions>
      </trkpt>
      <trkpt lat="42.56308562122285366058349609375" lon="20.04471031017601490020751953125">
        <ele>2083.39990234375</ele>
        <time>2026-06-15T12:21:33.000Z</time>
        <extensions>
          <ns3:TrackPointExtension>
            <ns3:atemp>18.0</ns3:atemp>
          </ns3:TrackPointExtension>
        </extensions>
      </trkpt>
      <trkpt lat="42.5630865432322025299072265625" lon="20.044681727886199951171875">
        <ele>2083.39990234375</ele>
        <time>2026-06-15T12:21:34.000Z</time>
        <extensions>
          <ns3:TrackPointExtension>
            <ns3:atemp>18.0</ns3:atemp>
          </ns3:TrackPointExtension>
        </extensions>
      </trkpt>
      <trkpt lat="42.56307958625257015228271484375" lon="20.04465021193027496337890625">
        <ele>2083.39990234375</ele>
        <time>2026-06-15T12:21:35.000Z</time>
        <extensions>
          <ns3:TrackPointExtension>
            <ns3:atemp>18.0</ns3:atemp>
          </ns3:TrackPointExtension>
        </extensions>
      </trkpt>
      <trkpt lat="42.5630808435380458831787109375" lon="20.0446047820150852203369140625">
        <ele>2083.39990234375</ele>
        <time>2026-06-15T12:21:36.000Z</time>
        <extensions>
          <ns3:TrackPointExtension>
            <ns3:atemp>18.0</ns3:atemp>
          </ns3:TrackPointExtension>
        </extensions>
      </trkpt>
      <trkpt lat="42.56308972835540771484375" lon="20.044560022652149200439453125">
        <ele>2083.39990234375</ele>
        <time>2026-06-15T12:21:37.000Z</time>
        <extensions>
          <ns3:TrackPointExtension>
            <ns3:atemp>18.0</ns3:atemp>
          </ns3:TrackPointExtension>
        </extensions>
      </trkpt>
      <trkpt lat="42.563102133572101593017578125" lon="20.04451434127986431121826171875">
        <ele>2083.199951171875</ele>
        <time>2026-06-15T12:21:38.000Z</time>
        <extensions>
          <ns3:TrackPointExtension>
            <ns3:atemp>18.0</ns3:atemp>
          </ns3:TrackPointExtension>
        </extensions>
      </trkpt>
      <trkpt lat="42.5631232559680938720703125" lon="20.04447519779205322265625">
        <ele>2083.199951171875</ele>
        <time>2026-06-15T12:21:39.000Z</time>
        <extensions>
          <ns3:TrackPointExtension>
            <ns3:atemp>18.0</ns3:atemp>
          </ns3:TrackPointExtension>
        </extensions>
      </trkpt>
      <trkpt lat="42.563145719468593597412109375" lon="20.04443555139005184173583984375">
        <ele>2082.800048828125</ele>
        <time>2026-06-15T12:21:40.000Z</time>
        <extensions>
          <ns3:TrackPointExtension>
            <ns3:atemp>18.0</ns3:atemp>
          </ns3:TrackPointExtension>
        </extensions>
      </trkpt>
      <trkpt lat="42.5631693564355373382568359375" lon="20.044385008513927459716796875">
        <ele>2082.60009765625</ele>
        <time>2026-06-15T12:21:41.000Z</time>
        <extensions>
          <ns3:TrackPointExtension>
            <ns3:atemp>18.0</ns3:atemp>
          </ns3:TrackPointExtension>
        </extensions>
      </trkpt>
      <trkpt lat="42.56317731924355030059814453125" lon="20.044330693781375885009765625">
        <ele>2082.199951171875</ele>
        <time>2026-06-15T12:21:42.000Z</time>
        <extensions>
          <ns3:TrackPointExtension>
            <ns3:atemp>18.0</ns3:atemp>
          </ns3:TrackPointExtension>
        </extensions>
      </trkpt>
      <trkpt lat="42.56317312829196453094482421875" lon="20.04427336156368255615234375">
        <ele>2082</ele>
        <time>2026-06-15T12:21:43.000Z</time>
        <extensions>
          <ns3:TrackPointExtension>
            <ns3:atemp>18.0</ns3:atemp>
          </ns3:TrackPointExtension>
        </extensions>
      </trkpt>
      <trkpt lat="42.56316550076007843017578125" lon="20.04422583617269992828369140625">
        <ele>2081.60009765625</ele>
        <time>2026-06-15T12:21:44.000Z</time>
        <extensions>
          <ns3:TrackPointExtension>
            <ns3:atemp>18.0</ns3:atemp>
          </ns3:TrackPointExtension>
        </extensions>
      </trkpt>
      <trkpt lat="42.56315619684755802154541015625" lon="20.0441709347069263458251953125">
        <ele>2081.199951171875</ele>
        <time>2026-06-15T12:21:45.000Z</time>
        <extensions>
          <ns3:TrackPointExtension>
            <ns3:atemp>18.0</ns3:atemp>
          </ns3:TrackPointExtension>
        </extensions>
      </trkpt>
      <trkpt lat="42.56314295344054698944091796875" lon="20.0441157817840576171875">
        <ele>2081</ele>
        <time>2026-06-15T12:21:46.000Z</time>
        <extensions>
          <ns3:TrackPointExtension>
            <ns3:atemp>18.0</ns3:atemp>
          </ns3:TrackPointExtension>
        </extensions>
      </trkpt>
      <trkpt lat="42.56312853656709194183349609375" lon="20.04406607709825038909912109375">
        <ele>2080.199951171875</ele>
        <time>2026-06-15T12:21:47.000Z</time>
        <extensions>
          <ns3:TrackPointExtension>
            <ns3:atemp>18.0</ns3:atemp>
          </ns3:TrackPointExtension>
        </extensions>
      </trkpt>
      <trkpt lat="42.56312191486358642578125" lon="20.0440178811550140380859375">
        <ele>2079.800048828125</ele>
        <time>2026-06-15T12:21:48.000Z</time>
        <extensions>
          <ns3:TrackPointExtension>
            <ns3:atemp>18.0</ns3:atemp>
          </ns3:TrackPointExtension>
        </extensions>
      </trkpt>
      <trkpt lat="42.56311210803687572479248046875" lon="20.04397672601044178009033203125">
        <ele>2079.39990234375</ele>
        <time>2026-06-15T12:21:49.000Z</time>
        <extensions>
          <ns3:TrackPointExtension>
            <ns3:atemp>18.0</ns3:atemp>
          </ns3:TrackPointExtension>
        </extensions>
      </trkpt>
      <trkpt lat="42.56311009638011455535888671875" lon="20.043946802616119384765625">
        <ele>2078.800048828125</ele>
        <time>2026-06-15T12:21:50.000Z</time>
        <extensions>
          <ns3:TrackPointExtension>
            <ns3:atemp>18.0</ns3:atemp>
          </ns3:TrackPointExtension>
        </extensions>
      </trkpt>
      <trkpt lat="42.5630992837250232696533203125" lon="20.0439402647316455841064453125">
        <ele>2078.39990234375</ele>
        <time>2026-06-15T12:21:51.000Z</time>
        <extensions>
          <ns3:TrackPointExtension>
            <ns3:atemp>18.0</ns3:atemp>
          </ns3:TrackPointExtension>
        </extensions>
      </trkpt>
      <trkpt lat="42.56309366784989833831787109375" lon="20.0439419411122798919677734375">
        <ele>2078.199951171875</ele>
        <time>2026-06-15T12:21:52.000Z</time>
        <extensions>
          <ns3:TrackPointExtension>
            <ns3:atemp>18.0</ns3:atemp>
          </ns3:TrackPointExtension>
        </extensions>
      </trkpt>
      <trkpt lat="42.56309433840215206146240234375" lon="20.04394453950226306915283203125">
        <ele>2077.800048828125</ele>
        <time>2026-06-15T12:21:53.000Z</time>
        <extensions>
          <ns3:TrackPointExtension>
            <ns3:atemp>18.0</ns3:atemp>
          </ns3:TrackPointExtension>
        </extensions>
      </trkpt>
      <trkpt lat="42.56309366784989833831787109375" lon="20.04394655115902423858642578125">
        <ele>2077.60009765625</ele>
        <time>2026-06-15T12:21:54.000Z</time>
        <extensions>
          <ns3:TrackPointExtension>
            <ns3:atemp>18.0</ns3:atemp>
          </ns3:TrackPointExtension>
        </extensions>
      </trkpt>
      <trkpt lat="42.5631002895534038543701171875" lon="20.04394948482513427734375">
        <ele>2077.60009765625</ele>
        <time>2026-06-15T12:21:55.000Z</time>
        <extensions>
          <ns3:TrackPointExtension>
            <ns3:atemp>18.0</ns3:atemp>
          </ns3:TrackPointExtension>
        </extensions>
      </trkpt>
      <trkpt lat="42.563102804124355316162109375" lon="20.0439516641199588775634765625">
        <ele>2077.39990234375</ele>
        <time>2026-06-15T12:21:56.000Z</time>
        <extensions>
          <ns3:TrackPointExtension>
            <ns3:atemp>18.0</ns3:atemp>
          </ns3:TrackPointExtension>
        </extensions>
      </trkpt>
      <trkpt lat="42.56310255266726016998291015625" lon="20.04395417869091033935546875">
        <ele>2077.39990234375</ele>
        <time>2026-06-15T12:21:57.000Z</time>
        <extensions>
          <ns3:TrackPointExtension>
            <ns3:atemp>18.0</ns3:atemp>
          </ns3:TrackPointExtension>
        </extensions>
      </trkpt>
      <trkpt lat="42.56310246884822845458984375" lon="20.0439543463289737701416015625">
        <ele>2077.60009765625</ele>
        <time>2026-06-15T12:21:58.000Z</time>
        <extensions>
          <ns3:TrackPointExtension>
            <ns3:atemp>18.0</ns3:atemp>
          </ns3:TrackPointExtension>
        </extensions>
      </trkpt>
      <trkpt lat="42.56309785880148410797119140625" lon="20.0439717806875705718994140625">
        <ele>2078</ele>
        <time>2026-06-15T12:21:59.000Z</time>
        <extensions>
          <ns3:TrackPointExtension>
            <ns3:atemp>18.0</ns3:atemp>
          </ns3:TrackPointExtension>
        </extensions>
      </trkpt>
      <trkpt lat="42.56309802643954753875732421875" lon="20.04399382509291172027587890625">
        <ele>2078.199951171875</ele>
        <time>2026-06-15T12:22:00.000Z</time>
        <extensions>
          <ns3:TrackPointExtension>
            <ns3:atemp>18.0</ns3:atemp>
          </ns3:TrackPointExtension>
        </extensions>
      </trkpt>
      <trkpt lat="42.5631063245236873626708984375" lon="20.04400690086185932159423828125">
        <ele>2078.199951171875</ele>
        <time>2026-06-15T12:22:01.000Z</time>
        <extensions>
          <ns3:TrackPointExtension>
            <ns3:atemp>18.0</ns3:atemp>
          </ns3:TrackPointExtension>
        </extensions>
      </trkpt>
      <trkpt lat="42.56311428733170032501220703125" lon="20.0440281070768833160400390625">
        <ele>2078.39990234375</ele>
        <time>2026-06-15T12:22:02.000Z</time>
        <extensions>
          <ns3:TrackPointExtension>
            <ns3:atemp>18.0</ns3:atemp>
          </ns3:TrackPointExtension>
        </extensions>
      </trkpt>
      <trkpt lat="42.563120909035205841064453125" lon="20.0440475530922412872314453125">
        <ele>2078.60009765625</ele>
        <time>2026-06-15T12:22:03.000Z</time>
        <extensions>
          <ns3:TrackPointExtension>
            <ns3:atemp>18.0</ns3:atemp>
          </ns3:TrackPointExtension>
        </extensions>
      </trkpt>
      <trkpt lat="42.56313004530966281890869140625" lon="20.04406825639307498931884765625">
        <ele>2078.800048828125</ele>
        <time>2026-06-15T12:22:04.000Z</time>
        <extensions>
          <ns3:TrackPointExtension>
            <ns3:atemp>18.0</ns3:atemp>
          </ns3:TrackPointExtension>
        </extensions>
      </trkpt>
      <trkpt lat="42.56313490681350231170654296875" lon="20.04409189336001873016357421875">
        <ele>2079</ele>
        <time>2026-06-15T12:22:05.000Z</time>
        <extensions>
          <ns3:TrackPointExtension>
            <ns3:atemp>18.0</ns3:atemp>
          </ns3:TrackPointExtension>
        </extensions>
      </trkpt>
      <trkpt lat="42.5631401874125003814697265625" lon="20.04412273876368999481201171875">
        <ele>2079.199951171875</ele>
        <time>2026-06-15T12:22:06.000Z</time>
        <extensions>
          <ns3:TrackPointExtension>
            <ns3:atemp>18.0</ns3:atemp>
          </ns3:TrackPointExtension>
        </extensions>
      </trkpt>
      <trkpt lat="42.56314404308795928955078125" lon="20.044154338538646697998046875">
        <ele>2079.39990234375</ele>
        <time>2026-06-15T12:22:07.000Z</time>
        <extensions>
          <ns3:TrackPointExtension>
            <ns3:atemp>18.0</ns3:atemp>
          </ns3:TrackPointExtension>
        </extensions>
      </trkpt>
      <trkpt lat="42.5631515868008136749267578125" lon="20.04418794997036457061767578125">
        <ele>2079.60009765625</ele>
        <time>2026-06-15T12:22:08.000Z</time>
        <extensions>
          <ns3:TrackPointExtension>
            <ns3:atemp>18.0</ns3:atemp>
          </ns3:TrackPointExtension>
        </extensions>
      </trkpt>
      <trkpt lat="42.56315938197076320648193359375" lon="20.0442218966782093048095703125">
        <ele>2079.800048828125</ele>
        <time>2026-06-15T12:22:09.000Z</time>
        <extensions>
          <ns3:TrackPointExtension>
            <ns3:atemp>18.0</ns3:atemp>
          </ns3:TrackPointExtension>
        </extensions>
      </trkpt>
      <trkpt lat="42.56316357292234897613525390625" lon="20.0442571006715297698974609375">
        <ele>2080</ele>
        <time>2026-06-15T12:22:10.000Z</time>
        <extensions>
          <ns3:TrackPointExtension>
            <ns3:atemp>18.0</ns3:atemp>
          </ns3:TrackPointExtension>
        </extensions>
      </trkpt>
      <trkpt lat="42.5631686858832836151123046875" lon="20.04429222084581851959228515625">
        <ele>2080.199951171875</ele>
        <time>2026-06-15T12:22:11.000Z</time>
        <extensions>
          <ns3:TrackPointExtension>
            <ns3:atemp>18.0</ns3:atemp>
          </ns3:TrackPointExtension>
        </extensions>
      </trkpt>
      <trkpt lat="42.56316675804555416107177734375" lon="20.04432625137269496917724609375">
        <ele>2080.199951171875</ele>
        <time>2026-06-15T12:22:12.000Z</time>
        <extensions>
          <ns3:TrackPointExtension>
            <ns3:atemp>18.0</ns3:atemp>
          </ns3:TrackPointExtension>
        </extensions>
      </trkpt>
      <trkpt lat="42.563161812722682952880859375" lon="20.0443576835095882415771484375">
        <ele>2080.39990234375</ele>
        <time>2026-06-15T12:22:13.000Z</time>
        <extensions>
          <ns3:TrackPointExtension>
            <ns3:atemp>18.0</ns3:atemp>
          </ns3:TrackPointExtension>
        </extensions>
      </trkpt>
      <trkpt lat="42.56315217353403568267822265625" lon="20.0443880259990692138671875">
        <ele>2080.39990234375</ele>
        <time>2026-06-15T12:22:14.000Z</time>
        <extensions>
          <ns3:TrackPointExtension>
            <ns3:atemp>18.0</ns3:atemp>
          </ns3:TrackPointExtension>
        </extensions>
      </trkpt>
      <trkpt lat="42.56313976831734180450439453125" lon="20.04441283643245697021484375">
        <ele>2080.199951171875</ele>
        <time>2026-06-15T12:22:15.000Z</time>
        <extensions>
          <ns3:TrackPointExtension>
            <ns3:atemp>18.0</ns3:atemp>
          </ns3:TrackPointExtension>
        </extensions>
      </trkpt>
      <trkpt lat="42.56312602199614048004150390625" lon="20.04443538375198841094970703125">
        <ele>2080.199951171875</ele>
        <time>2026-06-15T12:22:16.000Z</time>
        <extensions>
          <ns3:TrackPointExtension>
            <ns3:atemp>18.0</ns3:atemp>
          </ns3:TrackPointExtension>
        </extensions>
      </trkpt>
      <trkpt lat="42.563112862408161163330078125" lon="20.0444631278514862060546875">
        <ele>2080.39990234375</ele>
        <time>2026-06-15T12:22:17.000Z</time>
        <extensions>
          <ns3:TrackPointExtension>
            <ns3:atemp>18.0</ns3:atemp>
          </ns3:TrackPointExtension>
        </extensions>
      </trkpt>
      <trkpt lat="42.56310204975306987762451171875" lon="20.04449321888387203216552734375">
        <ele>2080.39990234375</ele>
        <time>2026-06-15T12:22:18.000Z</time>
        <extensions>
          <ns3:TrackPointExtension>
            <ns3:atemp>18.0</ns3:atemp>
          </ns3:TrackPointExtension>
        </extensions>
      </trkpt>
      <trkpt lat="42.56309148855507373809814453125" lon="20.04452859051525592803955078125">
        <ele>2080.60009765625</ele>
        <time>2026-06-15T12:22:19.000Z</time>
        <extensions>
          <ns3:TrackPointExtension>
            <ns3:atemp>18.0</ns3:atemp>
          </ns3:TrackPointExtension>
        </extensions>
      </trkpt>
      <trkpt lat="42.56308327428996562957763671875" lon="20.0445622019469738006591796875">
        <ele>2080.800048828125</ele>
        <time>2026-06-15T12:22:20.000Z</time>
        <extensions>
          <ns3:TrackPointExtension>
            <ns3:atemp>18.0</ns3:atemp>
          </ns3:TrackPointExtension>
        </extensions>
      </trkpt>
      <trkpt lat="42.56307958625257015228271484375" lon="20.04459665156900882720947265625">
        <ele>2081</ele>
        <time>2026-06-15T12:22:21.000Z</time>
        <extensions>
          <ns3:TrackPointExtension>
            <ns3:atemp>18.0</ns3:atemp>
          </ns3:TrackPointExtension>
        </extensions>
      </trkpt>
      <trkpt lat="42.56308210082352161407470703125" lon="20.04462833516299724578857421875">
        <ele>2081.199951171875</ele>
        <time>2026-06-15T12:22:22.000Z</time>
        <extensions>
          <ns3:TrackPointExtension>
            <ns3:atemp>18.0</ns3:atemp>
          </ns3:TrackPointExtension>
        </extensions>
      </trkpt>
      <trkpt lat="42.56308444775640964508056640625" lon="20.0446587614715099334716796875">
        <ele>2081.60009765625</ele>
        <time>2026-06-15T12:22:23.000Z</time>
        <extensions>
          <ns3:TrackPointExtension>
            <ns3:atemp>18.0</ns3:atemp>
          </ns3:TrackPointExtension>
        </extensions>
      </trkpt>
      <trkpt lat="42.563081346452236175537109375" lon="20.0446862541139125823974609375">
        <ele>2082</ele>
        <time>2026-06-15T12:22:24.000Z</time>
        <extensions>
          <ns3:TrackPointExtension>
            <ns3:atemp>18.0</ns3:atemp>
          </ns3:TrackPointExtension>
        </extensions>
      </trkpt>
      <trkpt lat="42.563076317310333251953125" lon="20.0447147525846958160400390625">
        <ele>2082.199951171875</ele>
        <time>2026-06-15T12:22:25.000Z</time>
        <extensions>
          <ns3:TrackPointExtension>
            <ns3:atemp>18.0</ns3:atemp>
          </ns3:TrackPointExtension>
        </extensions>
      </trkpt>
      <trkpt lat="42.56307028234004974365234375" lon="20.04473914392292499542236328125">
        <ele>2082.39990234375</ele>
        <time>2026-06-15T12:22:26.000Z</time>
        <extensions>
          <ns3:TrackPointExtension>
            <ns3:atemp>18.0</ns3:atemp>
          </ns3:TrackPointExtension>
        </extensions>
      </trkpt>
      <trkpt lat="42.56306315772235393524169921875" lon="20.04475775174796581268310546875">
        <ele>2082.39990234375</ele>
        <time>2026-06-15T12:22:27.000Z</time>
        <extensions>
          <ns3:TrackPointExtension>
            <ns3:atemp>18.0</ns3:atemp>
          </ns3:TrackPointExtension>
        </extensions>
      </trkpt>
      <trkpt lat="42.56305695511400699615478515625" lon="20.04477133043110370635986328125">
        <ele>2082.39990234375</ele>
        <time>2026-06-15T12:22:28.000Z</time>
        <extensions>
          <ns3:TrackPointExtension>
            <ns3:atemp>18.0</ns3:atemp>
          </ns3:TrackPointExtension>
        </extensions>
      </trkpt>
      <trkpt lat="42.56305511109530925750732421875" lon="20.0447922013700008392333984375">
        <ele>2082.199951171875</ele>
        <time>2026-06-15T12:22:29.000Z</time>
        <extensions>
          <ns3:TrackPointExtension>
            <ns3:atemp>18.0</ns3:atemp>
          </ns3:TrackPointExtension>
        </extensions>
      </trkpt>
      <trkpt lat="42.56305821239948272705078125" lon="20.04481039009988307952880859375">
        <ele>2082</ele>
        <time>2026-06-15T12:22:30.000Z</time>
        <extensions>
          <ns3:TrackPointExtension>
            <ns3:atemp>18.0</ns3:atemp>
          </ns3:TrackPointExtension>
        </extensions>
      </trkpt>
      <trkpt lat="42.563067264854907989501953125" lon="20.0448203645646572113037109375">
        <ele>2082</ele>
        <time>2026-06-15T12:22:31.000Z</time>
        <extensions>
          <ns3:TrackPointExtension>
            <ns3:atemp>18.0</ns3:atemp>
          </ns3:TrackPointExtension>
        </extensions>
      </trkpt>
      <trkpt lat="42.56307858042418956756591796875" lon="20.0448196940124034881591796875">
        <ele>2082</ele>
        <time>2026-06-15T12:22:32.000Z</time>
        <extensions>
          <ns3:TrackPointExtension>
            <ns3:atemp>18.0</ns3:atemp>
          </ns3:TrackPointExtension>
        </extensions>
      </trkpt>
      <trkpt lat="42.56308897398412227630615234375" lon="20.0448069535195827484130859375">
        <ele>2082</ele>
        <time>2026-06-15T12:22:33.000Z</time>
        <extensions>
          <ns3:TrackPointExtension>
            <ns3:atemp>18.0</ns3:atemp>
          </ns3:TrackPointExtension>
        </extensions>
      </trkpt>
      <trkpt lat="42.56309048272669315338134765625" lon="20.0447881780564785003662109375">
        <ele>2082</ele>
        <time>2026-06-15T12:22:34.000Z</time>
        <extensions>
          <ns3:TrackPointExtension>
            <ns3:atemp>18.0</ns3:atemp>
          </ns3:TrackPointExtension>
        </extensions>
      </trkpt>
      <trkpt lat="42.56308612413704395294189453125" lon="20.044772922992706298828125">
        <ele>2081.800048828125</ele>
        <time>2026-06-15T12:22:35.000Z</time>
        <extensions>
          <ns3:TrackPointExtension>
            <ns3:atemp>18.0</ns3:atemp>
          </ns3:TrackPointExtension>
        </extensions>
      </trkpt>
      <trkpt lat="42.56307925097644329071044921875" lon="20.0447506271302700042724609375">
        <ele>2081.800048828125</ele>
        <time>2026-06-15T12:22:36.000Z</time>
        <extensions>
          <ns3:TrackPointExtension>
            <ns3:atemp>18.0</ns3:atemp>
          </ns3:TrackPointExtension>
        </extensions>
      </trkpt>
      <trkpt lat="42.56306718103587627410888671875" lon="20.0447526387870311737060546875">
        <ele>2081.800048828125</ele>
        <time>2026-06-15T12:22:37.000Z</time>
        <extensions>
          <ns3:TrackPointExtension>
            <ns3:atemp>18.0</ns3:atemp>
          </ns3:TrackPointExtension>
        </extensions>
      </trkpt>
      <trkpt lat="42.5630610622465610504150390625" lon="20.044747777283191680908203125">
        <ele>2081.800048828125</ele>
        <time>2026-06-15T12:22:38.000Z</time>
        <extensions>
          <ns3:TrackPointExtension>
            <ns3:atemp>18.0</ns3:atemp>
          </ns3:TrackPointExtension>
        </extensions>
      </trkpt>
      <trkpt lat="42.5630610622465610504150390625" lon="20.044747777283191680908203125">
        <ele>2082</ele>
        <time>2026-06-15T12:22:39.000Z</time>
        <extensions>
          <ns3:TrackPointExtension>
            <ns3:atemp>18.0</ns3:atemp>
          </ns3:TrackPointExtension>
        </extensions>
      </trkpt>
      <trkpt lat="42.5630610622465610504150390625" lon="20.044747777283191680908203125">
        <ele>2082</ele>
        <time>2026-06-15T12:22:40.000Z</time>
        <extensions>
          <ns3:TrackPointExtension>
            <ns3:atemp>18.0</ns3:atemp>
          </ns3:TrackPointExtension>
        </extensions>
      </trkpt>
      <trkpt lat="42.5630610622465610504150390625" lon="20.044747777283191680908203125">
        <ele>2082</ele>
        <time>2026-06-15T12:22:41.000Z</time>
        <extensions>
          <ns3:TrackPointExtension>
            <ns3:atemp>18.0</ns3:atemp>
          </ns3:TrackPointExtension>
        </extensions>
      </trkpt>
      <trkpt lat="42.5630610622465610504150390625" lon="20.044747777283191680908203125">
        <ele>2082</ele>
        <time>2026-06-15T12:22:42.000Z</time>
        <extensions>
          <ns3:TrackPointExtension>
            <ns3:atemp>18.0</ns3:atemp>
          </ns3:TrackPointExtension>
        </extensions>
      </trkpt>
      <trkpt lat="42.5630610622465610504150390625" lon="20.044747777283191680908203125">
        <ele>2081.800048828125</ele>
        <time>2026-06-15T12:22:43.000Z</time>
        <extensions>
          <ns3:TrackPointExtension>
            <ns3:atemp>18.0</ns3:atemp>
          </ns3:TrackPointExtension>
        </extensions>
      </trkpt>
      <trkpt lat="42.5630610622465610504150390625" lon="20.044747777283191680908203125">
        <ele>2081.60009765625</ele>
        <time>2026-06-15T12:22:44.000Z</time>
        <extensions>
          <ns3:TrackPointExtension>
            <ns3:atemp>18.0</ns3:atemp>
          </ns3:TrackPointExtension>
        </extensions>
      </trkpt>
      <trkpt lat="42.5630610622465610504150390625" lon="20.044747777283191680908203125">
        <ele>2081.60009765625</ele>
        <time>2026-06-15T12:22:45.000Z</time>
        <extensions>
          <ns3:TrackPointExtension>
            <ns3:atemp>18.0</ns3:atemp>
          </ns3:TrackPointExtension>
        </extensions>
      </trkpt>
      <trkpt lat="42.5630610622465610504150390625" lon="20.044747777283191680908203125">
        <ele>2081.60009765625</ele>
        <time>2026-06-15T12:22:46.000Z</time>
        <extensions>
          <ns3:TrackPointExtension>
            <ns3:atemp>18.0</ns3:atemp>
          </ns3:TrackPointExtension>
        </extensions>
      </trkpt>
      <trkpt lat="42.5630610622465610504150390625" lon="20.044747777283191680908203125">
        <ele>2081.60009765625</ele>
        <time>2026-06-15T12:22:47.000Z</time>
        <extensions>
          <ns3:TrackPointExtension>
            <ns3:atemp>18.0</ns3:atemp>
          </ns3:TrackPointExtension>
        </extensions>
      </trkpt>
      <trkpt lat="42.5630610622465610504150390625" lon="20.044747777283191680908203125">
        <ele>2081.60009765625</ele>
        <time>2026-06-15T12:22:48.000Z</time>
        <extensions>
          <ns3:TrackPointExtension>
            <ns3:atemp>18.0</ns3:atemp>
          </ns3:TrackPointExtension>
        </extensions>
      </trkpt>
      <trkpt lat="42.5630610622465610504150390625" lon="20.044747777283191680908203125">
        <ele>2081.60009765625</ele>
        <time>2026-06-15T12:22:49.000Z</time>
        <extensions>
          <ns3:TrackPointExtension>
            <ns3:atemp>18.0</ns3:atemp>
          </ns3:TrackPointExtension>
        </extensions>
      </trkpt>
      <trkpt lat="42.5630610622465610504150390625" lon="20.044747777283191680908203125">
        <ele>2081.800048828125</ele>
        <time>2026-06-15T12:22:50.000Z</time>
        <extensions>
          <ns3:TrackPointExtension>
            <ns3:atemp>18.0</ns3:atemp>
          </ns3:TrackPointExtension>
        </extensions>
      </trkpt>
      <trkpt lat="42.5630610622465610504150390625" lon="20.044747777283191680908203125">
        <ele>2082</ele>
        <time>2026-06-15T12:22:51.000Z</time>
        <extensions>
          <ns3:TrackPointExtension>
            <ns3:atemp>18.0</ns3:atemp>
          </ns3:TrackPointExtension>
        </extensions>
      </trkpt>
      <trkpt lat="42.5630610622465610504150390625" lon="20.044747777283191680908203125">
        <ele>2082</ele>
        <time>2026-06-15T12:22:52.000Z</time>
        <extensions>
          <ns3:TrackPointExtension>
            <ns3:atemp>18.0</ns3:atemp>
          </ns3:TrackPointExtension>
        </extensions>
      </trkpt>
      <trkpt lat="42.5630610622465610504150390625" lon="20.044747777283191680908203125">
        <ele>2082.199951171875</ele>
        <time>2026-06-15T12:22:53.000Z</time>
        <extensions>
          <ns3:TrackPointExtension>
            <ns3:atemp>18.0</ns3:atemp>
          </ns3:TrackPointExtension>
        </extensions>
      </trkpt>
      <trkpt lat="42.5630610622465610504150390625" lon="20.044747777283191680908203125">
        <ele>2082.199951171875</ele>
        <time>2026-06-15T12:22:54.000Z</time>
        <extensions>
          <ns3:TrackPointExtension>
            <ns3:atemp>18.0</ns3:atemp>
          </ns3:TrackPointExtension>
        </extensions>
      </trkpt>
      <trkpt lat="42.5630610622465610504150390625" lon="20.044747777283191680908203125">
        <ele>2082.199951171875</ele>
        <time>2026-06-15T12:22:55.000Z</time>
        <extensions>
          <ns3:TrackPointExtension>
            <ns3:atemp>18.0</ns3:atemp>
          </ns3:TrackPointExtension>
        </extensions>
      </trkpt>
      <trkpt lat="42.5630610622465610504150390625" lon="20.044747777283191680908203125">
        <ele>2082.199951171875</ele>
        <time>2026-06-15T12:22:56.000Z</time>
        <extensions>
          <ns3:TrackPointExtension>
            <ns3:atemp>18.0</ns3:atemp>
          </ns3:TrackPointExtension>
        </extensions>
      </trkpt>
      <trkpt lat="42.5630610622465610504150390625" lon="20.044747777283191680908203125">
        <ele>2082.39990234375</ele>
        <time>2026-06-15T12:22:57.000Z</time>
        <extensions>
          <ns3:TrackPointExtension>
            <ns3:atemp>18.0</ns3:atemp>
          </ns3:TrackPointExtension>
        </extensions>
      </trkpt>
      <trkpt lat="42.5630610622465610504150390625" lon="20.044747777283191680908203125">
        <ele>2082.39990234375</ele>
        <time>2026-06-15T12:22:58.000Z</time>
        <extensions>
          <ns3:TrackPointExtension>
            <ns3:atemp>18.0</ns3:atemp>
          </ns3:TrackPointExtension>
        </extensions>
      </trkpt>
      <trkpt lat="42.5630610622465610504150390625" lon="20.044747777283191680908203125">
        <ele>2082.39990234375</ele>
        <time>2026-06-15T12:22:59.000Z</time>
        <extensions>
          <ns3:TrackPointExtension>
            <ns3:atemp>18.0</ns3:atemp>
          </ns3:TrackPointExtension>
        </extensions>
      </trkpt>
      <trkpt lat="42.5630610622465610504150390625" lon="20.044747777283191680908203125">
        <ele>2082.39990234375</ele>
        <time>2026-06-15T12:23:00.000Z</time>
        <extensions>
          <ns3:TrackPointExtension>
            <ns3:atemp>18.0</ns3:atemp>
          </ns3:TrackPointExtension>
        </extensions>
      </trkpt>
      <trkpt lat="42.5630610622465610504150390625" lon="20.044747777283191680908203125">
        <ele>2082.39990234375</ele>
        <time>2026-06-15T12:23:01.000Z</time>
        <extensions>
          <ns3:TrackPointExtension>
            <ns3:atemp>18.0</ns3:atemp>
          </ns3:TrackPointExtension>
        </extensions>
      </trkpt>
      <trkpt lat="42.5630610622465610504150390625" lon="20.044747777283191680908203125">
        <ele>2082.39990234375</ele>
        <time>2026-06-15T12:23:02.000Z</time>
        <extensions>
          <ns3:TrackPointExtension>
            <ns3:atemp>18.0</ns3:atemp>
          </ns3:TrackPointExtension>
        </extensions>
      </trkpt>
      <trkpt lat="42.5630610622465610504150390625" lon="20.044747777283191680908203125">
        <ele>2082.60009765625</ele>
        <time>2026-06-15T12:23:03.000Z</time>
        <extensions>
          <ns3:TrackPointExtension>
            <ns3:atemp>18.0</ns3:atemp>
          </ns3:TrackPointExtension>
        </extensions>
      </trkpt>
      <trkpt lat="42.5630610622465610504150390625" lon="20.044747777283191680908203125">
        <ele>2082.60009765625</ele>
        <time>2026-06-15T12:23:04.000Z</time>
        <extensions>
          <ns3:TrackPointExtension>
            <ns3:atemp>18.0</ns3:atemp>
          </ns3:TrackPointExtension>
        </extensions>
      </trkpt>
      <trkpt lat="42.5630610622465610504150390625" lon="20.044747777283191680908203125">
        <ele>2082.60009765625</ele>
        <time>2026-06-15T12:23:05.000Z</time>
        <extensions>
          <ns3:TrackPointExtension>
            <ns3:atemp>18.0</ns3:atemp>
          </ns3:TrackPointExtension>
        </extensions>
      </trkpt>
      <trkpt lat="42.5630610622465610504150390625" lon="20.044747777283191680908203125">
        <ele>2082.60009765625</ele>
        <time>2026-06-15T12:23:06.000Z</time>
        <extensions>
          <ns3:TrackPointExtension>
            <ns3:atemp>18.0</ns3:atemp>
          </ns3:TrackPointExtension>
        </extensions>
      </trkpt>
      <trkpt lat="42.5630610622465610504150390625" lon="20.044747777283191680908203125">
        <ele>2082.800048828125</ele>
        <time>2026-06-15T12:23:07.000Z</time>
        <extensions>
          <ns3:TrackPointExtension>
            <ns3:atemp>18.0</ns3:atemp>
          </ns3:TrackPointExtension>
        </extensions>
      </trkpt>
      <trkpt lat="42.5630610622465610504150390625" lon="20.044747777283191680908203125">
        <ele>2082.800048828125</ele>
        <time>2026-06-15T12:23:08.000Z</time>
        <extensions>
          <ns3:TrackPointExtension>
            <ns3:atemp>18.0</ns3:atemp>
          </ns3:TrackPointExtension>
        </extensions>
      </trkpt>
      <trkpt lat="42.5630610622465610504150390625" lon="20.044747777283191680908203125">
        <ele>2082.800048828125</ele>
        <time>2026-06-15T12:23:09.000Z</time>
        <extensions>
          <ns3:TrackPointExtension>
            <ns3:atemp>18.0</ns3:atemp>
          </ns3:TrackPointExtension>
        </extensions>
      </trkpt>
      <trkpt lat="42.5630610622465610504150390625" lon="20.044747777283191680908203125">
        <ele>2082.800048828125</ele>
        <time>2026-06-15T12:23:10.000Z</time>
        <extensions>
          <ns3:TrackPointExtension>
            <ns3:atemp>18.0</ns3:atemp>
          </ns3:TrackPointExtension>
        </extensions>
      </trkpt>
      <trkpt lat="42.5630610622465610504150390625" lon="20.044747777283191680908203125">
        <ele>2082.800048828125</ele>
        <time>2026-06-15T12:23:11.000Z</time>
        <extensions>
          <ns3:TrackPointExtension>
            <ns3:atemp>18.0</ns3:atemp>
          </ns3:TrackPointExtension>
        </extensions>
      </trkpt>
      <trkpt lat="42.5630610622465610504150390625" lon="20.044747777283191680908203125">
        <ele>2082.800048828125</ele>
        <time>2026-06-15T12:23:12.000Z</time>
        <extensions>
          <ns3:TrackPointExtension>
            <ns3:atemp>18.0</ns3:atemp>
          </ns3:TrackPointExtension>
        </extensions>
      </trkpt>
      <trkpt lat="42.5630610622465610504150390625" lon="20.044747777283191680908203125">
        <ele>2082.800048828125</ele>
        <time>2026-06-15T12:23:13.000Z</time>
        <extensions>
          <ns3:TrackPointExtension>
            <ns3:atemp>18.0</ns3:atemp>
          </ns3:TrackPointExtension>
        </extensions>
      </trkpt>
      <trkpt lat="42.5630610622465610504150390625" lon="20.044747777283191680908203125">
        <ele>2082.800048828125</ele>
        <time>2026-06-15T12:23:14.000Z</time>
        <extensions>
          <ns3:TrackPointExtension>
            <ns3:atemp>18.0</ns3:atemp>
          </ns3:TrackPointExtension>
        </extensions>
      </trkpt>
      <trkpt lat="42.5630610622465610504150390625" lon="20.044747777283191680908203125">
        <ele>2082.800048828125</ele>
        <time>2026-06-15T12:23:15.000Z</time>
        <extensions>
          <ns3:TrackPointExtension>
            <ns3:atemp>18.0</ns3:atemp>
          </ns3:TrackPointExtension>
        </extensions>
      </trkpt>
      <trkpt lat="42.5630610622465610504150390625" lon="20.044747777283191680908203125">
        <ele>2082.800048828125</ele>
        <time>2026-06-15T12:23:16.000Z</time>
        <extensions>
          <ns3:TrackPointExtension>
            <ns3:atemp>18.0</ns3:atemp>
          </ns3:TrackPointExtension>
        </extensions>
      </trkpt>
      <trkpt lat="42.5630610622465610504150390625" lon="20.044747777283191680908203125">
        <ele>2082.800048828125</ele>
        <time>2026-06-15T12:23:17.000Z</time>
        <extensions>
          <ns3:TrackPointExtension>
            <ns3:atemp>18.0</ns3:atemp>
          </ns3:TrackPointExtension>
        </extensions>
      </trkpt>
      <trkpt lat="42.5630610622465610504150390625" lon="20.044747777283191680908203125">
        <ele>2082.800048828125</ele>
        <time>2026-06-15T12:23:18.000Z</time>
        <extensions>
          <ns3:TrackPointExtension>
            <ns3:atemp>18.0</ns3:atemp>
          </ns3:TrackPointExtension>
        </extensions>
      </trkpt>
      <trkpt lat="42.5630610622465610504150390625" lon="20.044747777283191680908203125">
        <ele>2082.800048828125</ele>
        <time>2026-06-15T12:23:19.000Z</time>
        <extensions>
          <ns3:TrackPointExtension>
            <ns3:atemp>18.0</ns3:atemp>
          </ns3:TrackPointExtension>
        </extensions>
      </trkpt>
      <trkpt lat="42.5630610622465610504150390625" lon="20.044747777283191680908203125">
        <ele>2082.800048828125</ele>
        <time>2026-06-15T12:23:20.000Z</time>
        <extensions>
          <ns3:TrackPointExtension>
            <ns3:atemp>18.0</ns3:atemp>
          </ns3:TrackPointExtension>
        </extensions>
      </trkpt>
      <trkpt lat="42.5630610622465610504150390625" lon="20.044747777283191680908203125">
        <ele>2082.800048828125</ele>
        <time>2026-06-15T12:23:21.000Z</time>
        <extensions>
          <ns3:TrackPointExtension>
            <ns3:atemp>18.0</ns3:atemp>
          </ns3:TrackPointExtension>
        </extensions>
      </trkpt>
      <trkpt lat="42.5630610622465610504150390625" lon="20.044747777283191680908203125">
        <ele>2082.800048828125</ele>
        <time>2026-06-15T12:23:22.000Z</time>
        <extensions>
          <ns3:TrackPointExtension>
            <ns3:atemp>18.0</ns3:atemp>
          </ns3:TrackPointExtension>
        </extensions>
      </trkpt>
      <trkpt lat="42.5630610622465610504150390625" lon="20.044747777283191680908203125">
        <ele>2082.800048828125</ele>
        <time>2026-06-15T12:23:23.000Z</time>
        <extensions>
          <ns3:TrackPointExtension>
            <ns3:atemp>18.0</ns3:atemp>
          </ns3:TrackPointExtension>
        </extensions>
      </trkpt>
      <trkpt lat="42.5630610622465610504150390625" lon="20.044747777283191680908203125">
        <ele>2082.800048828125</ele>
        <time>2026-06-15T12:23:24.000Z</time>
        <extensions>
          <ns3:TrackPointExtension>
            <ns3:atemp>18.0</ns3:atemp>
          </ns3:TrackPointExtension>
        </extensions>
      </trkpt>
      <trkpt lat="42.5630610622465610504150390625" lon="20.044747777283191680908203125">
        <ele>2082.800048828125</ele>
        <time>2026-06-15T12:23:25.000Z</time>
        <extensions>
          <ns3:TrackPointExtension>
            <ns3:atemp>18.0</ns3:atemp>
          </ns3:TrackPointExtension>
        </extensions>
      </trkpt>
      <trkpt lat="42.5630610622465610504150390625" lon="20.044747777283191680908203125">
        <ele>2082.800048828125</ele>
        <time>2026-06-15T12:23:26.000Z</time>
        <extensions>
          <ns3:TrackPointExtension>
            <ns3:atemp>18.0</ns3:atemp>
          </ns3:TrackPointExtension>
        </extensions>
      </trkpt>
      <trkpt lat="42.5630610622465610504150390625" lon="20.044747777283191680908203125">
        <ele>2082.800048828125</ele>
        <time>2026-06-15T12:23:27.000Z</time>
        <extensions>
          <ns3:TrackPointExtension>
            <ns3:atemp>18.0</ns3:atemp>
          </ns3:TrackPointExtension>
        </extensions>
      </trkpt>
      <trkpt lat="42.5630610622465610504150390625" lon="20.044747777283191680908203125">
        <ele>2082.800048828125</ele>
        <time>2026-06-15T12:23:28.000Z</time>
        <extensions>
          <ns3:TrackPointExtension>
            <ns3:atemp>18.0</ns3:atemp>
          </ns3:TrackPointExtension>
        </extensions>
      </trkpt>
      <trkpt lat="42.5630610622465610504150390625" lon="20.044747777283191680908203125">
        <ele>2082.800048828125</ele>
        <time>2026-06-15T12:23:29.000Z</time>
        <extensions>
          <ns3:TrackPointExtension>
            <ns3:atemp>18.0</ns3:atemp>
          </ns3:TrackPointExtension>
        </extensions>
      </trkpt>
      <trkpt lat="42.5630610622465610504150390625" lon="20.044747777283191680908203125">
        <ele>2082.800048828125</ele>
        <time>2026-06-15T12:23:30.000Z</time>
        <extensions>
          <ns3:TrackPointExtension>
            <ns3:atemp>18.0</ns3:atemp>
          </ns3:TrackPointExtension>
        </extensions>
      </trkpt>
      <trkpt lat="42.5630610622465610504150390625" lon="20.044747777283191680908203125">
        <ele>2082.800048828125</ele>
        <time>2026-06-15T12:23:31.000Z</time>
        <extensions>
          <ns3:TrackPointExtension>
            <ns3:atemp>18.0</ns3:atemp>
          </ns3:TrackPointExtension>
        </extensions>
      </trkpt>
      <trkpt lat="42.5630610622465610504150390625" lon="20.044747777283191680908203125">
        <ele>2082.800048828125</ele>
        <time>2026-06-15T12:23:32.000Z</time>
        <extensions>
          <ns3:TrackPointExtension>
            <ns3:atemp>18.0</ns3:atemp>
          </ns3:TrackPointExtension>
        </extensions>
      </trkpt>
      <trkpt lat="42.5630610622465610504150390625" lon="20.044747777283191680908203125">
        <ele>2082.800048828125</ele>
        <time>2026-06-15T12:23:33.000Z</time>
        <extensions>
          <ns3:TrackPointExtension>
            <ns3:atemp>18.0</ns3:atemp>
          </ns3:TrackPointExtension>
        </extensions>
      </trkpt>
      <trkpt lat="42.5630610622465610504150390625" lon="20.044747777283191680908203125">
        <ele>2082.800048828125</ele>
        <time>2026-06-15T12:23:34.000Z</time>
        <extensions>
          <ns3:TrackPointExtension>
            <ns3:atemp>18.0</ns3:atemp>
          </ns3:TrackPointExtension>
        </extensions>
      </trkpt>
      <trkpt lat="42.5630610622465610504150390625" lon="20.044747777283191680908203125">
        <ele>2082.800048828125</ele>
        <time>2026-06-15T12:23:35.000Z</time>
        <extensions>
          <ns3:TrackPointExtension>
            <ns3:atemp>18.0</ns3:atemp>
          </ns3:TrackPointExtension>
        </extensions>
      </trkpt>
      <trkpt lat="42.5630610622465610504150390625" lon="20.044747777283191680908203125">
        <ele>2082.800048828125</ele>
        <time>2026-06-15T12:23:36.000Z</time>
        <extensions>
          <ns3:TrackPointExtension>
            <ns3:atemp>18.0</ns3:atemp>
          </ns3:TrackPointExtension>
        </extensions>
      </trkpt>
      <trkpt lat="42.5630610622465610504150390625" lon="20.044747777283191680908203125">
        <ele>2082.800048828125</ele>
        <time>2026-06-15T12:23:37.000Z</time>
        <extensions>
          <ns3:TrackPointExtension>
            <ns3:atemp>18.0</ns3:atemp>
          </ns3:TrackPointExtension>
        </extensions>
      </trkpt>
      <trkpt lat="42.5630610622465610504150390625" lon="20.044747777283191680908203125">
        <ele>2082.800048828125</ele>
        <time>2026-06-15T12:23:38.000Z</time>
        <extensions>
          <ns3:TrackPointExtension>
            <ns3:atemp>18.0</ns3:atemp>
          </ns3:TrackPointExtension>
        </extensions>
      </trkpt>
      <trkpt lat="42.5630610622465610504150390625" lon="20.044747777283191680908203125">
        <ele>2082.60009765625</ele>
        <time>2026-06-15T12:23:39.000Z</time>
        <extensions>
          <ns3:TrackPointExtension>
            <ns3:atemp>18.0</ns3:atemp>
          </ns3:TrackPointExtension>
        </extensions>
      </trkpt>
      <trkpt lat="42.5630610622465610504150390625" lon="20.044747777283191680908203125">
        <ele>2082.60009765625</ele>
        <time>2026-06-15T12:23:40.000Z</time>
        <extensions>
          <ns3:TrackPointExtension>
            <ns3:atemp>18.0</ns3:atemp>
          </ns3:TrackPointExtension>
        </extensions>
      </trkpt>
      <trkpt lat="42.5630610622465610504150390625" lon="20.044747777283191680908203125">
        <ele>2082.60009765625</ele>
        <time>2026-06-15T12:23:41.000Z</time>
        <extensions>
          <ns3:TrackPointExtension>
            <ns3:atemp>18.0</ns3:atemp>
          </ns3:TrackPointExtension>
        </extensions>
      </trkpt>
      <trkpt lat="42.5630610622465610504150390625" lon="20.044747777283191680908203125">
        <ele>2082.60009765625</ele>
        <time>2026-06-15T12:23:42.000Z</time>
        <extensions>
          <ns3:TrackPointExtension>
            <ns3:atemp>18.0</ns3:atemp>
          </ns3:TrackPointExtension>
        </extensions>
      </trkpt>
      <trkpt lat="42.5630610622465610504150390625" lon="20.044747777283191680908203125">
        <ele>2082.60009765625</ele>
        <time>2026-06-15T12:23:43.000Z</time>
        <extensions>
          <ns3:TrackPointExtension>
            <ns3:atemp>18.0</ns3:atemp>
          </ns3:TrackPointExtension>
        </extensions>
      </trkpt>
      <trkpt lat="42.5630610622465610504150390625" lon="20.044747777283191680908203125">
        <ele>2082.60009765625</ele>
        <time>2026-06-15T12:23:44.000Z</time>
        <extensions>
          <ns3:TrackPointExtension>
            <ns3:atemp>18.0</ns3:atemp>
          </ns3:TrackPointExtension>
        </extensions>
      </trkpt>
      <trkpt lat="42.5630610622465610504150390625" lon="20.044747777283191680908203125">
        <ele>2082.60009765625</ele>
        <time>2026-06-15T12:23:45.000Z</time>
        <extensions>
          <ns3:TrackPointExtension>
            <ns3:atemp>18.0</ns3:atemp>
          </ns3:TrackPointExtension>
        </extensions>
      </trkpt>
      <trkpt lat="42.5630610622465610504150390625" lon="20.044747777283191680908203125">
        <ele>2082.60009765625</ele>
        <time>2026-06-15T12:23:46.000Z</time>
        <extensions>
          <ns3:TrackPointExtension>
            <ns3:atemp>18.0</ns3:atemp>
          </ns3:TrackPointExtension>
        </extensions>
      </trkpt>
      <trkpt lat="42.5630610622465610504150390625" lon="20.044747777283191680908203125">
        <ele>2082.60009765625</ele>
        <time>2026-06-15T12:23:47.000Z</time>
        <extensions>
          <ns3:TrackPointExtension>
            <ns3:atemp>18.0</ns3:atemp>
          </ns3:TrackPointExtension>
        </extensions>
      </trkpt>
      <trkpt lat="42.5630610622465610504150390625" lon="20.044747777283191680908203125">
        <ele>2082.60009765625</ele>
        <time>2026-06-15T12:23:48.000Z</time>
        <extensions>
          <ns3:TrackPointExtension>
            <ns3:atemp>18.0</ns3:atemp>
          </ns3:TrackPointExtension>
        </extensions>
      </trkpt>
      <trkpt lat="42.5630610622465610504150390625" lon="20.044747777283191680908203125">
        <ele>2082.800048828125</ele>
        <time>2026-06-15T12:23:49.000Z</time>
        <extensions>
          <ns3:TrackPointExtension>
            <ns3:atemp>18.0</ns3:atemp>
          </ns3:TrackPointExtension>
        </extensions>
      </trkpt>
      <trkpt lat="42.5630610622465610504150390625" lon="20.044747777283191680908203125">
        <ele>2082.800048828125</ele>
        <time>2026-06-15T12:23:50.000Z</time>
        <extensions>
          <ns3:TrackPointExtension>
            <ns3:atemp>18.0</ns3:atemp>
          </ns3:TrackPointExtension>
        </extensions>
      </trkpt>
      <trkpt lat="42.5630610622465610504150390625" lon="20.044747777283191680908203125">
        <ele>2082.800048828125</ele>
        <time>2026-06-15T12:23:51.000Z</time>
        <extensions>
          <ns3:TrackPointExtension>
            <ns3:atemp>18.0</ns3:atemp>
          </ns3:TrackPointExtension>
        </extensions>
      </trkpt>
      <trkpt lat="42.5630610622465610504150390625" lon="20.044747777283191680908203125">
        <ele>2083</ele>
        <time>2026-06-15T12:23:52.000Z</time>
        <extensions>
          <ns3:TrackPointExtension>
            <ns3:atemp>18.0</ns3:atemp>
          </ns3:TrackPointExtension>
        </extensions>
      </trkpt>
      <trkpt lat="42.5630610622465610504150390625" lon="20.044747777283191680908203125">
        <ele>2083</ele>
        <time>2026-06-15T12:23:53.000Z</time>
        <extensions>
          <ns3:TrackPointExtension>
            <ns3:atemp>18.0</ns3:atemp>
          </ns3:TrackPointExtension>
        </extensions>
      </trkpt>
      <trkpt lat="42.5630610622465610504150390625" lon="20.044747777283191680908203125">
        <ele>2083</ele>
        <time>2026-06-15T12:23:54.000Z</time>
        <extensions>
          <ns3:TrackPointExtension>
            <ns3:atemp>18.0</ns3:atemp>
          </ns3:TrackPointExtension>
        </extensions>
      </trkpt>
      <trkpt lat="42.5630610622465610504150390625" lon="20.044747777283191680908203125">
        <ele>2083</ele>
        <time>2026-06-15T12:23:55.000Z</time>
        <extensions>
          <ns3:TrackPointExtension>
            <ns3:atemp>18.0</ns3:atemp>
          </ns3:TrackPointExtension>
        </extensions>
      </trkpt>
      <trkpt lat="42.5630610622465610504150390625" lon="20.044747777283191680908203125">
        <ele>2083</ele>
        <time>2026-06-15T12:23:56.000Z</time>
        <extensions>
          <ns3:TrackPointExtension>
            <ns3:atemp>18.0</ns3:atemp>
          </ns3:TrackPointExtension>
        </extensions>
      </trkpt>
      <trkpt lat="42.5630610622465610504150390625" lon="20.044747777283191680908203125">
        <ele>2082.800048828125</ele>
        <time>2026-06-15T12:23:57.000Z</time>
        <extensions>
          <ns3:TrackPointExtension>
            <ns3:atemp>18.0</ns3:atemp>
          </ns3:TrackPointExtension>
        </extensions>
      </trkpt>
      <trkpt lat="42.5630610622465610504150390625" lon="20.044747777283191680908203125">
        <ele>2082.800048828125</ele>
        <time>2026-06-15T12:23:58.000Z</time>
        <extensions>
          <ns3:TrackPointExtension>
            <ns3:atemp>18.0</ns3:atemp>
          </ns3:TrackPointExtension>
        </extensions>
      </trkpt>
      <trkpt lat="42.5630610622465610504150390625" lon="20.044747777283191680908203125">
        <ele>2082.800048828125</ele>
        <time>2026-06-15T12:23:59.000Z</time>
        <extensions>
          <ns3:TrackPointExtension>
            <ns3:atemp>18.0</ns3:atemp>
          </ns3:TrackPointExtension>
        </extensions>
      </trkpt>
      <trkpt lat="42.5630610622465610504150390625" lon="20.044747777283191680908203125">
        <ele>2082.800048828125</ele>
        <time>2026-06-15T12:24:00.000Z</time>
        <extensions>
          <ns3:TrackPointExtension>
            <ns3:atemp>18.0</ns3:atemp>
          </ns3:TrackPointExtension>
        </extensions>
      </trkpt>
      <trkpt lat="42.5630610622465610504150390625" lon="20.044747777283191680908203125">
        <ele>2082.800048828125</ele>
        <time>2026-06-15T12:24:01.000Z</time>
        <extensions>
          <ns3:TrackPointExtension>
            <ns3:atemp>18.0</ns3:atemp>
          </ns3:TrackPointExtension>
        </extensions>
      </trkpt>
      <trkpt lat="42.5630610622465610504150390625" lon="20.044747777283191680908203125">
        <ele>2082.800048828125</ele>
        <time>2026-06-15T12:24:02.000Z</time>
        <extensions>
          <ns3:TrackPointExtension>
            <ns3:atemp>18.0</ns3:atemp>
          </ns3:TrackPointExtension>
        </extensions>
      </trkpt>
      <trkpt lat="42.5630610622465610504150390625" lon="20.044747777283191680908203125">
        <ele>2082.800048828125</ele>
        <time>2026-06-15T12:24:03.000Z</time>
        <extensions>
          <ns3:TrackPointExtension>
            <ns3:atemp>18.0</ns3:atemp>
          </ns3:TrackPointExtension>
        </extensions>
      </trkpt>
      <trkpt lat="42.5630610622465610504150390625" lon="20.044747777283191680908203125">
        <ele>2082.800048828125</ele>
        <time>2026-06-15T12:24:04.000Z</time>
        <extensions>
          <ns3:TrackPointExtension>
            <ns3:atemp>18.0</ns3:atemp>
          </ns3:TrackPointExtension>
        </extensions>
      </trkpt>
      <trkpt lat="42.5630610622465610504150390625" lon="20.044747777283191680908203125">
        <ele>2082.800048828125</ele>
        <time>2026-06-15T12:24:05.000Z</time>
        <extensions>
          <ns3:TrackPointExtension>
            <ns3:atemp>18.0</ns3:atemp>
          </ns3:TrackPointExtension>
        </extensions>
      </trkpt>
      <trkpt lat="42.5630610622465610504150390625" lon="20.044747777283191680908203125">
        <ele>2082.800048828125</ele>
        <time>2026-06-15T12:24:06.000Z</time>
        <extensions>
          <ns3:TrackPointExtension>
            <ns3:atemp>18.0</ns3:atemp>
          </ns3:TrackPointExtension>
        </extensions>
      </trkpt>
      <trkpt lat="42.5630610622465610504150390625" lon="20.044747777283191680908203125">
        <ele>2082.800048828125</ele>
        <time>2026-06-15T12:24:07.000Z</time>
        <extensions>
          <ns3:TrackPointExtension>
            <ns3:atemp>18.0</ns3:atemp>
          </ns3:TrackPointExtension>
        </extensions>
      </trkpt>
      <trkpt lat="42.5630610622465610504150390625" lon="20.044747777283191680908203125">
        <ele>2082.800048828125</ele>
        <time>2026-06-15T12:24:08.000Z</time>
        <extensions>
          <ns3:TrackPointExtension>
            <ns3:atemp>18.0</ns3:atemp>
          </ns3:TrackPointExtension>
        </extensions>
      </trkpt>
      <trkpt lat="42.5630610622465610504150390625" lon="20.044747777283191680908203125">
        <ele>2082.800048828125</ele>
        <time>2026-06-15T12:24:09.000Z</time>
        <extensions>
          <ns3:TrackPointExtension>
            <ns3:atemp>18.0</ns3:atemp>
          </ns3:TrackPointExtension>
        </extensions>
      </trkpt>
      <trkpt lat="42.5630610622465610504150390625" lon="20.044747777283191680908203125">
        <ele>2082.800048828125</ele>
        <time>2026-06-15T12:24:10.000Z</time>
        <extensions>
          <ns3:TrackPointExtension>
            <ns3:atemp>18.0</ns3:atemp>
          </ns3:TrackPointExtension>
        </extensions>
      </trkpt>
      <trkpt lat="42.5630610622465610504150390625" lon="20.044747777283191680908203125">
        <ele>2082.800048828125</ele>
        <time>2026-06-15T12:24:11.000Z</time>
        <extensions>
          <ns3:TrackPointExtension>
            <ns3:atemp>18.0</ns3:atemp>
          </ns3:TrackPointExtension>
        </extensions>
      </trkpt>
      <trkpt lat="42.5630610622465610504150390625" lon="20.044747777283191680908203125">
        <ele>2083</ele>
        <time>2026-06-15T12:24:12.000Z</time>
        <extensions>
          <ns3:TrackPointExtension>
            <ns3:atemp>18.0</ns3:atemp>
          </ns3:TrackPointExtension>
        </extensions>
      </trkpt>
      <trkpt lat="42.5630610622465610504150390625" lon="20.044747777283191680908203125">
        <ele>2083</ele>
        <time>2026-06-15T12:24:13.000Z</time>
        <extensions>
          <ns3:TrackPointExtension>
            <ns3:atemp>18.0</ns3:atemp>
          </ns3:TrackPointExtension>
        </extensions>
      </trkpt>
      <trkpt lat="42.5630610622465610504150390625" lon="20.044747777283191680908203125">
        <ele>2083</ele>
        <time>2026-06-15T12:24:14.000Z</time>
        <extensions>
          <ns3:TrackPointExtension>
            <ns3:atemp>18.0</ns3:atemp>
          </ns3:TrackPointExtension>
        </extensions>
      </trkpt>
      <trkpt lat="42.5630610622465610504150390625" lon="20.044747777283191680908203125">
        <ele>2083</ele>
        <time>2026-06-15T12:24:15.000Z</time>
        <extensions>
          <ns3:TrackPointExtension>
            <ns3:atemp>18.0</ns3:atemp>
          </ns3:TrackPointExtension>
        </extensions>
      </trkpt>
      <trkpt lat="42.5630610622465610504150390625" lon="20.044747777283191680908203125">
        <ele>2083</ele>
        <time>2026-06-15T12:24:16.000Z</time>
        <extensions>
          <ns3:TrackPointExtension>
            <ns3:atemp>18.0</ns3:atemp>
          </ns3:TrackPointExtension>
        </extensions>
      </trkpt>
      <trkpt lat="42.5630610622465610504150390625" lon="20.044747777283191680908203125">
        <ele>2083.199951171875</ele>
        <time>2026-06-15T12:24:17.000Z</time>
        <extensions>
          <ns3:TrackPointExtension>
            <ns3:atemp>18.0</ns3:atemp>
          </ns3:TrackPointExtension>
        </extensions>
      </trkpt>
      <trkpt lat="42.5630610622465610504150390625" lon="20.044747777283191680908203125">
        <ele>2083.199951171875</ele>
        <time>2026-06-15T12:24:18.000Z</time>
        <extensions>
          <ns3:TrackPointExtension>
            <ns3:atemp>18.0</ns3:atemp>
          </ns3:TrackPointExtension>
        </extensions>
      </trkpt>
      <trkpt lat="42.5630610622465610504150390625" lon="20.044747777283191680908203125">
        <ele>2083.199951171875</ele>
        <time>2026-06-15T12:24:19.000Z</time>
        <extensions>
          <ns3:TrackPointExtension>
            <ns3:atemp>18.0</ns3:atemp>
          </ns3:TrackPointExtension>
        </extensions>
      </trkpt>
      <trkpt lat="42.5630610622465610504150390625" lon="20.044747777283191680908203125">
        <ele>2083.199951171875</ele>
        <time>2026-06-15T12:24:20.000Z</time>
        <extensions>
          <ns3:TrackPointExtension>
            <ns3:atemp>18.0</ns3:atemp>
          </ns3:TrackPointExtension>
        </extensions>
      </trkpt>
      <trkpt lat="42.5630610622465610504150390625" lon="20.044747777283191680908203125">
        <ele>2083.39990234375</ele>
        <time>2026-06-15T12:24:21.000Z</time>
        <extensions>
          <ns3:TrackPointExtension>
            <ns3:atemp>18.0</ns3:atemp>
          </ns3:TrackPointExtension>
        </extensions>
      </trkpt>
      <trkpt lat="42.5630610622465610504150390625" lon="20.044747777283191680908203125">
        <ele>2083.199951171875</ele>
        <time>2026-06-15T12:24:22.000Z</time>
        <extensions>
          <ns3:TrackPointExtension>
            <ns3:atemp>18.0</ns3:atemp>
          </ns3:TrackPointExtension>
        </extensions>
      </trkpt>
      <trkpt lat="42.5630610622465610504150390625" lon="20.044747777283191680908203125">
        <ele>2083.199951171875</ele>
        <time>2026-06-15T12:24:23.000Z</time>
        <extensions>
          <ns3:TrackPointExtension>
            <ns3:atemp>18.0</ns3:atemp>
          </ns3:TrackPointExtension>
        </extensions>
      </trkpt>
      <trkpt lat="42.5630610622465610504150390625" lon="20.044747777283191680908203125">
        <ele>2083.199951171875</ele>
        <time>2026-06-15T12:24:24.000Z</time>
        <extensions>
          <ns3:TrackPointExtension>
            <ns3:atemp>18.0</ns3:atemp>
          </ns3:TrackPointExtension>
        </extensions>
      </trkpt>
      <trkpt lat="42.5630610622465610504150390625" lon="20.044747777283191680908203125">
        <ele>2083.199951171875</ele>
        <time>2026-06-15T12:24:25.000Z</time>
        <extensions>
          <ns3:TrackPointExtension>
            <ns3:atemp>18.0</ns3:atemp>
          </ns3:TrackPointExtension>
        </extensions>
      </trkpt>
      <trkpt lat="42.5630610622465610504150390625" lon="20.044747777283191680908203125">
        <ele>2083.199951171875</ele>
        <time>2026-06-15T12:24:26.000Z</time>
        <extensions>
          <ns3:TrackPointExtension>
            <ns3:atemp>18.0</ns3:atemp>
          </ns3:TrackPointExtension>
        </extensions>
      </trkpt>
      <trkpt lat="42.5630610622465610504150390625" lon="20.044747777283191680908203125">
        <ele>2083.199951171875</ele>
        <time>2026-06-15T12:24:27.000Z</time>
        <extensions>
          <ns3:TrackPointExtension>
            <ns3:atemp>18.0</ns3:atemp>
          </ns3:TrackPointExtension>
        </extensions>
      </trkpt>
      <trkpt lat="42.5630610622465610504150390625" lon="20.044747777283191680908203125">
        <ele>2083.199951171875</ele>
        <time>2026-06-15T12:24:28.000Z</time>
        <extensions>
          <ns3:TrackPointExtension>
            <ns3:atemp>18.0</ns3:atemp>
          </ns3:TrackPointExtension>
        </extensions>
      </trkpt>
      <trkpt lat="42.5630610622465610504150390625" lon="20.044747777283191680908203125">
        <ele>2083.199951171875</ele>
        <time>2026-06-15T12:24:29.000Z</time>
        <extensions>
          <ns3:TrackPointExtension>
            <ns3:atemp>18.0</ns3:atemp>
          </ns3:TrackPointExtension>
        </extensions>
      </trkpt>
      <trkpt lat="42.5630610622465610504150390625" lon="20.044747777283191680908203125">
        <ele>2083.39990234375</ele>
        <time>2026-06-15T12:24:30.000Z</time>
        <extensions>
          <ns3:TrackPointExtension>
            <ns3:atemp>18.0</ns3:atemp>
          </ns3:TrackPointExtension>
        </extensions>
      </trkpt>
      <trkpt lat="42.5630610622465610504150390625" lon="20.044747777283191680908203125">
        <ele>2083.39990234375</ele>
        <time>2026-06-15T12:24:31.000Z</time>
        <extensions>
          <ns3:TrackPointExtension>
            <ns3:atemp>18.0</ns3:atemp>
          </ns3:TrackPointExtension>
        </extensions>
      </trkpt>
      <trkpt lat="42.5630610622465610504150390625" lon="20.044747777283191680908203125">
        <ele>2083.39990234375</ele>
        <time>2026-06-15T12:24:32.000Z</time>
        <extensions>
          <ns3:TrackPointExtension>
            <ns3:atemp>18.0</ns3:atemp>
          </ns3:TrackPointExtension>
        </extensions>
      </trkpt>
      <trkpt lat="42.5630610622465610504150390625" lon="20.044747777283191680908203125">
        <ele>2083.39990234375</ele>
        <time>2026-06-15T12:24:33.000Z</time>
        <extensions>
          <ns3:TrackPointExtension>
            <ns3:atemp>18.0</ns3:atemp>
          </ns3:TrackPointExtension>
        </extensions>
      </trkpt>
      <trkpt lat="42.5630610622465610504150390625" lon="20.044747777283191680908203125">
        <ele>2083.39990234375</ele>
        <time>2026-06-15T12:24:34.000Z</time>
        <extensions>
          <ns3:TrackPointExtension>
            <ns3:atemp>18.0</ns3:atemp>
          </ns3:TrackPointExtension>
        </extensions>
      </trkpt>
      <trkpt lat="42.5630610622465610504150390625" lon="20.044747777283191680908203125">
        <ele>2083.39990234375</ele>
        <time>2026-06-15T12:24:35.000Z</time>
        <extensions>
          <ns3:TrackPointExtension>
            <ns3:atemp>18.0</ns3:atemp>
          </ns3:TrackPointExtension>
        </extensions>
      </trkpt>
      <trkpt lat="42.5630610622465610504150390625" lon="20.044747777283191680908203125">
        <ele>2083.199951171875</ele>
        <time>2026-06-15T12:24:36.000Z</time>
        <extensions>
          <ns3:TrackPointExtension>
            <ns3:atemp>18.0</ns3:atemp>
          </ns3:TrackPointExtension>
        </extensions>
      </trkpt>
      <trkpt lat="42.5630610622465610504150390625" lon="20.044747777283191680908203125">
        <ele>2083.199951171875</ele>
        <time>2026-06-15T12:24:37.000Z</time>
        <extensions>
          <ns3:TrackPointExtension>
            <ns3:atemp>18.0</ns3:atemp>
          </ns3:TrackPointExtension>
        </extensions>
      </trkpt>
      <trkpt lat="42.5630610622465610504150390625" lon="20.044747777283191680908203125">
        <ele>2083</ele>
        <time>2026-06-15T12:24:38.000Z</time>
        <extensions>
          <ns3:TrackPointExtension>
            <ns3:atemp>18.0</ns3:atemp>
          </ns3:TrackPointExtension>
        </extensions>
      </trkpt>
      <trkpt lat="42.5630610622465610504150390625" lon="20.044747777283191680908203125">
        <ele>2083</ele>
        <time>2026-06-15T12:24:39.000Z</time>
        <extensions>
          <ns3:TrackPointExtension>
            <ns3:atemp>18.0</ns3:atemp>
          </ns3:TrackPointExtension>
        </extensions>
      </trkpt>
      <trkpt lat="42.5630610622465610504150390625" lon="20.044747777283191680908203125">
        <ele>2083</ele>
        <time>2026-06-15T12:24:40.000Z</time>
        <extensions>
          <ns3:TrackPointExtension>
            <ns3:atemp>18.0</ns3:atemp>
          </ns3:TrackPointExtension>
        </extensions>
      </trkpt>
      <trkpt lat="42.5630610622465610504150390625" lon="20.044747777283191680908203125">
        <ele>2083</ele>
        <time>2026-06-15T12:24:41.000Z</time>
        <extensions>
          <ns3:TrackPointExtension>
            <ns3:atemp>18.0</ns3:atemp>
          </ns3:TrackPointExtension>
        </extensions>
      </trkpt>
      <trkpt lat="42.5630610622465610504150390625" lon="20.044747777283191680908203125">
        <ele>2083</ele>
        <time>2026-06-15T12:24:42.000Z</time>
        <extensions>
          <ns3:TrackPointExtension>
            <ns3:atemp>18.0</ns3:atemp>
          </ns3:TrackPointExtension>
        </extensions>
      </trkpt>
      <trkpt lat="42.5630610622465610504150390625" lon="20.044747777283191680908203125">
        <ele>2083</ele>
        <time>2026-06-15T12:24:43.000Z</time>
        <extensions>
          <ns3:TrackPointExtension>
            <ns3:atemp>18.0</ns3:atemp>
          </ns3:TrackPointExtension>
        </extensions>
      </trkpt>
      <trkpt lat="42.5630610622465610504150390625" lon="20.044747777283191680908203125">
        <ele>2083</ele>
        <time>2026-06-15T12:24:44.000Z</time>
        <extensions>
          <ns3:TrackPointExtension>
            <ns3:atemp>18.0</ns3:atemp>
          </ns3:TrackPointExtension>
        </extensions>
      </trkpt>
      <trkpt lat="42.5630610622465610504150390625" lon="20.044747777283191680908203125">
        <ele>2083</ele>
        <time>2026-06-15T12:24:45.000Z</time>
        <extensions>
          <ns3:TrackPointExtension>
            <ns3:atemp>18.0</ns3:atemp>
          </ns3:TrackPointExtension>
        </extensions>
      </trkpt>
      <trkpt lat="42.5630610622465610504150390625" lon="20.044747777283191680908203125">
        <ele>2083</ele>
        <time>2026-06-15T12:24:46.000Z</time>
        <extensions>
          <ns3:TrackPointExtension>
            <ns3:atemp>18.0</ns3:atemp>
          </ns3:TrackPointExtension>
        </extensions>
      </trkpt>
      <trkpt lat="42.5630610622465610504150390625" lon="20.044747777283191680908203125">
        <ele>2083</ele>
        <time>2026-06-15T12:24:47.000Z</time>
        <extensions>
          <ns3:TrackPointExtension>
            <ns3:atemp>18.0</ns3:atemp>
          </ns3:TrackPointExtension>
        </extensions>
      </trkpt>
      <trkpt lat="42.5630610622465610504150390625" lon="20.044747777283191680908203125">
        <ele>2083</ele>
        <time>2026-06-15T12:24:48.000Z</time>
        <extensions>
          <ns3:TrackPointExtension>
            <ns3:atemp>18.0</ns3:atemp>
          </ns3:TrackPointExtension>
        </extensions>
      </trkpt>
      <trkpt lat="42.5630610622465610504150390625" lon="20.044747777283191680908203125">
        <ele>2083</ele>
        <time>2026-06-15T12:24:49.000Z</time>
        <extensions>
          <ns3:TrackPointExtension>
            <ns3:atemp>18.0</ns3:atemp>
          </ns3:TrackPointExtension>
        </extensions>
      </trkpt>
      <trkpt lat="42.5630610622465610504150390625" lon="20.044747777283191680908203125">
        <ele>2083</ele>
        <time>2026-06-15T12:24:50.000Z</time>
        <extensions>
          <ns3:TrackPointExtension>
            <ns3:atemp>18.0</ns3:atemp>
          </ns3:TrackPointExtension>
        </extensions>
      </trkpt>
      <trkpt lat="42.5630610622465610504150390625" lon="20.044747777283191680908203125">
        <ele>2083</ele>
        <time>2026-06-15T12:24:51.000Z</time>
        <extensions>
          <ns3:TrackPointExtension>
            <ns3:atemp>18.0</ns3:atemp>
          </ns3:TrackPointExtension>
        </extensions>
      </trkpt>
      <trkpt lat="42.5630610622465610504150390625" lon="20.044747777283191680908203125">
        <ele>2083</ele>
        <time>2026-06-15T12:24:52.000Z</time>
        <extensions>
          <ns3:TrackPointExtension>
            <ns3:atemp>18.0</ns3:atemp>
          </ns3:TrackPointExtension>
        </extensions>
      </trkpt>
      <trkpt lat="42.5630610622465610504150390625" lon="20.044747777283191680908203125">
        <ele>2083</ele>
        <time>2026-06-15T12:24:53.000Z</time>
        <extensions>
          <ns3:TrackPointExtension>
            <ns3:atemp>18.0</ns3:atemp>
          </ns3:TrackPointExtension>
        </extensions>
      </trkpt>
      <trkpt lat="42.5630610622465610504150390625" lon="20.044747777283191680908203125">
        <ele>2083</ele>
        <time>2026-06-15T12:24:54.000Z</time>
        <extensions>
          <ns3:TrackPointExtension>
            <ns3:atemp>18.0</ns3:atemp>
          </ns3:TrackPointExtension>
        </extensions>
      </trkpt>
      <trkpt lat="42.5630610622465610504150390625" lon="20.044747777283191680908203125">
        <ele>2083</ele>
        <time>2026-06-15T12:24:55.000Z</time>
        <extensions>
          <ns3:TrackPointExtension>
            <ns3:atemp>18.0</ns3:atemp>
          </ns3:TrackPointExtension>
        </extensions>
      </trkpt>
      <trkpt lat="42.5630610622465610504150390625" lon="20.044747777283191680908203125">
        <ele>2083</ele>
        <time>2026-06-15T12:24:56.000Z</time>
        <extensions>
          <ns3:TrackPointExtension>
            <ns3:atemp>18.0</ns3:atemp>
          </ns3:TrackPointExtension>
        </extensions>
      </trkpt>
      <trkpt lat="42.5630610622465610504150390625" lon="20.044747777283191680908203125">
        <ele>2083</ele>
        <time>2026-06-15T12:24:57.000Z</time>
        <extensions>
          <ns3:TrackPointExtension>
            <ns3:atemp>18.0</ns3:atemp>
          </ns3:TrackPointExtension>
        </extensions>
      </trkpt>
      <trkpt lat="42.5630610622465610504150390625" lon="20.044747777283191680908203125">
        <ele>2083</ele>
        <time>2026-06-15T12:24:58.000Z</time>
        <extensions>
          <ns3:TrackPointExtension>
            <ns3:atemp>18.0</ns3:atemp>
          </ns3:TrackPointExtension>
        </extensions>
      </trkpt>
      <trkpt lat="42.5630610622465610504150390625" lon="20.044747777283191680908203125">
        <ele>2083</ele>
        <time>2026-06-15T12:24:59.000Z</time>
        <extensions>
          <ns3:TrackPointExtension>
            <ns3:atemp>18.0</ns3:atemp>
          </ns3:TrackPointExtension>
        </extensions>
      </trkpt>
      <trkpt lat="42.5630610622465610504150390625" lon="20.044747777283191680908203125">
        <ele>2083</ele>
        <time>2026-06-15T12:25:00.000Z</time>
        <extensions>
          <ns3:TrackPointExtension>
            <ns3:atemp>18.0</ns3:atemp>
          </ns3:TrackPointExtension>
        </extensions>
      </trkpt>
      <trkpt lat="42.5630610622465610504150390625" lon="20.044747777283191680908203125">
        <ele>2083</ele>
        <time>2026-06-15T12:25:01.000Z</time>
        <extensions>
          <ns3:TrackPointExtension>
            <ns3:atemp>18.0</ns3:atemp>
          </ns3:TrackPointExtension>
        </extensions>
      </trkpt>
      <trkpt lat="42.5630610622465610504150390625" lon="20.044747777283191680908203125">
        <ele>2083</ele>
        <time>2026-06-15T12:25:02.000Z</time>
        <extensions>
          <ns3:TrackPointExtension>
            <ns3:atemp>18.0</ns3:atemp>
          </ns3:TrackPointExtension>
        </extensions>
      </trkpt>
      <trkpt lat="42.5630610622465610504150390625" lon="20.044747777283191680908203125">
        <ele>2083</ele>
        <time>2026-06-15T12:25:03.000Z</time>
        <extensions>
          <ns3:TrackPointExtension>
            <ns3:atemp>18.0</ns3:atemp>
          </ns3:TrackPointExtension>
        </extensions>
      </trkpt>
      <trkpt lat="42.5630610622465610504150390625" lon="20.044747777283191680908203125">
        <ele>2083</ele>
        <time>2026-06-15T12:25:04.000Z</time>
        <extensions>
          <ns3:TrackPointExtension>
            <ns3:atemp>18.0</ns3:atemp>
          </ns3:TrackPointExtension>
        </extensions>
      </trkpt>
      <trkpt lat="42.5630610622465610504150390625" lon="20.044747777283191680908203125">
        <ele>2083</ele>
        <time>2026-06-15T12:25:05.000Z</time>
        <extensions>
          <ns3:TrackPointExtension>
            <ns3:atemp>18.0</ns3:atemp>
          </ns3:TrackPointExtension>
        </extensions>
      </trkpt>
      <trkpt lat="42.5630610622465610504150390625" lon="20.044747777283191680908203125">
        <ele>2083</ele>
        <time>2026-06-15T12:25:06.000Z</time>
        <extensions>
          <ns3:TrackPointExtension>
            <ns3:atemp>18.0</ns3:atemp>
          </ns3:TrackPointExtension>
        </extensions>
      </trkpt>
      <trkpt lat="42.5630610622465610504150390625" lon="20.044747777283191680908203125">
        <ele>2083</ele>
        <time>2026-06-15T12:25:07.000Z</time>
        <extensions>
          <ns3:TrackPointExtension>
            <ns3:atemp>18.0</ns3:atemp>
          </ns3:TrackPointExtension>
        </extensions>
      </trkpt>
      <trkpt lat="42.5630610622465610504150390625" lon="20.044747777283191680908203125">
        <ele>2083</ele>
        <time>2026-06-15T12:25:08.000Z</time>
        <extensions>
          <ns3:TrackPointExtension>
            <ns3:atemp>18.0</ns3:atemp>
          </ns3:TrackPointExtension>
        </extensions>
      </trkpt>
      <trkpt lat="42.5630610622465610504150390625" lon="20.044747777283191680908203125">
        <ele>2083</ele>
        <time>2026-06-15T12:25:09.000Z</time>
        <extensions>
          <ns3:TrackPointExtension>
            <ns3:atemp>18.0</ns3:atemp>
          </ns3:TrackPointExtension>
        </extensions>
      </trkpt>
      <trkpt lat="42.5630610622465610504150390625" lon="20.044747777283191680908203125">
        <ele>2083</ele>
        <time>2026-06-15T12:25:10.000Z</time>
        <extensions>
          <ns3:TrackPointExtension>
            <ns3:atemp>18.0</ns3:atemp>
          </ns3:TrackPointExtension>
        </extensions>
      </trkpt>
      <trkpt lat="42.5630610622465610504150390625" lon="20.044747777283191680908203125">
        <ele>2083</ele>
        <time>2026-06-15T12:25:11.000Z</time>
        <extensions>
          <ns3:TrackPointExtension>
            <ns3:atemp>18.0</ns3:atemp>
          </ns3:TrackPointExtension>
        </extensions>
      </trkpt>
      <trkpt lat="42.5630610622465610504150390625" lon="20.044747777283191680908203125">
        <ele>2083</ele>
        <time>2026-06-15T12:25:12.000Z</time>
        <extensions>
          <ns3:TrackPointExtension>
            <ns3:atemp>18.0</ns3:atemp>
          </ns3:TrackPointExtension>
        </extensions>
      </trkpt>
      <trkpt lat="42.5630610622465610504150390625" lon="20.044747777283191680908203125">
        <ele>2083</ele>
        <time>2026-06-15T12:25:13.000Z</time>
        <extensions>
          <ns3:TrackPointExtension>
            <ns3:atemp>18.0</ns3:atemp>
          </ns3:TrackPointExtension>
        </extensions>
      </trkpt>
      <trkpt lat="42.5630610622465610504150390625" lon="20.044747777283191680908203125">
        <ele>2083</ele>
        <time>2026-06-15T12:25:14.000Z</time>
        <extensions>
          <ns3:TrackPointExtension>
            <ns3:atemp>18.0</ns3:atemp>
          </ns3:TrackPointExtension>
        </extensions>
      </trkpt>
      <trkpt lat="42.5630610622465610504150390625" lon="20.044747777283191680908203125">
        <ele>2083</ele>
        <time>2026-06-15T12:25:15.000Z</time>
        <extensions>
          <ns3:TrackPointExtension>
            <ns3:atemp>18.0</ns3:atemp>
          </ns3:TrackPointExtension>
        </extensions>
      </trkpt>
      <trkpt lat="42.5630610622465610504150390625" lon="20.044747777283191680908203125">
        <ele>2083</ele>
        <time>2026-06-15T12:25:16.000Z</time>
        <extensions>
          <ns3:TrackPointExtension>
            <ns3:atemp>18.0</ns3:atemp>
          </ns3:TrackPointExtension>
        </extensions>
      </trkpt>
      <trkpt lat="42.5630610622465610504150390625" lon="20.044747777283191680908203125">
        <ele>2083</ele>
        <time>2026-06-15T12:25:17.000Z</time>
        <extensions>
          <ns3:TrackPointExtension>
            <ns3:atemp>18.0</ns3:atemp>
          </ns3:TrackPointExtension>
        </extensions>
      </trkpt>
      <trkpt lat="42.5630610622465610504150390625" lon="20.044747777283191680908203125">
        <ele>2083</ele>
        <time>2026-06-15T12:25:18.000Z</time>
        <extensions>
          <ns3:TrackPointExtension>
            <ns3:atemp>18.0</ns3:atemp>
          </ns3:TrackPointExtension>
        </extensions>
      </trkpt>
      <trkpt lat="42.5630610622465610504150390625" lon="20.044747777283191680908203125">
        <ele>2083</ele>
        <time>2026-06-15T12:25:19.000Z</time>
        <extensions>
          <ns3:TrackPointExtension>
            <ns3:atemp>18.0</ns3:atemp>
          </ns3:TrackPointExtension>
        </extensions>
      </trkpt>
      <trkpt lat="42.5630610622465610504150390625" lon="20.044747777283191680908203125">
        <ele>2083</ele>
        <time>2026-06-15T12:25:20.000Z</time>
        <extensions>
          <ns3:TrackPointExtension>
            <ns3:atemp>18.0</ns3:atemp>
          </ns3:TrackPointExtension>
        </extensions>
      </trkpt>
      <trkpt lat="42.5630610622465610504150390625" lon="20.044747777283191680908203125">
        <ele>2083</ele>
        <time>2026-06-15T12:25:21.000Z</time>
        <extensions>
          <ns3:TrackPointExtension>
            <ns3:atemp>18.0</ns3:atemp>
          </ns3:TrackPointExtension>
        </extensions>
      </trkpt>
      <trkpt lat="42.5630610622465610504150390625" lon="20.044747777283191680908203125">
        <ele>2083</ele>
        <time>2026-06-15T12:25:22.000Z</time>
        <extensions>
          <ns3:TrackPointExtension>
            <ns3:atemp>18.0</ns3:atemp>
          </ns3:TrackPointExtension>
        </extensions>
      </trkpt>
      <trkpt lat="42.5630610622465610504150390625" lon="20.044747777283191680908203125">
        <ele>2083</ele>
        <time>2026-06-15T12:25:23.000Z</time>
        <extensions>
          <ns3:TrackPointExtension>
            <ns3:atemp>18.0</ns3:atemp>
          </ns3:TrackPointExtension>
        </extensions>
      </trkpt>
      <trkpt lat="42.5630610622465610504150390625" lon="20.044747777283191680908203125">
        <ele>2083</ele>
        <time>2026-06-15T12:25:24.000Z</time>
        <extensions>
          <ns3:TrackPointExtension>
            <ns3:atemp>18.0</ns3:atemp>
          </ns3:TrackPointExtension>
        </extensions>
      </trkpt>
      <trkpt lat="42.5630610622465610504150390625" lon="20.044747777283191680908203125">
        <ele>2083</ele>
        <time>2026-06-15T12:25:25.000Z</time>
        <extensions>
          <ns3:TrackPointExtension>
            <ns3:atemp>18.0</ns3:atemp>
          </ns3:TrackPointExtension>
        </extensions>
      </trkpt>
      <trkpt lat="42.5630610622465610504150390625" lon="20.044747777283191680908203125">
        <ele>2083</ele>
        <time>2026-06-15T12:25:26.000Z</time>
        <extensions>
          <ns3:TrackPointExtension>
            <ns3:atemp>18.0</ns3:atemp>
          </ns3:TrackPointExtension>
        </extensions>
      </trkpt>
      <trkpt lat="42.5630610622465610504150390625" lon="20.044747777283191680908203125">
        <ele>2083</ele>
        <time>2026-06-15T12:25:27.000Z</time>
        <extensions>
          <ns3:TrackPointExtension>
            <ns3:atemp>18.0</ns3:atemp>
          </ns3:TrackPointExtension>
        </extensions>
      </trkpt>
      <trkpt lat="42.5630610622465610504150390625" lon="20.044747777283191680908203125">
        <ele>2083</ele>
        <time>2026-06-15T12:25:28.000Z</time>
        <extensions>
          <ns3:TrackPointExtension>
            <ns3:atemp>18.0</ns3:atemp>
          </ns3:TrackPointExtension>
        </extensions>
      </trkpt>
      <trkpt lat="42.5630610622465610504150390625" lon="20.044747777283191680908203125">
        <ele>2083</ele>
        <time>2026-06-15T12:25:29.000Z</time>
        <extensions>
          <ns3:TrackPointExtension>
            <ns3:atemp>18.0</ns3:atemp>
          </ns3:TrackPointExtension>
        </extensions>
      </trkpt>
      <trkpt lat="42.5630610622465610504150390625" lon="20.044747777283191680908203125">
        <ele>2083</ele>
        <time>2026-06-15T12:25:30.000Z</time>
        <extensions>
          <ns3:TrackPointExtension>
            <ns3:atemp>18.0</ns3:atemp>
          </ns3:TrackPointExtension>
        </extensions>
      </trkpt>
      <trkpt lat="42.5630610622465610504150390625" lon="20.044747777283191680908203125">
        <ele>2083</ele>
        <time>2026-06-15T12:25:31.000Z</time>
        <extensions>
          <ns3:TrackPointExtension>
            <ns3:atemp>18.0</ns3:atemp>
          </ns3:TrackPointExtension>
        </extensions>
      </trkpt>
      <trkpt lat="42.5630610622465610504150390625" lon="20.044747777283191680908203125">
        <ele>2083</ele>
        <time>2026-06-15T12:25:32.000Z</time>
        <extensions>
          <ns3:TrackPointExtension>
            <ns3:atemp>18.0</ns3:atemp>
          </ns3:TrackPointExtension>
        </extensions>
      </trkpt>
      <trkpt lat="42.5630610622465610504150390625" lon="20.044747777283191680908203125">
        <ele>2083</ele>
        <time>2026-06-15T12:25:33.000Z</time>
        <extensions>
          <ns3:TrackPointExtension>
            <ns3:atemp>18.0</ns3:atemp>
          </ns3:TrackPointExtension>
        </extensions>
      </trkpt>
      <trkpt lat="42.5630610622465610504150390625" lon="20.044747777283191680908203125">
        <ele>2083</ele>
        <time>2026-06-15T12:25:34.000Z</time>
        <extensions>
          <ns3:TrackPointExtension>
            <ns3:atemp>18.0</ns3:atemp>
          </ns3:TrackPointExtension>
        </extensions>
      </trkpt>
      <trkpt lat="42.5630610622465610504150390625" lon="20.044747777283191680908203125">
        <ele>2083</ele>
        <time>2026-06-15T12:25:35.000Z</time>
        <extensions>
          <ns3:TrackPointExtension>
            <ns3:atemp>18.0</ns3:atemp>
          </ns3:TrackPointExtension>
        </extensions>
      </trkpt>
      <trkpt lat="42.5630610622465610504150390625" lon="20.044747777283191680908203125">
        <ele>2083</ele>
        <time>2026-06-15T12:25:36.000Z</time>
        <extensions>
          <ns3:TrackPointExtension>
            <ns3:atemp>18.0</ns3:atemp>
          </ns3:TrackPointExtension>
        </extensions>
      </trkpt>
      <trkpt lat="42.5630610622465610504150390625" lon="20.044747777283191680908203125">
        <ele>2083</ele>
        <time>2026-06-15T12:25:37.000Z</time>
        <extensions>
          <ns3:TrackPointExtension>
            <ns3:atemp>18.0</ns3:atemp>
          </ns3:TrackPointExtension>
        </extensions>
      </trkpt>
      <trkpt lat="42.5630610622465610504150390625" lon="20.044747777283191680908203125">
        <ele>2083</ele>
        <time>2026-06-15T12:25:38.000Z</time>
        <extensions>
          <ns3:TrackPointExtension>
            <ns3:atemp>18.0</ns3:atemp>
          </ns3:TrackPointExtension>
        </extensions>
      </trkpt>
      <trkpt lat="42.5630610622465610504150390625" lon="20.044747777283191680908203125">
        <ele>2083</ele>
        <time>2026-06-15T12:25:39.000Z</time>
        <extensions>
          <ns3:TrackPointExtension>
            <ns3:atemp>18.0</ns3:atemp>
          </ns3:TrackPointExtension>
        </extensions>
      </trkpt>
      <trkpt lat="42.5630610622465610504150390625" lon="20.044747777283191680908203125">
        <ele>2083</ele>
        <time>2026-06-15T12:25:40.000Z</time>
        <extensions>
          <ns3:TrackPointExtension>
            <ns3:atemp>18.0</ns3:atemp>
          </ns3:TrackPointExtension>
        </extensions>
      </trkpt>
      <trkpt lat="42.5630610622465610504150390625" lon="20.044747777283191680908203125">
        <ele>2083</ele>
        <time>2026-06-15T12:25:41.000Z</time>
        <extensions>
          <ns3:TrackPointExtension>
            <ns3:atemp>18.0</ns3:atemp>
          </ns3:TrackPointExtension>
        </extensions>
      </trkpt>
      <trkpt lat="42.5630610622465610504150390625" lon="20.044747777283191680908203125">
        <ele>2083</ele>
        <time>2026-06-15T12:25:42.000Z</time>
        <extensions>
          <ns3:TrackPointExtension>
            <ns3:atemp>18.0</ns3:atemp>
          </ns3:TrackPointExtension>
        </extensions>
      </trkpt>
      <trkpt lat="42.5630610622465610504150390625" lon="20.044747777283191680908203125">
        <ele>2083</ele>
        <time>2026-06-15T12:25:43.000Z</time>
        <extensions>
          <ns3:TrackPointExtension>
            <ns3:atemp>18.0</ns3:atemp>
          </ns3:TrackPointExtension>
        </extensions>
      </trkpt>
      <trkpt lat="42.5630610622465610504150390625" lon="20.044747777283191680908203125">
        <ele>2083</ele>
        <time>2026-06-15T12:25:44.000Z</time>
        <extensions>
          <ns3:TrackPointExtension>
            <ns3:atemp>18.0</ns3:atemp>
          </ns3:TrackPointExtension>
        </extensions>
      </trkpt>
      <trkpt lat="42.5630610622465610504150390625" lon="20.044747777283191680908203125">
        <ele>2083</ele>
        <time>2026-06-15T12:25:45.000Z</time>
        <extensions>
          <ns3:TrackPointExtension>
            <ns3:atemp>18.0</ns3:atemp>
          </ns3:TrackPointExtension>
        </extensions>
      </trkpt>
      <trkpt lat="42.5630610622465610504150390625" lon="20.044747777283191680908203125">
        <ele>2083</ele>
        <time>2026-06-15T12:25:46.000Z</time>
        <extensions>
          <ns3:TrackPointExtension>
            <ns3:atemp>18.0</ns3:atemp>
          </ns3:TrackPointExtension>
        </extensions>
      </trkpt>
      <trkpt lat="42.5630610622465610504150390625" lon="20.044747777283191680908203125">
        <ele>2083</ele>
        <time>2026-06-15T12:25:47.000Z</time>
        <extensions>
          <ns3:TrackPointExtension>
            <ns3:atemp>18.0</ns3:atemp>
          </ns3:TrackPointExtension>
        </extensions>
      </trkpt>
      <trkpt lat="42.5630610622465610504150390625" lon="20.044747777283191680908203125">
        <ele>2083</ele>
        <time>2026-06-15T12:25:48.000Z</time>
        <extensions>
          <ns3:TrackPointExtension>
            <ns3:atemp>18.0</ns3:atemp>
          </ns3:TrackPointExtension>
        </extensions>
      </trkpt>
      <trkpt lat="42.5630610622465610504150390625" lon="20.044747777283191680908203125">
        <ele>2083</ele>
        <time>2026-06-15T12:25:49.000Z</time>
        <extensions>
          <ns3:TrackPointExtension>
            <ns3:atemp>18.0</ns3:atemp>
          </ns3:TrackPointExtension>
        </extensions>
      </trkpt>
      <trkpt lat="42.5630610622465610504150390625" lon="20.044747777283191680908203125">
        <ele>2083</ele>
        <time>2026-06-15T12:25:50.000Z</time>
        <extensions>
          <ns3:TrackPointExtension>
            <ns3:atemp>18.0</ns3:atemp>
          </ns3:TrackPointExtension>
        </extensions>
      </trkpt>
      <trkpt lat="42.5630610622465610504150390625" lon="20.044747777283191680908203125">
        <ele>2083</ele>
        <time>2026-06-15T12:25:51.000Z</time>
        <extensions>
          <ns3:TrackPointExtension>
            <ns3:atemp>18.0</ns3:atemp>
          </ns3:TrackPointExtension>
        </extensions>
      </trkpt>
      <trkpt lat="42.5630610622465610504150390625" lon="20.044747777283191680908203125">
        <ele>2083</ele>
        <time>2026-06-15T12:25:52.000Z</time>
        <extensions>
          <ns3:TrackPointExtension>
            <ns3:atemp>18.0</ns3:atemp>
          </ns3:TrackPointExtension>
        </extensions>
      </trkpt>
      <trkpt lat="42.5630610622465610504150390625" lon="20.044747777283191680908203125">
        <ele>2083</ele>
        <time>2026-06-15T12:25:53.000Z</time>
        <extensions>
          <ns3:TrackPointExtension>
            <ns3:atemp>18.0</ns3:atemp>
          </ns3:TrackPointExtension>
        </extensions>
      </trkpt>
      <trkpt lat="42.5630610622465610504150390625" lon="20.044747777283191680908203125">
        <ele>2083</ele>
        <time>2026-06-15T12:25:54.000Z</time>
        <extensions>
          <ns3:TrackPointExtension>
            <ns3:atemp>18.0</ns3:atemp>
          </ns3:TrackPointExtension>
        </extensions>
      </trkpt>
      <trkpt lat="42.5630610622465610504150390625" lon="20.044747777283191680908203125">
        <ele>2083</ele>
        <time>2026-06-15T12:25:55.000Z</time>
        <extensions>
          <ns3:TrackPointExtension>
            <ns3:atemp>18.0</ns3:atemp>
          </ns3:TrackPointExtension>
        </extensions>
      </trkpt>
      <trkpt lat="42.5630610622465610504150390625" lon="20.044747777283191680908203125">
        <ele>2083</ele>
        <time>2026-06-15T12:25:56.000Z</time>
        <extensions>
          <ns3:TrackPointExtension>
            <ns3:atemp>18.0</ns3:atemp>
          </ns3:TrackPointExtension>
        </extensions>
      </trkpt>
      <trkpt lat="42.5630610622465610504150390625" lon="20.044747777283191680908203125">
        <ele>2083</ele>
        <time>2026-06-15T12:25:57.000Z</time>
        <extensions>
          <ns3:TrackPointExtension>
            <ns3:atemp>18.0</ns3:atemp>
          </ns3:TrackPointExtension>
        </extensions>
      </trkpt>
      <trkpt lat="42.5630610622465610504150390625" lon="20.044747777283191680908203125">
        <ele>2083</ele>
        <time>2026-06-15T12:25:58.000Z</time>
        <extensions>
          <ns3:TrackPointExtension>
            <ns3:atemp>18.0</ns3:atemp>
          </ns3:TrackPointExtension>
        </extensions>
      </trkpt>
      <trkpt lat="42.5630610622465610504150390625" lon="20.044747777283191680908203125">
        <ele>2083</ele>
        <time>2026-06-15T12:25:59.000Z</time>
        <extensions>
          <ns3:TrackPointExtension>
            <ns3:atemp>18.0</ns3:atemp>
          </ns3:TrackPointExtension>
        </extensions>
      </trkpt>
      <trkpt lat="42.5630610622465610504150390625" lon="20.044747777283191680908203125">
        <ele>2083</ele>
        <time>2026-06-15T12:26:00.000Z</time>
        <extensions>
          <ns3:TrackPointExtension>
            <ns3:atemp>18.0</ns3:atemp>
          </ns3:TrackPointExtension>
        </extensions>
      </trkpt>
      <trkpt lat="42.5630610622465610504150390625" lon="20.044747777283191680908203125">
        <ele>2083</ele>
        <time>2026-06-15T12:26:01.000Z</time>
        <extensions>
          <ns3:TrackPointExtension>
            <ns3:atemp>18.0</ns3:atemp>
          </ns3:TrackPointExtension>
        </extensions>
      </trkpt>
      <trkpt lat="42.5630610622465610504150390625" lon="20.044747777283191680908203125">
        <ele>2083</ele>
        <time>2026-06-15T12:26:02.000Z</time>
        <extensions>
          <ns3:TrackPointExtension>
            <ns3:atemp>18.0</ns3:atemp>
          </ns3:TrackPointExtension>
        </extensions>
      </trkpt>
      <trkpt lat="42.5630610622465610504150390625" lon="20.044747777283191680908203125">
        <ele>2083</ele>
        <time>2026-06-15T12:26:03.000Z</time>
        <extensions>
          <ns3:TrackPointExtension>
            <ns3:atemp>18.0</ns3:atemp>
          </ns3:TrackPointExtension>
        </extensions>
      </trkpt>
      <trkpt lat="42.5630610622465610504150390625" lon="20.044747777283191680908203125">
        <ele>2083</ele>
        <time>2026-06-15T12:26:04.000Z</time>
        <extensions>
          <ns3:TrackPointExtension>
            <ns3:atemp>18.0</ns3:atemp>
          </ns3:TrackPointExtension>
        </extensions>
      </trkpt>
      <trkpt lat="42.5630610622465610504150390625" lon="20.044747777283191680908203125">
        <ele>2083</ele>
        <time>2026-06-15T12:26:05.000Z</time>
        <extensions>
          <ns3:TrackPointExtension>
            <ns3:atemp>18.0</ns3:atemp>
          </ns3:TrackPointExtension>
        </extensions>
      </trkpt>
      <trkpt lat="42.5630610622465610504150390625" lon="20.044747777283191680908203125">
        <ele>2083</ele>
        <time>2026-06-15T12:26:06.000Z</time>
        <extensions>
          <ns3:TrackPointExtension>
            <ns3:atemp>18.0</ns3:atemp>
          </ns3:TrackPointExtension>
        </extensions>
      </trkpt>
      <trkpt lat="42.5630610622465610504150390625" lon="20.044747777283191680908203125">
        <ele>2083</ele>
        <time>2026-06-15T12:26:07.000Z</time>
        <extensions>
          <ns3:TrackPointExtension>
            <ns3:atemp>18.0</ns3:atemp>
          </ns3:TrackPointExtension>
        </extensions>
      </trkpt>
      <trkpt lat="42.5630610622465610504150390625" lon="20.044747777283191680908203125">
        <ele>2083</ele>
        <time>2026-06-15T12:26:08.000Z</time>
        <extensions>
          <ns3:TrackPointExtension>
            <ns3:atemp>18.0</ns3:atemp>
          </ns3:TrackPointExtension>
        </extensions>
      </trkpt>
      <trkpt lat="42.5630610622465610504150390625" lon="20.044747777283191680908203125">
        <ele>2083</ele>
        <time>2026-06-15T12:26:09.000Z</time>
        <extensions>
          <ns3:TrackPointExtension>
            <ns3:atemp>18.0</ns3:atemp>
          </ns3:TrackPointExtension>
        </extensions>
      </trkpt>
      <trkpt lat="42.5630610622465610504150390625" lon="20.044747777283191680908203125">
        <ele>2083</ele>
        <time>2026-06-15T12:26:10.000Z</time>
        <extensions>
          <ns3:TrackPointExtension>
            <ns3:atemp>18.0</ns3:atemp>
          </ns3:TrackPointExtension>
        </extensions>
      </trkpt>
      <trkpt lat="42.5630610622465610504150390625" lon="20.044747777283191680908203125">
        <ele>2083</ele>
        <time>2026-06-15T12:26:11.000Z</time>
        <extensions>
          <ns3:TrackPointExtension>
            <ns3:atemp>18.0</ns3:atemp>
          </ns3:TrackPointExtension>
        </extensions>
      </trkpt>
      <trkpt lat="42.5630610622465610504150390625" lon="20.044747777283191680908203125">
        <ele>2083</ele>
        <time>2026-06-15T12:26:12.000Z</time>
        <extensions>
          <ns3:TrackPointExtension>
            <ns3:atemp>18.0</ns3:atemp>
          </ns3:TrackPointExtension>
        </extensions>
      </trkpt>
      <trkpt lat="42.5630610622465610504150390625" lon="20.044747777283191680908203125">
        <ele>2083</ele>
        <time>2026-06-15T12:26:13.000Z</time>
        <extensions>
          <ns3:TrackPointExtension>
            <ns3:atemp>18.0</ns3:atemp>
          </ns3:TrackPointExtension>
        </extensions>
      </trkpt>
      <trkpt lat="42.5630610622465610504150390625" lon="20.044747777283191680908203125">
        <ele>2083</ele>
        <time>2026-06-15T12:26:14.000Z</time>
        <extensions>
          <ns3:TrackPointExtension>
            <ns3:atemp>18.0</ns3:atemp>
          </ns3:TrackPointExtension>
        </extensions>
      </trkpt>
      <trkpt lat="42.5630610622465610504150390625" lon="20.044747777283191680908203125">
        <ele>2083</ele>
        <time>2026-06-15T12:26:15.000Z</time>
        <extensions>
          <ns3:TrackPointExtension>
            <ns3:atemp>18.0</ns3:atemp>
          </ns3:TrackPointExtension>
        </extensions>
      </trkpt>
      <trkpt lat="42.5630610622465610504150390625" lon="20.044747777283191680908203125">
        <ele>2083</ele>
        <time>2026-06-15T12:26:16.000Z</time>
        <extensions>
          <ns3:TrackPointExtension>
            <ns3:atemp>18.0</ns3:atemp>
          </ns3:TrackPointExtension>
        </extensions>
      </trkpt>
      <trkpt lat="42.5630610622465610504150390625" lon="20.044747777283191680908203125">
        <ele>2083</ele>
        <time>2026-06-15T12:26:17.000Z</time>
        <extensions>
          <ns3:TrackPointExtension>
            <ns3:atemp>18.0</ns3:atemp>
          </ns3:TrackPointExtension>
        </extensions>
      </trkpt>
      <trkpt lat="42.5630610622465610504150390625" lon="20.044747777283191680908203125">
        <ele>2083</ele>
        <time>2026-06-15T12:26:18.000Z</time>
        <extensions>
          <ns3:TrackPointExtension>
            <ns3:atemp>18.0</ns3:atemp>
          </ns3:TrackPointExtension>
        </extensions>
      </trkpt>
      <trkpt lat="42.5630610622465610504150390625" lon="20.044747777283191680908203125">
        <ele>2083</ele>
        <time>2026-06-15T12:26:19.000Z</time>
        <extensions>
          <ns3:TrackPointExtension>
            <ns3:atemp>18.0</ns3:atemp>
          </ns3:TrackPointExtension>
        </extensions>
      </trkpt>
      <trkpt lat="42.5630610622465610504150390625" lon="20.044747777283191680908203125">
        <ele>2083</ele>
        <time>2026-06-15T12:26:20.000Z</time>
        <extensions>
          <ns3:TrackPointExtension>
            <ns3:atemp>18.0</ns3:atemp>
          </ns3:TrackPointExtension>
        </extensions>
      </trkpt>
      <trkpt lat="42.5630610622465610504150390625" lon="20.044747777283191680908203125">
        <ele>2083</ele>
        <time>2026-06-15T12:26:21.000Z</time>
        <extensions>
          <ns3:TrackPointExtension>
            <ns3:atemp>18.0</ns3:atemp>
          </ns3:TrackPointExtension>
        </extensions>
      </trkpt>
      <trkpt lat="42.5630610622465610504150390625" lon="20.044747777283191680908203125">
        <ele>2083</ele>
        <time>2026-06-15T12:26:22.000Z</time>
        <extensions>
          <ns3:TrackPointExtension>
            <ns3:atemp>18.0</ns3:atemp>
          </ns3:TrackPointExtension>
        </extensions>
      </trkpt>
      <trkpt lat="42.5630610622465610504150390625" lon="20.044747777283191680908203125">
        <ele>2083</ele>
        <time>2026-06-15T12:26:23.000Z</time>
        <extensions>
          <ns3:TrackPointExtension>
            <ns3:atemp>18.0</ns3:atemp>
          </ns3:TrackPointExtension>
        </extensions>
      </trkpt>
      <trkpt lat="42.5630610622465610504150390625" lon="20.044747777283191680908203125">
        <ele>2083</ele>
        <time>2026-06-15T12:26:24.000Z</time>
        <extensions>
          <ns3:TrackPointExtension>
            <ns3:atemp>18.0</ns3:atemp>
          </ns3:TrackPointExtension>
        </extensions>
      </trkpt>
      <trkpt lat="42.5630610622465610504150390625" lon="20.044747777283191680908203125">
        <ele>2083</ele>
        <time>2026-06-15T12:26:25.000Z</time>
        <extensions>
          <ns3:TrackPointExtension>
            <ns3:atemp>18.0</ns3:atemp>
          </ns3:TrackPointExtension>
        </extensions>
      </trkpt>
      <trkpt lat="42.5630610622465610504150390625" lon="20.044747777283191680908203125">
        <ele>2083</ele>
        <time>2026-06-15T12:26:26.000Z</time>
        <extensions>
          <ns3:TrackPointExtension>
            <ns3:atemp>18.0</ns3:atemp>
          </ns3:TrackPointExtension>
        </extensions>
      </trkpt>
      <trkpt lat="42.5630610622465610504150390625" lon="20.044747777283191680908203125">
        <ele>2083</ele>
        <time>2026-06-15T12:26:27.000Z</time>
        <extensions>
          <ns3:TrackPointExtension>
            <ns3:atemp>18.0</ns3:atemp>
          </ns3:TrackPointExtension>
        </extensions>
      </trkpt>
      <trkpt lat="42.5630610622465610504150390625" lon="20.044747777283191680908203125">
        <ele>2083</ele>
        <time>2026-06-15T12:26:28.000Z</time>
        <extensions>
          <ns3:TrackPointExtension>
            <ns3:atemp>18.0</ns3:atemp>
          </ns3:TrackPointExtension>
        </extensions>
      </trkpt>
      <trkpt lat="42.5630610622465610504150390625" lon="20.044747777283191680908203125">
        <ele>2083</ele>
        <time>2026-06-15T12:26:29.000Z</time>
        <extensions>
          <ns3:TrackPointExtension>
            <ns3:atemp>18.0</ns3:atemp>
          </ns3:TrackPointExtension>
        </extensions>
      </trkpt>
      <trkpt lat="42.5630610622465610504150390625" lon="20.044747777283191680908203125">
        <ele>2083</ele>
        <time>2026-06-15T12:26:30.000Z</time>
        <extensions>
          <ns3:TrackPointExtension>
            <ns3:atemp>18.0</ns3:atemp>
          </ns3:TrackPointExtension>
        </extensions>
      </trkpt>
      <trkpt lat="42.5630610622465610504150390625" lon="20.044747777283191680908203125">
        <ele>2083</ele>
        <time>2026-06-15T12:26:31.000Z</time>
        <extensions>
          <ns3:TrackPointExtension>
            <ns3:atemp>18.0</ns3:atemp>
          </ns3:TrackPointExtension>
        </extensions>
      </trkpt>
      <trkpt lat="42.5630610622465610504150390625" lon="20.044747777283191680908203125">
        <ele>2083</ele>
        <time>2026-06-15T12:26:32.000Z</time>
        <extensions>
          <ns3:TrackPointExtension>
            <ns3:atemp>18.0</ns3:atemp>
          </ns3:TrackPointExtension>
        </extensions>
      </trkpt>
      <trkpt lat="42.5630610622465610504150390625" lon="20.044747777283191680908203125">
        <ele>2083</ele>
        <time>2026-06-15T12:26:33.000Z</time>
        <extensions>
          <ns3:TrackPointExtension>
            <ns3:atemp>18.0</ns3:atemp>
          </ns3:TrackPointExtension>
        </extensions>
      </trkpt>
      <trkpt lat="42.5630610622465610504150390625" lon="20.044747777283191680908203125">
        <ele>2083</ele>
        <time>2026-06-15T12:26:34.000Z</time>
        <extensions>
          <ns3:TrackPointExtension>
            <ns3:atemp>18.0</ns3:atemp>
          </ns3:TrackPointExtension>
        </extensions>
      </trkpt>
      <trkpt lat="42.5630610622465610504150390625" lon="20.044747777283191680908203125">
        <ele>2083</ele>
        <time>2026-06-15T12:26:35.000Z</time>
        <extensions>
          <ns3:TrackPointExtension>
            <ns3:atemp>18.0</ns3:atemp>
          </ns3:TrackPointExtension>
        </extensions>
      </trkpt>
      <trkpt lat="42.5630610622465610504150390625" lon="20.044747777283191680908203125">
        <ele>2083</ele>
        <time>2026-06-15T12:26:36.000Z</time>
        <extensions>
          <ns3:TrackPointExtension>
            <ns3:atemp>18.0</ns3:atemp>
          </ns3:TrackPointExtension>
        </extensions>
      </trkpt>
      <trkpt lat="42.5630610622465610504150390625" lon="20.044747777283191680908203125">
        <ele>2083</ele>
        <time>2026-06-15T12:26:37.000Z</time>
        <extensions>
          <ns3:TrackPointExtension>
            <ns3:atemp>18.0</ns3:atemp>
          </ns3:TrackPointExtension>
        </extensions>
      </trkpt>
      <trkpt lat="42.5630610622465610504150390625" lon="20.044747777283191680908203125">
        <ele>2083</ele>
        <time>2026-06-15T12:26:38.000Z</time>
        <extensions>
          <ns3:TrackPointExtension>
            <ns3:atemp>18.0</ns3:atemp>
          </ns3:TrackPointExtension>
        </extensions>
      </trkpt>
      <trkpt lat="42.5630610622465610504150390625" lon="20.044747777283191680908203125">
        <ele>2083</ele>
        <time>2026-06-15T12:26:39.000Z</time>
        <extensions>
          <ns3:TrackPointExtension>
            <ns3:atemp>18.0</ns3:atemp>
          </ns3:TrackPointExtension>
        </extensions>
      </trkpt>
      <trkpt lat="42.5630610622465610504150390625" lon="20.044747777283191680908203125">
        <ele>2083</ele>
        <time>2026-06-15T12:26:40.000Z</time>
        <extensions>
          <ns3:TrackPointExtension>
            <ns3:atemp>18.0</ns3:atemp>
          </ns3:TrackPointExtension>
        </extensions>
      </trkpt>
      <trkpt lat="42.5630610622465610504150390625" lon="20.044747777283191680908203125">
        <ele>2083</ele>
        <time>2026-06-15T12:26:41.000Z</time>
        <extensions>
          <ns3:TrackPointExtension>
            <ns3:atemp>18.0</ns3:atemp>
          </ns3:TrackPointExtension>
        </extensions>
      </trkpt>
      <trkpt lat="42.5630610622465610504150390625" lon="20.044747777283191680908203125">
        <ele>2083</ele>
        <time>2026-06-15T12:26:42.000Z</time>
        <extensions>
          <ns3:TrackPointExtension>
            <ns3:atemp>18.0</ns3:atemp>
          </ns3:TrackPointExtension>
        </extensions>
      </trkpt>
      <trkpt lat="42.5630610622465610504150390625" lon="20.044747777283191680908203125">
        <ele>2083</ele>
        <time>2026-06-15T12:26:43.000Z</time>
        <extensions>
          <ns3:TrackPointExtension>
            <ns3:atemp>18.0</ns3:atemp>
          </ns3:TrackPointExtension>
        </extensions>
      </trkpt>
      <trkpt lat="42.5630610622465610504150390625" lon="20.044747777283191680908203125">
        <ele>2083</ele>
        <time>2026-06-15T12:26:44.000Z</time>
        <extensions>
          <ns3:TrackPointExtension>
            <ns3:atemp>18.0</ns3:atemp>
          </ns3:TrackPointExtension>
        </extensions>
      </trkpt>
      <trkpt lat="42.5630610622465610504150390625" lon="20.044747777283191680908203125">
        <ele>2083</ele>
        <time>2026-06-15T12:26:45.000Z</time>
        <extensions>
          <ns3:TrackPointExtension>
            <ns3:atemp>18.0</ns3:atemp>
          </ns3:TrackPointExtension>
        </extensions>
      </trkpt>
      <trkpt lat="42.5630610622465610504150390625" lon="20.044747777283191680908203125">
        <ele>2083</ele>
        <time>2026-06-15T12:26:46.000Z</time>
        <extensions>
          <ns3:TrackPointExtension>
            <ns3:atemp>18.0</ns3:atemp>
          </ns3:TrackPointExtension>
        </extensions>
      </trkpt>
      <trkpt lat="42.5630610622465610504150390625" lon="20.044747777283191680908203125">
        <ele>2083</ele>
        <time>2026-06-15T12:26:47.000Z</time>
        <extensions>
          <ns3:TrackPointExtension>
            <ns3:atemp>18.0</ns3:atemp>
          </ns3:TrackPointExtension>
        </extensions>
      </trkpt>
      <trkpt lat="42.5630610622465610504150390625" lon="20.044747777283191680908203125">
        <ele>2083</ele>
        <time>2026-06-15T12:26:48.000Z</time>
        <extensions>
          <ns3:TrackPointExtension>
            <ns3:atemp>18.0</ns3:atemp>
          </ns3:TrackPointExtension>
        </extensions>
      </trkpt>
      <trkpt lat="42.5630610622465610504150390625" lon="20.044747777283191680908203125">
        <ele>2083</ele>
        <time>2026-06-15T12:26:49.000Z</time>
        <extensions>
          <ns3:TrackPointExtension>
            <ns3:atemp>18.0</ns3:atemp>
          </ns3:TrackPointExtension>
        </extensions>
      </trkpt>
      <trkpt lat="42.5630610622465610504150390625" lon="20.044747777283191680908203125">
        <ele>2083</ele>
        <time>2026-06-15T12:26:50.000Z</time>
        <extensions>
          <ns3:TrackPointExtension>
            <ns3:atemp>18.0</ns3:atemp>
          </ns3:TrackPointExtension>
        </extensions>
      </trkpt>
      <trkpt lat="42.5630610622465610504150390625" lon="20.044747777283191680908203125">
        <ele>2083</ele>
        <time>2026-06-15T12:26:51.000Z</time>
        <extensions>
          <ns3:TrackPointExtension>
            <ns3:atemp>18.0</ns3:atemp>
          </ns3:TrackPointExtension>
        </extensions>
      </trkpt>
      <trkpt lat="42.5630610622465610504150390625" lon="20.044747777283191680908203125">
        <ele>2083</ele>
        <time>2026-06-15T12:26:52.000Z</time>
        <extensions>
          <ns3:TrackPointExtension>
            <ns3:atemp>18.0</ns3:atemp>
          </ns3:TrackPointExtension>
        </extensions>
      </trkpt>
      <trkpt lat="42.5630610622465610504150390625" lon="20.044747777283191680908203125">
        <ele>2083</ele>
        <time>2026-06-15T12:26:53.000Z</time>
        <extensions>
          <ns3:TrackPointExtension>
            <ns3:atemp>18.0</ns3:atemp>
          </ns3:TrackPointExtension>
        </extensions>
      </trkpt>
      <trkpt lat="42.5630610622465610504150390625" lon="20.044747777283191680908203125">
        <ele>2083</ele>
        <time>2026-06-15T12:26:54.000Z</time>
        <extensions>
          <ns3:TrackPointExtension>
            <ns3:atemp>18.0</ns3:atemp>
          </ns3:TrackPointExtension>
        </extensions>
      </trkpt>
      <trkpt lat="42.5630610622465610504150390625" lon="20.044747777283191680908203125">
        <ele>2083</ele>
        <time>2026-06-15T12:26:55.000Z</time>
        <extensions>
          <ns3:TrackPointExtension>
            <ns3:atemp>18.0</ns3:atemp>
          </ns3:TrackPointExtension>
        </extensions>
      </trkpt>
      <trkpt lat="42.5630610622465610504150390625" lon="20.044747777283191680908203125">
        <ele>2083</ele>
        <time>2026-06-15T12:26:56.000Z</time>
        <extensions>
          <ns3:TrackPointExtension>
            <ns3:atemp>18.0</ns3:atemp>
          </ns3:TrackPointExtension>
        </extensions>
      </trkpt>
      <trkpt lat="42.5630610622465610504150390625" lon="20.044747777283191680908203125">
        <ele>2083</ele>
        <time>2026-06-15T12:26:57.000Z</time>
        <extensions>
          <ns3:TrackPointExtension>
            <ns3:atemp>18.0</ns3:atemp>
          </ns3:TrackPointExtension>
        </extensions>
      </trkpt>
      <trkpt lat="42.5630610622465610504150390625" lon="20.044747777283191680908203125">
        <ele>2083</ele>
        <time>2026-06-15T12:26:58.000Z</time>
        <extensions>
          <ns3:TrackPointExtension>
            <ns3:atemp>18.0</ns3:atemp>
          </ns3:TrackPointExtension>
        </extensions>
      </trkpt>
      <trkpt lat="42.5630610622465610504150390625" lon="20.044747777283191680908203125">
        <ele>2083</ele>
        <time>2026-06-15T12:26:59.000Z</time>
        <extensions>
          <ns3:TrackPointExtension>
            <ns3:atemp>18.0</ns3:atemp>
          </ns3:TrackPointExtension>
        </extensions>
      </trkpt>
      <trkpt lat="42.5630610622465610504150390625" lon="20.044747777283191680908203125">
        <ele>2083</ele>
        <time>2026-06-15T12:27:00.000Z</time>
        <extensions>
          <ns3:TrackPointExtension>
            <ns3:atemp>18.0</ns3:atemp>
          </ns3:TrackPointExtension>
        </extensions>
      </trkpt>
      <trkpt lat="42.5630610622465610504150390625" lon="20.044747777283191680908203125">
        <ele>2083</ele>
        <time>2026-06-15T12:27:01.000Z</time>
        <extensions>
          <ns3:TrackPointExtension>
            <ns3:atemp>18.0</ns3:atemp>
          </ns3:TrackPointExtension>
        </extensions>
      </trkpt>
      <trkpt lat="42.5630610622465610504150390625" lon="20.044747777283191680908203125">
        <ele>2083</ele>
        <time>2026-06-15T12:27:02.000Z</time>
        <extensions>
          <ns3:TrackPointExtension>
            <ns3:atemp>18.0</ns3:atemp>
          </ns3:TrackPointExtension>
        </extensions>
      </trkpt>
      <trkpt lat="42.5630610622465610504150390625" lon="20.044747777283191680908203125">
        <ele>2083</ele>
        <time>2026-06-15T12:27:03.000Z</time>
        <extensions>
          <ns3:TrackPointExtension>
            <ns3:atemp>18.0</ns3:atemp>
          </ns3:TrackPointExtension>
        </extensions>
      </trkpt>
      <trkpt lat="42.5630610622465610504150390625" lon="20.044747777283191680908203125">
        <ele>2083</ele>
        <time>2026-06-15T12:27:04.000Z</time>
        <extensions>
          <ns3:TrackPointExtension>
            <ns3:atemp>18.0</ns3:atemp>
          </ns3:TrackPointExtension>
        </extensions>
      </trkpt>
      <trkpt lat="42.5630610622465610504150390625" lon="20.044747777283191680908203125">
        <ele>2083</ele>
        <time>2026-06-15T12:27:05.000Z</time>
        <extensions>
          <ns3:TrackPointExtension>
            <ns3:atemp>18.0</ns3:atemp>
          </ns3:TrackPointExtension>
        </extensions>
      </trkpt>
      <trkpt lat="42.5630610622465610504150390625" lon="20.044747777283191680908203125">
        <ele>2083</ele>
        <time>2026-06-15T12:27:06.000Z</time>
        <extensions>
          <ns3:TrackPointExtension>
            <ns3:atemp>18.0</ns3:atemp>
          </ns3:TrackPointExtension>
        </extensions>
      </trkpt>
      <trkpt lat="42.5630610622465610504150390625" lon="20.044747777283191680908203125">
        <ele>2083</ele>
        <time>2026-06-15T12:27:07.000Z</time>
        <extensions>
          <ns3:TrackPointExtension>
            <ns3:atemp>18.0</ns3:atemp>
          </ns3:TrackPointExtension>
        </extensions>
      </trkpt>
      <trkpt lat="42.5630610622465610504150390625" lon="20.044747777283191680908203125">
        <ele>2083</ele>
        <time>2026-06-15T12:27:08.000Z</time>
        <extensions>
          <ns3:TrackPointExtension>
            <ns3:atemp>18.0</ns3:atemp>
          </ns3:TrackPointExtension>
        </extensions>
      </trkpt>
      <trkpt lat="42.5630610622465610504150390625" lon="20.044747777283191680908203125">
        <ele>2083</ele>
        <time>2026-06-15T12:27:09.000Z</time>
        <extensions>
          <ns3:TrackPointExtension>
            <ns3:atemp>18.0</ns3:atemp>
          </ns3:TrackPointExtension>
        </extensions>
      </trkpt>
      <trkpt lat="42.5630610622465610504150390625" lon="20.044747777283191680908203125">
        <ele>2083</ele>
        <time>2026-06-15T12:27:10.000Z</time>
        <extensions>
          <ns3:TrackPointExtension>
            <ns3:atemp>18.0</ns3:atemp>
          </ns3:TrackPointExtension>
        </extensions>
      </trkpt>
      <trkpt lat="42.5630610622465610504150390625" lon="20.044747777283191680908203125">
        <ele>2083</ele>
        <time>2026-06-15T12:27:11.000Z</time>
        <extensions>
          <ns3:TrackPointExtension>
            <ns3:atemp>18.0</ns3:atemp>
          </ns3:TrackPointExtension>
        </extensions>
      </trkpt>
      <trkpt lat="42.5630610622465610504150390625" lon="20.044747777283191680908203125">
        <ele>2083</ele>
        <time>2026-06-15T12:27:12.000Z</time>
        <extensions>
          <ns3:TrackPointExtension>
            <ns3:atemp>18.0</ns3:atemp>
          </ns3:TrackPointExtension>
        </extensions>
      </trkpt>
      <trkpt lat="42.5630610622465610504150390625" lon="20.044747777283191680908203125">
        <ele>2083</ele>
        <time>2026-06-15T12:27:13.000Z</time>
        <extensions>
          <ns3:TrackPointExtension>
            <ns3:atemp>18.0</ns3:atemp>
          </ns3:TrackPointExtension>
        </extensions>
      </trkpt>
      <trkpt lat="42.5630610622465610504150390625" lon="20.044747777283191680908203125">
        <ele>2083</ele>
        <time>2026-06-15T12:27:14.000Z</time>
        <extensions>
          <ns3:TrackPointExtension>
            <ns3:atemp>18.0</ns3:atemp>
          </ns3:TrackPointExtension>
        </extensions>
      </trkpt>
      <trkpt lat="42.5630610622465610504150390625" lon="20.044747777283191680908203125">
        <ele>2083</ele>
        <time>2026-06-15T12:27:15.000Z</time>
        <extensions>
          <ns3:TrackPointExtension>
            <ns3:atemp>18.0</ns3:atemp>
          </ns3:TrackPointExtension>
        </extensions>
      </trkpt>
      <trkpt lat="42.5630610622465610504150390625" lon="20.044747777283191680908203125">
        <ele>2083</ele>
        <time>2026-06-15T12:27:16.000Z</time>
        <extensions>
          <ns3:TrackPointExtension>
            <ns3:atemp>18.0</ns3:atemp>
          </ns3:TrackPointExtension>
        </extensions>
      </trkpt>
      <trkpt lat="42.5630610622465610504150390625" lon="20.044747777283191680908203125">
        <ele>2083</ele>
        <time>2026-06-15T12:27:17.000Z</time>
        <extensions>
          <ns3:TrackPointExtension>
            <ns3:atemp>18.0</ns3:atemp>
          </ns3:TrackPointExtension>
        </extensions>
      </trkpt>
      <trkpt lat="42.5630610622465610504150390625" lon="20.044747777283191680908203125">
        <ele>2083</ele>
        <time>2026-06-15T12:27:18.000Z</time>
        <extensions>
          <ns3:TrackPointExtension>
            <ns3:atemp>18.0</ns3:atemp>
          </ns3:TrackPointExtension>
        </extensions>
      </trkpt>
      <trkpt lat="42.5630610622465610504150390625" lon="20.044747777283191680908203125">
        <ele>2083</ele>
        <time>2026-06-15T12:27:19.000Z</time>
        <extensions>
          <ns3:TrackPointExtension>
            <ns3:atemp>18.0</ns3:atemp>
          </ns3:TrackPointExtension>
        </extensions>
      </trkpt>
      <trkpt lat="42.5630610622465610504150390625" lon="20.044747777283191680908203125">
        <ele>2083</ele>
        <time>2026-06-15T12:27:20.000Z</time>
        <extensions>
          <ns3:TrackPointExtension>
            <ns3:atemp>18.0</ns3:atemp>
          </ns3:TrackPointExtension>
        </extensions>
      </trkpt>
      <trkpt lat="42.5630610622465610504150390625" lon="20.044747777283191680908203125">
        <ele>2083</ele>
        <time>2026-06-15T12:27:21.000Z</time>
        <extensions>
          <ns3:TrackPointExtension>
            <ns3:atemp>18.0</ns3:atemp>
          </ns3:TrackPointExtension>
        </extensions>
      </trkpt>
      <trkpt lat="42.5630610622465610504150390625" lon="20.044747777283191680908203125">
        <ele>2083</ele>
        <time>2026-06-15T12:27:22.000Z</time>
        <extensions>
          <ns3:TrackPointExtension>
            <ns3:atemp>18.0</ns3:atemp>
          </ns3:TrackPointExtension>
        </extensions>
      </trkpt>
      <trkpt lat="42.5630610622465610504150390625" lon="20.044747777283191680908203125">
        <ele>2083</ele>
        <time>2026-06-15T12:27:23.000Z</time>
        <extensions>
          <ns3:TrackPointExtension>
            <ns3:atemp>18.0</ns3:atemp>
          </ns3:TrackPointExtension>
        </extensions>
      </trkpt>
      <trkpt lat="42.5630610622465610504150390625" lon="20.044747777283191680908203125">
        <ele>2083</ele>
        <time>2026-06-15T12:27:24.000Z</time>
        <extensions>
          <ns3:TrackPointExtension>
            <ns3:atemp>18.0</ns3:atemp>
          </ns3:TrackPointExtension>
        </extensions>
      </trkpt>
      <trkpt lat="42.5630610622465610504150390625" lon="20.044747777283191680908203125">
        <ele>2083</ele>
        <time>2026-06-15T12:27:25.000Z</time>
        <extensions>
          <ns3:TrackPointExtension>
            <ns3:atemp>18.0</ns3:atemp>
          </ns3:TrackPointExtension>
        </extensions>
      </trkpt>
      <trkpt lat="42.5630610622465610504150390625" lon="20.044747777283191680908203125">
        <ele>2083</ele>
        <time>2026-06-15T12:27:26.000Z</time>
        <extensions>
          <ns3:TrackPointExtension>
            <ns3:atemp>18.0</ns3:atemp>
          </ns3:TrackPointExtension>
        </extensions>
      </trkpt>
      <trkpt lat="42.5630610622465610504150390625" lon="20.044747777283191680908203125">
        <ele>2083</ele>
        <time>2026-06-15T12:27:27.000Z</time>
        <extensions>
          <ns3:TrackPointExtension>
            <ns3:atemp>18.0</ns3:atemp>
          </ns3:TrackPointExtension>
        </extensions>
      </trkpt>
      <trkpt lat="42.5630610622465610504150390625" lon="20.044747777283191680908203125">
        <ele>2083</ele>
        <time>2026-06-15T12:27:28.000Z</time>
        <extensions>
          <ns3:TrackPointExtension>
            <ns3:atemp>18.0</ns3:atemp>
          </ns3:TrackPointExtension>
        </extensions>
      </trkpt>
      <trkpt lat="42.5630610622465610504150390625" lon="20.044747777283191680908203125">
        <ele>2083</ele>
        <time>2026-06-15T12:27:29.000Z</time>
        <extensions>
          <ns3:TrackPointExtension>
            <ns3:atemp>18.0</ns3:atemp>
          </ns3:TrackPointExtension>
        </extensions>
      </trkpt>
      <trkpt lat="42.5630610622465610504150390625" lon="20.044747777283191680908203125">
        <ele>2083</ele>
        <time>2026-06-15T12:27:30.000Z</time>
        <extensions>
          <ns3:TrackPointExtension>
            <ns3:atemp>18.0</ns3:atemp>
          </ns3:TrackPointExtension>
        </extensions>
      </trkpt>
      <trkpt lat="42.5630610622465610504150390625" lon="20.044747777283191680908203125">
        <ele>2083</ele>
        <time>2026-06-15T12:27:31.000Z</time>
        <extensions>
          <ns3:TrackPointExtension>
            <ns3:atemp>18.0</ns3:atemp>
          </ns3:TrackPointExtension>
        </extensions>
      </trkpt>
      <trkpt lat="42.5630610622465610504150390625" lon="20.044747777283191680908203125">
        <ele>2083</ele>
        <time>2026-06-15T12:27:32.000Z</time>
        <extensions>
          <ns3:TrackPointExtension>
            <ns3:atemp>18.0</ns3:atemp>
          </ns3:TrackPointExtension>
        </extensions>
      </trkpt>
      <trkpt lat="42.5630610622465610504150390625" lon="20.044747777283191680908203125">
        <ele>2083</ele>
        <time>2026-06-15T12:27:33.000Z</time>
        <extensions>
          <ns3:TrackPointExtension>
            <ns3:atemp>18.0</ns3:atemp>
          </ns3:TrackPointExtension>
        </extensions>
      </trkpt>
      <trkpt lat="42.5630610622465610504150390625" lon="20.044747777283191680908203125">
        <ele>2083</ele>
        <time>2026-06-15T12:27:34.000Z</time>
        <extensions>
          <ns3:TrackPointExtension>
            <ns3:atemp>18.0</ns3:atemp>
          </ns3:TrackPointExtension>
        </extensions>
      </trkpt>
      <trkpt lat="42.5630610622465610504150390625" lon="20.044747777283191680908203125">
        <ele>2083</ele>
        <time>2026-06-15T12:27:35.000Z</time>
        <extensions>
          <ns3:TrackPointExtension>
            <ns3:atemp>18.0</ns3:atemp>
          </ns3:TrackPointExtension>
        </extensions>
      </trkpt>
      <trkpt lat="42.5630610622465610504150390625" lon="20.044747777283191680908203125">
        <ele>2083</ele>
        <time>2026-06-15T12:27:36.000Z</time>
        <extensions>
          <ns3:TrackPointExtension>
            <ns3:atemp>18.0</ns3:atemp>
          </ns3:TrackPointExtension>
        </extensions>
      </trkpt>
      <trkpt lat="42.5630610622465610504150390625" lon="20.044747777283191680908203125">
        <ele>2083</ele>
        <time>2026-06-15T12:27:37.000Z</time>
        <extensions>
          <ns3:TrackPointExtension>
            <ns3:atemp>18.0</ns3:atemp>
          </ns3:TrackPointExtension>
        </extensions>
      </trkpt>
      <trkpt lat="42.5630610622465610504150390625" lon="20.044747777283191680908203125">
        <ele>2083</ele>
        <time>2026-06-15T12:27:38.000Z</time>
        <extensions>
          <ns3:TrackPointExtension>
            <ns3:atemp>18.0</ns3:atemp>
          </ns3:TrackPointExtension>
        </extensions>
      </trkpt>
      <trkpt lat="42.5630610622465610504150390625" lon="20.044747777283191680908203125">
        <ele>2083</ele>
        <time>2026-06-15T12:27:39.000Z</time>
        <extensions>
          <ns3:TrackPointExtension>
            <ns3:atemp>18.0</ns3:atemp>
          </ns3:TrackPointExtension>
        </extensions>
      </trkpt>
      <trkpt lat="42.5630610622465610504150390625" lon="20.044747777283191680908203125">
        <ele>2083</ele>
        <time>2026-06-15T12:27:40.000Z</time>
        <extensions>
          <ns3:TrackPointExtension>
            <ns3:atemp>18.0</ns3:atemp>
          </ns3:TrackPointExtension>
        </extensions>
      </trkpt>
      <trkpt lat="42.5630610622465610504150390625" lon="20.044747777283191680908203125">
        <ele>2083</ele>
        <time>2026-06-15T12:27:41.000Z</time>
        <extensions>
          <ns3:TrackPointExtension>
            <ns3:atemp>18.0</ns3:atemp>
          </ns3:TrackPointExtension>
        </extensions>
      </trkpt>
      <trkpt lat="42.5630610622465610504150390625" lon="20.044747777283191680908203125">
        <ele>2083</ele>
        <time>2026-06-15T12:27:42.000Z</time>
        <extensions>
          <ns3:TrackPointExtension>
            <ns3:atemp>18.0</ns3:atemp>
          </ns3:TrackPointExtension>
        </extensions>
      </trkpt>
      <trkpt lat="42.5630610622465610504150390625" lon="20.044747777283191680908203125">
        <ele>2083</ele>
        <time>2026-06-15T12:27:43.000Z</time>
        <extensions>
          <ns3:TrackPointExtension>
            <ns3:atemp>18.0</ns3:atemp>
          </ns3:TrackPointExtension>
        </extensions>
      </trkpt>
      <trkpt lat="42.5630610622465610504150390625" lon="20.044747777283191680908203125">
        <ele>2083</ele>
        <time>2026-06-15T12:27:44.000Z</time>
        <extensions>
          <ns3:TrackPointExtension>
            <ns3:atemp>18.0</ns3:atemp>
          </ns3:TrackPointExtension>
        </extensions>
      </trkpt>
      <trkpt lat="42.5630610622465610504150390625" lon="20.044747777283191680908203125">
        <ele>2083</ele>
        <time>2026-06-15T12:27:45.000Z</time>
        <extensions>
          <ns3:TrackPointExtension>
            <ns3:atemp>18.0</ns3:atemp>
          </ns3:TrackPointExtension>
        </extensions>
      </trkpt>
      <trkpt lat="42.5630610622465610504150390625" lon="20.044747777283191680908203125">
        <ele>2083</ele>
        <time>2026-06-15T12:27:46.000Z</time>
        <extensions>
          <ns3:TrackPointExtension>
            <ns3:atemp>18.0</ns3:atemp>
          </ns3:TrackPointExtension>
        </extensions>
      </trkpt>
      <trkpt lat="42.5630610622465610504150390625" lon="20.044747777283191680908203125">
        <ele>2083</ele>
        <time>2026-06-15T12:27:47.000Z</time>
        <extensions>
          <ns3:TrackPointExtension>
            <ns3:atemp>18.0</ns3:atemp>
          </ns3:TrackPointExtension>
        </extensions>
      </trkpt>
      <trkpt lat="42.5630610622465610504150390625" lon="20.044747777283191680908203125">
        <ele>2083</ele>
        <time>2026-06-15T12:27:48.000Z</time>
        <extensions>
          <ns3:TrackPointExtension>
            <ns3:atemp>18.0</ns3:atemp>
          </ns3:TrackPointExtension>
        </extensions>
      </trkpt>
      <trkpt lat="42.5630610622465610504150390625" lon="20.044747777283191680908203125">
        <ele>2083</ele>
        <time>2026-06-15T12:27:49.000Z</time>
        <extensions>
          <ns3:TrackPointExtension>
            <ns3:atemp>18.0</ns3:atemp>
          </ns3:TrackPointExtension>
        </extensions>
      </trkpt>
      <trkpt lat="42.5630610622465610504150390625" lon="20.044747777283191680908203125">
        <ele>2083</ele>
        <time>2026-06-15T12:27:50.000Z</time>
        <extensions>
          <ns3:TrackPointExtension>
            <ns3:atemp>18.0</ns3:atemp>
          </ns3:TrackPointExtension>
        </extensions>
      </trkpt>
      <trkpt lat="42.5630610622465610504150390625" lon="20.044747777283191680908203125">
        <ele>2083</ele>
        <time>2026-06-15T12:27:51.000Z</time>
        <extensions>
          <ns3:TrackPointExtension>
            <ns3:atemp>18.0</ns3:atemp>
          </ns3:TrackPointExtension>
        </extensions>
      </trkpt>
      <trkpt lat="42.5630610622465610504150390625" lon="20.044747777283191680908203125">
        <ele>2080.39990234375</ele>
        <time>2026-06-15T12:27:52.000Z</time>
        <extensions>
          <ns3:TrackPointExtension>
            <ns3:atemp>18.0</ns3:atemp>
          </ns3:TrackPointExtension>
        </extensions>
      </trkpt>
      <trkpt lat="42.5630610622465610504150390625" lon="20.044747777283191680908203125">
        <ele>2080.39990234375</ele>
        <time>2026-06-15T12:27:53.000Z</time>
        <extensions>
          <ns3:TrackPointExtension>
            <ns3:atemp>18.0</ns3:atemp>
          </ns3:TrackPointExtension>
        </extensions>
      </trkpt>
      <trkpt lat="42.5630610622465610504150390625" lon="20.044747777283191680908203125">
        <ele>2080.39990234375</ele>
        <time>2026-06-15T12:27:54.000Z</time>
        <extensions>
          <ns3:TrackPointExtension>
            <ns3:atemp>18.0</ns3:atemp>
          </ns3:TrackPointExtension>
        </extensions>
      </trkpt>
      <trkpt lat="42.5630610622465610504150390625" lon="20.044747777283191680908203125">
        <ele>2080.39990234375</ele>
        <time>2026-06-15T12:27:55.000Z</time>
        <extensions>
          <ns3:TrackPointExtension>
            <ns3:atemp>18.0</ns3:atemp>
          </ns3:TrackPointExtension>
        </extensions>
      </trkpt>
      <trkpt lat="42.5630610622465610504150390625" lon="20.044747777283191680908203125">
        <ele>2080.199951171875</ele>
        <time>2026-06-15T12:27:56.000Z</time>
        <extensions>
          <ns3:TrackPointExtension>
            <ns3:atemp>18.0</ns3:atemp>
          </ns3:TrackPointExtension>
        </extensions>
      </trkpt>
      <trkpt lat="42.5630610622465610504150390625" lon="20.044747777283191680908203125">
        <ele>2080.199951171875</ele>
        <time>2026-06-15T12:27:57.000Z</time>
        <extensions>
          <ns3:TrackPointExtension>
            <ns3:atemp>18.0</ns3:atemp>
          </ns3:TrackPointExtension>
        </extensions>
      </trkpt>
      <trkpt lat="42.5630610622465610504150390625" lon="20.044747777283191680908203125">
        <ele>2080.199951171875</ele>
        <time>2026-06-15T12:27:58.000Z</time>
        <extensions>
          <ns3:TrackPointExtension>
            <ns3:atemp>18.0</ns3:atemp>
          </ns3:TrackPointExtension>
        </extensions>
      </trkpt>
      <trkpt lat="42.5630610622465610504150390625" lon="20.044747777283191680908203125">
        <ele>2080.199951171875</ele>
        <time>2026-06-15T12:27:59.000Z</time>
        <extensions>
          <ns3:TrackPointExtension>
            <ns3:atemp>18.0</ns3:atemp>
          </ns3:TrackPointExtension>
        </extensions>
      </trkpt>
      <trkpt lat="42.5630610622465610504150390625" lon="20.044747777283191680908203125">
        <ele>2080.199951171875</ele>
        <time>2026-06-15T12:28:00.000Z</time>
        <extensions>
          <ns3:TrackPointExtension>
            <ns3:atemp>18.0</ns3:atemp>
          </ns3:TrackPointExtension>
        </extensions>
      </trkpt>
      <trkpt lat="42.5630610622465610504150390625" lon="20.044747777283191680908203125">
        <ele>2080.199951171875</ele>
        <time>2026-06-15T12:28:01.000Z</time>
        <extensions>
          <ns3:TrackPointExtension>
            <ns3:atemp>18.0</ns3:atemp>
          </ns3:TrackPointExtension>
        </extensions>
      </trkpt>
      <trkpt lat="42.5630610622465610504150390625" lon="20.044747777283191680908203125">
        <ele>2080.199951171875</ele>
        <time>2026-06-15T12:28:02.000Z</time>
        <extensions>
          <ns3:TrackPointExtension>
            <ns3:atemp>18.0</ns3:atemp>
          </ns3:TrackPointExtension>
        </extensions>
      </trkpt>
      <trkpt lat="42.5630610622465610504150390625" lon="20.044747777283191680908203125">
        <ele>2080.199951171875</ele>
        <time>2026-06-15T12:28:03.000Z</time>
        <extensions>
          <ns3:TrackPointExtension>
            <ns3:atemp>18.0</ns3:atemp>
          </ns3:TrackPointExtension>
        </extensions>
      </trkpt>
      <trkpt lat="42.5630610622465610504150390625" lon="20.044747777283191680908203125">
        <ele>2080.199951171875</ele>
        <time>2026-06-15T12:28:04.000Z</time>
        <extensions>
          <ns3:TrackPointExtension>
            <ns3:atemp>18.0</ns3:atemp>
          </ns3:TrackPointExtension>
        </extensions>
      </trkpt>
      <trkpt lat="42.5630610622465610504150390625" lon="20.044747777283191680908203125">
        <ele>2080.199951171875</ele>
        <time>2026-06-15T12:28:05.000Z</time>
        <extensions>
          <ns3:TrackPointExtension>
            <ns3:atemp>18.0</ns3:atemp>
          </ns3:TrackPointExtension>
        </extensions>
      </trkpt>
      <trkpt lat="42.5630610622465610504150390625" lon="20.044747777283191680908203125">
        <ele>2080.199951171875</ele>
        <time>2026-06-15T12:28:06.000Z</time>
        <extensions>
          <ns3:TrackPointExtension>
            <ns3:atemp>18.0</ns3:atemp>
          </ns3:TrackPointExtension>
        </extensions>
      </trkpt>
      <trkpt lat="42.5630610622465610504150390625" lon="20.044747777283191680908203125">
        <ele>2080.199951171875</ele>
        <time>2026-06-15T12:28:07.000Z</time>
        <extensions>
          <ns3:TrackPointExtension>
            <ns3:atemp>18.0</ns3:atemp>
          </ns3:TrackPointExtension>
        </extensions>
      </trkpt>
      <trkpt lat="42.5630664266645908355712890625" lon="20.0447482801973819732666015625">
        <ele>2080.199951171875</ele>
        <time>2026-06-15T12:28:08.000Z</time>
        <extensions>
          <ns3:TrackPointExtension>
            <ns3:atemp>18.0</ns3:atemp>
          </ns3:TrackPointExtension>
        </extensions>
      </trkpt>
      <trkpt lat="42.56307472474873065948486328125" lon="20.04474350251257419586181640625">
        <ele>2080.199951171875</ele>
        <time>2026-06-15T12:28:09.000Z</time>
        <extensions>
          <ns3:TrackPointExtension>
            <ns3:atemp>18.0</ns3:atemp>
          </ns3:TrackPointExtension>
        </extensions>
      </trkpt>
      <trkpt lat="42.56307304836809635162353515625" lon="20.0447308458387851715087890625">
        <ele>2080.199951171875</ele>
        <time>2026-06-15T12:28:10.000Z</time>
        <extensions>
          <ns3:TrackPointExtension>
            <ns3:atemp>18.0</ns3:atemp>
          </ns3:TrackPointExtension>
        </extensions>
      </trkpt>
      <trkpt lat="42.5630657561123371124267578125" lon="20.04472590051591396331787109375">
        <ele>2080</ele>
        <time>2026-06-15T12:28:11.000Z</time>
        <extensions>
          <ns3:TrackPointExtension>
            <ns3:atemp>18.0</ns3:atemp>
          </ns3:TrackPointExtension>
        </extensions>
      </trkpt>
      <trkpt lat="42.5630510039627552032470703125" lon="20.044725649058818817138671875">
        <ele>2080.199951171875</ele>
        <time>2026-06-15T12:28:12.000Z</time>
        <extensions>
          <ns3:TrackPointExtension>
            <ns3:atemp>18.0</ns3:atemp>
          </ns3:TrackPointExtension>
        </extensions>
      </trkpt>
      <trkpt lat="42.563043124973773956298828125" lon="20.04474199377000331878662109375">
        <ele>2080.199951171875</ele>
        <time>2026-06-15T12:28:13.000Z</time>
        <extensions>
          <ns3:TrackPointExtension>
            <ns3:atemp>18.0</ns3:atemp>
          </ns3:TrackPointExtension>
        </extensions>
      </trkpt>
      <trkpt lat="42.5630436278879642486572265625" lon="20.0447519682347774505615234375">
        <ele>2080.39990234375</ele>
        <time>2026-06-15T12:28:14.000Z</time>
        <extensions>
          <ns3:TrackPointExtension>
            <ns3:atemp>18.0</ns3:atemp>
          </ns3:TrackPointExtension>
        </extensions>
      </trkpt>
      <trkpt lat="42.5630530156195163726806640625" lon="20.0447593443095684051513671875">
        <ele>2080.60009765625</ele>
        <time>2026-06-15T12:28:15.000Z</time>
        <extensions>
          <ns3:TrackPointExtension>
            <ns3:atemp>18.0</ns3:atemp>
          </ns3:TrackPointExtension>
        </extensions>
      </trkpt>
      <trkpt lat="42.5630629062652587890625" lon="20.04477250389754772186279296875">
        <ele>2080.800048828125</ele>
        <time>2026-06-15T12:28:16.000Z</time>
        <extensions>
          <ns3:TrackPointExtension>
            <ns3:atemp>18.0</ns3:atemp>
          </ns3:TrackPointExtension>
        </extensions>
      </trkpt>
      <trkpt lat="42.5630721263587474822998046875" lon="20.0447905249893665313720703125">
        <ele>2081</ele>
        <time>2026-06-15T12:28:17.000Z</time>
        <extensions>
          <ns3:TrackPointExtension>
            <ns3:atemp>18.0</ns3:atemp>
          </ns3:TrackPointExtension>
        </extensions>
      </trkpt>
      <trkpt lat="42.5630731321871280670166015625" lon="20.044796727597713470458984375">
        <ele>2081.199951171875</ele>
        <time>2026-06-15T12:28:18.000Z</time>
        <extensions>
          <ns3:TrackPointExtension>
            <ns3:atemp>18.0</ns3:atemp>
          </ns3:TrackPointExtension>
        </extensions>
      </trkpt>
      <trkpt lat="42.56306894123554229736328125" lon="20.04480804316699504852294921875">
        <ele>2081.39990234375</ele>
        <time>2026-06-15T12:28:19.000Z</time>
        <extensions>
          <ns3:TrackPointExtension>
            <ns3:atemp>18.0</ns3:atemp>
          </ns3:TrackPointExtension>
        </extensions>
      </trkpt>
      <trkpt lat="42.56306516937911510467529296875" lon="20.0448300875723361968994140625">
        <ele>2081.39990234375</ele>
        <time>2026-06-15T12:28:20.000Z</time>
        <extensions>
          <ns3:TrackPointExtension>
            <ns3:atemp>18.0</ns3:atemp>
          </ns3:TrackPointExtension>
        </extensions>
      </trkpt>
      <trkpt lat="42.563067935407161712646484375" lon="20.044845007359981536865234375">
        <ele>2081.39990234375</ele>
        <time>2026-06-15T12:28:21.000Z</time>
        <extensions>
          <ns3:TrackPointExtension>
            <ns3:atemp>18.0</ns3:atemp>
          </ns3:TrackPointExtension>
        </extensions>
      </trkpt>
      <trkpt lat="42.563065923750400543212890625" lon="20.04485598765313625335693359375">
        <ele>2081.60009765625</ele>
        <time>2026-06-15T12:28:22.000Z</time>
        <extensions>
          <ns3:TrackPointExtension>
            <ns3:atemp>18.0</ns3:atemp>
          </ns3:TrackPointExtension>
        </extensions>
      </trkpt>
      <trkpt lat="42.56306223571300506591796875" lon="20.04487157799303531646728515625">
        <ele>2081.60009765625</ele>
        <time>2026-06-15T12:28:23.000Z</time>
        <extensions>
          <ns3:TrackPointExtension>
            <ns3:atemp>18.0</ns3:atemp>
          </ns3:TrackPointExtension>
        </extensions>
      </trkpt>
      <trkpt lat="42.56306047551333904266357421875" lon="20.044883228838443756103515625">
        <ele>2081.800048828125</ele>
        <time>2026-06-15T12:28:24.000Z</time>
        <extensions>
          <ns3:TrackPointExtension>
            <ns3:atemp>18.0</ns3:atemp>
          </ns3:TrackPointExtension>
        </extensions>
      </trkpt>
      <trkpt lat="42.56305687129497528076171875" lon="20.0449015013873577117919921875">
        <ele>2082</ele>
        <time>2026-06-15T12:28:25.000Z</time>
        <extensions>
          <ns3:TrackPointExtension>
            <ns3:atemp>18.0</ns3:atemp>
          </ns3:TrackPointExtension>
        </extensions>
      </trkpt>
      <trkpt lat="42.56305142305791378021240234375" lon="20.0449189357459545135498046875">
        <ele>2082.199951171875</ele>
        <time>2026-06-15T12:28:26.000Z</time>
        <extensions>
          <ns3:TrackPointExtension>
            <ns3:atemp>18.0</ns3:atemp>
          </ns3:TrackPointExtension>
        </extensions>
      </trkpt>
      <trkpt lat="42.56304790265858173370361328125" lon="20.04493863321840763092041015625">
        <ele>2082.39990234375</ele>
        <time>2026-06-15T12:28:27.000Z</time>
        <extensions>
          <ns3:TrackPointExtension>
            <ns3:atemp>18.0</ns3:atemp>
          </ns3:TrackPointExtension>
        </extensions>
      </trkpt>
      <trkpt lat="42.56304371170699596405029296875" lon="20.04496268928050994873046875">
        <ele>2082.60009765625</ele>
        <time>2026-06-15T12:28:28.000Z</time>
        <extensions>
          <ns3:TrackPointExtension>
            <ns3:atemp>18.0</ns3:atemp>
          </ns3:TrackPointExtension>
        </extensions>
      </trkpt>
      <trkpt lat="42.5630422867834568023681640625" lon="20.04498858936131000518798828125">
        <ele>2083</ele>
        <time>2026-06-15T12:28:29.000Z</time>
        <extensions>
          <ns3:TrackPointExtension>
            <ns3:atemp>18.0</ns3:atemp>
          </ns3:TrackPointExtension>
        </extensions>
      </trkpt>
      <trkpt lat="42.56304622627794742584228515625" lon="20.04501231014728546142578125">
        <ele>2083.39990234375</ele>
        <time>2026-06-15T12:28:30.000Z</time>
        <extensions>
          <ns3:TrackPointExtension>
            <ns3:atemp>18.0</ns3:atemp>
          </ns3:TrackPointExtension>
        </extensions>
      </trkpt>
      <trkpt lat="42.56305259652435779571533203125" lon="20.0450332649052143096923828125">
        <ele>2083.800048828125</ele>
        <time>2026-06-15T12:28:31.000Z</time>
        <extensions>
          <ns3:TrackPointExtension>
            <ns3:atemp>18.0</ns3:atemp>
          </ns3:TrackPointExtension>
        </extensions>
      </trkpt>
      <trkpt lat="42.56305259652435779571533203125" lon="20.04505178891122341156005859375">
        <ele>2084.39990234375</ele>
        <time>2026-06-15T12:28:32.000Z</time>
        <extensions>
          <ns3:TrackPointExtension>
            <ns3:atemp>18.0</ns3:atemp>
          </ns3:TrackPointExtension>
        </extensions>
      </trkpt>
      <trkpt lat="42.56304941140115261077880859375" lon="20.0450758449733257293701171875">
        <ele>2084.800048828125</ele>
        <time>2026-06-15T12:28:33.000Z</time>
        <extensions>
          <ns3:TrackPointExtension>
            <ns3:atemp>19.0</ns3:atemp>
          </ns3:TrackPointExtension>
        </extensions>
      </trkpt>
      <trkpt lat="42.56304681301116943359375" lon="20.04510224796831607818603515625">
        <ele>2085</ele>
        <time>2026-06-15T12:28:34.000Z</time>
        <extensions>
          <ns3:TrackPointExtension>
            <ns3:atemp>19.0</ns3:atemp>
          </ns3:TrackPointExtension>
        </extensions>
      </trkpt>
      <trkpt lat="42.5630508363246917724609375" lon="20.04513259045779705047607421875">
        <ele>2085.39990234375</ele>
        <time>2026-06-15T12:28:35.000Z</time>
        <extensions>
          <ns3:TrackPointExtension>
            <ns3:atemp>19.0</ns3:atemp>
          </ns3:TrackPointExtension>
        </extensions>
      </trkpt>
      <trkpt lat="42.563053183257579803466796875" lon="20.0451643578708171844482421875">
        <ele>2085.60009765625</ele>
        <time>2026-06-15T12:28:36.000Z</time>
        <extensions>
          <ns3:TrackPointExtension>
            <ns3:atemp>19.0</ns3:atemp>
          </ns3:TrackPointExtension>
        </extensions>
      </trkpt>
      <trkpt lat="42.56305360235273838043212890625" lon="20.04519478417932987213134765625">
        <ele>2085.800048828125</ele>
        <time>2026-06-15T12:28:37.000Z</time>
        <extensions>
          <ns3:TrackPointExtension>
            <ns3:atemp>19.0</ns3:atemp>
          </ns3:TrackPointExtension>
        </extensions>
      </trkpt>
      <trkpt lat="42.56305058486759662628173828125" lon="20.04522562958300113677978515625">
        <ele>2086</ele>
        <time>2026-06-15T12:28:38.000Z</time>
        <extensions>
          <ns3:TrackPointExtension>
            <ns3:atemp>19.0</ns3:atemp>
          </ns3:TrackPointExtension>
        </extensions>
      </trkpt>
      <trkpt lat="42.56305661983788013458251953125" lon="20.04525094293057918548583984375">
        <ele>2086.39990234375</ele>
        <time>2026-06-15T12:28:39.000Z</time>
        <extensions>
          <ns3:TrackPointExtension>
            <ns3:atemp>19.0</ns3:atemp>
          </ns3:TrackPointExtension>
        </extensions>
      </trkpt>
      <trkpt lat="42.56306282244622707366943359375" lon="20.04527256824076175689697265625">
        <ele>2086.60009765625</ele>
        <time>2026-06-15T12:28:40.000Z</time>
        <extensions>
          <ns3:TrackPointExtension>
            <ns3:atemp>19.0</ns3:atemp>
          </ns3:TrackPointExtension>
        </extensions>
      </trkpt>
      <trkpt lat="42.56307422183454036712646484375" lon="20.04529218189418315887451171875">
        <ele>2086.800048828125</ele>
        <time>2026-06-15T12:28:41.000Z</time>
        <extensions>
          <ns3:TrackPointExtension>
            <ns3:atemp>19.0</ns3:atemp>
          </ns3:TrackPointExtension>
        </extensions>
      </trkpt>
      <trkpt lat="42.56308411248028278350830078125" lon="20.04531632177531719207763671875">
        <ele>2087</ele>
        <time>2026-06-15T12:28:42.000Z</time>
        <extensions>
          <ns3:TrackPointExtension>
            <ns3:atemp>19.0</ns3:atemp>
          </ns3:TrackPointExtension>
        </extensions>
      </trkpt>
      <trkpt lat="42.563090734183788299560546875" lon="20.04534482024610042572021484375">
        <ele>2087.199951171875</ele>
        <time>2026-06-15T12:28:43.000Z</time>
        <extensions>
          <ns3:TrackPointExtension>
            <ns3:atemp>19.0</ns3:atemp>
          </ns3:TrackPointExtension>
        </extensions>
      </trkpt>
      <trkpt lat="42.563091404736042022705078125" lon="20.04537709057331085205078125">
        <ele>2087.39990234375</ele>
        <time>2026-06-15T12:28:44.000Z</time>
        <extensions>
          <ns3:TrackPointExtension>
            <ns3:atemp>19.0</ns3:atemp>
          </ns3:TrackPointExtension>
        </extensions>
      </trkpt>
      <trkpt lat="42.5630878843367099761962890625" lon="20.0454034097492694854736328125">
        <ele>2087.39990234375</ele>
        <time>2026-06-15T12:28:45.000Z</time>
        <extensions>
          <ns3:TrackPointExtension>
            <ns3:atemp>19.0</ns3:atemp>
          </ns3:TrackPointExtension>
        </extensions>
      </trkpt>
      <trkpt lat="42.56308495067059993743896484375" lon="20.04542998038232326507568359375">
        <ele>2087.60009765625</ele>
        <time>2026-06-15T12:28:46.000Z</time>
        <extensions>
          <ns3:TrackPointExtension>
            <ns3:atemp>19.0</ns3:atemp>
          </ns3:TrackPointExtension>
        </extensions>
      </trkpt>
      <trkpt lat="42.56307656876742839813232421875" lon="20.0454506836831569671630859375">
        <ele>2087.800048828125</ele>
        <time>2026-06-15T12:28:47.000Z</time>
        <extensions>
          <ns3:TrackPointExtension>
            <ns3:atemp>19.0</ns3:atemp>
          </ns3:TrackPointExtension>
        </extensions>
      </trkpt>
      <trkpt lat="42.56307120434939861297607421875" lon="20.04546828567981719970703125">
        <ele>2087.800048828125</ele>
        <time>2026-06-15T12:28:48.000Z</time>
        <extensions>
          <ns3:TrackPointExtension>
            <ns3:atemp>19.0</ns3:atemp>
          </ns3:TrackPointExtension>
        </extensions>
      </trkpt>
      <trkpt lat="42.563064582645893096923828125" lon="20.045488737523555755615234375">
        <ele>2087.800048828125</ele>
        <time>2026-06-15T12:28:49.000Z</time>
        <extensions>
          <ns3:TrackPointExtension>
            <ns3:atemp>19.0</ns3:atemp>
          </ns3:TrackPointExtension>
        </extensions>
      </trkpt>
      <trkpt lat="42.56306223571300506591796875" lon="20.04550692625343799591064453125">
        <ele>2088</ele>
        <time>2026-06-15T12:28:50.000Z</time>
        <extensions>
          <ns3:TrackPointExtension>
            <ns3:atemp>19.0</ns3:atemp>
          </ns3:TrackPointExtension>
        </extensions>
      </trkpt>
      <trkpt lat="42.56306751631200313568115234375" lon="20.045526288449764251708984375">
        <ele>2088</ele>
        <time>2026-06-15T12:28:51.000Z</time>
        <extensions>
          <ns3:TrackPointExtension>
            <ns3:atemp>19.0</ns3:atemp>
          </ns3:TrackPointExtension>
        </extensions>
      </trkpt>
      <trkpt lat="42.56307522766292095184326171875" lon="20.04553408361971378326416015625">
        <ele>2088</ele>
        <time>2026-06-15T12:28:52.000Z</time>
        <extensions>
          <ns3:TrackPointExtension>
            <ns3:atemp>19.0</ns3:atemp>
          </ns3:TrackPointExtension>
        </extensions>
      </trkpt>
      <trkpt lat="42.56308746524155139923095703125" lon="20.0455333292484283447265625">
        <ele>2088</ele>
        <time>2026-06-15T12:28:53.000Z</time>
        <extensions>
          <ns3:TrackPointExtension>
            <ns3:atemp>19.0</ns3:atemp>
          </ns3:TrackPointExtension>
        </extensions>
      </trkpt>
      <trkpt lat="42.56309484131634235382080078125" lon="20.04552067257463932037353515625">
        <ele>2088</ele>
        <time>2026-06-15T12:28:54.000Z</time>
        <extensions>
          <ns3:TrackPointExtension>
            <ns3:atemp>19.0</ns3:atemp>
          </ns3:TrackPointExtension>
        </extensions>
      </trkpt>
      <trkpt lat="42.56309366784989833831787109375" lon="20.045508183538913726806640625">
        <ele>2088</ele>
        <time>2026-06-15T12:28:55.000Z</time>
        <extensions>
          <ns3:TrackPointExtension>
            <ns3:atemp>19.0</ns3:atemp>
          </ns3:TrackPointExtension>
        </extensions>
      </trkpt>
      <trkpt lat="42.5630909018218517303466796875" lon="20.04549100063741207122802734375">
        <ele>2088</ele>
        <time>2026-06-15T12:28:56.000Z</time>
        <extensions>
          <ns3:TrackPointExtension>
            <ns3:atemp>19.0</ns3:atemp>
          </ns3:TrackPointExtension>
        </extensions>
      </trkpt>
      <trkpt lat="42.5630922429263591766357421875" lon="20.04549452103674411773681640625">
        <ele>2088.199951171875</ele>
        <time>2026-06-15T12:28:57.000Z</time>
        <extensions>
          <ns3:TrackPointExtension>
            <ns3:atemp>19.0</ns3:atemp>
          </ns3:TrackPointExtension>
        </extensions>
      </trkpt>
      <trkpt lat="42.5630922429263591766357421875" lon="20.0454946048557758331298828125">
        <ele>2088.199951171875</ele>
        <time>2026-06-15T12:28:58.000Z</time>
        <extensions>
          <ns3:TrackPointExtension>
            <ns3:atemp>19.0</ns3:atemp>
          </ns3:TrackPointExtension>
        </extensions>
      </trkpt>
      <trkpt lat="42.5630922429263591766357421875" lon="20.0454946048557758331298828125">
        <ele>2088</ele>
        <time>2026-06-15T12:28:59.000Z</time>
        <extensions>
          <ns3:TrackPointExtension>
            <ns3:atemp>19.0</ns3:atemp>
          </ns3:TrackPointExtension>
        </extensions>
      </trkpt>
      <trkpt lat="42.5630922429263591766357421875" lon="20.0454946048557758331298828125">
        <ele>2088</ele>
        <time>2026-06-15T12:29:00.000Z</time>
        <extensions>
          <ns3:TrackPointExtension>
            <ns3:atemp>19.0</ns3:atemp>
          </ns3:TrackPointExtension>
        </extensions>
      </trkpt>
      <trkpt lat="42.5630922429263591766357421875" lon="20.0454946048557758331298828125">
        <ele>2088</ele>
        <time>2026-06-15T12:29:01.000Z</time>
        <extensions>
          <ns3:TrackPointExtension>
            <ns3:atemp>19.0</ns3:atemp>
          </ns3:TrackPointExtension>
        </extensions>
      </trkpt>
      <trkpt lat="42.5630922429263591766357421875" lon="20.0454946048557758331298828125">
        <ele>2088</ele>
        <time>2026-06-15T12:29:02.000Z</time>
        <extensions>
          <ns3:TrackPointExtension>
            <ns3:atemp>19.0</ns3:atemp>
          </ns3:TrackPointExtension>
        </extensions>
      </trkpt>
      <trkpt lat="42.5630922429263591766357421875" lon="20.0454946048557758331298828125">
        <ele>2088.199951171875</ele>
        <time>2026-06-15T12:29:03.000Z</time>
        <extensions>
          <ns3:TrackPointExtension>
            <ns3:atemp>19.0</ns3:atemp>
          </ns3:TrackPointExtension>
        </extensions>
      </trkpt>
      <trkpt lat="42.5630922429263591766357421875" lon="20.0454946048557758331298828125">
        <ele>2088.199951171875</ele>
        <time>2026-06-15T12:29:04.000Z</time>
        <extensions>
          <ns3:TrackPointExtension>
            <ns3:atemp>19.0</ns3:atemp>
          </ns3:TrackPointExtension>
        </extensions>
      </trkpt>
      <trkpt lat="42.5630922429263591766357421875" lon="20.0454946048557758331298828125">
        <ele>2088.39990234375</ele>
        <time>2026-06-15T12:29:05.000Z</time>
        <extensions>
          <ns3:TrackPointExtension>
            <ns3:atemp>19.0</ns3:atemp>
          </ns3:TrackPointExtension>
        </extensions>
      </trkpt>
      <trkpt lat="42.5630922429263591766357421875" lon="20.0454946048557758331298828125">
        <ele>2088.39990234375</ele>
        <time>2026-06-15T12:29:06.000Z</time>
        <extensions>
          <ns3:TrackPointExtension>
            <ns3:atemp>19.0</ns3:atemp>
          </ns3:TrackPointExtension>
        </extensions>
      </trkpt>
      <trkpt lat="42.5630922429263591766357421875" lon="20.0454946048557758331298828125">
        <ele>2088.39990234375</ele>
        <time>2026-06-15T12:29:07.000Z</time>
        <extensions>
          <ns3:TrackPointExtension>
            <ns3:atemp>19.0</ns3:atemp>
          </ns3:TrackPointExtension>
        </extensions>
      </trkpt>
      <trkpt lat="42.5630922429263591766357421875" lon="20.0454946048557758331298828125">
        <ele>2088.199951171875</ele>
        <time>2026-06-15T12:29:08.000Z</time>
        <extensions>
          <ns3:TrackPointExtension>
            <ns3:atemp>19.0</ns3:atemp>
          </ns3:TrackPointExtension>
        </extensions>
      </trkpt>
      <trkpt lat="42.5630922429263591766357421875" lon="20.0454946048557758331298828125">
        <ele>2088.199951171875</ele>
        <time>2026-06-15T12:29:09.000Z</time>
        <extensions>
          <ns3:TrackPointExtension>
            <ns3:atemp>19.0</ns3:atemp>
          </ns3:TrackPointExtension>
        </extensions>
      </trkpt>
      <trkpt lat="42.5630922429263591766357421875" lon="20.0454946048557758331298828125">
        <ele>2088.199951171875</ele>
        <time>2026-06-15T12:29:10.000Z</time>
        <extensions>
          <ns3:TrackPointExtension>
            <ns3:atemp>19.0</ns3:atemp>
          </ns3:TrackPointExtension>
        </extensions>
      </trkpt>
      <trkpt lat="42.5630922429263591766357421875" lon="20.0454946048557758331298828125">
        <ele>2088</ele>
        <time>2026-06-15T12:29:11.000Z</time>
        <extensions>
          <ns3:TrackPointExtension>
            <ns3:atemp>19.0</ns3:atemp>
          </ns3:TrackPointExtension>
        </extensions>
      </trkpt>
      <trkpt lat="42.5630922429263591766357421875" lon="20.0454946048557758331298828125">
        <ele>2088</ele>
        <time>2026-06-15T12:29:12.000Z</time>
        <extensions>
          <ns3:TrackPointExtension>
            <ns3:atemp>19.0</ns3:atemp>
          </ns3:TrackPointExtension>
        </extensions>
      </trkpt>
      <trkpt lat="42.5630922429263591766357421875" lon="20.0454946048557758331298828125">
        <ele>2088</ele>
        <time>2026-06-15T12:29:13.000Z</time>
        <extensions>
          <ns3:TrackPointExtension>
            <ns3:atemp>19.0</ns3:atemp>
          </ns3:TrackPointExtension>
        </extensions>
      </trkpt>
      <trkpt lat="42.5630922429263591766357421875" lon="20.0454946048557758331298828125">
        <ele>2088</ele>
        <time>2026-06-15T12:29:14.000Z</time>
        <extensions>
          <ns3:TrackPointExtension>
            <ns3:atemp>19.0</ns3:atemp>
          </ns3:TrackPointExtension>
        </extensions>
      </trkpt>
      <trkpt lat="42.5630922429263591766357421875" lon="20.0454946048557758331298828125">
        <ele>2088</ele>
        <time>2026-06-15T12:29:15.000Z</time>
        <extensions>
          <ns3:TrackPointExtension>
            <ns3:atemp>19.0</ns3:atemp>
          </ns3:TrackPointExtension>
        </extensions>
      </trkpt>
      <trkpt lat="42.5630922429263591766357421875" lon="20.0454946048557758331298828125">
        <ele>2088</ele>
        <time>2026-06-15T12:29:16.000Z</time>
        <extensions>
          <ns3:TrackPointExtension>
            <ns3:atemp>19.0</ns3:atemp>
          </ns3:TrackPointExtension>
        </extensions>
      </trkpt>
      <trkpt lat="42.5630922429263591766357421875" lon="20.0454946048557758331298828125">
        <ele>2087.800048828125</ele>
        <time>2026-06-15T12:29:17.000Z</time>
        <extensions>
          <ns3:TrackPointExtension>
            <ns3:atemp>19.0</ns3:atemp>
          </ns3:TrackPointExtension>
        </extensions>
      </trkpt>
      <trkpt lat="42.5630922429263591766357421875" lon="20.0454946048557758331298828125">
        <ele>2087.800048828125</ele>
        <time>2026-06-15T12:29:18.000Z</time>
        <extensions>
          <ns3:TrackPointExtension>
            <ns3:atemp>19.0</ns3:atemp>
          </ns3:TrackPointExtension>
        </extensions>
      </trkpt>
      <trkpt lat="42.5630922429263591766357421875" lon="20.0454946048557758331298828125">
        <ele>2087.800048828125</ele>
        <time>2026-06-15T12:29:19.000Z</time>
        <extensions>
          <ns3:TrackPointExtension>
            <ns3:atemp>19.0</ns3:atemp>
          </ns3:TrackPointExtension>
        </extensions>
      </trkpt>
      <trkpt lat="42.5630922429263591766357421875" lon="20.0454946048557758331298828125">
        <ele>2087.800048828125</ele>
        <time>2026-06-15T12:29:20.000Z</time>
        <extensions>
          <ns3:TrackPointExtension>
            <ns3:atemp>19.0</ns3:atemp>
          </ns3:TrackPointExtension>
        </extensions>
      </trkpt>
      <trkpt lat="42.5630922429263591766357421875" lon="20.0454946048557758331298828125">
        <ele>2087.800048828125</ele>
        <time>2026-06-15T12:29:21.000Z</time>
        <extensions>
          <ns3:TrackPointExtension>
            <ns3:atemp>19.0</ns3:atemp>
          </ns3:TrackPointExtension>
        </extensions>
      </trkpt>
      <trkpt lat="42.5630922429263591766357421875" lon="20.0454946048557758331298828125">
        <ele>2087.800048828125</ele>
        <time>2026-06-15T12:29:22.000Z</time>
        <extensions>
          <ns3:TrackPointExtension>
            <ns3:atemp>19.0</ns3:atemp>
          </ns3:TrackPointExtension>
        </extensions>
      </trkpt>
      <trkpt lat="42.5630922429263591766357421875" lon="20.0454946048557758331298828125">
        <ele>2088</ele>
        <time>2026-06-15T12:29:23.000Z</time>
        <extensions>
          <ns3:TrackPointExtension>
            <ns3:atemp>19.0</ns3:atemp>
          </ns3:TrackPointExtension>
        </extensions>
      </trkpt>
      <trkpt lat="42.5630922429263591766357421875" lon="20.0454946048557758331298828125">
        <ele>2088</ele>
        <time>2026-06-15T12:29:24.000Z</time>
        <extensions>
          <ns3:TrackPointExtension>
            <ns3:atemp>19.0</ns3:atemp>
          </ns3:TrackPointExtension>
        </extensions>
      </trkpt>
      <trkpt lat="42.5630922429263591766357421875" lon="20.0454946048557758331298828125">
        <ele>2088</ele>
        <time>2026-06-15T12:29:25.000Z</time>
        <extensions>
          <ns3:TrackPointExtension>
            <ns3:atemp>19.0</ns3:atemp>
          </ns3:TrackPointExtension>
        </extensions>
      </trkpt>
      <trkpt lat="42.5630922429263591766357421875" lon="20.0454946048557758331298828125">
        <ele>2088</ele>
        <time>2026-06-15T12:29:26.000Z</time>
        <extensions>
          <ns3:TrackPointExtension>
            <ns3:atemp>19.0</ns3:atemp>
          </ns3:TrackPointExtension>
        </extensions>
      </trkpt>
      <trkpt lat="42.5630922429263591766357421875" lon="20.0454946048557758331298828125">
        <ele>2088</ele>
        <time>2026-06-15T12:29:27.000Z</time>
        <extensions>
          <ns3:TrackPointExtension>
            <ns3:atemp>19.0</ns3:atemp>
          </ns3:TrackPointExtension>
        </extensions>
      </trkpt>
      <trkpt lat="42.5630922429263591766357421875" lon="20.0454946048557758331298828125">
        <ele>2088</ele>
        <time>2026-06-15T12:29:28.000Z</time>
        <extensions>
          <ns3:TrackPointExtension>
            <ns3:atemp>19.0</ns3:atemp>
          </ns3:TrackPointExtension>
        </extensions>
      </trkpt>
      <trkpt lat="42.5630922429263591766357421875" lon="20.0454946048557758331298828125">
        <ele>2088</ele>
        <time>2026-06-15T12:29:29.000Z</time>
        <extensions>
          <ns3:TrackPointExtension>
            <ns3:atemp>19.0</ns3:atemp>
          </ns3:TrackPointExtension>
        </extensions>
      </trkpt>
      <trkpt lat="42.5630922429263591766357421875" lon="20.0454946048557758331298828125">
        <ele>2088</ele>
        <time>2026-06-15T12:29:30.000Z</time>
        <extensions>
          <ns3:TrackPointExtension>
            <ns3:atemp>19.0</ns3:atemp>
          </ns3:TrackPointExtension>
        </extensions>
      </trkpt>
      <trkpt lat="42.5630922429263591766357421875" lon="20.0454946048557758331298828125">
        <ele>2087.800048828125</ele>
        <time>2026-06-15T12:29:31.000Z</time>
        <extensions>
          <ns3:TrackPointExtension>
            <ns3:atemp>19.0</ns3:atemp>
          </ns3:TrackPointExtension>
        </extensions>
      </trkpt>
      <trkpt lat="42.5630922429263591766357421875" lon="20.0454946048557758331298828125">
        <ele>2087.800048828125</ele>
        <time>2026-06-15T12:29:32.000Z</time>
        <extensions>
          <ns3:TrackPointExtension>
            <ns3:atemp>19.0</ns3:atemp>
          </ns3:TrackPointExtension>
        </extensions>
      </trkpt>
      <trkpt lat="42.5630922429263591766357421875" lon="20.0454946048557758331298828125">
        <ele>2087.60009765625</ele>
        <time>2026-06-15T12:29:33.000Z</time>
        <extensions>
          <ns3:TrackPointExtension>
            <ns3:atemp>19.0</ns3:atemp>
          </ns3:TrackPointExtension>
        </extensions>
      </trkpt>
      <trkpt lat="42.5630922429263591766357421875" lon="20.0454946048557758331298828125">
        <ele>2087.60009765625</ele>
        <time>2026-06-15T12:29:34.000Z</time>
        <extensions>
          <ns3:TrackPointExtension>
            <ns3:atemp>19.0</ns3:atemp>
          </ns3:TrackPointExtension>
        </extensions>
      </trkpt>
      <trkpt lat="42.5630922429263591766357421875" lon="20.0454946048557758331298828125">
        <ele>2087.60009765625</ele>
        <time>2026-06-15T12:29:35.000Z</time>
        <extensions>
          <ns3:TrackPointExtension>
            <ns3:atemp>19.0</ns3:atemp>
          </ns3:TrackPointExtension>
        </extensions>
      </trkpt>
      <trkpt lat="42.5630922429263591766357421875" lon="20.0454946048557758331298828125">
        <ele>2087.60009765625</ele>
        <time>2026-06-15T12:29:36.000Z</time>
        <extensions>
          <ns3:TrackPointExtension>
            <ns3:atemp>19.0</ns3:atemp>
          </ns3:TrackPointExtension>
        </extensions>
      </trkpt>
      <trkpt lat="42.5630922429263591766357421875" lon="20.0454946048557758331298828125">
        <ele>2087.60009765625</ele>
        <time>2026-06-15T12:29:37.000Z</time>
        <extensions>
          <ns3:TrackPointExtension>
            <ns3:atemp>19.0</ns3:atemp>
          </ns3:TrackPointExtension>
        </extensions>
      </trkpt>
      <trkpt lat="42.5630922429263591766357421875" lon="20.0454946048557758331298828125">
        <ele>2087.800048828125</ele>
        <time>2026-06-15T12:29:38.000Z</time>
        <extensions>
          <ns3:TrackPointExtension>
            <ns3:atemp>19.0</ns3:atemp>
          </ns3:TrackPointExtension>
        </extensions>
      </trkpt>
      <trkpt lat="42.5630922429263591766357421875" lon="20.0454946048557758331298828125">
        <ele>2087.800048828125</ele>
        <time>2026-06-15T12:29:39.000Z</time>
        <extensions>
          <ns3:TrackPointExtension>
            <ns3:atemp>19.0</ns3:atemp>
          </ns3:TrackPointExtension>
        </extensions>
      </trkpt>
      <trkpt lat="42.5630922429263591766357421875" lon="20.0454946048557758331298828125">
        <ele>2088</ele>
        <time>2026-06-15T12:29:40.000Z</time>
        <extensions>
          <ns3:TrackPointExtension>
            <ns3:atemp>19.0</ns3:atemp>
          </ns3:TrackPointExtension>
        </extensions>
      </trkpt>
      <trkpt lat="42.5630922429263591766357421875" lon="20.0454946048557758331298828125">
        <ele>2088</ele>
        <time>2026-06-15T12:29:41.000Z</time>
        <extensions>
          <ns3:TrackPointExtension>
            <ns3:atemp>19.0</ns3:atemp>
          </ns3:TrackPointExtension>
        </extensions>
      </trkpt>
      <trkpt lat="42.5630922429263591766357421875" lon="20.0454946048557758331298828125">
        <ele>2088</ele>
        <time>2026-06-15T12:29:42.000Z</time>
        <extensions>
          <ns3:TrackPointExtension>
            <ns3:atemp>19.0</ns3:atemp>
          </ns3:TrackPointExtension>
        </extensions>
      </trkpt>
      <trkpt lat="42.5630922429263591766357421875" lon="20.0454946048557758331298828125">
        <ele>2087.800048828125</ele>
        <time>2026-06-15T12:29:43.000Z</time>
        <extensions>
          <ns3:TrackPointExtension>
            <ns3:atemp>19.0</ns3:atemp>
          </ns3:TrackPointExtension>
        </extensions>
      </trkpt>
      <trkpt lat="42.5630922429263591766357421875" lon="20.0454946048557758331298828125">
        <ele>2087.800048828125</ele>
        <time>2026-06-15T12:29:44.000Z</time>
        <extensions>
          <ns3:TrackPointExtension>
            <ns3:atemp>19.0</ns3:atemp>
          </ns3:TrackPointExtension>
        </extensions>
      </trkpt>
      <trkpt lat="42.5630922429263591766357421875" lon="20.0454946048557758331298828125">
        <ele>2087.800048828125</ele>
        <time>2026-06-15T12:29:45.000Z</time>
        <extensions>
          <ns3:TrackPointExtension>
            <ns3:atemp>19.0</ns3:atemp>
          </ns3:TrackPointExtension>
        </extensions>
      </trkpt>
      <trkpt lat="42.5630922429263591766357421875" lon="20.0454946048557758331298828125">
        <ele>2087.800048828125</ele>
        <time>2026-06-15T12:29:46.000Z</time>
        <extensions>
          <ns3:TrackPointExtension>
            <ns3:atemp>19.0</ns3:atemp>
          </ns3:TrackPointExtension>
        </extensions>
      </trkpt>
      <trkpt lat="42.5630922429263591766357421875" lon="20.0454946048557758331298828125">
        <ele>2087.800048828125</ele>
        <time>2026-06-15T12:29:47.000Z</time>
        <extensions>
          <ns3:TrackPointExtension>
            <ns3:atemp>19.0</ns3:atemp>
          </ns3:TrackPointExtension>
        </extensions>
      </trkpt>
      <trkpt lat="42.5630922429263591766357421875" lon="20.0454946048557758331298828125">
        <ele>2087.800048828125</ele>
        <time>2026-06-15T12:29:48.000Z</time>
        <extensions>
          <ns3:TrackPointExtension>
            <ns3:atemp>19.0</ns3:atemp>
          </ns3:TrackPointExtension>
        </extensions>
      </trkpt>
      <trkpt lat="42.5630922429263591766357421875" lon="20.0454946048557758331298828125">
        <ele>2087.800048828125</ele>
        <time>2026-06-15T12:29:49.000Z</time>
        <extensions>
          <ns3:TrackPointExtension>
            <ns3:atemp>19.0</ns3:atemp>
          </ns3:TrackPointExtension>
        </extensions>
      </trkpt>
      <trkpt lat="42.5630922429263591766357421875" lon="20.0454946048557758331298828125">
        <ele>2087.800048828125</ele>
        <time>2026-06-15T12:29:50.000Z</time>
        <extensions>
          <ns3:TrackPointExtension>
            <ns3:atemp>19.0</ns3:atemp>
          </ns3:TrackPointExtension>
        </extensions>
      </trkpt>
      <trkpt lat="42.5630922429263591766357421875" lon="20.0454946048557758331298828125">
        <ele>2087.60009765625</ele>
        <time>2026-06-15T12:29:51.000Z</time>
        <extensions>
          <ns3:TrackPointExtension>
            <ns3:atemp>19.0</ns3:atemp>
          </ns3:TrackPointExtension>
        </extensions>
      </trkpt>
      <trkpt lat="42.5630922429263591766357421875" lon="20.0454946048557758331298828125">
        <ele>2087.60009765625</ele>
        <time>2026-06-15T12:29:52.000Z</time>
        <extensions>
          <ns3:TrackPointExtension>
            <ns3:atemp>19.0</ns3:atemp>
          </ns3:TrackPointExtension>
        </extensions>
      </trkpt>
      <trkpt lat="42.5630922429263591766357421875" lon="20.0454946048557758331298828125">
        <ele>2087.800048828125</ele>
        <time>2026-06-15T12:29:53.000Z</time>
        <extensions>
          <ns3:TrackPointExtension>
            <ns3:atemp>19.0</ns3:atemp>
          </ns3:TrackPointExtension>
        </extensions>
      </trkpt>
      <trkpt lat="42.5630922429263591766357421875" lon="20.0454946048557758331298828125">
        <ele>2087.800048828125</ele>
        <time>2026-06-15T12:29:54.000Z</time>
        <extensions>
          <ns3:TrackPointExtension>
            <ns3:atemp>19.0</ns3:atemp>
          </ns3:TrackPointExtension>
        </extensions>
      </trkpt>
      <trkpt lat="42.5630922429263591766357421875" lon="20.0454946048557758331298828125">
        <ele>2087.800048828125</ele>
        <time>2026-06-15T12:29:55.000Z</time>
        <extensions>
          <ns3:TrackPointExtension>
            <ns3:atemp>19.0</ns3:atemp>
          </ns3:TrackPointExtension>
        </extensions>
      </trkpt>
      <trkpt lat="42.5630922429263591766357421875" lon="20.0454946048557758331298828125">
        <ele>2087.800048828125</ele>
        <time>2026-06-15T12:29:56.000Z</time>
        <extensions>
          <ns3:TrackPointExtension>
            <ns3:atemp>19.0</ns3:atemp>
          </ns3:TrackPointExtension>
        </extensions>
      </trkpt>
      <trkpt lat="42.5630922429263591766357421875" lon="20.0454946048557758331298828125">
        <ele>2087.800048828125</ele>
        <time>2026-06-15T12:29:57.000Z</time>
        <extensions>
          <ns3:TrackPointExtension>
            <ns3:atemp>19.0</ns3:atemp>
          </ns3:TrackPointExtension>
        </extensions>
      </trkpt>
      <trkpt lat="42.5630922429263591766357421875" lon="20.0454946048557758331298828125">
        <ele>2087.800048828125</ele>
        <time>2026-06-15T12:29:58.000Z</time>
        <extensions>
          <ns3:TrackPointExtension>
            <ns3:atemp>19.0</ns3:atemp>
          </ns3:TrackPointExtension>
        </extensions>
      </trkpt>
      <trkpt lat="42.5630922429263591766357421875" lon="20.0454946048557758331298828125">
        <ele>2087.800048828125</ele>
        <time>2026-06-15T12:29:59.000Z</time>
        <extensions>
          <ns3:TrackPointExtension>
            <ns3:atemp>19.0</ns3:atemp>
          </ns3:TrackPointExtension>
        </extensions>
      </trkpt>
      <trkpt lat="42.5630922429263591766357421875" lon="20.0454946048557758331298828125">
        <ele>2087.800048828125</ele>
        <time>2026-06-15T12:30:00.000Z</time>
        <extensions>
          <ns3:TrackPointExtension>
            <ns3:atemp>19.0</ns3:atemp>
          </ns3:TrackPointExtension>
        </extensions>
      </trkpt>
      <trkpt lat="42.5630922429263591766357421875" lon="20.0454946048557758331298828125">
        <ele>2087.800048828125</ele>
        <time>2026-06-15T12:30:01.000Z</time>
        <extensions>
          <ns3:TrackPointExtension>
            <ns3:atemp>19.0</ns3:atemp>
          </ns3:TrackPointExtension>
        </extensions>
      </trkpt>
      <trkpt lat="42.5630922429263591766357421875" lon="20.0454946048557758331298828125">
        <ele>2087.800048828125</ele>
        <time>2026-06-15T12:30:02.000Z</time>
        <extensions>
          <ns3:TrackPointExtension>
            <ns3:atemp>19.0</ns3:atemp>
          </ns3:TrackPointExtension>
        </extensions>
      </trkpt>
      <trkpt lat="42.5630922429263591766357421875" lon="20.0454946048557758331298828125">
        <ele>2087.800048828125</ele>
        <time>2026-06-15T12:30:03.000Z</time>
        <extensions>
          <ns3:TrackPointExtension>
            <ns3:atemp>19.0</ns3:atemp>
          </ns3:TrackPointExtension>
        </extensions>
      </trkpt>
      <trkpt lat="42.5630922429263591766357421875" lon="20.0454946048557758331298828125">
        <ele>2087.800048828125</ele>
        <time>2026-06-15T12:30:04.000Z</time>
        <extensions>
          <ns3:TrackPointExtension>
            <ns3:atemp>19.0</ns3:atemp>
          </ns3:TrackPointExtension>
        </extensions>
      </trkpt>
      <trkpt lat="42.5630922429263591766357421875" lon="20.0454946048557758331298828125">
        <ele>2087.800048828125</ele>
        <time>2026-06-15T12:30:05.000Z</time>
        <extensions>
          <ns3:TrackPointExtension>
            <ns3:atemp>19.0</ns3:atemp>
          </ns3:TrackPointExtension>
        </extensions>
      </trkpt>
      <trkpt lat="42.5630922429263591766357421875" lon="20.0454946048557758331298828125">
        <ele>2087.800048828125</ele>
        <time>2026-06-15T12:30:06.000Z</time>
        <extensions>
          <ns3:TrackPointExtension>
            <ns3:atemp>19.0</ns3:atemp>
          </ns3:TrackPointExtension>
        </extensions>
      </trkpt>
      <trkpt lat="42.5630922429263591766357421875" lon="20.0454946048557758331298828125">
        <ele>2087.800048828125</ele>
        <time>2026-06-15T12:30:07.000Z</time>
        <extensions>
          <ns3:TrackPointExtension>
            <ns3:atemp>19.0</ns3:atemp>
          </ns3:TrackPointExtension>
        </extensions>
      </trkpt>
      <trkpt lat="42.5630922429263591766357421875" lon="20.0454946048557758331298828125">
        <ele>2087.800048828125</ele>
        <time>2026-06-15T12:30:08.000Z</time>
        <extensions>
          <ns3:TrackPointExtension>
            <ns3:atemp>19.0</ns3:atemp>
          </ns3:TrackPointExtension>
        </extensions>
      </trkpt>
      <trkpt lat="42.5630922429263591766357421875" lon="20.0454946048557758331298828125">
        <ele>2087.800048828125</ele>
        <time>2026-06-15T12:30:09.000Z</time>
        <extensions>
          <ns3:TrackPointExtension>
            <ns3:atemp>19.0</ns3:atemp>
          </ns3:TrackPointExtension>
        </extensions>
      </trkpt>
      <trkpt lat="42.5630922429263591766357421875" lon="20.0454946048557758331298828125">
        <ele>2087.800048828125</ele>
        <time>2026-06-15T12:30:10.000Z</time>
        <extensions>
          <ns3:TrackPointExtension>
            <ns3:atemp>19.0</ns3:atemp>
          </ns3:TrackPointExtension>
        </extensions>
      </trkpt>
      <trkpt lat="42.5630922429263591766357421875" lon="20.0454946048557758331298828125">
        <ele>2087.800048828125</ele>
        <time>2026-06-15T12:30:11.000Z</time>
        <extensions>
          <ns3:TrackPointExtension>
            <ns3:atemp>19.0</ns3:atemp>
          </ns3:TrackPointExtension>
        </extensions>
      </trkpt>
      <trkpt lat="42.5630922429263591766357421875" lon="20.0454946048557758331298828125">
        <ele>2087.800048828125</ele>
        <time>2026-06-15T12:30:12.000Z</time>
        <extensions>
          <ns3:TrackPointExtension>
            <ns3:atemp>19.0</ns3:atemp>
          </ns3:TrackPointExtension>
        </extensions>
      </trkpt>
      <trkpt lat="42.5630922429263591766357421875" lon="20.0454946048557758331298828125">
        <ele>2087.800048828125</ele>
        <time>2026-06-15T12:30:13.000Z</time>
        <extensions>
          <ns3:TrackPointExtension>
            <ns3:atemp>19.0</ns3:atemp>
          </ns3:TrackPointExtension>
        </extensions>
      </trkpt>
      <trkpt lat="42.5630922429263591766357421875" lon="20.0454946048557758331298828125">
        <ele>2087.800048828125</ele>
        <time>2026-06-15T12:30:14.000Z</time>
        <extensions>
          <ns3:TrackPointExtension>
            <ns3:atemp>19.0</ns3:atemp>
          </ns3:TrackPointExtension>
        </extensions>
      </trkpt>
      <trkpt lat="42.5630922429263591766357421875" lon="20.0454946048557758331298828125">
        <ele>2087.800048828125</ele>
        <time>2026-06-15T12:30:15.000Z</time>
        <extensions>
          <ns3:TrackPointExtension>
            <ns3:atemp>19.0</ns3:atemp>
          </ns3:TrackPointExtension>
        </extensions>
      </trkpt>
      <trkpt lat="42.5630922429263591766357421875" lon="20.0454946048557758331298828125">
        <ele>2087.800048828125</ele>
        <time>2026-06-15T12:30:16.000Z</time>
        <extensions>
          <ns3:TrackPointExtension>
            <ns3:atemp>19.0</ns3:atemp>
          </ns3:TrackPointExtension>
        </extensions>
      </trkpt>
      <trkpt lat="42.5630922429263591766357421875" lon="20.0454946048557758331298828125">
        <ele>2087.800048828125</ele>
        <time>2026-06-15T12:30:17.000Z</time>
        <extensions>
          <ns3:TrackPointExtension>
            <ns3:atemp>19.0</ns3:atemp>
          </ns3:TrackPointExtension>
        </extensions>
      </trkpt>
      <trkpt lat="42.5630922429263591766357421875" lon="20.0454946048557758331298828125">
        <ele>2087.800048828125</ele>
        <time>2026-06-15T12:30:18.000Z</time>
        <extensions>
          <ns3:TrackPointExtension>
            <ns3:atemp>19.0</ns3:atemp>
          </ns3:TrackPointExtension>
        </extensions>
      </trkpt>
      <trkpt lat="42.5630922429263591766357421875" lon="20.0454946048557758331298828125">
        <ele>2087.800048828125</ele>
        <time>2026-06-15T12:30:19.000Z</time>
        <extensions>
          <ns3:TrackPointExtension>
            <ns3:atemp>19.0</ns3:atemp>
          </ns3:TrackPointExtension>
        </extensions>
      </trkpt>
      <trkpt lat="42.5630922429263591766357421875" lon="20.0454946048557758331298828125">
        <ele>2087.800048828125</ele>
        <time>2026-06-15T12:30:20.000Z</time>
        <extensions>
          <ns3:TrackPointExtension>
            <ns3:atemp>19.0</ns3:atemp>
          </ns3:TrackPointExtension>
        </extensions>
      </trkpt>
      <trkpt lat="42.5630922429263591766357421875" lon="20.0454946048557758331298828125">
        <ele>2087.800048828125</ele>
        <time>2026-06-15T12:30:21.000Z</time>
        <extensions>
          <ns3:TrackPointExtension>
            <ns3:atemp>19.0</ns3:atemp>
          </ns3:TrackPointExtension>
        </extensions>
      </trkpt>
      <trkpt lat="42.5630922429263591766357421875" lon="20.0454946048557758331298828125">
        <ele>2087.800048828125</ele>
        <time>2026-06-15T12:30:22.000Z</time>
        <extensions>
          <ns3:TrackPointExtension>
            <ns3:atemp>19.0</ns3:atemp>
          </ns3:TrackPointExtension>
        </extensions>
      </trkpt>
      <trkpt lat="42.5630922429263591766357421875" lon="20.0454946048557758331298828125">
        <ele>2087.800048828125</ele>
        <time>2026-06-15T12:30:23.000Z</time>
        <extensions>
          <ns3:TrackPointExtension>
            <ns3:atemp>19.0</ns3:atemp>
          </ns3:TrackPointExtension>
        </extensions>
      </trkpt>
      <trkpt lat="42.5630922429263591766357421875" lon="20.0454946048557758331298828125">
        <ele>2087.800048828125</ele>
        <time>2026-06-15T12:30:24.000Z</time>
        <extensions>
          <ns3:TrackPointExtension>
            <ns3:atemp>19.0</ns3:atemp>
          </ns3:TrackPointExtension>
        </extensions>
      </trkpt>
      <trkpt lat="42.5630922429263591766357421875" lon="20.0454946048557758331298828125">
        <ele>2087.800048828125</ele>
        <time>2026-06-15T12:30:25.000Z</time>
        <extensions>
          <ns3:TrackPointExtension>
            <ns3:atemp>19.0</ns3:atemp>
          </ns3:TrackPointExtension>
        </extensions>
      </trkpt>
      <trkpt lat="42.5630922429263591766357421875" lon="20.0454946048557758331298828125">
        <ele>2087.800048828125</ele>
        <time>2026-06-15T12:30:26.000Z</time>
        <extensions>
          <ns3:TrackPointExtension>
            <ns3:atemp>19.0</ns3:atemp>
          </ns3:TrackPointExtension>
        </extensions>
      </trkpt>
      <trkpt lat="42.5630922429263591766357421875" lon="20.0454946048557758331298828125">
        <ele>2087.800048828125</ele>
        <time>2026-06-15T12:30:27.000Z</time>
        <extensions>
          <ns3:TrackPointExtension>
            <ns3:atemp>19.0</ns3:atemp>
          </ns3:TrackPointExtension>
        </extensions>
      </trkpt>
      <trkpt lat="42.5630922429263591766357421875" lon="20.0454946048557758331298828125">
        <ele>2087.800048828125</ele>
        <time>2026-06-15T12:30:28.000Z</time>
        <extensions>
          <ns3:TrackPointExtension>
            <ns3:atemp>19.0</ns3:atemp>
          </ns3:TrackPointExtension>
        </extensions>
      </trkpt>
      <trkpt lat="42.5630922429263591766357421875" lon="20.0454946048557758331298828125">
        <ele>2087.800048828125</ele>
        <time>2026-06-15T12:30:29.000Z</time>
        <extensions>
          <ns3:TrackPointExtension>
            <ns3:atemp>19.0</ns3:atemp>
          </ns3:TrackPointExtension>
        </extensions>
      </trkpt>
      <trkpt lat="42.5630922429263591766357421875" lon="20.0454946048557758331298828125">
        <ele>2087.800048828125</ele>
        <time>2026-06-15T12:30:30.000Z</time>
        <extensions>
          <ns3:TrackPointExtension>
            <ns3:atemp>19.0</ns3:atemp>
          </ns3:TrackPointExtension>
        </extensions>
      </trkpt>
      <trkpt lat="42.5630922429263591766357421875" lon="20.0454946048557758331298828125">
        <ele>2087.800048828125</ele>
        <time>2026-06-15T12:30:31.000Z</time>
        <extensions>
          <ns3:TrackPointExtension>
            <ns3:atemp>19.0</ns3:atemp>
          </ns3:TrackPointExtension>
        </extensions>
      </trkpt>
      <trkpt lat="42.5630922429263591766357421875" lon="20.0454946048557758331298828125">
        <ele>2087.800048828125</ele>
        <time>2026-06-15T12:30:32.000Z</time>
        <extensions>
          <ns3:TrackPointExtension>
            <ns3:atemp>19.0</ns3:atemp>
          </ns3:TrackPointExtension>
        </extensions>
      </trkpt>
      <trkpt lat="42.5630922429263591766357421875" lon="20.0454946048557758331298828125">
        <ele>2087.800048828125</ele>
        <time>2026-06-15T12:30:33.000Z</time>
        <extensions>
          <ns3:TrackPointExtension>
            <ns3:atemp>19.0</ns3:atemp>
          </ns3:TrackPointExtension>
        </extensions>
      </trkpt>
      <trkpt lat="42.5630922429263591766357421875" lon="20.0454946048557758331298828125">
        <ele>2087.800048828125</ele>
        <time>2026-06-15T12:30:34.000Z</time>
        <extensions>
          <ns3:TrackPointExtension>
            <ns3:atemp>19.0</ns3:atemp>
          </ns3:TrackPointExtension>
        </extensions>
      </trkpt>
      <trkpt lat="42.5630922429263591766357421875" lon="20.0454946048557758331298828125">
        <ele>2087.800048828125</ele>
        <time>2026-06-15T12:30:35.000Z</time>
        <extensions>
          <ns3:TrackPointExtension>
            <ns3:atemp>19.0</ns3:atemp>
          </ns3:TrackPointExtension>
        </extensions>
      </trkpt>
      <trkpt lat="42.5630922429263591766357421875" lon="20.0454946048557758331298828125">
        <ele>2087.800048828125</ele>
        <time>2026-06-15T12:30:36.000Z</time>
        <extensions>
          <ns3:TrackPointExtension>
            <ns3:atemp>19.0</ns3:atemp>
          </ns3:TrackPointExtension>
        </extensions>
      </trkpt>
      <trkpt lat="42.5630922429263591766357421875" lon="20.0454946048557758331298828125">
        <ele>2087.800048828125</ele>
        <time>2026-06-15T12:30:37.000Z</time>
        <extensions>
          <ns3:TrackPointExtension>
            <ns3:atemp>19.0</ns3:atemp>
          </ns3:TrackPointExtension>
        </extensions>
      </trkpt>
      <trkpt lat="42.5630922429263591766357421875" lon="20.0454946048557758331298828125">
        <ele>2087.800048828125</ele>
        <time>2026-06-15T12:30:38.000Z</time>
        <extensions>
          <ns3:TrackPointExtension>
            <ns3:atemp>19.0</ns3:atemp>
          </ns3:TrackPointExtension>
        </extensions>
      </trkpt>
      <trkpt lat="42.5630922429263591766357421875" lon="20.0454946048557758331298828125">
        <ele>2087.800048828125</ele>
        <time>2026-06-15T12:30:39.000Z</time>
        <extensions>
          <ns3:TrackPointExtension>
            <ns3:atemp>19.0</ns3:atemp>
          </ns3:TrackPointExtension>
        </extensions>
      </trkpt>
      <trkpt lat="42.5630922429263591766357421875" lon="20.0454946048557758331298828125">
        <ele>2087.800048828125</ele>
        <time>2026-06-15T12:30:40.000Z</time>
        <extensions>
          <ns3:TrackPointExtension>
            <ns3:atemp>19.0</ns3:atemp>
          </ns3:TrackPointExtension>
        </extensions>
      </trkpt>
      <trkpt lat="42.5630922429263591766357421875" lon="20.0454946048557758331298828125">
        <ele>2087.800048828125</ele>
        <time>2026-06-15T12:30:41.000Z</time>
        <extensions>
          <ns3:TrackPointExtension>
            <ns3:atemp>19.0</ns3:atemp>
          </ns3:TrackPointExtension>
        </extensions>
      </trkpt>
      <trkpt lat="42.5630922429263591766357421875" lon="20.0454946048557758331298828125">
        <ele>2087.800048828125</ele>
        <time>2026-06-15T12:30:42.000Z</time>
        <extensions>
          <ns3:TrackPointExtension>
            <ns3:atemp>19.0</ns3:atemp>
          </ns3:TrackPointExtension>
        </extensions>
      </trkpt>
      <trkpt lat="42.5630922429263591766357421875" lon="20.0454946048557758331298828125">
        <ele>2087.800048828125</ele>
        <time>2026-06-15T12:30:43.000Z</time>
        <extensions>
          <ns3:TrackPointExtension>
            <ns3:atemp>19.0</ns3:atemp>
          </ns3:TrackPointExtension>
        </extensions>
      </trkpt>
      <trkpt lat="42.5630922429263591766357421875" lon="20.0454946048557758331298828125">
        <ele>2087.800048828125</ele>
        <time>2026-06-15T12:30:44.000Z</time>
        <extensions>
          <ns3:TrackPointExtension>
            <ns3:atemp>19.0</ns3:atemp>
          </ns3:TrackPointExtension>
        </extensions>
      </trkpt>
      <trkpt lat="42.5630922429263591766357421875" lon="20.0454946048557758331298828125">
        <ele>2087.800048828125</ele>
        <time>2026-06-15T12:30:45.000Z</time>
        <extensions>
          <ns3:TrackPointExtension>
            <ns3:atemp>19.0</ns3:atemp>
          </ns3:TrackPointExtension>
        </extensions>
      </trkpt>
      <trkpt lat="42.5630922429263591766357421875" lon="20.0454946048557758331298828125">
        <ele>2087.800048828125</ele>
        <time>2026-06-15T12:30:46.000Z</time>
        <extensions>
          <ns3:TrackPointExtension>
            <ns3:atemp>19.0</ns3:atemp>
          </ns3:TrackPointExtension>
        </extensions>
      </trkpt>
      <trkpt lat="42.5630922429263591766357421875" lon="20.0454946048557758331298828125">
        <ele>2087.800048828125</ele>
        <time>2026-06-15T12:30:47.000Z</time>
        <extensions>
          <ns3:TrackPointExtension>
            <ns3:atemp>19.0</ns3:atemp>
          </ns3:TrackPointExtension>
        </extensions>
      </trkpt>
      <trkpt lat="42.5630922429263591766357421875" lon="20.0454946048557758331298828125">
        <ele>2087.800048828125</ele>
        <time>2026-06-15T12:30:48.000Z</time>
        <extensions>
          <ns3:TrackPointExtension>
            <ns3:atemp>19.0</ns3:atemp>
          </ns3:TrackPointExtension>
        </extensions>
      </trkpt>
      <trkpt lat="42.5630922429263591766357421875" lon="20.0454946048557758331298828125">
        <ele>2087.800048828125</ele>
        <time>2026-06-15T12:30:49.000Z</time>
        <extensions>
          <ns3:TrackPointExtension>
            <ns3:atemp>19.0</ns3:atemp>
          </ns3:TrackPointExtension>
        </extensions>
      </trkpt>
      <trkpt lat="42.5630922429263591766357421875" lon="20.0454946048557758331298828125">
        <ele>2087.800048828125</ele>
        <time>2026-06-15T12:30:50.000Z</time>
        <extensions>
          <ns3:TrackPointExtension>
            <ns3:atemp>19.0</ns3:atemp>
          </ns3:TrackPointExtension>
        </extensions>
      </trkpt>
      <trkpt lat="42.5630922429263591766357421875" lon="20.0454946048557758331298828125">
        <ele>2087.800048828125</ele>
        <time>2026-06-15T12:30:51.000Z</time>
        <extensions>
          <ns3:TrackPointExtension>
            <ns3:atemp>19.0</ns3:atemp>
          </ns3:TrackPointExtension>
        </extensions>
      </trkpt>
      <trkpt lat="42.5630922429263591766357421875" lon="20.0454946048557758331298828125">
        <ele>2087.800048828125</ele>
        <time>2026-06-15T12:30:52.000Z</time>
        <extensions>
          <ns3:TrackPointExtension>
            <ns3:atemp>19.0</ns3:atemp>
          </ns3:TrackPointExtension>
        </extensions>
      </trkpt>
      <trkpt lat="42.5630922429263591766357421875" lon="20.0454946048557758331298828125">
        <ele>2087.800048828125</ele>
        <time>2026-06-15T12:30:53.000Z</time>
        <extensions>
          <ns3:TrackPointExtension>
            <ns3:atemp>19.0</ns3:atemp>
          </ns3:TrackPointExtension>
        </extensions>
      </trkpt>
      <trkpt lat="42.5630922429263591766357421875" lon="20.0454946048557758331298828125">
        <ele>2087.800048828125</ele>
        <time>2026-06-15T12:30:54.000Z</time>
        <extensions>
          <ns3:TrackPointExtension>
            <ns3:atemp>19.0</ns3:atemp>
          </ns3:TrackPointExtension>
        </extensions>
      </trkpt>
      <trkpt lat="42.5630922429263591766357421875" lon="20.0454946048557758331298828125">
        <ele>2087.800048828125</ele>
        <time>2026-06-15T12:30:55.000Z</time>
        <extensions>
          <ns3:TrackPointExtension>
            <ns3:atemp>19.0</ns3:atemp>
          </ns3:TrackPointExtension>
        </extensions>
      </trkpt>
      <trkpt lat="42.5630922429263591766357421875" lon="20.0454946048557758331298828125">
        <ele>2087.800048828125</ele>
        <time>2026-06-15T12:30:56.000Z</time>
        <extensions>
          <ns3:TrackPointExtension>
            <ns3:atemp>19.0</ns3:atemp>
          </ns3:TrackPointExtension>
        </extensions>
      </trkpt>
      <trkpt lat="42.5630922429263591766357421875" lon="20.0454946048557758331298828125">
        <ele>2087.800048828125</ele>
        <time>2026-06-15T12:30:57.000Z</time>
        <extensions>
          <ns3:TrackPointExtension>
            <ns3:atemp>19.0</ns3:atemp>
          </ns3:TrackPointExtension>
        </extensions>
      </trkpt>
      <trkpt lat="42.5630922429263591766357421875" lon="20.0454946048557758331298828125">
        <ele>2087.800048828125</ele>
        <time>2026-06-15T12:30:58.000Z</time>
        <extensions>
          <ns3:TrackPointExtension>
            <ns3:atemp>19.0</ns3:atemp>
          </ns3:TrackPointExtension>
        </extensions>
      </trkpt>
      <trkpt lat="42.5630922429263591766357421875" lon="20.0454946048557758331298828125">
        <ele>2087.800048828125</ele>
        <time>2026-06-15T12:30:59.000Z</time>
        <extensions>
          <ns3:TrackPointExtension>
            <ns3:atemp>19.0</ns3:atemp>
          </ns3:TrackPointExtension>
        </extensions>
      </trkpt>
      <trkpt lat="42.5630922429263591766357421875" lon="20.0454946048557758331298828125">
        <ele>2087.800048828125</ele>
        <time>2026-06-15T12:31:00.000Z</time>
        <extensions>
          <ns3:TrackPointExtension>
            <ns3:atemp>19.0</ns3:atemp>
          </ns3:TrackPointExtension>
        </extensions>
      </trkpt>
      <trkpt lat="42.5630922429263591766357421875" lon="20.0454946048557758331298828125">
        <ele>2087.800048828125</ele>
        <time>2026-06-15T12:31:01.000Z</time>
        <extensions>
          <ns3:TrackPointExtension>
            <ns3:atemp>19.0</ns3:atemp>
          </ns3:TrackPointExtension>
        </extensions>
      </trkpt>
      <trkpt lat="42.5630922429263591766357421875" lon="20.0454946048557758331298828125">
        <ele>2087.800048828125</ele>
        <time>2026-06-15T12:31:02.000Z</time>
        <extensions>
          <ns3:TrackPointExtension>
            <ns3:atemp>19.0</ns3:atemp>
          </ns3:TrackPointExtension>
        </extensions>
      </trkpt>
      <trkpt lat="42.5630922429263591766357421875" lon="20.0454946048557758331298828125">
        <ele>2087.800048828125</ele>
        <time>2026-06-15T12:31:03.000Z</time>
        <extensions>
          <ns3:TrackPointExtension>
            <ns3:atemp>19.0</ns3:atemp>
          </ns3:TrackPointExtension>
        </extensions>
      </trkpt>
      <trkpt lat="42.5630922429263591766357421875" lon="20.0454946048557758331298828125">
        <ele>2087.800048828125</ele>
        <time>2026-06-15T12:31:04.000Z</time>
        <extensions>
          <ns3:TrackPointExtension>
            <ns3:atemp>19.0</ns3:atemp>
          </ns3:TrackPointExtension>
        </extensions>
      </trkpt>
      <trkpt lat="42.5630910694599151611328125" lon="20.04548437893390655517578125">
        <ele>2087.800048828125</ele>
        <time>2026-06-15T12:31:05.000Z</time>
        <extensions>
          <ns3:TrackPointExtension>
            <ns3:atemp>19.0</ns3:atemp>
          </ns3:TrackPointExtension>
        </extensions>
      </trkpt>
      <trkpt lat="42.5630885548889636993408203125" lon="20.04546887241303920745849609375">
        <ele>2087.800048828125</ele>
        <time>2026-06-15T12:31:06.000Z</time>
        <extensions>
          <ns3:TrackPointExtension>
            <ns3:atemp>19.0</ns3:atemp>
          </ns3:TrackPointExtension>
        </extensions>
      </trkpt>
      <trkpt lat="42.5630885548889636993408203125" lon="20.0454689562320709228515625">
        <ele>2087.800048828125</ele>
        <time>2026-06-15T12:31:07.000Z</time>
        <extensions>
          <ns3:TrackPointExtension>
            <ns3:atemp>19.0</ns3:atemp>
          </ns3:TrackPointExtension>
        </extensions>
      </trkpt>
      <trkpt lat="42.56308863870799541473388671875" lon="20.0454691238701343536376953125">
        <ele>2087.800048828125</ele>
        <time>2026-06-15T12:31:08.000Z</time>
        <extensions>
          <ns3:TrackPointExtension>
            <ns3:atemp>19.0</ns3:atemp>
          </ns3:TrackPointExtension>
        </extensions>
      </trkpt>
      <trkpt lat="42.5630885548889636993408203125" lon="20.0454689562320709228515625">
        <ele>2087.800048828125</ele>
        <time>2026-06-15T12:31:09.000Z</time>
        <extensions>
          <ns3:TrackPointExtension>
            <ns3:atemp>19.0</ns3:atemp>
          </ns3:TrackPointExtension>
        </extensions>
      </trkpt>
      <trkpt lat="42.5630885548889636993408203125" lon="20.0454689562320709228515625">
        <ele>2087.800048828125</ele>
        <time>2026-06-15T12:31:10.000Z</time>
        <extensions>
          <ns3:TrackPointExtension>
            <ns3:atemp>19.0</ns3:atemp>
          </ns3:TrackPointExtension>
        </extensions>
      </trkpt>
      <trkpt lat="42.5630885548889636993408203125" lon="20.0454689562320709228515625">
        <ele>2087.800048828125</ele>
        <time>2026-06-15T12:31:11.000Z</time>
        <extensions>
          <ns3:TrackPointExtension>
            <ns3:atemp>19.0</ns3:atemp>
          </ns3:TrackPointExtension>
        </extensions>
      </trkpt>
      <trkpt lat="42.5630885548889636993408203125" lon="20.0454689562320709228515625">
        <ele>2087.800048828125</ele>
        <time>2026-06-15T12:31:12.000Z</time>
        <extensions>
          <ns3:TrackPointExtension>
            <ns3:atemp>19.0</ns3:atemp>
          </ns3:TrackPointExtension>
        </extensions>
      </trkpt>
      <trkpt lat="42.5630885548889636993408203125" lon="20.0454689562320709228515625">
        <ele>2087.800048828125</ele>
        <time>2026-06-15T12:31:13.000Z</time>
        <extensions>
          <ns3:TrackPointExtension>
            <ns3:atemp>19.0</ns3:atemp>
          </ns3:TrackPointExtension>
        </extensions>
      </trkpt>
      <trkpt lat="42.5630885548889636993408203125" lon="20.0454689562320709228515625">
        <ele>2087.800048828125</ele>
        <time>2026-06-15T12:31:14.000Z</time>
        <extensions>
          <ns3:TrackPointExtension>
            <ns3:atemp>19.0</ns3:atemp>
          </ns3:TrackPointExtension>
        </extensions>
      </trkpt>
      <trkpt lat="42.5630885548889636993408203125" lon="20.0454689562320709228515625">
        <ele>2087.800048828125</ele>
        <time>2026-06-15T12:31:15.000Z</time>
        <extensions>
          <ns3:TrackPointExtension>
            <ns3:atemp>19.0</ns3:atemp>
          </ns3:TrackPointExtension>
        </extensions>
      </trkpt>
      <trkpt lat="42.5630885548889636993408203125" lon="20.0454689562320709228515625">
        <ele>2087.800048828125</ele>
        <time>2026-06-15T12:31:16.000Z</time>
        <extensions>
          <ns3:TrackPointExtension>
            <ns3:atemp>19.0</ns3:atemp>
          </ns3:TrackPointExtension>
        </extensions>
      </trkpt>
      <trkpt lat="42.5630885548889636993408203125" lon="20.0454689562320709228515625">
        <ele>2087.800048828125</ele>
        <time>2026-06-15T12:31:17.000Z</time>
        <extensions>
          <ns3:TrackPointExtension>
            <ns3:atemp>19.0</ns3:atemp>
          </ns3:TrackPointExtension>
        </extensions>
      </trkpt>
      <trkpt lat="42.5630885548889636993408203125" lon="20.0454689562320709228515625">
        <ele>2087.800048828125</ele>
        <time>2026-06-15T12:31:18.000Z</time>
        <extensions>
          <ns3:TrackPointExtension>
            <ns3:atemp>19.0</ns3:atemp>
          </ns3:TrackPointExtension>
        </extensions>
      </trkpt>
      <trkpt lat="42.5630885548889636993408203125" lon="20.0454689562320709228515625">
        <ele>2087.800048828125</ele>
        <time>2026-06-15T12:31:19.000Z</time>
        <extensions>
          <ns3:TrackPointExtension>
            <ns3:atemp>19.0</ns3:atemp>
          </ns3:TrackPointExtension>
        </extensions>
      </trkpt>
      <trkpt lat="42.5630885548889636993408203125" lon="20.0454689562320709228515625">
        <ele>2087.800048828125</ele>
        <time>2026-06-15T12:31:20.000Z</time>
        <extensions>
          <ns3:TrackPointExtension>
            <ns3:atemp>19.0</ns3:atemp>
          </ns3:TrackPointExtension>
        </extensions>
      </trkpt>
      <trkpt lat="42.5630885548889636993408203125" lon="20.0454689562320709228515625">
        <ele>2087.800048828125</ele>
        <time>2026-06-15T12:31:21.000Z</time>
        <extensions>
          <ns3:TrackPointExtension>
            <ns3:atemp>19.0</ns3:atemp>
          </ns3:TrackPointExtension>
        </extensions>
      </trkpt>
      <trkpt lat="42.5630885548889636993408203125" lon="20.0454689562320709228515625">
        <ele>2087.800048828125</ele>
        <time>2026-06-15T12:31:22.000Z</time>
        <extensions>
          <ns3:TrackPointExtension>
            <ns3:atemp>19.0</ns3:atemp>
          </ns3:TrackPointExtension>
        </extensions>
      </trkpt>
      <trkpt lat="42.5630885548889636993408203125" lon="20.0454689562320709228515625">
        <ele>2087.800048828125</ele>
        <time>2026-06-15T12:31:23.000Z</time>
        <extensions>
          <ns3:TrackPointExtension>
            <ns3:atemp>19.0</ns3:atemp>
          </ns3:TrackPointExtension>
        </extensions>
      </trkpt>
      <trkpt lat="42.5630885548889636993408203125" lon="20.0454689562320709228515625">
        <ele>2087.800048828125</ele>
        <time>2026-06-15T12:31:24.000Z</time>
        <extensions>
          <ns3:TrackPointExtension>
            <ns3:atemp>19.0</ns3:atemp>
          </ns3:TrackPointExtension>
        </extensions>
      </trkpt>
      <trkpt lat="42.5630885548889636993408203125" lon="20.0454689562320709228515625">
        <ele>2087.800048828125</ele>
        <time>2026-06-15T12:31:25.000Z</time>
        <extensions>
          <ns3:TrackPointExtension>
            <ns3:atemp>19.0</ns3:atemp>
          </ns3:TrackPointExtension>
        </extensions>
      </trkpt>
      <trkpt lat="42.5630885548889636993408203125" lon="20.0454689562320709228515625">
        <ele>2087.800048828125</ele>
        <time>2026-06-15T12:31:26.000Z</time>
        <extensions>
          <ns3:TrackPointExtension>
            <ns3:atemp>19.0</ns3:atemp>
          </ns3:TrackPointExtension>
        </extensions>
      </trkpt>
      <trkpt lat="42.5630885548889636993408203125" lon="20.0454689562320709228515625">
        <ele>2087.800048828125</ele>
        <time>2026-06-15T12:31:27.000Z</time>
        <extensions>
          <ns3:TrackPointExtension>
            <ns3:atemp>19.0</ns3:atemp>
          </ns3:TrackPointExtension>
        </extensions>
      </trkpt>
      <trkpt lat="42.5630885548889636993408203125" lon="20.0454689562320709228515625">
        <ele>2087.800048828125</ele>
        <time>2026-06-15T12:31:28.000Z</time>
        <extensions>
          <ns3:TrackPointExtension>
            <ns3:atemp>19.0</ns3:atemp>
          </ns3:TrackPointExtension>
        </extensions>
      </trkpt>
      <trkpt lat="42.5630885548889636993408203125" lon="20.0454689562320709228515625">
        <ele>2087.800048828125</ele>
        <time>2026-06-15T12:31:29.000Z</time>
        <extensions>
          <ns3:TrackPointExtension>
            <ns3:atemp>19.0</ns3:atemp>
          </ns3:TrackPointExtension>
        </extensions>
      </trkpt>
      <trkpt lat="42.5630885548889636993408203125" lon="20.0454689562320709228515625">
        <ele>2087.800048828125</ele>
        <time>2026-06-15T12:31:30.000Z</time>
        <extensions>
          <ns3:TrackPointExtension>
            <ns3:atemp>19.0</ns3:atemp>
          </ns3:TrackPointExtension>
        </extensions>
      </trkpt>
      <trkpt lat="42.5630885548889636993408203125" lon="20.0454689562320709228515625">
        <ele>2087.800048828125</ele>
        <time>2026-06-15T12:31:31.000Z</time>
        <extensions>
          <ns3:TrackPointExtension>
            <ns3:atemp>19.0</ns3:atemp>
          </ns3:TrackPointExtension>
        </extensions>
      </trkpt>
      <trkpt lat="42.5630885548889636993408203125" lon="20.0454689562320709228515625">
        <ele>2087.800048828125</ele>
        <time>2026-06-15T12:31:32.000Z</time>
        <extensions>
          <ns3:TrackPointExtension>
            <ns3:atemp>19.0</ns3:atemp>
          </ns3:TrackPointExtension>
        </extensions>
      </trkpt>
      <trkpt lat="42.5630885548889636993408203125" lon="20.0454689562320709228515625">
        <ele>2087.800048828125</ele>
        <time>2026-06-15T12:31:33.000Z</time>
        <extensions>
          <ns3:TrackPointExtension>
            <ns3:atemp>19.0</ns3:atemp>
          </ns3:TrackPointExtension>
        </extensions>
      </trkpt>
      <trkpt lat="42.5630885548889636993408203125" lon="20.0454689562320709228515625">
        <ele>2087.800048828125</ele>
        <time>2026-06-15T12:31:34.000Z</time>
        <extensions>
          <ns3:TrackPointExtension>
            <ns3:atemp>19.0</ns3:atemp>
          </ns3:TrackPointExtension>
        </extensions>
      </trkpt>
      <trkpt lat="42.5630885548889636993408203125" lon="20.0454689562320709228515625">
        <ele>2087.800048828125</ele>
        <time>2026-06-15T12:31:35.000Z</time>
        <extensions>
          <ns3:TrackPointExtension>
            <ns3:atemp>19.0</ns3:atemp>
          </ns3:TrackPointExtension>
        </extensions>
      </trkpt>
      <trkpt lat="42.5630885548889636993408203125" lon="20.0454689562320709228515625">
        <ele>2087.800048828125</ele>
        <time>2026-06-15T12:31:36.000Z</time>
        <extensions>
          <ns3:TrackPointExtension>
            <ns3:atemp>19.0</ns3:atemp>
          </ns3:TrackPointExtension>
        </extensions>
      </trkpt>
      <trkpt lat="42.5630885548889636993408203125" lon="20.0454689562320709228515625">
        <ele>2087.800048828125</ele>
        <time>2026-06-15T12:31:37.000Z</time>
        <extensions>
          <ns3:TrackPointExtension>
            <ns3:atemp>19.0</ns3:atemp>
          </ns3:TrackPointExtension>
        </extensions>
      </trkpt>
      <trkpt lat="42.5630885548889636993408203125" lon="20.0454689562320709228515625">
        <ele>2087.800048828125</ele>
        <time>2026-06-15T12:31:38.000Z</time>
        <extensions>
          <ns3:TrackPointExtension>
            <ns3:atemp>19.0</ns3:atemp>
          </ns3:TrackPointExtension>
        </extensions>
      </trkpt>
      <trkpt lat="42.5630885548889636993408203125" lon="20.0454689562320709228515625">
        <ele>2087.800048828125</ele>
        <time>2026-06-15T12:31:39.000Z</time>
        <extensions>
          <ns3:TrackPointExtension>
            <ns3:atemp>19.0</ns3:atemp>
          </ns3:TrackPointExtension>
        </extensions>
      </trkpt>
      <trkpt lat="42.5630885548889636993408203125" lon="20.0454689562320709228515625">
        <ele>2087.800048828125</ele>
        <time>2026-06-15T12:31:40.000Z</time>
        <extensions>
          <ns3:TrackPointExtension>
            <ns3:atemp>19.0</ns3:atemp>
          </ns3:TrackPointExtension>
        </extensions>
      </trkpt>
      <trkpt lat="42.5630885548889636993408203125" lon="20.0454689562320709228515625">
        <ele>2087.800048828125</ele>
        <time>2026-06-15T12:31:41.000Z</time>
        <extensions>
          <ns3:TrackPointExtension>
            <ns3:atemp>19.0</ns3:atemp>
          </ns3:TrackPointExtension>
        </extensions>
      </trkpt>
      <trkpt lat="42.5630885548889636993408203125" lon="20.0454689562320709228515625">
        <ele>2087.800048828125</ele>
        <time>2026-06-15T12:31:42.000Z</time>
        <extensions>
          <ns3:TrackPointExtension>
            <ns3:atemp>19.0</ns3:atemp>
          </ns3:TrackPointExtension>
        </extensions>
      </trkpt>
      <trkpt lat="42.5630885548889636993408203125" lon="20.0454689562320709228515625">
        <ele>2087.800048828125</ele>
        <time>2026-06-15T12:31:43.000Z</time>
        <extensions>
          <ns3:TrackPointExtension>
            <ns3:atemp>19.0</ns3:atemp>
          </ns3:TrackPointExtension>
        </extensions>
      </trkpt>
      <trkpt lat="42.5630885548889636993408203125" lon="20.0454689562320709228515625">
        <ele>2087.800048828125</ele>
        <time>2026-06-15T12:31:44.000Z</time>
        <extensions>
          <ns3:TrackPointExtension>
            <ns3:atemp>19.0</ns3:atemp>
          </ns3:TrackPointExtension>
        </extensions>
      </trkpt>
      <trkpt lat="42.5630885548889636993408203125" lon="20.0454689562320709228515625">
        <ele>2087.800048828125</ele>
        <time>2026-06-15T12:31:45.000Z</time>
        <extensions>
          <ns3:TrackPointExtension>
            <ns3:atemp>19.0</ns3:atemp>
          </ns3:TrackPointExtension>
        </extensions>
      </trkpt>
      <trkpt lat="42.5630885548889636993408203125" lon="20.0454689562320709228515625">
        <ele>2087.800048828125</ele>
        <time>2026-06-15T12:31:46.000Z</time>
        <extensions>
          <ns3:TrackPointExtension>
            <ns3:atemp>19.0</ns3:atemp>
          </ns3:TrackPointExtension>
        </extensions>
      </trkpt>
      <trkpt lat="42.5630885548889636993408203125" lon="20.0454689562320709228515625">
        <ele>2087.800048828125</ele>
        <time>2026-06-15T12:31:47.000Z</time>
        <extensions>
          <ns3:TrackPointExtension>
            <ns3:atemp>19.0</ns3:atemp>
          </ns3:TrackPointExtension>
        </extensions>
      </trkpt>
      <trkpt lat="42.5630885548889636993408203125" lon="20.0454689562320709228515625">
        <ele>2087.800048828125</ele>
        <time>2026-06-15T12:31:48.000Z</time>
        <extensions>
          <ns3:TrackPointExtension>
            <ns3:atemp>19.0</ns3:atemp>
          </ns3:TrackPointExtension>
        </extensions>
      </trkpt>
      <trkpt lat="42.5630885548889636993408203125" lon="20.0454689562320709228515625">
        <ele>2087.800048828125</ele>
        <time>2026-06-15T12:31:49.000Z</time>
        <extensions>
          <ns3:TrackPointExtension>
            <ns3:atemp>19.0</ns3:atemp>
          </ns3:TrackPointExtension>
        </extensions>
      </trkpt>
      <trkpt lat="42.5630885548889636993408203125" lon="20.0454689562320709228515625">
        <ele>2087.800048828125</ele>
        <time>2026-06-15T12:31:50.000Z</time>
        <extensions>
          <ns3:TrackPointExtension>
            <ns3:atemp>19.0</ns3:atemp>
          </ns3:TrackPointExtension>
        </extensions>
      </trkpt>
      <trkpt lat="42.5630885548889636993408203125" lon="20.0454689562320709228515625">
        <ele>2087.800048828125</ele>
        <time>2026-06-15T12:31:51.000Z</time>
        <extensions>
          <ns3:TrackPointExtension>
            <ns3:atemp>19.0</ns3:atemp>
          </ns3:TrackPointExtension>
        </extensions>
      </trkpt>
      <trkpt lat="42.5630885548889636993408203125" lon="20.0454689562320709228515625">
        <ele>2087.800048828125</ele>
        <time>2026-06-15T12:31:52.000Z</time>
        <extensions>
          <ns3:TrackPointExtension>
            <ns3:atemp>19.0</ns3:atemp>
          </ns3:TrackPointExtension>
        </extensions>
      </trkpt>
      <trkpt lat="42.5630885548889636993408203125" lon="20.0454689562320709228515625">
        <ele>2087.800048828125</ele>
        <time>2026-06-15T12:31:53.000Z</time>
        <extensions>
          <ns3:TrackPointExtension>
            <ns3:atemp>19.0</ns3:atemp>
          </ns3:TrackPointExtension>
        </extensions>
      </trkpt>
      <trkpt lat="42.5630885548889636993408203125" lon="20.0454689562320709228515625">
        <ele>2087.800048828125</ele>
        <time>2026-06-15T12:31:54.000Z</time>
        <extensions>
          <ns3:TrackPointExtension>
            <ns3:atemp>19.0</ns3:atemp>
          </ns3:TrackPointExtension>
        </extensions>
      </trkpt>
      <trkpt lat="42.5630885548889636993408203125" lon="20.0454689562320709228515625">
        <ele>2087.800048828125</ele>
        <time>2026-06-15T12:31:55.000Z</time>
        <extensions>
          <ns3:TrackPointExtension>
            <ns3:atemp>19.0</ns3:atemp>
          </ns3:TrackPointExtension>
        </extensions>
      </trkpt>
      <trkpt lat="42.5630885548889636993408203125" lon="20.0454689562320709228515625">
        <ele>2087.800048828125</ele>
        <time>2026-06-15T12:31:56.000Z</time>
        <extensions>
          <ns3:TrackPointExtension>
            <ns3:atemp>19.0</ns3:atemp>
          </ns3:TrackPointExtension>
        </extensions>
      </trkpt>
      <trkpt lat="42.5630885548889636993408203125" lon="20.0454689562320709228515625">
        <ele>2087.800048828125</ele>
        <time>2026-06-15T12:31:57.000Z</time>
        <extensions>
          <ns3:TrackPointExtension>
            <ns3:atemp>19.0</ns3:atemp>
          </ns3:TrackPointExtension>
        </extensions>
      </trkpt>
      <trkpt lat="42.5630885548889636993408203125" lon="20.0454689562320709228515625">
        <ele>2087.800048828125</ele>
        <time>2026-06-15T12:31:58.000Z</time>
        <extensions>
          <ns3:TrackPointExtension>
            <ns3:atemp>19.0</ns3:atemp>
          </ns3:TrackPointExtension>
        </extensions>
      </trkpt>
      <trkpt lat="42.5630885548889636993408203125" lon="20.0454689562320709228515625">
        <ele>2087.800048828125</ele>
        <time>2026-06-15T12:31:59.000Z</time>
        <extensions>
          <ns3:TrackPointExtension>
            <ns3:atemp>19.0</ns3:atemp>
          </ns3:TrackPointExtension>
        </extensions>
      </trkpt>
      <trkpt lat="42.5630885548889636993408203125" lon="20.0454689562320709228515625">
        <ele>2087.800048828125</ele>
        <time>2026-06-15T12:32:00.000Z</time>
        <extensions>
          <ns3:TrackPointExtension>
            <ns3:atemp>19.0</ns3:atemp>
          </ns3:TrackPointExtension>
        </extensions>
      </trkpt>
      <trkpt lat="42.5630885548889636993408203125" lon="20.0454689562320709228515625">
        <ele>2087.800048828125</ele>
        <time>2026-06-15T12:32:01.000Z</time>
        <extensions>
          <ns3:TrackPointExtension>
            <ns3:atemp>19.0</ns3:atemp>
          </ns3:TrackPointExtension>
        </extensions>
      </trkpt>
      <trkpt lat="42.5630885548889636993408203125" lon="20.0454689562320709228515625">
        <ele>2087.800048828125</ele>
        <time>2026-06-15T12:32:02.000Z</time>
        <extensions>
          <ns3:TrackPointExtension>
            <ns3:atemp>19.0</ns3:atemp>
          </ns3:TrackPointExtension>
        </extensions>
      </trkpt>
      <trkpt lat="42.5630885548889636993408203125" lon="20.0454689562320709228515625">
        <ele>2087.800048828125</ele>
        <time>2026-06-15T12:32:03.000Z</time>
        <extensions>
          <ns3:TrackPointExtension>
            <ns3:atemp>19.0</ns3:atemp>
          </ns3:TrackPointExtension>
        </extensions>
      </trkpt>
      <trkpt lat="42.5630885548889636993408203125" lon="20.0454689562320709228515625">
        <ele>2087.800048828125</ele>
        <time>2026-06-15T12:32:04.000Z</time>
        <extensions>
          <ns3:TrackPointExtension>
            <ns3:atemp>19.0</ns3:atemp>
          </ns3:TrackPointExtension>
        </extensions>
      </trkpt>
      <trkpt lat="42.5630885548889636993408203125" lon="20.0454689562320709228515625">
        <ele>2087.800048828125</ele>
        <time>2026-06-15T12:32:05.000Z</time>
        <extensions>
          <ns3:TrackPointExtension>
            <ns3:atemp>19.0</ns3:atemp>
          </ns3:TrackPointExtension>
        </extensions>
      </trkpt>
      <trkpt lat="42.5630885548889636993408203125" lon="20.0454689562320709228515625">
        <ele>2087.800048828125</ele>
        <time>2026-06-15T12:32:06.000Z</time>
        <extensions>
          <ns3:TrackPointExtension>
            <ns3:atemp>19.0</ns3:atemp>
          </ns3:TrackPointExtension>
        </extensions>
      </trkpt>
      <trkpt lat="42.5630885548889636993408203125" lon="20.0454689562320709228515625">
        <ele>2087.800048828125</ele>
        <time>2026-06-15T12:32:07.000Z</time>
        <extensions>
          <ns3:TrackPointExtension>
            <ns3:atemp>19.0</ns3:atemp>
          </ns3:TrackPointExtension>
        </extensions>
      </trkpt>
      <trkpt lat="42.5630885548889636993408203125" lon="20.0454689562320709228515625">
        <ele>2087.800048828125</ele>
        <time>2026-06-15T12:32:08.000Z</time>
        <extensions>
          <ns3:TrackPointExtension>
            <ns3:atemp>19.0</ns3:atemp>
          </ns3:TrackPointExtension>
        </extensions>
      </trkpt>
      <trkpt lat="42.5630885548889636993408203125" lon="20.0454689562320709228515625">
        <ele>2087.800048828125</ele>
        <time>2026-06-15T12:32:09.000Z</time>
        <extensions>
          <ns3:TrackPointExtension>
            <ns3:atemp>19.0</ns3:atemp>
          </ns3:TrackPointExtension>
        </extensions>
      </trkpt>
      <trkpt lat="42.5630885548889636993408203125" lon="20.0454689562320709228515625">
        <ele>2087.800048828125</ele>
        <time>2026-06-15T12:32:10.000Z</time>
        <extensions>
          <ns3:TrackPointExtension>
            <ns3:atemp>19.0</ns3:atemp>
          </ns3:TrackPointExtension>
        </extensions>
      </trkpt>
      <trkpt lat="42.5630885548889636993408203125" lon="20.0454689562320709228515625">
        <ele>2087.800048828125</ele>
        <time>2026-06-15T12:32:11.000Z</time>
        <extensions>
          <ns3:TrackPointExtension>
            <ns3:atemp>19.0</ns3:atemp>
          </ns3:TrackPointExtension>
        </extensions>
      </trkpt>
      <trkpt lat="42.5630885548889636993408203125" lon="20.0454689562320709228515625">
        <ele>2087.800048828125</ele>
        <time>2026-06-15T12:32:12.000Z</time>
        <extensions>
          <ns3:TrackPointExtension>
            <ns3:atemp>19.0</ns3:atemp>
          </ns3:TrackPointExtension>
        </extensions>
      </trkpt>
      <trkpt lat="42.5630885548889636993408203125" lon="20.0454689562320709228515625">
        <ele>2087.800048828125</ele>
        <time>2026-06-15T12:32:13.000Z</time>
        <extensions>
          <ns3:TrackPointExtension>
            <ns3:atemp>19.0</ns3:atemp>
          </ns3:TrackPointExtension>
        </extensions>
      </trkpt>
      <trkpt lat="42.5630885548889636993408203125" lon="20.0454689562320709228515625">
        <ele>2087.800048828125</ele>
        <time>2026-06-15T12:32:14.000Z</time>
        <extensions>
          <ns3:TrackPointExtension>
            <ns3:atemp>19.0</ns3:atemp>
          </ns3:TrackPointExtension>
        </extensions>
      </trkpt>
      <trkpt lat="42.5630885548889636993408203125" lon="20.0454689562320709228515625">
        <ele>2087.800048828125</ele>
        <time>2026-06-15T12:32:15.000Z</time>
        <extensions>
          <ns3:TrackPointExtension>
            <ns3:atemp>19.0</ns3:atemp>
          </ns3:TrackPointExtension>
        </extensions>
      </trkpt>
      <trkpt lat="42.5630885548889636993408203125" lon="20.0454689562320709228515625">
        <ele>2087.800048828125</ele>
        <time>2026-06-15T12:32:16.000Z</time>
        <extensions>
          <ns3:TrackPointExtension>
            <ns3:atemp>19.0</ns3:atemp>
          </ns3:TrackPointExtension>
        </extensions>
      </trkpt>
      <trkpt lat="42.5630885548889636993408203125" lon="20.0454689562320709228515625">
        <ele>2087.800048828125</ele>
        <time>2026-06-15T12:32:17.000Z</time>
        <extensions>
          <ns3:TrackPointExtension>
            <ns3:atemp>19.0</ns3:atemp>
          </ns3:TrackPointExtension>
        </extensions>
      </trkpt>
      <trkpt lat="42.5630885548889636993408203125" lon="20.0454689562320709228515625">
        <ele>2087.800048828125</ele>
        <time>2026-06-15T12:32:18.000Z</time>
        <extensions>
          <ns3:TrackPointExtension>
            <ns3:atemp>19.0</ns3:atemp>
          </ns3:TrackPointExtension>
        </extensions>
      </trkpt>
      <trkpt lat="42.5630885548889636993408203125" lon="20.0454689562320709228515625">
        <ele>2087.800048828125</ele>
        <time>2026-06-15T12:32:19.000Z</time>
        <extensions>
          <ns3:TrackPointExtension>
            <ns3:atemp>19.0</ns3:atemp>
          </ns3:TrackPointExtension>
        </extensions>
      </trkpt>
      <trkpt lat="42.5630885548889636993408203125" lon="20.0454689562320709228515625">
        <ele>2087.800048828125</ele>
        <time>2026-06-15T12:32:20.000Z</time>
        <extensions>
          <ns3:TrackPointExtension>
            <ns3:atemp>19.0</ns3:atemp>
          </ns3:TrackPointExtension>
        </extensions>
      </trkpt>
      <trkpt lat="42.5630885548889636993408203125" lon="20.0454689562320709228515625">
        <ele>2087.800048828125</ele>
        <time>2026-06-15T12:32:21.000Z</time>
        <extensions>
          <ns3:TrackPointExtension>
            <ns3:atemp>19.0</ns3:atemp>
          </ns3:TrackPointExtension>
        </extensions>
      </trkpt>
      <trkpt lat="42.5630885548889636993408203125" lon="20.0454689562320709228515625">
        <ele>2087.800048828125</ele>
        <time>2026-06-15T12:32:22.000Z</time>
        <extensions>
          <ns3:TrackPointExtension>
            <ns3:atemp>19.0</ns3:atemp>
          </ns3:TrackPointExtension>
        </extensions>
      </trkpt>
      <trkpt lat="42.5630885548889636993408203125" lon="20.0454689562320709228515625">
        <ele>2087.800048828125</ele>
        <time>2026-06-15T12:32:23.000Z</time>
        <extensions>
          <ns3:TrackPointExtension>
            <ns3:atemp>19.0</ns3:atemp>
          </ns3:TrackPointExtension>
        </extensions>
      </trkpt>
      <trkpt lat="42.5630885548889636993408203125" lon="20.0454689562320709228515625">
        <ele>2087.800048828125</ele>
        <time>2026-06-15T12:32:24.000Z</time>
        <extensions>
          <ns3:TrackPointExtension>
            <ns3:atemp>19.0</ns3:atemp>
          </ns3:TrackPointExtension>
        </extensions>
      </trkpt>
      <trkpt lat="42.5630885548889636993408203125" lon="20.0454689562320709228515625">
        <ele>2087.800048828125</ele>
        <time>2026-06-15T12:32:25.000Z</time>
        <extensions>
          <ns3:TrackPointExtension>
            <ns3:atemp>19.0</ns3:atemp>
          </ns3:TrackPointExtension>
        </extensions>
      </trkpt>
      <trkpt lat="42.5630885548889636993408203125" lon="20.0454689562320709228515625">
        <ele>2087.800048828125</ele>
        <time>2026-06-15T12:32:26.000Z</time>
        <extensions>
          <ns3:TrackPointExtension>
            <ns3:atemp>19.0</ns3:atemp>
          </ns3:TrackPointExtension>
        </extensions>
      </trkpt>
      <trkpt lat="42.5630885548889636993408203125" lon="20.0454689562320709228515625">
        <ele>2087.800048828125</ele>
        <time>2026-06-15T12:32:27.000Z</time>
        <extensions>
          <ns3:TrackPointExtension>
            <ns3:atemp>19.0</ns3:atemp>
          </ns3:TrackPointExtension>
        </extensions>
      </trkpt>
      <trkpt lat="42.5630885548889636993408203125" lon="20.0454689562320709228515625">
        <ele>2087.800048828125</ele>
        <time>2026-06-15T12:32:28.000Z</time>
        <extensions>
          <ns3:TrackPointExtension>
            <ns3:atemp>19.0</ns3:atemp>
          </ns3:TrackPointExtension>
        </extensions>
      </trkpt>
      <trkpt lat="42.5630885548889636993408203125" lon="20.0454689562320709228515625">
        <ele>2087.800048828125</ele>
        <time>2026-06-15T12:32:29.000Z</time>
        <extensions>
          <ns3:TrackPointExtension>
            <ns3:atemp>19.0</ns3:atemp>
          </ns3:TrackPointExtension>
        </extensions>
      </trkpt>
      <trkpt lat="42.5630885548889636993408203125" lon="20.0454689562320709228515625">
        <ele>2087.800048828125</ele>
        <time>2026-06-15T12:32:30.000Z</time>
        <extensions>
          <ns3:TrackPointExtension>
            <ns3:atemp>19.0</ns3:atemp>
          </ns3:TrackPointExtension>
        </extensions>
      </trkpt>
      <trkpt lat="42.5630885548889636993408203125" lon="20.0454689562320709228515625">
        <ele>2087.800048828125</ele>
        <time>2026-06-15T12:32:31.000Z</time>
        <extensions>
          <ns3:TrackPointExtension>
            <ns3:atemp>19.0</ns3:atemp>
          </ns3:TrackPointExtension>
        </extensions>
      </trkpt>
      <trkpt lat="42.5630885548889636993408203125" lon="20.0454689562320709228515625">
        <ele>2087.800048828125</ele>
        <time>2026-06-15T12:32:32.000Z</time>
        <extensions>
          <ns3:TrackPointExtension>
            <ns3:atemp>19.0</ns3:atemp>
          </ns3:TrackPointExtension>
        </extensions>
      </trkpt>
      <trkpt lat="42.5630885548889636993408203125" lon="20.0454689562320709228515625">
        <ele>2087.800048828125</ele>
        <time>2026-06-15T12:32:33.000Z</time>
        <extensions>
          <ns3:TrackPointExtension>
            <ns3:atemp>19.0</ns3:atemp>
          </ns3:TrackPointExtension>
        </extensions>
      </trkpt>
      <trkpt lat="42.5630885548889636993408203125" lon="20.0454689562320709228515625">
        <ele>2087.800048828125</ele>
        <time>2026-06-15T12:32:34.000Z</time>
        <extensions>
          <ns3:TrackPointExtension>
            <ns3:atemp>19.0</ns3:atemp>
          </ns3:TrackPointExtension>
        </extensions>
      </trkpt>
      <trkpt lat="42.5630885548889636993408203125" lon="20.0454689562320709228515625">
        <ele>2087.800048828125</ele>
        <time>2026-06-15T12:32:35.000Z</time>
        <extensions>
          <ns3:TrackPointExtension>
            <ns3:atemp>19.0</ns3:atemp>
          </ns3:TrackPointExtension>
        </extensions>
      </trkpt>
      <trkpt lat="42.5630885548889636993408203125" lon="20.0454689562320709228515625">
        <ele>2087.800048828125</ele>
        <time>2026-06-15T12:32:36.000Z</time>
        <extensions>
          <ns3:TrackPointExtension>
            <ns3:atemp>19.0</ns3:atemp>
          </ns3:TrackPointExtension>
        </extensions>
      </trkpt>
      <trkpt lat="42.5630885548889636993408203125" lon="20.0454689562320709228515625">
        <ele>2087.800048828125</ele>
        <time>2026-06-15T12:32:37.000Z</time>
        <extensions>
          <ns3:TrackPointExtension>
            <ns3:atemp>19.0</ns3:atemp>
          </ns3:TrackPointExtension>
        </extensions>
      </trkpt>
      <trkpt lat="42.5630885548889636993408203125" lon="20.0454689562320709228515625">
        <ele>2087.800048828125</ele>
        <time>2026-06-15T12:32:38.000Z</time>
        <extensions>
          <ns3:TrackPointExtension>
            <ns3:atemp>19.0</ns3:atemp>
          </ns3:TrackPointExtension>
        </extensions>
      </trkpt>
      <trkpt lat="42.5630885548889636993408203125" lon="20.0454689562320709228515625">
        <ele>2087.800048828125</ele>
        <time>2026-06-15T12:32:39.000Z</time>
        <extensions>
          <ns3:TrackPointExtension>
            <ns3:atemp>19.0</ns3:atemp>
          </ns3:TrackPointExtension>
        </extensions>
      </trkpt>
      <trkpt lat="42.5630885548889636993408203125" lon="20.0454689562320709228515625">
        <ele>2087.800048828125</ele>
        <time>2026-06-15T12:32:40.000Z</time>
        <extensions>
          <ns3:TrackPointExtension>
            <ns3:atemp>19.0</ns3:atemp>
          </ns3:TrackPointExtension>
        </extensions>
      </trkpt>
      <trkpt lat="42.5630885548889636993408203125" lon="20.0454689562320709228515625">
        <ele>2087.800048828125</ele>
        <time>2026-06-15T12:32:41.000Z</time>
        <extensions>
          <ns3:TrackPointExtension>
            <ns3:atemp>19.0</ns3:atemp>
          </ns3:TrackPointExtension>
        </extensions>
      </trkpt>
      <trkpt lat="42.5630885548889636993408203125" lon="20.0454689562320709228515625">
        <ele>2087.800048828125</ele>
        <time>2026-06-15T12:32:42.000Z</time>
        <extensions>
          <ns3:TrackPointExtension>
            <ns3:atemp>19.0</ns3:atemp>
          </ns3:TrackPointExtension>
        </extensions>
      </trkpt>
      <trkpt lat="42.5630885548889636993408203125" lon="20.0454689562320709228515625">
        <ele>2087.800048828125</ele>
        <time>2026-06-15T12:32:43.000Z</time>
        <extensions>
          <ns3:TrackPointExtension>
            <ns3:atemp>19.0</ns3:atemp>
          </ns3:TrackPointExtension>
        </extensions>
      </trkpt>
      <trkpt lat="42.5630885548889636993408203125" lon="20.0454689562320709228515625">
        <ele>2087.800048828125</ele>
        <time>2026-06-15T12:32:44.000Z</time>
        <extensions>
          <ns3:TrackPointExtension>
            <ns3:atemp>19.0</ns3:atemp>
          </ns3:TrackPointExtension>
        </extensions>
      </trkpt>
      <trkpt lat="42.5630885548889636993408203125" lon="20.0454689562320709228515625">
        <ele>2087.800048828125</ele>
        <time>2026-06-15T12:32:45.000Z</time>
        <extensions>
          <ns3:TrackPointExtension>
            <ns3:atemp>19.0</ns3:atemp>
          </ns3:TrackPointExtension>
        </extensions>
      </trkpt>
      <trkpt lat="42.5630885548889636993408203125" lon="20.0454689562320709228515625">
        <ele>2087.800048828125</ele>
        <time>2026-06-15T12:32:46.000Z</time>
        <extensions>
          <ns3:TrackPointExtension>
            <ns3:atemp>19.0</ns3:atemp>
          </ns3:TrackPointExtension>
        </extensions>
      </trkpt>
      <trkpt lat="42.5630885548889636993408203125" lon="20.0454689562320709228515625">
        <ele>2087.800048828125</ele>
        <time>2026-06-15T12:32:47.000Z</time>
        <extensions>
          <ns3:TrackPointExtension>
            <ns3:atemp>19.0</ns3:atemp>
          </ns3:TrackPointExtension>
        </extensions>
      </trkpt>
      <trkpt lat="42.5630885548889636993408203125" lon="20.0454689562320709228515625">
        <ele>2087.800048828125</ele>
        <time>2026-06-15T12:32:48.000Z</time>
        <extensions>
          <ns3:TrackPointExtension>
            <ns3:atemp>19.0</ns3:atemp>
          </ns3:TrackPointExtension>
        </extensions>
      </trkpt>
      <trkpt lat="42.5630885548889636993408203125" lon="20.0454689562320709228515625">
        <ele>2087.800048828125</ele>
        <time>2026-06-15T12:32:49.000Z</time>
        <extensions>
          <ns3:TrackPointExtension>
            <ns3:atemp>19.0</ns3:atemp>
          </ns3:TrackPointExtension>
        </extensions>
      </trkpt>
      <trkpt lat="42.5630885548889636993408203125" lon="20.0454689562320709228515625">
        <ele>2087.800048828125</ele>
        <time>2026-06-15T12:32:50.000Z</time>
        <extensions>
          <ns3:TrackPointExtension>
            <ns3:atemp>19.0</ns3:atemp>
          </ns3:TrackPointExtension>
        </extensions>
      </trkpt>
      <trkpt lat="42.5630885548889636993408203125" lon="20.0454689562320709228515625">
        <ele>2087.800048828125</ele>
        <time>2026-06-15T12:32:51.000Z</time>
        <extensions>
          <ns3:TrackPointExtension>
            <ns3:atemp>19.0</ns3:atemp>
          </ns3:TrackPointExtension>
        </extensions>
      </trkpt>
      <trkpt lat="42.5630885548889636993408203125" lon="20.0454689562320709228515625">
        <ele>2087.800048828125</ele>
        <time>2026-06-15T12:32:52.000Z</time>
        <extensions>
          <ns3:TrackPointExtension>
            <ns3:atemp>19.0</ns3:atemp>
          </ns3:TrackPointExtension>
        </extensions>
      </trkpt>
      <trkpt lat="42.5630885548889636993408203125" lon="20.0454689562320709228515625">
        <ele>2087.800048828125</ele>
        <time>2026-06-15T12:32:53.000Z</time>
        <extensions>
          <ns3:TrackPointExtension>
            <ns3:atemp>19.0</ns3:atemp>
          </ns3:TrackPointExtension>
        </extensions>
      </trkpt>
      <trkpt lat="42.563091404736042022705078125" lon="20.0454741530120372772216796875">
        <ele>2087.800048828125</ele>
        <time>2026-06-15T12:32:54.000Z</time>
        <extensions>
          <ns3:TrackPointExtension>
            <ns3:atemp>19.0</ns3:atemp>
          </ns3:TrackPointExtension>
        </extensions>
      </trkpt>
      <trkpt lat="42.56309651769697666168212890625" lon="20.045466609299182891845703125">
        <ele>2087.800048828125</ele>
        <time>2026-06-15T12:32:55.000Z</time>
        <extensions>
          <ns3:TrackPointExtension>
            <ns3:atemp>19.0</ns3:atemp>
          </ns3:TrackPointExtension>
        </extensions>
      </trkpt>
      <trkpt lat="42.5630964338779449462890625" lon="20.0454416312277317047119140625">
        <ele>2087.800048828125</ele>
        <time>2026-06-15T12:32:56.000Z</time>
        <extensions>
          <ns3:TrackPointExtension>
            <ns3:atemp>19.0</ns3:atemp>
          </ns3:TrackPointExtension>
        </extensions>
      </trkpt>
      <trkpt lat="42.5630932487547397613525390625" lon="20.0454067625105381011962890625">
        <ele>2088</ele>
        <time>2026-06-15T12:32:57.000Z</time>
        <extensions>
          <ns3:TrackPointExtension>
            <ns3:atemp>19.0</ns3:atemp>
          </ns3:TrackPointExtension>
        </extensions>
      </trkpt>
      <trkpt lat="42.5630855374038219451904296875" lon="20.04536678083240985870361328125">
        <ele>2087.800048828125</ele>
        <time>2026-06-15T12:32:58.000Z</time>
        <extensions>
          <ns3:TrackPointExtension>
            <ns3:atemp>19.0</ns3:atemp>
          </ns3:TrackPointExtension>
        </extensions>
      </trkpt>
      <trkpt lat="42.56307338364422321319580078125" lon="20.045325458049774169921875">
        <ele>2087.800048828125</ele>
        <time>2026-06-15T12:32:59.000Z</time>
        <extensions>
          <ns3:TrackPointExtension>
            <ns3:atemp>19.0</ns3:atemp>
          </ns3:TrackPointExtension>
        </extensions>
      </trkpt>
      <trkpt lat="42.5630613975226879119873046875" lon="20.045291595160961151123046875">
        <ele>2087.60009765625</ele>
        <time>2026-06-15T12:33:00.000Z</time>
        <extensions>
          <ns3:TrackPointExtension>
            <ns3:atemp>19.0</ns3:atemp>
          </ns3:TrackPointExtension>
        </extensions>
      </trkpt>
      <trkpt lat="42.56305159069597721099853515625" lon="20.04525127820670604705810546875">
        <ele>2087.60009765625</ele>
        <time>2026-06-15T12:33:01.000Z</time>
        <extensions>
          <ns3:TrackPointExtension>
            <ns3:atemp>19.0</ns3:atemp>
          </ns3:TrackPointExtension>
        </extensions>
      </trkpt>
      <trkpt lat="42.5630493275821208953857421875" lon="20.04521003924310207366943359375">
        <ele>2087.39990234375</ele>
        <time>2026-06-15T12:33:02.000Z</time>
        <extensions>
          <ns3:TrackPointExtension>
            <ns3:atemp>19.0</ns3:atemp>
          </ns3:TrackPointExtension>
        </extensions>
      </trkpt>
      <trkpt lat="42.5630419515073299407958984375" lon="20.0451578199863433837890625">
        <ele>2087.199951171875</ele>
        <time>2026-06-15T12:33:03.000Z</time>
        <extensions>
          <ns3:TrackPointExtension>
            <ns3:atemp>19.0</ns3:atemp>
          </ns3:TrackPointExtension>
        </extensions>
      </trkpt>
      <trkpt lat="42.5630369223654270172119140625" lon="20.0451073609292507171630859375">
        <ele>2087</ele>
        <time>2026-06-15T12:33:04.000Z</time>
        <extensions>
          <ns3:TrackPointExtension>
            <ns3:atemp>19.0</ns3:atemp>
          </ns3:TrackPointExtension>
        </extensions>
      </trkpt>
      <trkpt lat="42.56303583271801471710205078125" lon="20.04506419412791728973388671875">
        <ele>2087</ele>
        <time>2026-06-15T12:33:05.000Z</time>
        <extensions>
          <ns3:TrackPointExtension>
            <ns3:atemp>19.0</ns3:atemp>
          </ns3:TrackPointExtension>
        </extensions>
      </trkpt>
      <trkpt lat="42.56303549744188785552978515625" lon="20.04502773284912109375">
        <ele>2086.800048828125</ele>
        <time>2026-06-15T12:33:06.000Z</time>
        <extensions>
          <ns3:TrackPointExtension>
            <ns3:atemp>19.0</ns3:atemp>
          </ns3:TrackPointExtension>
        </extensions>
      </trkpt>
      <trkpt lat="42.56303465925157070159912109375" lon="20.04499462433159351348876953125">
        <ele>2086.39990234375</ele>
        <time>2026-06-15T12:33:07.000Z</time>
        <extensions>
          <ns3:TrackPointExtension>
            <ns3:atemp>19.0</ns3:atemp>
          </ns3:TrackPointExtension>
        </extensions>
      </trkpt>
      <trkpt lat="42.56303633563220500946044921875" lon="20.0449598394334316253662109375">
        <ele>2086.199951171875</ele>
        <time>2026-06-15T12:33:08.000Z</time>
        <extensions>
          <ns3:TrackPointExtension>
            <ns3:atemp>19.0</ns3:atemp>
          </ns3:TrackPointExtension>
        </extensions>
      </trkpt>
      <trkpt lat="42.5630396045744419097900390625" lon="20.04492991603910923004150390625">
        <ele>2085.800048828125</ele>
        <time>2026-06-15T12:33:09.000Z</time>
        <extensions>
          <ns3:TrackPointExtension>
            <ns3:atemp>19.0</ns3:atemp>
          </ns3:TrackPointExtension>
        </extensions>
      </trkpt>
      <trkpt lat="42.56304706446826457977294921875" lon="20.0449028424918651580810546875">
        <ele>2085.39990234375</ele>
        <time>2026-06-15T12:33:10.000Z</time>
        <extensions>
          <ns3:TrackPointExtension>
            <ns3:atemp>19.0</ns3:atemp>
          </ns3:TrackPointExtension>
        </extensions>
      </trkpt>
      <trkpt lat="42.56305041722953319549560546875" lon="20.0448726676404476165771484375">
        <ele>2085</ele>
        <time>2026-06-15T12:33:11.000Z</time>
        <extensions>
          <ns3:TrackPointExtension>
            <ns3:atemp>19.0</ns3:atemp>
          </ns3:TrackPointExtension>
        </extensions>
      </trkpt>
      <trkpt lat="42.5630523450672626495361328125" lon="20.04484626464545726776123046875">
        <ele>2084.800048828125</ele>
        <time>2026-06-15T12:33:12.000Z</time>
        <extensions>
          <ns3:TrackPointExtension>
            <ns3:atemp>19.0</ns3:atemp>
          </ns3:TrackPointExtension>
        </extensions>
      </trkpt>
      <trkpt lat="42.5630570389330387115478515625" lon="20.0448119826614856719970703125">
        <ele>2084.60009765625</ele>
        <time>2026-06-15T12:33:13.000Z</time>
        <extensions>
          <ns3:TrackPointExtension>
            <ns3:atemp>19.0</ns3:atemp>
          </ns3:TrackPointExtension>
        </extensions>
      </trkpt>
      <trkpt lat="42.5630620680749416351318359375" lon="20.0447794608771800994873046875">
        <ele>2084.199951171875</ele>
        <time>2026-06-15T12:33:14.000Z</time>
        <extensions>
          <ns3:TrackPointExtension>
            <ns3:atemp>19.0</ns3:atemp>
          </ns3:TrackPointExtension>
        </extensions>
      </trkpt>
      <trkpt lat="42.56306986324489116668701171875" lon="20.04475213587284088134765625">
        <ele>2084</ele>
        <time>2026-06-15T12:33:15.000Z</time>
        <extensions>
          <ns3:TrackPointExtension>
            <ns3:atemp>19.0</ns3:atemp>
          </ns3:TrackPointExtension>
        </extensions>
      </trkpt>
      <trkpt lat="42.56307573057711124420166015625" lon="20.04472891800105571746826171875">
        <ele>2083.800048828125</ele>
        <time>2026-06-15T12:33:16.000Z</time>
        <extensions>
          <ns3:TrackPointExtension>
            <ns3:atemp>19.0</ns3:atemp>
          </ns3:TrackPointExtension>
        </extensions>
      </trkpt>
      <trkpt lat="42.56308159790933132171630859375" lon="20.04471064545214176177978515625">
        <ele>2083.60009765625</ele>
        <time>2026-06-15T12:33:17.000Z</time>
        <extensions>
          <ns3:TrackPointExtension>
            <ns3:atemp>19.0</ns3:atemp>
          </ns3:TrackPointExtension>
        </extensions>
      </trkpt>
      <trkpt lat="42.56308360956609249114990234375" lon="20.044692121446132659912109375">
        <ele>2083.39990234375</ele>
        <time>2026-06-15T12:33:18.000Z</time>
        <extensions>
          <ns3:TrackPointExtension>
            <ns3:atemp>19.0</ns3:atemp>
          </ns3:TrackPointExtension>
        </extensions>
      </trkpt>
      <trkpt lat="42.5630868785083293914794921875" lon="20.04467376507818698883056640625">
        <ele>2083</ele>
        <time>2026-06-15T12:33:19.000Z</time>
        <extensions>
          <ns3:TrackPointExtension>
            <ns3:atemp>19.0</ns3:atemp>
          </ns3:TrackPointExtension>
        </extensions>
      </trkpt>
      <trkpt lat="42.5630830228328704833984375" lon="20.04464509896934032440185546875">
        <ele>2082.800048828125</ele>
        <time>2026-06-15T12:33:20.000Z</time>
        <extensions>
          <ns3:TrackPointExtension>
            <ns3:atemp>19.0</ns3:atemp>
          </ns3:TrackPointExtension>
        </extensions>
      </trkpt>
      <trkpt lat="42.56307707168161869049072265625" lon="20.04461475647985935211181640625">
        <ele>2082.60009765625</ele>
        <time>2026-06-15T12:33:21.000Z</time>
        <extensions>
          <ns3:TrackPointExtension>
            <ns3:atemp>19.0</ns3:atemp>
          </ns3:TrackPointExtension>
        </extensions>
      </trkpt>
      <trkpt lat="42.56308143027126789093017578125" lon="20.0445886887609958648681640625">
        <ele>2082.39990234375</ele>
        <time>2026-06-15T12:33:22.000Z</time>
        <extensions>
          <ns3:TrackPointExtension>
            <ns3:atemp>19.0</ns3:atemp>
          </ns3:TrackPointExtension>
        </extensions>
      </trkpt>
      <trkpt lat="42.5630845315754413604736328125" lon="20.04456379450857639312744140625">
        <ele>2082.199951171875</ele>
        <time>2026-06-15T12:33:23.000Z</time>
        <extensions>
          <ns3:TrackPointExtension>
            <ns3:atemp>19.0</ns3:atemp>
          </ns3:TrackPointExtension>
        </extensions>
      </trkpt>
      <trkpt lat="42.56309048272669315338134765625" lon="20.0445397384464740753173828125">
        <ele>2082.199951171875</ele>
        <time>2026-06-15T12:33:24.000Z</time>
        <extensions>
          <ns3:TrackPointExtension>
            <ns3:atemp>19.0</ns3:atemp>
          </ns3:TrackPointExtension>
        </extensions>
      </trkpt>
      <trkpt lat="42.56309844553470611572265625" lon="20.0445162691175937652587890625">
        <ele>2082</ele>
        <time>2026-06-15T12:33:25.000Z</time>
        <extensions>
          <ns3:TrackPointExtension>
            <ns3:atemp>19.0</ns3:atemp>
          </ns3:TrackPointExtension>
        </extensions>
      </trkpt>
      <trkpt lat="42.56311227567493915557861328125" lon="20.0444857589900493621826171875">
        <ele>2081.800048828125</ele>
        <time>2026-06-15T12:33:26.000Z</time>
        <extensions>
          <ns3:TrackPointExtension>
            <ns3:atemp>19.0</ns3:atemp>
          </ns3:TrackPointExtension>
        </extensions>
      </trkpt>
      <trkpt lat="42.56312753073871135711669921875" lon="20.04445516504347324371337890625">
        <ele>2081.60009765625</ele>
        <time>2026-06-15T12:33:27.000Z</time>
        <extensions>
          <ns3:TrackPointExtension>
            <ns3:atemp>19.0</ns3:atemp>
          </ns3:TrackPointExtension>
        </extensions>
      </trkpt>
      <trkpt lat="42.5631401874125003814697265625" lon="20.044424235820770263671875">
        <ele>2081.39990234375</ele>
        <time>2026-06-15T12:33:28.000Z</time>
        <extensions>
          <ns3:TrackPointExtension>
            <ns3:atemp>19.0</ns3:atemp>
          </ns3:TrackPointExtension>
        </extensions>
      </trkpt>
      <trkpt lat="42.5631552748382091522216796875" lon="20.0443933904170989990234375">
        <ele>2081.199951171875</ele>
        <time>2026-06-15T12:33:29.000Z</time>
        <extensions>
          <ns3:TrackPointExtension>
            <ns3:atemp>19.0</ns3:atemp>
          </ns3:TrackPointExtension>
        </extensions>
      </trkpt>
      <trkpt lat="42.56316692568361759185791015625" lon="20.044378302991390228271484375">
        <ele>2081</ele>
        <time>2026-06-15T12:33:30.000Z</time>
        <extensions>
          <ns3:TrackPointExtension>
            <ns3:atemp>19.0</ns3:atemp>
          </ns3:TrackPointExtension>
        </extensions>
      </trkpt>
      <trkpt lat="42.56317312829196453094482421875" lon="20.0443674065172672271728515625">
        <ele>2080.800048828125</ele>
        <time>2026-06-15T12:33:31.000Z</time>
        <extensions>
          <ns3:TrackPointExtension>
            <ns3:atemp>19.0</ns3:atemp>
          </ns3:TrackPointExtension>
        </extensions>
      </trkpt>
      <trkpt lat="42.563176564872264862060546875" lon="20.0443610362708568572998046875">
        <ele>2080.60009765625</ele>
        <time>2026-06-15T12:33:32.000Z</time>
        <extensions>
          <ns3:TrackPointExtension>
            <ns3:atemp>19.0</ns3:atemp>
          </ns3:TrackPointExtension>
        </extensions>
      </trkpt>
      <trkpt lat="42.56317949853837490081787109375" lon="20.04435718059539794921875">
        <ele>2080.39990234375</ele>
        <time>2026-06-15T12:33:33.000Z</time>
        <extensions>
          <ns3:TrackPointExtension>
            <ns3:atemp>19.0</ns3:atemp>
          </ns3:TrackPointExtension>
        </extensions>
      </trkpt>
      <trkpt lat="42.5631797499954700469970703125" lon="20.04435718059539794921875">
        <ele>2080.39990234375</ele>
        <time>2026-06-15T12:33:34.000Z</time>
        <extensions>
          <ns3:TrackPointExtension>
            <ns3:atemp>19.0</ns3:atemp>
          </ns3:TrackPointExtension>
        </extensions>
      </trkpt>
      <trkpt lat="42.5631797499954700469970703125" lon="20.04435718059539794921875">
        <ele>2080.199951171875</ele>
        <time>2026-06-15T12:33:35.000Z</time>
        <extensions>
          <ns3:TrackPointExtension>
            <ns3:atemp>19.0</ns3:atemp>
          </ns3:TrackPointExtension>
        </extensions>
      </trkpt>
      <trkpt lat="42.5631797499954700469970703125" lon="20.04435718059539794921875">
        <ele>2080.199951171875</ele>
        <time>2026-06-15T12:33:36.000Z</time>
        <extensions>
          <ns3:TrackPointExtension>
            <ns3:atemp>19.0</ns3:atemp>
          </ns3:TrackPointExtension>
        </extensions>
      </trkpt>
      <trkpt lat="42.56318050436675548553466796875" lon="20.04435726441442966461181640625">
        <ele>2080.199951171875</ele>
        <time>2026-06-15T12:33:37.000Z</time>
        <extensions>
          <ns3:TrackPointExtension>
            <ns3:atemp>19.0</ns3:atemp>
          </ns3:TrackPointExtension>
        </extensions>
      </trkpt>
      <trkpt lat="42.56319257430732250213623046875" lon="20.04434754140675067901611328125">
        <ele>2080.199951171875</ele>
        <time>2026-06-15T12:33:38.000Z</time>
        <extensions>
          <ns3:TrackPointExtension>
            <ns3:atemp>19.0</ns3:atemp>
          </ns3:TrackPointExtension>
        </extensions>
      </trkpt>
      <trkpt lat="42.56318922154605388641357421875" lon="20.0443254970014095306396484375">
        <ele>2080</ele>
        <time>2026-06-15T12:33:39.000Z</time>
        <extensions>
          <ns3:TrackPointExtension>
            <ns3:atemp>19.0</ns3:atemp>
          </ns3:TrackPointExtension>
        </extensions>
      </trkpt>
      <trkpt lat="42.56318469531834125518798828125" lon="20.04432138986885547637939453125">
        <ele>2080</ele>
        <time>2026-06-15T12:33:40.000Z</time>
        <extensions>
          <ns3:TrackPointExtension>
            <ns3:atemp>19.0</ns3:atemp>
          </ns3:TrackPointExtension>
        </extensions>
      </trkpt>
      <trkpt lat="42.5631844438612461090087890625" lon="20.044321306049823760986328125">
        <ele>2080</ele>
        <time>2026-06-15T12:33:41.000Z</time>
        <extensions>
          <ns3:TrackPointExtension>
            <ns3:atemp>19.0</ns3:atemp>
          </ns3:TrackPointExtension>
        </extensions>
      </trkpt>
      <trkpt lat="42.5631713680922985076904296875" lon="20.0443208031356334686279296875">
        <ele>2080</ele>
        <time>2026-06-15T12:33:42.000Z</time>
        <extensions>
          <ns3:TrackPointExtension>
            <ns3:atemp>19.0</ns3:atemp>
          </ns3:TrackPointExtension>
        </extensions>
      </trkpt>
      <trkpt lat="42.563164494931697845458984375" lon="20.0443211384117603302001953125">
        <ele>2080</ele>
        <time>2026-06-15T12:33:43.000Z</time>
        <extensions>
          <ns3:TrackPointExtension>
            <ns3:atemp>18.0</ns3:atemp>
          </ns3:TrackPointExtension>
        </extensions>
      </trkpt>
      <trkpt lat="42.56316156126558780670166015625" lon="20.04432340152561664581298828125">
        <ele>2080</ele>
        <time>2026-06-15T12:33:44.000Z</time>
        <extensions>
          <ns3:TrackPointExtension>
            <ns3:atemp>19.0</ns3:atemp>
          </ns3:TrackPointExtension>
        </extensions>
      </trkpt>
      <trkpt lat="42.56315586157143115997314453125" lon="20.0443258322775363922119140625">
        <ele>2080</ele>
        <time>2026-06-15T12:33:45.000Z</time>
        <extensions>
          <ns3:TrackPointExtension>
            <ns3:atemp>19.0</ns3:atemp>
          </ns3:TrackPointExtension>
        </extensions>
      </trkpt>
      <trkpt lat="42.56315267644822597503662109375" lon="20.04433060996234416961669921875">
        <ele>2080</ele>
        <time>2026-06-15T12:33:46.000Z</time>
        <extensions>
          <ns3:TrackPointExtension>
            <ns3:atemp>18.0</ns3:atemp>
          </ns3:TrackPointExtension>
        </extensions>
      </trkpt>
      <trkpt lat="42.5631532631814479827880859375" lon="20.04433731548488140106201171875">
        <ele>2080</ele>
        <time>2026-06-15T12:33:47.000Z</time>
        <extensions>
          <ns3:TrackPointExtension>
            <ns3:atemp>18.0</ns3:atemp>
          </ns3:TrackPointExtension>
        </extensions>
      </trkpt>
      <trkpt lat="42.56314815022051334381103515625" lon="20.04434972070157527923583984375">
        <ele>2080</ele>
        <time>2026-06-15T12:33:48.000Z</time>
        <extensions>
          <ns3:TrackPointExtension>
            <ns3:atemp>18.0</ns3:atemp>
          </ns3:TrackPointExtension>
        </extensions>
      </trkpt>
      <trkpt lat="42.56313943304121494293212890625" lon="20.0443744473159313201904296875">
        <ele>2080</ele>
        <time>2026-06-15T12:33:49.000Z</time>
        <extensions>
          <ns3:TrackPointExtension>
            <ns3:atemp>18.0</ns3:atemp>
          </ns3:TrackPointExtension>
        </extensions>
      </trkpt>
      <trkpt lat="42.56312786601483821868896484375" lon="20.04440478980541229248046875">
        <ele>2080</ele>
        <time>2026-06-15T12:33:50.000Z</time>
        <extensions>
          <ns3:TrackPointExtension>
            <ns3:atemp>18.0</ns3:atemp>
          </ns3:TrackPointExtension>
        </extensions>
      </trkpt>
      <trkpt lat="42.56311864592134952545166015625" lon="20.04443521611392498016357421875">
        <ele>2080</ele>
        <time>2026-06-15T12:33:51.000Z</time>
        <extensions>
          <ns3:TrackPointExtension>
            <ns3:atemp>18.0</ns3:atemp>
          </ns3:TrackPointExtension>
        </extensions>
      </trkpt>
      <trkpt lat="42.56310959346592426300048828125" lon="20.04447226412594318389892578125">
        <ele>2080.199951171875</ele>
        <time>2026-06-15T12:33:52.000Z</time>
        <extensions>
          <ns3:TrackPointExtension>
            <ns3:atemp>18.0</ns3:atemp>
          </ns3:TrackPointExtension>
        </extensions>
      </trkpt>
      <trkpt lat="42.5630996190011501312255859375" lon="20.04451367072761058807373046875">
        <ele>2080.199951171875</ele>
        <time>2026-06-15T12:33:53.000Z</time>
        <extensions>
          <ns3:TrackPointExtension>
            <ns3:atemp>18.0</ns3:atemp>
          </ns3:TrackPointExtension>
        </extensions>
      </trkpt>
      <trkpt lat="42.563087381422519683837890625" lon="20.0445558317005634307861328125">
        <ele>2080.39990234375</ele>
        <time>2026-06-15T12:33:54.000Z</time>
        <extensions>
          <ns3:TrackPointExtension>
            <ns3:atemp>18.0</ns3:atemp>
          </ns3:TrackPointExtension>
        </extensions>
      </trkpt>
      <trkpt lat="42.56308444775640964508056640625" lon="20.044601596891880035400390625">
        <ele>2080.800048828125</ele>
        <time>2026-06-15T12:33:55.000Z</time>
        <extensions>
          <ns3:TrackPointExtension>
            <ns3:atemp>18.0</ns3:atemp>
          </ns3:TrackPointExtension>
        </extensions>
      </trkpt>
      <trkpt lat="42.56308637559413909912109375" lon="20.04464426077902317047119140625">
        <ele>2081</ele>
        <time>2026-06-15T12:33:56.000Z</time>
        <extensions>
          <ns3:TrackPointExtension>
            <ns3:atemp>18.0</ns3:atemp>
          </ns3:TrackPointExtension>
        </extensions>
      </trkpt>
      <trkpt lat="42.56308394484221935272216796875" lon="20.0446879304945468902587890625">
        <ele>2081.199951171875</ele>
        <time>2026-06-15T12:33:57.000Z</time>
        <extensions>
          <ns3:TrackPointExtension>
            <ns3:atemp>18.0</ns3:atemp>
          </ns3:TrackPointExtension>
        </extensions>
      </trkpt>
      <trkpt lat="42.56307975389063358306884765625" lon="20.0447338633239269256591796875">
        <ele>2081.39990234375</ele>
        <time>2026-06-15T12:33:58.000Z</time>
        <extensions>
          <ns3:TrackPointExtension>
            <ns3:atemp>18.0</ns3:atemp>
          </ns3:TrackPointExtension>
        </extensions>
      </trkpt>
      <trkpt lat="42.56307254545390605926513671875" lon="20.04477937705814838409423828125">
        <ele>2081.60009765625</ele>
        <time>2026-06-15T12:33:59.000Z</time>
        <extensions>
          <ns3:TrackPointExtension>
            <ns3:atemp>18.0</ns3:atemp>
          </ns3:TrackPointExtension>
        </extensions>
      </trkpt>
      <trkpt lat="42.56306500174105167388916015625" lon="20.0448206998407840728759765625">
        <ele>2081.60009765625</ele>
        <time>2026-06-15T12:34:00.000Z</time>
        <extensions>
          <ns3:TrackPointExtension>
            <ns3:atemp>18.0</ns3:atemp>
          </ns3:TrackPointExtension>
        </extensions>
      </trkpt>
      <trkpt lat="42.5630587153136730194091796875" lon="20.044861100614070892333984375">
        <ele>2081.800048828125</ele>
        <time>2026-06-15T12:34:01.000Z</time>
        <extensions>
          <ns3:TrackPointExtension>
            <ns3:atemp>18.0</ns3:atemp>
          </ns3:TrackPointExtension>
        </extensions>
      </trkpt>
      <trkpt lat="42.5630516745150089263916015625" lon="20.04489898681640625">
        <ele>2082</ele>
        <time>2026-06-15T12:34:02.000Z</time>
        <extensions>
          <ns3:TrackPointExtension>
            <ns3:atemp>18.0</ns3:atemp>
          </ns3:TrackPointExtension>
        </extensions>
      </trkpt>
      <trkpt lat="42.5630426220595836639404296875" lon="20.0449336878955364227294921875">
        <ele>2082.199951171875</ele>
        <time>2026-06-15T12:34:03.000Z</time>
        <extensions>
          <ns3:TrackPointExtension>
            <ns3:atemp>18.0</ns3:atemp>
          </ns3:TrackPointExtension>
        </extensions>
      </trkpt>
      <trkpt lat="42.56303365342319011688232421875" lon="20.044961683452129364013671875">
        <ele>2082.39990234375</ele>
        <time>2026-06-15T12:34:04.000Z</time>
        <extensions>
          <ns3:TrackPointExtension>
            <ns3:atemp>18.0</ns3:atemp>
          </ns3:TrackPointExtension>
        </extensions>
      </trkpt>
      <trkpt lat="42.5630251877009868621826171875" lon="20.0449839793145656585693359375">
        <ele>2082.60009765625</ele>
        <time>2026-06-15T12:34:05.000Z</time>
        <extensions>
          <ns3:TrackPointExtension>
            <ns3:atemp>18.0</ns3:atemp>
          </ns3:TrackPointExtension>
        </extensions>
      </trkpt>
      <trkpt lat="42.56302124820649623870849609375" lon="20.04501071758568286895751953125">
        <ele>2083</ele>
        <time>2026-06-15T12:34:06.000Z</time>
        <extensions>
          <ns3:TrackPointExtension>
            <ns3:atemp>18.0</ns3:atemp>
          </ns3:TrackPointExtension>
        </extensions>
      </trkpt>
      <trkpt lat="42.5630199909210205078125" lon="20.04503485746681690216064453125">
        <ele>2083.39990234375</ele>
        <time>2026-06-15T12:34:07.000Z</time>
        <extensions>
          <ns3:TrackPointExtension>
            <ns3:atemp>18.0</ns3:atemp>
          </ns3:TrackPointExtension>
        </extensions>
      </trkpt>
      <trkpt lat="42.5630221702158451080322265625" lon="20.04506167955696582794189453125">
        <ele>2083.800048828125</ele>
        <time>2026-06-15T12:34:08.000Z</time>
        <extensions>
          <ns3:TrackPointExtension>
            <ns3:atemp>18.0</ns3:atemp>
          </ns3:TrackPointExtension>
        </extensions>
      </trkpt>
      <trkpt lat="42.56302644498646259307861328125" lon="20.04509118385612964630126953125">
        <ele>2084.199951171875</ele>
        <time>2026-06-15T12:34:09.000Z</time>
        <extensions>
          <ns3:TrackPointExtension>
            <ns3:atemp>18.0</ns3:atemp>
          </ns3:TrackPointExtension>
        </extensions>
      </trkpt>
      <trkpt lat="42.56302946247160434722900390625" lon="20.0451140664517879486083984375">
        <ele>2084.60009765625</ele>
        <time>2026-06-15T12:34:10.000Z</time>
        <extensions>
          <ns3:TrackPointExtension>
            <ns3:atemp>18.0</ns3:atemp>
          </ns3:TrackPointExtension>
        </extensions>
      </trkpt>
      <trkpt lat="42.56303281523287296295166015625" lon="20.04514566622674465179443359375">
        <ele>2085</ele>
        <time>2026-06-15T12:34:11.000Z</time>
        <extensions>
          <ns3:TrackPointExtension>
            <ns3:atemp>18.0</ns3:atemp>
          </ns3:TrackPointExtension>
        </extensions>
      </trkpt>
      <trkpt lat="42.56303315050899982452392578125" lon="20.04517617635428905487060546875">
        <ele>2085.199951171875</ele>
        <time>2026-06-15T12:34:12.000Z</time>
        <extensions>
          <ns3:TrackPointExtension>
            <ns3:atemp>18.0</ns3:atemp>
          </ns3:TrackPointExtension>
        </extensions>
      </trkpt>
      <trkpt lat="42.56303616799414157867431640625" lon="20.04520232789218425750732421875">
        <ele>2085.39990234375</ele>
        <time>2026-06-15T12:34:13.000Z</time>
        <extensions>
          <ns3:TrackPointExtension>
            <ns3:atemp>18.0</ns3:atemp>
          </ns3:TrackPointExtension>
        </extensions>
      </trkpt>
      <trkpt lat="42.5630382634699344635009765625" lon="20.04522554576396942138671875">
        <ele>2085.60009765625</ele>
        <time>2026-06-15T12:34:14.000Z</time>
        <extensions>
          <ns3:TrackPointExtension>
            <ns3:atemp>18.0</ns3:atemp>
          </ns3:TrackPointExtension>
        </extensions>
      </trkpt>
      <trkpt lat="42.56304170005023479461669921875" lon="20.04524306394159793853759765625">
        <ele>2085.800048828125</ele>
        <time>2026-06-15T12:34:15.000Z</time>
        <extensions>
          <ns3:TrackPointExtension>
            <ns3:atemp>18.0</ns3:atemp>
          </ns3:TrackPointExtension>
        </extensions>
      </trkpt>
      <trkpt lat="42.563044130802154541015625" lon="20.04525840282440185546875">
        <ele>2086.199951171875</ele>
        <time>2026-06-15T12:34:16.000Z</time>
        <extensions>
          <ns3:TrackPointExtension>
            <ns3:atemp>18.0</ns3:atemp>
          </ns3:TrackPointExtension>
        </extensions>
      </trkpt>
      <trkpt lat="42.563049159944057464599609375" lon="20.04527508281171321868896484375">
        <ele>2086.199951171875</ele>
        <time>2026-06-15T12:34:17.000Z</time>
        <extensions>
          <ns3:TrackPointExtension>
            <ns3:atemp>18.0</ns3:atemp>
          </ns3:TrackPointExtension>
        </extensions>
      </trkpt>
      <trkpt lat="42.56305829621851444244384765625" lon="20.04528698511421680450439453125">
        <ele>2086.39990234375</ele>
        <time>2026-06-15T12:34:18.000Z</time>
        <extensions>
          <ns3:TrackPointExtension>
            <ns3:atemp>18.0</ns3:atemp>
          </ns3:TrackPointExtension>
        </extensions>
      </trkpt>
      <trkpt lat="42.5630634091794490814208984375" lon="20.04530509002506732940673828125">
        <ele>2086.60009765625</ele>
        <time>2026-06-15T12:34:19.000Z</time>
        <extensions>
          <ns3:TrackPointExtension>
            <ns3:atemp>18.0</ns3:atemp>
          </ns3:TrackPointExtension>
        </extensions>
      </trkpt>
      <trkpt lat="42.5630654208362102508544921875" lon="20.0453259609639644622802734375">
        <ele>2086.60009765625</ele>
        <time>2026-06-15T12:34:20.000Z</time>
        <extensions>
          <ns3:TrackPointExtension>
            <ns3:atemp>18.0</ns3:atemp>
          </ns3:TrackPointExtension>
        </extensions>
      </trkpt>
      <trkpt lat="42.56306894123554229736328125" lon="20.045364685356616973876953125">
        <ele>2086.60009765625</ele>
        <time>2026-06-15T12:34:21.000Z</time>
        <extensions>
          <ns3:TrackPointExtension>
            <ns3:atemp>18.0</ns3:atemp>
          </ns3:TrackPointExtension>
        </extensions>
      </trkpt>
      <trkpt lat="42.56306131370365619659423828125" lon="20.0453963689506053924560546875">
        <ele>2086.60009765625</ele>
        <time>2026-06-15T12:34:22.000Z</time>
        <extensions>
          <ns3:TrackPointExtension>
            <ns3:atemp>18.0</ns3:atemp>
          </ns3:TrackPointExtension>
        </extensions>
      </trkpt>
      <trkpt lat="42.5630687735974788665771484375" lon="20.0454225204885005950927734375">
        <ele>2086.60009765625</ele>
        <time>2026-06-15T12:34:23.000Z</time>
        <extensions>
          <ns3:TrackPointExtension>
            <ns3:atemp>18.0</ns3:atemp>
          </ns3:TrackPointExtension>
        </extensions>
      </trkpt>
      <trkpt lat="42.56308612413704395294189453125" lon="20.04543132148683071136474609375">
        <ele>2086.60009765625</ele>
        <time>2026-06-15T12:34:24.000Z</time>
        <extensions>
          <ns3:TrackPointExtension>
            <ns3:atemp>18.0</ns3:atemp>
          </ns3:TrackPointExtension>
        </extensions>
      </trkpt>
      <trkpt lat="42.56309249438345432281494140625" lon="20.0454258732497692108154296875">
        <ele>2086.60009765625</ele>
        <time>2026-06-15T12:34:25.000Z</time>
        <extensions>
          <ns3:TrackPointExtension>
            <ns3:atemp>18.0</ns3:atemp>
          </ns3:TrackPointExtension>
        </extensions>
      </trkpt>
      <trkpt lat="42.56310045719146728515625" lon="20.0453990511596202850341796875">
        <ele>2086.60009765625</ele>
        <time>2026-06-15T12:34:26.000Z</time>
        <extensions>
          <ns3:TrackPointExtension>
            <ns3:atemp>18.0</ns3:atemp>
          </ns3:TrackPointExtension>
        </extensions>
      </trkpt>
      <trkpt lat="42.56309685297310352325439453125" lon="20.04538170062005519866943359375">
        <ele>2086.60009765625</ele>
        <time>2026-06-15T12:34:27.000Z</time>
        <extensions>
          <ns3:TrackPointExtension>
            <ns3:atemp>18.0</ns3:atemp>
          </ns3:TrackPointExtension>
        </extensions>
      </trkpt>
      <trkpt lat="42.563087046146392822265625" lon="20.04536376334726810455322265625">
        <ele>2086.60009765625</ele>
        <time>2026-06-15T12:34:28.000Z</time>
        <extensions>
          <ns3:TrackPointExtension>
            <ns3:atemp>18.0</ns3:atemp>
          </ns3:TrackPointExtension>
        </extensions>
      </trkpt>
      <trkpt lat="42.5630828551948070526123046875" lon="20.04535554908215999603271484375">
        <ele>2086.39990234375</ele>
        <time>2026-06-15T12:34:29.000Z</time>
        <extensions>
          <ns3:TrackPointExtension>
            <ns3:atemp>18.0</ns3:atemp>
          </ns3:TrackPointExtension>
        </extensions>
      </trkpt>
      <trkpt lat="42.56307841278612613677978515625" lon="20.045341886579990386962890625">
        <ele>2086.39990234375</ele>
        <time>2026-06-15T12:34:30.000Z</time>
        <extensions>
          <ns3:TrackPointExtension>
            <ns3:atemp>18.0</ns3:atemp>
          </ns3:TrackPointExtension>
        </extensions>
      </trkpt>
      <trkpt lat="42.56307086907327175140380859375" lon="20.04531447775661945343017578125">
        <ele>2086.199951171875</ele>
        <time>2026-06-15T12:34:31.000Z</time>
        <extensions>
          <ns3:TrackPointExtension>
            <ns3:atemp>18.0</ns3:atemp>
          </ns3:TrackPointExtension>
        </extensions>
      </trkpt>
      <trkpt lat="42.56305997259914875030517578125" lon="20.045281536877155303955078125">
        <ele>2086</ele>
        <time>2026-06-15T12:34:32.000Z</time>
        <extensions>
          <ns3:TrackPointExtension>
            <ns3:atemp>18.0</ns3:atemp>
          </ns3:TrackPointExtension>
        </extensions>
      </trkpt>
      <trkpt lat="42.56305561400949954986572265625" lon="20.045243985950946807861328125">
        <ele>2086</ele>
        <time>2026-06-15T12:34:33.000Z</time>
        <extensions>
          <ns3:TrackPointExtension>
            <ns3:atemp>18.0</ns3:atemp>
          </ns3:TrackPointExtension>
        </extensions>
      </trkpt>
      <trkpt lat="42.563051171600818634033203125" lon="20.04519998095929622650146484375">
        <ele>2085.60009765625</ele>
        <time>2026-06-15T12:34:34.000Z</time>
        <extensions>
          <ns3:TrackPointExtension>
            <ns3:atemp>18.0</ns3:atemp>
          </ns3:TrackPointExtension>
        </extensions>
      </trkpt>
      <trkpt lat="42.56304605863988399505615234375" lon="20.04514901898801326751708984375">
        <ele>2085.39990234375</ele>
        <time>2026-06-15T12:34:35.000Z</time>
        <extensions>
          <ns3:TrackPointExtension>
            <ns3:atemp>18.0</ns3:atemp>
          </ns3:TrackPointExtension>
        </extensions>
      </trkpt>
      <trkpt lat="42.563039101660251617431640625" lon="20.0451050139963626861572265625">
        <ele>2085.199951171875</ele>
        <time>2026-06-15T12:34:36.000Z</time>
        <extensions>
          <ns3:TrackPointExtension>
            <ns3:atemp>18.0</ns3:atemp>
          </ns3:TrackPointExtension>
        </extensions>
      </trkpt>
      <trkpt lat="42.56303885020315647125244140625" lon="20.04506788216531276702880859375">
        <ele>2084.800048828125</ele>
        <time>2026-06-15T12:34:37.000Z</time>
        <extensions>
          <ns3:TrackPointExtension>
            <ns3:atemp>18.0</ns3:atemp>
          </ns3:TrackPointExtension>
        </extensions>
      </trkpt>
      <trkpt lat="42.56303683854639530181884765625" lon="20.04502915777266025543212890625">
        <ele>2084.60009765625</ele>
        <time>2026-06-15T12:34:38.000Z</time>
        <extensions>
          <ns3:TrackPointExtension>
            <ns3:atemp>18.0</ns3:atemp>
          </ns3:TrackPointExtension>
        </extensions>
      </trkpt>
      <trkpt lat="42.56303968839347362518310546875" lon="20.04498439840972423553466796875">
        <ele>2084.199951171875</ele>
        <time>2026-06-15T12:34:39.000Z</time>
        <extensions>
          <ns3:TrackPointExtension>
            <ns3:atemp>18.0</ns3:atemp>
          </ns3:TrackPointExtension>
        </extensions>
      </trkpt>
      <trkpt lat="42.5630432926118373870849609375" lon="20.0449417345225811004638671875">
        <ele>2083.800048828125</ele>
        <time>2026-06-15T12:34:40.000Z</time>
        <extensions>
          <ns3:TrackPointExtension>
            <ns3:atemp>18.0</ns3:atemp>
          </ns3:TrackPointExtension>
        </extensions>
      </trkpt>
      <trkpt lat="42.56304957903921604156494140625" lon="20.044901669025421142578125">
        <ele>2083.39990234375</ele>
        <time>2026-06-15T12:34:41.000Z</time>
        <extensions>
          <ns3:TrackPointExtension>
            <ns3:atemp>18.0</ns3:atemp>
          </ns3:TrackPointExtension>
        </extensions>
      </trkpt>
      <trkpt lat="42.5630536861717700958251953125" lon="20.04486101679503917694091796875">
        <ele>2083.199951171875</ele>
        <time>2026-06-15T12:34:42.000Z</time>
        <extensions>
          <ns3:TrackPointExtension>
            <ns3:atemp>18.0</ns3:atemp>
          </ns3:TrackPointExtension>
        </extensions>
      </trkpt>
      <trkpt lat="42.5630583800375461578369140625" lon="20.04482614807784557342529296875">
        <ele>2083</ele>
        <time>2026-06-15T12:34:43.000Z</time>
        <extensions>
          <ns3:TrackPointExtension>
            <ns3:atemp>18.0</ns3:atemp>
          </ns3:TrackPointExtension>
        </extensions>
      </trkpt>
      <trkpt lat="42.56306399591267108917236328125" lon="20.044785328209400177001953125">
        <ele>2082.60009765625</ele>
        <time>2026-06-15T12:34:44.000Z</time>
        <extensions>
          <ns3:TrackPointExtension>
            <ns3:atemp>18.0</ns3:atemp>
          </ns3:TrackPointExtension>
        </extensions>
      </trkpt>
      <trkpt lat="42.5630694441497325897216796875" lon="20.044748783111572265625">
        <ele>2082.39990234375</ele>
        <time>2026-06-15T12:34:45.000Z</time>
        <extensions>
          <ns3:TrackPointExtension>
            <ns3:atemp>18.0</ns3:atemp>
          </ns3:TrackPointExtension>
        </extensions>
      </trkpt>
      <trkpt lat="42.56307556293904781341552734375" lon="20.04471668042242527008056640625">
        <ele>2082.199951171875</ele>
        <time>2026-06-15T12:34:46.000Z</time>
        <extensions>
          <ns3:TrackPointExtension>
            <ns3:atemp>18.0</ns3:atemp>
          </ns3:TrackPointExtension>
        </extensions>
      </trkpt>
      <trkpt lat="42.563082017004489898681640625" lon="20.04469312727451324462890625">
        <ele>2082</ele>
        <time>2026-06-15T12:34:47.000Z</time>
        <extensions>
          <ns3:TrackPointExtension>
            <ns3:atemp>18.0</ns3:atemp>
          </ns3:TrackPointExtension>
        </extensions>
      </trkpt>
      <trkpt lat="42.56307992152869701385498046875" lon="20.0446688197553157806396484375">
        <ele>2081.800048828125</ele>
        <time>2026-06-15T12:34:48.000Z</time>
        <extensions>
          <ns3:TrackPointExtension>
            <ns3:atemp>18.0</ns3:atemp>
          </ns3:TrackPointExtension>
        </extensions>
      </trkpt>
      <trkpt lat="42.56307908333837985992431640625" lon="20.04464258439838886260986328125">
        <ele>2081.60009765625</ele>
        <time>2026-06-15T12:34:49.000Z</time>
        <extensions>
          <ns3:TrackPointExtension>
            <ns3:atemp>18.0</ns3:atemp>
          </ns3:TrackPointExtension>
        </extensions>
      </trkpt>
      <trkpt lat="42.5630727969110012054443359375" lon="20.04460352472960948944091796875">
        <ele>2081.39990234375</ele>
        <time>2026-06-15T12:34:50.000Z</time>
        <extensions>
          <ns3:TrackPointExtension>
            <ns3:atemp>18.0</ns3:atemp>
          </ns3:TrackPointExtension>
        </extensions>
      </trkpt>
      <trkpt lat="42.563079334795475006103515625" lon="20.044572092592716217041015625">
        <ele>2081.199951171875</ele>
        <time>2026-06-15T12:34:51.000Z</time>
        <extensions>
          <ns3:TrackPointExtension>
            <ns3:atemp>18.0</ns3:atemp>
          </ns3:TrackPointExtension>
        </extensions>
      </trkpt>
      <trkpt lat="42.56308746524155139923095703125" lon="20.0445394031703472137451171875">
        <ele>2081</ele>
        <time>2026-06-15T12:34:52.000Z</time>
        <extensions>
          <ns3:TrackPointExtension>
            <ns3:atemp>18.0</ns3:atemp>
          </ns3:TrackPointExtension>
        </extensions>
      </trkpt>
      <trkpt lat="42.56309903226792812347412109375" lon="20.04451149143278598785400390625">
        <ele>2080.800048828125</ele>
        <time>2026-06-15T12:34:53.000Z</time>
        <extensions>
          <ns3:TrackPointExtension>
            <ns3:atemp>18.0</ns3:atemp>
          </ns3:TrackPointExtension>
        </extensions>
      </trkpt>
      <trkpt lat="42.5631113536655902862548828125" lon="20.044483244419097900390625">
        <ele>2080.60009765625</ele>
        <time>2026-06-15T12:34:54.000Z</time>
        <extensions>
          <ns3:TrackPointExtension>
            <ns3:atemp>18.0</ns3:atemp>
          </ns3:TrackPointExtension>
        </extensions>
      </trkpt>
      <trkpt lat="42.563124597072601318359375" lon="20.0444602780044078826904296875">
        <ele>2080.60009765625</ele>
        <time>2026-06-15T12:34:55.000Z</time>
        <extensions>
          <ns3:TrackPointExtension>
            <ns3:atemp>18.0</ns3:atemp>
          </ns3:TrackPointExtension>
        </extensions>
      </trkpt>
      <trkpt lat="42.563137002289295196533203125" lon="20.0444381497800350189208984375">
        <ele>2080.60009765625</ele>
        <time>2026-06-15T12:34:56.000Z</time>
        <extensions>
          <ns3:TrackPointExtension>
            <ns3:atemp>18.0</ns3:atemp>
          </ns3:TrackPointExtension>
        </extensions>
      </trkpt>
      <trkpt lat="42.56314848549664020538330078125" lon="20.04440587945282459259033203125">
        <ele>2080.39990234375</ele>
        <time>2026-06-15T12:34:57.000Z</time>
        <extensions>
          <ns3:TrackPointExtension>
            <ns3:atemp>18.0</ns3:atemp>
          </ns3:TrackPointExtension>
        </extensions>
      </trkpt>
      <trkpt lat="42.56316575221717357635498046875" lon="20.04437821917235851287841796875">
        <ele>2080.199951171875</ele>
        <time>2026-06-15T12:34:58.000Z</time>
        <extensions>
          <ns3:TrackPointExtension>
            <ns3:atemp>18.0</ns3:atemp>
          </ns3:TrackPointExtension>
        </extensions>
      </trkpt>
      <trkpt lat="42.56318083964288234710693359375" lon="20.04433966241776943206787109375">
        <ele>2080</ele>
        <time>2026-06-15T12:34:59.000Z</time>
        <extensions>
          <ns3:TrackPointExtension>
            <ns3:atemp>18.0</ns3:atemp>
          </ns3:TrackPointExtension>
        </extensions>
      </trkpt>
      <trkpt lat="42.56318519823253154754638671875" lon="20.0443023629486560821533203125">
        <ele>2079.60009765625</ele>
        <time>2026-06-15T12:35:00.000Z</time>
        <extensions>
          <ns3:TrackPointExtension>
            <ns3:atemp>18.0</ns3:atemp>
          </ns3:TrackPointExtension>
        </extensions>
      </trkpt>
      <trkpt lat="42.5631822645664215087890625" lon="20.044269002974033355712890625">
        <ele>2079.199951171875</ele>
        <time>2026-06-15T12:35:01.000Z</time>
        <extensions>
          <ns3:TrackPointExtension>
            <ns3:atemp>18.0</ns3:atemp>
          </ns3:TrackPointExtension>
        </extensions>
      </trkpt>
      <trkpt lat="42.56318251602351665496826171875" lon="20.04424117505550384521484375">
        <ele>2079</ele>
        <time>2026-06-15T12:35:02.000Z</time>
        <extensions>
          <ns3:TrackPointExtension>
            <ns3:atemp>18.0</ns3:atemp>
          </ns3:TrackPointExtension>
        </extensions>
      </trkpt>
      <trkpt lat="42.5631790794432163238525390625" lon="20.04420856945216655731201171875">
        <ele>2078.60009765625</ele>
        <time>2026-06-15T12:35:03.000Z</time>
        <extensions>
          <ns3:TrackPointExtension>
            <ns3:atemp>18.0</ns3:atemp>
          </ns3:TrackPointExtension>
        </extensions>
      </trkpt>
      <trkpt lat="42.5631696917116641998291015625" lon="20.0441749580204486846923828125">
        <ele>2078.199951171875</ele>
        <time>2026-06-15T12:35:04.000Z</time>
        <extensions>
          <ns3:TrackPointExtension>
            <ns3:atemp>18.0</ns3:atemp>
          </ns3:TrackPointExtension>
        </extensions>
      </trkpt>
      <trkpt lat="42.563160471618175506591796875" lon="20.04413732327520847320556640625">
        <ele>2077.800048828125</ele>
        <time>2026-06-15T12:35:05.000Z</time>
        <extensions>
          <ns3:TrackPointExtension>
            <ns3:atemp>18.0</ns3:atemp>
          </ns3:TrackPointExtension>
        </extensions>
      </trkpt>
      <trkpt lat="42.56315351463854312896728515625" lon="20.04409641958773136138916015625">
        <ele>2077.60009765625</ele>
        <time>2026-06-15T12:35:06.000Z</time>
        <extensions>
          <ns3:TrackPointExtension>
            <ns3:atemp>18.0</ns3:atemp>
          </ns3:TrackPointExtension>
        </extensions>
      </trkpt>
      <trkpt lat="42.5631415285170078277587890625" lon="20.04405283369123935699462890625">
        <ele>2077.199951171875</ele>
        <time>2026-06-15T12:35:07.000Z</time>
        <extensions>
          <ns3:TrackPointExtension>
            <ns3:atemp>18.0</ns3:atemp>
          </ns3:TrackPointExtension>
        </extensions>
      </trkpt>
      <trkpt lat="42.56312753073871135711669921875" lon="20.04400304518640041351318359375">
        <ele>2076.800048828125</ele>
        <time>2026-06-15T12:35:08.000Z</time>
        <extensions>
          <ns3:TrackPointExtension>
            <ns3:atemp>18.0</ns3:atemp>
          </ns3:TrackPointExtension>
        </extensions>
      </trkpt>
      <trkpt lat="42.5631080009043216705322265625" lon="20.04395090974867343902587890625">
        <ele>2076.39990234375</ele>
        <time>2026-06-15T12:35:09.000Z</time>
        <extensions>
          <ns3:TrackPointExtension>
            <ns3:atemp>18.0</ns3:atemp>
          </ns3:TrackPointExtension>
        </extensions>
      </trkpt>
      <trkpt lat="42.563086040318012237548828125" lon="20.04390028305351734161376953125">
        <ele>2075.800048828125</ele>
        <time>2026-06-15T12:35:10.000Z</time>
        <extensions>
          <ns3:TrackPointExtension>
            <ns3:atemp>18.0</ns3:atemp>
          </ns3:TrackPointExtension>
        </extensions>
      </trkpt>
      <trkpt lat="42.563062570989131927490234375" lon="20.04385619424283504486083984375">
        <ele>2075.199951171875</ele>
        <time>2026-06-15T12:35:11.000Z</time>
        <extensions>
          <ns3:TrackPointExtension>
            <ns3:atemp>18.0</ns3:atemp>
          </ns3:TrackPointExtension>
        </extensions>
      </trkpt>
      <trkpt lat="42.563039772212505340576171875" lon="20.04381361417472362518310546875">
        <ele>2074.800048828125</ele>
        <time>2026-06-15T12:35:12.000Z</time>
        <extensions>
          <ns3:TrackPointExtension>
            <ns3:atemp>18.0</ns3:atemp>
          </ns3:TrackPointExtension>
        </extensions>
      </trkpt>
      <trkpt lat="42.56302359513938426971435546875" lon="20.0437682680785655975341796875">
        <ele>2074.39990234375</ele>
        <time>2026-06-15T12:35:13.000Z</time>
        <extensions>
          <ns3:TrackPointExtension>
            <ns3:atemp>18.0</ns3:atemp>
          </ns3:TrackPointExtension>
        </extensions>
      </trkpt>
      <trkpt lat="42.56301135756075382232666015625" lon="20.0437013804912567138671875">
        <ele>2073.800048828125</ele>
        <time>2026-06-15T12:35:14.000Z</time>
        <extensions>
          <ns3:TrackPointExtension>
            <ns3:atemp>18.0</ns3:atemp>
          </ns3:TrackPointExtension>
        </extensions>
      </trkpt>
      <trkpt lat="42.56300188601016998291015625" lon="20.0436354987323284149169921875">
        <ele>2073.39990234375</ele>
        <time>2026-06-15T12:35:15.000Z</time>
        <extensions>
          <ns3:TrackPointExtension>
            <ns3:atemp>18.0</ns3:atemp>
          </ns3:TrackPointExtension>
        </extensions>
      </trkpt>
      <trkpt lat="42.5630094297230243682861328125" lon="20.043592751026153564453125">
        <ele>2073</ele>
        <time>2026-06-15T12:35:16.000Z</time>
        <extensions>
          <ns3:TrackPointExtension>
            <ns3:atemp>18.0</ns3:atemp>
          </ns3:TrackPointExtension>
        </extensions>
      </trkpt>
      <trkpt lat="42.56302393041551113128662109375" lon="20.0435540266335010528564453125">
        <ele>2072.60009765625</ele>
        <time>2026-06-15T12:35:17.000Z</time>
        <extensions>
          <ns3:TrackPointExtension>
            <ns3:atemp>18.0</ns3:atemp>
          </ns3:TrackPointExtension>
        </extensions>
      </trkpt>
      <trkpt lat="42.5630409456789493560791015625" lon="20.0435308925807476043701171875">
        <ele>2072.39990234375</ele>
        <time>2026-06-15T12:35:18.000Z</time>
        <extensions>
          <ns3:TrackPointExtension>
            <ns3:atemp>18.0</ns3:atemp>
          </ns3:TrackPointExtension>
        </extensions>
      </trkpt>
      <trkpt lat="42.56306567229330539703369140625" lon="20.04351739771664142608642578125">
        <ele>2072.199951171875</ele>
        <time>2026-06-15T12:35:19.000Z</time>
        <extensions>
          <ns3:TrackPointExtension>
            <ns3:atemp>18.0</ns3:atemp>
          </ns3:TrackPointExtension>
        </extensions>
      </trkpt>
      <trkpt lat="42.56308428011834621429443359375" lon="20.04350817762315273284912109375">
        <ele>2072</ele>
        <time>2026-06-15T12:35:20.000Z</time>
        <extensions>
          <ns3:TrackPointExtension>
            <ns3:atemp>18.0</ns3:atemp>
          </ns3:TrackPointExtension>
        </extensions>
      </trkpt>
      <trkpt lat="42.56309484131634235382080078125" lon="20.04349878989160060882568359375">
        <ele>2071.800048828125</ele>
        <time>2026-06-15T12:35:21.000Z</time>
        <extensions>
          <ns3:TrackPointExtension>
            <ns3:atemp>18.0</ns3:atemp>
          </ns3:TrackPointExtension>
        </extensions>
      </trkpt>
      <trkpt lat="42.56310959346592426300048828125" lon="20.0434769131243228912353515625">
        <ele>2071.60009765625</ele>
        <time>2026-06-15T12:35:22.000Z</time>
        <extensions>
          <ns3:TrackPointExtension>
            <ns3:atemp>18.0</ns3:atemp>
          </ns3:TrackPointExtension>
        </extensions>
      </trkpt>
      <trkpt lat="42.56312719546258449554443359375" lon="20.04345034249126911163330078125">
        <ele>2071.39990234375</ele>
        <time>2026-06-15T12:35:23.000Z</time>
        <extensions>
          <ns3:TrackPointExtension>
            <ns3:atemp>18.0</ns3:atemp>
          </ns3:TrackPointExtension>
        </extensions>
      </trkpt>
      <trkpt lat="42.56314697675406932830810546875" lon="20.043421089649200439453125">
        <ele>2071.39990234375</ele>
        <time>2026-06-15T12:35:24.000Z</time>
        <extensions>
          <ns3:TrackPointExtension>
            <ns3:atemp>18.0</ns3:atemp>
          </ns3:TrackPointExtension>
        </extensions>
      </trkpt>
      <trkpt lat="42.56316424347460269927978515625" lon="20.04339535720646381378173828125">
        <ele>2071.39990234375</ele>
        <time>2026-06-15T12:35:25.000Z</time>
        <extensions>
          <ns3:TrackPointExtension>
            <ns3:atemp>18.0</ns3:atemp>
          </ns3:TrackPointExtension>
        </extensions>
      </trkpt>
      <trkpt lat="42.5631841085851192474365234375" lon="20.043364427983760833740234375">
        <ele>2071.39990234375</ele>
        <time>2026-06-15T12:35:26.000Z</time>
        <extensions>
          <ns3:TrackPointExtension>
            <ns3:atemp>18.0</ns3:atemp>
          </ns3:TrackPointExtension>
        </extensions>
      </trkpt>
      <trkpt lat="42.563202381134033203125" lon="20.0433391146361827850341796875">
        <ele>2071.39990234375</ele>
        <time>2026-06-15T12:35:27.000Z</time>
        <extensions>
          <ns3:TrackPointExtension>
            <ns3:atemp>18.0</ns3:atemp>
          </ns3:TrackPointExtension>
        </extensions>
      </trkpt>
      <trkpt lat="42.5632209889590740203857421875" lon="20.04331438802182674407958984375">
        <ele>2071.60009765625</ele>
        <time>2026-06-15T12:35:28.000Z</time>
        <extensions>
          <ns3:TrackPointExtension>
            <ns3:atemp>18.0</ns3:atemp>
          </ns3:TrackPointExtension>
        </extensions>
      </trkpt>
      <trkpt lat="42.5632421113550662994384765625" lon="20.043302737176418304443359375">
        <ele>2072</ele>
        <time>2026-06-15T12:35:29.000Z</time>
        <extensions>
          <ns3:TrackPointExtension>
            <ns3:atemp>18.0</ns3:atemp>
          </ns3:TrackPointExtension>
        </extensions>
      </trkpt>
      <trkpt lat="42.5632635690271854400634765625" lon="20.04329561255872249603271484375">
        <ele>2072.199951171875</ele>
        <time>2026-06-15T12:35:30.000Z</time>
        <extensions>
          <ns3:TrackPointExtension>
            <ns3:atemp>18.0</ns3:atemp>
          </ns3:TrackPointExtension>
        </extensions>
      </trkpt>
      <trkpt lat="42.56328376941382884979248046875" lon="20.04328907467424869537353515625">
        <ele>2072.39990234375</ele>
        <time>2026-06-15T12:35:31.000Z</time>
        <extensions>
          <ns3:TrackPointExtension>
            <ns3:atemp>18.0</ns3:atemp>
          </ns3:TrackPointExtension>
        </extensions>
      </trkpt>
      <trkpt lat="42.56330740638077259063720703125" lon="20.0432874821126461029052734375">
        <ele>2072.60009765625</ele>
        <time>2026-06-15T12:35:32.000Z</time>
        <extensions>
          <ns3:TrackPointExtension>
            <ns3:atemp>18.0</ns3:atemp>
          </ns3:TrackPointExtension>
        </extensions>
      </trkpt>
      <trkpt lat="42.56333808414638042449951171875" lon="20.04328764975070953369140625">
        <ele>2073</ele>
        <time>2026-06-15T12:35:33.000Z</time>
        <extensions>
          <ns3:TrackPointExtension>
            <ns3:atemp>18.0</ns3:atemp>
          </ns3:TrackPointExtension>
        </extensions>
      </trkpt>
      <trkpt lat="42.56336708553135395050048828125" lon="20.0432874821126461029052734375">
        <ele>2073.199951171875</ele>
        <time>2026-06-15T12:35:34.000Z</time>
        <extensions>
          <ns3:TrackPointExtension>
            <ns3:atemp>18.0</ns3:atemp>
          </ns3:TrackPointExtension>
        </extensions>
      </trkpt>
      <trkpt lat="42.56339943967759609222412109375" lon="20.0432874821126461029052734375">
        <ele>2073.60009765625</ele>
        <time>2026-06-15T12:35:35.000Z</time>
        <extensions>
          <ns3:TrackPointExtension>
            <ns3:atemp>18.0</ns3:atemp>
          </ns3:TrackPointExtension>
        </extensions>
      </trkpt>
      <trkpt lat="42.563428692519664764404296875" lon="20.04328002221882343292236328125">
        <ele>2073.800048828125</ele>
        <time>2026-06-15T12:35:36.000Z</time>
        <extensions>
          <ns3:TrackPointExtension>
            <ns3:atemp>18.0</ns3:atemp>
          </ns3:TrackPointExtension>
        </extensions>
      </trkpt>
      <trkpt lat="42.5634533353149890899658203125" lon="20.04327365197241306304931640625">
        <ele>2074.199951171875</ele>
        <time>2026-06-15T12:35:37.000Z</time>
        <extensions>
          <ns3:TrackPointExtension>
            <ns3:atemp>18.0</ns3:atemp>
          </ns3:TrackPointExtension>
        </extensions>
      </trkpt>
      <trkpt lat="42.56347931921482086181640625" lon="20.04326610825955867767333984375">
        <ele>2074.60009765625</ele>
        <time>2026-06-15T12:35:38.000Z</time>
        <extensions>
          <ns3:TrackPointExtension>
            <ns3:atemp>18.0</ns3:atemp>
          </ns3:TrackPointExtension>
        </extensions>
      </trkpt>
      <trkpt lat="42.5635049678385257720947265625" lon="20.04326309077441692352294921875">
        <ele>2075</ele>
        <time>2026-06-15T12:35:39.000Z</time>
        <extensions>
          <ns3:TrackPointExtension>
            <ns3:atemp>18.0</ns3:atemp>
          </ns3:TrackPointExtension>
        </extensions>
      </trkpt>
      <trkpt lat="42.56352868862450122833251953125" lon="20.04327264614403247833251953125">
        <ele>2075.39990234375</ele>
        <time>2026-06-15T12:35:40.000Z</time>
        <extensions>
          <ns3:TrackPointExtension>
            <ns3:atemp>18.0</ns3:atemp>
          </ns3:TrackPointExtension>
        </extensions>
      </trkpt>
      <trkpt lat="42.5635522417724132537841796875" lon="20.04328488372266292572021484375">
        <ele>2075.60009765625</ele>
        <time>2026-06-15T12:35:41.000Z</time>
        <extensions>
          <ns3:TrackPointExtension>
            <ns3:atemp>18.0</ns3:atemp>
          </ns3:TrackPointExtension>
        </extensions>
      </trkpt>
      <trkpt lat="42.563572190701961517333984375" lon="20.04330734722316265106201171875">
        <ele>2076</ele>
        <time>2026-06-15T12:35:42.000Z</time>
        <extensions>
          <ns3:TrackPointExtension>
            <ns3:atemp>18.0</ns3:atemp>
          </ns3:TrackPointExtension>
        </extensions>
      </trkpt>
      <trkpt lat="42.563586272299289703369140625" lon="20.04332880489528179168701171875">
        <ele>2076.199951171875</ele>
        <time>2026-06-15T12:35:43.000Z</time>
        <extensions>
          <ns3:TrackPointExtension>
            <ns3:atemp>18.0</ns3:atemp>
          </ns3:TrackPointExtension>
        </extensions>
      </trkpt>
      <trkpt lat="42.56360077299177646636962890625" lon="20.0433538667857646942138671875">
        <ele>2076.39990234375</ele>
        <time>2026-06-15T12:35:44.000Z</time>
        <extensions>
          <ns3:TrackPointExtension>
            <ns3:atemp>18.0</ns3:atemp>
          </ns3:TrackPointExtension>
        </extensions>
      </trkpt>
      <trkpt lat="42.5636179558932781219482421875" lon="20.04338211379945278167724609375">
        <ele>2076.60009765625</ele>
        <time>2026-06-15T12:35:45.000Z</time>
        <extensions>
          <ns3:TrackPointExtension>
            <ns3:atemp>18.0</ns3:atemp>
          </ns3:TrackPointExtension>
        </extensions>
      </trkpt>
      <trkpt lat="42.56363631226122379302978515625" lon="20.04340776242315769195556640625">
        <ele>2076.800048828125</ele>
        <time>2026-06-15T12:35:46.000Z</time>
        <extensions>
          <ns3:TrackPointExtension>
            <ns3:atemp>18.0</ns3:atemp>
          </ns3:TrackPointExtension>
        </extensions>
      </trkpt>
      <trkpt lat="42.56365626119077205657958984375" lon="20.0434296391904354095458984375">
        <ele>2077.199951171875</ele>
        <time>2026-06-15T12:35:47.000Z</time>
        <extensions>
          <ns3:TrackPointExtension>
            <ns3:atemp>18.0</ns3:atemp>
          </ns3:TrackPointExtension>
        </extensions>
      </trkpt>
      <trkpt lat="42.563677467405796051025390625" lon="20.0434460677206516265869140625">
        <ele>2077.39990234375</ele>
        <time>2026-06-15T12:35:48.000Z</time>
        <extensions>
          <ns3:TrackPointExtension>
            <ns3:atemp>18.0</ns3:atemp>
          </ns3:TrackPointExtension>
        </extensions>
      </trkpt>
      <trkpt lat="42.5636974163353443145751953125" lon="20.0434641726315021514892578125">
        <ele>2077.60009765625</ele>
        <time>2026-06-15T12:35:49.000Z</time>
        <extensions>
          <ns3:TrackPointExtension>
            <ns3:atemp>18.0</ns3:atemp>
          </ns3:TrackPointExtension>
        </extensions>
      </trkpt>
      <trkpt lat="42.5637195445597171783447265625" lon="20.043486468493938446044921875">
        <ele>2077.800048828125</ele>
        <time>2026-06-15T12:35:50.000Z</time>
        <extensions>
          <ns3:TrackPointExtension>
            <ns3:atemp>18.0</ns3:atemp>
          </ns3:TrackPointExtension>
        </extensions>
      </trkpt>
      <trkpt lat="42.563743852078914642333984375" lon="20.0435067526996135711669921875">
        <ele>2077.800048828125</ele>
        <time>2026-06-15T12:35:51.000Z</time>
        <extensions>
          <ns3:TrackPointExtension>
            <ns3:atemp>18.0</ns3:atemp>
          </ns3:TrackPointExtension>
        </extensions>
      </trkpt>
      <trkpt lat="42.5637604482471942901611328125" lon="20.04353164695203304290771484375">
        <ele>2078</ele>
        <time>2026-06-15T12:35:52.000Z</time>
        <extensions>
          <ns3:TrackPointExtension>
            <ns3:atemp>18.0</ns3:atemp>
          </ns3:TrackPointExtension>
        </extensions>
      </trkpt>
      <trkpt lat="42.5637758709490299224853515625" lon="20.0435614027082920074462890625">
        <ele>2078.199951171875</ele>
        <time>2026-06-15T12:35:53.000Z</time>
        <extensions>
          <ns3:TrackPointExtension>
            <ns3:atemp>18.0</ns3:atemp>
          </ns3:TrackPointExtension>
        </extensions>
      </trkpt>
      <trkpt lat="42.5637911260128021240234375" lon="20.0435945950448513031005859375">
        <ele>2078.39990234375</ele>
        <time>2026-06-15T12:35:54.000Z</time>
        <extensions>
          <ns3:TrackPointExtension>
            <ns3:atemp>18.0</ns3:atemp>
          </ns3:TrackPointExtension>
        </extensions>
      </trkpt>
      <trkpt lat="42.56380076520144939422607421875" lon="20.04362720064818859100341796875">
        <ele>2078.800048828125</ele>
        <time>2026-06-15T12:35:55.000Z</time>
        <extensions>
          <ns3:TrackPointExtension>
            <ns3:atemp>18.0</ns3:atemp>
          </ns3:TrackPointExtension>
        </extensions>
      </trkpt>
      <trkpt lat="42.56381115876138210296630859375" lon="20.04366273991763591766357421875">
        <ele>2079.199951171875</ele>
        <time>2026-06-15T12:35:56.000Z</time>
        <extensions>
          <ns3:TrackPointExtension>
            <ns3:atemp>18.0</ns3:atemp>
          </ns3:TrackPointExtension>
        </extensions>
      </trkpt>
      <trkpt lat="42.56381987594068050384521484375" lon="20.043697021901607513427734375">
        <ele>2079.800048828125</ele>
        <time>2026-06-15T12:35:57.000Z</time>
        <extensions>
          <ns3:TrackPointExtension>
            <ns3:atemp>18.0</ns3:atemp>
          </ns3:TrackPointExtension>
        </extensions>
      </trkpt>
      <trkpt lat="42.56383127532899379730224609375" lon="20.0437344051897525787353515625">
        <ele>2080.199951171875</ele>
        <time>2026-06-15T12:35:58.000Z</time>
        <extensions>
          <ns3:TrackPointExtension>
            <ns3:atemp>18.0</ns3:atemp>
          </ns3:TrackPointExtension>
        </extensions>
      </trkpt>
      <trkpt lat="42.56384083069860935211181640625" lon="20.04376851953566074371337890625">
        <ele>2080.60009765625</ele>
        <time>2026-06-15T12:35:59.000Z</time>
        <extensions>
          <ns3:TrackPointExtension>
            <ns3:atemp>18.0</ns3:atemp>
          </ns3:TrackPointExtension>
        </extensions>
      </trkpt>
      <trkpt lat="42.56385038606822490692138671875" lon="20.0437987782061100006103515625">
        <ele>2080.800048828125</ele>
        <time>2026-06-15T12:36:00.000Z</time>
        <extensions>
          <ns3:TrackPointExtension>
            <ns3:atemp>18.0</ns3:atemp>
          </ns3:TrackPointExtension>
        </extensions>
      </trkpt>
      <trkpt lat="42.56386145018041133880615234375" lon="20.04383272491395473480224609375">
        <ele>2081.199951171875</ele>
        <time>2026-06-15T12:36:01.000Z</time>
        <extensions>
          <ns3:TrackPointExtension>
            <ns3:atemp>18.0</ns3:atemp>
          </ns3:TrackPointExtension>
        </extensions>
      </trkpt>
      <trkpt lat="42.5638717599213123321533203125" lon="20.04386457614600658416748046875">
        <ele>2081.39990234375</ele>
        <time>2026-06-15T12:36:02.000Z</time>
        <extensions>
          <ns3:TrackPointExtension>
            <ns3:atemp>18.0</ns3:atemp>
          </ns3:TrackPointExtension>
        </extensions>
      </trkpt>
      <trkpt lat="42.56388508714735507965087890625" lon="20.04390313290059566497802734375">
        <ele>2081.60009765625</ele>
        <time>2026-06-15T12:36:03.000Z</time>
        <extensions>
          <ns3:TrackPointExtension>
            <ns3:atemp>18.0</ns3:atemp>
          </ns3:TrackPointExtension>
        </extensions>
      </trkpt>
      <trkpt lat="42.56389799527823925018310546875" lon="20.04394252784550189971923828125">
        <ele>2081.800048828125</ele>
        <time>2026-06-15T12:36:04.000Z</time>
        <extensions>
          <ns3:TrackPointExtension>
            <ns3:atemp>18.0</ns3:atemp>
          </ns3:TrackPointExtension>
        </extensions>
      </trkpt>
      <trkpt lat="42.5639113225042819976806640625" lon="20.0439761392772197723388671875">
        <ele>2082</ele>
        <time>2026-06-15T12:36:05.000Z</time>
        <extensions>
          <ns3:TrackPointExtension>
            <ns3:atemp>18.0</ns3:atemp>
          </ns3:TrackPointExtension>
        </extensions>
      </trkpt>
      <trkpt lat="42.56392347626388072967529296875" lon="20.044011175632476806640625">
        <ele>2082.199951171875</ele>
        <time>2026-06-15T12:36:06.000Z</time>
        <extensions>
          <ns3:TrackPointExtension>
            <ns3:atemp>18.0</ns3:atemp>
          </ns3:TrackPointExtension>
        </extensions>
      </trkpt>
      <trkpt lat="42.5639364682137966156005859375" lon="20.0440455414354801177978515625">
        <ele>2082.39990234375</ele>
        <time>2026-06-15T12:36:07.000Z</time>
        <extensions>
          <ns3:TrackPointExtension>
            <ns3:atemp>18.0</ns3:atemp>
          </ns3:TrackPointExtension>
        </extensions>
      </trkpt>
      <trkpt lat="42.5639512203633785247802734375" lon="20.04407621920108795166015625">
        <ele>2082.39990234375</ele>
        <time>2026-06-15T12:36:08.000Z</time>
        <extensions>
          <ns3:TrackPointExtension>
            <ns3:atemp>18.0</ns3:atemp>
          </ns3:TrackPointExtension>
        </extensions>
      </trkpt>
      <trkpt lat="42.56396211683750152587890625" lon="20.0441119261085987091064453125">
        <ele>2082.60009765625</ele>
        <time>2026-06-15T12:36:09.000Z</time>
        <extensions>
          <ns3:TrackPointExtension>
            <ns3:atemp>18.0</ns3:atemp>
          </ns3:TrackPointExtension>
        </extensions>
      </trkpt>
      <trkpt lat="42.563974857330322265625" lon="20.0441478006541728973388671875">
        <ele>2082.800048828125</ele>
        <time>2026-06-15T12:36:10.000Z</time>
        <extensions>
          <ns3:TrackPointExtension>
            <ns3:atemp>18.0</ns3:atemp>
          </ns3:TrackPointExtension>
        </extensions>
      </trkpt>
      <trkpt lat="42.5639891065657138824462890625" lon="20.04417990334331989288330078125">
        <ele>2083.199951171875</ele>
        <time>2026-06-15T12:36:11.000Z</time>
        <extensions>
          <ns3:TrackPointExtension>
            <ns3:atemp>18.0</ns3:atemp>
          </ns3:TrackPointExtension>
        </extensions>
      </trkpt>
      <trkpt lat="42.5640041939914226531982421875" lon="20.044215023517608642578125">
        <ele>2083.39990234375</ele>
        <time>2026-06-15T12:36:12.000Z</time>
        <extensions>
          <ns3:TrackPointExtension>
            <ns3:atemp>18.0</ns3:atemp>
          </ns3:TrackPointExtension>
        </extensions>
      </trkpt>
      <trkpt lat="42.56401483900845050811767578125" lon="20.0442550890147686004638671875">
        <ele>2083.800048828125</ele>
        <time>2026-06-15T12:36:13.000Z</time>
        <extensions>
          <ns3:TrackPointExtension>
            <ns3:atemp>18.0</ns3:atemp>
          </ns3:TrackPointExtension>
        </extensions>
      </trkpt>
      <trkpt lat="42.56402271799743175506591796875" lon="20.044300518929958343505859375">
        <ele>2084</ele>
        <time>2026-06-15T12:36:14.000Z</time>
        <extensions>
          <ns3:TrackPointExtension>
            <ns3:atemp>18.0</ns3:atemp>
          </ns3:TrackPointExtension>
        </extensions>
      </trkpt>
      <trkpt lat="42.56402380764484405517578125" lon="20.0443449430167675018310546875">
        <ele>2084.199951171875</ele>
        <time>2026-06-15T12:36:15.000Z</time>
        <extensions>
          <ns3:TrackPointExtension>
            <ns3:atemp>18.0</ns3:atemp>
          </ns3:TrackPointExtension>
        </extensions>
      </trkpt>
      <trkpt lat="42.56401718594133853912353515625" lon="20.0443922169506549835205078125">
        <ele>2084.199951171875</ele>
        <time>2026-06-15T12:36:16.000Z</time>
        <extensions>
          <ns3:TrackPointExtension>
            <ns3:atemp>18.0</ns3:atemp>
          </ns3:TrackPointExtension>
        </extensions>
      </trkpt>
      <trkpt lat="42.56400444544851779937744140625" lon="20.04444577731192111968994140625">
        <ele>2084</ele>
        <time>2026-06-15T12:36:17.000Z</time>
        <extensions>
          <ns3:TrackPointExtension>
            <ns3:atemp>18.0</ns3:atemp>
          </ns3:TrackPointExtension>
        </extensions>
      </trkpt>
      <trkpt lat="42.56398499943315982818603515625" lon="20.04449673928320407867431640625">
        <ele>2083.60009765625</ele>
        <time>2026-06-15T12:36:18.000Z</time>
        <extensions>
          <ns3:TrackPointExtension>
            <ns3:atemp>18.0</ns3:atemp>
          </ns3:TrackPointExtension>
        </extensions>
      </trkpt>
      <trkpt lat="42.563957087695598602294921875" lon="20.04454568959772586822509765625">
        <ele>2083.199951171875</ele>
        <time>2026-06-15T12:36:19.000Z</time>
        <extensions>
          <ns3:TrackPointExtension>
            <ns3:atemp>18.0</ns3:atemp>
          </ns3:TrackPointExtension>
        </extensions>
      </trkpt>
      <trkpt lat="42.5639227218925952911376953125" lon="20.04460754804313182830810546875">
        <ele>2082.800048828125</ele>
        <time>2026-06-15T12:36:20.000Z</time>
        <extensions>
          <ns3:TrackPointExtension>
            <ns3:atemp>18.0</ns3:atemp>
          </ns3:TrackPointExtension>
        </extensions>
      </trkpt>
      <trkpt lat="42.56389598362147808074951171875" lon="20.0446782074868679046630859375">
        <ele>2082.39990234375</ele>
        <time>2026-06-15T12:36:21.000Z</time>
        <extensions>
          <ns3:TrackPointExtension>
            <ns3:atemp>18.0</ns3:atemp>
          </ns3:TrackPointExtension>
        </extensions>
      </trkpt>
      <trkpt lat="42.56387167610228061676025390625" lon="20.0447650440037250518798828125">
        <ele>2082.199951171875</ele>
        <time>2026-06-15T12:36:22.000Z</time>
        <extensions>
          <ns3:TrackPointExtension>
            <ns3:atemp>18.0</ns3:atemp>
          </ns3:TrackPointExtension>
        </extensions>
      </trkpt>
      <trkpt lat="42.563853822648525238037109375" lon="20.0448475219309329986572265625">
        <ele>2082</ele>
        <time>2026-06-15T12:36:23.000Z</time>
        <extensions>
          <ns3:TrackPointExtension>
            <ns3:atemp>18.0</ns3:atemp>
          </ns3:TrackPointExtension>
        </extensions>
      </trkpt>
      <trkpt lat="42.56384468637406826019287109375" lon="20.04492522217333316802978515625">
        <ele>2081.800048828125</ele>
        <time>2026-06-15T12:36:24.000Z</time>
        <extensions>
          <ns3:TrackPointExtension>
            <ns3:atemp>18.0</ns3:atemp>
          </ns3:TrackPointExtension>
        </extensions>
      </trkpt>
      <trkpt lat="42.56384485401213169097900390625" lon="20.0450007431209087371826171875">
        <ele>2081.800048828125</ele>
        <time>2026-06-15T12:36:25.000Z</time>
        <extensions>
          <ns3:TrackPointExtension>
            <ns3:atemp>18.0</ns3:atemp>
          </ns3:TrackPointExtension>
        </extensions>
      </trkpt>
      <trkpt lat="42.5638533197343349456787109375" lon="20.04507307894527912139892578125">
        <ele>2081.60009765625</ele>
        <time>2026-06-15T12:36:26.000Z</time>
        <extensions>
          <ns3:TrackPointExtension>
            <ns3:atemp>18.0</ns3:atemp>
          </ns3:TrackPointExtension>
        </extensions>
      </trkpt>
      <trkpt lat="42.56387201137840747833251953125" lon="20.04512554965913295745849609375">
        <ele>2081.60009765625</ele>
        <time>2026-06-15T12:36:27.000Z</time>
        <extensions>
          <ns3:TrackPointExtension>
            <ns3:atemp>18.0</ns3:atemp>
          </ns3:TrackPointExtension>
        </extensions>
      </trkpt>
      <trkpt lat="42.56389799527823925018310546875" lon="20.04516008310019969940185546875">
        <ele>2081.60009765625</ele>
        <time>2026-06-15T12:36:28.000Z</time>
        <extensions>
          <ns3:TrackPointExtension>
            <ns3:atemp>18.0</ns3:atemp>
          </ns3:TrackPointExtension>
        </extensions>
      </trkpt>
      <trkpt lat="42.56392397917807102203369140625" lon="20.04517835564911365509033203125">
        <ele>2081.60009765625</ele>
        <time>2026-06-15T12:36:29.000Z</time>
        <extensions>
          <ns3:TrackPointExtension>
            <ns3:atemp>18.0</ns3:atemp>
          </ns3:TrackPointExtension>
        </extensions>
      </trkpt>
      <trkpt lat="42.56394459865987300872802734375" lon="20.04518791101872920989990234375">
        <ele>2081.60009765625</ele>
        <time>2026-06-15T12:36:30.000Z</time>
        <extensions>
          <ns3:TrackPointExtension>
            <ns3:atemp>18.0</ns3:atemp>
          </ns3:TrackPointExtension>
        </extensions>
      </trkpt>
      <trkpt lat="42.5639710016548633575439453125" lon="20.04518891684710979461669921875">
        <ele>2081.800048828125</ele>
        <time>2026-06-15T12:36:31.000Z</time>
        <extensions>
          <ns3:TrackPointExtension>
            <ns3:atemp>18.0</ns3:atemp>
          </ns3:TrackPointExtension>
        </extensions>
      </trkpt>
      <trkpt lat="42.5639938004314899444580078125" lon="20.045178942382335662841796875">
        <ele>2082</ele>
        <time>2026-06-15T12:36:32.000Z</time>
        <extensions>
          <ns3:TrackPointExtension>
            <ns3:atemp>18.0</ns3:atemp>
          </ns3:TrackPointExtension>
        </extensions>
      </trkpt>
      <trkpt lat="42.56401240825653076171875" lon="20.04515924490988254547119140625">
        <ele>2082</ele>
        <time>2026-06-15T12:36:33.000Z</time>
        <extensions>
          <ns3:TrackPointExtension>
            <ns3:atemp>18.0</ns3:atemp>
          </ns3:TrackPointExtension>
        </extensions>
      </trkpt>
      <trkpt lat="42.564023472368717193603515625" lon="20.045135356485843658447265625">
        <ele>2082.199951171875</ele>
        <time>2026-06-15T12:36:34.000Z</time>
        <extensions>
          <ns3:TrackPointExtension>
            <ns3:atemp>18.0</ns3:atemp>
          </ns3:TrackPointExtension>
        </extensions>
      </trkpt>
      <trkpt lat="42.5640313513576984405517578125" lon="20.04510727711021900177001953125">
        <ele>2082.60009765625</ele>
        <time>2026-06-15T12:36:35.000Z</time>
        <extensions>
          <ns3:TrackPointExtension>
            <ns3:atemp>18.0</ns3:atemp>
          </ns3:TrackPointExtension>
        </extensions>
      </trkpt>
      <trkpt lat="42.56404392421245574951171875" lon="20.0450765155255794525146484375">
        <ele>2083</ele>
        <time>2026-06-15T12:36:36.000Z</time>
        <extensions>
          <ns3:TrackPointExtension>
            <ns3:atemp>18.0</ns3:atemp>
          </ns3:TrackPointExtension>
        </extensions>
      </trkpt>
      <trkpt lat="42.564052641391754150390625" lon="20.04504642449319362640380859375">
        <ele>2083.199951171875</ele>
        <time>2026-06-15T12:36:37.000Z</time>
        <extensions>
          <ns3:TrackPointExtension>
            <ns3:atemp>18.0</ns3:atemp>
          </ns3:TrackPointExtension>
        </extensions>
      </trkpt>
      <trkpt lat="42.56406412459909915924072265625" lon="20.04501356743276119232177734375">
        <ele>2083.60009765625</ele>
        <time>2026-06-15T12:36:38.000Z</time>
        <extensions>
          <ns3:TrackPointExtension>
            <ns3:atemp>18.0</ns3:atemp>
          </ns3:TrackPointExtension>
        </extensions>
      </trkpt>
      <trkpt lat="42.56407870911061763763427734375" lon="20.0449866615235805511474609375">
        <ele>2084</ele>
        <time>2026-06-15T12:36:39.000Z</time>
        <extensions>
          <ns3:TrackPointExtension>
            <ns3:atemp>18.0</ns3:atemp>
          </ns3:TrackPointExtension>
        </extensions>
      </trkpt>
      <trkpt lat="42.56409614346921443939208984375" lon="20.0449655391275882720947265625">
        <ele>2084.39990234375</ele>
        <time>2026-06-15T12:36:40.000Z</time>
        <extensions>
          <ns3:TrackPointExtension>
            <ns3:atemp>18.0</ns3:atemp>
          </ns3:TrackPointExtension>
        </extensions>
      </trkpt>
      <trkpt lat="42.56411206908524036407470703125" lon="20.04494282416999340057373046875">
        <ele>2084.800048828125</ele>
        <time>2026-06-15T12:36:41.000Z</time>
        <extensions>
          <ns3:TrackPointExtension>
            <ns3:atemp>18.0</ns3:atemp>
          </ns3:TrackPointExtension>
        </extensions>
      </trkpt>
      <trkpt lat="42.56412715651094913482666015625" lon="20.044913403689861297607421875">
        <ele>2085.199951171875</ele>
        <time>2026-06-15T12:36:42.000Z</time>
        <extensions>
          <ns3:TrackPointExtension>
            <ns3:atemp>18.0</ns3:atemp>
          </ns3:TrackPointExtension>
        </extensions>
      </trkpt>
      <trkpt lat="42.56413436494767665863037109375" lon="20.0448776967823505401611328125">
        <ele>2085.60009765625</ele>
        <time>2026-06-15T12:36:43.000Z</time>
        <extensions>
          <ns3:TrackPointExtension>
            <ns3:atemp>18.0</ns3:atemp>
          </ns3:TrackPointExtension>
        </extensions>
      </trkpt>
      <trkpt lat="42.56414006464183330535888671875" lon="20.0448448397219181060791015625">
        <ele>2086</ele>
        <time>2026-06-15T12:36:44.000Z</time>
        <extensions>
          <ns3:TrackPointExtension>
            <ns3:atemp>18.0</ns3:atemp>
          </ns3:TrackPointExtension>
        </extensions>
      </trkpt>
      <trkpt lat="42.564144842326641082763671875" lon="20.04481139592826366424560546875">
        <ele>2086.39990234375</ele>
        <time>2026-06-15T12:36:45.000Z</time>
        <extensions>
          <ns3:TrackPointExtension>
            <ns3:atemp>18.0</ns3:atemp>
          </ns3:TrackPointExtension>
        </extensions>
      </trkpt>
      <trkpt lat="42.56415188312530517578125" lon="20.04477920942008495330810546875">
        <ele>2086.800048828125</ele>
        <time>2026-06-15T12:36:46.000Z</time>
        <extensions>
          <ns3:TrackPointExtension>
            <ns3:atemp>18.0</ns3:atemp>
          </ns3:TrackPointExtension>
        </extensions>
      </trkpt>
      <trkpt lat="42.56415716372430324554443359375" lon="20.04474651999771595001220703125">
        <ele>2087.199951171875</ele>
        <time>2026-06-15T12:36:47.000Z</time>
        <extensions>
          <ns3:TrackPointExtension>
            <ns3:atemp>18.0</ns3:atemp>
          </ns3:TrackPointExtension>
        </extensions>
      </trkpt>
      <trkpt lat="42.5641624443233013153076171875" lon="20.04471324384212493896484375">
        <ele>2087.60009765625</ele>
        <time>2026-06-15T12:36:48.000Z</time>
        <extensions>
          <ns3:TrackPointExtension>
            <ns3:atemp>18.0</ns3:atemp>
          </ns3:TrackPointExtension>
        </extensions>
      </trkpt>
      <trkpt lat="42.56416688673198223114013671875" lon="20.04467594437301158905029296875">
        <ele>2087.800048828125</ele>
        <time>2026-06-15T12:36:49.000Z</time>
        <extensions>
          <ns3:TrackPointExtension>
            <ns3:atemp>18.0</ns3:atemp>
          </ns3:TrackPointExtension>
        </extensions>
      </trkpt>
      <trkpt lat="42.56416990421712398529052734375" lon="20.04463856108486652374267578125">
        <ele>2088.199951171875</ele>
        <time>2026-06-15T12:36:50.000Z</time>
        <extensions>
          <ns3:TrackPointExtension>
            <ns3:atemp>18.0</ns3:atemp>
          </ns3:TrackPointExtension>
        </extensions>
      </trkpt>
      <trkpt lat="42.56417627446353435516357421875" lon="20.04460168071091175079345703125">
        <ele>2088.39990234375</ele>
        <time>2026-06-15T12:36:51.000Z</time>
        <extensions>
          <ns3:TrackPointExtension>
            <ns3:atemp>18.0</ns3:atemp>
          </ns3:TrackPointExtension>
        </extensions>
      </trkpt>
      <trkpt lat="42.56418415345251560211181640625" lon="20.04456094466149806976318359375">
        <ele>2088.800048828125</ele>
        <time>2026-06-15T12:36:52.000Z</time>
        <extensions>
          <ns3:TrackPointExtension>
            <ns3:atemp>18.0</ns3:atemp>
          </ns3:TrackPointExtension>
        </extensions>
      </trkpt>
      <trkpt lat="42.5641929544508457183837890625" lon="20.0445253215730190277099609375">
        <ele>2089</ele>
        <time>2026-06-15T12:36:53.000Z</time>
        <extensions>
          <ns3:TrackPointExtension>
            <ns3:atemp>18.0</ns3:atemp>
          </ns3:TrackPointExtension>
        </extensions>
      </trkpt>
      <trkpt lat="42.564205862581729888916015625" lon="20.044493637979030609130859375">
        <ele>2089.39990234375</ele>
        <time>2026-06-15T12:36:54.000Z</time>
        <extensions>
          <ns3:TrackPointExtension>
            <ns3:atemp>18.0</ns3:atemp>
          </ns3:TrackPointExtension>
        </extensions>
      </trkpt>
      <trkpt lat="42.56422354839742183685302734375" lon="20.04446513950824737548828125">
        <ele>2089.60009765625</ele>
        <time>2026-06-15T12:36:55.000Z</time>
        <extensions>
          <ns3:TrackPointExtension>
            <ns3:atemp>18.0</ns3:atemp>
          </ns3:TrackPointExtension>
        </extensions>
      </trkpt>
      <trkpt lat="42.564236707985401153564453125" lon="20.0444368086755275726318359375">
        <ele>2090</ele>
        <time>2026-06-15T12:36:56.000Z</time>
        <extensions>
          <ns3:TrackPointExtension>
            <ns3:atemp>18.0</ns3:atemp>
          </ns3:TrackPointExtension>
        </extensions>
      </trkpt>
      <trkpt lat="42.5642526336014270782470703125" lon="20.04441082477569580078125">
        <ele>2090.39990234375</ele>
        <time>2026-06-15T12:36:57.000Z</time>
        <extensions>
          <ns3:TrackPointExtension>
            <ns3:atemp>18.0</ns3:atemp>
          </ns3:TrackPointExtension>
        </extensions>
      </trkpt>
      <trkpt lat="42.5642697326838970184326171875" lon="20.04437863826751708984375">
        <ele>2091</ele>
        <time>2026-06-15T12:36:58.000Z</time>
        <extensions>
          <ns3:TrackPointExtension>
            <ns3:atemp>18.0</ns3:atemp>
          </ns3:TrackPointExtension>
        </extensions>
      </trkpt>
      <trkpt lat="42.56428305990993976593017578125" lon="20.0443459488451480865478515625">
        <ele>2091.39990234375</ele>
        <time>2026-06-15T12:36:59.000Z</time>
        <extensions>
          <ns3:TrackPointExtension>
            <ns3:atemp>18.0</ns3:atemp>
          </ns3:TrackPointExtension>
        </extensions>
      </trkpt>
      <trkpt lat="42.56429311819374561309814453125" lon="20.04431401379406452178955078125">
        <ele>2091.60009765625</ele>
        <time>2026-06-15T12:37:00.000Z</time>
        <extensions>
          <ns3:TrackPointExtension>
            <ns3:atemp>18.0</ns3:atemp>
          </ns3:TrackPointExtension>
        </extensions>
      </trkpt>
      <trkpt lat="42.56430284120142459869384765625" lon="20.04427746869623661041259765625">
        <ele>2092</ele>
        <time>2026-06-15T12:37:01.000Z</time>
        <extensions>
          <ns3:TrackPointExtension>
            <ns3:atemp>18.0</ns3:atemp>
          </ns3:TrackPointExtension>
        </extensions>
      </trkpt>
      <trkpt lat="42.564311809837818145751953125" lon="20.04424259997904300689697265625">
        <ele>2092.39990234375</ele>
        <time>2026-06-15T12:37:02.000Z</time>
        <extensions>
          <ns3:TrackPointExtension>
            <ns3:atemp>18.0</ns3:atemp>
          </ns3:TrackPointExtension>
        </extensions>
      </trkpt>
      <trkpt lat="42.564319856464862823486328125" lon="20.04420672543346881866455078125">
        <ele>2092.800048828125</ele>
        <time>2026-06-15T12:37:03.000Z</time>
        <extensions>
          <ns3:TrackPointExtension>
            <ns3:atemp>18.0</ns3:atemp>
          </ns3:TrackPointExtension>
        </extensions>
      </trkpt>
      <trkpt lat="42.56432848982512950897216796875" lon="20.0441685877740383148193359375">
        <ele>2093.199951171875</ele>
        <time>2026-06-15T12:37:04.000Z</time>
        <extensions>
          <ns3:TrackPointExtension>
            <ns3:atemp>18.0</ns3:atemp>
          </ns3:TrackPointExtension>
        </extensions>
      </trkpt>
      <trkpt lat="42.56433921866118907928466796875" lon="20.04413464106619358062744140625">
        <ele>2093.39990234375</ele>
        <time>2026-06-15T12:37:05.000Z</time>
        <extensions>
          <ns3:TrackPointExtension>
            <ns3:atemp>18.0</ns3:atemp>
          </ns3:TrackPointExtension>
        </extensions>
      </trkpt>
      <trkpt lat="42.5643518753349781036376953125" lon="20.04409843124449253082275390625">
        <ele>2094</ele>
        <time>2026-06-15T12:37:06.000Z</time>
        <extensions>
          <ns3:TrackPointExtension>
            <ns3:atemp>18.0</ns3:atemp>
          </ns3:TrackPointExtension>
        </extensions>
      </trkpt>
      <trkpt lat="42.56436319090425968170166015625" lon="20.044061131775379180908203125">
        <ele>2094.39990234375</ele>
        <time>2026-06-15T12:37:07.000Z</time>
        <extensions>
          <ns3:TrackPointExtension>
            <ns3:atemp>18.0</ns3:atemp>
          </ns3:TrackPointExtension>
        </extensions>
      </trkpt>
      <trkpt lat="42.5643703155219554901123046875" lon="20.044022910296916961669921875">
        <ele>2094.60009765625</ele>
        <time>2026-06-15T12:37:08.000Z</time>
        <extensions>
          <ns3:TrackPointExtension>
            <ns3:atemp>18.0</ns3:atemp>
          </ns3:TrackPointExtension>
        </extensions>
      </trkpt>
      <trkpt lat="42.56437559612095355987548828125" lon="20.04398058168590068817138671875">
        <ele>2095</ele>
        <time>2026-06-15T12:37:09.000Z</time>
        <extensions>
          <ns3:TrackPointExtension>
            <ns3:atemp>18.0</ns3:atemp>
          </ns3:TrackPointExtension>
        </extensions>
      </trkpt>
      <trkpt lat="42.56437643431127071380615234375" lon="20.04394118674099445343017578125">
        <ele>2095.199951171875</ele>
        <time>2026-06-15T12:37:10.000Z</time>
        <extensions>
          <ns3:TrackPointExtension>
            <ns3:atemp>18.0</ns3:atemp>
          </ns3:TrackPointExtension>
        </extensions>
      </trkpt>
      <trkpt lat="42.564369142055511474609375" lon="20.04390330053865909576416015625">
        <ele>2095.60009765625</ele>
        <time>2026-06-15T12:37:11.000Z</time>
        <extensions>
          <ns3:TrackPointExtension>
            <ns3:atemp>18.0</ns3:atemp>
          </ns3:TrackPointExtension>
        </extensions>
      </trkpt>
      <trkpt lat="42.56435749121010303497314453125" lon="20.04386357031762599945068359375">
        <ele>2095.800048828125</ele>
        <time>2026-06-15T12:37:12.000Z</time>
        <extensions>
          <ns3:TrackPointExtension>
            <ns3:atemp>18.0</ns3:atemp>
          </ns3:TrackPointExtension>
        </extensions>
      </trkpt>
      <trkpt lat="42.56434676237404346466064453125" lon="20.04382945597171783447265625">
        <ele>2096.199951171875</ele>
        <time>2026-06-15T12:37:13.000Z</time>
        <extensions>
          <ns3:TrackPointExtension>
            <ns3:atemp>18.0</ns3:atemp>
          </ns3:TrackPointExtension>
        </extensions>
      </trkpt>
      <trkpt lat="42.5643334351480007171630859375" lon="20.0438001193106174468994140625">
        <ele>2096.39990234375</ele>
        <time>2026-06-15T12:37:14.000Z</time>
        <extensions>
          <ns3:TrackPointExtension>
            <ns3:atemp>18.0</ns3:atemp>
          </ns3:TrackPointExtension>
        </extensions>
      </trkpt>
      <trkpt lat="42.56432044319808483123779296875" lon="20.0437645800411701202392578125">
        <ele>2096.800048828125</ele>
        <time>2026-06-15T12:37:15.000Z</time>
        <extensions>
          <ns3:TrackPointExtension>
            <ns3:atemp>18.0</ns3:atemp>
          </ns3:TrackPointExtension>
        </extensions>
      </trkpt>
      <trkpt lat="42.5643074512481689453125" lon="20.04373046569526195526123046875">
        <ele>2097</ele>
        <time>2026-06-15T12:37:16.000Z</time>
        <extensions>
          <ns3:TrackPointExtension>
            <ns3:atemp>18.0</ns3:atemp>
          </ns3:TrackPointExtension>
        </extensions>
      </trkpt>
      <trkpt lat="42.56429395638406276702880859375" lon="20.04369459114968776702880859375">
        <ele>2097.39990234375</ele>
        <time>2026-06-15T12:37:17.000Z</time>
        <extensions>
          <ns3:TrackPointExtension>
            <ns3:atemp>18.0</ns3:atemp>
          </ns3:TrackPointExtension>
        </extensions>
      </trkpt>
      <trkpt lat="42.56427937187254428863525390625" lon="20.04366240464150905609130859375">
        <ele>2097.60009765625</ele>
        <time>2026-06-15T12:37:18.000Z</time>
        <extensions>
          <ns3:TrackPointExtension>
            <ns3:atemp>18.0</ns3:atemp>
          </ns3:TrackPointExtension>
        </extensions>
      </trkpt>
      <trkpt lat="42.5642643682658672332763671875" lon="20.043627284467220306396484375">
        <ele>2097.800048828125</ele>
        <time>2026-06-15T12:37:19.000Z</time>
        <extensions>
          <ns3:TrackPointExtension>
            <ns3:atemp>18.0</ns3:atemp>
          </ns3:TrackPointExtension>
        </extensions>
      </trkpt>
      <trkpt lat="42.56424886174499988555908203125" lon="20.04359702579677104949951171875">
        <ele>2098</ele>
        <time>2026-06-15T12:37:20.000Z</time>
        <extensions>
          <ns3:TrackPointExtension>
            <ns3:atemp>18.0</ns3:atemp>
          </ns3:TrackPointExtension>
        </extensions>
      </trkpt>
      <trkpt lat="42.564233355224132537841796875" lon="20.04356601275503635406494140625">
        <ele>2098.199951171875</ele>
        <time>2026-06-15T12:37:21.000Z</time>
        <extensions>
          <ns3:TrackPointExtension>
            <ns3:atemp>18.0</ns3:atemp>
          </ns3:TrackPointExtension>
        </extensions>
      </trkpt>
      <trkpt lat="42.564217932522296905517578125" lon="20.04353282041847705841064453125">
        <ele>2098.39990234375</ele>
        <time>2026-06-15T12:37:22.000Z</time>
        <extensions>
          <ns3:TrackPointExtension>
            <ns3:atemp>18.0</ns3:atemp>
          </ns3:TrackPointExtension>
        </extensions>
      </trkpt>
      <trkpt lat="42.56420326419174671173095703125" lon="20.04349862225353717803955078125">
        <ele>2098.60009765625</ele>
        <time>2026-06-15T12:37:23.000Z</time>
        <extensions>
          <ns3:TrackPointExtension>
            <ns3:atemp>18.0</ns3:atemp>
          </ns3:TrackPointExtension>
        </extensions>
      </trkpt>
      <trkpt lat="42.564188428223133087158203125" lon="20.04346224479377269744873046875">
        <ele>2098.800048828125</ele>
        <time>2026-06-15T12:37:24.000Z</time>
        <extensions>
          <ns3:TrackPointExtension>
            <ns3:atemp>18.0</ns3:atemp>
          </ns3:TrackPointExtension>
        </extensions>
      </trkpt>
      <trkpt lat="42.56417308934032917022705078125" lon="20.04342519678175449371337890625">
        <ele>2099</ele>
        <time>2026-06-15T12:37:25.000Z</time>
        <extensions>
          <ns3:TrackPointExtension>
            <ns3:atemp>18.0</ns3:atemp>
          </ns3:TrackPointExtension>
        </extensions>
      </trkpt>
      <trkpt lat="42.56415791809558868408203125" lon="20.04338831640779972076416015625">
        <ele>2099.199951171875</ele>
        <time>2026-06-15T12:37:26.000Z</time>
        <extensions>
          <ns3:TrackPointExtension>
            <ns3:atemp>18.0</ns3:atemp>
          </ns3:TrackPointExtension>
        </extensions>
      </trkpt>
      <trkpt lat="42.56414392031729221343994140625" lon="20.043352358043193817138671875">
        <ele>2099.39990234375</ele>
        <time>2026-06-15T12:37:27.000Z</time>
        <extensions>
          <ns3:TrackPointExtension>
            <ns3:atemp>18.0</ns3:atemp>
          </ns3:TrackPointExtension>
        </extensions>
      </trkpt>
      <trkpt lat="42.56413017399609088897705078125" lon="20.04331338219344615936279296875">
        <ele>2099.60009765625</ele>
        <time>2026-06-15T12:37:28.000Z</time>
        <extensions>
          <ns3:TrackPointExtension>
            <ns3:atemp>18.0</ns3:atemp>
          </ns3:TrackPointExtension>
        </extensions>
      </trkpt>
      <trkpt lat="42.564116679131984710693359375" lon="20.0432757474482059478759765625">
        <ele>2099.800048828125</ele>
        <time>2026-06-15T12:37:29.000Z</time>
        <extensions>
          <ns3:TrackPointExtension>
            <ns3:atemp>18.0</ns3:atemp>
          </ns3:TrackPointExtension>
        </extensions>
      </trkpt>
      <trkpt lat="42.564105279743671417236328125" lon="20.04324129782617092132568359375">
        <ele>2100</ele>
        <time>2026-06-15T12:37:30.000Z</time>
        <extensions>
          <ns3:TrackPointExtension>
            <ns3:atemp>18.0</ns3:atemp>
          </ns3:TrackPointExtension>
        </extensions>
      </trkpt>
      <trkpt lat="42.5640937127172946929931640625" lon="20.043206512928009033203125">
        <ele>2100.199951171875</ele>
        <time>2026-06-15T12:37:31.000Z</time>
        <extensions>
          <ns3:TrackPointExtension>
            <ns3:atemp>18.0</ns3:atemp>
          </ns3:TrackPointExtension>
        </extensions>
      </trkpt>
      <trkpt lat="42.5640786252915859222412109375" lon="20.0431731529533863067626953125">
        <ele>2100.39990234375</ele>
        <time>2026-06-15T12:37:32.000Z</time>
        <extensions>
          <ns3:TrackPointExtension>
            <ns3:atemp>18.0</ns3:atemp>
          </ns3:TrackPointExtension>
        </extensions>
      </trkpt>
      <trkpt lat="42.56406261585652828216552734375" lon="20.0431379489600658416748046875">
        <ele>2100.60009765625</ele>
        <time>2026-06-15T12:37:33.000Z</time>
        <extensions>
          <ns3:TrackPointExtension>
            <ns3:atemp>18.0</ns3:atemp>
          </ns3:TrackPointExtension>
        </extensions>
      </trkpt>
      <trkpt lat="42.56404467858374118804931640625" lon="20.043106265366077423095703125">
        <ele>2100.800048828125</ele>
        <time>2026-06-15T12:37:34.000Z</time>
        <extensions>
          <ns3:TrackPointExtension>
            <ns3:atemp>18.0</ns3:atemp>
          </ns3:TrackPointExtension>
        </extensions>
      </trkpt>
      <trkpt lat="42.56402590312063694000244140625" lon="20.0430791079998016357421875">
        <ele>2101</ele>
        <time>2026-06-15T12:37:35.000Z</time>
        <extensions>
          <ns3:TrackPointExtension>
            <ns3:atemp>18.0</ns3:atemp>
          </ns3:TrackPointExtension>
        </extensions>
      </trkpt>
      <trkpt lat="42.5640045292675495147705078125" lon="20.043053291738033294677734375">
        <ele>2101.199951171875</ele>
        <time>2026-06-15T12:37:36.000Z</time>
        <extensions>
          <ns3:TrackPointExtension>
            <ns3:atemp>18.0</ns3:atemp>
          </ns3:TrackPointExtension>
        </extensions>
      </trkpt>
      <trkpt lat="42.56398013792932033538818359375" lon="20.0430323369801044464111328125">
        <ele>2101.199951171875</ele>
        <time>2026-06-15T12:37:37.000Z</time>
        <extensions>
          <ns3:TrackPointExtension>
            <ns3:atemp>18.0</ns3:atemp>
          </ns3:TrackPointExtension>
        </extensions>
      </trkpt>
      <trkpt lat="42.56395784206688404083251953125" lon="20.043016411364078521728515625">
        <ele>2101.39990234375</ele>
        <time>2026-06-15T12:37:38.000Z</time>
        <extensions>
          <ns3:TrackPointExtension>
            <ns3:atemp>18.0</ns3:atemp>
          </ns3:TrackPointExtension>
        </extensions>
      </trkpt>
      <trkpt lat="42.56393386982381343841552734375" lon="20.04299503751099109649658203125">
        <ele>2101.39990234375</ele>
        <time>2026-06-15T12:37:39.000Z</time>
        <extensions>
          <ns3:TrackPointExtension>
            <ns3:atemp>18.0</ns3:atemp>
          </ns3:TrackPointExtension>
        </extensions>
      </trkpt>
      <trkpt lat="42.56391073577105998992919921875" lon="20.0429753400385379791259765625">
        <ele>2101.60009765625</ele>
        <time>2026-06-15T12:37:40.000Z</time>
        <extensions>
          <ns3:TrackPointExtension>
            <ns3:atemp>18.0</ns3:atemp>
          </ns3:TrackPointExtension>
        </extensions>
      </trkpt>
      <trkpt lat="42.5638888590037822723388671875" lon="20.04295463673770427703857421875">
        <ele>2101.60009765625</ele>
        <time>2026-06-15T12:37:41.000Z</time>
        <extensions>
          <ns3:TrackPointExtension>
            <ns3:atemp>18.0</ns3:atemp>
          </ns3:TrackPointExtension>
        </extensions>
      </trkpt>
      <trkpt lat="42.5638684071600437164306640625" lon="20.04292882047593593597412109375">
        <ele>2101.800048828125</ele>
        <time>2026-06-15T12:37:42.000Z</time>
        <extensions>
          <ns3:TrackPointExtension>
            <ns3:atemp>18.0</ns3:atemp>
          </ns3:TrackPointExtension>
        </extensions>
      </trkpt>
      <trkpt lat="42.56384485401213169097900390625" lon="20.04290065728127956390380859375">
        <ele>2101.800048828125</ele>
        <time>2026-06-15T12:37:43.000Z</time>
        <extensions>
          <ns3:TrackPointExtension>
            <ns3:atemp>18.0</ns3:atemp>
          </ns3:TrackPointExtension>
        </extensions>
      </trkpt>
      <trkpt lat="42.56382004357874393463134765625" lon="20.04286922514438629150390625">
        <ele>2101.800048828125</ele>
        <time>2026-06-15T12:37:44.000Z</time>
        <extensions>
          <ns3:TrackPointExtension>
            <ns3:atemp>18.0</ns3:atemp>
          </ns3:TrackPointExtension>
        </extensions>
      </trkpt>
      <trkpt lat="42.56379892118275165557861328125" lon="20.04283494316041469573974609375">
        <ele>2101.800048828125</ele>
        <time>2026-06-15T12:37:45.000Z</time>
        <extensions>
          <ns3:TrackPointExtension>
            <ns3:atemp>18.0</ns3:atemp>
          </ns3:TrackPointExtension>
        </extensions>
      </trkpt>
      <trkpt lat="42.56377981044352054595947265625" lon="20.04279957152903079986572265625">
        <ele>2101.800048828125</ele>
        <time>2026-06-15T12:37:46.000Z</time>
        <extensions>
          <ns3:TrackPointExtension>
            <ns3:atemp>18.0</ns3:atemp>
          </ns3:TrackPointExtension>
        </extensions>
      </trkpt>
      <trkpt lat="42.563763968646526336669921875" lon="20.0427597574889659881591796875">
        <ele>2102</ele>
        <time>2026-06-15T12:37:47.000Z</time>
        <extensions>
          <ns3:TrackPointExtension>
            <ns3:atemp>18.0</ns3:atemp>
          </ns3:TrackPointExtension>
        </extensions>
      </trkpt>
      <trkpt lat="42.56375097669661045074462890625" lon="20.042721368372440338134765625">
        <ele>2102</ele>
        <time>2026-06-15T12:37:48.000Z</time>
        <extensions>
          <ns3:TrackPointExtension>
            <ns3:atemp>18.0</ns3:atemp>
          </ns3:TrackPointExtension>
        </extensions>
      </trkpt>
      <trkpt lat="42.56374360062181949615478515625" lon="20.04267937503755092620849609375">
        <ele>2102</ele>
        <time>2026-06-15T12:37:49.000Z</time>
        <extensions>
          <ns3:TrackPointExtension>
            <ns3:atemp>18.0</ns3:atemp>
          </ns3:TrackPointExtension>
        </extensions>
      </trkpt>
      <trkpt lat="42.56372331641614437103271484375" lon="20.04263444803655147552490234375">
        <ele>2102.199951171875</ele>
        <time>2026-06-15T12:37:50.000Z</time>
        <extensions>
          <ns3:TrackPointExtension>
            <ns3:atemp>18.0</ns3:atemp>
          </ns3:TrackPointExtension>
        </extensions>
      </trkpt>
      <trkpt lat="42.56369465030729770660400390625" lon="20.0426001660525798797607421875">
        <ele>2102.199951171875</ele>
        <time>2026-06-15T12:37:51.000Z</time>
        <extensions>
          <ns3:TrackPointExtension>
            <ns3:atemp>18.0</ns3:atemp>
          </ns3:TrackPointExtension>
        </extensions>
      </trkpt>
      <trkpt lat="42.5636709295213222503662109375" lon="20.04258130677044391632080078125">
        <ele>2102.199951171875</ele>
        <time>2026-06-15T12:37:52.000Z</time>
        <extensions>
          <ns3:TrackPointExtension>
            <ns3:atemp>18.0</ns3:atemp>
          </ns3:TrackPointExtension>
        </extensions>
      </trkpt>
      <trkpt lat="42.56364402361214160919189453125" lon="20.042561776936054229736328125">
        <ele>2102.39990234375</ele>
        <time>2026-06-15T12:37:53.000Z</time>
        <extensions>
          <ns3:TrackPointExtension>
            <ns3:atemp>18.0</ns3:atemp>
          </ns3:TrackPointExtension>
        </extensions>
      </trkpt>
      <trkpt lat="42.563627175986766815185546875" lon="20.04253604449331760406494140625">
        <ele>2102.39990234375</ele>
        <time>2026-06-15T12:37:54.000Z</time>
        <extensions>
          <ns3:TrackPointExtension>
            <ns3:atemp>18.0</ns3:atemp>
          </ns3:TrackPointExtension>
        </extensions>
      </trkpt>
      <trkpt lat="42.5636082328855991363525390625" lon="20.04250788129866123199462890625">
        <ele>2102.60009765625</ele>
        <time>2026-06-15T12:37:55.000Z</time>
        <extensions>
          <ns3:TrackPointExtension>
            <ns3:atemp>18.0</ns3:atemp>
          </ns3:TrackPointExtension>
        </extensions>
      </trkpt>
      <trkpt lat="42.56359088234603404998779296875" lon="20.042466558516025543212890625">
        <ele>2102.800048828125</ele>
        <time>2026-06-15T12:37:56.000Z</time>
        <extensions>
          <ns3:TrackPointExtension>
            <ns3:atemp>18.0</ns3:atemp>
          </ns3:TrackPointExtension>
        </extensions>
      </trkpt>
      <trkpt lat="42.5635837577283382415771484375" lon="20.0424184463918209075927734375">
        <ele>2103</ele>
        <time>2026-06-15T12:37:57.000Z</time>
        <extensions>
          <ns3:TrackPointExtension>
            <ns3:atemp>18.0</ns3:atemp>
          </ns3:TrackPointExtension>
        </extensions>
      </trkpt>
      <trkpt lat="42.56357361562550067901611328125" lon="20.04237762652337551116943359375">
        <ele>2103.199951171875</ele>
        <time>2026-06-15T12:37:58.000Z</time>
        <extensions>
          <ns3:TrackPointExtension>
            <ns3:atemp>18.0</ns3:atemp>
          </ns3:TrackPointExtension>
        </extensions>
      </trkpt>
      <trkpt lat="42.56356104277074337005615234375" lon="20.042337812483310699462890625">
        <ele>2103.39990234375</ele>
        <time>2026-06-15T12:37:59.000Z</time>
        <extensions>
          <ns3:TrackPointExtension>
            <ns3:atemp>18.0</ns3:atemp>
          </ns3:TrackPointExtension>
        </extensions>
      </trkpt>
      <trkpt lat="42.56354235112667083740234375" lon="20.0423037819564342498779296875">
        <ele>2103.39990234375</ele>
        <time>2026-06-15T12:38:00.000Z</time>
        <extensions>
          <ns3:TrackPointExtension>
            <ns3:atemp>18.0</ns3:atemp>
          </ns3:TrackPointExtension>
        </extensions>
      </trkpt>
      <trkpt lat="42.56351846270263195037841796875" lon="20.04227587021887302398681640625">
        <ele>2103.60009765625</ele>
        <time>2026-06-15T12:38:01.000Z</time>
        <extensions>
          <ns3:TrackPointExtension>
            <ns3:atemp>18.0</ns3:atemp>
          </ns3:TrackPointExtension>
        </extensions>
      </trkpt>
      <trkpt lat="42.56349566392600536346435546875" lon="20.0422474555671215057373046875">
        <ele>2103.60009765625</ele>
        <time>2026-06-15T12:38:02.000Z</time>
        <extensions>
          <ns3:TrackPointExtension>
            <ns3:atemp>18.0</ns3:atemp>
          </ns3:TrackPointExtension>
        </extensions>
      </trkpt>
      <trkpt lat="42.56347152404487133026123046875" lon="20.04221635870635509490966796875">
        <ele>2103.60009765625</ele>
        <time>2026-06-15T12:38:03.000Z</time>
        <extensions>
          <ns3:TrackPointExtension>
            <ns3:atemp>18.0</ns3:atemp>
          </ns3:TrackPointExtension>
        </extensions>
      </trkpt>
      <trkpt lat="42.5634513236582279205322265625" lon="20.04218433983623981475830078125">
        <ele>2103.60009765625</ele>
        <time>2026-06-15T12:38:04.000Z</time>
        <extensions>
          <ns3:TrackPointExtension>
            <ns3:atemp>18.0</ns3:atemp>
          </ns3:TrackPointExtension>
        </extensions>
      </trkpt>
      <trkpt lat="42.56342693231999874114990234375" lon="20.04215500317513942718505859375">
        <ele>2103.800048828125</ele>
        <time>2026-06-15T12:38:05.000Z</time>
        <extensions>
          <ns3:TrackPointExtension>
            <ns3:atemp>18.0</ns3:atemp>
          </ns3:TrackPointExtension>
        </extensions>
      </trkpt>
      <trkpt lat="42.5634043850004673004150390625" lon="20.0421190448105335235595703125">
        <ele>2103.800048828125</ele>
        <time>2026-06-15T12:38:06.000Z</time>
        <extensions>
          <ns3:TrackPointExtension>
            <ns3:atemp>18.0</ns3:atemp>
          </ns3:TrackPointExtension>
        </extensions>
      </trkpt>
      <trkpt lat="42.56339239887893199920654296875" lon="20.04207663238048553466796875">
        <ele>2103.800048828125</ele>
        <time>2026-06-15T12:38:07.000Z</time>
        <extensions>
          <ns3:TrackPointExtension>
            <ns3:atemp>18.0</ns3:atemp>
          </ns3:TrackPointExtension>
        </extensions>
      </trkpt>
      <trkpt lat="42.56338141858577728271484375" lon="20.04203363321721553802490234375">
        <ele>2103.800048828125</ele>
        <time>2026-06-15T12:38:08.000Z</time>
        <extensions>
          <ns3:TrackPointExtension>
            <ns3:atemp>18.0</ns3:atemp>
          </ns3:TrackPointExtension>
        </extensions>
      </trkpt>
      <trkpt lat="42.563365995883941650390625" lon="20.04199507646262645721435546875">
        <ele>2103.800048828125</ele>
        <time>2026-06-15T12:38:09.000Z</time>
        <extensions>
          <ns3:TrackPointExtension>
            <ns3:atemp>18.0</ns3:atemp>
          </ns3:TrackPointExtension>
        </extensions>
      </trkpt>
      <trkpt lat="42.56334730423986911773681640625" lon="20.04196154884994029998779296875">
        <ele>2103.800048828125</ele>
        <time>2026-06-15T12:38:10.000Z</time>
        <extensions>
          <ns3:TrackPointExtension>
            <ns3:atemp>18.0</ns3:atemp>
          </ns3:TrackPointExtension>
        </extensions>
      </trkpt>
      <trkpt lat="42.5633333064615726470947265625" lon="20.0419239141047000885009765625">
        <ele>2104</ele>
        <time>2026-06-15T12:38:11.000Z</time>
        <extensions>
          <ns3:TrackPointExtension>
            <ns3:atemp>18.0</ns3:atemp>
          </ns3:TrackPointExtension>
        </extensions>
      </trkpt>
      <trkpt lat="42.56332785822451114654541015625" lon="20.0418840162456035614013671875">
        <ele>2104</ele>
        <time>2026-06-15T12:38:12.000Z</time>
        <extensions>
          <ns3:TrackPointExtension>
            <ns3:atemp>18.0</ns3:atemp>
          </ns3:TrackPointExtension>
        </extensions>
      </trkpt>
      <trkpt lat="42.56332601420581340789794921875" lon="20.04183582030236721038818359375">
        <ele>2104</ele>
        <time>2026-06-15T12:38:13.000Z</time>
        <extensions>
          <ns3:TrackPointExtension>
            <ns3:atemp>18.0</ns3:atemp>
          </ns3:TrackPointExtension>
        </extensions>
      </trkpt>
      <trkpt lat="42.56331562064588069915771484375" lon="20.04178519360721111297607421875">
        <ele>2104</ele>
        <time>2026-06-15T12:38:14.000Z</time>
        <extensions>
          <ns3:TrackPointExtension>
            <ns3:atemp>18.0</ns3:atemp>
          </ns3:TrackPointExtension>
        </extensions>
      </trkpt>
      <trkpt lat="42.5632989406585693359375" lon="20.0417368300259113311767578125">
        <ele>2103.800048828125</ele>
        <time>2026-06-15T12:38:15.000Z</time>
        <extensions>
          <ns3:TrackPointExtension>
            <ns3:atemp>18.0</ns3:atemp>
          </ns3:TrackPointExtension>
        </extensions>
      </trkpt>
      <trkpt lat="42.5632799975574016571044921875" lon="20.04169483669102191925048828125">
        <ele>2103.800048828125</ele>
        <time>2026-06-15T12:38:16.000Z</time>
        <extensions>
          <ns3:TrackPointExtension>
            <ns3:atemp>18.0</ns3:atemp>
          </ns3:TrackPointExtension>
        </extensions>
      </trkpt>
      <trkpt lat="42.56325912661850452423095703125" lon="20.04165963269770145416259765625">
        <ele>2103.60009765625</ele>
        <time>2026-06-15T12:38:17.000Z</time>
        <extensions>
          <ns3:TrackPointExtension>
            <ns3:atemp>18.0</ns3:atemp>
          </ns3:TrackPointExtension>
        </extensions>
      </trkpt>
      <trkpt lat="42.5632387585937976837158203125" lon="20.041630379855632781982421875">
        <ele>2103.60009765625</ele>
        <time>2026-06-15T12:38:18.000Z</time>
        <extensions>
          <ns3:TrackPointExtension>
            <ns3:atemp>18.0</ns3:atemp>
          </ns3:TrackPointExtension>
        </extensions>
      </trkpt>
      <trkpt lat="42.5632236711680889129638671875" lon="20.041590146720409393310546875">
        <ele>2103.800048828125</ele>
        <time>2026-06-15T12:38:19.000Z</time>
        <extensions>
          <ns3:TrackPointExtension>
            <ns3:atemp>18.0</ns3:atemp>
          </ns3:TrackPointExtension>
        </extensions>
      </trkpt>
      <trkpt lat="42.56321487016975879669189453125" lon="20.04154563881456851959228515625">
        <ele>2103.800048828125</ele>
        <time>2026-06-15T12:38:20.000Z</time>
        <extensions>
          <ns3:TrackPointExtension>
            <ns3:atemp>18.0</ns3:atemp>
          </ns3:TrackPointExtension>
        </extensions>
      </trkpt>
      <trkpt lat="42.56321168504655361175537109375" lon="20.0415001250803470611572265625">
        <ele>2103.800048828125</ele>
        <time>2026-06-15T12:38:21.000Z</time>
        <extensions>
          <ns3:TrackPointExtension>
            <ns3:atemp>18.0</ns3:atemp>
          </ns3:TrackPointExtension>
        </extensions>
      </trkpt>
      <trkpt lat="42.5632055662572383880615234375" lon="20.04145209677517414093017578125">
        <ele>2103.60009765625</ele>
        <time>2026-06-15T12:38:22.000Z</time>
        <extensions>
          <ns3:TrackPointExtension>
            <ns3:atemp>18.0</ns3:atemp>
          </ns3:TrackPointExtension>
        </extensions>
      </trkpt>
      <trkpt lat="42.563194334506988525390625" lon="20.04139509983360767364501953125">
        <ele>2103.60009765625</ele>
        <time>2026-06-15T12:38:23.000Z</time>
        <extensions>
          <ns3:TrackPointExtension>
            <ns3:atemp>18.0</ns3:atemp>
          </ns3:TrackPointExtension>
        </extensions>
      </trkpt>
      <trkpt lat="42.5631898082792758941650390625" lon="20.04133005626499652862548828125">
        <ele>2103.39990234375</ele>
        <time>2026-06-15T12:38:24.000Z</time>
        <extensions>
          <ns3:TrackPointExtension>
            <ns3:atemp>18.0</ns3:atemp>
          </ns3:TrackPointExtension>
        </extensions>
      </trkpt>
      <trkpt lat="42.563182599842548370361328125" lon="20.0412728078663349151611328125">
        <ele>2103.199951171875</ele>
        <time>2026-06-15T12:38:25.000Z</time>
        <extensions>
          <ns3:TrackPointExtension>
            <ns3:atemp>18.0</ns3:atemp>
          </ns3:TrackPointExtension>
        </extensions>
      </trkpt>
      <trkpt lat="42.56317891180515289306640625" lon="20.04123433493077754974365234375">
        <ele>2103.199951171875</ele>
        <time>2026-06-15T12:38:26.000Z</time>
        <extensions>
          <ns3:TrackPointExtension>
            <ns3:atemp>18.0</ns3:atemp>
          </ns3:TrackPointExtension>
        </extensions>
      </trkpt>
      <trkpt lat="42.56317698396742343902587890625" lon="20.041211955249309539794921875">
        <ele>2103.199951171875</ele>
        <time>2026-06-15T12:38:27.000Z</time>
        <extensions>
          <ns3:TrackPointExtension>
            <ns3:atemp>18.0</ns3:atemp>
          </ns3:TrackPointExtension>
        </extensions>
      </trkpt>
      <trkpt lat="42.56317782215774059295654296875" lon="20.04118957556784152984619140625">
        <ele>2103.39990234375</ele>
        <time>2026-06-15T12:38:28.000Z</time>
        <extensions>
          <ns3:TrackPointExtension>
            <ns3:atemp>18.0</ns3:atemp>
          </ns3:TrackPointExtension>
        </extensions>
      </trkpt>
      <trkpt lat="42.56317664869129657745361328125" lon="20.0411698780953884124755859375">
        <ele>2103.60009765625</ele>
        <time>2026-06-15T12:38:29.000Z</time>
        <extensions>
          <ns3:TrackPointExtension>
            <ns3:atemp>18.0</ns3:atemp>
          </ns3:TrackPointExtension>
        </extensions>
      </trkpt>
      <trkpt lat="42.56317866034805774688720703125" lon="20.0411447323858737945556640625">
        <ele>2103.800048828125</ele>
        <time>2026-06-15T12:38:30.000Z</time>
        <extensions>
          <ns3:TrackPointExtension>
            <ns3:atemp>18.0</ns3:atemp>
          </ns3:TrackPointExtension>
        </extensions>
      </trkpt>
      <trkpt lat="42.5631770677864551544189453125" lon="20.0411148928105831146240234375">
        <ele>2103.800048828125</ele>
        <time>2026-06-15T12:38:31.000Z</time>
        <extensions>
          <ns3:TrackPointExtension>
            <ns3:atemp>18.0</ns3:atemp>
          </ns3:TrackPointExtension>
        </extensions>
      </trkpt>
      <trkpt lat="42.56317933090031147003173828125" lon="20.04108010791242122650146484375">
        <ele>2103.800048828125</ele>
        <time>2026-06-15T12:38:32.000Z</time>
        <extensions>
          <ns3:TrackPointExtension>
            <ns3:atemp>18.0</ns3:atemp>
          </ns3:TrackPointExtension>
        </extensions>
      </trkpt>
      <trkpt lat="42.563177905976772308349609375" lon="20.04103501327335834503173828125">
        <ele>2103.800048828125</ele>
        <time>2026-06-15T12:38:33.000Z</time>
        <extensions>
          <ns3:TrackPointExtension>
            <ns3:atemp>18.0</ns3:atemp>
          </ns3:TrackPointExtension>
        </extensions>
      </trkpt>
      <trkpt lat="42.56316575221717357635498046875" lon="20.0409817881882190704345703125">
        <ele>2103.60009765625</ele>
        <time>2026-06-15T12:38:34.000Z</time>
        <extensions>
          <ns3:TrackPointExtension>
            <ns3:atemp>18.0</ns3:atemp>
          </ns3:TrackPointExtension>
        </extensions>
      </trkpt>
      <trkpt lat="42.56316122598946094512939453125" lon="20.0409143976867198944091796875">
        <ele>2103.199951171875</ele>
        <time>2026-06-15T12:38:35.000Z</time>
        <extensions>
          <ns3:TrackPointExtension>
            <ns3:atemp>18.0</ns3:atemp>
          </ns3:TrackPointExtension>
        </extensions>
      </trkpt>
      <trkpt lat="42.56316139362752437591552734375" lon="20.04083200357854366302490234375">
        <ele>2103</ele>
        <time>2026-06-15T12:38:36.000Z</time>
        <extensions>
          <ns3:TrackPointExtension>
            <ns3:atemp>18.0</ns3:atemp>
          </ns3:TrackPointExtension>
        </extensions>
      </trkpt>
      <trkpt lat="42.56315586157143115997314453125" lon="20.04074768163263797760009765625">
        <ele>2102.60009765625</ele>
        <time>2026-06-15T12:38:37.000Z</time>
        <extensions>
          <ns3:TrackPointExtension>
            <ns3:atemp>18.0</ns3:atemp>
          </ns3:TrackPointExtension>
        </extensions>
      </trkpt>
      <trkpt lat="42.5631398521363735198974609375" lon="20.04066637717187404632568359375">
        <ele>2102.199951171875</ele>
        <time>2026-06-15T12:38:38.000Z</time>
        <extensions>
          <ns3:TrackPointExtension>
            <ns3:atemp>18.0</ns3:atemp>
          </ns3:TrackPointExtension>
        </extensions>
      </trkpt>
      <trkpt lat="42.5631205737590789794921875" lon="20.04059546627104282379150390625">
        <ele>2102</ele>
        <time>2026-06-15T12:38:39.000Z</time>
        <extensions>
          <ns3:TrackPointExtension>
            <ns3:atemp>18.0</ns3:atemp>
          </ns3:TrackPointExtension>
        </extensions>
      </trkpt>
      <trkpt lat="42.56310858763754367828369140625" lon="20.040523298084735870361328125">
        <ele>2102</ele>
        <time>2026-06-15T12:38:40.000Z</time>
        <extensions>
          <ns3:TrackPointExtension>
            <ns3:atemp>18.0</ns3:atemp>
          </ns3:TrackPointExtension>
        </extensions>
      </trkpt>
      <trkpt lat="42.56310640834271907806396484375" lon="20.04045632667839527130126953125">
        <ele>2102</ele>
        <time>2026-06-15T12:38:41.000Z</time>
        <extensions>
          <ns3:TrackPointExtension>
            <ns3:atemp>18.0</ns3:atemp>
          </ns3:TrackPointExtension>
        </extensions>
      </trkpt>
      <trkpt lat="42.563109509646892547607421875" lon="20.0403967313468456268310546875">
        <ele>2102</ele>
        <time>2026-06-15T12:38:42.000Z</time>
        <extensions>
          <ns3:TrackPointExtension>
            <ns3:atemp>18.0</ns3:atemp>
          </ns3:TrackPointExtension>
        </extensions>
      </trkpt>
      <trkpt lat="42.56311059929430484771728515625" lon="20.0403424166142940521240234375">
        <ele>2102</ele>
        <time>2026-06-15T12:38:43.000Z</time>
        <extensions>
          <ns3:TrackPointExtension>
            <ns3:atemp>18.0</ns3:atemp>
          </ns3:TrackPointExtension>
        </extensions>
      </trkpt>
      <trkpt lat="42.5631080009043216705322265625" lon="20.0402907840907573699951171875">
        <ele>2102</ele>
        <time>2026-06-15T12:38:44.000Z</time>
        <extensions>
          <ns3:TrackPointExtension>
            <ns3:atemp>18.0</ns3:atemp>
          </ns3:TrackPointExtension>
        </extensions>
      </trkpt>
      <trkpt lat="42.56309567950665950775146484375" lon="20.0402314402163028717041015625">
        <ele>2102.199951171875</ele>
        <time>2026-06-15T12:38:45.000Z</time>
        <extensions>
          <ns3:TrackPointExtension>
            <ns3:atemp>18.0</ns3:atemp>
          </ns3:TrackPointExtension>
        </extensions>
      </trkpt>
      <trkpt lat="42.56306600756943225860595703125" lon="20.040182657539844512939453125">
        <ele>2102.199951171875</ele>
        <time>2026-06-15T12:38:46.000Z</time>
        <extensions>
          <ns3:TrackPointExtension>
            <ns3:atemp>18.0</ns3:atemp>
          </ns3:TrackPointExtension>
        </extensions>
      </trkpt>
      <trkpt lat="42.563036419451236724853515625" lon="20.04011836834251880645751953125">
        <ele>2102</ele>
        <time>2026-06-15T12:38:47.000Z</time>
        <extensions>
          <ns3:TrackPointExtension>
            <ns3:atemp>18.0</ns3:atemp>
          </ns3:TrackPointExtension>
        </extensions>
      </trkpt>
      <trkpt lat="42.56301688961684703826904296875" lon="20.04003521986305713653564453125">
        <ele>2102</ele>
        <time>2026-06-15T12:38:48.000Z</time>
        <extensions>
          <ns3:TrackPointExtension>
            <ns3:atemp>18.0</ns3:atemp>
          </ns3:TrackPointExtension>
        </extensions>
      </trkpt>
      <trkpt lat="42.5630213320255279541015625" lon="20.0399575196206569671630859375">
        <ele>2101.60009765625</ele>
        <time>2026-06-15T12:38:49.000Z</time>
        <extensions>
          <ns3:TrackPointExtension>
            <ns3:atemp>18.0</ns3:atemp>
          </ns3:TrackPointExtension>
        </extensions>
      </trkpt>
      <trkpt lat="42.5630375929176807403564453125" lon="20.0398887880146503448486328125">
        <ele>2101.39990234375</ele>
        <time>2026-06-15T12:38:50.000Z</time>
        <extensions>
          <ns3:TrackPointExtension>
            <ns3:atemp>18.0</ns3:atemp>
          </ns3:TrackPointExtension>
        </extensions>
      </trkpt>
      <trkpt lat="42.5630535185337066650390625" lon="20.0398349761962890625">
        <ele>2101.199951171875</ele>
        <time>2026-06-15T12:38:51.000Z</time>
        <extensions>
          <ns3:TrackPointExtension>
            <ns3:atemp>18.0</ns3:atemp>
          </ns3:TrackPointExtension>
        </extensions>
      </trkpt>
      <trkpt lat="42.56307019852101802825927734375" lon="20.039778649806976318359375">
        <ele>2101</ele>
        <time>2026-06-15T12:38:52.000Z</time>
        <extensions>
          <ns3:TrackPointExtension>
            <ns3:atemp>18.0</ns3:atemp>
          </ns3:TrackPointExtension>
        </extensions>
      </trkpt>
      <trkpt lat="42.563093416392803192138671875" lon="20.03971117548644542694091796875">
        <ele>2100.800048828125</ele>
        <time>2026-06-15T12:38:53.000Z</time>
        <extensions>
          <ns3:TrackPointExtension>
            <ns3:atemp>18.0</ns3:atemp>
          </ns3:TrackPointExtension>
        </extensions>
      </trkpt>
      <trkpt lat="42.5631069950759410858154296875" lon="20.0396339781582355499267578125">
        <ele>2100.800048828125</ele>
        <time>2026-06-15T12:38:54.000Z</time>
        <extensions>
          <ns3:TrackPointExtension>
            <ns3:atemp>18.0</ns3:atemp>
          </ns3:TrackPointExtension>
        </extensions>
      </trkpt>
      <trkpt lat="42.56310339085757732391357421875" lon="20.03956298343837261199951171875">
        <ele>2100.60009765625</ele>
        <time>2026-06-15T12:38:55.000Z</time>
        <extensions>
          <ns3:TrackPointExtension>
            <ns3:atemp>18.0</ns3:atemp>
          </ns3:TrackPointExtension>
        </extensions>
      </trkpt>
      <trkpt lat="42.5630803406238555908203125" lon="20.03950850106775760650634765625">
        <ele>2100.39990234375</ele>
        <time>2026-06-15T12:38:56.000Z</time>
        <extensions>
          <ns3:TrackPointExtension>
            <ns3:atemp>18.0</ns3:atemp>
          </ns3:TrackPointExtension>
        </extensions>
      </trkpt>
      <trkpt lat="42.56306014023721218109130859375" lon="20.03944865427911281585693359375">
        <ele>2100.199951171875</ele>
        <time>2026-06-15T12:38:57.000Z</time>
        <extensions>
          <ns3:TrackPointExtension>
            <ns3:atemp>18.0</ns3:atemp>
          </ns3:TrackPointExtension>
        </extensions>
      </trkpt>
      <trkpt lat="42.563047148287296295166015625" lon="20.03937941975891590118408203125">
        <ele>2100.199951171875</ele>
        <time>2026-06-15T12:38:58.000Z</time>
        <extensions>
          <ns3:TrackPointExtension>
            <ns3:atemp>18.0</ns3:atemp>
          </ns3:TrackPointExtension>
        </extensions>
      </trkpt>
      <trkpt lat="42.56303600035607814788818359375" lon="20.03931052051484584808349609375">
        <ele>2100.199951171875</ele>
        <time>2026-06-15T12:38:59.000Z</time>
        <extensions>
          <ns3:TrackPointExtension>
            <ns3:atemp>18.0</ns3:atemp>
          </ns3:TrackPointExtension>
        </extensions>
      </trkpt>
      <trkpt lat="42.56301403976976871490478515625" lon="20.03925771452486515045166015625">
        <ele>2100.39990234375</ele>
        <time>2026-06-15T12:39:00.000Z</time>
        <extensions>
          <ns3:TrackPointExtension>
            <ns3:atemp>18.0</ns3:atemp>
          </ns3:TrackPointExtension>
        </extensions>
      </trkpt>
      <trkpt lat="42.562988810241222381591796875" lon="20.03920826129615306854248046875">
        <ele>2100.60009765625</ele>
        <time>2026-06-15T12:39:01.000Z</time>
        <extensions>
          <ns3:TrackPointExtension>
            <ns3:atemp>18.0</ns3:atemp>
          </ns3:TrackPointExtension>
        </extensions>
      </trkpt>
      <trkpt lat="42.56296098232269287109375" lon="20.03916031681001186370849609375">
        <ele>2100.800048828125</ele>
        <time>2026-06-15T12:39:02.000Z</time>
        <extensions>
          <ns3:TrackPointExtension>
            <ns3:atemp>18.0</ns3:atemp>
          </ns3:TrackPointExtension>
        </extensions>
      </trkpt>
      <trkpt lat="42.56292904727160930633544921875" lon="20.0391223467886447906494140625">
        <ele>2101.199951171875</ele>
        <time>2026-06-15T12:39:03.000Z</time>
        <extensions>
          <ns3:TrackPointExtension>
            <ns3:atemp>18.0</ns3:atemp>
          </ns3:TrackPointExtension>
        </extensions>
      </trkpt>
      <trkpt lat="42.56289602257311344146728515625" lon="20.039095692336559295654296875">
        <ele>2101.39990234375</ele>
        <time>2026-06-15T12:39:04.000Z</time>
        <extensions>
          <ns3:TrackPointExtension>
            <ns3:atemp>18.0</ns3:atemp>
          </ns3:TrackPointExtension>
        </extensions>
      </trkpt>
      <trkpt lat="42.56286643445491790771484375" lon="20.0390660203993320465087890625">
        <ele>2101.60009765625</ele>
        <time>2026-06-15T12:39:05.000Z</time>
        <extensions>
          <ns3:TrackPointExtension>
            <ns3:atemp>18.0</ns3:atemp>
          </ns3:TrackPointExtension>
        </extensions>
      </trkpt>
      <trkpt lat="42.56283751688897609710693359375" lon="20.03902788273990154266357421875">
        <ele>2101.800048828125</ele>
        <time>2026-06-15T12:39:06.000Z</time>
        <extensions>
          <ns3:TrackPointExtension>
            <ns3:atemp>18.0</ns3:atemp>
          </ns3:TrackPointExtension>
        </extensions>
      </trkpt>
      <trkpt lat="42.56281572394073009490966796875" lon="20.03898446448147296905517578125">
        <ele>2102</ele>
        <time>2026-06-15T12:39:07.000Z</time>
        <extensions>
          <ns3:TrackPointExtension>
            <ns3:atemp>18.0</ns3:atemp>
          </ns3:TrackPointExtension>
        </extensions>
      </trkpt>
      <trkpt lat="42.562799043953418731689453125" lon="20.03893853165209293365478515625">
        <ele>2102.199951171875</ele>
        <time>2026-06-15T12:39:08.000Z</time>
        <extensions>
          <ns3:TrackPointExtension>
            <ns3:atemp>18.0</ns3:atemp>
          </ns3:TrackPointExtension>
        </extensions>
      </trkpt>
      <trkpt lat="42.5627827830612659454345703125" lon="20.03889419138431549072265625">
        <ele>2102.39990234375</ele>
        <time>2026-06-15T12:39:09.000Z</time>
        <extensions>
          <ns3:TrackPointExtension>
            <ns3:atemp>18.0</ns3:atemp>
          </ns3:TrackPointExtension>
        </extensions>
      </trkpt>
      <trkpt lat="42.56277096457779407501220703125" lon="20.0388477556407451629638671875">
        <ele>2102.60009765625</ele>
        <time>2026-06-15T12:39:10.000Z</time>
        <extensions>
          <ns3:TrackPointExtension>
            <ns3:atemp>18.0</ns3:atemp>
          </ns3:TrackPointExtension>
        </extensions>
      </trkpt>
      <trkpt lat="42.56276048719882965087890625" lon="20.03879821859300136566162109375">
        <ele>2103</ele>
        <time>2026-06-15T12:39:11.000Z</time>
        <extensions>
          <ns3:TrackPointExtension>
            <ns3:atemp>18.0</ns3:atemp>
          </ns3:TrackPointExtension>
        </extensions>
      </trkpt>
      <trkpt lat="42.56275570951402187347412109375" lon="20.03874977119266986846923828125">
        <ele>2103.199951171875</ele>
        <time>2026-06-15T12:39:12.000Z</time>
        <extensions>
          <ns3:TrackPointExtension>
            <ns3:atemp>18.0</ns3:atemp>
          </ns3:TrackPointExtension>
        </extensions>
      </trkpt>
      <trkpt lat="42.562750764191150665283203125" lon="20.0386962108314037322998046875">
        <ele>2103.199951171875</ele>
        <time>2026-06-15T12:39:13.000Z</time>
        <extensions>
          <ns3:TrackPointExtension>
            <ns3:atemp>18.0</ns3:atemp>
          </ns3:TrackPointExtension>
        </extensions>
      </trkpt>
      <trkpt lat="42.5627469085156917572021484375" lon="20.0386368669569492340087890625">
        <ele>2103.39990234375</ele>
        <time>2026-06-15T12:39:14.000Z</time>
        <extensions>
          <ns3:TrackPointExtension>
            <ns3:atemp>18.0</ns3:atemp>
          </ns3:TrackPointExtension>
        </extensions>
      </trkpt>
      <trkpt lat="42.56275109946727752685546875" lon="20.03856830298900604248046875">
        <ele>2103.39990234375</ele>
        <time>2026-06-15T12:39:15.000Z</time>
        <extensions>
          <ns3:TrackPointExtension>
            <ns3:atemp>18.0</ns3:atemp>
          </ns3:TrackPointExtension>
        </extensions>
      </trkpt>
      <trkpt lat="42.56276057101786136627197265625" lon="20.03849848173558712005615234375">
        <ele>2103.199951171875</ele>
        <time>2026-06-15T12:39:16.000Z</time>
        <extensions>
          <ns3:TrackPointExtension>
            <ns3:atemp>18.0</ns3:atemp>
          </ns3:TrackPointExtension>
        </extensions>
      </trkpt>
      <trkpt lat="42.56276995874941349029541015625" lon="20.03843645565211772918701171875">
        <ele>2103.199951171875</ele>
        <time>2026-06-15T12:39:17.000Z</time>
        <extensions>
          <ns3:TrackPointExtension>
            <ns3:atemp>18.0</ns3:atemp>
          </ns3:TrackPointExtension>
        </extensions>
      </trkpt>
      <trkpt lat="42.5627928413450717926025390625" lon="20.0383730046451091766357421875">
        <ele>2103</ele>
        <time>2026-06-15T12:39:18.000Z</time>
        <extensions>
          <ns3:TrackPointExtension>
            <ns3:atemp>18.0</ns3:atemp>
          </ns3:TrackPointExtension>
        </extensions>
      </trkpt>
      <trkpt lat="42.562819160521030426025390625" lon="20.0383213721215724945068359375">
        <ele>2103</ele>
        <time>2026-06-15T12:39:19.000Z</time>
        <extensions>
          <ns3:TrackPointExtension>
            <ns3:atemp>18.0</ns3:atemp>
          </ns3:TrackPointExtension>
        </extensions>
      </trkpt>
      <trkpt lat="42.56284489296376705169677734375" lon="20.03827686421573162078857421875">
        <ele>2103</ele>
        <time>2026-06-15T12:39:20.000Z</time>
        <extensions>
          <ns3:TrackPointExtension>
            <ns3:atemp>18.0</ns3:atemp>
          </ns3:TrackPointExtension>
        </extensions>
      </trkpt>
      <trkpt lat="42.56286534480750560760498046875" lon="20.03822539933025836944580078125">
        <ele>2103</ele>
        <time>2026-06-15T12:39:21.000Z</time>
        <extensions>
          <ns3:TrackPointExtension>
            <ns3:atemp>18.0</ns3:atemp>
          </ns3:TrackPointExtension>
        </extensions>
      </trkpt>
      <trkpt lat="42.56288361735641956329345703125" lon="20.0381708331406116485595703125">
        <ele>2102.800048828125</ele>
        <time>2026-06-15T12:39:22.000Z</time>
        <extensions>
          <ns3:TrackPointExtension>
            <ns3:atemp>18.0</ns3:atemp>
          </ns3:TrackPointExtension>
        </extensions>
      </trkpt>
      <trkpt lat="42.5628944300115108489990234375" lon="20.03810604102909564971923828125">
        <ele>2102.800048828125</ele>
        <time>2026-06-15T12:39:23.000Z</time>
        <extensions>
          <ns3:TrackPointExtension>
            <ns3:atemp>18.0</ns3:atemp>
          </ns3:TrackPointExtension>
        </extensions>
      </trkpt>
      <trkpt lat="42.562895603477954864501953125" lon="20.03803663887083530426025390625">
        <ele>2102.60009765625</ele>
        <time>2026-06-15T12:39:24.000Z</time>
        <extensions>
          <ns3:TrackPointExtension>
            <ns3:atemp>18.0</ns3:atemp>
          </ns3:TrackPointExtension>
        </extensions>
      </trkpt>
      <trkpt lat="42.56288412027060985565185546875" lon="20.03797008655965328216552734375">
        <ele>2102.39990234375</ele>
        <time>2026-06-15T12:39:25.000Z</time>
        <extensions>
          <ns3:TrackPointExtension>
            <ns3:atemp>18.0</ns3:atemp>
          </ns3:TrackPointExtension>
        </extensions>
      </trkpt>
      <trkpt lat="42.5628692843019962310791015625" lon="20.03790571354329586029052734375">
        <ele>2102.199951171875</ele>
        <time>2026-06-15T12:39:26.000Z</time>
        <extensions>
          <ns3:TrackPointExtension>
            <ns3:atemp>18.0</ns3:atemp>
          </ns3:TrackPointExtension>
        </extensions>
      </trkpt>
      <trkpt lat="42.56285847164690494537353515625" lon="20.0378402508795261383056640625">
        <ele>2102</ele>
        <time>2026-06-15T12:39:27.000Z</time>
        <extensions>
          <ns3:TrackPointExtension>
            <ns3:atemp>18.0</ns3:atemp>
          </ns3:TrackPointExtension>
        </extensions>
      </trkpt>
      <trkpt lat="42.56285796873271465301513671875" lon="20.03777897916734218597412109375">
        <ele>2102</ele>
        <time>2026-06-15T12:39:28.000Z</time>
        <extensions>
          <ns3:TrackPointExtension>
            <ns3:atemp>18.0</ns3:atemp>
          </ns3:TrackPointExtension>
        </extensions>
      </trkpt>
      <trkpt lat="42.5628652609884738922119140625" lon="20.037713348865509033203125">
        <ele>2101.800048828125</ele>
        <time>2026-06-15T12:39:29.000Z</time>
        <extensions>
          <ns3:TrackPointExtension>
            <ns3:atemp>18.0</ns3:atemp>
          </ns3:TrackPointExtension>
        </extensions>
      </trkpt>
      <trkpt lat="42.56288780830800533294677734375" lon="20.03766582347452640533447265625">
        <ele>2101.60009765625</ele>
        <time>2026-06-15T12:39:30.000Z</time>
        <extensions>
          <ns3:TrackPointExtension>
            <ns3:atemp>18.0</ns3:atemp>
          </ns3:TrackPointExtension>
        </extensions>
      </trkpt>
      <trkpt lat="42.56292552687227725982666015625" lon="20.037625171244144439697265625">
        <ele>2101.199951171875</ele>
        <time>2026-06-15T12:39:31.000Z</time>
        <extensions>
          <ns3:TrackPointExtension>
            <ns3:atemp>18.0</ns3:atemp>
          </ns3:TrackPointExtension>
        </extensions>
      </trkpt>
      <trkpt lat="42.56295670755207538604736328125" lon="20.03758259117603302001953125">
        <ele>2100.800048828125</ele>
        <time>2026-06-15T12:39:32.000Z</time>
        <extensions>
          <ns3:TrackPointExtension>
            <ns3:atemp>18.0</ns3:atemp>
          </ns3:TrackPointExtension>
        </extensions>
      </trkpt>
      <trkpt lat="42.56295771338045597076416015625" lon="20.0375322997570037841796875">
        <ele>2100.39990234375</ele>
        <time>2026-06-15T12:39:33.000Z</time>
        <extensions>
          <ns3:TrackPointExtension>
            <ns3:atemp>18.0</ns3:atemp>
          </ns3:TrackPointExtension>
        </extensions>
      </trkpt>
      <trkpt lat="42.56293491460382938385009765625" lon="20.0374939106404781341552734375">
        <ele>2100.199951171875</ele>
        <time>2026-06-15T12:39:34.000Z</time>
        <extensions>
          <ns3:TrackPointExtension>
            <ns3:atemp>18.0</ns3:atemp>
          </ns3:TrackPointExtension>
        </extensions>
      </trkpt>
      <trkpt lat="42.5628954358398914337158203125" lon="20.03748737275600433349609375">
        <ele>2100</ele>
        <time>2026-06-15T12:39:35.000Z</time>
        <extensions>
          <ns3:TrackPointExtension>
            <ns3:atemp>18.0</ns3:atemp>
          </ns3:TrackPointExtension>
        </extensions>
      </trkpt>
      <trkpt lat="42.56286752410233020782470703125" lon="20.03751511685550212860107421875">
        <ele>2099.60009765625</ele>
        <time>2026-06-15T12:39:36.000Z</time>
        <extensions>
          <ns3:TrackPointExtension>
            <ns3:atemp>18.0</ns3:atemp>
          </ns3:TrackPointExtension>
        </extensions>
      </trkpt>
      <trkpt lat="42.56284631788730621337890625" lon="20.0375572778284549713134765625">
        <ele>2099.39990234375</ele>
        <time>2026-06-15T12:39:37.000Z</time>
        <extensions>
          <ns3:TrackPointExtension>
            <ns3:atemp>18.0</ns3:atemp>
          </ns3:TrackPointExtension>
        </extensions>
      </trkpt>
      <trkpt lat="42.562831901013851165771484375" lon="20.03759491257369518280029296875">
        <ele>2099.199951171875</ele>
        <time>2026-06-15T12:39:38.000Z</time>
        <extensions>
          <ns3:TrackPointExtension>
            <ns3:atemp>18.0</ns3:atemp>
          </ns3:TrackPointExtension>
        </extensions>
      </trkpt>
      <trkpt lat="42.56281941197812557220458984375" lon="20.03762575797736644744873046875">
        <ele>2099</ele>
        <time>2026-06-15T12:39:39.000Z</time>
        <extensions>
          <ns3:TrackPointExtension>
            <ns3:atemp>18.0</ns3:atemp>
          </ns3:TrackPointExtension>
        </extensions>
      </trkpt>
      <trkpt lat="42.56281019188463687896728515625" lon="20.037662051618099212646484375">
        <ele>2099</ele>
        <time>2026-06-15T12:39:40.000Z</time>
        <extensions>
          <ns3:TrackPointExtension>
            <ns3:atemp>18.0</ns3:atemp>
          </ns3:TrackPointExtension>
        </extensions>
      </trkpt>
      <trkpt lat="42.56280080415308475494384765625" lon="20.03769482485949993133544921875">
        <ele>2098.800048828125</ele>
        <time>2026-06-15T12:39:41.000Z</time>
        <extensions>
          <ns3:TrackPointExtension>
            <ns3:atemp>18.0</ns3:atemp>
          </ns3:TrackPointExtension>
        </extensions>
      </trkpt>
      <trkpt lat="42.56279091350734233856201171875" lon="20.0377185456454753875732421875">
        <ele>2098.60009765625</ele>
        <time>2026-06-15T12:39:42.000Z</time>
        <extensions>
          <ns3:TrackPointExtension>
            <ns3:atemp>18.0</ns3:atemp>
          </ns3:TrackPointExtension>
        </extensions>
      </trkpt>
      <trkpt lat="42.56278194487094879150390625" lon="20.03772583790123462677001953125">
        <ele>2098.60009765625</ele>
        <time>2026-06-15T12:39:43.000Z</time>
        <extensions>
          <ns3:TrackPointExtension>
            <ns3:atemp>18.0</ns3:atemp>
          </ns3:TrackPointExtension>
        </extensions>
      </trkpt>
      <trkpt lat="42.562778256833553314208984375" lon="20.037731118500232696533203125">
        <ele>2098.39990234375</ele>
        <time>2026-06-15T12:39:44.000Z</time>
        <extensions>
          <ns3:TrackPointExtension>
            <ns3:atemp>18.0</ns3:atemp>
          </ns3:TrackPointExtension>
        </extensions>
      </trkpt>
      <trkpt lat="42.562778256833553314208984375" lon="20.037731118500232696533203125">
        <ele>2098.39990234375</ele>
        <time>2026-06-15T12:39:45.000Z</time>
        <extensions>
          <ns3:TrackPointExtension>
            <ns3:atemp>18.0</ns3:atemp>
          </ns3:TrackPointExtension>
        </extensions>
      </trkpt>
      <trkpt lat="42.562778256833553314208984375" lon="20.037731118500232696533203125">
        <ele>2098.199951171875</ele>
        <time>2026-06-15T12:39:46.000Z</time>
        <extensions>
          <ns3:TrackPointExtension>
            <ns3:atemp>18.0</ns3:atemp>
          </ns3:TrackPointExtension>
        </extensions>
      </trkpt>
      <trkpt lat="42.562778256833553314208984375" lon="20.037731118500232696533203125">
        <ele>2098.199951171875</ele>
        <time>2026-06-15T12:39:47.000Z</time>
        <extensions>
          <ns3:TrackPointExtension>
            <ns3:atemp>18.0</ns3:atemp>
          </ns3:TrackPointExtension>
        </extensions>
      </trkpt>
      <trkpt lat="42.562778256833553314208984375" lon="20.037731118500232696533203125">
        <ele>2098</ele>
        <time>2026-06-15T12:39:48.000Z</time>
        <extensions>
          <ns3:TrackPointExtension>
            <ns3:atemp>18.0</ns3:atemp>
          </ns3:TrackPointExtension>
        </extensions>
      </trkpt>
      <trkpt lat="42.562778256833553314208984375" lon="20.037731118500232696533203125">
        <ele>2098</ele>
        <time>2026-06-15T12:39:49.000Z</time>
        <extensions>
          <ns3:TrackPointExtension>
            <ns3:atemp>18.0</ns3:atemp>
          </ns3:TrackPointExtension>
        </extensions>
      </trkpt>
      <trkpt lat="42.562778256833553314208984375" lon="20.037731118500232696533203125">
        <ele>2097.800048828125</ele>
        <time>2026-06-15T12:39:50.000Z</time>
        <extensions>
          <ns3:TrackPointExtension>
            <ns3:atemp>18.0</ns3:atemp>
          </ns3:TrackPointExtension>
        </extensions>
      </trkpt>
      <trkpt lat="42.562778256833553314208984375" lon="20.037731118500232696533203125">
        <ele>2097.800048828125</ele>
        <time>2026-06-15T12:39:51.000Z</time>
        <extensions>
          <ns3:TrackPointExtension>
            <ns3:atemp>18.0</ns3:atemp>
          </ns3:TrackPointExtension>
        </extensions>
      </trkpt>
      <trkpt lat="42.562778256833553314208984375" lon="20.037731118500232696533203125">
        <ele>2097.800048828125</ele>
        <time>2026-06-15T12:39:52.000Z</time>
        <extensions>
          <ns3:TrackPointExtension>
            <ns3:atemp>18.0</ns3:atemp>
          </ns3:TrackPointExtension>
        </extensions>
      </trkpt>
      <trkpt lat="42.562778256833553314208984375" lon="20.037731118500232696533203125">
        <ele>2097.800048828125</ele>
        <time>2026-06-15T12:39:53.000Z</time>
        <extensions>
          <ns3:TrackPointExtension>
            <ns3:atemp>18.0</ns3:atemp>
          </ns3:TrackPointExtension>
        </extensions>
      </trkpt>
      <trkpt lat="42.562778256833553314208984375" lon="20.037731118500232696533203125">
        <ele>2097.800048828125</ele>
        <time>2026-06-15T12:39:54.000Z</time>
        <extensions>
          <ns3:TrackPointExtension>
            <ns3:atemp>18.0</ns3:atemp>
          </ns3:TrackPointExtension>
        </extensions>
      </trkpt>
      <trkpt lat="42.562778256833553314208984375" lon="20.037731118500232696533203125">
        <ele>2097.800048828125</ele>
        <time>2026-06-15T12:39:55.000Z</time>
        <extensions>
          <ns3:TrackPointExtension>
            <ns3:atemp>18.0</ns3:atemp>
          </ns3:TrackPointExtension>
        </extensions>
      </trkpt>
      <trkpt lat="42.562778256833553314208984375" lon="20.037731118500232696533203125">
        <ele>2097.60009765625</ele>
        <time>2026-06-15T12:39:56.000Z</time>
        <extensions>
          <ns3:TrackPointExtension>
            <ns3:atemp>18.0</ns3:atemp>
          </ns3:TrackPointExtension>
        </extensions>
      </trkpt>
      <trkpt lat="42.562778256833553314208984375" lon="20.037731118500232696533203125">
        <ele>2097.60009765625</ele>
        <time>2026-06-15T12:39:57.000Z</time>
        <extensions>
          <ns3:TrackPointExtension>
            <ns3:atemp>18.0</ns3:atemp>
          </ns3:TrackPointExtension>
        </extensions>
      </trkpt>
      <trkpt lat="42.562778256833553314208984375" lon="20.037731118500232696533203125">
        <ele>2097.60009765625</ele>
        <time>2026-06-15T12:39:58.000Z</time>
        <extensions>
          <ns3:TrackPointExtension>
            <ns3:atemp>18.0</ns3:atemp>
          </ns3:TrackPointExtension>
        </extensions>
      </trkpt>
      <trkpt lat="42.562778256833553314208984375" lon="20.037731118500232696533203125">
        <ele>2097.60009765625</ele>
        <time>2026-06-15T12:39:59.000Z</time>
        <extensions>
          <ns3:TrackPointExtension>
            <ns3:atemp>18.0</ns3:atemp>
          </ns3:TrackPointExtension>
        </extensions>
      </trkpt>
      <trkpt lat="42.562778256833553314208984375" lon="20.037731118500232696533203125">
        <ele>2097.60009765625</ele>
        <time>2026-06-15T12:40:00.000Z</time>
        <extensions>
          <ns3:TrackPointExtension>
            <ns3:atemp>18.0</ns3:atemp>
          </ns3:TrackPointExtension>
        </extensions>
      </trkpt>
      <trkpt lat="42.562778256833553314208984375" lon="20.037731118500232696533203125">
        <ele>2097.60009765625</ele>
        <time>2026-06-15T12:40:01.000Z</time>
        <extensions>
          <ns3:TrackPointExtension>
            <ns3:atemp>18.0</ns3:atemp>
          </ns3:TrackPointExtension>
        </extensions>
      </trkpt>
      <trkpt lat="42.562778256833553314208984375" lon="20.037731118500232696533203125">
        <ele>2097.60009765625</ele>
        <time>2026-06-15T12:40:02.000Z</time>
        <extensions>
          <ns3:TrackPointExtension>
            <ns3:atemp>18.0</ns3:atemp>
          </ns3:TrackPointExtension>
        </extensions>
      </trkpt>
      <trkpt lat="42.562778256833553314208984375" lon="20.037731118500232696533203125">
        <ele>2097.800048828125</ele>
        <time>2026-06-15T12:40:03.000Z</time>
        <extensions>
          <ns3:TrackPointExtension>
            <ns3:atemp>18.0</ns3:atemp>
          </ns3:TrackPointExtension>
        </extensions>
      </trkpt>
      <trkpt lat="42.562778256833553314208984375" lon="20.037731118500232696533203125">
        <ele>2097.800048828125</ele>
        <time>2026-06-15T12:40:04.000Z</time>
        <extensions>
          <ns3:TrackPointExtension>
            <ns3:atemp>18.0</ns3:atemp>
          </ns3:TrackPointExtension>
        </extensions>
      </trkpt>
      <trkpt lat="42.562778256833553314208984375" lon="20.037731118500232696533203125">
        <ele>2097.800048828125</ele>
        <time>2026-06-15T12:40:05.000Z</time>
        <extensions>
          <ns3:TrackPointExtension>
            <ns3:atemp>18.0</ns3:atemp>
          </ns3:TrackPointExtension>
        </extensions>
      </trkpt>
      <trkpt lat="42.562778256833553314208984375" lon="20.037731118500232696533203125">
        <ele>2097.60009765625</ele>
        <time>2026-06-15T12:40:06.000Z</time>
        <extensions>
          <ns3:TrackPointExtension>
            <ns3:atemp>18.0</ns3:atemp>
          </ns3:TrackPointExtension>
        </extensions>
      </trkpt>
      <trkpt lat="42.562778256833553314208984375" lon="20.037731118500232696533203125">
        <ele>2097.60009765625</ele>
        <time>2026-06-15T12:40:07.000Z</time>
        <extensions>
          <ns3:TrackPointExtension>
            <ns3:atemp>18.0</ns3:atemp>
          </ns3:TrackPointExtension>
        </extensions>
      </trkpt>
      <trkpt lat="42.562778256833553314208984375" lon="20.037731118500232696533203125">
        <ele>2097.39990234375</ele>
        <time>2026-06-15T12:40:08.000Z</time>
        <extensions>
          <ns3:TrackPointExtension>
            <ns3:atemp>18.0</ns3:atemp>
          </ns3:TrackPointExtension>
        </extensions>
      </trkpt>
      <trkpt lat="42.562778256833553314208984375" lon="20.037731118500232696533203125">
        <ele>2097.39990234375</ele>
        <time>2026-06-15T12:40:09.000Z</time>
        <extensions>
          <ns3:TrackPointExtension>
            <ns3:atemp>18.0</ns3:atemp>
          </ns3:TrackPointExtension>
        </extensions>
      </trkpt>
      <trkpt lat="42.562778256833553314208984375" lon="20.037731118500232696533203125">
        <ele>2097.199951171875</ele>
        <time>2026-06-15T12:40:10.000Z</time>
        <extensions>
          <ns3:TrackPointExtension>
            <ns3:atemp>18.0</ns3:atemp>
          </ns3:TrackPointExtension>
        </extensions>
      </trkpt>
      <trkpt lat="42.562778256833553314208984375" lon="20.037731118500232696533203125">
        <ele>2097.199951171875</ele>
        <time>2026-06-15T12:40:11.000Z</time>
        <extensions>
          <ns3:TrackPointExtension>
            <ns3:atemp>18.0</ns3:atemp>
          </ns3:TrackPointExtension>
        </extensions>
      </trkpt>
      <trkpt lat="42.562778256833553314208984375" lon="20.037731118500232696533203125">
        <ele>2097.199951171875</ele>
        <time>2026-06-15T12:40:12.000Z</time>
        <extensions>
          <ns3:TrackPointExtension>
            <ns3:atemp>18.0</ns3:atemp>
          </ns3:TrackPointExtension>
        </extensions>
      </trkpt>
      <trkpt lat="42.562778256833553314208984375" lon="20.037731118500232696533203125">
        <ele>2097</ele>
        <time>2026-06-15T12:40:13.000Z</time>
        <extensions>
          <ns3:TrackPointExtension>
            <ns3:atemp>18.0</ns3:atemp>
          </ns3:TrackPointExtension>
        </extensions>
      </trkpt>
      <trkpt lat="42.562778256833553314208984375" lon="20.037731118500232696533203125">
        <ele>2097</ele>
        <time>2026-06-15T12:40:14.000Z</time>
        <extensions>
          <ns3:TrackPointExtension>
            <ns3:atemp>18.0</ns3:atemp>
          </ns3:TrackPointExtension>
        </extensions>
      </trkpt>
      <trkpt lat="42.562778256833553314208984375" lon="20.037731118500232696533203125">
        <ele>2097</ele>
        <time>2026-06-15T12:40:15.000Z</time>
        <extensions>
          <ns3:TrackPointExtension>
            <ns3:atemp>18.0</ns3:atemp>
          </ns3:TrackPointExtension>
        </extensions>
      </trkpt>
      <trkpt lat="42.562778256833553314208984375" lon="20.037731118500232696533203125">
        <ele>2096.800048828125</ele>
        <time>2026-06-15T12:40:16.000Z</time>
        <extensions>
          <ns3:TrackPointExtension>
            <ns3:atemp>18.0</ns3:atemp>
          </ns3:TrackPointExtension>
        </extensions>
      </trkpt>
      <trkpt lat="42.562778256833553314208984375" lon="20.037731118500232696533203125">
        <ele>2096.800048828125</ele>
        <time>2026-06-15T12:40:17.000Z</time>
        <extensions>
          <ns3:TrackPointExtension>
            <ns3:atemp>18.0</ns3:atemp>
          </ns3:TrackPointExtension>
        </extensions>
      </trkpt>
      <trkpt lat="42.562778256833553314208984375" lon="20.037731118500232696533203125">
        <ele>2096.800048828125</ele>
        <time>2026-06-15T12:40:18.000Z</time>
        <extensions>
          <ns3:TrackPointExtension>
            <ns3:atemp>18.0</ns3:atemp>
          </ns3:TrackPointExtension>
        </extensions>
      </trkpt>
      <trkpt lat="42.562778256833553314208984375" lon="20.037731118500232696533203125">
        <ele>2096.800048828125</ele>
        <time>2026-06-15T12:40:19.000Z</time>
        <extensions>
          <ns3:TrackPointExtension>
            <ns3:atemp>18.0</ns3:atemp>
          </ns3:TrackPointExtension>
        </extensions>
      </trkpt>
      <trkpt lat="42.562778256833553314208984375" lon="20.037731118500232696533203125">
        <ele>2096.800048828125</ele>
        <time>2026-06-15T12:40:20.000Z</time>
        <extensions>
          <ns3:TrackPointExtension>
            <ns3:atemp>18.0</ns3:atemp>
          </ns3:TrackPointExtension>
        </extensions>
      </trkpt>
      <trkpt lat="42.562778256833553314208984375" lon="20.037731118500232696533203125">
        <ele>2096.800048828125</ele>
        <time>2026-06-15T12:40:21.000Z</time>
        <extensions>
          <ns3:TrackPointExtension>
            <ns3:atemp>18.0</ns3:atemp>
          </ns3:TrackPointExtension>
        </extensions>
      </trkpt>
      <trkpt lat="42.562778256833553314208984375" lon="20.037731118500232696533203125">
        <ele>2096.60009765625</ele>
        <time>2026-06-15T12:40:22.000Z</time>
        <extensions>
          <ns3:TrackPointExtension>
            <ns3:atemp>17.0</ns3:atemp>
          </ns3:TrackPointExtension>
        </extensions>
      </trkpt>
      <trkpt lat="42.562778256833553314208984375" lon="20.037731118500232696533203125">
        <ele>2096.60009765625</ele>
        <time>2026-06-15T12:40:23.000Z</time>
        <extensions>
          <ns3:TrackPointExtension>
            <ns3:atemp>18.0</ns3:atemp>
          </ns3:TrackPointExtension>
        </extensions>
      </trkpt>
      <trkpt lat="42.562778256833553314208984375" lon="20.037731118500232696533203125">
        <ele>2096.60009765625</ele>
        <time>2026-06-15T12:40:24.000Z</time>
        <extensions>
          <ns3:TrackPointExtension>
            <ns3:atemp>17.0</ns3:atemp>
          </ns3:TrackPointExtension>
        </extensions>
      </trkpt>
      <trkpt lat="42.562778256833553314208984375" lon="20.037731118500232696533203125">
        <ele>2096.60009765625</ele>
        <time>2026-06-15T12:40:25.000Z</time>
        <extensions>
          <ns3:TrackPointExtension>
            <ns3:atemp>17.0</ns3:atemp>
          </ns3:TrackPointExtension>
        </extensions>
      </trkpt>
      <trkpt lat="42.562778256833553314208984375" lon="20.037731118500232696533203125">
        <ele>2096.60009765625</ele>
        <time>2026-06-15T12:40:26.000Z</time>
        <extensions>
          <ns3:TrackPointExtension>
            <ns3:atemp>18.0</ns3:atemp>
          </ns3:TrackPointExtension>
        </extensions>
      </trkpt>
      <trkpt lat="42.562778256833553314208984375" lon="20.037731118500232696533203125">
        <ele>2096.60009765625</ele>
        <time>2026-06-15T12:40:27.000Z</time>
        <extensions>
          <ns3:TrackPointExtension>
            <ns3:atemp>18.0</ns3:atemp>
          </ns3:TrackPointExtension>
        </extensions>
      </trkpt>
      <trkpt lat="42.562778256833553314208984375" lon="20.037731118500232696533203125">
        <ele>2096.60009765625</ele>
        <time>2026-06-15T12:40:28.000Z</time>
        <extensions>
          <ns3:TrackPointExtension>
            <ns3:atemp>18.0</ns3:atemp>
          </ns3:TrackPointExtension>
        </extensions>
      </trkpt>
      <trkpt lat="42.562778256833553314208984375" lon="20.037731118500232696533203125">
        <ele>2096.60009765625</ele>
        <time>2026-06-15T12:40:29.000Z</time>
        <extensions>
          <ns3:TrackPointExtension>
            <ns3:atemp>18.0</ns3:atemp>
          </ns3:TrackPointExtension>
        </extensions>
      </trkpt>
      <trkpt lat="42.562778256833553314208984375" lon="20.037731118500232696533203125">
        <ele>2096.60009765625</ele>
        <time>2026-06-15T12:40:30.000Z</time>
        <extensions>
          <ns3:TrackPointExtension>
            <ns3:atemp>18.0</ns3:atemp>
          </ns3:TrackPointExtension>
        </extensions>
      </trkpt>
      <trkpt lat="42.562778256833553314208984375" lon="20.037731118500232696533203125">
        <ele>2096.60009765625</ele>
        <time>2026-06-15T12:40:31.000Z</time>
        <extensions>
          <ns3:TrackPointExtension>
            <ns3:atemp>18.0</ns3:atemp>
          </ns3:TrackPointExtension>
        </extensions>
      </trkpt>
      <trkpt lat="42.562778256833553314208984375" lon="20.037731118500232696533203125">
        <ele>2096.60009765625</ele>
        <time>2026-06-15T12:40:32.000Z</time>
        <extensions>
          <ns3:TrackPointExtension>
            <ns3:atemp>17.0</ns3:atemp>
          </ns3:TrackPointExtension>
        </extensions>
      </trkpt>
      <trkpt lat="42.562778256833553314208984375" lon="20.037731118500232696533203125">
        <ele>2096.60009765625</ele>
        <time>2026-06-15T12:40:33.000Z</time>
        <extensions>
          <ns3:TrackPointExtension>
            <ns3:atemp>17.0</ns3:atemp>
          </ns3:TrackPointExtension>
        </extensions>
      </trkpt>
      <trkpt lat="42.562778256833553314208984375" lon="20.037731118500232696533203125">
        <ele>2096.60009765625</ele>
        <time>2026-06-15T12:40:34.000Z</time>
        <extensions>
          <ns3:TrackPointExtension>
            <ns3:atemp>17.0</ns3:atemp>
          </ns3:TrackPointExtension>
        </extensions>
      </trkpt>
      <trkpt lat="42.562778256833553314208984375" lon="20.037731118500232696533203125">
        <ele>2096.800048828125</ele>
        <time>2026-06-15T12:40:35.000Z</time>
        <extensions>
          <ns3:TrackPointExtension>
            <ns3:atemp>17.0</ns3:atemp>
          </ns3:TrackPointExtension>
        </extensions>
      </trkpt>
      <trkpt lat="42.562778256833553314208984375" lon="20.037731118500232696533203125">
        <ele>2096.800048828125</ele>
        <time>2026-06-15T12:40:36.000Z</time>
        <extensions>
          <ns3:TrackPointExtension>
            <ns3:atemp>17.0</ns3:atemp>
          </ns3:TrackPointExtension>
        </extensions>
      </trkpt>
      <trkpt lat="42.562778256833553314208984375" lon="20.037731118500232696533203125">
        <ele>2096.60009765625</ele>
        <time>2026-06-15T12:40:37.000Z</time>
        <extensions>
          <ns3:TrackPointExtension>
            <ns3:atemp>17.0</ns3:atemp>
          </ns3:TrackPointExtension>
        </extensions>
      </trkpt>
      <trkpt lat="42.562778256833553314208984375" lon="20.037731118500232696533203125">
        <ele>2096.60009765625</ele>
        <time>2026-06-15T12:40:38.000Z</time>
        <extensions>
          <ns3:TrackPointExtension>
            <ns3:atemp>17.0</ns3:atemp>
          </ns3:TrackPointExtension>
        </extensions>
      </trkpt>
      <trkpt lat="42.562778256833553314208984375" lon="20.037731118500232696533203125">
        <ele>2096.60009765625</ele>
        <time>2026-06-15T12:40:39.000Z</time>
        <extensions>
          <ns3:TrackPointExtension>
            <ns3:atemp>17.0</ns3:atemp>
          </ns3:TrackPointExtension>
        </extensions>
      </trkpt>
      <trkpt lat="42.562778256833553314208984375" lon="20.037731118500232696533203125">
        <ele>2096.60009765625</ele>
        <time>2026-06-15T12:40:40.000Z</time>
        <extensions>
          <ns3:TrackPointExtension>
            <ns3:atemp>17.0</ns3:atemp>
          </ns3:TrackPointExtension>
        </extensions>
      </trkpt>
      <trkpt lat="42.562778256833553314208984375" lon="20.037731118500232696533203125">
        <ele>2096.60009765625</ele>
        <time>2026-06-15T12:40:41.000Z</time>
        <extensions>
          <ns3:TrackPointExtension>
            <ns3:atemp>17.0</ns3:atemp>
          </ns3:TrackPointExtension>
        </extensions>
      </trkpt>
      <trkpt lat="42.562778256833553314208984375" lon="20.037731118500232696533203125">
        <ele>2096.60009765625</ele>
        <time>2026-06-15T12:40:42.000Z</time>
        <extensions>
          <ns3:TrackPointExtension>
            <ns3:atemp>17.0</ns3:atemp>
          </ns3:TrackPointExtension>
        </extensions>
      </trkpt>
      <trkpt lat="42.562778256833553314208984375" lon="20.037731118500232696533203125">
        <ele>2096.800048828125</ele>
        <time>2026-06-15T12:40:43.000Z</time>
        <extensions>
          <ns3:TrackPointExtension>
            <ns3:atemp>17.0</ns3:atemp>
          </ns3:TrackPointExtension>
        </extensions>
      </trkpt>
      <trkpt lat="42.562778256833553314208984375" lon="20.037731118500232696533203125">
        <ele>2096.800048828125</ele>
        <time>2026-06-15T12:40:44.000Z</time>
        <extensions>
          <ns3:TrackPointExtension>
            <ns3:atemp>18.0</ns3:atemp>
          </ns3:TrackPointExtension>
        </extensions>
      </trkpt>
      <trkpt lat="42.562778256833553314208984375" lon="20.037731118500232696533203125">
        <ele>2097</ele>
        <time>2026-06-15T12:40:45.000Z</time>
        <extensions>
          <ns3:TrackPointExtension>
            <ns3:atemp>17.0</ns3:atemp>
          </ns3:TrackPointExtension>
        </extensions>
      </trkpt>
      <trkpt lat="42.562778256833553314208984375" lon="20.037731118500232696533203125">
        <ele>2097</ele>
        <time>2026-06-15T12:40:46.000Z</time>
        <extensions>
          <ns3:TrackPointExtension>
            <ns3:atemp>17.0</ns3:atemp>
          </ns3:TrackPointExtension>
        </extensions>
      </trkpt>
      <trkpt lat="42.562778256833553314208984375" lon="20.037731118500232696533203125">
        <ele>2097</ele>
        <time>2026-06-15T12:40:47.000Z</time>
        <extensions>
          <ns3:TrackPointExtension>
            <ns3:atemp>17.0</ns3:atemp>
          </ns3:TrackPointExtension>
        </extensions>
      </trkpt>
      <trkpt lat="42.562778256833553314208984375" lon="20.037731118500232696533203125">
        <ele>2096.800048828125</ele>
        <time>2026-06-15T12:40:48.000Z</time>
        <extensions>
          <ns3:TrackPointExtension>
            <ns3:atemp>18.0</ns3:atemp>
          </ns3:TrackPointExtension>
        </extensions>
      </trkpt>
      <trkpt lat="42.562778256833553314208984375" lon="20.037731118500232696533203125">
        <ele>2096.800048828125</ele>
        <time>2026-06-15T12:40:49.000Z</time>
        <extensions>
          <ns3:TrackPointExtension>
            <ns3:atemp>17.0</ns3:atemp>
          </ns3:TrackPointExtension>
        </extensions>
      </trkpt>
      <trkpt lat="42.562778256833553314208984375" lon="20.037731118500232696533203125">
        <ele>2096.60009765625</ele>
        <time>2026-06-15T12:40:50.000Z</time>
        <extensions>
          <ns3:TrackPointExtension>
            <ns3:atemp>17.0</ns3:atemp>
          </ns3:TrackPointExtension>
        </extensions>
      </trkpt>
      <trkpt lat="42.562778256833553314208984375" lon="20.037731118500232696533203125">
        <ele>2096.60009765625</ele>
        <time>2026-06-15T12:40:51.000Z</time>
        <extensions>
          <ns3:TrackPointExtension>
            <ns3:atemp>17.0</ns3:atemp>
          </ns3:TrackPointExtension>
        </extensions>
      </trkpt>
      <trkpt lat="42.562778256833553314208984375" lon="20.037731118500232696533203125">
        <ele>2096.60009765625</ele>
        <time>2026-06-15T12:40:52.000Z</time>
        <extensions>
          <ns3:TrackPointExtension>
            <ns3:atemp>17.0</ns3:atemp>
          </ns3:TrackPointExtension>
        </extensions>
      </trkpt>
      <trkpt lat="42.562778256833553314208984375" lon="20.037731118500232696533203125">
        <ele>2096.39990234375</ele>
        <time>2026-06-15T12:40:53.000Z</time>
        <extensions>
          <ns3:TrackPointExtension>
            <ns3:atemp>17.0</ns3:atemp>
          </ns3:TrackPointExtension>
        </extensions>
      </trkpt>
      <trkpt lat="42.562778256833553314208984375" lon="20.037731118500232696533203125">
        <ele>2096.39990234375</ele>
        <time>2026-06-15T12:40:54.000Z</time>
        <extensions>
          <ns3:TrackPointExtension>
            <ns3:atemp>17.0</ns3:atemp>
          </ns3:TrackPointExtension>
        </extensions>
      </trkpt>
      <trkpt lat="42.562778256833553314208984375" lon="20.037731118500232696533203125">
        <ele>2096.199951171875</ele>
        <time>2026-06-15T12:40:55.000Z</time>
        <extensions>
          <ns3:TrackPointExtension>
            <ns3:atemp>17.0</ns3:atemp>
          </ns3:TrackPointExtension>
        </extensions>
      </trkpt>
      <trkpt lat="42.562778256833553314208984375" lon="20.037731118500232696533203125">
        <ele>2096.199951171875</ele>
        <time>2026-06-15T12:40:56.000Z</time>
        <extensions>
          <ns3:TrackPointExtension>
            <ns3:atemp>17.0</ns3:atemp>
          </ns3:TrackPointExtension>
        </extensions>
      </trkpt>
      <trkpt lat="42.562778256833553314208984375" lon="20.037731118500232696533203125">
        <ele>2096.199951171875</ele>
        <time>2026-06-15T12:40:57.000Z</time>
        <extensions>
          <ns3:TrackPointExtension>
            <ns3:atemp>17.0</ns3:atemp>
          </ns3:TrackPointExtension>
        </extensions>
      </trkpt>
      <trkpt lat="42.562778256833553314208984375" lon="20.037731118500232696533203125">
        <ele>2096.199951171875</ele>
        <time>2026-06-15T12:40:58.000Z</time>
        <extensions>
          <ns3:TrackPointExtension>
            <ns3:atemp>17.0</ns3:atemp>
          </ns3:TrackPointExtension>
        </extensions>
      </trkpt>
      <trkpt lat="42.562778256833553314208984375" lon="20.037731118500232696533203125">
        <ele>2096.199951171875</ele>
        <time>2026-06-15T12:40:59.000Z</time>
        <extensions>
          <ns3:TrackPointExtension>
            <ns3:atemp>17.0</ns3:atemp>
          </ns3:TrackPointExtension>
        </extensions>
      </trkpt>
      <trkpt lat="42.562778256833553314208984375" lon="20.037731118500232696533203125">
        <ele>2096.199951171875</ele>
        <time>2026-06-15T12:41:00.000Z</time>
        <extensions>
          <ns3:TrackPointExtension>
            <ns3:atemp>17.0</ns3:atemp>
          </ns3:TrackPointExtension>
        </extensions>
      </trkpt>
      <trkpt lat="42.562778256833553314208984375" lon="20.037731118500232696533203125">
        <ele>2096.199951171875</ele>
        <time>2026-06-15T12:41:01.000Z</time>
        <extensions>
          <ns3:TrackPointExtension>
            <ns3:atemp>17.0</ns3:atemp>
          </ns3:TrackPointExtension>
        </extensions>
      </trkpt>
      <trkpt lat="42.562778256833553314208984375" lon="20.037731118500232696533203125">
        <ele>2096.199951171875</ele>
        <time>2026-06-15T12:41:02.000Z</time>
        <extensions>
          <ns3:TrackPointExtension>
            <ns3:atemp>17.0</ns3:atemp>
          </ns3:TrackPointExtension>
        </extensions>
      </trkpt>
      <trkpt lat="42.562778256833553314208984375" lon="20.037731118500232696533203125">
        <ele>2096.199951171875</ele>
        <time>2026-06-15T12:41:03.000Z</time>
        <extensions>
          <ns3:TrackPointExtension>
            <ns3:atemp>17.0</ns3:atemp>
          </ns3:TrackPointExtension>
        </extensions>
      </trkpt>
      <trkpt lat="42.562778256833553314208984375" lon="20.037731118500232696533203125">
        <ele>2096.199951171875</ele>
        <time>2026-06-15T12:41:04.000Z</time>
        <extensions>
          <ns3:TrackPointExtension>
            <ns3:atemp>17.0</ns3:atemp>
          </ns3:TrackPointExtension>
        </extensions>
      </trkpt>
      <trkpt lat="42.562778256833553314208984375" lon="20.037731118500232696533203125">
        <ele>2096.199951171875</ele>
        <time>2026-06-15T12:41:05.000Z</time>
        <extensions>
          <ns3:TrackPointExtension>
            <ns3:atemp>17.0</ns3:atemp>
          </ns3:TrackPointExtension>
        </extensions>
      </trkpt>
      <trkpt lat="42.562778256833553314208984375" lon="20.037731118500232696533203125">
        <ele>2096.199951171875</ele>
        <time>2026-06-15T12:41:06.000Z</time>
        <extensions>
          <ns3:TrackPointExtension>
            <ns3:atemp>17.0</ns3:atemp>
          </ns3:TrackPointExtension>
        </extensions>
      </trkpt>
      <trkpt lat="42.562778256833553314208984375" lon="20.037731118500232696533203125">
        <ele>2096.39990234375</ele>
        <time>2026-06-15T12:41:07.000Z</time>
        <extensions>
          <ns3:TrackPointExtension>
            <ns3:atemp>17.0</ns3:atemp>
          </ns3:TrackPointExtension>
        </extensions>
      </trkpt>
      <trkpt lat="42.562778256833553314208984375" lon="20.037731118500232696533203125">
        <ele>2096.39990234375</ele>
        <time>2026-06-15T12:41:08.000Z</time>
        <extensions>
          <ns3:TrackPointExtension>
            <ns3:atemp>17.0</ns3:atemp>
          </ns3:TrackPointExtension>
        </extensions>
      </trkpt>
      <trkpt lat="42.562778256833553314208984375" lon="20.037731118500232696533203125">
        <ele>2096.39990234375</ele>
        <time>2026-06-15T12:41:09.000Z</time>
        <extensions>
          <ns3:TrackPointExtension>
            <ns3:atemp>17.0</ns3:atemp>
          </ns3:TrackPointExtension>
        </extensions>
      </trkpt>
      <trkpt lat="42.562778256833553314208984375" lon="20.037731118500232696533203125">
        <ele>2096.39990234375</ele>
        <time>2026-06-15T12:41:10.000Z</time>
        <extensions>
          <ns3:TrackPointExtension>
            <ns3:atemp>17.0</ns3:atemp>
          </ns3:TrackPointExtension>
        </extensions>
      </trkpt>
      <trkpt lat="42.562778256833553314208984375" lon="20.037731118500232696533203125">
        <ele>2096.39990234375</ele>
        <time>2026-06-15T12:41:11.000Z</time>
        <extensions>
          <ns3:TrackPointExtension>
            <ns3:atemp>17.0</ns3:atemp>
          </ns3:TrackPointExtension>
        </extensions>
      </trkpt>
      <trkpt lat="42.562778256833553314208984375" lon="20.037731118500232696533203125">
        <ele>2096.39990234375</ele>
        <time>2026-06-15T12:41:12.000Z</time>
        <extensions>
          <ns3:TrackPointExtension>
            <ns3:atemp>17.0</ns3:atemp>
          </ns3:TrackPointExtension>
        </extensions>
      </trkpt>
      <trkpt lat="42.562778256833553314208984375" lon="20.037731118500232696533203125">
        <ele>2096.39990234375</ele>
        <time>2026-06-15T12:41:13.000Z</time>
        <extensions>
          <ns3:TrackPointExtension>
            <ns3:atemp>17.0</ns3:atemp>
          </ns3:TrackPointExtension>
        </extensions>
      </trkpt>
      <trkpt lat="42.562778256833553314208984375" lon="20.037731118500232696533203125">
        <ele>2096.39990234375</ele>
        <time>2026-06-15T12:41:14.000Z</time>
        <extensions>
          <ns3:TrackPointExtension>
            <ns3:atemp>17.0</ns3:atemp>
          </ns3:TrackPointExtension>
        </extensions>
      </trkpt>
      <trkpt lat="42.562778256833553314208984375" lon="20.037731118500232696533203125">
        <ele>2096.39990234375</ele>
        <time>2026-06-15T12:41:15.000Z</time>
        <extensions>
          <ns3:TrackPointExtension>
            <ns3:atemp>17.0</ns3:atemp>
          </ns3:TrackPointExtension>
        </extensions>
      </trkpt>
      <trkpt lat="42.562778256833553314208984375" lon="20.037731118500232696533203125">
        <ele>2096.39990234375</ele>
        <time>2026-06-15T12:41:16.000Z</time>
        <extensions>
          <ns3:TrackPointExtension>
            <ns3:atemp>17.0</ns3:atemp>
          </ns3:TrackPointExtension>
        </extensions>
      </trkpt>
      <trkpt lat="42.562778256833553314208984375" lon="20.037731118500232696533203125">
        <ele>2096.199951171875</ele>
        <time>2026-06-15T12:41:17.000Z</time>
        <extensions>
          <ns3:TrackPointExtension>
            <ns3:atemp>17.0</ns3:atemp>
          </ns3:TrackPointExtension>
        </extensions>
      </trkpt>
      <trkpt lat="42.562778256833553314208984375" lon="20.037731118500232696533203125">
        <ele>2096.199951171875</ele>
        <time>2026-06-15T12:41:18.000Z</time>
        <extensions>
          <ns3:TrackPointExtension>
            <ns3:atemp>17.0</ns3:atemp>
          </ns3:TrackPointExtension>
        </extensions>
      </trkpt>
      <trkpt lat="42.562778256833553314208984375" lon="20.037731118500232696533203125">
        <ele>2096.199951171875</ele>
        <time>2026-06-15T12:41:19.000Z</time>
        <extensions>
          <ns3:TrackPointExtension>
            <ns3:atemp>17.0</ns3:atemp>
          </ns3:TrackPointExtension>
        </extensions>
      </trkpt>
      <trkpt lat="42.562778256833553314208984375" lon="20.037731118500232696533203125">
        <ele>2096.199951171875</ele>
        <time>2026-06-15T12:41:20.000Z</time>
        <extensions>
          <ns3:TrackPointExtension>
            <ns3:atemp>17.0</ns3:atemp>
          </ns3:TrackPointExtension>
        </extensions>
      </trkpt>
      <trkpt lat="42.562778256833553314208984375" lon="20.037731118500232696533203125">
        <ele>2096.199951171875</ele>
        <time>2026-06-15T12:41:21.000Z</time>
        <extensions>
          <ns3:TrackPointExtension>
            <ns3:atemp>17.0</ns3:atemp>
          </ns3:TrackPointExtension>
        </extensions>
      </trkpt>
      <trkpt lat="42.562778256833553314208984375" lon="20.037731118500232696533203125">
        <ele>2096.199951171875</ele>
        <time>2026-06-15T12:41:22.000Z</time>
        <extensions>
          <ns3:TrackPointExtension>
            <ns3:atemp>17.0</ns3:atemp>
          </ns3:TrackPointExtension>
        </extensions>
      </trkpt>
      <trkpt lat="42.562778256833553314208984375" lon="20.037731118500232696533203125">
        <ele>2096.199951171875</ele>
        <time>2026-06-15T12:41:23.000Z</time>
        <extensions>
          <ns3:TrackPointExtension>
            <ns3:atemp>17.0</ns3:atemp>
          </ns3:TrackPointExtension>
        </extensions>
      </trkpt>
      <trkpt lat="42.562778256833553314208984375" lon="20.037731118500232696533203125">
        <ele>2096.199951171875</ele>
        <time>2026-06-15T12:41:24.000Z</time>
        <extensions>
          <ns3:TrackPointExtension>
            <ns3:atemp>17.0</ns3:atemp>
          </ns3:TrackPointExtension>
        </extensions>
      </trkpt>
      <trkpt lat="42.562778256833553314208984375" lon="20.037731118500232696533203125">
        <ele>2096.199951171875</ele>
        <time>2026-06-15T12:41:25.000Z</time>
        <extensions>
          <ns3:TrackPointExtension>
            <ns3:atemp>17.0</ns3:atemp>
          </ns3:TrackPointExtension>
        </extensions>
      </trkpt>
      <trkpt lat="42.562778256833553314208984375" lon="20.037731118500232696533203125">
        <ele>2096.199951171875</ele>
        <time>2026-06-15T12:41:26.000Z</time>
        <extensions>
          <ns3:TrackPointExtension>
            <ns3:atemp>17.0</ns3:atemp>
          </ns3:TrackPointExtension>
        </extensions>
      </trkpt>
      <trkpt lat="42.562778256833553314208984375" lon="20.037731118500232696533203125">
        <ele>2096</ele>
        <time>2026-06-15T12:41:27.000Z</time>
        <extensions>
          <ns3:TrackPointExtension>
            <ns3:atemp>17.0</ns3:atemp>
          </ns3:TrackPointExtension>
        </extensions>
      </trkpt>
      <trkpt lat="42.562778256833553314208984375" lon="20.037731118500232696533203125">
        <ele>2096</ele>
        <time>2026-06-15T12:41:28.000Z</time>
        <extensions>
          <ns3:TrackPointExtension>
            <ns3:atemp>17.0</ns3:atemp>
          </ns3:TrackPointExtension>
        </extensions>
      </trkpt>
      <trkpt lat="42.5627797655761241912841796875" lon="20.0377316214144229888916015625">
        <ele>2096</ele>
        <time>2026-06-15T12:41:29.000Z</time>
        <extensions>
          <ns3:TrackPointExtension>
            <ns3:atemp>17.0</ns3:atemp>
          </ns3:TrackPointExtension>
        </extensions>
      </trkpt>
      <trkpt lat="42.5627744011580944061279296875" lon="20.03774578683078289031982421875">
        <ele>2096</ele>
        <time>2026-06-15T12:41:30.000Z</time>
        <extensions>
          <ns3:TrackPointExtension>
            <ns3:atemp>17.0</ns3:atemp>
          </ns3:TrackPointExtension>
        </extensions>
      </trkpt>
      <trkpt lat="42.56276375614106655120849609375" lon="20.0377574376761913299560546875">
        <ele>2096</ele>
        <time>2026-06-15T12:41:31.000Z</time>
        <extensions>
          <ns3:TrackPointExtension>
            <ns3:atemp>17.0</ns3:atemp>
          </ns3:TrackPointExtension>
        </extensions>
      </trkpt>
      <trkpt lat="42.56276316940784454345703125" lon="20.0377547554671764373779296875">
        <ele>2095.800048828125</ele>
        <time>2026-06-15T12:41:32.000Z</time>
        <extensions>
          <ns3:TrackPointExtension>
            <ns3:atemp>17.0</ns3:atemp>
          </ns3:TrackPointExtension>
        </extensions>
      </trkpt>
      <trkpt lat="42.562761493027210235595703125" lon="20.03775182180106639862060546875">
        <ele>2095.800048828125</ele>
        <time>2026-06-15T12:41:33.000Z</time>
        <extensions>
          <ns3:TrackPointExtension>
            <ns3:atemp>17.0</ns3:atemp>
          </ns3:TrackPointExtension>
        </extensions>
      </trkpt>
      <trkpt lat="42.56276157684624195098876953125" lon="20.0377517379820346832275390625">
        <ele>2095.800048828125</ele>
        <time>2026-06-15T12:41:34.000Z</time>
        <extensions>
          <ns3:TrackPointExtension>
            <ns3:atemp>17.0</ns3:atemp>
          </ns3:TrackPointExtension>
        </extensions>
      </trkpt>
      <trkpt lat="42.56276157684624195098876953125" lon="20.0377517379820346832275390625">
        <ele>2095.800048828125</ele>
        <time>2026-06-15T12:41:35.000Z</time>
        <extensions>
          <ns3:TrackPointExtension>
            <ns3:atemp>17.0</ns3:atemp>
          </ns3:TrackPointExtension>
        </extensions>
      </trkpt>
      <trkpt lat="42.56276157684624195098876953125" lon="20.0377517379820346832275390625">
        <ele>2095.800048828125</ele>
        <time>2026-06-15T12:41:36.000Z</time>
        <extensions>
          <ns3:TrackPointExtension>
            <ns3:atemp>17.0</ns3:atemp>
          </ns3:TrackPointExtension>
        </extensions>
      </trkpt>
      <trkpt lat="42.56276157684624195098876953125" lon="20.0377517379820346832275390625">
        <ele>2095.60009765625</ele>
        <time>2026-06-15T12:41:37.000Z</time>
        <extensions>
          <ns3:TrackPointExtension>
            <ns3:atemp>17.0</ns3:atemp>
          </ns3:TrackPointExtension>
        </extensions>
      </trkpt>
      <trkpt lat="42.56276182830333709716796875" lon="20.037751235067844390869140625">
        <ele>2095.60009765625</ele>
        <time>2026-06-15T12:41:38.000Z</time>
        <extensions>
          <ns3:TrackPointExtension>
            <ns3:atemp>17.0</ns3:atemp>
          </ns3:TrackPointExtension>
        </extensions>
      </trkpt>
      <trkpt lat="42.56275889463722705841064453125" lon="20.03776472993195056915283203125">
        <ele>2095.60009765625</ele>
        <time>2026-06-15T12:41:39.000Z</time>
        <extensions>
          <ns3:TrackPointExtension>
            <ns3:atemp>17.0</ns3:atemp>
          </ns3:TrackPointExtension>
        </extensions>
      </trkpt>
      <trkpt lat="42.56275319494307041168212890625" lon="20.03778769634664058685302734375">
        <ele>2095.60009765625</ele>
        <time>2026-06-15T12:41:40.000Z</time>
        <extensions>
          <ns3:TrackPointExtension>
            <ns3:atemp>17.0</ns3:atemp>
          </ns3:TrackPointExtension>
        </extensions>
      </trkpt>
      <trkpt lat="42.56273760460317134857177734375" lon="20.03781837411224842071533203125">
        <ele>2095.39990234375</ele>
        <time>2026-06-15T12:41:41.000Z</time>
        <extensions>
          <ns3:TrackPointExtension>
            <ns3:atemp>17.0</ns3:atemp>
          </ns3:TrackPointExtension>
        </extensions>
      </trkpt>
      <trkpt lat="42.56271480582654476165771484375" lon="20.03786095418035984039306640625">
        <ele>2095.199951171875</ele>
        <time>2026-06-15T12:41:42.000Z</time>
        <extensions>
          <ns3:TrackPointExtension>
            <ns3:atemp>17.0</ns3:atemp>
          </ns3:TrackPointExtension>
        </extensions>
      </trkpt>
      <trkpt lat="42.5626889057457447052001953125" lon="20.0379073061048984527587890625">
        <ele>2095</ele>
        <time>2026-06-15T12:41:43.000Z</time>
        <extensions>
          <ns3:TrackPointExtension>
            <ns3:atemp>17.0</ns3:atemp>
          </ns3:TrackPointExtension>
        </extensions>
      </trkpt>
      <trkpt lat="42.562672980129718780517578125" lon="20.03796002827584743499755859375">
        <ele>2094.60009765625</ele>
        <time>2026-06-15T12:41:44.000Z</time>
        <extensions>
          <ns3:TrackPointExtension>
            <ns3:atemp>17.0</ns3:atemp>
          </ns3:TrackPointExtension>
        </extensions>
      </trkpt>
      <trkpt lat="42.56266334094107151031494140625" lon="20.03801518119871616363525390625">
        <ele>2094</ele>
        <time>2026-06-15T12:41:45.000Z</time>
        <extensions>
          <ns3:TrackPointExtension>
            <ns3:atemp>17.0</ns3:atemp>
          </ns3:TrackPointExtension>
        </extensions>
      </trkpt>
      <trkpt lat="42.5626510195434093475341796875" lon="20.03807955421507358551025390625">
        <ele>2093.39990234375</ele>
        <time>2026-06-15T12:41:46.000Z</time>
        <extensions>
          <ns3:TrackPointExtension>
            <ns3:atemp>17.0</ns3:atemp>
          </ns3:TrackPointExtension>
        </extensions>
      </trkpt>
      <trkpt lat="42.56263442337512969970703125" lon="20.0381369702517986297607421875">
        <ele>2092.800048828125</ele>
        <time>2026-06-15T12:41:47.000Z</time>
        <extensions>
          <ns3:TrackPointExtension>
            <ns3:atemp>17.0</ns3:atemp>
          </ns3:TrackPointExtension>
        </extensions>
      </trkpt>
      <trkpt lat="42.5626094453036785125732421875" lon="20.0381902791559696197509765625">
        <ele>2092</ele>
        <time>2026-06-15T12:41:48.000Z</time>
        <extensions>
          <ns3:TrackPointExtension>
            <ns3:atemp>17.0</ns3:atemp>
          </ns3:TrackPointExtension>
        </extensions>
      </trkpt>
      <trkpt lat="42.56257985718548297882080078125" lon="20.0382298417389392852783203125">
        <ele>2091.199951171875</ele>
        <time>2026-06-15T12:41:49.000Z</time>
        <extensions>
          <ns3:TrackPointExtension>
            <ns3:atemp>17.0</ns3:atemp>
          </ns3:TrackPointExtension>
        </extensions>
      </trkpt>
      <trkpt lat="42.56255085580050945281982421875" lon="20.0382596813142299652099609375">
        <ele>2090.60009765625</ele>
        <time>2026-06-15T12:41:50.000Z</time>
        <extensions>
          <ns3:TrackPointExtension>
            <ns3:atemp>17.0</ns3:atemp>
          </ns3:TrackPointExtension>
        </extensions>
      </trkpt>
      <trkpt lat="42.5625279732048511505126953125" lon="20.03829647786915302276611328125">
        <ele>2090</ele>
        <time>2026-06-15T12:41:51.000Z</time>
        <extensions>
          <ns3:TrackPointExtension>
            <ns3:atemp>17.0</ns3:atemp>
          </ns3:TrackPointExtension>
        </extensions>
      </trkpt>
      <trkpt lat="42.5625091977417469024658203125" lon="20.03833436407148838043212890625">
        <ele>2089.60009765625</ele>
        <time>2026-06-15T12:41:52.000Z</time>
        <extensions>
          <ns3:TrackPointExtension>
            <ns3:atemp>17.0</ns3:atemp>
          </ns3:TrackPointExtension>
        </extensions>
      </trkpt>
      <trkpt lat="42.5624984689056873321533203125" lon="20.038365460932254791259765625">
        <ele>2089.199951171875</ele>
        <time>2026-06-15T12:41:53.000Z</time>
        <extensions>
          <ns3:TrackPointExtension>
            <ns3:atemp>17.0</ns3:atemp>
          </ns3:TrackPointExtension>
        </extensions>
      </trkpt>
      <trkpt lat="42.56248882971704006195068359375" lon="20.0384058617055416107177734375">
        <ele>2088.800048828125</ele>
        <time>2026-06-15T12:41:54.000Z</time>
        <extensions>
          <ns3:TrackPointExtension>
            <ns3:atemp>17.0</ns3:atemp>
          </ns3:TrackPointExtension>
        </extensions>
      </trkpt>
      <trkpt lat="42.5624689646065235137939453125" lon="20.03842941485345363616943359375">
        <ele>2088.39990234375</ele>
        <time>2026-06-15T12:41:55.000Z</time>
        <extensions>
          <ns3:TrackPointExtension>
            <ns3:atemp>17.0</ns3:atemp>
          </ns3:TrackPointExtension>
        </extensions>
      </trkpt>
      <trkpt lat="42.5624438188970088958740234375" lon="20.03843880258500576019287109375">
        <ele>2088.199951171875</ele>
        <time>2026-06-15T12:41:56.000Z</time>
        <extensions>
          <ns3:TrackPointExtension>
            <ns3:atemp>17.0</ns3:atemp>
          </ns3:TrackPointExtension>
        </extensions>
      </trkpt>
      <trkpt lat="42.56242118775844573974609375" lon="20.0384380482137203216552734375">
        <ele>2087.800048828125</ele>
        <time>2026-06-15T12:41:57.000Z</time>
        <extensions>
          <ns3:TrackPointExtension>
            <ns3:atemp>17.0</ns3:atemp>
          </ns3:TrackPointExtension>
        </extensions>
      </trkpt>
      <trkpt lat="42.5623958744108676910400390625" lon="20.0384417362511157989501953125">
        <ele>2087.39990234375</ele>
        <time>2026-06-15T12:41:58.000Z</time>
        <extensions>
          <ns3:TrackPointExtension>
            <ns3:atemp>17.0</ns3:atemp>
          </ns3:TrackPointExtension>
        </extensions>
      </trkpt>
      <trkpt lat="42.56237852387130260467529296875" lon="20.03844383172690868377685546875">
        <ele>2087.199951171875</ele>
        <time>2026-06-15T12:41:59.000Z</time>
        <extensions>
          <ns3:TrackPointExtension>
            <ns3:atemp>17.0</ns3:atemp>
          </ns3:TrackPointExtension>
        </extensions>
      </trkpt>
      <trkpt lat="42.5623749196529388427734375" lon="20.038439221680164337158203125">
        <ele>2086.800048828125</ele>
        <time>2026-06-15T12:42:00.000Z</time>
        <extensions>
          <ns3:TrackPointExtension>
            <ns3:atemp>17.0</ns3:atemp>
          </ns3:TrackPointExtension>
        </extensions>
      </trkpt>
      <trkpt lat="42.5623713992536067962646484375" lon="20.03843821585178375244140625">
        <ele>2086.60009765625</ele>
        <time>2026-06-15T12:42:01.000Z</time>
        <extensions>
          <ns3:TrackPointExtension>
            <ns3:atemp>17.0</ns3:atemp>
          </ns3:TrackPointExtension>
        </extensions>
      </trkpt>
      <trkpt lat="42.56237148307263851165771484375" lon="20.03843829967081546783447265625">
        <ele>2086.39990234375</ele>
        <time>2026-06-15T12:42:02.000Z</time>
        <extensions>
          <ns3:TrackPointExtension>
            <ns3:atemp>17.0</ns3:atemp>
          </ns3:TrackPointExtension>
        </extensions>
      </trkpt>
      <trkpt lat="42.56237148307263851165771484375" lon="20.03843829967081546783447265625">
        <ele>2086.39990234375</ele>
        <time>2026-06-15T12:42:03.000Z</time>
        <extensions>
          <ns3:TrackPointExtension>
            <ns3:atemp>17.0</ns3:atemp>
          </ns3:TrackPointExtension>
        </extensions>
      </trkpt>
      <trkpt lat="42.56237148307263851165771484375" lon="20.03843829967081546783447265625">
        <ele>2086.199951171875</ele>
        <time>2026-06-15T12:42:04.000Z</time>
        <extensions>
          <ns3:TrackPointExtension>
            <ns3:atemp>17.0</ns3:atemp>
          </ns3:TrackPointExtension>
        </extensions>
      </trkpt>
      <trkpt lat="42.56237148307263851165771484375" lon="20.03843829967081546783447265625">
        <ele>2086.199951171875</ele>
        <time>2026-06-15T12:42:05.000Z</time>
        <extensions>
          <ns3:TrackPointExtension>
            <ns3:atemp>17.0</ns3:atemp>
          </ns3:TrackPointExtension>
        </extensions>
      </trkpt>
      <trkpt lat="42.56237148307263851165771484375" lon="20.03843829967081546783447265625">
        <ele>2086.199951171875</ele>
        <time>2026-06-15T12:42:06.000Z</time>
        <extensions>
          <ns3:TrackPointExtension>
            <ns3:atemp>17.0</ns3:atemp>
          </ns3:TrackPointExtension>
        </extensions>
      </trkpt>
      <trkpt lat="42.56237148307263851165771484375" lon="20.03843829967081546783447265625">
        <ele>2086.199951171875</ele>
        <time>2026-06-15T12:42:07.000Z</time>
        <extensions>
          <ns3:TrackPointExtension>
            <ns3:atemp>17.0</ns3:atemp>
          </ns3:TrackPointExtension>
        </extensions>
      </trkpt>
      <trkpt lat="42.56237148307263851165771484375" lon="20.03843829967081546783447265625">
        <ele>2086.199951171875</ele>
        <time>2026-06-15T12:42:08.000Z</time>
        <extensions>
          <ns3:TrackPointExtension>
            <ns3:atemp>17.0</ns3:atemp>
          </ns3:TrackPointExtension>
        </extensions>
      </trkpt>
      <trkpt lat="42.56237148307263851165771484375" lon="20.03843829967081546783447265625">
        <ele>2086.199951171875</ele>
        <time>2026-06-15T12:42:09.000Z</time>
        <extensions>
          <ns3:TrackPointExtension>
            <ns3:atemp>17.0</ns3:atemp>
          </ns3:TrackPointExtension>
        </extensions>
      </trkpt>
      <trkpt lat="42.56237148307263851165771484375" lon="20.03843829967081546783447265625">
        <ele>2086.39990234375</ele>
        <time>2026-06-15T12:42:10.000Z</time>
        <extensions>
          <ns3:TrackPointExtension>
            <ns3:atemp>17.0</ns3:atemp>
          </ns3:TrackPointExtension>
        </extensions>
      </trkpt>
      <trkpt lat="42.56237148307263851165771484375" lon="20.03843829967081546783447265625">
        <ele>2086.39990234375</ele>
        <time>2026-06-15T12:42:11.000Z</time>
        <extensions>
          <ns3:TrackPointExtension>
            <ns3:atemp>17.0</ns3:atemp>
          </ns3:TrackPointExtension>
        </extensions>
      </trkpt>
      <trkpt lat="42.56237081252038478851318359375" lon="20.03844014368951320648193359375">
        <ele>2086.199951171875</ele>
        <time>2026-06-15T12:42:12.000Z</time>
        <extensions>
          <ns3:TrackPointExtension>
            <ns3:atemp>17.0</ns3:atemp>
          </ns3:TrackPointExtension>
        </extensions>
      </trkpt>
      <trkpt lat="42.56235547363758087158203125" lon="20.03846696577966213226318359375">
        <ele>2086.199951171875</ele>
        <time>2026-06-15T12:42:13.000Z</time>
        <extensions>
          <ns3:TrackPointExtension>
            <ns3:atemp>17.0</ns3:atemp>
          </ns3:TrackPointExtension>
        </extensions>
      </trkpt>
      <trkpt lat="42.5623442418873310089111328125" lon="20.038487501442432403564453125">
        <ele>2086</ele>
        <time>2026-06-15T12:42:14.000Z</time>
        <extensions>
          <ns3:TrackPointExtension>
            <ns3:atemp>17.0</ns3:atemp>
          </ns3:TrackPointExtension>
        </extensions>
      </trkpt>
      <trkpt lat="42.562332339584827423095703125" lon="20.03851541317999362945556640625">
        <ele>2085.800048828125</ele>
        <time>2026-06-15T12:42:15.000Z</time>
        <extensions>
          <ns3:TrackPointExtension>
            <ns3:atemp>17.0</ns3:atemp>
          </ns3:TrackPointExtension>
        </extensions>
      </trkpt>
      <trkpt lat="42.5623201020061969757080078125" lon="20.03854223527014255523681640625">
        <ele>2085.60009765625</ele>
        <time>2026-06-15T12:42:16.000Z</time>
        <extensions>
          <ns3:TrackPointExtension>
            <ns3:atemp>17.0</ns3:atemp>
          </ns3:TrackPointExtension>
        </extensions>
      </trkpt>
      <trkpt lat="42.5623073615133762359619140625" lon="20.03857241012156009674072265625">
        <ele>2085.39990234375</ele>
        <time>2026-06-15T12:42:17.000Z</time>
        <extensions>
          <ns3:TrackPointExtension>
            <ns3:atemp>17.0</ns3:atemp>
          </ns3:TrackPointExtension>
        </extensions>
      </trkpt>
      <trkpt lat="42.56228967569768428802490234375" lon="20.03860861994326114654541015625">
        <ele>2085.199951171875</ele>
        <time>2026-06-15T12:42:18.000Z</time>
        <extensions>
          <ns3:TrackPointExtension>
            <ns3:atemp>17.0</ns3:atemp>
          </ns3:TrackPointExtension>
        </extensions>
      </trkpt>
      <trkpt lat="42.5622714869678020477294921875" lon="20.03865086473524570465087890625">
        <ele>2085</ele>
        <time>2026-06-15T12:42:19.000Z</time>
        <extensions>
          <ns3:TrackPointExtension>
            <ns3:atemp>17.0</ns3:atemp>
          </ns3:TrackPointExtension>
        </extensions>
      </trkpt>
      <trkpt lat="42.562251873314380645751953125" lon="20.03868288360536098480224609375">
        <ele>2084.800048828125</ele>
        <time>2026-06-15T12:42:20.000Z</time>
        <extensions>
          <ns3:TrackPointExtension>
            <ns3:atemp>17.0</ns3:atemp>
          </ns3:TrackPointExtension>
        </extensions>
      </trkpt>
      <trkpt lat="42.5622312538325786590576171875" lon="20.03870434127748012542724609375">
        <ele>2084.60009765625</ele>
        <time>2026-06-15T12:42:21.000Z</time>
        <extensions>
          <ns3:TrackPointExtension>
            <ns3:atemp>17.0</ns3:atemp>
          </ns3:TrackPointExtension>
        </extensions>
      </trkpt>
      <trkpt lat="42.56220392882823944091796875" lon="20.0387163273990154266357421875">
        <ele>2084.60009765625</ele>
        <time>2026-06-15T12:42:22.000Z</time>
        <extensions>
          <ns3:TrackPointExtension>
            <ns3:atemp>17.0</ns3:atemp>
          </ns3:TrackPointExtension>
        </extensions>
      </trkpt>
      <trkpt lat="42.56217987276613712310791015625" lon="20.038705766201019287109375">
        <ele>2084.39990234375</ele>
        <time>2026-06-15T12:42:23.000Z</time>
        <extensions>
          <ns3:TrackPointExtension>
            <ns3:atemp>17.0</ns3:atemp>
          </ns3:TrackPointExtension>
        </extensions>
      </trkpt>
      <trkpt lat="42.5621658749878406524658203125" lon="20.0386821292340755462646484375">
        <ele>2084</ele>
        <time>2026-06-15T12:42:24.000Z</time>
        <extensions>
          <ns3:TrackPointExtension>
            <ns3:atemp>17.0</ns3:atemp>
          </ns3:TrackPointExtension>
        </extensions>
      </trkpt>
      <trkpt lat="42.56216109730303287506103515625" lon="20.03864935599267482757568359375">
        <ele>2083.800048828125</ele>
        <time>2026-06-15T12:42:25.000Z</time>
        <extensions>
          <ns3:TrackPointExtension>
            <ns3:atemp>17.0</ns3:atemp>
          </ns3:TrackPointExtension>
        </extensions>
      </trkpt>
      <trkpt lat="42.5621611811220645904541015625" lon="20.038622952997684478759765625">
        <ele>2083.39990234375</ele>
        <time>2026-06-15T12:42:26.000Z</time>
        <extensions>
          <ns3:TrackPointExtension>
            <ns3:atemp>17.0</ns3:atemp>
          </ns3:TrackPointExtension>
        </extensions>
      </trkpt>
      <trkpt lat="42.56217216141521930694580078125" lon="20.03859646618366241455078125">
        <ele>2083</ele>
        <time>2026-06-15T12:42:27.000Z</time>
        <extensions>
          <ns3:TrackPointExtension>
            <ns3:atemp>17.0</ns3:atemp>
          </ns3:TrackPointExtension>
        </extensions>
      </trkpt>
      <trkpt lat="42.5621789507567882537841796875" lon="20.0385569036006927490234375">
        <ele>2082.800048828125</ele>
        <time>2026-06-15T12:42:28.000Z</time>
        <extensions>
          <ns3:TrackPointExtension>
            <ns3:atemp>17.0</ns3:atemp>
          </ns3:TrackPointExtension>
        </extensions>
      </trkpt>
      <trkpt lat="42.56218942813575267791748046875" lon="20.03852547146379947662353515625">
        <ele>2082.60009765625</ele>
        <time>2026-06-15T12:42:29.000Z</time>
        <extensions>
          <ns3:TrackPointExtension>
            <ns3:atemp>17.0</ns3:atemp>
          </ns3:TrackPointExtension>
        </extensions>
      </trkpt>
      <trkpt lat="42.56219428963959217071533203125" lon="20.0384925305843353271484375">
        <ele>2082.39990234375</ele>
        <time>2026-06-15T12:42:30.000Z</time>
        <extensions>
          <ns3:TrackPointExtension>
            <ns3:atemp>17.0</ns3:atemp>
          </ns3:TrackPointExtension>
        </extensions>
      </trkpt>
      <trkpt lat="42.5622030906379222869873046875" lon="20.03845942206680774688720703125">
        <ele>2082.199951171875</ele>
        <time>2026-06-15T12:42:31.000Z</time>
        <extensions>
          <ns3:TrackPointExtension>
            <ns3:atemp>17.0</ns3:atemp>
          </ns3:TrackPointExtension>
        </extensions>
      </trkpt>
      <trkpt lat="42.56221172399818897247314453125" lon="20.03842706792056560516357421875">
        <ele>2081.800048828125</ele>
        <time>2026-06-15T12:42:32.000Z</time>
        <extensions>
          <ns3:TrackPointExtension>
            <ns3:atemp>17.0</ns3:atemp>
          </ns3:TrackPointExtension>
        </extensions>
      </trkpt>
      <trkpt lat="42.56222069263458251953125" lon="20.0383906066417694091796875">
        <ele>2081.60009765625</ele>
        <time>2026-06-15T12:42:33.000Z</time>
        <extensions>
          <ns3:TrackPointExtension>
            <ns3:atemp>17.0</ns3:atemp>
          </ns3:TrackPointExtension>
        </extensions>
      </trkpt>
      <trkpt lat="42.56223049946129322052001953125" lon="20.03835640847682952880859375">
        <ele>2081.39990234375</ele>
        <time>2026-06-15T12:42:34.000Z</time>
        <extensions>
          <ns3:TrackPointExtension>
            <ns3:atemp>17.0</ns3:atemp>
          </ns3:TrackPointExtension>
        </extensions>
      </trkpt>
      <trkpt lat="42.56224039010703563690185546875" lon="20.03832112066447734832763671875">
        <ele>2081</ele>
        <time>2026-06-15T12:42:35.000Z</time>
        <extensions>
          <ns3:TrackPointExtension>
            <ns3:atemp>17.0</ns3:atemp>
          </ns3:TrackPointExtension>
        </extensions>
      </trkpt>
      <trkpt lat="42.56225463934242725372314453125" lon="20.03828910179436206817626953125">
        <ele>2080.800048828125</ele>
        <time>2026-06-15T12:42:36.000Z</time>
        <extensions>
          <ns3:TrackPointExtension>
            <ns3:atemp>17.0</ns3:atemp>
          </ns3:TrackPointExtension>
        </extensions>
      </trkpt>
      <trkpt lat="42.56226486526429653167724609375" lon="20.0382613576948642730712890625">
        <ele>2080.60009765625</ele>
        <time>2026-06-15T12:42:37.000Z</time>
        <extensions>
          <ns3:TrackPointExtension>
            <ns3:atemp>17.0</ns3:atemp>
          </ns3:TrackPointExtension>
        </extensions>
      </trkpt>
      <trkpt lat="42.56227358244359493255615234375" lon="20.03822858445346355438232421875">
        <ele>2080.39990234375</ele>
        <time>2026-06-15T12:42:38.000Z</time>
        <extensions>
          <ns3:TrackPointExtension>
            <ns3:atemp>17.0</ns3:atemp>
          </ns3:TrackPointExtension>
        </extensions>
      </trkpt>
      <trkpt lat="42.56228229962289333343505859375" lon="20.03819472156465053558349609375">
        <ele>2080</ele>
        <time>2026-06-15T12:42:39.000Z</time>
        <extensions>
          <ns3:TrackPointExtension>
            <ns3:atemp>17.0</ns3:atemp>
          </ns3:TrackPointExtension>
        </extensions>
      </trkpt>
      <trkpt lat="42.5622842274606227874755859375" lon="20.03815884701907634735107421875">
        <ele>2079.800048828125</ele>
        <time>2026-06-15T12:42:40.000Z</time>
        <extensions>
          <ns3:TrackPointExtension>
            <ns3:atemp>17.0</ns3:atemp>
          </ns3:TrackPointExtension>
        </extensions>
      </trkpt>
      <trkpt lat="42.56228615529835224151611328125" lon="20.0381242297589778900146484375">
        <ele>2079.39990234375</ele>
        <time>2026-06-15T12:42:41.000Z</time>
        <extensions>
          <ns3:TrackPointExtension>
            <ns3:atemp>17.0</ns3:atemp>
          </ns3:TrackPointExtension>
        </extensions>
      </trkpt>
      <trkpt lat="42.5622872449457645416259765625" lon="20.03809179179370403289794921875">
        <ele>2079</ele>
        <time>2026-06-15T12:42:42.000Z</time>
        <extensions>
          <ns3:TrackPointExtension>
            <ns3:atemp>17.0</ns3:atemp>
          </ns3:TrackPointExtension>
        </extensions>
      </trkpt>
      <trkpt lat="42.56228883750736713409423828125" lon="20.03806496970355510711669921875">
        <ele>2078.60009765625</ele>
        <time>2026-06-15T12:42:43.000Z</time>
        <extensions>
          <ns3:TrackPointExtension>
            <ns3:atemp>17.0</ns3:atemp>
          </ns3:TrackPointExtension>
        </extensions>
      </trkpt>
      <trkpt lat="42.5622922740876674652099609375" lon="20.0380365550518035888671875">
        <ele>2078.199951171875</ele>
        <time>2026-06-15T12:42:44.000Z</time>
        <extensions>
          <ns3:TrackPointExtension>
            <ns3:atemp>17.0</ns3:atemp>
          </ns3:TrackPointExtension>
        </extensions>
      </trkpt>
      <trkpt lat="42.5622969679534435272216796875" lon="20.03801065497100353240966796875">
        <ele>2077.800048828125</ele>
        <time>2026-06-15T12:42:45.000Z</time>
        <extensions>
          <ns3:TrackPointExtension>
            <ns3:atemp>17.0</ns3:atemp>
          </ns3:TrackPointExtension>
        </extensions>
      </trkpt>
      <trkpt lat="42.562304846942424774169921875" lon="20.037986598908901214599609375">
        <ele>2077.39990234375</ele>
        <time>2026-06-15T12:42:46.000Z</time>
        <extensions>
          <ns3:TrackPointExtension>
            <ns3:atemp>17.0</ns3:atemp>
          </ns3:TrackPointExtension>
        </extensions>
      </trkpt>
      <trkpt lat="42.5623147375881671905517578125" lon="20.0379609502851963043212890625">
        <ele>2077</ele>
        <time>2026-06-15T12:42:47.000Z</time>
        <extensions>
          <ns3:TrackPointExtension>
            <ns3:atemp>17.0</ns3:atemp>
          </ns3:TrackPointExtension>
        </extensions>
      </trkpt>
      <trkpt lat="42.562324963510036468505859375" lon="20.0379314459860324859619140625">
        <ele>2076.39990234375</ele>
        <time>2026-06-15T12:42:48.000Z</time>
        <extensions>
          <ns3:TrackPointExtension>
            <ns3:atemp>17.0</ns3:atemp>
          </ns3:TrackPointExtension>
        </extensions>
      </trkpt>
      <trkpt lat="42.5623293220996856689453125" lon="20.037896744906902313232421875">
        <ele>2076</ele>
        <time>2026-06-15T12:42:49.000Z</time>
        <extensions>
          <ns3:TrackPointExtension>
            <ns3:atemp>17.0</ns3:atemp>
          </ns3:TrackPointExtension>
        </extensions>
      </trkpt>
      <trkpt lat="42.5623325072228908538818359375" lon="20.03786229528486728668212890625">
        <ele>2075.39990234375</ele>
        <time>2026-06-15T12:42:50.000Z</time>
        <extensions>
          <ns3:TrackPointExtension>
            <ns3:atemp>17.0</ns3:atemp>
          </ns3:TrackPointExtension>
        </extensions>
      </trkpt>
      <trkpt lat="42.56232605315744876861572265625" lon="20.03782935440540313720703125">
        <ele>2074.800048828125</ele>
        <time>2026-06-15T12:42:51.000Z</time>
        <extensions>
          <ns3:TrackPointExtension>
            <ns3:atemp>17.0</ns3:atemp>
          </ns3:TrackPointExtension>
        </extensions>
      </trkpt>
      <trkpt lat="42.56231213919818401336669921875" lon="20.03779289312660694122314453125">
        <ele>2074.199951171875</ele>
        <time>2026-06-15T12:42:52.000Z</time>
        <extensions>
          <ns3:TrackPointExtension>
            <ns3:atemp>17.0</ns3:atemp>
          </ns3:TrackPointExtension>
        </extensions>
      </trkpt>
      <trkpt lat="42.5623063556849956512451171875" lon="20.03775668330490589141845703125">
        <ele>2073.800048828125</ele>
        <time>2026-06-15T12:42:53.000Z</time>
        <extensions>
          <ns3:TrackPointExtension>
            <ns3:atemp>17.0</ns3:atemp>
          </ns3:TrackPointExtension>
        </extensions>
      </trkpt>
      <trkpt lat="42.5623016618192195892333984375" lon="20.0377024523913860321044921875">
        <ele>2073.199951171875</ele>
        <time>2026-06-15T12:42:54.000Z</time>
        <extensions>
          <ns3:TrackPointExtension>
            <ns3:atemp>17.0</ns3:atemp>
          </ns3:TrackPointExtension>
        </extensions>
      </trkpt>
      <trkpt lat="42.56230291910469532012939453125" lon="20.03765677101910114288330078125">
        <ele>2072.800048828125</ele>
        <time>2026-06-15T12:42:55.000Z</time>
        <extensions>
          <ns3:TrackPointExtension>
            <ns3:atemp>17.0</ns3:atemp>
          </ns3:TrackPointExtension>
        </extensions>
      </trkpt>
      <trkpt lat="42.56230987608432769775390625" lon="20.03761704079806804656982421875">
        <ele>2072.39990234375</ele>
        <time>2026-06-15T12:42:56.000Z</time>
        <extensions>
          <ns3:TrackPointExtension>
            <ns3:atemp>17.0</ns3:atemp>
          </ns3:TrackPointExtension>
        </extensions>
      </trkpt>
      <trkpt lat="42.562314905226230621337890625" lon="20.03757915459573268890380859375">
        <ele>2072.199951171875</ele>
        <time>2026-06-15T12:42:57.000Z</time>
        <extensions>
          <ns3:TrackPointExtension>
            <ns3:atemp>17.0</ns3:atemp>
          </ns3:TrackPointExtension>
        </extensions>
      </trkpt>
      <trkpt lat="42.56232328712940216064453125" lon="20.0375378318130970001220703125">
        <ele>2072</ele>
        <time>2026-06-15T12:42:58.000Z</time>
        <extensions>
          <ns3:TrackPointExtension>
            <ns3:atemp>17.0</ns3:atemp>
          </ns3:TrackPointExtension>
        </extensions>
      </trkpt>
      <trkpt lat="42.5623365305364131927490234375" lon="20.03749852068722248077392578125">
        <ele>2071.800048828125</ele>
        <time>2026-06-15T12:42:59.000Z</time>
        <extensions>
          <ns3:TrackPointExtension>
            <ns3:atemp>17.0</ns3:atemp>
          </ns3:TrackPointExtension>
        </extensions>
      </trkpt>
      <trkpt lat="42.562353797256946563720703125" lon="20.03745853900909423828125">
        <ele>2071.800048828125</ele>
        <time>2026-06-15T12:43:00.000Z</time>
        <extensions>
          <ns3:TrackPointExtension>
            <ns3:atemp>17.0</ns3:atemp>
          </ns3:TrackPointExtension>
        </extensions>
      </trkpt>
      <trkpt lat="42.56237290799617767333984375" lon="20.03742258064448833465576171875">
        <ele>2071.60009765625</ele>
        <time>2026-06-15T12:43:01.000Z</time>
        <extensions>
          <ns3:TrackPointExtension>
            <ns3:atemp>17.0</ns3:atemp>
          </ns3:TrackPointExtension>
        </extensions>
      </trkpt>
      <trkpt lat="42.56239830516278743743896484375" lon="20.0373929925262928009033203125">
        <ele>2071.199951171875</ele>
        <time>2026-06-15T12:43:02.000Z</time>
        <extensions>
          <ns3:TrackPointExtension>
            <ns3:atemp>17.0</ns3:atemp>
          </ns3:TrackPointExtension>
        </extensions>
      </trkpt>
      <trkpt lat="42.56241858936846256256103515625" lon="20.03734446130692958831787109375">
        <ele>2070.800048828125</ele>
        <time>2026-06-15T12:43:03.000Z</time>
        <extensions>
          <ns3:TrackPointExtension>
            <ns3:atemp>17.0</ns3:atemp>
          </ns3:TrackPointExtension>
        </extensions>
      </trkpt>
      <trkpt lat="42.5624287314713001251220703125" lon="20.03728645853698253631591796875">
        <ele>2070.39990234375</ele>
        <time>2026-06-15T12:43:04.000Z</time>
        <extensions>
          <ns3:TrackPointExtension>
            <ns3:atemp>17.0</ns3:atemp>
          </ns3:TrackPointExtension>
        </extensions>
      </trkpt>
      <trkpt lat="42.56241850554943084716796875" lon="20.03723281435668468475341796875">
        <ele>2070.199951171875</ele>
        <time>2026-06-15T12:43:05.000Z</time>
        <extensions>
          <ns3:TrackPointExtension>
            <ns3:atemp>17.0</ns3:atemp>
          </ns3:TrackPointExtension>
        </extensions>
      </trkpt>
      <trkpt lat="42.562405765056610107421875" lon="20.0371782481670379638671875">
        <ele>2070</ele>
        <time>2026-06-15T12:43:06.000Z</time>
        <extensions>
          <ns3:TrackPointExtension>
            <ns3:atemp>17.0</ns3:atemp>
          </ns3:TrackPointExtension>
        </extensions>
      </trkpt>
      <trkpt lat="42.56239629350602626800537109375" lon="20.03711597062647342681884765625">
        <ele>2069.800048828125</ele>
        <time>2026-06-15T12:43:07.000Z</time>
        <extensions>
          <ns3:TrackPointExtension>
            <ns3:atemp>17.0</ns3:atemp>
          </ns3:TrackPointExtension>
        </extensions>
      </trkpt>
      <trkpt lat="42.56238673813641071319580078125" lon="20.0370546989142894744873046875">
        <ele>2069.800048828125</ele>
        <time>2026-06-15T12:43:08.000Z</time>
        <extensions>
          <ns3:TrackPointExtension>
            <ns3:atemp>17.0</ns3:atemp>
          </ns3:TrackPointExtension>
        </extensions>
      </trkpt>
      <trkpt lat="42.56237416528165340423583984375" lon="20.03699108026921749114990234375">
        <ele>2069.800048828125</ele>
        <time>2026-06-15T12:43:09.000Z</time>
        <extensions>
          <ns3:TrackPointExtension>
            <ns3:atemp>17.0</ns3:atemp>
          </ns3:TrackPointExtension>
        </extensions>
      </trkpt>
      <trkpt lat="42.5623543001711368560791015625" lon="20.0369252823293209075927734375">
        <ele>2069.800048828125</ele>
        <time>2026-06-15T12:43:10.000Z</time>
        <extensions>
          <ns3:TrackPointExtension>
            <ns3:atemp>17.0</ns3:atemp>
          </ns3:TrackPointExtension>
        </extensions>
      </trkpt>
      <trkpt lat="42.56233074702322483062744140625" lon="20.03686753101646900177001953125">
        <ele>2069.800048828125</ele>
        <time>2026-06-15T12:43:11.000Z</time>
        <extensions>
          <ns3:TrackPointExtension>
            <ns3:atemp>17.0</ns3:atemp>
          </ns3:TrackPointExtension>
        </extensions>
      </trkpt>
      <trkpt lat="42.56230509839951992034912109375" lon="20.036811120808124542236328125">
        <ele>2069.60009765625</ele>
        <time>2026-06-15T12:43:12.000Z</time>
        <extensions>
          <ns3:TrackPointExtension>
            <ns3:atemp>17.0</ns3:atemp>
          </ns3:TrackPointExtension>
        </extensions>
      </trkpt>
      <trkpt lat="42.56229202263057231903076171875" lon="20.03674766980111598968505859375">
        <ele>2069.60009765625</ele>
        <time>2026-06-15T12:43:13.000Z</time>
        <extensions>
          <ns3:TrackPointExtension>
            <ns3:atemp>17.0</ns3:atemp>
          </ns3:TrackPointExtension>
        </extensions>
      </trkpt>
      <trkpt lat="42.5622905977070331573486328125" lon="20.036678351461887359619140625">
        <ele>2069.39990234375</ele>
        <time>2026-06-15T12:43:14.000Z</time>
        <extensions>
          <ns3:TrackPointExtension>
            <ns3:atemp>17.0</ns3:atemp>
          </ns3:TrackPointExtension>
        </extensions>
      </trkpt>
      <trkpt lat="42.56230744533240795135498046875" lon="20.03661624155938625335693359375">
        <ele>2069</ele>
        <time>2026-06-15T12:43:15.000Z</time>
        <extensions>
          <ns3:TrackPointExtension>
            <ns3:atemp>17.0</ns3:atemp>
          </ns3:TrackPointExtension>
        </extensions>
      </trkpt>
      <trkpt lat="42.56233678199350833892822265625" lon="20.03657030873000621795654296875">
        <ele>2068.800048828125</ele>
        <time>2026-06-15T12:43:16.000Z</time>
        <extensions>
          <ns3:TrackPointExtension>
            <ns3:atemp>17.0</ns3:atemp>
          </ns3:TrackPointExtension>
        </extensions>
      </trkpt>
      <trkpt lat="42.56237936206161975860595703125" lon="20.0365403853356838226318359375">
        <ele>2068.39990234375</ele>
        <time>2026-06-15T12:43:17.000Z</time>
        <extensions>
          <ns3:TrackPointExtension>
            <ns3:atemp>17.0</ns3:atemp>
          </ns3:TrackPointExtension>
        </extensions>
      </trkpt>
      <trkpt lat="42.5624330900609493255615234375" lon="20.036522783339023590087890625">
        <ele>2068</ele>
        <time>2026-06-15T12:43:18.000Z</time>
        <extensions>
          <ns3:TrackPointExtension>
            <ns3:atemp>17.0</ns3:atemp>
          </ns3:TrackPointExtension>
        </extensions>
      </trkpt>
      <trkpt lat="42.56249067373573780059814453125" lon="20.03650442697107791900634765625">
        <ele>2067.39990234375</ele>
        <time>2026-06-15T12:43:19.000Z</time>
        <extensions>
          <ns3:TrackPointExtension>
            <ns3:atemp>17.0</ns3:atemp>
          </ns3:TrackPointExtension>
        </extensions>
      </trkpt>
      <trkpt lat="42.56255102343857288360595703125" lon="20.03648313693702220916748046875">
        <ele>2067</ele>
        <time>2026-06-15T12:43:20.000Z</time>
        <extensions>
          <ns3:TrackPointExtension>
            <ns3:atemp>17.0</ns3:atemp>
          </ns3:TrackPointExtension>
        </extensions>
      </trkpt>
      <trkpt lat="42.56261162459850311279296875" lon="20.0364512018859386444091796875">
        <ele>2066.39990234375</ele>
        <time>2026-06-15T12:43:21.000Z</time>
        <extensions>
          <ns3:TrackPointExtension>
            <ns3:atemp>17.0</ns3:atemp>
          </ns3:TrackPointExtension>
        </extensions>
      </trkpt>
      <trkpt lat="42.56268530152738094329833984375" lon="20.03640451468527317047119140625">
        <ele>2065.60009765625</ele>
        <time>2026-06-15T12:43:22.000Z</time>
        <extensions>
          <ns3:TrackPointExtension>
            <ns3:atemp>17.0</ns3:atemp>
          </ns3:TrackPointExtension>
        </extensions>
      </trkpt>
      <trkpt lat="42.56275855936110019683837890625" lon="20.03635522909462451934814453125">
        <ele>2065</ele>
        <time>2026-06-15T12:43:23.000Z</time>
        <extensions>
          <ns3:TrackPointExtension>
            <ns3:atemp>17.0</ns3:atemp>
          </ns3:TrackPointExtension>
        </extensions>
      </trkpt>
      <trkpt lat="42.56282527931034564971923828125" lon="20.03631533123552799224853515625">
        <ele>2064.60009765625</ele>
        <time>2026-06-15T12:43:24.000Z</time>
        <extensions>
          <ns3:TrackPointExtension>
            <ns3:atemp>17.0</ns3:atemp>
          </ns3:TrackPointExtension>
        </extensions>
      </trkpt>
      <trkpt lat="42.56288261152803897857666015625" lon="20.03627727739512920379638671875">
        <ele>2063.800048828125</ele>
        <time>2026-06-15T12:43:25.000Z</time>
        <extensions>
          <ns3:TrackPointExtension>
            <ns3:atemp>17.0</ns3:atemp>
          </ns3:TrackPointExtension>
        </extensions>
      </trkpt>
      <trkpt lat="42.56292183883488178253173828125" lon="20.0362285785377025604248046875">
        <ele>2063.199951171875</ele>
        <time>2026-06-15T12:43:26.000Z</time>
        <extensions>
          <ns3:TrackPointExtension>
            <ns3:atemp>17.0</ns3:atemp>
          </ns3:TrackPointExtension>
        </extensions>
      </trkpt>
      <trkpt lat="42.56293357349932193756103515625" lon="20.03616663627326488494873046875">
        <ele>2062.39990234375</ele>
        <time>2026-06-15T12:43:27.000Z</time>
        <extensions>
          <ns3:TrackPointExtension>
            <ns3:atemp>17.0</ns3:atemp>
          </ns3:TrackPointExtension>
        </extensions>
      </trkpt>
      <trkpt lat="42.562911696732044219970703125" lon="20.0361256487667560577392578125">
        <ele>2061.60009765625</ele>
        <time>2026-06-15T12:43:28.000Z</time>
        <extensions>
          <ns3:TrackPointExtension>
            <ns3:atemp>17.0</ns3:atemp>
          </ns3:TrackPointExtension>
        </extensions>
      </trkpt>
      <trkpt lat="42.5628716312348842620849609375" lon="20.03610075451433658599853515625">
        <ele>2061</ele>
        <time>2026-06-15T12:43:29.000Z</time>
        <extensions>
          <ns3:TrackPointExtension>
            <ns3:atemp>17.0</ns3:atemp>
          </ns3:TrackPointExtension>
        </extensions>
      </trkpt>
      <trkpt lat="42.56282410584390163421630859375" lon="20.036070160567760467529296875">
        <ele>2060.39990234375</ele>
        <time>2026-06-15T12:43:30.000Z</time>
        <extensions>
          <ns3:TrackPointExtension>
            <ns3:atemp>17.0</ns3:atemp>
          </ns3:TrackPointExtension>
        </extensions>
      </trkpt>
      <trkpt lat="42.56277398206293582916259765625" lon="20.03602246753871440887451171875">
        <ele>2059.60009765625</ele>
        <time>2026-06-15T12:43:31.000Z</time>
        <extensions>
          <ns3:TrackPointExtension>
            <ns3:atemp>17.0</ns3:atemp>
          </ns3:TrackPointExtension>
        </extensions>
      </trkpt>
      <trkpt lat="42.562718577682971954345703125" lon="20.03597368486225605010986328125">
        <ele>2058.800048828125</ele>
        <time>2026-06-15T12:43:32.000Z</time>
        <extensions>
          <ns3:TrackPointExtension>
            <ns3:atemp>17.0</ns3:atemp>
          </ns3:TrackPointExtension>
        </extensions>
      </trkpt>
      <trkpt lat="42.5626708008348941802978515625" lon="20.03592322580516338348388671875">
        <ele>2057.800048828125</ele>
        <time>2026-06-15T12:43:33.000Z</time>
        <extensions>
          <ns3:TrackPointExtension>
            <ns3:atemp>17.0</ns3:atemp>
          </ns3:TrackPointExtension>
        </extensions>
      </trkpt>
      <trkpt lat="42.562630735337734222412109375" lon="20.0358648039400577545166015625">
        <ele>2056.39990234375</ele>
        <time>2026-06-15T12:43:34.000Z</time>
        <extensions>
          <ns3:TrackPointExtension>
            <ns3:atemp>17.0</ns3:atemp>
          </ns3:TrackPointExtension>
        </extensions>
      </trkpt>
      <trkpt lat="42.562595866620540618896484375" lon="20.0358031131327152252197265625">
        <ele>2055.60009765625</ele>
        <time>2026-06-15T12:43:35.000Z</time>
        <extensions>
          <ns3:TrackPointExtension>
            <ns3:atemp>17.0</ns3:atemp>
          </ns3:TrackPointExtension>
        </extensions>
      </trkpt>
      <trkpt lat="42.562566697597503662109375" lon="20.0357380695641040802001953125">
        <ele>2054.39990234375</ele>
        <time>2026-06-15T12:43:36.000Z</time>
        <extensions>
          <ns3:TrackPointExtension>
            <ns3:atemp>17.0</ns3:atemp>
          </ns3:TrackPointExtension>
        </extensions>
      </trkpt>
      <trkpt lat="42.56252470426261425018310546875" lon="20.03566154278814792633056640625">
        <ele>2053</ele>
        <time>2026-06-15T12:43:37.000Z</time>
        <extensions>
          <ns3:TrackPointExtension>
            <ns3:atemp>17.0</ns3:atemp>
          </ns3:TrackPointExtension>
        </extensions>
      </trkpt>
      <trkpt lat="42.5624746643006801605224609375" lon="20.0355908833444118499755859375">
        <ele>2052</ele>
        <time>2026-06-15T12:43:38.000Z</time>
        <extensions>
          <ns3:TrackPointExtension>
            <ns3:atemp>17.0</ns3:atemp>
          </ns3:TrackPointExtension>
        </extensions>
      </trkpt>
      <trkpt lat="42.56243049167096614837646484375" lon="20.0355261750519275665283203125">
        <ele>2050.800048828125</ele>
        <time>2026-06-15T12:43:39.000Z</time>
        <extensions>
          <ns3:TrackPointExtension>
            <ns3:atemp>17.0</ns3:atemp>
          </ns3:TrackPointExtension>
        </extensions>
      </trkpt>
      <trkpt lat="42.56240031681954860687255859375" lon="20.03546406514942646026611328125">
        <ele>2049.39990234375</ele>
        <time>2026-06-15T12:43:40.000Z</time>
        <extensions>
          <ns3:TrackPointExtension>
            <ns3:atemp>17.0</ns3:atemp>
          </ns3:TrackPointExtension>
        </extensions>
      </trkpt>
      <trkpt lat="42.562382631003856658935546875" lon="20.035394243896007537841796875">
        <ele>2048.60009765625</ele>
        <time>2026-06-15T12:43:41.000Z</time>
        <extensions>
          <ns3:TrackPointExtension>
            <ns3:atemp>17.0</ns3:atemp>
          </ns3:TrackPointExtension>
        </extensions>
      </trkpt>
      <trkpt lat="42.56239168345928192138671875" lon="20.0353270210325717926025390625">
        <ele>2047.800048828125</ele>
        <time>2026-06-15T12:43:42.000Z</time>
        <extensions>
          <ns3:TrackPointExtension>
            <ns3:atemp>17.0</ns3:atemp>
          </ns3:TrackPointExtension>
        </extensions>
      </trkpt>
      <trkpt lat="42.5624183379113674163818359375" lon="20.035278908908367156982421875">
        <ele>2047</ele>
        <time>2026-06-15T12:43:43.000Z</time>
        <extensions>
          <ns3:TrackPointExtension>
            <ns3:atemp>17.0</ns3:atemp>
          </ns3:TrackPointExtension>
        </extensions>
      </trkpt>
      <trkpt lat="42.5624582357704639434814453125" lon="20.035225935280323028564453125">
        <ele>2046.199951171875</ele>
        <time>2026-06-15T12:43:44.000Z</time>
        <extensions>
          <ns3:TrackPointExtension>
            <ns3:atemp>17.0</ns3:atemp>
          </ns3:TrackPointExtension>
        </extensions>
      </trkpt>
      <trkpt lat="42.5625081919133663177490234375" lon="20.035195760428905487060546875">
        <ele>2045.4000244140625</ele>
        <time>2026-06-15T12:43:45.000Z</time>
        <extensions>
          <ns3:TrackPointExtension>
            <ns3:atemp>17.0</ns3:atemp>
          </ns3:TrackPointExtension>
        </extensions>
      </trkpt>
      <trkpt lat="42.56255990825593471527099609375" lon="20.035174302756786346435546875">
        <ele>2044.5999755859375</ele>
        <time>2026-06-15T12:43:46.000Z</time>
        <extensions>
          <ns3:TrackPointExtension>
            <ns3:atemp>17.0</ns3:atemp>
          </ns3:TrackPointExtension>
        </extensions>
      </trkpt>
      <trkpt lat="42.56261606700718402862548828125" lon="20.0351563654839992523193359375">
        <ele>2043.5999755859375</ele>
        <time>2026-06-15T12:43:47.000Z</time>
        <extensions>
          <ns3:TrackPointExtension>
            <ns3:atemp>17.0</ns3:atemp>
          </ns3:TrackPointExtension>
        </extensions>
      </trkpt>
      <trkpt lat="42.5626694597303867340087890625" lon="20.0351268611848354339599609375">
        <ele>2043</ele>
        <time>2026-06-15T12:43:48.000Z</time>
        <extensions>
          <ns3:TrackPointExtension>
            <ns3:atemp>17.0</ns3:atemp>
          </ns3:TrackPointExtension>
        </extensions>
      </trkpt>
      <trkpt lat="42.56270877085626125335693359375" lon="20.03512761555612087249755859375">
        <ele>2042.4000244140625</ele>
        <time>2026-06-15T12:43:49.000Z</time>
        <extensions>
          <ns3:TrackPointExtension>
            <ns3:atemp>17.0</ns3:atemp>
          </ns3:TrackPointExtension>
        </extensions>
      </trkpt>
      <trkpt lat="42.56274397484958171844482421875" lon="20.03515644930303096771240234375">
        <ele>2042.199951171875</ele>
        <time>2026-06-15T12:43:50.000Z</time>
        <extensions>
          <ns3:TrackPointExtension>
            <ns3:atemp>17.0</ns3:atemp>
          </ns3:TrackPointExtension>
        </extensions>
      </trkpt>
      <trkpt lat="42.5627710483968257904052734375" lon="20.03519232384860515594482421875">
        <ele>2042</ele>
        <time>2026-06-15T12:43:51.000Z</time>
        <extensions>
          <ns3:TrackPointExtension>
            <ns3:atemp>17.0</ns3:atemp>
          </ns3:TrackPointExtension>
        </extensions>
      </trkpt>
      <trkpt lat="42.56280667148530483245849609375" lon="20.035204477608203887939453125">
        <ele>2042</ele>
        <time>2026-06-15T12:43:52.000Z</time>
        <extensions>
          <ns3:TrackPointExtension>
            <ns3:atemp>17.0</ns3:atemp>
          </ns3:TrackPointExtension>
        </extensions>
      </trkpt>
      <trkpt lat="42.56284707225859165191650390625" lon="20.03521009348332881927490234375">
        <ele>2042</ele>
        <time>2026-06-15T12:43:53.000Z</time>
        <extensions>
          <ns3:TrackPointExtension>
            <ns3:atemp>17.0</ns3:atemp>
          </ns3:TrackPointExtension>
        </extensions>
      </trkpt>
      <trkpt lat="42.56288529373705387115478515625" lon="20.03519232384860515594482421875">
        <ele>2042</ele>
        <time>2026-06-15T12:43:54.000Z</time>
        <extensions>
          <ns3:TrackPointExtension>
            <ns3:atemp>17.0</ns3:atemp>
          </ns3:TrackPointExtension>
        </extensions>
      </trkpt>
      <trkpt lat="42.562925107777118682861328125" lon="20.0351711176335811614990234375">
        <ele>2041.5999755859375</ele>
        <time>2026-06-15T12:43:55.000Z</time>
        <extensions>
          <ns3:TrackPointExtension>
            <ns3:atemp>17.0</ns3:atemp>
          </ns3:TrackPointExtension>
        </extensions>
      </trkpt>
      <trkpt lat="42.5629678554832935333251953125" lon="20.03513775765895843505859375">
        <ele>2041.4000244140625</ele>
        <time>2026-06-15T12:43:56.000Z</time>
        <extensions>
          <ns3:TrackPointExtension>
            <ns3:atemp>17.0</ns3:atemp>
          </ns3:TrackPointExtension>
        </extensions>
      </trkpt>
      <trkpt lat="42.563012950122356414794921875" lon="20.03511822782456874847412109375">
        <ele>2041</ele>
        <time>2026-06-15T12:43:57.000Z</time>
        <extensions>
          <ns3:TrackPointExtension>
            <ns3:atemp>17.0</ns3:atemp>
          </ns3:TrackPointExtension>
        </extensions>
      </trkpt>
      <trkpt lat="42.563056536018848419189453125" lon="20.03509794361889362335205078125">
        <ele>2040.800048828125</ele>
        <time>2026-06-15T12:43:58.000Z</time>
        <extensions>
          <ns3:TrackPointExtension>
            <ns3:atemp>17.0</ns3:atemp>
          </ns3:TrackPointExtension>
        </extensions>
      </trkpt>
      <trkpt lat="42.563100121915340423583984375" lon="20.0350785814225673675537109375">
        <ele>2040.4000244140625</ele>
        <time>2026-06-15T12:43:59.000Z</time>
        <extensions>
          <ns3:TrackPointExtension>
            <ns3:atemp>17.0</ns3:atemp>
          </ns3:TrackPointExtension>
        </extensions>
      </trkpt>
      <trkpt lat="42.563151083886623382568359375" lon="20.035064332187175750732421875">
        <ele>2040</ele>
        <time>2026-06-15T12:44:00.000Z</time>
        <extensions>
          <ns3:TrackPointExtension>
            <ns3:atemp>17.0</ns3:atemp>
          </ns3:TrackPointExtension>
        </extensions>
      </trkpt>
      <trkpt lat="42.56320933811366558074951171875" lon="20.03504765219986438751220703125">
        <ele>2039.800048828125</ele>
        <time>2026-06-15T12:44:01.000Z</time>
        <extensions>
          <ns3:TrackPointExtension>
            <ns3:atemp>17.0</ns3:atemp>
          </ns3:TrackPointExtension>
        </extensions>
      </trkpt>
      <trkpt lat="42.56325242109596729278564453125" lon="20.035005994141101837158203125">
        <ele>2039.199951171875</ele>
        <time>2026-06-15T12:44:02.000Z</time>
        <extensions>
          <ns3:TrackPointExtension>
            <ns3:atemp>17.0</ns3:atemp>
          </ns3:TrackPointExtension>
        </extensions>
      </trkpt>
      <trkpt lat="42.56327681243419647216796875" lon="20.0349655933678150177001953125">
        <ele>2039</ele>
        <time>2026-06-15T12:44:03.000Z</time>
        <extensions>
          <ns3:TrackPointExtension>
            <ns3:atemp>17.0</ns3:atemp>
          </ns3:TrackPointExtension>
        </extensions>
      </trkpt>
      <trkpt lat="42.56330053322017192840576171875" lon="20.0349337421357631683349609375">
        <ele>2038.800048828125</ele>
        <time>2026-06-15T12:44:04.000Z</time>
        <extensions>
          <ns3:TrackPointExtension>
            <ns3:atemp>17.0</ns3:atemp>
          </ns3:TrackPointExtension>
        </extensions>
      </trkpt>
      <trkpt lat="42.563318051397800445556640625" lon="20.03491320647299289703369140625">
        <ele>2038.4000244140625</ele>
        <time>2026-06-15T12:44:05.000Z</time>
        <extensions>
          <ns3:TrackPointExtension>
            <ns3:atemp>17.0</ns3:atemp>
          </ns3:TrackPointExtension>
        </extensions>
      </trkpt>
      <trkpt lat="42.56333716213703155517578125" lon="20.03490013070404529571533203125">
        <ele>2038.199951171875</ele>
        <time>2026-06-15T12:44:06.000Z</time>
        <extensions>
          <ns3:TrackPointExtension>
            <ns3:atemp>17.0</ns3:atemp>
          </ns3:TrackPointExtension>
        </extensions>
      </trkpt>
      <trkpt lat="42.56335451267659664154052734375" lon="20.03489325754344463348388671875">
        <ele>2038.199951171875</ele>
        <time>2026-06-15T12:44:07.000Z</time>
        <extensions>
          <ns3:TrackPointExtension>
            <ns3:atemp>17.0</ns3:atemp>
          </ns3:TrackPointExtension>
        </extensions>
      </trkpt>
      <trkpt lat="42.5633745454251766204833984375" lon="20.03488420508801937103271484375">
        <ele>2038</ele>
        <time>2026-06-15T12:44:08.000Z</time>
        <extensions>
          <ns3:TrackPointExtension>
            <ns3:atemp>17.0</ns3:atemp>
          </ns3:TrackPointExtension>
        </extensions>
      </trkpt>
      <trkpt lat="42.56339726038277149200439453125" lon="20.0348707102239131927490234375">
        <ele>2037.800048828125</ele>
        <time>2026-06-15T12:44:09.000Z</time>
        <extensions>
          <ns3:TrackPointExtension>
            <ns3:atemp>17.0</ns3:atemp>
          </ns3:TrackPointExtension>
        </extensions>
      </trkpt>
      <trkpt lat="42.56342592649161815643310546875" lon="20.03485855646431446075439453125">
        <ele>2037.5999755859375</ele>
        <time>2026-06-15T12:44:10.000Z</time>
        <extensions>
          <ns3:TrackPointExtension>
            <ns3:atemp>17.0</ns3:atemp>
          </ns3:TrackPointExtension>
        </extensions>
      </trkpt>
      <trkpt lat="42.563454844057559967041015625" lon="20.03485939465463161468505859375">
        <ele>2037.4000244140625</ele>
        <time>2026-06-15T12:44:11.000Z</time>
        <extensions>
          <ns3:TrackPointExtension>
            <ns3:atemp>17.0</ns3:atemp>
          </ns3:TrackPointExtension>
        </extensions>
      </trkpt>
      <trkpt lat="42.5634918920695781707763671875" lon="20.0348559580743312835693359375">
        <ele>2037</ele>
        <time>2026-06-15T12:44:12.000Z</time>
        <extensions>
          <ns3:TrackPointExtension>
            <ns3:atemp>17.0</ns3:atemp>
          </ns3:TrackPointExtension>
        </extensions>
      </trkpt>
      <trkpt lat="42.56353137083351612091064453125" lon="20.0348474085330963134765625">
        <ele>2036.5999755859375</ele>
        <time>2026-06-15T12:44:13.000Z</time>
        <extensions>
          <ns3:TrackPointExtension>
            <ns3:atemp>17.0</ns3:atemp>
          </ns3:TrackPointExtension>
        </extensions>
      </trkpt>
      <trkpt lat="42.563562802970409393310546875" lon="20.03482134081423282623291015625">
        <ele>2036</ele>
        <time>2026-06-15T12:44:14.000Z</time>
        <extensions>
          <ns3:TrackPointExtension>
            <ns3:atemp>17.0</ns3:atemp>
          </ns3:TrackPointExtension>
        </extensions>
      </trkpt>
      <trkpt lat="42.563588283956050872802734375" lon="20.034793429076671600341796875">
        <ele>2035.4000244140625</ele>
        <time>2026-06-15T12:44:15.000Z</time>
        <extensions>
          <ns3:TrackPointExtension>
            <ns3:atemp>17.0</ns3:atemp>
          </ns3:TrackPointExtension>
        </extensions>
      </trkpt>
      <trkpt lat="42.56360999308526515960693359375" lon="20.03475646488368511199951171875">
        <ele>2035</ele>
        <time>2026-06-15T12:44:16.000Z</time>
        <extensions>
          <ns3:TrackPointExtension>
            <ns3:atemp>17.0</ns3:atemp>
          </ns3:TrackPointExtension>
        </extensions>
      </trkpt>
      <trkpt lat="42.56362994201481342315673828125" lon="20.03472603857517242431640625">
        <ele>2034.5999755859375</ele>
        <time>2026-06-15T12:44:17.000Z</time>
        <extensions>
          <ns3:TrackPointExtension>
            <ns3:atemp>17.0</ns3:atemp>
          </ns3:TrackPointExtension>
        </extensions>
      </trkpt>
      <trkpt lat="42.5636596977710723876953125" lon="20.034698881208896636962890625">
        <ele>2034.199951171875</ele>
        <time>2026-06-15T12:44:18.000Z</time>
        <extensions>
          <ns3:TrackPointExtension>
            <ns3:atemp>17.0</ns3:atemp>
          </ns3:TrackPointExtension>
        </extensions>
      </trkpt>
      <trkpt lat="42.5636999309062957763671875" lon="20.034676752984523773193359375">
        <ele>2033.800048828125</ele>
        <time>2026-06-15T12:44:19.000Z</time>
        <extensions>
          <ns3:TrackPointExtension>
            <ns3:atemp>17.0</ns3:atemp>
          </ns3:TrackPointExtension>
        </extensions>
      </trkpt>
      <trkpt lat="42.56374209187924861907958984375" lon="20.034671388566493988037109375">
        <ele>2033.4000244140625</ele>
        <time>2026-06-15T12:44:20.000Z</time>
        <extensions>
          <ns3:TrackPointExtension>
            <ns3:atemp>17.0</ns3:atemp>
          </ns3:TrackPointExtension>
        </extensions>
      </trkpt>
      <trkpt lat="42.563778050243854522705078125" lon="20.03465353511273860931396484375">
        <ele>2033</ele>
        <time>2026-06-15T12:44:21.000Z</time>
        <extensions>
          <ns3:TrackPointExtension>
            <ns3:atemp>17.0</ns3:atemp>
          </ns3:TrackPointExtension>
        </extensions>
      </trkpt>
      <trkpt lat="42.56380612961947917938232421875" lon="20.03462319262325763702392578125">
        <ele>2032.5999755859375</ele>
        <time>2026-06-15T12:44:22.000Z</time>
        <extensions>
          <ns3:TrackPointExtension>
            <ns3:atemp>17.0</ns3:atemp>
          </ns3:TrackPointExtension>
        </extensions>
      </trkpt>
      <trkpt lat="42.56381727755069732666015625" lon="20.034577511250972747802734375">
        <ele>2032.199951171875</ele>
        <time>2026-06-15T12:44:23.000Z</time>
        <extensions>
          <ns3:TrackPointExtension>
            <ns3:atemp>17.0</ns3:atemp>
          </ns3:TrackPointExtension>
        </extensions>
      </trkpt>
      <trkpt lat="42.56382138468325138092041015625" lon="20.0345340929925441741943359375">
        <ele>2032</ele>
        <time>2026-06-15T12:44:24.000Z</time>
        <extensions>
          <ns3:TrackPointExtension>
            <ns3:atemp>17.0</ns3:atemp>
          </ns3:TrackPointExtension>
        </extensions>
      </trkpt>
      <trkpt lat="42.56383714266121387481689453125" lon="20.0344888307154178619384765625">
        <ele>2031.800048828125</ele>
        <time>2026-06-15T12:44:25.000Z</time>
        <extensions>
          <ns3:TrackPointExtension>
            <ns3:atemp>17.0</ns3:atemp>
          </ns3:TrackPointExtension>
        </extensions>
      </trkpt>
      <trkpt lat="42.56386731751263141632080078125" lon="20.03444482572376728057861328125">
        <ele>2031.5999755859375</ele>
        <time>2026-06-15T12:44:26.000Z</time>
        <extensions>
          <ns3:TrackPointExtension>
            <ns3:atemp>17.0</ns3:atemp>
          </ns3:TrackPointExtension>
        </extensions>
      </trkpt>
      <trkpt lat="42.56390654481947422027587890625" lon="20.03442185930907726287841796875">
        <ele>2031.4000244140625</ele>
        <time>2026-06-15T12:44:27.000Z</time>
        <extensions>
          <ns3:TrackPointExtension>
            <ns3:atemp>17.0</ns3:atemp>
          </ns3:TrackPointExtension>
        </extensions>
      </trkpt>
      <trkpt lat="42.56394443102180957794189453125" lon="20.03440811298787593841552734375">
        <ele>2031.199951171875</ele>
        <time>2026-06-15T12:44:28.000Z</time>
        <extensions>
          <ns3:TrackPointExtension>
            <ns3:atemp>17.0</ns3:atemp>
          </ns3:TrackPointExtension>
        </extensions>
      </trkpt>
      <trkpt lat="42.56397611461579799652099609375" lon="20.03439218737185001373291015625">
        <ele>2031</ele>
        <time>2026-06-15T12:44:29.000Z</time>
        <extensions>
          <ns3:TrackPointExtension>
            <ns3:atemp>17.0</ns3:atemp>
          </ns3:TrackPointExtension>
        </extensions>
      </trkpt>
      <trkpt lat="42.56400109268724918365478515625" lon="20.034363269805908203125">
        <ele>2031</ele>
        <time>2026-06-15T12:44:30.000Z</time>
        <extensions>
          <ns3:TrackPointExtension>
            <ns3:atemp>17.0</ns3:atemp>
          </ns3:TrackPointExtension>
        </extensions>
      </trkpt>
      <trkpt lat="42.564014084637165069580078125" lon="20.03432697616517543792724609375">
        <ele>2031</ele>
        <time>2026-06-15T12:44:31.000Z</time>
        <extensions>
          <ns3:TrackPointExtension>
            <ns3:atemp>17.0</ns3:atemp>
          </ns3:TrackPointExtension>
        </extensions>
      </trkpt>
      <trkpt lat="42.56402003578841686248779296875" lon="20.03429177217185497283935546875">
        <ele>2031</ele>
        <time>2026-06-15T12:44:32.000Z</time>
        <extensions>
          <ns3:TrackPointExtension>
            <ns3:atemp>17.0</ns3:atemp>
          </ns3:TrackPointExtension>
        </extensions>
      </trkpt>
      <trkpt lat="42.56402439437806606292724609375" lon="20.03426738083362579345703125">
        <ele>2031.199951171875</ele>
        <time>2026-06-15T12:44:33.000Z</time>
        <extensions>
          <ns3:TrackPointExtension>
            <ns3:atemp>17.0</ns3:atemp>
          </ns3:TrackPointExtension>
        </extensions>
      </trkpt>
      <trkpt lat="42.564030848443508148193359375" lon="20.03424064256250858306884765625">
        <ele>2031.4000244140625</ele>
        <time>2026-06-15T12:44:34.000Z</time>
        <extensions>
          <ns3:TrackPointExtension>
            <ns3:atemp>17.0</ns3:atemp>
          </ns3:TrackPointExtension>
        </extensions>
      </trkpt>
      <trkpt lat="42.56403294391930103302001953125" lon="20.03421834670007228851318359375">
        <ele>2031.5999755859375</ele>
        <time>2026-06-15T12:44:35.000Z</time>
        <extensions>
          <ns3:TrackPointExtension>
            <ns3:atemp>17.0</ns3:atemp>
          </ns3:TrackPointExtension>
        </extensions>
      </trkpt>
      <trkpt lat="42.5640373863279819488525390625" lon="20.0341964699327945709228515625">
        <ele>2031.800048828125</ele>
        <time>2026-06-15T12:44:36.000Z</time>
        <extensions>
          <ns3:TrackPointExtension>
            <ns3:atemp>17.0</ns3:atemp>
          </ns3:TrackPointExtension>
        </extensions>
      </trkpt>
      <trkpt lat="42.56404015235602855682373046875" lon="20.03417350351810455322265625">
        <ele>2032</ele>
        <time>2026-06-15T12:44:37.000Z</time>
        <extensions>
          <ns3:TrackPointExtension>
            <ns3:atemp>17.0</ns3:atemp>
          </ns3:TrackPointExtension>
        </extensions>
      </trkpt>
      <trkpt lat="42.5640471093356609344482421875" lon="20.03414802253246307373046875">
        <ele>2032</ele>
        <time>2026-06-15T12:44:38.000Z</time>
        <extensions>
          <ns3:TrackPointExtension>
            <ns3:atemp>17.0</ns3:atemp>
          </ns3:TrackPointExtension>
        </extensions>
      </trkpt>
      <trkpt lat="42.56405197083950042724609375" lon="20.03412044607102870941162109375">
        <ele>2032.199951171875</ele>
        <time>2026-06-15T12:44:39.000Z</time>
        <extensions>
          <ns3:TrackPointExtension>
            <ns3:atemp>17.0</ns3:atemp>
          </ns3:TrackPointExtension>
        </extensions>
      </trkpt>
      <trkpt lat="42.5640638731420040130615234375" lon="20.03409831784665584564208984375">
        <ele>2032.5999755859375</ele>
        <time>2026-06-15T12:44:40.000Z</time>
        <extensions>
          <ns3:TrackPointExtension>
            <ns3:atemp>17.0</ns3:atemp>
          </ns3:TrackPointExtension>
        </extensions>
      </trkpt>
      <trkpt lat="42.56407745182514190673828125" lon="20.034079290926456451416015625">
        <ele>2033</ele>
        <time>2026-06-15T12:44:41.000Z</time>
        <extensions>
          <ns3:TrackPointExtension>
            <ns3:atemp>17.0</ns3:atemp>
          </ns3:TrackPointExtension>
        </extensions>
      </trkpt>
      <trkpt lat="42.564093880355358123779296875" lon="20.03405121155083179473876953125">
        <ele>2033.199951171875</ele>
        <time>2026-06-15T12:44:42.000Z</time>
        <extensions>
          <ns3:TrackPointExtension>
            <ns3:atemp>17.0</ns3:atemp>
          </ns3:TrackPointExtension>
        </extensions>
      </trkpt>
      <trkpt lat="42.564113996922969818115234375" lon="20.03402506001293659210205078125">
        <ele>2033.5999755859375</ele>
        <time>2026-06-15T12:44:43.000Z</time>
        <extensions>
          <ns3:TrackPointExtension>
            <ns3:atemp>17.0</ns3:atemp>
          </ns3:TrackPointExtension>
        </extensions>
      </trkpt>
      <trkpt lat="42.56413185037672519683837890625" lon="20.03400561399757862091064453125">
        <ele>2034</ele>
        <time>2026-06-15T12:44:44.000Z</time>
        <extensions>
          <ns3:TrackPointExtension>
            <ns3:atemp>17.0</ns3:atemp>
          </ns3:TrackPointExtension>
        </extensions>
      </trkpt>
      <trkpt lat="42.56415464915335178375244140625" lon="20.03399019129574298858642578125">
        <ele>2034.199951171875</ele>
        <time>2026-06-15T12:44:45.000Z</time>
        <extensions>
          <ns3:TrackPointExtension>
            <ns3:atemp>17.0</ns3:atemp>
          </ns3:TrackPointExtension>
        </extensions>
      </trkpt>
      <trkpt lat="42.564179040491580963134765625" lon="20.03398239612579345703125">
        <ele>2034.5999755859375</ele>
        <time>2026-06-15T12:44:46.000Z</time>
        <extensions>
          <ns3:TrackPointExtension>
            <ns3:atemp>17.0</ns3:atemp>
          </ns3:TrackPointExtension>
        </extensions>
      </trkpt>
      <trkpt lat="42.56420661695301532745361328125" lon="20.0339725054800510406494140625">
        <ele>2035</ele>
        <time>2026-06-15T12:44:47.000Z</time>
        <extensions>
          <ns3:TrackPointExtension>
            <ns3:atemp>17.0</ns3:atemp>
          </ns3:TrackPointExtension>
        </extensions>
      </trkpt>
      <trkpt lat="42.5642341934144496917724609375" lon="20.03396437503397464752197265625">
        <ele>2035.199951171875</ele>
        <time>2026-06-15T12:44:48.000Z</time>
        <extensions>
          <ns3:TrackPointExtension>
            <ns3:atemp>17.0</ns3:atemp>
          </ns3:TrackPointExtension>
        </extensions>
      </trkpt>
      <trkpt lat="42.56427098996937274932861328125" lon="20.03395012579858303070068359375">
        <ele>2035.4000244140625</ele>
        <time>2026-06-15T12:44:49.000Z</time>
        <extensions>
          <ns3:TrackPointExtension>
            <ns3:atemp>17.0</ns3:atemp>
          </ns3:TrackPointExtension>
        </extensions>
      </trkpt>
      <trkpt lat="42.5643066130578517913818359375" lon="20.0339396484196186065673828125">
        <ele>2035.4000244140625</ele>
        <time>2026-06-15T12:44:50.000Z</time>
        <extensions>
          <ns3:TrackPointExtension>
            <ns3:atemp>17.0</ns3:atemp>
          </ns3:TrackPointExtension>
        </extensions>
      </trkpt>
      <trkpt lat="42.56433670409023761749267578125" lon="20.03392447717487812042236328125">
        <ele>2035.4000244140625</ele>
        <time>2026-06-15T12:44:51.000Z</time>
        <extensions>
          <ns3:TrackPointExtension>
            <ns3:atemp>17.0</ns3:atemp>
          </ns3:TrackPointExtension>
        </extensions>
      </trkpt>
      <trkpt lat="42.56435598246753215789794921875" lon="20.0339014269411563873291015625">
        <ele>2035.5999755859375</ele>
        <time>2026-06-15T12:44:52.000Z</time>
        <extensions>
          <ns3:TrackPointExtension>
            <ns3:atemp>17.0</ns3:atemp>
          </ns3:TrackPointExtension>
        </extensions>
      </trkpt>
      <trkpt lat="42.5643699802458286285400390625" lon="20.03387267701327800750732421875">
        <ele>2035.5999755859375</ele>
        <time>2026-06-15T12:44:53.000Z</time>
        <extensions>
          <ns3:TrackPointExtension>
            <ns3:atemp>17.0</ns3:atemp>
          </ns3:TrackPointExtension>
        </extensions>
      </trkpt>
      <trkpt lat="42.56437911652028560638427734375" lon="20.03384836949408054351806640625">
        <ele>2036</ele>
        <time>2026-06-15T12:44:54.000Z</time>
        <extensions>
          <ns3:TrackPointExtension>
            <ns3:atemp>17.0</ns3:atemp>
          </ns3:TrackPointExtension>
        </extensions>
      </trkpt>
      <trkpt lat="42.564390935003757476806640625" lon="20.03382657654583454132080078125">
        <ele>2036.4000244140625</ele>
        <time>2026-06-15T12:44:55.000Z</time>
        <extensions>
          <ns3:TrackPointExtension>
            <ns3:atemp>17.0</ns3:atemp>
          </ns3:TrackPointExtension>
        </extensions>
      </trkpt>
      <trkpt lat="42.5644088722765445709228515625" lon="20.03380478359758853912353515625">
        <ele>2036.5999755859375</ele>
        <time>2026-06-15T12:44:56.000Z</time>
        <extensions>
          <ns3:TrackPointExtension>
            <ns3:atemp>17.0</ns3:atemp>
          </ns3:TrackPointExtension>
        </extensions>
      </trkpt>
      <trkpt lat="42.5644326768815517425537109375" lon="20.03378592431545257568359375">
        <ele>2036.800048828125</ele>
        <time>2026-06-15T12:44:57.000Z</time>
        <extensions>
          <ns3:TrackPointExtension>
            <ns3:atemp>17.0</ns3:atemp>
          </ns3:TrackPointExtension>
        </extensions>
      </trkpt>
      <trkpt lat="42.5644563138484954833984375" lon="20.03377653658390045166015625">
        <ele>2037</ele>
        <time>2026-06-15T12:44:58.000Z</time>
        <extensions>
          <ns3:TrackPointExtension>
            <ns3:atemp>17.0</ns3:atemp>
          </ns3:TrackPointExtension>
        </extensions>
      </trkpt>
      <trkpt lat="42.56447651423513889312744140625" lon="20.0337676517665386199951171875">
        <ele>2037.4000244140625</ele>
        <time>2026-06-15T12:44:59.000Z</time>
        <extensions>
          <ns3:TrackPointExtension>
            <ns3:atemp>17.0</ns3:atemp>
          </ns3:TrackPointExtension>
        </extensions>
      </trkpt>
      <trkpt lat="42.564499564468860626220703125" lon="20.03376505337655544281005859375">
        <ele>2037.800048828125</ele>
        <time>2026-06-15T12:45:00.000Z</time>
        <extensions>
          <ns3:TrackPointExtension>
            <ns3:atemp>17.0</ns3:atemp>
          </ns3:TrackPointExtension>
        </extensions>
      </trkpt>
      <trkpt lat="42.5645275600254535675048828125" lon="20.03375373780727386474609375">
        <ele>2038</ele>
        <time>2026-06-15T12:45:01.000Z</time>
        <extensions>
          <ns3:TrackPointExtension>
            <ns3:atemp>17.0</ns3:atemp>
          </ns3:TrackPointExtension>
        </extensions>
      </trkpt>
      <trkpt lat="42.564551196992397308349609375" lon="20.033736638724803924560546875">
        <ele>2038.4000244140625</ele>
        <time>2026-06-15T12:45:02.000Z</time>
        <extensions>
          <ns3:TrackPointExtension>
            <ns3:atemp>17.0</ns3:atemp>
          </ns3:TrackPointExtension>
        </extensions>
      </trkpt>
      <trkpt lat="42.564572654664516448974609375" lon="20.03371844999492168426513671875">
        <ele>2038.5999755859375</ele>
        <time>2026-06-15T12:45:03.000Z</time>
        <extensions>
          <ns3:TrackPointExtension>
            <ns3:atemp>17.0</ns3:atemp>
          </ns3:TrackPointExtension>
        </extensions>
      </trkpt>
      <trkpt lat="42.5645879097282886505126953125" lon="20.03369347192347049713134765625">
        <ele>2038.800048828125</ele>
        <time>2026-06-15T12:45:04.000Z</time>
        <extensions>
          <ns3:TrackPointExtension>
            <ns3:atemp>17.0</ns3:atemp>
          </ns3:TrackPointExtension>
        </extensions>
      </trkpt>
      <trkpt lat="42.56460827775299549102783203125" lon="20.0336680747568607330322265625">
        <ele>2039</ele>
        <time>2026-06-15T12:45:05.000Z</time>
        <extensions>
          <ns3:TrackPointExtension>
            <ns3:atemp>17.0</ns3:atemp>
          </ns3:TrackPointExtension>
        </extensions>
      </trkpt>
      <trkpt lat="42.56463174708187580108642578125" lon="20.0336425937712192535400390625">
        <ele>2039.4000244140625</ele>
        <time>2026-06-15T12:45:06.000Z</time>
        <extensions>
          <ns3:TrackPointExtension>
            <ns3:atemp>17.0</ns3:atemp>
          </ns3:TrackPointExtension>
        </extensions>
      </trkpt>
      <trkpt lat="42.564654462039470672607421875" lon="20.03362658433616161346435546875">
        <ele>2039.5999755859375</ele>
        <time>2026-06-15T12:45:07.000Z</time>
        <extensions>
          <ns3:TrackPointExtension>
            <ns3:atemp>17.0</ns3:atemp>
          </ns3:TrackPointExtension>
        </extensions>
      </trkpt>
      <trkpt lat="42.5646720640361309051513671875" lon="20.03359808586537837982177734375">
        <ele>2040</ele>
        <time>2026-06-15T12:45:08.000Z</time>
        <extensions>
          <ns3:TrackPointExtension>
            <ns3:atemp>17.0</ns3:atemp>
          </ns3:TrackPointExtension>
        </extensions>
      </trkpt>
      <trkpt lat="42.56468631327152252197265625" lon="20.03357109613716602325439453125">
        <ele>2040.199951171875</ele>
        <time>2026-06-15T12:45:09.000Z</time>
        <extensions>
          <ns3:TrackPointExtension>
            <ns3:atemp>17.0</ns3:atemp>
          </ns3:TrackPointExtension>
        </extensions>
      </trkpt>
      <trkpt lat="42.56469896994531154632568359375" lon="20.03354125656187534332275390625">
        <ele>2040.5999755859375</ele>
        <time>2026-06-15T12:45:10.000Z</time>
        <extensions>
          <ns3:TrackPointExtension>
            <ns3:atemp>17.0</ns3:atemp>
          </ns3:TrackPointExtension>
        </extensions>
      </trkpt>
      <trkpt lat="42.56471221335232257843017578125" lon="20.033508650958538055419921875">
        <ele>2040.800048828125</ele>
        <time>2026-06-15T12:45:11.000Z</time>
        <extensions>
          <ns3:TrackPointExtension>
            <ns3:atemp>17.0</ns3:atemp>
          </ns3:TrackPointExtension>
        </extensions>
      </trkpt>
      <trkpt lat="42.5647263787686824798583984375" lon="20.0334809906780719757080078125">
        <ele>2041</ele>
        <time>2026-06-15T12:45:12.000Z</time>
        <extensions>
          <ns3:TrackPointExtension>
            <ns3:atemp>17.0</ns3:atemp>
          </ns3:TrackPointExtension>
        </extensions>
      </trkpt>
      <trkpt lat="42.56474825553596019744873046875" lon="20.0334444455802440643310546875">
        <ele>2041.199951171875</ele>
        <time>2026-06-15T12:45:13.000Z</time>
        <extensions>
          <ns3:TrackPointExtension>
            <ns3:atemp>17.0</ns3:atemp>
          </ns3:TrackPointExtension>
        </extensions>
      </trkpt>
      <trkpt lat="42.56477524526417255401611328125" lon="20.033421479165554046630859375">
        <ele>2041.4000244140625</ele>
        <time>2026-06-15T12:45:14.000Z</time>
        <extensions>
          <ns3:TrackPointExtension>
            <ns3:atemp>17.0</ns3:atemp>
          </ns3:TrackPointExtension>
        </extensions>
      </trkpt>
      <trkpt lat="42.56480324082076549530029296875" lon="20.03341100178658962249755859375">
        <ele>2041.5999755859375</ele>
        <time>2026-06-15T12:45:15.000Z</time>
        <extensions>
          <ns3:TrackPointExtension>
            <ns3:atemp>17.0</ns3:atemp>
          </ns3:TrackPointExtension>
        </extensions>
      </trkpt>
      <trkpt lat="42.56483173929154872894287109375" lon="20.03340161405503749847412109375">
        <ele>2041.800048828125</ele>
        <time>2026-06-15T12:45:16.000Z</time>
        <extensions>
          <ns3:TrackPointExtension>
            <ns3:atemp>17.0</ns3:atemp>
          </ns3:TrackPointExtension>
        </extensions>
      </trkpt>
      <trkpt lat="42.56486979313194751739501953125" lon="20.033389292657375335693359375">
        <ele>2042</ele>
        <time>2026-06-15T12:45:17.000Z</time>
        <extensions>
          <ns3:TrackPointExtension>
            <ns3:atemp>17.0</ns3:atemp>
          </ns3:TrackPointExtension>
        </extensions>
      </trkpt>
      <trkpt lat="42.56491304375231266021728515625" lon="20.03337713889777660369873046875">
        <ele>2042</ele>
        <time>2026-06-15T12:45:18.000Z</time>
        <extensions>
          <ns3:TrackPointExtension>
            <ns3:atemp>17.0</ns3:atemp>
          </ns3:TrackPointExtension>
        </extensions>
      </trkpt>
      <trkpt lat="42.56495319306850433349609375" lon="20.033352077007293701171875">
        <ele>2042</ele>
        <time>2026-06-15T12:45:19.000Z</time>
        <extensions>
          <ns3:TrackPointExtension>
            <ns3:atemp>17.0</ns3:atemp>
          </ns3:TrackPointExtension>
        </extensions>
      </trkpt>
      <trkpt lat="42.56498479284346103668212890625" lon="20.03331745974719524383544921875">
        <ele>2042.199951171875</ele>
        <time>2026-06-15T12:45:20.000Z</time>
        <extensions>
          <ns3:TrackPointExtension>
            <ns3:atemp>17.0</ns3:atemp>
          </ns3:TrackPointExtension>
        </extensions>
      </trkpt>
      <trkpt lat="42.565001137554645538330078125" lon="20.03327429294586181640625">
        <ele>2042.199951171875</ele>
        <time>2026-06-15T12:45:21.000Z</time>
        <extensions>
          <ns3:TrackPointExtension>
            <ns3:atemp>17.0</ns3:atemp>
          </ns3:TrackPointExtension>
        </extensions>
      </trkpt>
      <trkpt lat="42.5650155544281005859375" lon="20.0332231633365154266357421875">
        <ele>2042.4000244140625</ele>
        <time>2026-06-15T12:45:22.000Z</time>
        <extensions>
          <ns3:TrackPointExtension>
            <ns3:atemp>17.0</ns3:atemp>
          </ns3:TrackPointExtension>
        </extensions>
      </trkpt>
      <trkpt lat="42.56502117030322551727294921875" lon="20.03317044116556644439697265625">
        <ele>2042.800048828125</ele>
        <time>2026-06-15T12:45:23.000Z</time>
        <extensions>
          <ns3:TrackPointExtension>
            <ns3:atemp>17.0</ns3:atemp>
          </ns3:TrackPointExtension>
        </extensions>
      </trkpt>
      <trkpt lat="42.56502502597868442535400390625" lon="20.03311025910079479217529296875">
        <ele>2043</ele>
        <time>2026-06-15T12:45:24.000Z</time>
        <extensions>
          <ns3:TrackPointExtension>
            <ns3:atemp>17.0</ns3:atemp>
          </ns3:TrackPointExtension>
        </extensions>
      </trkpt>
      <trkpt lat="42.5650264509022235870361328125" lon="20.03305493853986263275146484375">
        <ele>2043</ele>
        <time>2026-06-15T12:45:25.000Z</time>
        <extensions>
          <ns3:TrackPointExtension>
            <ns3:atemp>17.0</ns3:atemp>
          </ns3:TrackPointExtension>
        </extensions>
      </trkpt>
      <trkpt lat="42.5650284625589847564697265625" lon="20.03300196491181850433349609375">
        <ele>2043.199951171875</ele>
        <time>2026-06-15T12:45:26.000Z</time>
        <extensions>
          <ns3:TrackPointExtension>
            <ns3:atemp>17.0</ns3:atemp>
          </ns3:TrackPointExtension>
        </extensions>
      </trkpt>
      <trkpt lat="42.5650303065776824951171875" lon="20.03294396214187145233154296875">
        <ele>2043</ele>
        <time>2026-06-15T12:45:27.000Z</time>
        <extensions>
          <ns3:TrackPointExtension>
            <ns3:atemp>17.0</ns3:atemp>
          </ns3:TrackPointExtension>
        </extensions>
      </trkpt>
      <trkpt lat="42.56502083502709865570068359375" lon="20.032887049019336700439453125">
        <ele>2043.199951171875</ele>
        <time>2026-06-15T12:45:28.000Z</time>
        <extensions>
          <ns3:TrackPointExtension>
            <ns3:atemp>17.0</ns3:atemp>
          </ns3:TrackPointExtension>
        </extensions>
      </trkpt>
      <trkpt lat="42.56501211784780025482177734375" lon="20.03283583559095859527587890625">
        <ele>2043.4000244140625</ele>
        <time>2026-06-15T12:45:29.000Z</time>
        <extensions>
          <ns3:TrackPointExtension>
            <ns3:atemp>17.0</ns3:atemp>
          </ns3:TrackPointExtension>
        </extensions>
      </trkpt>
      <trkpt lat="42.56499820388853549957275390625" lon="20.03278990276157855987548828125">
        <ele>2043.4000244140625</ele>
        <time>2026-06-15T12:45:30.000Z</time>
        <extensions>
          <ns3:TrackPointExtension>
            <ns3:atemp>17.0</ns3:atemp>
          </ns3:TrackPointExtension>
        </extensions>
      </trkpt>
      <trkpt lat="42.56499887444078922271728515625" lon="20.03273474983870983123779296875">
        <ele>2043.4000244140625</ele>
        <time>2026-06-15T12:45:31.000Z</time>
        <extensions>
          <ns3:TrackPointExtension>
            <ns3:atemp>17.0</ns3:atemp>
          </ns3:TrackPointExtension>
        </extensions>
      </trkpt>
      <trkpt lat="42.56500591523945331573486328125" lon="20.03268512897193431854248046875">
        <ele>2043.5999755859375</ele>
        <time>2026-06-15T12:45:32.000Z</time>
        <extensions>
          <ns3:TrackPointExtension>
            <ns3:atemp>17.0</ns3:atemp>
          </ns3:TrackPointExtension>
        </extensions>
      </trkpt>
      <trkpt lat="42.5650214217603206634521484375" lon="20.032643973827362060546875">
        <ele>2043.5999755859375</ele>
        <time>2026-06-15T12:45:33.000Z</time>
        <extensions>
          <ns3:TrackPointExtension>
            <ns3:atemp>18.0</ns3:atemp>
          </ns3:TrackPointExtension>
        </extensions>
      </trkpt>
      <trkpt lat="42.565043382346630096435546875" lon="20.0326077640056610107421875">
        <ele>2043.5999755859375</ele>
        <time>2026-06-15T12:45:34.000Z</time>
        <extensions>
          <ns3:TrackPointExtension>
            <ns3:atemp>17.0</ns3:atemp>
          </ns3:TrackPointExtension>
        </extensions>
      </trkpt>
      <trkpt lat="42.5650757364928722381591796875" lon="20.03256929107010364532470703125">
        <ele>2043.5999755859375</ele>
        <time>2026-06-15T12:45:35.000Z</time>
        <extensions>
          <ns3:TrackPointExtension>
            <ns3:atemp>17.0</ns3:atemp>
          </ns3:TrackPointExtension>
        </extensions>
      </trkpt>
      <trkpt lat="42.56510742008686065673828125" lon="20.0325261242687702178955078125">
        <ele>2043.5999755859375</ele>
        <time>2026-06-15T12:45:36.000Z</time>
        <extensions>
          <ns3:TrackPointExtension>
            <ns3:atemp>17.0</ns3:atemp>
          </ns3:TrackPointExtension>
        </extensions>
      </trkpt>
      <trkpt lat="42.565141282975673675537109375" lon="20.0324763357639312744140625">
        <ele>2043.4000244140625</ele>
        <time>2026-06-15T12:45:37.000Z</time>
        <extensions>
          <ns3:TrackPointExtension>
            <ns3:atemp>17.0</ns3:atemp>
          </ns3:TrackPointExtension>
        </extensions>
      </trkpt>
      <trkpt lat="42.56517958827316761016845703125" lon="20.03243149258196353912353515625">
        <ele>2043.199951171875</ele>
        <time>2026-06-15T12:45:38.000Z</time>
        <extensions>
          <ns3:TrackPointExtension>
            <ns3:atemp>17.0</ns3:atemp>
          </ns3:TrackPointExtension>
        </extensions>
      </trkpt>
      <trkpt lat="42.5652188993990421295166015625" lon="20.03239762969315052032470703125">
        <ele>2043</ele>
        <time>2026-06-15T12:45:39.000Z</time>
        <extensions>
          <ns3:TrackPointExtension>
            <ns3:atemp>17.0</ns3:atemp>
          </ns3:TrackPointExtension>
        </extensions>
      </trkpt>
      <trkpt lat="42.5652537681162357330322265625" lon="20.032370053231716156005859375">
        <ele>2042.800048828125</ele>
        <time>2026-06-15T12:45:40.000Z</time>
        <extensions>
          <ns3:TrackPointExtension>
            <ns3:atemp>17.0</ns3:atemp>
          </ns3:TrackPointExtension>
        </extensions>
      </trkpt>
      <trkpt lat="42.565288804471492767333984375" lon="20.03234826028347015380859375">
        <ele>2042.5999755859375</ele>
        <time>2026-06-15T12:45:41.000Z</time>
        <extensions>
          <ns3:TrackPointExtension>
            <ns3:atemp>17.0</ns3:atemp>
          </ns3:TrackPointExtension>
        </extensions>
      </trkpt>
      <trkpt lat="42.56532870233058929443359375" lon="20.0323252938687801361083984375">
        <ele>2042.800048828125</ele>
        <time>2026-06-15T12:45:42.000Z</time>
        <extensions>
          <ns3:TrackPointExtension>
            <ns3:atemp>17.0</ns3:atemp>
          </ns3:TrackPointExtension>
        </extensions>
      </trkpt>
      <trkpt lat="42.56536231376230716705322265625" lon="20.032291598618030548095703125">
        <ele>2042.800048828125</ele>
        <time>2026-06-15T12:45:43.000Z</time>
        <extensions>
          <ns3:TrackPointExtension>
            <ns3:atemp>17.0</ns3:atemp>
          </ns3:TrackPointExtension>
        </extensions>
      </trkpt>
      <trkpt lat="42.56539030931890010833740234375" lon="20.03224407322704792022705078125">
        <ele>2042.800048828125</ele>
        <time>2026-06-15T12:45:44.000Z</time>
        <extensions>
          <ns3:TrackPointExtension>
            <ns3:atemp>17.0</ns3:atemp>
          </ns3:TrackPointExtension>
        </extensions>
      </trkpt>
      <trkpt lat="42.56541964598000049591064453125" lon="20.0322000682353973388671875">
        <ele>2042.800048828125</ele>
        <time>2026-06-15T12:45:45.000Z</time>
        <extensions>
          <ns3:TrackPointExtension>
            <ns3:atemp>17.0</ns3:atemp>
          </ns3:TrackPointExtension>
        </extensions>
      </trkpt>
      <trkpt lat="42.565451078116893768310546875" lon="20.03216042183339595794677734375">
        <ele>2042.800048828125</ele>
        <time>2026-06-15T12:45:46.000Z</time>
        <extensions>
          <ns3:TrackPointExtension>
            <ns3:atemp>17.0</ns3:atemp>
          </ns3:TrackPointExtension>
        </extensions>
      </trkpt>
      <trkpt lat="42.56548217497766017913818359375" lon="20.03212572075426578521728515625">
        <ele>2042.800048828125</ele>
        <time>2026-06-15T12:45:47.000Z</time>
        <extensions>
          <ns3:TrackPointExtension>
            <ns3:atemp>17.0</ns3:atemp>
          </ns3:TrackPointExtension>
        </extensions>
      </trkpt>
      <trkpt lat="42.56550815887749195098876953125" lon="20.03209889866411685943603515625">
        <ele>2043</ele>
        <time>2026-06-15T12:45:48.000Z</time>
        <extensions>
          <ns3:TrackPointExtension>
            <ns3:atemp>17.0</ns3:atemp>
          </ns3:TrackPointExtension>
        </extensions>
      </trkpt>
      <trkpt lat="42.565528862178325653076171875" lon="20.03207735717296600341796875">
        <ele>2043.199951171875</ele>
        <time>2026-06-15T12:45:49.000Z</time>
        <extensions>
          <ns3:TrackPointExtension>
            <ns3:atemp>17.0</ns3:atemp>
          </ns3:TrackPointExtension>
        </extensions>
      </trkpt>
      <trkpt lat="42.5655501522123813629150390625" lon="20.03205858170986175537109375">
        <ele>2043.4000244140625</ele>
        <time>2026-06-15T12:45:50.000Z</time>
        <extensions>
          <ns3:TrackPointExtension>
            <ns3:atemp>17.0</ns3:atemp>
          </ns3:TrackPointExtension>
        </extensions>
      </trkpt>
      <trkpt lat="42.5655752979218959808349609375" lon="20.0320352800190448760986328125">
        <ele>2043.800048828125</ele>
        <time>2026-06-15T12:45:51.000Z</time>
        <extensions>
          <ns3:TrackPointExtension>
            <ns3:atemp>17.0</ns3:atemp>
          </ns3:TrackPointExtension>
        </extensions>
      </trkpt>
      <trkpt lat="42.56560002453625202178955078125" lon="20.03201474435627460479736328125">
        <ele>2044</ele>
        <time>2026-06-15T12:45:52.000Z</time>
        <extensions>
          <ns3:TrackPointExtension>
            <ns3:atemp>17.0</ns3:atemp>
          </ns3:TrackPointExtension>
        </extensions>
      </trkpt>
      <trkpt lat="42.56562952883541584014892578125" lon="20.0320057757198810577392578125">
        <ele>2044.4000244140625</ele>
        <time>2026-06-15T12:45:53.000Z</time>
        <extensions>
          <ns3:TrackPointExtension>
            <ns3:atemp>17.0</ns3:atemp>
          </ns3:TrackPointExtension>
        </extensions>
      </trkpt>
      <trkpt lat="42.56565618328750133514404296875" lon="20.031989179551601409912109375">
        <ele>2044.5999755859375</ele>
        <time>2026-06-15T12:45:54.000Z</time>
        <extensions>
          <ns3:TrackPointExtension>
            <ns3:atemp>17.0</ns3:atemp>
          </ns3:TrackPointExtension>
        </extensions>
      </trkpt>
      <trkpt lat="42.5656775571405887603759765625" lon="20.03197417594492435455322265625">
        <ele>2044.800048828125</ele>
        <time>2026-06-15T12:45:55.000Z</time>
        <extensions>
          <ns3:TrackPointExtension>
            <ns3:atemp>17.0</ns3:atemp>
          </ns3:TrackPointExtension>
        </extensions>
      </trkpt>
      <trkpt lat="42.56569574587047100067138671875" lon="20.0319667160511016845703125">
        <ele>2045.199951171875</ele>
        <time>2026-06-15T12:45:56.000Z</time>
        <extensions>
          <ns3:TrackPointExtension>
            <ns3:atemp>17.0</ns3:atemp>
          </ns3:TrackPointExtension>
        </extensions>
      </trkpt>
      <trkpt lat="42.56571334786713123321533203125" lon="20.03196227364242076873779296875">
        <ele>2045.4000244140625</ele>
        <time>2026-06-15T12:45:57.000Z</time>
        <extensions>
          <ns3:TrackPointExtension>
            <ns3:atemp>18.0</ns3:atemp>
          </ns3:TrackPointExtension>
        </extensions>
      </trkpt>
      <trkpt lat="42.5657325424253940582275390625" lon="20.0319561548531055450439453125">
        <ele>2045.800048828125</ele>
        <time>2026-06-15T12:45:58.000Z</time>
        <extensions>
          <ns3:TrackPointExtension>
            <ns3:atemp>18.0</ns3:atemp>
          </ns3:TrackPointExtension>
        </extensions>
      </trkpt>
      <trkpt lat="42.5657553412020206451416015625" lon="20.03194986842572689056396484375">
        <ele>2046</ele>
        <time>2026-06-15T12:45:59.000Z</time>
        <extensions>
          <ns3:TrackPointExtension>
            <ns3:atemp>18.0</ns3:atemp>
          </ns3:TrackPointExtension>
        </extensions>
      </trkpt>
      <trkpt lat="42.56578006781637668609619140625" lon="20.03194366581737995147705078125">
        <ele>2046.199951171875</ele>
        <time>2026-06-15T12:46:00.000Z</time>
        <extensions>
          <ns3:TrackPointExtension>
            <ns3:atemp>17.0</ns3:atemp>
          </ns3:TrackPointExtension>
        </extensions>
      </trkpt>
      <trkpt lat="42.56580471061170101165771484375" lon="20.03193260170519351959228515625">
        <ele>2046.4000244140625</ele>
        <time>2026-06-15T12:46:01.000Z</time>
        <extensions>
          <ns3:TrackPointExtension>
            <ns3:atemp>18.0</ns3:atemp>
          </ns3:TrackPointExtension>
        </extensions>
      </trkpt>
      <trkpt lat="42.565824575722217559814453125" lon="20.0319211184978485107421875">
        <ele>2046.5999755859375</ele>
        <time>2026-06-15T12:46:02.000Z</time>
        <extensions>
          <ns3:TrackPointExtension>
            <ns3:atemp>18.0</ns3:atemp>
          </ns3:TrackPointExtension>
        </extensions>
      </trkpt>
      <trkpt lat="42.565844357013702392578125" lon="20.03191080875694751739501953125">
        <ele>2046.5999755859375</ele>
        <time>2026-06-15T12:46:03.000Z</time>
        <extensions>
          <ns3:TrackPointExtension>
            <ns3:atemp>18.0</ns3:atemp>
          </ns3:TrackPointExtension>
        </extensions>
      </trkpt>
      <trkpt lat="42.56586438976228237152099609375" lon="20.0319038517773151397705078125">
        <ele>2046.800048828125</ele>
        <time>2026-06-15T12:46:04.000Z</time>
        <extensions>
          <ns3:TrackPointExtension>
            <ns3:atemp>18.0</ns3:atemp>
          </ns3:TrackPointExtension>
        </extensions>
      </trkpt>
      <trkpt lat="42.5658840872347354888916015625" lon="20.0318947993218898773193359375">
        <ele>2047.199951171875</ele>
        <time>2026-06-15T12:46:05.000Z</time>
        <extensions>
          <ns3:TrackPointExtension>
            <ns3:atemp>18.0</ns3:atemp>
          </ns3:TrackPointExtension>
        </extensions>
      </trkpt>
      <trkpt lat="42.565903030335903167724609375" lon="20.03188516013324260711669921875">
        <ele>2047.5999755859375</ele>
        <time>2026-06-15T12:46:06.000Z</time>
        <extensions>
          <ns3:TrackPointExtension>
            <ns3:atemp>18.0</ns3:atemp>
          </ns3:TrackPointExtension>
        </extensions>
      </trkpt>
      <trkpt lat="42.56592147052288055419921875" lon="20.0318914465606212615966796875">
        <ele>2047.800048828125</ele>
        <time>2026-06-15T12:46:07.000Z</time>
        <extensions>
          <ns3:TrackPointExtension>
            <ns3:atemp>18.0</ns3:atemp>
          </ns3:TrackPointExtension>
        </extensions>
      </trkpt>
      <trkpt lat="42.5659414194524288177490234375" lon="20.03189002163708209991455078125">
        <ele>2048.199951171875</ele>
        <time>2026-06-15T12:46:08.000Z</time>
        <extensions>
          <ns3:TrackPointExtension>
            <ns3:atemp>18.0</ns3:atemp>
          </ns3:TrackPointExtension>
        </extensions>
      </trkpt>
      <trkpt lat="42.56596312858164310455322265625" lon="20.031887590885162353515625">
        <ele>2048.39990234375</ele>
        <time>2026-06-15T12:46:09.000Z</time>
        <extensions>
          <ns3:TrackPointExtension>
            <ns3:atemp>18.0</ns3:atemp>
          </ns3:TrackPointExtension>
        </extensions>
      </trkpt>
      <trkpt lat="42.56598643027245998382568359375" lon="20.03188599832355976104736328125">
        <ele>2048.800048828125</ele>
        <time>2026-06-15T12:46:10.000Z</time>
        <extensions>
          <ns3:TrackPointExtension>
            <ns3:atemp>18.0</ns3:atemp>
          </ns3:TrackPointExtension>
        </extensions>
      </trkpt>
      <trkpt lat="42.56601040251553058624267578125" lon="20.03188817761838436126708984375">
        <ele>2049.199951171875</ele>
        <time>2026-06-15T12:46:11.000Z</time>
        <extensions>
          <ns3:TrackPointExtension>
            <ns3:atemp>18.0</ns3:atemp>
          </ns3:TrackPointExtension>
        </extensions>
      </trkpt>
      <trkpt lat="42.5660349614918231964111328125" lon="20.03188800998032093048095703125">
        <ele>2049.39990234375</ele>
        <time>2026-06-15T12:46:12.000Z</time>
        <extensions>
          <ns3:TrackPointExtension>
            <ns3:atemp>18.0</ns3:atemp>
          </ns3:TrackPointExtension>
        </extensions>
      </trkpt>
      <trkpt lat="42.5660574249923229217529296875" lon="20.03188549540936946868896484375">
        <ele>2049.60009765625</ele>
        <time>2026-06-15T12:46:13.000Z</time>
        <extensions>
          <ns3:TrackPointExtension>
            <ns3:atemp>18.0</ns3:atemp>
          </ns3:TrackPointExtension>
        </extensions>
      </trkpt>
      <trkpt lat="42.566080726683139801025390625" lon="20.03187887370586395263671875">
        <ele>2049.800048828125</ele>
        <time>2026-06-15T12:46:14.000Z</time>
        <extensions>
          <ns3:TrackPointExtension>
            <ns3:atemp>18.0</ns3:atemp>
          </ns3:TrackPointExtension>
        </extensions>
      </trkpt>
      <trkpt lat="42.5661006756126880645751953125" lon="20.0318773649632930755615234375">
        <ele>2050.199951171875</ele>
        <time>2026-06-15T12:46:15.000Z</time>
        <extensions>
          <ns3:TrackPointExtension>
            <ns3:atemp>18.0</ns3:atemp>
          </ns3:TrackPointExtension>
        </extensions>
      </trkpt>
      <trkpt lat="42.56612255237996578216552734375" lon="20.031871497631072998046875">
        <ele>2050.39990234375</ele>
        <time>2026-06-15T12:46:16.000Z</time>
        <extensions>
          <ns3:TrackPointExtension>
            <ns3:atemp>18.0</ns3:atemp>
          </ns3:TrackPointExtension>
        </extensions>
      </trkpt>
      <trkpt lat="42.56614132784307003021240234375" lon="20.03186169080436229705810546875">
        <ele>2050.60009765625</ele>
        <time>2026-06-15T12:46:17.000Z</time>
        <extensions>
          <ns3:TrackPointExtension>
            <ns3:atemp>18.0</ns3:atemp>
          </ns3:TrackPointExtension>
        </extensions>
      </trkpt>
      <trkpt lat="42.56615884602069854736328125" lon="20.0318495370447635650634765625">
        <ele>2051</ele>
        <time>2026-06-15T12:46:18.000Z</time>
        <extensions>
          <ns3:TrackPointExtension>
            <ns3:atemp>18.0</ns3:atemp>
          </ns3:TrackPointExtension>
        </extensions>
      </trkpt>
      <trkpt lat="42.56617938168346881866455078125" lon="20.031844675540924072265625">
        <ele>2051.199951171875</ele>
        <time>2026-06-15T12:46:19.000Z</time>
        <extensions>
          <ns3:TrackPointExtension>
            <ns3:atemp>18.0</ns3:atemp>
          </ns3:TrackPointExtension>
        </extensions>
      </trkpt>
      <trkpt lat="42.56619748659431934356689453125" lon="20.03183654509484767913818359375">
        <ele>2051.39990234375</ele>
        <time>2026-06-15T12:46:20.000Z</time>
        <extensions>
          <ns3:TrackPointExtension>
            <ns3:atemp>18.0</ns3:atemp>
          </ns3:TrackPointExtension>
        </extensions>
      </trkpt>
      <trkpt lat="42.5662180222570896148681640625" lon="20.03182447515428066253662109375">
        <ele>2051.800048828125</ele>
        <time>2026-06-15T12:46:21.000Z</time>
        <extensions>
          <ns3:TrackPointExtension>
            <ns3:atemp>18.0</ns3:atemp>
          </ns3:TrackPointExtension>
        </extensions>
      </trkpt>
      <trkpt lat="42.566232942044734954833984375" lon="20.03181491978466510772705078125">
        <ele>2052</ele>
        <time>2026-06-15T12:46:22.000Z</time>
        <extensions>
          <ns3:TrackPointExtension>
            <ns3:atemp>18.0</ns3:atemp>
          </ns3:TrackPointExtension>
        </extensions>
      </trkpt>
      <trkpt lat="42.566256411373615264892578125" lon="20.03180804662406444549560546875">
        <ele>2052.60009765625</ele>
        <time>2026-06-15T12:46:23.000Z</time>
        <extensions>
          <ns3:TrackPointExtension>
            <ns3:atemp>18.0</ns3:atemp>
          </ns3:TrackPointExtension>
        </extensions>
      </trkpt>
      <trkpt lat="42.56628197617828845977783203125" lon="20.03179840743541717529296875">
        <ele>2052.800048828125</ele>
        <time>2026-06-15T12:46:24.000Z</time>
        <extensions>
          <ns3:TrackPointExtension>
            <ns3:atemp>18.0</ns3:atemp>
          </ns3:TrackPointExtension>
        </extensions>
      </trkpt>
      <trkpt lat="42.56630829535424709320068359375" lon="20.03178340382874011993408203125">
        <ele>2053.199951171875</ele>
        <time>2026-06-15T12:46:25.000Z</time>
        <extensions>
          <ns3:TrackPointExtension>
            <ns3:atemp>18.0</ns3:atemp>
          </ns3:TrackPointExtension>
        </extensions>
      </trkpt>
      <trkpt lat="42.56633184850215911865234375" lon="20.0317714177072048187255859375">
        <ele>2053.39990234375</ele>
        <time>2026-06-15T12:46:26.000Z</time>
        <extensions>
          <ns3:TrackPointExtension>
            <ns3:atemp>18.0</ns3:atemp>
          </ns3:TrackPointExtension>
        </extensions>
      </trkpt>
      <trkpt lat="42.56635154597461223602294921875" lon="20.031758844852447509765625">
        <ele>2053.39990234375</ele>
        <time>2026-06-15T12:46:27.000Z</time>
        <extensions>
          <ns3:TrackPointExtension>
            <ns3:atemp>18.0</ns3:atemp>
          </ns3:TrackPointExtension>
        </extensions>
      </trkpt>
      <trkpt lat="42.56637434475123882293701171875" lon="20.03173998557031154632568359375">
        <ele>2053.60009765625</ele>
        <time>2026-06-15T12:46:28.000Z</time>
        <extensions>
          <ns3:TrackPointExtension>
            <ns3:atemp>18.0</ns3:atemp>
          </ns3:TrackPointExtension>
        </extensions>
      </trkpt>
      <trkpt lat="42.56639798171818256378173828125" lon="20.031720288097858428955078125">
        <ele>2053.60009765625</ele>
        <time>2026-06-15T12:46:29.000Z</time>
        <extensions>
          <ns3:TrackPointExtension>
            <ns3:atemp>18.0</ns3:atemp>
          </ns3:TrackPointExtension>
        </extensions>
      </trkpt>
      <trkpt lat="42.5664196908473968505859375" lon="20.03169908188283443450927734375">
        <ele>2054</ele>
        <time>2026-06-15T12:46:30.000Z</time>
        <extensions>
          <ns3:TrackPointExtension>
            <ns3:atemp>18.0</ns3:atemp>
          </ns3:TrackPointExtension>
        </extensions>
      </trkpt>
      <trkpt lat="42.56644450128078460693359375" lon="20.0316802226006984710693359375">
        <ele>2054.199951171875</ele>
        <time>2026-06-15T12:46:31.000Z</time>
        <extensions>
          <ns3:TrackPointExtension>
            <ns3:atemp>18.0</ns3:atemp>
          </ns3:TrackPointExtension>
        </extensions>
      </trkpt>
      <trkpt lat="42.5664684735238552093505859375" lon="20.0316564179956912994384765625">
        <ele>2054.39990234375</ele>
        <time>2026-06-15T12:46:32.000Z</time>
        <extensions>
          <ns3:TrackPointExtension>
            <ns3:atemp>18.0</ns3:atemp>
          </ns3:TrackPointExtension>
        </extensions>
      </trkpt>
      <trkpt lat="42.56648867391049861907958984375" lon="20.03163320012390613555908203125">
        <ele>2054.60009765625</ele>
        <time>2026-06-15T12:46:33.000Z</time>
        <extensions>
          <ns3:TrackPointExtension>
            <ns3:atemp>18.0</ns3:atemp>
          </ns3:TrackPointExtension>
        </extensions>
      </trkpt>
      <trkpt lat="42.5665093772113323211669921875" lon="20.03160956315696239471435546875">
        <ele>2054.800048828125</ele>
        <time>2026-06-15T12:46:34.000Z</time>
        <extensions>
          <ns3:TrackPointExtension>
            <ns3:atemp>18.0</ns3:atemp>
          </ns3:TrackPointExtension>
        </extensions>
      </trkpt>
      <trkpt lat="42.56652706302702426910400390625" lon="20.03158408217132091522216796875">
        <ele>2055</ele>
        <time>2026-06-15T12:46:35.000Z</time>
        <extensions>
          <ns3:TrackPointExtension>
            <ns3:atemp>18.0</ns3:atemp>
          </ns3:TrackPointExtension>
        </extensions>
      </trkpt>
      <trkpt lat="42.5665475986897945404052734375" lon="20.0315554998815059661865234375">
        <ele>2055.39990234375</ele>
        <time>2026-06-15T12:46:36.000Z</time>
        <extensions>
          <ns3:TrackPointExtension>
            <ns3:atemp>18.0</ns3:atemp>
          </ns3:TrackPointExtension>
        </extensions>
      </trkpt>
      <trkpt lat="42.56656788289546966552734375" lon="20.0315263308584690093994140625">
        <ele>2055.60009765625</ele>
        <time>2026-06-15T12:46:37.000Z</time>
        <extensions>
          <ns3:TrackPointExtension>
            <ns3:atemp>18.0</ns3:atemp>
          </ns3:TrackPointExtension>
        </extensions>
      </trkpt>
      <trkpt lat="42.56658623926341533660888671875" lon="20.0314973294734954833984375">
        <ele>2055.800048828125</ele>
        <time>2026-06-15T12:46:38.000Z</time>
        <extensions>
          <ns3:TrackPointExtension>
            <ns3:atemp>18.0</ns3:atemp>
          </ns3:TrackPointExtension>
        </extensions>
      </trkpt>
      <trkpt lat="42.56660467945039272308349609375" lon="20.0314673222601413726806640625">
        <ele>2056</ele>
        <time>2026-06-15T12:46:39.000Z</time>
        <extensions>
          <ns3:TrackPointExtension>
            <ns3:atemp>18.0</ns3:atemp>
          </ns3:TrackPointExtension>
        </extensions>
      </trkpt>
      <trkpt lat="42.56662513129413127899169921875" lon="20.03143941052258014678955078125">
        <ele>2056.199951171875</ele>
        <time>2026-06-15T12:46:40.000Z</time>
        <extensions>
          <ns3:TrackPointExtension>
            <ns3:atemp>18.0</ns3:atemp>
          </ns3:TrackPointExtension>
        </extensions>
      </trkpt>
      <trkpt lat="42.5666438229382038116455078125" lon="20.0314140133559703826904296875">
        <ele>2056.60009765625</ele>
        <time>2026-06-15T12:46:41.000Z</time>
        <extensions>
          <ns3:TrackPointExtension>
            <ns3:atemp>18.0</ns3:atemp>
          </ns3:TrackPointExtension>
        </extensions>
      </trkpt>
      <trkpt lat="42.566670812666416168212890625" lon="20.03139205276966094970703125">
        <ele>2056.800048828125</ele>
        <time>2026-06-15T12:46:42.000Z</time>
        <extensions>
          <ns3:TrackPointExtension>
            <ns3:atemp>18.0</ns3:atemp>
          </ns3:TrackPointExtension>
        </extensions>
      </trkpt>
      <trkpt lat="42.56669537164270877838134765625" lon="20.03137671388685703277587890625">
        <ele>2057</ele>
        <time>2026-06-15T12:46:43.000Z</time>
        <extensions>
          <ns3:TrackPointExtension>
            <ns3:atemp>18.0</ns3:atemp>
          </ns3:TrackPointExtension>
        </extensions>
      </trkpt>
      <trkpt lat="42.56671817041933536529541015625" lon="20.031362213194370269775390625">
        <ele>2057.199951171875</ele>
        <time>2026-06-15T12:46:44.000Z</time>
        <extensions>
          <ns3:TrackPointExtension>
            <ns3:atemp>18.0</ns3:atemp>
          </ns3:TrackPointExtension>
        </extensions>
      </trkpt>
      <trkpt lat="42.56674247793853282928466796875" lon="20.031346119940280914306640625">
        <ele>2057.60009765625</ele>
        <time>2026-06-15T12:46:45.000Z</time>
        <extensions>
          <ns3:TrackPointExtension>
            <ns3:atemp>18.0</ns3:atemp>
          </ns3:TrackPointExtension>
        </extensions>
      </trkpt>
      <trkpt lat="42.56676762364804744720458984375" lon="20.031332708895206451416015625">
        <ele>2057.800048828125</ele>
        <time>2026-06-15T12:46:46.000Z</time>
        <extensions>
          <ns3:TrackPointExtension>
            <ns3:atemp>18.0</ns3:atemp>
          </ns3:TrackPointExtension>
        </extensions>
      </trkpt>
      <trkpt lat="42.566791512072086334228515625" lon="20.03132021985948085784912109375">
        <ele>2058</ele>
        <time>2026-06-15T12:46:47.000Z</time>
        <extensions>
          <ns3:TrackPointExtension>
            <ns3:atemp>18.0</ns3:atemp>
          </ns3:TrackPointExtension>
        </extensions>
      </trkpt>
      <trkpt lat="42.5668144784867763519287109375" lon="20.0313010253012180328369140625">
        <ele>2058.39990234375</ele>
        <time>2026-06-15T12:46:48.000Z</time>
        <extensions>
          <ns3:TrackPointExtension>
            <ns3:atemp>18.0</ns3:atemp>
          </ns3:TrackPointExtension>
        </extensions>
      </trkpt>
      <trkpt lat="42.5668366067111492156982421875" lon="20.03128484822809696197509765625">
        <ele>2058.800048828125</ele>
        <time>2026-06-15T12:46:49.000Z</time>
        <extensions>
          <ns3:TrackPointExtension>
            <ns3:atemp>18.0</ns3:atemp>
          </ns3:TrackPointExtension>
        </extensions>
      </trkpt>
      <trkpt lat="42.566854543983936309814453125" lon="20.03127277828752994537353515625">
        <ele>2059</ele>
        <time>2026-06-15T12:46:50.000Z</time>
        <extensions>
          <ns3:TrackPointExtension>
            <ns3:atemp>18.0</ns3:atemp>
          </ns3:TrackPointExtension>
        </extensions>
      </trkpt>
      <trkpt lat="42.5668728165328502655029296875" lon="20.03125869669020175933837890625">
        <ele>2059.39990234375</ele>
        <time>2026-06-15T12:46:51.000Z</time>
        <extensions>
          <ns3:TrackPointExtension>
            <ns3:atemp>18.0</ns3:atemp>
          </ns3:TrackPointExtension>
        </extensions>
      </trkpt>
      <trkpt lat="42.56688999943435192108154296875" lon="20.031244195997714996337890625">
        <ele>2059.60009765625</ele>
        <time>2026-06-15T12:46:52.000Z</time>
        <extensions>
          <ns3:TrackPointExtension>
            <ns3:atemp>18.0</ns3:atemp>
          </ns3:TrackPointExtension>
        </extensions>
      </trkpt>
      <trkpt lat="42.56690961308777332305908203125" lon="20.031230449676513671875">
        <ele>2060</ele>
        <time>2026-06-15T12:46:53.000Z</time>
        <extensions>
          <ns3:TrackPointExtension>
            <ns3:atemp>18.0</ns3:atemp>
          </ns3:TrackPointExtension>
        </extensions>
      </trkpt>
      <trkpt lat="42.56692889146506786346435546875" lon="20.03121846355497837066650390625">
        <ele>2060.60009765625</ele>
        <time>2026-06-15T12:46:54.000Z</time>
        <extensions>
          <ns3:TrackPointExtension>
            <ns3:atemp>18.0</ns3:atemp>
          </ns3:TrackPointExtension>
        </extensions>
      </trkpt>
      <trkpt lat="42.56694749929010868072509765625" lon="20.03119625151157379150390625">
        <ele>2061</ele>
        <time>2026-06-15T12:46:55.000Z</time>
        <extensions>
          <ns3:TrackPointExtension>
            <ns3:atemp>18.0</ns3:atemp>
          </ns3:TrackPointExtension>
        </extensions>
      </trkpt>
      <trkpt lat="42.566967196762561798095703125" lon="20.0311742909252643585205078125">
        <ele>2061.39990234375</ele>
        <time>2026-06-15T12:46:56.000Z</time>
        <extensions>
          <ns3:TrackPointExtension>
            <ns3:atemp>18.0</ns3:atemp>
          </ns3:TrackPointExtension>
        </extensions>
      </trkpt>
      <trkpt lat="42.56698639132082462310791015625" lon="20.03115375526249408721923828125">
        <ele>2061.800048828125</ele>
        <time>2026-06-15T12:46:57.000Z</time>
        <extensions>
          <ns3:TrackPointExtension>
            <ns3:atemp>18.0</ns3:atemp>
          </ns3:TrackPointExtension>
        </extensions>
      </trkpt>
      <trkpt lat="42.56700818426907062530517578125" lon="20.03112944774329662322998046875">
        <ele>2062</ele>
        <time>2026-06-15T12:46:58.000Z</time>
        <extensions>
          <ns3:TrackPointExtension>
            <ns3:atemp>18.0</ns3:atemp>
          </ns3:TrackPointExtension>
        </extensions>
      </trkpt>
      <trkpt lat="42.56703165359795093536376953125" lon="20.03110078163444995880126953125">
        <ele>2062.199951171875</ele>
        <time>2026-06-15T12:46:59.000Z</time>
        <extensions>
          <ns3:TrackPointExtension>
            <ns3:atemp>18.0</ns3:atemp>
          </ns3:TrackPointExtension>
        </extensions>
      </trkpt>
      <trkpt lat="42.56705462001264095306396484375" lon="20.0310762226581573486328125">
        <ele>2062.60009765625</ele>
        <time>2026-06-15T12:47:00.000Z</time>
        <extensions>
          <ns3:TrackPointExtension>
            <ns3:atemp>18.0</ns3:atemp>
          </ns3:TrackPointExtension>
        </extensions>
      </trkpt>
      <trkpt lat="42.56707808934152126312255859375" lon="20.0310494005680084228515625">
        <ele>2062.800048828125</ele>
        <time>2026-06-15T12:47:01.000Z</time>
        <extensions>
          <ns3:TrackPointExtension>
            <ns3:atemp>18.0</ns3:atemp>
          </ns3:TrackPointExtension>
        </extensions>
      </trkpt>
      <trkpt lat="42.5671021454036235809326171875" lon="20.0310266017913818359375">
        <ele>2063.199951171875</ele>
        <time>2026-06-15T12:47:02.000Z</time>
        <extensions>
          <ns3:TrackPointExtension>
            <ns3:atemp>18.0</ns3:atemp>
          </ns3:TrackPointExtension>
        </extensions>
      </trkpt>
      <trkpt lat="42.5671232677996158599853515625" lon="20.0310103408992290496826171875">
        <ele>2063.60009765625</ele>
        <time>2026-06-15T12:47:03.000Z</time>
        <extensions>
          <ns3:TrackPointExtension>
            <ns3:atemp>18.0</ns3:atemp>
          </ns3:TrackPointExtension>
        </extensions>
      </trkpt>
      <trkpt lat="42.56714011542499065399169921875" lon="20.030992068350315093994140625">
        <ele>2064</ele>
        <time>2026-06-15T12:47:04.000Z</time>
        <extensions>
          <ns3:TrackPointExtension>
            <ns3:atemp>18.0</ns3:atemp>
          </ns3:TrackPointExtension>
        </extensions>
      </trkpt>
      <trkpt lat="42.5671628303825855255126953125" lon="20.03096826374530792236328125">
        <ele>2064.199951171875</ele>
        <time>2026-06-15T12:47:05.000Z</time>
        <extensions>
          <ns3:TrackPointExtension>
            <ns3:atemp>18.0</ns3:atemp>
          </ns3:TrackPointExtension>
        </extensions>
      </trkpt>
      <trkpt lat="42.56718571297824382781982421875" lon="20.0309436209499835968017578125">
        <ele>2064.60009765625</ele>
        <time>2026-06-15T12:47:06.000Z</time>
        <extensions>
          <ns3:TrackPointExtension>
            <ns3:atemp>18.0</ns3:atemp>
          </ns3:TrackPointExtension>
        </extensions>
      </trkpt>
      <trkpt lat="42.5672077573835849761962890625" lon="20.0309157930314540863037109375">
        <ele>2064.800048828125</ele>
        <time>2026-06-15T12:47:07.000Z</time>
        <extensions>
          <ns3:TrackPointExtension>
            <ns3:atemp>18.0</ns3:atemp>
          </ns3:TrackPointExtension>
        </extensions>
      </trkpt>
      <trkpt lat="42.567230723798274993896484375" lon="20.03088704310357570648193359375">
        <ele>2065</ele>
        <time>2026-06-15T12:47:08.000Z</time>
        <extensions>
          <ns3:TrackPointExtension>
            <ns3:atemp>18.0</ns3:atemp>
          </ns3:TrackPointExtension>
        </extensions>
      </trkpt>
      <trkpt lat="42.5672511756420135498046875" lon="20.03086005337536334991455078125">
        <ele>2065.199951171875</ele>
        <time>2026-06-15T12:47:09.000Z</time>
        <extensions>
          <ns3:TrackPointExtension>
            <ns3:atemp>18.0</ns3:atemp>
          </ns3:TrackPointExtension>
        </extensions>
      </trkpt>
      <trkpt lat="42.56727556698024272918701171875" lon="20.0308363325893878936767578125">
        <ele>2065.199951171875</ele>
        <time>2026-06-15T12:47:10.000Z</time>
        <extensions>
          <ns3:TrackPointExtension>
            <ns3:atemp>18.0</ns3:atemp>
          </ns3:TrackPointExtension>
        </extensions>
      </trkpt>
      <trkpt lat="42.56729987449944019317626953125" lon="20.03081143833696842193603515625">
        <ele>2065.39990234375</ele>
        <time>2026-06-15T12:47:11.000Z</time>
        <extensions>
          <ns3:TrackPointExtension>
            <ns3:atemp>18.0</ns3:atemp>
          </ns3:TrackPointExtension>
        </extensions>
      </trkpt>
      <trkpt lat="42.5673240981996059417724609375" lon="20.03078729845583438873291015625">
        <ele>2065.39990234375</ele>
        <time>2026-06-15T12:47:12.000Z</time>
        <extensions>
          <ns3:TrackPointExtension>
            <ns3:atemp>18.0</ns3:atemp>
          </ns3:TrackPointExtension>
        </extensions>
      </trkpt>
      <trkpt lat="42.56735066883265972137451171875" lon="20.03076164983212947845458984375">
        <ele>2065.39990234375</ele>
        <time>2026-06-15T12:47:13.000Z</time>
        <extensions>
          <ns3:TrackPointExtension>
            <ns3:atemp>18.0</ns3:atemp>
          </ns3:TrackPointExtension>
        </extensions>
      </trkpt>
      <trkpt lat="42.567378580570220947265625" lon="20.03073650412261486053466796875">
        <ele>2065.60009765625</ele>
        <time>2026-06-15T12:47:14.000Z</time>
        <extensions>
          <ns3:TrackPointExtension>
            <ns3:atemp>18.0</ns3:atemp>
          </ns3:TrackPointExtension>
        </extensions>
      </trkpt>
      <trkpt lat="42.56741755641996860504150390625" lon="20.03071873448789119720458984375">
        <ele>2065.39990234375</ele>
        <time>2026-06-15T12:47:15.000Z</time>
        <extensions>
          <ns3:TrackPointExtension>
            <ns3:atemp>18.0</ns3:atemp>
          </ns3:TrackPointExtension>
        </extensions>
      </trkpt>
      <trkpt lat="42.56745594553649425506591796875" lon="20.0307089276611804962158203125">
        <ele>2065.39990234375</ele>
        <time>2026-06-15T12:47:16.000Z</time>
        <extensions>
          <ns3:TrackPointExtension>
            <ns3:atemp>18.0</ns3:atemp>
          </ns3:TrackPointExtension>
        </extensions>
      </trkpt>
      <trkpt lat="42.56748997606337070465087890625" lon="20.03070867620408535003662109375">
        <ele>2065.199951171875</ele>
        <time>2026-06-15T12:47:17.000Z</time>
        <extensions>
          <ns3:TrackPointExtension>
            <ns3:atemp>18.0</ns3:atemp>
          </ns3:TrackPointExtension>
        </extensions>
      </trkpt>
      <trkpt lat="42.56752149201929569244384765625" lon="20.0307194888591766357421875">
        <ele>2065</ele>
        <time>2026-06-15T12:47:18.000Z</time>
        <extensions>
          <ns3:TrackPointExtension>
            <ns3:atemp>18.0</ns3:atemp>
          </ns3:TrackPointExtension>
        </extensions>
      </trkpt>
      <trkpt lat="42.56754546426236629486083984375" lon="20.03073583357036113739013671875">
        <ele>2064.800048828125</ele>
        <time>2026-06-15T12:47:19.000Z</time>
        <extensions>
          <ns3:TrackPointExtension>
            <ns3:atemp>18.0</ns3:atemp>
          </ns3:TrackPointExtension>
        </extensions>
      </trkpt>
      <trkpt lat="42.56756306625902652740478515625" lon="20.03075310029089450836181640625">
        <ele>2064.800048828125</ele>
        <time>2026-06-15T12:47:20.000Z</time>
        <extensions>
          <ns3:TrackPointExtension>
            <ns3:atemp>18.0</ns3:atemp>
          </ns3:TrackPointExtension>
        </extensions>
      </trkpt>
      <trkpt lat="42.5675802491605281829833984375" lon="20.03075980581343173980712890625">
        <ele>2064.60009765625</ele>
        <time>2026-06-15T12:47:21.000Z</time>
        <extensions>
          <ns3:TrackPointExtension>
            <ns3:atemp>18.0</ns3:atemp>
          </ns3:TrackPointExtension>
        </extensions>
      </trkpt>
      <trkpt lat="42.56759525276720523834228515625" lon="20.03076978027820587158203125">
        <ele>2064.39990234375</ele>
        <time>2026-06-15T12:47:22.000Z</time>
        <extensions>
          <ns3:TrackPointExtension>
            <ns3:atemp>18.0</ns3:atemp>
          </ns3:TrackPointExtension>
        </extensions>
      </trkpt>
      <trkpt lat="42.56760455667972564697265625" lon="20.0307769887149333953857421875">
        <ele>2064.39990234375</ele>
        <time>2026-06-15T12:47:23.000Z</time>
        <extensions>
          <ns3:TrackPointExtension>
            <ns3:atemp>18.0</ns3:atemp>
          </ns3:TrackPointExtension>
        </extensions>
      </trkpt>
      <trkpt lat="42.5676040537655353546142578125" lon="20.030782185494899749755859375">
        <ele>2064.199951171875</ele>
        <time>2026-06-15T12:47:24.000Z</time>
        <extensions>
          <ns3:TrackPointExtension>
            <ns3:atemp>18.0</ns3:atemp>
          </ns3:TrackPointExtension>
        </extensions>
      </trkpt>
      <trkpt lat="42.56760380230844020843505859375" lon="20.0307773239910602569580078125">
        <ele>2064.199951171875</ele>
        <time>2026-06-15T12:47:25.000Z</time>
        <extensions>
          <ns3:TrackPointExtension>
            <ns3:atemp>18.0</ns3:atemp>
          </ns3:TrackPointExtension>
        </extensions>
      </trkpt>
      <trkpt lat="42.56760950200259685516357421875" lon="20.030771791934967041015625">
        <ele>2064.199951171875</ele>
        <time>2026-06-15T12:47:26.000Z</time>
        <extensions>
          <ns3:TrackPointExtension>
            <ns3:atemp>18.0</ns3:atemp>
          </ns3:TrackPointExtension>
        </extensions>
      </trkpt>
      <trkpt lat="42.56760782562196254730224609375" lon="20.03077271394431591033935546875">
        <ele>2064</ele>
        <time>2026-06-15T12:47:27.000Z</time>
        <extensions>
          <ns3:TrackPointExtension>
            <ns3:atemp>18.0</ns3:atemp>
          </ns3:TrackPointExtension>
        </extensions>
      </trkpt>
      <trkpt lat="42.5676079094409942626953125" lon="20.03077271394431591033935546875">
        <ele>2064</ele>
        <time>2026-06-15T12:47:28.000Z</time>
        <extensions>
          <ns3:TrackPointExtension>
            <ns3:atemp>18.0</ns3:atemp>
          </ns3:TrackPointExtension>
        </extensions>
      </trkpt>
      <trkpt lat="42.5676079094409942626953125" lon="20.03077271394431591033935546875">
        <ele>2064</ele>
        <time>2026-06-15T12:47:29.000Z</time>
        <extensions>
          <ns3:TrackPointExtension>
            <ns3:atemp>18.0</ns3:atemp>
          </ns3:TrackPointExtension>
        </extensions>
      </trkpt>
      <trkpt lat="42.5676079094409942626953125" lon="20.03077271394431591033935546875">
        <ele>2063.800048828125</ele>
        <time>2026-06-15T12:47:30.000Z</time>
        <extensions>
          <ns3:TrackPointExtension>
            <ns3:atemp>18.0</ns3:atemp>
          </ns3:TrackPointExtension>
        </extensions>
      </trkpt>
      <trkpt lat="42.5676079094409942626953125" lon="20.03077271394431591033935546875">
        <ele>2063.60009765625</ele>
        <time>2026-06-15T12:47:31.000Z</time>
        <extensions>
          <ns3:TrackPointExtension>
            <ns3:atemp>18.0</ns3:atemp>
          </ns3:TrackPointExtension>
        </extensions>
      </trkpt>
      <trkpt lat="42.5676079094409942626953125" lon="20.03077271394431591033935546875">
        <ele>2063.39990234375</ele>
        <time>2026-06-15T12:47:32.000Z</time>
        <extensions>
          <ns3:TrackPointExtension>
            <ns3:atemp>18.0</ns3:atemp>
          </ns3:TrackPointExtension>
        </extensions>
      </trkpt>
      <trkpt lat="42.5676079094409942626953125" lon="20.03077271394431591033935546875">
        <ele>2063.39990234375</ele>
        <time>2026-06-15T12:47:33.000Z</time>
        <extensions>
          <ns3:TrackPointExtension>
            <ns3:atemp>18.0</ns3:atemp>
          </ns3:TrackPointExtension>
        </extensions>
      </trkpt>
      <trkpt lat="42.5676079094409942626953125" lon="20.03077271394431591033935546875">
        <ele>2063.39990234375</ele>
        <time>2026-06-15T12:47:34.000Z</time>
        <extensions>
          <ns3:TrackPointExtension>
            <ns3:atemp>18.0</ns3:atemp>
          </ns3:TrackPointExtension>
        </extensions>
      </trkpt>
      <trkpt lat="42.5676079094409942626953125" lon="20.03077271394431591033935546875">
        <ele>2063.39990234375</ele>
        <time>2026-06-15T12:47:35.000Z</time>
        <extensions>
          <ns3:TrackPointExtension>
            <ns3:atemp>18.0</ns3:atemp>
          </ns3:TrackPointExtension>
        </extensions>
      </trkpt>
      <trkpt lat="42.5676079094409942626953125" lon="20.03077271394431591033935546875">
        <ele>2063.39990234375</ele>
        <time>2026-06-15T12:47:36.000Z</time>
        <extensions>
          <ns3:TrackPointExtension>
            <ns3:atemp>18.0</ns3:atemp>
          </ns3:TrackPointExtension>
        </extensions>
      </trkpt>
      <trkpt lat="42.5676079094409942626953125" lon="20.03077271394431591033935546875">
        <ele>2063.39990234375</ele>
        <time>2026-06-15T12:47:37.000Z</time>
        <extensions>
          <ns3:TrackPointExtension>
            <ns3:atemp>18.0</ns3:atemp>
          </ns3:TrackPointExtension>
        </extensions>
      </trkpt>
      <trkpt lat="42.5676079094409942626953125" lon="20.03077271394431591033935546875">
        <ele>2063.39990234375</ele>
        <time>2026-06-15T12:47:38.000Z</time>
        <extensions>
          <ns3:TrackPointExtension>
            <ns3:atemp>18.0</ns3:atemp>
          </ns3:TrackPointExtension>
        </extensions>
      </trkpt>
      <trkpt lat="42.5676079094409942626953125" lon="20.03077271394431591033935546875">
        <ele>2063.199951171875</ele>
        <time>2026-06-15T12:47:39.000Z</time>
        <extensions>
          <ns3:TrackPointExtension>
            <ns3:atemp>18.0</ns3:atemp>
          </ns3:TrackPointExtension>
        </extensions>
      </trkpt>
      <trkpt lat="42.5676079094409942626953125" lon="20.03077271394431591033935546875">
        <ele>2063.199951171875</ele>
        <time>2026-06-15T12:47:40.000Z</time>
        <extensions>
          <ns3:TrackPointExtension>
            <ns3:atemp>18.0</ns3:atemp>
          </ns3:TrackPointExtension>
        </extensions>
      </trkpt>
      <trkpt lat="42.5676079094409942626953125" lon="20.03077271394431591033935546875">
        <ele>2063.199951171875</ele>
        <time>2026-06-15T12:47:41.000Z</time>
        <extensions>
          <ns3:TrackPointExtension>
            <ns3:atemp>18.0</ns3:atemp>
          </ns3:TrackPointExtension>
        </extensions>
      </trkpt>
      <trkpt lat="42.5676079094409942626953125" lon="20.03077271394431591033935546875">
        <ele>2063</ele>
        <time>2026-06-15T12:47:42.000Z</time>
        <extensions>
          <ns3:TrackPointExtension>
            <ns3:atemp>18.0</ns3:atemp>
          </ns3:TrackPointExtension>
        </extensions>
      </trkpt>
      <trkpt lat="42.5676079094409942626953125" lon="20.03077271394431591033935546875">
        <ele>2063</ele>
        <time>2026-06-15T12:47:43.000Z</time>
        <extensions>
          <ns3:TrackPointExtension>
            <ns3:atemp>18.0</ns3:atemp>
          </ns3:TrackPointExtension>
        </extensions>
      </trkpt>
      <trkpt lat="42.5676079094409942626953125" lon="20.03077271394431591033935546875">
        <ele>2063</ele>
        <time>2026-06-15T12:47:44.000Z</time>
        <extensions>
          <ns3:TrackPointExtension>
            <ns3:atemp>18.0</ns3:atemp>
          </ns3:TrackPointExtension>
        </extensions>
      </trkpt>
      <trkpt lat="42.5676079094409942626953125" lon="20.03077271394431591033935546875">
        <ele>2063</ele>
        <time>2026-06-15T12:47:45.000Z</time>
        <extensions>
          <ns3:TrackPointExtension>
            <ns3:atemp>18.0</ns3:atemp>
          </ns3:TrackPointExtension>
        </extensions>
      </trkpt>
      <trkpt lat="42.5676079094409942626953125" lon="20.03077271394431591033935546875">
        <ele>2063</ele>
        <time>2026-06-15T12:47:46.000Z</time>
        <extensions>
          <ns3:TrackPointExtension>
            <ns3:atemp>18.0</ns3:atemp>
          </ns3:TrackPointExtension>
        </extensions>
      </trkpt>
      <trkpt lat="42.5676079094409942626953125" lon="20.03077271394431591033935546875">
        <ele>2063</ele>
        <time>2026-06-15T12:47:47.000Z</time>
        <extensions>
          <ns3:TrackPointExtension>
            <ns3:atemp>18.0</ns3:atemp>
          </ns3:TrackPointExtension>
        </extensions>
      </trkpt>
      <trkpt lat="42.5676079094409942626953125" lon="20.03077271394431591033935546875">
        <ele>2063</ele>
        <time>2026-06-15T12:47:48.000Z</time>
        <extensions>
          <ns3:TrackPointExtension>
            <ns3:atemp>18.0</ns3:atemp>
          </ns3:TrackPointExtension>
        </extensions>
      </trkpt>
      <trkpt lat="42.5676079094409942626953125" lon="20.03077271394431591033935546875">
        <ele>2063</ele>
        <time>2026-06-15T12:47:49.000Z</time>
        <extensions>
          <ns3:TrackPointExtension>
            <ns3:atemp>18.0</ns3:atemp>
          </ns3:TrackPointExtension>
        </extensions>
      </trkpt>
      <trkpt lat="42.5676079094409942626953125" lon="20.03077271394431591033935546875">
        <ele>2063</ele>
        <time>2026-06-15T12:47:50.000Z</time>
        <extensions>
          <ns3:TrackPointExtension>
            <ns3:atemp>18.0</ns3:atemp>
          </ns3:TrackPointExtension>
        </extensions>
      </trkpt>
      <trkpt lat="42.5676079094409942626953125" lon="20.03077271394431591033935546875">
        <ele>2063</ele>
        <time>2026-06-15T12:47:51.000Z</time>
        <extensions>
          <ns3:TrackPointExtension>
            <ns3:atemp>18.0</ns3:atemp>
          </ns3:TrackPointExtension>
        </extensions>
      </trkpt>
      <trkpt lat="42.5676079094409942626953125" lon="20.03077271394431591033935546875">
        <ele>2063</ele>
        <time>2026-06-15T12:47:52.000Z</time>
        <extensions>
          <ns3:TrackPointExtension>
            <ns3:atemp>18.0</ns3:atemp>
          </ns3:TrackPointExtension>
        </extensions>
      </trkpt>
      <trkpt lat="42.5676079094409942626953125" lon="20.03077271394431591033935546875">
        <ele>2063</ele>
        <time>2026-06-15T12:47:53.000Z</time>
        <extensions>
          <ns3:TrackPointExtension>
            <ns3:atemp>18.0</ns3:atemp>
          </ns3:TrackPointExtension>
        </extensions>
      </trkpt>
      <trkpt lat="42.5676079094409942626953125" lon="20.03077271394431591033935546875">
        <ele>2063</ele>
        <time>2026-06-15T12:47:54.000Z</time>
        <extensions>
          <ns3:TrackPointExtension>
            <ns3:atemp>18.0</ns3:atemp>
          </ns3:TrackPointExtension>
        </extensions>
      </trkpt>
      <trkpt lat="42.5676079094409942626953125" lon="20.03077271394431591033935546875">
        <ele>2063</ele>
        <time>2026-06-15T12:47:55.000Z</time>
        <extensions>
          <ns3:TrackPointExtension>
            <ns3:atemp>18.0</ns3:atemp>
          </ns3:TrackPointExtension>
        </extensions>
      </trkpt>
      <trkpt lat="42.5676079094409942626953125" lon="20.03077271394431591033935546875">
        <ele>2063</ele>
        <time>2026-06-15T12:47:56.000Z</time>
        <extensions>
          <ns3:TrackPointExtension>
            <ns3:atemp>18.0</ns3:atemp>
          </ns3:TrackPointExtension>
        </extensions>
      </trkpt>
      <trkpt lat="42.5676079094409942626953125" lon="20.03077271394431591033935546875">
        <ele>2063</ele>
        <time>2026-06-15T12:47:57.000Z</time>
        <extensions>
          <ns3:TrackPointExtension>
            <ns3:atemp>18.0</ns3:atemp>
          </ns3:TrackPointExtension>
        </extensions>
      </trkpt>
      <trkpt lat="42.5676079094409942626953125" lon="20.03077271394431591033935546875">
        <ele>2063</ele>
        <time>2026-06-15T12:47:58.000Z</time>
        <extensions>
          <ns3:TrackPointExtension>
            <ns3:atemp>18.0</ns3:atemp>
          </ns3:TrackPointExtension>
        </extensions>
      </trkpt>
      <trkpt lat="42.5676079094409942626953125" lon="20.03077271394431591033935546875">
        <ele>2063</ele>
        <time>2026-06-15T12:47:59.000Z</time>
        <extensions>
          <ns3:TrackPointExtension>
            <ns3:atemp>18.0</ns3:atemp>
          </ns3:TrackPointExtension>
        </extensions>
      </trkpt>
      <trkpt lat="42.5676079094409942626953125" lon="20.03077271394431591033935546875">
        <ele>2063</ele>
        <time>2026-06-15T12:48:00.000Z</time>
        <extensions>
          <ns3:TrackPointExtension>
            <ns3:atemp>18.0</ns3:atemp>
          </ns3:TrackPointExtension>
        </extensions>
      </trkpt>
      <trkpt lat="42.5676079094409942626953125" lon="20.03077271394431591033935546875">
        <ele>2063</ele>
        <time>2026-06-15T12:48:01.000Z</time>
        <extensions>
          <ns3:TrackPointExtension>
            <ns3:atemp>18.0</ns3:atemp>
          </ns3:TrackPointExtension>
        </extensions>
      </trkpt>
      <trkpt lat="42.5676079094409942626953125" lon="20.03077271394431591033935546875">
        <ele>2063</ele>
        <time>2026-06-15T12:48:02.000Z</time>
        <extensions>
          <ns3:TrackPointExtension>
            <ns3:atemp>18.0</ns3:atemp>
          </ns3:TrackPointExtension>
        </extensions>
      </trkpt>
      <trkpt lat="42.5676079094409942626953125" lon="20.03077271394431591033935546875">
        <ele>2063</ele>
        <time>2026-06-15T12:48:03.000Z</time>
        <extensions>
          <ns3:TrackPointExtension>
            <ns3:atemp>18.0</ns3:atemp>
          </ns3:TrackPointExtension>
        </extensions>
      </trkpt>
      <trkpt lat="42.5676079094409942626953125" lon="20.03077271394431591033935546875">
        <ele>2063</ele>
        <time>2026-06-15T12:48:04.000Z</time>
        <extensions>
          <ns3:TrackPointExtension>
            <ns3:atemp>18.0</ns3:atemp>
          </ns3:TrackPointExtension>
        </extensions>
      </trkpt>
      <trkpt lat="42.5676079094409942626953125" lon="20.03077271394431591033935546875">
        <ele>2063.199951171875</ele>
        <time>2026-06-15T12:48:05.000Z</time>
        <extensions>
          <ns3:TrackPointExtension>
            <ns3:atemp>18.0</ns3:atemp>
          </ns3:TrackPointExtension>
        </extensions>
      </trkpt>
      <trkpt lat="42.5676079094409942626953125" lon="20.03077271394431591033935546875">
        <ele>2063.199951171875</ele>
        <time>2026-06-15T12:48:06.000Z</time>
        <extensions>
          <ns3:TrackPointExtension>
            <ns3:atemp>18.0</ns3:atemp>
          </ns3:TrackPointExtension>
        </extensions>
      </trkpt>
      <trkpt lat="42.5676079094409942626953125" lon="20.03077271394431591033935546875">
        <ele>2063</ele>
        <time>2026-06-15T12:48:07.000Z</time>
        <extensions>
          <ns3:TrackPointExtension>
            <ns3:atemp>18.0</ns3:atemp>
          </ns3:TrackPointExtension>
        </extensions>
      </trkpt>
      <trkpt lat="42.5676079094409942626953125" lon="20.03077271394431591033935546875">
        <ele>2063</ele>
        <time>2026-06-15T12:48:08.000Z</time>
        <extensions>
          <ns3:TrackPointExtension>
            <ns3:atemp>18.0</ns3:atemp>
          </ns3:TrackPointExtension>
        </extensions>
      </trkpt>
      <trkpt lat="42.5676079094409942626953125" lon="20.03077271394431591033935546875">
        <ele>2063</ele>
        <time>2026-06-15T12:48:09.000Z</time>
        <extensions>
          <ns3:TrackPointExtension>
            <ns3:atemp>18.0</ns3:atemp>
          </ns3:TrackPointExtension>
        </extensions>
      </trkpt>
      <trkpt lat="42.5676079094409942626953125" lon="20.03077271394431591033935546875">
        <ele>2063</ele>
        <time>2026-06-15T12:48:10.000Z</time>
        <extensions>
          <ns3:TrackPointExtension>
            <ns3:atemp>18.0</ns3:atemp>
          </ns3:TrackPointExtension>
        </extensions>
      </trkpt>
      <trkpt lat="42.5676079094409942626953125" lon="20.03077271394431591033935546875">
        <ele>2063</ele>
        <time>2026-06-15T12:48:11.000Z</time>
        <extensions>
          <ns3:TrackPointExtension>
            <ns3:atemp>18.0</ns3:atemp>
          </ns3:TrackPointExtension>
        </extensions>
      </trkpt>
      <trkpt lat="42.5676079094409942626953125" lon="20.03077271394431591033935546875">
        <ele>2063</ele>
        <time>2026-06-15T12:48:12.000Z</time>
        <extensions>
          <ns3:TrackPointExtension>
            <ns3:atemp>18.0</ns3:atemp>
          </ns3:TrackPointExtension>
        </extensions>
      </trkpt>
      <trkpt lat="42.5676079094409942626953125" lon="20.03077271394431591033935546875">
        <ele>2063</ele>
        <time>2026-06-15T12:48:13.000Z</time>
        <extensions>
          <ns3:TrackPointExtension>
            <ns3:atemp>18.0</ns3:atemp>
          </ns3:TrackPointExtension>
        </extensions>
      </trkpt>
      <trkpt lat="42.5676079094409942626953125" lon="20.03077271394431591033935546875">
        <ele>2063</ele>
        <time>2026-06-15T12:48:14.000Z</time>
        <extensions>
          <ns3:TrackPointExtension>
            <ns3:atemp>18.0</ns3:atemp>
          </ns3:TrackPointExtension>
        </extensions>
      </trkpt>
      <trkpt lat="42.5676079094409942626953125" lon="20.03077271394431591033935546875">
        <ele>2063</ele>
        <time>2026-06-15T12:48:15.000Z</time>
        <extensions>
          <ns3:TrackPointExtension>
            <ns3:atemp>18.0</ns3:atemp>
          </ns3:TrackPointExtension>
        </extensions>
      </trkpt>
      <trkpt lat="42.5676079094409942626953125" lon="20.03077271394431591033935546875">
        <ele>2063</ele>
        <time>2026-06-15T12:48:16.000Z</time>
        <extensions>
          <ns3:TrackPointExtension>
            <ns3:atemp>18.0</ns3:atemp>
          </ns3:TrackPointExtension>
        </extensions>
      </trkpt>
      <trkpt lat="42.5676079094409942626953125" lon="20.03077271394431591033935546875">
        <ele>2063</ele>
        <time>2026-06-15T12:48:17.000Z</time>
        <extensions>
          <ns3:TrackPointExtension>
            <ns3:atemp>18.0</ns3:atemp>
          </ns3:TrackPointExtension>
        </extensions>
      </trkpt>
      <trkpt lat="42.5676079094409942626953125" lon="20.03077271394431591033935546875">
        <ele>2063</ele>
        <time>2026-06-15T12:48:18.000Z</time>
        <extensions>
          <ns3:TrackPointExtension>
            <ns3:atemp>18.0</ns3:atemp>
          </ns3:TrackPointExtension>
        </extensions>
      </trkpt>
      <trkpt lat="42.5676079094409942626953125" lon="20.03077271394431591033935546875">
        <ele>2063</ele>
        <time>2026-06-15T12:48:19.000Z</time>
        <extensions>
          <ns3:TrackPointExtension>
            <ns3:atemp>18.0</ns3:atemp>
          </ns3:TrackPointExtension>
        </extensions>
      </trkpt>
      <trkpt lat="42.5676079094409942626953125" lon="20.03077271394431591033935546875">
        <ele>2063</ele>
        <time>2026-06-15T12:48:20.000Z</time>
        <extensions>
          <ns3:TrackPointExtension>
            <ns3:atemp>18.0</ns3:atemp>
          </ns3:TrackPointExtension>
        </extensions>
      </trkpt>
      <trkpt lat="42.5676079094409942626953125" lon="20.03077271394431591033935546875">
        <ele>2063</ele>
        <time>2026-06-15T12:48:21.000Z</time>
        <extensions>
          <ns3:TrackPointExtension>
            <ns3:atemp>18.0</ns3:atemp>
          </ns3:TrackPointExtension>
        </extensions>
      </trkpt>
      <trkpt lat="42.5676079094409942626953125" lon="20.03077271394431591033935546875">
        <ele>2063</ele>
        <time>2026-06-15T12:48:22.000Z</time>
        <extensions>
          <ns3:TrackPointExtension>
            <ns3:atemp>18.0</ns3:atemp>
          </ns3:TrackPointExtension>
        </extensions>
      </trkpt>
      <trkpt lat="42.5676079094409942626953125" lon="20.03077271394431591033935546875">
        <ele>2063</ele>
        <time>2026-06-15T12:48:23.000Z</time>
        <extensions>
          <ns3:TrackPointExtension>
            <ns3:atemp>18.0</ns3:atemp>
          </ns3:TrackPointExtension>
        </extensions>
      </trkpt>
      <trkpt lat="42.5676079094409942626953125" lon="20.03077271394431591033935546875">
        <ele>2063</ele>
        <time>2026-06-15T12:48:24.000Z</time>
        <extensions>
          <ns3:TrackPointExtension>
            <ns3:atemp>19.0</ns3:atemp>
          </ns3:TrackPointExtension>
        </extensions>
      </trkpt>
      <trkpt lat="42.5676079094409942626953125" lon="20.03077271394431591033935546875">
        <ele>2063</ele>
        <time>2026-06-15T12:48:25.000Z</time>
        <extensions>
          <ns3:TrackPointExtension>
            <ns3:atemp>19.0</ns3:atemp>
          </ns3:TrackPointExtension>
        </extensions>
      </trkpt>
      <trkpt lat="42.5676079094409942626953125" lon="20.03077271394431591033935546875">
        <ele>2063</ele>
        <time>2026-06-15T12:48:26.000Z</time>
        <extensions>
          <ns3:TrackPointExtension>
            <ns3:atemp>19.0</ns3:atemp>
          </ns3:TrackPointExtension>
        </extensions>
      </trkpt>
      <trkpt lat="42.5676079094409942626953125" lon="20.03077271394431591033935546875">
        <ele>2062.800048828125</ele>
        <time>2026-06-15T12:48:27.000Z</time>
        <extensions>
          <ns3:TrackPointExtension>
            <ns3:atemp>19.0</ns3:atemp>
          </ns3:TrackPointExtension>
        </extensions>
      </trkpt>
      <trkpt lat="42.5676079094409942626953125" lon="20.03077271394431591033935546875">
        <ele>2062.800048828125</ele>
        <time>2026-06-15T12:48:28.000Z</time>
        <extensions>
          <ns3:TrackPointExtension>
            <ns3:atemp>19.0</ns3:atemp>
          </ns3:TrackPointExtension>
        </extensions>
      </trkpt>
      <trkpt lat="42.5676079094409942626953125" lon="20.03077271394431591033935546875">
        <ele>2062.800048828125</ele>
        <time>2026-06-15T12:48:29.000Z</time>
        <extensions>
          <ns3:TrackPointExtension>
            <ns3:atemp>19.0</ns3:atemp>
          </ns3:TrackPointExtension>
        </extensions>
      </trkpt>
      <trkpt lat="42.5676079094409942626953125" lon="20.03077271394431591033935546875">
        <ele>2062.800048828125</ele>
        <time>2026-06-15T12:48:30.000Z</time>
        <extensions>
          <ns3:TrackPointExtension>
            <ns3:atemp>19.0</ns3:atemp>
          </ns3:TrackPointExtension>
        </extensions>
      </trkpt>
      <trkpt lat="42.5676079094409942626953125" lon="20.03077271394431591033935546875">
        <ele>2062.800048828125</ele>
        <time>2026-06-15T12:48:31.000Z</time>
        <extensions>
          <ns3:TrackPointExtension>
            <ns3:atemp>19.0</ns3:atemp>
          </ns3:TrackPointExtension>
        </extensions>
      </trkpt>
      <trkpt lat="42.5676079094409942626953125" lon="20.03077271394431591033935546875">
        <ele>2062.800048828125</ele>
        <time>2026-06-15T12:48:32.000Z</time>
        <extensions>
          <ns3:TrackPointExtension>
            <ns3:atemp>19.0</ns3:atemp>
          </ns3:TrackPointExtension>
        </extensions>
      </trkpt>
      <trkpt lat="42.5676079094409942626953125" lon="20.03077271394431591033935546875">
        <ele>2062.800048828125</ele>
        <time>2026-06-15T12:48:33.000Z</time>
        <extensions>
          <ns3:TrackPointExtension>
            <ns3:atemp>19.0</ns3:atemp>
          </ns3:TrackPointExtension>
        </extensions>
      </trkpt>
      <trkpt lat="42.5676079094409942626953125" lon="20.03077271394431591033935546875">
        <ele>2062.800048828125</ele>
        <time>2026-06-15T12:48:34.000Z</time>
        <extensions>
          <ns3:TrackPointExtension>
            <ns3:atemp>19.0</ns3:atemp>
          </ns3:TrackPointExtension>
        </extensions>
      </trkpt>
      <trkpt lat="42.5676079094409942626953125" lon="20.03077271394431591033935546875">
        <ele>2062.800048828125</ele>
        <time>2026-06-15T12:48:35.000Z</time>
        <extensions>
          <ns3:TrackPointExtension>
            <ns3:atemp>19.0</ns3:atemp>
          </ns3:TrackPointExtension>
        </extensions>
      </trkpt>
      <trkpt lat="42.5676079094409942626953125" lon="20.03077271394431591033935546875">
        <ele>2062.800048828125</ele>
        <time>2026-06-15T12:48:36.000Z</time>
        <extensions>
          <ns3:TrackPointExtension>
            <ns3:atemp>19.0</ns3:atemp>
          </ns3:TrackPointExtension>
        </extensions>
      </trkpt>
      <trkpt lat="42.5676079094409942626953125" lon="20.03077271394431591033935546875">
        <ele>2062.800048828125</ele>
        <time>2026-06-15T12:48:37.000Z</time>
        <extensions>
          <ns3:TrackPointExtension>
            <ns3:atemp>19.0</ns3:atemp>
          </ns3:TrackPointExtension>
        </extensions>
      </trkpt>
      <trkpt lat="42.5676079094409942626953125" lon="20.03077271394431591033935546875">
        <ele>2062.800048828125</ele>
        <time>2026-06-15T12:48:38.000Z</time>
        <extensions>
          <ns3:TrackPointExtension>
            <ns3:atemp>19.0</ns3:atemp>
          </ns3:TrackPointExtension>
        </extensions>
      </trkpt>
      <trkpt lat="42.5676079094409942626953125" lon="20.03077271394431591033935546875">
        <ele>2062.800048828125</ele>
        <time>2026-06-15T12:48:39.000Z</time>
        <extensions>
          <ns3:TrackPointExtension>
            <ns3:atemp>19.0</ns3:atemp>
          </ns3:TrackPointExtension>
        </extensions>
      </trkpt>
      <trkpt lat="42.5676079094409942626953125" lon="20.03077271394431591033935546875">
        <ele>2062.800048828125</ele>
        <time>2026-06-15T12:48:40.000Z</time>
        <extensions>
          <ns3:TrackPointExtension>
            <ns3:atemp>19.0</ns3:atemp>
          </ns3:TrackPointExtension>
        </extensions>
      </trkpt>
      <trkpt lat="42.5676079094409942626953125" lon="20.03077271394431591033935546875">
        <ele>2062.800048828125</ele>
        <time>2026-06-15T12:48:41.000Z</time>
        <extensions>
          <ns3:TrackPointExtension>
            <ns3:atemp>19.0</ns3:atemp>
          </ns3:TrackPointExtension>
        </extensions>
      </trkpt>
      <trkpt lat="42.5676079094409942626953125" lon="20.03077271394431591033935546875">
        <ele>2062.800048828125</ele>
        <time>2026-06-15T12:48:42.000Z</time>
        <extensions>
          <ns3:TrackPointExtension>
            <ns3:atemp>19.0</ns3:atemp>
          </ns3:TrackPointExtension>
        </extensions>
      </trkpt>
      <trkpt lat="42.5676079094409942626953125" lon="20.03077271394431591033935546875">
        <ele>2062.800048828125</ele>
        <time>2026-06-15T12:48:43.000Z</time>
        <extensions>
          <ns3:TrackPointExtension>
            <ns3:atemp>19.0</ns3:atemp>
          </ns3:TrackPointExtension>
        </extensions>
      </trkpt>
      <trkpt lat="42.5676079094409942626953125" lon="20.03077271394431591033935546875">
        <ele>2062.800048828125</ele>
        <time>2026-06-15T12:48:44.000Z</time>
        <extensions>
          <ns3:TrackPointExtension>
            <ns3:atemp>19.0</ns3:atemp>
          </ns3:TrackPointExtension>
        </extensions>
      </trkpt>
      <trkpt lat="42.5676079094409942626953125" lon="20.03077271394431591033935546875">
        <ele>2062.800048828125</ele>
        <time>2026-06-15T12:48:45.000Z</time>
        <extensions>
          <ns3:TrackPointExtension>
            <ns3:atemp>19.0</ns3:atemp>
          </ns3:TrackPointExtension>
        </extensions>
      </trkpt>
      <trkpt lat="42.5676079094409942626953125" lon="20.03077271394431591033935546875">
        <ele>2062.800048828125</ele>
        <time>2026-06-15T12:48:46.000Z</time>
        <extensions>
          <ns3:TrackPointExtension>
            <ns3:atemp>19.0</ns3:atemp>
          </ns3:TrackPointExtension>
        </extensions>
      </trkpt>
      <trkpt lat="42.5676079094409942626953125" lon="20.03077271394431591033935546875">
        <ele>2062.800048828125</ele>
        <time>2026-06-15T12:48:47.000Z</time>
        <extensions>
          <ns3:TrackPointExtension>
            <ns3:atemp>19.0</ns3:atemp>
          </ns3:TrackPointExtension>
        </extensions>
      </trkpt>
      <trkpt lat="42.5676079094409942626953125" lon="20.03077271394431591033935546875">
        <ele>2062.800048828125</ele>
        <time>2026-06-15T12:48:48.000Z</time>
        <extensions>
          <ns3:TrackPointExtension>
            <ns3:atemp>19.0</ns3:atemp>
          </ns3:TrackPointExtension>
        </extensions>
      </trkpt>
      <trkpt lat="42.5676079094409942626953125" lon="20.03077271394431591033935546875">
        <ele>2062.800048828125</ele>
        <time>2026-06-15T12:48:49.000Z</time>
        <extensions>
          <ns3:TrackPointExtension>
            <ns3:atemp>19.0</ns3:atemp>
          </ns3:TrackPointExtension>
        </extensions>
      </trkpt>
      <trkpt lat="42.5676079094409942626953125" lon="20.03077271394431591033935546875">
        <ele>2062.800048828125</ele>
        <time>2026-06-15T12:48:50.000Z</time>
        <extensions>
          <ns3:TrackPointExtension>
            <ns3:atemp>19.0</ns3:atemp>
          </ns3:TrackPointExtension>
        </extensions>
      </trkpt>
      <trkpt lat="42.5676079094409942626953125" lon="20.03077271394431591033935546875">
        <ele>2062.60009765625</ele>
        <time>2026-06-15T12:48:51.000Z</time>
        <extensions>
          <ns3:TrackPointExtension>
            <ns3:atemp>19.0</ns3:atemp>
          </ns3:TrackPointExtension>
        </extensions>
      </trkpt>
      <trkpt lat="42.5676079094409942626953125" lon="20.03077271394431591033935546875">
        <ele>2062.800048828125</ele>
        <time>2026-06-15T12:48:52.000Z</time>
        <extensions>
          <ns3:TrackPointExtension>
            <ns3:atemp>19.0</ns3:atemp>
          </ns3:TrackPointExtension>
        </extensions>
      </trkpt>
      <trkpt lat="42.5676079094409942626953125" lon="20.03077271394431591033935546875">
        <ele>2062.800048828125</ele>
        <time>2026-06-15T12:48:53.000Z</time>
        <extensions>
          <ns3:TrackPointExtension>
            <ns3:atemp>19.0</ns3:atemp>
          </ns3:TrackPointExtension>
        </extensions>
      </trkpt>
      <trkpt lat="42.5676079094409942626953125" lon="20.03077271394431591033935546875">
        <ele>2062.800048828125</ele>
        <time>2026-06-15T12:48:54.000Z</time>
        <extensions>
          <ns3:TrackPointExtension>
            <ns3:atemp>19.0</ns3:atemp>
          </ns3:TrackPointExtension>
        </extensions>
      </trkpt>
      <trkpt lat="42.5676079094409942626953125" lon="20.03077271394431591033935546875">
        <ele>2062.800048828125</ele>
        <time>2026-06-15T12:48:55.000Z</time>
        <extensions>
          <ns3:TrackPointExtension>
            <ns3:atemp>19.0</ns3:atemp>
          </ns3:TrackPointExtension>
        </extensions>
      </trkpt>
      <trkpt lat="42.5676079094409942626953125" lon="20.03077271394431591033935546875">
        <ele>2062.800048828125</ele>
        <time>2026-06-15T12:48:56.000Z</time>
        <extensions>
          <ns3:TrackPointExtension>
            <ns3:atemp>19.0</ns3:atemp>
          </ns3:TrackPointExtension>
        </extensions>
      </trkpt>
      <trkpt lat="42.5676079094409942626953125" lon="20.03077271394431591033935546875">
        <ele>2062.800048828125</ele>
        <time>2026-06-15T12:48:57.000Z</time>
        <extensions>
          <ns3:TrackPointExtension>
            <ns3:atemp>19.0</ns3:atemp>
          </ns3:TrackPointExtension>
        </extensions>
      </trkpt>
      <trkpt lat="42.5676079094409942626953125" lon="20.03077271394431591033935546875">
        <ele>2062.800048828125</ele>
        <time>2026-06-15T12:48:58.000Z</time>
        <extensions>
          <ns3:TrackPointExtension>
            <ns3:atemp>19.0</ns3:atemp>
          </ns3:TrackPointExtension>
        </extensions>
      </trkpt>
      <trkpt lat="42.5676079094409942626953125" lon="20.03077271394431591033935546875">
        <ele>2062.800048828125</ele>
        <time>2026-06-15T12:48:59.000Z</time>
        <extensions>
          <ns3:TrackPointExtension>
            <ns3:atemp>19.0</ns3:atemp>
          </ns3:TrackPointExtension>
        </extensions>
      </trkpt>
      <trkpt lat="42.5676079094409942626953125" lon="20.03077271394431591033935546875">
        <ele>2062.800048828125</ele>
        <time>2026-06-15T12:49:00.000Z</time>
        <extensions>
          <ns3:TrackPointExtension>
            <ns3:atemp>19.0</ns3:atemp>
          </ns3:TrackPointExtension>
        </extensions>
      </trkpt>
      <trkpt lat="42.5676079094409942626953125" lon="20.03077271394431591033935546875">
        <ele>2062.800048828125</ele>
        <time>2026-06-15T12:49:01.000Z</time>
        <extensions>
          <ns3:TrackPointExtension>
            <ns3:atemp>19.0</ns3:atemp>
          </ns3:TrackPointExtension>
        </extensions>
      </trkpt>
      <trkpt lat="42.5676079094409942626953125" lon="20.03077271394431591033935546875">
        <ele>2062.800048828125</ele>
        <time>2026-06-15T12:49:02.000Z</time>
        <extensions>
          <ns3:TrackPointExtension>
            <ns3:atemp>19.0</ns3:atemp>
          </ns3:TrackPointExtension>
        </extensions>
      </trkpt>
      <trkpt lat="42.5676079094409942626953125" lon="20.03077271394431591033935546875">
        <ele>2062.800048828125</ele>
        <time>2026-06-15T12:49:03.000Z</time>
        <extensions>
          <ns3:TrackPointExtension>
            <ns3:atemp>19.0</ns3:atemp>
          </ns3:TrackPointExtension>
        </extensions>
      </trkpt>
      <trkpt lat="42.5676079094409942626953125" lon="20.03077271394431591033935546875">
        <ele>2062.800048828125</ele>
        <time>2026-06-15T12:49:04.000Z</time>
        <extensions>
          <ns3:TrackPointExtension>
            <ns3:atemp>19.0</ns3:atemp>
          </ns3:TrackPointExtension>
        </extensions>
      </trkpt>
      <trkpt lat="42.5676079094409942626953125" lon="20.03077271394431591033935546875">
        <ele>2062.800048828125</ele>
        <time>2026-06-15T12:49:05.000Z</time>
        <extensions>
          <ns3:TrackPointExtension>
            <ns3:atemp>19.0</ns3:atemp>
          </ns3:TrackPointExtension>
        </extensions>
      </trkpt>
      <trkpt lat="42.5676079094409942626953125" lon="20.03077271394431591033935546875">
        <ele>2062.800048828125</ele>
        <time>2026-06-15T12:49:06.000Z</time>
        <extensions>
          <ns3:TrackPointExtension>
            <ns3:atemp>19.0</ns3:atemp>
          </ns3:TrackPointExtension>
        </extensions>
      </trkpt>
      <trkpt lat="42.5676079094409942626953125" lon="20.03077271394431591033935546875">
        <ele>2062.800048828125</ele>
        <time>2026-06-15T12:49:07.000Z</time>
        <extensions>
          <ns3:TrackPointExtension>
            <ns3:atemp>19.0</ns3:atemp>
          </ns3:TrackPointExtension>
        </extensions>
      </trkpt>
      <trkpt lat="42.5676079094409942626953125" lon="20.03077271394431591033935546875">
        <ele>2062.800048828125</ele>
        <time>2026-06-15T12:49:08.000Z</time>
        <extensions>
          <ns3:TrackPointExtension>
            <ns3:atemp>19.0</ns3:atemp>
          </ns3:TrackPointExtension>
        </extensions>
      </trkpt>
      <trkpt lat="42.5676079094409942626953125" lon="20.03077271394431591033935546875">
        <ele>2062.800048828125</ele>
        <time>2026-06-15T12:49:09.000Z</time>
        <extensions>
          <ns3:TrackPointExtension>
            <ns3:atemp>19.0</ns3:atemp>
          </ns3:TrackPointExtension>
        </extensions>
      </trkpt>
      <trkpt lat="42.5676079094409942626953125" lon="20.03077271394431591033935546875">
        <ele>2062.800048828125</ele>
        <time>2026-06-15T12:49:10.000Z</time>
        <extensions>
          <ns3:TrackPointExtension>
            <ns3:atemp>19.0</ns3:atemp>
          </ns3:TrackPointExtension>
        </extensions>
      </trkpt>
      <trkpt lat="42.5676079094409942626953125" lon="20.03077271394431591033935546875">
        <ele>2062.800048828125</ele>
        <time>2026-06-15T12:49:11.000Z</time>
        <extensions>
          <ns3:TrackPointExtension>
            <ns3:atemp>19.0</ns3:atemp>
          </ns3:TrackPointExtension>
        </extensions>
      </trkpt>
      <trkpt lat="42.5676079094409942626953125" lon="20.03077271394431591033935546875">
        <ele>2062.60009765625</ele>
        <time>2026-06-15T12:49:12.000Z</time>
        <extensions>
          <ns3:TrackPointExtension>
            <ns3:atemp>19.0</ns3:atemp>
          </ns3:TrackPointExtension>
        </extensions>
      </trkpt>
      <trkpt lat="42.5676079094409942626953125" lon="20.03077271394431591033935546875">
        <ele>2062.60009765625</ele>
        <time>2026-06-15T12:49:13.000Z</time>
        <extensions>
          <ns3:TrackPointExtension>
            <ns3:atemp>19.0</ns3:atemp>
          </ns3:TrackPointExtension>
        </extensions>
      </trkpt>
      <trkpt lat="42.5676079094409942626953125" lon="20.03077271394431591033935546875">
        <ele>2062.60009765625</ele>
        <time>2026-06-15T12:49:14.000Z</time>
        <extensions>
          <ns3:TrackPointExtension>
            <ns3:atemp>19.0</ns3:atemp>
          </ns3:TrackPointExtension>
        </extensions>
      </trkpt>
      <trkpt lat="42.5676079094409942626953125" lon="20.03077271394431591033935546875">
        <ele>2062.60009765625</ele>
        <time>2026-06-15T12:49:15.000Z</time>
        <extensions>
          <ns3:TrackPointExtension>
            <ns3:atemp>19.0</ns3:atemp>
          </ns3:TrackPointExtension>
        </extensions>
      </trkpt>
      <trkpt lat="42.5676079094409942626953125" lon="20.03077271394431591033935546875">
        <ele>2062.60009765625</ele>
        <time>2026-06-15T12:49:16.000Z</time>
        <extensions>
          <ns3:TrackPointExtension>
            <ns3:atemp>19.0</ns3:atemp>
          </ns3:TrackPointExtension>
        </extensions>
      </trkpt>
      <trkpt lat="42.5676079094409942626953125" lon="20.03077271394431591033935546875">
        <ele>2062.60009765625</ele>
        <time>2026-06-15T12:49:17.000Z</time>
        <extensions>
          <ns3:TrackPointExtension>
            <ns3:atemp>19.0</ns3:atemp>
          </ns3:TrackPointExtension>
        </extensions>
      </trkpt>
      <trkpt lat="42.5676079094409942626953125" lon="20.03077271394431591033935546875">
        <ele>2062.39990234375</ele>
        <time>2026-06-15T12:49:18.000Z</time>
        <extensions>
          <ns3:TrackPointExtension>
            <ns3:atemp>19.0</ns3:atemp>
          </ns3:TrackPointExtension>
        </extensions>
      </trkpt>
      <trkpt lat="42.5676079094409942626953125" lon="20.03077271394431591033935546875">
        <ele>2062.39990234375</ele>
        <time>2026-06-15T12:49:19.000Z</time>
        <extensions>
          <ns3:TrackPointExtension>
            <ns3:atemp>19.0</ns3:atemp>
          </ns3:TrackPointExtension>
        </extensions>
      </trkpt>
      <trkpt lat="42.5676079094409942626953125" lon="20.03077271394431591033935546875">
        <ele>2062.39990234375</ele>
        <time>2026-06-15T12:49:20.000Z</time>
        <extensions>
          <ns3:TrackPointExtension>
            <ns3:atemp>19.0</ns3:atemp>
          </ns3:TrackPointExtension>
        </extensions>
      </trkpt>
      <trkpt lat="42.5676079094409942626953125" lon="20.03077271394431591033935546875">
        <ele>2062.39990234375</ele>
        <time>2026-06-15T12:49:21.000Z</time>
        <extensions>
          <ns3:TrackPointExtension>
            <ns3:atemp>19.0</ns3:atemp>
          </ns3:TrackPointExtension>
        </extensions>
      </trkpt>
      <trkpt lat="42.5676079094409942626953125" lon="20.03077271394431591033935546875">
        <ele>2062.39990234375</ele>
        <time>2026-06-15T12:49:22.000Z</time>
        <extensions>
          <ns3:TrackPointExtension>
            <ns3:atemp>19.0</ns3:atemp>
          </ns3:TrackPointExtension>
        </extensions>
      </trkpt>
      <trkpt lat="42.5676079094409942626953125" lon="20.03077271394431591033935546875">
        <ele>2062.39990234375</ele>
        <time>2026-06-15T12:49:23.000Z</time>
        <extensions>
          <ns3:TrackPointExtension>
            <ns3:atemp>19.0</ns3:atemp>
          </ns3:TrackPointExtension>
        </extensions>
      </trkpt>
      <trkpt lat="42.5676079094409942626953125" lon="20.03077271394431591033935546875">
        <ele>2062.39990234375</ele>
        <time>2026-06-15T12:49:24.000Z</time>
        <extensions>
          <ns3:TrackPointExtension>
            <ns3:atemp>19.0</ns3:atemp>
          </ns3:TrackPointExtension>
        </extensions>
      </trkpt>
      <trkpt lat="42.5676079094409942626953125" lon="20.03077271394431591033935546875">
        <ele>2062.39990234375</ele>
        <time>2026-06-15T12:49:25.000Z</time>
        <extensions>
          <ns3:TrackPointExtension>
            <ns3:atemp>19.0</ns3:atemp>
          </ns3:TrackPointExtension>
        </extensions>
      </trkpt>
      <trkpt lat="42.5676079094409942626953125" lon="20.03077271394431591033935546875">
        <ele>2062.39990234375</ele>
        <time>2026-06-15T12:49:26.000Z</time>
        <extensions>
          <ns3:TrackPointExtension>
            <ns3:atemp>19.0</ns3:atemp>
          </ns3:TrackPointExtension>
        </extensions>
      </trkpt>
      <trkpt lat="42.5676079094409942626953125" lon="20.03077271394431591033935546875">
        <ele>2062.199951171875</ele>
        <time>2026-06-15T12:49:27.000Z</time>
        <extensions>
          <ns3:TrackPointExtension>
            <ns3:atemp>19.0</ns3:atemp>
          </ns3:TrackPointExtension>
        </extensions>
      </trkpt>
      <trkpt lat="42.5676079094409942626953125" lon="20.03077271394431591033935546875">
        <ele>2062.199951171875</ele>
        <time>2026-06-15T12:49:28.000Z</time>
        <extensions>
          <ns3:TrackPointExtension>
            <ns3:atemp>19.0</ns3:atemp>
          </ns3:TrackPointExtension>
        </extensions>
      </trkpt>
      <trkpt lat="42.5676079094409942626953125" lon="20.03077271394431591033935546875">
        <ele>2062.199951171875</ele>
        <time>2026-06-15T12:49:29.000Z</time>
        <extensions>
          <ns3:TrackPointExtension>
            <ns3:atemp>19.0</ns3:atemp>
          </ns3:TrackPointExtension>
        </extensions>
      </trkpt>
      <trkpt lat="42.5676079094409942626953125" lon="20.03077271394431591033935546875">
        <ele>2062.199951171875</ele>
        <time>2026-06-15T12:49:30.000Z</time>
        <extensions>
          <ns3:TrackPointExtension>
            <ns3:atemp>19.0</ns3:atemp>
          </ns3:TrackPointExtension>
        </extensions>
      </trkpt>
      <trkpt lat="42.5676079094409942626953125" lon="20.03077271394431591033935546875">
        <ele>2062.199951171875</ele>
        <time>2026-06-15T12:49:31.000Z</time>
        <extensions>
          <ns3:TrackPointExtension>
            <ns3:atemp>19.0</ns3:atemp>
          </ns3:TrackPointExtension>
        </extensions>
      </trkpt>
      <trkpt lat="42.5676079094409942626953125" lon="20.03077271394431591033935546875">
        <ele>2062.199951171875</ele>
        <time>2026-06-15T12:49:32.000Z</time>
        <extensions>
          <ns3:TrackPointExtension>
            <ns3:atemp>19.0</ns3:atemp>
          </ns3:TrackPointExtension>
        </extensions>
      </trkpt>
      <trkpt lat="42.5676079094409942626953125" lon="20.03077271394431591033935546875">
        <ele>2062.199951171875</ele>
        <time>2026-06-15T12:49:33.000Z</time>
        <extensions>
          <ns3:TrackPointExtension>
            <ns3:atemp>19.0</ns3:atemp>
          </ns3:TrackPointExtension>
        </extensions>
      </trkpt>
      <trkpt lat="42.5676079094409942626953125" lon="20.03077271394431591033935546875">
        <ele>2062.199951171875</ele>
        <time>2026-06-15T12:49:34.000Z</time>
        <extensions>
          <ns3:TrackPointExtension>
            <ns3:atemp>19.0</ns3:atemp>
          </ns3:TrackPointExtension>
        </extensions>
      </trkpt>
      <trkpt lat="42.5676079094409942626953125" lon="20.03077271394431591033935546875">
        <ele>2062.199951171875</ele>
        <time>2026-06-15T12:49:35.000Z</time>
        <extensions>
          <ns3:TrackPointExtension>
            <ns3:atemp>19.0</ns3:atemp>
          </ns3:TrackPointExtension>
        </extensions>
      </trkpt>
      <trkpt lat="42.5676079094409942626953125" lon="20.03077271394431591033935546875">
        <ele>2062.199951171875</ele>
        <time>2026-06-15T12:49:36.000Z</time>
        <extensions>
          <ns3:TrackPointExtension>
            <ns3:atemp>19.0</ns3:atemp>
          </ns3:TrackPointExtension>
        </extensions>
      </trkpt>
      <trkpt lat="42.5676079094409942626953125" lon="20.03077271394431591033935546875">
        <ele>2062.199951171875</ele>
        <time>2026-06-15T12:49:37.000Z</time>
        <extensions>
          <ns3:TrackPointExtension>
            <ns3:atemp>19.0</ns3:atemp>
          </ns3:TrackPointExtension>
        </extensions>
      </trkpt>
      <trkpt lat="42.5676079094409942626953125" lon="20.03077271394431591033935546875">
        <ele>2062.199951171875</ele>
        <time>2026-06-15T12:49:38.000Z</time>
        <extensions>
          <ns3:TrackPointExtension>
            <ns3:atemp>19.0</ns3:atemp>
          </ns3:TrackPointExtension>
        </extensions>
      </trkpt>
      <trkpt lat="42.5676079094409942626953125" lon="20.03077271394431591033935546875">
        <ele>2062.39990234375</ele>
        <time>2026-06-15T12:49:39.000Z</time>
        <extensions>
          <ns3:TrackPointExtension>
            <ns3:atemp>19.0</ns3:atemp>
          </ns3:TrackPointExtension>
        </extensions>
      </trkpt>
      <trkpt lat="42.5676079094409942626953125" lon="20.03077271394431591033935546875">
        <ele>2062.199951171875</ele>
        <time>2026-06-15T12:49:40.000Z</time>
        <extensions>
          <ns3:TrackPointExtension>
            <ns3:atemp>19.0</ns3:atemp>
          </ns3:TrackPointExtension>
        </extensions>
      </trkpt>
      <trkpt lat="42.5676079094409942626953125" lon="20.03077271394431591033935546875">
        <ele>2062.199951171875</ele>
        <time>2026-06-15T12:49:41.000Z</time>
        <extensions>
          <ns3:TrackPointExtension>
            <ns3:atemp>19.0</ns3:atemp>
          </ns3:TrackPointExtension>
        </extensions>
      </trkpt>
      <trkpt lat="42.5676079094409942626953125" lon="20.03077271394431591033935546875">
        <ele>2062.199951171875</ele>
        <time>2026-06-15T12:49:42.000Z</time>
        <extensions>
          <ns3:TrackPointExtension>
            <ns3:atemp>19.0</ns3:atemp>
          </ns3:TrackPointExtension>
        </extensions>
      </trkpt>
      <trkpt lat="42.5676079094409942626953125" lon="20.03077271394431591033935546875">
        <ele>2062.199951171875</ele>
        <time>2026-06-15T12:49:43.000Z</time>
        <extensions>
          <ns3:TrackPointExtension>
            <ns3:atemp>19.0</ns3:atemp>
          </ns3:TrackPointExtension>
        </extensions>
      </trkpt>
      <trkpt lat="42.5676079094409942626953125" lon="20.03077271394431591033935546875">
        <ele>2062.199951171875</ele>
        <time>2026-06-15T12:49:44.000Z</time>
        <extensions>
          <ns3:TrackPointExtension>
            <ns3:atemp>19.0</ns3:atemp>
          </ns3:TrackPointExtension>
        </extensions>
      </trkpt>
      <trkpt lat="42.5676079094409942626953125" lon="20.03077271394431591033935546875">
        <ele>2062.199951171875</ele>
        <time>2026-06-15T12:49:45.000Z</time>
        <extensions>
          <ns3:TrackPointExtension>
            <ns3:atemp>19.0</ns3:atemp>
          </ns3:TrackPointExtension>
        </extensions>
      </trkpt>
      <trkpt lat="42.5676079094409942626953125" lon="20.03077271394431591033935546875">
        <ele>2062.199951171875</ele>
        <time>2026-06-15T12:49:46.000Z</time>
        <extensions>
          <ns3:TrackPointExtension>
            <ns3:atemp>19.0</ns3:atemp>
          </ns3:TrackPointExtension>
        </extensions>
      </trkpt>
      <trkpt lat="42.5676079094409942626953125" lon="20.03077271394431591033935546875">
        <ele>2062.199951171875</ele>
        <time>2026-06-15T12:49:47.000Z</time>
        <extensions>
          <ns3:TrackPointExtension>
            <ns3:atemp>19.0</ns3:atemp>
          </ns3:TrackPointExtension>
        </extensions>
      </trkpt>
      <trkpt lat="42.5676079094409942626953125" lon="20.03077271394431591033935546875">
        <ele>2062.199951171875</ele>
        <time>2026-06-15T12:49:48.000Z</time>
        <extensions>
          <ns3:TrackPointExtension>
            <ns3:atemp>19.0</ns3:atemp>
          </ns3:TrackPointExtension>
        </extensions>
      </trkpt>
      <trkpt lat="42.5676079094409942626953125" lon="20.03077271394431591033935546875">
        <ele>2062.199951171875</ele>
        <time>2026-06-15T12:49:49.000Z</time>
        <extensions>
          <ns3:TrackPointExtension>
            <ns3:atemp>19.0</ns3:atemp>
          </ns3:TrackPointExtension>
        </extensions>
      </trkpt>
      <trkpt lat="42.5676079094409942626953125" lon="20.03077271394431591033935546875">
        <ele>2062.199951171875</ele>
        <time>2026-06-15T12:49:50.000Z</time>
        <extensions>
          <ns3:TrackPointExtension>
            <ns3:atemp>19.0</ns3:atemp>
          </ns3:TrackPointExtension>
        </extensions>
      </trkpt>
      <trkpt lat="42.5676079094409942626953125" lon="20.03077271394431591033935546875">
        <ele>2062.39990234375</ele>
        <time>2026-06-15T12:49:51.000Z</time>
        <extensions>
          <ns3:TrackPointExtension>
            <ns3:atemp>19.0</ns3:atemp>
          </ns3:TrackPointExtension>
        </extensions>
      </trkpt>
      <trkpt lat="42.5676079094409942626953125" lon="20.03077271394431591033935546875">
        <ele>2062.39990234375</ele>
        <time>2026-06-15T12:49:52.000Z</time>
        <extensions>
          <ns3:TrackPointExtension>
            <ns3:atemp>19.0</ns3:atemp>
          </ns3:TrackPointExtension>
        </extensions>
      </trkpt>
      <trkpt lat="42.5676079094409942626953125" lon="20.03077271394431591033935546875">
        <ele>2062.39990234375</ele>
        <time>2026-06-15T12:49:53.000Z</time>
        <extensions>
          <ns3:TrackPointExtension>
            <ns3:atemp>19.0</ns3:atemp>
          </ns3:TrackPointExtension>
        </extensions>
      </trkpt>
      <trkpt lat="42.5676079094409942626953125" lon="20.03077271394431591033935546875">
        <ele>2062.199951171875</ele>
        <time>2026-06-15T12:49:54.000Z</time>
        <extensions>
          <ns3:TrackPointExtension>
            <ns3:atemp>19.0</ns3:atemp>
          </ns3:TrackPointExtension>
        </extensions>
      </trkpt>
      <trkpt lat="42.5676079094409942626953125" lon="20.03077271394431591033935546875">
        <ele>2062.199951171875</ele>
        <time>2026-06-15T12:49:55.000Z</time>
        <extensions>
          <ns3:TrackPointExtension>
            <ns3:atemp>19.0</ns3:atemp>
          </ns3:TrackPointExtension>
        </extensions>
      </trkpt>
      <trkpt lat="42.5676079094409942626953125" lon="20.03077271394431591033935546875">
        <ele>2062.199951171875</ele>
        <time>2026-06-15T12:49:56.000Z</time>
        <extensions>
          <ns3:TrackPointExtension>
            <ns3:atemp>19.0</ns3:atemp>
          </ns3:TrackPointExtension>
        </extensions>
      </trkpt>
      <trkpt lat="42.5676079094409942626953125" lon="20.03077271394431591033935546875">
        <ele>2062.199951171875</ele>
        <time>2026-06-15T12:49:57.000Z</time>
        <extensions>
          <ns3:TrackPointExtension>
            <ns3:atemp>19.0</ns3:atemp>
          </ns3:TrackPointExtension>
        </extensions>
      </trkpt>
      <trkpt lat="42.5676079094409942626953125" lon="20.03077271394431591033935546875">
        <ele>2062.199951171875</ele>
        <time>2026-06-15T12:49:58.000Z</time>
        <extensions>
          <ns3:TrackPointExtension>
            <ns3:atemp>19.0</ns3:atemp>
          </ns3:TrackPointExtension>
        </extensions>
      </trkpt>
      <trkpt lat="42.5676079094409942626953125" lon="20.03077271394431591033935546875">
        <ele>2062.199951171875</ele>
        <time>2026-06-15T12:49:59.000Z</time>
        <extensions>
          <ns3:TrackPointExtension>
            <ns3:atemp>19.0</ns3:atemp>
          </ns3:TrackPointExtension>
        </extensions>
      </trkpt>
      <trkpt lat="42.5676079094409942626953125" lon="20.03077271394431591033935546875">
        <ele>2062.39990234375</ele>
        <time>2026-06-15T12:50:00.000Z</time>
        <extensions>
          <ns3:TrackPointExtension>
            <ns3:atemp>19.0</ns3:atemp>
          </ns3:TrackPointExtension>
        </extensions>
      </trkpt>
      <trkpt lat="42.5676079094409942626953125" lon="20.03077271394431591033935546875">
        <ele>2062.39990234375</ele>
        <time>2026-06-15T12:50:01.000Z</time>
        <extensions>
          <ns3:TrackPointExtension>
            <ns3:atemp>19.0</ns3:atemp>
          </ns3:TrackPointExtension>
        </extensions>
      </trkpt>
      <trkpt lat="42.5676079094409942626953125" lon="20.03077271394431591033935546875">
        <ele>2062.199951171875</ele>
        <time>2026-06-15T12:50:02.000Z</time>
        <extensions>
          <ns3:TrackPointExtension>
            <ns3:atemp>19.0</ns3:atemp>
          </ns3:TrackPointExtension>
        </extensions>
      </trkpt>
      <trkpt lat="42.5676079094409942626953125" lon="20.03077271394431591033935546875">
        <ele>2062.199951171875</ele>
        <time>2026-06-15T12:50:03.000Z</time>
        <extensions>
          <ns3:TrackPointExtension>
            <ns3:atemp>19.0</ns3:atemp>
          </ns3:TrackPointExtension>
        </extensions>
      </trkpt>
      <trkpt lat="42.5676079094409942626953125" lon="20.03077271394431591033935546875">
        <ele>2062.199951171875</ele>
        <time>2026-06-15T12:50:04.000Z</time>
        <extensions>
          <ns3:TrackPointExtension>
            <ns3:atemp>19.0</ns3:atemp>
          </ns3:TrackPointExtension>
        </extensions>
      </trkpt>
      <trkpt lat="42.5676079094409942626953125" lon="20.03077271394431591033935546875">
        <ele>2062.199951171875</ele>
        <time>2026-06-15T12:50:05.000Z</time>
        <extensions>
          <ns3:TrackPointExtension>
            <ns3:atemp>19.0</ns3:atemp>
          </ns3:TrackPointExtension>
        </extensions>
      </trkpt>
      <trkpt lat="42.5676079094409942626953125" lon="20.03077271394431591033935546875">
        <ele>2062.199951171875</ele>
        <time>2026-06-15T12:50:06.000Z</time>
        <extensions>
          <ns3:TrackPointExtension>
            <ns3:atemp>19.0</ns3:atemp>
          </ns3:TrackPointExtension>
        </extensions>
      </trkpt>
      <trkpt lat="42.5676079094409942626953125" lon="20.03077271394431591033935546875">
        <ele>2062.199951171875</ele>
        <time>2026-06-15T12:50:07.000Z</time>
        <extensions>
          <ns3:TrackPointExtension>
            <ns3:atemp>19.0</ns3:atemp>
          </ns3:TrackPointExtension>
        </extensions>
      </trkpt>
      <trkpt lat="42.5676079094409942626953125" lon="20.03077271394431591033935546875">
        <ele>2062.199951171875</ele>
        <time>2026-06-15T12:50:08.000Z</time>
        <extensions>
          <ns3:TrackPointExtension>
            <ns3:atemp>19.0</ns3:atemp>
          </ns3:TrackPointExtension>
        </extensions>
      </trkpt>
      <trkpt lat="42.5676079094409942626953125" lon="20.03077271394431591033935546875">
        <ele>2062.199951171875</ele>
        <time>2026-06-15T12:50:09.000Z</time>
        <extensions>
          <ns3:TrackPointExtension>
            <ns3:atemp>19.0</ns3:atemp>
          </ns3:TrackPointExtension>
        </extensions>
      </trkpt>
      <trkpt lat="42.5676079094409942626953125" lon="20.03077271394431591033935546875">
        <ele>2062.199951171875</ele>
        <time>2026-06-15T12:50:10.000Z</time>
        <extensions>
          <ns3:TrackPointExtension>
            <ns3:atemp>19.0</ns3:atemp>
          </ns3:TrackPointExtension>
        </extensions>
      </trkpt>
      <trkpt lat="42.5676079094409942626953125" lon="20.03077271394431591033935546875">
        <ele>2062.199951171875</ele>
        <time>2026-06-15T12:50:11.000Z</time>
        <extensions>
          <ns3:TrackPointExtension>
            <ns3:atemp>19.0</ns3:atemp>
          </ns3:TrackPointExtension>
        </extensions>
      </trkpt>
      <trkpt lat="42.5676079094409942626953125" lon="20.03077271394431591033935546875">
        <ele>2062.199951171875</ele>
        <time>2026-06-15T12:50:12.000Z</time>
        <extensions>
          <ns3:TrackPointExtension>
            <ns3:atemp>19.0</ns3:atemp>
          </ns3:TrackPointExtension>
        </extensions>
      </trkpt>
      <trkpt lat="42.5676079094409942626953125" lon="20.03077271394431591033935546875">
        <ele>2062.199951171875</ele>
        <time>2026-06-15T12:50:13.000Z</time>
        <extensions>
          <ns3:TrackPointExtension>
            <ns3:atemp>19.0</ns3:atemp>
          </ns3:TrackPointExtension>
        </extensions>
      </trkpt>
      <trkpt lat="42.5676079094409942626953125" lon="20.03077271394431591033935546875">
        <ele>2062.39990234375</ele>
        <time>2026-06-15T12:50:14.000Z</time>
        <extensions>
          <ns3:TrackPointExtension>
            <ns3:atemp>19.0</ns3:atemp>
          </ns3:TrackPointExtension>
        </extensions>
      </trkpt>
      <trkpt lat="42.5676079094409942626953125" lon="20.03077271394431591033935546875">
        <ele>2062.39990234375</ele>
        <time>2026-06-15T12:50:15.000Z</time>
        <extensions>
          <ns3:TrackPointExtension>
            <ns3:atemp>19.0</ns3:atemp>
          </ns3:TrackPointExtension>
        </extensions>
      </trkpt>
      <trkpt lat="42.5676079094409942626953125" lon="20.03077271394431591033935546875">
        <ele>2062.39990234375</ele>
        <time>2026-06-15T12:50:16.000Z</time>
        <extensions>
          <ns3:TrackPointExtension>
            <ns3:atemp>19.0</ns3:atemp>
          </ns3:TrackPointExtension>
        </extensions>
      </trkpt>
      <trkpt lat="42.5676079094409942626953125" lon="20.03077271394431591033935546875">
        <ele>2062.39990234375</ele>
        <time>2026-06-15T12:50:17.000Z</time>
        <extensions>
          <ns3:TrackPointExtension>
            <ns3:atemp>19.0</ns3:atemp>
          </ns3:TrackPointExtension>
        </extensions>
      </trkpt>
      <trkpt lat="42.5676079094409942626953125" lon="20.03077271394431591033935546875">
        <ele>2062.39990234375</ele>
        <time>2026-06-15T12:50:18.000Z</time>
        <extensions>
          <ns3:TrackPointExtension>
            <ns3:atemp>19.0</ns3:atemp>
          </ns3:TrackPointExtension>
        </extensions>
      </trkpt>
      <trkpt lat="42.5676079094409942626953125" lon="20.03077271394431591033935546875">
        <ele>2062.199951171875</ele>
        <time>2026-06-15T12:50:19.000Z</time>
        <extensions>
          <ns3:TrackPointExtension>
            <ns3:atemp>19.0</ns3:atemp>
          </ns3:TrackPointExtension>
        </extensions>
      </trkpt>
      <trkpt lat="42.5676079094409942626953125" lon="20.03077271394431591033935546875">
        <ele>2062.199951171875</ele>
        <time>2026-06-15T12:50:20.000Z</time>
        <extensions>
          <ns3:TrackPointExtension>
            <ns3:atemp>19.0</ns3:atemp>
          </ns3:TrackPointExtension>
        </extensions>
      </trkpt>
      <trkpt lat="42.5676079094409942626953125" lon="20.03077271394431591033935546875">
        <ele>2062.199951171875</ele>
        <time>2026-06-15T12:50:21.000Z</time>
        <extensions>
          <ns3:TrackPointExtension>
            <ns3:atemp>19.0</ns3:atemp>
          </ns3:TrackPointExtension>
        </extensions>
      </trkpt>
      <trkpt lat="42.5676079094409942626953125" lon="20.03077271394431591033935546875">
        <ele>2062.199951171875</ele>
        <time>2026-06-15T12:50:22.000Z</time>
        <extensions>
          <ns3:TrackPointExtension>
            <ns3:atemp>19.0</ns3:atemp>
          </ns3:TrackPointExtension>
        </extensions>
      </trkpt>
      <trkpt lat="42.5676079094409942626953125" lon="20.03077271394431591033935546875">
        <ele>2062.199951171875</ele>
        <time>2026-06-15T12:50:23.000Z</time>
        <extensions>
          <ns3:TrackPointExtension>
            <ns3:atemp>19.0</ns3:atemp>
          </ns3:TrackPointExtension>
        </extensions>
      </trkpt>
      <trkpt lat="42.5676079094409942626953125" lon="20.03077271394431591033935546875">
        <ele>2062.199951171875</ele>
        <time>2026-06-15T12:50:24.000Z</time>
        <extensions>
          <ns3:TrackPointExtension>
            <ns3:atemp>19.0</ns3:atemp>
          </ns3:TrackPointExtension>
        </extensions>
      </trkpt>
      <trkpt lat="42.5676079094409942626953125" lon="20.03077271394431591033935546875">
        <ele>2062</ele>
        <time>2026-06-15T12:50:25.000Z</time>
        <extensions>
          <ns3:TrackPointExtension>
            <ns3:atemp>19.0</ns3:atemp>
          </ns3:TrackPointExtension>
        </extensions>
      </trkpt>
      <trkpt lat="42.5676079094409942626953125" lon="20.03077271394431591033935546875">
        <ele>2062</ele>
        <time>2026-06-15T12:50:26.000Z</time>
        <extensions>
          <ns3:TrackPointExtension>
            <ns3:atemp>19.0</ns3:atemp>
          </ns3:TrackPointExtension>
        </extensions>
      </trkpt>
      <trkpt lat="42.5676079094409942626953125" lon="20.03077271394431591033935546875">
        <ele>2062</ele>
        <time>2026-06-15T12:50:27.000Z</time>
        <extensions>
          <ns3:TrackPointExtension>
            <ns3:atemp>19.0</ns3:atemp>
          </ns3:TrackPointExtension>
        </extensions>
      </trkpt>
      <trkpt lat="42.5676079094409942626953125" lon="20.03077271394431591033935546875">
        <ele>2062</ele>
        <time>2026-06-15T12:50:28.000Z</time>
        <extensions>
          <ns3:TrackPointExtension>
            <ns3:atemp>19.0</ns3:atemp>
          </ns3:TrackPointExtension>
        </extensions>
      </trkpt>
      <trkpt lat="42.5676079094409942626953125" lon="20.03077271394431591033935546875">
        <ele>2062</ele>
        <time>2026-06-15T12:50:29.000Z</time>
        <extensions>
          <ns3:TrackPointExtension>
            <ns3:atemp>19.0</ns3:atemp>
          </ns3:TrackPointExtension>
        </extensions>
      </trkpt>
      <trkpt lat="42.5676079094409942626953125" lon="20.03077271394431591033935546875">
        <ele>2062</ele>
        <time>2026-06-15T12:50:30.000Z</time>
        <extensions>
          <ns3:TrackPointExtension>
            <ns3:atemp>19.0</ns3:atemp>
          </ns3:TrackPointExtension>
        </extensions>
      </trkpt>
      <trkpt lat="42.5676079094409942626953125" lon="20.03077271394431591033935546875">
        <ele>2062</ele>
        <time>2026-06-15T12:50:31.000Z</time>
        <extensions>
          <ns3:TrackPointExtension>
            <ns3:atemp>19.0</ns3:atemp>
          </ns3:TrackPointExtension>
        </extensions>
      </trkpt>
      <trkpt lat="42.5676079094409942626953125" lon="20.03077271394431591033935546875">
        <ele>2062</ele>
        <time>2026-06-15T12:50:32.000Z</time>
        <extensions>
          <ns3:TrackPointExtension>
            <ns3:atemp>19.0</ns3:atemp>
          </ns3:TrackPointExtension>
        </extensions>
      </trkpt>
      <trkpt lat="42.5676079094409942626953125" lon="20.03077271394431591033935546875">
        <ele>2062</ele>
        <time>2026-06-15T12:50:33.000Z</time>
        <extensions>
          <ns3:TrackPointExtension>
            <ns3:atemp>19.0</ns3:atemp>
          </ns3:TrackPointExtension>
        </extensions>
      </trkpt>
      <trkpt lat="42.5676079094409942626953125" lon="20.03077271394431591033935546875">
        <ele>2062</ele>
        <time>2026-06-15T12:50:34.000Z</time>
        <extensions>
          <ns3:TrackPointExtension>
            <ns3:atemp>19.0</ns3:atemp>
          </ns3:TrackPointExtension>
        </extensions>
      </trkpt>
      <trkpt lat="42.5676079094409942626953125" lon="20.03077271394431591033935546875">
        <ele>2062</ele>
        <time>2026-06-15T12:50:35.000Z</time>
        <extensions>
          <ns3:TrackPointExtension>
            <ns3:atemp>19.0</ns3:atemp>
          </ns3:TrackPointExtension>
        </extensions>
      </trkpt>
      <trkpt lat="42.5676079094409942626953125" lon="20.03077271394431591033935546875">
        <ele>2062</ele>
        <time>2026-06-15T12:50:36.000Z</time>
        <extensions>
          <ns3:TrackPointExtension>
            <ns3:atemp>19.0</ns3:atemp>
          </ns3:TrackPointExtension>
        </extensions>
      </trkpt>
      <trkpt lat="42.5676079094409942626953125" lon="20.03077271394431591033935546875">
        <ele>2062</ele>
        <time>2026-06-15T12:50:37.000Z</time>
        <extensions>
          <ns3:TrackPointExtension>
            <ns3:atemp>19.0</ns3:atemp>
          </ns3:TrackPointExtension>
        </extensions>
      </trkpt>
      <trkpt lat="42.5676079094409942626953125" lon="20.03077271394431591033935546875">
        <ele>2062</ele>
        <time>2026-06-15T12:50:38.000Z</time>
        <extensions>
          <ns3:TrackPointExtension>
            <ns3:atemp>19.0</ns3:atemp>
          </ns3:TrackPointExtension>
        </extensions>
      </trkpt>
      <trkpt lat="42.5676079094409942626953125" lon="20.03077271394431591033935546875">
        <ele>2062</ele>
        <time>2026-06-15T12:50:39.000Z</time>
        <extensions>
          <ns3:TrackPointExtension>
            <ns3:atemp>19.0</ns3:atemp>
          </ns3:TrackPointExtension>
        </extensions>
      </trkpt>
      <trkpt lat="42.5676079094409942626953125" lon="20.03077271394431591033935546875">
        <ele>2062</ele>
        <time>2026-06-15T12:50:40.000Z</time>
        <extensions>
          <ns3:TrackPointExtension>
            <ns3:atemp>19.0</ns3:atemp>
          </ns3:TrackPointExtension>
        </extensions>
      </trkpt>
      <trkpt lat="42.5676079094409942626953125" lon="20.03077271394431591033935546875">
        <ele>2062</ele>
        <time>2026-06-15T12:50:41.000Z</time>
        <extensions>
          <ns3:TrackPointExtension>
            <ns3:atemp>19.0</ns3:atemp>
          </ns3:TrackPointExtension>
        </extensions>
      </trkpt>
      <trkpt lat="42.5676079094409942626953125" lon="20.03077271394431591033935546875">
        <ele>2062</ele>
        <time>2026-06-15T12:50:42.000Z</time>
        <extensions>
          <ns3:TrackPointExtension>
            <ns3:atemp>19.0</ns3:atemp>
          </ns3:TrackPointExtension>
        </extensions>
      </trkpt>
      <trkpt lat="42.5676079094409942626953125" lon="20.03077271394431591033935546875">
        <ele>2062</ele>
        <time>2026-06-15T12:50:43.000Z</time>
        <extensions>
          <ns3:TrackPointExtension>
            <ns3:atemp>19.0</ns3:atemp>
          </ns3:TrackPointExtension>
        </extensions>
      </trkpt>
      <trkpt lat="42.5676079094409942626953125" lon="20.03077271394431591033935546875">
        <ele>2062</ele>
        <time>2026-06-15T12:50:44.000Z</time>
        <extensions>
          <ns3:TrackPointExtension>
            <ns3:atemp>19.0</ns3:atemp>
          </ns3:TrackPointExtension>
        </extensions>
      </trkpt>
      <trkpt lat="42.5676079094409942626953125" lon="20.03077271394431591033935546875">
        <ele>2062</ele>
        <time>2026-06-15T12:50:45.000Z</time>
        <extensions>
          <ns3:TrackPointExtension>
            <ns3:atemp>19.0</ns3:atemp>
          </ns3:TrackPointExtension>
        </extensions>
      </trkpt>
      <trkpt lat="42.5676079094409942626953125" lon="20.03077271394431591033935546875">
        <ele>2062</ele>
        <time>2026-06-15T12:50:46.000Z</time>
        <extensions>
          <ns3:TrackPointExtension>
            <ns3:atemp>19.0</ns3:atemp>
          </ns3:TrackPointExtension>
        </extensions>
      </trkpt>
      <trkpt lat="42.5676079094409942626953125" lon="20.03077271394431591033935546875">
        <ele>2062</ele>
        <time>2026-06-15T12:50:47.000Z</time>
        <extensions>
          <ns3:TrackPointExtension>
            <ns3:atemp>19.0</ns3:atemp>
          </ns3:TrackPointExtension>
        </extensions>
      </trkpt>
      <trkpt lat="42.5676079094409942626953125" lon="20.03077271394431591033935546875">
        <ele>2062</ele>
        <time>2026-06-15T12:50:48.000Z</time>
        <extensions>
          <ns3:TrackPointExtension>
            <ns3:atemp>19.0</ns3:atemp>
          </ns3:TrackPointExtension>
        </extensions>
      </trkpt>
      <trkpt lat="42.5676079094409942626953125" lon="20.03077271394431591033935546875">
        <ele>2062</ele>
        <time>2026-06-15T12:50:49.000Z</time>
        <extensions>
          <ns3:TrackPointExtension>
            <ns3:atemp>19.0</ns3:atemp>
          </ns3:TrackPointExtension>
        </extensions>
      </trkpt>
      <trkpt lat="42.5676079094409942626953125" lon="20.03077271394431591033935546875">
        <ele>2062</ele>
        <time>2026-06-15T12:50:50.000Z</time>
        <extensions>
          <ns3:TrackPointExtension>
            <ns3:atemp>19.0</ns3:atemp>
          </ns3:TrackPointExtension>
        </extensions>
      </trkpt>
      <trkpt lat="42.5676079094409942626953125" lon="20.03077271394431591033935546875">
        <ele>2062</ele>
        <time>2026-06-15T12:50:51.000Z</time>
        <extensions>
          <ns3:TrackPointExtension>
            <ns3:atemp>19.0</ns3:atemp>
          </ns3:TrackPointExtension>
        </extensions>
      </trkpt>
      <trkpt lat="42.5676079094409942626953125" lon="20.03077271394431591033935546875">
        <ele>2062</ele>
        <time>2026-06-15T12:50:52.000Z</time>
        <extensions>
          <ns3:TrackPointExtension>
            <ns3:atemp>19.0</ns3:atemp>
          </ns3:TrackPointExtension>
        </extensions>
      </trkpt>
      <trkpt lat="42.5676079094409942626953125" lon="20.03077271394431591033935546875">
        <ele>2062</ele>
        <time>2026-06-15T12:50:53.000Z</time>
        <extensions>
          <ns3:TrackPointExtension>
            <ns3:atemp>19.0</ns3:atemp>
          </ns3:TrackPointExtension>
        </extensions>
      </trkpt>
      <trkpt lat="42.5676079094409942626953125" lon="20.03077271394431591033935546875">
        <ele>2062</ele>
        <time>2026-06-15T12:50:54.000Z</time>
        <extensions>
          <ns3:TrackPointExtension>
            <ns3:atemp>19.0</ns3:atemp>
          </ns3:TrackPointExtension>
        </extensions>
      </trkpt>
      <trkpt lat="42.5676079094409942626953125" lon="20.03077271394431591033935546875">
        <ele>2062</ele>
        <time>2026-06-15T12:50:55.000Z</time>
        <extensions>
          <ns3:TrackPointExtension>
            <ns3:atemp>19.0</ns3:atemp>
          </ns3:TrackPointExtension>
        </extensions>
      </trkpt>
      <trkpt lat="42.5676079094409942626953125" lon="20.03077271394431591033935546875">
        <ele>2062</ele>
        <time>2026-06-15T12:50:56.000Z</time>
        <extensions>
          <ns3:TrackPointExtension>
            <ns3:atemp>19.0</ns3:atemp>
          </ns3:TrackPointExtension>
        </extensions>
      </trkpt>
      <trkpt lat="42.5676079094409942626953125" lon="20.03077271394431591033935546875">
        <ele>2062</ele>
        <time>2026-06-15T12:50:57.000Z</time>
        <extensions>
          <ns3:TrackPointExtension>
            <ns3:atemp>19.0</ns3:atemp>
          </ns3:TrackPointExtension>
        </extensions>
      </trkpt>
      <trkpt lat="42.5676079094409942626953125" lon="20.03077271394431591033935546875">
        <ele>2062</ele>
        <time>2026-06-15T12:50:58.000Z</time>
        <extensions>
          <ns3:TrackPointExtension>
            <ns3:atemp>19.0</ns3:atemp>
          </ns3:TrackPointExtension>
        </extensions>
      </trkpt>
      <trkpt lat="42.5676079094409942626953125" lon="20.03077271394431591033935546875">
        <ele>2062</ele>
        <time>2026-06-15T12:50:59.000Z</time>
        <extensions>
          <ns3:TrackPointExtension>
            <ns3:atemp>19.0</ns3:atemp>
          </ns3:TrackPointExtension>
        </extensions>
      </trkpt>
      <trkpt lat="42.5676079094409942626953125" lon="20.03077271394431591033935546875">
        <ele>2062</ele>
        <time>2026-06-15T12:51:00.000Z</time>
        <extensions>
          <ns3:TrackPointExtension>
            <ns3:atemp>19.0</ns3:atemp>
          </ns3:TrackPointExtension>
        </extensions>
      </trkpt>
      <trkpt lat="42.5676079094409942626953125" lon="20.03077271394431591033935546875">
        <ele>2062</ele>
        <time>2026-06-15T12:51:01.000Z</time>
        <extensions>
          <ns3:TrackPointExtension>
            <ns3:atemp>19.0</ns3:atemp>
          </ns3:TrackPointExtension>
        </extensions>
      </trkpt>
      <trkpt lat="42.5676079094409942626953125" lon="20.03077271394431591033935546875">
        <ele>2062</ele>
        <time>2026-06-15T12:51:02.000Z</time>
        <extensions>
          <ns3:TrackPointExtension>
            <ns3:atemp>19.0</ns3:atemp>
          </ns3:TrackPointExtension>
        </extensions>
      </trkpt>
      <trkpt lat="42.5676079094409942626953125" lon="20.03077271394431591033935546875">
        <ele>2062</ele>
        <time>2026-06-15T12:51:03.000Z</time>
        <extensions>
          <ns3:TrackPointExtension>
            <ns3:atemp>19.0</ns3:atemp>
          </ns3:TrackPointExtension>
        </extensions>
      </trkpt>
      <trkpt lat="42.5676079094409942626953125" lon="20.03077271394431591033935546875">
        <ele>2062</ele>
        <time>2026-06-15T12:51:04.000Z</time>
        <extensions>
          <ns3:TrackPointExtension>
            <ns3:atemp>19.0</ns3:atemp>
          </ns3:TrackPointExtension>
        </extensions>
      </trkpt>
      <trkpt lat="42.5676079094409942626953125" lon="20.03077271394431591033935546875">
        <ele>2062</ele>
        <time>2026-06-15T12:51:05.000Z</time>
        <extensions>
          <ns3:TrackPointExtension>
            <ns3:atemp>19.0</ns3:atemp>
          </ns3:TrackPointExtension>
        </extensions>
      </trkpt>
      <trkpt lat="42.5676079094409942626953125" lon="20.03077271394431591033935546875">
        <ele>2062</ele>
        <time>2026-06-15T12:51:06.000Z</time>
        <extensions>
          <ns3:TrackPointExtension>
            <ns3:atemp>19.0</ns3:atemp>
          </ns3:TrackPointExtension>
        </extensions>
      </trkpt>
      <trkpt lat="42.5676079094409942626953125" lon="20.03077271394431591033935546875">
        <ele>2062</ele>
        <time>2026-06-15T12:51:07.000Z</time>
        <extensions>
          <ns3:TrackPointExtension>
            <ns3:atemp>19.0</ns3:atemp>
          </ns3:TrackPointExtension>
        </extensions>
      </trkpt>
      <trkpt lat="42.5676079094409942626953125" lon="20.03077271394431591033935546875">
        <ele>2062</ele>
        <time>2026-06-15T12:51:08.000Z</time>
        <extensions>
          <ns3:TrackPointExtension>
            <ns3:atemp>19.0</ns3:atemp>
          </ns3:TrackPointExtension>
        </extensions>
      </trkpt>
      <trkpt lat="42.5676079094409942626953125" lon="20.03077271394431591033935546875">
        <ele>2062</ele>
        <time>2026-06-15T12:51:09.000Z</time>
        <extensions>
          <ns3:TrackPointExtension>
            <ns3:atemp>19.0</ns3:atemp>
          </ns3:TrackPointExtension>
        </extensions>
      </trkpt>
      <trkpt lat="42.5676079094409942626953125" lon="20.03077271394431591033935546875">
        <ele>2062</ele>
        <time>2026-06-15T12:51:10.000Z</time>
        <extensions>
          <ns3:TrackPointExtension>
            <ns3:atemp>19.0</ns3:atemp>
          </ns3:TrackPointExtension>
        </extensions>
      </trkpt>
      <trkpt lat="42.5676079094409942626953125" lon="20.03077271394431591033935546875">
        <ele>2062</ele>
        <time>2026-06-15T12:51:11.000Z</time>
        <extensions>
          <ns3:TrackPointExtension>
            <ns3:atemp>19.0</ns3:atemp>
          </ns3:TrackPointExtension>
        </extensions>
      </trkpt>
      <trkpt lat="42.5676079094409942626953125" lon="20.03077271394431591033935546875">
        <ele>2062</ele>
        <time>2026-06-15T12:51:12.000Z</time>
        <extensions>
          <ns3:TrackPointExtension>
            <ns3:atemp>19.0</ns3:atemp>
          </ns3:TrackPointExtension>
        </extensions>
      </trkpt>
      <trkpt lat="42.5676079094409942626953125" lon="20.03077271394431591033935546875">
        <ele>2062</ele>
        <time>2026-06-15T12:51:13.000Z</time>
        <extensions>
          <ns3:TrackPointExtension>
            <ns3:atemp>19.0</ns3:atemp>
          </ns3:TrackPointExtension>
        </extensions>
      </trkpt>
      <trkpt lat="42.5676079094409942626953125" lon="20.03077271394431591033935546875">
        <ele>2062</ele>
        <time>2026-06-15T12:51:14.000Z</time>
        <extensions>
          <ns3:TrackPointExtension>
            <ns3:atemp>19.0</ns3:atemp>
          </ns3:TrackPointExtension>
        </extensions>
      </trkpt>
      <trkpt lat="42.5676079094409942626953125" lon="20.03077271394431591033935546875">
        <ele>2062</ele>
        <time>2026-06-15T12:51:15.000Z</time>
        <extensions>
          <ns3:TrackPointExtension>
            <ns3:atemp>19.0</ns3:atemp>
          </ns3:TrackPointExtension>
        </extensions>
      </trkpt>
      <trkpt lat="42.5676079094409942626953125" lon="20.03077271394431591033935546875">
        <ele>2062</ele>
        <time>2026-06-15T12:51:16.000Z</time>
        <extensions>
          <ns3:TrackPointExtension>
            <ns3:atemp>19.0</ns3:atemp>
          </ns3:TrackPointExtension>
        </extensions>
      </trkpt>
      <trkpt lat="42.5676079094409942626953125" lon="20.03077271394431591033935546875">
        <ele>2062</ele>
        <time>2026-06-15T12:51:17.000Z</time>
        <extensions>
          <ns3:TrackPointExtension>
            <ns3:atemp>19.0</ns3:atemp>
          </ns3:TrackPointExtension>
        </extensions>
      </trkpt>
      <trkpt lat="42.5676079094409942626953125" lon="20.03077271394431591033935546875">
        <ele>2062</ele>
        <time>2026-06-15T12:51:18.000Z</time>
        <extensions>
          <ns3:TrackPointExtension>
            <ns3:atemp>19.0</ns3:atemp>
          </ns3:TrackPointExtension>
        </extensions>
      </trkpt>
      <trkpt lat="42.5676079094409942626953125" lon="20.03077271394431591033935546875">
        <ele>2062</ele>
        <time>2026-06-15T12:51:19.000Z</time>
        <extensions>
          <ns3:TrackPointExtension>
            <ns3:atemp>19.0</ns3:atemp>
          </ns3:TrackPointExtension>
        </extensions>
      </trkpt>
      <trkpt lat="42.5676079094409942626953125" lon="20.03077271394431591033935546875">
        <ele>2062</ele>
        <time>2026-06-15T12:51:20.000Z</time>
        <extensions>
          <ns3:TrackPointExtension>
            <ns3:atemp>19.0</ns3:atemp>
          </ns3:TrackPointExtension>
        </extensions>
      </trkpt>
      <trkpt lat="42.5676079094409942626953125" lon="20.03077271394431591033935546875">
        <ele>2062</ele>
        <time>2026-06-15T12:51:21.000Z</time>
        <extensions>
          <ns3:TrackPointExtension>
            <ns3:atemp>19.0</ns3:atemp>
          </ns3:TrackPointExtension>
        </extensions>
      </trkpt>
      <trkpt lat="42.5676079094409942626953125" lon="20.03077271394431591033935546875">
        <ele>2062</ele>
        <time>2026-06-15T12:51:22.000Z</time>
        <extensions>
          <ns3:TrackPointExtension>
            <ns3:atemp>19.0</ns3:atemp>
          </ns3:TrackPointExtension>
        </extensions>
      </trkpt>
      <trkpt lat="42.5676079094409942626953125" lon="20.03077271394431591033935546875">
        <ele>2062</ele>
        <time>2026-06-15T12:51:23.000Z</time>
        <extensions>
          <ns3:TrackPointExtension>
            <ns3:atemp>19.0</ns3:atemp>
          </ns3:TrackPointExtension>
        </extensions>
      </trkpt>
      <trkpt lat="42.5676079094409942626953125" lon="20.03077271394431591033935546875">
        <ele>2062</ele>
        <time>2026-06-15T12:51:24.000Z</time>
        <extensions>
          <ns3:TrackPointExtension>
            <ns3:atemp>19.0</ns3:atemp>
          </ns3:TrackPointExtension>
        </extensions>
      </trkpt>
      <trkpt lat="42.5676079094409942626953125" lon="20.03077271394431591033935546875">
        <ele>2062</ele>
        <time>2026-06-15T12:51:25.000Z</time>
        <extensions>
          <ns3:TrackPointExtension>
            <ns3:atemp>19.0</ns3:atemp>
          </ns3:TrackPointExtension>
        </extensions>
      </trkpt>
      <trkpt lat="42.5676079094409942626953125" lon="20.03077271394431591033935546875">
        <ele>2062</ele>
        <time>2026-06-15T12:51:26.000Z</time>
        <extensions>
          <ns3:TrackPointExtension>
            <ns3:atemp>19.0</ns3:atemp>
          </ns3:TrackPointExtension>
        </extensions>
      </trkpt>
      <trkpt lat="42.5676079094409942626953125" lon="20.03077271394431591033935546875">
        <ele>2062</ele>
        <time>2026-06-15T12:51:27.000Z</time>
        <extensions>
          <ns3:TrackPointExtension>
            <ns3:atemp>19.0</ns3:atemp>
          </ns3:TrackPointExtension>
        </extensions>
      </trkpt>
      <trkpt lat="42.5676079094409942626953125" lon="20.03077271394431591033935546875">
        <ele>2062</ele>
        <time>2026-06-15T12:51:28.000Z</time>
        <extensions>
          <ns3:TrackPointExtension>
            <ns3:atemp>19.0</ns3:atemp>
          </ns3:TrackPointExtension>
        </extensions>
      </trkpt>
      <trkpt lat="42.5676079094409942626953125" lon="20.03077271394431591033935546875">
        <ele>2062</ele>
        <time>2026-06-15T12:51:29.000Z</time>
        <extensions>
          <ns3:TrackPointExtension>
            <ns3:atemp>19.0</ns3:atemp>
          </ns3:TrackPointExtension>
        </extensions>
      </trkpt>
      <trkpt lat="42.5676079094409942626953125" lon="20.03077271394431591033935546875">
        <ele>2062</ele>
        <time>2026-06-15T12:51:30.000Z</time>
        <extensions>
          <ns3:TrackPointExtension>
            <ns3:atemp>19.0</ns3:atemp>
          </ns3:TrackPointExtension>
        </extensions>
      </trkpt>
      <trkpt lat="42.5676079094409942626953125" lon="20.03077271394431591033935546875">
        <ele>2062</ele>
        <time>2026-06-15T12:51:31.000Z</time>
        <extensions>
          <ns3:TrackPointExtension>
            <ns3:atemp>19.0</ns3:atemp>
          </ns3:TrackPointExtension>
        </extensions>
      </trkpt>
      <trkpt lat="42.5676079094409942626953125" lon="20.03077271394431591033935546875">
        <ele>2062</ele>
        <time>2026-06-15T12:51:32.000Z</time>
        <extensions>
          <ns3:TrackPointExtension>
            <ns3:atemp>19.0</ns3:atemp>
          </ns3:TrackPointExtension>
        </extensions>
      </trkpt>
      <trkpt lat="42.5676079094409942626953125" lon="20.03077271394431591033935546875">
        <ele>2062</ele>
        <time>2026-06-15T12:51:33.000Z</time>
        <extensions>
          <ns3:TrackPointExtension>
            <ns3:atemp>19.0</ns3:atemp>
          </ns3:TrackPointExtension>
        </extensions>
      </trkpt>
      <trkpt lat="42.5676079094409942626953125" lon="20.03077271394431591033935546875">
        <ele>2062</ele>
        <time>2026-06-15T12:51:34.000Z</time>
        <extensions>
          <ns3:TrackPointExtension>
            <ns3:atemp>19.0</ns3:atemp>
          </ns3:TrackPointExtension>
        </extensions>
      </trkpt>
      <trkpt lat="42.5676079094409942626953125" lon="20.03077271394431591033935546875">
        <ele>2062</ele>
        <time>2026-06-15T12:51:35.000Z</time>
        <extensions>
          <ns3:TrackPointExtension>
            <ns3:atemp>19.0</ns3:atemp>
          </ns3:TrackPointExtension>
        </extensions>
      </trkpt>
      <trkpt lat="42.5676079094409942626953125" lon="20.03077271394431591033935546875">
        <ele>2062</ele>
        <time>2026-06-15T12:51:36.000Z</time>
        <extensions>
          <ns3:TrackPointExtension>
            <ns3:atemp>19.0</ns3:atemp>
          </ns3:TrackPointExtension>
        </extensions>
      </trkpt>
      <trkpt lat="42.5676079094409942626953125" lon="20.03077271394431591033935546875">
        <ele>2062</ele>
        <time>2026-06-15T12:51:37.000Z</time>
        <extensions>
          <ns3:TrackPointExtension>
            <ns3:atemp>19.0</ns3:atemp>
          </ns3:TrackPointExtension>
        </extensions>
      </trkpt>
      <trkpt lat="42.5676079094409942626953125" lon="20.03077271394431591033935546875">
        <ele>2062</ele>
        <time>2026-06-15T12:51:38.000Z</time>
        <extensions>
          <ns3:TrackPointExtension>
            <ns3:atemp>19.0</ns3:atemp>
          </ns3:TrackPointExtension>
        </extensions>
      </trkpt>
      <trkpt lat="42.5676079094409942626953125" lon="20.03077271394431591033935546875">
        <ele>2062</ele>
        <time>2026-06-15T12:51:39.000Z</time>
        <extensions>
          <ns3:TrackPointExtension>
            <ns3:atemp>19.0</ns3:atemp>
          </ns3:TrackPointExtension>
        </extensions>
      </trkpt>
      <trkpt lat="42.5676079094409942626953125" lon="20.03077271394431591033935546875">
        <ele>2062</ele>
        <time>2026-06-15T12:51:40.000Z</time>
        <extensions>
          <ns3:TrackPointExtension>
            <ns3:atemp>19.0</ns3:atemp>
          </ns3:TrackPointExtension>
        </extensions>
      </trkpt>
      <trkpt lat="42.5676079094409942626953125" lon="20.03077271394431591033935546875">
        <ele>2062</ele>
        <time>2026-06-15T12:51:41.000Z</time>
        <extensions>
          <ns3:TrackPointExtension>
            <ns3:atemp>19.0</ns3:atemp>
          </ns3:TrackPointExtension>
        </extensions>
      </trkpt>
      <trkpt lat="42.5676079094409942626953125" lon="20.03077271394431591033935546875">
        <ele>2062</ele>
        <time>2026-06-15T12:51:42.000Z</time>
        <extensions>
          <ns3:TrackPointExtension>
            <ns3:atemp>19.0</ns3:atemp>
          </ns3:TrackPointExtension>
        </extensions>
      </trkpt>
      <trkpt lat="42.5676079094409942626953125" lon="20.03077271394431591033935546875">
        <ele>2062</ele>
        <time>2026-06-15T12:51:43.000Z</time>
        <extensions>
          <ns3:TrackPointExtension>
            <ns3:atemp>19.0</ns3:atemp>
          </ns3:TrackPointExtension>
        </extensions>
      </trkpt>
      <trkpt lat="42.5676079094409942626953125" lon="20.03077271394431591033935546875">
        <ele>2062</ele>
        <time>2026-06-15T12:51:44.000Z</time>
        <extensions>
          <ns3:TrackPointExtension>
            <ns3:atemp>19.0</ns3:atemp>
          </ns3:TrackPointExtension>
        </extensions>
      </trkpt>
      <trkpt lat="42.5676079094409942626953125" lon="20.03077271394431591033935546875">
        <ele>2062</ele>
        <time>2026-06-15T12:51:45.000Z</time>
        <extensions>
          <ns3:TrackPointExtension>
            <ns3:atemp>19.0</ns3:atemp>
          </ns3:TrackPointExtension>
        </extensions>
      </trkpt>
      <trkpt lat="42.5676079094409942626953125" lon="20.03077271394431591033935546875">
        <ele>2062</ele>
        <time>2026-06-15T12:51:46.000Z</time>
        <extensions>
          <ns3:TrackPointExtension>
            <ns3:atemp>19.0</ns3:atemp>
          </ns3:TrackPointExtension>
        </extensions>
      </trkpt>
      <trkpt lat="42.5676079094409942626953125" lon="20.03077271394431591033935546875">
        <ele>2062</ele>
        <time>2026-06-15T12:51:47.000Z</time>
        <extensions>
          <ns3:TrackPointExtension>
            <ns3:atemp>19.0</ns3:atemp>
          </ns3:TrackPointExtension>
        </extensions>
      </trkpt>
      <trkpt lat="42.5676079094409942626953125" lon="20.03077271394431591033935546875">
        <ele>2062</ele>
        <time>2026-06-15T12:51:48.000Z</time>
        <extensions>
          <ns3:TrackPointExtension>
            <ns3:atemp>19.0</ns3:atemp>
          </ns3:TrackPointExtension>
        </extensions>
      </trkpt>
      <trkpt lat="42.5676079094409942626953125" lon="20.03077271394431591033935546875">
        <ele>2062</ele>
        <time>2026-06-15T12:51:49.000Z</time>
        <extensions>
          <ns3:TrackPointExtension>
            <ns3:atemp>19.0</ns3:atemp>
          </ns3:TrackPointExtension>
        </extensions>
      </trkpt>
      <trkpt lat="42.5676079094409942626953125" lon="20.03077271394431591033935546875">
        <ele>2062</ele>
        <time>2026-06-15T12:51:50.000Z</time>
        <extensions>
          <ns3:TrackPointExtension>
            <ns3:atemp>19.0</ns3:atemp>
          </ns3:TrackPointExtension>
        </extensions>
      </trkpt>
      <trkpt lat="42.5676079094409942626953125" lon="20.03077271394431591033935546875">
        <ele>2062</ele>
        <time>2026-06-15T12:51:51.000Z</time>
        <extensions>
          <ns3:TrackPointExtension>
            <ns3:atemp>19.0</ns3:atemp>
          </ns3:TrackPointExtension>
        </extensions>
      </trkpt>
      <trkpt lat="42.5676079094409942626953125" lon="20.03077271394431591033935546875">
        <ele>2062</ele>
        <time>2026-06-15T12:51:52.000Z</time>
        <extensions>
          <ns3:TrackPointExtension>
            <ns3:atemp>19.0</ns3:atemp>
          </ns3:TrackPointExtension>
        </extensions>
      </trkpt>
      <trkpt lat="42.5676079094409942626953125" lon="20.03077271394431591033935546875">
        <ele>2062</ele>
        <time>2026-06-15T12:51:53.000Z</time>
        <extensions>
          <ns3:TrackPointExtension>
            <ns3:atemp>19.0</ns3:atemp>
          </ns3:TrackPointExtension>
        </extensions>
      </trkpt>
      <trkpt lat="42.5676079094409942626953125" lon="20.03077271394431591033935546875">
        <ele>2062</ele>
        <time>2026-06-15T12:51:54.000Z</time>
        <extensions>
          <ns3:TrackPointExtension>
            <ns3:atemp>19.0</ns3:atemp>
          </ns3:TrackPointExtension>
        </extensions>
      </trkpt>
      <trkpt lat="42.5676079094409942626953125" lon="20.03077271394431591033935546875">
        <ele>2062</ele>
        <time>2026-06-15T12:51:55.000Z</time>
        <extensions>
          <ns3:TrackPointExtension>
            <ns3:atemp>19.0</ns3:atemp>
          </ns3:TrackPointExtension>
        </extensions>
      </trkpt>
      <trkpt lat="42.5676079094409942626953125" lon="20.03077271394431591033935546875">
        <ele>2062</ele>
        <time>2026-06-15T12:51:56.000Z</time>
        <extensions>
          <ns3:TrackPointExtension>
            <ns3:atemp>19.0</ns3:atemp>
          </ns3:TrackPointExtension>
        </extensions>
      </trkpt>
      <trkpt lat="42.5676079094409942626953125" lon="20.03077271394431591033935546875">
        <ele>2062</ele>
        <time>2026-06-15T12:51:57.000Z</time>
        <extensions>
          <ns3:TrackPointExtension>
            <ns3:atemp>19.0</ns3:atemp>
          </ns3:TrackPointExtension>
        </extensions>
      </trkpt>
      <trkpt lat="42.5676079094409942626953125" lon="20.03077271394431591033935546875">
        <ele>2062</ele>
        <time>2026-06-15T12:51:58.000Z</time>
        <extensions>
          <ns3:TrackPointExtension>
            <ns3:atemp>19.0</ns3:atemp>
          </ns3:TrackPointExtension>
        </extensions>
      </trkpt>
      <trkpt lat="42.5676079094409942626953125" lon="20.03077271394431591033935546875">
        <ele>2062</ele>
        <time>2026-06-15T12:51:59.000Z</time>
        <extensions>
          <ns3:TrackPointExtension>
            <ns3:atemp>19.0</ns3:atemp>
          </ns3:TrackPointExtension>
        </extensions>
      </trkpt>
      <trkpt lat="42.5676079094409942626953125" lon="20.03077271394431591033935546875">
        <ele>2062</ele>
        <time>2026-06-15T12:52:00.000Z</time>
        <extensions>
          <ns3:TrackPointExtension>
            <ns3:atemp>19.0</ns3:atemp>
          </ns3:TrackPointExtension>
        </extensions>
      </trkpt>
      <trkpt lat="42.5676079094409942626953125" lon="20.03077271394431591033935546875">
        <ele>2062</ele>
        <time>2026-06-15T12:52:01.000Z</time>
        <extensions>
          <ns3:TrackPointExtension>
            <ns3:atemp>19.0</ns3:atemp>
          </ns3:TrackPointExtension>
        </extensions>
      </trkpt>
      <trkpt lat="42.5676079094409942626953125" lon="20.03077271394431591033935546875">
        <ele>2062</ele>
        <time>2026-06-15T12:52:02.000Z</time>
        <extensions>
          <ns3:TrackPointExtension>
            <ns3:atemp>19.0</ns3:atemp>
          </ns3:TrackPointExtension>
        </extensions>
      </trkpt>
      <trkpt lat="42.5676079094409942626953125" lon="20.03077271394431591033935546875">
        <ele>2062</ele>
        <time>2026-06-15T12:52:03.000Z</time>
        <extensions>
          <ns3:TrackPointExtension>
            <ns3:atemp>19.0</ns3:atemp>
          </ns3:TrackPointExtension>
        </extensions>
      </trkpt>
      <trkpt lat="42.5676079094409942626953125" lon="20.03077271394431591033935546875">
        <ele>2062</ele>
        <time>2026-06-15T12:52:04.000Z</time>
        <extensions>
          <ns3:TrackPointExtension>
            <ns3:atemp>19.0</ns3:atemp>
          </ns3:TrackPointExtension>
        </extensions>
      </trkpt>
      <trkpt lat="42.5676079094409942626953125" lon="20.03077271394431591033935546875">
        <ele>2062</ele>
        <time>2026-06-15T12:52:05.000Z</time>
        <extensions>
          <ns3:TrackPointExtension>
            <ns3:atemp>19.0</ns3:atemp>
          </ns3:TrackPointExtension>
        </extensions>
      </trkpt>
      <trkpt lat="42.5676079094409942626953125" lon="20.03077271394431591033935546875">
        <ele>2062</ele>
        <time>2026-06-15T12:52:06.000Z</time>
        <extensions>
          <ns3:TrackPointExtension>
            <ns3:atemp>19.0</ns3:atemp>
          </ns3:TrackPointExtension>
        </extensions>
      </trkpt>
      <trkpt lat="42.5676079094409942626953125" lon="20.03077271394431591033935546875">
        <ele>2062</ele>
        <time>2026-06-15T12:52:07.000Z</time>
        <extensions>
          <ns3:TrackPointExtension>
            <ns3:atemp>19.0</ns3:atemp>
          </ns3:TrackPointExtension>
        </extensions>
      </trkpt>
      <trkpt lat="42.5676079094409942626953125" lon="20.03077271394431591033935546875">
        <ele>2062</ele>
        <time>2026-06-15T12:52:08.000Z</time>
        <extensions>
          <ns3:TrackPointExtension>
            <ns3:atemp>19.0</ns3:atemp>
          </ns3:TrackPointExtension>
        </extensions>
      </trkpt>
      <trkpt lat="42.5676079094409942626953125" lon="20.03077271394431591033935546875">
        <ele>2062</ele>
        <time>2026-06-15T12:52:09.000Z</time>
        <extensions>
          <ns3:TrackPointExtension>
            <ns3:atemp>19.0</ns3:atemp>
          </ns3:TrackPointExtension>
        </extensions>
      </trkpt>
      <trkpt lat="42.5676079094409942626953125" lon="20.03077271394431591033935546875">
        <ele>2062</ele>
        <time>2026-06-15T12:52:10.000Z</time>
        <extensions>
          <ns3:TrackPointExtension>
            <ns3:atemp>19.0</ns3:atemp>
          </ns3:TrackPointExtension>
        </extensions>
      </trkpt>
      <trkpt lat="42.5676079094409942626953125" lon="20.03077271394431591033935546875">
        <ele>2062</ele>
        <time>2026-06-15T12:52:11.000Z</time>
        <extensions>
          <ns3:TrackPointExtension>
            <ns3:atemp>19.0</ns3:atemp>
          </ns3:TrackPointExtension>
        </extensions>
      </trkpt>
      <trkpt lat="42.5676079094409942626953125" lon="20.03077271394431591033935546875">
        <ele>2062</ele>
        <time>2026-06-15T12:52:12.000Z</time>
        <extensions>
          <ns3:TrackPointExtension>
            <ns3:atemp>19.0</ns3:atemp>
          </ns3:TrackPointExtension>
        </extensions>
      </trkpt>
      <trkpt lat="42.5676079094409942626953125" lon="20.03077271394431591033935546875">
        <ele>2062</ele>
        <time>2026-06-15T12:52:13.000Z</time>
        <extensions>
          <ns3:TrackPointExtension>
            <ns3:atemp>19.0</ns3:atemp>
          </ns3:TrackPointExtension>
        </extensions>
      </trkpt>
      <trkpt lat="42.5676079094409942626953125" lon="20.03077271394431591033935546875">
        <ele>2062</ele>
        <time>2026-06-15T12:52:14.000Z</time>
        <extensions>
          <ns3:TrackPointExtension>
            <ns3:atemp>19.0</ns3:atemp>
          </ns3:TrackPointExtension>
        </extensions>
      </trkpt>
      <trkpt lat="42.5676079094409942626953125" lon="20.03077271394431591033935546875">
        <ele>2062</ele>
        <time>2026-06-15T12:52:15.000Z</time>
        <extensions>
          <ns3:TrackPointExtension>
            <ns3:atemp>19.0</ns3:atemp>
          </ns3:TrackPointExtension>
        </extensions>
      </trkpt>
      <trkpt lat="42.5676079094409942626953125" lon="20.03077271394431591033935546875">
        <ele>2062</ele>
        <time>2026-06-15T12:52:16.000Z</time>
        <extensions>
          <ns3:TrackPointExtension>
            <ns3:atemp>19.0</ns3:atemp>
          </ns3:TrackPointExtension>
        </extensions>
      </trkpt>
      <trkpt lat="42.5676079094409942626953125" lon="20.03077271394431591033935546875">
        <ele>2062</ele>
        <time>2026-06-15T12:52:17.000Z</time>
        <extensions>
          <ns3:TrackPointExtension>
            <ns3:atemp>19.0</ns3:atemp>
          </ns3:TrackPointExtension>
        </extensions>
      </trkpt>
      <trkpt lat="42.5676079094409942626953125" lon="20.03077271394431591033935546875">
        <ele>2062</ele>
        <time>2026-06-15T12:52:18.000Z</time>
        <extensions>
          <ns3:TrackPointExtension>
            <ns3:atemp>19.0</ns3:atemp>
          </ns3:TrackPointExtension>
        </extensions>
      </trkpt>
      <trkpt lat="42.5676079094409942626953125" lon="20.03077271394431591033935546875">
        <ele>2062</ele>
        <time>2026-06-15T12:52:19.000Z</time>
        <extensions>
          <ns3:TrackPointExtension>
            <ns3:atemp>19.0</ns3:atemp>
          </ns3:TrackPointExtension>
        </extensions>
      </trkpt>
      <trkpt lat="42.5676079094409942626953125" lon="20.03077271394431591033935546875">
        <ele>2062</ele>
        <time>2026-06-15T12:52:20.000Z</time>
        <extensions>
          <ns3:TrackPointExtension>
            <ns3:atemp>19.0</ns3:atemp>
          </ns3:TrackPointExtension>
        </extensions>
      </trkpt>
      <trkpt lat="42.5676079094409942626953125" lon="20.03077271394431591033935546875">
        <ele>2062</ele>
        <time>2026-06-15T12:52:21.000Z</time>
        <extensions>
          <ns3:TrackPointExtension>
            <ns3:atemp>19.0</ns3:atemp>
          </ns3:TrackPointExtension>
        </extensions>
      </trkpt>
      <trkpt lat="42.5676079094409942626953125" lon="20.03077271394431591033935546875">
        <ele>2062</ele>
        <time>2026-06-15T12:52:22.000Z</time>
        <extensions>
          <ns3:TrackPointExtension>
            <ns3:atemp>19.0</ns3:atemp>
          </ns3:TrackPointExtension>
        </extensions>
      </trkpt>
      <trkpt lat="42.5676079094409942626953125" lon="20.03077271394431591033935546875">
        <ele>2062</ele>
        <time>2026-06-15T12:52:23.000Z</time>
        <extensions>
          <ns3:TrackPointExtension>
            <ns3:atemp>19.0</ns3:atemp>
          </ns3:TrackPointExtension>
        </extensions>
      </trkpt>
      <trkpt lat="42.5676079094409942626953125" lon="20.03077271394431591033935546875">
        <ele>2062</ele>
        <time>2026-06-15T12:52:24.000Z</time>
        <extensions>
          <ns3:TrackPointExtension>
            <ns3:atemp>19.0</ns3:atemp>
          </ns3:TrackPointExtension>
        </extensions>
      </trkpt>
      <trkpt lat="42.5676079094409942626953125" lon="20.03077271394431591033935546875">
        <ele>2062</ele>
        <time>2026-06-15T12:52:25.000Z</time>
        <extensions>
          <ns3:TrackPointExtension>
            <ns3:atemp>19.0</ns3:atemp>
          </ns3:TrackPointExtension>
        </extensions>
      </trkpt>
      <trkpt lat="42.5676079094409942626953125" lon="20.03077271394431591033935546875">
        <ele>2062</ele>
        <time>2026-06-15T12:52:26.000Z</time>
        <extensions>
          <ns3:TrackPointExtension>
            <ns3:atemp>19.0</ns3:atemp>
          </ns3:TrackPointExtension>
        </extensions>
      </trkpt>
      <trkpt lat="42.5676079094409942626953125" lon="20.03077271394431591033935546875">
        <ele>2062</ele>
        <time>2026-06-15T12:52:27.000Z</time>
        <extensions>
          <ns3:TrackPointExtension>
            <ns3:atemp>19.0</ns3:atemp>
          </ns3:TrackPointExtension>
        </extensions>
      </trkpt>
      <trkpt lat="42.5676079094409942626953125" lon="20.03077271394431591033935546875">
        <ele>2062</ele>
        <time>2026-06-15T12:52:28.000Z</time>
        <extensions>
          <ns3:TrackPointExtension>
            <ns3:atemp>19.0</ns3:atemp>
          </ns3:TrackPointExtension>
        </extensions>
      </trkpt>
      <trkpt lat="42.5676079094409942626953125" lon="20.03077271394431591033935546875">
        <ele>2062</ele>
        <time>2026-06-15T12:52:29.000Z</time>
        <extensions>
          <ns3:TrackPointExtension>
            <ns3:atemp>19.0</ns3:atemp>
          </ns3:TrackPointExtension>
        </extensions>
      </trkpt>
      <trkpt lat="42.5676079094409942626953125" lon="20.03077271394431591033935546875">
        <ele>2062</ele>
        <time>2026-06-15T12:52:30.000Z</time>
        <extensions>
          <ns3:TrackPointExtension>
            <ns3:atemp>19.0</ns3:atemp>
          </ns3:TrackPointExtension>
        </extensions>
      </trkpt>
      <trkpt lat="42.5676079094409942626953125" lon="20.03077271394431591033935546875">
        <ele>2062</ele>
        <time>2026-06-15T12:52:31.000Z</time>
        <extensions>
          <ns3:TrackPointExtension>
            <ns3:atemp>19.0</ns3:atemp>
          </ns3:TrackPointExtension>
        </extensions>
      </trkpt>
      <trkpt lat="42.5676079094409942626953125" lon="20.03077271394431591033935546875">
        <ele>2062</ele>
        <time>2026-06-15T12:52:32.000Z</time>
        <extensions>
          <ns3:TrackPointExtension>
            <ns3:atemp>19.0</ns3:atemp>
          </ns3:TrackPointExtension>
        </extensions>
      </trkpt>
      <trkpt lat="42.5676079094409942626953125" lon="20.03077271394431591033935546875">
        <ele>2062</ele>
        <time>2026-06-15T12:52:33.000Z</time>
        <extensions>
          <ns3:TrackPointExtension>
            <ns3:atemp>19.0</ns3:atemp>
          </ns3:TrackPointExtension>
        </extensions>
      </trkpt>
      <trkpt lat="42.5676079094409942626953125" lon="20.03077271394431591033935546875">
        <ele>2062</ele>
        <time>2026-06-15T12:52:34.000Z</time>
        <extensions>
          <ns3:TrackPointExtension>
            <ns3:atemp>19.0</ns3:atemp>
          </ns3:TrackPointExtension>
        </extensions>
      </trkpt>
      <trkpt lat="42.5676079094409942626953125" lon="20.03077271394431591033935546875">
        <ele>2062</ele>
        <time>2026-06-15T12:52:35.000Z</time>
        <extensions>
          <ns3:TrackPointExtension>
            <ns3:atemp>19.0</ns3:atemp>
          </ns3:TrackPointExtension>
        </extensions>
      </trkpt>
      <trkpt lat="42.5676079094409942626953125" lon="20.03077271394431591033935546875">
        <ele>2062</ele>
        <time>2026-06-15T12:52:36.000Z</time>
        <extensions>
          <ns3:TrackPointExtension>
            <ns3:atemp>19.0</ns3:atemp>
          </ns3:TrackPointExtension>
        </extensions>
      </trkpt>
      <trkpt lat="42.5676079094409942626953125" lon="20.03077271394431591033935546875">
        <ele>2062</ele>
        <time>2026-06-15T12:52:37.000Z</time>
        <extensions>
          <ns3:TrackPointExtension>
            <ns3:atemp>19.0</ns3:atemp>
          </ns3:TrackPointExtension>
        </extensions>
      </trkpt>
      <trkpt lat="42.5676079094409942626953125" lon="20.03077271394431591033935546875">
        <ele>2062</ele>
        <time>2026-06-15T12:52:38.000Z</time>
        <extensions>
          <ns3:TrackPointExtension>
            <ns3:atemp>19.0</ns3:atemp>
          </ns3:TrackPointExtension>
        </extensions>
      </trkpt>
      <trkpt lat="42.5676079094409942626953125" lon="20.03077271394431591033935546875">
        <ele>2062</ele>
        <time>2026-06-15T12:52:39.000Z</time>
        <extensions>
          <ns3:TrackPointExtension>
            <ns3:atemp>19.0</ns3:atemp>
          </ns3:TrackPointExtension>
        </extensions>
      </trkpt>
      <trkpt lat="42.5676079094409942626953125" lon="20.03077271394431591033935546875">
        <ele>2062</ele>
        <time>2026-06-15T12:52:40.000Z</time>
        <extensions>
          <ns3:TrackPointExtension>
            <ns3:atemp>19.0</ns3:atemp>
          </ns3:TrackPointExtension>
        </extensions>
      </trkpt>
      <trkpt lat="42.5676079094409942626953125" lon="20.03077271394431591033935546875">
        <ele>2062</ele>
        <time>2026-06-15T12:52:41.000Z</time>
        <extensions>
          <ns3:TrackPointExtension>
            <ns3:atemp>19.0</ns3:atemp>
          </ns3:TrackPointExtension>
        </extensions>
      </trkpt>
      <trkpt lat="42.5676079094409942626953125" lon="20.03077271394431591033935546875">
        <ele>2062</ele>
        <time>2026-06-15T12:52:42.000Z</time>
        <extensions>
          <ns3:TrackPointExtension>
            <ns3:atemp>19.0</ns3:atemp>
          </ns3:TrackPointExtension>
        </extensions>
      </trkpt>
      <trkpt lat="42.5676079094409942626953125" lon="20.03077271394431591033935546875">
        <ele>2062</ele>
        <time>2026-06-15T12:52:43.000Z</time>
        <extensions>
          <ns3:TrackPointExtension>
            <ns3:atemp>19.0</ns3:atemp>
          </ns3:TrackPointExtension>
        </extensions>
      </trkpt>
      <trkpt lat="42.5676079094409942626953125" lon="20.03077271394431591033935546875">
        <ele>2062</ele>
        <time>2026-06-15T12:52:44.000Z</time>
        <extensions>
          <ns3:TrackPointExtension>
            <ns3:atemp>20.0</ns3:atemp>
          </ns3:TrackPointExtension>
        </extensions>
      </trkpt>
      <trkpt lat="42.5676079094409942626953125" lon="20.03077271394431591033935546875">
        <ele>2062</ele>
        <time>2026-06-15T12:52:45.000Z</time>
        <extensions>
          <ns3:TrackPointExtension>
            <ns3:atemp>19.0</ns3:atemp>
          </ns3:TrackPointExtension>
        </extensions>
      </trkpt>
      <trkpt lat="42.5676079094409942626953125" lon="20.03077271394431591033935546875">
        <ele>2062</ele>
        <time>2026-06-15T12:52:46.000Z</time>
        <extensions>
          <ns3:TrackPointExtension>
            <ns3:atemp>19.0</ns3:atemp>
          </ns3:TrackPointExtension>
        </extensions>
      </trkpt>
      <trkpt lat="42.5676079094409942626953125" lon="20.03077271394431591033935546875">
        <ele>2062</ele>
        <time>2026-06-15T12:52:47.000Z</time>
        <extensions>
          <ns3:TrackPointExtension>
            <ns3:atemp>19.0</ns3:atemp>
          </ns3:TrackPointExtension>
        </extensions>
      </trkpt>
      <trkpt lat="42.5676079094409942626953125" lon="20.03077271394431591033935546875">
        <ele>2062</ele>
        <time>2026-06-15T12:52:48.000Z</time>
        <extensions>
          <ns3:TrackPointExtension>
            <ns3:atemp>19.0</ns3:atemp>
          </ns3:TrackPointExtension>
        </extensions>
      </trkpt>
      <trkpt lat="42.5676079094409942626953125" lon="20.03077271394431591033935546875">
        <ele>2062</ele>
        <time>2026-06-15T12:52:49.000Z</time>
        <extensions>
          <ns3:TrackPointExtension>
            <ns3:atemp>20.0</ns3:atemp>
          </ns3:TrackPointExtension>
        </extensions>
      </trkpt>
      <trkpt lat="42.5676079094409942626953125" lon="20.03077271394431591033935546875">
        <ele>2062</ele>
        <time>2026-06-15T12:52:50.000Z</time>
        <extensions>
          <ns3:TrackPointExtension>
            <ns3:atemp>20.0</ns3:atemp>
          </ns3:TrackPointExtension>
        </extensions>
      </trkpt>
      <trkpt lat="42.5676079094409942626953125" lon="20.03077271394431591033935546875">
        <ele>2062</ele>
        <time>2026-06-15T12:52:51.000Z</time>
        <extensions>
          <ns3:TrackPointExtension>
            <ns3:atemp>20.0</ns3:atemp>
          </ns3:TrackPointExtension>
        </extensions>
      </trkpt>
      <trkpt lat="42.5676079094409942626953125" lon="20.03077271394431591033935546875">
        <ele>2062</ele>
        <time>2026-06-15T12:52:52.000Z</time>
        <extensions>
          <ns3:TrackPointExtension>
            <ns3:atemp>20.0</ns3:atemp>
          </ns3:TrackPointExtension>
        </extensions>
      </trkpt>
      <trkpt lat="42.5676079094409942626953125" lon="20.03077271394431591033935546875">
        <ele>2062</ele>
        <time>2026-06-15T12:52:53.000Z</time>
        <extensions>
          <ns3:TrackPointExtension>
            <ns3:atemp>20.0</ns3:atemp>
          </ns3:TrackPointExtension>
        </extensions>
      </trkpt>
      <trkpt lat="42.5676079094409942626953125" lon="20.03077271394431591033935546875">
        <ele>2062</ele>
        <time>2026-06-15T12:52:54.000Z</time>
        <extensions>
          <ns3:TrackPointExtension>
            <ns3:atemp>19.0</ns3:atemp>
          </ns3:TrackPointExtension>
        </extensions>
      </trkpt>
      <trkpt lat="42.5676079094409942626953125" lon="20.03077271394431591033935546875">
        <ele>2062</ele>
        <time>2026-06-15T12:52:55.000Z</time>
        <extensions>
          <ns3:TrackPointExtension>
            <ns3:atemp>19.0</ns3:atemp>
          </ns3:TrackPointExtension>
        </extensions>
      </trkpt>
      <trkpt lat="42.5676079094409942626953125" lon="20.03077271394431591033935546875">
        <ele>2062</ele>
        <time>2026-06-15T12:52:56.000Z</time>
        <extensions>
          <ns3:TrackPointExtension>
            <ns3:atemp>20.0</ns3:atemp>
          </ns3:TrackPointExtension>
        </extensions>
      </trkpt>
      <trkpt lat="42.5676079094409942626953125" lon="20.03077271394431591033935546875">
        <ele>2062</ele>
        <time>2026-06-15T12:52:57.000Z</time>
        <extensions>
          <ns3:TrackPointExtension>
            <ns3:atemp>20.0</ns3:atemp>
          </ns3:TrackPointExtension>
        </extensions>
      </trkpt>
      <trkpt lat="42.5676079094409942626953125" lon="20.03077271394431591033935546875">
        <ele>2062</ele>
        <time>2026-06-15T12:52:58.000Z</time>
        <extensions>
          <ns3:TrackPointExtension>
            <ns3:atemp>19.0</ns3:atemp>
          </ns3:TrackPointExtension>
        </extensions>
      </trkpt>
      <trkpt lat="42.5676079094409942626953125" lon="20.03077271394431591033935546875">
        <ele>2062</ele>
        <time>2026-06-15T12:52:59.000Z</time>
        <extensions>
          <ns3:TrackPointExtension>
            <ns3:atemp>19.0</ns3:atemp>
          </ns3:TrackPointExtension>
        </extensions>
      </trkpt>
      <trkpt lat="42.5676079094409942626953125" lon="20.03077271394431591033935546875">
        <ele>2062</ele>
        <time>2026-06-15T12:53:00.000Z</time>
        <extensions>
          <ns3:TrackPointExtension>
            <ns3:atemp>20.0</ns3:atemp>
          </ns3:TrackPointExtension>
        </extensions>
      </trkpt>
      <trkpt lat="42.5676079094409942626953125" lon="20.03077271394431591033935546875">
        <ele>2062</ele>
        <time>2026-06-15T12:53:01.000Z</time>
        <extensions>
          <ns3:TrackPointExtension>
            <ns3:atemp>20.0</ns3:atemp>
          </ns3:TrackPointExtension>
        </extensions>
      </trkpt>
      <trkpt lat="42.5676079094409942626953125" lon="20.03077271394431591033935546875">
        <ele>2062</ele>
        <time>2026-06-15T12:53:02.000Z</time>
        <extensions>
          <ns3:TrackPointExtension>
            <ns3:atemp>20.0</ns3:atemp>
          </ns3:TrackPointExtension>
        </extensions>
      </trkpt>
      <trkpt lat="42.5676079094409942626953125" lon="20.03077271394431591033935546875">
        <ele>2062</ele>
        <time>2026-06-15T12:53:03.000Z</time>
        <extensions>
          <ns3:TrackPointExtension>
            <ns3:atemp>20.0</ns3:atemp>
          </ns3:TrackPointExtension>
        </extensions>
      </trkpt>
      <trkpt lat="42.5676079094409942626953125" lon="20.03077271394431591033935546875">
        <ele>2062</ele>
        <time>2026-06-15T12:53:04.000Z</time>
        <extensions>
          <ns3:TrackPointExtension>
            <ns3:atemp>20.0</ns3:atemp>
          </ns3:TrackPointExtension>
        </extensions>
      </trkpt>
      <trkpt lat="42.5676079094409942626953125" lon="20.03077271394431591033935546875">
        <ele>2062</ele>
        <time>2026-06-15T12:53:05.000Z</time>
        <extensions>
          <ns3:TrackPointExtension>
            <ns3:atemp>20.0</ns3:atemp>
          </ns3:TrackPointExtension>
        </extensions>
      </trkpt>
      <trkpt lat="42.5676079094409942626953125" lon="20.03077271394431591033935546875">
        <ele>2062</ele>
        <time>2026-06-15T12:53:06.000Z</time>
        <extensions>
          <ns3:TrackPointExtension>
            <ns3:atemp>20.0</ns3:atemp>
          </ns3:TrackPointExtension>
        </extensions>
      </trkpt>
      <trkpt lat="42.5676079094409942626953125" lon="20.03077271394431591033935546875">
        <ele>2062</ele>
        <time>2026-06-15T12:53:07.000Z</time>
        <extensions>
          <ns3:TrackPointExtension>
            <ns3:atemp>20.0</ns3:atemp>
          </ns3:TrackPointExtension>
        </extensions>
      </trkpt>
      <trkpt lat="42.5676079094409942626953125" lon="20.03077271394431591033935546875">
        <ele>2062</ele>
        <time>2026-06-15T12:53:08.000Z</time>
        <extensions>
          <ns3:TrackPointExtension>
            <ns3:atemp>20.0</ns3:atemp>
          </ns3:TrackPointExtension>
        </extensions>
      </trkpt>
      <trkpt lat="42.5676079094409942626953125" lon="20.03077271394431591033935546875">
        <ele>2062</ele>
        <time>2026-06-15T12:53:09.000Z</time>
        <extensions>
          <ns3:TrackPointExtension>
            <ns3:atemp>20.0</ns3:atemp>
          </ns3:TrackPointExtension>
        </extensions>
      </trkpt>
      <trkpt lat="42.5676079094409942626953125" lon="20.03077271394431591033935546875">
        <ele>2062</ele>
        <time>2026-06-15T12:53:10.000Z</time>
        <extensions>
          <ns3:TrackPointExtension>
            <ns3:atemp>20.0</ns3:atemp>
          </ns3:TrackPointExtension>
        </extensions>
      </trkpt>
      <trkpt lat="42.5676079094409942626953125" lon="20.03077271394431591033935546875">
        <ele>2062</ele>
        <time>2026-06-15T12:53:11.000Z</time>
        <extensions>
          <ns3:TrackPointExtension>
            <ns3:atemp>20.0</ns3:atemp>
          </ns3:TrackPointExtension>
        </extensions>
      </trkpt>
      <trkpt lat="42.5676079094409942626953125" lon="20.03077271394431591033935546875">
        <ele>2062</ele>
        <time>2026-06-15T12:53:12.000Z</time>
        <extensions>
          <ns3:TrackPointExtension>
            <ns3:atemp>20.0</ns3:atemp>
          </ns3:TrackPointExtension>
        </extensions>
      </trkpt>
      <trkpt lat="42.5676079094409942626953125" lon="20.03077271394431591033935546875">
        <ele>2062</ele>
        <time>2026-06-15T12:53:13.000Z</time>
        <extensions>
          <ns3:TrackPointExtension>
            <ns3:atemp>20.0</ns3:atemp>
          </ns3:TrackPointExtension>
        </extensions>
      </trkpt>
      <trkpt lat="42.5676079094409942626953125" lon="20.03077271394431591033935546875">
        <ele>2062</ele>
        <time>2026-06-15T12:53:14.000Z</time>
        <extensions>
          <ns3:TrackPointExtension>
            <ns3:atemp>20.0</ns3:atemp>
          </ns3:TrackPointExtension>
        </extensions>
      </trkpt>
      <trkpt lat="42.5676079094409942626953125" lon="20.03077271394431591033935546875">
        <ele>2062</ele>
        <time>2026-06-15T12:53:15.000Z</time>
        <extensions>
          <ns3:TrackPointExtension>
            <ns3:atemp>20.0</ns3:atemp>
          </ns3:TrackPointExtension>
        </extensions>
      </trkpt>
      <trkpt lat="42.5676079094409942626953125" lon="20.03077271394431591033935546875">
        <ele>2062</ele>
        <time>2026-06-15T12:53:16.000Z</time>
        <extensions>
          <ns3:TrackPointExtension>
            <ns3:atemp>20.0</ns3:atemp>
          </ns3:TrackPointExtension>
        </extensions>
      </trkpt>
      <trkpt lat="42.5676079094409942626953125" lon="20.03077271394431591033935546875">
        <ele>2062</ele>
        <time>2026-06-15T12:53:17.000Z</time>
        <extensions>
          <ns3:TrackPointExtension>
            <ns3:atemp>20.0</ns3:atemp>
          </ns3:TrackPointExtension>
        </extensions>
      </trkpt>
      <trkpt lat="42.5676079094409942626953125" lon="20.03077271394431591033935546875">
        <ele>2062</ele>
        <time>2026-06-15T12:53:18.000Z</time>
        <extensions>
          <ns3:TrackPointExtension>
            <ns3:atemp>20.0</ns3:atemp>
          </ns3:TrackPointExtension>
        </extensions>
      </trkpt>
      <trkpt lat="42.5676079094409942626953125" lon="20.03077271394431591033935546875">
        <ele>2062</ele>
        <time>2026-06-15T12:53:19.000Z</time>
        <extensions>
          <ns3:TrackPointExtension>
            <ns3:atemp>20.0</ns3:atemp>
          </ns3:TrackPointExtension>
        </extensions>
      </trkpt>
      <trkpt lat="42.5676079094409942626953125" lon="20.03077271394431591033935546875">
        <ele>2062</ele>
        <time>2026-06-15T12:53:20.000Z</time>
        <extensions>
          <ns3:TrackPointExtension>
            <ns3:atemp>20.0</ns3:atemp>
          </ns3:TrackPointExtension>
        </extensions>
      </trkpt>
      <trkpt lat="42.5676079094409942626953125" lon="20.03077271394431591033935546875">
        <ele>2062</ele>
        <time>2026-06-15T12:53:21.000Z</time>
        <extensions>
          <ns3:TrackPointExtension>
            <ns3:atemp>20.0</ns3:atemp>
          </ns3:TrackPointExtension>
        </extensions>
      </trkpt>
      <trkpt lat="42.5676079094409942626953125" lon="20.03077271394431591033935546875">
        <ele>2062</ele>
        <time>2026-06-15T12:53:22.000Z</time>
        <extensions>
          <ns3:TrackPointExtension>
            <ns3:atemp>20.0</ns3:atemp>
          </ns3:TrackPointExtension>
        </extensions>
      </trkpt>
      <trkpt lat="42.5676079094409942626953125" lon="20.03077271394431591033935546875">
        <ele>2062</ele>
        <time>2026-06-15T12:53:23.000Z</time>
        <extensions>
          <ns3:TrackPointExtension>
            <ns3:atemp>20.0</ns3:atemp>
          </ns3:TrackPointExtension>
        </extensions>
      </trkpt>
      <trkpt lat="42.5676079094409942626953125" lon="20.03077271394431591033935546875">
        <ele>2062</ele>
        <time>2026-06-15T12:53:24.000Z</time>
        <extensions>
          <ns3:TrackPointExtension>
            <ns3:atemp>20.0</ns3:atemp>
          </ns3:TrackPointExtension>
        </extensions>
      </trkpt>
      <trkpt lat="42.5676079094409942626953125" lon="20.03077271394431591033935546875">
        <ele>2062</ele>
        <time>2026-06-15T12:53:25.000Z</time>
        <extensions>
          <ns3:TrackPointExtension>
            <ns3:atemp>20.0</ns3:atemp>
          </ns3:TrackPointExtension>
        </extensions>
      </trkpt>
      <trkpt lat="42.5676079094409942626953125" lon="20.03077271394431591033935546875">
        <ele>2062</ele>
        <time>2026-06-15T12:53:26.000Z</time>
        <extensions>
          <ns3:TrackPointExtension>
            <ns3:atemp>20.0</ns3:atemp>
          </ns3:TrackPointExtension>
        </extensions>
      </trkpt>
      <trkpt lat="42.5676079094409942626953125" lon="20.03077271394431591033935546875">
        <ele>2062</ele>
        <time>2026-06-15T12:53:27.000Z</time>
        <extensions>
          <ns3:TrackPointExtension>
            <ns3:atemp>20.0</ns3:atemp>
          </ns3:TrackPointExtension>
        </extensions>
      </trkpt>
      <trkpt lat="42.5676079094409942626953125" lon="20.03077271394431591033935546875">
        <ele>2062</ele>
        <time>2026-06-15T12:53:28.000Z</time>
        <extensions>
          <ns3:TrackPointExtension>
            <ns3:atemp>20.0</ns3:atemp>
          </ns3:TrackPointExtension>
        </extensions>
      </trkpt>
      <trkpt lat="42.5676079094409942626953125" lon="20.03077271394431591033935546875">
        <ele>2062</ele>
        <time>2026-06-15T12:53:29.000Z</time>
        <extensions>
          <ns3:TrackPointExtension>
            <ns3:atemp>20.0</ns3:atemp>
          </ns3:TrackPointExtension>
        </extensions>
      </trkpt>
      <trkpt lat="42.5676079094409942626953125" lon="20.03077271394431591033935546875">
        <ele>2059.199951171875</ele>
        <time>2026-06-15T12:53:30.000Z</time>
        <extensions>
          <ns3:TrackPointExtension>
            <ns3:atemp>20.0</ns3:atemp>
          </ns3:TrackPointExtension>
        </extensions>
      </trkpt>
      <trkpt lat="42.5676079094409942626953125" lon="20.03077271394431591033935546875">
        <ele>2059</ele>
        <time>2026-06-15T12:53:31.000Z</time>
        <extensions>
          <ns3:TrackPointExtension>
            <ns3:atemp>20.0</ns3:atemp>
          </ns3:TrackPointExtension>
        </extensions>
      </trkpt>
      <trkpt lat="42.5676079094409942626953125" lon="20.03077271394431591033935546875">
        <ele>2059</ele>
        <time>2026-06-15T12:53:32.000Z</time>
        <extensions>
          <ns3:TrackPointExtension>
            <ns3:atemp>20.0</ns3:atemp>
          </ns3:TrackPointExtension>
        </extensions>
      </trkpt>
      <trkpt lat="42.5676079094409942626953125" lon="20.03077271394431591033935546875">
        <ele>2059</ele>
        <time>2026-06-15T12:53:33.000Z</time>
        <extensions>
          <ns3:TrackPointExtension>
            <ns3:atemp>20.0</ns3:atemp>
          </ns3:TrackPointExtension>
        </extensions>
      </trkpt>
      <trkpt lat="42.5676079094409942626953125" lon="20.03077271394431591033935546875">
        <ele>2059</ele>
        <time>2026-06-15T12:53:34.000Z</time>
        <extensions>
          <ns3:TrackPointExtension>
            <ns3:atemp>20.0</ns3:atemp>
          </ns3:TrackPointExtension>
        </extensions>
      </trkpt>
      <trkpt lat="42.5676079094409942626953125" lon="20.03077271394431591033935546875">
        <ele>2059.199951171875</ele>
        <time>2026-06-15T12:53:35.000Z</time>
        <extensions>
          <ns3:TrackPointExtension>
            <ns3:atemp>20.0</ns3:atemp>
          </ns3:TrackPointExtension>
        </extensions>
      </trkpt>
      <trkpt lat="42.5676079094409942626953125" lon="20.03077271394431591033935546875">
        <ele>2059.199951171875</ele>
        <time>2026-06-15T12:53:36.000Z</time>
        <extensions>
          <ns3:TrackPointExtension>
            <ns3:atemp>20.0</ns3:atemp>
          </ns3:TrackPointExtension>
        </extensions>
      </trkpt>
      <trkpt lat="42.5676079094409942626953125" lon="20.03077271394431591033935546875">
        <ele>2059.199951171875</ele>
        <time>2026-06-15T12:53:37.000Z</time>
        <extensions>
          <ns3:TrackPointExtension>
            <ns3:atemp>20.0</ns3:atemp>
          </ns3:TrackPointExtension>
        </extensions>
      </trkpt>
      <trkpt lat="42.5676079094409942626953125" lon="20.03077271394431591033935546875">
        <ele>2059.39990234375</ele>
        <time>2026-06-15T12:53:38.000Z</time>
        <extensions>
          <ns3:TrackPointExtension>
            <ns3:atemp>20.0</ns3:atemp>
          </ns3:TrackPointExtension>
        </extensions>
      </trkpt>
      <trkpt lat="42.5676079094409942626953125" lon="20.03077271394431591033935546875">
        <ele>2059.39990234375</ele>
        <time>2026-06-15T12:53:39.000Z</time>
        <extensions>
          <ns3:TrackPointExtension>
            <ns3:atemp>20.0</ns3:atemp>
          </ns3:TrackPointExtension>
        </extensions>
      </trkpt>
      <trkpt lat="42.5676079094409942626953125" lon="20.03077271394431591033935546875">
        <ele>2059.39990234375</ele>
        <time>2026-06-15T12:53:40.000Z</time>
        <extensions>
          <ns3:TrackPointExtension>
            <ns3:atemp>20.0</ns3:atemp>
          </ns3:TrackPointExtension>
        </extensions>
      </trkpt>
      <trkpt lat="42.5676079094409942626953125" lon="20.03077271394431591033935546875">
        <ele>2059.39990234375</ele>
        <time>2026-06-15T12:53:41.000Z</time>
        <extensions>
          <ns3:TrackPointExtension>
            <ns3:atemp>20.0</ns3:atemp>
          </ns3:TrackPointExtension>
        </extensions>
      </trkpt>
      <trkpt lat="42.5676079094409942626953125" lon="20.03077271394431591033935546875">
        <ele>2059.39990234375</ele>
        <time>2026-06-15T12:53:42.000Z</time>
        <extensions>
          <ns3:TrackPointExtension>
            <ns3:atemp>20.0</ns3:atemp>
          </ns3:TrackPointExtension>
        </extensions>
      </trkpt>
      <trkpt lat="42.5676079094409942626953125" lon="20.03077271394431591033935546875">
        <ele>2059.39990234375</ele>
        <time>2026-06-15T12:53:43.000Z</time>
        <extensions>
          <ns3:TrackPointExtension>
            <ns3:atemp>20.0</ns3:atemp>
          </ns3:TrackPointExtension>
        </extensions>
      </trkpt>
      <trkpt lat="42.5676079094409942626953125" lon="20.03077271394431591033935546875">
        <ele>2059.39990234375</ele>
        <time>2026-06-15T12:53:44.000Z</time>
        <extensions>
          <ns3:TrackPointExtension>
            <ns3:atemp>20.0</ns3:atemp>
          </ns3:TrackPointExtension>
        </extensions>
      </trkpt>
      <trkpt lat="42.5676079094409942626953125" lon="20.03077271394431591033935546875">
        <ele>2059.39990234375</ele>
        <time>2026-06-15T12:53:45.000Z</time>
        <extensions>
          <ns3:TrackPointExtension>
            <ns3:atemp>20.0</ns3:atemp>
          </ns3:TrackPointExtension>
        </extensions>
      </trkpt>
      <trkpt lat="42.5676079094409942626953125" lon="20.03077271394431591033935546875">
        <ele>2059.39990234375</ele>
        <time>2026-06-15T12:53:46.000Z</time>
        <extensions>
          <ns3:TrackPointExtension>
            <ns3:atemp>20.0</ns3:atemp>
          </ns3:TrackPointExtension>
        </extensions>
      </trkpt>
      <trkpt lat="42.5676079094409942626953125" lon="20.03077271394431591033935546875">
        <ele>2059.39990234375</ele>
        <time>2026-06-15T12:53:47.000Z</time>
        <extensions>
          <ns3:TrackPointExtension>
            <ns3:atemp>20.0</ns3:atemp>
          </ns3:TrackPointExtension>
        </extensions>
      </trkpt>
      <trkpt lat="42.5676079094409942626953125" lon="20.03077271394431591033935546875">
        <ele>2059.39990234375</ele>
        <time>2026-06-15T12:53:48.000Z</time>
        <extensions>
          <ns3:TrackPointExtension>
            <ns3:atemp>20.0</ns3:atemp>
          </ns3:TrackPointExtension>
        </extensions>
      </trkpt>
      <trkpt lat="42.5676079094409942626953125" lon="20.03077271394431591033935546875">
        <ele>2059.39990234375</ele>
        <time>2026-06-15T12:53:49.000Z</time>
        <extensions>
          <ns3:TrackPointExtension>
            <ns3:atemp>20.0</ns3:atemp>
          </ns3:TrackPointExtension>
        </extensions>
      </trkpt>
      <trkpt lat="42.5676079094409942626953125" lon="20.03077271394431591033935546875">
        <ele>2059.39990234375</ele>
        <time>2026-06-15T12:53:50.000Z</time>
        <extensions>
          <ns3:TrackPointExtension>
            <ns3:atemp>20.0</ns3:atemp>
          </ns3:TrackPointExtension>
        </extensions>
      </trkpt>
      <trkpt lat="42.5676079094409942626953125" lon="20.03077271394431591033935546875">
        <ele>2059.39990234375</ele>
        <time>2026-06-15T12:53:51.000Z</time>
        <extensions>
          <ns3:TrackPointExtension>
            <ns3:atemp>20.0</ns3:atemp>
          </ns3:TrackPointExtension>
        </extensions>
      </trkpt>
      <trkpt lat="42.5676079094409942626953125" lon="20.03077271394431591033935546875">
        <ele>2059.39990234375</ele>
        <time>2026-06-15T12:53:52.000Z</time>
        <extensions>
          <ns3:TrackPointExtension>
            <ns3:atemp>20.0</ns3:atemp>
          </ns3:TrackPointExtension>
        </extensions>
      </trkpt>
      <trkpt lat="42.5676079094409942626953125" lon="20.03077271394431591033935546875">
        <ele>2059.39990234375</ele>
        <time>2026-06-15T12:53:53.000Z</time>
        <extensions>
          <ns3:TrackPointExtension>
            <ns3:atemp>20.0</ns3:atemp>
          </ns3:TrackPointExtension>
        </extensions>
      </trkpt>
      <trkpt lat="42.5676079094409942626953125" lon="20.03077271394431591033935546875">
        <ele>2059.39990234375</ele>
        <time>2026-06-15T12:53:54.000Z</time>
        <extensions>
          <ns3:TrackPointExtension>
            <ns3:atemp>20.0</ns3:atemp>
          </ns3:TrackPointExtension>
        </extensions>
      </trkpt>
      <trkpt lat="42.5676079094409942626953125" lon="20.03077271394431591033935546875">
        <ele>2059.39990234375</ele>
        <time>2026-06-15T12:53:55.000Z</time>
        <extensions>
          <ns3:TrackPointExtension>
            <ns3:atemp>20.0</ns3:atemp>
          </ns3:TrackPointExtension>
        </extensions>
      </trkpt>
      <trkpt lat="42.5676079094409942626953125" lon="20.03077271394431591033935546875">
        <ele>2059.39990234375</ele>
        <time>2026-06-15T12:53:56.000Z</time>
        <extensions>
          <ns3:TrackPointExtension>
            <ns3:atemp>20.0</ns3:atemp>
          </ns3:TrackPointExtension>
        </extensions>
      </trkpt>
      <trkpt lat="42.5676079094409942626953125" lon="20.03077271394431591033935546875">
        <ele>2059.39990234375</ele>
        <time>2026-06-15T12:53:57.000Z</time>
        <extensions>
          <ns3:TrackPointExtension>
            <ns3:atemp>20.0</ns3:atemp>
          </ns3:TrackPointExtension>
        </extensions>
      </trkpt>
      <trkpt lat="42.5676079094409942626953125" lon="20.03077271394431591033935546875">
        <ele>2059.39990234375</ele>
        <time>2026-06-15T12:53:58.000Z</time>
        <extensions>
          <ns3:TrackPointExtension>
            <ns3:atemp>20.0</ns3:atemp>
          </ns3:TrackPointExtension>
        </extensions>
      </trkpt>
      <trkpt lat="42.5676079094409942626953125" lon="20.03077271394431591033935546875">
        <ele>2059.199951171875</ele>
        <time>2026-06-15T12:53:59.000Z</time>
        <extensions>
          <ns3:TrackPointExtension>
            <ns3:atemp>20.0</ns3:atemp>
          </ns3:TrackPointExtension>
        </extensions>
      </trkpt>
      <trkpt lat="42.5676079094409942626953125" lon="20.03077271394431591033935546875">
        <ele>2059.199951171875</ele>
        <time>2026-06-15T12:54:00.000Z</time>
        <extensions>
          <ns3:TrackPointExtension>
            <ns3:atemp>20.0</ns3:atemp>
          </ns3:TrackPointExtension>
        </extensions>
      </trkpt>
      <trkpt lat="42.5676079094409942626953125" lon="20.03077271394431591033935546875">
        <ele>2059.199951171875</ele>
        <time>2026-06-15T12:54:01.000Z</time>
        <extensions>
          <ns3:TrackPointExtension>
            <ns3:atemp>20.0</ns3:atemp>
          </ns3:TrackPointExtension>
        </extensions>
      </trkpt>
      <trkpt lat="42.5676079094409942626953125" lon="20.03077271394431591033935546875">
        <ele>2059.199951171875</ele>
        <time>2026-06-15T12:54:02.000Z</time>
        <extensions>
          <ns3:TrackPointExtension>
            <ns3:atemp>20.0</ns3:atemp>
          </ns3:TrackPointExtension>
        </extensions>
      </trkpt>
      <trkpt lat="42.5676079094409942626953125" lon="20.03077271394431591033935546875">
        <ele>2059.199951171875</ele>
        <time>2026-06-15T12:54:03.000Z</time>
        <extensions>
          <ns3:TrackPointExtension>
            <ns3:atemp>20.0</ns3:atemp>
          </ns3:TrackPointExtension>
        </extensions>
      </trkpt>
      <trkpt lat="42.5676079094409942626953125" lon="20.03077271394431591033935546875">
        <ele>2059.199951171875</ele>
        <time>2026-06-15T12:54:04.000Z</time>
        <extensions>
          <ns3:TrackPointExtension>
            <ns3:atemp>20.0</ns3:atemp>
          </ns3:TrackPointExtension>
        </extensions>
      </trkpt>
      <trkpt lat="42.5676079094409942626953125" lon="20.03077271394431591033935546875">
        <ele>2059</ele>
        <time>2026-06-15T12:54:05.000Z</time>
        <extensions>
          <ns3:TrackPointExtension>
            <ns3:atemp>20.0</ns3:atemp>
          </ns3:TrackPointExtension>
        </extensions>
      </trkpt>
      <trkpt lat="42.5676079094409942626953125" lon="20.03077271394431591033935546875">
        <ele>2059</ele>
        <time>2026-06-15T12:54:06.000Z</time>
        <extensions>
          <ns3:TrackPointExtension>
            <ns3:atemp>20.0</ns3:atemp>
          </ns3:TrackPointExtension>
        </extensions>
      </trkpt>
      <trkpt lat="42.5676079094409942626953125" lon="20.03077271394431591033935546875">
        <ele>2059</ele>
        <time>2026-06-15T12:54:07.000Z</time>
        <extensions>
          <ns3:TrackPointExtension>
            <ns3:atemp>20.0</ns3:atemp>
          </ns3:TrackPointExtension>
        </extensions>
      </trkpt>
      <trkpt lat="42.5676079094409942626953125" lon="20.03077271394431591033935546875">
        <ele>2059</ele>
        <time>2026-06-15T12:54:08.000Z</time>
        <extensions>
          <ns3:TrackPointExtension>
            <ns3:atemp>20.0</ns3:atemp>
          </ns3:TrackPointExtension>
        </extensions>
      </trkpt>
      <trkpt lat="42.5676079094409942626953125" lon="20.03077271394431591033935546875">
        <ele>2059</ele>
        <time>2026-06-15T12:54:09.000Z</time>
        <extensions>
          <ns3:TrackPointExtension>
            <ns3:atemp>20.0</ns3:atemp>
          </ns3:TrackPointExtension>
        </extensions>
      </trkpt>
      <trkpt lat="42.5676079094409942626953125" lon="20.03077271394431591033935546875">
        <ele>2059</ele>
        <time>2026-06-15T12:54:10.000Z</time>
        <extensions>
          <ns3:TrackPointExtension>
            <ns3:atemp>20.0</ns3:atemp>
          </ns3:TrackPointExtension>
        </extensions>
      </trkpt>
      <trkpt lat="42.5676079094409942626953125" lon="20.03077271394431591033935546875">
        <ele>2059</ele>
        <time>2026-06-15T12:54:11.000Z</time>
        <extensions>
          <ns3:TrackPointExtension>
            <ns3:atemp>20.0</ns3:atemp>
          </ns3:TrackPointExtension>
        </extensions>
      </trkpt>
      <trkpt lat="42.5676079094409942626953125" lon="20.03077271394431591033935546875">
        <ele>2059</ele>
        <time>2026-06-15T12:54:12.000Z</time>
        <extensions>
          <ns3:TrackPointExtension>
            <ns3:atemp>20.0</ns3:atemp>
          </ns3:TrackPointExtension>
        </extensions>
      </trkpt>
      <trkpt lat="42.5676079094409942626953125" lon="20.03077271394431591033935546875">
        <ele>2059</ele>
        <time>2026-06-15T12:54:13.000Z</time>
        <extensions>
          <ns3:TrackPointExtension>
            <ns3:atemp>20.0</ns3:atemp>
          </ns3:TrackPointExtension>
        </extensions>
      </trkpt>
      <trkpt lat="42.5676079094409942626953125" lon="20.03077271394431591033935546875">
        <ele>2059</ele>
        <time>2026-06-15T12:54:14.000Z</time>
        <extensions>
          <ns3:TrackPointExtension>
            <ns3:atemp>20.0</ns3:atemp>
          </ns3:TrackPointExtension>
        </extensions>
      </trkpt>
      <trkpt lat="42.5676079094409942626953125" lon="20.03077271394431591033935546875">
        <ele>2059</ele>
        <time>2026-06-15T12:54:15.000Z</time>
        <extensions>
          <ns3:TrackPointExtension>
            <ns3:atemp>20.0</ns3:atemp>
          </ns3:TrackPointExtension>
        </extensions>
      </trkpt>
      <trkpt lat="42.5676079094409942626953125" lon="20.03077271394431591033935546875">
        <ele>2059</ele>
        <time>2026-06-15T12:54:16.000Z</time>
        <extensions>
          <ns3:TrackPointExtension>
            <ns3:atemp>20.0</ns3:atemp>
          </ns3:TrackPointExtension>
        </extensions>
      </trkpt>
      <trkpt lat="42.5676079094409942626953125" lon="20.03077271394431591033935546875">
        <ele>2059</ele>
        <time>2026-06-15T12:54:17.000Z</time>
        <extensions>
          <ns3:TrackPointExtension>
            <ns3:atemp>20.0</ns3:atemp>
          </ns3:TrackPointExtension>
        </extensions>
      </trkpt>
      <trkpt lat="42.5676079094409942626953125" lon="20.03077271394431591033935546875">
        <ele>2059</ele>
        <time>2026-06-15T12:54:18.000Z</time>
        <extensions>
          <ns3:TrackPointExtension>
            <ns3:atemp>20.0</ns3:atemp>
          </ns3:TrackPointExtension>
        </extensions>
      </trkpt>
      <trkpt lat="42.5676079094409942626953125" lon="20.03077271394431591033935546875">
        <ele>2059</ele>
        <time>2026-06-15T12:54:19.000Z</time>
        <extensions>
          <ns3:TrackPointExtension>
            <ns3:atemp>20.0</ns3:atemp>
          </ns3:TrackPointExtension>
        </extensions>
      </trkpt>
      <trkpt lat="42.5676079094409942626953125" lon="20.03077271394431591033935546875">
        <ele>2059</ele>
        <time>2026-06-15T12:54:20.000Z</time>
        <extensions>
          <ns3:TrackPointExtension>
            <ns3:atemp>20.0</ns3:atemp>
          </ns3:TrackPointExtension>
        </extensions>
      </trkpt>
      <trkpt lat="42.5676079094409942626953125" lon="20.03077271394431591033935546875">
        <ele>2059</ele>
        <time>2026-06-15T12:54:21.000Z</time>
        <extensions>
          <ns3:TrackPointExtension>
            <ns3:atemp>20.0</ns3:atemp>
          </ns3:TrackPointExtension>
        </extensions>
      </trkpt>
      <trkpt lat="42.5676079094409942626953125" lon="20.03077271394431591033935546875">
        <ele>2059.199951171875</ele>
        <time>2026-06-15T12:54:22.000Z</time>
        <extensions>
          <ns3:TrackPointExtension>
            <ns3:atemp>20.0</ns3:atemp>
          </ns3:TrackPointExtension>
        </extensions>
      </trkpt>
      <trkpt lat="42.5676079094409942626953125" lon="20.03077271394431591033935546875">
        <ele>2059.199951171875</ele>
        <time>2026-06-15T12:54:23.000Z</time>
        <extensions>
          <ns3:TrackPointExtension>
            <ns3:atemp>20.0</ns3:atemp>
          </ns3:TrackPointExtension>
        </extensions>
      </trkpt>
      <trkpt lat="42.5676079094409942626953125" lon="20.03077271394431591033935546875">
        <ele>2059.199951171875</ele>
        <time>2026-06-15T12:54:24.000Z</time>
        <extensions>
          <ns3:TrackPointExtension>
            <ns3:atemp>20.0</ns3:atemp>
          </ns3:TrackPointExtension>
        </extensions>
      </trkpt>
      <trkpt lat="42.5676079094409942626953125" lon="20.03077271394431591033935546875">
        <ele>2059.39990234375</ele>
        <time>2026-06-15T12:54:25.000Z</time>
        <extensions>
          <ns3:TrackPointExtension>
            <ns3:atemp>20.0</ns3:atemp>
          </ns3:TrackPointExtension>
        </extensions>
      </trkpt>
      <trkpt lat="42.5676079094409942626953125" lon="20.03077271394431591033935546875">
        <ele>2059.39990234375</ele>
        <time>2026-06-15T12:54:26.000Z</time>
        <extensions>
          <ns3:TrackPointExtension>
            <ns3:atemp>20.0</ns3:atemp>
          </ns3:TrackPointExtension>
        </extensions>
      </trkpt>
      <trkpt lat="42.5676079094409942626953125" lon="20.03077271394431591033935546875">
        <ele>2059.39990234375</ele>
        <time>2026-06-15T12:54:27.000Z</time>
        <extensions>
          <ns3:TrackPointExtension>
            <ns3:atemp>20.0</ns3:atemp>
          </ns3:TrackPointExtension>
        </extensions>
      </trkpt>
      <trkpt lat="42.5676079094409942626953125" lon="20.03077271394431591033935546875">
        <ele>2059.39990234375</ele>
        <time>2026-06-15T12:54:28.000Z</time>
        <extensions>
          <ns3:TrackPointExtension>
            <ns3:atemp>20.0</ns3:atemp>
          </ns3:TrackPointExtension>
        </extensions>
      </trkpt>
      <trkpt lat="42.5676079094409942626953125" lon="20.03077271394431591033935546875">
        <ele>2059.39990234375</ele>
        <time>2026-06-15T12:54:29.000Z</time>
        <extensions>
          <ns3:TrackPointExtension>
            <ns3:atemp>20.0</ns3:atemp>
          </ns3:TrackPointExtension>
        </extensions>
      </trkpt>
      <trkpt lat="42.5676079094409942626953125" lon="20.03077271394431591033935546875">
        <ele>2059.39990234375</ele>
        <time>2026-06-15T12:54:30.000Z</time>
        <extensions>
          <ns3:TrackPointExtension>
            <ns3:atemp>20.0</ns3:atemp>
          </ns3:TrackPointExtension>
        </extensions>
      </trkpt>
      <trkpt lat="42.56760983727872371673583984375" lon="20.03077371977269649505615234375">
        <ele>2059.39990234375</ele>
        <time>2026-06-15T12:54:31.000Z</time>
        <extensions>
          <ns3:TrackPointExtension>
            <ns3:atemp>20.0</ns3:atemp>
          </ns3:TrackPointExtension>
        </extensions>
      </trkpt>
      <trkpt lat="42.5676079094409942626953125" lon="20.03077271394431591033935546875">
        <ele>2059.39990234375</ele>
        <time>2026-06-15T12:54:32.000Z</time>
        <extensions>
          <ns3:TrackPointExtension>
            <ns3:atemp>20.0</ns3:atemp>
          </ns3:TrackPointExtension>
        </extensions>
      </trkpt>
      <trkpt lat="42.5676079094409942626953125" lon="20.03077271394431591033935546875">
        <ele>2059.39990234375</ele>
        <time>2026-06-15T12:54:33.000Z</time>
        <extensions>
          <ns3:TrackPointExtension>
            <ns3:atemp>20.0</ns3:atemp>
          </ns3:TrackPointExtension>
        </extensions>
      </trkpt>
      <trkpt lat="42.5676079094409942626953125" lon="20.03077271394431591033935546875">
        <ele>2059.39990234375</ele>
        <time>2026-06-15T12:54:34.000Z</time>
        <extensions>
          <ns3:TrackPointExtension>
            <ns3:atemp>20.0</ns3:atemp>
          </ns3:TrackPointExtension>
        </extensions>
      </trkpt>
      <trkpt lat="42.5676079094409942626953125" lon="20.03077271394431591033935546875">
        <ele>2059.39990234375</ele>
        <time>2026-06-15T12:54:35.000Z</time>
        <extensions>
          <ns3:TrackPointExtension>
            <ns3:atemp>20.0</ns3:atemp>
          </ns3:TrackPointExtension>
        </extensions>
      </trkpt>
      <trkpt lat="42.5676079094409942626953125" lon="20.03077271394431591033935546875">
        <ele>2059.39990234375</ele>
        <time>2026-06-15T12:54:36.000Z</time>
        <extensions>
          <ns3:TrackPointExtension>
            <ns3:atemp>20.0</ns3:atemp>
          </ns3:TrackPointExtension>
        </extensions>
      </trkpt>
      <trkpt lat="42.5676079094409942626953125" lon="20.03077271394431591033935546875">
        <ele>2059.39990234375</ele>
        <time>2026-06-15T12:54:37.000Z</time>
        <extensions>
          <ns3:TrackPointExtension>
            <ns3:atemp>20.0</ns3:atemp>
          </ns3:TrackPointExtension>
        </extensions>
      </trkpt>
      <trkpt lat="42.5676079094409942626953125" lon="20.03077271394431591033935546875">
        <ele>2059.39990234375</ele>
        <time>2026-06-15T12:54:38.000Z</time>
        <extensions>
          <ns3:TrackPointExtension>
            <ns3:atemp>20.0</ns3:atemp>
          </ns3:TrackPointExtension>
        </extensions>
      </trkpt>
      <trkpt lat="42.5676079094409942626953125" lon="20.03077271394431591033935546875">
        <ele>2059.39990234375</ele>
        <time>2026-06-15T12:54:39.000Z</time>
        <extensions>
          <ns3:TrackPointExtension>
            <ns3:atemp>20.0</ns3:atemp>
          </ns3:TrackPointExtension>
        </extensions>
      </trkpt>
      <trkpt lat="42.5676079094409942626953125" lon="20.03077271394431591033935546875">
        <ele>2059.39990234375</ele>
        <time>2026-06-15T12:54:40.000Z</time>
        <extensions>
          <ns3:TrackPointExtension>
            <ns3:atemp>20.0</ns3:atemp>
          </ns3:TrackPointExtension>
        </extensions>
      </trkpt>
      <trkpt lat="42.5676079094409942626953125" lon="20.03077271394431591033935546875">
        <ele>2059.39990234375</ele>
        <time>2026-06-15T12:54:41.000Z</time>
        <extensions>
          <ns3:TrackPointExtension>
            <ns3:atemp>20.0</ns3:atemp>
          </ns3:TrackPointExtension>
        </extensions>
      </trkpt>
      <trkpt lat="42.5676079094409942626953125" lon="20.03077271394431591033935546875">
        <ele>2059.39990234375</ele>
        <time>2026-06-15T12:54:42.000Z</time>
        <extensions>
          <ns3:TrackPointExtension>
            <ns3:atemp>20.0</ns3:atemp>
          </ns3:TrackPointExtension>
        </extensions>
      </trkpt>
      <trkpt lat="42.5676079094409942626953125" lon="20.03077271394431591033935546875">
        <ele>2059.39990234375</ele>
        <time>2026-06-15T12:54:43.000Z</time>
        <extensions>
          <ns3:TrackPointExtension>
            <ns3:atemp>20.0</ns3:atemp>
          </ns3:TrackPointExtension>
        </extensions>
      </trkpt>
      <trkpt lat="42.5676079094409942626953125" lon="20.03077271394431591033935546875">
        <ele>2059.39990234375</ele>
        <time>2026-06-15T12:54:44.000Z</time>
        <extensions>
          <ns3:TrackPointExtension>
            <ns3:atemp>20.0</ns3:atemp>
          </ns3:TrackPointExtension>
        </extensions>
      </trkpt>
      <trkpt lat="42.5676079094409942626953125" lon="20.03077271394431591033935546875">
        <ele>2059.39990234375</ele>
        <time>2026-06-15T12:54:45.000Z</time>
        <extensions>
          <ns3:TrackPointExtension>
            <ns3:atemp>20.0</ns3:atemp>
          </ns3:TrackPointExtension>
        </extensions>
      </trkpt>
      <trkpt lat="42.5676079094409942626953125" lon="20.03077271394431591033935546875">
        <ele>2059.39990234375</ele>
        <time>2026-06-15T12:54:46.000Z</time>
        <extensions>
          <ns3:TrackPointExtension>
            <ns3:atemp>20.0</ns3:atemp>
          </ns3:TrackPointExtension>
        </extensions>
      </trkpt>
      <trkpt lat="42.5676079094409942626953125" lon="20.03077271394431591033935546875">
        <ele>2059.39990234375</ele>
        <time>2026-06-15T12:54:47.000Z</time>
        <extensions>
          <ns3:TrackPointExtension>
            <ns3:atemp>20.0</ns3:atemp>
          </ns3:TrackPointExtension>
        </extensions>
      </trkpt>
      <trkpt lat="42.5676079094409942626953125" lon="20.03077271394431591033935546875">
        <ele>2059.39990234375</ele>
        <time>2026-06-15T12:54:48.000Z</time>
        <extensions>
          <ns3:TrackPointExtension>
            <ns3:atemp>20.0</ns3:atemp>
          </ns3:TrackPointExtension>
        </extensions>
      </trkpt>
      <trkpt lat="42.5676079094409942626953125" lon="20.03077271394431591033935546875">
        <ele>2059.39990234375</ele>
        <time>2026-06-15T12:54:49.000Z</time>
        <extensions>
          <ns3:TrackPointExtension>
            <ns3:atemp>20.0</ns3:atemp>
          </ns3:TrackPointExtension>
        </extensions>
      </trkpt>
      <trkpt lat="42.5676079094409942626953125" lon="20.03077271394431591033935546875">
        <ele>2059.39990234375</ele>
        <time>2026-06-15T12:54:50.000Z</time>
        <extensions>
          <ns3:TrackPointExtension>
            <ns3:atemp>20.0</ns3:atemp>
          </ns3:TrackPointExtension>
        </extensions>
      </trkpt>
      <trkpt lat="42.5676079094409942626953125" lon="20.03077271394431591033935546875">
        <ele>2059.39990234375</ele>
        <time>2026-06-15T12:54:51.000Z</time>
        <extensions>
          <ns3:TrackPointExtension>
            <ns3:atemp>20.0</ns3:atemp>
          </ns3:TrackPointExtension>
        </extensions>
      </trkpt>
      <trkpt lat="42.5676079094409942626953125" lon="20.03077271394431591033935546875">
        <ele>2059.39990234375</ele>
        <time>2026-06-15T12:54:52.000Z</time>
        <extensions>
          <ns3:TrackPointExtension>
            <ns3:atemp>20.0</ns3:atemp>
          </ns3:TrackPointExtension>
        </extensions>
      </trkpt>
      <trkpt lat="42.5676079094409942626953125" lon="20.03077271394431591033935546875">
        <ele>2059.39990234375</ele>
        <time>2026-06-15T12:54:53.000Z</time>
        <extensions>
          <ns3:TrackPointExtension>
            <ns3:atemp>20.0</ns3:atemp>
          </ns3:TrackPointExtension>
        </extensions>
      </trkpt>
      <trkpt lat="42.5676079094409942626953125" lon="20.03077271394431591033935546875">
        <ele>2059.39990234375</ele>
        <time>2026-06-15T12:54:54.000Z</time>
        <extensions>
          <ns3:TrackPointExtension>
            <ns3:atemp>20.0</ns3:atemp>
          </ns3:TrackPointExtension>
        </extensions>
      </trkpt>
      <trkpt lat="42.5676079094409942626953125" lon="20.03077271394431591033935546875">
        <ele>2059.39990234375</ele>
        <time>2026-06-15T12:54:55.000Z</time>
        <extensions>
          <ns3:TrackPointExtension>
            <ns3:atemp>20.0</ns3:atemp>
          </ns3:TrackPointExtension>
        </extensions>
      </trkpt>
      <trkpt lat="42.5676079094409942626953125" lon="20.03077271394431591033935546875">
        <ele>2059.39990234375</ele>
        <time>2026-06-15T12:54:56.000Z</time>
        <extensions>
          <ns3:TrackPointExtension>
            <ns3:atemp>20.0</ns3:atemp>
          </ns3:TrackPointExtension>
        </extensions>
      </trkpt>
      <trkpt lat="42.5676079094409942626953125" lon="20.03077271394431591033935546875">
        <ele>2059.39990234375</ele>
        <time>2026-06-15T12:54:57.000Z</time>
        <extensions>
          <ns3:TrackPointExtension>
            <ns3:atemp>20.0</ns3:atemp>
          </ns3:TrackPointExtension>
        </extensions>
      </trkpt>
      <trkpt lat="42.5676079094409942626953125" lon="20.03077271394431591033935546875">
        <ele>2059.39990234375</ele>
        <time>2026-06-15T12:54:58.000Z</time>
        <extensions>
          <ns3:TrackPointExtension>
            <ns3:atemp>20.0</ns3:atemp>
          </ns3:TrackPointExtension>
        </extensions>
      </trkpt>
      <trkpt lat="42.5676079094409942626953125" lon="20.03077271394431591033935546875">
        <ele>2059.39990234375</ele>
        <time>2026-06-15T12:54:59.000Z</time>
        <extensions>
          <ns3:TrackPointExtension>
            <ns3:atemp>20.0</ns3:atemp>
          </ns3:TrackPointExtension>
        </extensions>
      </trkpt>
      <trkpt lat="42.5676079094409942626953125" lon="20.03077271394431591033935546875">
        <ele>2059.39990234375</ele>
        <time>2026-06-15T12:55:00.000Z</time>
        <extensions>
          <ns3:TrackPointExtension>
            <ns3:atemp>20.0</ns3:atemp>
          </ns3:TrackPointExtension>
        </extensions>
      </trkpt>
      <trkpt lat="42.5676079094409942626953125" lon="20.03077271394431591033935546875">
        <ele>2059.39990234375</ele>
        <time>2026-06-15T12:55:01.000Z</time>
        <extensions>
          <ns3:TrackPointExtension>
            <ns3:atemp>20.0</ns3:atemp>
          </ns3:TrackPointExtension>
        </extensions>
      </trkpt>
      <trkpt lat="42.5676124356687068939208984375" lon="20.03077355213463306427001953125">
        <ele>2059.39990234375</ele>
        <time>2026-06-15T12:55:02.000Z</time>
        <extensions>
          <ns3:TrackPointExtension>
            <ns3:atemp>20.0</ns3:atemp>
          </ns3:TrackPointExtension>
        </extensions>
      </trkpt>
      <trkpt lat="42.5676079094409942626953125" lon="20.03077271394431591033935546875">
        <ele>2059.39990234375</ele>
        <time>2026-06-15T12:55:03.000Z</time>
        <extensions>
          <ns3:TrackPointExtension>
            <ns3:atemp>20.0</ns3:atemp>
          </ns3:TrackPointExtension>
        </extensions>
      </trkpt>
      <trkpt lat="42.5676079094409942626953125" lon="20.03077271394431591033935546875">
        <ele>2059.39990234375</ele>
        <time>2026-06-15T12:55:04.000Z</time>
        <extensions>
          <ns3:TrackPointExtension>
            <ns3:atemp>20.0</ns3:atemp>
          </ns3:TrackPointExtension>
        </extensions>
      </trkpt>
      <trkpt lat="42.5676079094409942626953125" lon="20.03077271394431591033935546875">
        <ele>2059.39990234375</ele>
        <time>2026-06-15T12:55:05.000Z</time>
        <extensions>
          <ns3:TrackPointExtension>
            <ns3:atemp>20.0</ns3:atemp>
          </ns3:TrackPointExtension>
        </extensions>
      </trkpt>
      <trkpt lat="42.5676079094409942626953125" lon="20.03077271394431591033935546875">
        <ele>2059.39990234375</ele>
        <time>2026-06-15T12:55:06.000Z</time>
        <extensions>
          <ns3:TrackPointExtension>
            <ns3:atemp>20.0</ns3:atemp>
          </ns3:TrackPointExtension>
        </extensions>
      </trkpt>
      <trkpt lat="42.5676079094409942626953125" lon="20.03077271394431591033935546875">
        <ele>2059.39990234375</ele>
        <time>2026-06-15T12:55:07.000Z</time>
        <extensions>
          <ns3:TrackPointExtension>
            <ns3:atemp>20.0</ns3:atemp>
          </ns3:TrackPointExtension>
        </extensions>
      </trkpt>
      <trkpt lat="42.5676079094409942626953125" lon="20.03077271394431591033935546875">
        <ele>2059.39990234375</ele>
        <time>2026-06-15T12:55:08.000Z</time>
        <extensions>
          <ns3:TrackPointExtension>
            <ns3:atemp>20.0</ns3:atemp>
          </ns3:TrackPointExtension>
        </extensions>
      </trkpt>
      <trkpt lat="42.5676079094409942626953125" lon="20.03077271394431591033935546875">
        <ele>2059.39990234375</ele>
        <time>2026-06-15T12:55:09.000Z</time>
        <extensions>
          <ns3:TrackPointExtension>
            <ns3:atemp>20.0</ns3:atemp>
          </ns3:TrackPointExtension>
        </extensions>
      </trkpt>
      <trkpt lat="42.5676079094409942626953125" lon="20.03077271394431591033935546875">
        <ele>2059.39990234375</ele>
        <time>2026-06-15T12:55:10.000Z</time>
        <extensions>
          <ns3:TrackPointExtension>
            <ns3:atemp>20.0</ns3:atemp>
          </ns3:TrackPointExtension>
        </extensions>
      </trkpt>
      <trkpt lat="42.5676079094409942626953125" lon="20.03077271394431591033935546875">
        <ele>2059.39990234375</ele>
        <time>2026-06-15T12:55:11.000Z</time>
        <extensions>
          <ns3:TrackPointExtension>
            <ns3:atemp>20.0</ns3:atemp>
          </ns3:TrackPointExtension>
        </extensions>
      </trkpt>
      <trkpt lat="42.5676079094409942626953125" lon="20.03077271394431591033935546875">
        <ele>2059.39990234375</ele>
        <time>2026-06-15T12:55:12.000Z</time>
        <extensions>
          <ns3:TrackPointExtension>
            <ns3:atemp>20.0</ns3:atemp>
          </ns3:TrackPointExtension>
        </extensions>
      </trkpt>
      <trkpt lat="42.5676079094409942626953125" lon="20.03077271394431591033935546875">
        <ele>2059.39990234375</ele>
        <time>2026-06-15T12:55:13.000Z</time>
        <extensions>
          <ns3:TrackPointExtension>
            <ns3:atemp>20.0</ns3:atemp>
          </ns3:TrackPointExtension>
        </extensions>
      </trkpt>
      <trkpt lat="42.5676079094409942626953125" lon="20.03077271394431591033935546875">
        <ele>2059.39990234375</ele>
        <time>2026-06-15T12:55:14.000Z</time>
        <extensions>
          <ns3:TrackPointExtension>
            <ns3:atemp>20.0</ns3:atemp>
          </ns3:TrackPointExtension>
        </extensions>
      </trkpt>
      <trkpt lat="42.5676079094409942626953125" lon="20.03077271394431591033935546875">
        <ele>2059.39990234375</ele>
        <time>2026-06-15T12:55:15.000Z</time>
        <extensions>
          <ns3:TrackPointExtension>
            <ns3:atemp>20.0</ns3:atemp>
          </ns3:TrackPointExtension>
        </extensions>
      </trkpt>
      <trkpt lat="42.5676079094409942626953125" lon="20.03077271394431591033935546875">
        <ele>2059.39990234375</ele>
        <time>2026-06-15T12:55:16.000Z</time>
        <extensions>
          <ns3:TrackPointExtension>
            <ns3:atemp>20.0</ns3:atemp>
          </ns3:TrackPointExtension>
        </extensions>
      </trkpt>
      <trkpt lat="42.5676079094409942626953125" lon="20.03077271394431591033935546875">
        <ele>2059.39990234375</ele>
        <time>2026-06-15T12:55:17.000Z</time>
        <extensions>
          <ns3:TrackPointExtension>
            <ns3:atemp>20.0</ns3:atemp>
          </ns3:TrackPointExtension>
        </extensions>
      </trkpt>
      <trkpt lat="42.5676079094409942626953125" lon="20.03077271394431591033935546875">
        <ele>2059.39990234375</ele>
        <time>2026-06-15T12:55:18.000Z</time>
        <extensions>
          <ns3:TrackPointExtension>
            <ns3:atemp>20.0</ns3:atemp>
          </ns3:TrackPointExtension>
        </extensions>
      </trkpt>
      <trkpt lat="42.56761654280126094818115234375" lon="20.030778162181377410888671875">
        <ele>2059.39990234375</ele>
        <time>2026-06-15T12:55:19.000Z</time>
        <extensions>
          <ns3:TrackPointExtension>
            <ns3:atemp>20.0</ns3:atemp>
          </ns3:TrackPointExtension>
        </extensions>
      </trkpt>
      <trkpt lat="42.56761922501027584075927734375" lon="20.03076433204114437103271484375">
        <ele>2059.39990234375</ele>
        <time>2026-06-15T12:55:20.000Z</time>
        <extensions>
          <ns3:TrackPointExtension>
            <ns3:atemp>20.0</ns3:atemp>
          </ns3:TrackPointExtension>
        </extensions>
      </trkpt>
      <trkpt lat="42.567622661590576171875" lon="20.03075645305216312408447265625">
        <ele>2059.39990234375</ele>
        <time>2026-06-15T12:55:21.000Z</time>
        <extensions>
          <ns3:TrackPointExtension>
            <ns3:atemp>20.0</ns3:atemp>
          </ns3:TrackPointExtension>
        </extensions>
      </trkpt>
      <trkpt lat="42.56762207485735416412353515625" lon="20.03074832260608673095703125">
        <ele>2059.39990234375</ele>
        <time>2026-06-15T12:55:22.000Z</time>
        <extensions>
          <ns3:TrackPointExtension>
            <ns3:atemp>20.0</ns3:atemp>
          </ns3:TrackPointExtension>
        </extensions>
      </trkpt>
      <trkpt lat="42.5676184706389904022216796875" lon="20.03073985688388347625732421875">
        <ele>2059.39990234375</ele>
        <time>2026-06-15T12:55:23.000Z</time>
        <extensions>
          <ns3:TrackPointExtension>
            <ns3:atemp>20.0</ns3:atemp>
          </ns3:TrackPointExtension>
        </extensions>
      </trkpt>
      <trkpt lat="42.56761754862964153289794921875" lon="20.03072426654398441314697265625">
        <ele>2059.199951171875</ele>
        <time>2026-06-15T12:55:24.000Z</time>
        <extensions>
          <ns3:TrackPointExtension>
            <ns3:atemp>20.0</ns3:atemp>
          </ns3:TrackPointExtension>
        </extensions>
      </trkpt>
      <trkpt lat="42.567620985209941864013671875" lon="20.03070699982345104217529296875">
        <ele>2059.199951171875</ele>
        <time>2026-06-15T12:55:25.000Z</time>
        <extensions>
          <ns3:TrackPointExtension>
            <ns3:atemp>20.0</ns3:atemp>
          </ns3:TrackPointExtension>
        </extensions>
      </trkpt>
      <trkpt lat="42.56762810982763767242431640625" lon="20.03068906255066394805908203125">
        <ele>2059.199951171875</ele>
        <time>2026-06-15T12:55:26.000Z</time>
        <extensions>
          <ns3:TrackPointExtension>
            <ns3:atemp>20.0</ns3:atemp>
          </ns3:TrackPointExtension>
        </extensions>
      </trkpt>
      <trkpt lat="42.56763984449207782745361328125" lon="20.0306713767349720001220703125">
        <ele>2059</ele>
        <time>2026-06-15T12:55:27.000Z</time>
        <extensions>
          <ns3:TrackPointExtension>
            <ns3:atemp>20.0</ns3:atemp>
          </ns3:TrackPointExtension>
        </extensions>
      </trkpt>
      <trkpt lat="42.56765459664165973663330078125" lon="20.030655451118946075439453125">
        <ele>2058.800048828125</ele>
        <time>2026-06-15T12:55:28.000Z</time>
        <extensions>
          <ns3:TrackPointExtension>
            <ns3:atemp>20.0</ns3:atemp>
          </ns3:TrackPointExtension>
        </extensions>
      </trkpt>
      <trkpt lat="42.56767270155251026153564453125" lon="20.03064815886318683624267578125">
        <ele>2058.60009765625</ele>
        <time>2026-06-15T12:55:29.000Z</time>
        <extensions>
          <ns3:TrackPointExtension>
            <ns3:atemp>20.0</ns3:atemp>
          </ns3:TrackPointExtension>
        </extensions>
      </trkpt>
      <trkpt lat="42.56769751198589801788330078125" lon="20.0306412018835544586181640625">
        <ele>2058.39990234375</ele>
        <time>2026-06-15T12:55:30.000Z</time>
        <extensions>
          <ns3:TrackPointExtension>
            <ns3:atemp>20.0</ns3:atemp>
          </ns3:TrackPointExtension>
        </extensions>
      </trkpt>
      <trkpt lat="42.56773154251277446746826171875" lon="20.030633322894573211669921875">
        <ele>2058.199951171875</ele>
        <time>2026-06-15T12:55:31.000Z</time>
        <extensions>
          <ns3:TrackPointExtension>
            <ns3:atemp>20.0</ns3:atemp>
          </ns3:TrackPointExtension>
        </extensions>
      </trkpt>
      <trkpt lat="42.56776683032512664794921875" lon="20.03062762320041656494140625">
        <ele>2058</ele>
        <time>2026-06-15T12:55:32.000Z</time>
        <extensions>
          <ns3:TrackPointExtension>
            <ns3:atemp>20.0</ns3:atemp>
          </ns3:TrackPointExtension>
        </extensions>
      </trkpt>
      <trkpt lat="42.5678001902997493743896484375" lon="20.0306274555623531341552734375">
        <ele>2057.60009765625</ele>
        <time>2026-06-15T12:55:33.000Z</time>
        <extensions>
          <ns3:TrackPointExtension>
            <ns3:atemp>20.0</ns3:atemp>
          </ns3:TrackPointExtension>
        </extensions>
      </trkpt>
      <trkpt lat="42.56783765740692615509033203125" lon="20.0306257791817188262939453125">
        <ele>2057.39990234375</ele>
        <time>2026-06-15T12:55:34.000Z</time>
        <extensions>
          <ns3:TrackPointExtension>
            <ns3:atemp>20.0</ns3:atemp>
          </ns3:TrackPointExtension>
        </extensions>
      </trkpt>
      <trkpt lat="42.5678729452192783355712890625" lon="20.0306200794875621795654296875">
        <ele>2057</ele>
        <time>2026-06-15T12:55:35.000Z</time>
        <extensions>
          <ns3:TrackPointExtension>
            <ns3:atemp>20.0</ns3:atemp>
          </ns3:TrackPointExtension>
        </extensions>
      </trkpt>
      <trkpt lat="42.56791041232645511627197265625" lon="20.03061379306018352508544921875">
        <ele>2056.60009765625</ele>
        <time>2026-06-15T12:55:36.000Z</time>
        <extensions>
          <ns3:TrackPointExtension>
            <ns3:atemp>20.0</ns3:atemp>
          </ns3:TrackPointExtension>
        </extensions>
      </trkpt>
      <trkpt lat="42.567953579127788543701171875" lon="20.03060557879507541656494140625">
        <ele>2056.39990234375</ele>
        <time>2026-06-15T12:55:37.000Z</time>
        <extensions>
          <ns3:TrackPointExtension>
            <ns3:atemp>20.0</ns3:atemp>
          </ns3:TrackPointExtension>
        </extensions>
      </trkpt>
      <trkpt lat="42.56800127215683460235595703125" lon="20.03059141337871551513671875">
        <ele>2056</ele>
        <time>2026-06-15T12:55:38.000Z</time>
        <extensions>
          <ns3:TrackPointExtension>
            <ns3:atemp>20.0</ns3:atemp>
          </ns3:TrackPointExtension>
        </extensions>
      </trkpt>
      <trkpt lat="42.56804846227169036865234375" lon="20.03057372756302356719970703125">
        <ele>2055.60009765625</ele>
        <time>2026-06-15T12:55:39.000Z</time>
        <extensions>
          <ns3:TrackPointExtension>
            <ns3:atemp>20.0</ns3:atemp>
          </ns3:TrackPointExtension>
        </extensions>
      </trkpt>
      <trkpt lat="42.56809565238654613494873046875" lon="20.030556879937648773193359375">
        <ele>2055.39990234375</ele>
        <time>2026-06-15T12:55:40.000Z</time>
        <extensions>
          <ns3:TrackPointExtension>
            <ns3:atemp>20.0</ns3:atemp>
          </ns3:TrackPointExtension>
        </extensions>
      </trkpt>
      <trkpt lat="42.5681431777775287628173828125" lon="20.030538104474544525146484375">
        <ele>2055.199951171875</ele>
        <time>2026-06-15T12:55:41.000Z</time>
        <extensions>
          <ns3:TrackPointExtension>
            <ns3:atemp>20.0</ns3:atemp>
          </ns3:TrackPointExtension>
        </extensions>
      </trkpt>
      <trkpt lat="42.5681917928159236907958984375" lon="20.03050918690860271453857421875">
        <ele>2054.800048828125</ele>
        <time>2026-06-15T12:55:42.000Z</time>
        <extensions>
          <ns3:TrackPointExtension>
            <ns3:atemp>20.0</ns3:atemp>
          </ns3:TrackPointExtension>
        </extensions>
      </trkpt>
      <trkpt lat="42.568242587149143218994140625" lon="20.030473731458187103271484375">
        <ele>2054.39990234375</ele>
        <time>2026-06-15T12:55:43.000Z</time>
        <extensions>
          <ns3:TrackPointExtension>
            <ns3:atemp>20.0</ns3:atemp>
          </ns3:TrackPointExtension>
        </extensions>
      </trkpt>
      <trkpt lat="42.568286843597888946533203125" lon="20.030432827770709991455078125">
        <ele>2054.199951171875</ele>
        <time>2026-06-15T12:55:44.000Z</time>
        <extensions>
          <ns3:TrackPointExtension>
            <ns3:atemp>20.0</ns3:atemp>
          </ns3:TrackPointExtension>
        </extensions>
      </trkpt>
      <trkpt lat="42.56832749582827091217041015625" lon="20.03039158880710601806640625">
        <ele>2054</ele>
        <time>2026-06-15T12:55:45.000Z</time>
        <extensions>
          <ns3:TrackPointExtension>
            <ns3:atemp>20.0</ns3:atemp>
          </ns3:TrackPointExtension>
        </extensions>
      </trkpt>
      <trkpt lat="42.5683708302676677703857421875" lon="20.030351020395755767822265625">
        <ele>2053.800048828125</ele>
        <time>2026-06-15T12:55:46.000Z</time>
        <extensions>
          <ns3:TrackPointExtension>
            <ns3:atemp>20.0</ns3:atemp>
          </ns3:TrackPointExtension>
        </extensions>
      </trkpt>
      <trkpt lat="42.56841014139354228973388671875" lon="20.03032428212463855743408203125">
        <ele>2053.39990234375</ele>
        <time>2026-06-15T12:55:47.000Z</time>
        <extensions>
          <ns3:TrackPointExtension>
            <ns3:atemp>20.0</ns3:atemp>
          </ns3:TrackPointExtension>
        </extensions>
      </trkpt>
      <trkpt lat="42.5684479437768459320068359375" lon="20.03030441701412200927734375">
        <ele>2053.39990234375</ele>
        <time>2026-06-15T12:55:48.000Z</time>
        <extensions>
          <ns3:TrackPointExtension>
            <ns3:atemp>20.0</ns3:atemp>
          </ns3:TrackPointExtension>
        </extensions>
      </trkpt>
      <trkpt lat="42.56847451440989971160888671875" lon="20.030298046767711639404296875">
        <ele>2053</ele>
        <time>2026-06-15T12:55:49.000Z</time>
        <extensions>
          <ns3:TrackPointExtension>
            <ns3:atemp>20.0</ns3:atemp>
          </ns3:TrackPointExtension>
        </extensions>
      </trkpt>
      <trkpt lat="42.5684854947030544281005859375" lon="20.0302982144057750701904296875">
        <ele>2053</ele>
        <time>2026-06-15T12:55:50.000Z</time>
        <extensions>
          <ns3:TrackPointExtension>
            <ns3:atemp>20.0</ns3:atemp>
          </ns3:TrackPointExtension>
        </extensions>
      </trkpt>
      <trkpt lat="42.56848406977951526641845703125" lon="20.0303062610328197479248046875">
        <ele>2053</ele>
        <time>2026-06-15T12:55:51.000Z</time>
        <extensions>
          <ns3:TrackPointExtension>
            <ns3:atemp>20.0</ns3:atemp>
          </ns3:TrackPointExtension>
        </extensions>
      </trkpt>
      <trkpt lat="42.56848088465631008148193359375" lon="20.0303129665553569793701171875">
        <ele>2053</ele>
        <time>2026-06-15T12:55:52.000Z</time>
        <extensions>
          <ns3:TrackPointExtension>
            <ns3:atemp>20.0</ns3:atemp>
          </ns3:TrackPointExtension>
        </extensions>
      </trkpt>
      <trkpt lat="42.5684808008372783660888671875" lon="20.0303129665553569793701171875">
        <ele>2053</ele>
        <time>2026-06-15T12:55:53.000Z</time>
        <extensions>
          <ns3:TrackPointExtension>
            <ns3:atemp>20.0</ns3:atemp>
          </ns3:TrackPointExtension>
        </extensions>
      </trkpt>
      <trkpt lat="42.5684808008372783660888671875" lon="20.0303129665553569793701171875">
        <ele>2053</ele>
        <time>2026-06-15T12:55:54.000Z</time>
        <extensions>
          <ns3:TrackPointExtension>
            <ns3:atemp>20.0</ns3:atemp>
          </ns3:TrackPointExtension>
        </extensions>
      </trkpt>
      <trkpt lat="42.5684808008372783660888671875" lon="20.0303129665553569793701171875">
        <ele>2053</ele>
        <time>2026-06-15T12:55:55.000Z</time>
        <extensions>
          <ns3:TrackPointExtension>
            <ns3:atemp>20.0</ns3:atemp>
          </ns3:TrackPointExtension>
        </extensions>
      </trkpt>
      <trkpt lat="42.5684808008372783660888671875" lon="20.0303129665553569793701171875">
        <ele>2053</ele>
        <time>2026-06-15T12:55:56.000Z</time>
        <extensions>
          <ns3:TrackPointExtension>
            <ns3:atemp>20.0</ns3:atemp>
          </ns3:TrackPointExtension>
        </extensions>
      </trkpt>
      <trkpt lat="42.5684808008372783660888671875" lon="20.0303129665553569793701171875">
        <ele>2052.800048828125</ele>
        <time>2026-06-15T12:55:57.000Z</time>
        <extensions>
          <ns3:TrackPointExtension>
            <ns3:atemp>20.0</ns3:atemp>
          </ns3:TrackPointExtension>
        </extensions>
      </trkpt>
      <trkpt lat="42.5684808008372783660888671875" lon="20.0303129665553569793701171875">
        <ele>2052.800048828125</ele>
        <time>2026-06-15T12:55:58.000Z</time>
        <extensions>
          <ns3:TrackPointExtension>
            <ns3:atemp>20.0</ns3:atemp>
          </ns3:TrackPointExtension>
        </extensions>
      </trkpt>
      <trkpt lat="42.5684808008372783660888671875" lon="20.0303129665553569793701171875">
        <ele>2052.800048828125</ele>
        <time>2026-06-15T12:55:59.000Z</time>
        <extensions>
          <ns3:TrackPointExtension>
            <ns3:atemp>20.0</ns3:atemp>
          </ns3:TrackPointExtension>
        </extensions>
      </trkpt>
      <trkpt lat="42.5684808008372783660888671875" lon="20.0303129665553569793701171875">
        <ele>2052.800048828125</ele>
        <time>2026-06-15T12:56:00.000Z</time>
        <extensions>
          <ns3:TrackPointExtension>
            <ns3:atemp>20.0</ns3:atemp>
          </ns3:TrackPointExtension>
        </extensions>
      </trkpt>
      <trkpt lat="42.5684808008372783660888671875" lon="20.0303129665553569793701171875">
        <ele>2052.800048828125</ele>
        <time>2026-06-15T12:56:01.000Z</time>
        <extensions>
          <ns3:TrackPointExtension>
            <ns3:atemp>20.0</ns3:atemp>
          </ns3:TrackPointExtension>
        </extensions>
      </trkpt>
      <trkpt lat="42.5684808008372783660888671875" lon="20.0303129665553569793701171875">
        <ele>2052.60009765625</ele>
        <time>2026-06-15T12:56:02.000Z</time>
        <extensions>
          <ns3:TrackPointExtension>
            <ns3:atemp>20.0</ns3:atemp>
          </ns3:TrackPointExtension>
        </extensions>
      </trkpt>
      <trkpt lat="42.5684808008372783660888671875" lon="20.0303129665553569793701171875">
        <ele>2052.60009765625</ele>
        <time>2026-06-15T12:56:03.000Z</time>
        <extensions>
          <ns3:TrackPointExtension>
            <ns3:atemp>20.0</ns3:atemp>
          </ns3:TrackPointExtension>
        </extensions>
      </trkpt>
      <trkpt lat="42.5684808008372783660888671875" lon="20.0303129665553569793701171875">
        <ele>2052.60009765625</ele>
        <time>2026-06-15T12:56:04.000Z</time>
        <extensions>
          <ns3:TrackPointExtension>
            <ns3:atemp>20.0</ns3:atemp>
          </ns3:TrackPointExtension>
        </extensions>
      </trkpt>
      <trkpt lat="42.5684808008372783660888671875" lon="20.0303129665553569793701171875">
        <ele>2052.60009765625</ele>
        <time>2026-06-15T12:56:05.000Z</time>
        <extensions>
          <ns3:TrackPointExtension>
            <ns3:atemp>20.0</ns3:atemp>
          </ns3:TrackPointExtension>
        </extensions>
      </trkpt>
      <trkpt lat="42.5684808008372783660888671875" lon="20.0303129665553569793701171875">
        <ele>2052.60009765625</ele>
        <time>2026-06-15T12:56:06.000Z</time>
        <extensions>
          <ns3:TrackPointExtension>
            <ns3:atemp>20.0</ns3:atemp>
          </ns3:TrackPointExtension>
        </extensions>
      </trkpt>
      <trkpt lat="42.5684808008372783660888671875" lon="20.0303129665553569793701171875">
        <ele>2052.60009765625</ele>
        <time>2026-06-15T12:56:07.000Z</time>
        <extensions>
          <ns3:TrackPointExtension>
            <ns3:atemp>20.0</ns3:atemp>
          </ns3:TrackPointExtension>
        </extensions>
      </trkpt>
      <trkpt lat="42.5684808008372783660888671875" lon="20.0303129665553569793701171875">
        <ele>2052.60009765625</ele>
        <time>2026-06-15T12:56:08.000Z</time>
        <extensions>
          <ns3:TrackPointExtension>
            <ns3:atemp>20.0</ns3:atemp>
          </ns3:TrackPointExtension>
        </extensions>
      </trkpt>
      <trkpt lat="42.5684808008372783660888671875" lon="20.0303129665553569793701171875">
        <ele>2052.60009765625</ele>
        <time>2026-06-15T12:56:09.000Z</time>
        <extensions>
          <ns3:TrackPointExtension>
            <ns3:atemp>20.0</ns3:atemp>
          </ns3:TrackPointExtension>
        </extensions>
      </trkpt>
      <trkpt lat="42.5684808008372783660888671875" lon="20.0303129665553569793701171875">
        <ele>2052.60009765625</ele>
        <time>2026-06-15T12:56:10.000Z</time>
        <extensions>
          <ns3:TrackPointExtension>
            <ns3:atemp>21.0</ns3:atemp>
          </ns3:TrackPointExtension>
        </extensions>
      </trkpt>
      <trkpt lat="42.5684808008372783660888671875" lon="20.0303129665553569793701171875">
        <ele>2052.60009765625</ele>
        <time>2026-06-15T12:56:11.000Z</time>
        <extensions>
          <ns3:TrackPointExtension>
            <ns3:atemp>20.0</ns3:atemp>
          </ns3:TrackPointExtension>
        </extensions>
      </trkpt>
      <trkpt lat="42.5684808008372783660888671875" lon="20.0303129665553569793701171875">
        <ele>2052.39990234375</ele>
        <time>2026-06-15T12:56:12.000Z</time>
        <extensions>
          <ns3:TrackPointExtension>
            <ns3:atemp>20.0</ns3:atemp>
          </ns3:TrackPointExtension>
        </extensions>
      </trkpt>
      <trkpt lat="42.5684808008372783660888671875" lon="20.0303129665553569793701171875">
        <ele>2052.39990234375</ele>
        <time>2026-06-15T12:56:13.000Z</time>
        <extensions>
          <ns3:TrackPointExtension>
            <ns3:atemp>20.0</ns3:atemp>
          </ns3:TrackPointExtension>
        </extensions>
      </trkpt>
      <trkpt lat="42.5684808008372783660888671875" lon="20.0303129665553569793701171875">
        <ele>2052.39990234375</ele>
        <time>2026-06-15T12:56:14.000Z</time>
        <extensions>
          <ns3:TrackPointExtension>
            <ns3:atemp>20.0</ns3:atemp>
          </ns3:TrackPointExtension>
        </extensions>
      </trkpt>
      <trkpt lat="42.5684808008372783660888671875" lon="20.0303129665553569793701171875">
        <ele>2052.39990234375</ele>
        <time>2026-06-15T12:56:15.000Z</time>
        <extensions>
          <ns3:TrackPointExtension>
            <ns3:atemp>20.0</ns3:atemp>
          </ns3:TrackPointExtension>
        </extensions>
      </trkpt>
      <trkpt lat="42.5684808008372783660888671875" lon="20.0303129665553569793701171875">
        <ele>2052.39990234375</ele>
        <time>2026-06-15T12:56:16.000Z</time>
        <extensions>
          <ns3:TrackPointExtension>
            <ns3:atemp>20.0</ns3:atemp>
          </ns3:TrackPointExtension>
        </extensions>
      </trkpt>
      <trkpt lat="42.5684808008372783660888671875" lon="20.0303129665553569793701171875">
        <ele>2052.39990234375</ele>
        <time>2026-06-15T12:56:17.000Z</time>
        <extensions>
          <ns3:TrackPointExtension>
            <ns3:atemp>20.0</ns3:atemp>
          </ns3:TrackPointExtension>
        </extensions>
      </trkpt>
      <trkpt lat="42.5684808008372783660888671875" lon="20.0303129665553569793701171875">
        <ele>2052.39990234375</ele>
        <time>2026-06-15T12:56:18.000Z</time>
        <extensions>
          <ns3:TrackPointExtension>
            <ns3:atemp>20.0</ns3:atemp>
          </ns3:TrackPointExtension>
        </extensions>
      </trkpt>
      <trkpt lat="42.5684808008372783660888671875" lon="20.0303129665553569793701171875">
        <ele>2052.39990234375</ele>
        <time>2026-06-15T12:56:19.000Z</time>
        <extensions>
          <ns3:TrackPointExtension>
            <ns3:atemp>20.0</ns3:atemp>
          </ns3:TrackPointExtension>
        </extensions>
      </trkpt>
      <trkpt lat="42.5684808008372783660888671875" lon="20.0303129665553569793701171875">
        <ele>2052.39990234375</ele>
        <time>2026-06-15T12:56:20.000Z</time>
        <extensions>
          <ns3:TrackPointExtension>
            <ns3:atemp>20.0</ns3:atemp>
          </ns3:TrackPointExtension>
        </extensions>
      </trkpt>
      <trkpt lat="42.5684808008372783660888671875" lon="20.0303129665553569793701171875">
        <ele>2052.39990234375</ele>
        <time>2026-06-15T12:56:21.000Z</time>
        <extensions>
          <ns3:TrackPointExtension>
            <ns3:atemp>20.0</ns3:atemp>
          </ns3:TrackPointExtension>
        </extensions>
      </trkpt>
      <trkpt lat="42.5684808008372783660888671875" lon="20.0303129665553569793701171875">
        <ele>2052.39990234375</ele>
        <time>2026-06-15T12:56:22.000Z</time>
        <extensions>
          <ns3:TrackPointExtension>
            <ns3:atemp>20.0</ns3:atemp>
          </ns3:TrackPointExtension>
        </extensions>
      </trkpt>
      <trkpt lat="42.5684808008372783660888671875" lon="20.0303129665553569793701171875">
        <ele>2052.39990234375</ele>
        <time>2026-06-15T12:56:23.000Z</time>
        <extensions>
          <ns3:TrackPointExtension>
            <ns3:atemp>20.0</ns3:atemp>
          </ns3:TrackPointExtension>
        </extensions>
      </trkpt>
      <trkpt lat="42.5684808008372783660888671875" lon="20.0303129665553569793701171875">
        <ele>2052.39990234375</ele>
        <time>2026-06-15T12:56:24.000Z</time>
        <extensions>
          <ns3:TrackPointExtension>
            <ns3:atemp>20.0</ns3:atemp>
          </ns3:TrackPointExtension>
        </extensions>
      </trkpt>
      <trkpt lat="42.5684808008372783660888671875" lon="20.0303129665553569793701171875">
        <ele>2052.39990234375</ele>
        <time>2026-06-15T12:56:25.000Z</time>
        <extensions>
          <ns3:TrackPointExtension>
            <ns3:atemp>20.0</ns3:atemp>
          </ns3:TrackPointExtension>
        </extensions>
      </trkpt>
      <trkpt lat="42.5684808008372783660888671875" lon="20.0303129665553569793701171875">
        <ele>2052.39990234375</ele>
        <time>2026-06-15T12:56:26.000Z</time>
        <extensions>
          <ns3:TrackPointExtension>
            <ns3:atemp>20.0</ns3:atemp>
          </ns3:TrackPointExtension>
        </extensions>
      </trkpt>
      <trkpt lat="42.5684808008372783660888671875" lon="20.0303129665553569793701171875">
        <ele>2052.39990234375</ele>
        <time>2026-06-15T12:56:27.000Z</time>
        <extensions>
          <ns3:TrackPointExtension>
            <ns3:atemp>20.0</ns3:atemp>
          </ns3:TrackPointExtension>
        </extensions>
      </trkpt>
      <trkpt lat="42.5684808008372783660888671875" lon="20.0303129665553569793701171875">
        <ele>2052.39990234375</ele>
        <time>2026-06-15T12:56:28.000Z</time>
        <extensions>
          <ns3:TrackPointExtension>
            <ns3:atemp>20.0</ns3:atemp>
          </ns3:TrackPointExtension>
        </extensions>
      </trkpt>
      <trkpt lat="42.5684808008372783660888671875" lon="20.0303129665553569793701171875">
        <ele>2052.199951171875</ele>
        <time>2026-06-15T12:56:29.000Z</time>
        <extensions>
          <ns3:TrackPointExtension>
            <ns3:atemp>21.0</ns3:atemp>
          </ns3:TrackPointExtension>
        </extensions>
      </trkpt>
      <trkpt lat="42.5684808008372783660888671875" lon="20.0303129665553569793701171875">
        <ele>2052.199951171875</ele>
        <time>2026-06-15T12:56:30.000Z</time>
        <extensions>
          <ns3:TrackPointExtension>
            <ns3:atemp>20.0</ns3:atemp>
          </ns3:TrackPointExtension>
        </extensions>
      </trkpt>
      <trkpt lat="42.5684808008372783660888671875" lon="20.0303129665553569793701171875">
        <ele>2052.199951171875</ele>
        <time>2026-06-15T12:56:31.000Z</time>
        <extensions>
          <ns3:TrackPointExtension>
            <ns3:atemp>20.0</ns3:atemp>
          </ns3:TrackPointExtension>
        </extensions>
      </trkpt>
      <trkpt lat="42.56848608143627643585205078125" lon="20.03031053580343723297119140625">
        <ele>2052.199951171875</ele>
        <time>2026-06-15T12:56:32.000Z</time>
        <extensions>
          <ns3:TrackPointExtension>
            <ns3:atemp>20.0</ns3:atemp>
          </ns3:TrackPointExtension>
        </extensions>
      </trkpt>
      <trkpt lat="42.568491362035274505615234375" lon="20.030310787260532379150390625">
        <ele>2052.199951171875</ele>
        <time>2026-06-15T12:56:33.000Z</time>
        <extensions>
          <ns3:TrackPointExtension>
            <ns3:atemp>21.0</ns3:atemp>
          </ns3:TrackPointExtension>
        </extensions>
      </trkpt>
      <trkpt lat="42.56848054938018321990966796875" lon="20.03032763488590717315673828125">
        <ele>2052</ele>
        <time>2026-06-15T12:56:34.000Z</time>
        <extensions>
          <ns3:TrackPointExtension>
            <ns3:atemp>21.0</ns3:atemp>
          </ns3:TrackPointExtension>
        </extensions>
      </trkpt>
      <trkpt lat="42.5684700720012187957763671875" lon="20.03037189133465290069580078125">
        <ele>2051.800048828125</ele>
        <time>2026-06-15T12:56:35.000Z</time>
        <extensions>
          <ns3:TrackPointExtension>
            <ns3:atemp>21.0</ns3:atemp>
          </ns3:TrackPointExtension>
        </extensions>
      </trkpt>
      <trkpt lat="42.568456828594207763671875" lon="20.03043048083782196044921875">
        <ele>2051.39990234375</ele>
        <time>2026-06-15T12:56:36.000Z</time>
        <extensions>
          <ns3:TrackPointExtension>
            <ns3:atemp>21.0</ns3:atemp>
          </ns3:TrackPointExtension>
        </extensions>
      </trkpt>
      <trkpt lat="42.568441741168498992919921875" lon="20.03049275837838649749755859375">
        <ele>2050.800048828125</ele>
        <time>2026-06-15T12:56:37.000Z</time>
        <extensions>
          <ns3:TrackPointExtension>
            <ns3:atemp>21.0</ns3:atemp>
          </ns3:TrackPointExtension>
        </extensions>
      </trkpt>
      <trkpt lat="42.5684251450002193450927734375" lon="20.03054581582546234130859375">
        <ele>2050</ele>
        <time>2026-06-15T12:56:38.000Z</time>
        <extensions>
          <ns3:TrackPointExtension>
            <ns3:atemp>21.0</ns3:atemp>
          </ns3:TrackPointExtension>
        </extensions>
      </trkpt>
      <trkpt lat="42.56840511225163936614990234375" lon="20.030578672885894775390625">
        <ele>2049.199951171875</ele>
        <time>2026-06-15T12:56:39.000Z</time>
        <extensions>
          <ns3:TrackPointExtension>
            <ns3:atemp>20.0</ns3:atemp>
          </ns3:TrackPointExtension>
        </extensions>
      </trkpt>
      <trkpt lat="42.568397484719753265380859375" lon="20.0306220911443233489990234375">
        <ele>2048.199951171875</ele>
        <time>2026-06-15T12:56:40.000Z</time>
        <extensions>
          <ns3:TrackPointExtension>
            <ns3:atemp>20.0</ns3:atemp>
          </ns3:TrackPointExtension>
        </extensions>
      </trkpt>
      <trkpt lat="42.568384073674678802490234375" lon="20.03067799843847751617431640625">
        <ele>2047.199951171875</ele>
        <time>2026-06-15T12:56:41.000Z</time>
        <extensions>
          <ns3:TrackPointExtension>
            <ns3:atemp>21.0</ns3:atemp>
          </ns3:TrackPointExtension>
        </extensions>
      </trkpt>
      <trkpt lat="42.56837678141891956329345703125" lon="20.0307370908558368682861328125">
        <ele>2046.199951171875</ele>
        <time>2026-06-15T12:56:42.000Z</time>
        <extensions>
          <ns3:TrackPointExtension>
            <ns3:atemp>21.0</ns3:atemp>
          </ns3:TrackPointExtension>
        </extensions>
      </trkpt>
      <trkpt lat="42.5683885999023914337158203125" lon="20.03078327514231204986572265625">
        <ele>2045</ele>
        <time>2026-06-15T12:56:43.000Z</time>
        <extensions>
          <ns3:TrackPointExtension>
            <ns3:atemp>21.0</ns3:atemp>
          </ns3:TrackPointExtension>
        </extensions>
      </trkpt>
      <trkpt lat="42.56838415749371051788330078125" lon="20.03084429539740085601806640625">
        <ele>2044.199951171875</ele>
        <time>2026-06-15T12:56:44.000Z</time>
        <extensions>
          <ns3:TrackPointExtension>
            <ns3:atemp>21.0</ns3:atemp>
          </ns3:TrackPointExtension>
        </extensions>
      </trkpt>
      <trkpt lat="42.5683624483644962310791015625" lon="20.0309085845947265625">
        <ele>2042.4000244140625</ele>
        <time>2026-06-15T12:56:45.000Z</time>
        <extensions>
          <ns3:TrackPointExtension>
            <ns3:atemp>20.0</ns3:atemp>
          </ns3:TrackPointExtension>
        </extensions>
      </trkpt>
      <trkpt lat="42.568349875509738922119140625" lon="20.03096633590757846832275390625">
        <ele>2040.800048828125</ele>
        <time>2026-06-15T12:56:46.000Z</time>
        <extensions>
          <ns3:TrackPointExtension>
            <ns3:atemp>21.0</ns3:atemp>
          </ns3:TrackPointExtension>
        </extensions>
      </trkpt>
      <trkpt lat="42.56834685802459716796875" lon="20.0310321338474750518798828125">
        <ele>2039.199951171875</ele>
        <time>2026-06-15T12:56:47.000Z</time>
        <extensions>
          <ns3:TrackPointExtension>
            <ns3:atemp>21.0</ns3:atemp>
          </ns3:TrackPointExtension>
        </extensions>
      </trkpt>
      <trkpt lat="42.56834744475781917572021484375" lon="20.03108569420874118804931640625">
        <ele>2037.5999755859375</ele>
        <time>2026-06-15T12:56:48.000Z</time>
        <extensions>
          <ns3:TrackPointExtension>
            <ns3:atemp>21.0</ns3:atemp>
          </ns3:TrackPointExtension>
        </extensions>
      </trkpt>
      <trkpt lat="42.5683547370135784149169921875" lon="20.03111871890723705291748046875">
        <ele>2036.4000244140625</ele>
        <time>2026-06-15T12:56:49.000Z</time>
        <extensions>
          <ns3:TrackPointExtension>
            <ns3:atemp>21.0</ns3:atemp>
          </ns3:TrackPointExtension>
        </extensions>
      </trkpt>
      <trkpt lat="42.5683500431478023529052734375" lon="20.03112860955297946929931640625">
        <ele>2035.5999755859375</ele>
        <time>2026-06-15T12:56:50.000Z</time>
        <extensions>
          <ns3:TrackPointExtension>
            <ns3:atemp>20.0</ns3:atemp>
          </ns3:TrackPointExtension>
        </extensions>
      </trkpt>
      <trkpt lat="42.5683500431478023529052734375" lon="20.0311286933720111846923828125">
        <ele>2034.5999755859375</ele>
        <time>2026-06-15T12:56:51.000Z</time>
        <extensions>
          <ns3:TrackPointExtension>
            <ns3:atemp>20.0</ns3:atemp>
          </ns3:TrackPointExtension>
        </extensions>
      </trkpt>
      <trkpt lat="42.5683500431478023529052734375" lon="20.0311286933720111846923828125">
        <ele>2034.199951171875</ele>
        <time>2026-06-15T12:56:52.000Z</time>
        <extensions>
          <ns3:TrackPointExtension>
            <ns3:atemp>21.0</ns3:atemp>
          </ns3:TrackPointExtension>
        </extensions>
      </trkpt>
      <trkpt lat="42.5683500431478023529052734375" lon="20.0311286933720111846923828125">
        <ele>2033.800048828125</ele>
        <time>2026-06-15T12:56:53.000Z</time>
        <extensions>
          <ns3:TrackPointExtension>
            <ns3:atemp>21.0</ns3:atemp>
          </ns3:TrackPointExtension>
        </extensions>
      </trkpt>
      <trkpt lat="42.5683500431478023529052734375" lon="20.0311286933720111846923828125">
        <ele>2033.4000244140625</ele>
        <time>2026-06-15T12:56:54.000Z</time>
        <extensions>
          <ns3:TrackPointExtension>
            <ns3:atemp>21.0</ns3:atemp>
          </ns3:TrackPointExtension>
        </extensions>
      </trkpt>
      <trkpt lat="42.5683500431478023529052734375" lon="20.0311286933720111846923828125">
        <ele>2033.199951171875</ele>
        <time>2026-06-15T12:56:55.000Z</time>
        <extensions>
          <ns3:TrackPointExtension>
            <ns3:atemp>20.0</ns3:atemp>
          </ns3:TrackPointExtension>
        </extensions>
      </trkpt>
      <trkpt lat="42.568349875509738922119140625" lon="20.03112919628620147705078125">
        <ele>2033</ele>
        <time>2026-06-15T12:56:56.000Z</time>
        <extensions>
          <ns3:TrackPointExtension>
            <ns3:atemp>20.0</ns3:atemp>
          </ns3:TrackPointExtension>
        </extensions>
      </trkpt>
      <trkpt lat="42.5683671422302722930908203125" lon="20.03113548271358013153076171875">
        <ele>2032.5999755859375</ele>
        <time>2026-06-15T12:56:57.000Z</time>
        <extensions>
          <ns3:TrackPointExtension>
            <ns3:atemp>20.0</ns3:atemp>
          </ns3:TrackPointExtension>
        </extensions>
      </trkpt>
      <trkpt lat="42.568390108644962310791015625" lon="20.0311380811035633087158203125">
        <ele>2032.4000244140625</ele>
        <time>2026-06-15T12:56:58.000Z</time>
        <extensions>
          <ns3:TrackPointExtension>
            <ns3:atemp>21.0</ns3:atemp>
          </ns3:TrackPointExtension>
        </extensions>
      </trkpt>
      <trkpt lat="42.5684191100299358367919921875" lon="20.031155683100223541259765625">
        <ele>2032</ele>
        <time>2026-06-15T12:56:59.000Z</time>
        <extensions>
          <ns3:TrackPointExtension>
            <ns3:atemp>21.0</ns3:atemp>
          </ns3:TrackPointExtension>
        </extensions>
      </trkpt>
      <trkpt lat="42.56844769231975078582763671875" lon="20.03118015825748443603515625">
        <ele>2031.5999755859375</ele>
        <time>2026-06-15T12:57:00.000Z</time>
        <extensions>
          <ns3:TrackPointExtension>
            <ns3:atemp>21.0</ns3:atemp>
          </ns3:TrackPointExtension>
        </extensions>
      </trkpt>
      <trkpt lat="42.56845423020422458648681640625" lon="20.03119901753962039947509765625">
        <ele>2031.199951171875</ele>
        <time>2026-06-15T12:57:01.000Z</time>
        <extensions>
          <ns3:TrackPointExtension>
            <ns3:atemp>21.0</ns3:atemp>
          </ns3:TrackPointExtension>
        </extensions>
      </trkpt>
      <trkpt lat="42.56846420466899871826171875" lon="20.03122039139270782470703125">
        <ele>2030.5999755859375</ele>
        <time>2026-06-15T12:57:02.000Z</time>
        <extensions>
          <ns3:TrackPointExtension>
            <ns3:atemp>20.0</ns3:atemp>
          </ns3:TrackPointExtension>
        </extensions>
      </trkpt>
      <trkpt lat="42.56846864707767963409423828125" lon="20.031227767467498779296875">
        <ele>2030</ele>
        <time>2026-06-15T12:57:03.000Z</time>
        <extensions>
          <ns3:TrackPointExtension>
            <ns3:atemp>20.0</ns3:atemp>
          </ns3:TrackPointExtension>
        </extensions>
      </trkpt>
      <trkpt lat="42.568470574915409088134765625" lon="20.03122500143945217132568359375">
        <ele>2029.5999755859375</ele>
        <time>2026-06-15T12:57:04.000Z</time>
        <extensions>
          <ns3:TrackPointExtension>
            <ns3:atemp>21.0</ns3:atemp>
          </ns3:TrackPointExtension>
        </extensions>
      </trkpt>
      <trkpt lat="42.5684707425534725189208984375" lon="20.03122500143945217132568359375">
        <ele>2029.199951171875</ele>
        <time>2026-06-15T12:57:05.000Z</time>
        <extensions>
          <ns3:TrackPointExtension>
            <ns3:atemp>21.0</ns3:atemp>
          </ns3:TrackPointExtension>
        </extensions>
      </trkpt>
      <trkpt lat="42.5684707425534725189208984375" lon="20.03122500143945217132568359375">
        <ele>2029</ele>
        <time>2026-06-15T12:57:06.000Z</time>
        <extensions>
          <ns3:TrackPointExtension>
            <ns3:atemp>21.0</ns3:atemp>
          </ns3:TrackPointExtension>
        </extensions>
      </trkpt>
      <trkpt lat="42.5684707425534725189208984375" lon="20.03122500143945217132568359375">
        <ele>2028.800048828125</ele>
        <time>2026-06-15T12:57:07.000Z</time>
        <extensions>
          <ns3:TrackPointExtension>
            <ns3:atemp>21.0</ns3:atemp>
          </ns3:TrackPointExtension>
        </extensions>
      </trkpt>
      <trkpt lat="42.5684707425534725189208984375" lon="20.03122500143945217132568359375">
        <ele>2028.5999755859375</ele>
        <time>2026-06-15T12:57:08.000Z</time>
        <extensions>
          <ns3:TrackPointExtension>
            <ns3:atemp>21.0</ns3:atemp>
          </ns3:TrackPointExtension>
        </extensions>
      </trkpt>
      <trkpt lat="42.5684707425534725189208984375" lon="20.03122500143945217132568359375">
        <ele>2028.4000244140625</ele>
        <time>2026-06-15T12:57:09.000Z</time>
        <extensions>
          <ns3:TrackPointExtension>
            <ns3:atemp>21.0</ns3:atemp>
          </ns3:TrackPointExtension>
        </extensions>
      </trkpt>
      <trkpt lat="42.5684707425534725189208984375" lon="20.03122500143945217132568359375">
        <ele>2028.4000244140625</ele>
        <time>2026-06-15T12:57:10.000Z</time>
        <extensions>
          <ns3:TrackPointExtension>
            <ns3:atemp>21.0</ns3:atemp>
          </ns3:TrackPointExtension>
        </extensions>
      </trkpt>
      <trkpt lat="42.5684707425534725189208984375" lon="20.03122500143945217132568359375">
        <ele>2028.4000244140625</ele>
        <time>2026-06-15T12:57:11.000Z</time>
        <extensions>
          <ns3:TrackPointExtension>
            <ns3:atemp>21.0</ns3:atemp>
          </ns3:TrackPointExtension>
        </extensions>
      </trkpt>
      <trkpt lat="42.5684707425534725189208984375" lon="20.03122500143945217132568359375">
        <ele>2028.199951171875</ele>
        <time>2026-06-15T12:57:12.000Z</time>
        <extensions>
          <ns3:TrackPointExtension>
            <ns3:atemp>21.0</ns3:atemp>
          </ns3:TrackPointExtension>
        </extensions>
      </trkpt>
      <trkpt lat="42.5684707425534725189208984375" lon="20.03122500143945217132568359375">
        <ele>2028.199951171875</ele>
        <time>2026-06-15T12:57:13.000Z</time>
        <extensions>
          <ns3:TrackPointExtension>
            <ns3:atemp>21.0</ns3:atemp>
          </ns3:TrackPointExtension>
        </extensions>
      </trkpt>
      <trkpt lat="42.56847250275313854217529296875" lon="20.03121930174529552459716796875">
        <ele>2028.199951171875</ele>
        <time>2026-06-15T12:57:14.000Z</time>
        <extensions>
          <ns3:TrackPointExtension>
            <ns3:atemp>21.0</ns3:atemp>
          </ns3:TrackPointExtension>
        </extensions>
      </trkpt>
      <trkpt lat="42.56848004646599292755126953125" lon="20.03120371140539646148681640625">
        <ele>2028.4000244140625</ele>
        <time>2026-06-15T12:57:15.000Z</time>
        <extensions>
          <ns3:TrackPointExtension>
            <ns3:atemp>20.0</ns3:atemp>
          </ns3:TrackPointExtension>
        </extensions>
      </trkpt>
      <trkpt lat="42.56849295459687709808349609375" lon="20.0312068127095699310302734375">
        <ele>2028.800048828125</ele>
        <time>2026-06-15T12:57:16.000Z</time>
        <extensions>
          <ns3:TrackPointExtension>
            <ns3:atemp>21.0</ns3:atemp>
          </ns3:TrackPointExtension>
        </extensions>
      </trkpt>
      <trkpt lat="42.56849396042525768280029296875" lon="20.03120840527117252349853515625">
        <ele>2029.199951171875</ele>
        <time>2026-06-15T12:57:17.000Z</time>
        <extensions>
          <ns3:TrackPointExtension>
            <ns3:atemp>21.0</ns3:atemp>
          </ns3:TrackPointExtension>
        </extensions>
      </trkpt>
      <trkpt lat="42.5684932060539722442626953125" lon="20.03120237030088901519775390625">
        <ele>2029.4000244140625</ele>
        <time>2026-06-15T12:57:18.000Z</time>
        <extensions>
          <ns3:TrackPointExtension>
            <ns3:atemp>21.0</ns3:atemp>
          </ns3:TrackPointExtension>
        </extensions>
      </trkpt>
      <trkpt lat="42.56849505007266998291015625" lon="20.03119893372058868408203125">
        <ele>2029.5999755859375</ele>
        <time>2026-06-15T12:57:19.000Z</time>
        <extensions>
          <ns3:TrackPointExtension>
            <ns3:atemp>21.0</ns3:atemp>
          </ns3:TrackPointExtension>
        </extensions>
      </trkpt>
      <trkpt lat="42.56849748082458972930908203125" lon="20.03119566477835178375244140625">
        <ele>2029.5999755859375</ele>
        <time>2026-06-15T12:57:20.000Z</time>
        <extensions>
          <ns3:TrackPointExtension>
            <ns3:atemp>21.0</ns3:atemp>
          </ns3:TrackPointExtension>
        </extensions>
      </trkpt>
      <trkpt lat="42.568497397005558013916015625" lon="20.03119315020740032196044921875">
        <ele>2029.4000244140625</ele>
        <time>2026-06-15T12:57:21.000Z</time>
        <extensions>
          <ns3:TrackPointExtension>
            <ns3:atemp>21.0</ns3:atemp>
          </ns3:TrackPointExtension>
        </extensions>
      </trkpt>
      <trkpt lat="42.56849027238786220550537109375" lon="20.0311843492090702056884765625">
        <ele>2029.199951171875</ele>
        <time>2026-06-15T12:57:22.000Z</time>
        <extensions>
          <ns3:TrackPointExtension>
            <ns3:atemp>21.0</ns3:atemp>
          </ns3:TrackPointExtension>
        </extensions>
      </trkpt>
      <trkpt lat="42.56848725490272045135498046875" lon="20.0311850197613239288330078125">
        <ele>2029</ele>
        <time>2026-06-15T12:57:23.000Z</time>
        <extensions>
          <ns3:TrackPointExtension>
            <ns3:atemp>21.0</ns3:atemp>
          </ns3:TrackPointExtension>
        </extensions>
      </trkpt>
      <trkpt lat="42.5684871710836887359619140625" lon="20.031184852123260498046875">
        <ele>2028.800048828125</ele>
        <time>2026-06-15T12:57:24.000Z</time>
        <extensions>
          <ns3:TrackPointExtension>
            <ns3:atemp>21.0</ns3:atemp>
          </ns3:TrackPointExtension>
        </extensions>
      </trkpt>
      <trkpt lat="42.5684871710836887359619140625" lon="20.031184852123260498046875">
        <ele>2028.800048828125</ele>
        <time>2026-06-15T12:57:25.000Z</time>
        <extensions>
          <ns3:TrackPointExtension>
            <ns3:atemp>21.0</ns3:atemp>
          </ns3:TrackPointExtension>
        </extensions>
      </trkpt>
      <trkpt lat="42.5684871710836887359619140625" lon="20.031184852123260498046875">
        <ele>2028.800048828125</ele>
        <time>2026-06-15T12:57:26.000Z</time>
        <extensions>
          <ns3:TrackPointExtension>
            <ns3:atemp>21.0</ns3:atemp>
          </ns3:TrackPointExtension>
        </extensions>
      </trkpt>
      <trkpt lat="42.5684871710836887359619140625" lon="20.031184852123260498046875">
        <ele>2028.800048828125</ele>
        <time>2026-06-15T12:57:27.000Z</time>
        <extensions>
          <ns3:TrackPointExtension>
            <ns3:atemp>21.0</ns3:atemp>
          </ns3:TrackPointExtension>
        </extensions>
      </trkpt>
      <trkpt lat="42.5684871710836887359619140625" lon="20.031184852123260498046875">
        <ele>2028.800048828125</ele>
        <time>2026-06-15T12:57:28.000Z</time>
        <extensions>
          <ns3:TrackPointExtension>
            <ns3:atemp>21.0</ns3:atemp>
          </ns3:TrackPointExtension>
        </extensions>
      </trkpt>
      <trkpt lat="42.5684871710836887359619140625" lon="20.031184852123260498046875">
        <ele>2028.800048828125</ele>
        <time>2026-06-15T12:57:29.000Z</time>
        <extensions>
          <ns3:TrackPointExtension>
            <ns3:atemp>21.0</ns3:atemp>
          </ns3:TrackPointExtension>
        </extensions>
      </trkpt>
      <trkpt lat="42.5684871710836887359619140625" lon="20.031184852123260498046875">
        <ele>2028.800048828125</ele>
        <time>2026-06-15T12:57:30.000Z</time>
        <extensions>
          <ns3:TrackPointExtension>
            <ns3:atemp>21.0</ns3:atemp>
          </ns3:TrackPointExtension>
        </extensions>
      </trkpt>
      <trkpt lat="42.5684871710836887359619140625" lon="20.031184852123260498046875">
        <ele>2028.800048828125</ele>
        <time>2026-06-15T12:57:31.000Z</time>
        <extensions>
          <ns3:TrackPointExtension>
            <ns3:atemp>21.0</ns3:atemp>
          </ns3:TrackPointExtension>
        </extensions>
      </trkpt>
      <trkpt lat="42.5684871710836887359619140625" lon="20.031184852123260498046875">
        <ele>2029</ele>
        <time>2026-06-15T12:57:32.000Z</time>
        <extensions>
          <ns3:TrackPointExtension>
            <ns3:atemp>21.0</ns3:atemp>
          </ns3:TrackPointExtension>
        </extensions>
      </trkpt>
      <trkpt lat="42.5684871710836887359619140625" lon="20.03118476830422878265380859375">
        <ele>2029.4000244140625</ele>
        <time>2026-06-15T12:57:33.000Z</time>
        <extensions>
          <ns3:TrackPointExtension>
            <ns3:atemp>21.0</ns3:atemp>
          </ns3:TrackPointExtension>
        </extensions>
      </trkpt>
      <trkpt lat="42.5684885121881961822509765625" lon="20.03119968809187412261962890625">
        <ele>2029.5999755859375</ele>
        <time>2026-06-15T12:57:34.000Z</time>
        <extensions>
          <ns3:TrackPointExtension>
            <ns3:atemp>21.0</ns3:atemp>
          </ns3:TrackPointExtension>
        </extensions>
      </trkpt>
      <trkpt lat="42.5684865005314350128173828125" lon="20.03120907582342624664306640625">
        <ele>2029.800048828125</ele>
        <time>2026-06-15T12:57:35.000Z</time>
        <extensions>
          <ns3:TrackPointExtension>
            <ns3:atemp>21.0</ns3:atemp>
          </ns3:TrackPointExtension>
        </extensions>
      </trkpt>
      <trkpt lat="42.5684861652553081512451171875" lon="20.03121293149888515472412109375">
        <ele>2029.800048828125</ele>
        <time>2026-06-15T12:57:36.000Z</time>
        <extensions>
          <ns3:TrackPointExtension>
            <ns3:atemp>21.0</ns3:atemp>
          </ns3:TrackPointExtension>
        </extensions>
      </trkpt>
      <trkpt lat="42.5684861652553081512451171875" lon="20.0312131829559803009033203125">
        <ele>2029.800048828125</ele>
        <time>2026-06-15T12:57:37.000Z</time>
        <extensions>
          <ns3:TrackPointExtension>
            <ns3:atemp>21.0</ns3:atemp>
          </ns3:TrackPointExtension>
        </extensions>
      </trkpt>
      <trkpt lat="42.56848976947367191314697265625" lon="20.0312332995235919952392578125">
        <ele>2029.5999755859375</ele>
        <time>2026-06-15T12:57:38.000Z</time>
        <extensions>
          <ns3:TrackPointExtension>
            <ns3:atemp>21.0</ns3:atemp>
          </ns3:TrackPointExtension>
        </extensions>
      </trkpt>
      <trkpt lat="42.56849463097751140594482421875" lon="20.03124847076833248138427734375">
        <ele>2029.4000244140625</ele>
        <time>2026-06-15T12:57:39.000Z</time>
        <extensions>
          <ns3:TrackPointExtension>
            <ns3:atemp>21.0</ns3:atemp>
          </ns3:TrackPointExtension>
        </extensions>
      </trkpt>
      <trkpt lat="42.5685049407184123992919921875" lon="20.03125215880572795867919921875">
        <ele>2029.199951171875</ele>
        <time>2026-06-15T12:57:40.000Z</time>
        <extensions>
          <ns3:TrackPointExtension>
            <ns3:atemp>21.0</ns3:atemp>
          </ns3:TrackPointExtension>
        </extensions>
      </trkpt>
      <trkpt lat="42.56851357407867908477783203125" lon="20.03127294592559337615966796875">
        <ele>2028.800048828125</ele>
        <time>2026-06-15T12:57:41.000Z</time>
        <extensions>
          <ns3:TrackPointExtension>
            <ns3:atemp>21.0</ns3:atemp>
          </ns3:TrackPointExtension>
        </extensions>
      </trkpt>
      <trkpt lat="42.56852061487734317779541015625" lon="20.031295828521251678466796875">
        <ele>2028.4000244140625</ele>
        <time>2026-06-15T12:57:42.000Z</time>
        <extensions>
          <ns3:TrackPointExtension>
            <ns3:atemp>21.0</ns3:atemp>
          </ns3:TrackPointExtension>
        </extensions>
      </trkpt>
      <trkpt lat="42.56850938312709331512451171875" lon="20.0313141010701656341552734375">
        <ele>2028</ele>
        <time>2026-06-15T12:57:43.000Z</time>
        <extensions>
          <ns3:TrackPointExtension>
            <ns3:atemp>21.0</ns3:atemp>
          </ns3:TrackPointExtension>
        </extensions>
      </trkpt>
      <trkpt lat="42.568514160811901092529296875" lon="20.0313379056751728057861328125">
        <ele>2027.5999755859375</ele>
        <time>2026-06-15T12:57:44.000Z</time>
        <extensions>
          <ns3:TrackPointExtension>
            <ns3:atemp>21.0</ns3:atemp>
          </ns3:TrackPointExtension>
        </extensions>
      </trkpt>
      <trkpt lat="42.56851893849670886993408203125" lon="20.031340420246124267578125">
        <ele>2027.199951171875</ele>
        <time>2026-06-15T12:57:45.000Z</time>
        <extensions>
          <ns3:TrackPointExtension>
            <ns3:atemp>21.0</ns3:atemp>
          </ns3:TrackPointExtension>
        </extensions>
      </trkpt>
      <trkpt lat="42.56853352300822734832763671875" lon="20.03134402446448802947998046875">
        <ele>2027</ele>
        <time>2026-06-15T12:57:46.000Z</time>
        <extensions>
          <ns3:TrackPointExtension>
            <ns3:atemp>21.0</ns3:atemp>
          </ns3:TrackPointExtension>
        </extensions>
      </trkpt>
      <trkpt lat="42.56853754632174968719482421875" lon="20.03134385682642459869384765625">
        <ele>2026.800048828125</ele>
        <time>2026-06-15T12:57:47.000Z</time>
        <extensions>
          <ns3:TrackPointExtension>
            <ns3:atemp>21.0</ns3:atemp>
          </ns3:TrackPointExtension>
        </extensions>
      </trkpt>
      <trkpt lat="42.568538971245288848876953125" lon="20.03133832477033138275146484375">
        <ele>2026.800048828125</ele>
        <time>2026-06-15T12:57:48.000Z</time>
        <extensions>
          <ns3:TrackPointExtension>
            <ns3:atemp>21.0</ns3:atemp>
          </ns3:TrackPointExtension>
        </extensions>
      </trkpt>
      <trkpt lat="42.568538971245288848876953125" lon="20.03133832477033138275146484375">
        <ele>2026.800048828125</ele>
        <time>2026-06-15T12:57:49.000Z</time>
        <extensions>
          <ns3:TrackPointExtension>
            <ns3:atemp>21.0</ns3:atemp>
          </ns3:TrackPointExtension>
        </extensions>
      </trkpt>
      <trkpt lat="42.568538971245288848876953125" lon="20.03133832477033138275146484375">
        <ele>2026.800048828125</ele>
        <time>2026-06-15T12:57:50.000Z</time>
        <extensions>
          <ns3:TrackPointExtension>
            <ns3:atemp>21.0</ns3:atemp>
          </ns3:TrackPointExtension>
        </extensions>
      </trkpt>
      <trkpt lat="42.568538971245288848876953125" lon="20.03133832477033138275146484375">
        <ele>2026.800048828125</ele>
        <time>2026-06-15T12:57:51.000Z</time>
        <extensions>
          <ns3:TrackPointExtension>
            <ns3:atemp>21.0</ns3:atemp>
          </ns3:TrackPointExtension>
        </extensions>
      </trkpt>
      <trkpt lat="42.568538971245288848876953125" lon="20.03133832477033138275146484375">
        <ele>2026.5999755859375</ele>
        <time>2026-06-15T12:57:52.000Z</time>
        <extensions>
          <ns3:TrackPointExtension>
            <ns3:atemp>21.0</ns3:atemp>
          </ns3:TrackPointExtension>
        </extensions>
      </trkpt>
      <trkpt lat="42.568538971245288848876953125" lon="20.03133832477033138275146484375">
        <ele>2026.5999755859375</ele>
        <time>2026-06-15T12:57:53.000Z</time>
        <extensions>
          <ns3:TrackPointExtension>
            <ns3:atemp>21.0</ns3:atemp>
          </ns3:TrackPointExtension>
        </extensions>
      </trkpt>
      <trkpt lat="42.568538971245288848876953125" lon="20.03133832477033138275146484375">
        <ele>2026.5999755859375</ele>
        <time>2026-06-15T12:57:54.000Z</time>
        <extensions>
          <ns3:TrackPointExtension>
            <ns3:atemp>21.0</ns3:atemp>
          </ns3:TrackPointExtension>
        </extensions>
      </trkpt>
      <trkpt lat="42.56853871978819370269775390625" lon="20.03133715130388736724853515625">
        <ele>2026.800048828125</ele>
        <time>2026-06-15T12:57:55.000Z</time>
        <extensions>
          <ns3:TrackPointExtension>
            <ns3:atemp>21.0</ns3:atemp>
          </ns3:TrackPointExtension>
        </extensions>
      </trkpt>
      <trkpt lat="42.56854425184428691864013671875" lon="20.0313355587422847747802734375">
        <ele>2026.5999755859375</ele>
        <time>2026-06-15T12:57:56.000Z</time>
        <extensions>
          <ns3:TrackPointExtension>
            <ns3:atemp>21.0</ns3:atemp>
          </ns3:TrackPointExtension>
        </extensions>
      </trkpt>
      <trkpt lat="42.56856654770672321319580078125" lon="20.03131485544145107269287109375">
        <ele>2026.5999755859375</ele>
        <time>2026-06-15T12:57:57.000Z</time>
        <extensions>
          <ns3:TrackPointExtension>
            <ns3:atemp>21.0</ns3:atemp>
          </ns3:TrackPointExtension>
        </extensions>
      </trkpt>
      <trkpt lat="42.56858280859887599945068359375" lon="20.031305886805057525634765625">
        <ele>2026.4000244140625</ele>
        <time>2026-06-15T12:57:58.000Z</time>
        <extensions>
          <ns3:TrackPointExtension>
            <ns3:atemp>21.0</ns3:atemp>
          </ns3:TrackPointExtension>
        </extensions>
      </trkpt>
      <trkpt lat="42.56859672255814075469970703125" lon="20.03131292760372161865234375">
        <ele>2026</ele>
        <time>2026-06-15T12:57:59.000Z</time>
        <extensions>
          <ns3:TrackPointExtension>
            <ns3:atemp>21.0</ns3:atemp>
          </ns3:TrackPointExtension>
        </extensions>
      </trkpt>
      <trkpt lat="42.56861063651740550994873046875" lon="20.0313134305179119110107421875">
        <ele>2025.4000244140625</ele>
        <time>2026-06-15T12:58:00.000Z</time>
        <extensions>
          <ns3:TrackPointExtension>
            <ns3:atemp>21.0</ns3:atemp>
          </ns3:TrackPointExtension>
        </extensions>
      </trkpt>
      <trkpt lat="42.568624131381511688232421875" lon="20.03132633864879608154296875">
        <ele>2024.800048828125</ele>
        <time>2026-06-15T12:58:01.000Z</time>
        <extensions>
          <ns3:TrackPointExtension>
            <ns3:atemp>21.0</ns3:atemp>
          </ns3:TrackPointExtension>
        </extensions>
      </trkpt>
      <trkpt lat="42.56864257156848907470703125" lon="20.03134050406515598297119140625">
        <ele>2024.4000244140625</ele>
        <time>2026-06-15T12:58:02.000Z</time>
        <extensions>
          <ns3:TrackPointExtension>
            <ns3:atemp>21.0</ns3:atemp>
          </ns3:TrackPointExtension>
        </extensions>
      </trkpt>
      <trkpt lat="42.56864349357783794403076171875" lon="20.03135307691991329193115234375">
        <ele>2024</ele>
        <time>2026-06-15T12:58:03.000Z</time>
        <extensions>
          <ns3:TrackPointExtension>
            <ns3:atemp>21.0</ns3:atemp>
          </ns3:TrackPointExtension>
        </extensions>
      </trkpt>
      <trkpt lat="42.56864919327199459075927734375" lon="20.03135425038635730743408203125">
        <ele>2023.5999755859375</ele>
        <time>2026-06-15T12:58:04.000Z</time>
        <extensions>
          <ns3:TrackPointExtension>
            <ns3:atemp>21.0</ns3:atemp>
          </ns3:TrackPointExtension>
        </extensions>
      </trkpt>
      <trkpt lat="42.568655647337436676025390625" lon="20.031361542642116546630859375">
        <ele>2023.4000244140625</ele>
        <time>2026-06-15T12:58:05.000Z</time>
        <extensions>
          <ns3:TrackPointExtension>
            <ns3:atemp>21.0</ns3:atemp>
          </ns3:TrackPointExtension>
        </extensions>
      </trkpt>
      <trkpt lat="42.56866444833576679229736328125" lon="20.03137185238301753997802734375">
        <ele>2023.199951171875</ele>
        <time>2026-06-15T12:58:06.000Z</time>
        <extensions>
          <ns3:TrackPointExtension>
            <ns3:atemp>21.0</ns3:atemp>
          </ns3:TrackPointExtension>
        </extensions>
      </trkpt>
      <trkpt lat="42.568669728934764862060546875" lon="20.03138710744678974151611328125">
        <ele>2023.199951171875</ele>
        <time>2026-06-15T12:58:07.000Z</time>
        <extensions>
          <ns3:TrackPointExtension>
            <ns3:atemp>21.0</ns3:atemp>
          </ns3:TrackPointExtension>
        </extensions>
      </trkpt>
      <trkpt lat="42.5686759315431118011474609375" lon="20.03138291649520397186279296875">
        <ele>2023</ele>
        <time>2026-06-15T12:58:08.000Z</time>
        <extensions>
          <ns3:TrackPointExtension>
            <ns3:atemp>21.0</ns3:atemp>
          </ns3:TrackPointExtension>
        </extensions>
      </trkpt>
      <trkpt lat="42.56868758238852024078369140625" lon="20.0313861854374408721923828125">
        <ele>2022.800048828125</ele>
        <time>2026-06-15T12:58:09.000Z</time>
        <extensions>
          <ns3:TrackPointExtension>
            <ns3:atemp>21.0</ns3:atemp>
          </ns3:TrackPointExtension>
        </extensions>
      </trkpt>
      <trkpt lat="42.5687000714242458343505859375" lon="20.0313969142735004425048828125">
        <ele>2022.5999755859375</ele>
        <time>2026-06-15T12:58:10.000Z</time>
        <extensions>
          <ns3:TrackPointExtension>
            <ns3:atemp>21.0</ns3:atemp>
          </ns3:TrackPointExtension>
        </extensions>
      </trkpt>
      <trkpt lat="42.56871172226965427398681640625" lon="20.03141325898468494415283203125">
        <ele>2022.4000244140625</ele>
        <time>2026-06-15T12:58:11.000Z</time>
        <extensions>
          <ns3:TrackPointExtension>
            <ns3:atemp>21.0</ns3:atemp>
          </ns3:TrackPointExtension>
        </extensions>
      </trkpt>
      <trkpt lat="42.56872362457215785980224609375" lon="20.03141141496598720550537109375">
        <ele>2022.199951171875</ele>
        <time>2026-06-15T12:58:12.000Z</time>
        <extensions>
          <ns3:TrackPointExtension>
            <ns3:atemp>21.0</ns3:atemp>
          </ns3:TrackPointExtension>
        </extensions>
      </trkpt>
      <trkpt lat="42.56873334757983684539794921875" lon="20.03141476772725582122802734375">
        <ele>2022</ele>
        <time>2026-06-15T12:58:13.000Z</time>
        <extensions>
          <ns3:TrackPointExtension>
            <ns3:atemp>21.0</ns3:atemp>
          </ns3:TrackPointExtension>
        </extensions>
      </trkpt>
      <trkpt lat="42.56872865371406078338623046875" lon="20.03141258843243122100830078125">
        <ele>2021.800048828125</ele>
        <time>2026-06-15T12:58:14.000Z</time>
        <extensions>
          <ns3:TrackPointExtension>
            <ns3:atemp>21.0</ns3:atemp>
          </ns3:TrackPointExtension>
        </extensions>
      </trkpt>
      <trkpt lat="42.56872865371406078338623046875" lon="20.0314126722514629364013671875">
        <ele>2021.800048828125</ele>
        <time>2026-06-15T12:58:15.000Z</time>
        <extensions>
          <ns3:TrackPointExtension>
            <ns3:atemp>21.0</ns3:atemp>
          </ns3:TrackPointExtension>
        </extensions>
      </trkpt>
      <trkpt lat="42.56872865371406078338623046875" lon="20.031412504613399505615234375">
        <ele>2021.5999755859375</ele>
        <time>2026-06-15T12:58:16.000Z</time>
        <extensions>
          <ns3:TrackPointExtension>
            <ns3:atemp>21.0</ns3:atemp>
          </ns3:TrackPointExtension>
        </extensions>
      </trkpt>
      <trkpt lat="42.568741142749786376953125" lon="20.03141409717500209808349609375">
        <ele>2021.5999755859375</ele>
        <time>2026-06-15T12:58:17.000Z</time>
        <extensions>
          <ns3:TrackPointExtension>
            <ns3:atemp>21.0</ns3:atemp>
          </ns3:TrackPointExtension>
        </extensions>
      </trkpt>
      <trkpt lat="42.56875212304294109344482421875" lon="20.03141862340271472930908203125">
        <ele>2021.4000244140625</ele>
        <time>2026-06-15T12:58:18.000Z</time>
        <extensions>
          <ns3:TrackPointExtension>
            <ns3:atemp>21.0</ns3:atemp>
          </ns3:TrackPointExtension>
        </extensions>
      </trkpt>
      <trkpt lat="42.56876234896481037139892578125" lon="20.0314210541546344757080078125">
        <ele>2021.199951171875</ele>
        <time>2026-06-15T12:58:19.000Z</time>
        <extensions>
          <ns3:TrackPointExtension>
            <ns3:atemp>21.0</ns3:atemp>
          </ns3:TrackPointExtension>
        </extensions>
      </trkpt>
      <trkpt lat="42.56877508945763111114501953125" lon="20.03142960369586944580078125">
        <ele>2021</ele>
        <time>2026-06-15T12:58:20.000Z</time>
        <extensions>
          <ns3:TrackPointExtension>
            <ns3:atemp>21.0</ns3:atemp>
          </ns3:TrackPointExtension>
        </extensions>
      </trkpt>
      <trkpt lat="42.5687879137694835662841796875" lon="20.03143035806715488433837890625">
        <ele>2020.800048828125</ele>
        <time>2026-06-15T12:58:21.000Z</time>
        <extensions>
          <ns3:TrackPointExtension>
            <ns3:atemp>21.0</ns3:atemp>
          </ns3:TrackPointExtension>
        </extensions>
      </trkpt>
      <trkpt lat="42.56880543194711208343505859375" lon="20.03142700530588626861572265625">
        <ele>2020.4000244140625</ele>
        <time>2026-06-15T12:58:22.000Z</time>
        <extensions>
          <ns3:TrackPointExtension>
            <ns3:atemp>21.0</ns3:atemp>
          </ns3:TrackPointExtension>
        </extensions>
      </trkpt>
      <trkpt lat="42.568818591535091400146484375" lon="20.031431950628757476806640625">
        <ele>2020</ele>
        <time>2026-06-15T12:58:23.000Z</time>
        <extensions>
          <ns3:TrackPointExtension>
            <ns3:atemp>21.0</ns3:atemp>
          </ns3:TrackPointExtension>
        </extensions>
      </trkpt>
      <trkpt lat="42.568832673132419586181640625" lon="20.03143471665680408477783203125">
        <ele>2019.5999755859375</ele>
        <time>2026-06-15T12:58:24.000Z</time>
        <extensions>
          <ns3:TrackPointExtension>
            <ns3:atemp>21.0</ns3:atemp>
          </ns3:TrackPointExtension>
        </extensions>
      </trkpt>
      <trkpt lat="42.5688475929200649261474609375" lon="20.03144410438835620880126953125">
        <ele>2019.199951171875</ele>
        <time>2026-06-15T12:58:25.000Z</time>
        <extensions>
          <ns3:TrackPointExtension>
            <ns3:atemp>21.0</ns3:atemp>
          </ns3:TrackPointExtension>
        </extensions>
      </trkpt>
      <trkpt lat="42.5688650272786617279052734375" lon="20.0314632989466190338134765625">
        <ele>2018.800048828125</ele>
        <time>2026-06-15T12:58:26.000Z</time>
        <extensions>
          <ns3:TrackPointExtension>
            <ns3:atemp>21.0</ns3:atemp>
          </ns3:TrackPointExtension>
        </extensions>
      </trkpt>
      <trkpt lat="42.5688767619431018829345703125" lon="20.03147779963910579681396484375">
        <ele>2018.4000244140625</ele>
        <time>2026-06-15T12:58:27.000Z</time>
        <extensions>
          <ns3:TrackPointExtension>
            <ns3:atemp>21.0</ns3:atemp>
          </ns3:TrackPointExtension>
        </extensions>
      </trkpt>
      <trkpt lat="42.56888204254209995269775390625" lon="20.03148718737065792083740234375">
        <ele>2018</ele>
        <time>2026-06-15T12:58:28.000Z</time>
        <extensions>
          <ns3:TrackPointExtension>
            <ns3:atemp>21.0</ns3:atemp>
          </ns3:TrackPointExtension>
        </extensions>
      </trkpt>
      <trkpt lat="42.568888999521732330322265625" lon="20.0314978323876857757568359375">
        <ele>2017.800048828125</ele>
        <time>2026-06-15T12:58:29.000Z</time>
        <extensions>
          <ns3:TrackPointExtension>
            <ns3:atemp>21.0</ns3:atemp>
          </ns3:TrackPointExtension>
        </extensions>
      </trkpt>
      <trkpt lat="42.568895034492015838623046875" lon="20.0315078906714916229248046875">
        <ele>2017.5999755859375</ele>
        <time>2026-06-15T12:58:30.000Z</time>
        <extensions>
          <ns3:TrackPointExtension>
            <ns3:atemp>21.0</ns3:atemp>
          </ns3:TrackPointExtension>
        </extensions>
      </trkpt>
      <trkpt lat="42.56890031509101390838623046875" lon="20.0315166078507900238037109375">
        <ele>2017.4000244140625</ele>
        <time>2026-06-15T12:58:31.000Z</time>
        <extensions>
          <ns3:TrackPointExtension>
            <ns3:atemp>21.0</ns3:atemp>
          </ns3:TrackPointExtension>
        </extensions>
      </trkpt>
      <trkpt lat="42.5689039193093776702880859375" lon="20.0315296836197376251220703125">
        <ele>2017.199951171875</ele>
        <time>2026-06-15T12:58:32.000Z</time>
        <extensions>
          <ns3:TrackPointExtension>
            <ns3:atemp>21.0</ns3:atemp>
          </ns3:TrackPointExtension>
        </extensions>
      </trkpt>
      <trkpt lat="42.56890819407999515533447265625" lon="20.03153932280838489532470703125">
        <ele>2017</ele>
        <time>2026-06-15T12:58:33.000Z</time>
        <extensions>
          <ns3:TrackPointExtension>
            <ns3:atemp>21.0</ns3:atemp>
          </ns3:TrackPointExtension>
        </extensions>
      </trkpt>
      <trkpt lat="42.5689159892499446868896484375" lon="20.0315611995756626129150390625">
        <ele>2016.800048828125</ele>
        <time>2026-06-15T12:58:34.000Z</time>
        <extensions>
          <ns3:TrackPointExtension>
            <ns3:atemp>21.0</ns3:atemp>
          </ns3:TrackPointExtension>
        </extensions>
      </trkpt>
      <trkpt lat="42.568919174373149871826171875" lon="20.03158056177198886871337890625">
        <ele>2016.5999755859375</ele>
        <time>2026-06-15T12:58:35.000Z</time>
        <extensions>
          <ns3:TrackPointExtension>
            <ns3:atemp>21.0</ns3:atemp>
          </ns3:TrackPointExtension>
        </extensions>
      </trkpt>
      <trkpt lat="42.56892344914376735687255859375" lon="20.03159699030220508575439453125">
        <ele>2016.4000244140625</ele>
        <time>2026-06-15T12:58:36.000Z</time>
        <extensions>
          <ns3:TrackPointExtension>
            <ns3:atemp>21.0</ns3:atemp>
          </ns3:TrackPointExtension>
        </extensions>
      </trkpt>
      <trkpt lat="42.56892981939017772674560546875" lon="20.0316057913005352020263671875">
        <ele>2016.199951171875</ele>
        <time>2026-06-15T12:58:37.000Z</time>
        <extensions>
          <ns3:TrackPointExtension>
            <ns3:atemp>21.0</ns3:atemp>
          </ns3:TrackPointExtension>
        </extensions>
      </trkpt>
      <trkpt lat="42.5689354352653026580810546875" lon="20.0316188670694828033447265625">
        <ele>2015.800048828125</ele>
        <time>2026-06-15T12:58:38.000Z</time>
        <extensions>
          <ns3:TrackPointExtension>
            <ns3:atemp>21.0</ns3:atemp>
          </ns3:TrackPointExtension>
        </extensions>
      </trkpt>
      <trkpt lat="42.56894440390169620513916015625" lon="20.0316262431442737579345703125">
        <ele>2015.5999755859375</ele>
        <time>2026-06-15T12:58:39.000Z</time>
        <extensions>
          <ns3:TrackPointExtension>
            <ns3:atemp>21.0</ns3:atemp>
          </ns3:TrackPointExtension>
        </extensions>
      </trkpt>
      <trkpt lat="42.56895630620419979095458984375" lon="20.0316309370100498199462890625">
        <ele>2015</ele>
        <time>2026-06-15T12:58:40.000Z</time>
        <extensions>
          <ns3:TrackPointExtension>
            <ns3:atemp>21.0</ns3:atemp>
          </ns3:TrackPointExtension>
        </extensions>
      </trkpt>
      <trkpt lat="42.56896368227899074554443359375" lon="20.03164409659802913665771484375">
        <ele>2014.5999755859375</ele>
        <time>2026-06-15T12:58:41.000Z</time>
        <extensions>
          <ns3:TrackPointExtension>
            <ns3:atemp>21.0</ns3:atemp>
          </ns3:TrackPointExtension>
        </extensions>
      </trkpt>
      <trkpt lat="42.56897575221955776214599609375" lon="20.03165281377732753753662109375">
        <ele>2014.4000244140625</ele>
        <time>2026-06-15T12:58:42.000Z</time>
        <extensions>
          <ns3:TrackPointExtension>
            <ns3:atemp>21.0</ns3:atemp>
          </ns3:TrackPointExtension>
        </extensions>
      </trkpt>
      <trkpt lat="42.56898866035044193267822265625" lon="20.0316502153873443603515625">
        <ele>2014</ele>
        <time>2026-06-15T12:58:43.000Z</time>
        <extensions>
          <ns3:TrackPointExtension>
            <ns3:atemp>21.0</ns3:atemp>
          </ns3:TrackPointExtension>
        </extensions>
      </trkpt>
      <trkpt lat="42.5689981319010257720947265625" lon="20.03165264613926410675048828125">
        <ele>2013.5999755859375</ele>
        <time>2026-06-15T12:58:44.000Z</time>
        <extensions>
          <ns3:TrackPointExtension>
            <ns3:atemp>21.0</ns3:atemp>
          </ns3:TrackPointExtension>
        </extensions>
      </trkpt>
      <trkpt lat="42.56900575943291187286376953125" lon="20.03164962865412235260009765625">
        <ele>2013.199951171875</ele>
        <time>2026-06-15T12:58:45.000Z</time>
        <extensions>
          <ns3:TrackPointExtension>
            <ns3:atemp>21.0</ns3:atemp>
          </ns3:TrackPointExtension>
        </extensions>
      </trkpt>
      <trkpt lat="42.56900575943291187286376953125" lon="20.03164962865412235260009765625">
        <ele>2012.800048828125</ele>
        <time>2026-06-15T12:58:46.000Z</time>
        <extensions>
          <ns3:TrackPointExtension>
            <ns3:atemp>21.0</ns3:atemp>
          </ns3:TrackPointExtension>
        </extensions>
      </trkpt>
      <trkpt lat="42.569012381136417388916015625" lon="20.031667314469814300537109375">
        <ele>2012.4000244140625</ele>
        <time>2026-06-15T12:58:47.000Z</time>
        <extensions>
          <ns3:TrackPointExtension>
            <ns3:atemp>21.0</ns3:atemp>
          </ns3:TrackPointExtension>
        </extensions>
      </trkpt>
      <trkpt lat="42.569021098315715789794921875" lon="20.03167904913425445556640625">
        <ele>2012.199951171875</ele>
        <time>2026-06-15T12:58:48.000Z</time>
        <extensions>
          <ns3:TrackPointExtension>
            <ns3:atemp>21.0</ns3:atemp>
          </ns3:TrackPointExtension>
        </extensions>
      </trkpt>
      <trkpt lat="42.56903124041855335235595703125" lon="20.03168298862874507904052734375">
        <ele>2011.800048828125</ele>
        <time>2026-06-15T12:58:49.000Z</time>
        <extensions>
          <ns3:TrackPointExtension>
            <ns3:atemp>21.0</ns3:atemp>
          </ns3:TrackPointExtension>
        </extensions>
      </trkpt>
      <trkpt lat="42.56904314272105693817138671875" lon="20.03168852068483829498291015625">
        <ele>2011.4000244140625</ele>
        <time>2026-06-15T12:58:50.000Z</time>
        <extensions>
          <ns3:TrackPointExtension>
            <ns3:atemp>21.0</ns3:atemp>
          </ns3:TrackPointExtension>
        </extensions>
      </trkpt>
      <trkpt lat="42.56905118934810161590576171875" lon="20.0316993333399295806884765625">
        <ele>2011</ele>
        <time>2026-06-15T12:58:51.000Z</time>
        <extensions>
          <ns3:TrackPointExtension>
            <ns3:atemp>21.0</ns3:atemp>
          </ns3:TrackPointExtension>
        </extensions>
      </trkpt>
      <trkpt lat="42.56906225346028804779052734375" lon="20.03170645795762538909912109375">
        <ele>2010.5999755859375</ele>
        <time>2026-06-15T12:58:52.000Z</time>
        <extensions>
          <ns3:TrackPointExtension>
            <ns3:atemp>21.0</ns3:atemp>
          </ns3:TrackPointExtension>
        </extensions>
      </trkpt>
      <trkpt lat="42.56906795315444469451904296875" lon="20.03171903081238269805908203125">
        <ele>2010.4000244140625</ele>
        <time>2026-06-15T12:58:53.000Z</time>
        <extensions>
          <ns3:TrackPointExtension>
            <ns3:atemp>21.0</ns3:atemp>
          </ns3:TrackPointExtension>
        </extensions>
      </trkpt>
      <trkpt lat="42.56908019073307514190673828125" lon="20.0317204557359218597412109375">
        <ele>2010.199951171875</ele>
        <time>2026-06-15T12:58:54.000Z</time>
        <extensions>
          <ns3:TrackPointExtension>
            <ns3:atemp>21.0</ns3:atemp>
          </ns3:TrackPointExtension>
        </extensions>
      </trkpt>
      <trkpt lat="42.56908639334142208099365234375" lon="20.03173043020069599151611328125">
        <ele>2009.800048828125</ele>
        <time>2026-06-15T12:58:55.000Z</time>
        <extensions>
          <ns3:TrackPointExtension>
            <ns3:atemp>21.0</ns3:atemp>
          </ns3:TrackPointExtension>
        </extensions>
      </trkpt>
      <trkpt lat="42.56909720599651336669921875" lon="20.03173403441905975341796875">
        <ele>2009.4000244140625</ele>
        <time>2026-06-15T12:58:56.000Z</time>
        <extensions>
          <ns3:TrackPointExtension>
            <ns3:atemp>21.0</ns3:atemp>
          </ns3:TrackPointExtension>
        </extensions>
      </trkpt>
      <trkpt lat="42.56911321543157100677490234375" lon="20.0317335315048694610595703125">
        <ele>2009</ele>
        <time>2026-06-15T12:58:57.000Z</time>
        <extensions>
          <ns3:TrackPointExtension>
            <ns3:atemp>21.0</ns3:atemp>
          </ns3:TrackPointExtension>
        </extensions>
      </trkpt>
      <trkpt lat="42.5691332481801509857177734375" lon="20.03173830918967723846435546875">
        <ele>2008.5999755859375</ele>
        <time>2026-06-15T12:58:58.000Z</time>
        <extensions>
          <ns3:TrackPointExtension>
            <ns3:atemp>21.0</ns3:atemp>
          </ns3:TrackPointExtension>
        </extensions>
      </trkpt>
      <trkpt lat="42.56914682686328887939453125" lon="20.0317482836544513702392578125">
        <ele>2008.199951171875</ele>
        <time>2026-06-15T12:58:59.000Z</time>
        <extensions>
          <ns3:TrackPointExtension>
            <ns3:atemp>21.0</ns3:atemp>
          </ns3:TrackPointExtension>
        </extensions>
      </trkpt>
      <trkpt lat="42.56915914826095104217529296875" lon="20.0317633710801601409912109375">
        <ele>2008</ele>
        <time>2026-06-15T12:59:00.000Z</time>
        <extensions>
          <ns3:TrackPointExtension>
            <ns3:atemp>21.0</ns3:atemp>
          </ns3:TrackPointExtension>
        </extensions>
      </trkpt>
      <trkpt lat="42.5691724754869937896728515625" lon="20.031772591173648834228515625">
        <ele>2007.5999755859375</ele>
        <time>2026-06-15T12:59:01.000Z</time>
        <extensions>
          <ns3:TrackPointExtension>
            <ns3:atemp>21.0</ns3:atemp>
          </ns3:TrackPointExtension>
        </extensions>
      </trkpt>
      <trkpt lat="42.5691875629127025604248046875" lon="20.0317843258380889892578125">
        <ele>2007.4000244140625</ele>
        <time>2026-06-15T12:59:02.000Z</time>
        <extensions>
          <ns3:TrackPointExtension>
            <ns3:atemp>21.0</ns3:atemp>
          </ns3:TrackPointExtension>
        </extensions>
      </trkpt>
      <trkpt lat="42.56920223124325275421142578125" lon="20.03179128281772136688232421875">
        <ele>2007</ele>
        <time>2026-06-15T12:59:03.000Z</time>
        <extensions>
          <ns3:TrackPointExtension>
            <ns3:atemp>21.0</ns3:atemp>
          </ns3:TrackPointExtension>
        </extensions>
      </trkpt>
      <trkpt lat="42.56921379826962947845458984375" lon="20.0317868404090404510498046875">
        <ele>2006.800048828125</ele>
        <time>2026-06-15T12:59:04.000Z</time>
        <extensions>
          <ns3:TrackPointExtension>
            <ns3:atemp>21.0</ns3:atemp>
          </ns3:TrackPointExtension>
        </extensions>
      </trkpt>
      <trkpt lat="42.56922771222889423370361328125" lon="20.03178122453391551971435546875">
        <ele>2006.5999755859375</ele>
        <time>2026-06-15T12:59:05.000Z</time>
        <extensions>
          <ns3:TrackPointExtension>
            <ns3:atemp>21.0</ns3:atemp>
          </ns3:TrackPointExtension>
        </extensions>
      </trkpt>
      <trkpt lat="42.5692418776452541351318359375" lon="20.03177803941071033477783203125">
        <ele>2006.199951171875</ele>
        <time>2026-06-15T12:59:06.000Z</time>
        <extensions>
          <ns3:TrackPointExtension>
            <ns3:atemp>21.0</ns3:atemp>
          </ns3:TrackPointExtension>
        </extensions>
      </trkpt>
      <trkpt lat="42.56925470195710659027099609375" lon="20.0317824818193912506103515625">
        <ele>2006</ele>
        <time>2026-06-15T12:59:07.000Z</time>
        <extensions>
          <ns3:TrackPointExtension>
            <ns3:atemp>21.0</ns3:atemp>
          </ns3:TrackPointExtension>
        </extensions>
      </trkpt>
      <trkpt lat="42.56926258094608783721923828125" lon="20.03179899416863918304443359375">
        <ele>2005.800048828125</ele>
        <time>2026-06-15T12:59:08.000Z</time>
        <extensions>
          <ns3:TrackPointExtension>
            <ns3:atemp>21.0</ns3:atemp>
          </ns3:TrackPointExtension>
        </extensions>
      </trkpt>
      <trkpt lat="42.569272220134735107421875" lon="20.03181022591888904571533203125">
        <ele>2005.4000244140625</ele>
        <time>2026-06-15T12:59:09.000Z</time>
        <extensions>
          <ns3:TrackPointExtension>
            <ns3:atemp>21.0</ns3:atemp>
          </ns3:TrackPointExtension>
        </extensions>
      </trkpt>
      <trkpt lat="42.5692904926836490631103515625" lon="20.0318084657192230224609375">
        <ele>2005.199951171875</ele>
        <time>2026-06-15T12:59:10.000Z</time>
        <extensions>
          <ns3:TrackPointExtension>
            <ns3:atemp>21.0</ns3:atemp>
          </ns3:TrackPointExtension>
        </extensions>
      </trkpt>
      <trkpt lat="42.56930298171937465667724609375" lon="20.031817853450775146484375">
        <ele>2005</ele>
        <time>2026-06-15T12:59:11.000Z</time>
        <extensions>
          <ns3:TrackPointExtension>
            <ns3:atemp>21.0</ns3:atemp>
          </ns3:TrackPointExtension>
        </extensions>
      </trkpt>
      <trkpt lat="42.5693153031170368194580078125" lon="20.031822882592678070068359375">
        <ele>2004.800048828125</ele>
        <time>2026-06-15T12:59:12.000Z</time>
        <extensions>
          <ns3:TrackPointExtension>
            <ns3:atemp>21.0</ns3:atemp>
          </ns3:TrackPointExtension>
        </extensions>
      </trkpt>
      <trkpt lat="42.56933349184691905975341796875" lon="20.031826905906200408935546875">
        <ele>2004.5999755859375</ele>
        <time>2026-06-15T12:59:13.000Z</time>
        <extensions>
          <ns3:TrackPointExtension>
            <ns3:atemp>21.0</ns3:atemp>
          </ns3:TrackPointExtension>
        </extensions>
      </trkpt>
      <trkpt lat="42.569344975054264068603515625" lon="20.03183855675160884857177734375">
        <ele>2004.4000244140625</ele>
        <time>2026-06-15T12:59:14.000Z</time>
        <extensions>
          <ns3:TrackPointExtension>
            <ns3:atemp>21.0</ns3:atemp>
          </ns3:TrackPointExtension>
        </extensions>
      </trkpt>
      <trkpt lat="42.5693572126328945159912109375" lon="20.031840987503528594970703125">
        <ele>2004</ele>
        <time>2026-06-15T12:59:15.000Z</time>
        <extensions>
          <ns3:TrackPointExtension>
            <ns3:atemp>21.0</ns3:atemp>
          </ns3:TrackPointExtension>
        </extensions>
      </trkpt>
      <trkpt lat="42.56936584599316120147705078125" lon="20.03184559755027294158935546875">
        <ele>2003.800048828125</ele>
        <time>2026-06-15T12:59:16.000Z</time>
        <extensions>
          <ns3:TrackPointExtension>
            <ns3:atemp>21.0</ns3:atemp>
          </ns3:TrackPointExtension>
        </extensions>
      </trkpt>
      <trkpt lat="42.569363750517368316650390625" lon="20.0318567454814910888671875">
        <ele>2003.5999755859375</ele>
        <time>2026-06-15T12:59:17.000Z</time>
        <extensions>
          <ns3:TrackPointExtension>
            <ns3:atemp>21.0</ns3:atemp>
          </ns3:TrackPointExtension>
        </extensions>
      </trkpt>
      <trkpt lat="42.5693620741367340087890625" lon="20.0318562425673007965087890625">
        <ele>2003.4000244140625</ele>
        <time>2026-06-15T12:59:18.000Z</time>
        <extensions>
          <ns3:TrackPointExtension>
            <ns3:atemp>21.0</ns3:atemp>
          </ns3:TrackPointExtension>
        </extensions>
      </trkpt>
      <trkpt lat="42.5693662650883197784423828125" lon="20.03185012377798557281494140625">
        <ele>2003.199951171875</ele>
        <time>2026-06-15T12:59:19.000Z</time>
        <extensions>
          <ns3:TrackPointExtension>
            <ns3:atemp>21.0</ns3:atemp>
          </ns3:TrackPointExtension>
        </extensions>
      </trkpt>
      <trkpt lat="42.56937791593372821807861328125" lon="20.03185339272022247314453125">
        <ele>2003.199951171875</ele>
        <time>2026-06-15T12:59:20.000Z</time>
        <extensions>
          <ns3:TrackPointExtension>
            <ns3:atemp>21.0</ns3:atemp>
          </ns3:TrackPointExtension>
        </extensions>
      </trkpt>
      <trkpt lat="42.5693897344172000885009765625" lon="20.0318481959402561187744140625">
        <ele>2003</ele>
        <time>2026-06-15T12:59:21.000Z</time>
        <extensions>
          <ns3:TrackPointExtension>
            <ns3:atemp>21.0</ns3:atemp>
          </ns3:TrackPointExtension>
        </extensions>
      </trkpt>
      <trkpt lat="42.56940037943422794342041015625" lon="20.03184895031154155731201171875">
        <ele>2002.800048828125</ele>
        <time>2026-06-15T12:59:22.000Z</time>
        <extensions>
          <ns3:TrackPointExtension>
            <ns3:atemp>21.0</ns3:atemp>
          </ns3:TrackPointExtension>
        </extensions>
      </trkpt>
      <trkpt lat="42.56941529922187328338623046875" lon="20.03184710629284381866455078125">
        <ele>2002.800048828125</ele>
        <time>2026-06-15T12:59:23.000Z</time>
        <extensions>
          <ns3:TrackPointExtension>
            <ns3:atemp>21.0</ns3:atemp>
          </ns3:TrackPointExtension>
        </extensions>
      </trkpt>
      <trkpt lat="42.569427452981472015380859375" lon="20.0318445079028606414794921875">
        <ele>2002.5999755859375</ele>
        <time>2026-06-15T12:59:24.000Z</time>
        <extensions>
          <ns3:TrackPointExtension>
            <ns3:atemp>21.0</ns3:atemp>
          </ns3:TrackPointExtension>
        </extensions>
      </trkpt>
      <trkpt lat="42.56943206302821636199951171875" lon="20.03184861503541469573974609375">
        <ele>2002.4000244140625</ele>
        <time>2026-06-15T12:59:25.000Z</time>
        <extensions>
          <ns3:TrackPointExtension>
            <ns3:atemp>21.0</ns3:atemp>
          </ns3:TrackPointExtension>
        </extensions>
      </trkpt>
      <trkpt lat="42.56944329477846622467041015625" lon="20.03185582347214221954345703125">
        <ele>2002.4000244140625</ele>
        <time>2026-06-15T12:59:26.000Z</time>
        <extensions>
          <ns3:TrackPointExtension>
            <ns3:atemp>21.0</ns3:atemp>
          </ns3:TrackPointExtension>
        </extensions>
      </trkpt>
      <trkpt lat="42.56945100612938404083251953125" lon="20.0318629480898380279541015625">
        <ele>2002.199951171875</ele>
        <time>2026-06-15T12:59:27.000Z</time>
        <extensions>
          <ns3:TrackPointExtension>
            <ns3:atemp>21.0</ns3:atemp>
          </ns3:TrackPointExtension>
        </extensions>
      </trkpt>
      <trkpt lat="42.56945838220417499542236328125" lon="20.031875856220722198486328125">
        <ele>2002.199951171875</ele>
        <time>2026-06-15T12:59:28.000Z</time>
        <extensions>
          <ns3:TrackPointExtension>
            <ns3:atemp>21.0</ns3:atemp>
          </ns3:TrackPointExtension>
        </extensions>
      </trkpt>
      <trkpt lat="42.56947548128664493560791015625" lon="20.03188784234225749969482421875">
        <ele>2002</ele>
        <time>2026-06-15T12:59:29.000Z</time>
        <extensions>
          <ns3:TrackPointExtension>
            <ns3:atemp>21.0</ns3:atemp>
          </ns3:TrackPointExtension>
        </extensions>
      </trkpt>
      <trkpt lat="42.56948352791368961334228515625" lon="20.03190259449183940887451171875">
        <ele>2001.800048828125</ele>
        <time>2026-06-15T12:59:30.000Z</time>
        <extensions>
          <ns3:TrackPointExtension>
            <ns3:atemp>21.0</ns3:atemp>
          </ns3:TrackPointExtension>
        </extensions>
      </trkpt>
      <trkpt lat="42.5694872997701168060302734375" lon="20.0319152511656284332275390625">
        <ele>2001.5999755859375</ele>
        <time>2026-06-15T12:59:31.000Z</time>
        <extensions>
          <ns3:TrackPointExtension>
            <ns3:atemp>21.0</ns3:atemp>
          </ns3:TrackPointExtension>
        </extensions>
      </trkpt>
      <trkpt lat="42.56948880851268768310546875" lon="20.0319330208003520965576171875">
        <ele>2001.4000244140625</ele>
        <time>2026-06-15T12:59:32.000Z</time>
        <extensions>
          <ns3:TrackPointExtension>
            <ns3:atemp>21.0</ns3:atemp>
          </ns3:TrackPointExtension>
        </extensions>
      </trkpt>
      <trkpt lat="42.56948956288397312164306640625" lon="20.031951963901519775390625">
        <ele>2001.199951171875</ele>
        <time>2026-06-15T12:59:33.000Z</time>
        <extensions>
          <ns3:TrackPointExtension>
            <ns3:atemp>21.0</ns3:atemp>
          </ns3:TrackPointExtension>
        </extensions>
      </trkpt>
      <trkpt lat="42.5694973580539226531982421875" lon="20.0319652073085308074951171875">
        <ele>2001</ele>
        <time>2026-06-15T12:59:34.000Z</time>
        <extensions>
          <ns3:TrackPointExtension>
            <ns3:atemp>21.0</ns3:atemp>
          </ns3:TrackPointExtension>
        </extensions>
      </trkpt>
      <trkpt lat="42.5695060752332210540771484375" lon="20.03197870217263698577880859375">
        <ele>2000.800048828125</ele>
        <time>2026-06-15T12:59:35.000Z</time>
        <extensions>
          <ns3:TrackPointExtension>
            <ns3:atemp>21.0</ns3:atemp>
          </ns3:TrackPointExtension>
        </extensions>
      </trkpt>
      <trkpt lat="42.56951454095542430877685546875" lon="20.03197635523974895477294921875">
        <ele>2000.5999755859375</ele>
        <time>2026-06-15T12:59:36.000Z</time>
        <extensions>
          <ns3:TrackPointExtension>
            <ns3:atemp>21.0</ns3:atemp>
          </ns3:TrackPointExtension>
        </extensions>
      </trkpt>
      <trkpt lat="42.5695265270769596099853515625" lon="20.0319720804691314697265625">
        <ele>2000.4000244140625</ele>
        <time>2026-06-15T12:59:37.000Z</time>
        <extensions>
          <ns3:TrackPointExtension>
            <ns3:atemp>21.0</ns3:atemp>
          </ns3:TrackPointExtension>
        </extensions>
      </trkpt>
      <trkpt lat="42.56953549571335315704345703125" lon="20.031974427402019500732421875">
        <ele>2000.199951171875</ele>
        <time>2026-06-15T12:59:38.000Z</time>
        <extensions>
          <ns3:TrackPointExtension>
            <ns3:atemp>21.0</ns3:atemp>
          </ns3:TrackPointExtension>
        </extensions>
      </trkpt>
      <trkpt lat="42.56954354234039783477783203125" lon="20.03197803162038326263427734375">
        <ele>2000.199951171875</ele>
        <time>2026-06-15T12:59:39.000Z</time>
        <extensions>
          <ns3:TrackPointExtension>
            <ns3:atemp>21.0</ns3:atemp>
          </ns3:TrackPointExtension>
        </extensions>
      </trkpt>
      <trkpt lat="42.56954890675842761993408203125" lon="20.0319849886000156402587890625">
        <ele>2000</ele>
        <time>2026-06-15T12:59:40.000Z</time>
        <extensions>
          <ns3:TrackPointExtension>
            <ns3:atemp>21.0</ns3:atemp>
          </ns3:TrackPointExtension>
        </extensions>
      </trkpt>
      <trkpt lat="42.56955762393772602081298828125" lon="20.03198104910552501678466796875">
        <ele>2000</ele>
        <time>2026-06-15T12:59:41.000Z</time>
        <extensions>
          <ns3:TrackPointExtension>
            <ns3:atemp>21.0</ns3:atemp>
          </ns3:TrackPointExtension>
        </extensions>
      </trkpt>
      <trkpt lat="42.569574974477291107177734375" lon="20.03198356367647647857666015625">
        <ele>1999.800048828125</ele>
        <time>2026-06-15T12:59:42.000Z</time>
        <extensions>
          <ns3:TrackPointExtension>
            <ns3:atemp>21.0</ns3:atemp>
          </ns3:TrackPointExtension>
        </extensions>
      </trkpt>
      <trkpt lat="42.56958142854273319244384765625" lon="20.03199010156095027923583984375">
        <ele>1999.5999755859375</ele>
        <time>2026-06-15T12:59:43.000Z</time>
        <extensions>
          <ns3:TrackPointExtension>
            <ns3:atemp>21.0</ns3:atemp>
          </ns3:TrackPointExtension>
        </extensions>
      </trkpt>
      <trkpt lat="42.5695895589888095855712890625" lon="20.03199647180736064910888671875">
        <ele>1999.4000244140625</ele>
        <time>2026-06-15T12:59:44.000Z</time>
        <extensions>
          <ns3:TrackPointExtension>
            <ns3:atemp>21.0</ns3:atemp>
          </ns3:TrackPointExtension>
        </extensions>
      </trkpt>
      <trkpt lat="42.56959584541618824005126953125" lon="20.0320040993392467498779296875">
        <ele>1999</ele>
        <time>2026-06-15T12:59:45.000Z</time>
        <extensions>
          <ns3:TrackPointExtension>
            <ns3:atemp>21.0</ns3:atemp>
          </ns3:TrackPointExtension>
        </extensions>
      </trkpt>
      <trkpt lat="42.56960405968129634857177734375" lon="20.0320185162127017974853515625">
        <ele>1998.800048828125</ele>
        <time>2026-06-15T12:59:46.000Z</time>
        <extensions>
          <ns3:TrackPointExtension>
            <ns3:atemp>21.0</ns3:atemp>
          </ns3:TrackPointExtension>
        </extensions>
      </trkpt>
      <trkpt lat="42.56961244158446788787841796875" lon="20.0320342741906642913818359375">
        <ele>1998.4000244140625</ele>
        <time>2026-06-15T12:59:47.000Z</time>
        <extensions>
          <ns3:TrackPointExtension>
            <ns3:atemp>21.0</ns3:atemp>
          </ns3:TrackPointExtension>
        </extensions>
      </trkpt>
      <trkpt lat="42.56962752901017665863037109375" lon="20.03204257227480411529541015625">
        <ele>1998.199951171875</ele>
        <time>2026-06-15T12:59:48.000Z</time>
        <extensions>
          <ns3:TrackPointExtension>
            <ns3:atemp>21.0</ns3:atemp>
          </ns3:TrackPointExtension>
        </extensions>
      </trkpt>
      <trkpt lat="42.56964161060750484466552734375" lon="20.03205045126378536224365234375">
        <ele>1997.800048828125</ele>
        <time>2026-06-15T12:59:49.000Z</time>
        <extensions>
          <ns3:TrackPointExtension>
            <ns3:atemp>21.0</ns3:atemp>
          </ns3:TrackPointExtension>
        </extensions>
      </trkpt>
      <trkpt lat="42.56965116597712039947509765625" lon="20.0320634432137012481689453125">
        <ele>1997.5999755859375</ele>
        <time>2026-06-15T12:59:50.000Z</time>
        <extensions>
          <ns3:TrackPointExtension>
            <ns3:atemp>21.0</ns3:atemp>
          </ns3:TrackPointExtension>
        </extensions>
      </trkpt>
      <trkpt lat="42.56966172717511653900146484375" lon="20.03207023255527019500732421875">
        <ele>1997.4000244140625</ele>
        <time>2026-06-15T12:59:51.000Z</time>
        <extensions>
          <ns3:TrackPointExtension>
            <ns3:atemp>21.0</ns3:atemp>
          </ns3:TrackPointExtension>
        </extensions>
      </trkpt>
      <trkpt lat="42.56967656314373016357421875" lon="20.0320802070200443267822265625">
        <ele>1997.199951171875</ele>
        <time>2026-06-15T12:59:52.000Z</time>
        <extensions>
          <ns3:TrackPointExtension>
            <ns3:atemp>21.0</ns3:atemp>
          </ns3:TrackPointExtension>
        </extensions>
      </trkpt>
      <trkpt lat="42.56968905217945575714111328125" lon="20.0320838950574398040771484375">
        <ele>1996.800048828125</ele>
        <time>2026-06-15T12:59:53.000Z</time>
        <extensions>
          <ns3:TrackPointExtension>
            <ns3:atemp>21.0</ns3:atemp>
          </ns3:TrackPointExtension>
        </extensions>
      </trkpt>
      <trkpt lat="42.5697040557861328125" lon="20.03208464942872524261474609375">
        <ele>1996.4000244140625</ele>
        <time>2026-06-15T12:59:54.000Z</time>
        <extensions>
          <ns3:TrackPointExtension>
            <ns3:atemp>21.0</ns3:atemp>
          </ns3:TrackPointExtension>
        </extensions>
      </trkpt>
      <trkpt lat="42.569718472659587860107421875" lon="20.0320845656096935272216796875">
        <ele>1996</ele>
        <time>2026-06-15T12:59:55.000Z</time>
        <extensions>
          <ns3:TrackPointExtension>
            <ns3:atemp>21.0</ns3:atemp>
          </ns3:TrackPointExtension>
        </extensions>
      </trkpt>
      <trkpt lat="42.56972878240048885345458984375" lon="20.032087750732898712158203125">
        <ele>1995.4000244140625</ele>
        <time>2026-06-15T12:59:56.000Z</time>
        <extensions>
          <ns3:TrackPointExtension>
            <ns3:atemp>21.0</ns3:atemp>
          </ns3:TrackPointExtension>
        </extensions>
      </trkpt>
      <trkpt lat="42.56973263807594776153564453125" lon="20.03209076821804046630859375">
        <ele>1995.199951171875</ele>
        <time>2026-06-15T12:59:57.000Z</time>
        <extensions>
          <ns3:TrackPointExtension>
            <ns3:atemp>21.0</ns3:atemp>
          </ns3:TrackPointExtension>
        </extensions>
      </trkpt>
      <trkpt lat="42.56973900832235813140869140625" lon="20.03208515234291553497314453125">
        <ele>1994.800048828125</ele>
        <time>2026-06-15T12:59:58.000Z</time>
        <extensions>
          <ns3:TrackPointExtension>
            <ns3:atemp>21.0</ns3:atemp>
          </ns3:TrackPointExtension>
        </extensions>
      </trkpt>
      <trkpt lat="42.56974889896810054779052734375" lon="20.0321009941399097442626953125">
        <ele>1994.5999755859375</ele>
        <time>2026-06-15T12:59:59.000Z</time>
        <extensions>
          <ns3:TrackPointExtension>
            <ns3:atemp>21.0</ns3:atemp>
          </ns3:TrackPointExtension>
        </extensions>
      </trkpt>
      <trkpt lat="42.569757364690303802490234375" lon="20.0321207754313945770263671875">
        <ele>1994.4000244140625</ele>
        <time>2026-06-15T13:00:00.000Z</time>
        <extensions>
          <ns3:TrackPointExtension>
            <ns3:atemp>21.0</ns3:atemp>
          </ns3:TrackPointExtension>
        </extensions>
      </trkpt>
      <trkpt lat="42.56976415403187274932861328125" lon="20.0321222841739654541015625">
        <ele>1994</ele>
        <time>2026-06-15T13:00:01.000Z</time>
        <extensions>
          <ns3:TrackPointExtension>
            <ns3:atemp>21.0</ns3:atemp>
          </ns3:TrackPointExtension>
        </extensions>
      </trkpt>
      <trkpt lat="42.569774799048900604248046875" lon="20.03213091753423213958740234375">
        <ele>1993.800048828125</ele>
        <time>2026-06-15T13:00:02.000Z</time>
        <extensions>
          <ns3:TrackPointExtension>
            <ns3:atemp>21.0</ns3:atemp>
          </ns3:TrackPointExtension>
        </extensions>
      </trkpt>
      <trkpt lat="42.5697831809520721435546875" lon="20.03213368356227874755859375">
        <ele>1993.4000244140625</ele>
        <time>2026-06-15T13:00:03.000Z</time>
        <extensions>
          <ns3:TrackPointExtension>
            <ns3:atemp>21.0</ns3:atemp>
          </ns3:TrackPointExtension>
        </extensions>
      </trkpt>
      <trkpt lat="42.56979349069297313690185546875" lon="20.03214801661670207977294921875">
        <ele>1993</ele>
        <time>2026-06-15T13:00:04.000Z</time>
        <extensions>
          <ns3:TrackPointExtension>
            <ns3:atemp>21.0</ns3:atemp>
          </ns3:TrackPointExtension>
        </extensions>
      </trkpt>
      <trkpt lat="42.56980304606258869171142578125" lon="20.03215841017663478851318359375">
        <ele>1992.5999755859375</ele>
        <time>2026-06-15T13:00:05.000Z</time>
        <extensions>
          <ns3:TrackPointExtension>
            <ns3:atemp>21.0</ns3:atemp>
          </ns3:TrackPointExtension>
        </extensions>
      </trkpt>
      <trkpt lat="42.5698024593293666839599609375" lon="20.03217752091586589813232421875">
        <ele>1992.199951171875</ele>
        <time>2026-06-15T13:00:06.000Z</time>
        <extensions>
          <ns3:TrackPointExtension>
            <ns3:atemp>21.0</ns3:atemp>
          </ns3:TrackPointExtension>
        </extensions>
      </trkpt>
      <trkpt lat="42.56980421952903270721435546875" lon="20.0321931950747966766357421875">
        <ele>1991.5999755859375</ele>
        <time>2026-06-15T13:00:07.000Z</time>
        <extensions>
          <ns3:TrackPointExtension>
            <ns3:atemp>21.0</ns3:atemp>
          </ns3:TrackPointExtension>
        </extensions>
      </trkpt>
      <trkpt lat="42.56980438716709613800048828125" lon="20.03221213817596435546875">
        <ele>1991.4000244140625</ele>
        <time>2026-06-15T13:00:08.000Z</time>
        <extensions>
          <ns3:TrackPointExtension>
            <ns3:atemp>21.0</ns3:atemp>
          </ns3:TrackPointExtension>
        </extensions>
      </trkpt>
      <trkpt lat="42.5698100030422210693359375" lon="20.0322307460010051727294921875">
        <ele>1991.199951171875</ele>
        <time>2026-06-15T13:00:09.000Z</time>
        <extensions>
          <ns3:TrackPointExtension>
            <ns3:atemp>21.0</ns3:atemp>
          </ns3:TrackPointExtension>
        </extensions>
      </trkpt>
      <trkpt lat="42.56982014514505863189697265625" lon="20.03224021755158901214599609375">
        <ele>1990.800048828125</ele>
        <time>2026-06-15T13:00:10.000Z</time>
        <extensions>
          <ns3:TrackPointExtension>
            <ns3:atemp>21.0</ns3:atemp>
          </ns3:TrackPointExtension>
        </extensions>
      </trkpt>
      <trkpt lat="42.569837160408496856689453125" lon="20.0322444923222064971923828125">
        <ele>1990.5999755859375</ele>
        <time>2026-06-15T13:00:11.000Z</time>
        <extensions>
          <ns3:TrackPointExtension>
            <ns3:atemp>21.0</ns3:atemp>
          </ns3:TrackPointExtension>
        </extensions>
      </trkpt>
      <trkpt lat="42.569849900901317596435546875" lon="20.03223669715225696563720703125">
        <ele>1990.4000244140625</ele>
        <time>2026-06-15T13:00:12.000Z</time>
        <extensions>
          <ns3:TrackPointExtension>
            <ns3:atemp>21.0</ns3:atemp>
          </ns3:TrackPointExtension>
        </extensions>
      </trkpt>
      <trkpt lat="42.569862641394138336181640625" lon="20.03222865052521228790283203125">
        <ele>1990.199951171875</ele>
        <time>2026-06-15T13:00:13.000Z</time>
        <extensions>
          <ns3:TrackPointExtension>
            <ns3:atemp>21.0</ns3:atemp>
          </ns3:TrackPointExtension>
        </extensions>
      </trkpt>
      <trkpt lat="42.5698701851069927215576171875" lon="20.032232590019702911376953125">
        <ele>1990</ele>
        <time>2026-06-15T13:00:14.000Z</time>
        <extensions>
          <ns3:TrackPointExtension>
            <ns3:atemp>21.0</ns3:atemp>
          </ns3:TrackPointExtension>
        </extensions>
      </trkpt>
      <trkpt lat="42.56987144239246845245361328125" lon="20.03223334439098834991455078125">
        <ele>1989.800048828125</ele>
        <time>2026-06-15T13:00:15.000Z</time>
        <extensions>
          <ns3:TrackPointExtension>
            <ns3:atemp>21.0</ns3:atemp>
          </ns3:TrackPointExtension>
        </extensions>
      </trkpt>
      <trkpt lat="42.5698715262115001678466796875" lon="20.032233260571956634521484375">
        <ele>1989.800048828125</ele>
        <time>2026-06-15T13:00:16.000Z</time>
        <extensions>
          <ns3:TrackPointExtension>
            <ns3:atemp>21.0</ns3:atemp>
          </ns3:TrackPointExtension>
        </extensions>
      </trkpt>
      <trkpt lat="42.56987730972468852996826171875" lon="20.0322496891021728515625">
        <ele>1989.5999755859375</ele>
        <time>2026-06-15T13:00:17.000Z</time>
        <extensions>
          <ns3:TrackPointExtension>
            <ns3:atemp>21.0</ns3:atemp>
          </ns3:TrackPointExtension>
        </extensions>
      </trkpt>
      <trkpt lat="42.5698916427791118621826171875" lon="20.03226150758564472198486328125">
        <ele>1989.4000244140625</ele>
        <time>2026-06-15T13:00:18.000Z</time>
        <extensions>
          <ns3:TrackPointExtension>
            <ns3:atemp>21.0</ns3:atemp>
          </ns3:TrackPointExtension>
        </extensions>
      </trkpt>
      <trkpt lat="42.5699144415557384490966796875" lon="20.03226913511753082275390625">
        <ele>1989.4000244140625</ele>
        <time>2026-06-15T13:00:19.000Z</time>
        <extensions>
          <ns3:TrackPointExtension>
            <ns3:atemp>21.0</ns3:atemp>
          </ns3:TrackPointExtension>
        </extensions>
      </trkpt>
      <trkpt lat="42.56993162445724010467529296875" lon="20.032283551990985870361328125">
        <ele>1989.199951171875</ele>
        <time>2026-06-15T13:00:20.000Z</time>
        <extensions>
          <ns3:TrackPointExtension>
            <ns3:atemp>21.0</ns3:atemp>
          </ns3:TrackPointExtension>
        </extensions>
      </trkpt>
      <trkpt lat="42.56994855590164661407470703125" lon="20.0323021598160266876220703125">
        <ele>1989</ele>
        <time>2026-06-15T13:00:21.000Z</time>
        <extensions>
          <ns3:TrackPointExtension>
            <ns3:atemp>21.0</ns3:atemp>
          </ns3:TrackPointExtension>
        </extensions>
      </trkpt>
      <trkpt lat="42.56996414624154567718505859375" lon="20.03231766633689403533935546875">
        <ele>1989</ele>
        <time>2026-06-15T13:00:22.000Z</time>
        <extensions>
          <ns3:TrackPointExtension>
            <ns3:atemp>21.0</ns3:atemp>
          </ns3:TrackPointExtension>
        </extensions>
      </trkpt>
      <trkpt lat="42.56997537799179553985595703125" lon="20.0323246233165264129638671875">
        <ele>1988.800048828125</ele>
        <time>2026-06-15T13:00:23.000Z</time>
        <extensions>
          <ns3:TrackPointExtension>
            <ns3:atemp>21.0</ns3:atemp>
          </ns3:TrackPointExtension>
        </extensions>
      </trkpt>
      <trkpt lat="42.56998476572334766387939453125" lon="20.0323373638093471527099609375">
        <ele>1988.5999755859375</ele>
        <time>2026-06-15T13:00:24.000Z</time>
        <extensions>
          <ns3:TrackPointExtension>
            <ns3:atemp>21.0</ns3:atemp>
          </ns3:TrackPointExtension>
        </extensions>
      </trkpt>
      <trkpt lat="42.56999214179813861846923828125" lon="20.032343566417694091796875">
        <ele>1988.4000244140625</ele>
        <time>2026-06-15T13:00:25.000Z</time>
        <extensions>
          <ns3:TrackPointExtension>
            <ns3:atemp>21.0</ns3:atemp>
          </ns3:TrackPointExtension>
        </extensions>
      </trkpt>
      <trkpt lat="42.56999976933002471923828125" lon="20.032354630529880523681640625">
        <ele>1988.199951171875</ele>
        <time>2026-06-15T13:00:26.000Z</time>
        <extensions>
          <ns3:TrackPointExtension>
            <ns3:atemp>21.0</ns3:atemp>
          </ns3:TrackPointExtension>
        </extensions>
      </trkpt>
      <trkpt lat="42.57001359947025775909423828125" lon="20.0323645211756229400634765625">
        <ele>1988.199951171875</ele>
        <time>2026-06-15T13:00:27.000Z</time>
        <extensions>
          <ns3:TrackPointExtension>
            <ns3:atemp>21.0</ns3:atemp>
          </ns3:TrackPointExtension>
        </extensions>
      </trkpt>
      <trkpt lat="42.5700250826776027679443359375" lon="20.0323796086013317108154296875">
        <ele>1988</ele>
        <time>2026-06-15T13:00:28.000Z</time>
        <extensions>
          <ns3:TrackPointExtension>
            <ns3:atemp>21.0</ns3:atemp>
          </ns3:TrackPointExtension>
        </extensions>
      </trkpt>
      <trkpt lat="42.5700317882001399993896484375" lon="20.03239125944674015045166015625">
        <ele>1988</ele>
        <time>2026-06-15T13:00:29.000Z</time>
        <extensions>
          <ns3:TrackPointExtension>
            <ns3:atemp>21.0</ns3:atemp>
          </ns3:TrackPointExtension>
        </extensions>
      </trkpt>
      <trkpt lat="42.570036314427852630615234375" lon="20.03240198828279972076416015625">
        <ele>1988</ele>
        <time>2026-06-15T13:00:30.000Z</time>
        <extensions>
          <ns3:TrackPointExtension>
            <ns3:atemp>21.0</ns3:atemp>
          </ns3:TrackPointExtension>
        </extensions>
      </trkpt>
      <trkpt lat="42.5700421817600727081298828125" lon="20.03241741098463535308837890625">
        <ele>1987.800048828125</ele>
        <time>2026-06-15T13:00:31.000Z</time>
        <extensions>
          <ns3:TrackPointExtension>
            <ns3:atemp>21.0</ns3:atemp>
          </ns3:TrackPointExtension>
        </extensions>
      </trkpt>
      <trkpt lat="42.5700579397380352020263671875" lon="20.032436437904834747314453125">
        <ele>1987.800048828125</ele>
        <time>2026-06-15T13:00:32.000Z</time>
        <extensions>
          <ns3:TrackPointExtension>
            <ns3:atemp>21.0</ns3:atemp>
          </ns3:TrackPointExtension>
        </extensions>
      </trkpt>
      <trkpt lat="42.57006506435573101043701171875" lon="20.03244909457862377166748046875">
        <ele>1987.5999755859375</ele>
        <time>2026-06-15T13:00:33.000Z</time>
        <extensions>
          <ns3:TrackPointExtension>
            <ns3:atemp>21.0</ns3:atemp>
          </ns3:TrackPointExtension>
        </extensions>
      </trkpt>
      <trkpt lat="42.5700701773166656494140625" lon="20.03246200270950794219970703125">
        <ele>1987.5999755859375</ele>
        <time>2026-06-15T13:00:34.000Z</time>
        <extensions>
          <ns3:TrackPointExtension>
            <ns3:atemp>21.0</ns3:atemp>
          </ns3:TrackPointExtension>
        </extensions>
      </trkpt>
      <trkpt lat="42.5700795650482177734375" lon="20.03248647786676883697509765625">
        <ele>1987.4000244140625</ele>
        <time>2026-06-15T13:00:35.000Z</time>
        <extensions>
          <ns3:TrackPointExtension>
            <ns3:atemp>21.0</ns3:atemp>
          </ns3:TrackPointExtension>
        </extensions>
      </trkpt>
      <trkpt lat="42.5700804032385349273681640625" lon="20.03250776790082454681396484375">
        <ele>1987.4000244140625</ele>
        <time>2026-06-15T13:00:36.000Z</time>
        <extensions>
          <ns3:TrackPointExtension>
            <ns3:atemp>21.0</ns3:atemp>
          </ns3:TrackPointExtension>
        </extensions>
      </trkpt>
      <trkpt lat="42.57007512263953685760498046875" lon="20.03252687864005565643310546875">
        <ele>1987.199951171875</ele>
        <time>2026-06-15T13:00:37.000Z</time>
        <extensions>
          <ns3:TrackPointExtension>
            <ns3:atemp>21.0</ns3:atemp>
          </ns3:TrackPointExtension>
        </extensions>
      </trkpt>
      <trkpt lat="42.57006908766925334930419921875" lon="20.032541044056415557861328125">
        <ele>1987.199951171875</ele>
        <time>2026-06-15T13:00:38.000Z</time>
        <extensions>
          <ns3:TrackPointExtension>
            <ns3:atemp>21.0</ns3:atemp>
          </ns3:TrackPointExtension>
        </extensions>
      </trkpt>
      <trkpt lat="42.57006724365055561065673828125" lon="20.0325609929859638214111328125">
        <ele>1987</ele>
        <time>2026-06-15T13:00:39.000Z</time>
        <extensions>
          <ns3:TrackPointExtension>
            <ns3:atemp>21.0</ns3:atemp>
          </ns3:TrackPointExtension>
        </extensions>
      </trkpt>
      <trkpt lat="42.57007059641182422637939453125" lon="20.0325809419155120849609375">
        <ele>1986.800048828125</ele>
        <time>2026-06-15T13:00:40.000Z</time>
        <extensions>
          <ns3:TrackPointExtension>
            <ns3:atemp>21.0</ns3:atemp>
          </ns3:TrackPointExtension>
        </extensions>
      </trkpt>
      <trkpt lat="42.570069842040538787841796875" lon="20.0325995497405529022216796875">
        <ele>1986.800048828125</ele>
        <time>2026-06-15T13:00:41.000Z</time>
        <extensions>
          <ns3:TrackPointExtension>
            <ns3:atemp>21.0</ns3:atemp>
          </ns3:TrackPointExtension>
        </extensions>
      </trkpt>
      <trkpt lat="42.570077888667583465576171875" lon="20.0326102785766124725341796875">
        <ele>1986.800048828125</ele>
        <time>2026-06-15T13:00:42.000Z</time>
        <extensions>
          <ns3:TrackPointExtension>
            <ns3:atemp>21.0</ns3:atemp>
          </ns3:TrackPointExtension>
        </extensions>
      </trkpt>
      <trkpt lat="42.5700840912759304046630859375" lon="20.03262511454522609710693359375">
        <ele>1986.800048828125</ele>
        <time>2026-06-15T13:00:43.000Z</time>
        <extensions>
          <ns3:TrackPointExtension>
            <ns3:atemp>21.0</ns3:atemp>
          </ns3:TrackPointExtension>
        </extensions>
      </trkpt>
      <trkpt lat="42.57008501328527927398681640625" lon="20.0326350890100002288818359375">
        <ele>1986.800048828125</ele>
        <time>2026-06-15T13:00:44.000Z</time>
        <extensions>
          <ns3:TrackPointExtension>
            <ns3:atemp>21.0</ns3:atemp>
          </ns3:TrackPointExtension>
        </extensions>
      </trkpt>
      <trkpt lat="42.57008534856140613555908203125" lon="20.03264741040766239166259765625">
        <ele>1987</ele>
        <time>2026-06-15T13:00:45.000Z</time>
        <extensions>
          <ns3:TrackPointExtension>
            <ns3:atemp>21.0</ns3:atemp>
          </ns3:TrackPointExtension>
        </extensions>
      </trkpt>
      <trkpt lat="42.57008132524788379669189453125" lon="20.03266115672886371612548828125">
        <ele>1987.199951171875</ele>
        <time>2026-06-15T13:00:46.000Z</time>
        <extensions>
          <ns3:TrackPointExtension>
            <ns3:atemp>21.0</ns3:atemp>
          </ns3:TrackPointExtension>
        </extensions>
      </trkpt>
      <trkpt lat="42.5700804032385349273681640625" lon="20.03267724998295307159423828125">
        <ele>1987.199951171875</ele>
        <time>2026-06-15T13:00:47.000Z</time>
        <extensions>
          <ns3:TrackPointExtension>
            <ns3:atemp>21.0</ns3:atemp>
          </ns3:TrackPointExtension>
        </extensions>
      </trkpt>
      <trkpt lat="42.57007629610598087310791015625" lon="20.0326883979141712188720703125">
        <ele>1987.4000244140625</ele>
        <time>2026-06-15T13:00:48.000Z</time>
        <extensions>
          <ns3:TrackPointExtension>
            <ns3:atemp>21.0</ns3:atemp>
          </ns3:TrackPointExtension>
        </extensions>
      </trkpt>
      <trkpt lat="42.57007210515439510345458984375" lon="20.03270097076892852783203125">
        <ele>1987.4000244140625</ele>
        <time>2026-06-15T13:00:49.000Z</time>
        <extensions>
          <ns3:TrackPointExtension>
            <ns3:atemp>21.0</ns3:atemp>
          </ns3:TrackPointExtension>
        </extensions>
      </trkpt>
      <trkpt lat="42.570069842040538787841796875" lon="20.03271169960498809814453125">
        <ele>1987.5999755859375</ele>
        <time>2026-06-15T13:00:50.000Z</time>
        <extensions>
          <ns3:TrackPointExtension>
            <ns3:atemp>21.0</ns3:atemp>
          </ns3:TrackPointExtension>
        </extensions>
      </trkpt>
      <trkpt lat="42.5700733624398708343505859375" lon="20.0327204167842864990234375">
        <ele>1987.800048828125</ele>
        <time>2026-06-15T13:00:51.000Z</time>
        <extensions>
          <ns3:TrackPointExtension>
            <ns3:atemp>21.0</ns3:atemp>
          </ns3:TrackPointExtension>
        </extensions>
      </trkpt>
      <trkpt lat="42.57007160224020481109619140625" lon="20.03273441456258296966552734375">
        <ele>1987.800048828125</ele>
        <time>2026-06-15T13:00:52.000Z</time>
        <extensions>
          <ns3:TrackPointExtension>
            <ns3:atemp>21.0</ns3:atemp>
          </ns3:TrackPointExtension>
        </extensions>
      </trkpt>
      <trkpt lat="42.570071853697299957275390625" lon="20.03274698741734027862548828125">
        <ele>1987.800048828125</ele>
        <time>2026-06-15T13:00:53.000Z</time>
        <extensions>
          <ns3:TrackPointExtension>
            <ns3:atemp>21.0</ns3:atemp>
          </ns3:TrackPointExtension>
        </extensions>
      </trkpt>
      <trkpt lat="42.5700703449547290802001953125" lon="20.0327621586620807647705078125">
        <ele>1987.800048828125</ele>
        <time>2026-06-15T13:00:54.000Z</time>
        <extensions>
          <ns3:TrackPointExtension>
            <ns3:atemp>21.0</ns3:atemp>
          </ns3:TrackPointExtension>
        </extensions>
      </trkpt>
      <trkpt lat="42.57006975822150707244873046875" lon="20.03277800045907497406005859375">
        <ele>1987.800048828125</ele>
        <time>2026-06-15T13:00:55.000Z</time>
        <extensions>
          <ns3:TrackPointExtension>
            <ns3:atemp>21.0</ns3:atemp>
          </ns3:TrackPointExtension>
        </extensions>
      </trkpt>
      <trkpt lat="42.57006506435573101043701171875" lon="20.0328007154166698455810546875">
        <ele>1987.5999755859375</ele>
        <time>2026-06-15T13:00:56.000Z</time>
        <extensions>
          <ns3:TrackPointExtension>
            <ns3:atemp>21.0</ns3:atemp>
          </ns3:TrackPointExtension>
        </extensions>
      </trkpt>
      <trkpt lat="42.57006456144154071807861328125" lon="20.032823346555233001708984375">
        <ele>1987.5999755859375</ele>
        <time>2026-06-15T13:00:57.000Z</time>
        <extensions>
          <ns3:TrackPointExtension>
            <ns3:atemp>21.0</ns3:atemp>
          </ns3:TrackPointExtension>
        </extensions>
      </trkpt>
      <trkpt lat="42.57006992585957050323486328125" lon="20.03284907899796962738037109375">
        <ele>1987.4000244140625</ele>
        <time>2026-06-15T13:00:58.000Z</time>
        <extensions>
          <ns3:TrackPointExtension>
            <ns3:atemp>21.0</ns3:atemp>
          </ns3:TrackPointExtension>
        </extensions>
      </trkpt>
      <trkpt lat="42.5700763799250125885009765625" lon="20.03286567516624927520751953125">
        <ele>1987.4000244140625</ele>
        <time>2026-06-15T13:00:59.000Z</time>
        <extensions>
          <ns3:TrackPointExtension>
            <ns3:atemp>21.0</ns3:atemp>
          </ns3:TrackPointExtension>
        </extensions>
      </trkpt>
      <trkpt lat="42.57009230554103851318359375" lon="20.0328826904296875">
        <ele>1987.199951171875</ele>
        <time>2026-06-15T13:01:00.000Z</time>
        <extensions>
          <ns3:TrackPointExtension>
            <ns3:atemp>21.0</ns3:atemp>
          </ns3:TrackPointExtension>
        </extensions>
      </trkpt>
      <trkpt lat="42.57010932080447673797607421875" lon="20.0328898988664150238037109375">
        <ele>1987</ele>
        <time>2026-06-15T13:01:01.000Z</time>
        <extensions>
          <ns3:TrackPointExtension>
            <ns3:atemp>21.0</ns3:atemp>
          </ns3:TrackPointExtension>
        </extensions>
      </trkpt>
      <trkpt lat="42.57012373767793178558349609375" lon="20.03290825523436069488525390625">
        <ele>1986.800048828125</ele>
        <time>2026-06-15T13:01:02.000Z</time>
        <extensions>
          <ns3:TrackPointExtension>
            <ns3:atemp>21.0</ns3:atemp>
          </ns3:TrackPointExtension>
        </extensions>
      </trkpt>
      <trkpt lat="42.57012985646724700927734375" lon="20.0329237617552280426025390625">
        <ele>1986.4000244140625</ele>
        <time>2026-06-15T13:01:03.000Z</time>
        <extensions>
          <ns3:TrackPointExtension>
            <ns3:atemp>21.0</ns3:atemp>
          </ns3:TrackPointExtension>
        </extensions>
      </trkpt>
      <trkpt lat="42.5701363943517208099365234375" lon="20.03294446505606174468994140625">
        <ele>1986.4000244140625</ele>
        <time>2026-06-15T13:01:04.000Z</time>
        <extensions>
          <ns3:TrackPointExtension>
            <ns3:atemp>21.0</ns3:atemp>
          </ns3:TrackPointExtension>
        </extensions>
      </trkpt>
      <trkpt lat="42.57013924419879913330078125" lon="20.03296474926173686981201171875">
        <ele>1986.199951171875</ele>
        <time>2026-06-15T13:01:05.000Z</time>
        <extensions>
          <ns3:TrackPointExtension>
            <ns3:atemp>21.0</ns3:atemp>
          </ns3:TrackPointExtension>
        </extensions>
      </trkpt>
      <trkpt lat="42.57014083676040172576904296875" lon="20.03298754803836345672607421875">
        <ele>1986.199951171875</ele>
        <time>2026-06-15T13:01:06.000Z</time>
        <extensions>
          <ns3:TrackPointExtension>
            <ns3:atemp>21.0</ns3:atemp>
          </ns3:TrackPointExtension>
        </extensions>
      </trkpt>
      <trkpt lat="42.57014335133135318756103515625" lon="20.0330082513391971588134765625">
        <ele>1986.4000244140625</ele>
        <time>2026-06-15T13:01:07.000Z</time>
        <extensions>
          <ns3:TrackPointExtension>
            <ns3:atemp>21.0</ns3:atemp>
          </ns3:TrackPointExtension>
        </extensions>
      </trkpt>
      <trkpt lat="42.57014167495071887969970703125" lon="20.03302627243101596832275390625">
        <ele>1986.4000244140625</ele>
        <time>2026-06-15T13:01:08.000Z</time>
        <extensions>
          <ns3:TrackPointExtension>
            <ns3:atemp>21.0</ns3:atemp>
          </ns3:TrackPointExtension>
        </extensions>
      </trkpt>
      <trkpt lat="42.57014133967459201812744140625" lon="20.0330395996570587158203125">
        <ele>1986.4000244140625</ele>
        <time>2026-06-15T13:01:09.000Z</time>
        <extensions>
          <ns3:TrackPointExtension>
            <ns3:atemp>21.0</ns3:atemp>
          </ns3:TrackPointExtension>
        </extensions>
      </trkpt>
      <trkpt lat="42.57014234550297260284423828125" lon="20.03305141814053058624267578125">
        <ele>1986.4000244140625</ele>
        <time>2026-06-15T13:01:10.000Z</time>
        <extensions>
          <ns3:TrackPointExtension>
            <ns3:atemp>21.0</ns3:atemp>
          </ns3:TrackPointExtension>
        </extensions>
      </trkpt>
      <trkpt lat="42.57014192640781402587890625" lon="20.03306843340396881103515625">
        <ele>1986.4000244140625</ele>
        <time>2026-06-15T13:01:11.000Z</time>
        <extensions>
          <ns3:TrackPointExtension>
            <ns3:atemp>21.0</ns3:atemp>
          </ns3:TrackPointExtension>
        </extensions>
      </trkpt>
      <trkpt lat="42.570146955549716949462890625" lon="20.0330867059528827667236328125">
        <ele>1986.199951171875</ele>
        <time>2026-06-15T13:01:12.000Z</time>
        <extensions>
          <ns3:TrackPointExtension>
            <ns3:atemp>21.0</ns3:atemp>
          </ns3:TrackPointExtension>
        </extensions>
      </trkpt>
      <trkpt lat="42.57014636881649494171142578125" lon="20.0331017933785915374755859375">
        <ele>1986.199951171875</ele>
        <time>2026-06-15T13:01:13.000Z</time>
        <extensions>
          <ns3:TrackPointExtension>
            <ns3:atemp>21.0</ns3:atemp>
          </ns3:TrackPointExtension>
        </extensions>
      </trkpt>
      <trkpt lat="42.5701434351503849029541015625" lon="20.03312165848910808563232421875">
        <ele>1986.199951171875</ele>
        <time>2026-06-15T13:01:14.000Z</time>
        <extensions>
          <ns3:TrackPointExtension>
            <ns3:atemp>21.0</ns3:atemp>
          </ns3:TrackPointExtension>
        </extensions>
      </trkpt>
      <trkpt lat="42.57014058530330657958984375" lon="20.03313439898192882537841796875">
        <ele>1986.199951171875</ele>
        <time>2026-06-15T13:01:15.000Z</time>
        <extensions>
          <ns3:TrackPointExtension>
            <ns3:atemp>21.0</ns3:atemp>
          </ns3:TrackPointExtension>
        </extensions>
      </trkpt>
      <trkpt lat="42.5701400823891162872314453125" lon="20.03316105343401432037353515625">
        <ele>1986</ele>
        <time>2026-06-15T13:01:16.000Z</time>
        <extensions>
          <ns3:TrackPointExtension>
            <ns3:atemp>21.0</ns3:atemp>
          </ns3:TrackPointExtension>
        </extensions>
      </trkpt>
      <trkpt lat="42.5701487995684146881103515625" lon="20.03317446447908878326416015625">
        <ele>1986</ele>
        <time>2026-06-15T13:01:17.000Z</time>
        <extensions>
          <ns3:TrackPointExtension>
            <ns3:atemp>21.0</ns3:atemp>
          </ns3:TrackPointExtension>
        </extensions>
      </trkpt>
      <trkpt lat="42.57015508599579334259033203125" lon="20.0331924855709075927734375">
        <ele>1985.800048828125</ele>
        <time>2026-06-15T13:01:18.000Z</time>
        <extensions>
          <ns3:TrackPointExtension>
            <ns3:atemp>21.0</ns3:atemp>
          </ns3:TrackPointExtension>
        </extensions>
      </trkpt>
      <trkpt lat="42.57015927694737911224365234375" lon="20.03320765681564807891845703125">
        <ele>1985.5999755859375</ele>
        <time>2026-06-15T13:01:19.000Z</time>
        <extensions>
          <ns3:TrackPointExtension>
            <ns3:atemp>21.0</ns3:atemp>
          </ns3:TrackPointExtension>
        </extensions>
      </trkpt>
      <trkpt lat="42.5701613724231719970703125" lon="20.03322827629745006561279296875">
        <ele>1985.4000244140625</ele>
        <time>2026-06-15T13:01:20.000Z</time>
        <extensions>
          <ns3:TrackPointExtension>
            <ns3:atemp>21.0</ns3:atemp>
          </ns3:TrackPointExtension>
        </extensions>
      </trkpt>
      <trkpt lat="42.57017101161181926727294921875" lon="20.03324705176055431365966796875">
        <ele>1985.199951171875</ele>
        <time>2026-06-15T13:01:21.000Z</time>
        <extensions>
          <ns3:TrackPointExtension>
            <ns3:atemp>21.0</ns3:atemp>
          </ns3:TrackPointExtension>
        </extensions>
      </trkpt>
      <trkpt lat="42.57017872296273708343505859375" lon="20.03326733596622943878173828125">
        <ele>1985.199951171875</ele>
        <time>2026-06-15T13:01:22.000Z</time>
        <extensions>
          <ns3:TrackPointExtension>
            <ns3:atemp>21.0</ns3:atemp>
          </ns3:TrackPointExtension>
        </extensions>
      </trkpt>
      <trkpt lat="42.57018056698143482208251953125" lon="20.03327772952616214752197265625">
        <ele>1985</ele>
        <time>2026-06-15T13:01:23.000Z</time>
        <extensions>
          <ns3:TrackPointExtension>
            <ns3:atemp>21.0</ns3:atemp>
          </ns3:TrackPointExtension>
        </extensions>
      </trkpt>
      <trkpt lat="42.57018224336206912994384765625" lon="20.03329432569444179534912109375">
        <ele>1984.800048828125</ele>
        <time>2026-06-15T13:01:24.000Z</time>
        <extensions>
          <ns3:TrackPointExtension>
            <ns3:atemp>21.0</ns3:atemp>
          </ns3:TrackPointExtension>
        </extensions>
      </trkpt>
      <trkpt lat="42.57018727250397205352783203125" lon="20.03330673091113567352294921875">
        <ele>1984.5999755859375</ele>
        <time>2026-06-15T13:01:25.000Z</time>
        <extensions>
          <ns3:TrackPointExtension>
            <ns3:atemp>21.0</ns3:atemp>
          </ns3:TrackPointExtension>
        </extensions>
      </trkpt>
      <trkpt lat="42.57019288837909698486328125" lon="20.03332768566906452178955078125">
        <ele>1984.5999755859375</ele>
        <time>2026-06-15T13:01:26.000Z</time>
        <extensions>
          <ns3:TrackPointExtension>
            <ns3:atemp>21.0</ns3:atemp>
          </ns3:TrackPointExtension>
        </extensions>
      </trkpt>
      <trkpt lat="42.570192553102970123291015625" lon="20.03335065208375453948974609375">
        <ele>1984.4000244140625</ele>
        <time>2026-06-15T13:01:27.000Z</time>
        <extensions>
          <ns3:TrackPointExtension>
            <ns3:atemp>21.0</ns3:atemp>
          </ns3:TrackPointExtension>
        </extensions>
      </trkpt>
      <trkpt lat="42.5701984204351902008056640625" lon="20.03337546251714229583740234375">
        <ele>1984.4000244140625</ele>
        <time>2026-06-15T13:01:28.000Z</time>
        <extensions>
          <ns3:TrackPointExtension>
            <ns3:atemp>21.0</ns3:atemp>
          </ns3:TrackPointExtension>
        </extensions>
      </trkpt>
      <trkpt lat="42.5702024437487125396728515625" lon="20.03339574672281742095947265625">
        <ele>1984.4000244140625</ele>
        <time>2026-06-15T13:01:29.000Z</time>
        <extensions>
          <ns3:TrackPointExtension>
            <ns3:atemp>21.0</ns3:atemp>
          </ns3:TrackPointExtension>
        </extensions>
      </trkpt>
      <trkpt lat="42.5702054612338542938232421875" lon="20.03341980278491973876953125">
        <ele>1984.199951171875</ele>
        <time>2026-06-15T13:01:30.000Z</time>
        <extensions>
          <ns3:TrackPointExtension>
            <ns3:atemp>21.0</ns3:atemp>
          </ns3:TrackPointExtension>
        </extensions>
      </trkpt>
      <trkpt lat="42.570209316909313201904296875" lon="20.0334424339234828948974609375">
        <ele>1984.199951171875</ele>
        <time>2026-06-15T13:01:31.000Z</time>
        <extensions>
          <ns3:TrackPointExtension>
            <ns3:atemp>21.0</ns3:atemp>
          </ns3:TrackPointExtension>
        </extensions>
      </trkpt>
      <trkpt lat="42.57021090947091579437255859375" lon="20.0334652327001094818115234375">
        <ele>1984.199951171875</ele>
        <time>2026-06-15T13:01:32.000Z</time>
        <extensions>
          <ns3:TrackPointExtension>
            <ns3:atemp>21.0</ns3:atemp>
          </ns3:TrackPointExtension>
        </extensions>
      </trkpt>
      <trkpt lat="42.5702083110809326171875" lon="20.03348593600094318389892578125">
        <ele>1984</ele>
        <time>2026-06-15T13:01:33.000Z</time>
        <extensions>
          <ns3:TrackPointExtension>
            <ns3:atemp>21.0</ns3:atemp>
          </ns3:TrackPointExtension>
        </extensions>
      </trkpt>
      <trkpt lat="42.570210658013820648193359375" lon="20.0335014425218105316162109375">
        <ele>1984</ele>
        <time>2026-06-15T13:01:34.000Z</time>
        <extensions>
          <ns3:TrackPointExtension>
            <ns3:atemp>21.0</ns3:atemp>
          </ns3:TrackPointExtension>
        </extensions>
      </trkpt>
      <trkpt lat="42.57021761499345302581787109375" lon="20.0335250794887542724609375">
        <ele>1983.800048828125</ele>
        <time>2026-06-15T13:01:35.000Z</time>
        <extensions>
          <ns3:TrackPointExtension>
            <ns3:atemp>21.0</ns3:atemp>
          </ns3:TrackPointExtension>
        </extensions>
      </trkpt>
      <trkpt lat="42.57022373378276824951171875" lon="20.03353916108608245849609375">
        <ele>1983.4000244140625</ele>
        <time>2026-06-15T13:01:36.000Z</time>
        <extensions>
          <ns3:TrackPointExtension>
            <ns3:atemp>21.0</ns3:atemp>
          </ns3:TrackPointExtension>
        </extensions>
      </trkpt>
      <trkpt lat="42.5702319480478763580322265625" lon="20.03354863263666629791259765625">
        <ele>1983.199951171875</ele>
        <time>2026-06-15T13:01:37.000Z</time>
        <extensions>
          <ns3:TrackPointExtension>
            <ns3:atemp>21.0</ns3:atemp>
          </ns3:TrackPointExtension>
        </extensions>
      </trkpt>
      <trkpt lat="42.57024376653134822845458984375" lon="20.0335524044930934906005859375">
        <ele>1983</ele>
        <time>2026-06-15T13:01:38.000Z</time>
        <extensions>
          <ns3:TrackPointExtension>
            <ns3:atemp>21.0</ns3:atemp>
          </ns3:TrackPointExtension>
        </extensions>
      </trkpt>
      <trkpt lat="42.5702527351677417755126953125" lon="20.0335524044930934906005859375">
        <ele>1982.800048828125</ele>
        <time>2026-06-15T13:01:39.000Z</time>
        <extensions>
          <ns3:TrackPointExtension>
            <ns3:atemp>21.0</ns3:atemp>
          </ns3:TrackPointExtension>
        </extensions>
      </trkpt>
      <trkpt lat="42.5702597759664058685302734375" lon="20.0335510633885860443115234375">
        <ele>1982.800048828125</ele>
        <time>2026-06-15T13:01:40.000Z</time>
        <extensions>
          <ns3:TrackPointExtension>
            <ns3:atemp>21.0</ns3:atemp>
          </ns3:TrackPointExtension>
        </extensions>
      </trkpt>
      <trkpt lat="42.5702678225934505462646484375" lon="20.03355248831212520599365234375">
        <ele>1982.800048828125</ele>
        <time>2026-06-15T13:01:41.000Z</time>
        <extensions>
          <ns3:TrackPointExtension>
            <ns3:atemp>21.0</ns3:atemp>
          </ns3:TrackPointExtension>
        </extensions>
      </trkpt>
      <trkpt lat="42.57027469575405120849609375" lon="20.0335513986647129058837890625">
        <ele>1983</ele>
        <time>2026-06-15T13:01:42.000Z</time>
        <extensions>
          <ns3:TrackPointExtension>
            <ns3:atemp>21.0</ns3:atemp>
          </ns3:TrackPointExtension>
        </extensions>
      </trkpt>
      <trkpt lat="42.5702762044966220855712890625" lon="20.0335614569485187530517578125">
        <ele>1983.199951171875</ele>
        <time>2026-06-15T13:01:43.000Z</time>
        <extensions>
          <ns3:TrackPointExtension>
            <ns3:atemp>21.0</ns3:atemp>
          </ns3:TrackPointExtension>
        </extensions>
      </trkpt>
      <trkpt lat="42.5702839158475399017333984375" lon="20.03357226960361003875732421875">
        <ele>1983.5999755859375</ele>
        <time>2026-06-15T13:01:44.000Z</time>
        <extensions>
          <ns3:TrackPointExtension>
            <ns3:atemp>21.0</ns3:atemp>
          </ns3:TrackPointExtension>
        </extensions>
      </trkpt>
      <trkpt lat="42.57029472850263118743896484375" lon="20.03357746638357639312744140625">
        <ele>1984</ele>
        <time>2026-06-15T13:01:45.000Z</time>
        <extensions>
          <ns3:TrackPointExtension>
            <ns3:atemp>21.0</ns3:atemp>
          </ns3:TrackPointExtension>
        </extensions>
      </trkpt>
      <trkpt lat="42.570302523672580718994140625" lon="20.033573023974895477294921875">
        <ele>1984.199951171875</ele>
        <time>2026-06-15T13:01:46.000Z</time>
        <extensions>
          <ns3:TrackPointExtension>
            <ns3:atemp>21.0</ns3:atemp>
          </ns3:TrackPointExtension>
        </extensions>
      </trkpt>
      <trkpt lat="42.570307217538356781005859375" lon="20.033573023974895477294921875">
        <ele>1984.199951171875</ele>
        <time>2026-06-15T13:01:47.000Z</time>
        <extensions>
          <ns3:TrackPointExtension>
            <ns3:atemp>21.0</ns3:atemp>
          </ns3:TrackPointExtension>
        </extensions>
      </trkpt>
      <trkpt lat="42.570312917232513427734375" lon="20.033573694527149200439453125">
        <ele>1984.4000244140625</ele>
        <time>2026-06-15T13:01:48.000Z</time>
        <extensions>
          <ns3:TrackPointExtension>
            <ns3:atemp>21.0</ns3:atemp>
          </ns3:TrackPointExtension>
        </extensions>
      </trkpt>
      <trkpt lat="42.57032104767858982086181640625" lon="20.03357134759426116943359375">
        <ele>1984.5999755859375</ele>
        <time>2026-06-15T13:01:49.000Z</time>
        <extensions>
          <ns3:TrackPointExtension>
            <ns3:atemp>21.0</ns3:atemp>
          </ns3:TrackPointExtension>
        </extensions>
      </trkpt>
      <trkpt lat="42.5703298486769199371337890625" lon="20.03356573171913623809814453125">
        <ele>1984.5999755859375</ele>
        <time>2026-06-15T13:01:50.000Z</time>
        <extensions>
          <ns3:TrackPointExtension>
            <ns3:atemp>21.0</ns3:atemp>
          </ns3:TrackPointExtension>
        </extensions>
      </trkpt>
      <trkpt lat="42.5703332014381885528564453125" lon="20.03356757573783397674560546875">
        <ele>1985</ele>
        <time>2026-06-15T13:01:51.000Z</time>
        <extensions>
          <ns3:TrackPointExtension>
            <ns3:atemp>21.0</ns3:atemp>
          </ns3:TrackPointExtension>
        </extensions>
      </trkpt>
      <trkpt lat="42.57033630274236202239990234375" lon="20.03356791101396083831787109375">
        <ele>1985.199951171875</ele>
        <time>2026-06-15T13:01:52.000Z</time>
        <extensions>
          <ns3:TrackPointExtension>
            <ns3:atemp>21.0</ns3:atemp>
          </ns3:TrackPointExtension>
        </extensions>
      </trkpt>
      <trkpt lat="42.5703402422368526458740234375" lon="20.0335684977471828460693359375">
        <ele>1985.5999755859375</ele>
        <time>2026-06-15T13:01:53.000Z</time>
        <extensions>
          <ns3:TrackPointExtension>
            <ns3:atemp>21.0</ns3:atemp>
          </ns3:TrackPointExtension>
        </extensions>
      </trkpt>
      <trkpt lat="42.57034032605588436126708984375" lon="20.0335684977471828460693359375">
        <ele>1985.800048828125</ele>
        <time>2026-06-15T13:01:54.000Z</time>
        <extensions>
          <ns3:TrackPointExtension>
            <ns3:atemp>21.0</ns3:atemp>
          </ns3:TrackPointExtension>
        </extensions>
      </trkpt>
      <trkpt lat="42.57034032605588436126708984375" lon="20.0335684977471828460693359375">
        <ele>1986</ele>
        <time>2026-06-15T13:01:55.000Z</time>
        <extensions>
          <ns3:TrackPointExtension>
            <ns3:atemp>21.0</ns3:atemp>
          </ns3:TrackPointExtension>
        </extensions>
      </trkpt>
      <trkpt lat="42.57034032605588436126708984375" lon="20.0335684977471828460693359375">
        <ele>1986.199951171875</ele>
        <time>2026-06-15T13:01:56.000Z</time>
        <extensions>
          <ns3:TrackPointExtension>
            <ns3:atemp>21.0</ns3:atemp>
          </ns3:TrackPointExtension>
        </extensions>
      </trkpt>
      <trkpt lat="42.57034032605588436126708984375" lon="20.0335684977471828460693359375">
        <ele>1986.4000244140625</ele>
        <time>2026-06-15T13:01:57.000Z</time>
        <extensions>
          <ns3:TrackPointExtension>
            <ns3:atemp>21.0</ns3:atemp>
          </ns3:TrackPointExtension>
        </extensions>
      </trkpt>
      <trkpt lat="42.57034032605588436126708984375" lon="20.0335684977471828460693359375">
        <ele>1986.5999755859375</ele>
        <time>2026-06-15T13:01:58.000Z</time>
        <extensions>
          <ns3:TrackPointExtension>
            <ns3:atemp>21.0</ns3:atemp>
          </ns3:TrackPointExtension>
        </extensions>
      </trkpt>
      <trkpt lat="42.5703409127891063690185546875" lon="20.03356891684234142303466796875">
        <ele>1986.800048828125</ele>
        <time>2026-06-15T13:01:59.000Z</time>
        <extensions>
          <ns3:TrackPointExtension>
            <ns3:atemp>21.0</ns3:atemp>
          </ns3:TrackPointExtension>
        </extensions>
      </trkpt>
      <trkpt lat="42.5703482888638973236083984375" lon="20.0335752032697200775146484375">
        <ele>1987</ele>
        <time>2026-06-15T13:02:00.000Z</time>
        <extensions>
          <ns3:TrackPointExtension>
            <ns3:atemp>21.0</ns3:atemp>
          </ns3:TrackPointExtension>
        </extensions>
      </trkpt>
      <trkpt lat="42.57036044262349605560302734375" lon="20.03357998095452785491943359375">
        <ele>1987.199951171875</ele>
        <time>2026-06-15T13:02:01.000Z</time>
        <extensions>
          <ns3:TrackPointExtension>
            <ns3:atemp>21.0</ns3:atemp>
          </ns3:TrackPointExtension>
        </extensions>
      </trkpt>
      <trkpt lat="42.57036848925054073333740234375" lon="20.0335802324116230010986328125">
        <ele>1987.4000244140625</ele>
        <time>2026-06-15T13:02:02.000Z</time>
        <extensions>
          <ns3:TrackPointExtension>
            <ns3:atemp>21.0</ns3:atemp>
          </ns3:TrackPointExtension>
        </extensions>
      </trkpt>
      <trkpt lat="42.57037536241114139556884765625" lon="20.0335800647735595703125">
        <ele>1987.5999755859375</ele>
        <time>2026-06-15T13:02:03.000Z</time>
        <extensions>
          <ns3:TrackPointExtension>
            <ns3:atemp>21.0</ns3:atemp>
          </ns3:TrackPointExtension>
        </extensions>
      </trkpt>
      <trkpt lat="42.5703808106482028961181640625" lon="20.03358350135385990142822265625">
        <ele>1987.800048828125</ele>
        <time>2026-06-15T13:02:04.000Z</time>
        <extensions>
          <ns3:TrackPointExtension>
            <ns3:atemp>21.0</ns3:atemp>
          </ns3:TrackPointExtension>
        </extensions>
      </trkpt>
      <trkpt lat="42.5703818164765834808349609375" lon="20.03358970396220684051513671875">
        <ele>1988.199951171875</ele>
        <time>2026-06-15T13:02:05.000Z</time>
        <extensions>
          <ns3:TrackPointExtension>
            <ns3:atemp>21.0</ns3:atemp>
          </ns3:TrackPointExtension>
        </extensions>
      </trkpt>
      <trkpt lat="42.5703821517527103424072265625" lon="20.03360294736921787261962890625">
        <ele>1988.4000244140625</ele>
        <time>2026-06-15T13:02:06.000Z</time>
        <extensions>
          <ns3:TrackPointExtension>
            <ns3:atemp>21.0</ns3:atemp>
          </ns3:TrackPointExtension>
        </extensions>
      </trkpt>
      <trkpt lat="42.570378296077251434326171875" lon="20.03360445611178874969482421875">
        <ele>1988.4000244140625</ele>
        <time>2026-06-15T13:02:07.000Z</time>
        <extensions>
          <ns3:TrackPointExtension>
            <ns3:atemp>21.0</ns3:atemp>
          </ns3:TrackPointExtension>
        </extensions>
      </trkpt>
      <trkpt lat="42.57037519477307796478271484375" lon="20.03361300565302371978759765625">
        <ele>1988.5999755859375</ele>
        <time>2026-06-15T13:02:08.000Z</time>
        <extensions>
          <ns3:TrackPointExtension>
            <ns3:atemp>21.0</ns3:atemp>
          </ns3:TrackPointExtension>
        </extensions>
      </trkpt>
      <trkpt lat="42.5703764520585536956787109375" lon="20.0336127541959285736083984375">
        <ele>1988.800048828125</ele>
        <time>2026-06-15T13:02:09.000Z</time>
        <extensions>
          <ns3:TrackPointExtension>
            <ns3:atemp>21.0</ns3:atemp>
          </ns3:TrackPointExtension>
        </extensions>
      </trkpt>
      <trkpt lat="42.5703764520585536956787109375" lon="20.03361283801496028900146484375">
        <ele>1988.800048828125</ele>
        <time>2026-06-15T13:02:10.000Z</time>
        <extensions>
          <ns3:TrackPointExtension>
            <ns3:atemp>21.0</ns3:atemp>
          </ns3:TrackPointExtension>
        </extensions>
      </trkpt>
      <trkpt lat="42.5703764520585536956787109375" lon="20.03361283801496028900146484375">
        <ele>1988.800048828125</ele>
        <time>2026-06-15T13:02:11.000Z</time>
        <extensions>
          <ns3:TrackPointExtension>
            <ns3:atemp>21.0</ns3:atemp>
          </ns3:TrackPointExtension>
        </extensions>
      </trkpt>
      <trkpt lat="42.5703764520585536956787109375" lon="20.03361283801496028900146484375">
        <ele>1989</ele>
        <time>2026-06-15T13:02:12.000Z</time>
        <extensions>
          <ns3:TrackPointExtension>
            <ns3:atemp>21.0</ns3:atemp>
          </ns3:TrackPointExtension>
        </extensions>
      </trkpt>
      <trkpt lat="42.57037653587758541107177734375" lon="20.03361292183399200439453125">
        <ele>1989</ele>
        <time>2026-06-15T13:02:13.000Z</time>
        <extensions>
          <ns3:TrackPointExtension>
            <ns3:atemp>21.0</ns3:atemp>
          </ns3:TrackPointExtension>
        </extensions>
      </trkpt>
      <trkpt lat="42.5703804753720760345458984375" lon="20.0336097367107868194580078125">
        <ele>1989</ele>
        <time>2026-06-15T13:02:14.000Z</time>
        <extensions>
          <ns3:TrackPointExtension>
            <ns3:atemp>21.0</ns3:atemp>
          </ns3:TrackPointExtension>
        </extensions>
      </trkpt>
      <trkpt lat="42.57038332521915435791015625" lon="20.03360881470143795013427734375">
        <ele>1989</ele>
        <time>2026-06-15T13:02:15.000Z</time>
        <extensions>
          <ns3:TrackPointExtension>
            <ns3:atemp>21.0</ns3:atemp>
          </ns3:TrackPointExtension>
        </extensions>
      </trkpt>
      <trkpt lat="42.5703764520585536956787109375" lon="20.03361283801496028900146484375">
        <ele>1989</ele>
        <time>2026-06-15T13:02:16.000Z</time>
        <extensions>
          <ns3:TrackPointExtension>
            <ns3:atemp>21.0</ns3:atemp>
          </ns3:TrackPointExtension>
        </extensions>
      </trkpt>
      <trkpt lat="42.570387683808803558349609375" lon="20.03360688686370849609375">
        <ele>1989</ele>
        <time>2026-06-15T13:02:17.000Z</time>
        <extensions>
          <ns3:TrackPointExtension>
            <ns3:atemp>21.0</ns3:atemp>
          </ns3:TrackPointExtension>
        </extensions>
      </trkpt>
      <trkpt lat="42.57039061747491359710693359375" lon="20.0336077250540256500244140625">
        <ele>1989</ele>
        <time>2026-06-15T13:02:18.000Z</time>
        <extensions>
          <ns3:TrackPointExtension>
            <ns3:atemp>21.0</ns3:atemp>
          </ns3:TrackPointExtension>
        </extensions>
      </trkpt>
      <trkpt lat="42.5704009272158145904541015625" lon="20.0336043722927570343017578125">
        <ele>1989</ele>
        <time>2026-06-15T13:02:19.000Z</time>
        <extensions>
          <ns3:TrackPointExtension>
            <ns3:atemp>21.0</ns3:atemp>
          </ns3:TrackPointExtension>
        </extensions>
      </trkpt>
      <trkpt lat="42.570410482585430145263671875" lon="20.0335976667702198028564453125">
        <ele>1988.800048828125</ele>
        <time>2026-06-15T13:02:20.000Z</time>
        <extensions>
          <ns3:TrackPointExtension>
            <ns3:atemp>21.0</ns3:atemp>
          </ns3:TrackPointExtension>
        </extensions>
      </trkpt>
      <trkpt lat="42.57040746510028839111328125" lon="20.03359188325703144073486328125">
        <ele>1988.800048828125</ele>
        <time>2026-06-15T13:02:21.000Z</time>
        <extensions>
          <ns3:TrackPointExtension>
            <ns3:atemp>21.0</ns3:atemp>
          </ns3:TrackPointExtension>
        </extensions>
      </trkpt>
      <trkpt lat="42.5704083032906055450439453125" lon="20.03359951078891754150390625">
        <ele>1988.5999755859375</ele>
        <time>2026-06-15T13:02:22.000Z</time>
        <extensions>
          <ns3:TrackPointExtension>
            <ns3:atemp>21.0</ns3:atemp>
          </ns3:TrackPointExtension>
        </extensions>
      </trkpt>
      <trkpt lat="42.57040821947157382965087890625" lon="20.03359951078891754150390625">
        <ele>1988.4000244140625</ele>
        <time>2026-06-15T13:02:23.000Z</time>
        <extensions>
          <ns3:TrackPointExtension>
            <ns3:atemp>21.0</ns3:atemp>
          </ns3:TrackPointExtension>
        </extensions>
      </trkpt>
      <trkpt lat="42.57040821947157382965087890625" lon="20.03359951078891754150390625">
        <ele>1988.4000244140625</ele>
        <time>2026-06-15T13:02:24.000Z</time>
        <extensions>
          <ns3:TrackPointExtension>
            <ns3:atemp>21.0</ns3:atemp>
          </ns3:TrackPointExtension>
        </extensions>
      </trkpt>
      <trkpt lat="42.57040821947157382965087890625" lon="20.03359951078891754150390625">
        <ele>1988.4000244140625</ele>
        <time>2026-06-15T13:02:25.000Z</time>
        <extensions>
          <ns3:TrackPointExtension>
            <ns3:atemp>21.0</ns3:atemp>
          </ns3:TrackPointExtension>
        </extensions>
      </trkpt>
      <trkpt lat="42.57040821947157382965087890625" lon="20.03359951078891754150390625">
        <ele>1988.4000244140625</ele>
        <time>2026-06-15T13:02:26.000Z</time>
        <extensions>
          <ns3:TrackPointExtension>
            <ns3:atemp>21.0</ns3:atemp>
          </ns3:TrackPointExtension>
        </extensions>
      </trkpt>
      <trkpt lat="42.57040821947157382965087890625" lon="20.03359951078891754150390625">
        <ele>1988.4000244140625</ele>
        <time>2026-06-15T13:02:27.000Z</time>
        <extensions>
          <ns3:TrackPointExtension>
            <ns3:atemp>21.0</ns3:atemp>
          </ns3:TrackPointExtension>
        </extensions>
      </trkpt>
      <trkpt lat="42.57040855474770069122314453125" lon="20.03359942696988582611083984375">
        <ele>1988.5999755859375</ele>
        <time>2026-06-15T13:02:28.000Z</time>
        <extensions>
          <ns3:TrackPointExtension>
            <ns3:atemp>21.0</ns3:atemp>
          </ns3:TrackPointExtension>
        </extensions>
      </trkpt>
      <trkpt lat="42.57041090168058872222900390625" lon="20.0336010195314884185791015625">
        <ele>1988.5999755859375</ele>
        <time>2026-06-15T13:02:29.000Z</time>
        <extensions>
          <ns3:TrackPointExtension>
            <ns3:atemp>21.0</ns3:atemp>
          </ns3:TrackPointExtension>
        </extensions>
      </trkpt>
      <trkpt lat="42.57040821947157382965087890625" lon="20.03359951078891754150390625">
        <ele>1988.5999755859375</ele>
        <time>2026-06-15T13:02:30.000Z</time>
        <extensions>
          <ns3:TrackPointExtension>
            <ns3:atemp>21.0</ns3:atemp>
          </ns3:TrackPointExtension>
        </extensions>
      </trkpt>
      <trkpt lat="42.57040821947157382965087890625" lon="20.03359951078891754150390625">
        <ele>1988.5999755859375</ele>
        <time>2026-06-15T13:02:31.000Z</time>
        <extensions>
          <ns3:TrackPointExtension>
            <ns3:atemp>21.0</ns3:atemp>
          </ns3:TrackPointExtension>
        </extensions>
      </trkpt>
      <trkpt lat="42.57040821947157382965087890625" lon="20.03359951078891754150390625">
        <ele>1988.5999755859375</ele>
        <time>2026-06-15T13:02:32.000Z</time>
        <extensions>
          <ns3:TrackPointExtension>
            <ns3:atemp>21.0</ns3:atemp>
          </ns3:TrackPointExtension>
        </extensions>
      </trkpt>
      <trkpt lat="42.57040821947157382965087890625" lon="20.03359951078891754150390625">
        <ele>1988.4000244140625</ele>
        <time>2026-06-15T13:02:33.000Z</time>
        <extensions>
          <ns3:TrackPointExtension>
            <ns3:atemp>21.0</ns3:atemp>
          </ns3:TrackPointExtension>
        </extensions>
      </trkpt>
      <trkpt lat="42.57040821947157382965087890625" lon="20.03359951078891754150390625">
        <ele>1988.4000244140625</ele>
        <time>2026-06-15T13:02:34.000Z</time>
        <extensions>
          <ns3:TrackPointExtension>
            <ns3:atemp>21.0</ns3:atemp>
          </ns3:TrackPointExtension>
        </extensions>
      </trkpt>
      <trkpt lat="42.57040821947157382965087890625" lon="20.03359951078891754150390625">
        <ele>1988.5999755859375</ele>
        <time>2026-06-15T13:02:35.000Z</time>
        <extensions>
          <ns3:TrackPointExtension>
            <ns3:atemp>21.0</ns3:atemp>
          </ns3:TrackPointExtension>
        </extensions>
      </trkpt>
      <trkpt lat="42.57040821947157382965087890625" lon="20.03359951078891754150390625">
        <ele>1988.5999755859375</ele>
        <time>2026-06-15T13:02:36.000Z</time>
        <extensions>
          <ns3:TrackPointExtension>
            <ns3:atemp>21.0</ns3:atemp>
          </ns3:TrackPointExtension>
        </extensions>
      </trkpt>
      <trkpt lat="42.57040821947157382965087890625" lon="20.03359951078891754150390625">
        <ele>1988.5999755859375</ele>
        <time>2026-06-15T13:02:37.000Z</time>
        <extensions>
          <ns3:TrackPointExtension>
            <ns3:atemp>21.0</ns3:atemp>
          </ns3:TrackPointExtension>
        </extensions>
      </trkpt>
      <trkpt lat="42.57040821947157382965087890625" lon="20.03359951078891754150390625">
        <ele>1988.5999755859375</ele>
        <time>2026-06-15T13:02:38.000Z</time>
        <extensions>
          <ns3:TrackPointExtension>
            <ns3:atemp>21.0</ns3:atemp>
          </ns3:TrackPointExtension>
        </extensions>
      </trkpt>
      <trkpt lat="42.57040821947157382965087890625" lon="20.03359951078891754150390625">
        <ele>1988.5999755859375</ele>
        <time>2026-06-15T13:02:39.000Z</time>
        <extensions>
          <ns3:TrackPointExtension>
            <ns3:atemp>21.0</ns3:atemp>
          </ns3:TrackPointExtension>
        </extensions>
      </trkpt>
      <trkpt lat="42.57040821947157382965087890625" lon="20.03359951078891754150390625">
        <ele>1988.5999755859375</ele>
        <time>2026-06-15T13:02:40.000Z</time>
        <extensions>
          <ns3:TrackPointExtension>
            <ns3:atemp>22.0</ns3:atemp>
          </ns3:TrackPointExtension>
        </extensions>
      </trkpt>
      <trkpt lat="42.57040821947157382965087890625" lon="20.03359951078891754150390625">
        <ele>1988.5999755859375</ele>
        <time>2026-06-15T13:02:41.000Z</time>
        <extensions>
          <ns3:TrackPointExtension>
            <ns3:atemp>22.0</ns3:atemp>
          </ns3:TrackPointExtension>
        </extensions>
      </trkpt>
      <trkpt lat="42.57040821947157382965087890625" lon="20.03359951078891754150390625">
        <ele>1988.5999755859375</ele>
        <time>2026-06-15T13:02:42.000Z</time>
        <extensions>
          <ns3:TrackPointExtension>
            <ns3:atemp>22.0</ns3:atemp>
          </ns3:TrackPointExtension>
        </extensions>
      </trkpt>
      <trkpt lat="42.57040821947157382965087890625" lon="20.03359951078891754150390625">
        <ele>1988.5999755859375</ele>
        <time>2026-06-15T13:02:43.000Z</time>
        <extensions>
          <ns3:TrackPointExtension>
            <ns3:atemp>22.0</ns3:atemp>
          </ns3:TrackPointExtension>
        </extensions>
      </trkpt>
      <trkpt lat="42.57040821947157382965087890625" lon="20.03359951078891754150390625">
        <ele>1988.5999755859375</ele>
        <time>2026-06-15T13:02:44.000Z</time>
        <extensions>
          <ns3:TrackPointExtension>
            <ns3:atemp>22.0</ns3:atemp>
          </ns3:TrackPointExtension>
        </extensions>
      </trkpt>
      <trkpt lat="42.57040821947157382965087890625" lon="20.03359951078891754150390625">
        <ele>1988.800048828125</ele>
        <time>2026-06-15T13:02:45.000Z</time>
        <extensions>
          <ns3:TrackPointExtension>
            <ns3:atemp>22.0</ns3:atemp>
          </ns3:TrackPointExtension>
        </extensions>
      </trkpt>
      <trkpt lat="42.57040821947157382965087890625" lon="20.03359951078891754150390625">
        <ele>1988.800048828125</ele>
        <time>2026-06-15T13:02:46.000Z</time>
        <extensions>
          <ns3:TrackPointExtension>
            <ns3:atemp>22.0</ns3:atemp>
          </ns3:TrackPointExtension>
        </extensions>
      </trkpt>
      <trkpt lat="42.57040821947157382965087890625" lon="20.03359951078891754150390625">
        <ele>1988.800048828125</ele>
        <time>2026-06-15T13:02:47.000Z</time>
        <extensions>
          <ns3:TrackPointExtension>
            <ns3:atemp>22.0</ns3:atemp>
          </ns3:TrackPointExtension>
        </extensions>
      </trkpt>
      <trkpt lat="42.5704123266041278839111328125" lon="20.0335986725986003875732421875">
        <ele>1988.800048828125</ele>
        <time>2026-06-15T13:02:48.000Z</time>
        <extensions>
          <ns3:TrackPointExtension>
            <ns3:atemp>22.0</ns3:atemp>
          </ns3:TrackPointExtension>
        </extensions>
      </trkpt>
      <trkpt lat="42.5704052858054637908935546875" lon="20.03359657712280750274658203125">
        <ele>1988.800048828125</ele>
        <time>2026-06-15T13:02:49.000Z</time>
        <extensions>
          <ns3:TrackPointExtension>
            <ns3:atemp>22.0</ns3:atemp>
          </ns3:TrackPointExtension>
        </extensions>
      </trkpt>
      <trkpt lat="42.570406459271907806396484375" lon="20.033600516617298126220703125">
        <ele>1988.800048828125</ele>
        <time>2026-06-15T13:02:50.000Z</time>
        <extensions>
          <ns3:TrackPointExtension>
            <ns3:atemp>22.0</ns3:atemp>
          </ns3:TrackPointExtension>
        </extensions>
      </trkpt>
      <trkpt lat="42.57040821947157382965087890625" lon="20.03359951078891754150390625">
        <ele>1988.800048828125</ele>
        <time>2026-06-15T13:02:51.000Z</time>
        <extensions>
          <ns3:TrackPointExtension>
            <ns3:atemp>22.0</ns3:atemp>
          </ns3:TrackPointExtension>
        </extensions>
      </trkpt>
      <trkpt lat="42.57040821947157382965087890625" lon="20.03359951078891754150390625">
        <ele>1988.800048828125</ele>
        <time>2026-06-15T13:02:52.000Z</time>
        <extensions>
          <ns3:TrackPointExtension>
            <ns3:atemp>22.0</ns3:atemp>
          </ns3:TrackPointExtension>
        </extensions>
      </trkpt>
      <trkpt lat="42.57040821947157382965087890625" lon="20.03359951078891754150390625">
        <ele>1988.800048828125</ele>
        <time>2026-06-15T13:02:53.000Z</time>
        <extensions>
          <ns3:TrackPointExtension>
            <ns3:atemp>22.0</ns3:atemp>
          </ns3:TrackPointExtension>
        </extensions>
      </trkpt>
      <trkpt lat="42.57040821947157382965087890625" lon="20.03359951078891754150390625">
        <ele>1988.800048828125</ele>
        <time>2026-06-15T13:02:54.000Z</time>
        <extensions>
          <ns3:TrackPointExtension>
            <ns3:atemp>22.0</ns3:atemp>
          </ns3:TrackPointExtension>
        </extensions>
      </trkpt>
      <trkpt lat="42.57040821947157382965087890625" lon="20.03359951078891754150390625">
        <ele>1988.800048828125</ele>
        <time>2026-06-15T13:02:55.000Z</time>
        <extensions>
          <ns3:TrackPointExtension>
            <ns3:atemp>22.0</ns3:atemp>
          </ns3:TrackPointExtension>
        </extensions>
      </trkpt>
      <trkpt lat="42.57040821947157382965087890625" lon="20.03359951078891754150390625">
        <ele>1989</ele>
        <time>2026-06-15T13:02:56.000Z</time>
        <extensions>
          <ns3:TrackPointExtension>
            <ns3:atemp>22.0</ns3:atemp>
          </ns3:TrackPointExtension>
        </extensions>
      </trkpt>
      <trkpt lat="42.57040821947157382965087890625" lon="20.03359951078891754150390625">
        <ele>1989</ele>
        <time>2026-06-15T13:02:57.000Z</time>
        <extensions>
          <ns3:TrackPointExtension>
            <ns3:atemp>22.0</ns3:atemp>
          </ns3:TrackPointExtension>
        </extensions>
      </trkpt>
      <trkpt lat="42.57040821947157382965087890625" lon="20.03359951078891754150390625">
        <ele>1989</ele>
        <time>2026-06-15T13:02:58.000Z</time>
        <extensions>
          <ns3:TrackPointExtension>
            <ns3:atemp>22.0</ns3:atemp>
          </ns3:TrackPointExtension>
        </extensions>
      </trkpt>
      <trkpt lat="42.57040821947157382965087890625" lon="20.03359951078891754150390625">
        <ele>1989</ele>
        <time>2026-06-15T13:02:59.000Z</time>
        <extensions>
          <ns3:TrackPointExtension>
            <ns3:atemp>22.0</ns3:atemp>
          </ns3:TrackPointExtension>
        </extensions>
      </trkpt>
      <trkpt lat="42.57040821947157382965087890625" lon="20.03359951078891754150390625">
        <ele>1989</ele>
        <time>2026-06-15T13:03:00.000Z</time>
        <extensions>
          <ns3:TrackPointExtension>
            <ns3:atemp>22.0</ns3:atemp>
          </ns3:TrackPointExtension>
        </extensions>
      </trkpt>
      <trkpt lat="42.57040821947157382965087890625" lon="20.03359951078891754150390625">
        <ele>1989</ele>
        <time>2026-06-15T13:03:01.000Z</time>
        <extensions>
          <ns3:TrackPointExtension>
            <ns3:atemp>22.0</ns3:atemp>
          </ns3:TrackPointExtension>
        </extensions>
      </trkpt>
      <trkpt lat="42.57040821947157382965087890625" lon="20.03359951078891754150390625">
        <ele>1989</ele>
        <time>2026-06-15T13:03:02.000Z</time>
        <extensions>
          <ns3:TrackPointExtension>
            <ns3:atemp>22.0</ns3:atemp>
          </ns3:TrackPointExtension>
        </extensions>
      </trkpt>
      <trkpt lat="42.57040821947157382965087890625" lon="20.03359951078891754150390625">
        <ele>1989.199951171875</ele>
        <time>2026-06-15T13:03:03.000Z</time>
        <extensions>
          <ns3:TrackPointExtension>
            <ns3:atemp>22.0</ns3:atemp>
          </ns3:TrackPointExtension>
        </extensions>
      </trkpt>
      <trkpt lat="42.57040821947157382965087890625" lon="20.03359951078891754150390625">
        <ele>1989.199951171875</ele>
        <time>2026-06-15T13:03:04.000Z</time>
        <extensions>
          <ns3:TrackPointExtension>
            <ns3:atemp>22.0</ns3:atemp>
          </ns3:TrackPointExtension>
        </extensions>
      </trkpt>
      <trkpt lat="42.57040821947157382965087890625" lon="20.03359951078891754150390625">
        <ele>1989.199951171875</ele>
        <time>2026-06-15T13:03:05.000Z</time>
        <extensions>
          <ns3:TrackPointExtension>
            <ns3:atemp>22.0</ns3:atemp>
          </ns3:TrackPointExtension>
        </extensions>
      </trkpt>
      <trkpt lat="42.57040821947157382965087890625" lon="20.03359951078891754150390625">
        <ele>1989.199951171875</ele>
        <time>2026-06-15T13:03:06.000Z</time>
        <extensions>
          <ns3:TrackPointExtension>
            <ns3:atemp>22.0</ns3:atemp>
          </ns3:TrackPointExtension>
        </extensions>
      </trkpt>
      <trkpt lat="42.5703982450067996978759765625" lon="20.033595152199268341064453125">
        <ele>1989.199951171875</ele>
        <time>2026-06-15T13:03:07.000Z</time>
        <extensions>
          <ns3:TrackPointExtension>
            <ns3:atemp>22.0</ns3:atemp>
          </ns3:TrackPointExtension>
        </extensions>
      </trkpt>
      <trkpt lat="42.5703908689320087432861328125" lon="20.03359221853315830230712890625">
        <ele>1989.199951171875</ele>
        <time>2026-06-15T13:03:08.000Z</time>
        <extensions>
          <ns3:TrackPointExtension>
            <ns3:atemp>22.0</ns3:atemp>
          </ns3:TrackPointExtension>
        </extensions>
      </trkpt>
      <trkpt lat="42.5703908689320087432861328125" lon="20.03359221853315830230712890625">
        <ele>1989.4000244140625</ele>
        <time>2026-06-15T13:03:09.000Z</time>
        <extensions>
          <ns3:TrackPointExtension>
            <ns3:atemp>22.0</ns3:atemp>
          </ns3:TrackPointExtension>
        </extensions>
      </trkpt>
      <trkpt lat="42.5703908689320087432861328125" lon="20.03359221853315830230712890625">
        <ele>1989.4000244140625</ele>
        <time>2026-06-15T13:03:10.000Z</time>
        <extensions>
          <ns3:TrackPointExtension>
            <ns3:atemp>22.0</ns3:atemp>
          </ns3:TrackPointExtension>
        </extensions>
      </trkpt>
      <trkpt lat="42.5703908689320087432861328125" lon="20.03359221853315830230712890625">
        <ele>1989.4000244140625</ele>
        <time>2026-06-15T13:03:11.000Z</time>
        <extensions>
          <ns3:TrackPointExtension>
            <ns3:atemp>22.0</ns3:atemp>
          </ns3:TrackPointExtension>
        </extensions>
      </trkpt>
      <trkpt lat="42.5703908689320087432861328125" lon="20.03359221853315830230712890625">
        <ele>1989.4000244140625</ele>
        <time>2026-06-15T13:03:12.000Z</time>
        <extensions>
          <ns3:TrackPointExtension>
            <ns3:atemp>22.0</ns3:atemp>
          </ns3:TrackPointExtension>
        </extensions>
      </trkpt>
      <trkpt lat="42.5703908689320087432861328125" lon="20.03359221853315830230712890625">
        <ele>1989.4000244140625</ele>
        <time>2026-06-15T13:03:13.000Z</time>
        <extensions>
          <ns3:TrackPointExtension>
            <ns3:atemp>22.0</ns3:atemp>
          </ns3:TrackPointExtension>
        </extensions>
      </trkpt>
      <trkpt lat="42.5703908689320087432861328125" lon="20.03359221853315830230712890625">
        <ele>1989.4000244140625</ele>
        <time>2026-06-15T13:03:14.000Z</time>
        <extensions>
          <ns3:TrackPointExtension>
            <ns3:atemp>22.0</ns3:atemp>
          </ns3:TrackPointExtension>
        </extensions>
      </trkpt>
      <trkpt lat="42.5703908689320087432861328125" lon="20.03359221853315830230712890625">
        <ele>1989.4000244140625</ele>
        <time>2026-06-15T13:03:15.000Z</time>
        <extensions>
          <ns3:TrackPointExtension>
            <ns3:atemp>22.0</ns3:atemp>
          </ns3:TrackPointExtension>
        </extensions>
      </trkpt>
      <trkpt lat="42.5703908689320087432861328125" lon="20.03359221853315830230712890625">
        <ele>1989.4000244140625</ele>
        <time>2026-06-15T13:03:16.000Z</time>
        <extensions>
          <ns3:TrackPointExtension>
            <ns3:atemp>22.0</ns3:atemp>
          </ns3:TrackPointExtension>
        </extensions>
      </trkpt>
      <trkpt lat="42.57039078511297702789306640625" lon="20.03359221853315830230712890625">
        <ele>1989.4000244140625</ele>
        <time>2026-06-15T13:03:17.000Z</time>
        <extensions>
          <ns3:TrackPointExtension>
            <ns3:atemp>22.0</ns3:atemp>
          </ns3:TrackPointExtension>
        </extensions>
      </trkpt>
      <trkpt lat="42.57038994692265987396240234375" lon="20.03360479138791561126708984375">
        <ele>1989.4000244140625</ele>
        <time>2026-06-15T13:03:18.000Z</time>
        <extensions>
          <ns3:TrackPointExtension>
            <ns3:atemp>22.0</ns3:atemp>
          </ns3:TrackPointExtension>
        </extensions>
      </trkpt>
      <trkpt lat="42.57038458250463008880615234375" lon="20.03362557850778102874755859375">
        <ele>1989.199951171875</ele>
        <time>2026-06-15T13:03:19.000Z</time>
        <extensions>
          <ns3:TrackPointExtension>
            <ns3:atemp>22.0</ns3:atemp>
          </ns3:TrackPointExtension>
        </extensions>
      </trkpt>
      <trkpt lat="42.5703831575810909271240234375" lon="20.03363295458257198333740234375">
        <ele>1989.199951171875</ele>
        <time>2026-06-15T13:03:20.000Z</time>
        <extensions>
          <ns3:TrackPointExtension>
            <ns3:atemp>22.0</ns3:atemp>
          </ns3:TrackPointExtension>
        </extensions>
      </trkpt>
      <trkpt lat="42.57038273848593235015869140625" lon="20.033634714782238006591796875">
        <ele>1989.199951171875</ele>
        <time>2026-06-15T13:03:21.000Z</time>
        <extensions>
          <ns3:TrackPointExtension>
            <ns3:atemp>22.0</ns3:atemp>
          </ns3:TrackPointExtension>
        </extensions>
      </trkpt>
      <trkpt lat="42.57038156501948833465576171875" lon="20.033631026744842529296875">
        <ele>1989.199951171875</ele>
        <time>2026-06-15T13:03:22.000Z</time>
        <extensions>
          <ns3:TrackPointExtension>
            <ns3:atemp>22.0</ns3:atemp>
          </ns3:TrackPointExtension>
        </extensions>
      </trkpt>
      <trkpt lat="42.57038156501948833465576171875" lon="20.0336308591067790985107421875">
        <ele>1989.4000244140625</ele>
        <time>2026-06-15T13:03:23.000Z</time>
        <extensions>
          <ns3:TrackPointExtension>
            <ns3:atemp>22.0</ns3:atemp>
          </ns3:TrackPointExtension>
        </extensions>
      </trkpt>
      <trkpt lat="42.57038156501948833465576171875" lon="20.0336308591067790985107421875">
        <ele>1989.4000244140625</ele>
        <time>2026-06-15T13:03:24.000Z</time>
        <extensions>
          <ns3:TrackPointExtension>
            <ns3:atemp>22.0</ns3:atemp>
          </ns3:TrackPointExtension>
        </extensions>
      </trkpt>
      <trkpt lat="42.57038156501948833465576171875" lon="20.0336308591067790985107421875">
        <ele>1989.4000244140625</ele>
        <time>2026-06-15T13:03:25.000Z</time>
        <extensions>
          <ns3:TrackPointExtension>
            <ns3:atemp>22.0</ns3:atemp>
          </ns3:TrackPointExtension>
        </extensions>
      </trkpt>
      <trkpt lat="42.57038156501948833465576171875" lon="20.0336308591067790985107421875">
        <ele>1989.4000244140625</ele>
        <time>2026-06-15T13:03:26.000Z</time>
        <extensions>
          <ns3:TrackPointExtension>
            <ns3:atemp>22.0</ns3:atemp>
          </ns3:TrackPointExtension>
        </extensions>
      </trkpt>
      <trkpt lat="42.57038156501948833465576171875" lon="20.0336308591067790985107421875">
        <ele>1989.4000244140625</ele>
        <time>2026-06-15T13:03:27.000Z</time>
        <extensions>
          <ns3:TrackPointExtension>
            <ns3:atemp>22.0</ns3:atemp>
          </ns3:TrackPointExtension>
        </extensions>
      </trkpt>
      <trkpt lat="42.570382319390773773193359375" lon="20.0336288474500179290771484375">
        <ele>1989.4000244140625</ele>
        <time>2026-06-15T13:03:28.000Z</time>
        <extensions>
          <ns3:TrackPointExtension>
            <ns3:atemp>22.0</ns3:atemp>
          </ns3:TrackPointExtension>
        </extensions>
      </trkpt>
      <trkpt lat="42.5703855045139789581298828125" lon="20.0336254946887493133544921875">
        <ele>1989.4000244140625</ele>
        <time>2026-06-15T13:03:29.000Z</time>
        <extensions>
          <ns3:TrackPointExtension>
            <ns3:atemp>22.0</ns3:atemp>
          </ns3:TrackPointExtension>
        </extensions>
      </trkpt>
      <trkpt lat="42.57038324140012264251708984375" lon="20.033620633184909820556640625">
        <ele>1989.4000244140625</ele>
        <time>2026-06-15T13:03:30.000Z</time>
        <extensions>
          <ns3:TrackPointExtension>
            <ns3:atemp>22.0</ns3:atemp>
          </ns3:TrackPointExtension>
        </extensions>
      </trkpt>
      <trkpt lat="42.57038558833301067352294921875" lon="20.033615268766880035400390625">
        <ele>1989.4000244140625</ele>
        <time>2026-06-15T13:03:31.000Z</time>
        <extensions>
          <ns3:TrackPointExtension>
            <ns3:atemp>22.0</ns3:atemp>
          </ns3:TrackPointExtension>
        </extensions>
      </trkpt>
      <trkpt lat="42.57039162330329418182373046875" lon="20.033609904348850250244140625">
        <ele>1989.4000244140625</ele>
        <time>2026-06-15T13:03:32.000Z</time>
        <extensions>
          <ns3:TrackPointExtension>
            <ns3:atemp>22.0</ns3:atemp>
          </ns3:TrackPointExtension>
        </extensions>
      </trkpt>
      <trkpt lat="42.57039271295070648193359375" lon="20.03360764123499393463134765625">
        <ele>1989.5999755859375</ele>
        <time>2026-06-15T13:03:33.000Z</time>
        <extensions>
          <ns3:TrackPointExtension>
            <ns3:atemp>22.0</ns3:atemp>
          </ns3:TrackPointExtension>
        </extensions>
      </trkpt>
      <trkpt lat="42.57039271295070648193359375" lon="20.03360755741596221923828125">
        <ele>1989.5999755859375</ele>
        <time>2026-06-15T13:03:34.000Z</time>
        <extensions>
          <ns3:TrackPointExtension>
            <ns3:atemp>22.0</ns3:atemp>
          </ns3:TrackPointExtension>
        </extensions>
      </trkpt>
      <trkpt lat="42.57039271295070648193359375" lon="20.03360755741596221923828125">
        <ele>1989.5999755859375</ele>
        <time>2026-06-15T13:03:35.000Z</time>
        <extensions>
          <ns3:TrackPointExtension>
            <ns3:atemp>22.0</ns3:atemp>
          </ns3:TrackPointExtension>
        </extensions>
      </trkpt>
      <trkpt lat="42.57039271295070648193359375" lon="20.03360755741596221923828125">
        <ele>1989.800048828125</ele>
        <time>2026-06-15T13:03:36.000Z</time>
        <extensions>
          <ns3:TrackPointExtension>
            <ns3:atemp>22.0</ns3:atemp>
          </ns3:TrackPointExtension>
        </extensions>
      </trkpt>
      <trkpt lat="42.57039271295070648193359375" lon="20.03360755741596221923828125">
        <ele>1989.800048828125</ele>
        <time>2026-06-15T13:03:37.000Z</time>
        <extensions>
          <ns3:TrackPointExtension>
            <ns3:atemp>22.0</ns3:atemp>
          </ns3:TrackPointExtension>
        </extensions>
      </trkpt>
      <trkpt lat="42.57039271295070648193359375" lon="20.03360755741596221923828125">
        <ele>1989.800048828125</ele>
        <time>2026-06-15T13:03:38.000Z</time>
        <extensions>
          <ns3:TrackPointExtension>
            <ns3:atemp>22.0</ns3:atemp>
          </ns3:TrackPointExtension>
        </extensions>
      </trkpt>
      <trkpt lat="42.57039271295070648193359375" lon="20.03360755741596221923828125">
        <ele>1989.800048828125</ele>
        <time>2026-06-15T13:03:39.000Z</time>
        <extensions>
          <ns3:TrackPointExtension>
            <ns3:atemp>22.0</ns3:atemp>
          </ns3:TrackPointExtension>
        </extensions>
      </trkpt>
      <trkpt lat="42.57039271295070648193359375" lon="20.03360755741596221923828125">
        <ele>1989.800048828125</ele>
        <time>2026-06-15T13:03:40.000Z</time>
        <extensions>
          <ns3:TrackPointExtension>
            <ns3:atemp>22.0</ns3:atemp>
          </ns3:TrackPointExtension>
        </extensions>
      </trkpt>
      <trkpt lat="42.57039271295070648193359375" lon="20.03360755741596221923828125">
        <ele>1989.5999755859375</ele>
        <time>2026-06-15T13:03:41.000Z</time>
        <extensions>
          <ns3:TrackPointExtension>
            <ns3:atemp>22.0</ns3:atemp>
          </ns3:TrackPointExtension>
        </extensions>
      </trkpt>
      <trkpt lat="42.57039162330329418182373046875" lon="20.03360562957823276519775390625">
        <ele>1989.5999755859375</ele>
        <time>2026-06-15T13:03:42.000Z</time>
        <extensions>
          <ns3:TrackPointExtension>
            <ns3:atemp>22.0</ns3:atemp>
          </ns3:TrackPointExtension>
        </extensions>
      </trkpt>
      <trkpt lat="42.570389024913311004638671875" lon="20.03359808586537837982177734375">
        <ele>1989.4000244140625</ele>
        <time>2026-06-15T13:03:43.000Z</time>
        <extensions>
          <ns3:TrackPointExtension>
            <ns3:atemp>22.0</ns3:atemp>
          </ns3:TrackPointExtension>
        </extensions>
      </trkpt>
      <trkpt lat="42.57039271295070648193359375" lon="20.03360755741596221923828125">
        <ele>1989.4000244140625</ele>
        <time>2026-06-15T13:03:44.000Z</time>
        <extensions>
          <ns3:TrackPointExtension>
            <ns3:atemp>22.0</ns3:atemp>
          </ns3:TrackPointExtension>
        </extensions>
      </trkpt>
      <trkpt lat="42.57039271295070648193359375" lon="20.03360755741596221923828125">
        <ele>1989</ele>
        <time>2026-06-15T13:03:45.000Z</time>
        <extensions>
          <ns3:TrackPointExtension>
            <ns3:atemp>22.0</ns3:atemp>
          </ns3:TrackPointExtension>
        </extensions>
      </trkpt>
      <trkpt lat="42.57039271295070648193359375" lon="20.03360755741596221923828125">
        <ele>1989</ele>
        <time>2026-06-15T13:03:46.000Z</time>
        <extensions>
          <ns3:TrackPointExtension>
            <ns3:atemp>22.0</ns3:atemp>
          </ns3:TrackPointExtension>
        </extensions>
      </trkpt>
      <trkpt lat="42.57039271295070648193359375" lon="20.03360755741596221923828125">
        <ele>1989</ele>
        <time>2026-06-15T13:03:47.000Z</time>
        <extensions>
          <ns3:TrackPointExtension>
            <ns3:atemp>22.0</ns3:atemp>
          </ns3:TrackPointExtension>
        </extensions>
      </trkpt>
      <trkpt lat="42.57039271295070648193359375" lon="20.03360755741596221923828125">
        <ele>1989</ele>
        <time>2026-06-15T13:03:48.000Z</time>
        <extensions>
          <ns3:TrackPointExtension>
            <ns3:atemp>22.0</ns3:atemp>
          </ns3:TrackPointExtension>
        </extensions>
      </trkpt>
      <trkpt lat="42.57039271295070648193359375" lon="20.03360755741596221923828125">
        <ele>1989</ele>
        <time>2026-06-15T13:03:49.000Z</time>
        <extensions>
          <ns3:TrackPointExtension>
            <ns3:atemp>22.0</ns3:atemp>
          </ns3:TrackPointExtension>
        </extensions>
      </trkpt>
      <trkpt lat="42.57039271295070648193359375" lon="20.03360755741596221923828125">
        <ele>1989</ele>
        <time>2026-06-15T13:03:50.000Z</time>
        <extensions>
          <ns3:TrackPointExtension>
            <ns3:atemp>22.0</ns3:atemp>
          </ns3:TrackPointExtension>
        </extensions>
      </trkpt>
      <trkpt lat="42.57039271295070648193359375" lon="20.03360755741596221923828125">
        <ele>1989</ele>
        <time>2026-06-15T13:03:51.000Z</time>
        <extensions>
          <ns3:TrackPointExtension>
            <ns3:atemp>23.0</ns3:atemp>
          </ns3:TrackPointExtension>
        </extensions>
      </trkpt>
      <trkpt lat="42.57039271295070648193359375" lon="20.03360755741596221923828125">
        <ele>1989</ele>
        <time>2026-06-15T13:03:52.000Z</time>
        <extensions>
          <ns3:TrackPointExtension>
            <ns3:atemp>23.0</ns3:atemp>
          </ns3:TrackPointExtension>
        </extensions>
      </trkpt>
      <trkpt lat="42.57039271295070648193359375" lon="20.03360755741596221923828125">
        <ele>1989</ele>
        <time>2026-06-15T13:03:53.000Z</time>
        <extensions>
          <ns3:TrackPointExtension>
            <ns3:atemp>23.0</ns3:atemp>
          </ns3:TrackPointExtension>
        </extensions>
      </trkpt>
      <trkpt lat="42.57039271295070648193359375" lon="20.03360755741596221923828125">
        <ele>1989</ele>
        <time>2026-06-15T13:03:54.000Z</time>
        <extensions>
          <ns3:TrackPointExtension>
            <ns3:atemp>23.0</ns3:atemp>
          </ns3:TrackPointExtension>
        </extensions>
      </trkpt>
      <trkpt lat="42.57039271295070648193359375" lon="20.03360755741596221923828125">
        <ele>1989</ele>
        <time>2026-06-15T13:03:55.000Z</time>
        <extensions>
          <ns3:TrackPointExtension>
            <ns3:atemp>23.0</ns3:atemp>
          </ns3:TrackPointExtension>
        </extensions>
      </trkpt>
      <trkpt lat="42.57039271295070648193359375" lon="20.03360755741596221923828125">
        <ele>1989</ele>
        <time>2026-06-15T13:03:56.000Z</time>
        <extensions>
          <ns3:TrackPointExtension>
            <ns3:atemp>23.0</ns3:atemp>
          </ns3:TrackPointExtension>
        </extensions>
      </trkpt>
      <trkpt lat="42.57039271295070648193359375" lon="20.03360755741596221923828125">
        <ele>1989</ele>
        <time>2026-06-15T13:03:57.000Z</time>
        <extensions>
          <ns3:TrackPointExtension>
            <ns3:atemp>23.0</ns3:atemp>
          </ns3:TrackPointExtension>
        </extensions>
      </trkpt>
      <trkpt lat="42.57039271295070648193359375" lon="20.03360755741596221923828125">
        <ele>1989</ele>
        <time>2026-06-15T13:03:58.000Z</time>
        <extensions>
          <ns3:TrackPointExtension>
            <ns3:atemp>23.0</ns3:atemp>
          </ns3:TrackPointExtension>
        </extensions>
      </trkpt>
      <trkpt lat="42.57039271295070648193359375" lon="20.03360755741596221923828125">
        <ele>1989</ele>
        <time>2026-06-15T13:03:59.000Z</time>
        <extensions>
          <ns3:TrackPointExtension>
            <ns3:atemp>23.0</ns3:atemp>
          </ns3:TrackPointExtension>
        </extensions>
      </trkpt>
      <trkpt lat="42.57039271295070648193359375" lon="20.03360755741596221923828125">
        <ele>1989</ele>
        <time>2026-06-15T13:04:00.000Z</time>
        <extensions>
          <ns3:TrackPointExtension>
            <ns3:atemp>23.0</ns3:atemp>
          </ns3:TrackPointExtension>
        </extensions>
      </trkpt>
      <trkpt lat="42.57039271295070648193359375" lon="20.03360755741596221923828125">
        <ele>1989</ele>
        <time>2026-06-15T13:04:01.000Z</time>
        <extensions>
          <ns3:TrackPointExtension>
            <ns3:atemp>23.0</ns3:atemp>
          </ns3:TrackPointExtension>
        </extensions>
      </trkpt>
      <trkpt lat="42.57039271295070648193359375" lon="20.03360755741596221923828125">
        <ele>1989</ele>
        <time>2026-06-15T13:04:02.000Z</time>
        <extensions>
          <ns3:TrackPointExtension>
            <ns3:atemp>23.0</ns3:atemp>
          </ns3:TrackPointExtension>
        </extensions>
      </trkpt>
      <trkpt lat="42.57039271295070648193359375" lon="20.03360755741596221923828125">
        <ele>1989</ele>
        <time>2026-06-15T13:04:03.000Z</time>
        <extensions>
          <ns3:TrackPointExtension>
            <ns3:atemp>23.0</ns3:atemp>
          </ns3:TrackPointExtension>
        </extensions>
      </trkpt>
      <trkpt lat="42.57039271295070648193359375" lon="20.03360755741596221923828125">
        <ele>1989</ele>
        <time>2026-06-15T13:04:04.000Z</time>
        <extensions>
          <ns3:TrackPointExtension>
            <ns3:atemp>23.0</ns3:atemp>
          </ns3:TrackPointExtension>
        </extensions>
      </trkpt>
      <trkpt lat="42.57039271295070648193359375" lon="20.03360755741596221923828125">
        <ele>1989</ele>
        <time>2026-06-15T13:04:05.000Z</time>
        <extensions>
          <ns3:TrackPointExtension>
            <ns3:atemp>23.0</ns3:atemp>
          </ns3:TrackPointExtension>
        </extensions>
      </trkpt>
      <trkpt lat="42.57039271295070648193359375" lon="20.03360755741596221923828125">
        <ele>1989</ele>
        <time>2026-06-15T13:04:06.000Z</time>
        <extensions>
          <ns3:TrackPointExtension>
            <ns3:atemp>23.0</ns3:atemp>
          </ns3:TrackPointExtension>
        </extensions>
      </trkpt>
      <trkpt lat="42.57039271295070648193359375" lon="20.03360755741596221923828125">
        <ele>1989</ele>
        <time>2026-06-15T13:04:07.000Z</time>
        <extensions>
          <ns3:TrackPointExtension>
            <ns3:atemp>23.0</ns3:atemp>
          </ns3:TrackPointExtension>
        </extensions>
      </trkpt>
      <trkpt lat="42.57039271295070648193359375" lon="20.03360755741596221923828125">
        <ele>1989</ele>
        <time>2026-06-15T13:04:08.000Z</time>
        <extensions>
          <ns3:TrackPointExtension>
            <ns3:atemp>23.0</ns3:atemp>
          </ns3:TrackPointExtension>
        </extensions>
      </trkpt>
      <trkpt lat="42.57039271295070648193359375" lon="20.03360755741596221923828125">
        <ele>1989</ele>
        <time>2026-06-15T13:04:09.000Z</time>
        <extensions>
          <ns3:TrackPointExtension>
            <ns3:atemp>23.0</ns3:atemp>
          </ns3:TrackPointExtension>
        </extensions>
      </trkpt>
      <trkpt lat="42.57039271295070648193359375" lon="20.03360755741596221923828125">
        <ele>1989</ele>
        <time>2026-06-15T13:04:10.000Z</time>
        <extensions>
          <ns3:TrackPointExtension>
            <ns3:atemp>23.0</ns3:atemp>
          </ns3:TrackPointExtension>
        </extensions>
      </trkpt>
      <trkpt lat="42.57039271295070648193359375" lon="20.03360755741596221923828125">
        <ele>1989</ele>
        <time>2026-06-15T13:04:11.000Z</time>
        <extensions>
          <ns3:TrackPointExtension>
            <ns3:atemp>23.0</ns3:atemp>
          </ns3:TrackPointExtension>
        </extensions>
      </trkpt>
      <trkpt lat="42.57039271295070648193359375" lon="20.03360755741596221923828125">
        <ele>1989</ele>
        <time>2026-06-15T13:04:12.000Z</time>
        <extensions>
          <ns3:TrackPointExtension>
            <ns3:atemp>23.0</ns3:atemp>
          </ns3:TrackPointExtension>
        </extensions>
      </trkpt>
      <trkpt lat="42.57039271295070648193359375" lon="20.03360755741596221923828125">
        <ele>1989</ele>
        <time>2026-06-15T13:04:13.000Z</time>
        <extensions>
          <ns3:TrackPointExtension>
            <ns3:atemp>23.0</ns3:atemp>
          </ns3:TrackPointExtension>
        </extensions>
      </trkpt>
      <trkpt lat="42.57039271295070648193359375" lon="20.03360755741596221923828125">
        <ele>1989</ele>
        <time>2026-06-15T13:04:14.000Z</time>
        <extensions>
          <ns3:TrackPointExtension>
            <ns3:atemp>23.0</ns3:atemp>
          </ns3:TrackPointExtension>
        </extensions>
      </trkpt>
      <trkpt lat="42.57039271295070648193359375" lon="20.03360755741596221923828125">
        <ele>1989</ele>
        <time>2026-06-15T13:04:15.000Z</time>
        <extensions>
          <ns3:TrackPointExtension>
            <ns3:atemp>23.0</ns3:atemp>
          </ns3:TrackPointExtension>
        </extensions>
      </trkpt>
      <trkpt lat="42.57039271295070648193359375" lon="20.03360755741596221923828125">
        <ele>1989</ele>
        <time>2026-06-15T13:04:16.000Z</time>
        <extensions>
          <ns3:TrackPointExtension>
            <ns3:atemp>23.0</ns3:atemp>
          </ns3:TrackPointExtension>
        </extensions>
      </trkpt>
      <trkpt lat="42.57039271295070648193359375" lon="20.03360755741596221923828125">
        <ele>1989</ele>
        <time>2026-06-15T13:04:17.000Z</time>
        <extensions>
          <ns3:TrackPointExtension>
            <ns3:atemp>23.0</ns3:atemp>
          </ns3:TrackPointExtension>
        </extensions>
      </trkpt>
      <trkpt lat="42.57039271295070648193359375" lon="20.03360755741596221923828125">
        <ele>1989</ele>
        <time>2026-06-15T13:04:18.000Z</time>
        <extensions>
          <ns3:TrackPointExtension>
            <ns3:atemp>23.0</ns3:atemp>
          </ns3:TrackPointExtension>
        </extensions>
      </trkpt>
      <trkpt lat="42.57039271295070648193359375" lon="20.03360755741596221923828125">
        <ele>1989</ele>
        <time>2026-06-15T13:04:19.000Z</time>
        <extensions>
          <ns3:TrackPointExtension>
            <ns3:atemp>23.0</ns3:atemp>
          </ns3:TrackPointExtension>
        </extensions>
      </trkpt>
      <trkpt lat="42.57039271295070648193359375" lon="20.03360755741596221923828125">
        <ele>1989</ele>
        <time>2026-06-15T13:04:20.000Z</time>
        <extensions>
          <ns3:TrackPointExtension>
            <ns3:atemp>23.0</ns3:atemp>
          </ns3:TrackPointExtension>
        </extensions>
      </trkpt>
      <trkpt lat="42.57039271295070648193359375" lon="20.03360755741596221923828125">
        <ele>1989</ele>
        <time>2026-06-15T13:04:21.000Z</time>
        <extensions>
          <ns3:TrackPointExtension>
            <ns3:atemp>23.0</ns3:atemp>
          </ns3:TrackPointExtension>
        </extensions>
      </trkpt>
      <trkpt lat="42.57039271295070648193359375" lon="20.03360755741596221923828125">
        <ele>1989</ele>
        <time>2026-06-15T13:04:22.000Z</time>
        <extensions>
          <ns3:TrackPointExtension>
            <ns3:atemp>23.0</ns3:atemp>
          </ns3:TrackPointExtension>
        </extensions>
      </trkpt>
      <trkpt lat="42.57039271295070648193359375" lon="20.03360755741596221923828125">
        <ele>1989</ele>
        <time>2026-06-15T13:04:23.000Z</time>
        <extensions>
          <ns3:TrackPointExtension>
            <ns3:atemp>23.0</ns3:atemp>
          </ns3:TrackPointExtension>
        </extensions>
      </trkpt>
      <trkpt lat="42.57039271295070648193359375" lon="20.03360755741596221923828125">
        <ele>1989</ele>
        <time>2026-06-15T13:04:24.000Z</time>
        <extensions>
          <ns3:TrackPointExtension>
            <ns3:atemp>23.0</ns3:atemp>
          </ns3:TrackPointExtension>
        </extensions>
      </trkpt>
      <trkpt lat="42.57039271295070648193359375" lon="20.03360755741596221923828125">
        <ele>1989</ele>
        <time>2026-06-15T13:04:25.000Z</time>
        <extensions>
          <ns3:TrackPointExtension>
            <ns3:atemp>23.0</ns3:atemp>
          </ns3:TrackPointExtension>
        </extensions>
      </trkpt>
      <trkpt lat="42.57039271295070648193359375" lon="20.03360755741596221923828125">
        <ele>1989</ele>
        <time>2026-06-15T13:04:26.000Z</time>
        <extensions>
          <ns3:TrackPointExtension>
            <ns3:atemp>23.0</ns3:atemp>
          </ns3:TrackPointExtension>
        </extensions>
      </trkpt>
      <trkpt lat="42.570393718779087066650390625" lon="20.0336043722927570343017578125">
        <ele>1989</ele>
        <time>2026-06-15T13:04:27.000Z</time>
        <extensions>
          <ns3:TrackPointExtension>
            <ns3:atemp>23.0</ns3:atemp>
          </ns3:TrackPointExtension>
        </extensions>
      </trkpt>
      <trkpt lat="42.570399753749370574951171875" lon="20.033628009259700775146484375">
        <ele>1989</ele>
        <time>2026-06-15T13:04:28.000Z</time>
        <extensions>
          <ns3:TrackPointExtension>
            <ns3:atemp>23.0</ns3:atemp>
          </ns3:TrackPointExtension>
        </extensions>
      </trkpt>
      <trkpt lat="42.57039631716907024383544921875" lon="20.03364100120961666107177734375">
        <ele>1989</ele>
        <time>2026-06-15T13:04:29.000Z</time>
        <extensions>
          <ns3:TrackPointExtension>
            <ns3:atemp>23.0</ns3:atemp>
          </ns3:TrackPointExtension>
        </extensions>
      </trkpt>
      <trkpt lat="42.57038910873234272003173828125" lon="20.0336627103388309478759765625">
        <ele>1989</ele>
        <time>2026-06-15T13:04:30.000Z</time>
        <extensions>
          <ns3:TrackPointExtension>
            <ns3:atemp>23.0</ns3:atemp>
          </ns3:TrackPointExtension>
        </extensions>
      </trkpt>
      <trkpt lat="42.57038692943751811981201171875" lon="20.03368475474417209625244140625">
        <ele>1988.800048828125</ele>
        <time>2026-06-15T13:04:31.000Z</time>
        <extensions>
          <ns3:TrackPointExtension>
            <ns3:atemp>23.0</ns3:atemp>
          </ns3:TrackPointExtension>
        </extensions>
      </trkpt>
      <trkpt lat="42.57038977928459644317626953125" lon="20.03369665704667568206787109375">
        <ele>1988.800048828125</ele>
        <time>2026-06-15T13:04:32.000Z</time>
        <extensions>
          <ns3:TrackPointExtension>
            <ns3:atemp>23.0</ns3:atemp>
          </ns3:TrackPointExtension>
        </extensions>
      </trkpt>
      <trkpt lat="42.57040067575871944427490234375" lon="20.03370235674083232879638671875">
        <ele>1988.800048828125</ele>
        <time>2026-06-15T13:04:33.000Z</time>
        <extensions>
          <ns3:TrackPointExtension>
            <ns3:atemp>23.0</ns3:atemp>
          </ns3:TrackPointExtension>
        </extensions>
      </trkpt>
      <trkpt lat="42.5704042799770832061767578125" lon="20.03371727652847766876220703125">
        <ele>1988.800048828125</ele>
        <time>2026-06-15T13:04:34.000Z</time>
        <extensions>
          <ns3:TrackPointExtension>
            <ns3:atemp>23.0</ns3:atemp>
          </ns3:TrackPointExtension>
        </extensions>
      </trkpt>
      <trkpt lat="42.570397742092609405517578125" lon="20.03374091349542140960693359375">
        <ele>1988.5999755859375</ele>
        <time>2026-06-15T13:04:35.000Z</time>
        <extensions>
          <ns3:TrackPointExtension>
            <ns3:atemp>23.0</ns3:atemp>
          </ns3:TrackPointExtension>
        </extensions>
      </trkpt>
      <trkpt lat="42.5703871808946132659912109375" lon="20.0337503850460052490234375">
        <ele>1988.5999755859375</ele>
        <time>2026-06-15T13:04:36.000Z</time>
        <extensions>
          <ns3:TrackPointExtension>
            <ns3:atemp>23.0</ns3:atemp>
          </ns3:TrackPointExtension>
        </extensions>
      </trkpt>
      <trkpt lat="42.5703893601894378662109375" lon="20.03375784493982791900634765625">
        <ele>1988.4000244140625</ele>
        <time>2026-06-15T13:04:37.000Z</time>
        <extensions>
          <ns3:TrackPointExtension>
            <ns3:atemp>23.0</ns3:atemp>
          </ns3:TrackPointExtension>
        </extensions>
      </trkpt>
      <trkpt lat="42.57038692943751811981201171875" lon="20.03377745859324932098388671875">
        <ele>1988.4000244140625</ele>
        <time>2026-06-15T13:04:38.000Z</time>
        <extensions>
          <ns3:TrackPointExtension>
            <ns3:atemp>23.0</ns3:atemp>
          </ns3:TrackPointExtension>
        </extensions>
      </trkpt>
      <trkpt lat="42.57037527859210968017578125" lon="20.0337906181812286376953125">
        <ele>1988.199951171875</ele>
        <time>2026-06-15T13:04:39.000Z</time>
        <extensions>
          <ns3:TrackPointExtension>
            <ns3:atemp>22.0</ns3:atemp>
          </ns3:TrackPointExtension>
        </extensions>
      </trkpt>
      <trkpt lat="42.57037200964987277984619140625" lon="20.033798329532146453857421875">
        <ele>1988.199951171875</ele>
        <time>2026-06-15T13:04:40.000Z</time>
        <extensions>
          <ns3:TrackPointExtension>
            <ns3:atemp>22.0</ns3:atemp>
          </ns3:TrackPointExtension>
        </extensions>
      </trkpt>
      <trkpt lat="42.57037502713501453399658203125" lon="20.03381450660526752471923828125">
        <ele>1988.199951171875</ele>
        <time>2026-06-15T13:04:41.000Z</time>
        <extensions>
          <ns3:TrackPointExtension>
            <ns3:atemp>22.0</ns3:atemp>
          </ns3:TrackPointExtension>
        </extensions>
      </trkpt>
      <trkpt lat="42.57037402130663394927978515625" lon="20.033824145793914794921875">
        <ele>1988.199951171875</ele>
        <time>2026-06-15T13:04:42.000Z</time>
        <extensions>
          <ns3:TrackPointExtension>
            <ns3:atemp>22.0</ns3:atemp>
          </ns3:TrackPointExtension>
        </extensions>
      </trkpt>
      <trkpt lat="42.57037133909761905670166015625" lon="20.0338243134319782257080078125">
        <ele>1988.199951171875</ele>
        <time>2026-06-15T13:04:43.000Z</time>
        <extensions>
          <ns3:TrackPointExtension>
            <ns3:atemp>22.0</ns3:atemp>
          </ns3:TrackPointExtension>
        </extensions>
      </trkpt>
      <trkpt lat="42.5703667290508747100830078125" lon="20.0338269956409931182861328125">
        <ele>1988</ele>
        <time>2026-06-15T13:04:44.000Z</time>
        <extensions>
          <ns3:TrackPointExtension>
            <ns3:atemp>22.0</ns3:atemp>
          </ns3:TrackPointExtension>
        </extensions>
      </trkpt>
      <trkpt lat="42.57036211900413036346435546875" lon="20.0338390655815601348876953125">
        <ele>1987.800048828125</ele>
        <time>2026-06-15T13:04:45.000Z</time>
        <extensions>
          <ns3:TrackPointExtension>
            <ns3:atemp>22.0</ns3:atemp>
          </ns3:TrackPointExtension>
        </extensions>
      </trkpt>
      <trkpt lat="42.57035222835838794708251953125" lon="20.033858008682727813720703125">
        <ele>1987.800048828125</ele>
        <time>2026-06-15T13:04:46.000Z</time>
        <extensions>
          <ns3:TrackPointExtension>
            <ns3:atemp>22.0</ns3:atemp>
          </ns3:TrackPointExtension>
        </extensions>
      </trkpt>
      <trkpt lat="42.5703499652445316314697265625" lon="20.033867396414279937744140625">
        <ele>1987.800048828125</ele>
        <time>2026-06-15T13:04:47.000Z</time>
        <extensions>
          <ns3:TrackPointExtension>
            <ns3:atemp>22.0</ns3:atemp>
          </ns3:TrackPointExtension>
        </extensions>
      </trkpt>
      <trkpt lat="42.57034837268292903900146484375" lon="20.03387820906937122344970703125">
        <ele>1988</ele>
        <time>2026-06-15T13:04:48.000Z</time>
        <extensions>
          <ns3:TrackPointExtension>
            <ns3:atemp>22.0</ns3:atemp>
          </ns3:TrackPointExtension>
        </extensions>
      </trkpt>
      <trkpt lat="42.5703482888638973236083984375" lon="20.0338833220303058624267578125">
        <ele>1988.199951171875</ele>
        <time>2026-06-15T13:04:49.000Z</time>
        <extensions>
          <ns3:TrackPointExtension>
            <ns3:atemp>22.0</ns3:atemp>
          </ns3:TrackPointExtension>
        </extensions>
      </trkpt>
      <trkpt lat="42.5703482888638973236083984375" lon="20.0338833220303058624267578125">
        <ele>1988.199951171875</ele>
        <time>2026-06-15T13:04:50.000Z</time>
        <extensions>
          <ns3:TrackPointExtension>
            <ns3:atemp>22.0</ns3:atemp>
          </ns3:TrackPointExtension>
        </extensions>
      </trkpt>
      <trkpt lat="42.5703482888638973236083984375" lon="20.0338833220303058624267578125">
        <ele>1988.199951171875</ele>
        <time>2026-06-15T13:04:51.000Z</time>
        <extensions>
          <ns3:TrackPointExtension>
            <ns3:atemp>22.0</ns3:atemp>
          </ns3:TrackPointExtension>
        </extensions>
      </trkpt>
      <trkpt lat="42.5703482888638973236083984375" lon="20.0338833220303058624267578125">
        <ele>1988.199951171875</ele>
        <time>2026-06-15T13:04:52.000Z</time>
        <extensions>
          <ns3:TrackPointExtension>
            <ns3:atemp>22.0</ns3:atemp>
          </ns3:TrackPointExtension>
        </extensions>
      </trkpt>
      <trkpt lat="42.5703482888638973236083984375" lon="20.0338833220303058624267578125">
        <ele>1988.4000244140625</ele>
        <time>2026-06-15T13:04:53.000Z</time>
        <extensions>
          <ns3:TrackPointExtension>
            <ns3:atemp>22.0</ns3:atemp>
          </ns3:TrackPointExtension>
        </extensions>
      </trkpt>
      <trkpt lat="42.5703482888638973236083984375" lon="20.0338833220303058624267578125">
        <ele>1988.4000244140625</ele>
        <time>2026-06-15T13:04:54.000Z</time>
        <extensions>
          <ns3:TrackPointExtension>
            <ns3:atemp>22.0</ns3:atemp>
          </ns3:TrackPointExtension>
        </extensions>
      </trkpt>
      <trkpt lat="42.5703482888638973236083984375" lon="20.0338833220303058624267578125">
        <ele>1988.5999755859375</ele>
        <time>2026-06-15T13:04:55.000Z</time>
        <extensions>
          <ns3:TrackPointExtension>
            <ns3:atemp>22.0</ns3:atemp>
          </ns3:TrackPointExtension>
        </extensions>
      </trkpt>
      <trkpt lat="42.5703482888638973236083984375" lon="20.0338833220303058624267578125">
        <ele>1988.5999755859375</ele>
        <time>2026-06-15T13:04:56.000Z</time>
        <extensions>
          <ns3:TrackPointExtension>
            <ns3:atemp>22.0</ns3:atemp>
          </ns3:TrackPointExtension>
        </extensions>
      </trkpt>
      <trkpt lat="42.5703482888638973236083984375" lon="20.0338833220303058624267578125">
        <ele>1988.5999755859375</ele>
        <time>2026-06-15T13:04:57.000Z</time>
        <extensions>
          <ns3:TrackPointExtension>
            <ns3:atemp>22.0</ns3:atemp>
          </ns3:TrackPointExtension>
        </extensions>
      </trkpt>
      <trkpt lat="42.5703482888638973236083984375" lon="20.0338833220303058624267578125">
        <ele>1988.5999755859375</ele>
        <time>2026-06-15T13:04:58.000Z</time>
        <extensions>
          <ns3:TrackPointExtension>
            <ns3:atemp>22.0</ns3:atemp>
          </ns3:TrackPointExtension>
        </extensions>
      </trkpt>
      <trkpt lat="42.5703482888638973236083984375" lon="20.0338833220303058624267578125">
        <ele>1988.4000244140625</ele>
        <time>2026-06-15T13:04:59.000Z</time>
        <extensions>
          <ns3:TrackPointExtension>
            <ns3:atemp>22.0</ns3:atemp>
          </ns3:TrackPointExtension>
        </extensions>
      </trkpt>
      <trkpt lat="42.5703482888638973236083984375" lon="20.0338833220303058624267578125">
        <ele>1988.199951171875</ele>
        <time>2026-06-15T13:05:00.000Z</time>
        <extensions>
          <ns3:TrackPointExtension>
            <ns3:atemp>22.0</ns3:atemp>
          </ns3:TrackPointExtension>
        </extensions>
      </trkpt>
      <trkpt lat="42.5703482888638973236083984375" lon="20.0338833220303058624267578125">
        <ele>1988</ele>
        <time>2026-06-15T13:05:01.000Z</time>
        <extensions>
          <ns3:TrackPointExtension>
            <ns3:atemp>22.0</ns3:atemp>
          </ns3:TrackPointExtension>
        </extensions>
      </trkpt>
      <trkpt lat="42.5703482888638973236083984375" lon="20.0338833220303058624267578125">
        <ele>1988</ele>
        <time>2026-06-15T13:05:02.000Z</time>
        <extensions>
          <ns3:TrackPointExtension>
            <ns3:atemp>22.0</ns3:atemp>
          </ns3:TrackPointExtension>
        </extensions>
      </trkpt>
      <trkpt lat="42.5703482888638973236083984375" lon="20.0338833220303058624267578125">
        <ele>1988</ele>
        <time>2026-06-15T13:05:03.000Z</time>
        <extensions>
          <ns3:TrackPointExtension>
            <ns3:atemp>22.0</ns3:atemp>
          </ns3:TrackPointExtension>
        </extensions>
      </trkpt>
      <trkpt lat="42.5703482888638973236083984375" lon="20.0338833220303058624267578125">
        <ele>1987.800048828125</ele>
        <time>2026-06-15T13:05:04.000Z</time>
        <extensions>
          <ns3:TrackPointExtension>
            <ns3:atemp>22.0</ns3:atemp>
          </ns3:TrackPointExtension>
        </extensions>
      </trkpt>
      <trkpt lat="42.57034719921648502349853515625" lon="20.03388340584933757781982421875">
        <ele>1987.800048828125</ele>
        <time>2026-06-15T13:05:05.000Z</time>
        <extensions>
          <ns3:TrackPointExtension>
            <ns3:atemp>22.0</ns3:atemp>
          </ns3:TrackPointExtension>
        </extensions>
      </trkpt>
      <trkpt lat="42.57034954614937305450439453125" lon="20.03388784825801849365234375">
        <ele>1987.800048828125</ele>
        <time>2026-06-15T13:05:06.000Z</time>
        <extensions>
          <ns3:TrackPointExtension>
            <ns3:atemp>22.0</ns3:atemp>
          </ns3:TrackPointExtension>
        </extensions>
      </trkpt>
      <trkpt lat="42.570350803434848785400390625" lon="20.03389296121895313262939453125">
        <ele>1987.5999755859375</ele>
        <time>2026-06-15T13:05:07.000Z</time>
        <extensions>
          <ns3:TrackPointExtension>
            <ns3:atemp>22.0</ns3:atemp>
          </ns3:TrackPointExtension>
        </extensions>
      </trkpt>
      <trkpt lat="42.5703546591103076934814453125" lon="20.03389530815184116363525390625">
        <ele>1987.4000244140625</ele>
        <time>2026-06-15T13:05:08.000Z</time>
        <extensions>
          <ns3:TrackPointExtension>
            <ns3:atemp>22.0</ns3:atemp>
          </ns3:TrackPointExtension>
        </extensions>
      </trkpt>
      <trkpt lat="42.57035926915705204010009765625" lon="20.03389430232346057891845703125">
        <ele>1987.199951171875</ele>
        <time>2026-06-15T13:05:09.000Z</time>
        <extensions>
          <ns3:TrackPointExtension>
            <ns3:atemp>22.0</ns3:atemp>
          </ns3:TrackPointExtension>
        </extensions>
      </trkpt>
      <trkpt lat="42.57036513648927211761474609375" lon="20.03390033729374408721923828125">
        <ele>1987</ele>
        <time>2026-06-15T13:05:10.000Z</time>
        <extensions>
          <ns3:TrackPointExtension>
            <ns3:atemp>22.0</ns3:atemp>
          </ns3:TrackPointExtension>
        </extensions>
      </trkpt>
      <trkpt lat="42.57037268020212650299072265625" lon="20.03391039557754993438720703125">
        <ele>1986.5999755859375</ele>
        <time>2026-06-15T13:05:11.000Z</time>
        <extensions>
          <ns3:TrackPointExtension>
            <ns3:atemp>22.0</ns3:atemp>
          </ns3:TrackPointExtension>
        </extensions>
      </trkpt>
      <trkpt lat="42.57037930190563201904296875" lon="20.033919028937816619873046875">
        <ele>1986.199951171875</ele>
        <time>2026-06-15T13:05:12.000Z</time>
        <extensions>
          <ns3:TrackPointExtension>
            <ns3:atemp>22.0</ns3:atemp>
          </ns3:TrackPointExtension>
        </extensions>
      </trkpt>
      <trkpt lat="42.57038206793367862701416015625" lon="20.03391425125300884246826171875">
        <ele>1986</ele>
        <time>2026-06-15T13:05:13.000Z</time>
        <extensions>
          <ns3:TrackPointExtension>
            <ns3:atemp>22.0</ns3:atemp>
          </ns3:TrackPointExtension>
        </extensions>
      </trkpt>
      <trkpt lat="42.5703885219991207122802734375" lon="20.033920705318450927734375">
        <ele>1985.800048828125</ele>
        <time>2026-06-15T13:05:14.000Z</time>
        <extensions>
          <ns3:TrackPointExtension>
            <ns3:atemp>22.0</ns3:atemp>
          </ns3:TrackPointExtension>
        </extensions>
      </trkpt>
      <trkpt lat="42.57039598189294338226318359375" lon="20.03392732702195644378662109375">
        <ele>1985.5999755859375</ele>
        <time>2026-06-15T13:05:15.000Z</time>
        <extensions>
          <ns3:TrackPointExtension>
            <ns3:atemp>22.0</ns3:atemp>
          </ns3:TrackPointExtension>
        </extensions>
      </trkpt>
      <trkpt lat="42.57040017284452915191650390625" lon="20.03393000923097133636474609375">
        <ele>1985.4000244140625</ele>
        <time>2026-06-15T13:05:16.000Z</time>
        <extensions>
          <ns3:TrackPointExtension>
            <ns3:atemp>22.0</ns3:atemp>
          </ns3:TrackPointExtension>
        </extensions>
      </trkpt>
      <trkpt lat="42.570403106510639190673828125" lon="20.03393654711544513702392578125">
        <ele>1985.199951171875</ele>
        <time>2026-06-15T13:05:17.000Z</time>
        <extensions>
          <ns3:TrackPointExtension>
            <ns3:atemp>22.0</ns3:atemp>
          </ns3:TrackPointExtension>
        </extensions>
      </trkpt>
      <trkpt lat="42.57040536962449550628662109375" lon="20.03393939696252346038818359375">
        <ele>1984.800048828125</ele>
        <time>2026-06-15T13:05:18.000Z</time>
        <extensions>
          <ns3:TrackPointExtension>
            <ns3:atemp>22.0</ns3:atemp>
          </ns3:TrackPointExtension>
        </extensions>
      </trkpt>
      <trkpt lat="42.57040821947157382965087890625" lon="20.03394090570509433746337890625">
        <ele>1984.4000244140625</ele>
        <time>2026-06-15T13:05:19.000Z</time>
        <extensions>
          <ns3:TrackPointExtension>
            <ns3:atemp>22.0</ns3:atemp>
          </ns3:TrackPointExtension>
        </extensions>
      </trkpt>
      <trkpt lat="42.57041458971798419952392578125" lon="20.03394694067537784576416015625">
        <ele>1984</ele>
        <time>2026-06-15T13:05:20.000Z</time>
        <extensions>
          <ns3:TrackPointExtension>
            <ns3:atemp>22.0</ns3:atemp>
          </ns3:TrackPointExtension>
        </extensions>
      </trkpt>
      <trkpt lat="42.5704228878021240234375" lon="20.03395314328372478485107421875">
        <ele>1983.800048828125</ele>
        <time>2026-06-15T13:05:21.000Z</time>
        <extensions>
          <ns3:TrackPointExtension>
            <ns3:atemp>22.0</ns3:atemp>
          </ns3:TrackPointExtension>
        </extensions>
      </trkpt>
      <trkpt lat="42.57042766548693180084228515625" lon="20.033963285386562347412109375">
        <ele>1983.4000244140625</ele>
        <time>2026-06-15T13:05:22.000Z</time>
        <extensions>
          <ns3:TrackPointExtension>
            <ns3:atemp>22.0</ns3:atemp>
          </ns3:TrackPointExtension>
        </extensions>
      </trkpt>
      <trkpt lat="42.57043571211397647857666015625" lon="20.0339681468904018402099609375">
        <ele>1983.199951171875</ele>
        <time>2026-06-15T13:05:23.000Z</time>
        <extensions>
          <ns3:TrackPointExtension>
            <ns3:atemp>22.0</ns3:atemp>
          </ns3:TrackPointExtension>
        </extensions>
      </trkpt>
      <trkpt lat="42.57044929079711437225341796875" lon="20.033975355327129364013671875">
        <ele>1982.800048828125</ele>
        <time>2026-06-15T13:05:24.000Z</time>
        <extensions>
          <ns3:TrackPointExtension>
            <ns3:atemp>22.0</ns3:atemp>
          </ns3:TrackPointExtension>
        </extensions>
      </trkpt>
      <trkpt lat="42.570458762347698211669921875" lon="20.0339818932116031646728515625">
        <ele>1982.4000244140625</ele>
        <time>2026-06-15T13:05:25.000Z</time>
        <extensions>
          <ns3:TrackPointExtension>
            <ns3:atemp>22.0</ns3:atemp>
          </ns3:TrackPointExtension>
        </extensions>
      </trkpt>
      <trkpt lat="42.57046722806990146636962890625" lon="20.0339864194393157958984375">
        <ele>1982</ele>
        <time>2026-06-15T13:05:26.000Z</time>
        <extensions>
          <ns3:TrackPointExtension>
            <ns3:atemp>22.0</ns3:atemp>
          </ns3:TrackPointExtension>
        </extensions>
      </trkpt>
      <trkpt lat="42.57047393359243869781494140625" lon="20.0339929573237895965576171875">
        <ele>1981.800048828125</ele>
        <time>2026-06-15T13:05:27.000Z</time>
        <extensions>
          <ns3:TrackPointExtension>
            <ns3:atemp>22.0</ns3:atemp>
          </ns3:TrackPointExtension>
        </extensions>
      </trkpt>
      <trkpt lat="42.57048332132399082183837890625" lon="20.03400360234081745147705078125">
        <ele>1981.5999755859375</ele>
        <time>2026-06-15T13:05:28.000Z</time>
        <extensions>
          <ns3:TrackPointExtension>
            <ns3:atemp>22.0</ns3:atemp>
          </ns3:TrackPointExtension>
        </extensions>
      </trkpt>
      <trkpt lat="42.570485584437847137451171875" lon="20.0340025126934051513671875">
        <ele>1981.4000244140625</ele>
        <time>2026-06-15T13:05:29.000Z</time>
        <extensions>
          <ns3:TrackPointExtension>
            <ns3:atemp>22.0</ns3:atemp>
          </ns3:TrackPointExtension>
        </extensions>
      </trkpt>
      <trkpt lat="42.5704924575984477996826171875" lon="20.03400527872145175933837890625">
        <ele>1981.4000244140625</ele>
        <time>2026-06-15T13:05:30.000Z</time>
        <extensions>
          <ns3:TrackPointExtension>
            <ns3:atemp>22.0</ns3:atemp>
          </ns3:TrackPointExtension>
        </extensions>
      </trkpt>
      <trkpt lat="42.57049572654068470001220703125" lon="20.0340056978166103363037109375">
        <ele>1981.4000244140625</ele>
        <time>2026-06-15T13:05:31.000Z</time>
        <extensions>
          <ns3:TrackPointExtension>
            <ns3:atemp>22.0</ns3:atemp>
          </ns3:TrackPointExtension>
        </extensions>
      </trkpt>
      <trkpt lat="42.5704958103597164154052734375" lon="20.03400594927370548248291015625">
        <ele>1981.199951171875</ele>
        <time>2026-06-15T13:05:32.000Z</time>
        <extensions>
          <ns3:TrackPointExtension>
            <ns3:atemp>22.0</ns3:atemp>
          </ns3:TrackPointExtension>
        </extensions>
      </trkpt>
      <trkpt lat="42.57049589417874813079833984375" lon="20.03400309942662715911865234375">
        <ele>1981.199951171875</ele>
        <time>2026-06-15T13:05:33.000Z</time>
        <extensions>
          <ns3:TrackPointExtension>
            <ns3:atemp>22.0</ns3:atemp>
          </ns3:TrackPointExtension>
        </extensions>
      </trkpt>
      <trkpt lat="42.57050427608191967010498046875" lon="20.03400854766368865966796875">
        <ele>1981.199951171875</ele>
        <time>2026-06-15T13:05:34.000Z</time>
        <extensions>
          <ns3:TrackPointExtension>
            <ns3:atemp>22.0</ns3:atemp>
          </ns3:TrackPointExtension>
        </extensions>
      </trkpt>
      <trkpt lat="42.57052254863083362579345703125" lon="20.03402019850909709930419921875">
        <ele>1981.199951171875</ele>
        <time>2026-06-15T13:05:35.000Z</time>
        <extensions>
          <ns3:TrackPointExtension>
            <ns3:atemp>22.0</ns3:atemp>
          </ns3:TrackPointExtension>
        </extensions>
      </trkpt>
      <trkpt lat="42.5705306790769100189208984375" lon="20.03402740694582462310791015625">
        <ele>1981.199951171875</ele>
        <time>2026-06-15T13:05:36.000Z</time>
        <extensions>
          <ns3:TrackPointExtension>
            <ns3:atemp>22.0</ns3:atemp>
          </ns3:TrackPointExtension>
        </extensions>
      </trkpt>
      <trkpt lat="42.57054568268358707427978515625" lon="20.0340248085558414459228515625">
        <ele>1981.199951171875</ele>
        <time>2026-06-15T13:05:37.000Z</time>
        <extensions>
          <ns3:TrackPointExtension>
            <ns3:atemp>22.0</ns3:atemp>
          </ns3:TrackPointExtension>
        </extensions>
      </trkpt>
      <trkpt lat="42.5705474428832530975341796875" lon="20.034024305641651153564453125">
        <ele>1981</ele>
        <time>2026-06-15T13:05:38.000Z</time>
        <extensions>
          <ns3:TrackPointExtension>
            <ns3:atemp>22.0</ns3:atemp>
          </ns3:TrackPointExtension>
        </extensions>
      </trkpt>
      <trkpt lat="42.57054836489260196685791015625" lon="20.03402221016585826873779296875">
        <ele>1980.800048828125</ele>
        <time>2026-06-15T13:05:39.000Z</time>
        <extensions>
          <ns3:TrackPointExtension>
            <ns3:atemp>22.0</ns3:atemp>
          </ns3:TrackPointExtension>
        </extensions>
      </trkpt>
      <trkpt lat="42.57054836489260196685791015625" lon="20.03402221016585826873779296875">
        <ele>1980.4000244140625</ele>
        <time>2026-06-15T13:05:40.000Z</time>
        <extensions>
          <ns3:TrackPointExtension>
            <ns3:atemp>22.0</ns3:atemp>
          </ns3:TrackPointExtension>
        </extensions>
      </trkpt>
      <trkpt lat="42.57054836489260196685791015625" lon="20.03402221016585826873779296875">
        <ele>1980.199951171875</ele>
        <time>2026-06-15T13:05:41.000Z</time>
        <extensions>
          <ns3:TrackPointExtension>
            <ns3:atemp>22.0</ns3:atemp>
          </ns3:TrackPointExtension>
        </extensions>
      </trkpt>
      <trkpt lat="42.57054836489260196685791015625" lon="20.03402221016585826873779296875">
        <ele>1980</ele>
        <time>2026-06-15T13:05:42.000Z</time>
        <extensions>
          <ns3:TrackPointExtension>
            <ns3:atemp>22.0</ns3:atemp>
          </ns3:TrackPointExtension>
        </extensions>
      </trkpt>
      <trkpt lat="42.57054836489260196685791015625" lon="20.03402221016585826873779296875">
        <ele>1979.800048828125</ele>
        <time>2026-06-15T13:05:43.000Z</time>
        <extensions>
          <ns3:TrackPointExtension>
            <ns3:atemp>22.0</ns3:atemp>
          </ns3:TrackPointExtension>
        </extensions>
      </trkpt>
      <trkpt lat="42.57054836489260196685791015625" lon="20.03402221016585826873779296875">
        <ele>1979.5999755859375</ele>
        <time>2026-06-15T13:05:44.000Z</time>
        <extensions>
          <ns3:TrackPointExtension>
            <ns3:atemp>22.0</ns3:atemp>
          </ns3:TrackPointExtension>
        </extensions>
      </trkpt>
      <trkpt lat="42.57054836489260196685791015625" lon="20.03402221016585826873779296875">
        <ele>1979.5999755859375</ele>
        <time>2026-06-15T13:05:45.000Z</time>
        <extensions>
          <ns3:TrackPointExtension>
            <ns3:atemp>22.0</ns3:atemp>
          </ns3:TrackPointExtension>
        </extensions>
      </trkpt>
      <trkpt lat="42.57054836489260196685791015625" lon="20.03402221016585826873779296875">
        <ele>1979.5999755859375</ele>
        <time>2026-06-15T13:05:46.000Z</time>
        <extensions>
          <ns3:TrackPointExtension>
            <ns3:atemp>22.0</ns3:atemp>
          </ns3:TrackPointExtension>
        </extensions>
      </trkpt>
      <trkpt lat="42.57054836489260196685791015625" lon="20.03402221016585826873779296875">
        <ele>1979.5999755859375</ele>
        <time>2026-06-15T13:05:47.000Z</time>
        <extensions>
          <ns3:TrackPointExtension>
            <ns3:atemp>22.0</ns3:atemp>
          </ns3:TrackPointExtension>
        </extensions>
      </trkpt>
      <trkpt lat="42.57054836489260196685791015625" lon="20.03402221016585826873779296875">
        <ele>1979.800048828125</ele>
        <time>2026-06-15T13:05:48.000Z</time>
        <extensions>
          <ns3:TrackPointExtension>
            <ns3:atemp>22.0</ns3:atemp>
          </ns3:TrackPointExtension>
        </extensions>
      </trkpt>
      <trkpt lat="42.57054836489260196685791015625" lon="20.03402221016585826873779296875">
        <ele>1980</ele>
        <time>2026-06-15T13:05:49.000Z</time>
        <extensions>
          <ns3:TrackPointExtension>
            <ns3:atemp>22.0</ns3:atemp>
          </ns3:TrackPointExtension>
        </extensions>
      </trkpt>
      <trkpt lat="42.57054836489260196685791015625" lon="20.03402221016585826873779296875">
        <ele>1980</ele>
        <time>2026-06-15T13:05:50.000Z</time>
        <extensions>
          <ns3:TrackPointExtension>
            <ns3:atemp>22.0</ns3:atemp>
          </ns3:TrackPointExtension>
        </extensions>
      </trkpt>
      <trkpt lat="42.57054836489260196685791015625" lon="20.03402221016585826873779296875">
        <ele>1980</ele>
        <time>2026-06-15T13:05:51.000Z</time>
        <extensions>
          <ns3:TrackPointExtension>
            <ns3:atemp>22.0</ns3:atemp>
          </ns3:TrackPointExtension>
        </extensions>
      </trkpt>
      <trkpt lat="42.57054836489260196685791015625" lon="20.03402221016585826873779296875">
        <ele>1980</ele>
        <time>2026-06-15T13:05:52.000Z</time>
        <extensions>
          <ns3:TrackPointExtension>
            <ns3:atemp>22.0</ns3:atemp>
          </ns3:TrackPointExtension>
        </extensions>
      </trkpt>
      <trkpt lat="42.57054836489260196685791015625" lon="20.03402221016585826873779296875">
        <ele>1980</ele>
        <time>2026-06-15T13:05:53.000Z</time>
        <extensions>
          <ns3:TrackPointExtension>
            <ns3:atemp>22.0</ns3:atemp>
          </ns3:TrackPointExtension>
        </extensions>
      </trkpt>
      <trkpt lat="42.57054836489260196685791015625" lon="20.03402221016585826873779296875">
        <ele>1980</ele>
        <time>2026-06-15T13:05:54.000Z</time>
        <extensions>
          <ns3:TrackPointExtension>
            <ns3:atemp>22.0</ns3:atemp>
          </ns3:TrackPointExtension>
        </extensions>
      </trkpt>
      <trkpt lat="42.57054836489260196685791015625" lon="20.03402221016585826873779296875">
        <ele>1980</ele>
        <time>2026-06-15T13:05:55.000Z</time>
        <extensions>
          <ns3:TrackPointExtension>
            <ns3:atemp>22.0</ns3:atemp>
          </ns3:TrackPointExtension>
        </extensions>
      </trkpt>
      <trkpt lat="42.57054836489260196685791015625" lon="20.03402221016585826873779296875">
        <ele>1980</ele>
        <time>2026-06-15T13:05:56.000Z</time>
        <extensions>
          <ns3:TrackPointExtension>
            <ns3:atemp>22.0</ns3:atemp>
          </ns3:TrackPointExtension>
        </extensions>
      </trkpt>
      <trkpt lat="42.57054836489260196685791015625" lon="20.03402221016585826873779296875">
        <ele>1979.800048828125</ele>
        <time>2026-06-15T13:05:57.000Z</time>
        <extensions>
          <ns3:TrackPointExtension>
            <ns3:atemp>22.0</ns3:atemp>
          </ns3:TrackPointExtension>
        </extensions>
      </trkpt>
      <trkpt lat="42.57054618559777736663818359375" lon="20.034024976193904876708984375">
        <ele>1979.800048828125</ele>
        <time>2026-06-15T13:05:58.000Z</time>
        <extensions>
          <ns3:TrackPointExtension>
            <ns3:atemp>22.0</ns3:atemp>
          </ns3:TrackPointExtension>
        </extensions>
      </trkpt>
      <trkpt lat="42.57054836489260196685791015625" lon="20.03402221016585826873779296875">
        <ele>1979.800048828125</ele>
        <time>2026-06-15T13:05:59.000Z</time>
        <extensions>
          <ns3:TrackPointExtension>
            <ns3:atemp>22.0</ns3:atemp>
          </ns3:TrackPointExtension>
        </extensions>
      </trkpt>
      <trkpt lat="42.57054333575069904327392578125" lon="20.0340295024216175079345703125">
        <ele>1979.800048828125</ele>
        <time>2026-06-15T13:06:00.000Z</time>
        <extensions>
          <ns3:TrackPointExtension>
            <ns3:atemp>22.0</ns3:atemp>
          </ns3:TrackPointExtension>
        </extensions>
      </trkpt>
      <trkpt lat="42.570547945797443389892578125" lon="20.034047774970531463623046875">
        <ele>1979.800048828125</ele>
        <time>2026-06-15T13:06:01.000Z</time>
        <extensions>
          <ns3:TrackPointExtension>
            <ns3:atemp>22.0</ns3:atemp>
          </ns3:TrackPointExtension>
        </extensions>
      </trkpt>
      <trkpt lat="42.57056077010929584503173828125" lon="20.03404735587537288665771484375">
        <ele>1979.800048828125</ele>
        <time>2026-06-15T13:06:02.000Z</time>
        <extensions>
          <ns3:TrackPointExtension>
            <ns3:atemp>22.0</ns3:atemp>
          </ns3:TrackPointExtension>
        </extensions>
      </trkpt>
      <trkpt lat="42.57057049311697483062744140625" lon="20.03403830341994762420654296875">
        <ele>1979.5999755859375</ele>
        <time>2026-06-15T13:06:03.000Z</time>
        <extensions>
          <ns3:TrackPointExtension>
            <ns3:atemp>22.0</ns3:atemp>
          </ns3:TrackPointExtension>
        </extensions>
      </trkpt>
      <trkpt lat="42.570576108992099761962890625" lon="20.0340298376977443695068359375">
        <ele>1979.5999755859375</ele>
        <time>2026-06-15T13:06:04.000Z</time>
        <extensions>
          <ns3:TrackPointExtension>
            <ns3:atemp>22.0</ns3:atemp>
          </ns3:TrackPointExtension>
        </extensions>
      </trkpt>
      <trkpt lat="42.57057786919176578521728515625" lon="20.03403226844966411590576171875">
        <ele>1979.4000244140625</ele>
        <time>2026-06-15T13:06:05.000Z</time>
        <extensions>
          <ns3:TrackPointExtension>
            <ns3:atemp>22.0</ns3:atemp>
          </ns3:TrackPointExtension>
        </extensions>
      </trkpt>
      <trkpt lat="42.5705779530107975006103515625" lon="20.034032352268695831298828125">
        <ele>1979</ele>
        <time>2026-06-15T13:06:06.000Z</time>
        <extensions>
          <ns3:TrackPointExtension>
            <ns3:atemp>22.0</ns3:atemp>
          </ns3:TrackPointExtension>
        </extensions>
      </trkpt>
      <trkpt lat="42.57057803682982921600341796875" lon="20.03403260372579097747802734375">
        <ele>1978.800048828125</ele>
        <time>2026-06-15T13:06:07.000Z</time>
        <extensions>
          <ns3:TrackPointExtension>
            <ns3:atemp>22.0</ns3:atemp>
          </ns3:TrackPointExtension>
        </extensions>
      </trkpt>
      <trkpt lat="42.57058507762849330902099609375" lon="20.034039057791233062744140625">
        <ele>1978.800048828125</ele>
        <time>2026-06-15T13:06:08.000Z</time>
        <extensions>
          <ns3:TrackPointExtension>
            <ns3:atemp>22.0</ns3:atemp>
          </ns3:TrackPointExtension>
        </extensions>
      </trkpt>
      <trkpt lat="42.570594884455204010009765625" lon="20.03404182381927967071533203125">
        <ele>1978.800048828125</ele>
        <time>2026-06-15T13:06:09.000Z</time>
        <extensions>
          <ns3:TrackPointExtension>
            <ns3:atemp>22.0</ns3:atemp>
          </ns3:TrackPointExtension>
        </extensions>
      </trkpt>
      <trkpt lat="42.57059915922582149505615234375" lon="20.0340422429144382476806640625">
        <ele>1978.5999755859375</ele>
        <time>2026-06-15T13:06:10.000Z</time>
        <extensions>
          <ns3:TrackPointExtension>
            <ns3:atemp>22.0</ns3:atemp>
          </ns3:TrackPointExtension>
        </extensions>
      </trkpt>
      <trkpt lat="42.57060402072966098785400390625" lon="20.03404282964766025543212890625">
        <ele>1978.5999755859375</ele>
        <time>2026-06-15T13:06:11.000Z</time>
        <extensions>
          <ns3:TrackPointExtension>
            <ns3:atemp>22.0</ns3:atemp>
          </ns3:TrackPointExtension>
        </extensions>
      </trkpt>
      <trkpt lat="42.570607624948024749755859375" lon="20.03404735587537288665771484375">
        <ele>1978.5999755859375</ele>
        <time>2026-06-15T13:06:12.000Z</time>
        <extensions>
          <ns3:TrackPointExtension>
            <ns3:atemp>22.0</ns3:atemp>
          </ns3:TrackPointExtension>
        </extensions>
      </trkpt>
      <trkpt lat="42.570614330470561981201171875" lon="20.03405070863664150238037109375">
        <ele>1978.4000244140625</ele>
        <time>2026-06-15T13:06:13.000Z</time>
        <extensions>
          <ns3:TrackPointExtension>
            <ns3:atemp>22.0</ns3:atemp>
          </ns3:TrackPointExtension>
        </extensions>
      </trkpt>
      <trkpt lat="42.57061592303216457366943359375" lon="20.03405808471143245697021484375">
        <ele>1978.199951171875</ele>
        <time>2026-06-15T13:06:14.000Z</time>
        <extensions>
          <ns3:TrackPointExtension>
            <ns3:atemp>22.0</ns3:atemp>
          </ns3:TrackPointExtension>
        </extensions>
      </trkpt>
      <trkpt lat="42.57061642594635486602783203125" lon="20.03406395204365253448486328125">
        <ele>1978.199951171875</ele>
        <time>2026-06-15T13:06:15.000Z</time>
        <extensions>
          <ns3:TrackPointExtension>
            <ns3:atemp>22.0</ns3:atemp>
          </ns3:TrackPointExtension>
        </extensions>
      </trkpt>
      <trkpt lat="42.570615001022815704345703125" lon="20.034062862396240234375">
        <ele>1978.199951171875</ele>
        <time>2026-06-15T13:06:16.000Z</time>
        <extensions>
          <ns3:TrackPointExtension>
            <ns3:atemp>22.0</ns3:atemp>
          </ns3:TrackPointExtension>
        </extensions>
      </trkpt>
      <trkpt lat="42.570615001022815704345703125" lon="20.0340630300343036651611328125">
        <ele>1978.199951171875</ele>
        <time>2026-06-15T13:06:17.000Z</time>
        <extensions>
          <ns3:TrackPointExtension>
            <ns3:atemp>22.0</ns3:atemp>
          </ns3:TrackPointExtension>
        </extensions>
      </trkpt>
      <trkpt lat="42.570615001022815704345703125" lon="20.0340630300343036651611328125">
        <ele>1978.4000244140625</ele>
        <time>2026-06-15T13:06:18.000Z</time>
        <extensions>
          <ns3:TrackPointExtension>
            <ns3:atemp>22.0</ns3:atemp>
          </ns3:TrackPointExtension>
        </extensions>
      </trkpt>
      <trkpt lat="42.570615001022815704345703125" lon="20.0340630300343036651611328125">
        <ele>1978.4000244140625</ele>
        <time>2026-06-15T13:06:19.000Z</time>
        <extensions>
          <ns3:TrackPointExtension>
            <ns3:atemp>22.0</ns3:atemp>
          </ns3:TrackPointExtension>
        </extensions>
      </trkpt>
      <trkpt lat="42.570615001022815704345703125" lon="20.0340630300343036651611328125">
        <ele>1978.199951171875</ele>
        <time>2026-06-15T13:06:20.000Z</time>
        <extensions>
          <ns3:TrackPointExtension>
            <ns3:atemp>22.0</ns3:atemp>
          </ns3:TrackPointExtension>
        </extensions>
      </trkpt>
      <trkpt lat="42.57061474956572055816650390625" lon="20.03406294621527194976806640625">
        <ele>1978.199951171875</ele>
        <time>2026-06-15T13:06:21.000Z</time>
        <extensions>
          <ns3:TrackPointExtension>
            <ns3:atemp>22.0</ns3:atemp>
          </ns3:TrackPointExtension>
        </extensions>
      </trkpt>
      <trkpt lat="42.570615001022815704345703125" lon="20.0340630300343036651611328125">
        <ele>1978</ele>
        <time>2026-06-15T13:06:22.000Z</time>
        <extensions>
          <ns3:TrackPointExtension>
            <ns3:atemp>22.0</ns3:atemp>
          </ns3:TrackPointExtension>
        </extensions>
      </trkpt>
      <trkpt lat="42.570615001022815704345703125" lon="20.0340630300343036651611328125">
        <ele>1978</ele>
        <time>2026-06-15T13:06:23.000Z</time>
        <extensions>
          <ns3:TrackPointExtension>
            <ns3:atemp>22.0</ns3:atemp>
          </ns3:TrackPointExtension>
        </extensions>
      </trkpt>
      <trkpt lat="42.570615001022815704345703125" lon="20.0340630300343036651611328125">
        <ele>1977.800048828125</ele>
        <time>2026-06-15T13:06:24.000Z</time>
        <extensions>
          <ns3:TrackPointExtension>
            <ns3:atemp>22.0</ns3:atemp>
          </ns3:TrackPointExtension>
        </extensions>
      </trkpt>
      <trkpt lat="42.570615001022815704345703125" lon="20.0340630300343036651611328125">
        <ele>1977.5999755859375</ele>
        <time>2026-06-15T13:06:25.000Z</time>
        <extensions>
          <ns3:TrackPointExtension>
            <ns3:atemp>22.0</ns3:atemp>
          </ns3:TrackPointExtension>
        </extensions>
      </trkpt>
      <trkpt lat="42.57061759941279888153076171875" lon="20.03405942581593990325927734375">
        <ele>1977.5999755859375</ele>
        <time>2026-06-15T13:06:26.000Z</time>
        <extensions>
          <ns3:TrackPointExtension>
            <ns3:atemp>22.0</ns3:atemp>
          </ns3:TrackPointExtension>
        </extensions>
      </trkpt>
      <trkpt lat="42.57061407901346683502197265625" lon="20.03405288793146610260009765625">
        <ele>1977.5999755859375</ele>
        <time>2026-06-15T13:06:27.000Z</time>
        <extensions>
          <ns3:TrackPointExtension>
            <ns3:atemp>22.0</ns3:atemp>
          </ns3:TrackPointExtension>
        </extensions>
      </trkpt>
      <trkpt lat="42.57061994634568691253662109375" lon="20.03404651768505573272705078125">
        <ele>1977.800048828125</ele>
        <time>2026-06-15T13:06:28.000Z</time>
        <extensions>
          <ns3:TrackPointExtension>
            <ns3:atemp>22.0</ns3:atemp>
          </ns3:TrackPointExtension>
        </extensions>
      </trkpt>
      <trkpt lat="42.57061676122248172760009765625" lon="20.03405858762562274932861328125">
        <ele>1977.5999755859375</ele>
        <time>2026-06-15T13:06:29.000Z</time>
        <extensions>
          <ns3:TrackPointExtension>
            <ns3:atemp>22.0</ns3:atemp>
          </ns3:TrackPointExtension>
        </extensions>
      </trkpt>
      <trkpt lat="42.570621706545352935791015625" lon="20.0340647064149379730224609375">
        <ele>1977.5999755859375</ele>
        <time>2026-06-15T13:06:30.000Z</time>
        <extensions>
          <ns3:TrackPointExtension>
            <ns3:atemp>22.0</ns3:atemp>
          </ns3:TrackPointExtension>
        </extensions>
      </trkpt>
      <trkpt lat="42.5706322677433490753173828125" lon="20.034054815769195556640625">
        <ele>1977.4000244140625</ele>
        <time>2026-06-15T13:06:31.000Z</time>
        <extensions>
          <ns3:TrackPointExtension>
            <ns3:atemp>22.0</ns3:atemp>
          </ns3:TrackPointExtension>
        </extensions>
      </trkpt>
      <trkpt lat="42.57062899880111217498779296875" lon="20.03406261093914508819580078125">
        <ele>1977.199951171875</ele>
        <time>2026-06-15T13:06:32.000Z</time>
        <extensions>
          <ns3:TrackPointExtension>
            <ns3:atemp>22.0</ns3:atemp>
          </ns3:TrackPointExtension>
        </extensions>
      </trkpt>
      <trkpt lat="42.57063855417072772979736328125" lon="20.0340553186833858489990234375">
        <ele>1976.800048828125</ele>
        <time>2026-06-15T13:06:33.000Z</time>
        <extensions>
          <ns3:TrackPointExtension>
            <ns3:atemp>22.0</ns3:atemp>
          </ns3:TrackPointExtension>
        </extensions>
      </trkpt>
      <trkpt lat="42.5706403143703937530517578125" lon="20.034049786627292633056640625">
        <ele>1976.5999755859375</ele>
        <time>2026-06-15T13:06:34.000Z</time>
        <extensions>
          <ns3:TrackPointExtension>
            <ns3:atemp>22.0</ns3:atemp>
          </ns3:TrackPointExtension>
        </extensions>
      </trkpt>
      <trkpt lat="42.57064492441713809967041015625" lon="20.0340479426085948944091796875">
        <ele>1976.4000244140625</ele>
        <time>2026-06-15T13:06:35.000Z</time>
        <extensions>
          <ns3:TrackPointExtension>
            <ns3:atemp>22.0</ns3:atemp>
          </ns3:TrackPointExtension>
        </extensions>
      </trkpt>
      <trkpt lat="42.57064492441713809967041015625" lon="20.0340479426085948944091796875">
        <ele>1976.4000244140625</ele>
        <time>2026-06-15T13:06:36.000Z</time>
        <extensions>
          <ns3:TrackPointExtension>
            <ns3:atemp>22.0</ns3:atemp>
          </ns3:TrackPointExtension>
        </extensions>
      </trkpt>
      <trkpt lat="42.57064492441713809967041015625" lon="20.0340479426085948944091796875">
        <ele>1976.199951171875</ele>
        <time>2026-06-15T13:06:37.000Z</time>
        <extensions>
          <ns3:TrackPointExtension>
            <ns3:atemp>22.0</ns3:atemp>
          </ns3:TrackPointExtension>
        </extensions>
      </trkpt>
      <trkpt lat="42.57064492441713809967041015625" lon="20.0340479426085948944091796875">
        <ele>1976</ele>
        <time>2026-06-15T13:06:38.000Z</time>
        <extensions>
          <ns3:TrackPointExtension>
            <ns3:atemp>22.0</ns3:atemp>
          </ns3:TrackPointExtension>
        </extensions>
      </trkpt>
      <trkpt lat="42.57064492441713809967041015625" lon="20.0340479426085948944091796875">
        <ele>1976</ele>
        <time>2026-06-15T13:06:39.000Z</time>
        <extensions>
          <ns3:TrackPointExtension>
            <ns3:atemp>22.0</ns3:atemp>
          </ns3:TrackPointExtension>
        </extensions>
      </trkpt>
      <trkpt lat="42.57064492441713809967041015625" lon="20.0340479426085948944091796875">
        <ele>1975.800048828125</ele>
        <time>2026-06-15T13:06:40.000Z</time>
        <extensions>
          <ns3:TrackPointExtension>
            <ns3:atemp>22.0</ns3:atemp>
          </ns3:TrackPointExtension>
        </extensions>
      </trkpt>
      <trkpt lat="42.57064492441713809967041015625" lon="20.0340479426085948944091796875">
        <ele>1975.800048828125</ele>
        <time>2026-06-15T13:06:41.000Z</time>
        <extensions>
          <ns3:TrackPointExtension>
            <ns3:atemp>22.0</ns3:atemp>
          </ns3:TrackPointExtension>
        </extensions>
      </trkpt>
      <trkpt lat="42.57064492441713809967041015625" lon="20.0340479426085948944091796875">
        <ele>1975.800048828125</ele>
        <time>2026-06-15T13:06:42.000Z</time>
        <extensions>
          <ns3:TrackPointExtension>
            <ns3:atemp>22.0</ns3:atemp>
          </ns3:TrackPointExtension>
        </extensions>
      </trkpt>
      <trkpt lat="42.57064492441713809967041015625" lon="20.0340479426085948944091796875">
        <ele>1975.800048828125</ele>
        <time>2026-06-15T13:06:43.000Z</time>
        <extensions>
          <ns3:TrackPointExtension>
            <ns3:atemp>22.0</ns3:atemp>
          </ns3:TrackPointExtension>
        </extensions>
      </trkpt>
      <trkpt lat="42.57064492441713809967041015625" lon="20.0340479426085948944091796875">
        <ele>1976</ele>
        <time>2026-06-15T13:06:44.000Z</time>
        <extensions>
          <ns3:TrackPointExtension>
            <ns3:atemp>22.0</ns3:atemp>
          </ns3:TrackPointExtension>
        </extensions>
      </trkpt>
      <trkpt lat="42.57064492441713809967041015625" lon="20.0340479426085948944091796875">
        <ele>1976</ele>
        <time>2026-06-15T13:06:45.000Z</time>
        <extensions>
          <ns3:TrackPointExtension>
            <ns3:atemp>22.0</ns3:atemp>
          </ns3:TrackPointExtension>
        </extensions>
      </trkpt>
      <trkpt lat="42.57064492441713809967041015625" lon="20.0340479426085948944091796875">
        <ele>1976</ele>
        <time>2026-06-15T13:06:46.000Z</time>
        <extensions>
          <ns3:TrackPointExtension>
            <ns3:atemp>22.0</ns3:atemp>
          </ns3:TrackPointExtension>
        </extensions>
      </trkpt>
      <trkpt lat="42.57064492441713809967041015625" lon="20.0340479426085948944091796875">
        <ele>1975.800048828125</ele>
        <time>2026-06-15T13:06:47.000Z</time>
        <extensions>
          <ns3:TrackPointExtension>
            <ns3:atemp>22.0</ns3:atemp>
          </ns3:TrackPointExtension>
        </extensions>
      </trkpt>
      <trkpt lat="42.57064492441713809967041015625" lon="20.0340479426085948944091796875">
        <ele>1975.800048828125</ele>
        <time>2026-06-15T13:06:48.000Z</time>
        <extensions>
          <ns3:TrackPointExtension>
            <ns3:atemp>22.0</ns3:atemp>
          </ns3:TrackPointExtension>
        </extensions>
      </trkpt>
      <trkpt lat="42.57064492441713809967041015625" lon="20.0340479426085948944091796875">
        <ele>1975.800048828125</ele>
        <time>2026-06-15T13:06:49.000Z</time>
        <extensions>
          <ns3:TrackPointExtension>
            <ns3:atemp>22.0</ns3:atemp>
          </ns3:TrackPointExtension>
        </extensions>
      </trkpt>
      <trkpt lat="42.57064492441713809967041015625" lon="20.0340479426085948944091796875">
        <ele>1975.800048828125</ele>
        <time>2026-06-15T13:06:50.000Z</time>
        <extensions>
          <ns3:TrackPointExtension>
            <ns3:atemp>22.0</ns3:atemp>
          </ns3:TrackPointExtension>
        </extensions>
      </trkpt>
      <trkpt lat="42.57064492441713809967041015625" lon="20.0340479426085948944091796875">
        <ele>1975.800048828125</ele>
        <time>2026-06-15T13:06:51.000Z</time>
        <extensions>
          <ns3:TrackPointExtension>
            <ns3:atemp>22.0</ns3:atemp>
          </ns3:TrackPointExtension>
        </extensions>
      </trkpt>
      <trkpt lat="42.57064492441713809967041015625" lon="20.0340479426085948944091796875">
        <ele>1976</ele>
        <time>2026-06-15T13:06:52.000Z</time>
        <extensions>
          <ns3:TrackPointExtension>
            <ns3:atemp>22.0</ns3:atemp>
          </ns3:TrackPointExtension>
        </extensions>
      </trkpt>
      <trkpt lat="42.57064492441713809967041015625" lon="20.0340479426085948944091796875">
        <ele>1976.199951171875</ele>
        <time>2026-06-15T13:06:53.000Z</time>
        <extensions>
          <ns3:TrackPointExtension>
            <ns3:atemp>22.0</ns3:atemp>
          </ns3:TrackPointExtension>
        </extensions>
      </trkpt>
      <trkpt lat="42.57064492441713809967041015625" lon="20.0340479426085948944091796875">
        <ele>1976.4000244140625</ele>
        <time>2026-06-15T13:06:54.000Z</time>
        <extensions>
          <ns3:TrackPointExtension>
            <ns3:atemp>22.0</ns3:atemp>
          </ns3:TrackPointExtension>
        </extensions>
      </trkpt>
      <trkpt lat="42.57064492441713809967041015625" lon="20.0340479426085948944091796875">
        <ele>1976.800048828125</ele>
        <time>2026-06-15T13:06:55.000Z</time>
        <extensions>
          <ns3:TrackPointExtension>
            <ns3:atemp>22.0</ns3:atemp>
          </ns3:TrackPointExtension>
        </extensions>
      </trkpt>
      <trkpt lat="42.57064492441713809967041015625" lon="20.0340479426085948944091796875">
        <ele>1977</ele>
        <time>2026-06-15T13:06:56.000Z</time>
        <extensions>
          <ns3:TrackPointExtension>
            <ns3:atemp>22.0</ns3:atemp>
          </ns3:TrackPointExtension>
        </extensions>
      </trkpt>
      <trkpt lat="42.57064492441713809967041015625" lon="20.0340479426085948944091796875">
        <ele>1977</ele>
        <time>2026-06-15T13:06:57.000Z</time>
        <extensions>
          <ns3:TrackPointExtension>
            <ns3:atemp>22.0</ns3:atemp>
          </ns3:TrackPointExtension>
        </extensions>
      </trkpt>
      <trkpt lat="42.57064492441713809967041015625" lon="20.0340479426085948944091796875">
        <ele>1977</ele>
        <time>2026-06-15T13:06:58.000Z</time>
        <extensions>
          <ns3:TrackPointExtension>
            <ns3:atemp>22.0</ns3:atemp>
          </ns3:TrackPointExtension>
        </extensions>
      </trkpt>
      <trkpt lat="42.57064492441713809967041015625" lon="20.0340479426085948944091796875">
        <ele>1976.800048828125</ele>
        <time>2026-06-15T13:06:59.000Z</time>
        <extensions>
          <ns3:TrackPointExtension>
            <ns3:atemp>22.0</ns3:atemp>
          </ns3:TrackPointExtension>
        </extensions>
      </trkpt>
      <trkpt lat="42.57064090110361576080322265625" lon="20.03405355848371982574462890625">
        <ele>1976.5999755859375</ele>
        <time>2026-06-15T13:07:00.000Z</time>
        <extensions>
          <ns3:TrackPointExtension>
            <ns3:atemp>22.0</ns3:atemp>
          </ns3:TrackPointExtension>
        </extensions>
      </trkpt>
      <trkpt lat="42.5706342794001102447509765625" lon="20.03405272029340267181396484375">
        <ele>1976.199951171875</ele>
        <time>2026-06-15T13:07:01.000Z</time>
        <extensions>
          <ns3:TrackPointExtension>
            <ns3:atemp>22.0</ns3:atemp>
          </ns3:TrackPointExtension>
        </extensions>
      </trkpt>
      <trkpt lat="42.57063117809593677520751953125" lon="20.03404819406569004058837890625">
        <ele>1975.800048828125</ele>
        <time>2026-06-15T13:07:02.000Z</time>
        <extensions>
          <ns3:TrackPointExtension>
            <ns3:atemp>22.0</ns3:atemp>
          </ns3:TrackPointExtension>
        </extensions>
      </trkpt>
      <trkpt lat="42.57063117809593677520751953125" lon="20.03404819406569004058837890625">
        <ele>1975.4000244140625</ele>
        <time>2026-06-15T13:07:03.000Z</time>
        <extensions>
          <ns3:TrackPointExtension>
            <ns3:atemp>22.0</ns3:atemp>
          </ns3:TrackPointExtension>
        </extensions>
      </trkpt>
      <trkpt lat="42.57063117809593677520751953125" lon="20.03404819406569004058837890625">
        <ele>1975.5999755859375</ele>
        <time>2026-06-15T13:07:04.000Z</time>
        <extensions>
          <ns3:TrackPointExtension>
            <ns3:atemp>22.0</ns3:atemp>
          </ns3:TrackPointExtension>
        </extensions>
      </trkpt>
      <trkpt lat="42.57063117809593677520751953125" lon="20.03404819406569004058837890625">
        <ele>1975.800048828125</ele>
        <time>2026-06-15T13:07:05.000Z</time>
        <extensions>
          <ns3:TrackPointExtension>
            <ns3:atemp>22.0</ns3:atemp>
          </ns3:TrackPointExtension>
        </extensions>
      </trkpt>
      <trkpt lat="42.57063117809593677520751953125" lon="20.03404819406569004058837890625">
        <ele>1976</ele>
        <time>2026-06-15T13:07:06.000Z</time>
        <extensions>
          <ns3:TrackPointExtension>
            <ns3:atemp>22.0</ns3:atemp>
          </ns3:TrackPointExtension>
        </extensions>
      </trkpt>
      <trkpt lat="42.57063117809593677520751953125" lon="20.03404819406569004058837890625">
        <ele>1976</ele>
        <time>2026-06-15T13:07:07.000Z</time>
        <extensions>
          <ns3:TrackPointExtension>
            <ns3:atemp>22.0</ns3:atemp>
          </ns3:TrackPointExtension>
        </extensions>
      </trkpt>
      <trkpt lat="42.57063117809593677520751953125" lon="20.03404819406569004058837890625">
        <ele>1976</ele>
        <time>2026-06-15T13:07:08.000Z</time>
        <extensions>
          <ns3:TrackPointExtension>
            <ns3:atemp>22.0</ns3:atemp>
          </ns3:TrackPointExtension>
        </extensions>
      </trkpt>
      <trkpt lat="42.57063117809593677520751953125" lon="20.03404819406569004058837890625">
        <ele>1976</ele>
        <time>2026-06-15T13:07:09.000Z</time>
        <extensions>
          <ns3:TrackPointExtension>
            <ns3:atemp>22.0</ns3:atemp>
          </ns3:TrackPointExtension>
        </extensions>
      </trkpt>
      <trkpt lat="42.57063117809593677520751953125" lon="20.03404819406569004058837890625">
        <ele>1975.800048828125</ele>
        <time>2026-06-15T13:07:10.000Z</time>
        <extensions>
          <ns3:TrackPointExtension>
            <ns3:atemp>22.0</ns3:atemp>
          </ns3:TrackPointExtension>
        </extensions>
      </trkpt>
      <trkpt lat="42.57063117809593677520751953125" lon="20.03404819406569004058837890625">
        <ele>1975.5999755859375</ele>
        <time>2026-06-15T13:07:11.000Z</time>
        <extensions>
          <ns3:TrackPointExtension>
            <ns3:atemp>22.0</ns3:atemp>
          </ns3:TrackPointExtension>
        </extensions>
      </trkpt>
      <trkpt lat="42.57063117809593677520751953125" lon="20.03404819406569004058837890625">
        <ele>1975.5999755859375</ele>
        <time>2026-06-15T13:07:12.000Z</time>
        <extensions>
          <ns3:TrackPointExtension>
            <ns3:atemp>22.0</ns3:atemp>
          </ns3:TrackPointExtension>
        </extensions>
      </trkpt>
      <trkpt lat="42.57063117809593677520751953125" lon="20.03404819406569004058837890625">
        <ele>1975.4000244140625</ele>
        <time>2026-06-15T13:07:13.000Z</time>
        <extensions>
          <ns3:TrackPointExtension>
            <ns3:atemp>22.0</ns3:atemp>
          </ns3:TrackPointExtension>
        </extensions>
      </trkpt>
      <trkpt lat="42.57063117809593677520751953125" lon="20.03404819406569004058837890625">
        <ele>1975.4000244140625</ele>
        <time>2026-06-15T13:07:14.000Z</time>
        <extensions>
          <ns3:TrackPointExtension>
            <ns3:atemp>22.0</ns3:atemp>
          </ns3:TrackPointExtension>
        </extensions>
      </trkpt>
      <trkpt lat="42.57063117809593677520751953125" lon="20.03404819406569004058837890625">
        <ele>1975.199951171875</ele>
        <time>2026-06-15T13:07:15.000Z</time>
        <extensions>
          <ns3:TrackPointExtension>
            <ns3:atemp>22.0</ns3:atemp>
          </ns3:TrackPointExtension>
        </extensions>
      </trkpt>
      <trkpt lat="42.57063117809593677520751953125" lon="20.03404819406569004058837890625">
        <ele>1975.199951171875</ele>
        <time>2026-06-15T13:07:16.000Z</time>
        <extensions>
          <ns3:TrackPointExtension>
            <ns3:atemp>22.0</ns3:atemp>
          </ns3:TrackPointExtension>
        </extensions>
      </trkpt>
      <trkpt lat="42.57063117809593677520751953125" lon="20.03404819406569004058837890625">
        <ele>1975</ele>
        <time>2026-06-15T13:07:17.000Z</time>
        <extensions>
          <ns3:TrackPointExtension>
            <ns3:atemp>22.0</ns3:atemp>
          </ns3:TrackPointExtension>
        </extensions>
      </trkpt>
      <trkpt lat="42.57063117809593677520751953125" lon="20.03404819406569004058837890625">
        <ele>1974.800048828125</ele>
        <time>2026-06-15T13:07:18.000Z</time>
        <extensions>
          <ns3:TrackPointExtension>
            <ns3:atemp>22.0</ns3:atemp>
          </ns3:TrackPointExtension>
        </extensions>
      </trkpt>
      <trkpt lat="42.57063117809593677520751953125" lon="20.03404819406569004058837890625">
        <ele>1974.800048828125</ele>
        <time>2026-06-15T13:07:19.000Z</time>
        <extensions>
          <ns3:TrackPointExtension>
            <ns3:atemp>22.0</ns3:atemp>
          </ns3:TrackPointExtension>
        </extensions>
      </trkpt>
      <trkpt lat="42.57063117809593677520751953125" lon="20.03404819406569004058837890625">
        <ele>1974.800048828125</ele>
        <time>2026-06-15T13:07:20.000Z</time>
        <extensions>
          <ns3:TrackPointExtension>
            <ns3:atemp>22.0</ns3:atemp>
          </ns3:TrackPointExtension>
        </extensions>
      </trkpt>
      <trkpt lat="42.57063117809593677520751953125" lon="20.03404819406569004058837890625">
        <ele>1975.4000244140625</ele>
        <time>2026-06-15T13:07:21.000Z</time>
        <extensions>
          <ns3:TrackPointExtension>
            <ns3:atemp>22.0</ns3:atemp>
          </ns3:TrackPointExtension>
        </extensions>
      </trkpt>
      <trkpt lat="42.57063117809593677520751953125" lon="20.03404819406569004058837890625">
        <ele>1975.5999755859375</ele>
        <time>2026-06-15T13:07:22.000Z</time>
        <extensions>
          <ns3:TrackPointExtension>
            <ns3:atemp>22.0</ns3:atemp>
          </ns3:TrackPointExtension>
        </extensions>
      </trkpt>
      <trkpt lat="42.57063117809593677520751953125" lon="20.03404819406569004058837890625">
        <ele>1975.800048828125</ele>
        <time>2026-06-15T13:07:23.000Z</time>
        <extensions>
          <ns3:TrackPointExtension>
            <ns3:atemp>22.0</ns3:atemp>
          </ns3:TrackPointExtension>
        </extensions>
      </trkpt>
      <trkpt lat="42.57063117809593677520751953125" lon="20.03404819406569004058837890625">
        <ele>1975.800048828125</ele>
        <time>2026-06-15T13:07:24.000Z</time>
        <extensions>
          <ns3:TrackPointExtension>
            <ns3:atemp>22.0</ns3:atemp>
          </ns3:TrackPointExtension>
        </extensions>
      </trkpt>
      <trkpt lat="42.57063117809593677520751953125" lon="20.03404819406569004058837890625">
        <ele>1975.5999755859375</ele>
        <time>2026-06-15T13:07:25.000Z</time>
        <extensions>
          <ns3:TrackPointExtension>
            <ns3:atemp>22.0</ns3:atemp>
          </ns3:TrackPointExtension>
        </extensions>
      </trkpt>
      <trkpt lat="42.57063117809593677520751953125" lon="20.03404819406569004058837890625">
        <ele>1975.5999755859375</ele>
        <time>2026-06-15T13:07:26.000Z</time>
        <extensions>
          <ns3:TrackPointExtension>
            <ns3:atemp>22.0</ns3:atemp>
          </ns3:TrackPointExtension>
        </extensions>
      </trkpt>
      <trkpt lat="42.57063117809593677520751953125" lon="20.03404819406569004058837890625">
        <ele>1975.4000244140625</ele>
        <time>2026-06-15T13:07:27.000Z</time>
        <extensions>
          <ns3:TrackPointExtension>
            <ns3:atemp>22.0</ns3:atemp>
          </ns3:TrackPointExtension>
        </extensions>
      </trkpt>
      <trkpt lat="42.57063117809593677520751953125" lon="20.03404819406569004058837890625">
        <ele>1975.4000244140625</ele>
        <time>2026-06-15T13:07:28.000Z</time>
        <extensions>
          <ns3:TrackPointExtension>
            <ns3:atemp>22.0</ns3:atemp>
          </ns3:TrackPointExtension>
        </extensions>
      </trkpt>
      <trkpt lat="42.57063117809593677520751953125" lon="20.03404819406569004058837890625">
        <ele>1975.199951171875</ele>
        <time>2026-06-15T13:07:29.000Z</time>
        <extensions>
          <ns3:TrackPointExtension>
            <ns3:atemp>22.0</ns3:atemp>
          </ns3:TrackPointExtension>
        </extensions>
      </trkpt>
      <trkpt lat="42.57063117809593677520751953125" lon="20.03404819406569004058837890625">
        <ele>1975</ele>
        <time>2026-06-15T13:07:30.000Z</time>
        <extensions>
          <ns3:TrackPointExtension>
            <ns3:atemp>22.0</ns3:atemp>
          </ns3:TrackPointExtension>
        </extensions>
      </trkpt>
      <trkpt lat="42.57063117809593677520751953125" lon="20.03404819406569004058837890625">
        <ele>1974.800048828125</ele>
        <time>2026-06-15T13:07:31.000Z</time>
        <extensions>
          <ns3:TrackPointExtension>
            <ns3:atemp>22.0</ns3:atemp>
          </ns3:TrackPointExtension>
        </extensions>
      </trkpt>
      <trkpt lat="42.57063117809593677520751953125" lon="20.03404819406569004058837890625">
        <ele>1974.5999755859375</ele>
        <time>2026-06-15T13:07:32.000Z</time>
        <extensions>
          <ns3:TrackPointExtension>
            <ns3:atemp>22.0</ns3:atemp>
          </ns3:TrackPointExtension>
        </extensions>
      </trkpt>
      <trkpt lat="42.57063117809593677520751953125" lon="20.03404819406569004058837890625">
        <ele>1974.5999755859375</ele>
        <time>2026-06-15T13:07:33.000Z</time>
        <extensions>
          <ns3:TrackPointExtension>
            <ns3:atemp>22.0</ns3:atemp>
          </ns3:TrackPointExtension>
        </extensions>
      </trkpt>
      <trkpt lat="42.57063117809593677520751953125" lon="20.03404819406569004058837890625">
        <ele>1974.5999755859375</ele>
        <time>2026-06-15T13:07:34.000Z</time>
        <extensions>
          <ns3:TrackPointExtension>
            <ns3:atemp>22.0</ns3:atemp>
          </ns3:TrackPointExtension>
        </extensions>
      </trkpt>
      <trkpt lat="42.57063117809593677520751953125" lon="20.03404819406569004058837890625">
        <ele>1974.5999755859375</ele>
        <time>2026-06-15T13:07:35.000Z</time>
        <extensions>
          <ns3:TrackPointExtension>
            <ns3:atemp>22.0</ns3:atemp>
          </ns3:TrackPointExtension>
        </extensions>
      </trkpt>
      <trkpt lat="42.57063117809593677520751953125" lon="20.03404819406569004058837890625">
        <ele>1974.5999755859375</ele>
        <time>2026-06-15T13:07:36.000Z</time>
        <extensions>
          <ns3:TrackPointExtension>
            <ns3:atemp>22.0</ns3:atemp>
          </ns3:TrackPointExtension>
        </extensions>
      </trkpt>
      <trkpt lat="42.57063117809593677520751953125" lon="20.03404819406569004058837890625">
        <ele>1974.5999755859375</ele>
        <time>2026-06-15T13:07:37.000Z</time>
        <extensions>
          <ns3:TrackPointExtension>
            <ns3:atemp>22.0</ns3:atemp>
          </ns3:TrackPointExtension>
        </extensions>
      </trkpt>
      <trkpt lat="42.57063117809593677520751953125" lon="20.03404819406569004058837890625">
        <ele>1974.800048828125</ele>
        <time>2026-06-15T13:07:38.000Z</time>
        <extensions>
          <ns3:TrackPointExtension>
            <ns3:atemp>22.0</ns3:atemp>
          </ns3:TrackPointExtension>
        </extensions>
      </trkpt>
      <trkpt lat="42.57063117809593677520751953125" lon="20.03404819406569004058837890625">
        <ele>1974.800048828125</ele>
        <time>2026-06-15T13:07:39.000Z</time>
        <extensions>
          <ns3:TrackPointExtension>
            <ns3:atemp>22.0</ns3:atemp>
          </ns3:TrackPointExtension>
        </extensions>
      </trkpt>
      <trkpt lat="42.57063117809593677520751953125" lon="20.03404819406569004058837890625">
        <ele>1974.800048828125</ele>
        <time>2026-06-15T13:07:40.000Z</time>
        <extensions>
          <ns3:TrackPointExtension>
            <ns3:atemp>22.0</ns3:atemp>
          </ns3:TrackPointExtension>
        </extensions>
      </trkpt>
      <trkpt lat="42.57063117809593677520751953125" lon="20.03404819406569004058837890625">
        <ele>1974.800048828125</ele>
        <time>2026-06-15T13:07:41.000Z</time>
        <extensions>
          <ns3:TrackPointExtension>
            <ns3:atemp>22.0</ns3:atemp>
          </ns3:TrackPointExtension>
        </extensions>
      </trkpt>
      <trkpt lat="42.57063117809593677520751953125" lon="20.03404819406569004058837890625">
        <ele>1974.800048828125</ele>
        <time>2026-06-15T13:07:42.000Z</time>
        <extensions>
          <ns3:TrackPointExtension>
            <ns3:atemp>22.0</ns3:atemp>
          </ns3:TrackPointExtension>
        </extensions>
      </trkpt>
      <trkpt lat="42.57063117809593677520751953125" lon="20.03404819406569004058837890625">
        <ele>1974.800048828125</ele>
        <time>2026-06-15T13:07:43.000Z</time>
        <extensions>
          <ns3:TrackPointExtension>
            <ns3:atemp>22.0</ns3:atemp>
          </ns3:TrackPointExtension>
        </extensions>
      </trkpt>
      <trkpt lat="42.57063117809593677520751953125" lon="20.03404819406569004058837890625">
        <ele>1975</ele>
        <time>2026-06-15T13:07:44.000Z</time>
        <extensions>
          <ns3:TrackPointExtension>
            <ns3:atemp>22.0</ns3:atemp>
          </ns3:TrackPointExtension>
        </extensions>
      </trkpt>
      <trkpt lat="42.57063117809593677520751953125" lon="20.03404819406569004058837890625">
        <ele>1975</ele>
        <time>2026-06-15T13:07:45.000Z</time>
        <extensions>
          <ns3:TrackPointExtension>
            <ns3:atemp>22.0</ns3:atemp>
          </ns3:TrackPointExtension>
        </extensions>
      </trkpt>
      <trkpt lat="42.57063117809593677520751953125" lon="20.03404819406569004058837890625">
        <ele>1975.199951171875</ele>
        <time>2026-06-15T13:07:46.000Z</time>
        <extensions>
          <ns3:TrackPointExtension>
            <ns3:atemp>22.0</ns3:atemp>
          </ns3:TrackPointExtension>
        </extensions>
      </trkpt>
      <trkpt lat="42.57063117809593677520751953125" lon="20.03404819406569004058837890625">
        <ele>1975.4000244140625</ele>
        <time>2026-06-15T13:07:47.000Z</time>
        <extensions>
          <ns3:TrackPointExtension>
            <ns3:atemp>22.0</ns3:atemp>
          </ns3:TrackPointExtension>
        </extensions>
      </trkpt>
      <trkpt lat="42.57063117809593677520751953125" lon="20.03404819406569004058837890625">
        <ele>1975.5999755859375</ele>
        <time>2026-06-15T13:07:48.000Z</time>
        <extensions>
          <ns3:TrackPointExtension>
            <ns3:atemp>22.0</ns3:atemp>
          </ns3:TrackPointExtension>
        </extensions>
      </trkpt>
      <trkpt lat="42.57063117809593677520751953125" lon="20.03404819406569004058837890625">
        <ele>1975.5999755859375</ele>
        <time>2026-06-15T13:07:49.000Z</time>
        <extensions>
          <ns3:TrackPointExtension>
            <ns3:atemp>22.0</ns3:atemp>
          </ns3:TrackPointExtension>
        </extensions>
      </trkpt>
      <trkpt lat="42.57063117809593677520751953125" lon="20.03404819406569004058837890625">
        <ele>1975.5999755859375</ele>
        <time>2026-06-15T13:07:50.000Z</time>
        <extensions>
          <ns3:TrackPointExtension>
            <ns3:atemp>22.0</ns3:atemp>
          </ns3:TrackPointExtension>
        </extensions>
      </trkpt>
      <trkpt lat="42.57063117809593677520751953125" lon="20.03404819406569004058837890625">
        <ele>1975.4000244140625</ele>
        <time>2026-06-15T13:07:51.000Z</time>
        <extensions>
          <ns3:TrackPointExtension>
            <ns3:atemp>22.0</ns3:atemp>
          </ns3:TrackPointExtension>
        </extensions>
      </trkpt>
      <trkpt lat="42.57063117809593677520751953125" lon="20.03404819406569004058837890625">
        <ele>1974.800048828125</ele>
        <time>2026-06-15T13:07:52.000Z</time>
        <extensions>
          <ns3:TrackPointExtension>
            <ns3:atemp>22.0</ns3:atemp>
          </ns3:TrackPointExtension>
        </extensions>
      </trkpt>
      <trkpt lat="42.57063117809593677520751953125" lon="20.03404819406569004058837890625">
        <ele>1974.5999755859375</ele>
        <time>2026-06-15T13:07:53.000Z</time>
        <extensions>
          <ns3:TrackPointExtension>
            <ns3:atemp>22.0</ns3:atemp>
          </ns3:TrackPointExtension>
        </extensions>
      </trkpt>
      <trkpt lat="42.57063117809593677520751953125" lon="20.03404819406569004058837890625">
        <ele>1974.5999755859375</ele>
        <time>2026-06-15T13:07:54.000Z</time>
        <extensions>
          <ns3:TrackPointExtension>
            <ns3:atemp>22.0</ns3:atemp>
          </ns3:TrackPointExtension>
        </extensions>
      </trkpt>
      <trkpt lat="42.57063117809593677520751953125" lon="20.03404819406569004058837890625">
        <ele>1974.4000244140625</ele>
        <time>2026-06-15T13:07:55.000Z</time>
        <extensions>
          <ns3:TrackPointExtension>
            <ns3:atemp>22.0</ns3:atemp>
          </ns3:TrackPointExtension>
        </extensions>
      </trkpt>
      <trkpt lat="42.57063117809593677520751953125" lon="20.03404819406569004058837890625">
        <ele>1975</ele>
        <time>2026-06-15T13:07:56.000Z</time>
        <extensions>
          <ns3:TrackPointExtension>
            <ns3:atemp>22.0</ns3:atemp>
          </ns3:TrackPointExtension>
        </extensions>
      </trkpt>
      <trkpt lat="42.57063117809593677520751953125" lon="20.03404819406569004058837890625">
        <ele>1975.5999755859375</ele>
        <time>2026-06-15T13:07:57.000Z</time>
        <extensions>
          <ns3:TrackPointExtension>
            <ns3:atemp>22.0</ns3:atemp>
          </ns3:TrackPointExtension>
        </extensions>
      </trkpt>
      <trkpt lat="42.57063117809593677520751953125" lon="20.03404819406569004058837890625">
        <ele>1976.199951171875</ele>
        <time>2026-06-15T13:07:58.000Z</time>
        <extensions>
          <ns3:TrackPointExtension>
            <ns3:atemp>22.0</ns3:atemp>
          </ns3:TrackPointExtension>
        </extensions>
      </trkpt>
      <trkpt lat="42.57063117809593677520751953125" lon="20.03404819406569004058837890625">
        <ele>1976.199951171875</ele>
        <time>2026-06-15T13:07:59.000Z</time>
        <extensions>
          <ns3:TrackPointExtension>
            <ns3:atemp>22.0</ns3:atemp>
          </ns3:TrackPointExtension>
        </extensions>
      </trkpt>
      <trkpt lat="42.57063117809593677520751953125" lon="20.03404819406569004058837890625">
        <ele>1976</ele>
        <time>2026-06-15T13:08:00.000Z</time>
        <extensions>
          <ns3:TrackPointExtension>
            <ns3:atemp>22.0</ns3:atemp>
          </ns3:TrackPointExtension>
        </extensions>
      </trkpt>
      <trkpt lat="42.57063117809593677520751953125" lon="20.03404819406569004058837890625">
        <ele>1975.5999755859375</ele>
        <time>2026-06-15T13:08:01.000Z</time>
        <extensions>
          <ns3:TrackPointExtension>
            <ns3:atemp>22.0</ns3:atemp>
          </ns3:TrackPointExtension>
        </extensions>
      </trkpt>
      <trkpt lat="42.57063117809593677520751953125" lon="20.03404819406569004058837890625">
        <ele>1975</ele>
        <time>2026-06-15T13:08:02.000Z</time>
        <extensions>
          <ns3:TrackPointExtension>
            <ns3:atemp>22.0</ns3:atemp>
          </ns3:TrackPointExtension>
        </extensions>
      </trkpt>
      <trkpt lat="42.57063117809593677520751953125" lon="20.03404819406569004058837890625">
        <ele>1974.4000244140625</ele>
        <time>2026-06-15T13:08:03.000Z</time>
        <extensions>
          <ns3:TrackPointExtension>
            <ns3:atemp>22.0</ns3:atemp>
          </ns3:TrackPointExtension>
        </extensions>
      </trkpt>
      <trkpt lat="42.57063117809593677520751953125" lon="20.03404819406569004058837890625">
        <ele>1974.199951171875</ele>
        <time>2026-06-15T13:08:04.000Z</time>
        <extensions>
          <ns3:TrackPointExtension>
            <ns3:atemp>22.0</ns3:atemp>
          </ns3:TrackPointExtension>
        </extensions>
      </trkpt>
      <trkpt lat="42.57063117809593677520751953125" lon="20.03404819406569004058837890625">
        <ele>1974.199951171875</ele>
        <time>2026-06-15T13:08:05.000Z</time>
        <extensions>
          <ns3:TrackPointExtension>
            <ns3:atemp>22.0</ns3:atemp>
          </ns3:TrackPointExtension>
        </extensions>
      </trkpt>
      <trkpt lat="42.57063117809593677520751953125" lon="20.03404819406569004058837890625">
        <ele>1974.4000244140625</ele>
        <time>2026-06-15T13:08:06.000Z</time>
        <extensions>
          <ns3:TrackPointExtension>
            <ns3:atemp>22.0</ns3:atemp>
          </ns3:TrackPointExtension>
        </extensions>
      </trkpt>
      <trkpt lat="42.57063117809593677520751953125" lon="20.03404819406569004058837890625">
        <ele>1974.5999755859375</ele>
        <time>2026-06-15T13:08:07.000Z</time>
        <extensions>
          <ns3:TrackPointExtension>
            <ns3:atemp>22.0</ns3:atemp>
          </ns3:TrackPointExtension>
        </extensions>
      </trkpt>
      <trkpt lat="42.57063117809593677520751953125" lon="20.03404819406569004058837890625">
        <ele>1974.800048828125</ele>
        <time>2026-06-15T13:08:08.000Z</time>
        <extensions>
          <ns3:TrackPointExtension>
            <ns3:atemp>22.0</ns3:atemp>
          </ns3:TrackPointExtension>
        </extensions>
      </trkpt>
      <trkpt lat="42.57063117809593677520751953125" lon="20.03404819406569004058837890625">
        <ele>1974.800048828125</ele>
        <time>2026-06-15T13:08:09.000Z</time>
        <extensions>
          <ns3:TrackPointExtension>
            <ns3:atemp>22.0</ns3:atemp>
          </ns3:TrackPointExtension>
        </extensions>
      </trkpt>
      <trkpt lat="42.57063117809593677520751953125" lon="20.03404819406569004058837890625">
        <ele>1974.800048828125</ele>
        <time>2026-06-15T13:08:10.000Z</time>
        <extensions>
          <ns3:TrackPointExtension>
            <ns3:atemp>22.0</ns3:atemp>
          </ns3:TrackPointExtension>
        </extensions>
      </trkpt>
      <trkpt lat="42.57063117809593677520751953125" lon="20.03404819406569004058837890625">
        <ele>1974.800048828125</ele>
        <time>2026-06-15T13:08:11.000Z</time>
        <extensions>
          <ns3:TrackPointExtension>
            <ns3:atemp>22.0</ns3:atemp>
          </ns3:TrackPointExtension>
        </extensions>
      </trkpt>
      <trkpt lat="42.57063117809593677520751953125" lon="20.03404819406569004058837890625">
        <ele>1974.800048828125</ele>
        <time>2026-06-15T13:08:12.000Z</time>
        <extensions>
          <ns3:TrackPointExtension>
            <ns3:atemp>22.0</ns3:atemp>
          </ns3:TrackPointExtension>
        </extensions>
      </trkpt>
      <trkpt lat="42.57063117809593677520751953125" lon="20.03404819406569004058837890625">
        <ele>1975</ele>
        <time>2026-06-15T13:08:13.000Z</time>
        <extensions>
          <ns3:TrackPointExtension>
            <ns3:atemp>22.0</ns3:atemp>
          </ns3:TrackPointExtension>
        </extensions>
      </trkpt>
      <trkpt lat="42.57063117809593677520751953125" lon="20.03404819406569004058837890625">
        <ele>1975</ele>
        <time>2026-06-15T13:08:14.000Z</time>
        <extensions>
          <ns3:TrackPointExtension>
            <ns3:atemp>22.0</ns3:atemp>
          </ns3:TrackPointExtension>
        </extensions>
      </trkpt>
      <trkpt lat="42.57063117809593677520751953125" lon="20.03404819406569004058837890625">
        <ele>1974.800048828125</ele>
        <time>2026-06-15T13:08:15.000Z</time>
        <extensions>
          <ns3:TrackPointExtension>
            <ns3:atemp>22.0</ns3:atemp>
          </ns3:TrackPointExtension>
        </extensions>
      </trkpt>
      <trkpt lat="42.57063117809593677520751953125" lon="20.03404819406569004058837890625">
        <ele>1974.4000244140625</ele>
        <time>2026-06-15T13:08:16.000Z</time>
        <extensions>
          <ns3:TrackPointExtension>
            <ns3:atemp>22.0</ns3:atemp>
          </ns3:TrackPointExtension>
        </extensions>
      </trkpt>
      <trkpt lat="42.57063117809593677520751953125" lon="20.03404819406569004058837890625">
        <ele>1974</ele>
        <time>2026-06-15T13:08:17.000Z</time>
        <extensions>
          <ns3:TrackPointExtension>
            <ns3:atemp>22.0</ns3:atemp>
          </ns3:TrackPointExtension>
        </extensions>
      </trkpt>
      <trkpt lat="42.57063117809593677520751953125" lon="20.03404819406569004058837890625">
        <ele>1973.800048828125</ele>
        <time>2026-06-15T13:08:18.000Z</time>
        <extensions>
          <ns3:TrackPointExtension>
            <ns3:atemp>22.0</ns3:atemp>
          </ns3:TrackPointExtension>
        </extensions>
      </trkpt>
      <trkpt lat="42.57063117809593677520751953125" lon="20.03404819406569004058837890625">
        <ele>1973.800048828125</ele>
        <time>2026-06-15T13:08:19.000Z</time>
        <extensions>
          <ns3:TrackPointExtension>
            <ns3:atemp>22.0</ns3:atemp>
          </ns3:TrackPointExtension>
        </extensions>
      </trkpt>
      <trkpt lat="42.57063117809593677520751953125" lon="20.03404819406569004058837890625">
        <ele>1973.800048828125</ele>
        <time>2026-06-15T13:08:20.000Z</time>
        <extensions>
          <ns3:TrackPointExtension>
            <ns3:atemp>22.0</ns3:atemp>
          </ns3:TrackPointExtension>
        </extensions>
      </trkpt>
      <trkpt lat="42.57063117809593677520751953125" lon="20.03404819406569004058837890625">
        <ele>1974</ele>
        <time>2026-06-15T13:08:21.000Z</time>
        <extensions>
          <ns3:TrackPointExtension>
            <ns3:atemp>22.0</ns3:atemp>
          </ns3:TrackPointExtension>
        </extensions>
      </trkpt>
      <trkpt lat="42.57063117809593677520751953125" lon="20.03404819406569004058837890625">
        <ele>1974.199951171875</ele>
        <time>2026-06-15T13:08:22.000Z</time>
        <extensions>
          <ns3:TrackPointExtension>
            <ns3:atemp>22.0</ns3:atemp>
          </ns3:TrackPointExtension>
        </extensions>
      </trkpt>
      <trkpt lat="42.57063117809593677520751953125" lon="20.03404819406569004058837890625">
        <ele>1974.4000244140625</ele>
        <time>2026-06-15T13:08:23.000Z</time>
        <extensions>
          <ns3:TrackPointExtension>
            <ns3:atemp>22.0</ns3:atemp>
          </ns3:TrackPointExtension>
        </extensions>
      </trkpt>
      <trkpt lat="42.57063117809593677520751953125" lon="20.03404819406569004058837890625">
        <ele>1974.5999755859375</ele>
        <time>2026-06-15T13:08:24.000Z</time>
        <extensions>
          <ns3:TrackPointExtension>
            <ns3:atemp>22.0</ns3:atemp>
          </ns3:TrackPointExtension>
        </extensions>
      </trkpt>
      <trkpt lat="42.57063117809593677520751953125" lon="20.03404819406569004058837890625">
        <ele>1974.5999755859375</ele>
        <time>2026-06-15T13:08:25.000Z</time>
        <extensions>
          <ns3:TrackPointExtension>
            <ns3:atemp>22.0</ns3:atemp>
          </ns3:TrackPointExtension>
        </extensions>
      </trkpt>
      <trkpt lat="42.57063117809593677520751953125" lon="20.03404819406569004058837890625">
        <ele>1974.5999755859375</ele>
        <time>2026-06-15T13:08:26.000Z</time>
        <extensions>
          <ns3:TrackPointExtension>
            <ns3:atemp>22.0</ns3:atemp>
          </ns3:TrackPointExtension>
        </extensions>
      </trkpt>
      <trkpt lat="42.57063117809593677520751953125" lon="20.03404819406569004058837890625">
        <ele>1974.4000244140625</ele>
        <time>2026-06-15T13:08:27.000Z</time>
        <extensions>
          <ns3:TrackPointExtension>
            <ns3:atemp>22.0</ns3:atemp>
          </ns3:TrackPointExtension>
        </extensions>
      </trkpt>
      <trkpt lat="42.57063117809593677520751953125" lon="20.03404819406569004058837890625">
        <ele>1974.4000244140625</ele>
        <time>2026-06-15T13:08:28.000Z</time>
        <extensions>
          <ns3:TrackPointExtension>
            <ns3:atemp>22.0</ns3:atemp>
          </ns3:TrackPointExtension>
        </extensions>
      </trkpt>
      <trkpt lat="42.57063117809593677520751953125" lon="20.03404819406569004058837890625">
        <ele>1974.5999755859375</ele>
        <time>2026-06-15T13:08:29.000Z</time>
        <extensions>
          <ns3:TrackPointExtension>
            <ns3:atemp>22.0</ns3:atemp>
          </ns3:TrackPointExtension>
        </extensions>
      </trkpt>
      <trkpt lat="42.57063117809593677520751953125" lon="20.03404819406569004058837890625">
        <ele>1974.800048828125</ele>
        <time>2026-06-15T13:08:30.000Z</time>
        <extensions>
          <ns3:TrackPointExtension>
            <ns3:atemp>22.0</ns3:atemp>
          </ns3:TrackPointExtension>
        </extensions>
      </trkpt>
      <trkpt lat="42.57063117809593677520751953125" lon="20.03404819406569004058837890625">
        <ele>1975.199951171875</ele>
        <time>2026-06-15T13:08:31.000Z</time>
        <extensions>
          <ns3:TrackPointExtension>
            <ns3:atemp>22.0</ns3:atemp>
          </ns3:TrackPointExtension>
        </extensions>
      </trkpt>
      <trkpt lat="42.57063117809593677520751953125" lon="20.03404819406569004058837890625">
        <ele>1975.5999755859375</ele>
        <time>2026-06-15T13:08:32.000Z</time>
        <extensions>
          <ns3:TrackPointExtension>
            <ns3:atemp>22.0</ns3:atemp>
          </ns3:TrackPointExtension>
        </extensions>
      </trkpt>
      <trkpt lat="42.57063117809593677520751953125" lon="20.03404819406569004058837890625">
        <ele>1976</ele>
        <time>2026-06-15T13:08:33.000Z</time>
        <extensions>
          <ns3:TrackPointExtension>
            <ns3:atemp>22.0</ns3:atemp>
          </ns3:TrackPointExtension>
        </extensions>
      </trkpt>
      <trkpt lat="42.57063117809593677520751953125" lon="20.03404819406569004058837890625">
        <ele>1976.4000244140625</ele>
        <time>2026-06-15T13:08:34.000Z</time>
        <extensions>
          <ns3:TrackPointExtension>
            <ns3:atemp>22.0</ns3:atemp>
          </ns3:TrackPointExtension>
        </extensions>
      </trkpt>
      <trkpt lat="42.57063017226755619049072265625" lon="20.0340459309518337249755859375">
        <ele>1976.800048828125</ele>
        <time>2026-06-15T13:08:35.000Z</time>
        <extensions>
          <ns3:TrackPointExtension>
            <ns3:atemp>22.0</ns3:atemp>
          </ns3:TrackPointExtension>
        </extensions>
      </trkpt>
      <trkpt lat="42.57063134573400020599365234375" lon="20.03404676914215087890625">
        <ele>1977</ele>
        <time>2026-06-15T13:08:36.000Z</time>
        <extensions>
          <ns3:TrackPointExtension>
            <ns3:atemp>22.0</ns3:atemp>
          </ns3:TrackPointExtension>
        </extensions>
      </trkpt>
      <trkpt lat="42.5706253945827484130859375" lon="20.03404182381927967071533203125">
        <ele>1977</ele>
        <time>2026-06-15T13:08:37.000Z</time>
        <extensions>
          <ns3:TrackPointExtension>
            <ns3:atemp>22.0</ns3:atemp>
          </ns3:TrackPointExtension>
        </extensions>
      </trkpt>
      <trkpt lat="42.57063117809593677520751953125" lon="20.03404819406569004058837890625">
        <ele>1977</ele>
        <time>2026-06-15T13:08:38.000Z</time>
        <extensions>
          <ns3:TrackPointExtension>
            <ns3:atemp>22.0</ns3:atemp>
          </ns3:TrackPointExtension>
        </extensions>
      </trkpt>
      <trkpt lat="42.57063117809593677520751953125" lon="20.03404819406569004058837890625">
        <ele>1976.800048828125</ele>
        <time>2026-06-15T13:08:39.000Z</time>
        <extensions>
          <ns3:TrackPointExtension>
            <ns3:atemp>22.0</ns3:atemp>
          </ns3:TrackPointExtension>
        </extensions>
      </trkpt>
      <trkpt lat="42.57063117809593677520751953125" lon="20.03404819406569004058837890625">
        <ele>1976.4000244140625</ele>
        <time>2026-06-15T13:08:40.000Z</time>
        <extensions>
          <ns3:TrackPointExtension>
            <ns3:atemp>22.0</ns3:atemp>
          </ns3:TrackPointExtension>
        </extensions>
      </trkpt>
      <trkpt lat="42.57063117809593677520751953125" lon="20.03404819406569004058837890625">
        <ele>1975.800048828125</ele>
        <time>2026-06-15T13:08:41.000Z</time>
        <extensions>
          <ns3:TrackPointExtension>
            <ns3:atemp>22.0</ns3:atemp>
          </ns3:TrackPointExtension>
        </extensions>
      </trkpt>
      <trkpt lat="42.57063117809593677520751953125" lon="20.03404819406569004058837890625">
        <ele>1975.5999755859375</ele>
        <time>2026-06-15T13:08:42.000Z</time>
        <extensions>
          <ns3:TrackPointExtension>
            <ns3:atemp>22.0</ns3:atemp>
          </ns3:TrackPointExtension>
        </extensions>
      </trkpt>
      <trkpt lat="42.57063117809593677520751953125" lon="20.03404819406569004058837890625">
        <ele>1975.4000244140625</ele>
        <time>2026-06-15T13:08:43.000Z</time>
        <extensions>
          <ns3:TrackPointExtension>
            <ns3:atemp>22.0</ns3:atemp>
          </ns3:TrackPointExtension>
        </extensions>
      </trkpt>
      <trkpt lat="42.57063117809593677520751953125" lon="20.03404819406569004058837890625">
        <ele>1975.199951171875</ele>
        <time>2026-06-15T13:08:44.000Z</time>
        <extensions>
          <ns3:TrackPointExtension>
            <ns3:atemp>22.0</ns3:atemp>
          </ns3:TrackPointExtension>
        </extensions>
      </trkpt>
      <trkpt lat="42.57063117809593677520751953125" lon="20.03404819406569004058837890625">
        <ele>1974.800048828125</ele>
        <time>2026-06-15T13:08:45.000Z</time>
        <extensions>
          <ns3:TrackPointExtension>
            <ns3:atemp>22.0</ns3:atemp>
          </ns3:TrackPointExtension>
        </extensions>
      </trkpt>
      <trkpt lat="42.57063117809593677520751953125" lon="20.03404819406569004058837890625">
        <ele>1974.800048828125</ele>
        <time>2026-06-15T13:08:46.000Z</time>
        <extensions>
          <ns3:TrackPointExtension>
            <ns3:atemp>22.0</ns3:atemp>
          </ns3:TrackPointExtension>
        </extensions>
      </trkpt>
      <trkpt lat="42.57063117809593677520751953125" lon="20.03404819406569004058837890625">
        <ele>1974.5999755859375</ele>
        <time>2026-06-15T13:08:47.000Z</time>
        <extensions>
          <ns3:TrackPointExtension>
            <ns3:atemp>22.0</ns3:atemp>
          </ns3:TrackPointExtension>
        </extensions>
      </trkpt>
      <trkpt lat="42.57063117809593677520751953125" lon="20.03404819406569004058837890625">
        <ele>1974.4000244140625</ele>
        <time>2026-06-15T13:08:48.000Z</time>
        <extensions>
          <ns3:TrackPointExtension>
            <ns3:atemp>22.0</ns3:atemp>
          </ns3:TrackPointExtension>
        </extensions>
      </trkpt>
      <trkpt lat="42.57063117809593677520751953125" lon="20.03404819406569004058837890625">
        <ele>1974</ele>
        <time>2026-06-15T13:08:49.000Z</time>
        <extensions>
          <ns3:TrackPointExtension>
            <ns3:atemp>22.0</ns3:atemp>
          </ns3:TrackPointExtension>
        </extensions>
      </trkpt>
      <trkpt lat="42.57063117809593677520751953125" lon="20.03404819406569004058837890625">
        <ele>1974</ele>
        <time>2026-06-15T13:08:50.000Z</time>
        <extensions>
          <ns3:TrackPointExtension>
            <ns3:atemp>22.0</ns3:atemp>
          </ns3:TrackPointExtension>
        </extensions>
      </trkpt>
      <trkpt lat="42.57063117809593677520751953125" lon="20.03404819406569004058837890625">
        <ele>1973.800048828125</ele>
        <time>2026-06-15T13:08:51.000Z</time>
        <extensions>
          <ns3:TrackPointExtension>
            <ns3:atemp>22.0</ns3:atemp>
          </ns3:TrackPointExtension>
        </extensions>
      </trkpt>
      <trkpt lat="42.57063117809593677520751953125" lon="20.03404819406569004058837890625">
        <ele>1973.800048828125</ele>
        <time>2026-06-15T13:08:52.000Z</time>
        <extensions>
          <ns3:TrackPointExtension>
            <ns3:atemp>22.0</ns3:atemp>
          </ns3:TrackPointExtension>
        </extensions>
      </trkpt>
      <trkpt lat="42.57063117809593677520751953125" lon="20.03404819406569004058837890625">
        <ele>1974.4000244140625</ele>
        <time>2026-06-15T13:08:53.000Z</time>
        <extensions>
          <ns3:TrackPointExtension>
            <ns3:atemp>22.0</ns3:atemp>
          </ns3:TrackPointExtension>
        </extensions>
      </trkpt>
      <trkpt lat="42.57063117809593677520751953125" lon="20.03404819406569004058837890625">
        <ele>1975.199951171875</ele>
        <time>2026-06-15T13:08:54.000Z</time>
        <extensions>
          <ns3:TrackPointExtension>
            <ns3:atemp>22.0</ns3:atemp>
          </ns3:TrackPointExtension>
        </extensions>
      </trkpt>
      <trkpt lat="42.57063117809593677520751953125" lon="20.03404819406569004058837890625">
        <ele>1975.800048828125</ele>
        <time>2026-06-15T13:08:55.000Z</time>
        <extensions>
          <ns3:TrackPointExtension>
            <ns3:atemp>22.0</ns3:atemp>
          </ns3:TrackPointExtension>
        </extensions>
      </trkpt>
      <trkpt lat="42.57063117809593677520751953125" lon="20.03404819406569004058837890625">
        <ele>1975.800048828125</ele>
        <time>2026-06-15T13:08:56.000Z</time>
        <extensions>
          <ns3:TrackPointExtension>
            <ns3:atemp>22.0</ns3:atemp>
          </ns3:TrackPointExtension>
        </extensions>
      </trkpt>
      <trkpt lat="42.57063117809593677520751953125" lon="20.03404819406569004058837890625">
        <ele>1975.5999755859375</ele>
        <time>2026-06-15T13:08:57.000Z</time>
        <extensions>
          <ns3:TrackPointExtension>
            <ns3:atemp>22.0</ns3:atemp>
          </ns3:TrackPointExtension>
        </extensions>
      </trkpt>
      <trkpt lat="42.57063117809593677520751953125" lon="20.03404819406569004058837890625">
        <ele>1975.800048828125</ele>
        <time>2026-06-15T13:08:58.000Z</time>
        <extensions>
          <ns3:TrackPointExtension>
            <ns3:atemp>22.0</ns3:atemp>
          </ns3:TrackPointExtension>
        </extensions>
      </trkpt>
      <trkpt lat="42.57063117809593677520751953125" lon="20.03404819406569004058837890625">
        <ele>1975.800048828125</ele>
        <time>2026-06-15T13:08:59.000Z</time>
        <extensions>
          <ns3:TrackPointExtension>
            <ns3:atemp>22.0</ns3:atemp>
          </ns3:TrackPointExtension>
        </extensions>
      </trkpt>
      <trkpt lat="42.57063117809593677520751953125" lon="20.03404819406569004058837890625">
        <ele>1975.800048828125</ele>
        <time>2026-06-15T13:09:00.000Z</time>
        <extensions>
          <ns3:TrackPointExtension>
            <ns3:atemp>22.0</ns3:atemp>
          </ns3:TrackPointExtension>
        </extensions>
      </trkpt>
      <trkpt lat="42.57063117809593677520751953125" lon="20.03404819406569004058837890625">
        <ele>1975.800048828125</ele>
        <time>2026-06-15T13:09:01.000Z</time>
        <extensions>
          <ns3:TrackPointExtension>
            <ns3:atemp>22.0</ns3:atemp>
          </ns3:TrackPointExtension>
        </extensions>
      </trkpt>
      <trkpt lat="42.57063117809593677520751953125" lon="20.03404819406569004058837890625">
        <ele>1975.5999755859375</ele>
        <time>2026-06-15T13:09:02.000Z</time>
        <extensions>
          <ns3:TrackPointExtension>
            <ns3:atemp>22.0</ns3:atemp>
          </ns3:TrackPointExtension>
        </extensions>
      </trkpt>
      <trkpt lat="42.57063117809593677520751953125" lon="20.03404819406569004058837890625">
        <ele>1975.199951171875</ele>
        <time>2026-06-15T13:09:03.000Z</time>
        <extensions>
          <ns3:TrackPointExtension>
            <ns3:atemp>22.0</ns3:atemp>
          </ns3:TrackPointExtension>
        </extensions>
      </trkpt>
      <trkpt lat="42.57063117809593677520751953125" lon="20.03404819406569004058837890625">
        <ele>1975</ele>
        <time>2026-06-15T13:09:04.000Z</time>
        <extensions>
          <ns3:TrackPointExtension>
            <ns3:atemp>22.0</ns3:atemp>
          </ns3:TrackPointExtension>
        </extensions>
      </trkpt>
      <trkpt lat="42.57063117809593677520751953125" lon="20.03404819406569004058837890625">
        <ele>1974.800048828125</ele>
        <time>2026-06-15T13:09:05.000Z</time>
        <extensions>
          <ns3:TrackPointExtension>
            <ns3:atemp>22.0</ns3:atemp>
          </ns3:TrackPointExtension>
        </extensions>
      </trkpt>
      <trkpt lat="42.57063117809593677520751953125" lon="20.03404819406569004058837890625">
        <ele>1974.5999755859375</ele>
        <time>2026-06-15T13:09:06.000Z</time>
        <extensions>
          <ns3:TrackPointExtension>
            <ns3:atemp>22.0</ns3:atemp>
          </ns3:TrackPointExtension>
        </extensions>
      </trkpt>
      <trkpt lat="42.57063117809593677520751953125" lon="20.03404819406569004058837890625">
        <ele>1974.5999755859375</ele>
        <time>2026-06-15T13:09:07.000Z</time>
        <extensions>
          <ns3:TrackPointExtension>
            <ns3:atemp>22.0</ns3:atemp>
          </ns3:TrackPointExtension>
        </extensions>
      </trkpt>
      <trkpt lat="42.57063117809593677520751953125" lon="20.03404819406569004058837890625">
        <ele>1974.199951171875</ele>
        <time>2026-06-15T13:09:08.000Z</time>
        <extensions>
          <ns3:TrackPointExtension>
            <ns3:atemp>22.0</ns3:atemp>
          </ns3:TrackPointExtension>
        </extensions>
      </trkpt>
      <trkpt lat="42.57063117809593677520751953125" lon="20.03404819406569004058837890625">
        <ele>1974</ele>
        <time>2026-06-15T13:09:09.000Z</time>
        <extensions>
          <ns3:TrackPointExtension>
            <ns3:atemp>22.0</ns3:atemp>
          </ns3:TrackPointExtension>
        </extensions>
      </trkpt>
      <trkpt lat="42.57063117809593677520751953125" lon="20.03404819406569004058837890625">
        <ele>1974</ele>
        <time>2026-06-15T13:09:10.000Z</time>
        <extensions>
          <ns3:TrackPointExtension>
            <ns3:atemp>22.0</ns3:atemp>
          </ns3:TrackPointExtension>
        </extensions>
      </trkpt>
      <trkpt lat="42.57063117809593677520751953125" lon="20.03404819406569004058837890625">
        <ele>1974</ele>
        <time>2026-06-15T13:09:11.000Z</time>
        <extensions>
          <ns3:TrackPointExtension>
            <ns3:atemp>22.0</ns3:atemp>
          </ns3:TrackPointExtension>
        </extensions>
      </trkpt>
      <trkpt lat="42.57063117809593677520751953125" lon="20.03404819406569004058837890625">
        <ele>1973.800048828125</ele>
        <time>2026-06-15T13:09:12.000Z</time>
        <extensions>
          <ns3:TrackPointExtension>
            <ns3:atemp>22.0</ns3:atemp>
          </ns3:TrackPointExtension>
        </extensions>
      </trkpt>
      <trkpt lat="42.57063117809593677520751953125" lon="20.03404819406569004058837890625">
        <ele>1973.800048828125</ele>
        <time>2026-06-15T13:09:13.000Z</time>
        <extensions>
          <ns3:TrackPointExtension>
            <ns3:atemp>22.0</ns3:atemp>
          </ns3:TrackPointExtension>
        </extensions>
      </trkpt>
      <trkpt lat="42.57063117809593677520751953125" lon="20.03404819406569004058837890625">
        <ele>1974.199951171875</ele>
        <time>2026-06-15T13:09:14.000Z</time>
        <extensions>
          <ns3:TrackPointExtension>
            <ns3:atemp>22.0</ns3:atemp>
          </ns3:TrackPointExtension>
        </extensions>
      </trkpt>
      <trkpt lat="42.57063117809593677520751953125" lon="20.03404819406569004058837890625">
        <ele>1974.5999755859375</ele>
        <time>2026-06-15T13:09:15.000Z</time>
        <extensions>
          <ns3:TrackPointExtension>
            <ns3:atemp>22.0</ns3:atemp>
          </ns3:TrackPointExtension>
        </extensions>
      </trkpt>
      <trkpt lat="42.57063117809593677520751953125" lon="20.03404819406569004058837890625">
        <ele>1975</ele>
        <time>2026-06-15T13:09:16.000Z</time>
        <extensions>
          <ns3:TrackPointExtension>
            <ns3:atemp>22.0</ns3:atemp>
          </ns3:TrackPointExtension>
        </extensions>
      </trkpt>
      <trkpt lat="42.57062229327857494354248046875" lon="20.034035034477710723876953125">
        <ele>1975.5999755859375</ele>
        <time>2026-06-15T13:09:17.000Z</time>
        <extensions>
          <ns3:TrackPointExtension>
            <ns3:atemp>22.0</ns3:atemp>
          </ns3:TrackPointExtension>
        </extensions>
      </trkpt>
      <trkpt lat="42.57063117809593677520751953125" lon="20.03404819406569004058837890625">
        <ele>1976</ele>
        <time>2026-06-15T13:09:18.000Z</time>
        <extensions>
          <ns3:TrackPointExtension>
            <ns3:atemp>22.0</ns3:atemp>
          </ns3:TrackPointExtension>
        </extensions>
      </trkpt>
      <trkpt lat="42.57063117809593677520751953125" lon="20.03404819406569004058837890625">
        <ele>1976.4000244140625</ele>
        <time>2026-06-15T13:09:19.000Z</time>
        <extensions>
          <ns3:TrackPointExtension>
            <ns3:atemp>22.0</ns3:atemp>
          </ns3:TrackPointExtension>
        </extensions>
      </trkpt>
      <trkpt lat="42.57063117809593677520751953125" lon="20.03404819406569004058837890625">
        <ele>1976.800048828125</ele>
        <time>2026-06-15T13:09:20.000Z</time>
        <extensions>
          <ns3:TrackPointExtension>
            <ns3:atemp>22.0</ns3:atemp>
          </ns3:TrackPointExtension>
        </extensions>
      </trkpt>
      <trkpt lat="42.57063117809593677520751953125" lon="20.03404819406569004058837890625">
        <ele>1977.199951171875</ele>
        <time>2026-06-15T13:09:21.000Z</time>
        <extensions>
          <ns3:TrackPointExtension>
            <ns3:atemp>22.0</ns3:atemp>
          </ns3:TrackPointExtension>
        </extensions>
      </trkpt>
      <trkpt lat="42.57063117809593677520751953125" lon="20.03404819406569004058837890625">
        <ele>1977.199951171875</ele>
        <time>2026-06-15T13:09:22.000Z</time>
        <extensions>
          <ns3:TrackPointExtension>
            <ns3:atemp>22.0</ns3:atemp>
          </ns3:TrackPointExtension>
        </extensions>
      </trkpt>
      <trkpt lat="42.57062380202114582061767578125" lon="20.0340328551828861236572265625">
        <ele>1977.199951171875</ele>
        <time>2026-06-15T13:09:23.000Z</time>
        <extensions>
          <ns3:TrackPointExtension>
            <ns3:atemp>22.0</ns3:atemp>
          </ns3:TrackPointExtension>
        </extensions>
      </trkpt>
      <trkpt lat="42.5706238858401775360107421875" lon="20.03403277136385440826416015625">
        <ele>1977</ele>
        <time>2026-06-15T13:09:24.000Z</time>
        <extensions>
          <ns3:TrackPointExtension>
            <ns3:atemp>22.0</ns3:atemp>
          </ns3:TrackPointExtension>
        </extensions>
      </trkpt>
      <trkpt lat="42.5706238858401775360107421875" lon="20.03403277136385440826416015625">
        <ele>1976.800048828125</ele>
        <time>2026-06-15T13:09:25.000Z</time>
        <extensions>
          <ns3:TrackPointExtension>
            <ns3:atemp>22.0</ns3:atemp>
          </ns3:TrackPointExtension>
        </extensions>
      </trkpt>
      <trkpt lat="42.5706238858401775360107421875" lon="20.03403277136385440826416015625">
        <ele>1976.5999755859375</ele>
        <time>2026-06-15T13:09:26.000Z</time>
        <extensions>
          <ns3:TrackPointExtension>
            <ns3:atemp>22.0</ns3:atemp>
          </ns3:TrackPointExtension>
        </extensions>
      </trkpt>
      <trkpt lat="42.5706238858401775360107421875" lon="20.03403277136385440826416015625">
        <ele>1976.199951171875</ele>
        <time>2026-06-15T13:09:27.000Z</time>
        <extensions>
          <ns3:TrackPointExtension>
            <ns3:atemp>22.0</ns3:atemp>
          </ns3:TrackPointExtension>
        </extensions>
      </trkpt>
      <trkpt lat="42.5706238858401775360107421875" lon="20.03403277136385440826416015625">
        <ele>1976</ele>
        <time>2026-06-15T13:09:28.000Z</time>
        <extensions>
          <ns3:TrackPointExtension>
            <ns3:atemp>22.0</ns3:atemp>
          </ns3:TrackPointExtension>
        </extensions>
      </trkpt>
      <trkpt lat="42.5706238858401775360107421875" lon="20.03403277136385440826416015625">
        <ele>1975.800048828125</ele>
        <time>2026-06-15T13:09:29.000Z</time>
        <extensions>
          <ns3:TrackPointExtension>
            <ns3:atemp>22.0</ns3:atemp>
          </ns3:TrackPointExtension>
        </extensions>
      </trkpt>
      <trkpt lat="42.5706238858401775360107421875" lon="20.03403277136385440826416015625">
        <ele>1975.800048828125</ele>
        <time>2026-06-15T13:09:30.000Z</time>
        <extensions>
          <ns3:TrackPointExtension>
            <ns3:atemp>22.0</ns3:atemp>
          </ns3:TrackPointExtension>
        </extensions>
      </trkpt>
      <trkpt lat="42.5706238858401775360107421875" lon="20.03403277136385440826416015625">
        <ele>1975.800048828125</ele>
        <time>2026-06-15T13:09:31.000Z</time>
        <extensions>
          <ns3:TrackPointExtension>
            <ns3:atemp>22.0</ns3:atemp>
          </ns3:TrackPointExtension>
        </extensions>
      </trkpt>
      <trkpt lat="42.5706238858401775360107421875" lon="20.03403277136385440826416015625">
        <ele>1975.800048828125</ele>
        <time>2026-06-15T13:09:32.000Z</time>
        <extensions>
          <ns3:TrackPointExtension>
            <ns3:atemp>22.0</ns3:atemp>
          </ns3:TrackPointExtension>
        </extensions>
      </trkpt>
      <trkpt lat="42.5706238858401775360107421875" lon="20.03403277136385440826416015625">
        <ele>1975.800048828125</ele>
        <time>2026-06-15T13:09:33.000Z</time>
        <extensions>
          <ns3:TrackPointExtension>
            <ns3:atemp>22.0</ns3:atemp>
          </ns3:TrackPointExtension>
        </extensions>
      </trkpt>
      <trkpt lat="42.5706238858401775360107421875" lon="20.03403277136385440826416015625">
        <ele>1975.800048828125</ele>
        <time>2026-06-15T13:09:34.000Z</time>
        <extensions>
          <ns3:TrackPointExtension>
            <ns3:atemp>22.0</ns3:atemp>
          </ns3:TrackPointExtension>
        </extensions>
      </trkpt>
      <trkpt lat="42.5706238858401775360107421875" lon="20.03403277136385440826416015625">
        <ele>1975.800048828125</ele>
        <time>2026-06-15T13:09:35.000Z</time>
        <extensions>
          <ns3:TrackPointExtension>
            <ns3:atemp>22.0</ns3:atemp>
          </ns3:TrackPointExtension>
        </extensions>
      </trkpt>
      <trkpt lat="42.5706238858401775360107421875" lon="20.03403277136385440826416015625">
        <ele>1975.800048828125</ele>
        <time>2026-06-15T13:09:36.000Z</time>
        <extensions>
          <ns3:TrackPointExtension>
            <ns3:atemp>22.0</ns3:atemp>
          </ns3:TrackPointExtension>
        </extensions>
      </trkpt>
      <trkpt lat="42.5706238858401775360107421875" lon="20.03403277136385440826416015625">
        <ele>1975.800048828125</ele>
        <time>2026-06-15T13:09:37.000Z</time>
        <extensions>
          <ns3:TrackPointExtension>
            <ns3:atemp>22.0</ns3:atemp>
          </ns3:TrackPointExtension>
        </extensions>
      </trkpt>
      <trkpt lat="42.5706238858401775360107421875" lon="20.03403277136385440826416015625">
        <ele>1975.800048828125</ele>
        <time>2026-06-15T13:09:38.000Z</time>
        <extensions>
          <ns3:TrackPointExtension>
            <ns3:atemp>22.0</ns3:atemp>
          </ns3:TrackPointExtension>
        </extensions>
      </trkpt>
      <trkpt lat="42.5706238858401775360107421875" lon="20.03403277136385440826416015625">
        <ele>1975.800048828125</ele>
        <time>2026-06-15T13:09:39.000Z</time>
        <extensions>
          <ns3:TrackPointExtension>
            <ns3:atemp>22.0</ns3:atemp>
          </ns3:TrackPointExtension>
        </extensions>
      </trkpt>
      <trkpt lat="42.5706238858401775360107421875" lon="20.03403277136385440826416015625">
        <ele>1975.800048828125</ele>
        <time>2026-06-15T13:09:40.000Z</time>
        <extensions>
          <ns3:TrackPointExtension>
            <ns3:atemp>22.0</ns3:atemp>
          </ns3:TrackPointExtension>
        </extensions>
      </trkpt>
      <trkpt lat="42.5706238858401775360107421875" lon="20.03403277136385440826416015625">
        <ele>1975.5999755859375</ele>
        <time>2026-06-15T13:09:41.000Z</time>
        <extensions>
          <ns3:TrackPointExtension>
            <ns3:atemp>22.0</ns3:atemp>
          </ns3:TrackPointExtension>
        </extensions>
      </trkpt>
      <trkpt lat="42.5706238858401775360107421875" lon="20.03403277136385440826416015625">
        <ele>1975.5999755859375</ele>
        <time>2026-06-15T13:09:42.000Z</time>
        <extensions>
          <ns3:TrackPointExtension>
            <ns3:atemp>22.0</ns3:atemp>
          </ns3:TrackPointExtension>
        </extensions>
      </trkpt>
      <trkpt lat="42.5706238858401775360107421875" lon="20.03403277136385440826416015625">
        <ele>1975.5999755859375</ele>
        <time>2026-06-15T13:09:43.000Z</time>
        <extensions>
          <ns3:TrackPointExtension>
            <ns3:atemp>22.0</ns3:atemp>
          </ns3:TrackPointExtension>
        </extensions>
      </trkpt>
      <trkpt lat="42.5706238858401775360107421875" lon="20.03403277136385440826416015625">
        <ele>1975.5999755859375</ele>
        <time>2026-06-15T13:09:44.000Z</time>
        <extensions>
          <ns3:TrackPointExtension>
            <ns3:atemp>22.0</ns3:atemp>
          </ns3:TrackPointExtension>
        </extensions>
      </trkpt>
      <trkpt lat="42.5706238858401775360107421875" lon="20.03403277136385440826416015625">
        <ele>1975.5999755859375</ele>
        <time>2026-06-15T13:09:45.000Z</time>
        <extensions>
          <ns3:TrackPointExtension>
            <ns3:atemp>22.0</ns3:atemp>
          </ns3:TrackPointExtension>
        </extensions>
      </trkpt>
      <trkpt lat="42.5706238858401775360107421875" lon="20.03403277136385440826416015625">
        <ele>1975.5999755859375</ele>
        <time>2026-06-15T13:09:46.000Z</time>
        <extensions>
          <ns3:TrackPointExtension>
            <ns3:atemp>22.0</ns3:atemp>
          </ns3:TrackPointExtension>
        </extensions>
      </trkpt>
      <trkpt lat="42.5706238858401775360107421875" lon="20.03403277136385440826416015625">
        <ele>1975.5999755859375</ele>
        <time>2026-06-15T13:09:47.000Z</time>
        <extensions>
          <ns3:TrackPointExtension>
            <ns3:atemp>22.0</ns3:atemp>
          </ns3:TrackPointExtension>
        </extensions>
      </trkpt>
      <trkpt lat="42.5706238858401775360107421875" lon="20.03403277136385440826416015625">
        <ele>1975.800048828125</ele>
        <time>2026-06-15T13:09:48.000Z</time>
        <extensions>
          <ns3:TrackPointExtension>
            <ns3:atemp>22.0</ns3:atemp>
          </ns3:TrackPointExtension>
        </extensions>
      </trkpt>
      <trkpt lat="42.5706238858401775360107421875" lon="20.03403277136385440826416015625">
        <ele>1975.800048828125</ele>
        <time>2026-06-15T13:09:49.000Z</time>
        <extensions>
          <ns3:TrackPointExtension>
            <ns3:atemp>22.0</ns3:atemp>
          </ns3:TrackPointExtension>
        </extensions>
      </trkpt>
      <trkpt lat="42.5706238858401775360107421875" lon="20.03403277136385440826416015625">
        <ele>1975.800048828125</ele>
        <time>2026-06-15T13:09:50.000Z</time>
        <extensions>
          <ns3:TrackPointExtension>
            <ns3:atemp>22.0</ns3:atemp>
          </ns3:TrackPointExtension>
        </extensions>
      </trkpt>
      <trkpt lat="42.5706238858401775360107421875" lon="20.03403277136385440826416015625">
        <ele>1975.800048828125</ele>
        <time>2026-06-15T13:09:51.000Z</time>
        <extensions>
          <ns3:TrackPointExtension>
            <ns3:atemp>22.0</ns3:atemp>
          </ns3:TrackPointExtension>
        </extensions>
      </trkpt>
      <trkpt lat="42.5706238858401775360107421875" lon="20.03403277136385440826416015625">
        <ele>1976</ele>
        <time>2026-06-15T13:09:52.000Z</time>
        <extensions>
          <ns3:TrackPointExtension>
            <ns3:atemp>22.0</ns3:atemp>
          </ns3:TrackPointExtension>
        </extensions>
      </trkpt>
      <trkpt lat="42.5706238858401775360107421875" lon="20.03403277136385440826416015625">
        <ele>1976</ele>
        <time>2026-06-15T13:09:53.000Z</time>
        <extensions>
          <ns3:TrackPointExtension>
            <ns3:atemp>22.0</ns3:atemp>
          </ns3:TrackPointExtension>
        </extensions>
      </trkpt>
      <trkpt lat="42.5706238858401775360107421875" lon="20.03403277136385440826416015625">
        <ele>1976</ele>
        <time>2026-06-15T13:09:54.000Z</time>
        <extensions>
          <ns3:TrackPointExtension>
            <ns3:atemp>22.0</ns3:atemp>
          </ns3:TrackPointExtension>
        </extensions>
      </trkpt>
      <trkpt lat="42.5706238858401775360107421875" lon="20.03403277136385440826416015625">
        <ele>1976</ele>
        <time>2026-06-15T13:09:55.000Z</time>
        <extensions>
          <ns3:TrackPointExtension>
            <ns3:atemp>22.0</ns3:atemp>
          </ns3:TrackPointExtension>
        </extensions>
      </trkpt>
      <trkpt lat="42.5706238858401775360107421875" lon="20.03403277136385440826416015625">
        <ele>1976</ele>
        <time>2026-06-15T13:09:56.000Z</time>
        <extensions>
          <ns3:TrackPointExtension>
            <ns3:atemp>22.0</ns3:atemp>
          </ns3:TrackPointExtension>
        </extensions>
      </trkpt>
      <trkpt lat="42.5706238858401775360107421875" lon="20.03403277136385440826416015625">
        <ele>1976.199951171875</ele>
        <time>2026-06-15T13:09:57.000Z</time>
        <extensions>
          <ns3:TrackPointExtension>
            <ns3:atemp>22.0</ns3:atemp>
          </ns3:TrackPointExtension>
        </extensions>
      </trkpt>
      <trkpt lat="42.5706238858401775360107421875" lon="20.03403277136385440826416015625">
        <ele>1976.199951171875</ele>
        <time>2026-06-15T13:09:58.000Z</time>
        <extensions>
          <ns3:TrackPointExtension>
            <ns3:atemp>22.0</ns3:atemp>
          </ns3:TrackPointExtension>
        </extensions>
      </trkpt>
      <trkpt lat="42.5706238858401775360107421875" lon="20.03403277136385440826416015625">
        <ele>1976.199951171875</ele>
        <time>2026-06-15T13:09:59.000Z</time>
        <extensions>
          <ns3:TrackPointExtension>
            <ns3:atemp>22.0</ns3:atemp>
          </ns3:TrackPointExtension>
        </extensions>
      </trkpt>
      <trkpt lat="42.5706238858401775360107421875" lon="20.03403277136385440826416015625">
        <ele>1976.199951171875</ele>
        <time>2026-06-15T13:10:00.000Z</time>
        <extensions>
          <ns3:TrackPointExtension>
            <ns3:atemp>22.0</ns3:atemp>
          </ns3:TrackPointExtension>
        </extensions>
      </trkpt>
      <trkpt lat="42.5706238858401775360107421875" lon="20.03403277136385440826416015625">
        <ele>1976.199951171875</ele>
        <time>2026-06-15T13:10:01.000Z</time>
        <extensions>
          <ns3:TrackPointExtension>
            <ns3:atemp>22.0</ns3:atemp>
          </ns3:TrackPointExtension>
        </extensions>
      </trkpt>
      <trkpt lat="42.5706238858401775360107421875" lon="20.03403277136385440826416015625">
        <ele>1976.199951171875</ele>
        <time>2026-06-15T13:10:02.000Z</time>
        <extensions>
          <ns3:TrackPointExtension>
            <ns3:atemp>22.0</ns3:atemp>
          </ns3:TrackPointExtension>
        </extensions>
      </trkpt>
      <trkpt lat="42.5706238858401775360107421875" lon="20.03403277136385440826416015625">
        <ele>1976.199951171875</ele>
        <time>2026-06-15T13:10:03.000Z</time>
        <extensions>
          <ns3:TrackPointExtension>
            <ns3:atemp>22.0</ns3:atemp>
          </ns3:TrackPointExtension>
        </extensions>
      </trkpt>
      <trkpt lat="42.5706238858401775360107421875" lon="20.03403277136385440826416015625">
        <ele>1976.199951171875</ele>
        <time>2026-06-15T13:10:04.000Z</time>
        <extensions>
          <ns3:TrackPointExtension>
            <ns3:atemp>22.0</ns3:atemp>
          </ns3:TrackPointExtension>
        </extensions>
      </trkpt>
      <trkpt lat="42.5706238858401775360107421875" lon="20.03403277136385440826416015625">
        <ele>1976.199951171875</ele>
        <time>2026-06-15T13:10:05.000Z</time>
        <extensions>
          <ns3:TrackPointExtension>
            <ns3:atemp>22.0</ns3:atemp>
          </ns3:TrackPointExtension>
        </extensions>
      </trkpt>
      <trkpt lat="42.5706238858401775360107421875" lon="20.03403277136385440826416015625">
        <ele>1976.199951171875</ele>
        <time>2026-06-15T13:10:06.000Z</time>
        <extensions>
          <ns3:TrackPointExtension>
            <ns3:atemp>22.0</ns3:atemp>
          </ns3:TrackPointExtension>
        </extensions>
      </trkpt>
      <trkpt lat="42.5706238858401775360107421875" lon="20.03403277136385440826416015625">
        <ele>1976.199951171875</ele>
        <time>2026-06-15T13:10:07.000Z</time>
        <extensions>
          <ns3:TrackPointExtension>
            <ns3:atemp>22.0</ns3:atemp>
          </ns3:TrackPointExtension>
        </extensions>
      </trkpt>
      <trkpt lat="42.5706238858401775360107421875" lon="20.03403277136385440826416015625">
        <ele>1976.199951171875</ele>
        <time>2026-06-15T13:10:08.000Z</time>
        <extensions>
          <ns3:TrackPointExtension>
            <ns3:atemp>22.0</ns3:atemp>
          </ns3:TrackPointExtension>
        </extensions>
      </trkpt>
      <trkpt lat="42.5706238858401775360107421875" lon="20.03403277136385440826416015625">
        <ele>1976.199951171875</ele>
        <time>2026-06-15T13:10:09.000Z</time>
        <extensions>
          <ns3:TrackPointExtension>
            <ns3:atemp>22.0</ns3:atemp>
          </ns3:TrackPointExtension>
        </extensions>
      </trkpt>
      <trkpt lat="42.5706238858401775360107421875" lon="20.03403277136385440826416015625">
        <ele>1976.199951171875</ele>
        <time>2026-06-15T13:10:10.000Z</time>
        <extensions>
          <ns3:TrackPointExtension>
            <ns3:atemp>22.0</ns3:atemp>
          </ns3:TrackPointExtension>
        </extensions>
      </trkpt>
      <trkpt lat="42.5706238858401775360107421875" lon="20.03403277136385440826416015625">
        <ele>1976.199951171875</ele>
        <time>2026-06-15T13:10:11.000Z</time>
        <extensions>
          <ns3:TrackPointExtension>
            <ns3:atemp>22.0</ns3:atemp>
          </ns3:TrackPointExtension>
        </extensions>
      </trkpt>
      <trkpt lat="42.5706238858401775360107421875" lon="20.03403277136385440826416015625">
        <ele>1976.199951171875</ele>
        <time>2026-06-15T13:10:12.000Z</time>
        <extensions>
          <ns3:TrackPointExtension>
            <ns3:atemp>22.0</ns3:atemp>
          </ns3:TrackPointExtension>
        </extensions>
      </trkpt>
      <trkpt lat="42.5706238858401775360107421875" lon="20.03403277136385440826416015625">
        <ele>1976.199951171875</ele>
        <time>2026-06-15T13:10:13.000Z</time>
        <extensions>
          <ns3:TrackPointExtension>
            <ns3:atemp>22.0</ns3:atemp>
          </ns3:TrackPointExtension>
        </extensions>
      </trkpt>
      <trkpt lat="42.5706238858401775360107421875" lon="20.03403277136385440826416015625">
        <ele>1976.199951171875</ele>
        <time>2026-06-15T13:10:14.000Z</time>
        <extensions>
          <ns3:TrackPointExtension>
            <ns3:atemp>22.0</ns3:atemp>
          </ns3:TrackPointExtension>
        </extensions>
      </trkpt>
      <trkpt lat="42.5706238858401775360107421875" lon="20.03403277136385440826416015625">
        <ele>1976.199951171875</ele>
        <time>2026-06-15T13:10:15.000Z</time>
        <extensions>
          <ns3:TrackPointExtension>
            <ns3:atemp>22.0</ns3:atemp>
          </ns3:TrackPointExtension>
        </extensions>
      </trkpt>
      <trkpt lat="42.5706238858401775360107421875" lon="20.03403277136385440826416015625">
        <ele>1976.199951171875</ele>
        <time>2026-06-15T13:10:16.000Z</time>
        <extensions>
          <ns3:TrackPointExtension>
            <ns3:atemp>23.0</ns3:atemp>
          </ns3:TrackPointExtension>
        </extensions>
      </trkpt>
      <trkpt lat="42.5706238858401775360107421875" lon="20.03403277136385440826416015625">
        <ele>1976.199951171875</ele>
        <time>2026-06-15T13:10:17.000Z</time>
        <extensions>
          <ns3:TrackPointExtension>
            <ns3:atemp>22.0</ns3:atemp>
          </ns3:TrackPointExtension>
        </extensions>
      </trkpt>
      <trkpt lat="42.5706238858401775360107421875" lon="20.03403277136385440826416015625">
        <ele>1976.199951171875</ele>
        <time>2026-06-15T13:10:18.000Z</time>
        <extensions>
          <ns3:TrackPointExtension>
            <ns3:atemp>22.0</ns3:atemp>
          </ns3:TrackPointExtension>
        </extensions>
      </trkpt>
      <trkpt lat="42.5706238858401775360107421875" lon="20.03403277136385440826416015625">
        <ele>1976.199951171875</ele>
        <time>2026-06-15T13:10:19.000Z</time>
        <extensions>
          <ns3:TrackPointExtension>
            <ns3:atemp>22.0</ns3:atemp>
          </ns3:TrackPointExtension>
        </extensions>
      </trkpt>
      <trkpt lat="42.5706238858401775360107421875" lon="20.03403277136385440826416015625">
        <ele>1976</ele>
        <time>2026-06-15T13:10:20.000Z</time>
        <extensions>
          <ns3:TrackPointExtension>
            <ns3:atemp>22.0</ns3:atemp>
          </ns3:TrackPointExtension>
        </extensions>
      </trkpt>
      <trkpt lat="42.5706238858401775360107421875" lon="20.03403277136385440826416015625">
        <ele>1976</ele>
        <time>2026-06-15T13:10:21.000Z</time>
        <extensions>
          <ns3:TrackPointExtension>
            <ns3:atemp>22.0</ns3:atemp>
          </ns3:TrackPointExtension>
        </extensions>
      </trkpt>
      <trkpt lat="42.5706238858401775360107421875" lon="20.03403277136385440826416015625">
        <ele>1976</ele>
        <time>2026-06-15T13:10:22.000Z</time>
        <extensions>
          <ns3:TrackPointExtension>
            <ns3:atemp>22.0</ns3:atemp>
          </ns3:TrackPointExtension>
        </extensions>
      </trkpt>
      <trkpt lat="42.5706238858401775360107421875" lon="20.03403277136385440826416015625">
        <ele>1976</ele>
        <time>2026-06-15T13:10:23.000Z</time>
        <extensions>
          <ns3:TrackPointExtension>
            <ns3:atemp>22.0</ns3:atemp>
          </ns3:TrackPointExtension>
        </extensions>
      </trkpt>
      <trkpt lat="42.5706238858401775360107421875" lon="20.03403277136385440826416015625">
        <ele>1976</ele>
        <time>2026-06-15T13:10:24.000Z</time>
        <extensions>
          <ns3:TrackPointExtension>
            <ns3:atemp>22.0</ns3:atemp>
          </ns3:TrackPointExtension>
        </extensions>
      </trkpt>
      <trkpt lat="42.5706238858401775360107421875" lon="20.03403277136385440826416015625">
        <ele>1976</ele>
        <time>2026-06-15T13:10:25.000Z</time>
        <extensions>
          <ns3:TrackPointExtension>
            <ns3:atemp>22.0</ns3:atemp>
          </ns3:TrackPointExtension>
        </extensions>
      </trkpt>
      <trkpt lat="42.5706238858401775360107421875" lon="20.03403277136385440826416015625">
        <ele>1975.800048828125</ele>
        <time>2026-06-15T13:10:26.000Z</time>
        <extensions>
          <ns3:TrackPointExtension>
            <ns3:atemp>23.0</ns3:atemp>
          </ns3:TrackPointExtension>
        </extensions>
      </trkpt>
      <trkpt lat="42.5706238858401775360107421875" lon="20.03403277136385440826416015625">
        <ele>1975.800048828125</ele>
        <time>2026-06-15T13:10:27.000Z</time>
        <extensions>
          <ns3:TrackPointExtension>
            <ns3:atemp>23.0</ns3:atemp>
          </ns3:TrackPointExtension>
        </extensions>
      </trkpt>
      <trkpt lat="42.5706238858401775360107421875" lon="20.03403277136385440826416015625">
        <ele>1975.800048828125</ele>
        <time>2026-06-15T13:10:28.000Z</time>
        <extensions>
          <ns3:TrackPointExtension>
            <ns3:atemp>23.0</ns3:atemp>
          </ns3:TrackPointExtension>
        </extensions>
      </trkpt>
      <trkpt lat="42.5706238858401775360107421875" lon="20.03403277136385440826416015625">
        <ele>1975.800048828125</ele>
        <time>2026-06-15T13:10:29.000Z</time>
        <extensions>
          <ns3:TrackPointExtension>
            <ns3:atemp>23.0</ns3:atemp>
          </ns3:TrackPointExtension>
        </extensions>
      </trkpt>
      <trkpt lat="42.5706238858401775360107421875" lon="20.03403277136385440826416015625">
        <ele>1975.800048828125</ele>
        <time>2026-06-15T13:10:30.000Z</time>
        <extensions>
          <ns3:TrackPointExtension>
            <ns3:atemp>23.0</ns3:atemp>
          </ns3:TrackPointExtension>
        </extensions>
      </trkpt>
      <trkpt lat="42.5706238858401775360107421875" lon="20.03403277136385440826416015625">
        <ele>1975.800048828125</ele>
        <time>2026-06-15T13:10:31.000Z</time>
        <extensions>
          <ns3:TrackPointExtension>
            <ns3:atemp>23.0</ns3:atemp>
          </ns3:TrackPointExtension>
        </extensions>
      </trkpt>
      <trkpt lat="42.5706238858401775360107421875" lon="20.03403277136385440826416015625">
        <ele>1975.800048828125</ele>
        <time>2026-06-15T13:10:32.000Z</time>
        <extensions>
          <ns3:TrackPointExtension>
            <ns3:atemp>23.0</ns3:atemp>
          </ns3:TrackPointExtension>
        </extensions>
      </trkpt>
      <trkpt lat="42.5706238858401775360107421875" lon="20.03403277136385440826416015625">
        <ele>1975.800048828125</ele>
        <time>2026-06-15T13:10:33.000Z</time>
        <extensions>
          <ns3:TrackPointExtension>
            <ns3:atemp>23.0</ns3:atemp>
          </ns3:TrackPointExtension>
        </extensions>
      </trkpt>
      <trkpt lat="42.5706238858401775360107421875" lon="20.03403277136385440826416015625">
        <ele>1975.800048828125</ele>
        <time>2026-06-15T13:10:34.000Z</time>
        <extensions>
          <ns3:TrackPointExtension>
            <ns3:atemp>23.0</ns3:atemp>
          </ns3:TrackPointExtension>
        </extensions>
      </trkpt>
      <trkpt lat="42.5706238858401775360107421875" lon="20.03403277136385440826416015625">
        <ele>1975.800048828125</ele>
        <time>2026-06-15T13:10:35.000Z</time>
        <extensions>
          <ns3:TrackPointExtension>
            <ns3:atemp>23.0</ns3:atemp>
          </ns3:TrackPointExtension>
        </extensions>
      </trkpt>
      <trkpt lat="42.5706238858401775360107421875" lon="20.03403277136385440826416015625">
        <ele>1975.800048828125</ele>
        <time>2026-06-15T13:10:36.000Z</time>
        <extensions>
          <ns3:TrackPointExtension>
            <ns3:atemp>23.0</ns3:atemp>
          </ns3:TrackPointExtension>
        </extensions>
      </trkpt>
      <trkpt lat="42.5706238858401775360107421875" lon="20.03403277136385440826416015625">
        <ele>1975.800048828125</ele>
        <time>2026-06-15T13:10:37.000Z</time>
        <extensions>
          <ns3:TrackPointExtension>
            <ns3:atemp>23.0</ns3:atemp>
          </ns3:TrackPointExtension>
        </extensions>
      </trkpt>
      <trkpt lat="42.5706238858401775360107421875" lon="20.03403277136385440826416015625">
        <ele>1975.800048828125</ele>
        <time>2026-06-15T13:10:38.000Z</time>
        <extensions>
          <ns3:TrackPointExtension>
            <ns3:atemp>23.0</ns3:atemp>
          </ns3:TrackPointExtension>
        </extensions>
      </trkpt>
      <trkpt lat="42.5706238858401775360107421875" lon="20.03403277136385440826416015625">
        <ele>1975.5999755859375</ele>
        <time>2026-06-15T13:10:39.000Z</time>
        <extensions>
          <ns3:TrackPointExtension>
            <ns3:atemp>23.0</ns3:atemp>
          </ns3:TrackPointExtension>
        </extensions>
      </trkpt>
      <trkpt lat="42.5706238858401775360107421875" lon="20.03403277136385440826416015625">
        <ele>1975.5999755859375</ele>
        <time>2026-06-15T13:10:40.000Z</time>
        <extensions>
          <ns3:TrackPointExtension>
            <ns3:atemp>23.0</ns3:atemp>
          </ns3:TrackPointExtension>
        </extensions>
      </trkpt>
      <trkpt lat="42.5706238858401775360107421875" lon="20.03403277136385440826416015625">
        <ele>1975.5999755859375</ele>
        <time>2026-06-15T13:10:41.000Z</time>
        <extensions>
          <ns3:TrackPointExtension>
            <ns3:atemp>23.0</ns3:atemp>
          </ns3:TrackPointExtension>
        </extensions>
      </trkpt>
      <trkpt lat="42.5706238858401775360107421875" lon="20.03403277136385440826416015625">
        <ele>1975.5999755859375</ele>
        <time>2026-06-15T13:10:42.000Z</time>
        <extensions>
          <ns3:TrackPointExtension>
            <ns3:atemp>23.0</ns3:atemp>
          </ns3:TrackPointExtension>
        </extensions>
      </trkpt>
      <trkpt lat="42.5706238858401775360107421875" lon="20.03403277136385440826416015625">
        <ele>1975.5999755859375</ele>
        <time>2026-06-15T13:10:43.000Z</time>
        <extensions>
          <ns3:TrackPointExtension>
            <ns3:atemp>23.0</ns3:atemp>
          </ns3:TrackPointExtension>
        </extensions>
      </trkpt>
      <trkpt lat="42.5706238858401775360107421875" lon="20.03403277136385440826416015625">
        <ele>1975.5999755859375</ele>
        <time>2026-06-15T13:10:44.000Z</time>
        <extensions>
          <ns3:TrackPointExtension>
            <ns3:atemp>23.0</ns3:atemp>
          </ns3:TrackPointExtension>
        </extensions>
      </trkpt>
      <trkpt lat="42.5706238858401775360107421875" lon="20.03403277136385440826416015625">
        <ele>1975.5999755859375</ele>
        <time>2026-06-15T13:10:45.000Z</time>
        <extensions>
          <ns3:TrackPointExtension>
            <ns3:atemp>23.0</ns3:atemp>
          </ns3:TrackPointExtension>
        </extensions>
      </trkpt>
      <trkpt lat="42.5706238858401775360107421875" lon="20.03403277136385440826416015625">
        <ele>1975.4000244140625</ele>
        <time>2026-06-15T13:10:46.000Z</time>
        <extensions>
          <ns3:TrackPointExtension>
            <ns3:atemp>23.0</ns3:atemp>
          </ns3:TrackPointExtension>
        </extensions>
      </trkpt>
      <trkpt lat="42.5706238858401775360107421875" lon="20.03403277136385440826416015625">
        <ele>1975.4000244140625</ele>
        <time>2026-06-15T13:10:47.000Z</time>
        <extensions>
          <ns3:TrackPointExtension>
            <ns3:atemp>23.0</ns3:atemp>
          </ns3:TrackPointExtension>
        </extensions>
      </trkpt>
      <trkpt lat="42.5706238858401775360107421875" lon="20.03403277136385440826416015625">
        <ele>1975.4000244140625</ele>
        <time>2026-06-15T13:10:48.000Z</time>
        <extensions>
          <ns3:TrackPointExtension>
            <ns3:atemp>23.0</ns3:atemp>
          </ns3:TrackPointExtension>
        </extensions>
      </trkpt>
      <trkpt lat="42.5706238858401775360107421875" lon="20.03403277136385440826416015625">
        <ele>1975.4000244140625</ele>
        <time>2026-06-15T13:10:49.000Z</time>
        <extensions>
          <ns3:TrackPointExtension>
            <ns3:atemp>23.0</ns3:atemp>
          </ns3:TrackPointExtension>
        </extensions>
      </trkpt>
      <trkpt lat="42.5706238858401775360107421875" lon="20.03403277136385440826416015625">
        <ele>1975.199951171875</ele>
        <time>2026-06-15T13:10:50.000Z</time>
        <extensions>
          <ns3:TrackPointExtension>
            <ns3:atemp>23.0</ns3:atemp>
          </ns3:TrackPointExtension>
        </extensions>
      </trkpt>
      <trkpt lat="42.5706238858401775360107421875" lon="20.03403277136385440826416015625">
        <ele>1975.199951171875</ele>
        <time>2026-06-15T13:10:51.000Z</time>
        <extensions>
          <ns3:TrackPointExtension>
            <ns3:atemp>23.0</ns3:atemp>
          </ns3:TrackPointExtension>
        </extensions>
      </trkpt>
      <trkpt lat="42.5706238858401775360107421875" lon="20.03403277136385440826416015625">
        <ele>1975.199951171875</ele>
        <time>2026-06-15T13:10:52.000Z</time>
        <extensions>
          <ns3:TrackPointExtension>
            <ns3:atemp>23.0</ns3:atemp>
          </ns3:TrackPointExtension>
        </extensions>
      </trkpt>
      <trkpt lat="42.5706238858401775360107421875" lon="20.03403277136385440826416015625">
        <ele>1975.199951171875</ele>
        <time>2026-06-15T13:10:53.000Z</time>
        <extensions>
          <ns3:TrackPointExtension>
            <ns3:atemp>23.0</ns3:atemp>
          </ns3:TrackPointExtension>
        </extensions>
      </trkpt>
      <trkpt lat="42.5706238858401775360107421875" lon="20.03403277136385440826416015625">
        <ele>1975.199951171875</ele>
        <time>2026-06-15T13:10:54.000Z</time>
        <extensions>
          <ns3:TrackPointExtension>
            <ns3:atemp>23.0</ns3:atemp>
          </ns3:TrackPointExtension>
        </extensions>
      </trkpt>
      <trkpt lat="42.5706238858401775360107421875" lon="20.03403277136385440826416015625">
        <ele>1975.199951171875</ele>
        <time>2026-06-15T13:10:55.000Z</time>
        <extensions>
          <ns3:TrackPointExtension>
            <ns3:atemp>23.0</ns3:atemp>
          </ns3:TrackPointExtension>
        </extensions>
      </trkpt>
      <trkpt lat="42.5706238858401775360107421875" lon="20.03403277136385440826416015625">
        <ele>1975.199951171875</ele>
        <time>2026-06-15T13:10:56.000Z</time>
        <extensions>
          <ns3:TrackPointExtension>
            <ns3:atemp>23.0</ns3:atemp>
          </ns3:TrackPointExtension>
        </extensions>
      </trkpt>
      <trkpt lat="42.5706238858401775360107421875" lon="20.03403277136385440826416015625">
        <ele>1975.199951171875</ele>
        <time>2026-06-15T13:10:57.000Z</time>
        <extensions>
          <ns3:TrackPointExtension>
            <ns3:atemp>23.0</ns3:atemp>
          </ns3:TrackPointExtension>
        </extensions>
      </trkpt>
      <trkpt lat="42.5706238858401775360107421875" lon="20.03403277136385440826416015625">
        <ele>1975.199951171875</ele>
        <time>2026-06-15T13:10:58.000Z</time>
        <extensions>
          <ns3:TrackPointExtension>
            <ns3:atemp>23.0</ns3:atemp>
          </ns3:TrackPointExtension>
        </extensions>
      </trkpt>
      <trkpt lat="42.5706238858401775360107421875" lon="20.03403277136385440826416015625">
        <ele>1975.4000244140625</ele>
        <time>2026-06-15T13:10:59.000Z</time>
        <extensions>
          <ns3:TrackPointExtension>
            <ns3:atemp>23.0</ns3:atemp>
          </ns3:TrackPointExtension>
        </extensions>
      </trkpt>
      <trkpt lat="42.5706238858401775360107421875" lon="20.03403277136385440826416015625">
        <ele>1975.4000244140625</ele>
        <time>2026-06-15T13:11:00.000Z</time>
        <extensions>
          <ns3:TrackPointExtension>
            <ns3:atemp>23.0</ns3:atemp>
          </ns3:TrackPointExtension>
        </extensions>
      </trkpt>
      <trkpt lat="42.5706238858401775360107421875" lon="20.03403277136385440826416015625">
        <ele>1975.4000244140625</ele>
        <time>2026-06-15T13:11:01.000Z</time>
        <extensions>
          <ns3:TrackPointExtension>
            <ns3:atemp>23.0</ns3:atemp>
          </ns3:TrackPointExtension>
        </extensions>
      </trkpt>
      <trkpt lat="42.5706238858401775360107421875" lon="20.03403277136385440826416015625">
        <ele>1975.4000244140625</ele>
        <time>2026-06-15T13:11:02.000Z</time>
        <extensions>
          <ns3:TrackPointExtension>
            <ns3:atemp>23.0</ns3:atemp>
          </ns3:TrackPointExtension>
        </extensions>
      </trkpt>
      <trkpt lat="42.5706238858401775360107421875" lon="20.03403277136385440826416015625">
        <ele>1975.4000244140625</ele>
        <time>2026-06-15T13:11:03.000Z</time>
        <extensions>
          <ns3:TrackPointExtension>
            <ns3:atemp>23.0</ns3:atemp>
          </ns3:TrackPointExtension>
        </extensions>
      </trkpt>
      <trkpt lat="42.5706238858401775360107421875" lon="20.03403277136385440826416015625">
        <ele>1975.5999755859375</ele>
        <time>2026-06-15T13:11:04.000Z</time>
        <extensions>
          <ns3:TrackPointExtension>
            <ns3:atemp>23.0</ns3:atemp>
          </ns3:TrackPointExtension>
        </extensions>
      </trkpt>
      <trkpt lat="42.5706238858401775360107421875" lon="20.03403277136385440826416015625">
        <ele>1975.5999755859375</ele>
        <time>2026-06-15T13:11:05.000Z</time>
        <extensions>
          <ns3:TrackPointExtension>
            <ns3:atemp>23.0</ns3:atemp>
          </ns3:TrackPointExtension>
        </extensions>
      </trkpt>
      <trkpt lat="42.5706238858401775360107421875" lon="20.03403277136385440826416015625">
        <ele>1975.5999755859375</ele>
        <time>2026-06-15T13:11:06.000Z</time>
        <extensions>
          <ns3:TrackPointExtension>
            <ns3:atemp>23.0</ns3:atemp>
          </ns3:TrackPointExtension>
        </extensions>
      </trkpt>
      <trkpt lat="42.5706238858401775360107421875" lon="20.03403277136385440826416015625">
        <ele>1975.5999755859375</ele>
        <time>2026-06-15T13:11:07.000Z</time>
        <extensions>
          <ns3:TrackPointExtension>
            <ns3:atemp>23.0</ns3:atemp>
          </ns3:TrackPointExtension>
        </extensions>
      </trkpt>
      <trkpt lat="42.5706238858401775360107421875" lon="20.03403277136385440826416015625">
        <ele>1975.5999755859375</ele>
        <time>2026-06-15T13:11:08.000Z</time>
        <extensions>
          <ns3:TrackPointExtension>
            <ns3:atemp>23.0</ns3:atemp>
          </ns3:TrackPointExtension>
        </extensions>
      </trkpt>
      <trkpt lat="42.5706238858401775360107421875" lon="20.03403277136385440826416015625">
        <ele>1975.5999755859375</ele>
        <time>2026-06-15T13:11:09.000Z</time>
        <extensions>
          <ns3:TrackPointExtension>
            <ns3:atemp>23.0</ns3:atemp>
          </ns3:TrackPointExtension>
        </extensions>
      </trkpt>
      <trkpt lat="42.5706238858401775360107421875" lon="20.03403277136385440826416015625">
        <ele>1975.5999755859375</ele>
        <time>2026-06-15T13:11:10.000Z</time>
        <extensions>
          <ns3:TrackPointExtension>
            <ns3:atemp>23.0</ns3:atemp>
          </ns3:TrackPointExtension>
        </extensions>
      </trkpt>
      <trkpt lat="42.5706238858401775360107421875" lon="20.03403277136385440826416015625">
        <ele>1975.5999755859375</ele>
        <time>2026-06-15T13:11:11.000Z</time>
        <extensions>
          <ns3:TrackPointExtension>
            <ns3:atemp>23.0</ns3:atemp>
          </ns3:TrackPointExtension>
        </extensions>
      </trkpt>
      <trkpt lat="42.5706238858401775360107421875" lon="20.03403277136385440826416015625">
        <ele>1975.800048828125</ele>
        <time>2026-06-15T13:11:12.000Z</time>
        <extensions>
          <ns3:TrackPointExtension>
            <ns3:atemp>23.0</ns3:atemp>
          </ns3:TrackPointExtension>
        </extensions>
      </trkpt>
      <trkpt lat="42.5706238858401775360107421875" lon="20.03403277136385440826416015625">
        <ele>1975.800048828125</ele>
        <time>2026-06-15T13:11:13.000Z</time>
        <extensions>
          <ns3:TrackPointExtension>
            <ns3:atemp>23.0</ns3:atemp>
          </ns3:TrackPointExtension>
        </extensions>
      </trkpt>
      <trkpt lat="42.5706238858401775360107421875" lon="20.03403277136385440826416015625">
        <ele>1975.800048828125</ele>
        <time>2026-06-15T13:11:14.000Z</time>
        <extensions>
          <ns3:TrackPointExtension>
            <ns3:atemp>23.0</ns3:atemp>
          </ns3:TrackPointExtension>
        </extensions>
      </trkpt>
      <trkpt lat="42.5706238858401775360107421875" lon="20.03403277136385440826416015625">
        <ele>1975.800048828125</ele>
        <time>2026-06-15T13:11:15.000Z</time>
        <extensions>
          <ns3:TrackPointExtension>
            <ns3:atemp>23.0</ns3:atemp>
          </ns3:TrackPointExtension>
        </extensions>
      </trkpt>
      <trkpt lat="42.5706238858401775360107421875" lon="20.03403277136385440826416015625">
        <ele>1975.800048828125</ele>
        <time>2026-06-15T13:11:16.000Z</time>
        <extensions>
          <ns3:TrackPointExtension>
            <ns3:atemp>23.0</ns3:atemp>
          </ns3:TrackPointExtension>
        </extensions>
      </trkpt>
      <trkpt lat="42.5706238858401775360107421875" lon="20.03403277136385440826416015625">
        <ele>1975.800048828125</ele>
        <time>2026-06-15T13:11:17.000Z</time>
        <extensions>
          <ns3:TrackPointExtension>
            <ns3:atemp>23.0</ns3:atemp>
          </ns3:TrackPointExtension>
        </extensions>
      </trkpt>
      <trkpt lat="42.5706238858401775360107421875" lon="20.03403277136385440826416015625">
        <ele>1976</ele>
        <time>2026-06-15T13:11:18.000Z</time>
        <extensions>
          <ns3:TrackPointExtension>
            <ns3:atemp>23.0</ns3:atemp>
          </ns3:TrackPointExtension>
        </extensions>
      </trkpt>
      <trkpt lat="42.5706238858401775360107421875" lon="20.03403277136385440826416015625">
        <ele>1976</ele>
        <time>2026-06-15T13:11:19.000Z</time>
        <extensions>
          <ns3:TrackPointExtension>
            <ns3:atemp>23.0</ns3:atemp>
          </ns3:TrackPointExtension>
        </extensions>
      </trkpt>
      <trkpt lat="42.5706238858401775360107421875" lon="20.03403277136385440826416015625">
        <ele>1976</ele>
        <time>2026-06-15T13:11:20.000Z</time>
        <extensions>
          <ns3:TrackPointExtension>
            <ns3:atemp>23.0</ns3:atemp>
          </ns3:TrackPointExtension>
        </extensions>
      </trkpt>
      <trkpt lat="42.5706238858401775360107421875" lon="20.03403277136385440826416015625">
        <ele>1976</ele>
        <time>2026-06-15T13:11:21.000Z</time>
        <extensions>
          <ns3:TrackPointExtension>
            <ns3:atemp>23.0</ns3:atemp>
          </ns3:TrackPointExtension>
        </extensions>
      </trkpt>
      <trkpt lat="42.5706238858401775360107421875" lon="20.03403277136385440826416015625">
        <ele>1976</ele>
        <time>2026-06-15T13:11:22.000Z</time>
        <extensions>
          <ns3:TrackPointExtension>
            <ns3:atemp>23.0</ns3:atemp>
          </ns3:TrackPointExtension>
        </extensions>
      </trkpt>
      <trkpt lat="42.5706238858401775360107421875" lon="20.03403277136385440826416015625">
        <ele>1976</ele>
        <time>2026-06-15T13:11:23.000Z</time>
        <extensions>
          <ns3:TrackPointExtension>
            <ns3:atemp>23.0</ns3:atemp>
          </ns3:TrackPointExtension>
        </extensions>
      </trkpt>
      <trkpt lat="42.5706238858401775360107421875" lon="20.03403277136385440826416015625">
        <ele>1976</ele>
        <time>2026-06-15T13:11:24.000Z</time>
        <extensions>
          <ns3:TrackPointExtension>
            <ns3:atemp>23.0</ns3:atemp>
          </ns3:TrackPointExtension>
        </extensions>
      </trkpt>
      <trkpt lat="42.5706238858401775360107421875" lon="20.03403277136385440826416015625">
        <ele>1976</ele>
        <time>2026-06-15T13:11:25.000Z</time>
        <extensions>
          <ns3:TrackPointExtension>
            <ns3:atemp>23.0</ns3:atemp>
          </ns3:TrackPointExtension>
        </extensions>
      </trkpt>
      <trkpt lat="42.5706238858401775360107421875" lon="20.03403277136385440826416015625">
        <ele>1976</ele>
        <time>2026-06-15T13:11:26.000Z</time>
        <extensions>
          <ns3:TrackPointExtension>
            <ns3:atemp>23.0</ns3:atemp>
          </ns3:TrackPointExtension>
        </extensions>
      </trkpt>
      <trkpt lat="42.5706238858401775360107421875" lon="20.03403277136385440826416015625">
        <ele>1976</ele>
        <time>2026-06-15T13:11:27.000Z</time>
        <extensions>
          <ns3:TrackPointExtension>
            <ns3:atemp>23.0</ns3:atemp>
          </ns3:TrackPointExtension>
        </extensions>
      </trkpt>
      <trkpt lat="42.5706238858401775360107421875" lon="20.03403277136385440826416015625">
        <ele>1976</ele>
        <time>2026-06-15T13:11:28.000Z</time>
        <extensions>
          <ns3:TrackPointExtension>
            <ns3:atemp>23.0</ns3:atemp>
          </ns3:TrackPointExtension>
        </extensions>
      </trkpt>
      <trkpt lat="42.5706238858401775360107421875" lon="20.03403277136385440826416015625">
        <ele>1976</ele>
        <time>2026-06-15T13:11:29.000Z</time>
        <extensions>
          <ns3:TrackPointExtension>
            <ns3:atemp>23.0</ns3:atemp>
          </ns3:TrackPointExtension>
        </extensions>
      </trkpt>
      <trkpt lat="42.5706238858401775360107421875" lon="20.03403277136385440826416015625">
        <ele>1976</ele>
        <time>2026-06-15T13:11:30.000Z</time>
        <extensions>
          <ns3:TrackPointExtension>
            <ns3:atemp>23.0</ns3:atemp>
          </ns3:TrackPointExtension>
        </extensions>
      </trkpt>
      <trkpt lat="42.5706238858401775360107421875" lon="20.03403277136385440826416015625">
        <ele>1976</ele>
        <time>2026-06-15T13:11:31.000Z</time>
        <extensions>
          <ns3:TrackPointExtension>
            <ns3:atemp>23.0</ns3:atemp>
          </ns3:TrackPointExtension>
        </extensions>
      </trkpt>
      <trkpt lat="42.5706238858401775360107421875" lon="20.03403277136385440826416015625">
        <ele>1976</ele>
        <time>2026-06-15T13:11:32.000Z</time>
        <extensions>
          <ns3:TrackPointExtension>
            <ns3:atemp>23.0</ns3:atemp>
          </ns3:TrackPointExtension>
        </extensions>
      </trkpt>
      <trkpt lat="42.5706238858401775360107421875" lon="20.03403277136385440826416015625">
        <ele>1976</ele>
        <time>2026-06-15T13:11:33.000Z</time>
        <extensions>
          <ns3:TrackPointExtension>
            <ns3:atemp>23.0</ns3:atemp>
          </ns3:TrackPointExtension>
        </extensions>
      </trkpt>
      <trkpt lat="42.5706238858401775360107421875" lon="20.03403277136385440826416015625">
        <ele>1976</ele>
        <time>2026-06-15T13:11:34.000Z</time>
        <extensions>
          <ns3:TrackPointExtension>
            <ns3:atemp>23.0</ns3:atemp>
          </ns3:TrackPointExtension>
        </extensions>
      </trkpt>
      <trkpt lat="42.5706238858401775360107421875" lon="20.03403277136385440826416015625">
        <ele>1976</ele>
        <time>2026-06-15T13:11:35.000Z</time>
        <extensions>
          <ns3:TrackPointExtension>
            <ns3:atemp>23.0</ns3:atemp>
          </ns3:TrackPointExtension>
        </extensions>
      </trkpt>
      <trkpt lat="42.5706238858401775360107421875" lon="20.03403277136385440826416015625">
        <ele>1976</ele>
        <time>2026-06-15T13:11:36.000Z</time>
        <extensions>
          <ns3:TrackPointExtension>
            <ns3:atemp>23.0</ns3:atemp>
          </ns3:TrackPointExtension>
        </extensions>
      </trkpt>
      <trkpt lat="42.5706238858401775360107421875" lon="20.03403277136385440826416015625">
        <ele>1976</ele>
        <time>2026-06-15T13:11:37.000Z</time>
        <extensions>
          <ns3:TrackPointExtension>
            <ns3:atemp>23.0</ns3:atemp>
          </ns3:TrackPointExtension>
        </extensions>
      </trkpt>
      <trkpt lat="42.5706238858401775360107421875" lon="20.03403277136385440826416015625">
        <ele>1976</ele>
        <time>2026-06-15T13:11:38.000Z</time>
        <extensions>
          <ns3:TrackPointExtension>
            <ns3:atemp>23.0</ns3:atemp>
          </ns3:TrackPointExtension>
        </extensions>
      </trkpt>
      <trkpt lat="42.5706238858401775360107421875" lon="20.03403277136385440826416015625">
        <ele>1976</ele>
        <time>2026-06-15T13:11:39.000Z</time>
        <extensions>
          <ns3:TrackPointExtension>
            <ns3:atemp>23.0</ns3:atemp>
          </ns3:TrackPointExtension>
        </extensions>
      </trkpt>
      <trkpt lat="42.5706238858401775360107421875" lon="20.03403277136385440826416015625">
        <ele>1976</ele>
        <time>2026-06-15T13:11:40.000Z</time>
        <extensions>
          <ns3:TrackPointExtension>
            <ns3:atemp>23.0</ns3:atemp>
          </ns3:TrackPointExtension>
        </extensions>
      </trkpt>
      <trkpt lat="42.5706238858401775360107421875" lon="20.03403277136385440826416015625">
        <ele>1976</ele>
        <time>2026-06-15T13:11:41.000Z</time>
        <extensions>
          <ns3:TrackPointExtension>
            <ns3:atemp>23.0</ns3:atemp>
          </ns3:TrackPointExtension>
        </extensions>
      </trkpt>
      <trkpt lat="42.5706238858401775360107421875" lon="20.03403277136385440826416015625">
        <ele>1976</ele>
        <time>2026-06-15T13:11:42.000Z</time>
        <extensions>
          <ns3:TrackPointExtension>
            <ns3:atemp>23.0</ns3:atemp>
          </ns3:TrackPointExtension>
        </extensions>
      </trkpt>
      <trkpt lat="42.5706238858401775360107421875" lon="20.03403277136385440826416015625">
        <ele>1976</ele>
        <time>2026-06-15T13:11:43.000Z</time>
        <extensions>
          <ns3:TrackPointExtension>
            <ns3:atemp>23.0</ns3:atemp>
          </ns3:TrackPointExtension>
        </extensions>
      </trkpt>
      <trkpt lat="42.5706238858401775360107421875" lon="20.03403277136385440826416015625">
        <ele>1976</ele>
        <time>2026-06-15T13:11:44.000Z</time>
        <extensions>
          <ns3:TrackPointExtension>
            <ns3:atemp>23.0</ns3:atemp>
          </ns3:TrackPointExtension>
        </extensions>
      </trkpt>
      <trkpt lat="42.5706238858401775360107421875" lon="20.03403277136385440826416015625">
        <ele>1976</ele>
        <time>2026-06-15T13:11:45.000Z</time>
        <extensions>
          <ns3:TrackPointExtension>
            <ns3:atemp>23.0</ns3:atemp>
          </ns3:TrackPointExtension>
        </extensions>
      </trkpt>
      <trkpt lat="42.5706238858401775360107421875" lon="20.03403277136385440826416015625">
        <ele>1976</ele>
        <time>2026-06-15T13:11:46.000Z</time>
        <extensions>
          <ns3:TrackPointExtension>
            <ns3:atemp>23.0</ns3:atemp>
          </ns3:TrackPointExtension>
        </extensions>
      </trkpt>
      <trkpt lat="42.5706238858401775360107421875" lon="20.03403277136385440826416015625">
        <ele>1976</ele>
        <time>2026-06-15T13:11:47.000Z</time>
        <extensions>
          <ns3:TrackPointExtension>
            <ns3:atemp>23.0</ns3:atemp>
          </ns3:TrackPointExtension>
        </extensions>
      </trkpt>
      <trkpt lat="42.5706238858401775360107421875" lon="20.03403277136385440826416015625">
        <ele>1976</ele>
        <time>2026-06-15T13:11:48.000Z</time>
        <extensions>
          <ns3:TrackPointExtension>
            <ns3:atemp>23.0</ns3:atemp>
          </ns3:TrackPointExtension>
        </extensions>
      </trkpt>
      <trkpt lat="42.5706238858401775360107421875" lon="20.03403277136385440826416015625">
        <ele>1975.800048828125</ele>
        <time>2026-06-15T13:11:49.000Z</time>
        <extensions>
          <ns3:TrackPointExtension>
            <ns3:atemp>23.0</ns3:atemp>
          </ns3:TrackPointExtension>
        </extensions>
      </trkpt>
      <trkpt lat="42.5706238858401775360107421875" lon="20.03403277136385440826416015625">
        <ele>1975.800048828125</ele>
        <time>2026-06-15T13:11:50.000Z</time>
        <extensions>
          <ns3:TrackPointExtension>
            <ns3:atemp>23.0</ns3:atemp>
          </ns3:TrackPointExtension>
        </extensions>
      </trkpt>
      <trkpt lat="42.5706238858401775360107421875" lon="20.03403277136385440826416015625">
        <ele>1975.800048828125</ele>
        <time>2026-06-15T13:11:51.000Z</time>
        <extensions>
          <ns3:TrackPointExtension>
            <ns3:atemp>23.0</ns3:atemp>
          </ns3:TrackPointExtension>
        </extensions>
      </trkpt>
      <trkpt lat="42.5706238858401775360107421875" lon="20.03403277136385440826416015625">
        <ele>1976</ele>
        <time>2026-06-15T13:11:52.000Z</time>
        <extensions>
          <ns3:TrackPointExtension>
            <ns3:atemp>23.0</ns3:atemp>
          </ns3:TrackPointExtension>
        </extensions>
      </trkpt>
      <trkpt lat="42.5706238858401775360107421875" lon="20.03403277136385440826416015625">
        <ele>1976</ele>
        <time>2026-06-15T13:11:53.000Z</time>
        <extensions>
          <ns3:TrackPointExtension>
            <ns3:atemp>23.0</ns3:atemp>
          </ns3:TrackPointExtension>
        </extensions>
      </trkpt>
      <trkpt lat="42.5706238858401775360107421875" lon="20.03403277136385440826416015625">
        <ele>1976</ele>
        <time>2026-06-15T13:11:54.000Z</time>
        <extensions>
          <ns3:TrackPointExtension>
            <ns3:atemp>23.0</ns3:atemp>
          </ns3:TrackPointExtension>
        </extensions>
      </trkpt>
      <trkpt lat="42.5706238858401775360107421875" lon="20.03403277136385440826416015625">
        <ele>1976</ele>
        <time>2026-06-15T13:11:55.000Z</time>
        <extensions>
          <ns3:TrackPointExtension>
            <ns3:atemp>23.0</ns3:atemp>
          </ns3:TrackPointExtension>
        </extensions>
      </trkpt>
      <trkpt lat="42.5706238858401775360107421875" lon="20.03403277136385440826416015625">
        <ele>1976</ele>
        <time>2026-06-15T13:11:56.000Z</time>
        <extensions>
          <ns3:TrackPointExtension>
            <ns3:atemp>23.0</ns3:atemp>
          </ns3:TrackPointExtension>
        </extensions>
      </trkpt>
      <trkpt lat="42.5706238858401775360107421875" lon="20.03403277136385440826416015625">
        <ele>1976</ele>
        <time>2026-06-15T13:11:57.000Z</time>
        <extensions>
          <ns3:TrackPointExtension>
            <ns3:atemp>23.0</ns3:atemp>
          </ns3:TrackPointExtension>
        </extensions>
      </trkpt>
      <trkpt lat="42.5706238858401775360107421875" lon="20.03403277136385440826416015625">
        <ele>1976</ele>
        <time>2026-06-15T13:11:58.000Z</time>
        <extensions>
          <ns3:TrackPointExtension>
            <ns3:atemp>23.0</ns3:atemp>
          </ns3:TrackPointExtension>
        </extensions>
      </trkpt>
      <trkpt lat="42.5706238858401775360107421875" lon="20.03403277136385440826416015625">
        <ele>1976</ele>
        <time>2026-06-15T13:11:59.000Z</time>
        <extensions>
          <ns3:TrackPointExtension>
            <ns3:atemp>23.0</ns3:atemp>
          </ns3:TrackPointExtension>
        </extensions>
      </trkpt>
      <trkpt lat="42.5706238858401775360107421875" lon="20.03403277136385440826416015625">
        <ele>1975.800048828125</ele>
        <time>2026-06-15T13:12:00.000Z</time>
        <extensions>
          <ns3:TrackPointExtension>
            <ns3:atemp>23.0</ns3:atemp>
          </ns3:TrackPointExtension>
        </extensions>
      </trkpt>
      <trkpt lat="42.5706238858401775360107421875" lon="20.03403277136385440826416015625">
        <ele>1975.800048828125</ele>
        <time>2026-06-15T13:12:01.000Z</time>
        <extensions>
          <ns3:TrackPointExtension>
            <ns3:atemp>23.0</ns3:atemp>
          </ns3:TrackPointExtension>
        </extensions>
      </trkpt>
      <trkpt lat="42.5706238858401775360107421875" lon="20.03403277136385440826416015625">
        <ele>1975.800048828125</ele>
        <time>2026-06-15T13:12:02.000Z</time>
        <extensions>
          <ns3:TrackPointExtension>
            <ns3:atemp>23.0</ns3:atemp>
          </ns3:TrackPointExtension>
        </extensions>
      </trkpt>
      <trkpt lat="42.5706238858401775360107421875" lon="20.03403277136385440826416015625">
        <ele>1975.800048828125</ele>
        <time>2026-06-15T13:12:03.000Z</time>
        <extensions>
          <ns3:TrackPointExtension>
            <ns3:atemp>23.0</ns3:atemp>
          </ns3:TrackPointExtension>
        </extensions>
      </trkpt>
      <trkpt lat="42.5706238858401775360107421875" lon="20.03403277136385440826416015625">
        <ele>1975.800048828125</ele>
        <time>2026-06-15T13:12:04.000Z</time>
        <extensions>
          <ns3:TrackPointExtension>
            <ns3:atemp>23.0</ns3:atemp>
          </ns3:TrackPointExtension>
        </extensions>
      </trkpt>
      <trkpt lat="42.5706238858401775360107421875" lon="20.03403277136385440826416015625">
        <ele>1976</ele>
        <time>2026-06-15T13:12:05.000Z</time>
        <extensions>
          <ns3:TrackPointExtension>
            <ns3:atemp>23.0</ns3:atemp>
          </ns3:TrackPointExtension>
        </extensions>
      </trkpt>
      <trkpt lat="42.5706238858401775360107421875" lon="20.03403277136385440826416015625">
        <ele>1976</ele>
        <time>2026-06-15T13:12:06.000Z</time>
        <extensions>
          <ns3:TrackPointExtension>
            <ns3:atemp>23.0</ns3:atemp>
          </ns3:TrackPointExtension>
        </extensions>
      </trkpt>
      <trkpt lat="42.5706238858401775360107421875" lon="20.03403277136385440826416015625">
        <ele>1976</ele>
        <time>2026-06-15T13:12:07.000Z</time>
        <extensions>
          <ns3:TrackPointExtension>
            <ns3:atemp>23.0</ns3:atemp>
          </ns3:TrackPointExtension>
        </extensions>
      </trkpt>
      <trkpt lat="42.5706238858401775360107421875" lon="20.03403277136385440826416015625">
        <ele>1976</ele>
        <time>2026-06-15T13:12:08.000Z</time>
        <extensions>
          <ns3:TrackPointExtension>
            <ns3:atemp>23.0</ns3:atemp>
          </ns3:TrackPointExtension>
        </extensions>
      </trkpt>
      <trkpt lat="42.5706238858401775360107421875" lon="20.03403277136385440826416015625">
        <ele>1976</ele>
        <time>2026-06-15T13:12:09.000Z</time>
        <extensions>
          <ns3:TrackPointExtension>
            <ns3:atemp>23.0</ns3:atemp>
          </ns3:TrackPointExtension>
        </extensions>
      </trkpt>
      <trkpt lat="42.5706238858401775360107421875" lon="20.03403277136385440826416015625">
        <ele>1976</ele>
        <time>2026-06-15T13:12:10.000Z</time>
        <extensions>
          <ns3:TrackPointExtension>
            <ns3:atemp>23.0</ns3:atemp>
          </ns3:TrackPointExtension>
        </extensions>
      </trkpt>
      <trkpt lat="42.5706238858401775360107421875" lon="20.03403277136385440826416015625">
        <ele>1976</ele>
        <time>2026-06-15T13:12:11.000Z</time>
        <extensions>
          <ns3:TrackPointExtension>
            <ns3:atemp>23.0</ns3:atemp>
          </ns3:TrackPointExtension>
        </extensions>
      </trkpt>
      <trkpt lat="42.5706238858401775360107421875" lon="20.03403277136385440826416015625">
        <ele>1976</ele>
        <time>2026-06-15T13:12:12.000Z</time>
        <extensions>
          <ns3:TrackPointExtension>
            <ns3:atemp>23.0</ns3:atemp>
          </ns3:TrackPointExtension>
        </extensions>
      </trkpt>
      <trkpt lat="42.5706238858401775360107421875" lon="20.03403277136385440826416015625">
        <ele>1976</ele>
        <time>2026-06-15T13:12:13.000Z</time>
        <extensions>
          <ns3:TrackPointExtension>
            <ns3:atemp>23.0</ns3:atemp>
          </ns3:TrackPointExtension>
        </extensions>
      </trkpt>
      <trkpt lat="42.5706238858401775360107421875" lon="20.03403277136385440826416015625">
        <ele>1976</ele>
        <time>2026-06-15T13:12:14.000Z</time>
        <extensions>
          <ns3:TrackPointExtension>
            <ns3:atemp>23.0</ns3:atemp>
          </ns3:TrackPointExtension>
        </extensions>
      </trkpt>
      <trkpt lat="42.5706238858401775360107421875" lon="20.03403277136385440826416015625">
        <ele>1976</ele>
        <time>2026-06-15T13:12:15.000Z</time>
        <extensions>
          <ns3:TrackPointExtension>
            <ns3:atemp>23.0</ns3:atemp>
          </ns3:TrackPointExtension>
        </extensions>
      </trkpt>
      <trkpt lat="42.5706238858401775360107421875" lon="20.03403277136385440826416015625">
        <ele>1976</ele>
        <time>2026-06-15T13:12:16.000Z</time>
        <extensions>
          <ns3:TrackPointExtension>
            <ns3:atemp>23.0</ns3:atemp>
          </ns3:TrackPointExtension>
        </extensions>
      </trkpt>
      <trkpt lat="42.5706238858401775360107421875" lon="20.03403277136385440826416015625">
        <ele>1976</ele>
        <time>2026-06-15T13:12:17.000Z</time>
        <extensions>
          <ns3:TrackPointExtension>
            <ns3:atemp>23.0</ns3:atemp>
          </ns3:TrackPointExtension>
        </extensions>
      </trkpt>
      <trkpt lat="42.5706238858401775360107421875" lon="20.03403277136385440826416015625">
        <ele>1976</ele>
        <time>2026-06-15T13:12:18.000Z</time>
        <extensions>
          <ns3:TrackPointExtension>
            <ns3:atemp>23.0</ns3:atemp>
          </ns3:TrackPointExtension>
        </extensions>
      </trkpt>
      <trkpt lat="42.5706238858401775360107421875" lon="20.03403277136385440826416015625">
        <ele>1976.199951171875</ele>
        <time>2026-06-15T13:12:19.000Z</time>
        <extensions>
          <ns3:TrackPointExtension>
            <ns3:atemp>23.0</ns3:atemp>
          </ns3:TrackPointExtension>
        </extensions>
      </trkpt>
      <trkpt lat="42.5706238858401775360107421875" lon="20.03403277136385440826416015625">
        <ele>1976.199951171875</ele>
        <time>2026-06-15T13:12:20.000Z</time>
        <extensions>
          <ns3:TrackPointExtension>
            <ns3:atemp>23.0</ns3:atemp>
          </ns3:TrackPointExtension>
        </extensions>
      </trkpt>
      <trkpt lat="42.5706238858401775360107421875" lon="20.03403277136385440826416015625">
        <ele>1976.199951171875</ele>
        <time>2026-06-15T13:12:21.000Z</time>
        <extensions>
          <ns3:TrackPointExtension>
            <ns3:atemp>23.0</ns3:atemp>
          </ns3:TrackPointExtension>
        </extensions>
      </trkpt>
      <trkpt lat="42.5706238858401775360107421875" lon="20.03403277136385440826416015625">
        <ele>1976.199951171875</ele>
        <time>2026-06-15T13:12:22.000Z</time>
        <extensions>
          <ns3:TrackPointExtension>
            <ns3:atemp>23.0</ns3:atemp>
          </ns3:TrackPointExtension>
        </extensions>
      </trkpt>
      <trkpt lat="42.5706238858401775360107421875" lon="20.03403277136385440826416015625">
        <ele>1976.199951171875</ele>
        <time>2026-06-15T13:12:23.000Z</time>
        <extensions>
          <ns3:TrackPointExtension>
            <ns3:atemp>23.0</ns3:atemp>
          </ns3:TrackPointExtension>
        </extensions>
      </trkpt>
      <trkpt lat="42.5706238858401775360107421875" lon="20.03403277136385440826416015625">
        <ele>1976.199951171875</ele>
        <time>2026-06-15T13:12:24.000Z</time>
        <extensions>
          <ns3:TrackPointExtension>
            <ns3:atemp>23.0</ns3:atemp>
          </ns3:TrackPointExtension>
        </extensions>
      </trkpt>
      <trkpt lat="42.5706238858401775360107421875" lon="20.03403277136385440826416015625">
        <ele>1976.199951171875</ele>
        <time>2026-06-15T13:12:25.000Z</time>
        <extensions>
          <ns3:TrackPointExtension>
            <ns3:atemp>23.0</ns3:atemp>
          </ns3:TrackPointExtension>
        </extensions>
      </trkpt>
      <trkpt lat="42.5706238858401775360107421875" lon="20.03403277136385440826416015625">
        <ele>1976.199951171875</ele>
        <time>2026-06-15T13:12:26.000Z</time>
        <extensions>
          <ns3:TrackPointExtension>
            <ns3:atemp>23.0</ns3:atemp>
          </ns3:TrackPointExtension>
        </extensions>
      </trkpt>
      <trkpt lat="42.5706238858401775360107421875" lon="20.03403277136385440826416015625">
        <ele>1976.199951171875</ele>
        <time>2026-06-15T13:12:27.000Z</time>
        <extensions>
          <ns3:TrackPointExtension>
            <ns3:atemp>23.0</ns3:atemp>
          </ns3:TrackPointExtension>
        </extensions>
      </trkpt>
      <trkpt lat="42.5706238858401775360107421875" lon="20.03403277136385440826416015625">
        <ele>1976.199951171875</ele>
        <time>2026-06-15T13:12:28.000Z</time>
        <extensions>
          <ns3:TrackPointExtension>
            <ns3:atemp>23.0</ns3:atemp>
          </ns3:TrackPointExtension>
        </extensions>
      </trkpt>
      <trkpt lat="42.5706238858401775360107421875" lon="20.03403277136385440826416015625">
        <ele>1976.199951171875</ele>
        <time>2026-06-15T13:12:29.000Z</time>
        <extensions>
          <ns3:TrackPointExtension>
            <ns3:atemp>23.0</ns3:atemp>
          </ns3:TrackPointExtension>
        </extensions>
      </trkpt>
      <trkpt lat="42.5706238858401775360107421875" lon="20.03403277136385440826416015625">
        <ele>1976.4000244140625</ele>
        <time>2026-06-15T13:12:30.000Z</time>
        <extensions>
          <ns3:TrackPointExtension>
            <ns3:atemp>23.0</ns3:atemp>
          </ns3:TrackPointExtension>
        </extensions>
      </trkpt>
      <trkpt lat="42.5706238858401775360107421875" lon="20.03403277136385440826416015625">
        <ele>1976.4000244140625</ele>
        <time>2026-06-15T13:12:31.000Z</time>
        <extensions>
          <ns3:TrackPointExtension>
            <ns3:atemp>23.0</ns3:atemp>
          </ns3:TrackPointExtension>
        </extensions>
      </trkpt>
      <trkpt lat="42.5706238858401775360107421875" lon="20.03403277136385440826416015625">
        <ele>1976.4000244140625</ele>
        <time>2026-06-15T13:12:32.000Z</time>
        <extensions>
          <ns3:TrackPointExtension>
            <ns3:atemp>23.0</ns3:atemp>
          </ns3:TrackPointExtension>
        </extensions>
      </trkpt>
      <trkpt lat="42.5706238858401775360107421875" lon="20.03403277136385440826416015625">
        <ele>1976.4000244140625</ele>
        <time>2026-06-15T13:12:33.000Z</time>
        <extensions>
          <ns3:TrackPointExtension>
            <ns3:atemp>23.0</ns3:atemp>
          </ns3:TrackPointExtension>
        </extensions>
      </trkpt>
      <trkpt lat="42.5706238858401775360107421875" lon="20.03403277136385440826416015625">
        <ele>1976.4000244140625</ele>
        <time>2026-06-15T13:12:34.000Z</time>
        <extensions>
          <ns3:TrackPointExtension>
            <ns3:atemp>23.0</ns3:atemp>
          </ns3:TrackPointExtension>
        </extensions>
      </trkpt>
      <trkpt lat="42.5706238858401775360107421875" lon="20.03403277136385440826416015625">
        <ele>1976.4000244140625</ele>
        <time>2026-06-15T13:12:35.000Z</time>
        <extensions>
          <ns3:TrackPointExtension>
            <ns3:atemp>23.0</ns3:atemp>
          </ns3:TrackPointExtension>
        </extensions>
      </trkpt>
      <trkpt lat="42.5706238858401775360107421875" lon="20.03403277136385440826416015625">
        <ele>1976.4000244140625</ele>
        <time>2026-06-15T13:12:36.000Z</time>
        <extensions>
          <ns3:TrackPointExtension>
            <ns3:atemp>23.0</ns3:atemp>
          </ns3:TrackPointExtension>
        </extensions>
      </trkpt>
      <trkpt lat="42.5706238858401775360107421875" lon="20.03403277136385440826416015625">
        <ele>1976.4000244140625</ele>
        <time>2026-06-15T13:12:37.000Z</time>
        <extensions>
          <ns3:TrackPointExtension>
            <ns3:atemp>23.0</ns3:atemp>
          </ns3:TrackPointExtension>
        </extensions>
      </trkpt>
      <trkpt lat="42.5706238858401775360107421875" lon="20.03403277136385440826416015625">
        <ele>1976.4000244140625</ele>
        <time>2026-06-15T13:12:38.000Z</time>
        <extensions>
          <ns3:TrackPointExtension>
            <ns3:atemp>23.0</ns3:atemp>
          </ns3:TrackPointExtension>
        </extensions>
      </trkpt>
      <trkpt lat="42.5706238858401775360107421875" lon="20.03403277136385440826416015625">
        <ele>1976.4000244140625</ele>
        <time>2026-06-15T13:12:39.000Z</time>
        <extensions>
          <ns3:TrackPointExtension>
            <ns3:atemp>23.0</ns3:atemp>
          </ns3:TrackPointExtension>
        </extensions>
      </trkpt>
      <trkpt lat="42.5706238858401775360107421875" lon="20.03403277136385440826416015625">
        <ele>1976.4000244140625</ele>
        <time>2026-06-15T13:12:40.000Z</time>
        <extensions>
          <ns3:TrackPointExtension>
            <ns3:atemp>23.0</ns3:atemp>
          </ns3:TrackPointExtension>
        </extensions>
      </trkpt>
      <trkpt lat="42.5706238858401775360107421875" lon="20.03403277136385440826416015625">
        <ele>1976.4000244140625</ele>
        <time>2026-06-15T13:12:41.000Z</time>
        <extensions>
          <ns3:TrackPointExtension>
            <ns3:atemp>23.0</ns3:atemp>
          </ns3:TrackPointExtension>
        </extensions>
      </trkpt>
      <trkpt lat="42.5706238858401775360107421875" lon="20.03403277136385440826416015625">
        <ele>1976.4000244140625</ele>
        <time>2026-06-15T13:12:42.000Z</time>
        <extensions>
          <ns3:TrackPointExtension>
            <ns3:atemp>23.0</ns3:atemp>
          </ns3:TrackPointExtension>
        </extensions>
      </trkpt>
      <trkpt lat="42.5706238858401775360107421875" lon="20.03403277136385440826416015625">
        <ele>1976.4000244140625</ele>
        <time>2026-06-15T13:12:43.000Z</time>
        <extensions>
          <ns3:TrackPointExtension>
            <ns3:atemp>23.0</ns3:atemp>
          </ns3:TrackPointExtension>
        </extensions>
      </trkpt>
      <trkpt lat="42.5706238858401775360107421875" lon="20.03403277136385440826416015625">
        <ele>1976.4000244140625</ele>
        <time>2026-06-15T13:12:44.000Z</time>
        <extensions>
          <ns3:TrackPointExtension>
            <ns3:atemp>23.0</ns3:atemp>
          </ns3:TrackPointExtension>
        </extensions>
      </trkpt>
      <trkpt lat="42.5706238858401775360107421875" lon="20.03403277136385440826416015625">
        <ele>1976.4000244140625</ele>
        <time>2026-06-15T13:12:45.000Z</time>
        <extensions>
          <ns3:TrackPointExtension>
            <ns3:atemp>23.0</ns3:atemp>
          </ns3:TrackPointExtension>
        </extensions>
      </trkpt>
      <trkpt lat="42.5706238858401775360107421875" lon="20.03403277136385440826416015625">
        <ele>1976.4000244140625</ele>
        <time>2026-06-15T13:12:46.000Z</time>
        <extensions>
          <ns3:TrackPointExtension>
            <ns3:atemp>23.0</ns3:atemp>
          </ns3:TrackPointExtension>
        </extensions>
      </trkpt>
      <trkpt lat="42.5706238858401775360107421875" lon="20.03403277136385440826416015625">
        <ele>1976.4000244140625</ele>
        <time>2026-06-15T13:12:47.000Z</time>
        <extensions>
          <ns3:TrackPointExtension>
            <ns3:atemp>23.0</ns3:atemp>
          </ns3:TrackPointExtension>
        </extensions>
      </trkpt>
      <trkpt lat="42.5706238858401775360107421875" lon="20.03403277136385440826416015625">
        <ele>1976.4000244140625</ele>
        <time>2026-06-15T13:12:48.000Z</time>
        <extensions>
          <ns3:TrackPointExtension>
            <ns3:atemp>23.0</ns3:atemp>
          </ns3:TrackPointExtension>
        </extensions>
      </trkpt>
      <trkpt lat="42.5706238858401775360107421875" lon="20.03403277136385440826416015625">
        <ele>1976.4000244140625</ele>
        <time>2026-06-15T13:12:49.000Z</time>
        <extensions>
          <ns3:TrackPointExtension>
            <ns3:atemp>23.0</ns3:atemp>
          </ns3:TrackPointExtension>
        </extensions>
      </trkpt>
      <trkpt lat="42.5706238858401775360107421875" lon="20.03403277136385440826416015625">
        <ele>1976.4000244140625</ele>
        <time>2026-06-15T13:12:50.000Z</time>
        <extensions>
          <ns3:TrackPointExtension>
            <ns3:atemp>23.0</ns3:atemp>
          </ns3:TrackPointExtension>
        </extensions>
      </trkpt>
      <trkpt lat="42.5706238858401775360107421875" lon="20.03403277136385440826416015625">
        <ele>1976.4000244140625</ele>
        <time>2026-06-15T13:12:51.000Z</time>
        <extensions>
          <ns3:TrackPointExtension>
            <ns3:atemp>23.0</ns3:atemp>
          </ns3:TrackPointExtension>
        </extensions>
      </trkpt>
      <trkpt lat="42.5706238858401775360107421875" lon="20.03403277136385440826416015625">
        <ele>1976.5999755859375</ele>
        <time>2026-06-15T13:12:52.000Z</time>
        <extensions>
          <ns3:TrackPointExtension>
            <ns3:atemp>23.0</ns3:atemp>
          </ns3:TrackPointExtension>
        </extensions>
      </trkpt>
      <trkpt lat="42.5706238858401775360107421875" lon="20.03403277136385440826416015625">
        <ele>1976.5999755859375</ele>
        <time>2026-06-15T13:12:53.000Z</time>
        <extensions>
          <ns3:TrackPointExtension>
            <ns3:atemp>23.0</ns3:atemp>
          </ns3:TrackPointExtension>
        </extensions>
      </trkpt>
      <trkpt lat="42.5706238858401775360107421875" lon="20.03403277136385440826416015625">
        <ele>1976.5999755859375</ele>
        <time>2026-06-15T13:12:54.000Z</time>
        <extensions>
          <ns3:TrackPointExtension>
            <ns3:atemp>23.0</ns3:atemp>
          </ns3:TrackPointExtension>
        </extensions>
      </trkpt>
      <trkpt lat="42.5706238858401775360107421875" lon="20.03403277136385440826416015625">
        <ele>1976.5999755859375</ele>
        <time>2026-06-15T13:12:55.000Z</time>
        <extensions>
          <ns3:TrackPointExtension>
            <ns3:atemp>23.0</ns3:atemp>
          </ns3:TrackPointExtension>
        </extensions>
      </trkpt>
      <trkpt lat="42.5706238858401775360107421875" lon="20.03403277136385440826416015625">
        <ele>1976.5999755859375</ele>
        <time>2026-06-15T13:12:56.000Z</time>
        <extensions>
          <ns3:TrackPointExtension>
            <ns3:atemp>23.0</ns3:atemp>
          </ns3:TrackPointExtension>
        </extensions>
      </trkpt>
      <trkpt lat="42.5706238858401775360107421875" lon="20.03403277136385440826416015625">
        <ele>1976.5999755859375</ele>
        <time>2026-06-15T13:12:57.000Z</time>
        <extensions>
          <ns3:TrackPointExtension>
            <ns3:atemp>23.0</ns3:atemp>
          </ns3:TrackPointExtension>
        </extensions>
      </trkpt>
      <trkpt lat="42.5706238858401775360107421875" lon="20.03403277136385440826416015625">
        <ele>1976.5999755859375</ele>
        <time>2026-06-15T13:12:58.000Z</time>
        <extensions>
          <ns3:TrackPointExtension>
            <ns3:atemp>23.0</ns3:atemp>
          </ns3:TrackPointExtension>
        </extensions>
      </trkpt>
      <trkpt lat="42.5706238858401775360107421875" lon="20.03403277136385440826416015625">
        <ele>1976.5999755859375</ele>
        <time>2026-06-15T13:12:59.000Z</time>
        <extensions>
          <ns3:TrackPointExtension>
            <ns3:atemp>23.0</ns3:atemp>
          </ns3:TrackPointExtension>
        </extensions>
      </trkpt>
      <trkpt lat="42.5706238858401775360107421875" lon="20.03403277136385440826416015625">
        <ele>1976.5999755859375</ele>
        <time>2026-06-15T13:13:00.000Z</time>
        <extensions>
          <ns3:TrackPointExtension>
            <ns3:atemp>23.0</ns3:atemp>
          </ns3:TrackPointExtension>
        </extensions>
      </trkpt>
      <trkpt lat="42.5706238858401775360107421875" lon="20.03403277136385440826416015625">
        <ele>1976.800048828125</ele>
        <time>2026-06-15T13:13:01.000Z</time>
        <extensions>
          <ns3:TrackPointExtension>
            <ns3:atemp>23.0</ns3:atemp>
          </ns3:TrackPointExtension>
        </extensions>
      </trkpt>
      <trkpt lat="42.5706238858401775360107421875" lon="20.03403277136385440826416015625">
        <ele>1976.800048828125</ele>
        <time>2026-06-15T13:13:02.000Z</time>
        <extensions>
          <ns3:TrackPointExtension>
            <ns3:atemp>23.0</ns3:atemp>
          </ns3:TrackPointExtension>
        </extensions>
      </trkpt>
      <trkpt lat="42.5706238858401775360107421875" lon="20.03403277136385440826416015625">
        <ele>1976.800048828125</ele>
        <time>2026-06-15T13:13:03.000Z</time>
        <extensions>
          <ns3:TrackPointExtension>
            <ns3:atemp>23.0</ns3:atemp>
          </ns3:TrackPointExtension>
        </extensions>
      </trkpt>
      <trkpt lat="42.5706238858401775360107421875" lon="20.03403277136385440826416015625">
        <ele>1976.800048828125</ele>
        <time>2026-06-15T13:13:04.000Z</time>
        <extensions>
          <ns3:TrackPointExtension>
            <ns3:atemp>23.0</ns3:atemp>
          </ns3:TrackPointExtension>
        </extensions>
      </trkpt>
      <trkpt lat="42.5706238858401775360107421875" lon="20.03403277136385440826416015625">
        <ele>1976.800048828125</ele>
        <time>2026-06-15T13:13:05.000Z</time>
        <extensions>
          <ns3:TrackPointExtension>
            <ns3:atemp>23.0</ns3:atemp>
          </ns3:TrackPointExtension>
        </extensions>
      </trkpt>
      <trkpt lat="42.5706238858401775360107421875" lon="20.03403277136385440826416015625">
        <ele>1976.800048828125</ele>
        <time>2026-06-15T13:13:06.000Z</time>
        <extensions>
          <ns3:TrackPointExtension>
            <ns3:atemp>23.0</ns3:atemp>
          </ns3:TrackPointExtension>
        </extensions>
      </trkpt>
      <trkpt lat="42.5706238858401775360107421875" lon="20.03403277136385440826416015625">
        <ele>1976.800048828125</ele>
        <time>2026-06-15T13:13:07.000Z</time>
        <extensions>
          <ns3:TrackPointExtension>
            <ns3:atemp>23.0</ns3:atemp>
          </ns3:TrackPointExtension>
        </extensions>
      </trkpt>
      <trkpt lat="42.5706238858401775360107421875" lon="20.03403277136385440826416015625">
        <ele>1976.800048828125</ele>
        <time>2026-06-15T13:13:08.000Z</time>
        <extensions>
          <ns3:TrackPointExtension>
            <ns3:atemp>23.0</ns3:atemp>
          </ns3:TrackPointExtension>
        </extensions>
      </trkpt>
      <trkpt lat="42.5706238858401775360107421875" lon="20.03403277136385440826416015625">
        <ele>1976.800048828125</ele>
        <time>2026-06-15T13:13:09.000Z</time>
        <extensions>
          <ns3:TrackPointExtension>
            <ns3:atemp>23.0</ns3:atemp>
          </ns3:TrackPointExtension>
        </extensions>
      </trkpt>
      <trkpt lat="42.5706238858401775360107421875" lon="20.03403277136385440826416015625">
        <ele>1976.800048828125</ele>
        <time>2026-06-15T13:13:10.000Z</time>
        <extensions>
          <ns3:TrackPointExtension>
            <ns3:atemp>23.0</ns3:atemp>
          </ns3:TrackPointExtension>
        </extensions>
      </trkpt>
      <trkpt lat="42.5706238858401775360107421875" lon="20.03403277136385440826416015625">
        <ele>1976.800048828125</ele>
        <time>2026-06-15T13:13:11.000Z</time>
        <extensions>
          <ns3:TrackPointExtension>
            <ns3:atemp>23.0</ns3:atemp>
          </ns3:TrackPointExtension>
        </extensions>
      </trkpt>
      <trkpt lat="42.5706238858401775360107421875" lon="20.03403277136385440826416015625">
        <ele>1976.800048828125</ele>
        <time>2026-06-15T13:13:12.000Z</time>
        <extensions>
          <ns3:TrackPointExtension>
            <ns3:atemp>23.0</ns3:atemp>
          </ns3:TrackPointExtension>
        </extensions>
      </trkpt>
      <trkpt lat="42.5706238858401775360107421875" lon="20.03403277136385440826416015625">
        <ele>1976.800048828125</ele>
        <time>2026-06-15T13:13:13.000Z</time>
        <extensions>
          <ns3:TrackPointExtension>
            <ns3:atemp>23.0</ns3:atemp>
          </ns3:TrackPointExtension>
        </extensions>
      </trkpt>
      <trkpt lat="42.5706238858401775360107421875" lon="20.03403277136385440826416015625">
        <ele>1976.800048828125</ele>
        <time>2026-06-15T13:13:14.000Z</time>
        <extensions>
          <ns3:TrackPointExtension>
            <ns3:atemp>23.0</ns3:atemp>
          </ns3:TrackPointExtension>
        </extensions>
      </trkpt>
      <trkpt lat="42.5706238858401775360107421875" lon="20.03403277136385440826416015625">
        <ele>1976.800048828125</ele>
        <time>2026-06-15T13:13:15.000Z</time>
        <extensions>
          <ns3:TrackPointExtension>
            <ns3:atemp>23.0</ns3:atemp>
          </ns3:TrackPointExtension>
        </extensions>
      </trkpt>
      <trkpt lat="42.5706238858401775360107421875" lon="20.03403277136385440826416015625">
        <ele>1976.800048828125</ele>
        <time>2026-06-15T13:13:16.000Z</time>
        <extensions>
          <ns3:TrackPointExtension>
            <ns3:atemp>23.0</ns3:atemp>
          </ns3:TrackPointExtension>
        </extensions>
      </trkpt>
      <trkpt lat="42.5706238858401775360107421875" lon="20.03403277136385440826416015625">
        <ele>1976.800048828125</ele>
        <time>2026-06-15T13:13:17.000Z</time>
        <extensions>
          <ns3:TrackPointExtension>
            <ns3:atemp>23.0</ns3:atemp>
          </ns3:TrackPointExtension>
        </extensions>
      </trkpt>
      <trkpt lat="42.5706238858401775360107421875" lon="20.03403277136385440826416015625">
        <ele>1976.800048828125</ele>
        <time>2026-06-15T13:13:18.000Z</time>
        <extensions>
          <ns3:TrackPointExtension>
            <ns3:atemp>23.0</ns3:atemp>
          </ns3:TrackPointExtension>
        </extensions>
      </trkpt>
      <trkpt lat="42.5706238858401775360107421875" lon="20.03403277136385440826416015625">
        <ele>1976.800048828125</ele>
        <time>2026-06-15T13:13:19.000Z</time>
        <extensions>
          <ns3:TrackPointExtension>
            <ns3:atemp>23.0</ns3:atemp>
          </ns3:TrackPointExtension>
        </extensions>
      </trkpt>
      <trkpt lat="42.5706238858401775360107421875" lon="20.03403277136385440826416015625">
        <ele>1976.800048828125</ele>
        <time>2026-06-15T13:13:20.000Z</time>
        <extensions>
          <ns3:TrackPointExtension>
            <ns3:atemp>23.0</ns3:atemp>
          </ns3:TrackPointExtension>
        </extensions>
      </trkpt>
      <trkpt lat="42.5706238858401775360107421875" lon="20.03403277136385440826416015625">
        <ele>1976.800048828125</ele>
        <time>2026-06-15T13:13:21.000Z</time>
        <extensions>
          <ns3:TrackPointExtension>
            <ns3:atemp>23.0</ns3:atemp>
          </ns3:TrackPointExtension>
        </extensions>
      </trkpt>
      <trkpt lat="42.5706238858401775360107421875" lon="20.03403277136385440826416015625">
        <ele>1976.800048828125</ele>
        <time>2026-06-15T13:13:22.000Z</time>
        <extensions>
          <ns3:TrackPointExtension>
            <ns3:atemp>23.0</ns3:atemp>
          </ns3:TrackPointExtension>
        </extensions>
      </trkpt>
      <trkpt lat="42.5706238858401775360107421875" lon="20.03403277136385440826416015625">
        <ele>1976.800048828125</ele>
        <time>2026-06-15T13:13:23.000Z</time>
        <extensions>
          <ns3:TrackPointExtension>
            <ns3:atemp>23.0</ns3:atemp>
          </ns3:TrackPointExtension>
        </extensions>
      </trkpt>
      <trkpt lat="42.5706238858401775360107421875" lon="20.03403277136385440826416015625">
        <ele>1976.800048828125</ele>
        <time>2026-06-15T13:13:24.000Z</time>
        <extensions>
          <ns3:TrackPointExtension>
            <ns3:atemp>23.0</ns3:atemp>
          </ns3:TrackPointExtension>
        </extensions>
      </trkpt>
      <trkpt lat="42.5706238858401775360107421875" lon="20.03403277136385440826416015625">
        <ele>1976.800048828125</ele>
        <time>2026-06-15T13:13:25.000Z</time>
        <extensions>
          <ns3:TrackPointExtension>
            <ns3:atemp>23.0</ns3:atemp>
          </ns3:TrackPointExtension>
        </extensions>
      </trkpt>
      <trkpt lat="42.5706238858401775360107421875" lon="20.03403277136385440826416015625">
        <ele>1976.800048828125</ele>
        <time>2026-06-15T13:13:26.000Z</time>
        <extensions>
          <ns3:TrackPointExtension>
            <ns3:atemp>23.0</ns3:atemp>
          </ns3:TrackPointExtension>
        </extensions>
      </trkpt>
      <trkpt lat="42.5706238858401775360107421875" lon="20.03403277136385440826416015625">
        <ele>1976.800048828125</ele>
        <time>2026-06-15T13:13:27.000Z</time>
        <extensions>
          <ns3:TrackPointExtension>
            <ns3:atemp>23.0</ns3:atemp>
          </ns3:TrackPointExtension>
        </extensions>
      </trkpt>
      <trkpt lat="42.5706238858401775360107421875" lon="20.03403277136385440826416015625">
        <ele>1976.800048828125</ele>
        <time>2026-06-15T13:13:28.000Z</time>
        <extensions>
          <ns3:TrackPointExtension>
            <ns3:atemp>23.0</ns3:atemp>
          </ns3:TrackPointExtension>
        </extensions>
      </trkpt>
      <trkpt lat="42.5706238858401775360107421875" lon="20.03403277136385440826416015625">
        <ele>1976.800048828125</ele>
        <time>2026-06-15T13:13:29.000Z</time>
        <extensions>
          <ns3:TrackPointExtension>
            <ns3:atemp>23.0</ns3:atemp>
          </ns3:TrackPointExtension>
        </extensions>
      </trkpt>
      <trkpt lat="42.5706238858401775360107421875" lon="20.03403277136385440826416015625">
        <ele>1976.800048828125</ele>
        <time>2026-06-15T13:13:30.000Z</time>
        <extensions>
          <ns3:TrackPointExtension>
            <ns3:atemp>23.0</ns3:atemp>
          </ns3:TrackPointExtension>
        </extensions>
      </trkpt>
      <trkpt lat="42.5706238858401775360107421875" lon="20.03403277136385440826416015625">
        <ele>1977</ele>
        <time>2026-06-15T13:13:31.000Z</time>
        <extensions>
          <ns3:TrackPointExtension>
            <ns3:atemp>23.0</ns3:atemp>
          </ns3:TrackPointExtension>
        </extensions>
      </trkpt>
      <trkpt lat="42.5706238858401775360107421875" lon="20.03403277136385440826416015625">
        <ele>1977</ele>
        <time>2026-06-15T13:13:32.000Z</time>
        <extensions>
          <ns3:TrackPointExtension>
            <ns3:atemp>23.0</ns3:atemp>
          </ns3:TrackPointExtension>
        </extensions>
      </trkpt>
      <trkpt lat="42.5706238858401775360107421875" lon="20.03403277136385440826416015625">
        <ele>1977</ele>
        <time>2026-06-15T13:13:33.000Z</time>
        <extensions>
          <ns3:TrackPointExtension>
            <ns3:atemp>23.0</ns3:atemp>
          </ns3:TrackPointExtension>
        </extensions>
      </trkpt>
      <trkpt lat="42.5706238858401775360107421875" lon="20.03403277136385440826416015625">
        <ele>1977</ele>
        <time>2026-06-15T13:13:34.000Z</time>
        <extensions>
          <ns3:TrackPointExtension>
            <ns3:atemp>23.0</ns3:atemp>
          </ns3:TrackPointExtension>
        </extensions>
      </trkpt>
      <trkpt lat="42.5706238858401775360107421875" lon="20.03403277136385440826416015625">
        <ele>1977</ele>
        <time>2026-06-15T13:13:35.000Z</time>
        <extensions>
          <ns3:TrackPointExtension>
            <ns3:atemp>23.0</ns3:atemp>
          </ns3:TrackPointExtension>
        </extensions>
      </trkpt>
      <trkpt lat="42.5706238858401775360107421875" lon="20.03403277136385440826416015625">
        <ele>1977</ele>
        <time>2026-06-15T13:13:36.000Z</time>
        <extensions>
          <ns3:TrackPointExtension>
            <ns3:atemp>23.0</ns3:atemp>
          </ns3:TrackPointExtension>
        </extensions>
      </trkpt>
      <trkpt lat="42.5706238858401775360107421875" lon="20.03403277136385440826416015625">
        <ele>1977</ele>
        <time>2026-06-15T13:13:37.000Z</time>
        <extensions>
          <ns3:TrackPointExtension>
            <ns3:atemp>23.0</ns3:atemp>
          </ns3:TrackPointExtension>
        </extensions>
      </trkpt>
      <trkpt lat="42.5706238858401775360107421875" lon="20.03403277136385440826416015625">
        <ele>1977</ele>
        <time>2026-06-15T13:13:38.000Z</time>
        <extensions>
          <ns3:TrackPointExtension>
            <ns3:atemp>23.0</ns3:atemp>
          </ns3:TrackPointExtension>
        </extensions>
      </trkpt>
      <trkpt lat="42.5706238858401775360107421875" lon="20.03403277136385440826416015625">
        <ele>1977</ele>
        <time>2026-06-15T13:13:39.000Z</time>
        <extensions>
          <ns3:TrackPointExtension>
            <ns3:atemp>23.0</ns3:atemp>
          </ns3:TrackPointExtension>
        </extensions>
      </trkpt>
      <trkpt lat="42.5706238858401775360107421875" lon="20.03403277136385440826416015625">
        <ele>1977</ele>
        <time>2026-06-15T13:13:40.000Z</time>
        <extensions>
          <ns3:TrackPointExtension>
            <ns3:atemp>23.0</ns3:atemp>
          </ns3:TrackPointExtension>
        </extensions>
      </trkpt>
      <trkpt lat="42.5706238858401775360107421875" lon="20.03403277136385440826416015625">
        <ele>1977</ele>
        <time>2026-06-15T13:13:41.000Z</time>
        <extensions>
          <ns3:TrackPointExtension>
            <ns3:atemp>23.0</ns3:atemp>
          </ns3:TrackPointExtension>
        </extensions>
      </trkpt>
      <trkpt lat="42.5706238858401775360107421875" lon="20.03403277136385440826416015625">
        <ele>1977</ele>
        <time>2026-06-15T13:13:42.000Z</time>
        <extensions>
          <ns3:TrackPointExtension>
            <ns3:atemp>23.0</ns3:atemp>
          </ns3:TrackPointExtension>
        </extensions>
      </trkpt>
      <trkpt lat="42.5706238858401775360107421875" lon="20.03403277136385440826416015625">
        <ele>1977</ele>
        <time>2026-06-15T13:13:43.000Z</time>
        <extensions>
          <ns3:TrackPointExtension>
            <ns3:atemp>24.0</ns3:atemp>
          </ns3:TrackPointExtension>
        </extensions>
      </trkpt>
      <trkpt lat="42.5706238858401775360107421875" lon="20.03403277136385440826416015625">
        <ele>1977</ele>
        <time>2026-06-15T13:13:44.000Z</time>
        <extensions>
          <ns3:TrackPointExtension>
            <ns3:atemp>24.0</ns3:atemp>
          </ns3:TrackPointExtension>
        </extensions>
      </trkpt>
      <trkpt lat="42.5706238858401775360107421875" lon="20.03403277136385440826416015625">
        <ele>1977</ele>
        <time>2026-06-15T13:13:45.000Z</time>
        <extensions>
          <ns3:TrackPointExtension>
            <ns3:atemp>24.0</ns3:atemp>
          </ns3:TrackPointExtension>
        </extensions>
      </trkpt>
      <trkpt lat="42.5706238858401775360107421875" lon="20.03403277136385440826416015625">
        <ele>1977</ele>
        <time>2026-06-15T13:13:46.000Z</time>
        <extensions>
          <ns3:TrackPointExtension>
            <ns3:atemp>24.0</ns3:atemp>
          </ns3:TrackPointExtension>
        </extensions>
      </trkpt>
      <trkpt lat="42.5706238858401775360107421875" lon="20.03403277136385440826416015625">
        <ele>1977</ele>
        <time>2026-06-15T13:13:47.000Z</time>
        <extensions>
          <ns3:TrackPointExtension>
            <ns3:atemp>24.0</ns3:atemp>
          </ns3:TrackPointExtension>
        </extensions>
      </trkpt>
      <trkpt lat="42.5706238858401775360107421875" lon="20.03403277136385440826416015625">
        <ele>1977</ele>
        <time>2026-06-15T13:13:48.000Z</time>
        <extensions>
          <ns3:TrackPointExtension>
            <ns3:atemp>24.0</ns3:atemp>
          </ns3:TrackPointExtension>
        </extensions>
      </trkpt>
      <trkpt lat="42.5706238858401775360107421875" lon="20.03403277136385440826416015625">
        <ele>1977</ele>
        <time>2026-06-15T13:13:49.000Z</time>
        <extensions>
          <ns3:TrackPointExtension>
            <ns3:atemp>24.0</ns3:atemp>
          </ns3:TrackPointExtension>
        </extensions>
      </trkpt>
      <trkpt lat="42.5706238858401775360107421875" lon="20.03403277136385440826416015625">
        <ele>1977</ele>
        <time>2026-06-15T13:13:50.000Z</time>
        <extensions>
          <ns3:TrackPointExtension>
            <ns3:atemp>24.0</ns3:atemp>
          </ns3:TrackPointExtension>
        </extensions>
      </trkpt>
      <trkpt lat="42.5706238858401775360107421875" lon="20.03403277136385440826416015625">
        <ele>1976.800048828125</ele>
        <time>2026-06-15T13:13:51.000Z</time>
        <extensions>
          <ns3:TrackPointExtension>
            <ns3:atemp>24.0</ns3:atemp>
          </ns3:TrackPointExtension>
        </extensions>
      </trkpt>
      <trkpt lat="42.5706238858401775360107421875" lon="20.03403277136385440826416015625">
        <ele>1976.800048828125</ele>
        <time>2026-06-15T13:13:52.000Z</time>
        <extensions>
          <ns3:TrackPointExtension>
            <ns3:atemp>24.0</ns3:atemp>
          </ns3:TrackPointExtension>
        </extensions>
      </trkpt>
      <trkpt lat="42.5706238858401775360107421875" lon="20.03403277136385440826416015625">
        <ele>1976.800048828125</ele>
        <time>2026-06-15T13:13:53.000Z</time>
        <extensions>
          <ns3:TrackPointExtension>
            <ns3:atemp>24.0</ns3:atemp>
          </ns3:TrackPointExtension>
        </extensions>
      </trkpt>
      <trkpt lat="42.5706238858401775360107421875" lon="20.03403277136385440826416015625">
        <ele>1976.800048828125</ele>
        <time>2026-06-15T13:13:54.000Z</time>
        <extensions>
          <ns3:TrackPointExtension>
            <ns3:atemp>24.0</ns3:atemp>
          </ns3:TrackPointExtension>
        </extensions>
      </trkpt>
      <trkpt lat="42.5706238858401775360107421875" lon="20.03403277136385440826416015625">
        <ele>1976.800048828125</ele>
        <time>2026-06-15T13:13:55.000Z</time>
        <extensions>
          <ns3:TrackPointExtension>
            <ns3:atemp>24.0</ns3:atemp>
          </ns3:TrackPointExtension>
        </extensions>
      </trkpt>
      <trkpt lat="42.5706238858401775360107421875" lon="20.03403277136385440826416015625">
        <ele>1976.800048828125</ele>
        <time>2026-06-15T13:13:56.000Z</time>
        <extensions>
          <ns3:TrackPointExtension>
            <ns3:atemp>24.0</ns3:atemp>
          </ns3:TrackPointExtension>
        </extensions>
      </trkpt>
      <trkpt lat="42.5706238858401775360107421875" lon="20.03403277136385440826416015625">
        <ele>1976.800048828125</ele>
        <time>2026-06-15T13:13:57.000Z</time>
        <extensions>
          <ns3:TrackPointExtension>
            <ns3:atemp>24.0</ns3:atemp>
          </ns3:TrackPointExtension>
        </extensions>
      </trkpt>
      <trkpt lat="42.5706238858401775360107421875" lon="20.03403277136385440826416015625">
        <ele>1976.800048828125</ele>
        <time>2026-06-15T13:13:58.000Z</time>
        <extensions>
          <ns3:TrackPointExtension>
            <ns3:atemp>24.0</ns3:atemp>
          </ns3:TrackPointExtension>
        </extensions>
      </trkpt>
      <trkpt lat="42.5706238858401775360107421875" lon="20.03403277136385440826416015625">
        <ele>1976.800048828125</ele>
        <time>2026-06-15T13:13:59.000Z</time>
        <extensions>
          <ns3:TrackPointExtension>
            <ns3:atemp>24.0</ns3:atemp>
          </ns3:TrackPointExtension>
        </extensions>
      </trkpt>
      <trkpt lat="42.5706238858401775360107421875" lon="20.03403277136385440826416015625">
        <ele>1976.800048828125</ele>
        <time>2026-06-15T13:14:00.000Z</time>
        <extensions>
          <ns3:TrackPointExtension>
            <ns3:atemp>24.0</ns3:atemp>
          </ns3:TrackPointExtension>
        </extensions>
      </trkpt>
      <trkpt lat="42.5706238858401775360107421875" lon="20.03403277136385440826416015625">
        <ele>1976.800048828125</ele>
        <time>2026-06-15T13:14:01.000Z</time>
        <extensions>
          <ns3:TrackPointExtension>
            <ns3:atemp>24.0</ns3:atemp>
          </ns3:TrackPointExtension>
        </extensions>
      </trkpt>
      <trkpt lat="42.5706238858401775360107421875" lon="20.03403277136385440826416015625">
        <ele>1976.800048828125</ele>
        <time>2026-06-15T13:14:02.000Z</time>
        <extensions>
          <ns3:TrackPointExtension>
            <ns3:atemp>24.0</ns3:atemp>
          </ns3:TrackPointExtension>
        </extensions>
      </trkpt>
      <trkpt lat="42.5706238858401775360107421875" lon="20.03403277136385440826416015625">
        <ele>1976.800048828125</ele>
        <time>2026-06-15T13:14:03.000Z</time>
        <extensions>
          <ns3:TrackPointExtension>
            <ns3:atemp>24.0</ns3:atemp>
          </ns3:TrackPointExtension>
        </extensions>
      </trkpt>
      <trkpt lat="42.5706238858401775360107421875" lon="20.03403277136385440826416015625">
        <ele>1976.800048828125</ele>
        <time>2026-06-15T13:14:04.000Z</time>
        <extensions>
          <ns3:TrackPointExtension>
            <ns3:atemp>24.0</ns3:atemp>
          </ns3:TrackPointExtension>
        </extensions>
      </trkpt>
      <trkpt lat="42.5706238858401775360107421875" lon="20.03403277136385440826416015625">
        <ele>1976.800048828125</ele>
        <time>2026-06-15T13:14:05.000Z</time>
        <extensions>
          <ns3:TrackPointExtension>
            <ns3:atemp>24.0</ns3:atemp>
          </ns3:TrackPointExtension>
        </extensions>
      </trkpt>
      <trkpt lat="42.5706238858401775360107421875" lon="20.03403277136385440826416015625">
        <ele>1976.800048828125</ele>
        <time>2026-06-15T13:14:06.000Z</time>
        <extensions>
          <ns3:TrackPointExtension>
            <ns3:atemp>24.0</ns3:atemp>
          </ns3:TrackPointExtension>
        </extensions>
      </trkpt>
      <trkpt lat="42.5706238858401775360107421875" lon="20.03403277136385440826416015625">
        <ele>1976.800048828125</ele>
        <time>2026-06-15T13:14:07.000Z</time>
        <extensions>
          <ns3:TrackPointExtension>
            <ns3:atemp>24.0</ns3:atemp>
          </ns3:TrackPointExtension>
        </extensions>
      </trkpt>
      <trkpt lat="42.5706238858401775360107421875" lon="20.03403277136385440826416015625">
        <ele>1976.800048828125</ele>
        <time>2026-06-15T13:14:08.000Z</time>
        <extensions>
          <ns3:TrackPointExtension>
            <ns3:atemp>24.0</ns3:atemp>
          </ns3:TrackPointExtension>
        </extensions>
      </trkpt>
      <trkpt lat="42.5706238858401775360107421875" lon="20.03403277136385440826416015625">
        <ele>1976.800048828125</ele>
        <time>2026-06-15T13:14:09.000Z</time>
        <extensions>
          <ns3:TrackPointExtension>
            <ns3:atemp>24.0</ns3:atemp>
          </ns3:TrackPointExtension>
        </extensions>
      </trkpt>
      <trkpt lat="42.5706238858401775360107421875" lon="20.03403277136385440826416015625">
        <ele>1976.800048828125</ele>
        <time>2026-06-15T13:14:10.000Z</time>
        <extensions>
          <ns3:TrackPointExtension>
            <ns3:atemp>24.0</ns3:atemp>
          </ns3:TrackPointExtension>
        </extensions>
      </trkpt>
      <trkpt lat="42.5706238858401775360107421875" lon="20.03403277136385440826416015625">
        <ele>1976.800048828125</ele>
        <time>2026-06-15T13:14:11.000Z</time>
        <extensions>
          <ns3:TrackPointExtension>
            <ns3:atemp>24.0</ns3:atemp>
          </ns3:TrackPointExtension>
        </extensions>
      </trkpt>
      <trkpt lat="42.5706238858401775360107421875" lon="20.03403277136385440826416015625">
        <ele>1976.800048828125</ele>
        <time>2026-06-15T13:14:12.000Z</time>
        <extensions>
          <ns3:TrackPointExtension>
            <ns3:atemp>24.0</ns3:atemp>
          </ns3:TrackPointExtension>
        </extensions>
      </trkpt>
      <trkpt lat="42.5706238858401775360107421875" lon="20.03403277136385440826416015625">
        <ele>1976.800048828125</ele>
        <time>2026-06-15T13:14:13.000Z</time>
        <extensions>
          <ns3:TrackPointExtension>
            <ns3:atemp>24.0</ns3:atemp>
          </ns3:TrackPointExtension>
        </extensions>
      </trkpt>
      <trkpt lat="42.5706238858401775360107421875" lon="20.03403277136385440826416015625">
        <ele>1976.800048828125</ele>
        <time>2026-06-15T13:14:14.000Z</time>
        <extensions>
          <ns3:TrackPointExtension>
            <ns3:atemp>24.0</ns3:atemp>
          </ns3:TrackPointExtension>
        </extensions>
      </trkpt>
      <trkpt lat="42.5706238858401775360107421875" lon="20.03403277136385440826416015625">
        <ele>1976.800048828125</ele>
        <time>2026-06-15T13:14:15.000Z</time>
        <extensions>
          <ns3:TrackPointExtension>
            <ns3:atemp>24.0</ns3:atemp>
          </ns3:TrackPointExtension>
        </extensions>
      </trkpt>
      <trkpt lat="42.5706238858401775360107421875" lon="20.03403277136385440826416015625">
        <ele>1976.800048828125</ele>
        <time>2026-06-15T13:14:16.000Z</time>
        <extensions>
          <ns3:TrackPointExtension>
            <ns3:atemp>24.0</ns3:atemp>
          </ns3:TrackPointExtension>
        </extensions>
      </trkpt>
      <trkpt lat="42.5706238858401775360107421875" lon="20.03403277136385440826416015625">
        <ele>1976.800048828125</ele>
        <time>2026-06-15T13:14:17.000Z</time>
        <extensions>
          <ns3:TrackPointExtension>
            <ns3:atemp>24.0</ns3:atemp>
          </ns3:TrackPointExtension>
        </extensions>
      </trkpt>
      <trkpt lat="42.5706238858401775360107421875" lon="20.03403277136385440826416015625">
        <ele>1976.800048828125</ele>
        <time>2026-06-15T13:14:18.000Z</time>
        <extensions>
          <ns3:TrackPointExtension>
            <ns3:atemp>24.0</ns3:atemp>
          </ns3:TrackPointExtension>
        </extensions>
      </trkpt>
      <trkpt lat="42.5706238858401775360107421875" lon="20.03403277136385440826416015625">
        <ele>1976.800048828125</ele>
        <time>2026-06-15T13:14:19.000Z</time>
        <extensions>
          <ns3:TrackPointExtension>
            <ns3:atemp>24.0</ns3:atemp>
          </ns3:TrackPointExtension>
        </extensions>
      </trkpt>
      <trkpt lat="42.5706238858401775360107421875" lon="20.03403277136385440826416015625">
        <ele>1976.800048828125</ele>
        <time>2026-06-15T13:14:20.000Z</time>
        <extensions>
          <ns3:TrackPointExtension>
            <ns3:atemp>24.0</ns3:atemp>
          </ns3:TrackPointExtension>
        </extensions>
      </trkpt>
      <trkpt lat="42.5706238858401775360107421875" lon="20.03403277136385440826416015625">
        <ele>1976.800048828125</ele>
        <time>2026-06-15T13:14:21.000Z</time>
        <extensions>
          <ns3:TrackPointExtension>
            <ns3:atemp>24.0</ns3:atemp>
          </ns3:TrackPointExtension>
        </extensions>
      </trkpt>
      <trkpt lat="42.5706238858401775360107421875" lon="20.03403277136385440826416015625">
        <ele>1976.800048828125</ele>
        <time>2026-06-15T13:14:22.000Z</time>
        <extensions>
          <ns3:TrackPointExtension>
            <ns3:atemp>24.0</ns3:atemp>
          </ns3:TrackPointExtension>
        </extensions>
      </trkpt>
      <trkpt lat="42.5706238858401775360107421875" lon="20.03403277136385440826416015625">
        <ele>1976.800048828125</ele>
        <time>2026-06-15T13:14:23.000Z</time>
        <extensions>
          <ns3:TrackPointExtension>
            <ns3:atemp>24.0</ns3:atemp>
          </ns3:TrackPointExtension>
        </extensions>
      </trkpt>
      <trkpt lat="42.5706238858401775360107421875" lon="20.03403277136385440826416015625">
        <ele>1976.800048828125</ele>
        <time>2026-06-15T13:14:24.000Z</time>
        <extensions>
          <ns3:TrackPointExtension>
            <ns3:atemp>24.0</ns3:atemp>
          </ns3:TrackPointExtension>
        </extensions>
      </trkpt>
      <trkpt lat="42.5706238858401775360107421875" lon="20.03403277136385440826416015625">
        <ele>1976.800048828125</ele>
        <time>2026-06-15T13:14:25.000Z</time>
        <extensions>
          <ns3:TrackPointExtension>
            <ns3:atemp>24.0</ns3:atemp>
          </ns3:TrackPointExtension>
        </extensions>
      </trkpt>
      <trkpt lat="42.5706238858401775360107421875" lon="20.03403277136385440826416015625">
        <ele>1976.800048828125</ele>
        <time>2026-06-15T13:14:26.000Z</time>
        <extensions>
          <ns3:TrackPointExtension>
            <ns3:atemp>24.0</ns3:atemp>
          </ns3:TrackPointExtension>
        </extensions>
      </trkpt>
      <trkpt lat="42.5706238858401775360107421875" lon="20.03403277136385440826416015625">
        <ele>1976.800048828125</ele>
        <time>2026-06-15T13:14:27.000Z</time>
        <extensions>
          <ns3:TrackPointExtension>
            <ns3:atemp>24.0</ns3:atemp>
          </ns3:TrackPointExtension>
        </extensions>
      </trkpt>
      <trkpt lat="42.5706238858401775360107421875" lon="20.03403277136385440826416015625">
        <ele>1976.800048828125</ele>
        <time>2026-06-15T13:14:28.000Z</time>
        <extensions>
          <ns3:TrackPointExtension>
            <ns3:atemp>24.0</ns3:atemp>
          </ns3:TrackPointExtension>
        </extensions>
      </trkpt>
      <trkpt lat="42.5706238858401775360107421875" lon="20.03403277136385440826416015625">
        <ele>1976.800048828125</ele>
        <time>2026-06-15T13:14:29.000Z</time>
        <extensions>
          <ns3:TrackPointExtension>
            <ns3:atemp>24.0</ns3:atemp>
          </ns3:TrackPointExtension>
        </extensions>
      </trkpt>
      <trkpt lat="42.5706238858401775360107421875" lon="20.03403277136385440826416015625">
        <ele>1976.800048828125</ele>
        <time>2026-06-15T13:14:30.000Z</time>
        <extensions>
          <ns3:TrackPointExtension>
            <ns3:atemp>24.0</ns3:atemp>
          </ns3:TrackPointExtension>
        </extensions>
      </trkpt>
      <trkpt lat="42.5706238858401775360107421875" lon="20.03403277136385440826416015625">
        <ele>1976.800048828125</ele>
        <time>2026-06-15T13:14:31.000Z</time>
        <extensions>
          <ns3:TrackPointExtension>
            <ns3:atemp>24.0</ns3:atemp>
          </ns3:TrackPointExtension>
        </extensions>
      </trkpt>
      <trkpt lat="42.5706238858401775360107421875" lon="20.03403277136385440826416015625">
        <ele>1976.800048828125</ele>
        <time>2026-06-15T13:14:32.000Z</time>
        <extensions>
          <ns3:TrackPointExtension>
            <ns3:atemp>24.0</ns3:atemp>
          </ns3:TrackPointExtension>
        </extensions>
      </trkpt>
      <trkpt lat="42.5706238858401775360107421875" lon="20.03403277136385440826416015625">
        <ele>1976.800048828125</ele>
        <time>2026-06-15T13:14:33.000Z</time>
        <extensions>
          <ns3:TrackPointExtension>
            <ns3:atemp>24.0</ns3:atemp>
          </ns3:TrackPointExtension>
        </extensions>
      </trkpt>
      <trkpt lat="42.5706238858401775360107421875" lon="20.03403277136385440826416015625">
        <ele>1976.800048828125</ele>
        <time>2026-06-15T13:14:34.000Z</time>
        <extensions>
          <ns3:TrackPointExtension>
            <ns3:atemp>24.0</ns3:atemp>
          </ns3:TrackPointExtension>
        </extensions>
      </trkpt>
      <trkpt lat="42.5706238858401775360107421875" lon="20.03403277136385440826416015625">
        <ele>1976.800048828125</ele>
        <time>2026-06-15T13:14:35.000Z</time>
        <extensions>
          <ns3:TrackPointExtension>
            <ns3:atemp>24.0</ns3:atemp>
          </ns3:TrackPointExtension>
        </extensions>
      </trkpt>
      <trkpt lat="42.5706238858401775360107421875" lon="20.03403277136385440826416015625">
        <ele>1976.800048828125</ele>
        <time>2026-06-15T13:14:36.000Z</time>
        <extensions>
          <ns3:TrackPointExtension>
            <ns3:atemp>24.0</ns3:atemp>
          </ns3:TrackPointExtension>
        </extensions>
      </trkpt>
      <trkpt lat="42.5706238858401775360107421875" lon="20.03403277136385440826416015625">
        <ele>1976.800048828125</ele>
        <time>2026-06-15T13:14:37.000Z</time>
        <extensions>
          <ns3:TrackPointExtension>
            <ns3:atemp>24.0</ns3:atemp>
          </ns3:TrackPointExtension>
        </extensions>
      </trkpt>
      <trkpt lat="42.5706238858401775360107421875" lon="20.03403277136385440826416015625">
        <ele>1976.800048828125</ele>
        <time>2026-06-15T13:14:38.000Z</time>
        <extensions>
          <ns3:TrackPointExtension>
            <ns3:atemp>24.0</ns3:atemp>
          </ns3:TrackPointExtension>
        </extensions>
      </trkpt>
      <trkpt lat="42.5706238858401775360107421875" lon="20.03403277136385440826416015625">
        <ele>1976.800048828125</ele>
        <time>2026-06-15T13:14:39.000Z</time>
        <extensions>
          <ns3:TrackPointExtension>
            <ns3:atemp>24.0</ns3:atemp>
          </ns3:TrackPointExtension>
        </extensions>
      </trkpt>
      <trkpt lat="42.5706238858401775360107421875" lon="20.03403277136385440826416015625">
        <ele>1976.800048828125</ele>
        <time>2026-06-15T13:14:40.000Z</time>
        <extensions>
          <ns3:TrackPointExtension>
            <ns3:atemp>24.0</ns3:atemp>
          </ns3:TrackPointExtension>
        </extensions>
      </trkpt>
      <trkpt lat="42.5706238858401775360107421875" lon="20.03403277136385440826416015625">
        <ele>1976.800048828125</ele>
        <time>2026-06-15T13:14:41.000Z</time>
        <extensions>
          <ns3:TrackPointExtension>
            <ns3:atemp>24.0</ns3:atemp>
          </ns3:TrackPointExtension>
        </extensions>
      </trkpt>
      <trkpt lat="42.5706238858401775360107421875" lon="20.03403277136385440826416015625">
        <ele>1976.800048828125</ele>
        <time>2026-06-15T13:14:42.000Z</time>
        <extensions>
          <ns3:TrackPointExtension>
            <ns3:atemp>24.0</ns3:atemp>
          </ns3:TrackPointExtension>
        </extensions>
      </trkpt>
      <trkpt lat="42.5706238858401775360107421875" lon="20.03403277136385440826416015625">
        <ele>1976.800048828125</ele>
        <time>2026-06-15T13:14:43.000Z</time>
        <extensions>
          <ns3:TrackPointExtension>
            <ns3:atemp>24.0</ns3:atemp>
          </ns3:TrackPointExtension>
        </extensions>
      </trkpt>
      <trkpt lat="42.5706238858401775360107421875" lon="20.03403277136385440826416015625">
        <ele>1976.800048828125</ele>
        <time>2026-06-15T13:14:44.000Z</time>
        <extensions>
          <ns3:TrackPointExtension>
            <ns3:atemp>24.0</ns3:atemp>
          </ns3:TrackPointExtension>
        </extensions>
      </trkpt>
      <trkpt lat="42.5706238858401775360107421875" lon="20.03403277136385440826416015625">
        <ele>1976.800048828125</ele>
        <time>2026-06-15T13:14:45.000Z</time>
        <extensions>
          <ns3:TrackPointExtension>
            <ns3:atemp>24.0</ns3:atemp>
          </ns3:TrackPointExtension>
        </extensions>
      </trkpt>
      <trkpt lat="42.5706238858401775360107421875" lon="20.03403277136385440826416015625">
        <ele>1976.800048828125</ele>
        <time>2026-06-15T13:14:46.000Z</time>
        <extensions>
          <ns3:TrackPointExtension>
            <ns3:atemp>24.0</ns3:atemp>
          </ns3:TrackPointExtension>
        </extensions>
      </trkpt>
      <trkpt lat="42.5706238858401775360107421875" lon="20.03403277136385440826416015625">
        <ele>1976.800048828125</ele>
        <time>2026-06-15T13:14:47.000Z</time>
        <extensions>
          <ns3:TrackPointExtension>
            <ns3:atemp>24.0</ns3:atemp>
          </ns3:TrackPointExtension>
        </extensions>
      </trkpt>
      <trkpt lat="42.5706238858401775360107421875" lon="20.03403277136385440826416015625">
        <ele>1976.800048828125</ele>
        <time>2026-06-15T13:14:48.000Z</time>
        <extensions>
          <ns3:TrackPointExtension>
            <ns3:atemp>24.0</ns3:atemp>
          </ns3:TrackPointExtension>
        </extensions>
      </trkpt>
      <trkpt lat="42.5706238858401775360107421875" lon="20.03403277136385440826416015625">
        <ele>1976.800048828125</ele>
        <time>2026-06-15T13:14:49.000Z</time>
        <extensions>
          <ns3:TrackPointExtension>
            <ns3:atemp>24.0</ns3:atemp>
          </ns3:TrackPointExtension>
        </extensions>
      </trkpt>
      <trkpt lat="42.5706238858401775360107421875" lon="20.03403277136385440826416015625">
        <ele>1976.800048828125</ele>
        <time>2026-06-15T13:14:50.000Z</time>
        <extensions>
          <ns3:TrackPointExtension>
            <ns3:atemp>24.0</ns3:atemp>
          </ns3:TrackPointExtension>
        </extensions>
      </trkpt>
      <trkpt lat="42.5706238858401775360107421875" lon="20.03403277136385440826416015625">
        <ele>1976.800048828125</ele>
        <time>2026-06-15T13:14:51.000Z</time>
        <extensions>
          <ns3:TrackPointExtension>
            <ns3:atemp>24.0</ns3:atemp>
          </ns3:TrackPointExtension>
        </extensions>
      </trkpt>
      <trkpt lat="42.5706238858401775360107421875" lon="20.03403277136385440826416015625">
        <ele>1976.800048828125</ele>
        <time>2026-06-15T13:14:52.000Z</time>
        <extensions>
          <ns3:TrackPointExtension>
            <ns3:atemp>24.0</ns3:atemp>
          </ns3:TrackPointExtension>
        </extensions>
      </trkpt>
      <trkpt lat="42.5706238858401775360107421875" lon="20.03403277136385440826416015625">
        <ele>1976.800048828125</ele>
        <time>2026-06-15T13:14:53.000Z</time>
        <extensions>
          <ns3:TrackPointExtension>
            <ns3:atemp>24.0</ns3:atemp>
          </ns3:TrackPointExtension>
        </extensions>
      </trkpt>
      <trkpt lat="42.5706238858401775360107421875" lon="20.03403277136385440826416015625">
        <ele>1976.800048828125</ele>
        <time>2026-06-15T13:14:54.000Z</time>
        <extensions>
          <ns3:TrackPointExtension>
            <ns3:atemp>24.0</ns3:atemp>
          </ns3:TrackPointExtension>
        </extensions>
      </trkpt>
      <trkpt lat="42.5706238858401775360107421875" lon="20.03403277136385440826416015625">
        <ele>1976.800048828125</ele>
        <time>2026-06-15T13:14:55.000Z</time>
        <extensions>
          <ns3:TrackPointExtension>
            <ns3:atemp>24.0</ns3:atemp>
          </ns3:TrackPointExtension>
        </extensions>
      </trkpt>
      <trkpt lat="42.5706238858401775360107421875" lon="20.03403277136385440826416015625">
        <ele>1976.800048828125</ele>
        <time>2026-06-15T13:14:56.000Z</time>
        <extensions>
          <ns3:TrackPointExtension>
            <ns3:atemp>24.0</ns3:atemp>
          </ns3:TrackPointExtension>
        </extensions>
      </trkpt>
      <trkpt lat="42.5706238858401775360107421875" lon="20.03403277136385440826416015625">
        <ele>1976.800048828125</ele>
        <time>2026-06-15T13:14:57.000Z</time>
        <extensions>
          <ns3:TrackPointExtension>
            <ns3:atemp>24.0</ns3:atemp>
          </ns3:TrackPointExtension>
        </extensions>
      </trkpt>
      <trkpt lat="42.5706238858401775360107421875" lon="20.03403277136385440826416015625">
        <ele>1976.800048828125</ele>
        <time>2026-06-15T13:14:58.000Z</time>
        <extensions>
          <ns3:TrackPointExtension>
            <ns3:atemp>24.0</ns3:atemp>
          </ns3:TrackPointExtension>
        </extensions>
      </trkpt>
      <trkpt lat="42.5706238858401775360107421875" lon="20.03403277136385440826416015625">
        <ele>1976.800048828125</ele>
        <time>2026-06-15T13:14:59.000Z</time>
        <extensions>
          <ns3:TrackPointExtension>
            <ns3:atemp>24.0</ns3:atemp>
          </ns3:TrackPointExtension>
        </extensions>
      </trkpt>
      <trkpt lat="42.5706238858401775360107421875" lon="20.03403277136385440826416015625">
        <ele>1976.800048828125</ele>
        <time>2026-06-15T13:15:00.000Z</time>
        <extensions>
          <ns3:TrackPointExtension>
            <ns3:atemp>24.0</ns3:atemp>
          </ns3:TrackPointExtension>
        </extensions>
      </trkpt>
      <trkpt lat="42.5706238858401775360107421875" lon="20.03403277136385440826416015625">
        <ele>1976.800048828125</ele>
        <time>2026-06-15T13:15:01.000Z</time>
        <extensions>
          <ns3:TrackPointExtension>
            <ns3:atemp>24.0</ns3:atemp>
          </ns3:TrackPointExtension>
        </extensions>
      </trkpt>
      <trkpt lat="42.5706238858401775360107421875" lon="20.03403277136385440826416015625">
        <ele>1976.800048828125</ele>
        <time>2026-06-15T13:15:02.000Z</time>
        <extensions>
          <ns3:TrackPointExtension>
            <ns3:atemp>24.0</ns3:atemp>
          </ns3:TrackPointExtension>
        </extensions>
      </trkpt>
      <trkpt lat="42.5706238858401775360107421875" lon="20.03403277136385440826416015625">
        <ele>1976.800048828125</ele>
        <time>2026-06-15T13:15:03.000Z</time>
        <extensions>
          <ns3:TrackPointExtension>
            <ns3:atemp>24.0</ns3:atemp>
          </ns3:TrackPointExtension>
        </extensions>
      </trkpt>
      <trkpt lat="42.5706238858401775360107421875" lon="20.03403277136385440826416015625">
        <ele>1976.800048828125</ele>
        <time>2026-06-15T13:15:04.000Z</time>
        <extensions>
          <ns3:TrackPointExtension>
            <ns3:atemp>24.0</ns3:atemp>
          </ns3:TrackPointExtension>
        </extensions>
      </trkpt>
      <trkpt lat="42.5706238858401775360107421875" lon="20.03403277136385440826416015625">
        <ele>1976.800048828125</ele>
        <time>2026-06-15T13:15:05.000Z</time>
        <extensions>
          <ns3:TrackPointExtension>
            <ns3:atemp>24.0</ns3:atemp>
          </ns3:TrackPointExtension>
        </extensions>
      </trkpt>
      <trkpt lat="42.5706238858401775360107421875" lon="20.03403277136385440826416015625">
        <ele>1976.800048828125</ele>
        <time>2026-06-15T13:15:06.000Z</time>
        <extensions>
          <ns3:TrackPointExtension>
            <ns3:atemp>24.0</ns3:atemp>
          </ns3:TrackPointExtension>
        </extensions>
      </trkpt>
      <trkpt lat="42.5706238858401775360107421875" lon="20.03403277136385440826416015625">
        <ele>1976.800048828125</ele>
        <time>2026-06-15T13:15:07.000Z</time>
        <extensions>
          <ns3:TrackPointExtension>
            <ns3:atemp>24.0</ns3:atemp>
          </ns3:TrackPointExtension>
        </extensions>
      </trkpt>
      <trkpt lat="42.5706238858401775360107421875" lon="20.03403277136385440826416015625">
        <ele>1976.800048828125</ele>
        <time>2026-06-15T13:15:08.000Z</time>
        <extensions>
          <ns3:TrackPointExtension>
            <ns3:atemp>24.0</ns3:atemp>
          </ns3:TrackPointExtension>
        </extensions>
      </trkpt>
      <trkpt lat="42.5706238858401775360107421875" lon="20.03403277136385440826416015625">
        <ele>1976.800048828125</ele>
        <time>2026-06-15T13:15:09.000Z</time>
        <extensions>
          <ns3:TrackPointExtension>
            <ns3:atemp>24.0</ns3:atemp>
          </ns3:TrackPointExtension>
        </extensions>
      </trkpt>
      <trkpt lat="42.5706238858401775360107421875" lon="20.03403277136385440826416015625">
        <ele>1976.800048828125</ele>
        <time>2026-06-15T13:15:10.000Z</time>
        <extensions>
          <ns3:TrackPointExtension>
            <ns3:atemp>24.0</ns3:atemp>
          </ns3:TrackPointExtension>
        </extensions>
      </trkpt>
      <trkpt lat="42.5706238858401775360107421875" lon="20.03403277136385440826416015625">
        <ele>1976.800048828125</ele>
        <time>2026-06-15T13:15:11.000Z</time>
        <extensions>
          <ns3:TrackPointExtension>
            <ns3:atemp>24.0</ns3:atemp>
          </ns3:TrackPointExtension>
        </extensions>
      </trkpt>
      <trkpt lat="42.5706238858401775360107421875" lon="20.03403277136385440826416015625">
        <ele>1976.800048828125</ele>
        <time>2026-06-15T13:15:12.000Z</time>
        <extensions>
          <ns3:TrackPointExtension>
            <ns3:atemp>24.0</ns3:atemp>
          </ns3:TrackPointExtension>
        </extensions>
      </trkpt>
      <trkpt lat="42.5706238858401775360107421875" lon="20.03403277136385440826416015625">
        <ele>1976.800048828125</ele>
        <time>2026-06-15T13:15:13.000Z</time>
        <extensions>
          <ns3:TrackPointExtension>
            <ns3:atemp>24.0</ns3:atemp>
          </ns3:TrackPointExtension>
        </extensions>
      </trkpt>
      <trkpt lat="42.5706238858401775360107421875" lon="20.03403277136385440826416015625">
        <ele>1976.800048828125</ele>
        <time>2026-06-15T13:15:14.000Z</time>
        <extensions>
          <ns3:TrackPointExtension>
            <ns3:atemp>24.0</ns3:atemp>
          </ns3:TrackPointExtension>
        </extensions>
      </trkpt>
      <trkpt lat="42.5706238858401775360107421875" lon="20.03403277136385440826416015625">
        <ele>1976.800048828125</ele>
        <time>2026-06-15T13:15:15.000Z</time>
        <extensions>
          <ns3:TrackPointExtension>
            <ns3:atemp>24.0</ns3:atemp>
          </ns3:TrackPointExtension>
        </extensions>
      </trkpt>
      <trkpt lat="42.5706238858401775360107421875" lon="20.03403277136385440826416015625">
        <ele>1976.800048828125</ele>
        <time>2026-06-15T13:15:16.000Z</time>
        <extensions>
          <ns3:TrackPointExtension>
            <ns3:atemp>24.0</ns3:atemp>
          </ns3:TrackPointExtension>
        </extensions>
      </trkpt>
      <trkpt lat="42.5706238858401775360107421875" lon="20.03403277136385440826416015625">
        <ele>1976.800048828125</ele>
        <time>2026-06-15T13:15:17.000Z</time>
        <extensions>
          <ns3:TrackPointExtension>
            <ns3:atemp>24.0</ns3:atemp>
          </ns3:TrackPointExtension>
        </extensions>
      </trkpt>
      <trkpt lat="42.5706238858401775360107421875" lon="20.03403277136385440826416015625">
        <ele>1976.800048828125</ele>
        <time>2026-06-15T13:15:18.000Z</time>
        <extensions>
          <ns3:TrackPointExtension>
            <ns3:atemp>24.0</ns3:atemp>
          </ns3:TrackPointExtension>
        </extensions>
      </trkpt>
      <trkpt lat="42.5706238858401775360107421875" lon="20.03403277136385440826416015625">
        <ele>1976.800048828125</ele>
        <time>2026-06-15T13:15:19.000Z</time>
        <extensions>
          <ns3:TrackPointExtension>
            <ns3:atemp>24.0</ns3:atemp>
          </ns3:TrackPointExtension>
        </extensions>
      </trkpt>
      <trkpt lat="42.5706238858401775360107421875" lon="20.03403277136385440826416015625">
        <ele>1976.800048828125</ele>
        <time>2026-06-15T13:15:20.000Z</time>
        <extensions>
          <ns3:TrackPointExtension>
            <ns3:atemp>24.0</ns3:atemp>
          </ns3:TrackPointExtension>
        </extensions>
      </trkpt>
      <trkpt lat="42.5706238858401775360107421875" lon="20.03403277136385440826416015625">
        <ele>1976.800048828125</ele>
        <time>2026-06-15T13:15:21.000Z</time>
        <extensions>
          <ns3:TrackPointExtension>
            <ns3:atemp>24.0</ns3:atemp>
          </ns3:TrackPointExtension>
        </extensions>
      </trkpt>
      <trkpt lat="42.5706238858401775360107421875" lon="20.03403277136385440826416015625">
        <ele>1976.800048828125</ele>
        <time>2026-06-15T13:15:22.000Z</time>
        <extensions>
          <ns3:TrackPointExtension>
            <ns3:atemp>24.0</ns3:atemp>
          </ns3:TrackPointExtension>
        </extensions>
      </trkpt>
      <trkpt lat="42.5706238858401775360107421875" lon="20.03403277136385440826416015625">
        <ele>1976.800048828125</ele>
        <time>2026-06-15T13:15:23.000Z</time>
        <extensions>
          <ns3:TrackPointExtension>
            <ns3:atemp>24.0</ns3:atemp>
          </ns3:TrackPointExtension>
        </extensions>
      </trkpt>
      <trkpt lat="42.5706238858401775360107421875" lon="20.03403277136385440826416015625">
        <ele>1976.800048828125</ele>
        <time>2026-06-15T13:15:24.000Z</time>
        <extensions>
          <ns3:TrackPointExtension>
            <ns3:atemp>24.0</ns3:atemp>
          </ns3:TrackPointExtension>
        </extensions>
      </trkpt>
      <trkpt lat="42.5706238858401775360107421875" lon="20.03403277136385440826416015625">
        <ele>1976.800048828125</ele>
        <time>2026-06-15T13:15:25.000Z</time>
        <extensions>
          <ns3:TrackPointExtension>
            <ns3:atemp>24.0</ns3:atemp>
          </ns3:TrackPointExtension>
        </extensions>
      </trkpt>
      <trkpt lat="42.5706238858401775360107421875" lon="20.03403277136385440826416015625">
        <ele>1976.800048828125</ele>
        <time>2026-06-15T13:15:26.000Z</time>
        <extensions>
          <ns3:TrackPointExtension>
            <ns3:atemp>24.0</ns3:atemp>
          </ns3:TrackPointExtension>
        </extensions>
      </trkpt>
      <trkpt lat="42.5706238858401775360107421875" lon="20.03403277136385440826416015625">
        <ele>1976.800048828125</ele>
        <time>2026-06-15T13:15:27.000Z</time>
        <extensions>
          <ns3:TrackPointExtension>
            <ns3:atemp>24.0</ns3:atemp>
          </ns3:TrackPointExtension>
        </extensions>
      </trkpt>
      <trkpt lat="42.5706238858401775360107421875" lon="20.03403277136385440826416015625">
        <ele>1976.800048828125</ele>
        <time>2026-06-15T13:15:28.000Z</time>
        <extensions>
          <ns3:TrackPointExtension>
            <ns3:atemp>24.0</ns3:atemp>
          </ns3:TrackPointExtension>
        </extensions>
      </trkpt>
      <trkpt lat="42.5706238858401775360107421875" lon="20.03403277136385440826416015625">
        <ele>1976.800048828125</ele>
        <time>2026-06-15T13:15:29.000Z</time>
        <extensions>
          <ns3:TrackPointExtension>
            <ns3:atemp>24.0</ns3:atemp>
          </ns3:TrackPointExtension>
        </extensions>
      </trkpt>
      <trkpt lat="42.5706238858401775360107421875" lon="20.03403277136385440826416015625">
        <ele>1976.800048828125</ele>
        <time>2026-06-15T13:15:30.000Z</time>
        <extensions>
          <ns3:TrackPointExtension>
            <ns3:atemp>24.0</ns3:atemp>
          </ns3:TrackPointExtension>
        </extensions>
      </trkpt>
      <trkpt lat="42.5706238858401775360107421875" lon="20.03403277136385440826416015625">
        <ele>1976.800048828125</ele>
        <time>2026-06-15T13:15:31.000Z</time>
        <extensions>
          <ns3:TrackPointExtension>
            <ns3:atemp>24.0</ns3:atemp>
          </ns3:TrackPointExtension>
        </extensions>
      </trkpt>
      <trkpt lat="42.5706238858401775360107421875" lon="20.03403277136385440826416015625">
        <ele>1976.800048828125</ele>
        <time>2026-06-15T13:15:32.000Z</time>
        <extensions>
          <ns3:TrackPointExtension>
            <ns3:atemp>24.0</ns3:atemp>
          </ns3:TrackPointExtension>
        </extensions>
      </trkpt>
      <trkpt lat="42.5706238858401775360107421875" lon="20.03403277136385440826416015625">
        <ele>1976.800048828125</ele>
        <time>2026-06-15T13:15:33.000Z</time>
        <extensions>
          <ns3:TrackPointExtension>
            <ns3:atemp>24.0</ns3:atemp>
          </ns3:TrackPointExtension>
        </extensions>
      </trkpt>
      <trkpt lat="42.5706238858401775360107421875" lon="20.03403277136385440826416015625">
        <ele>1976.800048828125</ele>
        <time>2026-06-15T13:15:34.000Z</time>
        <extensions>
          <ns3:TrackPointExtension>
            <ns3:atemp>24.0</ns3:atemp>
          </ns3:TrackPointExtension>
        </extensions>
      </trkpt>
      <trkpt lat="42.5706238858401775360107421875" lon="20.03403277136385440826416015625">
        <ele>1976.800048828125</ele>
        <time>2026-06-15T13:15:35.000Z</time>
        <extensions>
          <ns3:TrackPointExtension>
            <ns3:atemp>24.0</ns3:atemp>
          </ns3:TrackPointExtension>
        </extensions>
      </trkpt>
      <trkpt lat="42.5706238858401775360107421875" lon="20.03403277136385440826416015625">
        <ele>1976.800048828125</ele>
        <time>2026-06-15T13:15:36.000Z</time>
        <extensions>
          <ns3:TrackPointExtension>
            <ns3:atemp>24.0</ns3:atemp>
          </ns3:TrackPointExtension>
        </extensions>
      </trkpt>
      <trkpt lat="42.5706238858401775360107421875" lon="20.03403277136385440826416015625">
        <ele>1976.800048828125</ele>
        <time>2026-06-15T13:15:37.000Z</time>
        <extensions>
          <ns3:TrackPointExtension>
            <ns3:atemp>24.0</ns3:atemp>
          </ns3:TrackPointExtension>
        </extensions>
      </trkpt>
      <trkpt lat="42.5706238858401775360107421875" lon="20.03403277136385440826416015625">
        <ele>1976.800048828125</ele>
        <time>2026-06-15T13:15:38.000Z</time>
        <extensions>
          <ns3:TrackPointExtension>
            <ns3:atemp>24.0</ns3:atemp>
          </ns3:TrackPointExtension>
        </extensions>
      </trkpt>
      <trkpt lat="42.5706238858401775360107421875" lon="20.03403277136385440826416015625">
        <ele>1976.800048828125</ele>
        <time>2026-06-15T13:15:39.000Z</time>
        <extensions>
          <ns3:TrackPointExtension>
            <ns3:atemp>24.0</ns3:atemp>
          </ns3:TrackPointExtension>
        </extensions>
      </trkpt>
      <trkpt lat="42.5706238858401775360107421875" lon="20.03403277136385440826416015625">
        <ele>1976.800048828125</ele>
        <time>2026-06-15T13:15:40.000Z</time>
        <extensions>
          <ns3:TrackPointExtension>
            <ns3:atemp>24.0</ns3:atemp>
          </ns3:TrackPointExtension>
        </extensions>
      </trkpt>
      <trkpt lat="42.5706238858401775360107421875" lon="20.03403277136385440826416015625">
        <ele>1976.800048828125</ele>
        <time>2026-06-15T13:15:41.000Z</time>
        <extensions>
          <ns3:TrackPointExtension>
            <ns3:atemp>24.0</ns3:atemp>
          </ns3:TrackPointExtension>
        </extensions>
      </trkpt>
      <trkpt lat="42.5706238858401775360107421875" lon="20.03403277136385440826416015625">
        <ele>1976.800048828125</ele>
        <time>2026-06-15T13:15:42.000Z</time>
        <extensions>
          <ns3:TrackPointExtension>
            <ns3:atemp>24.0</ns3:atemp>
          </ns3:TrackPointExtension>
        </extensions>
      </trkpt>
      <trkpt lat="42.5706238858401775360107421875" lon="20.03403277136385440826416015625">
        <ele>1976.800048828125</ele>
        <time>2026-06-15T13:15:43.000Z</time>
        <extensions>
          <ns3:TrackPointExtension>
            <ns3:atemp>24.0</ns3:atemp>
          </ns3:TrackPointExtension>
        </extensions>
      </trkpt>
      <trkpt lat="42.5706238858401775360107421875" lon="20.03403277136385440826416015625">
        <ele>1976.800048828125</ele>
        <time>2026-06-15T13:15:44.000Z</time>
        <extensions>
          <ns3:TrackPointExtension>
            <ns3:atemp>24.0</ns3:atemp>
          </ns3:TrackPointExtension>
        </extensions>
      </trkpt>
      <trkpt lat="42.5706238858401775360107421875" lon="20.03403277136385440826416015625">
        <ele>1976.800048828125</ele>
        <time>2026-06-15T13:15:45.000Z</time>
        <extensions>
          <ns3:TrackPointExtension>
            <ns3:atemp>24.0</ns3:atemp>
          </ns3:TrackPointExtension>
        </extensions>
      </trkpt>
      <trkpt lat="42.5706238858401775360107421875" lon="20.03403277136385440826416015625">
        <ele>1976.800048828125</ele>
        <time>2026-06-15T13:15:46.000Z</time>
        <extensions>
          <ns3:TrackPointExtension>
            <ns3:atemp>24.0</ns3:atemp>
          </ns3:TrackPointExtension>
        </extensions>
      </trkpt>
      <trkpt lat="42.5706238858401775360107421875" lon="20.03403277136385440826416015625">
        <ele>1976.800048828125</ele>
        <time>2026-06-15T13:15:47.000Z</time>
        <extensions>
          <ns3:TrackPointExtension>
            <ns3:atemp>24.0</ns3:atemp>
          </ns3:TrackPointExtension>
        </extensions>
      </trkpt>
      <trkpt lat="42.5706238858401775360107421875" lon="20.03403277136385440826416015625">
        <ele>1976.800048828125</ele>
        <time>2026-06-15T13:15:48.000Z</time>
        <extensions>
          <ns3:TrackPointExtension>
            <ns3:atemp>24.0</ns3:atemp>
          </ns3:TrackPointExtension>
        </extensions>
      </trkpt>
      <trkpt lat="42.5706238858401775360107421875" lon="20.03403277136385440826416015625">
        <ele>1976.800048828125</ele>
        <time>2026-06-15T13:15:49.000Z</time>
        <extensions>
          <ns3:TrackPointExtension>
            <ns3:atemp>24.0</ns3:atemp>
          </ns3:TrackPointExtension>
        </extensions>
      </trkpt>
      <trkpt lat="42.5706238858401775360107421875" lon="20.03403277136385440826416015625">
        <ele>1976.800048828125</ele>
        <time>2026-06-15T13:15:50.000Z</time>
        <extensions>
          <ns3:TrackPointExtension>
            <ns3:atemp>24.0</ns3:atemp>
          </ns3:TrackPointExtension>
        </extensions>
      </trkpt>
      <trkpt lat="42.5706238858401775360107421875" lon="20.03403277136385440826416015625">
        <ele>1976.800048828125</ele>
        <time>2026-06-15T13:15:51.000Z</time>
        <extensions>
          <ns3:TrackPointExtension>
            <ns3:atemp>24.0</ns3:atemp>
          </ns3:TrackPointExtension>
        </extensions>
      </trkpt>
      <trkpt lat="42.5706238858401775360107421875" lon="20.03403277136385440826416015625">
        <ele>1976.800048828125</ele>
        <time>2026-06-15T13:15:52.000Z</time>
        <extensions>
          <ns3:TrackPointExtension>
            <ns3:atemp>24.0</ns3:atemp>
          </ns3:TrackPointExtension>
        </extensions>
      </trkpt>
      <trkpt lat="42.5706238858401775360107421875" lon="20.03403277136385440826416015625">
        <ele>1976.800048828125</ele>
        <time>2026-06-15T13:15:53.000Z</time>
        <extensions>
          <ns3:TrackPointExtension>
            <ns3:atemp>24.0</ns3:atemp>
          </ns3:TrackPointExtension>
        </extensions>
      </trkpt>
      <trkpt lat="42.5706238858401775360107421875" lon="20.03403277136385440826416015625">
        <ele>1976.800048828125</ele>
        <time>2026-06-15T13:15:54.000Z</time>
        <extensions>
          <ns3:TrackPointExtension>
            <ns3:atemp>24.0</ns3:atemp>
          </ns3:TrackPointExtension>
        </extensions>
      </trkpt>
      <trkpt lat="42.5706238858401775360107421875" lon="20.03403277136385440826416015625">
        <ele>1976.800048828125</ele>
        <time>2026-06-15T13:15:55.000Z</time>
        <extensions>
          <ns3:TrackPointExtension>
            <ns3:atemp>24.0</ns3:atemp>
          </ns3:TrackPointExtension>
        </extensions>
      </trkpt>
      <trkpt lat="42.5706238858401775360107421875" lon="20.03403277136385440826416015625">
        <ele>1976.800048828125</ele>
        <time>2026-06-15T13:15:56.000Z</time>
        <extensions>
          <ns3:TrackPointExtension>
            <ns3:atemp>24.0</ns3:atemp>
          </ns3:TrackPointExtension>
        </extensions>
      </trkpt>
      <trkpt lat="42.5706238858401775360107421875" lon="20.03403277136385440826416015625">
        <ele>1976.800048828125</ele>
        <time>2026-06-15T13:15:57.000Z</time>
        <extensions>
          <ns3:TrackPointExtension>
            <ns3:atemp>24.0</ns3:atemp>
          </ns3:TrackPointExtension>
        </extensions>
      </trkpt>
      <trkpt lat="42.5706238858401775360107421875" lon="20.03403277136385440826416015625">
        <ele>1976.800048828125</ele>
        <time>2026-06-15T13:15:58.000Z</time>
        <extensions>
          <ns3:TrackPointExtension>
            <ns3:atemp>24.0</ns3:atemp>
          </ns3:TrackPointExtension>
        </extensions>
      </trkpt>
      <trkpt lat="42.5706238858401775360107421875" lon="20.03403277136385440826416015625">
        <ele>1976.800048828125</ele>
        <time>2026-06-15T13:15:59.000Z</time>
        <extensions>
          <ns3:TrackPointExtension>
            <ns3:atemp>24.0</ns3:atemp>
          </ns3:TrackPointExtension>
        </extensions>
      </trkpt>
      <trkpt lat="42.5706238858401775360107421875" lon="20.03403277136385440826416015625">
        <ele>1976.800048828125</ele>
        <time>2026-06-15T13:16:00.000Z</time>
        <extensions>
          <ns3:TrackPointExtension>
            <ns3:atemp>24.0</ns3:atemp>
          </ns3:TrackPointExtension>
        </extensions>
      </trkpt>
      <trkpt lat="42.5706238858401775360107421875" lon="20.03403277136385440826416015625">
        <ele>1976.800048828125</ele>
        <time>2026-06-15T13:16:01.000Z</time>
        <extensions>
          <ns3:TrackPointExtension>
            <ns3:atemp>24.0</ns3:atemp>
          </ns3:TrackPointExtension>
        </extensions>
      </trkpt>
      <trkpt lat="42.5706238858401775360107421875" lon="20.03403277136385440826416015625">
        <ele>1976.800048828125</ele>
        <time>2026-06-15T13:16:02.000Z</time>
        <extensions>
          <ns3:TrackPointExtension>
            <ns3:atemp>24.0</ns3:atemp>
          </ns3:TrackPointExtension>
        </extensions>
      </trkpt>
      <trkpt lat="42.5706238858401775360107421875" lon="20.03403277136385440826416015625">
        <ele>1976.800048828125</ele>
        <time>2026-06-15T13:16:03.000Z</time>
        <extensions>
          <ns3:TrackPointExtension>
            <ns3:atemp>24.0</ns3:atemp>
          </ns3:TrackPointExtension>
        </extensions>
      </trkpt>
      <trkpt lat="42.5706238858401775360107421875" lon="20.03403277136385440826416015625">
        <ele>1976.800048828125</ele>
        <time>2026-06-15T13:16:04.000Z</time>
        <extensions>
          <ns3:TrackPointExtension>
            <ns3:atemp>24.0</ns3:atemp>
          </ns3:TrackPointExtension>
        </extensions>
      </trkpt>
      <trkpt lat="42.5706238858401775360107421875" lon="20.03403277136385440826416015625">
        <ele>1976.800048828125</ele>
        <time>2026-06-15T13:16:05.000Z</time>
        <extensions>
          <ns3:TrackPointExtension>
            <ns3:atemp>24.0</ns3:atemp>
          </ns3:TrackPointExtension>
        </extensions>
      </trkpt>
      <trkpt lat="42.5706238858401775360107421875" lon="20.03403277136385440826416015625">
        <ele>1976.800048828125</ele>
        <time>2026-06-15T13:16:06.000Z</time>
        <extensions>
          <ns3:TrackPointExtension>
            <ns3:atemp>24.0</ns3:atemp>
          </ns3:TrackPointExtension>
        </extensions>
      </trkpt>
      <trkpt lat="42.5706238858401775360107421875" lon="20.03403277136385440826416015625">
        <ele>1976.800048828125</ele>
        <time>2026-06-15T13:16:07.000Z</time>
        <extensions>
          <ns3:TrackPointExtension>
            <ns3:atemp>24.0</ns3:atemp>
          </ns3:TrackPointExtension>
        </extensions>
      </trkpt>
      <trkpt lat="42.5706238858401775360107421875" lon="20.03403277136385440826416015625">
        <ele>1976.800048828125</ele>
        <time>2026-06-15T13:16:08.000Z</time>
        <extensions>
          <ns3:TrackPointExtension>
            <ns3:atemp>24.0</ns3:atemp>
          </ns3:TrackPointExtension>
        </extensions>
      </trkpt>
      <trkpt lat="42.5706238858401775360107421875" lon="20.03403277136385440826416015625">
        <ele>1976.800048828125</ele>
        <time>2026-06-15T13:16:09.000Z</time>
        <extensions>
          <ns3:TrackPointExtension>
            <ns3:atemp>24.0</ns3:atemp>
          </ns3:TrackPointExtension>
        </extensions>
      </trkpt>
      <trkpt lat="42.5706238858401775360107421875" lon="20.03403277136385440826416015625">
        <ele>1976.800048828125</ele>
        <time>2026-06-15T13:16:10.000Z</time>
        <extensions>
          <ns3:TrackPointExtension>
            <ns3:atemp>24.0</ns3:atemp>
          </ns3:TrackPointExtension>
        </extensions>
      </trkpt>
      <trkpt lat="42.5706238858401775360107421875" lon="20.03403277136385440826416015625">
        <ele>1976.800048828125</ele>
        <time>2026-06-15T13:16:11.000Z</time>
        <extensions>
          <ns3:TrackPointExtension>
            <ns3:atemp>24.0</ns3:atemp>
          </ns3:TrackPointExtension>
        </extensions>
      </trkpt>
      <trkpt lat="42.5706238858401775360107421875" lon="20.03403277136385440826416015625">
        <ele>1976.800048828125</ele>
        <time>2026-06-15T13:16:12.000Z</time>
        <extensions>
          <ns3:TrackPointExtension>
            <ns3:atemp>24.0</ns3:atemp>
          </ns3:TrackPointExtension>
        </extensions>
      </trkpt>
      <trkpt lat="42.5706238858401775360107421875" lon="20.03403277136385440826416015625">
        <ele>1976.800048828125</ele>
        <time>2026-06-15T13:16:13.000Z</time>
        <extensions>
          <ns3:TrackPointExtension>
            <ns3:atemp>24.0</ns3:atemp>
          </ns3:TrackPointExtension>
        </extensions>
      </trkpt>
      <trkpt lat="42.5706238858401775360107421875" lon="20.03403277136385440826416015625">
        <ele>1976.800048828125</ele>
        <time>2026-06-15T13:16:14.000Z</time>
        <extensions>
          <ns3:TrackPointExtension>
            <ns3:atemp>24.0</ns3:atemp>
          </ns3:TrackPointExtension>
        </extensions>
      </trkpt>
      <trkpt lat="42.5706238858401775360107421875" lon="20.03403277136385440826416015625">
        <ele>1976.800048828125</ele>
        <time>2026-06-15T13:16:15.000Z</time>
        <extensions>
          <ns3:TrackPointExtension>
            <ns3:atemp>24.0</ns3:atemp>
          </ns3:TrackPointExtension>
        </extensions>
      </trkpt>
      <trkpt lat="42.5706238858401775360107421875" lon="20.03403277136385440826416015625">
        <ele>1976.800048828125</ele>
        <time>2026-06-15T13:16:16.000Z</time>
        <extensions>
          <ns3:TrackPointExtension>
            <ns3:atemp>24.0</ns3:atemp>
          </ns3:TrackPointExtension>
        </extensions>
      </trkpt>
      <trkpt lat="42.5706238858401775360107421875" lon="20.03403277136385440826416015625">
        <ele>1976.800048828125</ele>
        <time>2026-06-15T13:16:17.000Z</time>
        <extensions>
          <ns3:TrackPointExtension>
            <ns3:atemp>24.0</ns3:atemp>
          </ns3:TrackPointExtension>
        </extensions>
      </trkpt>
      <trkpt lat="42.5706238858401775360107421875" lon="20.03403277136385440826416015625">
        <ele>1976.800048828125</ele>
        <time>2026-06-15T13:16:18.000Z</time>
        <extensions>
          <ns3:TrackPointExtension>
            <ns3:atemp>24.0</ns3:atemp>
          </ns3:TrackPointExtension>
        </extensions>
      </trkpt>
      <trkpt lat="42.5706238858401775360107421875" lon="20.03403277136385440826416015625">
        <ele>1976.800048828125</ele>
        <time>2026-06-15T13:16:19.000Z</time>
        <extensions>
          <ns3:TrackPointExtension>
            <ns3:atemp>24.0</ns3:atemp>
          </ns3:TrackPointExtension>
        </extensions>
      </trkpt>
      <trkpt lat="42.5706238858401775360107421875" lon="20.03403277136385440826416015625">
        <ele>1976.800048828125</ele>
        <time>2026-06-15T13:16:20.000Z</time>
        <extensions>
          <ns3:TrackPointExtension>
            <ns3:atemp>24.0</ns3:atemp>
          </ns3:TrackPointExtension>
        </extensions>
      </trkpt>
      <trkpt lat="42.5706238858401775360107421875" lon="20.03403277136385440826416015625">
        <ele>1976.800048828125</ele>
        <time>2026-06-15T13:16:21.000Z</time>
        <extensions>
          <ns3:TrackPointExtension>
            <ns3:atemp>24.0</ns3:atemp>
          </ns3:TrackPointExtension>
        </extensions>
      </trkpt>
      <trkpt lat="42.5706238858401775360107421875" lon="20.03403277136385440826416015625">
        <ele>1976.800048828125</ele>
        <time>2026-06-15T13:16:22.000Z</time>
        <extensions>
          <ns3:TrackPointExtension>
            <ns3:atemp>24.0</ns3:atemp>
          </ns3:TrackPointExtension>
        </extensions>
      </trkpt>
      <trkpt lat="42.5706238858401775360107421875" lon="20.03403277136385440826416015625">
        <ele>1976.800048828125</ele>
        <time>2026-06-15T13:16:23.000Z</time>
        <extensions>
          <ns3:TrackPointExtension>
            <ns3:atemp>24.0</ns3:atemp>
          </ns3:TrackPointExtension>
        </extensions>
      </trkpt>
      <trkpt lat="42.5706238858401775360107421875" lon="20.03403277136385440826416015625">
        <ele>1976.800048828125</ele>
        <time>2026-06-15T13:16:24.000Z</time>
        <extensions>
          <ns3:TrackPointExtension>
            <ns3:atemp>24.0</ns3:atemp>
          </ns3:TrackPointExtension>
        </extensions>
      </trkpt>
      <trkpt lat="42.5706238858401775360107421875" lon="20.03403277136385440826416015625">
        <ele>1976.800048828125</ele>
        <time>2026-06-15T13:16:25.000Z</time>
        <extensions>
          <ns3:TrackPointExtension>
            <ns3:atemp>24.0</ns3:atemp>
          </ns3:TrackPointExtension>
        </extensions>
      </trkpt>
      <trkpt lat="42.57062480784952640533447265625" lon="20.03403478302061557769775390625">
        <ele>1976.800048828125</ele>
        <time>2026-06-15T13:16:26.000Z</time>
        <extensions>
          <ns3:TrackPointExtension>
            <ns3:atemp>24.0</ns3:atemp>
          </ns3:TrackPointExtension>
        </extensions>
      </trkpt>
      <trkpt lat="42.5706238858401775360107421875" lon="20.03403277136385440826416015625">
        <ele>1976.800048828125</ele>
        <time>2026-06-15T13:16:27.000Z</time>
        <extensions>
          <ns3:TrackPointExtension>
            <ns3:atemp>24.0</ns3:atemp>
          </ns3:TrackPointExtension>
        </extensions>
      </trkpt>
      <trkpt lat="42.5706238858401775360107421875" lon="20.03403277136385440826416015625">
        <ele>1976.800048828125</ele>
        <time>2026-06-15T13:16:28.000Z</time>
        <extensions>
          <ns3:TrackPointExtension>
            <ns3:atemp>24.0</ns3:atemp>
          </ns3:TrackPointExtension>
        </extensions>
      </trkpt>
      <trkpt lat="42.57063000462949275970458984375" lon="20.034037716686725616455078125">
        <ele>1976.800048828125</ele>
        <time>2026-06-15T13:16:29.000Z</time>
        <extensions>
          <ns3:TrackPointExtension>
            <ns3:atemp>24.0</ns3:atemp>
          </ns3:TrackPointExtension>
        </extensions>
      </trkpt>
      <trkpt lat="42.5706238858401775360107421875" lon="20.03403277136385440826416015625">
        <ele>1976.800048828125</ele>
        <time>2026-06-15T13:16:30.000Z</time>
        <extensions>
          <ns3:TrackPointExtension>
            <ns3:atemp>24.0</ns3:atemp>
          </ns3:TrackPointExtension>
        </extensions>
      </trkpt>
      <trkpt lat="42.5706238858401775360107421875" lon="20.03403277136385440826416015625">
        <ele>1976.800048828125</ele>
        <time>2026-06-15T13:16:31.000Z</time>
        <extensions>
          <ns3:TrackPointExtension>
            <ns3:atemp>24.0</ns3:atemp>
          </ns3:TrackPointExtension>
        </extensions>
      </trkpt>
      <trkpt lat="42.5706238858401775360107421875" lon="20.03403277136385440826416015625">
        <ele>1976.800048828125</ele>
        <time>2026-06-15T13:16:32.000Z</time>
        <extensions>
          <ns3:TrackPointExtension>
            <ns3:atemp>24.0</ns3:atemp>
          </ns3:TrackPointExtension>
        </extensions>
      </trkpt>
      <trkpt lat="42.5706238858401775360107421875" lon="20.03403277136385440826416015625">
        <ele>1976.800048828125</ele>
        <time>2026-06-15T13:16:33.000Z</time>
        <extensions>
          <ns3:TrackPointExtension>
            <ns3:atemp>24.0</ns3:atemp>
          </ns3:TrackPointExtension>
        </extensions>
      </trkpt>
      <trkpt lat="42.5706238858401775360107421875" lon="20.03403277136385440826416015625">
        <ele>1976.800048828125</ele>
        <time>2026-06-15T13:16:34.000Z</time>
        <extensions>
          <ns3:TrackPointExtension>
            <ns3:atemp>24.0</ns3:atemp>
          </ns3:TrackPointExtension>
        </extensions>
      </trkpt>
      <trkpt lat="42.5706238858401775360107421875" lon="20.03403277136385440826416015625">
        <ele>1976.800048828125</ele>
        <time>2026-06-15T13:16:35.000Z</time>
        <extensions>
          <ns3:TrackPointExtension>
            <ns3:atemp>24.0</ns3:atemp>
          </ns3:TrackPointExtension>
        </extensions>
      </trkpt>
      <trkpt lat="42.5706238858401775360107421875" lon="20.03403277136385440826416015625">
        <ele>1976.800048828125</ele>
        <time>2026-06-15T13:16:36.000Z</time>
        <extensions>
          <ns3:TrackPointExtension>
            <ns3:atemp>24.0</ns3:atemp>
          </ns3:TrackPointExtension>
        </extensions>
      </trkpt>
      <trkpt lat="42.5706238858401775360107421875" lon="20.03403277136385440826416015625">
        <ele>1976.800048828125</ele>
        <time>2026-06-15T13:16:37.000Z</time>
        <extensions>
          <ns3:TrackPointExtension>
            <ns3:atemp>24.0</ns3:atemp>
          </ns3:TrackPointExtension>
        </extensions>
      </trkpt>
      <trkpt lat="42.5706238858401775360107421875" lon="20.03403277136385440826416015625">
        <ele>1976.800048828125</ele>
        <time>2026-06-15T13:16:38.000Z</time>
        <extensions>
          <ns3:TrackPointExtension>
            <ns3:atemp>24.0</ns3:atemp>
          </ns3:TrackPointExtension>
        </extensions>
      </trkpt>
      <trkpt lat="42.5706238858401775360107421875" lon="20.03403277136385440826416015625">
        <ele>1976.800048828125</ele>
        <time>2026-06-15T13:16:39.000Z</time>
        <extensions>
          <ns3:TrackPointExtension>
            <ns3:atemp>24.0</ns3:atemp>
          </ns3:TrackPointExtension>
        </extensions>
      </trkpt>
      <trkpt lat="42.5706238858401775360107421875" lon="20.03403277136385440826416015625">
        <ele>1976.800048828125</ele>
        <time>2026-06-15T13:16:40.000Z</time>
        <extensions>
          <ns3:TrackPointExtension>
            <ns3:atemp>24.0</ns3:atemp>
          </ns3:TrackPointExtension>
        </extensions>
      </trkpt>
      <trkpt lat="42.5706238858401775360107421875" lon="20.03403277136385440826416015625">
        <ele>1976.800048828125</ele>
        <time>2026-06-15T13:16:41.000Z</time>
        <extensions>
          <ns3:TrackPointExtension>
            <ns3:atemp>24.0</ns3:atemp>
          </ns3:TrackPointExtension>
        </extensions>
      </trkpt>
      <trkpt lat="42.5706238858401775360107421875" lon="20.03403277136385440826416015625">
        <ele>1979.800048828125</ele>
        <time>2026-06-15T13:16:42.000Z</time>
        <extensions>
          <ns3:TrackPointExtension>
            <ns3:atemp>24.0</ns3:atemp>
          </ns3:TrackPointExtension>
        </extensions>
      </trkpt>
      <trkpt lat="42.5706238858401775360107421875" lon="20.03403277136385440826416015625">
        <ele>1980</ele>
        <time>2026-06-15T13:16:43.000Z</time>
        <extensions>
          <ns3:TrackPointExtension>
            <ns3:atemp>24.0</ns3:atemp>
          </ns3:TrackPointExtension>
        </extensions>
      </trkpt>
      <trkpt lat="42.5706238858401775360107421875" lon="20.03403277136385440826416015625">
        <ele>1980</ele>
        <time>2026-06-15T13:16:44.000Z</time>
        <extensions>
          <ns3:TrackPointExtension>
            <ns3:atemp>24.0</ns3:atemp>
          </ns3:TrackPointExtension>
        </extensions>
      </trkpt>
      <trkpt lat="42.5706238858401775360107421875" lon="20.03403277136385440826416015625">
        <ele>1979.800048828125</ele>
        <time>2026-06-15T13:16:45.000Z</time>
        <extensions>
          <ns3:TrackPointExtension>
            <ns3:atemp>24.0</ns3:atemp>
          </ns3:TrackPointExtension>
        </extensions>
      </trkpt>
      <trkpt lat="42.5706238858401775360107421875" lon="20.03403277136385440826416015625">
        <ele>1979.800048828125</ele>
        <time>2026-06-15T13:16:46.000Z</time>
        <extensions>
          <ns3:TrackPointExtension>
            <ns3:atemp>24.0</ns3:atemp>
          </ns3:TrackPointExtension>
        </extensions>
      </trkpt>
      <trkpt lat="42.5706238858401775360107421875" lon="20.03403277136385440826416015625">
        <ele>1979.4000244140625</ele>
        <time>2026-06-15T13:16:47.000Z</time>
        <extensions>
          <ns3:TrackPointExtension>
            <ns3:atemp>24.0</ns3:atemp>
          </ns3:TrackPointExtension>
        </extensions>
      </trkpt>
      <trkpt lat="42.5706238858401775360107421875" lon="20.03403277136385440826416015625">
        <ele>1979.199951171875</ele>
        <time>2026-06-15T13:16:48.000Z</time>
        <extensions>
          <ns3:TrackPointExtension>
            <ns3:atemp>24.0</ns3:atemp>
          </ns3:TrackPointExtension>
        </extensions>
      </trkpt>
      <trkpt lat="42.5706238858401775360107421875" lon="20.03403277136385440826416015625">
        <ele>1979</ele>
        <time>2026-06-15T13:16:49.000Z</time>
        <extensions>
          <ns3:TrackPointExtension>
            <ns3:atemp>24.0</ns3:atemp>
          </ns3:TrackPointExtension>
        </extensions>
      </trkpt>
      <trkpt lat="42.5706238858401775360107421875" lon="20.03403277136385440826416015625">
        <ele>1979</ele>
        <time>2026-06-15T13:16:50.000Z</time>
        <extensions>
          <ns3:TrackPointExtension>
            <ns3:atemp>24.0</ns3:atemp>
          </ns3:TrackPointExtension>
        </extensions>
      </trkpt>
      <trkpt lat="42.57062933407723903656005859375" lon="20.03403495065867900848388671875">
        <ele>1979.4000244140625</ele>
        <time>2026-06-15T13:16:51.000Z</time>
        <extensions>
          <ns3:TrackPointExtension>
            <ns3:atemp>24.0</ns3:atemp>
          </ns3:TrackPointExtension>
        </extensions>
      </trkpt>
      <trkpt lat="42.5706302560865879058837890625" lon="20.03403897397220134735107421875">
        <ele>1980</ele>
        <time>2026-06-15T13:16:52.000Z</time>
        <extensions>
          <ns3:TrackPointExtension>
            <ns3:atemp>24.0</ns3:atemp>
          </ns3:TrackPointExtension>
        </extensions>
      </trkpt>
      <trkpt lat="42.57062874734401702880859375" lon="20.0340346992015838623046875">
        <ele>1980.4000244140625</ele>
        <time>2026-06-15T13:16:53.000Z</time>
        <extensions>
          <ns3:TrackPointExtension>
            <ns3:atemp>24.0</ns3:atemp>
          </ns3:TrackPointExtension>
        </extensions>
      </trkpt>
      <trkpt lat="42.5706238858401775360107421875" lon="20.03403277136385440826416015625">
        <ele>1981.4000244140625</ele>
        <time>2026-06-15T13:16:54.000Z</time>
        <extensions>
          <ns3:TrackPointExtension>
            <ns3:atemp>24.0</ns3:atemp>
          </ns3:TrackPointExtension>
        </extensions>
      </trkpt>
      <trkpt lat="42.5706238858401775360107421875" lon="20.03403277136385440826416015625">
        <ele>1981.800048828125</ele>
        <time>2026-06-15T13:16:55.000Z</time>
        <extensions>
          <ns3:TrackPointExtension>
            <ns3:atemp>24.0</ns3:atemp>
          </ns3:TrackPointExtension>
        </extensions>
      </trkpt>
      <trkpt lat="42.5706238858401775360107421875" lon="20.03403277136385440826416015625">
        <ele>1981.800048828125</ele>
        <time>2026-06-15T13:16:56.000Z</time>
        <extensions>
          <ns3:TrackPointExtension>
            <ns3:atemp>24.0</ns3:atemp>
          </ns3:TrackPointExtension>
        </extensions>
      </trkpt>
      <trkpt lat="42.5706238858401775360107421875" lon="20.03403277136385440826416015625">
        <ele>1982.199951171875</ele>
        <time>2026-06-15T13:16:57.000Z</time>
        <extensions>
          <ns3:TrackPointExtension>
            <ns3:atemp>24.0</ns3:atemp>
          </ns3:TrackPointExtension>
        </extensions>
      </trkpt>
      <trkpt lat="42.5706238858401775360107421875" lon="20.03403277136385440826416015625">
        <ele>1982.4000244140625</ele>
        <time>2026-06-15T13:16:58.000Z</time>
        <extensions>
          <ns3:TrackPointExtension>
            <ns3:atemp>24.0</ns3:atemp>
          </ns3:TrackPointExtension>
        </extensions>
      </trkpt>
      <trkpt lat="42.5706238858401775360107421875" lon="20.03403277136385440826416015625">
        <ele>1982.5999755859375</ele>
        <time>2026-06-15T13:16:59.000Z</time>
        <extensions>
          <ns3:TrackPointExtension>
            <ns3:atemp>24.0</ns3:atemp>
          </ns3:TrackPointExtension>
        </extensions>
      </trkpt>
      <trkpt lat="42.5706238858401775360107421875" lon="20.03403277136385440826416015625">
        <ele>1982.5999755859375</ele>
        <time>2026-06-15T13:17:00.000Z</time>
        <extensions>
          <ns3:TrackPointExtension>
            <ns3:atemp>24.0</ns3:atemp>
          </ns3:TrackPointExtension>
        </extensions>
      </trkpt>
      <trkpt lat="42.5706238858401775360107421875" lon="20.03403277136385440826416015625">
        <ele>1982.4000244140625</ele>
        <time>2026-06-15T13:17:01.000Z</time>
        <extensions>
          <ns3:TrackPointExtension>
            <ns3:atemp>24.0</ns3:atemp>
          </ns3:TrackPointExtension>
        </extensions>
      </trkpt>
      <trkpt lat="42.5706238858401775360107421875" lon="20.03403277136385440826416015625">
        <ele>1982.199951171875</ele>
        <time>2026-06-15T13:17:02.000Z</time>
        <extensions>
          <ns3:TrackPointExtension>
            <ns3:atemp>24.0</ns3:atemp>
          </ns3:TrackPointExtension>
        </extensions>
      </trkpt>
      <trkpt lat="42.5706238858401775360107421875" lon="20.03403277136385440826416015625">
        <ele>1982.199951171875</ele>
        <time>2026-06-15T13:17:03.000Z</time>
        <extensions>
          <ns3:TrackPointExtension>
            <ns3:atemp>24.0</ns3:atemp>
          </ns3:TrackPointExtension>
        </extensions>
      </trkpt>
      <trkpt lat="42.5706238858401775360107421875" lon="20.03403277136385440826416015625">
        <ele>1981.800048828125</ele>
        <time>2026-06-15T13:17:04.000Z</time>
        <extensions>
          <ns3:TrackPointExtension>
            <ns3:atemp>24.0</ns3:atemp>
          </ns3:TrackPointExtension>
        </extensions>
      </trkpt>
      <trkpt lat="42.5706238858401775360107421875" lon="20.03403277136385440826416015625">
        <ele>1981.5999755859375</ele>
        <time>2026-06-15T13:17:05.000Z</time>
        <extensions>
          <ns3:TrackPointExtension>
            <ns3:atemp>24.0</ns3:atemp>
          </ns3:TrackPointExtension>
        </extensions>
      </trkpt>
      <trkpt lat="42.5706238858401775360107421875" lon="20.03403277136385440826416015625">
        <ele>1981.4000244140625</ele>
        <time>2026-06-15T13:17:06.000Z</time>
        <extensions>
          <ns3:TrackPointExtension>
            <ns3:atemp>24.0</ns3:atemp>
          </ns3:TrackPointExtension>
        </extensions>
      </trkpt>
      <trkpt lat="42.5706238858401775360107421875" lon="20.03403277136385440826416015625">
        <ele>1981.199951171875</ele>
        <time>2026-06-15T13:17:07.000Z</time>
        <extensions>
          <ns3:TrackPointExtension>
            <ns3:atemp>24.0</ns3:atemp>
          </ns3:TrackPointExtension>
        </extensions>
      </trkpt>
      <trkpt lat="42.5706238858401775360107421875" lon="20.03403277136385440826416015625">
        <ele>1981</ele>
        <time>2026-06-15T13:17:08.000Z</time>
        <extensions>
          <ns3:TrackPointExtension>
            <ns3:atemp>24.0</ns3:atemp>
          </ns3:TrackPointExtension>
        </extensions>
      </trkpt>
      <trkpt lat="42.5706238858401775360107421875" lon="20.03403277136385440826416015625">
        <ele>1980.800048828125</ele>
        <time>2026-06-15T13:17:09.000Z</time>
        <extensions>
          <ns3:TrackPointExtension>
            <ns3:atemp>24.0</ns3:atemp>
          </ns3:TrackPointExtension>
        </extensions>
      </trkpt>
      <trkpt lat="42.5706238858401775360107421875" lon="20.03403277136385440826416015625">
        <ele>1980.800048828125</ele>
        <time>2026-06-15T13:17:10.000Z</time>
        <extensions>
          <ns3:TrackPointExtension>
            <ns3:atemp>24.0</ns3:atemp>
          </ns3:TrackPointExtension>
        </extensions>
      </trkpt>
      <trkpt lat="42.5706238858401775360107421875" lon="20.03403277136385440826416015625">
        <ele>1980.5999755859375</ele>
        <time>2026-06-15T13:17:11.000Z</time>
        <extensions>
          <ns3:TrackPointExtension>
            <ns3:atemp>24.0</ns3:atemp>
          </ns3:TrackPointExtension>
        </extensions>
      </trkpt>
      <trkpt lat="42.5706238858401775360107421875" lon="20.03403277136385440826416015625">
        <ele>1980.4000244140625</ele>
        <time>2026-06-15T13:17:12.000Z</time>
        <extensions>
          <ns3:TrackPointExtension>
            <ns3:atemp>24.0</ns3:atemp>
          </ns3:TrackPointExtension>
        </extensions>
      </trkpt>
      <trkpt lat="42.5706238858401775360107421875" lon="20.03403277136385440826416015625">
        <ele>1980.4000244140625</ele>
        <time>2026-06-15T13:17:13.000Z</time>
        <extensions>
          <ns3:TrackPointExtension>
            <ns3:atemp>24.0</ns3:atemp>
          </ns3:TrackPointExtension>
        </extensions>
      </trkpt>
      <trkpt lat="42.5706238858401775360107421875" lon="20.03403277136385440826416015625">
        <ele>1980.199951171875</ele>
        <time>2026-06-15T13:17:14.000Z</time>
        <extensions>
          <ns3:TrackPointExtension>
            <ns3:atemp>25.0</ns3:atemp>
          </ns3:TrackPointExtension>
        </extensions>
      </trkpt>
      <trkpt lat="42.5706238858401775360107421875" lon="20.03403277136385440826416015625">
        <ele>1980.199951171875</ele>
        <time>2026-06-15T13:17:15.000Z</time>
        <extensions>
          <ns3:TrackPointExtension>
            <ns3:atemp>25.0</ns3:atemp>
          </ns3:TrackPointExtension>
        </extensions>
      </trkpt>
      <trkpt lat="42.5706238858401775360107421875" lon="20.03403277136385440826416015625">
        <ele>1980.4000244140625</ele>
        <time>2026-06-15T13:17:16.000Z</time>
        <extensions>
          <ns3:TrackPointExtension>
            <ns3:atemp>25.0</ns3:atemp>
          </ns3:TrackPointExtension>
        </extensions>
      </trkpt>
      <trkpt lat="42.5706238858401775360107421875" lon="20.03403277136385440826416015625">
        <ele>1980.4000244140625</ele>
        <time>2026-06-15T13:17:17.000Z</time>
        <extensions>
          <ns3:TrackPointExtension>
            <ns3:atemp>25.0</ns3:atemp>
          </ns3:TrackPointExtension>
        </extensions>
      </trkpt>
      <trkpt lat="42.5706238858401775360107421875" lon="20.03403277136385440826416015625">
        <ele>1980.5999755859375</ele>
        <time>2026-06-15T13:17:18.000Z</time>
        <extensions>
          <ns3:TrackPointExtension>
            <ns3:atemp>25.0</ns3:atemp>
          </ns3:TrackPointExtension>
        </extensions>
      </trkpt>
      <trkpt lat="42.5706238858401775360107421875" lon="20.03403277136385440826416015625">
        <ele>1980.800048828125</ele>
        <time>2026-06-15T13:17:19.000Z</time>
        <extensions>
          <ns3:TrackPointExtension>
            <ns3:atemp>25.0</ns3:atemp>
          </ns3:TrackPointExtension>
        </extensions>
      </trkpt>
      <trkpt lat="42.5706238858401775360107421875" lon="20.03403277136385440826416015625">
        <ele>1980.800048828125</ele>
        <time>2026-06-15T13:17:20.000Z</time>
        <extensions>
          <ns3:TrackPointExtension>
            <ns3:atemp>25.0</ns3:atemp>
          </ns3:TrackPointExtension>
        </extensions>
      </trkpt>
      <trkpt lat="42.5706238858401775360107421875" lon="20.03403277136385440826416015625">
        <ele>1981</ele>
        <time>2026-06-15T13:17:21.000Z</time>
        <extensions>
          <ns3:TrackPointExtension>
            <ns3:atemp>24.0</ns3:atemp>
          </ns3:TrackPointExtension>
        </extensions>
      </trkpt>
      <trkpt lat="42.5706238858401775360107421875" lon="20.03403277136385440826416015625">
        <ele>1981</ele>
        <time>2026-06-15T13:17:22.000Z</time>
        <extensions>
          <ns3:TrackPointExtension>
            <ns3:atemp>24.0</ns3:atemp>
          </ns3:TrackPointExtension>
        </extensions>
      </trkpt>
      <trkpt lat="42.5706238858401775360107421875" lon="20.03403277136385440826416015625">
        <ele>1980.800048828125</ele>
        <time>2026-06-15T13:17:23.000Z</time>
        <extensions>
          <ns3:TrackPointExtension>
            <ns3:atemp>24.0</ns3:atemp>
          </ns3:TrackPointExtension>
        </extensions>
      </trkpt>
      <trkpt lat="42.5706238858401775360107421875" lon="20.03403277136385440826416015625">
        <ele>1980.5999755859375</ele>
        <time>2026-06-15T13:17:24.000Z</time>
        <extensions>
          <ns3:TrackPointExtension>
            <ns3:atemp>24.0</ns3:atemp>
          </ns3:TrackPointExtension>
        </extensions>
      </trkpt>
      <trkpt lat="42.5706238858401775360107421875" lon="20.03403277136385440826416015625">
        <ele>1980.4000244140625</ele>
        <time>2026-06-15T13:17:25.000Z</time>
        <extensions>
          <ns3:TrackPointExtension>
            <ns3:atemp>24.0</ns3:atemp>
          </ns3:TrackPointExtension>
        </extensions>
      </trkpt>
      <trkpt lat="42.5706238858401775360107421875" lon="20.03403277136385440826416015625">
        <ele>1980</ele>
        <time>2026-06-15T13:17:26.000Z</time>
        <extensions>
          <ns3:TrackPointExtension>
            <ns3:atemp>24.0</ns3:atemp>
          </ns3:TrackPointExtension>
        </extensions>
      </trkpt>
      <trkpt lat="42.5706238858401775360107421875" lon="20.03403277136385440826416015625">
        <ele>1979.5999755859375</ele>
        <time>2026-06-15T13:17:27.000Z</time>
        <extensions>
          <ns3:TrackPointExtension>
            <ns3:atemp>24.0</ns3:atemp>
          </ns3:TrackPointExtension>
        </extensions>
      </trkpt>
      <trkpt lat="42.5706238858401775360107421875" lon="20.03403277136385440826416015625">
        <ele>1979.4000244140625</ele>
        <time>2026-06-15T13:17:28.000Z</time>
        <extensions>
          <ns3:TrackPointExtension>
            <ns3:atemp>24.0</ns3:atemp>
          </ns3:TrackPointExtension>
        </extensions>
      </trkpt>
      <trkpt lat="42.5706238858401775360107421875" lon="20.03403277136385440826416015625">
        <ele>1979.4000244140625</ele>
        <time>2026-06-15T13:17:29.000Z</time>
        <extensions>
          <ns3:TrackPointExtension>
            <ns3:atemp>25.0</ns3:atemp>
          </ns3:TrackPointExtension>
        </extensions>
      </trkpt>
      <trkpt lat="42.5706238858401775360107421875" lon="20.03403277136385440826416015625">
        <ele>1979.4000244140625</ele>
        <time>2026-06-15T13:17:30.000Z</time>
        <extensions>
          <ns3:TrackPointExtension>
            <ns3:atemp>25.0</ns3:atemp>
          </ns3:TrackPointExtension>
        </extensions>
      </trkpt>
      <trkpt lat="42.5706238858401775360107421875" lon="20.03403277136385440826416015625">
        <ele>1979.4000244140625</ele>
        <time>2026-06-15T13:17:31.000Z</time>
        <extensions>
          <ns3:TrackPointExtension>
            <ns3:atemp>24.0</ns3:atemp>
          </ns3:TrackPointExtension>
        </extensions>
      </trkpt>
      <trkpt lat="42.5706238858401775360107421875" lon="20.03403277136385440826416015625">
        <ele>1979.4000244140625</ele>
        <time>2026-06-15T13:17:32.000Z</time>
        <extensions>
          <ns3:TrackPointExtension>
            <ns3:atemp>24.0</ns3:atemp>
          </ns3:TrackPointExtension>
        </extensions>
      </trkpt>
      <trkpt lat="42.5706238858401775360107421875" lon="20.03403277136385440826416015625">
        <ele>1979.4000244140625</ele>
        <time>2026-06-15T13:17:33.000Z</time>
        <extensions>
          <ns3:TrackPointExtension>
            <ns3:atemp>25.0</ns3:atemp>
          </ns3:TrackPointExtension>
        </extensions>
      </trkpt>
      <trkpt lat="42.5706238858401775360107421875" lon="20.03403277136385440826416015625">
        <ele>1979.4000244140625</ele>
        <time>2026-06-15T13:17:34.000Z</time>
        <extensions>
          <ns3:TrackPointExtension>
            <ns3:atemp>25.0</ns3:atemp>
          </ns3:TrackPointExtension>
        </extensions>
      </trkpt>
      <trkpt lat="42.5706238858401775360107421875" lon="20.03403277136385440826416015625">
        <ele>1979.199951171875</ele>
        <time>2026-06-15T13:17:35.000Z</time>
        <extensions>
          <ns3:TrackPointExtension>
            <ns3:atemp>25.0</ns3:atemp>
          </ns3:TrackPointExtension>
        </extensions>
      </trkpt>
      <trkpt lat="42.5706238858401775360107421875" lon="20.03403277136385440826416015625">
        <ele>1979.199951171875</ele>
        <time>2026-06-15T13:17:36.000Z</time>
        <extensions>
          <ns3:TrackPointExtension>
            <ns3:atemp>25.0</ns3:atemp>
          </ns3:TrackPointExtension>
        </extensions>
      </trkpt>
      <trkpt lat="42.5706238858401775360107421875" lon="20.03403277136385440826416015625">
        <ele>1979</ele>
        <time>2026-06-15T13:17:37.000Z</time>
        <extensions>
          <ns3:TrackPointExtension>
            <ns3:atemp>25.0</ns3:atemp>
          </ns3:TrackPointExtension>
        </extensions>
      </trkpt>
      <trkpt lat="42.5706238858401775360107421875" lon="20.03403277136385440826416015625">
        <ele>1979</ele>
        <time>2026-06-15T13:17:38.000Z</time>
        <extensions>
          <ns3:TrackPointExtension>
            <ns3:atemp>25.0</ns3:atemp>
          </ns3:TrackPointExtension>
        </extensions>
      </trkpt>
      <trkpt lat="42.5706238858401775360107421875" lon="20.03403277136385440826416015625">
        <ele>1979.199951171875</ele>
        <time>2026-06-15T13:17:39.000Z</time>
        <extensions>
          <ns3:TrackPointExtension>
            <ns3:atemp>25.0</ns3:atemp>
          </ns3:TrackPointExtension>
        </extensions>
      </trkpt>
      <trkpt lat="42.5706238858401775360107421875" lon="20.03403277136385440826416015625">
        <ele>1979.4000244140625</ele>
        <time>2026-06-15T13:17:40.000Z</time>
        <extensions>
          <ns3:TrackPointExtension>
            <ns3:atemp>25.0</ns3:atemp>
          </ns3:TrackPointExtension>
        </extensions>
      </trkpt>
      <trkpt lat="42.5706238858401775360107421875" lon="20.03403277136385440826416015625">
        <ele>1979.5999755859375</ele>
        <time>2026-06-15T13:17:41.000Z</time>
        <extensions>
          <ns3:TrackPointExtension>
            <ns3:atemp>25.0</ns3:atemp>
          </ns3:TrackPointExtension>
        </extensions>
      </trkpt>
      <trkpt lat="42.5706238858401775360107421875" lon="20.03403277136385440826416015625">
        <ele>1979.5999755859375</ele>
        <time>2026-06-15T13:17:42.000Z</time>
        <extensions>
          <ns3:TrackPointExtension>
            <ns3:atemp>25.0</ns3:atemp>
          </ns3:TrackPointExtension>
        </extensions>
      </trkpt>
      <trkpt lat="42.5706238858401775360107421875" lon="20.03403277136385440826416015625">
        <ele>1979.5999755859375</ele>
        <time>2026-06-15T13:17:43.000Z</time>
        <extensions>
          <ns3:TrackPointExtension>
            <ns3:atemp>25.0</ns3:atemp>
          </ns3:TrackPointExtension>
        </extensions>
      </trkpt>
      <trkpt lat="42.5706238858401775360107421875" lon="20.03403277136385440826416015625">
        <ele>1979.5999755859375</ele>
        <time>2026-06-15T13:17:44.000Z</time>
        <extensions>
          <ns3:TrackPointExtension>
            <ns3:atemp>25.0</ns3:atemp>
          </ns3:TrackPointExtension>
        </extensions>
      </trkpt>
      <trkpt lat="42.5706238858401775360107421875" lon="20.03403277136385440826416015625">
        <ele>1979.5999755859375</ele>
        <time>2026-06-15T13:17:45.000Z</time>
        <extensions>
          <ns3:TrackPointExtension>
            <ns3:atemp>25.0</ns3:atemp>
          </ns3:TrackPointExtension>
        </extensions>
      </trkpt>
      <trkpt lat="42.5706238858401775360107421875" lon="20.03403277136385440826416015625">
        <ele>1979.5999755859375</ele>
        <time>2026-06-15T13:17:46.000Z</time>
        <extensions>
          <ns3:TrackPointExtension>
            <ns3:atemp>25.0</ns3:atemp>
          </ns3:TrackPointExtension>
        </extensions>
      </trkpt>
      <trkpt lat="42.5706238858401775360107421875" lon="20.03403277136385440826416015625">
        <ele>1979.5999755859375</ele>
        <time>2026-06-15T13:17:47.000Z</time>
        <extensions>
          <ns3:TrackPointExtension>
            <ns3:atemp>25.0</ns3:atemp>
          </ns3:TrackPointExtension>
        </extensions>
      </trkpt>
      <trkpt lat="42.5706238858401775360107421875" lon="20.03403277136385440826416015625">
        <ele>1979.5999755859375</ele>
        <time>2026-06-15T13:17:48.000Z</time>
        <extensions>
          <ns3:TrackPointExtension>
            <ns3:atemp>25.0</ns3:atemp>
          </ns3:TrackPointExtension>
        </extensions>
      </trkpt>
      <trkpt lat="42.5706238858401775360107421875" lon="20.03403277136385440826416015625">
        <ele>1979.5999755859375</ele>
        <time>2026-06-15T13:17:49.000Z</time>
        <extensions>
          <ns3:TrackPointExtension>
            <ns3:atemp>25.0</ns3:atemp>
          </ns3:TrackPointExtension>
        </extensions>
      </trkpt>
      <trkpt lat="42.5706238858401775360107421875" lon="20.03403277136385440826416015625">
        <ele>1979.5999755859375</ele>
        <time>2026-06-15T13:17:50.000Z</time>
        <extensions>
          <ns3:TrackPointExtension>
            <ns3:atemp>25.0</ns3:atemp>
          </ns3:TrackPointExtension>
        </extensions>
      </trkpt>
      <trkpt lat="42.5706238858401775360107421875" lon="20.03403277136385440826416015625">
        <ele>1979.5999755859375</ele>
        <time>2026-06-15T13:17:51.000Z</time>
        <extensions>
          <ns3:TrackPointExtension>
            <ns3:atemp>25.0</ns3:atemp>
          </ns3:TrackPointExtension>
        </extensions>
      </trkpt>
      <trkpt lat="42.5706238858401775360107421875" lon="20.03403277136385440826416015625">
        <ele>1979.5999755859375</ele>
        <time>2026-06-15T13:17:52.000Z</time>
        <extensions>
          <ns3:TrackPointExtension>
            <ns3:atemp>25.0</ns3:atemp>
          </ns3:TrackPointExtension>
        </extensions>
      </trkpt>
      <trkpt lat="42.5706238858401775360107421875" lon="20.03403277136385440826416015625">
        <ele>1979.5999755859375</ele>
        <time>2026-06-15T13:17:53.000Z</time>
        <extensions>
          <ns3:TrackPointExtension>
            <ns3:atemp>25.0</ns3:atemp>
          </ns3:TrackPointExtension>
        </extensions>
      </trkpt>
      <trkpt lat="42.5706238858401775360107421875" lon="20.03403277136385440826416015625">
        <ele>1979.5999755859375</ele>
        <time>2026-06-15T13:17:54.000Z</time>
        <extensions>
          <ns3:TrackPointExtension>
            <ns3:atemp>25.0</ns3:atemp>
          </ns3:TrackPointExtension>
        </extensions>
      </trkpt>
      <trkpt lat="42.5706238858401775360107421875" lon="20.03403277136385440826416015625">
        <ele>1979.5999755859375</ele>
        <time>2026-06-15T13:17:55.000Z</time>
        <extensions>
          <ns3:TrackPointExtension>
            <ns3:atemp>25.0</ns3:atemp>
          </ns3:TrackPointExtension>
        </extensions>
      </trkpt>
      <trkpt lat="42.5706238858401775360107421875" lon="20.03403277136385440826416015625">
        <ele>1979.5999755859375</ele>
        <time>2026-06-15T13:17:56.000Z</time>
        <extensions>
          <ns3:TrackPointExtension>
            <ns3:atemp>25.0</ns3:atemp>
          </ns3:TrackPointExtension>
        </extensions>
      </trkpt>
      <trkpt lat="42.5706238858401775360107421875" lon="20.03403277136385440826416015625">
        <ele>1979.5999755859375</ele>
        <time>2026-06-15T13:17:57.000Z</time>
        <extensions>
          <ns3:TrackPointExtension>
            <ns3:atemp>25.0</ns3:atemp>
          </ns3:TrackPointExtension>
        </extensions>
      </trkpt>
      <trkpt lat="42.5706238858401775360107421875" lon="20.03403277136385440826416015625">
        <ele>1979.5999755859375</ele>
        <time>2026-06-15T13:17:58.000Z</time>
        <extensions>
          <ns3:TrackPointExtension>
            <ns3:atemp>25.0</ns3:atemp>
          </ns3:TrackPointExtension>
        </extensions>
      </trkpt>
      <trkpt lat="42.5706238858401775360107421875" lon="20.03403277136385440826416015625">
        <ele>1979.5999755859375</ele>
        <time>2026-06-15T13:17:59.000Z</time>
        <extensions>
          <ns3:TrackPointExtension>
            <ns3:atemp>25.0</ns3:atemp>
          </ns3:TrackPointExtension>
        </extensions>
      </trkpt>
      <trkpt lat="42.5706238858401775360107421875" lon="20.03403277136385440826416015625">
        <ele>1979.5999755859375</ele>
        <time>2026-06-15T13:18:00.000Z</time>
        <extensions>
          <ns3:TrackPointExtension>
            <ns3:atemp>25.0</ns3:atemp>
          </ns3:TrackPointExtension>
        </extensions>
      </trkpt>
      <trkpt lat="42.5706238858401775360107421875" lon="20.03403277136385440826416015625">
        <ele>1979.5999755859375</ele>
        <time>2026-06-15T13:18:01.000Z</time>
        <extensions>
          <ns3:TrackPointExtension>
            <ns3:atemp>25.0</ns3:atemp>
          </ns3:TrackPointExtension>
        </extensions>
      </trkpt>
      <trkpt lat="42.5706238858401775360107421875" lon="20.03403277136385440826416015625">
        <ele>1979.5999755859375</ele>
        <time>2026-06-15T13:18:02.000Z</time>
        <extensions>
          <ns3:TrackPointExtension>
            <ns3:atemp>25.0</ns3:atemp>
          </ns3:TrackPointExtension>
        </extensions>
      </trkpt>
      <trkpt lat="42.5706238858401775360107421875" lon="20.03403277136385440826416015625">
        <ele>1979.5999755859375</ele>
        <time>2026-06-15T13:18:03.000Z</time>
        <extensions>
          <ns3:TrackPointExtension>
            <ns3:atemp>25.0</ns3:atemp>
          </ns3:TrackPointExtension>
        </extensions>
      </trkpt>
      <trkpt lat="42.5706238858401775360107421875" lon="20.03403277136385440826416015625">
        <ele>1979.5999755859375</ele>
        <time>2026-06-15T13:18:04.000Z</time>
        <extensions>
          <ns3:TrackPointExtension>
            <ns3:atemp>25.0</ns3:atemp>
          </ns3:TrackPointExtension>
        </extensions>
      </trkpt>
      <trkpt lat="42.5706238858401775360107421875" lon="20.03403277136385440826416015625">
        <ele>1979.5999755859375</ele>
        <time>2026-06-15T13:18:05.000Z</time>
        <extensions>
          <ns3:TrackPointExtension>
            <ns3:atemp>25.0</ns3:atemp>
          </ns3:TrackPointExtension>
        </extensions>
      </trkpt>
      <trkpt lat="42.5706238858401775360107421875" lon="20.03403277136385440826416015625">
        <ele>1979.5999755859375</ele>
        <time>2026-06-15T13:18:06.000Z</time>
        <extensions>
          <ns3:TrackPointExtension>
            <ns3:atemp>25.0</ns3:atemp>
          </ns3:TrackPointExtension>
        </extensions>
      </trkpt>
      <trkpt lat="42.5706238858401775360107421875" lon="20.03403277136385440826416015625">
        <ele>1979.5999755859375</ele>
        <time>2026-06-15T13:18:07.000Z</time>
        <extensions>
          <ns3:TrackPointExtension>
            <ns3:atemp>25.0</ns3:atemp>
          </ns3:TrackPointExtension>
        </extensions>
      </trkpt>
      <trkpt lat="42.5706238858401775360107421875" lon="20.03403277136385440826416015625">
        <ele>1979.5999755859375</ele>
        <time>2026-06-15T13:18:08.000Z</time>
        <extensions>
          <ns3:TrackPointExtension>
            <ns3:atemp>25.0</ns3:atemp>
          </ns3:TrackPointExtension>
        </extensions>
      </trkpt>
      <trkpt lat="42.5706238858401775360107421875" lon="20.03403277136385440826416015625">
        <ele>1979.5999755859375</ele>
        <time>2026-06-15T13:18:09.000Z</time>
        <extensions>
          <ns3:TrackPointExtension>
            <ns3:atemp>25.0</ns3:atemp>
          </ns3:TrackPointExtension>
        </extensions>
      </trkpt>
      <trkpt lat="42.5706238858401775360107421875" lon="20.03403277136385440826416015625">
        <ele>1979.5999755859375</ele>
        <time>2026-06-15T13:18:10.000Z</time>
        <extensions>
          <ns3:TrackPointExtension>
            <ns3:atemp>25.0</ns3:atemp>
          </ns3:TrackPointExtension>
        </extensions>
      </trkpt>
      <trkpt lat="42.5706238858401775360107421875" lon="20.03403277136385440826416015625">
        <ele>1979.5999755859375</ele>
        <time>2026-06-15T13:18:11.000Z</time>
        <extensions>
          <ns3:TrackPointExtension>
            <ns3:atemp>25.0</ns3:atemp>
          </ns3:TrackPointExtension>
        </extensions>
      </trkpt>
      <trkpt lat="42.5706238858401775360107421875" lon="20.03403277136385440826416015625">
        <ele>1979.5999755859375</ele>
        <time>2026-06-15T13:18:12.000Z</time>
        <extensions>
          <ns3:TrackPointExtension>
            <ns3:atemp>25.0</ns3:atemp>
          </ns3:TrackPointExtension>
        </extensions>
      </trkpt>
      <trkpt lat="42.5706238858401775360107421875" lon="20.03403277136385440826416015625">
        <ele>1979.5999755859375</ele>
        <time>2026-06-15T13:18:13.000Z</time>
        <extensions>
          <ns3:TrackPointExtension>
            <ns3:atemp>25.0</ns3:atemp>
          </ns3:TrackPointExtension>
        </extensions>
      </trkpt>
      <trkpt lat="42.5706238858401775360107421875" lon="20.03403277136385440826416015625">
        <ele>1979.5999755859375</ele>
        <time>2026-06-15T13:18:14.000Z</time>
        <extensions>
          <ns3:TrackPointExtension>
            <ns3:atemp>25.0</ns3:atemp>
          </ns3:TrackPointExtension>
        </extensions>
      </trkpt>
      <trkpt lat="42.5706238858401775360107421875" lon="20.03403277136385440826416015625">
        <ele>1981</ele>
        <time>2026-06-15T13:18:15.000Z</time>
        <extensions>
          <ns3:TrackPointExtension>
            <ns3:atemp>25.0</ns3:atemp>
          </ns3:TrackPointExtension>
        </extensions>
      </trkpt>
      <trkpt lat="42.5706238858401775360107421875" lon="20.03403277136385440826416015625">
        <ele>1981.199951171875</ele>
        <time>2026-06-15T13:18:16.000Z</time>
        <extensions>
          <ns3:TrackPointExtension>
            <ns3:atemp>25.0</ns3:atemp>
          </ns3:TrackPointExtension>
        </extensions>
      </trkpt>
      <trkpt lat="42.5706238858401775360107421875" lon="20.03403277136385440826416015625">
        <ele>1981.199951171875</ele>
        <time>2026-06-15T13:18:17.000Z</time>
        <extensions>
          <ns3:TrackPointExtension>
            <ns3:atemp>25.0</ns3:atemp>
          </ns3:TrackPointExtension>
        </extensions>
      </trkpt>
      <trkpt lat="42.5706238858401775360107421875" lon="20.03403277136385440826416015625">
        <ele>1981.199951171875</ele>
        <time>2026-06-15T13:18:18.000Z</time>
        <extensions>
          <ns3:TrackPointExtension>
            <ns3:atemp>25.0</ns3:atemp>
          </ns3:TrackPointExtension>
        </extensions>
      </trkpt>
      <trkpt lat="42.5706238858401775360107421875" lon="20.03403277136385440826416015625">
        <ele>1981.4000244140625</ele>
        <time>2026-06-15T13:18:19.000Z</time>
        <extensions>
          <ns3:TrackPointExtension>
            <ns3:atemp>25.0</ns3:atemp>
          </ns3:TrackPointExtension>
        </extensions>
      </trkpt>
      <trkpt lat="42.5706238858401775360107421875" lon="20.03403277136385440826416015625">
        <ele>1981.4000244140625</ele>
        <time>2026-06-15T13:18:20.000Z</time>
        <extensions>
          <ns3:TrackPointExtension>
            <ns3:atemp>25.0</ns3:atemp>
          </ns3:TrackPointExtension>
        </extensions>
      </trkpt>
      <trkpt lat="42.5706238858401775360107421875" lon="20.03403277136385440826416015625">
        <ele>1981.4000244140625</ele>
        <time>2026-06-15T13:18:21.000Z</time>
        <extensions>
          <ns3:TrackPointExtension>
            <ns3:atemp>25.0</ns3:atemp>
          </ns3:TrackPointExtension>
        </extensions>
      </trkpt>
      <trkpt lat="42.5706238858401775360107421875" lon="20.03403277136385440826416015625">
        <ele>1980.800048828125</ele>
        <time>2026-06-15T13:18:22.000Z</time>
        <extensions>
          <ns3:TrackPointExtension>
            <ns3:atemp>25.0</ns3:atemp>
          </ns3:TrackPointExtension>
        </extensions>
      </trkpt>
      <trkpt lat="42.5706238858401775360107421875" lon="20.03403277136385440826416015625">
        <ele>1980.4000244140625</ele>
        <time>2026-06-15T13:18:23.000Z</time>
        <extensions>
          <ns3:TrackPointExtension>
            <ns3:atemp>25.0</ns3:atemp>
          </ns3:TrackPointExtension>
        </extensions>
      </trkpt>
      <trkpt lat="42.5706238858401775360107421875" lon="20.03403277136385440826416015625">
        <ele>1980</ele>
        <time>2026-06-15T13:18:24.000Z</time>
        <extensions>
          <ns3:TrackPointExtension>
            <ns3:atemp>25.0</ns3:atemp>
          </ns3:TrackPointExtension>
        </extensions>
      </trkpt>
      <trkpt lat="42.5706238858401775360107421875" lon="20.03403277136385440826416015625">
        <ele>1979.800048828125</ele>
        <time>2026-06-15T13:18:25.000Z</time>
        <extensions>
          <ns3:TrackPointExtension>
            <ns3:atemp>25.0</ns3:atemp>
          </ns3:TrackPointExtension>
        </extensions>
      </trkpt>
      <trkpt lat="42.5706238858401775360107421875" lon="20.03403277136385440826416015625">
        <ele>1979.4000244140625</ele>
        <time>2026-06-15T13:18:26.000Z</time>
        <extensions>
          <ns3:TrackPointExtension>
            <ns3:atemp>25.0</ns3:atemp>
          </ns3:TrackPointExtension>
        </extensions>
      </trkpt>
      <trkpt lat="42.5706238858401775360107421875" lon="20.03403277136385440826416015625">
        <ele>1979.199951171875</ele>
        <time>2026-06-15T13:18:27.000Z</time>
        <extensions>
          <ns3:TrackPointExtension>
            <ns3:atemp>25.0</ns3:atemp>
          </ns3:TrackPointExtension>
        </extensions>
      </trkpt>
      <trkpt lat="42.5706238858401775360107421875" lon="20.03403277136385440826416015625">
        <ele>1979.199951171875</ele>
        <time>2026-06-15T13:18:28.000Z</time>
        <extensions>
          <ns3:TrackPointExtension>
            <ns3:atemp>25.0</ns3:atemp>
          </ns3:TrackPointExtension>
        </extensions>
      </trkpt>
      <trkpt lat="42.5706238858401775360107421875" lon="20.03403277136385440826416015625">
        <ele>1979.199951171875</ele>
        <time>2026-06-15T13:18:29.000Z</time>
        <extensions>
          <ns3:TrackPointExtension>
            <ns3:atemp>25.0</ns3:atemp>
          </ns3:TrackPointExtension>
        </extensions>
      </trkpt>
      <trkpt lat="42.5706238858401775360107421875" lon="20.03403277136385440826416015625">
        <ele>1979.4000244140625</ele>
        <time>2026-06-15T13:18:30.000Z</time>
        <extensions>
          <ns3:TrackPointExtension>
            <ns3:atemp>25.0</ns3:atemp>
          </ns3:TrackPointExtension>
        </extensions>
      </trkpt>
      <trkpt lat="42.5706238858401775360107421875" lon="20.03403277136385440826416015625">
        <ele>1979.4000244140625</ele>
        <time>2026-06-15T13:18:31.000Z</time>
        <extensions>
          <ns3:TrackPointExtension>
            <ns3:atemp>25.0</ns3:atemp>
          </ns3:TrackPointExtension>
        </extensions>
      </trkpt>
      <trkpt lat="42.5706238858401775360107421875" lon="20.03403277136385440826416015625">
        <ele>1979.4000244140625</ele>
        <time>2026-06-15T13:18:32.000Z</time>
        <extensions>
          <ns3:TrackPointExtension>
            <ns3:atemp>25.0</ns3:atemp>
          </ns3:TrackPointExtension>
        </extensions>
      </trkpt>
      <trkpt lat="42.5706238858401775360107421875" lon="20.03403277136385440826416015625">
        <ele>1979.4000244140625</ele>
        <time>2026-06-15T13:18:33.000Z</time>
        <extensions>
          <ns3:TrackPointExtension>
            <ns3:atemp>25.0</ns3:atemp>
          </ns3:TrackPointExtension>
        </extensions>
      </trkpt>
      <trkpt lat="42.5706238858401775360107421875" lon="20.03403277136385440826416015625">
        <ele>1979.4000244140625</ele>
        <time>2026-06-15T13:18:34.000Z</time>
        <extensions>
          <ns3:TrackPointExtension>
            <ns3:atemp>25.0</ns3:atemp>
          </ns3:TrackPointExtension>
        </extensions>
      </trkpt>
      <trkpt lat="42.5706238858401775360107421875" lon="20.03403277136385440826416015625">
        <ele>1979.199951171875</ele>
        <time>2026-06-15T13:18:35.000Z</time>
        <extensions>
          <ns3:TrackPointExtension>
            <ns3:atemp>25.0</ns3:atemp>
          </ns3:TrackPointExtension>
        </extensions>
      </trkpt>
      <trkpt lat="42.5706238858401775360107421875" lon="20.03403277136385440826416015625">
        <ele>1979.4000244140625</ele>
        <time>2026-06-15T13:18:36.000Z</time>
        <extensions>
          <ns3:TrackPointExtension>
            <ns3:atemp>25.0</ns3:atemp>
          </ns3:TrackPointExtension>
        </extensions>
      </trkpt>
      <trkpt lat="42.5706238858401775360107421875" lon="20.03403277136385440826416015625">
        <ele>1979.5999755859375</ele>
        <time>2026-06-15T13:18:37.000Z</time>
        <extensions>
          <ns3:TrackPointExtension>
            <ns3:atemp>25.0</ns3:atemp>
          </ns3:TrackPointExtension>
        </extensions>
      </trkpt>
      <trkpt lat="42.5706238858401775360107421875" lon="20.03403277136385440826416015625">
        <ele>1979.800048828125</ele>
        <time>2026-06-15T13:18:38.000Z</time>
        <extensions>
          <ns3:TrackPointExtension>
            <ns3:atemp>25.0</ns3:atemp>
          </ns3:TrackPointExtension>
        </extensions>
      </trkpt>
      <trkpt lat="42.5706238858401775360107421875" lon="20.03403277136385440826416015625">
        <ele>1980</ele>
        <time>2026-06-15T13:18:39.000Z</time>
        <extensions>
          <ns3:TrackPointExtension>
            <ns3:atemp>25.0</ns3:atemp>
          </ns3:TrackPointExtension>
        </extensions>
      </trkpt>
      <trkpt lat="42.5706238858401775360107421875" lon="20.03403277136385440826416015625">
        <ele>1980.199951171875</ele>
        <time>2026-06-15T13:18:40.000Z</time>
        <extensions>
          <ns3:TrackPointExtension>
            <ns3:atemp>25.0</ns3:atemp>
          </ns3:TrackPointExtension>
        </extensions>
      </trkpt>
      <trkpt lat="42.5706238858401775360107421875" lon="20.03403277136385440826416015625">
        <ele>1980.199951171875</ele>
        <time>2026-06-15T13:18:41.000Z</time>
        <extensions>
          <ns3:TrackPointExtension>
            <ns3:atemp>25.0</ns3:atemp>
          </ns3:TrackPointExtension>
        </extensions>
      </trkpt>
      <trkpt lat="42.5706238858401775360107421875" lon="20.03403277136385440826416015625">
        <ele>1980</ele>
        <time>2026-06-15T13:18:42.000Z</time>
        <extensions>
          <ns3:TrackPointExtension>
            <ns3:atemp>25.0</ns3:atemp>
          </ns3:TrackPointExtension>
        </extensions>
      </trkpt>
      <trkpt lat="42.5706238858401775360107421875" lon="20.03403277136385440826416015625">
        <ele>1979.800048828125</ele>
        <time>2026-06-15T13:18:43.000Z</time>
        <extensions>
          <ns3:TrackPointExtension>
            <ns3:atemp>25.0</ns3:atemp>
          </ns3:TrackPointExtension>
        </extensions>
      </trkpt>
      <trkpt lat="42.5706238858401775360107421875" lon="20.03403277136385440826416015625">
        <ele>1979.5999755859375</ele>
        <time>2026-06-15T13:18:44.000Z</time>
        <extensions>
          <ns3:TrackPointExtension>
            <ns3:atemp>25.0</ns3:atemp>
          </ns3:TrackPointExtension>
        </extensions>
      </trkpt>
      <trkpt lat="42.5706238858401775360107421875" lon="20.03403277136385440826416015625">
        <ele>1979.4000244140625</ele>
        <time>2026-06-15T13:18:45.000Z</time>
        <extensions>
          <ns3:TrackPointExtension>
            <ns3:atemp>25.0</ns3:atemp>
          </ns3:TrackPointExtension>
        </extensions>
      </trkpt>
      <trkpt lat="42.5706238858401775360107421875" lon="20.03403277136385440826416015625">
        <ele>1979.199951171875</ele>
        <time>2026-06-15T13:18:46.000Z</time>
        <extensions>
          <ns3:TrackPointExtension>
            <ns3:atemp>25.0</ns3:atemp>
          </ns3:TrackPointExtension>
        </extensions>
      </trkpt>
      <trkpt lat="42.5706238858401775360107421875" lon="20.03403277136385440826416015625">
        <ele>1979</ele>
        <time>2026-06-15T13:18:47.000Z</time>
        <extensions>
          <ns3:TrackPointExtension>
            <ns3:atemp>25.0</ns3:atemp>
          </ns3:TrackPointExtension>
        </extensions>
      </trkpt>
      <trkpt lat="42.5706238858401775360107421875" lon="20.03403277136385440826416015625">
        <ele>1979</ele>
        <time>2026-06-15T13:18:48.000Z</time>
        <extensions>
          <ns3:TrackPointExtension>
            <ns3:atemp>25.0</ns3:atemp>
          </ns3:TrackPointExtension>
        </extensions>
      </trkpt>
      <trkpt lat="42.5706238858401775360107421875" lon="20.03403277136385440826416015625">
        <ele>1979</ele>
        <time>2026-06-15T13:18:49.000Z</time>
        <extensions>
          <ns3:TrackPointExtension>
            <ns3:atemp>25.0</ns3:atemp>
          </ns3:TrackPointExtension>
        </extensions>
      </trkpt>
      <trkpt lat="42.5706238858401775360107421875" lon="20.03403277136385440826416015625">
        <ele>1979</ele>
        <time>2026-06-15T13:18:50.000Z</time>
        <extensions>
          <ns3:TrackPointExtension>
            <ns3:atemp>25.0</ns3:atemp>
          </ns3:TrackPointExtension>
        </extensions>
      </trkpt>
      <trkpt lat="42.5706238858401775360107421875" lon="20.03403277136385440826416015625">
        <ele>1979</ele>
        <time>2026-06-15T13:18:51.000Z</time>
        <extensions>
          <ns3:TrackPointExtension>
            <ns3:atemp>25.0</ns3:atemp>
          </ns3:TrackPointExtension>
        </extensions>
      </trkpt>
      <trkpt lat="42.5706238858401775360107421875" lon="20.03403277136385440826416015625">
        <ele>1979.199951171875</ele>
        <time>2026-06-15T13:18:52.000Z</time>
        <extensions>
          <ns3:TrackPointExtension>
            <ns3:atemp>25.0</ns3:atemp>
          </ns3:TrackPointExtension>
        </extensions>
      </trkpt>
      <trkpt lat="42.5706238858401775360107421875" lon="20.03403277136385440826416015625">
        <ele>1979.199951171875</ele>
        <time>2026-06-15T13:18:53.000Z</time>
        <extensions>
          <ns3:TrackPointExtension>
            <ns3:atemp>25.0</ns3:atemp>
          </ns3:TrackPointExtension>
        </extensions>
      </trkpt>
      <trkpt lat="42.5706238858401775360107421875" lon="20.03403277136385440826416015625">
        <ele>1979</ele>
        <time>2026-06-15T13:18:54.000Z</time>
        <extensions>
          <ns3:TrackPointExtension>
            <ns3:atemp>25.0</ns3:atemp>
          </ns3:TrackPointExtension>
        </extensions>
      </trkpt>
      <trkpt lat="42.5706238858401775360107421875" lon="20.03403277136385440826416015625">
        <ele>1979</ele>
        <time>2026-06-15T13:18:55.000Z</time>
        <extensions>
          <ns3:TrackPointExtension>
            <ns3:atemp>25.0</ns3:atemp>
          </ns3:TrackPointExtension>
        </extensions>
      </trkpt>
      <trkpt lat="42.5706238858401775360107421875" lon="20.03403277136385440826416015625">
        <ele>1979</ele>
        <time>2026-06-15T13:18:56.000Z</time>
        <extensions>
          <ns3:TrackPointExtension>
            <ns3:atemp>25.0</ns3:atemp>
          </ns3:TrackPointExtension>
        </extensions>
      </trkpt>
      <trkpt lat="42.5706238858401775360107421875" lon="20.03403277136385440826416015625">
        <ele>1979.4000244140625</ele>
        <time>2026-06-15T13:18:57.000Z</time>
        <extensions>
          <ns3:TrackPointExtension>
            <ns3:atemp>25.0</ns3:atemp>
          </ns3:TrackPointExtension>
        </extensions>
      </trkpt>
      <trkpt lat="42.5706238858401775360107421875" lon="20.03403277136385440826416015625">
        <ele>1979.800048828125</ele>
        <time>2026-06-15T13:18:58.000Z</time>
        <extensions>
          <ns3:TrackPointExtension>
            <ns3:atemp>25.0</ns3:atemp>
          </ns3:TrackPointExtension>
        </extensions>
      </trkpt>
      <trkpt lat="42.5706238858401775360107421875" lon="20.03403277136385440826416015625">
        <ele>1980.199951171875</ele>
        <time>2026-06-15T13:18:59.000Z</time>
        <extensions>
          <ns3:TrackPointExtension>
            <ns3:atemp>25.0</ns3:atemp>
          </ns3:TrackPointExtension>
        </extensions>
      </trkpt>
      <trkpt lat="42.5706238858401775360107421875" lon="20.03403277136385440826416015625">
        <ele>1980.199951171875</ele>
        <time>2026-06-15T13:19:00.000Z</time>
        <extensions>
          <ns3:TrackPointExtension>
            <ns3:atemp>25.0</ns3:atemp>
          </ns3:TrackPointExtension>
        </extensions>
      </trkpt>
      <trkpt lat="42.5706238858401775360107421875" lon="20.03403277136385440826416015625">
        <ele>1980.199951171875</ele>
        <time>2026-06-15T13:19:01.000Z</time>
        <extensions>
          <ns3:TrackPointExtension>
            <ns3:atemp>25.0</ns3:atemp>
          </ns3:TrackPointExtension>
        </extensions>
      </trkpt>
      <trkpt lat="42.5706238858401775360107421875" lon="20.03403277136385440826416015625">
        <ele>1980</ele>
        <time>2026-06-15T13:19:02.000Z</time>
        <extensions>
          <ns3:TrackPointExtension>
            <ns3:atemp>25.0</ns3:atemp>
          </ns3:TrackPointExtension>
        </extensions>
      </trkpt>
      <trkpt lat="42.5706238858401775360107421875" lon="20.03403277136385440826416015625">
        <ele>1979.800048828125</ele>
        <time>2026-06-15T13:19:03.000Z</time>
        <extensions>
          <ns3:TrackPointExtension>
            <ns3:atemp>25.0</ns3:atemp>
          </ns3:TrackPointExtension>
        </extensions>
      </trkpt>
      <trkpt lat="42.5706238858401775360107421875" lon="20.03403277136385440826416015625">
        <ele>1979.5999755859375</ele>
        <time>2026-06-15T13:19:04.000Z</time>
        <extensions>
          <ns3:TrackPointExtension>
            <ns3:atemp>25.0</ns3:atemp>
          </ns3:TrackPointExtension>
        </extensions>
      </trkpt>
      <trkpt lat="42.5706238858401775360107421875" lon="20.03403277136385440826416015625">
        <ele>1979.4000244140625</ele>
        <time>2026-06-15T13:19:05.000Z</time>
        <extensions>
          <ns3:TrackPointExtension>
            <ns3:atemp>25.0</ns3:atemp>
          </ns3:TrackPointExtension>
        </extensions>
      </trkpt>
      <trkpt lat="42.5706238858401775360107421875" lon="20.03403277136385440826416015625">
        <ele>1979.199951171875</ele>
        <time>2026-06-15T13:19:06.000Z</time>
        <extensions>
          <ns3:TrackPointExtension>
            <ns3:atemp>25.0</ns3:atemp>
          </ns3:TrackPointExtension>
        </extensions>
      </trkpt>
      <trkpt lat="42.5706238858401775360107421875" lon="20.03403277136385440826416015625">
        <ele>1979.199951171875</ele>
        <time>2026-06-15T13:19:07.000Z</time>
        <extensions>
          <ns3:TrackPointExtension>
            <ns3:atemp>25.0</ns3:atemp>
          </ns3:TrackPointExtension>
        </extensions>
      </trkpt>
      <trkpt lat="42.5706238858401775360107421875" lon="20.03403277136385440826416015625">
        <ele>1979.199951171875</ele>
        <time>2026-06-15T13:19:08.000Z</time>
        <extensions>
          <ns3:TrackPointExtension>
            <ns3:atemp>25.0</ns3:atemp>
          </ns3:TrackPointExtension>
        </extensions>
      </trkpt>
      <trkpt lat="42.5706238858401775360107421875" lon="20.03403277136385440826416015625">
        <ele>1979.199951171875</ele>
        <time>2026-06-15T13:19:09.000Z</time>
        <extensions>
          <ns3:TrackPointExtension>
            <ns3:atemp>25.0</ns3:atemp>
          </ns3:TrackPointExtension>
        </extensions>
      </trkpt>
      <trkpt lat="42.5706238858401775360107421875" lon="20.03403277136385440826416015625">
        <ele>1979.199951171875</ele>
        <time>2026-06-15T13:19:10.000Z</time>
        <extensions>
          <ns3:TrackPointExtension>
            <ns3:atemp>25.0</ns3:atemp>
          </ns3:TrackPointExtension>
        </extensions>
      </trkpt>
      <trkpt lat="42.5706238858401775360107421875" lon="20.03403277136385440826416015625">
        <ele>1979.199951171875</ele>
        <time>2026-06-15T13:19:11.000Z</time>
        <extensions>
          <ns3:TrackPointExtension>
            <ns3:atemp>25.0</ns3:atemp>
          </ns3:TrackPointExtension>
        </extensions>
      </trkpt>
      <trkpt lat="42.5706238858401775360107421875" lon="20.03403277136385440826416015625">
        <ele>1979.199951171875</ele>
        <time>2026-06-15T13:19:12.000Z</time>
        <extensions>
          <ns3:TrackPointExtension>
            <ns3:atemp>25.0</ns3:atemp>
          </ns3:TrackPointExtension>
        </extensions>
      </trkpt>
      <trkpt lat="42.5706238858401775360107421875" lon="20.03403277136385440826416015625">
        <ele>1979.199951171875</ele>
        <time>2026-06-15T13:19:13.000Z</time>
        <extensions>
          <ns3:TrackPointExtension>
            <ns3:atemp>25.0</ns3:atemp>
          </ns3:TrackPointExtension>
        </extensions>
      </trkpt>
      <trkpt lat="42.5706238858401775360107421875" lon="20.03403277136385440826416015625">
        <ele>1979.199951171875</ele>
        <time>2026-06-15T13:19:14.000Z</time>
        <extensions>
          <ns3:TrackPointExtension>
            <ns3:atemp>25.0</ns3:atemp>
          </ns3:TrackPointExtension>
        </extensions>
      </trkpt>
      <trkpt lat="42.5706238858401775360107421875" lon="20.03403277136385440826416015625">
        <ele>1979.199951171875</ele>
        <time>2026-06-15T13:19:15.000Z</time>
        <extensions>
          <ns3:TrackPointExtension>
            <ns3:atemp>25.0</ns3:atemp>
          </ns3:TrackPointExtension>
        </extensions>
      </trkpt>
      <trkpt lat="42.5706238858401775360107421875" lon="20.03403277136385440826416015625">
        <ele>1979</ele>
        <time>2026-06-15T13:19:16.000Z</time>
        <extensions>
          <ns3:TrackPointExtension>
            <ns3:atemp>25.0</ns3:atemp>
          </ns3:TrackPointExtension>
        </extensions>
      </trkpt>
      <trkpt lat="42.5706238858401775360107421875" lon="20.03403277136385440826416015625">
        <ele>1979.199951171875</ele>
        <time>2026-06-15T13:19:17.000Z</time>
        <extensions>
          <ns3:TrackPointExtension>
            <ns3:atemp>25.0</ns3:atemp>
          </ns3:TrackPointExtension>
        </extensions>
      </trkpt>
      <trkpt lat="42.5706238858401775360107421875" lon="20.03403277136385440826416015625">
        <ele>1979.199951171875</ele>
        <time>2026-06-15T13:19:18.000Z</time>
        <extensions>
          <ns3:TrackPointExtension>
            <ns3:atemp>25.0</ns3:atemp>
          </ns3:TrackPointExtension>
        </extensions>
      </trkpt>
      <trkpt lat="42.5706238858401775360107421875" lon="20.03403277136385440826416015625">
        <ele>1979.4000244140625</ele>
        <time>2026-06-15T13:19:19.000Z</time>
        <extensions>
          <ns3:TrackPointExtension>
            <ns3:atemp>25.0</ns3:atemp>
          </ns3:TrackPointExtension>
        </extensions>
      </trkpt>
      <trkpt lat="42.5706238858401775360107421875" lon="20.03403277136385440826416015625">
        <ele>1979.5999755859375</ele>
        <time>2026-06-15T13:19:20.000Z</time>
        <extensions>
          <ns3:TrackPointExtension>
            <ns3:atemp>25.0</ns3:atemp>
          </ns3:TrackPointExtension>
        </extensions>
      </trkpt>
      <trkpt lat="42.5706238858401775360107421875" lon="20.03403277136385440826416015625">
        <ele>1979.5999755859375</ele>
        <time>2026-06-15T13:19:21.000Z</time>
        <extensions>
          <ns3:TrackPointExtension>
            <ns3:atemp>25.0</ns3:atemp>
          </ns3:TrackPointExtension>
        </extensions>
      </trkpt>
      <trkpt lat="42.5706238858401775360107421875" lon="20.03403277136385440826416015625">
        <ele>1979.5999755859375</ele>
        <time>2026-06-15T13:19:22.000Z</time>
        <extensions>
          <ns3:TrackPointExtension>
            <ns3:atemp>25.0</ns3:atemp>
          </ns3:TrackPointExtension>
        </extensions>
      </trkpt>
      <trkpt lat="42.5706238858401775360107421875" lon="20.03403277136385440826416015625">
        <ele>1979.199951171875</ele>
        <time>2026-06-15T13:19:23.000Z</time>
        <extensions>
          <ns3:TrackPointExtension>
            <ns3:atemp>25.0</ns3:atemp>
          </ns3:TrackPointExtension>
        </extensions>
      </trkpt>
      <trkpt lat="42.5706238858401775360107421875" lon="20.03403277136385440826416015625">
        <ele>1979</ele>
        <time>2026-06-15T13:19:24.000Z</time>
        <extensions>
          <ns3:TrackPointExtension>
            <ns3:atemp>25.0</ns3:atemp>
          </ns3:TrackPointExtension>
        </extensions>
      </trkpt>
      <trkpt lat="42.5706238858401775360107421875" lon="20.03403277136385440826416015625">
        <ele>1978.5999755859375</ele>
        <time>2026-06-15T13:19:25.000Z</time>
        <extensions>
          <ns3:TrackPointExtension>
            <ns3:atemp>25.0</ns3:atemp>
          </ns3:TrackPointExtension>
        </extensions>
      </trkpt>
      <trkpt lat="42.5706238858401775360107421875" lon="20.03403277136385440826416015625">
        <ele>1978.5999755859375</ele>
        <time>2026-06-15T13:19:26.000Z</time>
        <extensions>
          <ns3:TrackPointExtension>
            <ns3:atemp>25.0</ns3:atemp>
          </ns3:TrackPointExtension>
        </extensions>
      </trkpt>
      <trkpt lat="42.5706238858401775360107421875" lon="20.03403277136385440826416015625">
        <ele>1978.5999755859375</ele>
        <time>2026-06-15T13:19:27.000Z</time>
        <extensions>
          <ns3:TrackPointExtension>
            <ns3:atemp>25.0</ns3:atemp>
          </ns3:TrackPointExtension>
        </extensions>
      </trkpt>
      <trkpt lat="42.5706238858401775360107421875" lon="20.03403277136385440826416015625">
        <ele>1978.5999755859375</ele>
        <time>2026-06-15T13:19:28.000Z</time>
        <extensions>
          <ns3:TrackPointExtension>
            <ns3:atemp>25.0</ns3:atemp>
          </ns3:TrackPointExtension>
        </extensions>
      </trkpt>
      <trkpt lat="42.5706238858401775360107421875" lon="20.03403277136385440826416015625">
        <ele>1978.5999755859375</ele>
        <time>2026-06-15T13:19:29.000Z</time>
        <extensions>
          <ns3:TrackPointExtension>
            <ns3:atemp>25.0</ns3:atemp>
          </ns3:TrackPointExtension>
        </extensions>
      </trkpt>
      <trkpt lat="42.5706238858401775360107421875" lon="20.03403277136385440826416015625">
        <ele>1978.800048828125</ele>
        <time>2026-06-15T13:19:30.000Z</time>
        <extensions>
          <ns3:TrackPointExtension>
            <ns3:atemp>25.0</ns3:atemp>
          </ns3:TrackPointExtension>
        </extensions>
      </trkpt>
      <trkpt lat="42.5706238858401775360107421875" lon="20.03403277136385440826416015625">
        <ele>1979</ele>
        <time>2026-06-15T13:19:31.000Z</time>
        <extensions>
          <ns3:TrackPointExtension>
            <ns3:atemp>25.0</ns3:atemp>
          </ns3:TrackPointExtension>
        </extensions>
      </trkpt>
      <trkpt lat="42.5706238858401775360107421875" lon="20.03403277136385440826416015625">
        <ele>1979</ele>
        <time>2026-06-15T13:19:32.000Z</time>
        <extensions>
          <ns3:TrackPointExtension>
            <ns3:atemp>25.0</ns3:atemp>
          </ns3:TrackPointExtension>
        </extensions>
      </trkpt>
      <trkpt lat="42.5706238858401775360107421875" lon="20.03403277136385440826416015625">
        <ele>1979.199951171875</ele>
        <time>2026-06-15T13:19:33.000Z</time>
        <extensions>
          <ns3:TrackPointExtension>
            <ns3:atemp>25.0</ns3:atemp>
          </ns3:TrackPointExtension>
        </extensions>
      </trkpt>
      <trkpt lat="42.5706238858401775360107421875" lon="20.03403277136385440826416015625">
        <ele>1979.4000244140625</ele>
        <time>2026-06-15T13:19:34.000Z</time>
        <extensions>
          <ns3:TrackPointExtension>
            <ns3:atemp>25.0</ns3:atemp>
          </ns3:TrackPointExtension>
        </extensions>
      </trkpt>
      <trkpt lat="42.5706238858401775360107421875" lon="20.03403277136385440826416015625">
        <ele>1979.800048828125</ele>
        <time>2026-06-15T13:19:35.000Z</time>
        <extensions>
          <ns3:TrackPointExtension>
            <ns3:atemp>25.0</ns3:atemp>
          </ns3:TrackPointExtension>
        </extensions>
      </trkpt>
      <trkpt lat="42.5706238858401775360107421875" lon="20.03403277136385440826416015625">
        <ele>1979.800048828125</ele>
        <time>2026-06-15T13:19:36.000Z</time>
        <extensions>
          <ns3:TrackPointExtension>
            <ns3:atemp>25.0</ns3:atemp>
          </ns3:TrackPointExtension>
        </extensions>
      </trkpt>
      <trkpt lat="42.5706238858401775360107421875" lon="20.03403277136385440826416015625">
        <ele>1979.800048828125</ele>
        <time>2026-06-15T13:19:37.000Z</time>
        <extensions>
          <ns3:TrackPointExtension>
            <ns3:atemp>25.0</ns3:atemp>
          </ns3:TrackPointExtension>
        </extensions>
      </trkpt>
      <trkpt lat="42.5706238858401775360107421875" lon="20.03403277136385440826416015625">
        <ele>1979.800048828125</ele>
        <time>2026-06-15T13:19:38.000Z</time>
        <extensions>
          <ns3:TrackPointExtension>
            <ns3:atemp>25.0</ns3:atemp>
          </ns3:TrackPointExtension>
        </extensions>
      </trkpt>
      <trkpt lat="42.5706238858401775360107421875" lon="20.03403277136385440826416015625">
        <ele>1979.800048828125</ele>
        <time>2026-06-15T13:19:39.000Z</time>
        <extensions>
          <ns3:TrackPointExtension>
            <ns3:atemp>25.0</ns3:atemp>
          </ns3:TrackPointExtension>
        </extensions>
      </trkpt>
      <trkpt lat="42.5706238858401775360107421875" lon="20.03403277136385440826416015625">
        <ele>1979.5999755859375</ele>
        <time>2026-06-15T13:19:40.000Z</time>
        <extensions>
          <ns3:TrackPointExtension>
            <ns3:atemp>25.0</ns3:atemp>
          </ns3:TrackPointExtension>
        </extensions>
      </trkpt>
      <trkpt lat="42.5706238858401775360107421875" lon="20.03403277136385440826416015625">
        <ele>1979.4000244140625</ele>
        <time>2026-06-15T13:19:41.000Z</time>
        <extensions>
          <ns3:TrackPointExtension>
            <ns3:atemp>25.0</ns3:atemp>
          </ns3:TrackPointExtension>
        </extensions>
      </trkpt>
      <trkpt lat="42.5706238858401775360107421875" lon="20.03403277136385440826416015625">
        <ele>1979.199951171875</ele>
        <time>2026-06-15T13:19:42.000Z</time>
        <extensions>
          <ns3:TrackPointExtension>
            <ns3:atemp>25.0</ns3:atemp>
          </ns3:TrackPointExtension>
        </extensions>
      </trkpt>
      <trkpt lat="42.5706238858401775360107421875" lon="20.03403277136385440826416015625">
        <ele>1979</ele>
        <time>2026-06-15T13:19:43.000Z</time>
        <extensions>
          <ns3:TrackPointExtension>
            <ns3:atemp>25.0</ns3:atemp>
          </ns3:TrackPointExtension>
        </extensions>
      </trkpt>
      <trkpt lat="42.5706238858401775360107421875" lon="20.03403277136385440826416015625">
        <ele>1979</ele>
        <time>2026-06-15T13:19:44.000Z</time>
        <extensions>
          <ns3:TrackPointExtension>
            <ns3:atemp>25.0</ns3:atemp>
          </ns3:TrackPointExtension>
        </extensions>
      </trkpt>
      <trkpt lat="42.5706238858401775360107421875" lon="20.03403277136385440826416015625">
        <ele>1979</ele>
        <time>2026-06-15T13:19:45.000Z</time>
        <extensions>
          <ns3:TrackPointExtension>
            <ns3:atemp>25.0</ns3:atemp>
          </ns3:TrackPointExtension>
        </extensions>
      </trkpt>
      <trkpt lat="42.5706238858401775360107421875" lon="20.03403277136385440826416015625">
        <ele>1978.800048828125</ele>
        <time>2026-06-15T13:19:46.000Z</time>
        <extensions>
          <ns3:TrackPointExtension>
            <ns3:atemp>25.0</ns3:atemp>
          </ns3:TrackPointExtension>
        </extensions>
      </trkpt>
      <trkpt lat="42.5706238858401775360107421875" lon="20.03403277136385440826416015625">
        <ele>1979</ele>
        <time>2026-06-15T13:19:47.000Z</time>
        <extensions>
          <ns3:TrackPointExtension>
            <ns3:atemp>25.0</ns3:atemp>
          </ns3:TrackPointExtension>
        </extensions>
      </trkpt>
      <trkpt lat="42.5706238858401775360107421875" lon="20.03403277136385440826416015625">
        <ele>1979</ele>
        <time>2026-06-15T13:19:48.000Z</time>
        <extensions>
          <ns3:TrackPointExtension>
            <ns3:atemp>25.0</ns3:atemp>
          </ns3:TrackPointExtension>
        </extensions>
      </trkpt>
      <trkpt lat="42.5706238858401775360107421875" lon="20.03403277136385440826416015625">
        <ele>1979</ele>
        <time>2026-06-15T13:19:49.000Z</time>
        <extensions>
          <ns3:TrackPointExtension>
            <ns3:atemp>25.0</ns3:atemp>
          </ns3:TrackPointExtension>
        </extensions>
      </trkpt>
      <trkpt lat="42.5706238858401775360107421875" lon="20.03403277136385440826416015625">
        <ele>1979.199951171875</ele>
        <time>2026-06-15T13:19:50.000Z</time>
        <extensions>
          <ns3:TrackPointExtension>
            <ns3:atemp>25.0</ns3:atemp>
          </ns3:TrackPointExtension>
        </extensions>
      </trkpt>
      <trkpt lat="42.5706238858401775360107421875" lon="20.03403277136385440826416015625">
        <ele>1979.5999755859375</ele>
        <time>2026-06-15T13:19:51.000Z</time>
        <extensions>
          <ns3:TrackPointExtension>
            <ns3:atemp>25.0</ns3:atemp>
          </ns3:TrackPointExtension>
        </extensions>
      </trkpt>
      <trkpt lat="42.5706238858401775360107421875" lon="20.03403277136385440826416015625">
        <ele>1979.800048828125</ele>
        <time>2026-06-15T13:19:52.000Z</time>
        <extensions>
          <ns3:TrackPointExtension>
            <ns3:atemp>25.0</ns3:atemp>
          </ns3:TrackPointExtension>
        </extensions>
      </trkpt>
      <trkpt lat="42.5706238858401775360107421875" lon="20.03403277136385440826416015625">
        <ele>1980</ele>
        <time>2026-06-15T13:19:53.000Z</time>
        <extensions>
          <ns3:TrackPointExtension>
            <ns3:atemp>25.0</ns3:atemp>
          </ns3:TrackPointExtension>
        </extensions>
      </trkpt>
      <trkpt lat="42.5706238858401775360107421875" lon="20.03403277136385440826416015625">
        <ele>1980.199951171875</ele>
        <time>2026-06-15T13:19:54.000Z</time>
        <extensions>
          <ns3:TrackPointExtension>
            <ns3:atemp>25.0</ns3:atemp>
          </ns3:TrackPointExtension>
        </extensions>
      </trkpt>
      <trkpt lat="42.5706238858401775360107421875" lon="20.03403277136385440826416015625">
        <ele>1980</ele>
        <time>2026-06-15T13:19:55.000Z</time>
        <extensions>
          <ns3:TrackPointExtension>
            <ns3:atemp>25.0</ns3:atemp>
          </ns3:TrackPointExtension>
        </extensions>
      </trkpt>
      <trkpt lat="42.5706238858401775360107421875" lon="20.03403277136385440826416015625">
        <ele>1979.800048828125</ele>
        <time>2026-06-15T13:19:56.000Z</time>
        <extensions>
          <ns3:TrackPointExtension>
            <ns3:atemp>25.0</ns3:atemp>
          </ns3:TrackPointExtension>
        </extensions>
      </trkpt>
      <trkpt lat="42.5706238858401775360107421875" lon="20.03403277136385440826416015625">
        <ele>1979.5999755859375</ele>
        <time>2026-06-15T13:19:57.000Z</time>
        <extensions>
          <ns3:TrackPointExtension>
            <ns3:atemp>25.0</ns3:atemp>
          </ns3:TrackPointExtension>
        </extensions>
      </trkpt>
      <trkpt lat="42.570631094276905059814453125" lon="20.03404836170375347137451171875">
        <ele>1979.199951171875</ele>
        <time>2026-06-15T13:19:58.000Z</time>
        <extensions>
          <ns3:TrackPointExtension>
            <ns3:atemp>25.0</ns3:atemp>
          </ns3:TrackPointExtension>
        </extensions>
      </trkpt>
      <trkpt lat="42.570631094276905059814453125" lon="20.03404836170375347137451171875">
        <ele>1979</ele>
        <time>2026-06-15T13:19:59.000Z</time>
        <extensions>
          <ns3:TrackPointExtension>
            <ns3:atemp>25.0</ns3:atemp>
          </ns3:TrackPointExtension>
        </extensions>
      </trkpt>
      <trkpt lat="42.570631094276905059814453125" lon="20.03404836170375347137451171875">
        <ele>1978.800048828125</ele>
        <time>2026-06-15T13:20:00.000Z</time>
        <extensions>
          <ns3:TrackPointExtension>
            <ns3:atemp>25.0</ns3:atemp>
          </ns3:TrackPointExtension>
        </extensions>
      </trkpt>
      <trkpt lat="42.570631094276905059814453125" lon="20.03404836170375347137451171875">
        <ele>1978.800048828125</ele>
        <time>2026-06-15T13:20:01.000Z</time>
        <extensions>
          <ns3:TrackPointExtension>
            <ns3:atemp>25.0</ns3:atemp>
          </ns3:TrackPointExtension>
        </extensions>
      </trkpt>
      <trkpt lat="42.570631094276905059814453125" lon="20.03404836170375347137451171875">
        <ele>1978.800048828125</ele>
        <time>2026-06-15T13:20:02.000Z</time>
        <extensions>
          <ns3:TrackPointExtension>
            <ns3:atemp>25.0</ns3:atemp>
          </ns3:TrackPointExtension>
        </extensions>
      </trkpt>
      <trkpt lat="42.570631094276905059814453125" lon="20.03404836170375347137451171875">
        <ele>1979.199951171875</ele>
        <time>2026-06-15T13:20:03.000Z</time>
        <extensions>
          <ns3:TrackPointExtension>
            <ns3:atemp>25.0</ns3:atemp>
          </ns3:TrackPointExtension>
        </extensions>
      </trkpt>
      <trkpt lat="42.570631094276905059814453125" lon="20.03404836170375347137451171875">
        <ele>1979.4000244140625</ele>
        <time>2026-06-15T13:20:04.000Z</time>
        <extensions>
          <ns3:TrackPointExtension>
            <ns3:atemp>25.0</ns3:atemp>
          </ns3:TrackPointExtension>
        </extensions>
      </trkpt>
      <trkpt lat="42.570631094276905059814453125" lon="20.03404836170375347137451171875">
        <ele>1979.4000244140625</ele>
        <time>2026-06-15T13:20:05.000Z</time>
        <extensions>
          <ns3:TrackPointExtension>
            <ns3:atemp>25.0</ns3:atemp>
          </ns3:TrackPointExtension>
        </extensions>
      </trkpt>
      <trkpt lat="42.570631094276905059814453125" lon="20.03404836170375347137451171875">
        <ele>1979.4000244140625</ele>
        <time>2026-06-15T13:20:06.000Z</time>
        <extensions>
          <ns3:TrackPointExtension>
            <ns3:atemp>25.0</ns3:atemp>
          </ns3:TrackPointExtension>
        </extensions>
      </trkpt>
      <trkpt lat="42.570631094276905059814453125" lon="20.03404836170375347137451171875">
        <ele>1979.199951171875</ele>
        <time>2026-06-15T13:20:07.000Z</time>
        <extensions>
          <ns3:TrackPointExtension>
            <ns3:atemp>25.0</ns3:atemp>
          </ns3:TrackPointExtension>
        </extensions>
      </trkpt>
      <trkpt lat="42.570631094276905059814453125" lon="20.03404836170375347137451171875">
        <ele>1979.199951171875</ele>
        <time>2026-06-15T13:20:08.000Z</time>
        <extensions>
          <ns3:TrackPointExtension>
            <ns3:atemp>25.0</ns3:atemp>
          </ns3:TrackPointExtension>
        </extensions>
      </trkpt>
      <trkpt lat="42.570631094276905059814453125" lon="20.03404836170375347137451171875">
        <ele>1979.199951171875</ele>
        <time>2026-06-15T13:20:09.000Z</time>
        <extensions>
          <ns3:TrackPointExtension>
            <ns3:atemp>25.0</ns3:atemp>
          </ns3:TrackPointExtension>
        </extensions>
      </trkpt>
      <trkpt lat="42.570631094276905059814453125" lon="20.03404836170375347137451171875">
        <ele>1979.199951171875</ele>
        <time>2026-06-15T13:20:10.000Z</time>
        <extensions>
          <ns3:TrackPointExtension>
            <ns3:atemp>25.0</ns3:atemp>
          </ns3:TrackPointExtension>
        </extensions>
      </trkpt>
      <trkpt lat="42.570631094276905059814453125" lon="20.03404836170375347137451171875">
        <ele>1979.199951171875</ele>
        <time>2026-06-15T13:20:11.000Z</time>
        <extensions>
          <ns3:TrackPointExtension>
            <ns3:atemp>25.0</ns3:atemp>
          </ns3:TrackPointExtension>
        </extensions>
      </trkpt>
      <trkpt lat="42.570631094276905059814453125" lon="20.03404836170375347137451171875">
        <ele>1979.199951171875</ele>
        <time>2026-06-15T13:20:12.000Z</time>
        <extensions>
          <ns3:TrackPointExtension>
            <ns3:atemp>25.0</ns3:atemp>
          </ns3:TrackPointExtension>
        </extensions>
      </trkpt>
      <trkpt lat="42.570631094276905059814453125" lon="20.03404836170375347137451171875">
        <ele>1979.199951171875</ele>
        <time>2026-06-15T13:20:13.000Z</time>
        <extensions>
          <ns3:TrackPointExtension>
            <ns3:atemp>25.0</ns3:atemp>
          </ns3:TrackPointExtension>
        </extensions>
      </trkpt>
      <trkpt lat="42.570631094276905059814453125" lon="20.03404836170375347137451171875">
        <ele>1979.199951171875</ele>
        <time>2026-06-15T13:20:14.000Z</time>
        <extensions>
          <ns3:TrackPointExtension>
            <ns3:atemp>25.0</ns3:atemp>
          </ns3:TrackPointExtension>
        </extensions>
      </trkpt>
      <trkpt lat="42.570631094276905059814453125" lon="20.03404836170375347137451171875">
        <ele>1979</ele>
        <time>2026-06-15T13:20:15.000Z</time>
        <extensions>
          <ns3:TrackPointExtension>
            <ns3:atemp>25.0</ns3:atemp>
          </ns3:TrackPointExtension>
        </extensions>
      </trkpt>
      <trkpt lat="42.570631094276905059814453125" lon="20.03404836170375347137451171875">
        <ele>1979</ele>
        <time>2026-06-15T13:20:16.000Z</time>
        <extensions>
          <ns3:TrackPointExtension>
            <ns3:atemp>25.0</ns3:atemp>
          </ns3:TrackPointExtension>
        </extensions>
      </trkpt>
      <trkpt lat="42.570631094276905059814453125" lon="20.03404836170375347137451171875">
        <ele>1979</ele>
        <time>2026-06-15T13:20:17.000Z</time>
        <extensions>
          <ns3:TrackPointExtension>
            <ns3:atemp>25.0</ns3:atemp>
          </ns3:TrackPointExtension>
        </extensions>
      </trkpt>
      <trkpt lat="42.570631094276905059814453125" lon="20.03404836170375347137451171875">
        <ele>1979</ele>
        <time>2026-06-15T13:20:18.000Z</time>
        <extensions>
          <ns3:TrackPointExtension>
            <ns3:atemp>25.0</ns3:atemp>
          </ns3:TrackPointExtension>
        </extensions>
      </trkpt>
      <trkpt lat="42.570631094276905059814453125" lon="20.03404836170375347137451171875">
        <ele>1979</ele>
        <time>2026-06-15T13:20:19.000Z</time>
        <extensions>
          <ns3:TrackPointExtension>
            <ns3:atemp>25.0</ns3:atemp>
          </ns3:TrackPointExtension>
        </extensions>
      </trkpt>
      <trkpt lat="42.570631094276905059814453125" lon="20.03404836170375347137451171875">
        <ele>1979</ele>
        <time>2026-06-15T13:20:20.000Z</time>
        <extensions>
          <ns3:TrackPointExtension>
            <ns3:atemp>25.0</ns3:atemp>
          </ns3:TrackPointExtension>
        </extensions>
      </trkpt>
      <trkpt lat="42.570631094276905059814453125" lon="20.03404836170375347137451171875">
        <ele>1979</ele>
        <time>2026-06-15T13:20:21.000Z</time>
        <extensions>
          <ns3:TrackPointExtension>
            <ns3:atemp>25.0</ns3:atemp>
          </ns3:TrackPointExtension>
        </extensions>
      </trkpt>
      <trkpt lat="42.570631094276905059814453125" lon="20.03404836170375347137451171875">
        <ele>1979</ele>
        <time>2026-06-15T13:20:22.000Z</time>
        <extensions>
          <ns3:TrackPointExtension>
            <ns3:atemp>25.0</ns3:atemp>
          </ns3:TrackPointExtension>
        </extensions>
      </trkpt>
      <trkpt lat="42.570631094276905059814453125" lon="20.03404836170375347137451171875">
        <ele>1979</ele>
        <time>2026-06-15T13:20:23.000Z</time>
        <extensions>
          <ns3:TrackPointExtension>
            <ns3:atemp>25.0</ns3:atemp>
          </ns3:TrackPointExtension>
        </extensions>
      </trkpt>
      <trkpt lat="42.570631094276905059814453125" lon="20.03404836170375347137451171875">
        <ele>1979</ele>
        <time>2026-06-15T13:20:24.000Z</time>
        <extensions>
          <ns3:TrackPointExtension>
            <ns3:atemp>25.0</ns3:atemp>
          </ns3:TrackPointExtension>
        </extensions>
      </trkpt>
      <trkpt lat="42.570631094276905059814453125" lon="20.03404836170375347137451171875">
        <ele>1979</ele>
        <time>2026-06-15T13:20:25.000Z</time>
        <extensions>
          <ns3:TrackPointExtension>
            <ns3:atemp>25.0</ns3:atemp>
          </ns3:TrackPointExtension>
        </extensions>
      </trkpt>
      <trkpt lat="42.570631094276905059814453125" lon="20.03404836170375347137451171875">
        <ele>1979</ele>
        <time>2026-06-15T13:20:26.000Z</time>
        <extensions>
          <ns3:TrackPointExtension>
            <ns3:atemp>25.0</ns3:atemp>
          </ns3:TrackPointExtension>
        </extensions>
      </trkpt>
      <trkpt lat="42.570631094276905059814453125" lon="20.03404836170375347137451171875">
        <ele>1979</ele>
        <time>2026-06-15T13:20:27.000Z</time>
        <extensions>
          <ns3:TrackPointExtension>
            <ns3:atemp>25.0</ns3:atemp>
          </ns3:TrackPointExtension>
        </extensions>
      </trkpt>
      <trkpt lat="42.570631094276905059814453125" lon="20.03404836170375347137451171875">
        <ele>1979</ele>
        <time>2026-06-15T13:20:28.000Z</time>
        <extensions>
          <ns3:TrackPointExtension>
            <ns3:atemp>25.0</ns3:atemp>
          </ns3:TrackPointExtension>
        </extensions>
      </trkpt>
      <trkpt lat="42.570631094276905059814453125" lon="20.03404836170375347137451171875">
        <ele>1979</ele>
        <time>2026-06-15T13:20:29.000Z</time>
        <extensions>
          <ns3:TrackPointExtension>
            <ns3:atemp>25.0</ns3:atemp>
          </ns3:TrackPointExtension>
        </extensions>
      </trkpt>
      <trkpt lat="42.570631094276905059814453125" lon="20.03404836170375347137451171875">
        <ele>1979</ele>
        <time>2026-06-15T13:20:30.000Z</time>
        <extensions>
          <ns3:TrackPointExtension>
            <ns3:atemp>25.0</ns3:atemp>
          </ns3:TrackPointExtension>
        </extensions>
      </trkpt>
      <trkpt lat="42.570631094276905059814453125" lon="20.03404836170375347137451171875">
        <ele>1979</ele>
        <time>2026-06-15T13:20:31.000Z</time>
        <extensions>
          <ns3:TrackPointExtension>
            <ns3:atemp>25.0</ns3:atemp>
          </ns3:TrackPointExtension>
        </extensions>
      </trkpt>
      <trkpt lat="42.570631094276905059814453125" lon="20.03404836170375347137451171875">
        <ele>1979</ele>
        <time>2026-06-15T13:20:32.000Z</time>
        <extensions>
          <ns3:TrackPointExtension>
            <ns3:atemp>25.0</ns3:atemp>
          </ns3:TrackPointExtension>
        </extensions>
      </trkpt>
      <trkpt lat="42.570631094276905059814453125" lon="20.03404836170375347137451171875">
        <ele>1979</ele>
        <time>2026-06-15T13:20:33.000Z</time>
        <extensions>
          <ns3:TrackPointExtension>
            <ns3:atemp>25.0</ns3:atemp>
          </ns3:TrackPointExtension>
        </extensions>
      </trkpt>
      <trkpt lat="42.570631094276905059814453125" lon="20.03404836170375347137451171875">
        <ele>1979</ele>
        <time>2026-06-15T13:20:34.000Z</time>
        <extensions>
          <ns3:TrackPointExtension>
            <ns3:atemp>25.0</ns3:atemp>
          </ns3:TrackPointExtension>
        </extensions>
      </trkpt>
      <trkpt lat="42.570631094276905059814453125" lon="20.03404836170375347137451171875">
        <ele>1979</ele>
        <time>2026-06-15T13:20:35.000Z</time>
        <extensions>
          <ns3:TrackPointExtension>
            <ns3:atemp>25.0</ns3:atemp>
          </ns3:TrackPointExtension>
        </extensions>
      </trkpt>
      <trkpt lat="42.570631094276905059814453125" lon="20.03404836170375347137451171875">
        <ele>1979</ele>
        <time>2026-06-15T13:20:36.000Z</time>
        <extensions>
          <ns3:TrackPointExtension>
            <ns3:atemp>25.0</ns3:atemp>
          </ns3:TrackPointExtension>
        </extensions>
      </trkpt>
      <trkpt lat="42.570631094276905059814453125" lon="20.03404836170375347137451171875">
        <ele>1979</ele>
        <time>2026-06-15T13:20:37.000Z</time>
        <extensions>
          <ns3:TrackPointExtension>
            <ns3:atemp>25.0</ns3:atemp>
          </ns3:TrackPointExtension>
        </extensions>
      </trkpt>
      <trkpt lat="42.570631094276905059814453125" lon="20.03404836170375347137451171875">
        <ele>1979</ele>
        <time>2026-06-15T13:20:38.000Z</time>
        <extensions>
          <ns3:TrackPointExtension>
            <ns3:atemp>25.0</ns3:atemp>
          </ns3:TrackPointExtension>
        </extensions>
      </trkpt>
      <trkpt lat="42.570631094276905059814453125" lon="20.03404836170375347137451171875">
        <ele>1979</ele>
        <time>2026-06-15T13:20:39.000Z</time>
        <extensions>
          <ns3:TrackPointExtension>
            <ns3:atemp>25.0</ns3:atemp>
          </ns3:TrackPointExtension>
        </extensions>
      </trkpt>
      <trkpt lat="42.570631094276905059814453125" lon="20.03404836170375347137451171875">
        <ele>1979</ele>
        <time>2026-06-15T13:20:40.000Z</time>
        <extensions>
          <ns3:TrackPointExtension>
            <ns3:atemp>25.0</ns3:atemp>
          </ns3:TrackPointExtension>
        </extensions>
      </trkpt>
      <trkpt lat="42.570631094276905059814453125" lon="20.03404836170375347137451171875">
        <ele>1979</ele>
        <time>2026-06-15T13:20:41.000Z</time>
        <extensions>
          <ns3:TrackPointExtension>
            <ns3:atemp>25.0</ns3:atemp>
          </ns3:TrackPointExtension>
        </extensions>
      </trkpt>
      <trkpt lat="42.570631094276905059814453125" lon="20.03404836170375347137451171875">
        <ele>1979</ele>
        <time>2026-06-15T13:20:42.000Z</time>
        <extensions>
          <ns3:TrackPointExtension>
            <ns3:atemp>25.0</ns3:atemp>
          </ns3:TrackPointExtension>
        </extensions>
      </trkpt>
      <trkpt lat="42.570631094276905059814453125" lon="20.03404836170375347137451171875">
        <ele>1979</ele>
        <time>2026-06-15T13:20:43.000Z</time>
        <extensions>
          <ns3:TrackPointExtension>
            <ns3:atemp>25.0</ns3:atemp>
          </ns3:TrackPointExtension>
        </extensions>
      </trkpt>
      <trkpt lat="42.570631094276905059814453125" lon="20.03404836170375347137451171875">
        <ele>1979</ele>
        <time>2026-06-15T13:20:44.000Z</time>
        <extensions>
          <ns3:TrackPointExtension>
            <ns3:atemp>25.0</ns3:atemp>
          </ns3:TrackPointExtension>
        </extensions>
      </trkpt>
      <trkpt lat="42.570631094276905059814453125" lon="20.03404836170375347137451171875">
        <ele>1979</ele>
        <time>2026-06-15T13:20:45.000Z</time>
        <extensions>
          <ns3:TrackPointExtension>
            <ns3:atemp>25.0</ns3:atemp>
          </ns3:TrackPointExtension>
        </extensions>
      </trkpt>
      <trkpt lat="42.570631094276905059814453125" lon="20.03404836170375347137451171875">
        <ele>1979</ele>
        <time>2026-06-15T13:20:46.000Z</time>
        <extensions>
          <ns3:TrackPointExtension>
            <ns3:atemp>25.0</ns3:atemp>
          </ns3:TrackPointExtension>
        </extensions>
      </trkpt>
      <trkpt lat="42.570631094276905059814453125" lon="20.03404836170375347137451171875">
        <ele>1979</ele>
        <time>2026-06-15T13:20:47.000Z</time>
        <extensions>
          <ns3:TrackPointExtension>
            <ns3:atemp>25.0</ns3:atemp>
          </ns3:TrackPointExtension>
        </extensions>
      </trkpt>
      <trkpt lat="42.570631094276905059814453125" lon="20.03404836170375347137451171875">
        <ele>1979</ele>
        <time>2026-06-15T13:20:48.000Z</time>
        <extensions>
          <ns3:TrackPointExtension>
            <ns3:atemp>25.0</ns3:atemp>
          </ns3:TrackPointExtension>
        </extensions>
      </trkpt>
      <trkpt lat="42.570631094276905059814453125" lon="20.03404836170375347137451171875">
        <ele>1979</ele>
        <time>2026-06-15T13:20:49.000Z</time>
        <extensions>
          <ns3:TrackPointExtension>
            <ns3:atemp>25.0</ns3:atemp>
          </ns3:TrackPointExtension>
        </extensions>
      </trkpt>
      <trkpt lat="42.570631094276905059814453125" lon="20.03404836170375347137451171875">
        <ele>1979</ele>
        <time>2026-06-15T13:20:50.000Z</time>
        <extensions>
          <ns3:TrackPointExtension>
            <ns3:atemp>25.0</ns3:atemp>
          </ns3:TrackPointExtension>
        </extensions>
      </trkpt>
      <trkpt lat="42.570631094276905059814453125" lon="20.03404836170375347137451171875">
        <ele>1979</ele>
        <time>2026-06-15T13:20:51.000Z</time>
        <extensions>
          <ns3:TrackPointExtension>
            <ns3:atemp>25.0</ns3:atemp>
          </ns3:TrackPointExtension>
        </extensions>
      </trkpt>
      <trkpt lat="42.570631094276905059814453125" lon="20.03404836170375347137451171875">
        <ele>1979</ele>
        <time>2026-06-15T13:20:52.000Z</time>
        <extensions>
          <ns3:TrackPointExtension>
            <ns3:atemp>25.0</ns3:atemp>
          </ns3:TrackPointExtension>
        </extensions>
      </trkpt>
      <trkpt lat="42.570631094276905059814453125" lon="20.03404836170375347137451171875">
        <ele>1979</ele>
        <time>2026-06-15T13:20:53.000Z</time>
        <extensions>
          <ns3:TrackPointExtension>
            <ns3:atemp>25.0</ns3:atemp>
          </ns3:TrackPointExtension>
        </extensions>
      </trkpt>
      <trkpt lat="42.570631094276905059814453125" lon="20.03404836170375347137451171875">
        <ele>1979</ele>
        <time>2026-06-15T13:20:54.000Z</time>
        <extensions>
          <ns3:TrackPointExtension>
            <ns3:atemp>25.0</ns3:atemp>
          </ns3:TrackPointExtension>
        </extensions>
      </trkpt>
      <trkpt lat="42.570631094276905059814453125" lon="20.03404836170375347137451171875">
        <ele>1979</ele>
        <time>2026-06-15T13:20:55.000Z</time>
        <extensions>
          <ns3:TrackPointExtension>
            <ns3:atemp>25.0</ns3:atemp>
          </ns3:TrackPointExtension>
        </extensions>
      </trkpt>
      <trkpt lat="42.570631094276905059814453125" lon="20.03404836170375347137451171875">
        <ele>1979</ele>
        <time>2026-06-15T13:20:56.000Z</time>
        <extensions>
          <ns3:TrackPointExtension>
            <ns3:atemp>25.0</ns3:atemp>
          </ns3:TrackPointExtension>
        </extensions>
      </trkpt>
      <trkpt lat="42.570631094276905059814453125" lon="20.03404836170375347137451171875">
        <ele>1979</ele>
        <time>2026-06-15T13:20:57.000Z</time>
        <extensions>
          <ns3:TrackPointExtension>
            <ns3:atemp>25.0</ns3:atemp>
          </ns3:TrackPointExtension>
        </extensions>
      </trkpt>
      <trkpt lat="42.570631094276905059814453125" lon="20.03404836170375347137451171875">
        <ele>1979</ele>
        <time>2026-06-15T13:20:58.000Z</time>
        <extensions>
          <ns3:TrackPointExtension>
            <ns3:atemp>25.0</ns3:atemp>
          </ns3:TrackPointExtension>
        </extensions>
      </trkpt>
      <trkpt lat="42.570631094276905059814453125" lon="20.03404836170375347137451171875">
        <ele>1979</ele>
        <time>2026-06-15T13:20:59.000Z</time>
        <extensions>
          <ns3:TrackPointExtension>
            <ns3:atemp>25.0</ns3:atemp>
          </ns3:TrackPointExtension>
        </extensions>
      </trkpt>
      <trkpt lat="42.570631094276905059814453125" lon="20.03404836170375347137451171875">
        <ele>1979</ele>
        <time>2026-06-15T13:21:00.000Z</time>
        <extensions>
          <ns3:TrackPointExtension>
            <ns3:atemp>25.0</ns3:atemp>
          </ns3:TrackPointExtension>
        </extensions>
      </trkpt>
      <trkpt lat="42.570631094276905059814453125" lon="20.03404836170375347137451171875">
        <ele>1979</ele>
        <time>2026-06-15T13:21:01.000Z</time>
        <extensions>
          <ns3:TrackPointExtension>
            <ns3:atemp>25.0</ns3:atemp>
          </ns3:TrackPointExtension>
        </extensions>
      </trkpt>
      <trkpt lat="42.570631094276905059814453125" lon="20.03404836170375347137451171875">
        <ele>1979</ele>
        <time>2026-06-15T13:21:02.000Z</time>
        <extensions>
          <ns3:TrackPointExtension>
            <ns3:atemp>25.0</ns3:atemp>
          </ns3:TrackPointExtension>
        </extensions>
      </trkpt>
      <trkpt lat="42.570631094276905059814453125" lon="20.03404836170375347137451171875">
        <ele>1979</ele>
        <time>2026-06-15T13:21:03.000Z</time>
        <extensions>
          <ns3:TrackPointExtension>
            <ns3:atemp>25.0</ns3:atemp>
          </ns3:TrackPointExtension>
        </extensions>
      </trkpt>
      <trkpt lat="42.570631094276905059814453125" lon="20.03404836170375347137451171875">
        <ele>1979</ele>
        <time>2026-06-15T13:21:04.000Z</time>
        <extensions>
          <ns3:TrackPointExtension>
            <ns3:atemp>25.0</ns3:atemp>
          </ns3:TrackPointExtension>
        </extensions>
      </trkpt>
      <trkpt lat="42.570631094276905059814453125" lon="20.03404836170375347137451171875">
        <ele>1979</ele>
        <time>2026-06-15T13:21:05.000Z</time>
        <extensions>
          <ns3:TrackPointExtension>
            <ns3:atemp>25.0</ns3:atemp>
          </ns3:TrackPointExtension>
        </extensions>
      </trkpt>
      <trkpt lat="42.570631094276905059814453125" lon="20.03404836170375347137451171875">
        <ele>1979</ele>
        <time>2026-06-15T13:21:06.000Z</time>
        <extensions>
          <ns3:TrackPointExtension>
            <ns3:atemp>25.0</ns3:atemp>
          </ns3:TrackPointExtension>
        </extensions>
      </trkpt>
      <trkpt lat="42.570631094276905059814453125" lon="20.03404836170375347137451171875">
        <ele>1979</ele>
        <time>2026-06-15T13:21:07.000Z</time>
        <extensions>
          <ns3:TrackPointExtension>
            <ns3:atemp>25.0</ns3:atemp>
          </ns3:TrackPointExtension>
        </extensions>
      </trkpt>
      <trkpt lat="42.570631094276905059814453125" lon="20.03404836170375347137451171875">
        <ele>1979</ele>
        <time>2026-06-15T13:21:08.000Z</time>
        <extensions>
          <ns3:TrackPointExtension>
            <ns3:atemp>25.0</ns3:atemp>
          </ns3:TrackPointExtension>
        </extensions>
      </trkpt>
      <trkpt lat="42.570631094276905059814453125" lon="20.03404836170375347137451171875">
        <ele>1979</ele>
        <time>2026-06-15T13:21:09.000Z</time>
        <extensions>
          <ns3:TrackPointExtension>
            <ns3:atemp>25.0</ns3:atemp>
          </ns3:TrackPointExtension>
        </extensions>
      </trkpt>
      <trkpt lat="42.570631094276905059814453125" lon="20.03404836170375347137451171875">
        <ele>1979</ele>
        <time>2026-06-15T13:21:10.000Z</time>
        <extensions>
          <ns3:TrackPointExtension>
            <ns3:atemp>25.0</ns3:atemp>
          </ns3:TrackPointExtension>
        </extensions>
      </trkpt>
      <trkpt lat="42.570631094276905059814453125" lon="20.03404836170375347137451171875">
        <ele>1979</ele>
        <time>2026-06-15T13:21:11.000Z</time>
        <extensions>
          <ns3:TrackPointExtension>
            <ns3:atemp>25.0</ns3:atemp>
          </ns3:TrackPointExtension>
        </extensions>
      </trkpt>
      <trkpt lat="42.570631094276905059814453125" lon="20.03404836170375347137451171875">
        <ele>1979</ele>
        <time>2026-06-15T13:21:12.000Z</time>
        <extensions>
          <ns3:TrackPointExtension>
            <ns3:atemp>25.0</ns3:atemp>
          </ns3:TrackPointExtension>
        </extensions>
      </trkpt>
      <trkpt lat="42.570631094276905059814453125" lon="20.03404836170375347137451171875">
        <ele>1979</ele>
        <time>2026-06-15T13:21:13.000Z</time>
        <extensions>
          <ns3:TrackPointExtension>
            <ns3:atemp>25.0</ns3:atemp>
          </ns3:TrackPointExtension>
        </extensions>
      </trkpt>
      <trkpt lat="42.570631094276905059814453125" lon="20.03404836170375347137451171875">
        <ele>1979</ele>
        <time>2026-06-15T13:21:14.000Z</time>
        <extensions>
          <ns3:TrackPointExtension>
            <ns3:atemp>25.0</ns3:atemp>
          </ns3:TrackPointExtension>
        </extensions>
      </trkpt>
      <trkpt lat="42.570631094276905059814453125" lon="20.03404836170375347137451171875">
        <ele>1979</ele>
        <time>2026-06-15T13:21:15.000Z</time>
        <extensions>
          <ns3:TrackPointExtension>
            <ns3:atemp>25.0</ns3:atemp>
          </ns3:TrackPointExtension>
        </extensions>
      </trkpt>
      <trkpt lat="42.570631094276905059814453125" lon="20.03404836170375347137451171875">
        <ele>1979</ele>
        <time>2026-06-15T13:21:16.000Z</time>
        <extensions>
          <ns3:TrackPointExtension>
            <ns3:atemp>25.0</ns3:atemp>
          </ns3:TrackPointExtension>
        </extensions>
      </trkpt>
      <trkpt lat="42.570631094276905059814453125" lon="20.03404836170375347137451171875">
        <ele>1979</ele>
        <time>2026-06-15T13:21:17.000Z</time>
        <extensions>
          <ns3:TrackPointExtension>
            <ns3:atemp>25.0</ns3:atemp>
          </ns3:TrackPointExtension>
        </extensions>
      </trkpt>
      <trkpt lat="42.570631094276905059814453125" lon="20.03404836170375347137451171875">
        <ele>1979</ele>
        <time>2026-06-15T13:21:18.000Z</time>
        <extensions>
          <ns3:TrackPointExtension>
            <ns3:atemp>25.0</ns3:atemp>
          </ns3:TrackPointExtension>
        </extensions>
      </trkpt>
      <trkpt lat="42.570631094276905059814453125" lon="20.03404836170375347137451171875">
        <ele>1979</ele>
        <time>2026-06-15T13:21:19.000Z</time>
        <extensions>
          <ns3:TrackPointExtension>
            <ns3:atemp>25.0</ns3:atemp>
          </ns3:TrackPointExtension>
        </extensions>
      </trkpt>
      <trkpt lat="42.570631094276905059814453125" lon="20.03404836170375347137451171875">
        <ele>1979</ele>
        <time>2026-06-15T13:21:20.000Z</time>
        <extensions>
          <ns3:TrackPointExtension>
            <ns3:atemp>25.0</ns3:atemp>
          </ns3:TrackPointExtension>
        </extensions>
      </trkpt>
      <trkpt lat="42.570631094276905059814453125" lon="20.03404836170375347137451171875">
        <ele>1979</ele>
        <time>2026-06-15T13:21:21.000Z</time>
        <extensions>
          <ns3:TrackPointExtension>
            <ns3:atemp>25.0</ns3:atemp>
          </ns3:TrackPointExtension>
        </extensions>
      </trkpt>
      <trkpt lat="42.570631094276905059814453125" lon="20.03404836170375347137451171875">
        <ele>1979</ele>
        <time>2026-06-15T13:21:22.000Z</time>
        <extensions>
          <ns3:TrackPointExtension>
            <ns3:atemp>25.0</ns3:atemp>
          </ns3:TrackPointExtension>
        </extensions>
      </trkpt>
      <trkpt lat="42.570631094276905059814453125" lon="20.03404836170375347137451171875">
        <ele>1979</ele>
        <time>2026-06-15T13:21:23.000Z</time>
        <extensions>
          <ns3:TrackPointExtension>
            <ns3:atemp>25.0</ns3:atemp>
          </ns3:TrackPointExtension>
        </extensions>
      </trkpt>
      <trkpt lat="42.570631094276905059814453125" lon="20.03404836170375347137451171875">
        <ele>1979</ele>
        <time>2026-06-15T13:21:24.000Z</time>
        <extensions>
          <ns3:TrackPointExtension>
            <ns3:atemp>25.0</ns3:atemp>
          </ns3:TrackPointExtension>
        </extensions>
      </trkpt>
      <trkpt lat="42.570631094276905059814453125" lon="20.03404836170375347137451171875">
        <ele>1979</ele>
        <time>2026-06-15T13:21:25.000Z</time>
        <extensions>
          <ns3:TrackPointExtension>
            <ns3:atemp>25.0</ns3:atemp>
          </ns3:TrackPointExtension>
        </extensions>
      </trkpt>
      <trkpt lat="42.570631094276905059814453125" lon="20.03404836170375347137451171875">
        <ele>1979</ele>
        <time>2026-06-15T13:21:26.000Z</time>
        <extensions>
          <ns3:TrackPointExtension>
            <ns3:atemp>25.0</ns3:atemp>
          </ns3:TrackPointExtension>
        </extensions>
      </trkpt>
      <trkpt lat="42.5706238858401775360107421875" lon="20.03403277136385440826416015625">
        <ele>1979</ele>
        <time>2026-06-15T13:21:27.000Z</time>
        <extensions>
          <ns3:TrackPointExtension>
            <ns3:atemp>25.0</ns3:atemp>
          </ns3:TrackPointExtension>
        </extensions>
      </trkpt>
      <trkpt lat="42.5706238858401775360107421875" lon="20.03403277136385440826416015625">
        <ele>1979</ele>
        <time>2026-06-15T13:21:28.000Z</time>
        <extensions>
          <ns3:TrackPointExtension>
            <ns3:atemp>25.0</ns3:atemp>
          </ns3:TrackPointExtension>
        </extensions>
      </trkpt>
      <trkpt lat="42.5706238858401775360107421875" lon="20.03403277136385440826416015625">
        <ele>1979</ele>
        <time>2026-06-15T13:21:29.000Z</time>
        <extensions>
          <ns3:TrackPointExtension>
            <ns3:atemp>25.0</ns3:atemp>
          </ns3:TrackPointExtension>
        </extensions>
      </trkpt>
      <trkpt lat="42.5706238858401775360107421875" lon="20.03403277136385440826416015625">
        <ele>1979</ele>
        <time>2026-06-15T13:21:30.000Z</time>
        <extensions>
          <ns3:TrackPointExtension>
            <ns3:atemp>25.0</ns3:atemp>
          </ns3:TrackPointExtension>
        </extensions>
      </trkpt>
      <trkpt lat="42.5706238858401775360107421875" lon="20.03403277136385440826416015625">
        <ele>1979</ele>
        <time>2026-06-15T13:21:31.000Z</time>
        <extensions>
          <ns3:TrackPointExtension>
            <ns3:atemp>25.0</ns3:atemp>
          </ns3:TrackPointExtension>
        </extensions>
      </trkpt>
      <trkpt lat="42.5706238858401775360107421875" lon="20.03403277136385440826416015625">
        <ele>1979</ele>
        <time>2026-06-15T13:21:32.000Z</time>
        <extensions>
          <ns3:TrackPointExtension>
            <ns3:atemp>25.0</ns3:atemp>
          </ns3:TrackPointExtension>
        </extensions>
      </trkpt>
      <trkpt lat="42.5706238858401775360107421875" lon="20.03403277136385440826416015625">
        <ele>1979</ele>
        <time>2026-06-15T13:21:33.000Z</time>
        <extensions>
          <ns3:TrackPointExtension>
            <ns3:atemp>25.0</ns3:atemp>
          </ns3:TrackPointExtension>
        </extensions>
      </trkpt>
      <trkpt lat="42.5706238858401775360107421875" lon="20.03403277136385440826416015625">
        <ele>1979</ele>
        <time>2026-06-15T13:21:34.000Z</time>
        <extensions>
          <ns3:TrackPointExtension>
            <ns3:atemp>25.0</ns3:atemp>
          </ns3:TrackPointExtension>
        </extensions>
      </trkpt>
      <trkpt lat="42.5706238858401775360107421875" lon="20.03403277136385440826416015625">
        <ele>1979</ele>
        <time>2026-06-15T13:21:35.000Z</time>
        <extensions>
          <ns3:TrackPointExtension>
            <ns3:atemp>25.0</ns3:atemp>
          </ns3:TrackPointExtension>
        </extensions>
      </trkpt>
      <trkpt lat="42.5706238858401775360107421875" lon="20.03403277136385440826416015625">
        <ele>1979</ele>
        <time>2026-06-15T13:21:36.000Z</time>
        <extensions>
          <ns3:TrackPointExtension>
            <ns3:atemp>25.0</ns3:atemp>
          </ns3:TrackPointExtension>
        </extensions>
      </trkpt>
      <trkpt lat="42.5706238858401775360107421875" lon="20.03403277136385440826416015625">
        <ele>1979</ele>
        <time>2026-06-15T13:21:37.000Z</time>
        <extensions>
          <ns3:TrackPointExtension>
            <ns3:atemp>25.0</ns3:atemp>
          </ns3:TrackPointExtension>
        </extensions>
      </trkpt>
      <trkpt lat="42.5706238858401775360107421875" lon="20.03403277136385440826416015625">
        <ele>1979</ele>
        <time>2026-06-15T13:21:38.000Z</time>
        <extensions>
          <ns3:TrackPointExtension>
            <ns3:atemp>25.0</ns3:atemp>
          </ns3:TrackPointExtension>
        </extensions>
      </trkpt>
      <trkpt lat="42.5706238858401775360107421875" lon="20.03403277136385440826416015625">
        <ele>1979</ele>
        <time>2026-06-15T13:21:39.000Z</time>
        <extensions>
          <ns3:TrackPointExtension>
            <ns3:atemp>25.0</ns3:atemp>
          </ns3:TrackPointExtension>
        </extensions>
      </trkpt>
      <trkpt lat="42.5706238858401775360107421875" lon="20.03403277136385440826416015625">
        <ele>1979</ele>
        <time>2026-06-15T13:21:40.000Z</time>
        <extensions>
          <ns3:TrackPointExtension>
            <ns3:atemp>25.0</ns3:atemp>
          </ns3:TrackPointExtension>
        </extensions>
      </trkpt>
      <trkpt lat="42.5706238858401775360107421875" lon="20.03403277136385440826416015625">
        <ele>1979</ele>
        <time>2026-06-15T13:21:41.000Z</time>
        <extensions>
          <ns3:TrackPointExtension>
            <ns3:atemp>25.0</ns3:atemp>
          </ns3:TrackPointExtension>
        </extensions>
      </trkpt>
      <trkpt lat="42.5706238858401775360107421875" lon="20.03403277136385440826416015625">
        <ele>1979</ele>
        <time>2026-06-15T13:21:42.000Z</time>
        <extensions>
          <ns3:TrackPointExtension>
            <ns3:atemp>25.0</ns3:atemp>
          </ns3:TrackPointExtension>
        </extensions>
      </trkpt>
      <trkpt lat="42.5706238858401775360107421875" lon="20.03403277136385440826416015625">
        <ele>1979</ele>
        <time>2026-06-15T13:21:43.000Z</time>
        <extensions>
          <ns3:TrackPointExtension>
            <ns3:atemp>25.0</ns3:atemp>
          </ns3:TrackPointExtension>
        </extensions>
      </trkpt>
      <trkpt lat="42.5706238858401775360107421875" lon="20.03403277136385440826416015625">
        <ele>1979</ele>
        <time>2026-06-15T13:21:44.000Z</time>
        <extensions>
          <ns3:TrackPointExtension>
            <ns3:atemp>25.0</ns3:atemp>
          </ns3:TrackPointExtension>
        </extensions>
      </trkpt>
      <trkpt lat="42.5706238858401775360107421875" lon="20.03403277136385440826416015625">
        <ele>1979</ele>
        <time>2026-06-15T13:21:45.000Z</time>
        <extensions>
          <ns3:TrackPointExtension>
            <ns3:atemp>25.0</ns3:atemp>
          </ns3:TrackPointExtension>
        </extensions>
      </trkpt>
      <trkpt lat="42.570631094276905059814453125" lon="20.03404836170375347137451171875">
        <ele>1979</ele>
        <time>2026-06-15T13:21:46.000Z</time>
        <extensions>
          <ns3:TrackPointExtension>
            <ns3:atemp>25.0</ns3:atemp>
          </ns3:TrackPointExtension>
        </extensions>
      </trkpt>
      <trkpt lat="42.570631094276905059814453125" lon="20.03404836170375347137451171875">
        <ele>1979</ele>
        <time>2026-06-15T13:21:47.000Z</time>
        <extensions>
          <ns3:TrackPointExtension>
            <ns3:atemp>25.0</ns3:atemp>
          </ns3:TrackPointExtension>
        </extensions>
      </trkpt>
      <trkpt lat="42.570631094276905059814453125" lon="20.03404836170375347137451171875">
        <ele>1979</ele>
        <time>2026-06-15T13:21:48.000Z</time>
        <extensions>
          <ns3:TrackPointExtension>
            <ns3:atemp>25.0</ns3:atemp>
          </ns3:TrackPointExtension>
        </extensions>
      </trkpt>
      <trkpt lat="42.570631094276905059814453125" lon="20.03404836170375347137451171875">
        <ele>1979</ele>
        <time>2026-06-15T13:21:49.000Z</time>
        <extensions>
          <ns3:TrackPointExtension>
            <ns3:atemp>25.0</ns3:atemp>
          </ns3:TrackPointExtension>
        </extensions>
      </trkpt>
      <trkpt lat="42.570631094276905059814453125" lon="20.03404836170375347137451171875">
        <ele>1979</ele>
        <time>2026-06-15T13:21:50.000Z</time>
        <extensions>
          <ns3:TrackPointExtension>
            <ns3:atemp>25.0</ns3:atemp>
          </ns3:TrackPointExtension>
        </extensions>
      </trkpt>
      <trkpt lat="42.570631094276905059814453125" lon="20.03404836170375347137451171875">
        <ele>1979</ele>
        <time>2026-06-15T13:21:51.000Z</time>
        <extensions>
          <ns3:TrackPointExtension>
            <ns3:atemp>25.0</ns3:atemp>
          </ns3:TrackPointExtension>
        </extensions>
      </trkpt>
      <trkpt lat="42.570631094276905059814453125" lon="20.03404836170375347137451171875">
        <ele>1979</ele>
        <time>2026-06-15T13:21:52.000Z</time>
        <extensions>
          <ns3:TrackPointExtension>
            <ns3:atemp>25.0</ns3:atemp>
          </ns3:TrackPointExtension>
        </extensions>
      </trkpt>
      <trkpt lat="42.570631094276905059814453125" lon="20.03404836170375347137451171875">
        <ele>1979</ele>
        <time>2026-06-15T13:21:53.000Z</time>
        <extensions>
          <ns3:TrackPointExtension>
            <ns3:atemp>25.0</ns3:atemp>
          </ns3:TrackPointExtension>
        </extensions>
      </trkpt>
      <trkpt lat="42.570631094276905059814453125" lon="20.03404836170375347137451171875">
        <ele>1979</ele>
        <time>2026-06-15T13:21:54.000Z</time>
        <extensions>
          <ns3:TrackPointExtension>
            <ns3:atemp>25.0</ns3:atemp>
          </ns3:TrackPointExtension>
        </extensions>
      </trkpt>
      <trkpt lat="42.570631094276905059814453125" lon="20.03404836170375347137451171875">
        <ele>1979</ele>
        <time>2026-06-15T13:21:55.000Z</time>
        <extensions>
          <ns3:TrackPointExtension>
            <ns3:atemp>25.0</ns3:atemp>
          </ns3:TrackPointExtension>
        </extensions>
      </trkpt>
      <trkpt lat="42.570631094276905059814453125" lon="20.03404836170375347137451171875">
        <ele>1979</ele>
        <time>2026-06-15T13:21:56.000Z</time>
        <extensions>
          <ns3:TrackPointExtension>
            <ns3:atemp>25.0</ns3:atemp>
          </ns3:TrackPointExtension>
        </extensions>
      </trkpt>
      <trkpt lat="42.570631094276905059814453125" lon="20.03404836170375347137451171875">
        <ele>1979</ele>
        <time>2026-06-15T13:21:57.000Z</time>
        <extensions>
          <ns3:TrackPointExtension>
            <ns3:atemp>25.0</ns3:atemp>
          </ns3:TrackPointExtension>
        </extensions>
      </trkpt>
      <trkpt lat="42.570631094276905059814453125" lon="20.03404836170375347137451171875">
        <ele>1979</ele>
        <time>2026-06-15T13:21:58.000Z</time>
        <extensions>
          <ns3:TrackPointExtension>
            <ns3:atemp>25.0</ns3:atemp>
          </ns3:TrackPointExtension>
        </extensions>
      </trkpt>
      <trkpt lat="42.570631094276905059814453125" lon="20.03404836170375347137451171875">
        <ele>1979</ele>
        <time>2026-06-15T13:21:59.000Z</time>
        <extensions>
          <ns3:TrackPointExtension>
            <ns3:atemp>25.0</ns3:atemp>
          </ns3:TrackPointExtension>
        </extensions>
      </trkpt>
      <trkpt lat="42.570631094276905059814453125" lon="20.03404836170375347137451171875">
        <ele>1979</ele>
        <time>2026-06-15T13:22:00.000Z</time>
        <extensions>
          <ns3:TrackPointExtension>
            <ns3:atemp>25.0</ns3:atemp>
          </ns3:TrackPointExtension>
        </extensions>
      </trkpt>
      <trkpt lat="42.570631094276905059814453125" lon="20.03404836170375347137451171875">
        <ele>1979</ele>
        <time>2026-06-15T13:22:01.000Z</time>
        <extensions>
          <ns3:TrackPointExtension>
            <ns3:atemp>25.0</ns3:atemp>
          </ns3:TrackPointExtension>
        </extensions>
      </trkpt>
      <trkpt lat="42.570631094276905059814453125" lon="20.03404836170375347137451171875">
        <ele>1979</ele>
        <time>2026-06-15T13:22:02.000Z</time>
        <extensions>
          <ns3:TrackPointExtension>
            <ns3:atemp>25.0</ns3:atemp>
          </ns3:TrackPointExtension>
        </extensions>
      </trkpt>
      <trkpt lat="42.570631094276905059814453125" lon="20.03404836170375347137451171875">
        <ele>1979</ele>
        <time>2026-06-15T13:22:03.000Z</time>
        <extensions>
          <ns3:TrackPointExtension>
            <ns3:atemp>25.0</ns3:atemp>
          </ns3:TrackPointExtension>
        </extensions>
      </trkpt>
      <trkpt lat="42.570631094276905059814453125" lon="20.03404836170375347137451171875">
        <ele>1979</ele>
        <time>2026-06-15T13:22:04.000Z</time>
        <extensions>
          <ns3:TrackPointExtension>
            <ns3:atemp>25.0</ns3:atemp>
          </ns3:TrackPointExtension>
        </extensions>
      </trkpt>
      <trkpt lat="42.570631094276905059814453125" lon="20.03404836170375347137451171875">
        <ele>1979</ele>
        <time>2026-06-15T13:22:05.000Z</time>
        <extensions>
          <ns3:TrackPointExtension>
            <ns3:atemp>25.0</ns3:atemp>
          </ns3:TrackPointExtension>
        </extensions>
      </trkpt>
      <trkpt lat="42.570631094276905059814453125" lon="20.03404836170375347137451171875">
        <ele>1979</ele>
        <time>2026-06-15T13:22:06.000Z</time>
        <extensions>
          <ns3:TrackPointExtension>
            <ns3:atemp>25.0</ns3:atemp>
          </ns3:TrackPointExtension>
        </extensions>
      </trkpt>
      <trkpt lat="42.570631094276905059814453125" lon="20.03404836170375347137451171875">
        <ele>1979</ele>
        <time>2026-06-15T13:22:07.000Z</time>
        <extensions>
          <ns3:TrackPointExtension>
            <ns3:atemp>25.0</ns3:atemp>
          </ns3:TrackPointExtension>
        </extensions>
      </trkpt>
      <trkpt lat="42.570631094276905059814453125" lon="20.03404836170375347137451171875">
        <ele>1979</ele>
        <time>2026-06-15T13:22:08.000Z</time>
        <extensions>
          <ns3:TrackPointExtension>
            <ns3:atemp>25.0</ns3:atemp>
          </ns3:TrackPointExtension>
        </extensions>
      </trkpt>
      <trkpt lat="42.570631094276905059814453125" lon="20.03404836170375347137451171875">
        <ele>1979</ele>
        <time>2026-06-15T13:22:09.000Z</time>
        <extensions>
          <ns3:TrackPointExtension>
            <ns3:atemp>25.0</ns3:atemp>
          </ns3:TrackPointExtension>
        </extensions>
      </trkpt>
      <trkpt lat="42.570631094276905059814453125" lon="20.03404836170375347137451171875">
        <ele>1979</ele>
        <time>2026-06-15T13:22:10.000Z</time>
        <extensions>
          <ns3:TrackPointExtension>
            <ns3:atemp>25.0</ns3:atemp>
          </ns3:TrackPointExtension>
        </extensions>
      </trkpt>
      <trkpt lat="42.570631094276905059814453125" lon="20.03404836170375347137451171875">
        <ele>1979</ele>
        <time>2026-06-15T13:22:11.000Z</time>
        <extensions>
          <ns3:TrackPointExtension>
            <ns3:atemp>25.0</ns3:atemp>
          </ns3:TrackPointExtension>
        </extensions>
      </trkpt>
      <trkpt lat="42.570631094276905059814453125" lon="20.03404836170375347137451171875">
        <ele>1979</ele>
        <time>2026-06-15T13:22:12.000Z</time>
        <extensions>
          <ns3:TrackPointExtension>
            <ns3:atemp>25.0</ns3:atemp>
          </ns3:TrackPointExtension>
        </extensions>
      </trkpt>
      <trkpt lat="42.570631094276905059814453125" lon="20.03404836170375347137451171875">
        <ele>1979</ele>
        <time>2026-06-15T13:22:13.000Z</time>
        <extensions>
          <ns3:TrackPointExtension>
            <ns3:atemp>25.0</ns3:atemp>
          </ns3:TrackPointExtension>
        </extensions>
      </trkpt>
      <trkpt lat="42.570631094276905059814453125" lon="20.03404836170375347137451171875">
        <ele>1979</ele>
        <time>2026-06-15T13:22:14.000Z</time>
        <extensions>
          <ns3:TrackPointExtension>
            <ns3:atemp>25.0</ns3:atemp>
          </ns3:TrackPointExtension>
        </extensions>
      </trkpt>
      <trkpt lat="42.570631094276905059814453125" lon="20.03404836170375347137451171875">
        <ele>1979</ele>
        <time>2026-06-15T13:22:15.000Z</time>
        <extensions>
          <ns3:TrackPointExtension>
            <ns3:atemp>25.0</ns3:atemp>
          </ns3:TrackPointExtension>
        </extensions>
      </trkpt>
      <trkpt lat="42.570631094276905059814453125" lon="20.03404836170375347137451171875">
        <ele>1979</ele>
        <time>2026-06-15T13:22:16.000Z</time>
        <extensions>
          <ns3:TrackPointExtension>
            <ns3:atemp>25.0</ns3:atemp>
          </ns3:TrackPointExtension>
        </extensions>
      </trkpt>
      <trkpt lat="42.570631094276905059814453125" lon="20.03404836170375347137451171875">
        <ele>1979</ele>
        <time>2026-06-15T13:22:17.000Z</time>
        <extensions>
          <ns3:TrackPointExtension>
            <ns3:atemp>25.0</ns3:atemp>
          </ns3:TrackPointExtension>
        </extensions>
      </trkpt>
      <trkpt lat="42.570631094276905059814453125" lon="20.03404836170375347137451171875">
        <ele>1979</ele>
        <time>2026-06-15T13:22:18.000Z</time>
        <extensions>
          <ns3:TrackPointExtension>
            <ns3:atemp>25.0</ns3:atemp>
          </ns3:TrackPointExtension>
        </extensions>
      </trkpt>
      <trkpt lat="42.570631094276905059814453125" lon="20.03404836170375347137451171875">
        <ele>1979</ele>
        <time>2026-06-15T13:22:19.000Z</time>
        <extensions>
          <ns3:TrackPointExtension>
            <ns3:atemp>25.0</ns3:atemp>
          </ns3:TrackPointExtension>
        </extensions>
      </trkpt>
      <trkpt lat="42.570631094276905059814453125" lon="20.03404836170375347137451171875">
        <ele>1979</ele>
        <time>2026-06-15T13:22:20.000Z</time>
        <extensions>
          <ns3:TrackPointExtension>
            <ns3:atemp>25.0</ns3:atemp>
          </ns3:TrackPointExtension>
        </extensions>
      </trkpt>
      <trkpt lat="42.570631094276905059814453125" lon="20.03404836170375347137451171875">
        <ele>1979</ele>
        <time>2026-06-15T13:22:21.000Z</time>
        <extensions>
          <ns3:TrackPointExtension>
            <ns3:atemp>25.0</ns3:atemp>
          </ns3:TrackPointExtension>
        </extensions>
      </trkpt>
      <trkpt lat="42.570631094276905059814453125" lon="20.03404836170375347137451171875">
        <ele>1979</ele>
        <time>2026-06-15T13:22:22.000Z</time>
        <extensions>
          <ns3:TrackPointExtension>
            <ns3:atemp>25.0</ns3:atemp>
          </ns3:TrackPointExtension>
        </extensions>
      </trkpt>
      <trkpt lat="42.570631094276905059814453125" lon="20.03404836170375347137451171875">
        <ele>1979</ele>
        <time>2026-06-15T13:22:23.000Z</time>
        <extensions>
          <ns3:TrackPointExtension>
            <ns3:atemp>25.0</ns3:atemp>
          </ns3:TrackPointExtension>
        </extensions>
      </trkpt>
      <trkpt lat="42.570631094276905059814453125" lon="20.03404836170375347137451171875">
        <ele>1979</ele>
        <time>2026-06-15T13:22:24.000Z</time>
        <extensions>
          <ns3:TrackPointExtension>
            <ns3:atemp>25.0</ns3:atemp>
          </ns3:TrackPointExtension>
        </extensions>
      </trkpt>
      <trkpt lat="42.570631094276905059814453125" lon="20.03404836170375347137451171875">
        <ele>1979</ele>
        <time>2026-06-15T13:22:25.000Z</time>
        <extensions>
          <ns3:TrackPointExtension>
            <ns3:atemp>25.0</ns3:atemp>
          </ns3:TrackPointExtension>
        </extensions>
      </trkpt>
      <trkpt lat="42.5706238858401775360107421875" lon="20.03403277136385440826416015625">
        <ele>1979</ele>
        <time>2026-06-15T13:22:26.000Z</time>
        <extensions>
          <ns3:TrackPointExtension>
            <ns3:atemp>25.0</ns3:atemp>
          </ns3:TrackPointExtension>
        </extensions>
      </trkpt>
      <trkpt lat="42.5706238858401775360107421875" lon="20.03403277136385440826416015625">
        <ele>1979</ele>
        <time>2026-06-15T13:22:27.000Z</time>
        <extensions>
          <ns3:TrackPointExtension>
            <ns3:atemp>25.0</ns3:atemp>
          </ns3:TrackPointExtension>
        </extensions>
      </trkpt>
      <trkpt lat="42.5706238858401775360107421875" lon="20.03403277136385440826416015625">
        <ele>1979</ele>
        <time>2026-06-15T13:22:28.000Z</time>
        <extensions>
          <ns3:TrackPointExtension>
            <ns3:atemp>25.0</ns3:atemp>
          </ns3:TrackPointExtension>
        </extensions>
      </trkpt>
      <trkpt lat="42.5706238858401775360107421875" lon="20.03403277136385440826416015625">
        <ele>1979</ele>
        <time>2026-06-15T13:22:29.000Z</time>
        <extensions>
          <ns3:TrackPointExtension>
            <ns3:atemp>25.0</ns3:atemp>
          </ns3:TrackPointExtension>
        </extensions>
      </trkpt>
      <trkpt lat="42.5706238858401775360107421875" lon="20.03403277136385440826416015625">
        <ele>1979</ele>
        <time>2026-06-15T13:22:30.000Z</time>
        <extensions>
          <ns3:TrackPointExtension>
            <ns3:atemp>25.0</ns3:atemp>
          </ns3:TrackPointExtension>
        </extensions>
      </trkpt>
      <trkpt lat="42.5706238858401775360107421875" lon="20.03403277136385440826416015625">
        <ele>1979</ele>
        <time>2026-06-15T13:22:31.000Z</time>
        <extensions>
          <ns3:TrackPointExtension>
            <ns3:atemp>25.0</ns3:atemp>
          </ns3:TrackPointExtension>
        </extensions>
      </trkpt>
      <trkpt lat="42.5706238858401775360107421875" lon="20.03403277136385440826416015625">
        <ele>1979</ele>
        <time>2026-06-15T13:22:32.000Z</time>
        <extensions>
          <ns3:TrackPointExtension>
            <ns3:atemp>25.0</ns3:atemp>
          </ns3:TrackPointExtension>
        </extensions>
      </trkpt>
      <trkpt lat="42.5706238858401775360107421875" lon="20.03403277136385440826416015625">
        <ele>1979</ele>
        <time>2026-06-15T13:22:33.000Z</time>
        <extensions>
          <ns3:TrackPointExtension>
            <ns3:atemp>25.0</ns3:atemp>
          </ns3:TrackPointExtension>
        </extensions>
      </trkpt>
      <trkpt lat="42.5706238858401775360107421875" lon="20.03403277136385440826416015625">
        <ele>1979</ele>
        <time>2026-06-15T13:22:34.000Z</time>
        <extensions>
          <ns3:TrackPointExtension>
            <ns3:atemp>25.0</ns3:atemp>
          </ns3:TrackPointExtension>
        </extensions>
      </trkpt>
      <trkpt lat="42.5706238858401775360107421875" lon="20.03403277136385440826416015625">
        <ele>1979</ele>
        <time>2026-06-15T13:22:35.000Z</time>
        <extensions>
          <ns3:TrackPointExtension>
            <ns3:atemp>25.0</ns3:atemp>
          </ns3:TrackPointExtension>
        </extensions>
      </trkpt>
      <trkpt lat="42.5706238858401775360107421875" lon="20.03403277136385440826416015625">
        <ele>1979</ele>
        <time>2026-06-15T13:22:36.000Z</time>
        <extensions>
          <ns3:TrackPointExtension>
            <ns3:atemp>25.0</ns3:atemp>
          </ns3:TrackPointExtension>
        </extensions>
      </trkpt>
      <trkpt lat="42.5706238858401775360107421875" lon="20.03403277136385440826416015625">
        <ele>1979</ele>
        <time>2026-06-15T13:22:37.000Z</time>
        <extensions>
          <ns3:TrackPointExtension>
            <ns3:atemp>25.0</ns3:atemp>
          </ns3:TrackPointExtension>
        </extensions>
      </trkpt>
      <trkpt lat="42.5706238858401775360107421875" lon="20.03403277136385440826416015625">
        <ele>1979</ele>
        <time>2026-06-15T13:22:38.000Z</time>
        <extensions>
          <ns3:TrackPointExtension>
            <ns3:atemp>25.0</ns3:atemp>
          </ns3:TrackPointExtension>
        </extensions>
      </trkpt>
      <trkpt lat="42.5706238858401775360107421875" lon="20.03403277136385440826416015625">
        <ele>1979</ele>
        <time>2026-06-15T13:22:39.000Z</time>
        <extensions>
          <ns3:TrackPointExtension>
            <ns3:atemp>25.0</ns3:atemp>
          </ns3:TrackPointExtension>
        </extensions>
      </trkpt>
      <trkpt lat="42.5706238858401775360107421875" lon="20.03403277136385440826416015625">
        <ele>1979</ele>
        <time>2026-06-15T13:22:40.000Z</time>
        <extensions>
          <ns3:TrackPointExtension>
            <ns3:atemp>25.0</ns3:atemp>
          </ns3:TrackPointExtension>
        </extensions>
      </trkpt>
      <trkpt lat="42.5706238858401775360107421875" lon="20.03403277136385440826416015625">
        <ele>1979</ele>
        <time>2026-06-15T13:22:41.000Z</time>
        <extensions>
          <ns3:TrackPointExtension>
            <ns3:atemp>25.0</ns3:atemp>
          </ns3:TrackPointExtension>
        </extensions>
      </trkpt>
      <trkpt lat="42.5706238858401775360107421875" lon="20.03403277136385440826416015625">
        <ele>1979</ele>
        <time>2026-06-15T13:22:42.000Z</time>
        <extensions>
          <ns3:TrackPointExtension>
            <ns3:atemp>25.0</ns3:atemp>
          </ns3:TrackPointExtension>
        </extensions>
      </trkpt>
      <trkpt lat="42.5706238858401775360107421875" lon="20.03403277136385440826416015625">
        <ele>1979</ele>
        <time>2026-06-15T13:22:43.000Z</time>
        <extensions>
          <ns3:TrackPointExtension>
            <ns3:atemp>25.0</ns3:atemp>
          </ns3:TrackPointExtension>
        </extensions>
      </trkpt>
      <trkpt lat="42.5706238858401775360107421875" lon="20.03403277136385440826416015625">
        <ele>1979</ele>
        <time>2026-06-15T13:22:44.000Z</time>
        <extensions>
          <ns3:TrackPointExtension>
            <ns3:atemp>25.0</ns3:atemp>
          </ns3:TrackPointExtension>
        </extensions>
      </trkpt>
      <trkpt lat="42.5706238858401775360107421875" lon="20.03403277136385440826416015625">
        <ele>1979</ele>
        <time>2026-06-15T13:22:45.000Z</time>
        <extensions>
          <ns3:TrackPointExtension>
            <ns3:atemp>25.0</ns3:atemp>
          </ns3:TrackPointExtension>
        </extensions>
      </trkpt>
      <trkpt lat="42.5706238858401775360107421875" lon="20.03403277136385440826416015625">
        <ele>1979</ele>
        <time>2026-06-15T13:22:46.000Z</time>
        <extensions>
          <ns3:TrackPointExtension>
            <ns3:atemp>25.0</ns3:atemp>
          </ns3:TrackPointExtension>
        </extensions>
      </trkpt>
      <trkpt lat="42.5706238858401775360107421875" lon="20.03403277136385440826416015625">
        <ele>1979</ele>
        <time>2026-06-15T13:22:47.000Z</time>
        <extensions>
          <ns3:TrackPointExtension>
            <ns3:atemp>25.0</ns3:atemp>
          </ns3:TrackPointExtension>
        </extensions>
      </trkpt>
      <trkpt lat="42.5706238858401775360107421875" lon="20.03403277136385440826416015625">
        <ele>1979</ele>
        <time>2026-06-15T13:22:48.000Z</time>
        <extensions>
          <ns3:TrackPointExtension>
            <ns3:atemp>25.0</ns3:atemp>
          </ns3:TrackPointExtension>
        </extensions>
      </trkpt>
      <trkpt lat="42.5706238858401775360107421875" lon="20.03403277136385440826416015625">
        <ele>1979</ele>
        <time>2026-06-15T13:22:49.000Z</time>
        <extensions>
          <ns3:TrackPointExtension>
            <ns3:atemp>25.0</ns3:atemp>
          </ns3:TrackPointExtension>
        </extensions>
      </trkpt>
      <trkpt lat="42.5706238858401775360107421875" lon="20.03403277136385440826416015625">
        <ele>1979</ele>
        <time>2026-06-15T13:22:50.000Z</time>
        <extensions>
          <ns3:TrackPointExtension>
            <ns3:atemp>25.0</ns3:atemp>
          </ns3:TrackPointExtension>
        </extensions>
      </trkpt>
      <trkpt lat="42.5706238858401775360107421875" lon="20.03403277136385440826416015625">
        <ele>1979</ele>
        <time>2026-06-15T13:22:51.000Z</time>
        <extensions>
          <ns3:TrackPointExtension>
            <ns3:atemp>25.0</ns3:atemp>
          </ns3:TrackPointExtension>
        </extensions>
      </trkpt>
      <trkpt lat="42.5706238858401775360107421875" lon="20.03403277136385440826416015625">
        <ele>1979</ele>
        <time>2026-06-15T13:22:52.000Z</time>
        <extensions>
          <ns3:TrackPointExtension>
            <ns3:atemp>25.0</ns3:atemp>
          </ns3:TrackPointExtension>
        </extensions>
      </trkpt>
      <trkpt lat="42.5706238858401775360107421875" lon="20.03403277136385440826416015625">
        <ele>1979</ele>
        <time>2026-06-15T13:22:53.000Z</time>
        <extensions>
          <ns3:TrackPointExtension>
            <ns3:atemp>25.0</ns3:atemp>
          </ns3:TrackPointExtension>
        </extensions>
      </trkpt>
      <trkpt lat="42.5706238858401775360107421875" lon="20.03403277136385440826416015625">
        <ele>1979</ele>
        <time>2026-06-15T13:22:54.000Z</time>
        <extensions>
          <ns3:TrackPointExtension>
            <ns3:atemp>25.0</ns3:atemp>
          </ns3:TrackPointExtension>
        </extensions>
      </trkpt>
      <trkpt lat="42.5706238858401775360107421875" lon="20.03403277136385440826416015625">
        <ele>1979</ele>
        <time>2026-06-15T13:22:55.000Z</time>
        <extensions>
          <ns3:TrackPointExtension>
            <ns3:atemp>25.0</ns3:atemp>
          </ns3:TrackPointExtension>
        </extensions>
      </trkpt>
      <trkpt lat="42.5706238858401775360107421875" lon="20.03403277136385440826416015625">
        <ele>1979</ele>
        <time>2026-06-15T13:22:56.000Z</time>
        <extensions>
          <ns3:TrackPointExtension>
            <ns3:atemp>25.0</ns3:atemp>
          </ns3:TrackPointExtension>
        </extensions>
      </trkpt>
      <trkpt lat="42.5706238858401775360107421875" lon="20.03403277136385440826416015625">
        <ele>1979</ele>
        <time>2026-06-15T13:22:57.000Z</time>
        <extensions>
          <ns3:TrackPointExtension>
            <ns3:atemp>25.0</ns3:atemp>
          </ns3:TrackPointExtension>
        </extensions>
      </trkpt>
      <trkpt lat="42.5706238858401775360107421875" lon="20.03403277136385440826416015625">
        <ele>1979</ele>
        <time>2026-06-15T13:22:58.000Z</time>
        <extensions>
          <ns3:TrackPointExtension>
            <ns3:atemp>25.0</ns3:atemp>
          </ns3:TrackPointExtension>
        </extensions>
      </trkpt>
      <trkpt lat="42.5706238858401775360107421875" lon="20.03403277136385440826416015625">
        <ele>1979</ele>
        <time>2026-06-15T13:22:59.000Z</time>
        <extensions>
          <ns3:TrackPointExtension>
            <ns3:atemp>25.0</ns3:atemp>
          </ns3:TrackPointExtension>
        </extensions>
      </trkpt>
      <trkpt lat="42.5706238858401775360107421875" lon="20.03403277136385440826416015625">
        <ele>1979</ele>
        <time>2026-06-15T13:23:00.000Z</time>
        <extensions>
          <ns3:TrackPointExtension>
            <ns3:atemp>25.0</ns3:atemp>
          </ns3:TrackPointExtension>
        </extensions>
      </trkpt>
      <trkpt lat="42.5706238858401775360107421875" lon="20.03403277136385440826416015625">
        <ele>1979</ele>
        <time>2026-06-15T13:23:01.000Z</time>
        <extensions>
          <ns3:TrackPointExtension>
            <ns3:atemp>25.0</ns3:atemp>
          </ns3:TrackPointExtension>
        </extensions>
      </trkpt>
      <trkpt lat="42.5706238858401775360107421875" lon="20.03403277136385440826416015625">
        <ele>1979</ele>
        <time>2026-06-15T13:23:02.000Z</time>
        <extensions>
          <ns3:TrackPointExtension>
            <ns3:atemp>25.0</ns3:atemp>
          </ns3:TrackPointExtension>
        </extensions>
      </trkpt>
      <trkpt lat="42.5706238858401775360107421875" lon="20.03403277136385440826416015625">
        <ele>1979</ele>
        <time>2026-06-15T13:23:03.000Z</time>
        <extensions>
          <ns3:TrackPointExtension>
            <ns3:atemp>25.0</ns3:atemp>
          </ns3:TrackPointExtension>
        </extensions>
      </trkpt>
      <trkpt lat="42.5706238858401775360107421875" lon="20.03403277136385440826416015625">
        <ele>1979</ele>
        <time>2026-06-15T13:23:04.000Z</time>
        <extensions>
          <ns3:TrackPointExtension>
            <ns3:atemp>25.0</ns3:atemp>
          </ns3:TrackPointExtension>
        </extensions>
      </trkpt>
      <trkpt lat="42.5706238858401775360107421875" lon="20.03403277136385440826416015625">
        <ele>1979</ele>
        <time>2026-06-15T13:23:05.000Z</time>
        <extensions>
          <ns3:TrackPointExtension>
            <ns3:atemp>25.0</ns3:atemp>
          </ns3:TrackPointExtension>
        </extensions>
      </trkpt>
      <trkpt lat="42.5706238858401775360107421875" lon="20.03403277136385440826416015625">
        <ele>1979</ele>
        <time>2026-06-15T13:23:06.000Z</time>
        <extensions>
          <ns3:TrackPointExtension>
            <ns3:atemp>25.0</ns3:atemp>
          </ns3:TrackPointExtension>
        </extensions>
      </trkpt>
      <trkpt lat="42.5706238858401775360107421875" lon="20.03403277136385440826416015625">
        <ele>1979</ele>
        <time>2026-06-15T13:23:07.000Z</time>
        <extensions>
          <ns3:TrackPointExtension>
            <ns3:atemp>25.0</ns3:atemp>
          </ns3:TrackPointExtension>
        </extensions>
      </trkpt>
      <trkpt lat="42.5706238858401775360107421875" lon="20.03403277136385440826416015625">
        <ele>1979</ele>
        <time>2026-06-15T13:23:08.000Z</time>
        <extensions>
          <ns3:TrackPointExtension>
            <ns3:atemp>25.0</ns3:atemp>
          </ns3:TrackPointExtension>
        </extensions>
      </trkpt>
      <trkpt lat="42.5706238858401775360107421875" lon="20.03403277136385440826416015625">
        <ele>1979</ele>
        <time>2026-06-15T13:23:09.000Z</time>
        <extensions>
          <ns3:TrackPointExtension>
            <ns3:atemp>25.0</ns3:atemp>
          </ns3:TrackPointExtension>
        </extensions>
      </trkpt>
      <trkpt lat="42.5706238858401775360107421875" lon="20.03403277136385440826416015625">
        <ele>1979</ele>
        <time>2026-06-15T13:23:10.000Z</time>
        <extensions>
          <ns3:TrackPointExtension>
            <ns3:atemp>25.0</ns3:atemp>
          </ns3:TrackPointExtension>
        </extensions>
      </trkpt>
      <trkpt lat="42.5706238858401775360107421875" lon="20.03403277136385440826416015625">
        <ele>1979</ele>
        <time>2026-06-15T13:23:11.000Z</time>
        <extensions>
          <ns3:TrackPointExtension>
            <ns3:atemp>25.0</ns3:atemp>
          </ns3:TrackPointExtension>
        </extensions>
      </trkpt>
      <trkpt lat="42.5706238858401775360107421875" lon="20.03403277136385440826416015625">
        <ele>1979</ele>
        <time>2026-06-15T13:23:12.000Z</time>
        <extensions>
          <ns3:TrackPointExtension>
            <ns3:atemp>25.0</ns3:atemp>
          </ns3:TrackPointExtension>
        </extensions>
      </trkpt>
      <trkpt lat="42.5706238858401775360107421875" lon="20.03403277136385440826416015625">
        <ele>1979</ele>
        <time>2026-06-15T13:23:13.000Z</time>
        <extensions>
          <ns3:TrackPointExtension>
            <ns3:atemp>25.0</ns3:atemp>
          </ns3:TrackPointExtension>
        </extensions>
      </trkpt>
      <trkpt lat="42.5706238858401775360107421875" lon="20.03403277136385440826416015625">
        <ele>1979</ele>
        <time>2026-06-15T13:23:14.000Z</time>
        <extensions>
          <ns3:TrackPointExtension>
            <ns3:atemp>25.0</ns3:atemp>
          </ns3:TrackPointExtension>
        </extensions>
      </trkpt>
      <trkpt lat="42.5706238858401775360107421875" lon="20.03403277136385440826416015625">
        <ele>1979</ele>
        <time>2026-06-15T13:23:15.000Z</time>
        <extensions>
          <ns3:TrackPointExtension>
            <ns3:atemp>25.0</ns3:atemp>
          </ns3:TrackPointExtension>
        </extensions>
      </trkpt>
      <trkpt lat="42.5706238858401775360107421875" lon="20.03403277136385440826416015625">
        <ele>1979</ele>
        <time>2026-06-15T13:23:16.000Z</time>
        <extensions>
          <ns3:TrackPointExtension>
            <ns3:atemp>25.0</ns3:atemp>
          </ns3:TrackPointExtension>
        </extensions>
      </trkpt>
      <trkpt lat="42.5706238858401775360107421875" lon="20.03403277136385440826416015625">
        <ele>1979</ele>
        <time>2026-06-15T13:23:17.000Z</time>
        <extensions>
          <ns3:TrackPointExtension>
            <ns3:atemp>24.0</ns3:atemp>
          </ns3:TrackPointExtension>
        </extensions>
      </trkpt>
      <trkpt lat="42.5706238858401775360107421875" lon="20.03403277136385440826416015625">
        <ele>1979</ele>
        <time>2026-06-15T13:23:18.000Z</time>
        <extensions>
          <ns3:TrackPointExtension>
            <ns3:atemp>25.0</ns3:atemp>
          </ns3:TrackPointExtension>
        </extensions>
      </trkpt>
      <trkpt lat="42.5706238858401775360107421875" lon="20.03403277136385440826416015625">
        <ele>1979</ele>
        <time>2026-06-15T13:23:19.000Z</time>
        <extensions>
          <ns3:TrackPointExtension>
            <ns3:atemp>25.0</ns3:atemp>
          </ns3:TrackPointExtension>
        </extensions>
      </trkpt>
      <trkpt lat="42.5706238858401775360107421875" lon="20.03403277136385440826416015625">
        <ele>1979</ele>
        <time>2026-06-15T13:23:20.000Z</time>
        <extensions>
          <ns3:TrackPointExtension>
            <ns3:atemp>25.0</ns3:atemp>
          </ns3:TrackPointExtension>
        </extensions>
      </trkpt>
      <trkpt lat="42.5706238858401775360107421875" lon="20.03403277136385440826416015625">
        <ele>1979</ele>
        <time>2026-06-15T13:23:21.000Z</time>
        <extensions>
          <ns3:TrackPointExtension>
            <ns3:atemp>24.0</ns3:atemp>
          </ns3:TrackPointExtension>
        </extensions>
      </trkpt>
      <trkpt lat="42.5706238858401775360107421875" lon="20.03403277136385440826416015625">
        <ele>1979</ele>
        <time>2026-06-15T13:23:22.000Z</time>
        <extensions>
          <ns3:TrackPointExtension>
            <ns3:atemp>24.0</ns3:atemp>
          </ns3:TrackPointExtension>
        </extensions>
      </trkpt>
      <trkpt lat="42.5706238858401775360107421875" lon="20.03403277136385440826416015625">
        <ele>1979</ele>
        <time>2026-06-15T13:23:23.000Z</time>
        <extensions>
          <ns3:TrackPointExtension>
            <ns3:atemp>24.0</ns3:atemp>
          </ns3:TrackPointExtension>
        </extensions>
      </trkpt>
      <trkpt lat="42.5706238858401775360107421875" lon="20.03403277136385440826416015625">
        <ele>1979</ele>
        <time>2026-06-15T13:23:24.000Z</time>
        <extensions>
          <ns3:TrackPointExtension>
            <ns3:atemp>24.0</ns3:atemp>
          </ns3:TrackPointExtension>
        </extensions>
      </trkpt>
      <trkpt lat="42.5706238858401775360107421875" lon="20.03403277136385440826416015625">
        <ele>1979</ele>
        <time>2026-06-15T13:23:25.000Z</time>
        <extensions>
          <ns3:TrackPointExtension>
            <ns3:atemp>24.0</ns3:atemp>
          </ns3:TrackPointExtension>
        </extensions>
      </trkpt>
      <trkpt lat="42.5706238858401775360107421875" lon="20.03403277136385440826416015625">
        <ele>1979</ele>
        <time>2026-06-15T13:23:26.000Z</time>
        <extensions>
          <ns3:TrackPointExtension>
            <ns3:atemp>24.0</ns3:atemp>
          </ns3:TrackPointExtension>
        </extensions>
      </trkpt>
      <trkpt lat="42.5706238858401775360107421875" lon="20.03403277136385440826416015625">
        <ele>1979</ele>
        <time>2026-06-15T13:23:27.000Z</time>
        <extensions>
          <ns3:TrackPointExtension>
            <ns3:atemp>24.0</ns3:atemp>
          </ns3:TrackPointExtension>
        </extensions>
      </trkpt>
      <trkpt lat="42.5706238858401775360107421875" lon="20.03403277136385440826416015625">
        <ele>1979</ele>
        <time>2026-06-15T13:23:28.000Z</time>
        <extensions>
          <ns3:TrackPointExtension>
            <ns3:atemp>24.0</ns3:atemp>
          </ns3:TrackPointExtension>
        </extensions>
      </trkpt>
      <trkpt lat="42.5706238858401775360107421875" lon="20.03403277136385440826416015625">
        <ele>1979</ele>
        <time>2026-06-15T13:23:29.000Z</time>
        <extensions>
          <ns3:TrackPointExtension>
            <ns3:atemp>24.0</ns3:atemp>
          </ns3:TrackPointExtension>
        </extensions>
      </trkpt>
      <trkpt lat="42.5706238858401775360107421875" lon="20.03403277136385440826416015625">
        <ele>1979</ele>
        <time>2026-06-15T13:23:30.000Z</time>
        <extensions>
          <ns3:TrackPointExtension>
            <ns3:atemp>24.0</ns3:atemp>
          </ns3:TrackPointExtension>
        </extensions>
      </trkpt>
      <trkpt lat="42.5706238858401775360107421875" lon="20.03403277136385440826416015625">
        <ele>1979</ele>
        <time>2026-06-15T13:23:31.000Z</time>
        <extensions>
          <ns3:TrackPointExtension>
            <ns3:atemp>24.0</ns3:atemp>
          </ns3:TrackPointExtension>
        </extensions>
      </trkpt>
      <trkpt lat="42.5706238858401775360107421875" lon="20.03403277136385440826416015625">
        <ele>1979</ele>
        <time>2026-06-15T13:23:32.000Z</time>
        <extensions>
          <ns3:TrackPointExtension>
            <ns3:atemp>24.0</ns3:atemp>
          </ns3:TrackPointExtension>
        </extensions>
      </trkpt>
      <trkpt lat="42.5706238858401775360107421875" lon="20.03403277136385440826416015625">
        <ele>1979</ele>
        <time>2026-06-15T13:23:33.000Z</time>
        <extensions>
          <ns3:TrackPointExtension>
            <ns3:atemp>24.0</ns3:atemp>
          </ns3:TrackPointExtension>
        </extensions>
      </trkpt>
      <trkpt lat="42.5706238858401775360107421875" lon="20.03403277136385440826416015625">
        <ele>1979</ele>
        <time>2026-06-15T13:23:34.000Z</time>
        <extensions>
          <ns3:TrackPointExtension>
            <ns3:atemp>25.0</ns3:atemp>
          </ns3:TrackPointExtension>
        </extensions>
      </trkpt>
      <trkpt lat="42.5706238858401775360107421875" lon="20.03403277136385440826416015625">
        <ele>1979</ele>
        <time>2026-06-15T13:23:35.000Z</time>
        <extensions>
          <ns3:TrackPointExtension>
            <ns3:atemp>24.0</ns3:atemp>
          </ns3:TrackPointExtension>
        </extensions>
      </trkpt>
      <trkpt lat="42.5706238858401775360107421875" lon="20.03403277136385440826416015625">
        <ele>1979</ele>
        <time>2026-06-15T13:23:36.000Z</time>
        <extensions>
          <ns3:TrackPointExtension>
            <ns3:atemp>25.0</ns3:atemp>
          </ns3:TrackPointExtension>
        </extensions>
      </trkpt>
      <trkpt lat="42.5706238858401775360107421875" lon="20.03403277136385440826416015625">
        <ele>1979</ele>
        <time>2026-06-15T13:23:37.000Z</time>
        <extensions>
          <ns3:TrackPointExtension>
            <ns3:atemp>25.0</ns3:atemp>
          </ns3:TrackPointExtension>
        </extensions>
      </trkpt>
      <trkpt lat="42.5706238858401775360107421875" lon="20.03403277136385440826416015625">
        <ele>1979</ele>
        <time>2026-06-15T13:23:38.000Z</time>
        <extensions>
          <ns3:TrackPointExtension>
            <ns3:atemp>25.0</ns3:atemp>
          </ns3:TrackPointExtension>
        </extensions>
      </trkpt>
      <trkpt lat="42.5706238858401775360107421875" lon="20.03403277136385440826416015625">
        <ele>1979</ele>
        <time>2026-06-15T13:23:39.000Z</time>
        <extensions>
          <ns3:TrackPointExtension>
            <ns3:atemp>25.0</ns3:atemp>
          </ns3:TrackPointExtension>
        </extensions>
      </trkpt>
      <trkpt lat="42.5706238858401775360107421875" lon="20.03403277136385440826416015625">
        <ele>1979</ele>
        <time>2026-06-15T13:23:40.000Z</time>
        <extensions>
          <ns3:TrackPointExtension>
            <ns3:atemp>25.0</ns3:atemp>
          </ns3:TrackPointExtension>
        </extensions>
      </trkpt>
      <trkpt lat="42.5706238858401775360107421875" lon="20.03403277136385440826416015625">
        <ele>1979</ele>
        <time>2026-06-15T13:23:41.000Z</time>
        <extensions>
          <ns3:TrackPointExtension>
            <ns3:atemp>25.0</ns3:atemp>
          </ns3:TrackPointExtension>
        </extensions>
      </trkpt>
      <trkpt lat="42.5706238858401775360107421875" lon="20.03403277136385440826416015625">
        <ele>1979</ele>
        <time>2026-06-15T13:23:42.000Z</time>
        <extensions>
          <ns3:TrackPointExtension>
            <ns3:atemp>24.0</ns3:atemp>
          </ns3:TrackPointExtension>
        </extensions>
      </trkpt>
      <trkpt lat="42.5706238858401775360107421875" lon="20.03403277136385440826416015625">
        <ele>1979</ele>
        <time>2026-06-15T13:23:43.000Z</time>
        <extensions>
          <ns3:TrackPointExtension>
            <ns3:atemp>24.0</ns3:atemp>
          </ns3:TrackPointExtension>
        </extensions>
      </trkpt>
      <trkpt lat="42.5706238858401775360107421875" lon="20.03403277136385440826416015625">
        <ele>1979</ele>
        <time>2026-06-15T13:23:44.000Z</time>
        <extensions>
          <ns3:TrackPointExtension>
            <ns3:atemp>24.0</ns3:atemp>
          </ns3:TrackPointExtension>
        </extensions>
      </trkpt>
      <trkpt lat="42.5706238858401775360107421875" lon="20.03403277136385440826416015625">
        <ele>1979</ele>
        <time>2026-06-15T13:23:45.000Z</time>
        <extensions>
          <ns3:TrackPointExtension>
            <ns3:atemp>24.0</ns3:atemp>
          </ns3:TrackPointExtension>
        </extensions>
      </trkpt>
      <trkpt lat="42.5706238858401775360107421875" lon="20.03403277136385440826416015625">
        <ele>1979</ele>
        <time>2026-06-15T13:23:46.000Z</time>
        <extensions>
          <ns3:TrackPointExtension>
            <ns3:atemp>25.0</ns3:atemp>
          </ns3:TrackPointExtension>
        </extensions>
      </trkpt>
      <trkpt lat="42.5706238858401775360107421875" lon="20.03403277136385440826416015625">
        <ele>1979</ele>
        <time>2026-06-15T13:23:47.000Z</time>
        <extensions>
          <ns3:TrackPointExtension>
            <ns3:atemp>24.0</ns3:atemp>
          </ns3:TrackPointExtension>
        </extensions>
      </trkpt>
      <trkpt lat="42.5706238858401775360107421875" lon="20.03403277136385440826416015625">
        <ele>1979</ele>
        <time>2026-06-15T13:23:48.000Z</time>
        <extensions>
          <ns3:TrackPointExtension>
            <ns3:atemp>24.0</ns3:atemp>
          </ns3:TrackPointExtension>
        </extensions>
      </trkpt>
      <trkpt lat="42.5706238858401775360107421875" lon="20.03403277136385440826416015625">
        <ele>1979</ele>
        <time>2026-06-15T13:23:49.000Z</time>
        <extensions>
          <ns3:TrackPointExtension>
            <ns3:atemp>24.0</ns3:atemp>
          </ns3:TrackPointExtension>
        </extensions>
      </trkpt>
      <trkpt lat="42.5706238858401775360107421875" lon="20.03403277136385440826416015625">
        <ele>1979</ele>
        <time>2026-06-15T13:23:50.000Z</time>
        <extensions>
          <ns3:TrackPointExtension>
            <ns3:atemp>24.0</ns3:atemp>
          </ns3:TrackPointExtension>
        </extensions>
      </trkpt>
      <trkpt lat="42.5706238858401775360107421875" lon="20.03403277136385440826416015625">
        <ele>1979</ele>
        <time>2026-06-15T13:23:51.000Z</time>
        <extensions>
          <ns3:TrackPointExtension>
            <ns3:atemp>25.0</ns3:atemp>
          </ns3:TrackPointExtension>
        </extensions>
      </trkpt>
      <trkpt lat="42.5706238858401775360107421875" lon="20.03403277136385440826416015625">
        <ele>1979</ele>
        <time>2026-06-15T13:23:52.000Z</time>
        <extensions>
          <ns3:TrackPointExtension>
            <ns3:atemp>24.0</ns3:atemp>
          </ns3:TrackPointExtension>
        </extensions>
      </trkpt>
      <trkpt lat="42.5706238858401775360107421875" lon="20.03403277136385440826416015625">
        <ele>1979</ele>
        <time>2026-06-15T13:23:53.000Z</time>
        <extensions>
          <ns3:TrackPointExtension>
            <ns3:atemp>24.0</ns3:atemp>
          </ns3:TrackPointExtension>
        </extensions>
      </trkpt>
      <trkpt lat="42.5706238858401775360107421875" lon="20.03403277136385440826416015625">
        <ele>1979</ele>
        <time>2026-06-15T13:23:54.000Z</time>
        <extensions>
          <ns3:TrackPointExtension>
            <ns3:atemp>25.0</ns3:atemp>
          </ns3:TrackPointExtension>
        </extensions>
      </trkpt>
      <trkpt lat="42.5706238858401775360107421875" lon="20.03403277136385440826416015625">
        <ele>1979</ele>
        <time>2026-06-15T13:23:55.000Z</time>
        <extensions>
          <ns3:TrackPointExtension>
            <ns3:atemp>24.0</ns3:atemp>
          </ns3:TrackPointExtension>
        </extensions>
      </trkpt>
      <trkpt lat="42.5706238858401775360107421875" lon="20.03403277136385440826416015625">
        <ele>1979</ele>
        <time>2026-06-15T13:23:56.000Z</time>
        <extensions>
          <ns3:TrackPointExtension>
            <ns3:atemp>24.0</ns3:atemp>
          </ns3:TrackPointExtension>
        </extensions>
      </trkpt>
      <trkpt lat="42.5706238858401775360107421875" lon="20.03403277136385440826416015625">
        <ele>1979</ele>
        <time>2026-06-15T13:23:57.000Z</time>
        <extensions>
          <ns3:TrackPointExtension>
            <ns3:atemp>24.0</ns3:atemp>
          </ns3:TrackPointExtension>
        </extensions>
      </trkpt>
      <trkpt lat="42.5706238858401775360107421875" lon="20.03403277136385440826416015625">
        <ele>1979</ele>
        <time>2026-06-15T13:23:58.000Z</time>
        <extensions>
          <ns3:TrackPointExtension>
            <ns3:atemp>24.0</ns3:atemp>
          </ns3:TrackPointExtension>
        </extensions>
      </trkpt>
      <trkpt lat="42.5706238858401775360107421875" lon="20.03403277136385440826416015625">
        <ele>1979</ele>
        <time>2026-06-15T13:23:59.000Z</time>
        <extensions>
          <ns3:TrackPointExtension>
            <ns3:atemp>24.0</ns3:atemp>
          </ns3:TrackPointExtension>
        </extensions>
      </trkpt>
      <trkpt lat="42.5706238858401775360107421875" lon="20.03403277136385440826416015625">
        <ele>1979</ele>
        <time>2026-06-15T13:24:00.000Z</time>
        <extensions>
          <ns3:TrackPointExtension>
            <ns3:atemp>24.0</ns3:atemp>
          </ns3:TrackPointExtension>
        </extensions>
      </trkpt>
      <trkpt lat="42.5706238858401775360107421875" lon="20.03403277136385440826416015625">
        <ele>1979</ele>
        <time>2026-06-15T13:24:01.000Z</time>
        <extensions>
          <ns3:TrackPointExtension>
            <ns3:atemp>24.0</ns3:atemp>
          </ns3:TrackPointExtension>
        </extensions>
      </trkpt>
      <trkpt lat="42.5706238858401775360107421875" lon="20.03403277136385440826416015625">
        <ele>1979</ele>
        <time>2026-06-15T13:24:02.000Z</time>
        <extensions>
          <ns3:TrackPointExtension>
            <ns3:atemp>24.0</ns3:atemp>
          </ns3:TrackPointExtension>
        </extensions>
      </trkpt>
      <trkpt lat="42.5706238858401775360107421875" lon="20.03403277136385440826416015625">
        <ele>1979</ele>
        <time>2026-06-15T13:24:03.000Z</time>
        <extensions>
          <ns3:TrackPointExtension>
            <ns3:atemp>24.0</ns3:atemp>
          </ns3:TrackPointExtension>
        </extensions>
      </trkpt>
      <trkpt lat="42.5706238858401775360107421875" lon="20.03403277136385440826416015625">
        <ele>1979</ele>
        <time>2026-06-15T13:24:04.000Z</time>
        <extensions>
          <ns3:TrackPointExtension>
            <ns3:atemp>24.0</ns3:atemp>
          </ns3:TrackPointExtension>
        </extensions>
      </trkpt>
      <trkpt lat="42.5706238858401775360107421875" lon="20.03403277136385440826416015625">
        <ele>1979</ele>
        <time>2026-06-15T13:24:05.000Z</time>
        <extensions>
          <ns3:TrackPointExtension>
            <ns3:atemp>24.0</ns3:atemp>
          </ns3:TrackPointExtension>
        </extensions>
      </trkpt>
      <trkpt lat="42.5706238858401775360107421875" lon="20.03403277136385440826416015625">
        <ele>1979</ele>
        <time>2026-06-15T13:24:06.000Z</time>
        <extensions>
          <ns3:TrackPointExtension>
            <ns3:atemp>24.0</ns3:atemp>
          </ns3:TrackPointExtension>
        </extensions>
      </trkpt>
      <trkpt lat="42.5706238858401775360107421875" lon="20.03403277136385440826416015625">
        <ele>1979</ele>
        <time>2026-06-15T13:24:07.000Z</time>
        <extensions>
          <ns3:TrackPointExtension>
            <ns3:atemp>25.0</ns3:atemp>
          </ns3:TrackPointExtension>
        </extensions>
      </trkpt>
      <trkpt lat="42.5706238858401775360107421875" lon="20.03403277136385440826416015625">
        <ele>1979</ele>
        <time>2026-06-15T13:24:08.000Z</time>
        <extensions>
          <ns3:TrackPointExtension>
            <ns3:atemp>25.0</ns3:atemp>
          </ns3:TrackPointExtension>
        </extensions>
      </trkpt>
      <trkpt lat="42.5706238858401775360107421875" lon="20.03403277136385440826416015625">
        <ele>1979</ele>
        <time>2026-06-15T13:24:09.000Z</time>
        <extensions>
          <ns3:TrackPointExtension>
            <ns3:atemp>25.0</ns3:atemp>
          </ns3:TrackPointExtension>
        </extensions>
      </trkpt>
      <trkpt lat="42.5706238858401775360107421875" lon="20.03403277136385440826416015625">
        <ele>1979</ele>
        <time>2026-06-15T13:24:10.000Z</time>
        <extensions>
          <ns3:TrackPointExtension>
            <ns3:atemp>25.0</ns3:atemp>
          </ns3:TrackPointExtension>
        </extensions>
      </trkpt>
      <trkpt lat="42.5706238858401775360107421875" lon="20.03403277136385440826416015625">
        <ele>1979</ele>
        <time>2026-06-15T13:24:11.000Z</time>
        <extensions>
          <ns3:TrackPointExtension>
            <ns3:atemp>25.0</ns3:atemp>
          </ns3:TrackPointExtension>
        </extensions>
      </trkpt>
      <trkpt lat="42.5706238858401775360107421875" lon="20.03403277136385440826416015625">
        <ele>1979</ele>
        <time>2026-06-15T13:24:12.000Z</time>
        <extensions>
          <ns3:TrackPointExtension>
            <ns3:atemp>25.0</ns3:atemp>
          </ns3:TrackPointExtension>
        </extensions>
      </trkpt>
      <trkpt lat="42.5706238858401775360107421875" lon="20.03403277136385440826416015625">
        <ele>1979</ele>
        <time>2026-06-15T13:24:13.000Z</time>
        <extensions>
          <ns3:TrackPointExtension>
            <ns3:atemp>25.0</ns3:atemp>
          </ns3:TrackPointExtension>
        </extensions>
      </trkpt>
      <trkpt lat="42.5706238858401775360107421875" lon="20.03403277136385440826416015625">
        <ele>1979</ele>
        <time>2026-06-15T13:24:14.000Z</time>
        <extensions>
          <ns3:TrackPointExtension>
            <ns3:atemp>25.0</ns3:atemp>
          </ns3:TrackPointExtension>
        </extensions>
      </trkpt>
      <trkpt lat="42.5706238858401775360107421875" lon="20.03403277136385440826416015625">
        <ele>1979</ele>
        <time>2026-06-15T13:24:15.000Z</time>
        <extensions>
          <ns3:TrackPointExtension>
            <ns3:atemp>25.0</ns3:atemp>
          </ns3:TrackPointExtension>
        </extensions>
      </trkpt>
      <trkpt lat="42.5706238858401775360107421875" lon="20.03403277136385440826416015625">
        <ele>1979</ele>
        <time>2026-06-15T13:24:16.000Z</time>
        <extensions>
          <ns3:TrackPointExtension>
            <ns3:atemp>25.0</ns3:atemp>
          </ns3:TrackPointExtension>
        </extensions>
      </trkpt>
      <trkpt lat="42.5706238858401775360107421875" lon="20.03403277136385440826416015625">
        <ele>1979</ele>
        <time>2026-06-15T13:24:17.000Z</time>
        <extensions>
          <ns3:TrackPointExtension>
            <ns3:atemp>25.0</ns3:atemp>
          </ns3:TrackPointExtension>
        </extensions>
      </trkpt>
      <trkpt lat="42.5706238858401775360107421875" lon="20.03403277136385440826416015625">
        <ele>1979</ele>
        <time>2026-06-15T13:24:18.000Z</time>
        <extensions>
          <ns3:TrackPointExtension>
            <ns3:atemp>24.0</ns3:atemp>
          </ns3:TrackPointExtension>
        </extensions>
      </trkpt>
      <trkpt lat="42.5706238858401775360107421875" lon="20.03403277136385440826416015625">
        <ele>1979</ele>
        <time>2026-06-15T13:24:19.000Z</time>
        <extensions>
          <ns3:TrackPointExtension>
            <ns3:atemp>25.0</ns3:atemp>
          </ns3:TrackPointExtension>
        </extensions>
      </trkpt>
      <trkpt lat="42.5706238858401775360107421875" lon="20.03403277136385440826416015625">
        <ele>1979</ele>
        <time>2026-06-15T13:24:20.000Z</time>
        <extensions>
          <ns3:TrackPointExtension>
            <ns3:atemp>25.0</ns3:atemp>
          </ns3:TrackPointExtension>
        </extensions>
      </trkpt>
      <trkpt lat="42.5706238858401775360107421875" lon="20.03403277136385440826416015625">
        <ele>1979</ele>
        <time>2026-06-15T13:24:21.000Z</time>
        <extensions>
          <ns3:TrackPointExtension>
            <ns3:atemp>25.0</ns3:atemp>
          </ns3:TrackPointExtension>
        </extensions>
      </trkpt>
      <trkpt lat="42.5706238858401775360107421875" lon="20.03403277136385440826416015625">
        <ele>1979</ele>
        <time>2026-06-15T13:24:22.000Z</time>
        <extensions>
          <ns3:TrackPointExtension>
            <ns3:atemp>24.0</ns3:atemp>
          </ns3:TrackPointExtension>
        </extensions>
      </trkpt>
      <trkpt lat="42.5706238858401775360107421875" lon="20.03403277136385440826416015625">
        <ele>1979</ele>
        <time>2026-06-15T13:24:23.000Z</time>
        <extensions>
          <ns3:TrackPointExtension>
            <ns3:atemp>24.0</ns3:atemp>
          </ns3:TrackPointExtension>
        </extensions>
      </trkpt>
      <trkpt lat="42.5706238858401775360107421875" lon="20.03403277136385440826416015625">
        <ele>1979</ele>
        <time>2026-06-15T13:24:24.000Z</time>
        <extensions>
          <ns3:TrackPointExtension>
            <ns3:atemp>24.0</ns3:atemp>
          </ns3:TrackPointExtension>
        </extensions>
      </trkpt>
      <trkpt lat="42.5706238858401775360107421875" lon="20.03403277136385440826416015625">
        <ele>1979</ele>
        <time>2026-06-15T13:24:25.000Z</time>
        <extensions>
          <ns3:TrackPointExtension>
            <ns3:atemp>24.0</ns3:atemp>
          </ns3:TrackPointExtension>
        </extensions>
      </trkpt>
      <trkpt lat="42.5706238858401775360107421875" lon="20.03403277136385440826416015625">
        <ele>1979</ele>
        <time>2026-06-15T13:24:26.000Z</time>
        <extensions>
          <ns3:TrackPointExtension>
            <ns3:atemp>24.0</ns3:atemp>
          </ns3:TrackPointExtension>
        </extensions>
      </trkpt>
      <trkpt lat="42.5706238858401775360107421875" lon="20.03403277136385440826416015625">
        <ele>1979</ele>
        <time>2026-06-15T13:24:27.000Z</time>
        <extensions>
          <ns3:TrackPointExtension>
            <ns3:atemp>24.0</ns3:atemp>
          </ns3:TrackPointExtension>
        </extensions>
      </trkpt>
      <trkpt lat="42.5706238858401775360107421875" lon="20.03403277136385440826416015625">
        <ele>1979</ele>
        <time>2026-06-15T13:24:28.000Z</time>
        <extensions>
          <ns3:TrackPointExtension>
            <ns3:atemp>24.0</ns3:atemp>
          </ns3:TrackPointExtension>
        </extensions>
      </trkpt>
      <trkpt lat="42.5706238858401775360107421875" lon="20.03403277136385440826416015625">
        <ele>1979</ele>
        <time>2026-06-15T13:24:29.000Z</time>
        <extensions>
          <ns3:TrackPointExtension>
            <ns3:atemp>24.0</ns3:atemp>
          </ns3:TrackPointExtension>
        </extensions>
      </trkpt>
      <trkpt lat="42.5706238858401775360107421875" lon="20.03403277136385440826416015625">
        <ele>1979</ele>
        <time>2026-06-15T13:24:30.000Z</time>
        <extensions>
          <ns3:TrackPointExtension>
            <ns3:atemp>24.0</ns3:atemp>
          </ns3:TrackPointExtension>
        </extensions>
      </trkpt>
      <trkpt lat="42.5706238858401775360107421875" lon="20.03403277136385440826416015625">
        <ele>1979</ele>
        <time>2026-06-15T13:24:31.000Z</time>
        <extensions>
          <ns3:TrackPointExtension>
            <ns3:atemp>25.0</ns3:atemp>
          </ns3:TrackPointExtension>
        </extensions>
      </trkpt>
      <trkpt lat="42.5706238858401775360107421875" lon="20.03403277136385440826416015625">
        <ele>1979</ele>
        <time>2026-06-15T13:24:32.000Z</time>
        <extensions>
          <ns3:TrackPointExtension>
            <ns3:atemp>24.0</ns3:atemp>
          </ns3:TrackPointExtension>
        </extensions>
      </trkpt>
      <trkpt lat="42.5706238858401775360107421875" lon="20.03403277136385440826416015625">
        <ele>1979</ele>
        <time>2026-06-15T13:24:33.000Z</time>
        <extensions>
          <ns3:TrackPointExtension>
            <ns3:atemp>24.0</ns3:atemp>
          </ns3:TrackPointExtension>
        </extensions>
      </trkpt>
      <trkpt lat="42.5706238858401775360107421875" lon="20.03403277136385440826416015625">
        <ele>1979</ele>
        <time>2026-06-15T13:24:34.000Z</time>
        <extensions>
          <ns3:TrackPointExtension>
            <ns3:atemp>24.0</ns3:atemp>
          </ns3:TrackPointExtension>
        </extensions>
      </trkpt>
      <trkpt lat="42.5706238858401775360107421875" lon="20.03403277136385440826416015625">
        <ele>1979</ele>
        <time>2026-06-15T13:24:35.000Z</time>
        <extensions>
          <ns3:TrackPointExtension>
            <ns3:atemp>25.0</ns3:atemp>
          </ns3:TrackPointExtension>
        </extensions>
      </trkpt>
      <trkpt lat="42.5706238858401775360107421875" lon="20.03403277136385440826416015625">
        <ele>1979</ele>
        <time>2026-06-15T13:24:36.000Z</time>
        <extensions>
          <ns3:TrackPointExtension>
            <ns3:atemp>25.0</ns3:atemp>
          </ns3:TrackPointExtension>
        </extensions>
      </trkpt>
      <trkpt lat="42.5706238858401775360107421875" lon="20.03403277136385440826416015625">
        <ele>1979</ele>
        <time>2026-06-15T13:24:37.000Z</time>
        <extensions>
          <ns3:TrackPointExtension>
            <ns3:atemp>25.0</ns3:atemp>
          </ns3:TrackPointExtension>
        </extensions>
      </trkpt>
      <trkpt lat="42.5706238858401775360107421875" lon="20.03403277136385440826416015625">
        <ele>1979</ele>
        <time>2026-06-15T13:24:38.000Z</time>
        <extensions>
          <ns3:TrackPointExtension>
            <ns3:atemp>25.0</ns3:atemp>
          </ns3:TrackPointExtension>
        </extensions>
      </trkpt>
      <trkpt lat="42.5706238858401775360107421875" lon="20.03403277136385440826416015625">
        <ele>1979</ele>
        <time>2026-06-15T13:24:39.000Z</time>
        <extensions>
          <ns3:TrackPointExtension>
            <ns3:atemp>25.0</ns3:atemp>
          </ns3:TrackPointExtension>
        </extensions>
      </trkpt>
      <trkpt lat="42.5706238858401775360107421875" lon="20.03403277136385440826416015625">
        <ele>1979</ele>
        <time>2026-06-15T13:24:40.000Z</time>
        <extensions>
          <ns3:TrackPointExtension>
            <ns3:atemp>25.0</ns3:atemp>
          </ns3:TrackPointExtension>
        </extensions>
      </trkpt>
      <trkpt lat="42.5706238858401775360107421875" lon="20.03403277136385440826416015625">
        <ele>1979</ele>
        <time>2026-06-15T13:24:41.000Z</time>
        <extensions>
          <ns3:TrackPointExtension>
            <ns3:atemp>24.0</ns3:atemp>
          </ns3:TrackPointExtension>
        </extensions>
      </trkpt>
      <trkpt lat="42.5706238858401775360107421875" lon="20.03403277136385440826416015625">
        <ele>1979</ele>
        <time>2026-06-15T13:24:42.000Z</time>
        <extensions>
          <ns3:TrackPointExtension>
            <ns3:atemp>24.0</ns3:atemp>
          </ns3:TrackPointExtension>
        </extensions>
      </trkpt>
      <trkpt lat="42.5706238858401775360107421875" lon="20.03403277136385440826416015625">
        <ele>1979</ele>
        <time>2026-06-15T13:24:43.000Z</time>
        <extensions>
          <ns3:TrackPointExtension>
            <ns3:atemp>24.0</ns3:atemp>
          </ns3:TrackPointExtension>
        </extensions>
      </trkpt>
      <trkpt lat="42.5706238858401775360107421875" lon="20.03403277136385440826416015625">
        <ele>1979</ele>
        <time>2026-06-15T13:24:44.000Z</time>
        <extensions>
          <ns3:TrackPointExtension>
            <ns3:atemp>24.0</ns3:atemp>
          </ns3:TrackPointExtension>
        </extensions>
      </trkpt>
      <trkpt lat="42.5706238858401775360107421875" lon="20.03403277136385440826416015625">
        <ele>1979</ele>
        <time>2026-06-15T13:24:45.000Z</time>
        <extensions>
          <ns3:TrackPointExtension>
            <ns3:atemp>25.0</ns3:atemp>
          </ns3:TrackPointExtension>
        </extensions>
      </trkpt>
      <trkpt lat="42.5706238858401775360107421875" lon="20.03403277136385440826416015625">
        <ele>1979</ele>
        <time>2026-06-15T13:24:46.000Z</time>
        <extensions>
          <ns3:TrackPointExtension>
            <ns3:atemp>25.0</ns3:atemp>
          </ns3:TrackPointExtension>
        </extensions>
      </trkpt>
      <trkpt lat="42.5706238858401775360107421875" lon="20.03403277136385440826416015625">
        <ele>1979</ele>
        <time>2026-06-15T13:24:47.000Z</time>
        <extensions>
          <ns3:TrackPointExtension>
            <ns3:atemp>25.0</ns3:atemp>
          </ns3:TrackPointExtension>
        </extensions>
      </trkpt>
      <trkpt lat="42.5706238858401775360107421875" lon="20.03403277136385440826416015625">
        <ele>1979</ele>
        <time>2026-06-15T13:24:48.000Z</time>
        <extensions>
          <ns3:TrackPointExtension>
            <ns3:atemp>25.0</ns3:atemp>
          </ns3:TrackPointExtension>
        </extensions>
      </trkpt>
      <trkpt lat="42.5706238858401775360107421875" lon="20.03403277136385440826416015625">
        <ele>1979</ele>
        <time>2026-06-15T13:24:49.000Z</time>
        <extensions>
          <ns3:TrackPointExtension>
            <ns3:atemp>25.0</ns3:atemp>
          </ns3:TrackPointExtension>
        </extensions>
      </trkpt>
      <trkpt lat="42.5706238858401775360107421875" lon="20.03403277136385440826416015625">
        <ele>1979</ele>
        <time>2026-06-15T13:24:50.000Z</time>
        <extensions>
          <ns3:TrackPointExtension>
            <ns3:atemp>25.0</ns3:atemp>
          </ns3:TrackPointExtension>
        </extensions>
      </trkpt>
      <trkpt lat="42.5706238858401775360107421875" lon="20.03403277136385440826416015625">
        <ele>1979</ele>
        <time>2026-06-15T13:24:51.000Z</time>
        <extensions>
          <ns3:TrackPointExtension>
            <ns3:atemp>25.0</ns3:atemp>
          </ns3:TrackPointExtension>
        </extensions>
      </trkpt>
      <trkpt lat="42.5706238858401775360107421875" lon="20.03403277136385440826416015625">
        <ele>1979</ele>
        <time>2026-06-15T13:24:52.000Z</time>
        <extensions>
          <ns3:TrackPointExtension>
            <ns3:atemp>25.0</ns3:atemp>
          </ns3:TrackPointExtension>
        </extensions>
      </trkpt>
      <trkpt lat="42.5706238858401775360107421875" lon="20.03403277136385440826416015625">
        <ele>1979</ele>
        <time>2026-06-15T13:24:53.000Z</time>
        <extensions>
          <ns3:TrackPointExtension>
            <ns3:atemp>25.0</ns3:atemp>
          </ns3:TrackPointExtension>
        </extensions>
      </trkpt>
      <trkpt lat="42.5706238858401775360107421875" lon="20.03403277136385440826416015625">
        <ele>1979</ele>
        <time>2026-06-15T13:24:54.000Z</time>
        <extensions>
          <ns3:TrackPointExtension>
            <ns3:atemp>24.0</ns3:atemp>
          </ns3:TrackPointExtension>
        </extensions>
      </trkpt>
      <trkpt lat="42.5706238858401775360107421875" lon="20.03403277136385440826416015625">
        <ele>1979</ele>
        <time>2026-06-15T13:24:55.000Z</time>
        <extensions>
          <ns3:TrackPointExtension>
            <ns3:atemp>24.0</ns3:atemp>
          </ns3:TrackPointExtension>
        </extensions>
      </trkpt>
      <trkpt lat="42.5706238858401775360107421875" lon="20.03403277136385440826416015625">
        <ele>1979</ele>
        <time>2026-06-15T13:24:56.000Z</time>
        <extensions>
          <ns3:TrackPointExtension>
            <ns3:atemp>25.0</ns3:atemp>
          </ns3:TrackPointExtension>
        </extensions>
      </trkpt>
      <trkpt lat="42.5706238858401775360107421875" lon="20.03403277136385440826416015625">
        <ele>1979</ele>
        <time>2026-06-15T13:24:57.000Z</time>
        <extensions>
          <ns3:TrackPointExtension>
            <ns3:atemp>25.0</ns3:atemp>
          </ns3:TrackPointExtension>
        </extensions>
      </trkpt>
      <trkpt lat="42.5706238858401775360107421875" lon="20.03403277136385440826416015625">
        <ele>1979</ele>
        <time>2026-06-15T13:24:58.000Z</time>
        <extensions>
          <ns3:TrackPointExtension>
            <ns3:atemp>25.0</ns3:atemp>
          </ns3:TrackPointExtension>
        </extensions>
      </trkpt>
      <trkpt lat="42.5706238858401775360107421875" lon="20.03403277136385440826416015625">
        <ele>1979</ele>
        <time>2026-06-15T13:24:59.000Z</time>
        <extensions>
          <ns3:TrackPointExtension>
            <ns3:atemp>25.0</ns3:atemp>
          </ns3:TrackPointExtension>
        </extensions>
      </trkpt>
      <trkpt lat="42.5706238858401775360107421875" lon="20.03403277136385440826416015625">
        <ele>1979</ele>
        <time>2026-06-15T13:25:00.000Z</time>
        <extensions>
          <ns3:TrackPointExtension>
            <ns3:atemp>25.0</ns3:atemp>
          </ns3:TrackPointExtension>
        </extensions>
      </trkpt>
      <trkpt lat="42.5706238858401775360107421875" lon="20.03403277136385440826416015625">
        <ele>1979</ele>
        <time>2026-06-15T13:25:01.000Z</time>
        <extensions>
          <ns3:TrackPointExtension>
            <ns3:atemp>25.0</ns3:atemp>
          </ns3:TrackPointExtension>
        </extensions>
      </trkpt>
      <trkpt lat="42.5706238858401775360107421875" lon="20.03403277136385440826416015625">
        <ele>1979</ele>
        <time>2026-06-15T13:25:02.000Z</time>
        <extensions>
          <ns3:TrackPointExtension>
            <ns3:atemp>25.0</ns3:atemp>
          </ns3:TrackPointExtension>
        </extensions>
      </trkpt>
      <trkpt lat="42.5706238858401775360107421875" lon="20.03403277136385440826416015625">
        <ele>1979</ele>
        <time>2026-06-15T13:25:03.000Z</time>
        <extensions>
          <ns3:TrackPointExtension>
            <ns3:atemp>25.0</ns3:atemp>
          </ns3:TrackPointExtension>
        </extensions>
      </trkpt>
      <trkpt lat="42.5706238858401775360107421875" lon="20.03403277136385440826416015625">
        <ele>1979</ele>
        <time>2026-06-15T13:25:04.000Z</time>
        <extensions>
          <ns3:TrackPointExtension>
            <ns3:atemp>25.0</ns3:atemp>
          </ns3:TrackPointExtension>
        </extensions>
      </trkpt>
      <trkpt lat="42.5706238858401775360107421875" lon="20.03403277136385440826416015625">
        <ele>1979</ele>
        <time>2026-06-15T13:25:05.000Z</time>
        <extensions>
          <ns3:TrackPointExtension>
            <ns3:atemp>25.0</ns3:atemp>
          </ns3:TrackPointExtension>
        </extensions>
      </trkpt>
      <trkpt lat="42.5706238858401775360107421875" lon="20.03403277136385440826416015625">
        <ele>1979</ele>
        <time>2026-06-15T13:25:06.000Z</time>
        <extensions>
          <ns3:TrackPointExtension>
            <ns3:atemp>25.0</ns3:atemp>
          </ns3:TrackPointExtension>
        </extensions>
      </trkpt>
      <trkpt lat="42.5706238858401775360107421875" lon="20.03403277136385440826416015625">
        <ele>1979</ele>
        <time>2026-06-15T13:25:07.000Z</time>
        <extensions>
          <ns3:TrackPointExtension>
            <ns3:atemp>25.0</ns3:atemp>
          </ns3:TrackPointExtension>
        </extensions>
      </trkpt>
      <trkpt lat="42.5706238858401775360107421875" lon="20.03403277136385440826416015625">
        <ele>1979</ele>
        <time>2026-06-15T13:25:08.000Z</time>
        <extensions>
          <ns3:TrackPointExtension>
            <ns3:atemp>25.0</ns3:atemp>
          </ns3:TrackPointExtension>
        </extensions>
      </trkpt>
      <trkpt lat="42.5706238858401775360107421875" lon="20.03403277136385440826416015625">
        <ele>1979</ele>
        <time>2026-06-15T13:25:09.000Z</time>
        <extensions>
          <ns3:TrackPointExtension>
            <ns3:atemp>25.0</ns3:atemp>
          </ns3:TrackPointExtension>
        </extensions>
      </trkpt>
      <trkpt lat="42.5706238858401775360107421875" lon="20.03403277136385440826416015625">
        <ele>1979</ele>
        <time>2026-06-15T13:25:10.000Z</time>
        <extensions>
          <ns3:TrackPointExtension>
            <ns3:atemp>25.0</ns3:atemp>
          </ns3:TrackPointExtension>
        </extensions>
      </trkpt>
      <trkpt lat="42.5706238858401775360107421875" lon="20.03403277136385440826416015625">
        <ele>1979</ele>
        <time>2026-06-15T13:25:11.000Z</time>
        <extensions>
          <ns3:TrackPointExtension>
            <ns3:atemp>25.0</ns3:atemp>
          </ns3:TrackPointExtension>
        </extensions>
      </trkpt>
      <trkpt lat="42.5706238858401775360107421875" lon="20.03403277136385440826416015625">
        <ele>1979</ele>
        <time>2026-06-15T13:25:12.000Z</time>
        <extensions>
          <ns3:TrackPointExtension>
            <ns3:atemp>25.0</ns3:atemp>
          </ns3:TrackPointExtension>
        </extensions>
      </trkpt>
      <trkpt lat="42.5706238858401775360107421875" lon="20.03403277136385440826416015625">
        <ele>1979</ele>
        <time>2026-06-15T13:25:13.000Z</time>
        <extensions>
          <ns3:TrackPointExtension>
            <ns3:atemp>25.0</ns3:atemp>
          </ns3:TrackPointExtension>
        </extensions>
      </trkpt>
      <trkpt lat="42.5706238858401775360107421875" lon="20.03403277136385440826416015625">
        <ele>1979</ele>
        <time>2026-06-15T13:25:14.000Z</time>
        <extensions>
          <ns3:TrackPointExtension>
            <ns3:atemp>25.0</ns3:atemp>
          </ns3:TrackPointExtension>
        </extensions>
      </trkpt>
      <trkpt lat="42.5706238858401775360107421875" lon="20.03403277136385440826416015625">
        <ele>1979</ele>
        <time>2026-06-15T13:25:15.000Z</time>
        <extensions>
          <ns3:TrackPointExtension>
            <ns3:atemp>25.0</ns3:atemp>
          </ns3:TrackPointExtension>
        </extensions>
      </trkpt>
      <trkpt lat="42.5706238858401775360107421875" lon="20.03403277136385440826416015625">
        <ele>1979</ele>
        <time>2026-06-15T13:25:16.000Z</time>
        <extensions>
          <ns3:TrackPointExtension>
            <ns3:atemp>25.0</ns3:atemp>
          </ns3:TrackPointExtension>
        </extensions>
      </trkpt>
      <trkpt lat="42.5706238858401775360107421875" lon="20.03403277136385440826416015625">
        <ele>1979</ele>
        <time>2026-06-15T13:25:17.000Z</time>
        <extensions>
          <ns3:TrackPointExtension>
            <ns3:atemp>25.0</ns3:atemp>
          </ns3:TrackPointExtension>
        </extensions>
      </trkpt>
      <trkpt lat="42.5706238858401775360107421875" lon="20.03403277136385440826416015625">
        <ele>1979</ele>
        <time>2026-06-15T13:25:18.000Z</time>
        <extensions>
          <ns3:TrackPointExtension>
            <ns3:atemp>25.0</ns3:atemp>
          </ns3:TrackPointExtension>
        </extensions>
      </trkpt>
      <trkpt lat="42.5706238858401775360107421875" lon="20.03403277136385440826416015625">
        <ele>1979</ele>
        <time>2026-06-15T13:25:19.000Z</time>
        <extensions>
          <ns3:TrackPointExtension>
            <ns3:atemp>25.0</ns3:atemp>
          </ns3:TrackPointExtension>
        </extensions>
      </trkpt>
      <trkpt lat="42.5706238858401775360107421875" lon="20.03403277136385440826416015625">
        <ele>1979</ele>
        <time>2026-06-15T13:25:20.000Z</time>
        <extensions>
          <ns3:TrackPointExtension>
            <ns3:atemp>25.0</ns3:atemp>
          </ns3:TrackPointExtension>
        </extensions>
      </trkpt>
      <trkpt lat="42.5706238858401775360107421875" lon="20.03403277136385440826416015625">
        <ele>1979</ele>
        <time>2026-06-15T13:25:21.000Z</time>
        <extensions>
          <ns3:TrackPointExtension>
            <ns3:atemp>25.0</ns3:atemp>
          </ns3:TrackPointExtension>
        </extensions>
      </trkpt>
      <trkpt lat="42.5706238858401775360107421875" lon="20.03403277136385440826416015625">
        <ele>1979</ele>
        <time>2026-06-15T13:25:22.000Z</time>
        <extensions>
          <ns3:TrackPointExtension>
            <ns3:atemp>25.0</ns3:atemp>
          </ns3:TrackPointExtension>
        </extensions>
      </trkpt>
      <trkpt lat="42.5706238858401775360107421875" lon="20.03403277136385440826416015625">
        <ele>1979</ele>
        <time>2026-06-15T13:25:23.000Z</time>
        <extensions>
          <ns3:TrackPointExtension>
            <ns3:atemp>25.0</ns3:atemp>
          </ns3:TrackPointExtension>
        </extensions>
      </trkpt>
      <trkpt lat="42.5706238858401775360107421875" lon="20.03403277136385440826416015625">
        <ele>1979</ele>
        <time>2026-06-15T13:25:24.000Z</time>
        <extensions>
          <ns3:TrackPointExtension>
            <ns3:atemp>25.0</ns3:atemp>
          </ns3:TrackPointExtension>
        </extensions>
      </trkpt>
      <trkpt lat="42.5706238858401775360107421875" lon="20.03403277136385440826416015625">
        <ele>1979</ele>
        <time>2026-06-15T13:25:25.000Z</time>
        <extensions>
          <ns3:TrackPointExtension>
            <ns3:atemp>25.0</ns3:atemp>
          </ns3:TrackPointExtension>
        </extensions>
      </trkpt>
      <trkpt lat="42.5706238858401775360107421875" lon="20.03403277136385440826416015625">
        <ele>1979</ele>
        <time>2026-06-15T13:25:26.000Z</time>
        <extensions>
          <ns3:TrackPointExtension>
            <ns3:atemp>25.0</ns3:atemp>
          </ns3:TrackPointExtension>
        </extensions>
      </trkpt>
      <trkpt lat="42.5706238858401775360107421875" lon="20.03403277136385440826416015625">
        <ele>1979</ele>
        <time>2026-06-15T13:25:27.000Z</time>
        <extensions>
          <ns3:TrackPointExtension>
            <ns3:atemp>25.0</ns3:atemp>
          </ns3:TrackPointExtension>
        </extensions>
      </trkpt>
      <trkpt lat="42.5706238858401775360107421875" lon="20.03403277136385440826416015625">
        <ele>1979</ele>
        <time>2026-06-15T13:25:28.000Z</time>
        <extensions>
          <ns3:TrackPointExtension>
            <ns3:atemp>25.0</ns3:atemp>
          </ns3:TrackPointExtension>
        </extensions>
      </trkpt>
      <trkpt lat="42.57062162272632122039794921875" lon="20.0340268202126026153564453125">
        <ele>1979</ele>
        <time>2026-06-15T13:25:29.000Z</time>
        <extensions>
          <ns3:TrackPointExtension>
            <ns3:atemp>25.0</ns3:atemp>
          </ns3:TrackPointExtension>
        </extensions>
      </trkpt>
      <trkpt lat="42.57060527801513671875" lon="20.0340150855481624603271484375">
        <ele>1979</ele>
        <time>2026-06-15T13:25:30.000Z</time>
        <extensions>
          <ns3:TrackPointExtension>
            <ns3:atemp>25.0</ns3:atemp>
          </ns3:TrackPointExtension>
        </extensions>
      </trkpt>
      <trkpt lat="42.5706020928919315338134765625" lon="20.0340063683688640594482421875">
        <ele>1979</ele>
        <time>2026-06-15T13:25:31.000Z</time>
        <extensions>
          <ns3:TrackPointExtension>
            <ns3:atemp>25.0</ns3:atemp>
          </ns3:TrackPointExtension>
        </extensions>
      </trkpt>
      <trkpt lat="42.57060200907289981842041015625" lon="20.03400594927370548248291015625">
        <ele>1979</ele>
        <time>2026-06-15T13:25:32.000Z</time>
        <extensions>
          <ns3:TrackPointExtension>
            <ns3:atemp>25.0</ns3:atemp>
          </ns3:TrackPointExtension>
        </extensions>
      </trkpt>
      <trkpt lat="42.5705958902835845947265625" lon="20.03399111330509185791015625">
        <ele>1979</ele>
        <time>2026-06-15T13:25:33.000Z</time>
        <extensions>
          <ns3:TrackPointExtension>
            <ns3:atemp>25.0</ns3:atemp>
          </ns3:TrackPointExtension>
        </extensions>
      </trkpt>
      <trkpt lat="42.570593543350696563720703125" lon="20.033976696431636810302734375">
        <ele>1979</ele>
        <time>2026-06-15T13:25:34.000Z</time>
        <extensions>
          <ns3:TrackPointExtension>
            <ns3:atemp>25.0</ns3:atemp>
          </ns3:TrackPointExtension>
        </extensions>
      </trkpt>
      <trkpt lat="42.5705878436565399169921875" lon="20.03396504558622837066650390625">
        <ele>1979</ele>
        <time>2026-06-15T13:25:35.000Z</time>
        <extensions>
          <ns3:TrackPointExtension>
            <ns3:atemp>25.0</ns3:atemp>
          </ns3:TrackPointExtension>
        </extensions>
      </trkpt>
      <trkpt lat="42.57058742456138134002685546875" lon="20.0339493714272975921630859375">
        <ele>1979</ele>
        <time>2026-06-15T13:25:36.000Z</time>
        <extensions>
          <ns3:TrackPointExtension>
            <ns3:atemp>25.0</ns3:atemp>
          </ns3:TrackPointExtension>
        </extensions>
      </trkpt>
      <trkpt lat="42.570583485066890716552734375" lon="20.0339430011808872222900390625">
        <ele>1979</ele>
        <time>2026-06-15T13:25:37.000Z</time>
        <extensions>
          <ns3:TrackPointExtension>
            <ns3:atemp>25.0</ns3:atemp>
          </ns3:TrackPointExtension>
        </extensions>
      </trkpt>
      <trkpt lat="42.570581138134002685546875" lon="20.03393537364900112152099609375">
        <ele>1979</ele>
        <time>2026-06-15T13:25:38.000Z</time>
        <extensions>
          <ns3:TrackPointExtension>
            <ns3:atemp>25.0</ns3:atemp>
          </ns3:TrackPointExtension>
        </extensions>
      </trkpt>
      <trkpt lat="42.570580132305622100830078125" lon="20.03392213024199008941650390625">
        <ele>1980.5999755859375</ele>
        <time>2026-06-15T13:25:39.000Z</time>
        <extensions>
          <ns3:TrackPointExtension>
            <ns3:atemp>25.0</ns3:atemp>
          </ns3:TrackPointExtension>
        </extensions>
      </trkpt>
      <trkpt lat="42.57057535462081432342529296875" lon="20.03391223959624767303466796875">
        <ele>1981.199951171875</ele>
        <time>2026-06-15T13:25:40.000Z</time>
        <extensions>
          <ns3:TrackPointExtension>
            <ns3:atemp>25.0</ns3:atemp>
          </ns3:TrackPointExtension>
        </extensions>
      </trkpt>
      <trkpt lat="42.57057300768792629241943359375" lon="20.03390167839825153350830078125">
        <ele>1981.5999755859375</ele>
        <time>2026-06-15T13:25:41.000Z</time>
        <extensions>
          <ns3:TrackPointExtension>
            <ns3:atemp>25.0</ns3:atemp>
          </ns3:TrackPointExtension>
        </extensions>
      </trkpt>
      <trkpt lat="42.57057300768792629241943359375" lon="20.03390167839825153350830078125">
        <ele>1981.800048828125</ele>
        <time>2026-06-15T13:25:42.000Z</time>
        <extensions>
          <ns3:TrackPointExtension>
            <ns3:atemp>25.0</ns3:atemp>
          </ns3:TrackPointExtension>
        </extensions>
      </trkpt>
      <trkpt lat="42.57057300768792629241943359375" lon="20.03390167839825153350830078125">
        <ele>1982.199951171875</ele>
        <time>2026-06-15T13:25:43.000Z</time>
        <extensions>
          <ns3:TrackPointExtension>
            <ns3:atemp>25.0</ns3:atemp>
          </ns3:TrackPointExtension>
        </extensions>
      </trkpt>
      <trkpt lat="42.57057300768792629241943359375" lon="20.03390167839825153350830078125">
        <ele>1982.199951171875</ele>
        <time>2026-06-15T13:25:44.000Z</time>
        <extensions>
          <ns3:TrackPointExtension>
            <ns3:atemp>25.0</ns3:atemp>
          </ns3:TrackPointExtension>
        </extensions>
      </trkpt>
      <trkpt lat="42.57057284004986286163330078125" lon="20.03390000201761722564697265625">
        <ele>1982.199951171875</ele>
        <time>2026-06-15T13:25:45.000Z</time>
        <extensions>
          <ns3:TrackPointExtension>
            <ns3:atemp>25.0</ns3:atemp>
          </ns3:TrackPointExtension>
        </extensions>
      </trkpt>
      <trkpt lat="42.5705678947269916534423828125" lon="20.0338735990226268768310546875">
        <ele>1981.800048828125</ele>
        <time>2026-06-15T13:25:46.000Z</time>
        <extensions>
          <ns3:TrackPointExtension>
            <ns3:atemp>25.0</ns3:atemp>
          </ns3:TrackPointExtension>
        </extensions>
      </trkpt>
      <trkpt lat="42.5705692358314990997314453125" lon="20.033858008682727813720703125">
        <ele>1981.5999755859375</ele>
        <time>2026-06-15T13:25:47.000Z</time>
        <extensions>
          <ns3:TrackPointExtension>
            <ns3:atemp>25.0</ns3:atemp>
          </ns3:TrackPointExtension>
        </extensions>
      </trkpt>
      <trkpt lat="42.5705678947269916534423828125" lon="20.03384585492312908172607421875">
        <ele>1981.4000244140625</ele>
        <time>2026-06-15T13:25:48.000Z</time>
        <extensions>
          <ns3:TrackPointExtension>
            <ns3:atemp>25.0</ns3:atemp>
          </ns3:TrackPointExtension>
        </extensions>
      </trkpt>
      <trkpt lat="42.57056848146021366119384765625" lon="20.03383110277354717254638671875">
        <ele>1981</ele>
        <time>2026-06-15T13:25:49.000Z</time>
        <extensions>
          <ns3:TrackPointExtension>
            <ns3:atemp>25.0</ns3:atemp>
          </ns3:TrackPointExtension>
        </extensions>
      </trkpt>
      <trkpt lat="42.57056864909827709197998046875" lon="20.03383160568773746490478515625">
        <ele>1980.4000244140625</ele>
        <time>2026-06-15T13:25:50.000Z</time>
        <extensions>
          <ns3:TrackPointExtension>
            <ns3:atemp>25.0</ns3:atemp>
          </ns3:TrackPointExtension>
        </extensions>
      </trkpt>
      <trkpt lat="42.57057284004986286163330078125" lon="20.03382858820259571075439453125">
        <ele>1980.199951171875</ele>
        <time>2026-06-15T13:25:51.000Z</time>
        <extensions>
          <ns3:TrackPointExtension>
            <ns3:atemp>25.0</ns3:atemp>
          </ns3:TrackPointExtension>
        </extensions>
      </trkpt>
      <trkpt lat="42.5705849938094615936279296875" lon="20.03381769172847270965576171875">
        <ele>1979.800048828125</ele>
        <time>2026-06-15T13:25:52.000Z</time>
        <extensions>
          <ns3:TrackPointExtension>
            <ns3:atemp>25.0</ns3:atemp>
          </ns3:TrackPointExtension>
        </extensions>
      </trkpt>
      <trkpt lat="42.57058993913233280181884765625" lon="20.033815093338489532470703125">
        <ele>1979.5999755859375</ele>
        <time>2026-06-15T13:25:53.000Z</time>
        <extensions>
          <ns3:TrackPointExtension>
            <ns3:atemp>25.0</ns3:atemp>
          </ns3:TrackPointExtension>
        </extensions>
      </trkpt>
      <trkpt lat="42.57059144787490367889404296875" lon="20.03382121212780475616455078125">
        <ele>1979.5999755859375</ele>
        <time>2026-06-15T13:25:54.000Z</time>
        <extensions>
          <ns3:TrackPointExtension>
            <ns3:atemp>25.0</ns3:atemp>
          </ns3:TrackPointExtension>
        </extensions>
      </trkpt>
      <trkpt lat="42.57059144787490367889404296875" lon="20.03382121212780475616455078125">
        <ele>1979.5999755859375</ele>
        <time>2026-06-15T13:25:55.000Z</time>
        <extensions>
          <ns3:TrackPointExtension>
            <ns3:atemp>25.0</ns3:atemp>
          </ns3:TrackPointExtension>
        </extensions>
      </trkpt>
      <trkpt lat="42.57059144787490367889404296875" lon="20.03382121212780475616455078125">
        <ele>1980</ele>
        <time>2026-06-15T13:25:56.000Z</time>
        <extensions>
          <ns3:TrackPointExtension>
            <ns3:atemp>25.0</ns3:atemp>
          </ns3:TrackPointExtension>
        </extensions>
      </trkpt>
      <trkpt lat="42.57059144787490367889404296875" lon="20.03382121212780475616455078125">
        <ele>1980.4000244140625</ele>
        <time>2026-06-15T13:25:57.000Z</time>
        <extensions>
          <ns3:TrackPointExtension>
            <ns3:atemp>25.0</ns3:atemp>
          </ns3:TrackPointExtension>
        </extensions>
      </trkpt>
      <trkpt lat="42.57059144787490367889404296875" lon="20.03382121212780475616455078125">
        <ele>1980.5999755859375</ele>
        <time>2026-06-15T13:25:58.000Z</time>
        <extensions>
          <ns3:TrackPointExtension>
            <ns3:atemp>25.0</ns3:atemp>
          </ns3:TrackPointExtension>
        </extensions>
      </trkpt>
      <trkpt lat="42.57059144787490367889404296875" lon="20.03382121212780475616455078125">
        <ele>1980.800048828125</ele>
        <time>2026-06-15T13:25:59.000Z</time>
        <extensions>
          <ns3:TrackPointExtension>
            <ns3:atemp>25.0</ns3:atemp>
          </ns3:TrackPointExtension>
        </extensions>
      </trkpt>
      <trkpt lat="42.57059144787490367889404296875" lon="20.03382121212780475616455078125">
        <ele>1981</ele>
        <time>2026-06-15T13:26:00.000Z</time>
        <extensions>
          <ns3:TrackPointExtension>
            <ns3:atemp>25.0</ns3:atemp>
          </ns3:TrackPointExtension>
        </extensions>
      </trkpt>
      <trkpt lat="42.57059144787490367889404296875" lon="20.03382121212780475616455078125">
        <ele>1981</ele>
        <time>2026-06-15T13:26:01.000Z</time>
        <extensions>
          <ns3:TrackPointExtension>
            <ns3:atemp>25.0</ns3:atemp>
          </ns3:TrackPointExtension>
        </extensions>
      </trkpt>
      <trkpt lat="42.57059144787490367889404296875" lon="20.03382121212780475616455078125">
        <ele>1980.800048828125</ele>
        <time>2026-06-15T13:26:02.000Z</time>
        <extensions>
          <ns3:TrackPointExtension>
            <ns3:atemp>25.0</ns3:atemp>
          </ns3:TrackPointExtension>
        </extensions>
      </trkpt>
      <trkpt lat="42.570593543350696563720703125" lon="20.03382372669875621795654296875">
        <ele>1980.5999755859375</ele>
        <time>2026-06-15T13:26:03.000Z</time>
        <extensions>
          <ns3:TrackPointExtension>
            <ns3:atemp>25.0</ns3:atemp>
          </ns3:TrackPointExtension>
        </extensions>
      </trkpt>
      <trkpt lat="42.570602931082248687744140625" lon="20.03383914940059185028076171875">
        <ele>1980.199951171875</ele>
        <time>2026-06-15T13:26:04.000Z</time>
        <extensions>
          <ns3:TrackPointExtension>
            <ns3:atemp>25.0</ns3:atemp>
          </ns3:TrackPointExtension>
        </extensions>
      </trkpt>
      <trkpt lat="42.5706074573099613189697265625" lon="20.0338434241712093353271484375">
        <ele>1979.5999755859375</ele>
        <time>2026-06-15T13:26:05.000Z</time>
        <extensions>
          <ns3:TrackPointExtension>
            <ns3:atemp>25.0</ns3:atemp>
          </ns3:TrackPointExtension>
        </extensions>
      </trkpt>
      <trkpt lat="42.57060770876705646514892578125" lon="20.03384359180927276611328125">
        <ele>1979.199951171875</ele>
        <time>2026-06-15T13:26:06.000Z</time>
        <extensions>
          <ns3:TrackPointExtension>
            <ns3:atemp>25.0</ns3:atemp>
          </ns3:TrackPointExtension>
        </extensions>
      </trkpt>
      <trkpt lat="42.57060770876705646514892578125" lon="20.03384359180927276611328125">
        <ele>1979</ele>
        <time>2026-06-15T13:26:07.000Z</time>
        <extensions>
          <ns3:TrackPointExtension>
            <ns3:atemp>25.0</ns3:atemp>
          </ns3:TrackPointExtension>
        </extensions>
      </trkpt>
      <trkpt lat="42.57060770876705646514892578125" lon="20.03384359180927276611328125">
        <ele>1979</ele>
        <time>2026-06-15T13:26:08.000Z</time>
        <extensions>
          <ns3:TrackPointExtension>
            <ns3:atemp>25.0</ns3:atemp>
          </ns3:TrackPointExtension>
        </extensions>
      </trkpt>
      <trkpt lat="42.57060770876705646514892578125" lon="20.03384359180927276611328125">
        <ele>1978.800048828125</ele>
        <time>2026-06-15T13:26:09.000Z</time>
        <extensions>
          <ns3:TrackPointExtension>
            <ns3:atemp>24.0</ns3:atemp>
          </ns3:TrackPointExtension>
        </extensions>
      </trkpt>
      <trkpt lat="42.57060770876705646514892578125" lon="20.03384359180927276611328125">
        <ele>1978.800048828125</ele>
        <time>2026-06-15T13:26:10.000Z</time>
        <extensions>
          <ns3:TrackPointExtension>
            <ns3:atemp>24.0</ns3:atemp>
          </ns3:TrackPointExtension>
        </extensions>
      </trkpt>
      <trkpt lat="42.57060770876705646514892578125" lon="20.03384359180927276611328125">
        <ele>1978.800048828125</ele>
        <time>2026-06-15T13:26:11.000Z</time>
        <extensions>
          <ns3:TrackPointExtension>
            <ns3:atemp>25.0</ns3:atemp>
          </ns3:TrackPointExtension>
        </extensions>
      </trkpt>
      <trkpt lat="42.57060770876705646514892578125" lon="20.03384359180927276611328125">
        <ele>1979</ele>
        <time>2026-06-15T13:26:12.000Z</time>
        <extensions>
          <ns3:TrackPointExtension>
            <ns3:atemp>25.0</ns3:atemp>
          </ns3:TrackPointExtension>
        </extensions>
      </trkpt>
      <trkpt lat="42.57060770876705646514892578125" lon="20.03384359180927276611328125">
        <ele>1979.199951171875</ele>
        <time>2026-06-15T13:26:13.000Z</time>
        <extensions>
          <ns3:TrackPointExtension>
            <ns3:atemp>25.0</ns3:atemp>
          </ns3:TrackPointExtension>
        </extensions>
      </trkpt>
      <trkpt lat="42.57060770876705646514892578125" lon="20.03384359180927276611328125">
        <ele>1979.5999755859375</ele>
        <time>2026-06-15T13:26:14.000Z</time>
        <extensions>
          <ns3:TrackPointExtension>
            <ns3:atemp>25.0</ns3:atemp>
          </ns3:TrackPointExtension>
        </extensions>
      </trkpt>
      <trkpt lat="42.57060770876705646514892578125" lon="20.03384359180927276611328125">
        <ele>1979.800048828125</ele>
        <time>2026-06-15T13:26:15.000Z</time>
        <extensions>
          <ns3:TrackPointExtension>
            <ns3:atemp>25.0</ns3:atemp>
          </ns3:TrackPointExtension>
        </extensions>
      </trkpt>
      <trkpt lat="42.57060770876705646514892578125" lon="20.03384359180927276611328125">
        <ele>1980</ele>
        <time>2026-06-15T13:26:16.000Z</time>
        <extensions>
          <ns3:TrackPointExtension>
            <ns3:atemp>25.0</ns3:atemp>
          </ns3:TrackPointExtension>
        </extensions>
      </trkpt>
      <trkpt lat="42.57060770876705646514892578125" lon="20.03384359180927276611328125">
        <ele>1979.800048828125</ele>
        <time>2026-06-15T13:26:17.000Z</time>
        <extensions>
          <ns3:TrackPointExtension>
            <ns3:atemp>25.0</ns3:atemp>
          </ns3:TrackPointExtension>
        </extensions>
      </trkpt>
      <trkpt lat="42.57060770876705646514892578125" lon="20.03384359180927276611328125">
        <ele>1979.5999755859375</ele>
        <time>2026-06-15T13:26:18.000Z</time>
        <extensions>
          <ns3:TrackPointExtension>
            <ns3:atemp>25.0</ns3:atemp>
          </ns3:TrackPointExtension>
        </extensions>
      </trkpt>
      <trkpt lat="42.57060770876705646514892578125" lon="20.03384359180927276611328125">
        <ele>1979.4000244140625</ele>
        <time>2026-06-15T13:26:19.000Z</time>
        <extensions>
          <ns3:TrackPointExtension>
            <ns3:atemp>25.0</ns3:atemp>
          </ns3:TrackPointExtension>
        </extensions>
      </trkpt>
      <trkpt lat="42.57060770876705646514892578125" lon="20.03384359180927276611328125">
        <ele>1979.199951171875</ele>
        <time>2026-06-15T13:26:20.000Z</time>
        <extensions>
          <ns3:TrackPointExtension>
            <ns3:atemp>25.0</ns3:atemp>
          </ns3:TrackPointExtension>
        </extensions>
      </trkpt>
      <trkpt lat="42.57060770876705646514892578125" lon="20.03384359180927276611328125">
        <ele>1979.199951171875</ele>
        <time>2026-06-15T13:26:21.000Z</time>
        <extensions>
          <ns3:TrackPointExtension>
            <ns3:atemp>25.0</ns3:atemp>
          </ns3:TrackPointExtension>
        </extensions>
      </trkpt>
      <trkpt lat="42.57060770876705646514892578125" lon="20.03384359180927276611328125">
        <ele>1979</ele>
        <time>2026-06-15T13:26:22.000Z</time>
        <extensions>
          <ns3:TrackPointExtension>
            <ns3:atemp>25.0</ns3:atemp>
          </ns3:TrackPointExtension>
        </extensions>
      </trkpt>
      <trkpt lat="42.57060770876705646514892578125" lon="20.03384359180927276611328125">
        <ele>1979</ele>
        <time>2026-06-15T13:26:23.000Z</time>
        <extensions>
          <ns3:TrackPointExtension>
            <ns3:atemp>25.0</ns3:atemp>
          </ns3:TrackPointExtension>
        </extensions>
      </trkpt>
      <trkpt lat="42.57060770876705646514892578125" lon="20.03384359180927276611328125">
        <ele>1978.800048828125</ele>
        <time>2026-06-15T13:26:24.000Z</time>
        <extensions>
          <ns3:TrackPointExtension>
            <ns3:atemp>25.0</ns3:atemp>
          </ns3:TrackPointExtension>
        </extensions>
      </trkpt>
      <trkpt lat="42.57060770876705646514892578125" lon="20.03384359180927276611328125">
        <ele>1978.800048828125</ele>
        <time>2026-06-15T13:26:25.000Z</time>
        <extensions>
          <ns3:TrackPointExtension>
            <ns3:atemp>24.0</ns3:atemp>
          </ns3:TrackPointExtension>
        </extensions>
      </trkpt>
      <trkpt lat="42.57060770876705646514892578125" lon="20.03384359180927276611328125">
        <ele>1979</ele>
        <time>2026-06-15T13:26:26.000Z</time>
        <extensions>
          <ns3:TrackPointExtension>
            <ns3:atemp>24.0</ns3:atemp>
          </ns3:TrackPointExtension>
        </extensions>
      </trkpt>
      <trkpt lat="42.57060770876705646514892578125" lon="20.03384359180927276611328125">
        <ele>1979</ele>
        <time>2026-06-15T13:26:27.000Z</time>
        <extensions>
          <ns3:TrackPointExtension>
            <ns3:atemp>25.0</ns3:atemp>
          </ns3:TrackPointExtension>
        </extensions>
      </trkpt>
      <trkpt lat="42.57060770876705646514892578125" lon="20.03384359180927276611328125">
        <ele>1979</ele>
        <time>2026-06-15T13:26:28.000Z</time>
        <extensions>
          <ns3:TrackPointExtension>
            <ns3:atemp>24.0</ns3:atemp>
          </ns3:TrackPointExtension>
        </extensions>
      </trkpt>
      <trkpt lat="42.57060770876705646514892578125" lon="20.03384359180927276611328125">
        <ele>1979.199951171875</ele>
        <time>2026-06-15T13:26:29.000Z</time>
        <extensions>
          <ns3:TrackPointExtension>
            <ns3:atemp>24.0</ns3:atemp>
          </ns3:TrackPointExtension>
        </extensions>
      </trkpt>
      <trkpt lat="42.57060770876705646514892578125" lon="20.03384359180927276611328125">
        <ele>1979.199951171875</ele>
        <time>2026-06-15T13:26:30.000Z</time>
        <extensions>
          <ns3:TrackPointExtension>
            <ns3:atemp>24.0</ns3:atemp>
          </ns3:TrackPointExtension>
        </extensions>
      </trkpt>
      <trkpt lat="42.57060770876705646514892578125" lon="20.03384359180927276611328125">
        <ele>1979.199951171875</ele>
        <time>2026-06-15T13:26:31.000Z</time>
        <extensions>
          <ns3:TrackPointExtension>
            <ns3:atemp>24.0</ns3:atemp>
          </ns3:TrackPointExtension>
        </extensions>
      </trkpt>
      <trkpt lat="42.57060770876705646514892578125" lon="20.03384359180927276611328125">
        <ele>1979</ele>
        <time>2026-06-15T13:26:32.000Z</time>
        <extensions>
          <ns3:TrackPointExtension>
            <ns3:atemp>24.0</ns3:atemp>
          </ns3:TrackPointExtension>
        </extensions>
      </trkpt>
      <trkpt lat="42.57060770876705646514892578125" lon="20.03384359180927276611328125">
        <ele>1979</ele>
        <time>2026-06-15T13:26:33.000Z</time>
        <extensions>
          <ns3:TrackPointExtension>
            <ns3:atemp>24.0</ns3:atemp>
          </ns3:TrackPointExtension>
        </extensions>
      </trkpt>
      <trkpt lat="42.57060770876705646514892578125" lon="20.03384359180927276611328125">
        <ele>1979</ele>
        <time>2026-06-15T13:26:34.000Z</time>
        <extensions>
          <ns3:TrackPointExtension>
            <ns3:atemp>24.0</ns3:atemp>
          </ns3:TrackPointExtension>
        </extensions>
      </trkpt>
      <trkpt lat="42.57060770876705646514892578125" lon="20.03384359180927276611328125">
        <ele>1979</ele>
        <time>2026-06-15T13:26:35.000Z</time>
        <extensions>
          <ns3:TrackPointExtension>
            <ns3:atemp>24.0</ns3:atemp>
          </ns3:TrackPointExtension>
        </extensions>
      </trkpt>
      <trkpt lat="42.57060770876705646514892578125" lon="20.03384359180927276611328125">
        <ele>1979</ele>
        <time>2026-06-15T13:26:36.000Z</time>
        <extensions>
          <ns3:TrackPointExtension>
            <ns3:atemp>24.0</ns3:atemp>
          </ns3:TrackPointExtension>
        </extensions>
      </trkpt>
      <trkpt lat="42.57060770876705646514892578125" lon="20.03384359180927276611328125">
        <ele>1979</ele>
        <time>2026-06-15T13:26:37.000Z</time>
        <extensions>
          <ns3:TrackPointExtension>
            <ns3:atemp>24.0</ns3:atemp>
          </ns3:TrackPointExtension>
        </extensions>
      </trkpt>
      <trkpt lat="42.57060770876705646514892578125" lon="20.03384359180927276611328125">
        <ele>1979</ele>
        <time>2026-06-15T13:26:38.000Z</time>
        <extensions>
          <ns3:TrackPointExtension>
            <ns3:atemp>24.0</ns3:atemp>
          </ns3:TrackPointExtension>
        </extensions>
      </trkpt>
      <trkpt lat="42.57060770876705646514892578125" lon="20.03384359180927276611328125">
        <ele>1978.800048828125</ele>
        <time>2026-06-15T13:26:39.000Z</time>
        <extensions>
          <ns3:TrackPointExtension>
            <ns3:atemp>24.0</ns3:atemp>
          </ns3:TrackPointExtension>
        </extensions>
      </trkpt>
      <trkpt lat="42.57060770876705646514892578125" lon="20.03384359180927276611328125">
        <ele>1978.800048828125</ele>
        <time>2026-06-15T13:26:40.000Z</time>
        <extensions>
          <ns3:TrackPointExtension>
            <ns3:atemp>24.0</ns3:atemp>
          </ns3:TrackPointExtension>
        </extensions>
      </trkpt>
      <trkpt lat="42.57060770876705646514892578125" lon="20.03384359180927276611328125">
        <ele>1978.800048828125</ele>
        <time>2026-06-15T13:26:41.000Z</time>
        <extensions>
          <ns3:TrackPointExtension>
            <ns3:atemp>24.0</ns3:atemp>
          </ns3:TrackPointExtension>
        </extensions>
      </trkpt>
      <trkpt lat="42.57060770876705646514892578125" lon="20.03384359180927276611328125">
        <ele>1978.800048828125</ele>
        <time>2026-06-15T13:26:42.000Z</time>
        <extensions>
          <ns3:TrackPointExtension>
            <ns3:atemp>24.0</ns3:atemp>
          </ns3:TrackPointExtension>
        </extensions>
      </trkpt>
      <trkpt lat="42.57060770876705646514892578125" lon="20.03384359180927276611328125">
        <ele>1978.800048828125</ele>
        <time>2026-06-15T13:26:43.000Z</time>
        <extensions>
          <ns3:TrackPointExtension>
            <ns3:atemp>24.0</ns3:atemp>
          </ns3:TrackPointExtension>
        </extensions>
      </trkpt>
      <trkpt lat="42.57060770876705646514892578125" lon="20.03384359180927276611328125">
        <ele>1979</ele>
        <time>2026-06-15T13:26:44.000Z</time>
        <extensions>
          <ns3:TrackPointExtension>
            <ns3:atemp>24.0</ns3:atemp>
          </ns3:TrackPointExtension>
        </extensions>
      </trkpt>
      <trkpt lat="42.57060770876705646514892578125" lon="20.03384359180927276611328125">
        <ele>1978.800048828125</ele>
        <time>2026-06-15T13:26:45.000Z</time>
        <extensions>
          <ns3:TrackPointExtension>
            <ns3:atemp>24.0</ns3:atemp>
          </ns3:TrackPointExtension>
        </extensions>
      </trkpt>
      <trkpt lat="42.57060770876705646514892578125" lon="20.03384359180927276611328125">
        <ele>1978.800048828125</ele>
        <time>2026-06-15T13:26:46.000Z</time>
        <extensions>
          <ns3:TrackPointExtension>
            <ns3:atemp>24.0</ns3:atemp>
          </ns3:TrackPointExtension>
        </extensions>
      </trkpt>
      <trkpt lat="42.57060770876705646514892578125" lon="20.03384359180927276611328125">
        <ele>1978.800048828125</ele>
        <time>2026-06-15T13:26:47.000Z</time>
        <extensions>
          <ns3:TrackPointExtension>
            <ns3:atemp>24.0</ns3:atemp>
          </ns3:TrackPointExtension>
        </extensions>
      </trkpt>
      <trkpt lat="42.57060770876705646514892578125" lon="20.03384359180927276611328125">
        <ele>1978.800048828125</ele>
        <time>2026-06-15T13:26:48.000Z</time>
        <extensions>
          <ns3:TrackPointExtension>
            <ns3:atemp>24.0</ns3:atemp>
          </ns3:TrackPointExtension>
        </extensions>
      </trkpt>
      <trkpt lat="42.57060770876705646514892578125" lon="20.03384359180927276611328125">
        <ele>1979</ele>
        <time>2026-06-15T13:26:49.000Z</time>
        <extensions>
          <ns3:TrackPointExtension>
            <ns3:atemp>24.0</ns3:atemp>
          </ns3:TrackPointExtension>
        </extensions>
      </trkpt>
      <trkpt lat="42.57060770876705646514892578125" lon="20.03384359180927276611328125">
        <ele>1979</ele>
        <time>2026-06-15T13:26:50.000Z</time>
        <extensions>
          <ns3:TrackPointExtension>
            <ns3:atemp>24.0</ns3:atemp>
          </ns3:TrackPointExtension>
        </extensions>
      </trkpt>
      <trkpt lat="42.57060770876705646514892578125" lon="20.03384359180927276611328125">
        <ele>1979</ele>
        <time>2026-06-15T13:26:51.000Z</time>
        <extensions>
          <ns3:TrackPointExtension>
            <ns3:atemp>24.0</ns3:atemp>
          </ns3:TrackPointExtension>
        </extensions>
      </trkpt>
      <trkpt lat="42.57060770876705646514892578125" lon="20.03384359180927276611328125">
        <ele>1979</ele>
        <time>2026-06-15T13:26:52.000Z</time>
        <extensions>
          <ns3:TrackPointExtension>
            <ns3:atemp>24.0</ns3:atemp>
          </ns3:TrackPointExtension>
        </extensions>
      </trkpt>
      <trkpt lat="42.57060770876705646514892578125" lon="20.03384359180927276611328125">
        <ele>1978.800048828125</ele>
        <time>2026-06-15T13:26:53.000Z</time>
        <extensions>
          <ns3:TrackPointExtension>
            <ns3:atemp>24.0</ns3:atemp>
          </ns3:TrackPointExtension>
        </extensions>
      </trkpt>
      <trkpt lat="42.57060770876705646514892578125" lon="20.03384359180927276611328125">
        <ele>1978.800048828125</ele>
        <time>2026-06-15T13:26:54.000Z</time>
        <extensions>
          <ns3:TrackPointExtension>
            <ns3:atemp>24.0</ns3:atemp>
          </ns3:TrackPointExtension>
        </extensions>
      </trkpt>
      <trkpt lat="42.57060770876705646514892578125" lon="20.03384359180927276611328125">
        <ele>1978.800048828125</ele>
        <time>2026-06-15T13:26:55.000Z</time>
        <extensions>
          <ns3:TrackPointExtension>
            <ns3:atemp>24.0</ns3:atemp>
          </ns3:TrackPointExtension>
        </extensions>
      </trkpt>
      <trkpt lat="42.57060770876705646514892578125" lon="20.03384359180927276611328125">
        <ele>1979</ele>
        <time>2026-06-15T13:26:56.000Z</time>
        <extensions>
          <ns3:TrackPointExtension>
            <ns3:atemp>24.0</ns3:atemp>
          </ns3:TrackPointExtension>
        </extensions>
      </trkpt>
      <trkpt lat="42.57060770876705646514892578125" lon="20.03384359180927276611328125">
        <ele>1979</ele>
        <time>2026-06-15T13:26:57.000Z</time>
        <extensions>
          <ns3:TrackPointExtension>
            <ns3:atemp>24.0</ns3:atemp>
          </ns3:TrackPointExtension>
        </extensions>
      </trkpt>
      <trkpt lat="42.57060770876705646514892578125" lon="20.03384359180927276611328125">
        <ele>1979</ele>
        <time>2026-06-15T13:26:58.000Z</time>
        <extensions>
          <ns3:TrackPointExtension>
            <ns3:atemp>24.0</ns3:atemp>
          </ns3:TrackPointExtension>
        </extensions>
      </trkpt>
      <trkpt lat="42.57060770876705646514892578125" lon="20.03384359180927276611328125">
        <ele>1979.199951171875</ele>
        <time>2026-06-15T13:26:59.000Z</time>
        <extensions>
          <ns3:TrackPointExtension>
            <ns3:atemp>24.0</ns3:atemp>
          </ns3:TrackPointExtension>
        </extensions>
      </trkpt>
      <trkpt lat="42.57060770876705646514892578125" lon="20.03384359180927276611328125">
        <ele>1979</ele>
        <time>2026-06-15T13:27:00.000Z</time>
        <extensions>
          <ns3:TrackPointExtension>
            <ns3:atemp>24.0</ns3:atemp>
          </ns3:TrackPointExtension>
        </extensions>
      </trkpt>
      <trkpt lat="42.57060770876705646514892578125" lon="20.03384359180927276611328125">
        <ele>1979</ele>
        <time>2026-06-15T13:27:01.000Z</time>
        <extensions>
          <ns3:TrackPointExtension>
            <ns3:atemp>24.0</ns3:atemp>
          </ns3:TrackPointExtension>
        </extensions>
      </trkpt>
      <trkpt lat="42.57060770876705646514892578125" lon="20.03384359180927276611328125">
        <ele>1979</ele>
        <time>2026-06-15T13:27:02.000Z</time>
        <extensions>
          <ns3:TrackPointExtension>
            <ns3:atemp>24.0</ns3:atemp>
          </ns3:TrackPointExtension>
        </extensions>
      </trkpt>
      <trkpt lat="42.57060770876705646514892578125" lon="20.03384359180927276611328125">
        <ele>1979.199951171875</ele>
        <time>2026-06-15T13:27:03.000Z</time>
        <extensions>
          <ns3:TrackPointExtension>
            <ns3:atemp>24.0</ns3:atemp>
          </ns3:TrackPointExtension>
        </extensions>
      </trkpt>
      <trkpt lat="42.57060770876705646514892578125" lon="20.03384359180927276611328125">
        <ele>1979.199951171875</ele>
        <time>2026-06-15T13:27:04.000Z</time>
        <extensions>
          <ns3:TrackPointExtension>
            <ns3:atemp>25.0</ns3:atemp>
          </ns3:TrackPointExtension>
        </extensions>
      </trkpt>
      <trkpt lat="42.57060770876705646514892578125" lon="20.03384359180927276611328125">
        <ele>1979.4000244140625</ele>
        <time>2026-06-15T13:27:05.000Z</time>
        <extensions>
          <ns3:TrackPointExtension>
            <ns3:atemp>25.0</ns3:atemp>
          </ns3:TrackPointExtension>
        </extensions>
      </trkpt>
      <trkpt lat="42.57060770876705646514892578125" lon="20.03384359180927276611328125">
        <ele>1979.4000244140625</ele>
        <time>2026-06-15T13:27:06.000Z</time>
        <extensions>
          <ns3:TrackPointExtension>
            <ns3:atemp>25.0</ns3:atemp>
          </ns3:TrackPointExtension>
        </extensions>
      </trkpt>
      <trkpt lat="42.57060770876705646514892578125" lon="20.03384359180927276611328125">
        <ele>1979.4000244140625</ele>
        <time>2026-06-15T13:27:07.000Z</time>
        <extensions>
          <ns3:TrackPointExtension>
            <ns3:atemp>24.0</ns3:atemp>
          </ns3:TrackPointExtension>
        </extensions>
      </trkpt>
      <trkpt lat="42.57060770876705646514892578125" lon="20.03384359180927276611328125">
        <ele>1979.4000244140625</ele>
        <time>2026-06-15T13:27:08.000Z</time>
        <extensions>
          <ns3:TrackPointExtension>
            <ns3:atemp>24.0</ns3:atemp>
          </ns3:TrackPointExtension>
        </extensions>
      </trkpt>
      <trkpt lat="42.57060770876705646514892578125" lon="20.03384359180927276611328125">
        <ele>1979.4000244140625</ele>
        <time>2026-06-15T13:27:09.000Z</time>
        <extensions>
          <ns3:TrackPointExtension>
            <ns3:atemp>24.0</ns3:atemp>
          </ns3:TrackPointExtension>
        </extensions>
      </trkpt>
      <trkpt lat="42.57060770876705646514892578125" lon="20.03384359180927276611328125">
        <ele>1979.199951171875</ele>
        <time>2026-06-15T13:27:10.000Z</time>
        <extensions>
          <ns3:TrackPointExtension>
            <ns3:atemp>24.0</ns3:atemp>
          </ns3:TrackPointExtension>
        </extensions>
      </trkpt>
      <trkpt lat="42.57060770876705646514892578125" lon="20.03384359180927276611328125">
        <ele>1979.199951171875</ele>
        <time>2026-06-15T13:27:11.000Z</time>
        <extensions>
          <ns3:TrackPointExtension>
            <ns3:atemp>24.0</ns3:atemp>
          </ns3:TrackPointExtension>
        </extensions>
      </trkpt>
      <trkpt lat="42.57060770876705646514892578125" lon="20.03384359180927276611328125">
        <ele>1979.199951171875</ele>
        <time>2026-06-15T13:27:12.000Z</time>
        <extensions>
          <ns3:TrackPointExtension>
            <ns3:atemp>24.0</ns3:atemp>
          </ns3:TrackPointExtension>
        </extensions>
      </trkpt>
      <trkpt lat="42.57060770876705646514892578125" lon="20.03384359180927276611328125">
        <ele>1979.199951171875</ele>
        <time>2026-06-15T13:27:13.000Z</time>
        <extensions>
          <ns3:TrackPointExtension>
            <ns3:atemp>24.0</ns3:atemp>
          </ns3:TrackPointExtension>
        </extensions>
      </trkpt>
      <trkpt lat="42.57060770876705646514892578125" lon="20.03384359180927276611328125">
        <ele>1979.199951171875</ele>
        <time>2026-06-15T13:27:14.000Z</time>
        <extensions>
          <ns3:TrackPointExtension>
            <ns3:atemp>25.0</ns3:atemp>
          </ns3:TrackPointExtension>
        </extensions>
      </trkpt>
      <trkpt lat="42.57060770876705646514892578125" lon="20.03384359180927276611328125">
        <ele>1979.4000244140625</ele>
        <time>2026-06-15T13:27:15.000Z</time>
        <extensions>
          <ns3:TrackPointExtension>
            <ns3:atemp>24.0</ns3:atemp>
          </ns3:TrackPointExtension>
        </extensions>
      </trkpt>
      <trkpt lat="42.57060770876705646514892578125" lon="20.03384359180927276611328125">
        <ele>1979.199951171875</ele>
        <time>2026-06-15T13:27:16.000Z</time>
        <extensions>
          <ns3:TrackPointExtension>
            <ns3:atemp>24.0</ns3:atemp>
          </ns3:TrackPointExtension>
        </extensions>
      </trkpt>
      <trkpt lat="42.57060770876705646514892578125" lon="20.03384359180927276611328125">
        <ele>1979</ele>
        <time>2026-06-15T13:27:17.000Z</time>
        <extensions>
          <ns3:TrackPointExtension>
            <ns3:atemp>24.0</ns3:atemp>
          </ns3:TrackPointExtension>
        </extensions>
      </trkpt>
      <trkpt lat="42.57060770876705646514892578125" lon="20.03384359180927276611328125">
        <ele>1979</ele>
        <time>2026-06-15T13:27:18.000Z</time>
        <extensions>
          <ns3:TrackPointExtension>
            <ns3:atemp>25.0</ns3:atemp>
          </ns3:TrackPointExtension>
        </extensions>
      </trkpt>
      <trkpt lat="42.57060770876705646514892578125" lon="20.03384359180927276611328125">
        <ele>1979</ele>
        <time>2026-06-15T13:27:19.000Z</time>
        <extensions>
          <ns3:TrackPointExtension>
            <ns3:atemp>25.0</ns3:atemp>
          </ns3:TrackPointExtension>
        </extensions>
      </trkpt>
      <trkpt lat="42.57060770876705646514892578125" lon="20.03384359180927276611328125">
        <ele>1979.199951171875</ele>
        <time>2026-06-15T13:27:20.000Z</time>
        <extensions>
          <ns3:TrackPointExtension>
            <ns3:atemp>25.0</ns3:atemp>
          </ns3:TrackPointExtension>
        </extensions>
      </trkpt>
      <trkpt lat="42.57060770876705646514892578125" lon="20.03384359180927276611328125">
        <ele>1979.199951171875</ele>
        <time>2026-06-15T13:27:21.000Z</time>
        <extensions>
          <ns3:TrackPointExtension>
            <ns3:atemp>24.0</ns3:atemp>
          </ns3:TrackPointExtension>
        </extensions>
      </trkpt>
      <trkpt lat="42.57060770876705646514892578125" lon="20.03384359180927276611328125">
        <ele>1979.4000244140625</ele>
        <time>2026-06-15T13:27:22.000Z</time>
        <extensions>
          <ns3:TrackPointExtension>
            <ns3:atemp>24.0</ns3:atemp>
          </ns3:TrackPointExtension>
        </extensions>
      </trkpt>
      <trkpt lat="42.57060770876705646514892578125" lon="20.03384359180927276611328125">
        <ele>1979.5999755859375</ele>
        <time>2026-06-15T13:27:23.000Z</time>
        <extensions>
          <ns3:TrackPointExtension>
            <ns3:atemp>24.0</ns3:atemp>
          </ns3:TrackPointExtension>
        </extensions>
      </trkpt>
      <trkpt lat="42.57060770876705646514892578125" lon="20.03384359180927276611328125">
        <ele>1979.5999755859375</ele>
        <time>2026-06-15T13:27:24.000Z</time>
        <extensions>
          <ns3:TrackPointExtension>
            <ns3:atemp>24.0</ns3:atemp>
          </ns3:TrackPointExtension>
        </extensions>
      </trkpt>
      <trkpt lat="42.57060770876705646514892578125" lon="20.03384359180927276611328125">
        <ele>1979.4000244140625</ele>
        <time>2026-06-15T13:27:25.000Z</time>
        <extensions>
          <ns3:TrackPointExtension>
            <ns3:atemp>24.0</ns3:atemp>
          </ns3:TrackPointExtension>
        </extensions>
      </trkpt>
      <trkpt lat="42.57060770876705646514892578125" lon="20.03384359180927276611328125">
        <ele>1979.199951171875</ele>
        <time>2026-06-15T13:27:26.000Z</time>
        <extensions>
          <ns3:TrackPointExtension>
            <ns3:atemp>24.0</ns3:atemp>
          </ns3:TrackPointExtension>
        </extensions>
      </trkpt>
      <trkpt lat="42.57060770876705646514892578125" lon="20.03384359180927276611328125">
        <ele>1979.199951171875</ele>
        <time>2026-06-15T13:27:27.000Z</time>
        <extensions>
          <ns3:TrackPointExtension>
            <ns3:atemp>24.0</ns3:atemp>
          </ns3:TrackPointExtension>
        </extensions>
      </trkpt>
      <trkpt lat="42.5706047751009464263916015625" lon="20.0338350422680377960205078125">
        <ele>1978.800048828125</ele>
        <time>2026-06-15T13:27:28.000Z</time>
        <extensions>
          <ns3:TrackPointExtension>
            <ns3:atemp>24.0</ns3:atemp>
          </ns3:TrackPointExtension>
        </extensions>
      </trkpt>
      <trkpt lat="42.57059848867356777191162109375" lon="20.03382909111678600311279296875">
        <ele>1978.800048828125</ele>
        <time>2026-06-15T13:27:29.000Z</time>
        <extensions>
          <ns3:TrackPointExtension>
            <ns3:atemp>24.0</ns3:atemp>
          </ns3:TrackPointExtension>
        </extensions>
      </trkpt>
      <trkpt lat="42.57058977149426937103271484375" lon="20.03382422961294651031494140625">
        <ele>1979</ele>
        <time>2026-06-15T13:27:30.000Z</time>
        <extensions>
          <ns3:TrackPointExtension>
            <ns3:atemp>24.0</ns3:atemp>
          </ns3:TrackPointExtension>
        </extensions>
      </trkpt>
      <trkpt lat="42.5705813057720661163330078125" lon="20.03382238559424877166748046875">
        <ele>1979</ele>
        <time>2026-06-15T13:27:31.000Z</time>
        <extensions>
          <ns3:TrackPointExtension>
            <ns3:atemp>24.0</ns3:atemp>
          </ns3:TrackPointExtension>
        </extensions>
      </trkpt>
      <trkpt lat="42.57058122195303440093994140625" lon="20.0338223017752170562744140625">
        <ele>1979.199951171875</ele>
        <time>2026-06-15T13:27:32.000Z</time>
        <extensions>
          <ns3:TrackPointExtension>
            <ns3:atemp>24.0</ns3:atemp>
          </ns3:TrackPointExtension>
        </extensions>
      </trkpt>
      <trkpt lat="42.57058122195303440093994140625" lon="20.0338223017752170562744140625">
        <ele>1979.5999755859375</ele>
        <time>2026-06-15T13:27:33.000Z</time>
        <extensions>
          <ns3:TrackPointExtension>
            <ns3:atemp>24.0</ns3:atemp>
          </ns3:TrackPointExtension>
        </extensions>
      </trkpt>
      <trkpt lat="42.57058122195303440093994140625" lon="20.0338223017752170562744140625">
        <ele>1979.800048828125</ele>
        <time>2026-06-15T13:27:34.000Z</time>
        <extensions>
          <ns3:TrackPointExtension>
            <ns3:atemp>24.0</ns3:atemp>
          </ns3:TrackPointExtension>
        </extensions>
      </trkpt>
      <trkpt lat="42.57058071903884410858154296875" lon="20.03382205031812191009521484375">
        <ele>1980</ele>
        <time>2026-06-15T13:27:35.000Z</time>
        <extensions>
          <ns3:TrackPointExtension>
            <ns3:atemp>24.0</ns3:atemp>
          </ns3:TrackPointExtension>
        </extensions>
      </trkpt>
      <trkpt lat="42.5705744326114654541015625" lon="20.0338256545364856719970703125">
        <ele>1980.199951171875</ele>
        <time>2026-06-15T13:27:36.000Z</time>
        <extensions>
          <ns3:TrackPointExtension>
            <ns3:atemp>24.0</ns3:atemp>
          </ns3:TrackPointExtension>
        </extensions>
      </trkpt>
      <trkpt lat="42.57057015784084796905517578125" lon="20.03383328206837177276611328125">
        <ele>1980.4000244140625</ele>
        <time>2026-06-15T13:27:37.000Z</time>
        <extensions>
          <ns3:TrackPointExtension>
            <ns3:atemp>24.0</ns3:atemp>
          </ns3:TrackPointExtension>
        </extensions>
      </trkpt>
      <trkpt lat="42.5705702416598796844482421875" lon="20.03383831121027469635009765625">
        <ele>1980.5999755859375</ele>
        <time>2026-06-15T13:27:38.000Z</time>
        <extensions>
          <ns3:TrackPointExtension>
            <ns3:atemp>24.0</ns3:atemp>
          </ns3:TrackPointExtension>
        </extensions>
      </trkpt>
      <trkpt lat="42.57057133130729198455810546875" lon="20.0338373892009258270263671875">
        <ele>1980.5999755859375</ele>
        <time>2026-06-15T13:27:39.000Z</time>
        <extensions>
          <ns3:TrackPointExtension>
            <ns3:atemp>24.0</ns3:atemp>
          </ns3:TrackPointExtension>
        </extensions>
      </trkpt>
      <trkpt lat="42.57057133130729198455810546875" lon="20.0338373892009258270263671875">
        <ele>1980.5999755859375</ele>
        <time>2026-06-15T13:27:40.000Z</time>
        <extensions>
          <ns3:TrackPointExtension>
            <ns3:atemp>24.0</ns3:atemp>
          </ns3:TrackPointExtension>
        </extensions>
      </trkpt>
      <trkpt lat="42.57057133130729198455810546875" lon="20.0338373892009258270263671875">
        <ele>1980.5999755859375</ele>
        <time>2026-06-15T13:27:41.000Z</time>
        <extensions>
          <ns3:TrackPointExtension>
            <ns3:atemp>24.0</ns3:atemp>
          </ns3:TrackPointExtension>
        </extensions>
      </trkpt>
      <trkpt lat="42.57057133130729198455810546875" lon="20.0338373892009258270263671875">
        <ele>1980.4000244140625</ele>
        <time>2026-06-15T13:27:42.000Z</time>
        <extensions>
          <ns3:TrackPointExtension>
            <ns3:atemp>24.0</ns3:atemp>
          </ns3:TrackPointExtension>
        </extensions>
      </trkpt>
      <trkpt lat="42.57057133130729198455810546875" lon="20.0338373892009258270263671875">
        <ele>1980.199951171875</ele>
        <time>2026-06-15T13:27:43.000Z</time>
        <extensions>
          <ns3:TrackPointExtension>
            <ns3:atemp>24.0</ns3:atemp>
          </ns3:TrackPointExtension>
        </extensions>
      </trkpt>
      <trkpt lat="42.57057133130729198455810546875" lon="20.0338373892009258270263671875">
        <ele>1980</ele>
        <time>2026-06-15T13:27:44.000Z</time>
        <extensions>
          <ns3:TrackPointExtension>
            <ns3:atemp>24.0</ns3:atemp>
          </ns3:TrackPointExtension>
        </extensions>
      </trkpt>
      <trkpt lat="42.57057133130729198455810546875" lon="20.0338373892009258270263671875">
        <ele>1979.800048828125</ele>
        <time>2026-06-15T13:27:45.000Z</time>
        <extensions>
          <ns3:TrackPointExtension>
            <ns3:atemp>24.0</ns3:atemp>
          </ns3:TrackPointExtension>
        </extensions>
      </trkpt>
      <trkpt lat="42.57057133130729198455810546875" lon="20.0338373892009258270263671875">
        <ele>1979.5999755859375</ele>
        <time>2026-06-15T13:27:46.000Z</time>
        <extensions>
          <ns3:TrackPointExtension>
            <ns3:atemp>24.0</ns3:atemp>
          </ns3:TrackPointExtension>
        </extensions>
      </trkpt>
      <trkpt lat="42.57057133130729198455810546875" lon="20.0338373892009258270263671875">
        <ele>1979.4000244140625</ele>
        <time>2026-06-15T13:27:47.000Z</time>
        <extensions>
          <ns3:TrackPointExtension>
            <ns3:atemp>24.0</ns3:atemp>
          </ns3:TrackPointExtension>
        </extensions>
      </trkpt>
      <trkpt lat="42.57057133130729198455810546875" lon="20.0338373892009258270263671875">
        <ele>1979.4000244140625</ele>
        <time>2026-06-15T13:27:48.000Z</time>
        <extensions>
          <ns3:TrackPointExtension>
            <ns3:atemp>24.0</ns3:atemp>
          </ns3:TrackPointExtension>
        </extensions>
      </trkpt>
      <trkpt lat="42.57057133130729198455810546875" lon="20.0338373892009258270263671875">
        <ele>1979.4000244140625</ele>
        <time>2026-06-15T13:27:49.000Z</time>
        <extensions>
          <ns3:TrackPointExtension>
            <ns3:atemp>24.0</ns3:atemp>
          </ns3:TrackPointExtension>
        </extensions>
      </trkpt>
      <trkpt lat="42.57057133130729198455810546875" lon="20.0338373892009258270263671875">
        <ele>1979.4000244140625</ele>
        <time>2026-06-15T13:27:50.000Z</time>
        <extensions>
          <ns3:TrackPointExtension>
            <ns3:atemp>24.0</ns3:atemp>
          </ns3:TrackPointExtension>
        </extensions>
      </trkpt>
      <trkpt lat="42.570578120648860931396484375" lon="20.03383562900125980377197265625">
        <ele>1979.4000244140625</ele>
        <time>2026-06-15T13:27:51.000Z</time>
        <extensions>
          <ns3:TrackPointExtension>
            <ns3:atemp>24.0</ns3:atemp>
          </ns3:TrackPointExtension>
        </extensions>
      </trkpt>
      <trkpt lat="42.570581473410129547119140625" lon="20.03382305614650249481201171875">
        <ele>1979.4000244140625</ele>
        <time>2026-06-15T13:27:52.000Z</time>
        <extensions>
          <ns3:TrackPointExtension>
            <ns3:atemp>24.0</ns3:atemp>
          </ns3:TrackPointExtension>
        </extensions>
      </trkpt>
      <trkpt lat="42.57058558054268360137939453125" lon="20.03381014801561832427978515625">
        <ele>1979.4000244140625</ele>
        <time>2026-06-15T13:27:53.000Z</time>
        <extensions>
          <ns3:TrackPointExtension>
            <ns3:atemp>24.0</ns3:atemp>
          </ns3:TrackPointExtension>
        </extensions>
      </trkpt>
      <trkpt lat="42.57058893330395221710205078125" lon="20.03379723988473415374755859375">
        <ele>1979.4000244140625</ele>
        <time>2026-06-15T13:27:54.000Z</time>
        <extensions>
          <ns3:TrackPointExtension>
            <ns3:atemp>24.0</ns3:atemp>
          </ns3:TrackPointExtension>
        </extensions>
      </trkpt>
      <trkpt lat="42.5705932080745697021484375" lon="20.03379858098924160003662109375">
        <ele>1979.800048828125</ele>
        <time>2026-06-15T13:27:55.000Z</time>
        <extensions>
          <ns3:TrackPointExtension>
            <ns3:atemp>24.0</ns3:atemp>
          </ns3:TrackPointExtension>
        </extensions>
      </trkpt>
      <trkpt lat="42.5705984048545360565185546875" lon="20.03380025736987590789794921875">
        <ele>1980</ele>
        <time>2026-06-15T13:27:56.000Z</time>
        <extensions>
          <ns3:TrackPointExtension>
            <ns3:atemp>24.0</ns3:atemp>
          </ns3:TrackPointExtension>
        </extensions>
      </trkpt>
      <trkpt lat="42.5705990754067897796630859375" lon="20.03378785215318202972412109375">
        <ele>1980.4000244140625</ele>
        <time>2026-06-15T13:27:57.000Z</time>
        <extensions>
          <ns3:TrackPointExtension>
            <ns3:atemp>24.0</ns3:atemp>
          </ns3:TrackPointExtension>
        </extensions>
      </trkpt>
      <trkpt lat="42.5705997459590435028076171875" lon="20.033786259591579437255859375">
        <ele>1980.5999755859375</ele>
        <time>2026-06-15T13:27:58.000Z</time>
        <extensions>
          <ns3:TrackPointExtension>
            <ns3:atemp>24.0</ns3:atemp>
          </ns3:TrackPointExtension>
        </extensions>
      </trkpt>
      <trkpt lat="42.57059991359710693359375" lon="20.0337864272296428680419921875">
        <ele>1981.199951171875</ele>
        <time>2026-06-15T13:27:59.000Z</time>
        <extensions>
          <ns3:TrackPointExtension>
            <ns3:atemp>24.0</ns3:atemp>
          </ns3:TrackPointExtension>
        </extensions>
      </trkpt>
      <trkpt lat="42.57059991359710693359375" lon="20.0337864272296428680419921875">
        <ele>1981.5999755859375</ele>
        <time>2026-06-15T13:28:00.000Z</time>
        <extensions>
          <ns3:TrackPointExtension>
            <ns3:atemp>24.0</ns3:atemp>
          </ns3:TrackPointExtension>
        </extensions>
      </trkpt>
      <trkpt lat="42.57059991359710693359375" lon="20.0337864272296428680419921875">
        <ele>1981.5999755859375</ele>
        <time>2026-06-15T13:28:01.000Z</time>
        <extensions>
          <ns3:TrackPointExtension>
            <ns3:atemp>24.0</ns3:atemp>
          </ns3:TrackPointExtension>
        </extensions>
      </trkpt>
      <trkpt lat="42.57059991359710693359375" lon="20.0337864272296428680419921875">
        <ele>1981.5999755859375</ele>
        <time>2026-06-15T13:28:02.000Z</time>
        <extensions>
          <ns3:TrackPointExtension>
            <ns3:atemp>24.0</ns3:atemp>
          </ns3:TrackPointExtension>
        </extensions>
      </trkpt>
      <trkpt lat="42.57059991359710693359375" lon="20.0337864272296428680419921875">
        <ele>1981.5999755859375</ele>
        <time>2026-06-15T13:28:03.000Z</time>
        <extensions>
          <ns3:TrackPointExtension>
            <ns3:atemp>24.0</ns3:atemp>
          </ns3:TrackPointExtension>
        </extensions>
      </trkpt>
      <trkpt lat="42.57059991359710693359375" lon="20.0337864272296428680419921875">
        <ele>1981.4000244140625</ele>
        <time>2026-06-15T13:28:04.000Z</time>
        <extensions>
          <ns3:TrackPointExtension>
            <ns3:atemp>24.0</ns3:atemp>
          </ns3:TrackPointExtension>
        </extensions>
      </trkpt>
      <trkpt lat="42.57059991359710693359375" lon="20.0337864272296428680419921875">
        <ele>1981</ele>
        <time>2026-06-15T13:28:05.000Z</time>
        <extensions>
          <ns3:TrackPointExtension>
            <ns3:atemp>24.0</ns3:atemp>
          </ns3:TrackPointExtension>
        </extensions>
      </trkpt>
      <trkpt lat="42.57059991359710693359375" lon="20.0337864272296428680419921875">
        <ele>1980.5999755859375</ele>
        <time>2026-06-15T13:28:06.000Z</time>
        <extensions>
          <ns3:TrackPointExtension>
            <ns3:atemp>24.0</ns3:atemp>
          </ns3:TrackPointExtension>
        </extensions>
      </trkpt>
      <trkpt lat="42.57059991359710693359375" lon="20.0337864272296428680419921875">
        <ele>1980.4000244140625</ele>
        <time>2026-06-15T13:28:07.000Z</time>
        <extensions>
          <ns3:TrackPointExtension>
            <ns3:atemp>24.0</ns3:atemp>
          </ns3:TrackPointExtension>
        </extensions>
      </trkpt>
      <trkpt lat="42.57059991359710693359375" lon="20.0337864272296428680419921875">
        <ele>1980.199951171875</ele>
        <time>2026-06-15T13:28:08.000Z</time>
        <extensions>
          <ns3:TrackPointExtension>
            <ns3:atemp>24.0</ns3:atemp>
          </ns3:TrackPointExtension>
        </extensions>
      </trkpt>
      <trkpt lat="42.57059991359710693359375" lon="20.0337864272296428680419921875">
        <ele>1980</ele>
        <time>2026-06-15T13:28:09.000Z</time>
        <extensions>
          <ns3:TrackPointExtension>
            <ns3:atemp>24.0</ns3:atemp>
          </ns3:TrackPointExtension>
        </extensions>
      </trkpt>
      <trkpt lat="42.57059991359710693359375" lon="20.0337864272296428680419921875">
        <ele>1980</ele>
        <time>2026-06-15T13:28:10.000Z</time>
        <extensions>
          <ns3:TrackPointExtension>
            <ns3:atemp>24.0</ns3:atemp>
          </ns3:TrackPointExtension>
        </extensions>
      </trkpt>
      <trkpt lat="42.57059991359710693359375" lon="20.0337864272296428680419921875">
        <ele>1979.800048828125</ele>
        <time>2026-06-15T13:28:11.000Z</time>
        <extensions>
          <ns3:TrackPointExtension>
            <ns3:atemp>24.0</ns3:atemp>
          </ns3:TrackPointExtension>
        </extensions>
      </trkpt>
      <trkpt lat="42.57059991359710693359375" lon="20.0337864272296428680419921875">
        <ele>1979.800048828125</ele>
        <time>2026-06-15T13:28:12.000Z</time>
        <extensions>
          <ns3:TrackPointExtension>
            <ns3:atemp>24.0</ns3:atemp>
          </ns3:TrackPointExtension>
        </extensions>
      </trkpt>
      <trkpt lat="42.57059991359710693359375" lon="20.0337864272296428680419921875">
        <ele>1979.5999755859375</ele>
        <time>2026-06-15T13:28:13.000Z</time>
        <extensions>
          <ns3:TrackPointExtension>
            <ns3:atemp>24.0</ns3:atemp>
          </ns3:TrackPointExtension>
        </extensions>
      </trkpt>
      <trkpt lat="42.57059991359710693359375" lon="20.0337864272296428680419921875">
        <ele>1979.5999755859375</ele>
        <time>2026-06-15T13:28:14.000Z</time>
        <extensions>
          <ns3:TrackPointExtension>
            <ns3:atemp>24.0</ns3:atemp>
          </ns3:TrackPointExtension>
        </extensions>
      </trkpt>
      <trkpt lat="42.57059991359710693359375" lon="20.0337864272296428680419921875">
        <ele>1979.800048828125</ele>
        <time>2026-06-15T13:28:15.000Z</time>
        <extensions>
          <ns3:TrackPointExtension>
            <ns3:atemp>24.0</ns3:atemp>
          </ns3:TrackPointExtension>
        </extensions>
      </trkpt>
      <trkpt lat="42.57059991359710693359375" lon="20.0337864272296428680419921875">
        <ele>1979.800048828125</ele>
        <time>2026-06-15T13:28:16.000Z</time>
        <extensions>
          <ns3:TrackPointExtension>
            <ns3:atemp>24.0</ns3:atemp>
          </ns3:TrackPointExtension>
        </extensions>
      </trkpt>
      <trkpt lat="42.57059991359710693359375" lon="20.0337864272296428680419921875">
        <ele>1980</ele>
        <time>2026-06-15T13:28:17.000Z</time>
        <extensions>
          <ns3:TrackPointExtension>
            <ns3:atemp>24.0</ns3:atemp>
          </ns3:TrackPointExtension>
        </extensions>
      </trkpt>
      <trkpt lat="42.57059991359710693359375" lon="20.0337864272296428680419921875">
        <ele>1980.199951171875</ele>
        <time>2026-06-15T13:28:18.000Z</time>
        <extensions>
          <ns3:TrackPointExtension>
            <ns3:atemp>24.0</ns3:atemp>
          </ns3:TrackPointExtension>
        </extensions>
      </trkpt>
      <trkpt lat="42.57059991359710693359375" lon="20.0337864272296428680419921875">
        <ele>1980.199951171875</ele>
        <time>2026-06-15T13:28:19.000Z</time>
        <extensions>
          <ns3:TrackPointExtension>
            <ns3:atemp>24.0</ns3:atemp>
          </ns3:TrackPointExtension>
        </extensions>
      </trkpt>
      <trkpt lat="42.57059991359710693359375" lon="20.0337864272296428680419921875">
        <ele>1980.199951171875</ele>
        <time>2026-06-15T13:28:20.000Z</time>
        <extensions>
          <ns3:TrackPointExtension>
            <ns3:atemp>24.0</ns3:atemp>
          </ns3:TrackPointExtension>
        </extensions>
      </trkpt>
      <trkpt lat="42.57059991359710693359375" lon="20.0337864272296428680419921875">
        <ele>1980.199951171875</ele>
        <time>2026-06-15T13:28:21.000Z</time>
        <extensions>
          <ns3:TrackPointExtension>
            <ns3:atemp>24.0</ns3:atemp>
          </ns3:TrackPointExtension>
        </extensions>
      </trkpt>
      <trkpt lat="42.57059991359710693359375" lon="20.0337864272296428680419921875">
        <ele>1980.199951171875</ele>
        <time>2026-06-15T13:28:22.000Z</time>
        <extensions>
          <ns3:TrackPointExtension>
            <ns3:atemp>24.0</ns3:atemp>
          </ns3:TrackPointExtension>
        </extensions>
      </trkpt>
      <trkpt lat="42.57059991359710693359375" lon="20.0337864272296428680419921875">
        <ele>1980.199951171875</ele>
        <time>2026-06-15T13:28:23.000Z</time>
        <extensions>
          <ns3:TrackPointExtension>
            <ns3:atemp>24.0</ns3:atemp>
          </ns3:TrackPointExtension>
        </extensions>
      </trkpt>
      <trkpt lat="42.57059991359710693359375" lon="20.0337864272296428680419921875">
        <ele>1980.199951171875</ele>
        <time>2026-06-15T13:28:24.000Z</time>
        <extensions>
          <ns3:TrackPointExtension>
            <ns3:atemp>24.0</ns3:atemp>
          </ns3:TrackPointExtension>
        </extensions>
      </trkpt>
      <trkpt lat="42.57059991359710693359375" lon="20.0337864272296428680419921875">
        <ele>1980.199951171875</ele>
        <time>2026-06-15T13:28:25.000Z</time>
        <extensions>
          <ns3:TrackPointExtension>
            <ns3:atemp>24.0</ns3:atemp>
          </ns3:TrackPointExtension>
        </extensions>
      </trkpt>
      <trkpt lat="42.57059991359710693359375" lon="20.0337864272296428680419921875">
        <ele>1980.199951171875</ele>
        <time>2026-06-15T13:28:26.000Z</time>
        <extensions>
          <ns3:TrackPointExtension>
            <ns3:atemp>24.0</ns3:atemp>
          </ns3:TrackPointExtension>
        </extensions>
      </trkpt>
      <trkpt lat="42.57059991359710693359375" lon="20.0337864272296428680419921875">
        <ele>1980</ele>
        <time>2026-06-15T13:28:27.000Z</time>
        <extensions>
          <ns3:TrackPointExtension>
            <ns3:atemp>24.0</ns3:atemp>
          </ns3:TrackPointExtension>
        </extensions>
      </trkpt>
      <trkpt lat="42.57059991359710693359375" lon="20.0337864272296428680419921875">
        <ele>1980</ele>
        <time>2026-06-15T13:28:28.000Z</time>
        <extensions>
          <ns3:TrackPointExtension>
            <ns3:atemp>24.0</ns3:atemp>
          </ns3:TrackPointExtension>
        </extensions>
      </trkpt>
      <trkpt lat="42.57059991359710693359375" lon="20.0337864272296428680419921875">
        <ele>1980</ele>
        <time>2026-06-15T13:28:29.000Z</time>
        <extensions>
          <ns3:TrackPointExtension>
            <ns3:atemp>24.0</ns3:atemp>
          </ns3:TrackPointExtension>
        </extensions>
      </trkpt>
      <trkpt lat="42.57059991359710693359375" lon="20.0337864272296428680419921875">
        <ele>1980</ele>
        <time>2026-06-15T13:28:30.000Z</time>
        <extensions>
          <ns3:TrackPointExtension>
            <ns3:atemp>24.0</ns3:atemp>
          </ns3:TrackPointExtension>
        </extensions>
      </trkpt>
      <trkpt lat="42.57059991359710693359375" lon="20.0337864272296428680419921875">
        <ele>1980.199951171875</ele>
        <time>2026-06-15T13:28:31.000Z</time>
        <extensions>
          <ns3:TrackPointExtension>
            <ns3:atemp>24.0</ns3:atemp>
          </ns3:TrackPointExtension>
        </extensions>
      </trkpt>
      <trkpt lat="42.57059991359710693359375" lon="20.0337864272296428680419921875">
        <ele>1980.199951171875</ele>
        <time>2026-06-15T13:28:32.000Z</time>
        <extensions>
          <ns3:TrackPointExtension>
            <ns3:atemp>24.0</ns3:atemp>
          </ns3:TrackPointExtension>
        </extensions>
      </trkpt>
      <trkpt lat="42.57059991359710693359375" lon="20.0337864272296428680419921875">
        <ele>1980.4000244140625</ele>
        <time>2026-06-15T13:28:33.000Z</time>
        <extensions>
          <ns3:TrackPointExtension>
            <ns3:atemp>24.0</ns3:atemp>
          </ns3:TrackPointExtension>
        </extensions>
      </trkpt>
      <trkpt lat="42.57059991359710693359375" lon="20.0337864272296428680419921875">
        <ele>1980.4000244140625</ele>
        <time>2026-06-15T13:28:34.000Z</time>
        <extensions>
          <ns3:TrackPointExtension>
            <ns3:atemp>24.0</ns3:atemp>
          </ns3:TrackPointExtension>
        </extensions>
      </trkpt>
      <trkpt lat="42.57059991359710693359375" lon="20.0337864272296428680419921875">
        <ele>1980.4000244140625</ele>
        <time>2026-06-15T13:28:35.000Z</time>
        <extensions>
          <ns3:TrackPointExtension>
            <ns3:atemp>24.0</ns3:atemp>
          </ns3:TrackPointExtension>
        </extensions>
      </trkpt>
      <trkpt lat="42.570599578320980072021484375" lon="20.03378550522029399871826171875">
        <ele>1980.199951171875</ele>
        <time>2026-06-15T13:28:36.000Z</time>
        <extensions>
          <ns3:TrackPointExtension>
            <ns3:atemp>24.0</ns3:atemp>
          </ns3:TrackPointExtension>
        </extensions>
      </trkpt>
      <trkpt lat="42.57059991359710693359375" lon="20.0337864272296428680419921875">
        <ele>1980.199951171875</ele>
        <time>2026-06-15T13:28:37.000Z</time>
        <extensions>
          <ns3:TrackPointExtension>
            <ns3:atemp>24.0</ns3:atemp>
          </ns3:TrackPointExtension>
        </extensions>
      </trkpt>
      <trkpt lat="42.57059991359710693359375" lon="20.0337864272296428680419921875">
        <ele>1980.199951171875</ele>
        <time>2026-06-15T13:28:38.000Z</time>
        <extensions>
          <ns3:TrackPointExtension>
            <ns3:atemp>24.0</ns3:atemp>
          </ns3:TrackPointExtension>
        </extensions>
      </trkpt>
      <trkpt lat="42.57059991359710693359375" lon="20.0337864272296428680419921875">
        <ele>1980</ele>
        <time>2026-06-15T13:28:39.000Z</time>
        <extensions>
          <ns3:TrackPointExtension>
            <ns3:atemp>24.0</ns3:atemp>
          </ns3:TrackPointExtension>
        </extensions>
      </trkpt>
      <trkpt lat="42.57059991359710693359375" lon="20.0337864272296428680419921875">
        <ele>1978.5999755859375</ele>
        <time>2026-06-15T13:28:40.000Z</time>
        <extensions>
          <ns3:TrackPointExtension>
            <ns3:atemp>24.0</ns3:atemp>
          </ns3:TrackPointExtension>
        </extensions>
      </trkpt>
      <trkpt lat="42.57059991359710693359375" lon="20.0337864272296428680419921875">
        <ele>1978.5999755859375</ele>
        <time>2026-06-15T13:28:41.000Z</time>
        <extensions>
          <ns3:TrackPointExtension>
            <ns3:atemp>24.0</ns3:atemp>
          </ns3:TrackPointExtension>
        </extensions>
      </trkpt>
      <trkpt lat="42.57059991359710693359375" lon="20.0337864272296428680419921875">
        <ele>1978.5999755859375</ele>
        <time>2026-06-15T13:28:42.000Z</time>
        <extensions>
          <ns3:TrackPointExtension>
            <ns3:atemp>24.0</ns3:atemp>
          </ns3:TrackPointExtension>
        </extensions>
      </trkpt>
      <trkpt lat="42.57059991359710693359375" lon="20.0337864272296428680419921875">
        <ele>1978.4000244140625</ele>
        <time>2026-06-15T13:28:43.000Z</time>
        <extensions>
          <ns3:TrackPointExtension>
            <ns3:atemp>24.0</ns3:atemp>
          </ns3:TrackPointExtension>
        </extensions>
      </trkpt>
      <trkpt lat="42.57059991359710693359375" lon="20.0337864272296428680419921875">
        <ele>1978.4000244140625</ele>
        <time>2026-06-15T13:28:44.000Z</time>
        <extensions>
          <ns3:TrackPointExtension>
            <ns3:atemp>24.0</ns3:atemp>
          </ns3:TrackPointExtension>
        </extensions>
      </trkpt>
      <trkpt lat="42.57059991359710693359375" lon="20.0337864272296428680419921875">
        <ele>1978.5999755859375</ele>
        <time>2026-06-15T13:28:45.000Z</time>
        <extensions>
          <ns3:TrackPointExtension>
            <ns3:atemp>24.0</ns3:atemp>
          </ns3:TrackPointExtension>
        </extensions>
      </trkpt>
      <trkpt lat="42.57059991359710693359375" lon="20.0337864272296428680419921875">
        <ele>1978.5999755859375</ele>
        <time>2026-06-15T13:28:46.000Z</time>
        <extensions>
          <ns3:TrackPointExtension>
            <ns3:atemp>24.0</ns3:atemp>
          </ns3:TrackPointExtension>
        </extensions>
      </trkpt>
      <trkpt lat="42.57059991359710693359375" lon="20.0337864272296428680419921875">
        <ele>1978.800048828125</ele>
        <time>2026-06-15T13:28:47.000Z</time>
        <extensions>
          <ns3:TrackPointExtension>
            <ns3:atemp>24.0</ns3:atemp>
          </ns3:TrackPointExtension>
        </extensions>
      </trkpt>
      <trkpt lat="42.57059991359710693359375" lon="20.0337864272296428680419921875">
        <ele>1979</ele>
        <time>2026-06-15T13:28:48.000Z</time>
        <extensions>
          <ns3:TrackPointExtension>
            <ns3:atemp>24.0</ns3:atemp>
          </ns3:TrackPointExtension>
        </extensions>
      </trkpt>
      <trkpt lat="42.57059991359710693359375" lon="20.0337864272296428680419921875">
        <ele>1979.199951171875</ele>
        <time>2026-06-15T13:28:49.000Z</time>
        <extensions>
          <ns3:TrackPointExtension>
            <ns3:atemp>24.0</ns3:atemp>
          </ns3:TrackPointExtension>
        </extensions>
      </trkpt>
      <trkpt lat="42.57059991359710693359375" lon="20.0337864272296428680419921875">
        <ele>1979.199951171875</ele>
        <time>2026-06-15T13:28:50.000Z</time>
        <extensions>
          <ns3:TrackPointExtension>
            <ns3:atemp>24.0</ns3:atemp>
          </ns3:TrackPointExtension>
        </extensions>
      </trkpt>
      <trkpt lat="42.57059991359710693359375" lon="20.0337864272296428680419921875">
        <ele>1979.4000244140625</ele>
        <time>2026-06-15T13:28:51.000Z</time>
        <extensions>
          <ns3:TrackPointExtension>
            <ns3:atemp>24.0</ns3:atemp>
          </ns3:TrackPointExtension>
        </extensions>
      </trkpt>
      <trkpt lat="42.57059991359710693359375" lon="20.0337864272296428680419921875">
        <ele>1979.4000244140625</ele>
        <time>2026-06-15T13:28:52.000Z</time>
        <extensions>
          <ns3:TrackPointExtension>
            <ns3:atemp>24.0</ns3:atemp>
          </ns3:TrackPointExtension>
        </extensions>
      </trkpt>
      <trkpt lat="42.57059991359710693359375" lon="20.0337864272296428680419921875">
        <ele>1979.5999755859375</ele>
        <time>2026-06-15T13:28:53.000Z</time>
        <extensions>
          <ns3:TrackPointExtension>
            <ns3:atemp>24.0</ns3:atemp>
          </ns3:TrackPointExtension>
        </extensions>
      </trkpt>
      <trkpt lat="42.57059991359710693359375" lon="20.0337864272296428680419921875">
        <ele>1979.4000244140625</ele>
        <time>2026-06-15T13:28:54.000Z</time>
        <extensions>
          <ns3:TrackPointExtension>
            <ns3:atemp>24.0</ns3:atemp>
          </ns3:TrackPointExtension>
        </extensions>
      </trkpt>
      <trkpt lat="42.57059991359710693359375" lon="20.0337864272296428680419921875">
        <ele>1979.5999755859375</ele>
        <time>2026-06-15T13:28:55.000Z</time>
        <extensions>
          <ns3:TrackPointExtension>
            <ns3:atemp>24.0</ns3:atemp>
          </ns3:TrackPointExtension>
        </extensions>
      </trkpt>
      <trkpt lat="42.57059991359710693359375" lon="20.0337864272296428680419921875">
        <ele>1979.800048828125</ele>
        <time>2026-06-15T13:28:56.000Z</time>
        <extensions>
          <ns3:TrackPointExtension>
            <ns3:atemp>24.0</ns3:atemp>
          </ns3:TrackPointExtension>
        </extensions>
      </trkpt>
      <trkpt lat="42.57059991359710693359375" lon="20.0337864272296428680419921875">
        <ele>1980.5999755859375</ele>
        <time>2026-06-15T13:28:57.000Z</time>
        <extensions>
          <ns3:TrackPointExtension>
            <ns3:atemp>24.0</ns3:atemp>
          </ns3:TrackPointExtension>
        </extensions>
      </trkpt>
      <trkpt lat="42.57059991359710693359375" lon="20.0337864272296428680419921875">
        <ele>1981.199951171875</ele>
        <time>2026-06-15T13:28:58.000Z</time>
        <extensions>
          <ns3:TrackPointExtension>
            <ns3:atemp>24.0</ns3:atemp>
          </ns3:TrackPointExtension>
        </extensions>
      </trkpt>
      <trkpt lat="42.57059991359710693359375" lon="20.0337864272296428680419921875">
        <ele>1981.4000244140625</ele>
        <time>2026-06-15T13:28:59.000Z</time>
        <extensions>
          <ns3:TrackPointExtension>
            <ns3:atemp>24.0</ns3:atemp>
          </ns3:TrackPointExtension>
        </extensions>
      </trkpt>
      <trkpt lat="42.57059991359710693359375" lon="20.0337864272296428680419921875">
        <ele>1980.800048828125</ele>
        <time>2026-06-15T13:29:00.000Z</time>
        <extensions>
          <ns3:TrackPointExtension>
            <ns3:atemp>24.0</ns3:atemp>
          </ns3:TrackPointExtension>
        </extensions>
      </trkpt>
      <trkpt lat="42.57059991359710693359375" lon="20.0337864272296428680419921875">
        <ele>1980.5999755859375</ele>
        <time>2026-06-15T13:29:01.000Z</time>
        <extensions>
          <ns3:TrackPointExtension>
            <ns3:atemp>24.0</ns3:atemp>
          </ns3:TrackPointExtension>
        </extensions>
      </trkpt>
      <trkpt lat="42.57059991359710693359375" lon="20.0337864272296428680419921875">
        <ele>1980</ele>
        <time>2026-06-15T13:29:02.000Z</time>
        <extensions>
          <ns3:TrackPointExtension>
            <ns3:atemp>24.0</ns3:atemp>
          </ns3:TrackPointExtension>
        </extensions>
      </trkpt>
      <trkpt lat="42.57059991359710693359375" lon="20.0337864272296428680419921875">
        <ele>1979.4000244140625</ele>
        <time>2026-06-15T13:29:03.000Z</time>
        <extensions>
          <ns3:TrackPointExtension>
            <ns3:atemp>24.0</ns3:atemp>
          </ns3:TrackPointExtension>
        </extensions>
      </trkpt>
      <trkpt lat="42.57059991359710693359375" lon="20.0337864272296428680419921875">
        <ele>1979.199951171875</ele>
        <time>2026-06-15T13:29:04.000Z</time>
        <extensions>
          <ns3:TrackPointExtension>
            <ns3:atemp>24.0</ns3:atemp>
          </ns3:TrackPointExtension>
        </extensions>
      </trkpt>
      <trkpt lat="42.57059991359710693359375" lon="20.0337864272296428680419921875">
        <ele>1978.5999755859375</ele>
        <time>2026-06-15T13:29:05.000Z</time>
        <extensions>
          <ns3:TrackPointExtension>
            <ns3:atemp>24.0</ns3:atemp>
          </ns3:TrackPointExtension>
        </extensions>
      </trkpt>
      <trkpt lat="42.57059991359710693359375" lon="20.0337864272296428680419921875">
        <ele>1978</ele>
        <time>2026-06-15T13:29:06.000Z</time>
        <extensions>
          <ns3:TrackPointExtension>
            <ns3:atemp>24.0</ns3:atemp>
          </ns3:TrackPointExtension>
        </extensions>
      </trkpt>
      <trkpt lat="42.57059991359710693359375" lon="20.0337864272296428680419921875">
        <ele>1977.4000244140625</ele>
        <time>2026-06-15T13:29:07.000Z</time>
        <extensions>
          <ns3:TrackPointExtension>
            <ns3:atemp>24.0</ns3:atemp>
          </ns3:TrackPointExtension>
        </extensions>
      </trkpt>
      <trkpt lat="42.57059991359710693359375" lon="20.0337864272296428680419921875">
        <ele>1977.199951171875</ele>
        <time>2026-06-15T13:29:08.000Z</time>
        <extensions>
          <ns3:TrackPointExtension>
            <ns3:atemp>24.0</ns3:atemp>
          </ns3:TrackPointExtension>
        </extensions>
      </trkpt>
      <trkpt lat="42.57059991359710693359375" lon="20.0337864272296428680419921875">
        <ele>1977</ele>
        <time>2026-06-15T13:29:09.000Z</time>
        <extensions>
          <ns3:TrackPointExtension>
            <ns3:atemp>24.0</ns3:atemp>
          </ns3:TrackPointExtension>
        </extensions>
      </trkpt>
      <trkpt lat="42.57059991359710693359375" lon="20.0337864272296428680419921875">
        <ele>1976.800048828125</ele>
        <time>2026-06-15T13:29:10.000Z</time>
        <extensions>
          <ns3:TrackPointExtension>
            <ns3:atemp>24.0</ns3:atemp>
          </ns3:TrackPointExtension>
        </extensions>
      </trkpt>
      <trkpt lat="42.57059991359710693359375" lon="20.0337864272296428680419921875">
        <ele>1978</ele>
        <time>2026-06-15T13:29:11.000Z</time>
        <extensions>
          <ns3:TrackPointExtension>
            <ns3:atemp>24.0</ns3:atemp>
          </ns3:TrackPointExtension>
        </extensions>
      </trkpt>
      <trkpt lat="42.57059991359710693359375" lon="20.0337864272296428680419921875">
        <ele>1979.4000244140625</ele>
        <time>2026-06-15T13:29:12.000Z</time>
        <extensions>
          <ns3:TrackPointExtension>
            <ns3:atemp>24.0</ns3:atemp>
          </ns3:TrackPointExtension>
        </extensions>
      </trkpt>
      <trkpt lat="42.57059991359710693359375" lon="20.0337864272296428680419921875">
        <ele>1979.4000244140625</ele>
        <time>2026-06-15T13:29:13.000Z</time>
        <extensions>
          <ns3:TrackPointExtension>
            <ns3:atemp>24.0</ns3:atemp>
          </ns3:TrackPointExtension>
        </extensions>
      </trkpt>
      <trkpt lat="42.57059991359710693359375" lon="20.0337864272296428680419921875">
        <ele>1979.4000244140625</ele>
        <time>2026-06-15T13:29:14.000Z</time>
        <extensions>
          <ns3:TrackPointExtension>
            <ns3:atemp>24.0</ns3:atemp>
          </ns3:TrackPointExtension>
        </extensions>
      </trkpt>
      <trkpt lat="42.57059991359710693359375" lon="20.0337864272296428680419921875">
        <ele>1979.5999755859375</ele>
        <time>2026-06-15T13:29:15.000Z</time>
        <extensions>
          <ns3:TrackPointExtension>
            <ns3:atemp>24.0</ns3:atemp>
          </ns3:TrackPointExtension>
        </extensions>
      </trkpt>
      <trkpt lat="42.57059991359710693359375" lon="20.0337864272296428680419921875">
        <ele>1979.5999755859375</ele>
        <time>2026-06-15T13:29:16.000Z</time>
        <extensions>
          <ns3:TrackPointExtension>
            <ns3:atemp>24.0</ns3:atemp>
          </ns3:TrackPointExtension>
        </extensions>
      </trkpt>
      <trkpt lat="42.57059991359710693359375" lon="20.0337864272296428680419921875">
        <ele>1979.4000244140625</ele>
        <time>2026-06-15T13:29:17.000Z</time>
        <extensions>
          <ns3:TrackPointExtension>
            <ns3:atemp>24.0</ns3:atemp>
          </ns3:TrackPointExtension>
        </extensions>
      </trkpt>
      <trkpt lat="42.57059991359710693359375" lon="20.0337864272296428680419921875">
        <ele>1979.199951171875</ele>
        <time>2026-06-15T13:29:18.000Z</time>
        <extensions>
          <ns3:TrackPointExtension>
            <ns3:atemp>24.0</ns3:atemp>
          </ns3:TrackPointExtension>
        </extensions>
      </trkpt>
      <trkpt lat="42.57059991359710693359375" lon="20.0337864272296428680419921875">
        <ele>1978.800048828125</ele>
        <time>2026-06-15T13:29:19.000Z</time>
        <extensions>
          <ns3:TrackPointExtension>
            <ns3:atemp>24.0</ns3:atemp>
          </ns3:TrackPointExtension>
        </extensions>
      </trkpt>
      <trkpt lat="42.57059991359710693359375" lon="20.0337864272296428680419921875">
        <ele>1978.5999755859375</ele>
        <time>2026-06-15T13:29:20.000Z</time>
        <extensions>
          <ns3:TrackPointExtension>
            <ns3:atemp>24.0</ns3:atemp>
          </ns3:TrackPointExtension>
        </extensions>
      </trkpt>
      <trkpt lat="42.57059991359710693359375" lon="20.0337864272296428680419921875">
        <ele>1978.4000244140625</ele>
        <time>2026-06-15T13:29:21.000Z</time>
        <extensions>
          <ns3:TrackPointExtension>
            <ns3:atemp>24.0</ns3:atemp>
          </ns3:TrackPointExtension>
        </extensions>
      </trkpt>
      <trkpt lat="42.57059991359710693359375" lon="20.0337864272296428680419921875">
        <ele>1978.4000244140625</ele>
        <time>2026-06-15T13:29:22.000Z</time>
        <extensions>
          <ns3:TrackPointExtension>
            <ns3:atemp>24.0</ns3:atemp>
          </ns3:TrackPointExtension>
        </extensions>
      </trkpt>
      <trkpt lat="42.57059991359710693359375" lon="20.0337864272296428680419921875">
        <ele>1978.5999755859375</ele>
        <time>2026-06-15T13:29:23.000Z</time>
        <extensions>
          <ns3:TrackPointExtension>
            <ns3:atemp>24.0</ns3:atemp>
          </ns3:TrackPointExtension>
        </extensions>
      </trkpt>
      <trkpt lat="42.57059991359710693359375" lon="20.0337864272296428680419921875">
        <ele>1978.800048828125</ele>
        <time>2026-06-15T13:29:24.000Z</time>
        <extensions>
          <ns3:TrackPointExtension>
            <ns3:atemp>24.0</ns3:atemp>
          </ns3:TrackPointExtension>
        </extensions>
      </trkpt>
      <trkpt lat="42.57059991359710693359375" lon="20.0337864272296428680419921875">
        <ele>1979.4000244140625</ele>
        <time>2026-06-15T13:29:25.000Z</time>
        <extensions>
          <ns3:TrackPointExtension>
            <ns3:atemp>24.0</ns3:atemp>
          </ns3:TrackPointExtension>
        </extensions>
      </trkpt>
      <trkpt lat="42.57059991359710693359375" lon="20.0337864272296428680419921875">
        <ele>1980.199951171875</ele>
        <time>2026-06-15T13:29:26.000Z</time>
        <extensions>
          <ns3:TrackPointExtension>
            <ns3:atemp>24.0</ns3:atemp>
          </ns3:TrackPointExtension>
        </extensions>
      </trkpt>
      <trkpt lat="42.57059991359710693359375" lon="20.0337864272296428680419921875">
        <ele>1981</ele>
        <time>2026-06-15T13:29:27.000Z</time>
        <extensions>
          <ns3:TrackPointExtension>
            <ns3:atemp>24.0</ns3:atemp>
          </ns3:TrackPointExtension>
        </extensions>
      </trkpt>
      <trkpt lat="42.57059991359710693359375" lon="20.0337864272296428680419921875">
        <ele>1981.4000244140625</ele>
        <time>2026-06-15T13:29:28.000Z</time>
        <extensions>
          <ns3:TrackPointExtension>
            <ns3:atemp>24.0</ns3:atemp>
          </ns3:TrackPointExtension>
        </extensions>
      </trkpt>
      <trkpt lat="42.57059991359710693359375" lon="20.0337864272296428680419921875">
        <ele>1981.4000244140625</ele>
        <time>2026-06-15T13:29:29.000Z</time>
        <extensions>
          <ns3:TrackPointExtension>
            <ns3:atemp>24.0</ns3:atemp>
          </ns3:TrackPointExtension>
        </extensions>
      </trkpt>
      <trkpt lat="42.57059991359710693359375" lon="20.0337864272296428680419921875">
        <ele>1981.199951171875</ele>
        <time>2026-06-15T13:29:30.000Z</time>
        <extensions>
          <ns3:TrackPointExtension>
            <ns3:atemp>24.0</ns3:atemp>
          </ns3:TrackPointExtension>
        </extensions>
      </trkpt>
      <trkpt lat="42.57059991359710693359375" lon="20.0337864272296428680419921875">
        <ele>1981</ele>
        <time>2026-06-15T13:29:31.000Z</time>
        <extensions>
          <ns3:TrackPointExtension>
            <ns3:atemp>24.0</ns3:atemp>
          </ns3:TrackPointExtension>
        </extensions>
      </trkpt>
      <trkpt lat="42.57059991359710693359375" lon="20.0337864272296428680419921875">
        <ele>1980.199951171875</ele>
        <time>2026-06-15T13:29:32.000Z</time>
        <extensions>
          <ns3:TrackPointExtension>
            <ns3:atemp>24.0</ns3:atemp>
          </ns3:TrackPointExtension>
        </extensions>
      </trkpt>
      <trkpt lat="42.57059991359710693359375" lon="20.0337864272296428680419921875">
        <ele>1979.800048828125</ele>
        <time>2026-06-15T13:29:33.000Z</time>
        <extensions>
          <ns3:TrackPointExtension>
            <ns3:atemp>24.0</ns3:atemp>
          </ns3:TrackPointExtension>
        </extensions>
      </trkpt>
      <trkpt lat="42.57059991359710693359375" lon="20.0337864272296428680419921875">
        <ele>1979.199951171875</ele>
        <time>2026-06-15T13:29:34.000Z</time>
        <extensions>
          <ns3:TrackPointExtension>
            <ns3:atemp>24.0</ns3:atemp>
          </ns3:TrackPointExtension>
        </extensions>
      </trkpt>
      <trkpt lat="42.57059991359710693359375" lon="20.0337864272296428680419921875">
        <ele>1979</ele>
        <time>2026-06-15T13:29:35.000Z</time>
        <extensions>
          <ns3:TrackPointExtension>
            <ns3:atemp>24.0</ns3:atemp>
          </ns3:TrackPointExtension>
        </extensions>
      </trkpt>
      <trkpt lat="42.57059991359710693359375" lon="20.0337864272296428680419921875">
        <ele>1978.800048828125</ele>
        <time>2026-06-15T13:29:36.000Z</time>
        <extensions>
          <ns3:TrackPointExtension>
            <ns3:atemp>24.0</ns3:atemp>
          </ns3:TrackPointExtension>
        </extensions>
      </trkpt>
      <trkpt lat="42.57059991359710693359375" lon="20.0337864272296428680419921875">
        <ele>1978.800048828125</ele>
        <time>2026-06-15T13:29:37.000Z</time>
        <extensions>
          <ns3:TrackPointExtension>
            <ns3:atemp>24.0</ns3:atemp>
          </ns3:TrackPointExtension>
        </extensions>
      </trkpt>
      <trkpt lat="42.57059991359710693359375" lon="20.0337864272296428680419921875">
        <ele>1978.800048828125</ele>
        <time>2026-06-15T13:29:38.000Z</time>
        <extensions>
          <ns3:TrackPointExtension>
            <ns3:atemp>24.0</ns3:atemp>
          </ns3:TrackPointExtension>
        </extensions>
      </trkpt>
      <trkpt lat="42.57059991359710693359375" lon="20.0337864272296428680419921875">
        <ele>1979.199951171875</ele>
        <time>2026-06-15T13:29:39.000Z</time>
        <extensions>
          <ns3:TrackPointExtension>
            <ns3:atemp>24.0</ns3:atemp>
          </ns3:TrackPointExtension>
        </extensions>
      </trkpt>
      <trkpt lat="42.57060594856739044189453125" lon="20.03377226181328296661376953125">
        <ele>1979.199951171875</ele>
        <time>2026-06-15T13:29:40.000Z</time>
        <extensions>
          <ns3:TrackPointExtension>
            <ns3:atemp>24.0</ns3:atemp>
          </ns3:TrackPointExtension>
        </extensions>
      </trkpt>
      <trkpt lat="42.57061533629894256591796875" lon="20.03374644555151462554931640625">
        <ele>1979.4000244140625</ele>
        <time>2026-06-15T13:29:41.000Z</time>
        <extensions>
          <ns3:TrackPointExtension>
            <ns3:atemp>24.0</ns3:atemp>
          </ns3:TrackPointExtension>
        </extensions>
      </trkpt>
      <trkpt lat="42.57061692886054515838623046875" lon="20.03374493680894374847412109375">
        <ele>1979.5999755859375</ele>
        <time>2026-06-15T13:29:42.000Z</time>
        <extensions>
          <ns3:TrackPointExtension>
            <ns3:atemp>24.0</ns3:atemp>
          </ns3:TrackPointExtension>
        </extensions>
      </trkpt>
      <trkpt lat="42.57061575539410114288330078125" lon="20.03373990766704082489013671875">
        <ele>1979.5999755859375</ele>
        <time>2026-06-15T13:29:43.000Z</time>
        <extensions>
          <ns3:TrackPointExtension>
            <ns3:atemp>24.0</ns3:atemp>
          </ns3:TrackPointExtension>
        </extensions>
      </trkpt>
      <trkpt lat="42.57061575539410114288330078125" lon="20.03373974002897739410400390625">
        <ele>1979.800048828125</ele>
        <time>2026-06-15T13:29:44.000Z</time>
        <extensions>
          <ns3:TrackPointExtension>
            <ns3:atemp>24.0</ns3:atemp>
          </ns3:TrackPointExtension>
        </extensions>
      </trkpt>
      <trkpt lat="42.57061575539410114288330078125" lon="20.03373974002897739410400390625">
        <ele>1979.800048828125</ele>
        <time>2026-06-15T13:29:45.000Z</time>
        <extensions>
          <ns3:TrackPointExtension>
            <ns3:atemp>24.0</ns3:atemp>
          </ns3:TrackPointExtension>
        </extensions>
      </trkpt>
      <trkpt lat="42.57061575539410114288330078125" lon="20.03373974002897739410400390625">
        <ele>1980</ele>
        <time>2026-06-15T13:29:46.000Z</time>
        <extensions>
          <ns3:TrackPointExtension>
            <ns3:atemp>24.0</ns3:atemp>
          </ns3:TrackPointExtension>
        </extensions>
      </trkpt>
      <trkpt lat="42.57061575539410114288330078125" lon="20.03373974002897739410400390625">
        <ele>1980</ele>
        <time>2026-06-15T13:29:47.000Z</time>
        <extensions>
          <ns3:TrackPointExtension>
            <ns3:atemp>24.0</ns3:atemp>
          </ns3:TrackPointExtension>
        </extensions>
      </trkpt>
      <trkpt lat="42.57061575539410114288330078125" lon="20.03373974002897739410400390625">
        <ele>1980.199951171875</ele>
        <time>2026-06-15T13:29:48.000Z</time>
        <extensions>
          <ns3:TrackPointExtension>
            <ns3:atemp>24.0</ns3:atemp>
          </ns3:TrackPointExtension>
        </extensions>
      </trkpt>
      <trkpt lat="42.57061575539410114288330078125" lon="20.03373974002897739410400390625">
        <ele>1980.199951171875</ele>
        <time>2026-06-15T13:29:49.000Z</time>
        <extensions>
          <ns3:TrackPointExtension>
            <ns3:atemp>24.0</ns3:atemp>
          </ns3:TrackPointExtension>
        </extensions>
      </trkpt>
      <trkpt lat="42.57061575539410114288330078125" lon="20.03373974002897739410400390625">
        <ele>1980.199951171875</ele>
        <time>2026-06-15T13:29:50.000Z</time>
        <extensions>
          <ns3:TrackPointExtension>
            <ns3:atemp>25.0</ns3:atemp>
          </ns3:TrackPointExtension>
        </extensions>
      </trkpt>
      <trkpt lat="42.57061575539410114288330078125" lon="20.03373974002897739410400390625">
        <ele>1980.199951171875</ele>
        <time>2026-06-15T13:29:51.000Z</time>
        <extensions>
          <ns3:TrackPointExtension>
            <ns3:atemp>25.0</ns3:atemp>
          </ns3:TrackPointExtension>
        </extensions>
      </trkpt>
      <trkpt lat="42.57061575539410114288330078125" lon="20.03373974002897739410400390625">
        <ele>1980</ele>
        <time>2026-06-15T13:29:52.000Z</time>
        <extensions>
          <ns3:TrackPointExtension>
            <ns3:atemp>25.0</ns3:atemp>
          </ns3:TrackPointExtension>
        </extensions>
      </trkpt>
      <trkpt lat="42.57061575539410114288330078125" lon="20.03373974002897739410400390625">
        <ele>1979.800048828125</ele>
        <time>2026-06-15T13:29:53.000Z</time>
        <extensions>
          <ns3:TrackPointExtension>
            <ns3:atemp>25.0</ns3:atemp>
          </ns3:TrackPointExtension>
        </extensions>
      </trkpt>
      <trkpt lat="42.57061575539410114288330078125" lon="20.03373974002897739410400390625">
        <ele>1979.5999755859375</ele>
        <time>2026-06-15T13:29:54.000Z</time>
        <extensions>
          <ns3:TrackPointExtension>
            <ns3:atemp>25.0</ns3:atemp>
          </ns3:TrackPointExtension>
        </extensions>
      </trkpt>
      <trkpt lat="42.57061575539410114288330078125" lon="20.03373974002897739410400390625">
        <ele>1979.5999755859375</ele>
        <time>2026-06-15T13:29:55.000Z</time>
        <extensions>
          <ns3:TrackPointExtension>
            <ns3:atemp>25.0</ns3:atemp>
          </ns3:TrackPointExtension>
        </extensions>
      </trkpt>
      <trkpt lat="42.57061575539410114288330078125" lon="20.03373974002897739410400390625">
        <ele>1979.4000244140625</ele>
        <time>2026-06-15T13:29:56.000Z</time>
        <extensions>
          <ns3:TrackPointExtension>
            <ns3:atemp>25.0</ns3:atemp>
          </ns3:TrackPointExtension>
        </extensions>
      </trkpt>
      <trkpt lat="42.57061575539410114288330078125" lon="20.03373974002897739410400390625">
        <ele>1979.4000244140625</ele>
        <time>2026-06-15T13:29:57.000Z</time>
        <extensions>
          <ns3:TrackPointExtension>
            <ns3:atemp>25.0</ns3:atemp>
          </ns3:TrackPointExtension>
        </extensions>
      </trkpt>
      <trkpt lat="42.57061575539410114288330078125" lon="20.03373974002897739410400390625">
        <ele>1979.4000244140625</ele>
        <time>2026-06-15T13:29:58.000Z</time>
        <extensions>
          <ns3:TrackPointExtension>
            <ns3:atemp>25.0</ns3:atemp>
          </ns3:TrackPointExtension>
        </extensions>
      </trkpt>
      <trkpt lat="42.57061575539410114288330078125" lon="20.03373974002897739410400390625">
        <ele>1979.4000244140625</ele>
        <time>2026-06-15T13:29:59.000Z</time>
        <extensions>
          <ns3:TrackPointExtension>
            <ns3:atemp>25.0</ns3:atemp>
          </ns3:TrackPointExtension>
        </extensions>
      </trkpt>
      <trkpt lat="42.57061575539410114288330078125" lon="20.03373974002897739410400390625">
        <ele>1979.4000244140625</ele>
        <time>2026-06-15T13:30:00.000Z</time>
        <extensions>
          <ns3:TrackPointExtension>
            <ns3:atemp>25.0</ns3:atemp>
          </ns3:TrackPointExtension>
        </extensions>
      </trkpt>
      <trkpt lat="42.57061575539410114288330078125" lon="20.03373974002897739410400390625">
        <ele>1979.4000244140625</ele>
        <time>2026-06-15T13:30:01.000Z</time>
        <extensions>
          <ns3:TrackPointExtension>
            <ns3:atemp>25.0</ns3:atemp>
          </ns3:TrackPointExtension>
        </extensions>
      </trkpt>
      <trkpt lat="42.57061575539410114288330078125" lon="20.03373974002897739410400390625">
        <ele>1979.4000244140625</ele>
        <time>2026-06-15T13:30:02.000Z</time>
        <extensions>
          <ns3:TrackPointExtension>
            <ns3:atemp>25.0</ns3:atemp>
          </ns3:TrackPointExtension>
        </extensions>
      </trkpt>
      <trkpt lat="42.57061575539410114288330078125" lon="20.03373974002897739410400390625">
        <ele>1979.4000244140625</ele>
        <time>2026-06-15T13:30:03.000Z</time>
        <extensions>
          <ns3:TrackPointExtension>
            <ns3:atemp>25.0</ns3:atemp>
          </ns3:TrackPointExtension>
        </extensions>
      </trkpt>
      <trkpt lat="42.57061575539410114288330078125" lon="20.03373974002897739410400390625">
        <ele>1979.5999755859375</ele>
        <time>2026-06-15T13:30:04.000Z</time>
        <extensions>
          <ns3:TrackPointExtension>
            <ns3:atemp>25.0</ns3:atemp>
          </ns3:TrackPointExtension>
        </extensions>
      </trkpt>
      <trkpt lat="42.57061575539410114288330078125" lon="20.03373974002897739410400390625">
        <ele>1979.5999755859375</ele>
        <time>2026-06-15T13:30:05.000Z</time>
        <extensions>
          <ns3:TrackPointExtension>
            <ns3:atemp>25.0</ns3:atemp>
          </ns3:TrackPointExtension>
        </extensions>
      </trkpt>
      <trkpt lat="42.57061575539410114288330078125" lon="20.03373974002897739410400390625">
        <ele>1979.5999755859375</ele>
        <time>2026-06-15T13:30:06.000Z</time>
        <extensions>
          <ns3:TrackPointExtension>
            <ns3:atemp>25.0</ns3:atemp>
          </ns3:TrackPointExtension>
        </extensions>
      </trkpt>
      <trkpt lat="42.57061575539410114288330078125" lon="20.03373974002897739410400390625">
        <ele>1979.4000244140625</ele>
        <time>2026-06-15T13:30:07.000Z</time>
        <extensions>
          <ns3:TrackPointExtension>
            <ns3:atemp>25.0</ns3:atemp>
          </ns3:TrackPointExtension>
        </extensions>
      </trkpt>
      <trkpt lat="42.57061575539410114288330078125" lon="20.03373974002897739410400390625">
        <ele>1979.4000244140625</ele>
        <time>2026-06-15T13:30:08.000Z</time>
        <extensions>
          <ns3:TrackPointExtension>
            <ns3:atemp>25.0</ns3:atemp>
          </ns3:TrackPointExtension>
        </extensions>
      </trkpt>
      <trkpt lat="42.57061575539410114288330078125" lon="20.03373974002897739410400390625">
        <ele>1979.4000244140625</ele>
        <time>2026-06-15T13:30:09.000Z</time>
        <extensions>
          <ns3:TrackPointExtension>
            <ns3:atemp>25.0</ns3:atemp>
          </ns3:TrackPointExtension>
        </extensions>
      </trkpt>
      <trkpt lat="42.57061575539410114288330078125" lon="20.03373974002897739410400390625">
        <ele>1979.4000244140625</ele>
        <time>2026-06-15T13:30:10.000Z</time>
        <extensions>
          <ns3:TrackPointExtension>
            <ns3:atemp>25.0</ns3:atemp>
          </ns3:TrackPointExtension>
        </extensions>
      </trkpt>
      <trkpt lat="42.57061575539410114288330078125" lon="20.03373974002897739410400390625">
        <ele>1979.4000244140625</ele>
        <time>2026-06-15T13:30:11.000Z</time>
        <extensions>
          <ns3:TrackPointExtension>
            <ns3:atemp>25.0</ns3:atemp>
          </ns3:TrackPointExtension>
        </extensions>
      </trkpt>
      <trkpt lat="42.57061575539410114288330078125" lon="20.03373974002897739410400390625">
        <ele>1979.4000244140625</ele>
        <time>2026-06-15T13:30:12.000Z</time>
        <extensions>
          <ns3:TrackPointExtension>
            <ns3:atemp>25.0</ns3:atemp>
          </ns3:TrackPointExtension>
        </extensions>
      </trkpt>
      <trkpt lat="42.57061575539410114288330078125" lon="20.03373974002897739410400390625">
        <ele>1979.4000244140625</ele>
        <time>2026-06-15T13:30:13.000Z</time>
        <extensions>
          <ns3:TrackPointExtension>
            <ns3:atemp>25.0</ns3:atemp>
          </ns3:TrackPointExtension>
        </extensions>
      </trkpt>
      <trkpt lat="42.57061575539410114288330078125" lon="20.03373974002897739410400390625">
        <ele>1979.4000244140625</ele>
        <time>2026-06-15T13:30:14.000Z</time>
        <extensions>
          <ns3:TrackPointExtension>
            <ns3:atemp>25.0</ns3:atemp>
          </ns3:TrackPointExtension>
        </extensions>
      </trkpt>
      <trkpt lat="42.57061575539410114288330078125" lon="20.03373974002897739410400390625">
        <ele>1979.4000244140625</ele>
        <time>2026-06-15T13:30:15.000Z</time>
        <extensions>
          <ns3:TrackPointExtension>
            <ns3:atemp>25.0</ns3:atemp>
          </ns3:TrackPointExtension>
        </extensions>
      </trkpt>
      <trkpt lat="42.57061575539410114288330078125" lon="20.03373974002897739410400390625">
        <ele>1979.4000244140625</ele>
        <time>2026-06-15T13:30:16.000Z</time>
        <extensions>
          <ns3:TrackPointExtension>
            <ns3:atemp>25.0</ns3:atemp>
          </ns3:TrackPointExtension>
        </extensions>
      </trkpt>
      <trkpt lat="42.57061575539410114288330078125" lon="20.03373974002897739410400390625">
        <ele>1979.4000244140625</ele>
        <time>2026-06-15T13:30:17.000Z</time>
        <extensions>
          <ns3:TrackPointExtension>
            <ns3:atemp>25.0</ns3:atemp>
          </ns3:TrackPointExtension>
        </extensions>
      </trkpt>
      <trkpt lat="42.57061575539410114288330078125" lon="20.03373974002897739410400390625">
        <ele>1979.4000244140625</ele>
        <time>2026-06-15T13:30:18.000Z</time>
        <extensions>
          <ns3:TrackPointExtension>
            <ns3:atemp>25.0</ns3:atemp>
          </ns3:TrackPointExtension>
        </extensions>
      </trkpt>
      <trkpt lat="42.57061575539410114288330078125" lon="20.03373974002897739410400390625">
        <ele>1979.4000244140625</ele>
        <time>2026-06-15T13:30:19.000Z</time>
        <extensions>
          <ns3:TrackPointExtension>
            <ns3:atemp>25.0</ns3:atemp>
          </ns3:TrackPointExtension>
        </extensions>
      </trkpt>
      <trkpt lat="42.57061575539410114288330078125" lon="20.03373974002897739410400390625">
        <ele>1979.4000244140625</ele>
        <time>2026-06-15T13:30:20.000Z</time>
        <extensions>
          <ns3:TrackPointExtension>
            <ns3:atemp>25.0</ns3:atemp>
          </ns3:TrackPointExtension>
        </extensions>
      </trkpt>
      <trkpt lat="42.57061575539410114288330078125" lon="20.03373974002897739410400390625">
        <ele>1979.4000244140625</ele>
        <time>2026-06-15T13:30:21.000Z</time>
        <extensions>
          <ns3:TrackPointExtension>
            <ns3:atemp>25.0</ns3:atemp>
          </ns3:TrackPointExtension>
        </extensions>
      </trkpt>
      <trkpt lat="42.57061575539410114288330078125" lon="20.03373974002897739410400390625">
        <ele>1979.4000244140625</ele>
        <time>2026-06-15T13:30:22.000Z</time>
        <extensions>
          <ns3:TrackPointExtension>
            <ns3:atemp>25.0</ns3:atemp>
          </ns3:TrackPointExtension>
        </extensions>
      </trkpt>
      <trkpt lat="42.57061575539410114288330078125" lon="20.03373974002897739410400390625">
        <ele>1979.4000244140625</ele>
        <time>2026-06-15T13:30:23.000Z</time>
        <extensions>
          <ns3:TrackPointExtension>
            <ns3:atemp>25.0</ns3:atemp>
          </ns3:TrackPointExtension>
        </extensions>
      </trkpt>
      <trkpt lat="42.57061575539410114288330078125" lon="20.03373974002897739410400390625">
        <ele>1979.4000244140625</ele>
        <time>2026-06-15T13:30:24.000Z</time>
        <extensions>
          <ns3:TrackPointExtension>
            <ns3:atemp>25.0</ns3:atemp>
          </ns3:TrackPointExtension>
        </extensions>
      </trkpt>
      <trkpt lat="42.57061575539410114288330078125" lon="20.03373974002897739410400390625">
        <ele>1979.199951171875</ele>
        <time>2026-06-15T13:30:25.000Z</time>
        <extensions>
          <ns3:TrackPointExtension>
            <ns3:atemp>25.0</ns3:atemp>
          </ns3:TrackPointExtension>
        </extensions>
      </trkpt>
      <trkpt lat="42.57061575539410114288330078125" lon="20.03373974002897739410400390625">
        <ele>1979.199951171875</ele>
        <time>2026-06-15T13:30:26.000Z</time>
        <extensions>
          <ns3:TrackPointExtension>
            <ns3:atemp>25.0</ns3:atemp>
          </ns3:TrackPointExtension>
        </extensions>
      </trkpt>
      <trkpt lat="42.57061575539410114288330078125" lon="20.03373974002897739410400390625">
        <ele>1979</ele>
        <time>2026-06-15T13:30:27.000Z</time>
        <extensions>
          <ns3:TrackPointExtension>
            <ns3:atemp>25.0</ns3:atemp>
          </ns3:TrackPointExtension>
        </extensions>
      </trkpt>
      <trkpt lat="42.57061575539410114288330078125" lon="20.03373974002897739410400390625">
        <ele>1979</ele>
        <time>2026-06-15T13:30:28.000Z</time>
        <extensions>
          <ns3:TrackPointExtension>
            <ns3:atemp>25.0</ns3:atemp>
          </ns3:TrackPointExtension>
        </extensions>
      </trkpt>
      <trkpt lat="42.57061575539410114288330078125" lon="20.03373974002897739410400390625">
        <ele>1979.199951171875</ele>
        <time>2026-06-15T13:30:29.000Z</time>
        <extensions>
          <ns3:TrackPointExtension>
            <ns3:atemp>25.0</ns3:atemp>
          </ns3:TrackPointExtension>
        </extensions>
      </trkpt>
      <trkpt lat="42.57061575539410114288330078125" lon="20.03373974002897739410400390625">
        <ele>1979.199951171875</ele>
        <time>2026-06-15T13:30:30.000Z</time>
        <extensions>
          <ns3:TrackPointExtension>
            <ns3:atemp>25.0</ns3:atemp>
          </ns3:TrackPointExtension>
        </extensions>
      </trkpt>
      <trkpt lat="42.57061575539410114288330078125" lon="20.03373974002897739410400390625">
        <ele>1979.199951171875</ele>
        <time>2026-06-15T13:30:31.000Z</time>
        <extensions>
          <ns3:TrackPointExtension>
            <ns3:atemp>25.0</ns3:atemp>
          </ns3:TrackPointExtension>
        </extensions>
      </trkpt>
      <trkpt lat="42.57061575539410114288330078125" lon="20.03373974002897739410400390625">
        <ele>1979.4000244140625</ele>
        <time>2026-06-15T13:30:32.000Z</time>
        <extensions>
          <ns3:TrackPointExtension>
            <ns3:atemp>25.0</ns3:atemp>
          </ns3:TrackPointExtension>
        </extensions>
      </trkpt>
      <trkpt lat="42.57061575539410114288330078125" lon="20.03373974002897739410400390625">
        <ele>1979.4000244140625</ele>
        <time>2026-06-15T13:30:33.000Z</time>
        <extensions>
          <ns3:TrackPointExtension>
            <ns3:atemp>25.0</ns3:atemp>
          </ns3:TrackPointExtension>
        </extensions>
      </trkpt>
      <trkpt lat="42.57061575539410114288330078125" lon="20.03373974002897739410400390625">
        <ele>1979.4000244140625</ele>
        <time>2026-06-15T13:30:34.000Z</time>
        <extensions>
          <ns3:TrackPointExtension>
            <ns3:atemp>25.0</ns3:atemp>
          </ns3:TrackPointExtension>
        </extensions>
      </trkpt>
      <trkpt lat="42.57061575539410114288330078125" lon="20.03373974002897739410400390625">
        <ele>1979.199951171875</ele>
        <time>2026-06-15T13:30:35.000Z</time>
        <extensions>
          <ns3:TrackPointExtension>
            <ns3:atemp>25.0</ns3:atemp>
          </ns3:TrackPointExtension>
        </extensions>
      </trkpt>
      <trkpt lat="42.57061575539410114288330078125" lon="20.03373974002897739410400390625">
        <ele>1979</ele>
        <time>2026-06-15T13:30:36.000Z</time>
        <extensions>
          <ns3:TrackPointExtension>
            <ns3:atemp>25.0</ns3:atemp>
          </ns3:TrackPointExtension>
        </extensions>
      </trkpt>
      <trkpt lat="42.57061575539410114288330078125" lon="20.03373974002897739410400390625">
        <ele>1978.800048828125</ele>
        <time>2026-06-15T13:30:37.000Z</time>
        <extensions>
          <ns3:TrackPointExtension>
            <ns3:atemp>25.0</ns3:atemp>
          </ns3:TrackPointExtension>
        </extensions>
      </trkpt>
      <trkpt lat="42.57061575539410114288330078125" lon="20.03373974002897739410400390625">
        <ele>1979</ele>
        <time>2026-06-15T13:30:38.000Z</time>
        <extensions>
          <ns3:TrackPointExtension>
            <ns3:atemp>25.0</ns3:atemp>
          </ns3:TrackPointExtension>
        </extensions>
      </trkpt>
      <trkpt lat="42.57061575539410114288330078125" lon="20.03373974002897739410400390625">
        <ele>1979</ele>
        <time>2026-06-15T13:30:39.000Z</time>
        <extensions>
          <ns3:TrackPointExtension>
            <ns3:atemp>25.0</ns3:atemp>
          </ns3:TrackPointExtension>
        </extensions>
      </trkpt>
      <trkpt lat="42.57061575539410114288330078125" lon="20.03373974002897739410400390625">
        <ele>1979.199951171875</ele>
        <time>2026-06-15T13:30:40.000Z</time>
        <extensions>
          <ns3:TrackPointExtension>
            <ns3:atemp>25.0</ns3:atemp>
          </ns3:TrackPointExtension>
        </extensions>
      </trkpt>
      <trkpt lat="42.57061575539410114288330078125" lon="20.03373974002897739410400390625">
        <ele>1979.199951171875</ele>
        <time>2026-06-15T13:30:41.000Z</time>
        <extensions>
          <ns3:TrackPointExtension>
            <ns3:atemp>25.0</ns3:atemp>
          </ns3:TrackPointExtension>
        </extensions>
      </trkpt>
      <trkpt lat="42.57061575539410114288330078125" lon="20.03373974002897739410400390625">
        <ele>1980.5999755859375</ele>
        <time>2026-06-15T13:30:42.000Z</time>
        <extensions>
          <ns3:TrackPointExtension>
            <ns3:atemp>25.0</ns3:atemp>
          </ns3:TrackPointExtension>
        </extensions>
      </trkpt>
      <trkpt lat="42.57061575539410114288330078125" lon="20.03373974002897739410400390625">
        <ele>1980.4000244140625</ele>
        <time>2026-06-15T13:30:43.000Z</time>
        <extensions>
          <ns3:TrackPointExtension>
            <ns3:atemp>25.0</ns3:atemp>
          </ns3:TrackPointExtension>
        </extensions>
      </trkpt>
      <trkpt lat="42.57061575539410114288330078125" lon="20.03373974002897739410400390625">
        <ele>1980.4000244140625</ele>
        <time>2026-06-15T13:30:44.000Z</time>
        <extensions>
          <ns3:TrackPointExtension>
            <ns3:atemp>25.0</ns3:atemp>
          </ns3:TrackPointExtension>
        </extensions>
      </trkpt>
      <trkpt lat="42.57061575539410114288330078125" lon="20.03373974002897739410400390625">
        <ele>1980.4000244140625</ele>
        <time>2026-06-15T13:30:45.000Z</time>
        <extensions>
          <ns3:TrackPointExtension>
            <ns3:atemp>25.0</ns3:atemp>
          </ns3:TrackPointExtension>
        </extensions>
      </trkpt>
      <trkpt lat="42.57061575539410114288330078125" lon="20.03373974002897739410400390625">
        <ele>1980.199951171875</ele>
        <time>2026-06-15T13:30:46.000Z</time>
        <extensions>
          <ns3:TrackPointExtension>
            <ns3:atemp>25.0</ns3:atemp>
          </ns3:TrackPointExtension>
        </extensions>
      </trkpt>
      <trkpt lat="42.57061575539410114288330078125" lon="20.03373974002897739410400390625">
        <ele>1980</ele>
        <time>2026-06-15T13:30:47.000Z</time>
        <extensions>
          <ns3:TrackPointExtension>
            <ns3:atemp>25.0</ns3:atemp>
          </ns3:TrackPointExtension>
        </extensions>
      </trkpt>
      <trkpt lat="42.57061575539410114288330078125" lon="20.03373974002897739410400390625">
        <ele>1979.800048828125</ele>
        <time>2026-06-15T13:30:48.000Z</time>
        <extensions>
          <ns3:TrackPointExtension>
            <ns3:atemp>25.0</ns3:atemp>
          </ns3:TrackPointExtension>
        </extensions>
      </trkpt>
      <trkpt lat="42.57061575539410114288330078125" lon="20.03373974002897739410400390625">
        <ele>1979.800048828125</ele>
        <time>2026-06-15T13:30:49.000Z</time>
        <extensions>
          <ns3:TrackPointExtension>
            <ns3:atemp>25.0</ns3:atemp>
          </ns3:TrackPointExtension>
        </extensions>
      </trkpt>
      <trkpt lat="42.57061575539410114288330078125" lon="20.03373974002897739410400390625">
        <ele>1979.800048828125</ele>
        <time>2026-06-15T13:30:50.000Z</time>
        <extensions>
          <ns3:TrackPointExtension>
            <ns3:atemp>25.0</ns3:atemp>
          </ns3:TrackPointExtension>
        </extensions>
      </trkpt>
      <trkpt lat="42.57061575539410114288330078125" lon="20.03373974002897739410400390625">
        <ele>1980</ele>
        <time>2026-06-15T13:30:51.000Z</time>
        <extensions>
          <ns3:TrackPointExtension>
            <ns3:atemp>25.0</ns3:atemp>
          </ns3:TrackPointExtension>
        </extensions>
      </trkpt>
      <trkpt lat="42.57061575539410114288330078125" lon="20.03373974002897739410400390625">
        <ele>1980</ele>
        <time>2026-06-15T13:30:52.000Z</time>
        <extensions>
          <ns3:TrackPointExtension>
            <ns3:atemp>25.0</ns3:atemp>
          </ns3:TrackPointExtension>
        </extensions>
      </trkpt>
      <trkpt lat="42.57061575539410114288330078125" lon="20.03373974002897739410400390625">
        <ele>1980</ele>
        <time>2026-06-15T13:30:53.000Z</time>
        <extensions>
          <ns3:TrackPointExtension>
            <ns3:atemp>25.0</ns3:atemp>
          </ns3:TrackPointExtension>
        </extensions>
      </trkpt>
      <trkpt lat="42.57061575539410114288330078125" lon="20.03373974002897739410400390625">
        <ele>1980</ele>
        <time>2026-06-15T13:30:54.000Z</time>
        <extensions>
          <ns3:TrackPointExtension>
            <ns3:atemp>25.0</ns3:atemp>
          </ns3:TrackPointExtension>
        </extensions>
      </trkpt>
      <trkpt lat="42.57061575539410114288330078125" lon="20.03373974002897739410400390625">
        <ele>1980</ele>
        <time>2026-06-15T13:30:55.000Z</time>
        <extensions>
          <ns3:TrackPointExtension>
            <ns3:atemp>25.0</ns3:atemp>
          </ns3:TrackPointExtension>
        </extensions>
      </trkpt>
      <trkpt lat="42.57061575539410114288330078125" lon="20.03373974002897739410400390625">
        <ele>1980</ele>
        <time>2026-06-15T13:30:56.000Z</time>
        <extensions>
          <ns3:TrackPointExtension>
            <ns3:atemp>25.0</ns3:atemp>
          </ns3:TrackPointExtension>
        </extensions>
      </trkpt>
      <trkpt lat="42.57061575539410114288330078125" lon="20.03373974002897739410400390625">
        <ele>1980</ele>
        <time>2026-06-15T13:30:57.000Z</time>
        <extensions>
          <ns3:TrackPointExtension>
            <ns3:atemp>25.0</ns3:atemp>
          </ns3:TrackPointExtension>
        </extensions>
      </trkpt>
      <trkpt lat="42.57061575539410114288330078125" lon="20.03373974002897739410400390625">
        <ele>1980</ele>
        <time>2026-06-15T13:30:58.000Z</time>
        <extensions>
          <ns3:TrackPointExtension>
            <ns3:atemp>25.0</ns3:atemp>
          </ns3:TrackPointExtension>
        </extensions>
      </trkpt>
      <trkpt lat="42.57061575539410114288330078125" lon="20.03373974002897739410400390625">
        <ele>1980</ele>
        <time>2026-06-15T13:30:59.000Z</time>
        <extensions>
          <ns3:TrackPointExtension>
            <ns3:atemp>25.0</ns3:atemp>
          </ns3:TrackPointExtension>
        </extensions>
      </trkpt>
      <trkpt lat="42.57061575539410114288330078125" lon="20.03373974002897739410400390625">
        <ele>1980</ele>
        <time>2026-06-15T13:31:00.000Z</time>
        <extensions>
          <ns3:TrackPointExtension>
            <ns3:atemp>25.0</ns3:atemp>
          </ns3:TrackPointExtension>
        </extensions>
      </trkpt>
      <trkpt lat="42.57061575539410114288330078125" lon="20.03373974002897739410400390625">
        <ele>1980</ele>
        <time>2026-06-15T13:31:01.000Z</time>
        <extensions>
          <ns3:TrackPointExtension>
            <ns3:atemp>25.0</ns3:atemp>
          </ns3:TrackPointExtension>
        </extensions>
      </trkpt>
      <trkpt lat="42.57061575539410114288330078125" lon="20.03373974002897739410400390625">
        <ele>1980</ele>
        <time>2026-06-15T13:31:02.000Z</time>
        <extensions>
          <ns3:TrackPointExtension>
            <ns3:atemp>25.0</ns3:atemp>
          </ns3:TrackPointExtension>
        </extensions>
      </trkpt>
      <trkpt lat="42.57061575539410114288330078125" lon="20.03373974002897739410400390625">
        <ele>1979.800048828125</ele>
        <time>2026-06-15T13:31:03.000Z</time>
        <extensions>
          <ns3:TrackPointExtension>
            <ns3:atemp>25.0</ns3:atemp>
          </ns3:TrackPointExtension>
        </extensions>
      </trkpt>
      <trkpt lat="42.57061575539410114288330078125" lon="20.03373974002897739410400390625">
        <ele>1979.800048828125</ele>
        <time>2026-06-15T13:31:04.000Z</time>
        <extensions>
          <ns3:TrackPointExtension>
            <ns3:atemp>25.0</ns3:atemp>
          </ns3:TrackPointExtension>
        </extensions>
      </trkpt>
      <trkpt lat="42.57061575539410114288330078125" lon="20.03373974002897739410400390625">
        <ele>1979.5999755859375</ele>
        <time>2026-06-15T13:31:05.000Z</time>
        <extensions>
          <ns3:TrackPointExtension>
            <ns3:atemp>25.0</ns3:atemp>
          </ns3:TrackPointExtension>
        </extensions>
      </trkpt>
      <trkpt lat="42.57061575539410114288330078125" lon="20.03373974002897739410400390625">
        <ele>1979.4000244140625</ele>
        <time>2026-06-15T13:31:06.000Z</time>
        <extensions>
          <ns3:TrackPointExtension>
            <ns3:atemp>25.0</ns3:atemp>
          </ns3:TrackPointExtension>
        </extensions>
      </trkpt>
      <trkpt lat="42.57061575539410114288330078125" lon="20.03373974002897739410400390625">
        <ele>1979.4000244140625</ele>
        <time>2026-06-15T13:31:07.000Z</time>
        <extensions>
          <ns3:TrackPointExtension>
            <ns3:atemp>25.0</ns3:atemp>
          </ns3:TrackPointExtension>
        </extensions>
      </trkpt>
      <trkpt lat="42.57061575539410114288330078125" lon="20.03373974002897739410400390625">
        <ele>1980.199951171875</ele>
        <time>2026-06-15T13:31:08.000Z</time>
        <extensions>
          <ns3:TrackPointExtension>
            <ns3:atemp>25.0</ns3:atemp>
          </ns3:TrackPointExtension>
        </extensions>
      </trkpt>
      <trkpt lat="42.57061575539410114288330078125" lon="20.03373974002897739410400390625">
        <ele>1980.5999755859375</ele>
        <time>2026-06-15T13:31:09.000Z</time>
        <extensions>
          <ns3:TrackPointExtension>
            <ns3:atemp>25.0</ns3:atemp>
          </ns3:TrackPointExtension>
        </extensions>
      </trkpt>
      <trkpt lat="42.57061575539410114288330078125" lon="20.03373974002897739410400390625">
        <ele>1980.5999755859375</ele>
        <time>2026-06-15T13:31:10.000Z</time>
        <extensions>
          <ns3:TrackPointExtension>
            <ns3:atemp>25.0</ns3:atemp>
          </ns3:TrackPointExtension>
        </extensions>
      </trkpt>
      <trkpt lat="42.57061575539410114288330078125" lon="20.03373974002897739410400390625">
        <ele>1980.800048828125</ele>
        <time>2026-06-15T13:31:11.000Z</time>
        <extensions>
          <ns3:TrackPointExtension>
            <ns3:atemp>25.0</ns3:atemp>
          </ns3:TrackPointExtension>
        </extensions>
      </trkpt>
      <trkpt lat="42.57061575539410114288330078125" lon="20.03373974002897739410400390625">
        <ele>1980.800048828125</ele>
        <time>2026-06-15T13:31:12.000Z</time>
        <extensions>
          <ns3:TrackPointExtension>
            <ns3:atemp>25.0</ns3:atemp>
          </ns3:TrackPointExtension>
        </extensions>
      </trkpt>
      <trkpt lat="42.57061575539410114288330078125" lon="20.03373974002897739410400390625">
        <ele>1980.5999755859375</ele>
        <time>2026-06-15T13:31:13.000Z</time>
        <extensions>
          <ns3:TrackPointExtension>
            <ns3:atemp>25.0</ns3:atemp>
          </ns3:TrackPointExtension>
        </extensions>
      </trkpt>
      <trkpt lat="42.57061575539410114288330078125" lon="20.03373974002897739410400390625">
        <ele>1980.199951171875</ele>
        <time>2026-06-15T13:31:14.000Z</time>
        <extensions>
          <ns3:TrackPointExtension>
            <ns3:atemp>25.0</ns3:atemp>
          </ns3:TrackPointExtension>
        </extensions>
      </trkpt>
      <trkpt lat="42.57061575539410114288330078125" lon="20.03373974002897739410400390625">
        <ele>1980.199951171875</ele>
        <time>2026-06-15T13:31:15.000Z</time>
        <extensions>
          <ns3:TrackPointExtension>
            <ns3:atemp>25.0</ns3:atemp>
          </ns3:TrackPointExtension>
        </extensions>
      </trkpt>
      <trkpt lat="42.57061575539410114288330078125" lon="20.03373974002897739410400390625">
        <ele>1980.199951171875</ele>
        <time>2026-06-15T13:31:16.000Z</time>
        <extensions>
          <ns3:TrackPointExtension>
            <ns3:atemp>25.0</ns3:atemp>
          </ns3:TrackPointExtension>
        </extensions>
      </trkpt>
      <trkpt lat="42.57061575539410114288330078125" lon="20.03373974002897739410400390625">
        <ele>1980.4000244140625</ele>
        <time>2026-06-15T13:31:17.000Z</time>
        <extensions>
          <ns3:TrackPointExtension>
            <ns3:atemp>25.0</ns3:atemp>
          </ns3:TrackPointExtension>
        </extensions>
      </trkpt>
      <trkpt lat="42.57061575539410114288330078125" lon="20.03373974002897739410400390625">
        <ele>1980.5999755859375</ele>
        <time>2026-06-15T13:31:18.000Z</time>
        <extensions>
          <ns3:TrackPointExtension>
            <ns3:atemp>25.0</ns3:atemp>
          </ns3:TrackPointExtension>
        </extensions>
      </trkpt>
      <trkpt lat="42.57061575539410114288330078125" lon="20.03373974002897739410400390625">
        <ele>1980.800048828125</ele>
        <time>2026-06-15T13:31:19.000Z</time>
        <extensions>
          <ns3:TrackPointExtension>
            <ns3:atemp>25.0</ns3:atemp>
          </ns3:TrackPointExtension>
        </extensions>
      </trkpt>
      <trkpt lat="42.57061575539410114288330078125" lon="20.03373974002897739410400390625">
        <ele>1981</ele>
        <time>2026-06-15T13:31:20.000Z</time>
        <extensions>
          <ns3:TrackPointExtension>
            <ns3:atemp>25.0</ns3:atemp>
          </ns3:TrackPointExtension>
        </extensions>
      </trkpt>
      <trkpt lat="42.57061575539410114288330078125" lon="20.03373974002897739410400390625">
        <ele>1981</ele>
        <time>2026-06-15T13:31:21.000Z</time>
        <extensions>
          <ns3:TrackPointExtension>
            <ns3:atemp>25.0</ns3:atemp>
          </ns3:TrackPointExtension>
        </extensions>
      </trkpt>
      <trkpt lat="42.57061575539410114288330078125" lon="20.03373974002897739410400390625">
        <ele>1981</ele>
        <time>2026-06-15T13:31:22.000Z</time>
        <extensions>
          <ns3:TrackPointExtension>
            <ns3:atemp>25.0</ns3:atemp>
          </ns3:TrackPointExtension>
        </extensions>
      </trkpt>
      <trkpt lat="42.57061575539410114288330078125" lon="20.03373974002897739410400390625">
        <ele>1980.800048828125</ele>
        <time>2026-06-15T13:31:23.000Z</time>
        <extensions>
          <ns3:TrackPointExtension>
            <ns3:atemp>25.0</ns3:atemp>
          </ns3:TrackPointExtension>
        </extensions>
      </trkpt>
      <trkpt lat="42.57061575539410114288330078125" lon="20.03373974002897739410400390625">
        <ele>1980.5999755859375</ele>
        <time>2026-06-15T13:31:24.000Z</time>
        <extensions>
          <ns3:TrackPointExtension>
            <ns3:atemp>25.0</ns3:atemp>
          </ns3:TrackPointExtension>
        </extensions>
      </trkpt>
      <trkpt lat="42.57061793468892574310302734375" lon="20.03374300897121429443359375">
        <ele>1980.4000244140625</ele>
        <time>2026-06-15T13:31:25.000Z</time>
        <extensions>
          <ns3:TrackPointExtension>
            <ns3:atemp>25.0</ns3:atemp>
          </ns3:TrackPointExtension>
        </extensions>
      </trkpt>
      <trkpt lat="42.57061575539410114288330078125" lon="20.03373974002897739410400390625">
        <ele>1980.4000244140625</ele>
        <time>2026-06-15T13:31:26.000Z</time>
        <extensions>
          <ns3:TrackPointExtension>
            <ns3:atemp>25.0</ns3:atemp>
          </ns3:TrackPointExtension>
        </extensions>
      </trkpt>
      <trkpt lat="42.5706238858401775360107421875" lon="20.03375566564500331878662109375">
        <ele>1980.199951171875</ele>
        <time>2026-06-15T13:31:27.000Z</time>
        <extensions>
          <ns3:TrackPointExtension>
            <ns3:atemp>25.0</ns3:atemp>
          </ns3:TrackPointExtension>
        </extensions>
      </trkpt>
      <trkpt lat="42.57062472403049468994140625" lon="20.03375566564500331878662109375">
        <ele>1980.199951171875</ele>
        <time>2026-06-15T13:31:28.000Z</time>
        <extensions>
          <ns3:TrackPointExtension>
            <ns3:atemp>25.0</ns3:atemp>
          </ns3:TrackPointExtension>
        </extensions>
      </trkpt>
      <trkpt lat="42.57062472403049468994140625" lon="20.03375566564500331878662109375">
        <ele>1981</ele>
        <time>2026-06-15T13:31:29.000Z</time>
        <extensions>
          <ns3:TrackPointExtension>
            <ns3:atemp>25.0</ns3:atemp>
          </ns3:TrackPointExtension>
        </extensions>
      </trkpt>
      <trkpt lat="42.57062472403049468994140625" lon="20.03375566564500331878662109375">
        <ele>1981.199951171875</ele>
        <time>2026-06-15T13:31:30.000Z</time>
        <extensions>
          <ns3:TrackPointExtension>
            <ns3:atemp>25.0</ns3:atemp>
          </ns3:TrackPointExtension>
        </extensions>
      </trkpt>
      <trkpt lat="42.57062472403049468994140625" lon="20.03375566564500331878662109375">
        <ele>1981.199951171875</ele>
        <time>2026-06-15T13:31:31.000Z</time>
        <extensions>
          <ns3:TrackPointExtension>
            <ns3:atemp>25.0</ns3:atemp>
          </ns3:TrackPointExtension>
        </extensions>
      </trkpt>
      <trkpt lat="42.57062472403049468994140625" lon="20.03375566564500331878662109375">
        <ele>1981.199951171875</ele>
        <time>2026-06-15T13:31:32.000Z</time>
        <extensions>
          <ns3:TrackPointExtension>
            <ns3:atemp>25.0</ns3:atemp>
          </ns3:TrackPointExtension>
        </extensions>
      </trkpt>
      <trkpt lat="42.57062472403049468994140625" lon="20.03375566564500331878662109375">
        <ele>1981</ele>
        <time>2026-06-15T13:31:33.000Z</time>
        <extensions>
          <ns3:TrackPointExtension>
            <ns3:atemp>25.0</ns3:atemp>
          </ns3:TrackPointExtension>
        </extensions>
      </trkpt>
      <trkpt lat="42.57062472403049468994140625" lon="20.03375566564500331878662109375">
        <ele>1981</ele>
        <time>2026-06-15T13:31:34.000Z</time>
        <extensions>
          <ns3:TrackPointExtension>
            <ns3:atemp>25.0</ns3:atemp>
          </ns3:TrackPointExtension>
        </extensions>
      </trkpt>
      <trkpt lat="42.57062472403049468994140625" lon="20.03375566564500331878662109375">
        <ele>1980.5999755859375</ele>
        <time>2026-06-15T13:31:35.000Z</time>
        <extensions>
          <ns3:TrackPointExtension>
            <ns3:atemp>25.0</ns3:atemp>
          </ns3:TrackPointExtension>
        </extensions>
      </trkpt>
      <trkpt lat="42.57062472403049468994140625" lon="20.03375566564500331878662109375">
        <ele>1980.5999755859375</ele>
        <time>2026-06-15T13:31:36.000Z</time>
        <extensions>
          <ns3:TrackPointExtension>
            <ns3:atemp>25.0</ns3:atemp>
          </ns3:TrackPointExtension>
        </extensions>
      </trkpt>
      <trkpt lat="42.57062472403049468994140625" lon="20.03375566564500331878662109375">
        <ele>1980.4000244140625</ele>
        <time>2026-06-15T13:31:37.000Z</time>
        <extensions>
          <ns3:TrackPointExtension>
            <ns3:atemp>25.0</ns3:atemp>
          </ns3:TrackPointExtension>
        </extensions>
      </trkpt>
      <trkpt lat="42.57062472403049468994140625" lon="20.03375566564500331878662109375">
        <ele>1980.199951171875</ele>
        <time>2026-06-15T13:31:38.000Z</time>
        <extensions>
          <ns3:TrackPointExtension>
            <ns3:atemp>25.0</ns3:atemp>
          </ns3:TrackPointExtension>
        </extensions>
      </trkpt>
      <trkpt lat="42.5706262327730655670166015625" lon="20.0337562523782253265380859375">
        <ele>1980</ele>
        <time>2026-06-15T13:31:39.000Z</time>
        <extensions>
          <ns3:TrackPointExtension>
            <ns3:atemp>25.0</ns3:atemp>
          </ns3:TrackPointExtension>
        </extensions>
      </trkpt>
      <trkpt lat="42.570628412067890167236328125" lon="20.0337552465498447418212890625">
        <ele>1979.800048828125</ele>
        <time>2026-06-15T13:31:40.000Z</time>
        <extensions>
          <ns3:TrackPointExtension>
            <ns3:atemp>25.0</ns3:atemp>
          </ns3:TrackPointExtension>
        </extensions>
      </trkpt>
      <trkpt lat="42.570626400411128997802734375" lon="20.03375130705535411834716796875">
        <ele>1979.4000244140625</ele>
        <time>2026-06-15T13:31:41.000Z</time>
        <extensions>
          <ns3:TrackPointExtension>
            <ns3:atemp>25.0</ns3:atemp>
          </ns3:TrackPointExtension>
        </extensions>
      </trkpt>
      <trkpt lat="42.5706227123737335205078125" lon="20.03374057821929454803466796875">
        <ele>1979</ele>
        <time>2026-06-15T13:31:42.000Z</time>
        <extensions>
          <ns3:TrackPointExtension>
            <ns3:atemp>25.0</ns3:atemp>
          </ns3:TrackPointExtension>
        </extensions>
      </trkpt>
      <trkpt lat="42.57062195800244808197021484375" lon="20.0337290950119495391845703125">
        <ele>1978.800048828125</ele>
        <time>2026-06-15T13:31:43.000Z</time>
        <extensions>
          <ns3:TrackPointExtension>
            <ns3:atemp>25.0</ns3:atemp>
          </ns3:TrackPointExtension>
        </extensions>
      </trkpt>
      <trkpt lat="42.57062145508825778961181640625" lon="20.0337227247655391693115234375">
        <ele>1978.4000244140625</ele>
        <time>2026-06-15T13:31:44.000Z</time>
        <extensions>
          <ns3:TrackPointExtension>
            <ns3:atemp>25.0</ns3:atemp>
          </ns3:TrackPointExtension>
        </extensions>
      </trkpt>
      <trkpt lat="42.57062137126922607421875" lon="20.033722557127475738525390625">
        <ele>1978.4000244140625</ele>
        <time>2026-06-15T13:31:45.000Z</time>
        <extensions>
          <ns3:TrackPointExtension>
            <ns3:atemp>25.0</ns3:atemp>
          </ns3:TrackPointExtension>
        </extensions>
      </trkpt>
      <trkpt lat="42.57061625830829143524169921875" lon="20.033706463873386383056640625">
        <ele>1978.5999755859375</ele>
        <time>2026-06-15T13:31:46.000Z</time>
        <extensions>
          <ns3:TrackPointExtension>
            <ns3:atemp>25.0</ns3:atemp>
          </ns3:TrackPointExtension>
        </extensions>
      </trkpt>
      <trkpt lat="42.57060854695737361907958984375" lon="20.033692382276058197021484375">
        <ele>1978.800048828125</ele>
        <time>2026-06-15T13:31:47.000Z</time>
        <extensions>
          <ns3:TrackPointExtension>
            <ns3:atemp>25.0</ns3:atemp>
          </ns3:TrackPointExtension>
        </extensions>
      </trkpt>
      <trkpt lat="42.5706017576158046722412109375" lon="20.03368022851645946502685546875">
        <ele>1978.800048828125</ele>
        <time>2026-06-15T13:31:48.000Z</time>
        <extensions>
          <ns3:TrackPointExtension>
            <ns3:atemp>25.0</ns3:atemp>
          </ns3:TrackPointExtension>
        </extensions>
      </trkpt>
      <trkpt lat="42.5706017576158046722412109375" lon="20.03368022851645946502685546875">
        <ele>1979</ele>
        <time>2026-06-15T13:31:49.000Z</time>
        <extensions>
          <ns3:TrackPointExtension>
            <ns3:atemp>25.0</ns3:atemp>
          </ns3:TrackPointExtension>
        </extensions>
      </trkpt>
      <trkpt lat="42.57060117088258266448974609375" lon="20.03368006087839603424072265625">
        <ele>1978.800048828125</ele>
        <time>2026-06-15T13:31:50.000Z</time>
        <extensions>
          <ns3:TrackPointExtension>
            <ns3:atemp>25.0</ns3:atemp>
          </ns3:TrackPointExtension>
        </extensions>
      </trkpt>
      <trkpt lat="42.57058725692331790924072265625" lon="20.03367352299392223358154296875">
        <ele>1978.800048828125</ele>
        <time>2026-06-15T13:31:51.000Z</time>
        <extensions>
          <ns3:TrackPointExtension>
            <ns3:atemp>25.0</ns3:atemp>
          </ns3:TrackPointExtension>
        </extensions>
      </trkpt>
      <trkpt lat="42.570576779544353485107421875" lon="20.0336647219955921173095703125">
        <ele>1978.800048828125</ele>
        <time>2026-06-15T13:31:52.000Z</time>
        <extensions>
          <ns3:TrackPointExtension>
            <ns3:atemp>25.0</ns3:atemp>
          </ns3:TrackPointExtension>
        </extensions>
      </trkpt>
      <trkpt lat="42.57056814618408679962158203125" lon="20.03365793265402317047119140625">
        <ele>1978.5999755859375</ele>
        <time>2026-06-15T13:31:53.000Z</time>
        <extensions>
          <ns3:TrackPointExtension>
            <ns3:atemp>25.0</ns3:atemp>
          </ns3:TrackPointExtension>
        </extensions>
      </trkpt>
      <trkpt lat="42.5705556571483612060546875" lon="20.03365449607372283935546875">
        <ele>1978.5999755859375</ele>
        <time>2026-06-15T13:31:54.000Z</time>
        <extensions>
          <ns3:TrackPointExtension>
            <ns3:atemp>25.0</ns3:atemp>
          </ns3:TrackPointExtension>
        </extensions>
      </trkpt>
      <trkpt lat="42.57054769434034824371337890625" lon="20.0336496345698833465576171875">
        <ele>1978.800048828125</ele>
        <time>2026-06-15T13:31:55.000Z</time>
        <extensions>
          <ns3:TrackPointExtension>
            <ns3:atemp>25.0</ns3:atemp>
          </ns3:TrackPointExtension>
        </extensions>
      </trkpt>
      <trkpt lat="42.57054333575069904327392578125" lon="20.03364510834217071533203125">
        <ele>1979</ele>
        <time>2026-06-15T13:31:56.000Z</time>
        <extensions>
          <ns3:TrackPointExtension>
            <ns3:atemp>25.0</ns3:atemp>
          </ns3:TrackPointExtension>
        </extensions>
      </trkpt>
      <trkpt lat="42.57054300047457218170166015625" lon="20.03364502452313899993896484375">
        <ele>1979.199951171875</ele>
        <time>2026-06-15T13:31:57.000Z</time>
        <extensions>
          <ns3:TrackPointExtension>
            <ns3:atemp>25.0</ns3:atemp>
          </ns3:TrackPointExtension>
        </extensions>
      </trkpt>
      <trkpt lat="42.57054283283650875091552734375" lon="20.03364485688507556915283203125">
        <ele>1979.5999755859375</ele>
        <time>2026-06-15T13:31:58.000Z</time>
        <extensions>
          <ns3:TrackPointExtension>
            <ns3:atemp>25.0</ns3:atemp>
          </ns3:TrackPointExtension>
        </extensions>
      </trkpt>
      <trkpt lat="42.57054300047457218170166015625" lon="20.03364502452313899993896484375">
        <ele>1980.4000244140625</ele>
        <time>2026-06-15T13:31:59.000Z</time>
        <extensions>
          <ns3:TrackPointExtension>
            <ns3:atemp>25.0</ns3:atemp>
          </ns3:TrackPointExtension>
        </extensions>
      </trkpt>
      <trkpt lat="42.57054300047457218170166015625" lon="20.03364502452313899993896484375">
        <ele>1981.199951171875</ele>
        <time>2026-06-15T13:32:00.000Z</time>
        <extensions>
          <ns3:TrackPointExtension>
            <ns3:atemp>25.0</ns3:atemp>
          </ns3:TrackPointExtension>
        </extensions>
      </trkpt>
      <trkpt lat="42.57054300047457218170166015625" lon="20.03364502452313899993896484375">
        <ele>1982</ele>
        <time>2026-06-15T13:32:01.000Z</time>
        <extensions>
          <ns3:TrackPointExtension>
            <ns3:atemp>25.0</ns3:atemp>
          </ns3:TrackPointExtension>
        </extensions>
      </trkpt>
      <trkpt lat="42.57054300047457218170166015625" lon="20.03364502452313899993896484375">
        <ele>1982.800048828125</ele>
        <time>2026-06-15T13:32:02.000Z</time>
        <extensions>
          <ns3:TrackPointExtension>
            <ns3:atemp>25.0</ns3:atemp>
          </ns3:TrackPointExtension>
        </extensions>
      </trkpt>
      <trkpt lat="42.57054300047457218170166015625" lon="20.03364502452313899993896484375">
        <ele>1983.4000244140625</ele>
        <time>2026-06-15T13:32:03.000Z</time>
        <extensions>
          <ns3:TrackPointExtension>
            <ns3:atemp>25.0</ns3:atemp>
          </ns3:TrackPointExtension>
        </extensions>
      </trkpt>
      <trkpt lat="42.57054300047457218170166015625" lon="20.03364502452313899993896484375">
        <ele>1983.4000244140625</ele>
        <time>2026-06-15T13:32:04.000Z</time>
        <extensions>
          <ns3:TrackPointExtension>
            <ns3:atemp>25.0</ns3:atemp>
          </ns3:TrackPointExtension>
        </extensions>
      </trkpt>
      <trkpt lat="42.57054300047457218170166015625" lon="20.03364502452313899993896484375">
        <ele>1983.5999755859375</ele>
        <time>2026-06-15T13:32:05.000Z</time>
        <extensions>
          <ns3:TrackPointExtension>
            <ns3:atemp>25.0</ns3:atemp>
          </ns3:TrackPointExtension>
        </extensions>
      </trkpt>
      <trkpt lat="42.57054300047457218170166015625" lon="20.03364502452313899993896484375">
        <ele>1983.5999755859375</ele>
        <time>2026-06-15T13:32:06.000Z</time>
        <extensions>
          <ns3:TrackPointExtension>
            <ns3:atemp>25.0</ns3:atemp>
          </ns3:TrackPointExtension>
        </extensions>
      </trkpt>
      <trkpt lat="42.57054300047457218170166015625" lon="20.03364502452313899993896484375">
        <ele>1983.5999755859375</ele>
        <time>2026-06-15T13:32:07.000Z</time>
        <extensions>
          <ns3:TrackPointExtension>
            <ns3:atemp>25.0</ns3:atemp>
          </ns3:TrackPointExtension>
        </extensions>
      </trkpt>
      <trkpt lat="42.57054300047457218170166015625" lon="20.03364502452313899993896484375">
        <ele>1983.4000244140625</ele>
        <time>2026-06-15T13:32:08.000Z</time>
        <extensions>
          <ns3:TrackPointExtension>
            <ns3:atemp>25.0</ns3:atemp>
          </ns3:TrackPointExtension>
        </extensions>
      </trkpt>
      <trkpt lat="42.57054300047457218170166015625" lon="20.03364502452313899993896484375">
        <ele>1983.4000244140625</ele>
        <time>2026-06-15T13:32:09.000Z</time>
        <extensions>
          <ns3:TrackPointExtension>
            <ns3:atemp>25.0</ns3:atemp>
          </ns3:TrackPointExtension>
        </extensions>
      </trkpt>
      <trkpt lat="42.57054300047457218170166015625" lon="20.03364502452313899993896484375">
        <ele>1983</ele>
        <time>2026-06-15T13:32:10.000Z</time>
        <extensions>
          <ns3:TrackPointExtension>
            <ns3:atemp>25.0</ns3:atemp>
          </ns3:TrackPointExtension>
        </extensions>
      </trkpt>
      <trkpt lat="42.57054300047457218170166015625" lon="20.03364502452313899993896484375">
        <ele>1982.800048828125</ele>
        <time>2026-06-15T13:32:11.000Z</time>
        <extensions>
          <ns3:TrackPointExtension>
            <ns3:atemp>25.0</ns3:atemp>
          </ns3:TrackPointExtension>
        </extensions>
      </trkpt>
      <trkpt lat="42.57054300047457218170166015625" lon="20.03364502452313899993896484375">
        <ele>1982.5999755859375</ele>
        <time>2026-06-15T13:32:12.000Z</time>
        <extensions>
          <ns3:TrackPointExtension>
            <ns3:atemp>25.0</ns3:atemp>
          </ns3:TrackPointExtension>
        </extensions>
      </trkpt>
      <trkpt lat="42.57054300047457218170166015625" lon="20.03364502452313899993896484375">
        <ele>1982.5999755859375</ele>
        <time>2026-06-15T13:32:13.000Z</time>
        <extensions>
          <ns3:TrackPointExtension>
            <ns3:atemp>25.0</ns3:atemp>
          </ns3:TrackPointExtension>
        </extensions>
      </trkpt>
      <trkpt lat="42.57054300047457218170166015625" lon="20.03364502452313899993896484375">
        <ele>1982.4000244140625</ele>
        <time>2026-06-15T13:32:14.000Z</time>
        <extensions>
          <ns3:TrackPointExtension>
            <ns3:atemp>25.0</ns3:atemp>
          </ns3:TrackPointExtension>
        </extensions>
      </trkpt>
      <trkpt lat="42.57054300047457218170166015625" lon="20.03364502452313899993896484375">
        <ele>1982.4000244140625</ele>
        <time>2026-06-15T13:32:15.000Z</time>
        <extensions>
          <ns3:TrackPointExtension>
            <ns3:atemp>25.0</ns3:atemp>
          </ns3:TrackPointExtension>
        </extensions>
      </trkpt>
      <trkpt lat="42.57054300047457218170166015625" lon="20.03364502452313899993896484375">
        <ele>1982.4000244140625</ele>
        <time>2026-06-15T13:32:16.000Z</time>
        <extensions>
          <ns3:TrackPointExtension>
            <ns3:atemp>25.0</ns3:atemp>
          </ns3:TrackPointExtension>
        </extensions>
      </trkpt>
      <trkpt lat="42.57054300047457218170166015625" lon="20.03364502452313899993896484375">
        <ele>1982.4000244140625</ele>
        <time>2026-06-15T13:32:17.000Z</time>
        <extensions>
          <ns3:TrackPointExtension>
            <ns3:atemp>25.0</ns3:atemp>
          </ns3:TrackPointExtension>
        </extensions>
      </trkpt>
      <trkpt lat="42.57054300047457218170166015625" lon="20.03364502452313899993896484375">
        <ele>1982.4000244140625</ele>
        <time>2026-06-15T13:32:18.000Z</time>
        <extensions>
          <ns3:TrackPointExtension>
            <ns3:atemp>25.0</ns3:atemp>
          </ns3:TrackPointExtension>
        </extensions>
      </trkpt>
      <trkpt lat="42.57054300047457218170166015625" lon="20.03364502452313899993896484375">
        <ele>1982.5999755859375</ele>
        <time>2026-06-15T13:32:19.000Z</time>
        <extensions>
          <ns3:TrackPointExtension>
            <ns3:atemp>25.0</ns3:atemp>
          </ns3:TrackPointExtension>
        </extensions>
      </trkpt>
      <trkpt lat="42.57054300047457218170166015625" lon="20.03364502452313899993896484375">
        <ele>1982.4000244140625</ele>
        <time>2026-06-15T13:32:20.000Z</time>
        <extensions>
          <ns3:TrackPointExtension>
            <ns3:atemp>25.0</ns3:atemp>
          </ns3:TrackPointExtension>
        </extensions>
      </trkpt>
      <trkpt lat="42.57054300047457218170166015625" lon="20.03364502452313899993896484375">
        <ele>1982.4000244140625</ele>
        <time>2026-06-15T13:32:21.000Z</time>
        <extensions>
          <ns3:TrackPointExtension>
            <ns3:atemp>25.0</ns3:atemp>
          </ns3:TrackPointExtension>
        </extensions>
      </trkpt>
      <trkpt lat="42.57054300047457218170166015625" lon="20.03364502452313899993896484375">
        <ele>1982.4000244140625</ele>
        <time>2026-06-15T13:32:22.000Z</time>
        <extensions>
          <ns3:TrackPointExtension>
            <ns3:atemp>25.0</ns3:atemp>
          </ns3:TrackPointExtension>
        </extensions>
      </trkpt>
      <trkpt lat="42.57054300047457218170166015625" lon="20.03364502452313899993896484375">
        <ele>1982.4000244140625</ele>
        <time>2026-06-15T13:32:23.000Z</time>
        <extensions>
          <ns3:TrackPointExtension>
            <ns3:atemp>25.0</ns3:atemp>
          </ns3:TrackPointExtension>
        </extensions>
      </trkpt>
      <trkpt lat="42.57054300047457218170166015625" lon="20.03364502452313899993896484375">
        <ele>1982.199951171875</ele>
        <time>2026-06-15T13:32:24.000Z</time>
        <extensions>
          <ns3:TrackPointExtension>
            <ns3:atemp>25.0</ns3:atemp>
          </ns3:TrackPointExtension>
        </extensions>
      </trkpt>
      <trkpt lat="42.57054300047457218170166015625" lon="20.03364502452313899993896484375">
        <ele>1982.199951171875</ele>
        <time>2026-06-15T13:32:25.000Z</time>
        <extensions>
          <ns3:TrackPointExtension>
            <ns3:atemp>25.0</ns3:atemp>
          </ns3:TrackPointExtension>
        </extensions>
      </trkpt>
      <trkpt lat="42.57054300047457218170166015625" lon="20.03364502452313899993896484375">
        <ele>1982.199951171875</ele>
        <time>2026-06-15T13:32:26.000Z</time>
        <extensions>
          <ns3:TrackPointExtension>
            <ns3:atemp>25.0</ns3:atemp>
          </ns3:TrackPointExtension>
        </extensions>
      </trkpt>
      <trkpt lat="42.57054300047457218170166015625" lon="20.03364502452313899993896484375">
        <ele>1982.199951171875</ele>
        <time>2026-06-15T13:32:27.000Z</time>
        <extensions>
          <ns3:TrackPointExtension>
            <ns3:atemp>25.0</ns3:atemp>
          </ns3:TrackPointExtension>
        </extensions>
      </trkpt>
      <trkpt lat="42.57054300047457218170166015625" lon="20.03364502452313899993896484375">
        <ele>1982.4000244140625</ele>
        <time>2026-06-15T13:32:28.000Z</time>
        <extensions>
          <ns3:TrackPointExtension>
            <ns3:atemp>25.0</ns3:atemp>
          </ns3:TrackPointExtension>
        </extensions>
      </trkpt>
      <trkpt lat="42.57054300047457218170166015625" lon="20.03364502452313899993896484375">
        <ele>1982.4000244140625</ele>
        <time>2026-06-15T13:32:29.000Z</time>
        <extensions>
          <ns3:TrackPointExtension>
            <ns3:atemp>25.0</ns3:atemp>
          </ns3:TrackPointExtension>
        </extensions>
      </trkpt>
      <trkpt lat="42.57054300047457218170166015625" lon="20.03364502452313899993896484375">
        <ele>1982.4000244140625</ele>
        <time>2026-06-15T13:32:30.000Z</time>
        <extensions>
          <ns3:TrackPointExtension>
            <ns3:atemp>25.0</ns3:atemp>
          </ns3:TrackPointExtension>
        </extensions>
      </trkpt>
      <trkpt lat="42.57054300047457218170166015625" lon="20.03364502452313899993896484375">
        <ele>1982.4000244140625</ele>
        <time>2026-06-15T13:32:31.000Z</time>
        <extensions>
          <ns3:TrackPointExtension>
            <ns3:atemp>25.0</ns3:atemp>
          </ns3:TrackPointExtension>
        </extensions>
      </trkpt>
      <trkpt lat="42.57054300047457218170166015625" lon="20.03364502452313899993896484375">
        <ele>1982.4000244140625</ele>
        <time>2026-06-15T13:32:32.000Z</time>
        <extensions>
          <ns3:TrackPointExtension>
            <ns3:atemp>25.0</ns3:atemp>
          </ns3:TrackPointExtension>
        </extensions>
      </trkpt>
      <trkpt lat="42.57054300047457218170166015625" lon="20.03364502452313899993896484375">
        <ele>1982.4000244140625</ele>
        <time>2026-06-15T13:32:33.000Z</time>
        <extensions>
          <ns3:TrackPointExtension>
            <ns3:atemp>25.0</ns3:atemp>
          </ns3:TrackPointExtension>
        </extensions>
      </trkpt>
      <trkpt lat="42.57054300047457218170166015625" lon="20.03364502452313899993896484375">
        <ele>1982.4000244140625</ele>
        <time>2026-06-15T13:32:34.000Z</time>
        <extensions>
          <ns3:TrackPointExtension>
            <ns3:atemp>25.0</ns3:atemp>
          </ns3:TrackPointExtension>
        </extensions>
      </trkpt>
      <trkpt lat="42.570540569722652435302734375" lon="20.03364510834217071533203125">
        <ele>1982.199951171875</ele>
        <time>2026-06-15T13:32:35.000Z</time>
        <extensions>
          <ns3:TrackPointExtension>
            <ns3:atemp>25.0</ns3:atemp>
          </ns3:TrackPointExtension>
        </extensions>
      </trkpt>
      <trkpt lat="42.570543922483921051025390625" lon="20.0336466170847415924072265625">
        <ele>1982</ele>
        <time>2026-06-15T13:32:36.000Z</time>
        <extensions>
          <ns3:TrackPointExtension>
            <ns3:atemp>25.0</ns3:atemp>
          </ns3:TrackPointExtension>
        </extensions>
      </trkpt>
      <trkpt lat="42.57054300047457218170166015625" lon="20.03364502452313899993896484375">
        <ele>1982</ele>
        <time>2026-06-15T13:32:37.000Z</time>
        <extensions>
          <ns3:TrackPointExtension>
            <ns3:atemp>25.0</ns3:atemp>
          </ns3:TrackPointExtension>
        </extensions>
      </trkpt>
      <trkpt lat="42.57054300047457218170166015625" lon="20.03364502452313899993896484375">
        <ele>1982</ele>
        <time>2026-06-15T13:32:38.000Z</time>
        <extensions>
          <ns3:TrackPointExtension>
            <ns3:atemp>25.0</ns3:atemp>
          </ns3:TrackPointExtension>
        </extensions>
      </trkpt>
      <trkpt lat="42.57054300047457218170166015625" lon="20.03364502452313899993896484375">
        <ele>1982</ele>
        <time>2026-06-15T13:32:39.000Z</time>
        <extensions>
          <ns3:TrackPointExtension>
            <ns3:atemp>25.0</ns3:atemp>
          </ns3:TrackPointExtension>
        </extensions>
      </trkpt>
      <trkpt lat="42.57054300047457218170166015625" lon="20.03364502452313899993896484375">
        <ele>1982.199951171875</ele>
        <time>2026-06-15T13:32:40.000Z</time>
        <extensions>
          <ns3:TrackPointExtension>
            <ns3:atemp>25.0</ns3:atemp>
          </ns3:TrackPointExtension>
        </extensions>
      </trkpt>
      <trkpt lat="42.57054300047457218170166015625" lon="20.03364502452313899993896484375">
        <ele>1982.4000244140625</ele>
        <time>2026-06-15T13:32:41.000Z</time>
        <extensions>
          <ns3:TrackPointExtension>
            <ns3:atemp>25.0</ns3:atemp>
          </ns3:TrackPointExtension>
        </extensions>
      </trkpt>
      <trkpt lat="42.57054300047457218170166015625" lon="20.03364502452313899993896484375">
        <ele>1982.4000244140625</ele>
        <time>2026-06-15T13:32:42.000Z</time>
        <extensions>
          <ns3:TrackPointExtension>
            <ns3:atemp>25.0</ns3:atemp>
          </ns3:TrackPointExtension>
        </extensions>
      </trkpt>
      <trkpt lat="42.57054300047457218170166015625" lon="20.03364502452313899993896484375">
        <ele>1982.4000244140625</ele>
        <time>2026-06-15T13:32:43.000Z</time>
        <extensions>
          <ns3:TrackPointExtension>
            <ns3:atemp>25.0</ns3:atemp>
          </ns3:TrackPointExtension>
        </extensions>
      </trkpt>
      <trkpt lat="42.57054300047457218170166015625" lon="20.03364502452313899993896484375">
        <ele>1982.199951171875</ele>
        <time>2026-06-15T13:32:44.000Z</time>
        <extensions>
          <ns3:TrackPointExtension>
            <ns3:atemp>25.0</ns3:atemp>
          </ns3:TrackPointExtension>
        </extensions>
      </trkpt>
      <trkpt lat="42.57054300047457218170166015625" lon="20.03364502452313899993896484375">
        <ele>1982</ele>
        <time>2026-06-15T13:32:45.000Z</time>
        <extensions>
          <ns3:TrackPointExtension>
            <ns3:atemp>25.0</ns3:atemp>
          </ns3:TrackPointExtension>
        </extensions>
      </trkpt>
      <trkpt lat="42.57054300047457218170166015625" lon="20.03364502452313899993896484375">
        <ele>1981.800048828125</ele>
        <time>2026-06-15T13:32:46.000Z</time>
        <extensions>
          <ns3:TrackPointExtension>
            <ns3:atemp>25.0</ns3:atemp>
          </ns3:TrackPointExtension>
        </extensions>
      </trkpt>
      <trkpt lat="42.57054300047457218170166015625" lon="20.03364502452313899993896484375">
        <ele>1981.800048828125</ele>
        <time>2026-06-15T13:32:47.000Z</time>
        <extensions>
          <ns3:TrackPointExtension>
            <ns3:atemp>25.0</ns3:atemp>
          </ns3:TrackPointExtension>
        </extensions>
      </trkpt>
      <trkpt lat="42.57054300047457218170166015625" lon="20.03364502452313899993896484375">
        <ele>1981.800048828125</ele>
        <time>2026-06-15T13:32:48.000Z</time>
        <extensions>
          <ns3:TrackPointExtension>
            <ns3:atemp>25.0</ns3:atemp>
          </ns3:TrackPointExtension>
        </extensions>
      </trkpt>
      <trkpt lat="42.57054300047457218170166015625" lon="20.03364502452313899993896484375">
        <ele>1981.800048828125</ele>
        <time>2026-06-15T13:32:49.000Z</time>
        <extensions>
          <ns3:TrackPointExtension>
            <ns3:atemp>25.0</ns3:atemp>
          </ns3:TrackPointExtension>
        </extensions>
      </trkpt>
      <trkpt lat="42.57054300047457218170166015625" lon="20.03364502452313899993896484375">
        <ele>1981.800048828125</ele>
        <time>2026-06-15T13:32:50.000Z</time>
        <extensions>
          <ns3:TrackPointExtension>
            <ns3:atemp>25.0</ns3:atemp>
          </ns3:TrackPointExtension>
        </extensions>
      </trkpt>
      <trkpt lat="42.57054300047457218170166015625" lon="20.03364502452313899993896484375">
        <ele>1981.800048828125</ele>
        <time>2026-06-15T13:32:51.000Z</time>
        <extensions>
          <ns3:TrackPointExtension>
            <ns3:atemp>25.0</ns3:atemp>
          </ns3:TrackPointExtension>
        </extensions>
      </trkpt>
      <trkpt lat="42.57054300047457218170166015625" lon="20.03364502452313899993896484375">
        <ele>1981.800048828125</ele>
        <time>2026-06-15T13:32:52.000Z</time>
        <extensions>
          <ns3:TrackPointExtension>
            <ns3:atemp>25.0</ns3:atemp>
          </ns3:TrackPointExtension>
        </extensions>
      </trkpt>
      <trkpt lat="42.57054300047457218170166015625" lon="20.03364502452313899993896484375">
        <ele>1981.800048828125</ele>
        <time>2026-06-15T13:32:53.000Z</time>
        <extensions>
          <ns3:TrackPointExtension>
            <ns3:atemp>25.0</ns3:atemp>
          </ns3:TrackPointExtension>
        </extensions>
      </trkpt>
      <trkpt lat="42.57054300047457218170166015625" lon="20.03364502452313899993896484375">
        <ele>1981.800048828125</ele>
        <time>2026-06-15T13:32:54.000Z</time>
        <extensions>
          <ns3:TrackPointExtension>
            <ns3:atemp>25.0</ns3:atemp>
          </ns3:TrackPointExtension>
        </extensions>
      </trkpt>
      <trkpt lat="42.57054300047457218170166015625" lon="20.03364502452313899993896484375">
        <ele>1981.800048828125</ele>
        <time>2026-06-15T13:32:55.000Z</time>
        <extensions>
          <ns3:TrackPointExtension>
            <ns3:atemp>25.0</ns3:atemp>
          </ns3:TrackPointExtension>
        </extensions>
      </trkpt>
      <trkpt lat="42.57054300047457218170166015625" lon="20.03364502452313899993896484375">
        <ele>1981.800048828125</ele>
        <time>2026-06-15T13:32:56.000Z</time>
        <extensions>
          <ns3:TrackPointExtension>
            <ns3:atemp>25.0</ns3:atemp>
          </ns3:TrackPointExtension>
        </extensions>
      </trkpt>
      <trkpt lat="42.57054300047457218170166015625" lon="20.03364502452313899993896484375">
        <ele>1981.800048828125</ele>
        <time>2026-06-15T13:32:57.000Z</time>
        <extensions>
          <ns3:TrackPointExtension>
            <ns3:atemp>25.0</ns3:atemp>
          </ns3:TrackPointExtension>
        </extensions>
      </trkpt>
      <trkpt lat="42.57054300047457218170166015625" lon="20.03364502452313899993896484375">
        <ele>1982</ele>
        <time>2026-06-15T13:32:58.000Z</time>
        <extensions>
          <ns3:TrackPointExtension>
            <ns3:atemp>25.0</ns3:atemp>
          </ns3:TrackPointExtension>
        </extensions>
      </trkpt>
      <trkpt lat="42.57054300047457218170166015625" lon="20.03364502452313899993896484375">
        <ele>1982</ele>
        <time>2026-06-15T13:32:59.000Z</time>
        <extensions>
          <ns3:TrackPointExtension>
            <ns3:atemp>25.0</ns3:atemp>
          </ns3:TrackPointExtension>
        </extensions>
      </trkpt>
      <trkpt lat="42.57054300047457218170166015625" lon="20.03364502452313899993896484375">
        <ele>1982</ele>
        <time>2026-06-15T13:33:00.000Z</time>
        <extensions>
          <ns3:TrackPointExtension>
            <ns3:atemp>25.0</ns3:atemp>
          </ns3:TrackPointExtension>
        </extensions>
      </trkpt>
      <trkpt lat="42.57054300047457218170166015625" lon="20.03364502452313899993896484375">
        <ele>1982</ele>
        <time>2026-06-15T13:33:01.000Z</time>
        <extensions>
          <ns3:TrackPointExtension>
            <ns3:atemp>25.0</ns3:atemp>
          </ns3:TrackPointExtension>
        </extensions>
      </trkpt>
      <trkpt lat="42.57054300047457218170166015625" lon="20.03364502452313899993896484375">
        <ele>1982</ele>
        <time>2026-06-15T13:33:02.000Z</time>
        <extensions>
          <ns3:TrackPointExtension>
            <ns3:atemp>25.0</ns3:atemp>
          </ns3:TrackPointExtension>
        </extensions>
      </trkpt>
      <trkpt lat="42.57054300047457218170166015625" lon="20.03364502452313899993896484375">
        <ele>1982</ele>
        <time>2026-06-15T13:33:03.000Z</time>
        <extensions>
          <ns3:TrackPointExtension>
            <ns3:atemp>25.0</ns3:atemp>
          </ns3:TrackPointExtension>
        </extensions>
      </trkpt>
      <trkpt lat="42.5705476105213165283203125" lon="20.03365005366504192352294921875">
        <ele>1981.800048828125</ele>
        <time>2026-06-15T13:33:04.000Z</time>
        <extensions>
          <ns3:TrackPointExtension>
            <ns3:atemp>25.0</ns3:atemp>
          </ns3:TrackPointExtension>
        </extensions>
      </trkpt>
      <trkpt lat="42.57055096328258514404296875" lon="20.03364686854183673858642578125">
        <ele>1981.800048828125</ele>
        <time>2026-06-15T13:33:05.000Z</time>
        <extensions>
          <ns3:TrackPointExtension>
            <ns3:atemp>25.0</ns3:atemp>
          </ns3:TrackPointExtension>
        </extensions>
      </trkpt>
      <trkpt lat="42.570554651319980621337890625" lon="20.033640749752521514892578125">
        <ele>1982</ele>
        <time>2026-06-15T13:33:06.000Z</time>
        <extensions>
          <ns3:TrackPointExtension>
            <ns3:atemp>25.0</ns3:atemp>
          </ns3:TrackPointExtension>
        </extensions>
      </trkpt>
      <trkpt lat="42.570556662976741790771484375" lon="20.03363848663866519927978515625">
        <ele>1982</ele>
        <time>2026-06-15T13:33:07.000Z</time>
        <extensions>
          <ns3:TrackPointExtension>
            <ns3:atemp>25.0</ns3:atemp>
          </ns3:TrackPointExtension>
        </extensions>
      </trkpt>
      <trkpt lat="42.570560015738010406494140625" lon="20.03363882191479206085205078125">
        <ele>1982</ele>
        <time>2026-06-15T13:33:08.000Z</time>
        <extensions>
          <ns3:TrackPointExtension>
            <ns3:atemp>25.0</ns3:atemp>
          </ns3:TrackPointExtension>
        </extensions>
      </trkpt>
      <trkpt lat="42.57055993191897869110107421875" lon="20.03363882191479206085205078125">
        <ele>1982.4000244140625</ele>
        <time>2026-06-15T13:33:09.000Z</time>
        <extensions>
          <ns3:TrackPointExtension>
            <ns3:atemp>25.0</ns3:atemp>
          </ns3:TrackPointExtension>
        </extensions>
      </trkpt>
      <trkpt lat="42.57055993191897869110107421875" lon="20.03363882191479206085205078125">
        <ele>1982.4000244140625</ele>
        <time>2026-06-15T13:33:10.000Z</time>
        <extensions>
          <ns3:TrackPointExtension>
            <ns3:atemp>25.0</ns3:atemp>
          </ns3:TrackPointExtension>
        </extensions>
      </trkpt>
      <trkpt lat="42.57055993191897869110107421875" lon="20.03363882191479206085205078125">
        <ele>1982.4000244140625</ele>
        <time>2026-06-15T13:33:11.000Z</time>
        <extensions>
          <ns3:TrackPointExtension>
            <ns3:atemp>25.0</ns3:atemp>
          </ns3:TrackPointExtension>
        </extensions>
      </trkpt>
      <trkpt lat="42.57055993191897869110107421875" lon="20.03363882191479206085205078125">
        <ele>1982.199951171875</ele>
        <time>2026-06-15T13:33:12.000Z</time>
        <extensions>
          <ns3:TrackPointExtension>
            <ns3:atemp>25.0</ns3:atemp>
          </ns3:TrackPointExtension>
        </extensions>
      </trkpt>
      <trkpt lat="42.57055993191897869110107421875" lon="20.03363882191479206085205078125">
        <ele>1982.199951171875</ele>
        <time>2026-06-15T13:33:13.000Z</time>
        <extensions>
          <ns3:TrackPointExtension>
            <ns3:atemp>25.0</ns3:atemp>
          </ns3:TrackPointExtension>
        </extensions>
      </trkpt>
      <trkpt lat="42.57055993191897869110107421875" lon="20.03363882191479206085205078125">
        <ele>1982.199951171875</ele>
        <time>2026-06-15T13:33:14.000Z</time>
        <extensions>
          <ns3:TrackPointExtension>
            <ns3:atemp>25.0</ns3:atemp>
          </ns3:TrackPointExtension>
        </extensions>
      </trkpt>
      <trkpt lat="42.57055993191897869110107421875" lon="20.03363882191479206085205078125">
        <ele>1982</ele>
        <time>2026-06-15T13:33:15.000Z</time>
        <extensions>
          <ns3:TrackPointExtension>
            <ns3:atemp>25.0</ns3:atemp>
          </ns3:TrackPointExtension>
        </extensions>
      </trkpt>
      <trkpt lat="42.57055993191897869110107421875" lon="20.03363882191479206085205078125">
        <ele>1982</ele>
        <time>2026-06-15T13:33:16.000Z</time>
        <extensions>
          <ns3:TrackPointExtension>
            <ns3:atemp>25.0</ns3:atemp>
          </ns3:TrackPointExtension>
        </extensions>
      </trkpt>
      <trkpt lat="42.57055993191897869110107421875" lon="20.03363882191479206085205078125">
        <ele>1982</ele>
        <time>2026-06-15T13:33:17.000Z</time>
        <extensions>
          <ns3:TrackPointExtension>
            <ns3:atemp>25.0</ns3:atemp>
          </ns3:TrackPointExtension>
        </extensions>
      </trkpt>
      <trkpt lat="42.5705591775476932525634765625" lon="20.03363865427672863006591796875">
        <ele>1981.800048828125</ele>
        <time>2026-06-15T13:33:18.000Z</time>
        <extensions>
          <ns3:TrackPointExtension>
            <ns3:atemp>25.0</ns3:atemp>
          </ns3:TrackPointExtension>
        </extensions>
      </trkpt>
      <trkpt lat="42.57055439986288547515869140625" lon="20.03364116884768009185791015625">
        <ele>1981.5999755859375</ele>
        <time>2026-06-15T13:33:19.000Z</time>
        <extensions>
          <ns3:TrackPointExtension>
            <ns3:atemp>25.0</ns3:atemp>
          </ns3:TrackPointExtension>
        </extensions>
      </trkpt>
      <trkpt lat="42.57054300047457218170166015625" lon="20.0336409173905849456787109375">
        <ele>1981.199951171875</ele>
        <time>2026-06-15T13:33:20.000Z</time>
        <extensions>
          <ns3:TrackPointExtension>
            <ns3:atemp>25.0</ns3:atemp>
          </ns3:TrackPointExtension>
        </extensions>
      </trkpt>
      <trkpt lat="42.57053176872432231903076171875" lon="20.03364779055118560791015625">
        <ele>1981.199951171875</ele>
        <time>2026-06-15T13:33:21.000Z</time>
        <extensions>
          <ns3:TrackPointExtension>
            <ns3:atemp>25.0</ns3:atemp>
          </ns3:TrackPointExtension>
        </extensions>
      </trkpt>
      <trkpt lat="42.57052858360111713409423828125" lon="20.03365307115018367767333984375">
        <ele>1981.4000244140625</ele>
        <time>2026-06-15T13:33:22.000Z</time>
        <extensions>
          <ns3:TrackPointExtension>
            <ns3:atemp>25.0</ns3:atemp>
          </ns3:TrackPointExtension>
        </extensions>
      </trkpt>
      <trkpt lat="42.5705243088304996490478515625" lon="20.03366162069141864776611328125">
        <ele>1981.4000244140625</ele>
        <time>2026-06-15T13:33:23.000Z</time>
        <extensions>
          <ns3:TrackPointExtension>
            <ns3:atemp>25.0</ns3:atemp>
          </ns3:TrackPointExtension>
        </extensions>
      </trkpt>
      <trkpt lat="42.57052011787891387939453125" lon="20.033666901290416717529296875">
        <ele>1981.800048828125</ele>
        <time>2026-06-15T13:33:24.000Z</time>
        <extensions>
          <ns3:TrackPointExtension>
            <ns3:atemp>25.0</ns3:atemp>
          </ns3:TrackPointExtension>
        </extensions>
      </trkpt>
      <trkpt lat="42.57051198743283748626708984375" lon="20.0336677394807338714599609375">
        <ele>1982</ele>
        <time>2026-06-15T13:33:25.000Z</time>
        <extensions>
          <ns3:TrackPointExtension>
            <ns3:atemp>25.0</ns3:atemp>
          </ns3:TrackPointExtension>
        </extensions>
      </trkpt>
      <trkpt lat="42.57050528191030025482177734375" lon="20.03367000259459018707275390625">
        <ele>1982.4000244140625</ele>
        <time>2026-06-15T13:33:26.000Z</time>
        <extensions>
          <ns3:TrackPointExtension>
            <ns3:atemp>25.0</ns3:atemp>
          </ns3:TrackPointExtension>
        </extensions>
      </trkpt>
      <trkpt lat="42.57049824111163616180419921875" lon="20.03366933204233646392822265625">
        <ele>1982.5999755859375</ele>
        <time>2026-06-15T13:33:27.000Z</time>
        <extensions>
          <ns3:TrackPointExtension>
            <ns3:atemp>25.0</ns3:atemp>
          </ns3:TrackPointExtension>
        </extensions>
      </trkpt>
      <trkpt lat="42.57049019448459148406982421875" lon="20.03367352299392223358154296875">
        <ele>1983.199951171875</ele>
        <time>2026-06-15T13:33:28.000Z</time>
        <extensions>
          <ns3:TrackPointExtension>
            <ns3:atemp>25.0</ns3:atemp>
          </ns3:TrackPointExtension>
        </extensions>
      </trkpt>
      <trkpt lat="42.57048524916172027587890625" lon="20.0336726009845733642578125">
        <ele>1983.4000244140625</ele>
        <time>2026-06-15T13:33:29.000Z</time>
        <extensions>
          <ns3:TrackPointExtension>
            <ns3:atemp>25.0</ns3:atemp>
          </ns3:TrackPointExtension>
        </extensions>
      </trkpt>
      <trkpt lat="42.57048315368592739105224609375" lon="20.0336734391748905181884765625">
        <ele>1984</ele>
        <time>2026-06-15T13:33:30.000Z</time>
        <extensions>
          <ns3:TrackPointExtension>
            <ns3:atemp>25.0</ns3:atemp>
          </ns3:TrackPointExtension>
        </extensions>
      </trkpt>
      <trkpt lat="42.57048047147691249847412109375" lon="20.033672265708446502685546875">
        <ele>1984.5999755859375</ele>
        <time>2026-06-15T13:33:31.000Z</time>
        <extensions>
          <ns3:TrackPointExtension>
            <ns3:atemp>25.0</ns3:atemp>
          </ns3:TrackPointExtension>
        </extensions>
      </trkpt>
      <trkpt lat="42.57047410123050212860107421875" lon="20.033672265708446502685546875">
        <ele>1985.5999755859375</ele>
        <time>2026-06-15T13:33:32.000Z</time>
        <extensions>
          <ns3:TrackPointExtension>
            <ns3:atemp>25.0</ns3:atemp>
          </ns3:TrackPointExtension>
        </extensions>
      </trkpt>
      <trkpt lat="42.570467479526996612548828125" lon="20.03367167897522449493408203125">
        <ele>1985.5999755859375</ele>
        <time>2026-06-15T13:33:33.000Z</time>
        <extensions>
          <ns3:TrackPointExtension>
            <ns3:atemp>25.0</ns3:atemp>
          </ns3:TrackPointExtension>
        </extensions>
      </trkpt>
      <trkpt lat="42.5704599358141422271728515625" lon="20.03367436118423938751220703125">
        <ele>1986</ele>
        <time>2026-06-15T13:33:34.000Z</time>
        <extensions>
          <ns3:TrackPointExtension>
            <ns3:atemp>25.0</ns3:atemp>
          </ns3:TrackPointExtension>
        </extensions>
      </trkpt>
      <trkpt lat="42.57045700214803218841552734375" lon="20.03367503173649311065673828125">
        <ele>1986.199951171875</ele>
        <time>2026-06-15T13:33:35.000Z</time>
        <extensions>
          <ns3:TrackPointExtension>
            <ns3:atemp>25.0</ns3:atemp>
          </ns3:TrackPointExtension>
        </extensions>
      </trkpt>
      <trkpt lat="42.57045708596706390380859375" lon="20.0336774624884128570556640625">
        <ele>1986.5999755859375</ele>
        <time>2026-06-15T13:33:36.000Z</time>
        <extensions>
          <ns3:TrackPointExtension>
            <ns3:atemp>25.0</ns3:atemp>
          </ns3:TrackPointExtension>
        </extensions>
      </trkpt>
      <trkpt lat="42.570452727377414703369140625" lon="20.033676959574222564697265625">
        <ele>1986.800048828125</ele>
        <time>2026-06-15T13:33:37.000Z</time>
        <extensions>
          <ns3:TrackPointExtension>
            <ns3:atemp>25.0</ns3:atemp>
          </ns3:TrackPointExtension>
        </extensions>
      </trkpt>
      <trkpt lat="42.57045029662549495697021484375" lon="20.0336757861077785491943359375">
        <ele>1987</ele>
        <time>2026-06-15T13:33:38.000Z</time>
        <extensions>
          <ns3:TrackPointExtension>
            <ns3:atemp>25.0</ns3:atemp>
          </ns3:TrackPointExtension>
        </extensions>
      </trkpt>
      <trkpt lat="42.5704488717019557952880859375" lon="20.03367469646036624908447265625">
        <ele>1987.4000244140625</ele>
        <time>2026-06-15T13:33:39.000Z</time>
        <extensions>
          <ns3:TrackPointExtension>
            <ns3:atemp>25.0</ns3:atemp>
          </ns3:TrackPointExtension>
        </extensions>
      </trkpt>
      <trkpt lat="42.57044476456940174102783203125" lon="20.033676289021968841552734375">
        <ele>1987.800048828125</ele>
        <time>2026-06-15T13:33:40.000Z</time>
        <extensions>
          <ns3:TrackPointExtension>
            <ns3:atemp>25.0</ns3:atemp>
          </ns3:TrackPointExtension>
        </extensions>
      </trkpt>
      <trkpt lat="42.57043965160846710205078125" lon="20.03367754630744457244873046875">
        <ele>1988</ele>
        <time>2026-06-15T13:33:41.000Z</time>
        <extensions>
          <ns3:TrackPointExtension>
            <ns3:atemp>25.0</ns3:atemp>
          </ns3:TrackPointExtension>
        </extensions>
      </trkpt>
      <trkpt lat="42.57043386809527873992919921875" lon="20.03368156962096691131591796875">
        <ele>1988.5999755859375</ele>
        <time>2026-06-15T13:33:42.000Z</time>
        <extensions>
          <ns3:TrackPointExtension>
            <ns3:atemp>25.0</ns3:atemp>
          </ns3:TrackPointExtension>
        </extensions>
      </trkpt>
      <trkpt lat="42.57042498327791690826416015625" lon="20.03368291072547435760498046875">
        <ele>1989</ele>
        <time>2026-06-15T13:33:43.000Z</time>
        <extensions>
          <ns3:TrackPointExtension>
            <ns3:atemp>25.0</ns3:atemp>
          </ns3:TrackPointExtension>
        </extensions>
      </trkpt>
      <trkpt lat="42.57041458971798419952392578125" lon="20.0336878560483455657958984375">
        <ele>1989.4000244140625</ele>
        <time>2026-06-15T13:33:44.000Z</time>
        <extensions>
          <ns3:TrackPointExtension>
            <ns3:atemp>25.0</ns3:atemp>
          </ns3:TrackPointExtension>
        </extensions>
      </trkpt>
      <trkpt lat="42.57040880620479583740234375" lon="20.03368944860994815826416015625">
        <ele>1989.4000244140625</ele>
        <time>2026-06-15T13:33:45.000Z</time>
        <extensions>
          <ns3:TrackPointExtension>
            <ns3:atemp>25.0</ns3:atemp>
          </ns3:TrackPointExtension>
        </extensions>
      </trkpt>
      <trkpt lat="42.57040536962449550628662109375" lon="20.03369363956153392791748046875">
        <ele>1989.5999755859375</ele>
        <time>2026-06-15T13:33:46.000Z</time>
        <extensions>
          <ns3:TrackPointExtension>
            <ns3:atemp>25.0</ns3:atemp>
          </ns3:TrackPointExtension>
        </extensions>
      </trkpt>
      <trkpt lat="42.57039941847324371337890625" lon="20.0336979143321514129638671875">
        <ele>1989.800048828125</ele>
        <time>2026-06-15T13:33:47.000Z</time>
        <extensions>
          <ns3:TrackPointExtension>
            <ns3:atemp>25.0</ns3:atemp>
          </ns3:TrackPointExtension>
        </extensions>
      </trkpt>
      <trkpt lat="42.57039564661681652069091796875" lon="20.0337016023695468902587890625">
        <ele>1990.4000244140625</ele>
        <time>2026-06-15T13:33:48.000Z</time>
        <extensions>
          <ns3:TrackPointExtension>
            <ns3:atemp>25.0</ns3:atemp>
          </ns3:TrackPointExtension>
        </extensions>
      </trkpt>
      <trkpt lat="42.57038793526589870452880859375" lon="20.03370545804500579833984375">
        <ele>1990.5999755859375</ele>
        <time>2026-06-15T13:33:49.000Z</time>
        <extensions>
          <ns3:TrackPointExtension>
            <ns3:atemp>25.0</ns3:atemp>
          </ns3:TrackPointExtension>
        </extensions>
      </trkpt>
      <trkpt lat="42.570380978286266326904296875" lon="20.03371157683432102203369140625">
        <ele>1990.800048828125</ele>
        <time>2026-06-15T13:33:50.000Z</time>
        <extensions>
          <ns3:TrackPointExtension>
            <ns3:atemp>25.0</ns3:atemp>
          </ns3:TrackPointExtension>
        </extensions>
      </trkpt>
      <trkpt lat="42.5703741051256656646728515625" lon="20.0337208807468414306640625">
        <ele>1991</ele>
        <time>2026-06-15T13:33:51.000Z</time>
        <extensions>
          <ns3:TrackPointExtension>
            <ns3:atemp>25.0</ns3:atemp>
          </ns3:TrackPointExtension>
        </extensions>
      </trkpt>
      <trkpt lat="42.5703705847263336181640625" lon="20.03373169340193271636962890625">
        <ele>1991.199951171875</ele>
        <time>2026-06-15T13:33:52.000Z</time>
        <extensions>
          <ns3:TrackPointExtension>
            <ns3:atemp>25.0</ns3:atemp>
          </ns3:TrackPointExtension>
        </extensions>
      </trkpt>
      <trkpt lat="42.57036480121314525604248046875" lon="20.03374435007572174072265625">
        <ele>1991.199951171875</ele>
        <time>2026-06-15T13:33:53.000Z</time>
        <extensions>
          <ns3:TrackPointExtension>
            <ns3:atemp>25.0</ns3:atemp>
          </ns3:TrackPointExtension>
        </extensions>
      </trkpt>
      <trkpt lat="42.5703566707670688629150390625" lon="20.03376170061528682708740234375">
        <ele>1991.199951171875</ele>
        <time>2026-06-15T13:33:54.000Z</time>
        <extensions>
          <ns3:TrackPointExtension>
            <ns3:atemp>25.0</ns3:atemp>
          </ns3:TrackPointExtension>
        </extensions>
      </trkpt>
      <trkpt lat="42.5703491270542144775390625" lon="20.03376823849976062774658203125">
        <ele>1991.4000244140625</ele>
        <time>2026-06-15T13:33:55.000Z</time>
        <extensions>
          <ns3:TrackPointExtension>
            <ns3:atemp>25.0</ns3:atemp>
          </ns3:TrackPointExtension>
        </extensions>
      </trkpt>
      <trkpt lat="42.5703415833413600921630859375" lon="20.0337743572890758514404296875">
        <ele>1991.800048828125</ele>
        <time>2026-06-15T13:33:56.000Z</time>
        <extensions>
          <ns3:TrackPointExtension>
            <ns3:atemp>25.0</ns3:atemp>
          </ns3:TrackPointExtension>
        </extensions>
      </trkpt>
      <trkpt lat="42.570334374904632568359375" lon="20.03377653658390045166015625">
        <ele>1992</ele>
        <time>2026-06-15T13:33:57.000Z</time>
        <extensions>
          <ns3:TrackPointExtension>
            <ns3:atemp>25.0</ns3:atemp>
          </ns3:TrackPointExtension>
        </extensions>
      </trkpt>
      <trkpt lat="42.5703305192291736602783203125" lon="20.03378600813448429107666015625">
        <ele>1992</ele>
        <time>2026-06-15T13:33:58.000Z</time>
        <extensions>
          <ns3:TrackPointExtension>
            <ns3:atemp>25.0</ns3:atemp>
          </ns3:TrackPointExtension>
        </extensions>
      </trkpt>
      <trkpt lat="42.57032356224954128265380859375" lon="20.03379723988473415374755859375">
        <ele>1992.199951171875</ele>
        <time>2026-06-15T13:33:59.000Z</time>
        <extensions>
          <ns3:TrackPointExtension>
            <ns3:atemp>25.0</ns3:atemp>
          </ns3:TrackPointExtension>
        </extensions>
      </trkpt>
      <trkpt lat="42.5703207962214946746826171875" lon="20.03381249494850635528564453125">
        <ele>1992.199951171875</ele>
        <time>2026-06-15T13:34:00.000Z</time>
        <extensions>
          <ns3:TrackPointExtension>
            <ns3:atemp>25.0</ns3:atemp>
          </ns3:TrackPointExtension>
        </extensions>
      </trkpt>
      <trkpt lat="42.5703155994415283203125" lon="20.033819787204265594482421875">
        <ele>1992.199951171875</ele>
        <time>2026-06-15T13:34:01.000Z</time>
        <extensions>
          <ns3:TrackPointExtension>
            <ns3:atemp>25.0</ns3:atemp>
          </ns3:TrackPointExtension>
        </extensions>
      </trkpt>
      <trkpt lat="42.5703077204525470733642578125" lon="20.03382213413715362548828125">
        <ele>1992.4000244140625</ele>
        <time>2026-06-15T13:34:02.000Z</time>
        <extensions>
          <ns3:TrackPointExtension>
            <ns3:atemp>25.0</ns3:atemp>
          </ns3:TrackPointExtension>
        </extensions>
      </trkpt>
      <trkpt lat="42.57029707543551921844482421875" lon="20.0338226370513439178466796875">
        <ele>1992.4000244140625</ele>
        <time>2026-06-15T13:34:03.000Z</time>
        <extensions>
          <ns3:TrackPointExtension>
            <ns3:atemp>25.0</ns3:atemp>
          </ns3:TrackPointExtension>
        </extensions>
      </trkpt>
      <trkpt lat="42.57028819061815738677978515625" lon="20.03382439725100994110107421875">
        <ele>1992.4000244140625</ele>
        <time>2026-06-15T13:34:04.000Z</time>
        <extensions>
          <ns3:TrackPointExtension>
            <ns3:atemp>25.0</ns3:atemp>
          </ns3:TrackPointExtension>
        </extensions>
      </trkpt>
      <trkpt lat="42.57028165273368358612060546875" lon="20.03382615745067596435546875">
        <ele>1992.4000244140625</ele>
        <time>2026-06-15T13:34:05.000Z</time>
        <extensions>
          <ns3:TrackPointExtension>
            <ns3:atemp>25.0</ns3:atemp>
          </ns3:TrackPointExtension>
        </extensions>
      </trkpt>
      <trkpt lat="42.57027192972600460052490234375" lon="20.03382741473615169525146484375">
        <ele>1992.4000244140625</ele>
        <time>2026-06-15T13:34:06.000Z</time>
        <extensions>
          <ns3:TrackPointExtension>
            <ns3:atemp>25.0</ns3:atemp>
          </ns3:TrackPointExtension>
        </extensions>
      </trkpt>
      <trkpt lat="42.5702648051083087921142578125" lon="20.03383286297321319580078125">
        <ele>1992.800048828125</ele>
        <time>2026-06-15T13:34:07.000Z</time>
        <extensions>
          <ns3:TrackPointExtension>
            <ns3:atemp>25.0</ns3:atemp>
          </ns3:TrackPointExtension>
        </extensions>
      </trkpt>
      <trkpt lat="42.570264637470245361328125" lon="20.03383277915418148040771484375">
        <ele>1993</ele>
        <time>2026-06-15T13:34:08.000Z</time>
        <extensions>
          <ns3:TrackPointExtension>
            <ns3:atemp>25.0</ns3:atemp>
          </ns3:TrackPointExtension>
        </extensions>
      </trkpt>
      <trkpt lat="42.570264637470245361328125" lon="20.03383277915418148040771484375">
        <ele>1993.5999755859375</ele>
        <time>2026-06-15T13:34:09.000Z</time>
        <extensions>
          <ns3:TrackPointExtension>
            <ns3:atemp>25.0</ns3:atemp>
          </ns3:TrackPointExtension>
        </extensions>
      </trkpt>
      <trkpt lat="42.57026421837508678436279296875" lon="20.03383277915418148040771484375">
        <ele>1994</ele>
        <time>2026-06-15T13:34:10.000Z</time>
        <extensions>
          <ns3:TrackPointExtension>
            <ns3:atemp>25.0</ns3:atemp>
          </ns3:TrackPointExtension>
        </extensions>
      </trkpt>
      <trkpt lat="42.57025483064353466033935546875" lon="20.03383076749742031097412109375">
        <ele>1994.199951171875</ele>
        <time>2026-06-15T13:34:11.000Z</time>
        <extensions>
          <ns3:TrackPointExtension>
            <ns3:atemp>25.0</ns3:atemp>
          </ns3:TrackPointExtension>
        </extensions>
      </trkpt>
      <trkpt lat="42.5702473707497119903564453125" lon="20.03382607363164424896240234375">
        <ele>1994.4000244140625</ele>
        <time>2026-06-15T13:34:12.000Z</time>
        <extensions>
          <ns3:TrackPointExtension>
            <ns3:atemp>25.0</ns3:atemp>
          </ns3:TrackPointExtension>
        </extensions>
      </trkpt>
      <trkpt lat="42.57024225778877735137939453125" lon="20.03382272087037563323974609375">
        <ele>1994.4000244140625</ele>
        <time>2026-06-15T13:34:13.000Z</time>
        <extensions>
          <ns3:TrackPointExtension>
            <ns3:atemp>25.0</ns3:atemp>
          </ns3:TrackPointExtension>
        </extensions>
      </trkpt>
      <trkpt lat="42.5702393241226673126220703125" lon="20.03381551243364810943603515625">
        <ele>1994</ele>
        <time>2026-06-15T13:34:14.000Z</time>
        <extensions>
          <ns3:TrackPointExtension>
            <ns3:atemp>25.0</ns3:atemp>
          </ns3:TrackPointExtension>
        </extensions>
      </trkpt>
      <trkpt lat="42.57024192251265048980712890625" lon="20.0338078849017620086669921875">
        <ele>1993.800048828125</ele>
        <time>2026-06-15T13:34:15.000Z</time>
        <extensions>
          <ns3:TrackPointExtension>
            <ns3:atemp>25.0</ns3:atemp>
          </ns3:TrackPointExtension>
        </extensions>
      </trkpt>
      <trkpt lat="42.5702446885406970977783203125" lon="20.0337954796850681304931640625">
        <ele>1993.5999755859375</ele>
        <time>2026-06-15T13:34:16.000Z</time>
        <extensions>
          <ns3:TrackPointExtension>
            <ns3:atemp>25.0</ns3:atemp>
          </ns3:TrackPointExtension>
        </extensions>
      </trkpt>
      <trkpt lat="42.57024510763585567474365234375" lon="20.0337844155728816986083984375">
        <ele>1993.4000244140625</ele>
        <time>2026-06-15T13:34:17.000Z</time>
        <extensions>
          <ns3:TrackPointExtension>
            <ns3:atemp>25.0</ns3:atemp>
          </ns3:TrackPointExtension>
        </extensions>
      </trkpt>
      <trkpt lat="42.57024695165455341339111328125" lon="20.03376773558557033538818359375">
        <ele>1993</ele>
        <time>2026-06-15T13:34:18.000Z</time>
        <extensions>
          <ns3:TrackPointExtension>
            <ns3:atemp>25.0</ns3:atemp>
          </ns3:TrackPointExtension>
        </extensions>
      </trkpt>
      <trkpt lat="42.57024879567325115203857421875" lon="20.03375952132046222686767578125">
        <ele>1992.5999755859375</ele>
        <time>2026-06-15T13:34:19.000Z</time>
        <extensions>
          <ns3:TrackPointExtension>
            <ns3:atemp>25.0</ns3:atemp>
          </ns3:TrackPointExtension>
        </extensions>
      </trkpt>
      <trkpt lat="42.5702500529587268829345703125" lon="20.0337515585124492645263671875">
        <ele>1992</ele>
        <time>2026-06-15T13:34:20.000Z</time>
        <extensions>
          <ns3:TrackPointExtension>
            <ns3:atemp>25.0</ns3:atemp>
          </ns3:TrackPointExtension>
        </extensions>
      </trkpt>
      <trkpt lat="42.57025198079645633697509765625" lon="20.03374074585735797882080078125">
        <ele>1991.5999755859375</ele>
        <time>2026-06-15T13:34:21.000Z</time>
        <extensions>
          <ns3:TrackPointExtension>
            <ns3:atemp>25.0</ns3:atemp>
          </ns3:TrackPointExtension>
        </extensions>
      </trkpt>
      <trkpt lat="42.57025231607258319854736328125" lon="20.03372984938323497772216796875">
        <ele>1991.199951171875</ele>
        <time>2026-06-15T13:34:22.000Z</time>
        <extensions>
          <ns3:TrackPointExtension>
            <ns3:atemp>25.0</ns3:atemp>
          </ns3:TrackPointExtension>
        </extensions>
      </trkpt>
      <trkpt lat="42.57025315426290035247802734375" lon="20.03372096456587314605712890625">
        <ele>1991</ele>
        <time>2026-06-15T13:34:23.000Z</time>
        <extensions>
          <ns3:TrackPointExtension>
            <ns3:atemp>25.0</ns3:atemp>
          </ns3:TrackPointExtension>
        </extensions>
      </trkpt>
      <trkpt lat="42.57025323808193206787109375" lon="20.03372021019458770751953125">
        <ele>1991</ele>
        <time>2026-06-15T13:34:24.000Z</time>
        <extensions>
          <ns3:TrackPointExtension>
            <ns3:atemp>25.0</ns3:atemp>
          </ns3:TrackPointExtension>
        </extensions>
      </trkpt>
      <trkpt lat="42.5702534057199954986572265625" lon="20.033719539642333984375">
        <ele>1990.800048828125</ele>
        <time>2026-06-15T13:34:25.000Z</time>
        <extensions>
          <ns3:TrackPointExtension>
            <ns3:atemp>25.0</ns3:atemp>
          </ns3:TrackPointExtension>
        </extensions>
      </trkpt>
      <trkpt lat="42.5702547468245029449462890625" lon="20.03369875252246856689453125">
        <ele>1990.5999755859375</ele>
        <time>2026-06-15T13:34:26.000Z</time>
        <extensions>
          <ns3:TrackPointExtension>
            <ns3:atemp>25.0</ns3:atemp>
          </ns3:TrackPointExtension>
        </extensions>
      </trkpt>
      <trkpt lat="42.5702597759664058685302734375" lon="20.03367737866938114166259765625">
        <ele>1990.4000244140625</ele>
        <time>2026-06-15T13:34:27.000Z</time>
        <extensions>
          <ns3:TrackPointExtension>
            <ns3:atemp>25.0</ns3:atemp>
          </ns3:TrackPointExtension>
        </extensions>
      </trkpt>
      <trkpt lat="42.5702604465186595916748046875" lon="20.03365977667272090911865234375">
        <ele>1990</ele>
        <time>2026-06-15T13:34:28.000Z</time>
        <extensions>
          <ns3:TrackPointExtension>
            <ns3:atemp>25.0</ns3:atemp>
          </ns3:TrackPointExtension>
        </extensions>
      </trkpt>
      <trkpt lat="42.57025969214737415313720703125" lon="20.03364318050444126129150390625">
        <ele>1989.800048828125</ele>
        <time>2026-06-15T13:34:29.000Z</time>
        <extensions>
          <ns3:TrackPointExtension>
            <ns3:atemp>25.0</ns3:atemp>
          </ns3:TrackPointExtension>
        </extensions>
      </trkpt>
      <trkpt lat="42.5702570937573909759521484375" lon="20.03364200703799724578857421875">
        <ele>1989.5999755859375</ele>
        <time>2026-06-15T13:34:30.000Z</time>
        <extensions>
          <ns3:TrackPointExtension>
            <ns3:atemp>25.0</ns3:atemp>
          </ns3:TrackPointExtension>
        </extensions>
      </trkpt>
      <trkpt lat="42.57025248371064662933349609375" lon="20.0336323678493499755859375">
        <ele>1989.4000244140625</ele>
        <time>2026-06-15T13:34:31.000Z</time>
        <extensions>
          <ns3:TrackPointExtension>
            <ns3:atemp>25.0</ns3:atemp>
          </ns3:TrackPointExtension>
        </extensions>
      </trkpt>
      <trkpt lat="42.570243515074253082275390625" lon="20.03362574614584445953369140625">
        <ele>1989</ele>
        <time>2026-06-15T13:34:32.000Z</time>
        <extensions>
          <ns3:TrackPointExtension>
            <ns3:atemp>25.0</ns3:atemp>
          </ns3:TrackPointExtension>
        </extensions>
      </trkpt>
      <trkpt lat="42.57023890502750873565673828125" lon="20.033611245453357696533203125">
        <ele>1988.5999755859375</ele>
        <time>2026-06-15T13:34:33.000Z</time>
        <extensions>
          <ns3:TrackPointExtension>
            <ns3:atemp>25.0</ns3:atemp>
          </ns3:TrackPointExtension>
        </extensions>
      </trkpt>
      <trkpt lat="42.5702379830181598663330078125" lon="20.0335946492850780487060546875">
        <ele>1988.199951171875</ele>
        <time>2026-06-15T13:34:34.000Z</time>
        <extensions>
          <ns3:TrackPointExtension>
            <ns3:atemp>25.0</ns3:atemp>
          </ns3:TrackPointExtension>
        </extensions>
      </trkpt>
      <trkpt lat="42.57023806683719158172607421875" lon="20.0335788913071155548095703125">
        <ele>1987.800048828125</ele>
        <time>2026-06-15T13:34:35.000Z</time>
        <extensions>
          <ns3:TrackPointExtension>
            <ns3:atemp>25.0</ns3:atemp>
          </ns3:TrackPointExtension>
        </extensions>
      </trkpt>
      <trkpt lat="42.5702416710555553436279296875" lon="20.03356656990945339202880859375">
        <ele>1987.4000244140625</ele>
        <time>2026-06-15T13:34:36.000Z</time>
        <extensions>
          <ns3:TrackPointExtension>
            <ns3:atemp>25.0</ns3:atemp>
          </ns3:TrackPointExtension>
        </extensions>
      </trkpt>
      <trkpt lat="42.57024527527391910552978515625" lon="20.03355248831212520599365234375">
        <ele>1987.199951171875</ele>
        <time>2026-06-15T13:34:37.000Z</time>
        <extensions>
          <ns3:TrackPointExtension>
            <ns3:atemp>25.0</ns3:atemp>
          </ns3:TrackPointExtension>
        </extensions>
      </trkpt>
      <trkpt lat="42.5702383182942867279052734375" lon="20.03353488631546497344970703125">
        <ele>1986.800048828125</ele>
        <time>2026-06-15T13:34:38.000Z</time>
        <extensions>
          <ns3:TrackPointExtension>
            <ns3:atemp>25.0</ns3:atemp>
          </ns3:TrackPointExtension>
        </extensions>
      </trkpt>
      <trkpt lat="42.57022666744887828826904296875" lon="20.03352432511746883392333984375">
        <ele>1986.4000244140625</ele>
        <time>2026-06-15T13:34:39.000Z</time>
        <extensions>
          <ns3:TrackPointExtension>
            <ns3:atemp>25.0</ns3:atemp>
          </ns3:TrackPointExtension>
        </extensions>
      </trkpt>
      <trkpt lat="42.57022147066891193389892578125" lon="20.0335121713578701019287109375">
        <ele>1986</ele>
        <time>2026-06-15T13:34:40.000Z</time>
        <extensions>
          <ns3:TrackPointExtension>
            <ns3:atemp>25.0</ns3:atemp>
          </ns3:TrackPointExtension>
        </extensions>
      </trkpt>
      <trkpt lat="42.5702202133834362030029296875" lon="20.03349850885570049285888671875">
        <ele>1985.4000244140625</ele>
        <time>2026-06-15T13:34:41.000Z</time>
        <extensions>
          <ns3:TrackPointExtension>
            <ns3:atemp>25.0</ns3:atemp>
          </ns3:TrackPointExtension>
        </extensions>
      </trkpt>
      <trkpt lat="42.57021677680313587188720703125" lon="20.033486187458038330078125">
        <ele>1984.800048828125</ele>
        <time>2026-06-15T13:34:42.000Z</time>
        <extensions>
          <ns3:TrackPointExtension>
            <ns3:atemp>25.0</ns3:atemp>
          </ns3:TrackPointExtension>
        </extensions>
      </trkpt>
      <trkpt lat="42.5702118314802646636962890625" lon="20.0334669090807437896728515625">
        <ele>1984.4000244140625</ele>
        <time>2026-06-15T13:34:43.000Z</time>
        <extensions>
          <ns3:TrackPointExtension>
            <ns3:atemp>25.0</ns3:atemp>
          </ns3:TrackPointExtension>
        </extensions>
      </trkpt>
      <trkpt lat="42.570209316909313201904296875" lon="20.03345659933984279632568359375">
        <ele>1984.4000244140625</ele>
        <time>2026-06-15T13:34:44.000Z</time>
        <extensions>
          <ns3:TrackPointExtension>
            <ns3:atemp>25.0</ns3:atemp>
          </ns3:TrackPointExtension>
        </extensions>
      </trkpt>
      <trkpt lat="42.57021090947091579437255859375" lon="20.0334451161324977874755859375">
        <ele>1984.4000244140625</ele>
        <time>2026-06-15T13:34:45.000Z</time>
        <extensions>
          <ns3:TrackPointExtension>
            <ns3:atemp>25.0</ns3:atemp>
          </ns3:TrackPointExtension>
        </extensions>
      </trkpt>
      <trkpt lat="42.570212669670581817626953125" lon="20.03342843614518642425537109375">
        <ele>1984.4000244140625</ele>
        <time>2026-06-15T13:34:46.000Z</time>
        <extensions>
          <ns3:TrackPointExtension>
            <ns3:atemp>25.0</ns3:atemp>
          </ns3:TrackPointExtension>
        </extensions>
      </trkpt>
      <trkpt lat="42.5702114962041378021240234375" lon="20.03341251052916049957275390625">
        <ele>1985</ele>
        <time>2026-06-15T13:34:47.000Z</time>
        <extensions>
          <ns3:TrackPointExtension>
            <ns3:atemp>25.0</ns3:atemp>
          </ns3:TrackPointExtension>
        </extensions>
      </trkpt>
      <trkpt lat="42.57020873017609119415283203125" lon="20.03340178169310092926025390625">
        <ele>1985.4000244140625</ele>
        <time>2026-06-15T13:34:48.000Z</time>
        <extensions>
          <ns3:TrackPointExtension>
            <ns3:atemp>25.0</ns3:atemp>
          </ns3:TrackPointExtension>
        </extensions>
      </trkpt>
      <trkpt lat="42.5702083110809326171875" lon="20.03338233567774295806884765625">
        <ele>1985.4000244140625</ele>
        <time>2026-06-15T13:34:49.000Z</time>
        <extensions>
          <ns3:TrackPointExtension>
            <ns3:atemp>25.0</ns3:atemp>
          </ns3:TrackPointExtension>
        </extensions>
      </trkpt>
      <trkpt lat="42.57020537741482257843017578125" lon="20.03336523659527301788330078125">
        <ele>1985.5999755859375</ele>
        <time>2026-06-15T13:34:50.000Z</time>
        <extensions>
          <ns3:TrackPointExtension>
            <ns3:atemp>25.0</ns3:atemp>
          </ns3:TrackPointExtension>
        </extensions>
      </trkpt>
      <trkpt lat="42.57020504213869571685791015625" lon="20.033352412283420562744140625">
        <ele>1985.800048828125</ele>
        <time>2026-06-15T13:34:51.000Z</time>
        <extensions>
          <ns3:TrackPointExtension>
            <ns3:atemp>25.0</ns3:atemp>
          </ns3:TrackPointExtension>
        </extensions>
      </trkpt>
      <trkpt lat="42.5702034495770931243896484375" lon="20.03334092907607555389404296875">
        <ele>1985.800048828125</ele>
        <time>2026-06-15T13:34:52.000Z</time>
        <extensions>
          <ns3:TrackPointExtension>
            <ns3:atemp>25.0</ns3:atemp>
          </ns3:TrackPointExtension>
        </extensions>
      </trkpt>
      <trkpt lat="42.57020420394837856292724609375" lon="20.03332718275487422943115234375">
        <ele>1986.199951171875</ele>
        <time>2026-06-15T13:34:53.000Z</time>
        <extensions>
          <ns3:TrackPointExtension>
            <ns3:atemp>25.0</ns3:atemp>
          </ns3:TrackPointExtension>
        </extensions>
      </trkpt>
      <trkpt lat="42.5702051259577274322509765625" lon="20.0333140231668949127197265625">
        <ele>1986.4000244140625</ele>
        <time>2026-06-15T13:34:54.000Z</time>
        <extensions>
          <ns3:TrackPointExtension>
            <ns3:atemp>25.0</ns3:atemp>
          </ns3:TrackPointExtension>
        </extensions>
      </trkpt>
      <trkpt lat="42.57020437158644199371337890625" lon="20.033302120864391326904296875">
        <ele>1986.5999755859375</ele>
        <time>2026-06-15T13:34:55.000Z</time>
        <extensions>
          <ns3:TrackPointExtension>
            <ns3:atemp>25.0</ns3:atemp>
          </ns3:TrackPointExtension>
        </extensions>
      </trkpt>
      <trkpt lat="42.57020386867225170135498046875" lon="20.0332890450954437255859375">
        <ele>1986.5999755859375</ele>
        <time>2026-06-15T13:34:56.000Z</time>
        <extensions>
          <ns3:TrackPointExtension>
            <ns3:atemp>25.0</ns3:atemp>
          </ns3:TrackPointExtension>
        </extensions>
      </trkpt>
      <trkpt lat="42.570199929177761077880859375" lon="20.033269934356212615966796875">
        <ele>1986.5999755859375</ele>
        <time>2026-06-15T13:34:57.000Z</time>
        <extensions>
          <ns3:TrackPointExtension>
            <ns3:atemp>25.0</ns3:atemp>
          </ns3:TrackPointExtension>
        </extensions>
      </trkpt>
      <trkpt lat="42.570196576416492462158203125" lon="20.03325208090245723724365234375">
        <ele>1986.800048828125</ele>
        <time>2026-06-15T13:34:58.000Z</time>
        <extensions>
          <ns3:TrackPointExtension>
            <ns3:atemp>25.0</ns3:atemp>
          </ns3:TrackPointExtension>
        </extensions>
      </trkpt>
      <trkpt lat="42.5701937265694141387939453125" lon="20.03323229961097240447998046875">
        <ele>1986.800048828125</ele>
        <time>2026-06-15T13:34:59.000Z</time>
        <extensions>
          <ns3:TrackPointExtension>
            <ns3:atemp>25.0</ns3:atemp>
          </ns3:TrackPointExtension>
        </extensions>
      </trkpt>
      <trkpt lat="42.57019129581749439239501953125" lon="20.0332137756049633026123046875">
        <ele>1986.5999755859375</ele>
        <time>2026-06-15T13:35:00.000Z</time>
        <extensions>
          <ns3:TrackPointExtension>
            <ns3:atemp>25.0</ns3:atemp>
          </ns3:TrackPointExtension>
        </extensions>
      </trkpt>
      <trkpt lat="42.570185177028179168701171875" lon="20.0332060642540454864501953125">
        <ele>1986.5999755859375</ele>
        <time>2026-06-15T13:35:01.000Z</time>
        <extensions>
          <ns3:TrackPointExtension>
            <ns3:atemp>25.0</ns3:atemp>
          </ns3:TrackPointExtension>
        </extensions>
      </trkpt>
      <trkpt lat="42.570173107087612152099609375" lon="20.033199526369571685791015625">
        <ele>1986.5999755859375</ele>
        <time>2026-06-15T13:35:02.000Z</time>
        <extensions>
          <ns3:TrackPointExtension>
            <ns3:atemp>25.0</ns3:atemp>
          </ns3:TrackPointExtension>
        </extensions>
      </trkpt>
      <trkpt lat="42.57016464136540889739990234375" lon="20.03318988718092441558837890625">
        <ele>1986.4000244140625</ele>
        <time>2026-06-15T13:35:03.000Z</time>
        <extensions>
          <ns3:TrackPointExtension>
            <ns3:atemp>25.0</ns3:atemp>
          </ns3:TrackPointExtension>
        </extensions>
      </trkpt>
      <trkpt lat="42.570161707699298858642578125" lon="20.033173374831676483154296875">
        <ele>1986.5999755859375</ele>
        <time>2026-06-15T13:35:04.000Z</time>
        <extensions>
          <ns3:TrackPointExtension>
            <ns3:atemp>25.0</ns3:atemp>
          </ns3:TrackPointExtension>
        </extensions>
      </trkpt>
      <trkpt lat="42.57016472518444061279296875" lon="20.0331509113311767578125">
        <ele>1987</ele>
        <time>2026-06-15T13:35:05.000Z</time>
        <extensions>
          <ns3:TrackPointExtension>
            <ns3:atemp>25.0</ns3:atemp>
          </ns3:TrackPointExtension>
        </extensions>
      </trkpt>
      <trkpt lat="42.5701692514121532440185546875" lon="20.0331336446106433868408203125">
        <ele>1987.199951171875</ele>
        <time>2026-06-15T13:35:06.000Z</time>
        <extensions>
          <ns3:TrackPointExtension>
            <ns3:atemp>25.0</ns3:atemp>
          </ns3:TrackPointExtension>
        </extensions>
      </trkpt>
      <trkpt lat="42.570169754326343536376953125" lon="20.03312350250780582427978515625">
        <ele>1987.800048828125</ele>
        <time>2026-06-15T13:35:07.000Z</time>
        <extensions>
          <ns3:TrackPointExtension>
            <ns3:atemp>25.0</ns3:atemp>
          </ns3:TrackPointExtension>
        </extensions>
      </trkpt>
      <trkpt lat="42.57016581483185291290283203125" lon="20.03311109729111194610595703125">
        <ele>1987.800048828125</ele>
        <time>2026-06-15T13:35:08.000Z</time>
        <extensions>
          <ns3:TrackPointExtension>
            <ns3:atemp>25.0</ns3:atemp>
          </ns3:TrackPointExtension>
        </extensions>
      </trkpt>
      <trkpt lat="42.57016229443252086639404296875" lon="20.03310321830213069915771484375">
        <ele>1988.199951171875</ele>
        <time>2026-06-15T13:35:09.000Z</time>
        <extensions>
          <ns3:TrackPointExtension>
            <ns3:atemp>25.0</ns3:atemp>
          </ns3:TrackPointExtension>
        </extensions>
      </trkpt>
      <trkpt lat="42.57016061805188655853271484375" lon="20.033084861934185028076171875">
        <ele>1988.5999755859375</ele>
        <time>2026-06-15T13:35:10.000Z</time>
        <extensions>
          <ns3:TrackPointExtension>
            <ns3:atemp>25.0</ns3:atemp>
          </ns3:TrackPointExtension>
        </extensions>
      </trkpt>
      <trkpt lat="42.57015793584287166595458984375" lon="20.0330649130046367645263671875">
        <ele>1988.5999755859375</ele>
        <time>2026-06-15T13:35:11.000Z</time>
        <extensions>
          <ns3:TrackPointExtension>
            <ns3:atemp>25.0</ns3:atemp>
          </ns3:TrackPointExtension>
        </extensions>
      </trkpt>
      <trkpt lat="42.57015625946223735809326171875" lon="20.03304605372250080108642578125">
        <ele>1988.800048828125</ele>
        <time>2026-06-15T13:35:12.000Z</time>
        <extensions>
          <ns3:TrackPointExtension>
            <ns3:atemp>25.0</ns3:atemp>
          </ns3:TrackPointExtension>
        </extensions>
      </trkpt>
      <trkpt lat="42.57015441544353961944580078125" lon="20.033026523888111114501953125">
        <ele>1989</ele>
        <time>2026-06-15T13:35:13.000Z</time>
        <extensions>
          <ns3:TrackPointExtension>
            <ns3:atemp>25.0</ns3:atemp>
          </ns3:TrackPointExtension>
        </extensions>
      </trkpt>
      <trkpt lat="42.57015441544353961944580078125" lon="20.03301034681499004364013671875">
        <ele>1989.199951171875</ele>
        <time>2026-06-15T13:35:14.000Z</time>
        <extensions>
          <ns3:TrackPointExtension>
            <ns3:atemp>25.0</ns3:atemp>
          </ns3:TrackPointExtension>
        </extensions>
      </trkpt>
      <trkpt lat="42.57015475071966648101806640625" lon="20.03298872150480747222900390625">
        <ele>1989.199951171875</ele>
        <time>2026-06-15T13:35:15.000Z</time>
        <extensions>
          <ns3:TrackPointExtension>
            <ns3:atemp>25.0</ns3:atemp>
          </ns3:TrackPointExtension>
        </extensions>
      </trkpt>
      <trkpt lat="42.57015307433903217315673828125" lon="20.0329696945846080780029296875">
        <ele>1989.4000244140625</ele>
        <time>2026-06-15T13:35:16.000Z</time>
        <extensions>
          <ns3:TrackPointExtension>
            <ns3:atemp>25.0</ns3:atemp>
          </ns3:TrackPointExtension>
        </extensions>
      </trkpt>
      <trkpt lat="42.57014905102550983428955078125" lon="20.03294907510280609130859375">
        <ele>1989.199951171875</ele>
        <time>2026-06-15T13:35:17.000Z</time>
        <extensions>
          <ns3:TrackPointExtension>
            <ns3:atemp>25.0</ns3:atemp>
          </ns3:TrackPointExtension>
        </extensions>
      </trkpt>
      <trkpt lat="42.5701425969600677490234375" lon="20.03293239511549472808837890625">
        <ele>1989.199951171875</ele>
        <time>2026-06-15T13:35:18.000Z</time>
        <extensions>
          <ns3:TrackPointExtension>
            <ns3:atemp>25.0</ns3:atemp>
          </ns3:TrackPointExtension>
        </extensions>
      </trkpt>
      <trkpt lat="42.570135556161403656005859375" lon="20.0329210795462131500244140625">
        <ele>1989</ele>
        <time>2026-06-15T13:35:19.000Z</time>
        <extensions>
          <ns3:TrackPointExtension>
            <ns3:atemp>25.0</ns3:atemp>
          </ns3:TrackPointExtension>
        </extensions>
      </trkpt>
      <trkpt lat="42.57012776099145412445068359375" lon="20.03291110508143901824951171875">
        <ele>1988.800048828125</ele>
        <time>2026-06-15T13:35:20.000Z</time>
        <extensions>
          <ns3:TrackPointExtension>
            <ns3:atemp>25.0</ns3:atemp>
          </ns3:TrackPointExtension>
        </extensions>
      </trkpt>
      <trkpt lat="42.570124827325344085693359375" lon="20.03290222026407718658447265625">
        <ele>1988.800048828125</ele>
        <time>2026-06-15T13:35:21.000Z</time>
        <extensions>
          <ns3:TrackPointExtension>
            <ns3:atemp>25.0</ns3:atemp>
          </ns3:TrackPointExtension>
        </extensions>
      </trkpt>
      <trkpt lat="42.57011652924120426177978515625" lon="20.0328912399709224700927734375">
        <ele>1988.5999755859375</ele>
        <time>2026-06-15T13:35:22.000Z</time>
        <extensions>
          <ns3:TrackPointExtension>
            <ns3:atemp>25.0</ns3:atemp>
          </ns3:TrackPointExtension>
        </extensions>
      </trkpt>
      <trkpt lat="42.57011183537542819976806640625" lon="20.03288042731583118438720703125">
        <ele>1988.4000244140625</ele>
        <time>2026-06-15T13:35:23.000Z</time>
        <extensions>
          <ns3:TrackPointExtension>
            <ns3:atemp>25.0</ns3:atemp>
          </ns3:TrackPointExtension>
        </extensions>
      </trkpt>
      <trkpt lat="42.570103369653224945068359375" lon="20.0328707881271839141845703125">
        <ele>1988.199951171875</ele>
        <time>2026-06-15T13:35:24.000Z</time>
        <extensions>
          <ns3:TrackPointExtension>
            <ns3:atemp>25.0</ns3:atemp>
          </ns3:TrackPointExtension>
        </extensions>
      </trkpt>
      <trkpt lat="42.57009859196841716766357421875" lon="20.03286131657660007476806640625">
        <ele>1988.199951171875</ele>
        <time>2026-06-15T13:35:25.000Z</time>
        <extensions>
          <ns3:TrackPointExtension>
            <ns3:atemp>25.0</ns3:atemp>
          </ns3:TrackPointExtension>
        </extensions>
      </trkpt>
      <trkpt lat="42.57009029388427734375" lon="20.0328479893505573272705078125">
        <ele>1988.199951171875</ele>
        <time>2026-06-15T13:35:26.000Z</time>
        <extensions>
          <ns3:TrackPointExtension>
            <ns3:atemp>25.0</ns3:atemp>
          </ns3:TrackPointExtension>
        </extensions>
      </trkpt>
      <trkpt lat="42.57008736021816730499267578125" lon="20.03283415921032428741455078125">
        <ele>1988.199951171875</ele>
        <time>2026-06-15T13:35:27.000Z</time>
        <extensions>
          <ns3:TrackPointExtension>
            <ns3:atemp>25.0</ns3:atemp>
          </ns3:TrackPointExtension>
        </extensions>
      </trkpt>
      <trkpt lat="42.57008182816207408905029296875" lon="20.0328171439468860626220703125">
        <ele>1988.4000244140625</ele>
        <time>2026-06-15T13:35:28.000Z</time>
        <extensions>
          <ns3:TrackPointExtension>
            <ns3:atemp>25.0</ns3:atemp>
          </ns3:TrackPointExtension>
        </extensions>
      </trkpt>
      <trkpt lat="42.57007964886724948883056640625" lon="20.0328008830547332763671875">
        <ele>1989</ele>
        <time>2026-06-15T13:35:29.000Z</time>
        <extensions>
          <ns3:TrackPointExtension>
            <ns3:atemp>25.0</ns3:atemp>
          </ns3:TrackPointExtension>
        </extensions>
      </trkpt>
      <trkpt lat="42.57007730193436145782470703125" lon="20.0327769108116626739501953125">
        <ele>1989.5999755859375</ele>
        <time>2026-06-15T13:35:30.000Z</time>
        <extensions>
          <ns3:TrackPointExtension>
            <ns3:atemp>25.0</ns3:atemp>
          </ns3:TrackPointExtension>
        </extensions>
      </trkpt>
      <trkpt lat="42.5700755417346954345703125" lon="20.0327614881098270416259765625">
        <ele>1990</ele>
        <time>2026-06-15T13:35:31.000Z</time>
        <extensions>
          <ns3:TrackPointExtension>
            <ns3:atemp>25.0</ns3:atemp>
          </ns3:TrackPointExtension>
        </extensions>
      </trkpt>
      <trkpt lat="42.5700726918876171112060546875" lon="20.03275059163570404052734375">
        <ele>1990.4000244140625</ele>
        <time>2026-06-15T13:35:32.000Z</time>
        <extensions>
          <ns3:TrackPointExtension>
            <ns3:atemp>25.0</ns3:atemp>
          </ns3:TrackPointExtension>
        </extensions>
      </trkpt>
      <trkpt lat="42.5700701773166656494140625" lon="20.0327390246093273162841796875">
        <ele>1990.5999755859375</ele>
        <time>2026-06-15T13:35:33.000Z</time>
        <extensions>
          <ns3:TrackPointExtension>
            <ns3:atemp>25.0</ns3:atemp>
          </ns3:TrackPointExtension>
        </extensions>
      </trkpt>
      <trkpt lat="42.5700703449547290802001953125" lon="20.03272687084972858428955078125">
        <ele>1991</ele>
        <time>2026-06-15T13:35:34.000Z</time>
        <extensions>
          <ns3:TrackPointExtension>
            <ns3:atemp>25.0</ns3:atemp>
          </ns3:TrackPointExtension>
        </extensions>
      </trkpt>
      <trkpt lat="42.570073194801807403564453125" lon="20.032715387642383575439453125">
        <ele>1991.199951171875</ele>
        <time>2026-06-15T13:35:35.000Z</time>
        <extensions>
          <ns3:TrackPointExtension>
            <ns3:atemp>25.0</ns3:atemp>
          </ns3:TrackPointExtension>
        </extensions>
      </trkpt>
      <trkpt lat="42.5700804032385349273681640625" lon="20.03269803710281848907470703125">
        <ele>1991.4000244140625</ele>
        <time>2026-06-15T13:35:36.000Z</time>
        <extensions>
          <ns3:TrackPointExtension>
            <ns3:atemp>25.0</ns3:atemp>
          </ns3:TrackPointExtension>
        </extensions>
      </trkpt>
      <trkpt lat="42.5700807385146617889404296875" lon="20.0326833687722682952880859375">
        <ele>1991.800048828125</ele>
        <time>2026-06-15T13:35:37.000Z</time>
        <extensions>
          <ns3:TrackPointExtension>
            <ns3:atemp>25.0</ns3:atemp>
          </ns3:TrackPointExtension>
        </extensions>
      </trkpt>
      <trkpt lat="42.570083923637866973876953125" lon="20.03266233019530773162841796875">
        <ele>1991.800048828125</ele>
        <time>2026-06-15T13:35:38.000Z</time>
        <extensions>
          <ns3:TrackPointExtension>
            <ns3:atemp>25.0</ns3:atemp>
          </ns3:TrackPointExtension>
        </extensions>
      </trkpt>
      <trkpt lat="42.57008601911365985870361328125" lon="20.032649338245391845703125">
        <ele>1991.4000244140625</ele>
        <time>2026-06-15T13:35:39.000Z</time>
        <extensions>
          <ns3:TrackPointExtension>
            <ns3:atemp>25.0</ns3:atemp>
          </ns3:TrackPointExtension>
        </extensions>
      </trkpt>
      <trkpt lat="42.570082582533359527587890625" lon="20.0326340831816196441650390625">
        <ele>1991</ele>
        <time>2026-06-15T13:35:40.000Z</time>
        <extensions>
          <ns3:TrackPointExtension>
            <ns3:atemp>25.0</ns3:atemp>
          </ns3:TrackPointExtension>
        </extensions>
      </trkpt>
      <trkpt lat="42.570082582533359527587890625" lon="20.0326206721365451812744140625">
        <ele>1990.5999755859375</ele>
        <time>2026-06-15T13:35:41.000Z</time>
        <extensions>
          <ns3:TrackPointExtension>
            <ns3:atemp>25.0</ns3:atemp>
          </ns3:TrackPointExtension>
        </extensions>
      </trkpt>
      <trkpt lat="42.57007847540080547332763671875" lon="20.0326122902333736419677734375">
        <ele>1990.4000244140625</ele>
        <time>2026-06-15T13:35:42.000Z</time>
        <extensions>
          <ns3:TrackPointExtension>
            <ns3:atemp>25.0</ns3:atemp>
          </ns3:TrackPointExtension>
        </extensions>
      </trkpt>
      <trkpt lat="42.57007713429629802703857421875" lon="20.03259661607444286346435546875">
        <ele>1990.199951171875</ele>
        <time>2026-06-15T13:35:43.000Z</time>
        <extensions>
          <ns3:TrackPointExtension>
            <ns3:atemp>25.0</ns3:atemp>
          </ns3:TrackPointExtension>
        </extensions>
      </trkpt>
      <trkpt lat="42.570075877010822296142578125" lon="20.03258286975324153900146484375">
        <ele>1990</ele>
        <time>2026-06-15T13:35:44.000Z</time>
        <extensions>
          <ns3:TrackPointExtension>
            <ns3:atemp>25.0</ns3:atemp>
          </ns3:TrackPointExtension>
        </extensions>
      </trkpt>
      <trkpt lat="42.57007260806858539581298828125" lon="20.03257079981267452239990234375">
        <ele>1989.5999755859375</ele>
        <time>2026-06-15T13:35:45.000Z</time>
        <extensions>
          <ns3:TrackPointExtension>
            <ns3:atemp>25.0</ns3:atemp>
          </ns3:TrackPointExtension>
        </extensions>
      </trkpt>
      <trkpt lat="42.57006774656474590301513671875" lon="20.0325583107769489288330078125">
        <ele>1989</ele>
        <time>2026-06-15T13:35:46.000Z</time>
        <extensions>
          <ns3:TrackPointExtension>
            <ns3:atemp>25.0</ns3:atemp>
          </ns3:TrackPointExtension>
        </extensions>
      </trkpt>
      <trkpt lat="42.5700648128986358642578125" lon="20.0325392000377178192138671875">
        <ele>1989</ele>
        <time>2026-06-15T13:35:47.000Z</time>
        <extensions>
          <ns3:TrackPointExtension>
            <ns3:atemp>25.0</ns3:atemp>
          </ns3:TrackPointExtension>
        </extensions>
      </trkpt>
      <trkpt lat="42.570063807070255279541015625" lon="20.0325224362313747406005859375">
        <ele>1989</ele>
        <time>2026-06-15T13:35:48.000Z</time>
        <extensions>
          <ns3:TrackPointExtension>
            <ns3:atemp>25.0</ns3:atemp>
          </ns3:TrackPointExtension>
        </extensions>
      </trkpt>
      <trkpt lat="42.57006288506090641021728515625" lon="20.03250089474022388458251953125">
        <ele>1989</ele>
        <time>2026-06-15T13:35:49.000Z</time>
        <extensions>
          <ns3:TrackPointExtension>
            <ns3:atemp>25.0</ns3:atemp>
          </ns3:TrackPointExtension>
        </extensions>
      </trkpt>
      <trkpt lat="42.57006154395639896392822265625" lon="20.032486729323863983154296875">
        <ele>1989</ele>
        <time>2026-06-15T13:35:50.000Z</time>
        <extensions>
          <ns3:TrackPointExtension>
            <ns3:atemp>25.0</ns3:atemp>
          </ns3:TrackPointExtension>
        </extensions>
      </trkpt>
      <trkpt lat="42.57005735300481319427490234375" lon="20.0324763357639312744140625">
        <ele>1989.4000244140625</ele>
        <time>2026-06-15T13:35:51.000Z</time>
        <extensions>
          <ns3:TrackPointExtension>
            <ns3:atemp>25.0</ns3:atemp>
          </ns3:TrackPointExtension>
        </extensions>
      </trkpt>
      <trkpt lat="42.570060789585113525390625" lon="20.0324597395956516265869140625">
        <ele>1989.4000244140625</ele>
        <time>2026-06-15T13:35:52.000Z</time>
        <extensions>
          <ns3:TrackPointExtension>
            <ns3:atemp>25.0</ns3:atemp>
          </ns3:TrackPointExtension>
        </extensions>
      </trkpt>
      <trkpt lat="42.5700612924993038177490234375" lon="20.0324473343789577484130859375">
        <ele>1989.5999755859375</ele>
        <time>2026-06-15T13:35:53.000Z</time>
        <extensions>
          <ns3:TrackPointExtension>
            <ns3:atemp>25.0</ns3:atemp>
          </ns3:TrackPointExtension>
        </extensions>
      </trkpt>
      <trkpt lat="42.5700582750141620635986328125" lon="20.0324345938861370086669921875">
        <ele>1990</ele>
        <time>2026-06-15T13:35:54.000Z</time>
        <extensions>
          <ns3:TrackPointExtension>
            <ns3:atemp>25.0</ns3:atemp>
          </ns3:TrackPointExtension>
        </extensions>
      </trkpt>
      <trkpt lat="42.57005274295806884765625" lon="20.0324215181171894073486328125">
        <ele>1990</ele>
        <time>2026-06-15T13:35:55.000Z</time>
        <extensions>
          <ns3:TrackPointExtension>
            <ns3:atemp>25.0</ns3:atemp>
          </ns3:TrackPointExtension>
        </extensions>
      </trkpt>
      <trkpt lat="42.57004511542618274688720703125" lon="20.03241171129047870635986328125">
        <ele>1990</ele>
        <time>2026-06-15T13:35:56.000Z</time>
        <extensions>
          <ns3:TrackPointExtension>
            <ns3:atemp>25.0</ns3:atemp>
          </ns3:TrackPointExtension>
        </extensions>
      </trkpt>
      <trkpt lat="42.570037655532360076904296875" lon="20.0323997251689434051513671875">
        <ele>1990</ele>
        <time>2026-06-15T13:35:57.000Z</time>
        <extensions>
          <ns3:TrackPointExtension>
            <ns3:atemp>25.0</ns3:atemp>
          </ns3:TrackPointExtension>
        </extensions>
      </trkpt>
      <trkpt lat="42.57002918981015682220458984375" lon="20.03238472156226634979248046875">
        <ele>1990.199951171875</ele>
        <time>2026-06-15T13:35:58.000Z</time>
        <extensions>
          <ns3:TrackPointExtension>
            <ns3:atemp>25.0</ns3:atemp>
          </ns3:TrackPointExtension>
        </extensions>
      </trkpt>
      <trkpt lat="42.57002030499279499053955078125" lon="20.03236946649849414825439453125">
        <ele>1990.199951171875</ele>
        <time>2026-06-15T13:35:59.000Z</time>
        <extensions>
          <ns3:TrackPointExtension>
            <ns3:atemp>25.0</ns3:atemp>
          </ns3:TrackPointExtension>
        </extensions>
      </trkpt>
      <trkpt lat="42.57001041434705257415771484375" lon="20.032354630529880523681640625">
        <ele>1990.4000244140625</ele>
        <time>2026-06-15T13:36:00.000Z</time>
        <extensions>
          <ns3:TrackPointExtension>
            <ns3:atemp>25.0</ns3:atemp>
          </ns3:TrackPointExtension>
        </extensions>
      </trkpt>
      <trkpt lat="42.57000002078711986541748046875" lon="20.03234717063605785369873046875">
        <ele>1990.4000244140625</ele>
        <time>2026-06-15T13:36:01.000Z</time>
        <extensions>
          <ns3:TrackPointExtension>
            <ns3:atemp>25.0</ns3:atemp>
          </ns3:TrackPointExtension>
        </extensions>
      </trkpt>
      <trkpt lat="42.56999096833169460296630859375" lon="20.03233744762837886810302734375">
        <ele>1990.5999755859375</ele>
        <time>2026-06-15T13:36:02.000Z</time>
        <extensions>
          <ns3:TrackPointExtension>
            <ns3:atemp>25.0</ns3:atemp>
          </ns3:TrackPointExtension>
        </extensions>
      </trkpt>
      <trkpt lat="42.56998359225690364837646484375" lon="20.03232940100133419036865234375">
        <ele>1990.5999755859375</ele>
        <time>2026-06-15T13:36:03.000Z</time>
        <extensions>
          <ns3:TrackPointExtension>
            <ns3:atemp>25.0</ns3:atemp>
          </ns3:TrackPointExtension>
        </extensions>
      </trkpt>
      <trkpt lat="42.56997789256274700164794921875" lon="20.03232588060200214385986328125">
        <ele>1990.800048828125</ele>
        <time>2026-06-15T13:36:04.000Z</time>
        <extensions>
          <ns3:TrackPointExtension>
            <ns3:atemp>25.0</ns3:atemp>
          </ns3:TrackPointExtension>
        </extensions>
      </trkpt>
      <trkpt lat="42.56997269578278064727783203125" lon="20.03231766633689403533935546875">
        <ele>1990.800048828125</ele>
        <time>2026-06-15T13:36:05.000Z</time>
        <extensions>
          <ns3:TrackPointExtension>
            <ns3:atemp>25.0</ns3:atemp>
          </ns3:TrackPointExtension>
        </extensions>
      </trkpt>
      <trkpt lat="42.56996464915573596954345703125" lon="20.03231045790016651153564453125">
        <ele>1990.800048828125</ele>
        <time>2026-06-15T13:36:06.000Z</time>
        <extensions>
          <ns3:TrackPointExtension>
            <ns3:atemp>25.0</ns3:atemp>
          </ns3:TrackPointExtension>
        </extensions>
      </trkpt>
      <trkpt lat="42.56995291449129581451416015625" lon="20.03229620866477489471435546875">
        <ele>1991</ele>
        <time>2026-06-15T13:36:07.000Z</time>
        <extensions>
          <ns3:TrackPointExtension>
            <ns3:atemp>25.0</ns3:atemp>
          </ns3:TrackPointExtension>
        </extensions>
      </trkpt>
      <trkpt lat="42.56994654424488544464111328125" lon="20.03229268826544284820556640625">
        <ele>1991</ele>
        <time>2026-06-15T13:36:08.000Z</time>
        <extensions>
          <ns3:TrackPointExtension>
            <ns3:atemp>25.0</ns3:atemp>
          </ns3:TrackPointExtension>
        </extensions>
      </trkpt>
      <trkpt lat="42.56993941962718963623046875" lon="20.0322877429425716400146484375">
        <ele>1991.199951171875</ele>
        <time>2026-06-15T13:36:09.000Z</time>
        <extensions>
          <ns3:TrackPointExtension>
            <ns3:atemp>25.0</ns3:atemp>
          </ns3:TrackPointExtension>
        </extensions>
      </trkpt>
      <trkpt lat="42.56993279792368412017822265625" lon="20.03227852284908294677734375">
        <ele>1991.199951171875</ele>
        <time>2026-06-15T13:36:10.000Z</time>
        <extensions>
          <ns3:TrackPointExtension>
            <ns3:atemp>25.0</ns3:atemp>
          </ns3:TrackPointExtension>
        </extensions>
      </trkpt>
      <trkpt lat="42.56992357783019542694091796875" lon="20.0322646088898181915283203125">
        <ele>1991.5999755859375</ele>
        <time>2026-06-15T13:36:11.000Z</time>
        <extensions>
          <ns3:TrackPointExtension>
            <ns3:atemp>25.0</ns3:atemp>
          </ns3:TrackPointExtension>
        </extensions>
      </trkpt>
      <trkpt lat="42.5699137710034847259521484375" lon="20.03225312568247318267822265625">
        <ele>1991.800048828125</ele>
        <time>2026-06-15T13:36:12.000Z</time>
        <extensions>
          <ns3:TrackPointExtension>
            <ns3:atemp>25.0</ns3:atemp>
          </ns3:TrackPointExtension>
        </extensions>
      </trkpt>
      <trkpt lat="42.569905556738376617431640625" lon="20.03224809654057025909423828125">
        <ele>1991.800048828125</ele>
        <time>2026-06-15T13:36:13.000Z</time>
        <extensions>
          <ns3:TrackPointExtension>
            <ns3:atemp>25.0</ns3:atemp>
          </ns3:TrackPointExtension>
        </extensions>
      </trkpt>
      <trkpt lat="42.5698983483016490936279296875" lon="20.03224072046577930450439453125">
        <ele>1992.199951171875</ele>
        <time>2026-06-15T13:36:14.000Z</time>
        <extensions>
          <ns3:TrackPointExtension>
            <ns3:atemp>25.0</ns3:atemp>
          </ns3:TrackPointExtension>
        </extensions>
      </trkpt>
      <trkpt lat="42.56989105604588985443115234375" lon="20.03223133273422718048095703125">
        <ele>1992.4000244140625</ele>
        <time>2026-06-15T13:36:15.000Z</time>
        <extensions>
          <ns3:TrackPointExtension>
            <ns3:atemp>25.0</ns3:atemp>
          </ns3:TrackPointExtension>
        </extensions>
      </trkpt>
      <trkpt lat="42.56988577544689178466796875" lon="20.03222621977329254150390625">
        <ele>1992.4000244140625</ele>
        <time>2026-06-15T13:36:16.000Z</time>
        <extensions>
          <ns3:TrackPointExtension>
            <ns3:atemp>25.0</ns3:atemp>
          </ns3:TrackPointExtension>
        </extensions>
      </trkpt>
      <trkpt lat="42.56987462751567363739013671875" lon="20.032225549221038818359375">
        <ele>1992.4000244140625</ele>
        <time>2026-06-15T13:36:17.000Z</time>
        <extensions>
          <ns3:TrackPointExtension>
            <ns3:atemp>25.0</ns3:atemp>
          </ns3:TrackPointExtension>
        </extensions>
      </trkpt>
      <trkpt lat="42.5698708556592464447021484375" lon="20.0322280637919902801513671875">
        <ele>1992.4000244140625</ele>
        <time>2026-06-15T13:36:18.000Z</time>
        <extensions>
          <ns3:TrackPointExtension>
            <ns3:atemp>25.0</ns3:atemp>
          </ns3:TrackPointExtension>
        </extensions>
      </trkpt>
      <trkpt lat="42.569861300289630889892578125" lon="20.0322257168591022491455078125">
        <ele>1992.4000244140625</ele>
        <time>2026-06-15T13:36:19.000Z</time>
        <extensions>
          <ns3:TrackPointExtension>
            <ns3:atemp>25.0</ns3:atemp>
          </ns3:TrackPointExtension>
        </extensions>
      </trkpt>
      <trkpt lat="42.56985115818679332733154296875" lon="20.0322116352617740631103515625">
        <ele>1992.5999755859375</ele>
        <time>2026-06-15T13:36:20.000Z</time>
        <extensions>
          <ns3:TrackPointExtension>
            <ns3:atemp>25.0</ns3:atemp>
          </ns3:TrackPointExtension>
        </extensions>
      </trkpt>
      <trkpt lat="42.56984696723520755767822265625" lon="20.03219805657863616943359375">
        <ele>1992.800048828125</ele>
        <time>2026-06-15T13:36:21.000Z</time>
        <extensions>
          <ns3:TrackPointExtension>
            <ns3:atemp>25.0</ns3:atemp>
          </ns3:TrackPointExtension>
        </extensions>
      </trkpt>
      <trkpt lat="42.5698433630168437957763671875" lon="20.03218355588614940643310546875">
        <ele>1993.199951171875</ele>
        <time>2026-06-15T13:36:22.000Z</time>
        <extensions>
          <ns3:TrackPointExtension>
            <ns3:atemp>25.0</ns3:atemp>
          </ns3:TrackPointExtension>
        </extensions>
      </trkpt>
      <trkpt lat="42.56983959116041660308837890625" lon="20.0321693904697895050048828125">
        <ele>1993.5999755859375</ele>
        <time>2026-06-15T13:36:23.000Z</time>
        <extensions>
          <ns3:TrackPointExtension>
            <ns3:atemp>25.0</ns3:atemp>
          </ns3:TrackPointExtension>
        </extensions>
      </trkpt>
      <trkpt lat="42.5698383338749408721923828125" lon="20.03215539269149303436279296875">
        <ele>1993.800048828125</ele>
        <time>2026-06-15T13:36:24.000Z</time>
        <extensions>
          <ns3:TrackPointExtension>
            <ns3:atemp>25.0</ns3:atemp>
          </ns3:TrackPointExtension>
        </extensions>
      </trkpt>
      <trkpt lat="42.56983481347560882568359375" lon="20.03214843571186065673828125">
        <ele>1994.4000244140625</ele>
        <time>2026-06-15T13:36:25.000Z</time>
        <extensions>
          <ns3:TrackPointExtension>
            <ns3:atemp>25.0</ns3:atemp>
          </ns3:TrackPointExtension>
        </extensions>
      </trkpt>
      <trkpt lat="42.5698292814195156097412109375" lon="20.03214835189282894134521484375">
        <ele>1994.4000244140625</ele>
        <time>2026-06-15T13:36:26.000Z</time>
        <extensions>
          <ns3:TrackPointExtension>
            <ns3:atemp>25.0</ns3:atemp>
          </ns3:TrackPointExtension>
        </extensions>
      </trkpt>
      <trkpt lat="42.5698222406208515167236328125" lon="20.03214298747479915618896484375">
        <ele>1994.4000244140625</ele>
        <time>2026-06-15T13:36:27.000Z</time>
        <extensions>
          <ns3:TrackPointExtension>
            <ns3:atemp>25.0</ns3:atemp>
          </ns3:TrackPointExtension>
        </extensions>
      </trkpt>
      <trkpt lat="42.56981226615607738494873046875" lon="20.03213108517229557037353515625">
        <ele>1994.4000244140625</ele>
        <time>2026-06-15T13:36:28.000Z</time>
        <extensions>
          <ns3:TrackPointExtension>
            <ns3:atemp>25.0</ns3:atemp>
          </ns3:TrackPointExtension>
        </extensions>
      </trkpt>
      <trkpt lat="42.56980933248996734619140625" lon="20.03212303854525089263916015625">
        <ele>1994.4000244140625</ele>
        <time>2026-06-15T13:36:29.000Z</time>
        <extensions>
          <ns3:TrackPointExtension>
            <ns3:atemp>25.0</ns3:atemp>
          </ns3:TrackPointExtension>
        </extensions>
      </trkpt>
      <trkpt lat="42.56980086676776409149169921875" lon="20.032121278345584869384765625">
        <ele>1994.4000244140625</ele>
        <time>2026-06-15T13:36:30.000Z</time>
        <extensions>
          <ns3:TrackPointExtension>
            <ns3:atemp>25.0</ns3:atemp>
          </ns3:TrackPointExtension>
        </extensions>
      </trkpt>
      <trkpt lat="42.5697940774261951446533203125" lon="20.03211683593690395355224609375">
        <ele>1994.4000244140625</ele>
        <time>2026-06-15T13:36:31.000Z</time>
        <extensions>
          <ns3:TrackPointExtension>
            <ns3:atemp>25.0</ns3:atemp>
          </ns3:TrackPointExtension>
        </extensions>
      </trkpt>
      <trkpt lat="42.56979198195040225982666015625" lon="20.0321070291101932525634765625">
        <ele>1994.800048828125</ele>
        <time>2026-06-15T13:36:32.000Z</time>
        <extensions>
          <ns3:TrackPointExtension>
            <ns3:atemp>25.0</ns3:atemp>
          </ns3:TrackPointExtension>
        </extensions>
      </trkpt>
      <trkpt lat="42.56978443823754787445068359375" lon="20.03210040740668773651123046875">
        <ele>1994.800048828125</ele>
        <time>2026-06-15T13:36:33.000Z</time>
        <extensions>
          <ns3:TrackPointExtension>
            <ns3:atemp>25.0</ns3:atemp>
          </ns3:TrackPointExtension>
        </extensions>
      </trkpt>
      <trkpt lat="42.56977354176342487335205078125" lon="20.0320981442928314208984375">
        <ele>1995</ele>
        <time>2026-06-15T13:36:34.000Z</time>
        <extensions>
          <ns3:TrackPointExtension>
            <ns3:atemp>25.0</ns3:atemp>
          </ns3:TrackPointExtension>
        </extensions>
      </trkpt>
      <trkpt lat="42.5697642378509044647216796875" lon="20.0320952944457530975341796875">
        <ele>1995.199951171875</ele>
        <time>2026-06-15T13:36:35.000Z</time>
        <extensions>
          <ns3:TrackPointExtension>
            <ns3:atemp>25.0</ns3:atemp>
          </ns3:TrackPointExtension>
        </extensions>
      </trkpt>
      <trkpt lat="42.5697558559477329254150390625" lon="20.03209537826478481292724609375">
        <ele>1995.199951171875</ele>
        <time>2026-06-15T13:36:36.000Z</time>
        <extensions>
          <ns3:TrackPointExtension>
            <ns3:atemp>25.0</ns3:atemp>
          </ns3:TrackPointExtension>
        </extensions>
      </trkpt>
      <trkpt lat="42.569744288921356201171875" lon="20.0320895947515964508056640625">
        <ele>1995.4000244140625</ele>
        <time>2026-06-15T13:36:37.000Z</time>
        <extensions>
          <ns3:TrackPointExtension>
            <ns3:atemp>25.0</ns3:atemp>
          </ns3:TrackPointExtension>
        </extensions>
      </trkpt>
      <trkpt lat="42.569738924503326416015625" lon="20.03208942711353302001953125">
        <ele>1995.5999755859375</ele>
        <time>2026-06-15T13:36:38.000Z</time>
        <extensions>
          <ns3:TrackPointExtension>
            <ns3:atemp>25.0</ns3:atemp>
          </ns3:TrackPointExtension>
        </extensions>
      </trkpt>
      <trkpt lat="42.5697343982756137847900390625" lon="20.03208397887647151947021484375">
        <ele>1996</ele>
        <time>2026-06-15T13:36:39.000Z</time>
        <extensions>
          <ns3:TrackPointExtension>
            <ns3:atemp>25.0</ns3:atemp>
          </ns3:TrackPointExtension>
        </extensions>
      </trkpt>
      <trkpt lat="42.569731213152408599853515625" lon="20.03207727335393428802490234375">
        <ele>1996.199951171875</ele>
        <time>2026-06-15T13:36:40.000Z</time>
        <extensions>
          <ns3:TrackPointExtension>
            <ns3:atemp>25.0</ns3:atemp>
          </ns3:TrackPointExtension>
        </extensions>
      </trkpt>
      <trkpt lat="42.56972425617277622222900390625" lon="20.03207140602171421051025390625">
        <ele>1996.5999755859375</ele>
        <time>2026-06-15T13:36:41.000Z</time>
        <extensions>
          <ns3:TrackPointExtension>
            <ns3:atemp>25.0</ns3:atemp>
          </ns3:TrackPointExtension>
        </extensions>
      </trkpt>
      <trkpt lat="42.56971688009798526763916015625" lon="20.0320698134601116180419921875">
        <ele>1996.800048828125</ele>
        <time>2026-06-15T13:36:42.000Z</time>
        <extensions>
          <ns3:TrackPointExtension>
            <ns3:atemp>25.0</ns3:atemp>
          </ns3:TrackPointExtension>
        </extensions>
      </trkpt>
      <trkpt lat="42.56971168331801891326904296875" lon="20.03206503577530384063720703125">
        <ele>1997.199951171875</ele>
        <time>2026-06-15T13:36:43.000Z</time>
        <extensions>
          <ns3:TrackPointExtension>
            <ns3:atemp>25.0</ns3:atemp>
          </ns3:TrackPointExtension>
        </extensions>
      </trkpt>
      <trkpt lat="42.56970246322453022003173828125" lon="20.03205950371921062469482421875">
        <ele>1997.4000244140625</ele>
        <time>2026-06-15T13:36:44.000Z</time>
        <extensions>
          <ns3:TrackPointExtension>
            <ns3:atemp>26.0</ns3:atemp>
          </ns3:TrackPointExtension>
        </extensions>
      </trkpt>
      <trkpt lat="42.56969131529331207275390625" lon="20.0320570729672908782958984375">
        <ele>1997.800048828125</ele>
        <time>2026-06-15T13:36:45.000Z</time>
        <extensions>
          <ns3:TrackPointExtension>
            <ns3:atemp>26.0</ns3:atemp>
          </ns3:TrackPointExtension>
        </extensions>
      </trkpt>
      <trkpt lat="42.56968201138079166412353515625" lon="20.0320540554821491241455078125">
        <ele>1998.4000244140625</ele>
        <time>2026-06-15T13:36:46.000Z</time>
        <extensions>
          <ns3:TrackPointExtension>
            <ns3:atemp>26.0</ns3:atemp>
          </ns3:TrackPointExtension>
        </extensions>
      </trkpt>
      <trkpt lat="42.5696733780205249786376953125" lon="20.032046176493167877197265625">
        <ele>1998.5999755859375</ele>
        <time>2026-06-15T13:36:47.000Z</time>
        <extensions>
          <ns3:TrackPointExtension>
            <ns3:atemp>26.0</ns3:atemp>
          </ns3:TrackPointExtension>
        </extensions>
      </trkpt>
      <trkpt lat="42.56966717541217803955078125" lon="20.03203636966645717620849609375">
        <ele>1999</ele>
        <time>2026-06-15T13:36:48.000Z</time>
        <extensions>
          <ns3:TrackPointExtension>
            <ns3:atemp>26.0</ns3:atemp>
          </ns3:TrackPointExtension>
        </extensions>
      </trkpt>
      <trkpt lat="42.5696646608412265777587890625" lon="20.0320310890674591064453125">
        <ele>1999.199951171875</ele>
        <time>2026-06-15T13:36:49.000Z</time>
        <extensions>
          <ns3:TrackPointExtension>
            <ns3:atemp>26.0</ns3:atemp>
          </ns3:TrackPointExtension>
        </extensions>
      </trkpt>
      <trkpt lat="42.56966457702219486236572265625" lon="20.03202178515493869781494140625">
        <ele>1999.4000244140625</ele>
        <time>2026-06-15T13:36:50.000Z</time>
        <extensions>
          <ns3:TrackPointExtension>
            <ns3:atemp>26.0</ns3:atemp>
          </ns3:TrackPointExtension>
        </extensions>
      </trkpt>
      <trkpt lat="42.56965803913772106170654296875" lon="20.032018683850765228271484375">
        <ele>1999.800048828125</ele>
        <time>2026-06-15T13:36:51.000Z</time>
        <extensions>
          <ns3:TrackPointExtension>
            <ns3:atemp>26.0</ns3:atemp>
          </ns3:TrackPointExtension>
        </extensions>
      </trkpt>
      <trkpt lat="42.569653429090976715087890625" lon="20.03201968967914581298828125">
        <ele>2000</ele>
        <time>2026-06-15T13:36:52.000Z</time>
        <extensions>
          <ns3:TrackPointExtension>
            <ns3:atemp>26.0</ns3:atemp>
          </ns3:TrackPointExtension>
        </extensions>
      </trkpt>
      <trkpt lat="42.5696462206542491912841796875" lon="20.03201893530786037445068359375">
        <ele>2000.199951171875</ele>
        <time>2026-06-15T13:36:53.000Z</time>
        <extensions>
          <ns3:TrackPointExtension>
            <ns3:atemp>26.0</ns3:atemp>
          </ns3:TrackPointExtension>
        </extensions>
      </trkpt>
      <trkpt lat="42.5696364976465702056884765625" lon="20.03201575018465518951416015625">
        <ele>2000.5999755859375</ele>
        <time>2026-06-15T13:36:54.000Z</time>
        <extensions>
          <ns3:TrackPointExtension>
            <ns3:atemp>26.0</ns3:atemp>
          </ns3:TrackPointExtension>
        </extensions>
      </trkpt>
      <trkpt lat="42.56963171996176242828369140625" lon="20.0320136547088623046875">
        <ele>2000.5999755859375</ele>
        <time>2026-06-15T13:36:55.000Z</time>
        <extensions>
          <ns3:TrackPointExtension>
            <ns3:atemp>26.0</ns3:atemp>
          </ns3:TrackPointExtension>
        </extensions>
      </trkpt>
      <trkpt lat="42.5696267746388912200927734375" lon="20.03201122395694255828857421875">
        <ele>2000.800048828125</ele>
        <time>2026-06-15T13:36:56.000Z</time>
        <extensions>
          <ns3:TrackPointExtension>
            <ns3:atemp>26.0</ns3:atemp>
          </ns3:TrackPointExtension>
        </extensions>
      </trkpt>
      <trkpt lat="42.56961562670767307281494140625" lon="20.032011307775974273681640625">
        <ele>2001</ele>
        <time>2026-06-15T13:36:57.000Z</time>
        <extensions>
          <ns3:TrackPointExtension>
            <ns3:atemp>26.0</ns3:atemp>
          </ns3:TrackPointExtension>
        </extensions>
      </trkpt>
      <trkpt lat="42.56960741244256496429443359375" lon="20.03200753591954708099365234375">
        <ele>2001.4000244140625</ele>
        <time>2026-06-15T13:36:58.000Z</time>
        <extensions>
          <ns3:TrackPointExtension>
            <ns3:atemp>26.0</ns3:atemp>
          </ns3:TrackPointExtension>
        </extensions>
      </trkpt>
      <trkpt lat="42.56959903053939342498779296875" lon="20.03200099803507328033447265625">
        <ele>2001.5999755859375</ele>
        <time>2026-06-15T13:36:59.000Z</time>
        <extensions>
          <ns3:TrackPointExtension>
            <ns3:atemp>26.0</ns3:atemp>
          </ns3:TrackPointExtension>
        </extensions>
      </trkpt>
      <trkpt lat="42.56959182210266590118408203125" lon="20.0319926999509334564208984375">
        <ele>2001.5999755859375</ele>
        <time>2026-06-15T13:37:00.000Z</time>
        <extensions>
          <ns3:TrackPointExtension>
            <ns3:atemp>26.0</ns3:atemp>
          </ns3:TrackPointExtension>
        </extensions>
      </trkpt>
      <trkpt lat="42.56958243437111377716064453125" lon="20.0319863297045230865478515625">
        <ele>2001.5999755859375</ele>
        <time>2026-06-15T13:37:01.000Z</time>
        <extensions>
          <ns3:TrackPointExtension>
            <ns3:atemp>26.0</ns3:atemp>
          </ns3:TrackPointExtension>
        </extensions>
      </trkpt>
      <trkpt lat="42.56957304663956165313720703125" lon="20.03198155201971530914306640625">
        <ele>2001.800048828125</ele>
        <time>2026-06-15T13:37:02.000Z</time>
        <extensions>
          <ns3:TrackPointExtension>
            <ns3:atemp>26.0</ns3:atemp>
          </ns3:TrackPointExtension>
        </extensions>
      </trkpt>
      <trkpt lat="42.5695632398128509521484375" lon="20.0319823063910007476806640625">
        <ele>2001.800048828125</ele>
        <time>2026-06-15T13:37:03.000Z</time>
        <extensions>
          <ns3:TrackPointExtension>
            <ns3:atemp>26.0</ns3:atemp>
          </ns3:TrackPointExtension>
        </extensions>
      </trkpt>
      <trkpt lat="42.56955393590033054351806640625" lon="20.03197819925844669342041015625">
        <ele>2002</ele>
        <time>2026-06-15T13:37:04.000Z</time>
        <extensions>
          <ns3:TrackPointExtension>
            <ns3:atemp>26.0</ns3:atemp>
          </ns3:TrackPointExtension>
        </extensions>
      </trkpt>
      <trkpt lat="42.56954572163522243499755859375" lon="20.031968392431735992431640625">
        <ele>2002.199951171875</ele>
        <time>2026-06-15T13:37:05.000Z</time>
        <extensions>
          <ns3:TrackPointExtension>
            <ns3:atemp>26.0</ns3:atemp>
          </ns3:TrackPointExtension>
        </extensions>
      </trkpt>
      <trkpt lat="42.56953884847462177276611328125" lon="20.031957663595676422119140625">
        <ele>2002.4000244140625</ele>
        <time>2026-06-15T13:37:06.000Z</time>
        <extensions>
          <ns3:TrackPointExtension>
            <ns3:atemp>26.0</ns3:atemp>
          </ns3:TrackPointExtension>
        </extensions>
      </trkpt>
      <trkpt lat="42.56953063420951366424560546875" lon="20.031950958073139190673828125">
        <ele>2002.4000244140625</ele>
        <time>2026-06-15T13:37:07.000Z</time>
        <extensions>
          <ns3:TrackPointExtension>
            <ns3:atemp>26.0</ns3:atemp>
          </ns3:TrackPointExtension>
        </extensions>
      </trkpt>
      <trkpt lat="42.56952225230634212493896484375" lon="20.03194450400769710540771484375">
        <ele>2002.4000244140625</ele>
        <time>2026-06-15T13:37:08.000Z</time>
        <extensions>
          <ns3:TrackPointExtension>
            <ns3:atemp>26.0</ns3:atemp>
          </ns3:TrackPointExtension>
        </extensions>
      </trkpt>
      <trkpt lat="42.5695168040692806243896484375" lon="20.03194115124642848968505859375">
        <ele>2002.5999755859375</ele>
        <time>2026-06-15T13:37:09.000Z</time>
        <extensions>
          <ns3:TrackPointExtension>
            <ns3:atemp>26.0</ns3:atemp>
          </ns3:TrackPointExtension>
        </extensions>
      </trkpt>
      <trkpt lat="42.56950783543288707733154296875" lon="20.03194416873157024383544921875">
        <ele>2002.5999755859375</ele>
        <time>2026-06-15T13:37:10.000Z</time>
        <extensions>
          <ns3:TrackPointExtension>
            <ns3:atemp>26.0</ns3:atemp>
          </ns3:TrackPointExtension>
        </extensions>
      </trkpt>
      <trkpt lat="42.56949878297746181488037109375" lon="20.031942240893840789794921875">
        <ele>2002.5999755859375</ele>
        <time>2026-06-15T13:37:11.000Z</time>
        <extensions>
          <ns3:TrackPointExtension>
            <ns3:atemp>26.0</ns3:atemp>
          </ns3:TrackPointExtension>
        </extensions>
      </trkpt>
      <trkpt lat="42.5694988667964935302734375" lon="20.03193662501871585845947265625">
        <ele>2002.800048828125</ele>
        <time>2026-06-15T13:37:12.000Z</time>
        <extensions>
          <ns3:TrackPointExtension>
            <ns3:atemp>26.0</ns3:atemp>
          </ns3:TrackPointExtension>
        </extensions>
      </trkpt>
      <trkpt lat="42.56949224509298801422119140625" lon="20.03193628974258899688720703125">
        <ele>2003</ele>
        <time>2026-06-15T13:37:13.000Z</time>
        <extensions>
          <ns3:TrackPointExtension>
            <ns3:atemp>26.0</ns3:atemp>
          </ns3:TrackPointExtension>
        </extensions>
      </trkpt>
      <trkpt lat="42.56948319263756275177001953125" lon="20.031927488744258880615234375">
        <ele>2003.4000244140625</ele>
        <time>2026-06-15T13:37:14.000Z</time>
        <extensions>
          <ns3:TrackPointExtension>
            <ns3:atemp>26.0</ns3:atemp>
          </ns3:TrackPointExtension>
        </extensions>
      </trkpt>
      <trkpt lat="42.5694792531430721282958984375" lon="20.0319212861359119415283203125">
        <ele>2003.5999755859375</ele>
        <time>2026-06-15T13:37:15.000Z</time>
        <extensions>
          <ns3:TrackPointExtension>
            <ns3:atemp>26.0</ns3:atemp>
          </ns3:TrackPointExtension>
        </extensions>
      </trkpt>
      <trkpt lat="42.5694759003818035125732421875" lon="20.03190837800502777099609375">
        <ele>2004.199951171875</ele>
        <time>2026-06-15T13:37:16.000Z</time>
        <extensions>
          <ns3:TrackPointExtension>
            <ns3:atemp>26.0</ns3:atemp>
          </ns3:TrackPointExtension>
        </extensions>
      </trkpt>
      <trkpt lat="42.5694755651056766510009765625" lon="20.03189337439835071563720703125">
        <ele>2004.5999755859375</ele>
        <time>2026-06-15T13:37:17.000Z</time>
        <extensions>
          <ns3:TrackPointExtension>
            <ns3:atemp>26.0</ns3:atemp>
          </ns3:TrackPointExtension>
        </extensions>
      </trkpt>
      <trkpt lat="42.56947330199182033538818359375" lon="20.03189169801771640777587890625">
        <ele>2005</ele>
        <time>2026-06-15T13:37:18.000Z</time>
        <extensions>
          <ns3:TrackPointExtension>
            <ns3:atemp>26.0</ns3:atemp>
          </ns3:TrackPointExtension>
        </extensions>
      </trkpt>
      <trkpt lat="42.56946776993572711944580078125" lon="20.031885243952274322509765625">
        <ele>2005</ele>
        <time>2026-06-15T13:37:19.000Z</time>
        <extensions>
          <ns3:TrackPointExtension>
            <ns3:atemp>26.0</ns3:atemp>
          </ns3:TrackPointExtension>
        </extensions>
      </trkpt>
      <trkpt lat="42.569464333355426788330078125" lon="20.03188180737197399139404296875">
        <ele>2005</ele>
        <time>2026-06-15T13:37:20.000Z</time>
        <extensions>
          <ns3:TrackPointExtension>
            <ns3:atemp>26.0</ns3:atemp>
          </ns3:TrackPointExtension>
        </extensions>
      </trkpt>
      <trkpt lat="42.56945771165192127227783203125" lon="20.03187510184943675994873046875">
        <ele>2005</ele>
        <time>2026-06-15T13:37:21.000Z</time>
        <extensions>
          <ns3:TrackPointExtension>
            <ns3:atemp>26.0</ns3:atemp>
          </ns3:TrackPointExtension>
        </extensions>
      </trkpt>
      <trkpt lat="42.5694534368813037872314453125" lon="20.03186906687915325164794921875">
        <ele>2005</ele>
        <time>2026-06-15T13:37:22.000Z</time>
        <extensions>
          <ns3:TrackPointExtension>
            <ns3:atemp>26.0</ns3:atemp>
          </ns3:TrackPointExtension>
        </extensions>
      </trkpt>
      <trkpt lat="42.56944455206394195556640625" lon="20.03186487592756748199462890625">
        <ele>2005</ele>
        <time>2026-06-15T13:37:23.000Z</time>
        <extensions>
          <ns3:TrackPointExtension>
            <ns3:atemp>26.0</ns3:atemp>
          </ns3:TrackPointExtension>
        </extensions>
      </trkpt>
      <trkpt lat="42.5694339908659458160400390625" lon="20.0318636186420917510986328125">
        <ele>2005.199951171875</ele>
        <time>2026-06-15T13:37:24.000Z</time>
        <extensions>
          <ns3:TrackPointExtension>
            <ns3:atemp>26.0</ns3:atemp>
          </ns3:TrackPointExtension>
        </extensions>
      </trkpt>
      <trkpt lat="42.5694205798208713531494140625" lon="20.03186588175594806671142578125">
        <ele>2005.5999755859375</ele>
        <time>2026-06-15T13:37:25.000Z</time>
        <extensions>
          <ns3:TrackPointExtension>
            <ns3:atemp>26.0</ns3:atemp>
          </ns3:TrackPointExtension>
        </extensions>
      </trkpt>
      <trkpt lat="42.5694088451564311981201171875" lon="20.03186554647982120513916015625">
        <ele>2005.800048828125</ele>
        <time>2026-06-15T13:37:26.000Z</time>
        <extensions>
          <ns3:TrackPointExtension>
            <ns3:atemp>26.0</ns3:atemp>
          </ns3:TrackPointExtension>
        </extensions>
      </trkpt>
      <trkpt lat="42.56939467974007129669189453125" lon="20.0318616069853305816650390625">
        <ele>2006</ele>
        <time>2026-06-15T13:37:27.000Z</time>
        <extensions>
          <ns3:TrackPointExtension>
            <ns3:atemp>26.0</ns3:atemp>
          </ns3:TrackPointExtension>
        </extensions>
      </trkpt>
      <trkpt lat="42.5693813525140285491943359375" lon="20.03185833804309368133544921875">
        <ele>2006</ele>
        <time>2026-06-15T13:37:28.000Z</time>
        <extensions>
          <ns3:TrackPointExtension>
            <ns3:atemp>26.0</ns3:atemp>
          </ns3:TrackPointExtension>
        </extensions>
      </trkpt>
      <trkpt lat="42.56936886347830295562744140625" lon="20.0318572483956813812255859375">
        <ele>2006.199951171875</ele>
        <time>2026-06-15T13:37:29.000Z</time>
        <extensions>
          <ns3:TrackPointExtension>
            <ns3:atemp>26.0</ns3:atemp>
          </ns3:TrackPointExtension>
        </extensions>
      </trkpt>
      <trkpt lat="42.569360397756099700927734375" lon="20.0318532250821590423583984375">
        <ele>2006.4000244140625</ele>
        <time>2026-06-15T13:37:30.000Z</time>
        <extensions>
          <ns3:TrackPointExtension>
            <ns3:atemp>26.0</ns3:atemp>
          </ns3:TrackPointExtension>
        </extensions>
      </trkpt>
      <trkpt lat="42.5693500041961669921875" lon="20.031850375235080718994140625">
        <ele>2006.4000244140625</ele>
        <time>2026-06-15T13:37:31.000Z</time>
        <extensions>
          <ns3:TrackPointExtension>
            <ns3:atemp>26.0</ns3:atemp>
          </ns3:TrackPointExtension>
        </extensions>
      </trkpt>
      <trkpt lat="42.5693432986736297607421875" lon="20.031845010817050933837890625">
        <ele>2006.5999755859375</ele>
        <time>2026-06-15T13:37:32.000Z</time>
        <extensions>
          <ns3:TrackPointExtension>
            <ns3:atemp>26.0</ns3:atemp>
          </ns3:TrackPointExtension>
        </extensions>
      </trkpt>
      <trkpt lat="42.56933726370334625244140625" lon="20.031844675540924072265625">
        <ele>2006.5999755859375</ele>
        <time>2026-06-15T13:37:33.000Z</time>
        <extensions>
          <ns3:TrackPointExtension>
            <ns3:atemp>26.0</ns3:atemp>
          </ns3:TrackPointExtension>
        </extensions>
      </trkpt>
      <trkpt lat="42.5693287141621112823486328125" lon="20.03184534609317779541015625">
        <ele>2006.800048828125</ele>
        <time>2026-06-15T13:37:34.000Z</time>
        <extensions>
          <ns3:TrackPointExtension>
            <ns3:atemp>26.0</ns3:atemp>
          </ns3:TrackPointExtension>
        </extensions>
      </trkpt>
      <trkpt lat="42.56931706331670284271240234375" lon="20.03184056840837001800537109375">
        <ele>2007</ele>
        <time>2026-06-15T13:37:35.000Z</time>
        <extensions>
          <ns3:TrackPointExtension>
            <ns3:atemp>26.0</ns3:atemp>
          </ns3:TrackPointExtension>
        </extensions>
      </trkpt>
      <trkpt lat="42.56930784322321414947509765625" lon="20.0318347848951816558837890625">
        <ele>2008</ele>
        <time>2026-06-15T13:37:36.000Z</time>
        <extensions>
          <ns3:TrackPointExtension>
            <ns3:atemp>26.0</ns3:atemp>
          </ns3:TrackPointExtension>
        </extensions>
      </trkpt>
      <trkpt lat="42.5692985393106937408447265625" lon="20.03182816319167613983154296875">
        <ele>2008.800048828125</ele>
        <time>2026-06-15T13:37:37.000Z</time>
        <extensions>
          <ns3:TrackPointExtension>
            <ns3:atemp>26.0</ns3:atemp>
          </ns3:TrackPointExtension>
        </extensions>
      </trkpt>
      <trkpt lat="42.56929309107363224029541015625" lon="20.03182531334459781646728515625">
        <ele>2009.199951171875</ele>
        <time>2026-06-15T13:37:38.000Z</time>
        <extensions>
          <ns3:TrackPointExtension>
            <ns3:atemp>26.0</ns3:atemp>
          </ns3:TrackPointExtension>
        </extensions>
      </trkpt>
      <trkpt lat="42.5692844577133655548095703125" lon="20.0318217091262340545654296875">
        <ele>2009.4000244140625</ele>
        <time>2026-06-15T13:37:39.000Z</time>
        <extensions>
          <ns3:TrackPointExtension>
            <ns3:atemp>26.0</ns3:atemp>
          </ns3:TrackPointExtension>
        </extensions>
      </trkpt>
      <trkpt lat="42.5692735612392425537109375" lon="20.03181341104209423065185546875">
        <ele>2009.5999755859375</ele>
        <time>2026-06-15T13:37:40.000Z</time>
        <extensions>
          <ns3:TrackPointExtension>
            <ns3:atemp>26.0</ns3:atemp>
          </ns3:TrackPointExtension>
        </extensions>
      </trkpt>
      <trkpt lat="42.56926123984158039093017578125" lon="20.03180569969117641448974609375">
        <ele>2009.800048828125</ele>
        <time>2026-06-15T13:37:41.000Z</time>
        <extensions>
          <ns3:TrackPointExtension>
            <ns3:atemp>26.0</ns3:atemp>
          </ns3:TrackPointExtension>
        </extensions>
      </trkpt>
      <trkpt lat="42.56925185211002826690673828125" lon="20.03179664723575115203857421875">
        <ele>2009.5999755859375</ele>
        <time>2026-06-15T13:37:42.000Z</time>
        <extensions>
          <ns3:TrackPointExtension>
            <ns3:atemp>26.0</ns3:atemp>
          </ns3:TrackPointExtension>
        </extensions>
      </trkpt>
      <trkpt lat="42.56924347020685672760009765625" lon="20.0317911989986896514892578125">
        <ele>2009.4000244140625</ele>
        <time>2026-06-15T13:37:43.000Z</time>
        <extensions>
          <ns3:TrackPointExtension>
            <ns3:atemp>26.0</ns3:atemp>
          </ns3:TrackPointExtension>
        </extensions>
      </trkpt>
      <trkpt lat="42.56923458538949489593505859375" lon="20.03178767859935760498046875">
        <ele>2009.199951171875</ele>
        <time>2026-06-15T13:37:44.000Z</time>
        <extensions>
          <ns3:TrackPointExtension>
            <ns3:atemp>26.0</ns3:atemp>
          </ns3:TrackPointExtension>
        </extensions>
      </trkpt>
      <trkpt lat="42.569222934544086456298828125" lon="20.0317824818193912506103515625">
        <ele>2009</ele>
        <time>2026-06-15T13:37:45.000Z</time>
        <extensions>
          <ns3:TrackPointExtension>
            <ns3:atemp>26.0</ns3:atemp>
          </ns3:TrackPointExtension>
        </extensions>
      </trkpt>
      <trkpt lat="42.569212205708026885986328125" lon="20.0317885167896747589111328125">
        <ele>2008.800048828125</ele>
        <time>2026-06-15T13:37:46.000Z</time>
        <extensions>
          <ns3:TrackPointExtension>
            <ns3:atemp>26.0</ns3:atemp>
          </ns3:TrackPointExtension>
        </extensions>
      </trkpt>
      <trkpt lat="42.569199465215206146240234375" lon="20.0317948870360851287841796875">
        <ele>2008.5999755859375</ele>
        <time>2026-06-15T13:37:47.000Z</time>
        <extensions>
          <ns3:TrackPointExtension>
            <ns3:atemp>26.0</ns3:atemp>
          </ns3:TrackPointExtension>
        </extensions>
      </trkpt>
      <trkpt lat="42.569194100797176361083984375" lon="20.03179765306413173675537109375">
        <ele>2008.800048828125</ele>
        <time>2026-06-15T13:37:48.000Z</time>
        <extensions>
          <ns3:TrackPointExtension>
            <ns3:atemp>26.0</ns3:atemp>
          </ns3:TrackPointExtension>
        </extensions>
      </trkpt>
      <trkpt lat="42.56918664090335369110107421875" lon="20.0318042747676372528076171875">
        <ele>2008.800048828125</ele>
        <time>2026-06-15T13:37:49.000Z</time>
        <extensions>
          <ns3:TrackPointExtension>
            <ns3:atemp>26.0</ns3:atemp>
          </ns3:TrackPointExtension>
        </extensions>
      </trkpt>
      <trkpt lat="42.5691821984946727752685546875" lon="20.031806118786334991455078125">
        <ele>2009.199951171875</ele>
        <time>2026-06-15T13:37:50.000Z</time>
        <extensions>
          <ns3:TrackPointExtension>
            <ns3:atemp>25.0</ns3:atemp>
          </ns3:TrackPointExtension>
        </extensions>
      </trkpt>
      <trkpt lat="42.56917691789567470550537109375" lon="20.031799413263797760009765625">
        <ele>2009.4000244140625</ele>
        <time>2026-06-15T13:37:51.000Z</time>
        <extensions>
          <ns3:TrackPointExtension>
            <ns3:atemp>26.0</ns3:atemp>
          </ns3:TrackPointExtension>
        </extensions>
      </trkpt>
      <trkpt lat="42.56916954182088375091552734375" lon="20.031792707741260528564453125">
        <ele>2009.800048828125</ele>
        <time>2026-06-15T13:37:52.000Z</time>
        <extensions>
          <ns3:TrackPointExtension>
            <ns3:atemp>25.0</ns3:atemp>
          </ns3:TrackPointExtension>
        </extensions>
      </trkpt>
      <trkpt lat="42.56916317157447338104248046875" lon="20.0317868404090404510498046875">
        <ele>2010</ele>
        <time>2026-06-15T13:37:53.000Z</time>
        <extensions>
          <ns3:TrackPointExtension>
            <ns3:atemp>25.0</ns3:atemp>
          </ns3:TrackPointExtension>
        </extensions>
      </trkpt>
      <trkpt lat="42.5691580586135387420654296875" lon="20.03178088925778865814208984375">
        <ele>2010.199951171875</ele>
        <time>2026-06-15T13:37:54.000Z</time>
        <extensions>
          <ns3:TrackPointExtension>
            <ns3:atemp>25.0</ns3:atemp>
          </ns3:TrackPointExtension>
        </extensions>
      </trkpt>
      <trkpt lat="42.569148503243923187255859375" lon="20.03177418373525142669677734375">
        <ele>2010.199951171875</ele>
        <time>2026-06-15T13:37:55.000Z</time>
        <extensions>
          <ns3:TrackPointExtension>
            <ns3:atemp>25.0</ns3:atemp>
          </ns3:TrackPointExtension>
        </extensions>
      </trkpt>
      <trkpt lat="42.56913802586495876312255859375" lon="20.03176898695528507232666015625">
        <ele>2010.4000244140625</ele>
        <time>2026-06-15T13:37:56.000Z</time>
        <extensions>
          <ns3:TrackPointExtension>
            <ns3:atemp>25.0</ns3:atemp>
          </ns3:TrackPointExtension>
        </extensions>
      </trkpt>
      <trkpt lat="42.5691262073814868927001953125" lon="20.03176948986947536468505859375">
        <ele>2010.4000244140625</ele>
        <time>2026-06-15T13:37:57.000Z</time>
        <extensions>
          <ns3:TrackPointExtension>
            <ns3:atemp>25.0</ns3:atemp>
          </ns3:TrackPointExtension>
        </extensions>
      </trkpt>
      <trkpt lat="42.5691245310008525848388671875" lon="20.031764544546604156494140625">
        <ele>2010.5999755859375</ele>
        <time>2026-06-15T13:37:58.000Z</time>
        <extensions>
          <ns3:TrackPointExtension>
            <ns3:atemp>25.0</ns3:atemp>
          </ns3:TrackPointExtension>
        </extensions>
      </trkpt>
      <trkpt lat="42.56912059150636196136474609375" lon="20.03175641410052776336669921875">
        <ele>2010.800048828125</ele>
        <time>2026-06-15T13:37:59.000Z</time>
        <extensions>
          <ns3:TrackPointExtension>
            <ns3:atemp>25.0</ns3:atemp>
          </ns3:TrackPointExtension>
        </extensions>
      </trkpt>
      <trkpt lat="42.5691072642803192138671875" lon="20.0317539833486080169677734375">
        <ele>2011.199951171875</ele>
        <time>2026-06-15T13:38:00.000Z</time>
        <extensions>
          <ns3:TrackPointExtension>
            <ns3:atemp>25.0</ns3:atemp>
          </ns3:TrackPointExtension>
        </extensions>
      </trkpt>
      <trkpt lat="42.5690953619778156280517578125" lon="20.03174769692122936248779296875">
        <ele>2011.4000244140625</ele>
        <time>2026-06-15T13:38:01.000Z</time>
        <extensions>
          <ns3:TrackPointExtension>
            <ns3:atemp>25.0</ns3:atemp>
          </ns3:TrackPointExtension>
        </extensions>
      </trkpt>
      <trkpt lat="42.56909125484526157379150390625" lon="20.031743757426738739013671875">
        <ele>2011.800048828125</ele>
        <time>2026-06-15T13:38:02.000Z</time>
        <extensions>
          <ns3:TrackPointExtension>
            <ns3:atemp>25.0</ns3:atemp>
          </ns3:TrackPointExtension>
        </extensions>
      </trkpt>
      <trkpt lat="42.56908672861754894256591796875" lon="20.03174082376062870025634765625">
        <ele>2012</ele>
        <time>2026-06-15T13:38:03.000Z</time>
        <extensions>
          <ns3:TrackPointExtension>
            <ns3:atemp>25.0</ns3:atemp>
          </ns3:TrackPointExtension>
        </extensions>
      </trkpt>
      <trkpt lat="42.56908639334142208099365234375" lon="20.03172556869685649871826171875">
        <ele>2012.199951171875</ele>
        <time>2026-06-15T13:38:04.000Z</time>
        <extensions>
          <ns3:TrackPointExtension>
            <ns3:atemp>25.0</ns3:atemp>
          </ns3:TrackPointExtension>
        </extensions>
      </trkpt>
      <trkpt lat="42.5690842978656291961669921875" lon="20.0317130796611309051513671875">
        <ele>2012.199951171875</ele>
        <time>2026-06-15T13:38:05.000Z</time>
        <extensions>
          <ns3:TrackPointExtension>
            <ns3:atemp>25.0</ns3:atemp>
          </ns3:TrackPointExtension>
        </extensions>
      </trkpt>
      <trkpt lat="42.56908069364726543426513671875" lon="20.031709559261798858642578125">
        <ele>2012.4000244140625</ele>
        <time>2026-06-15T13:38:06.000Z</time>
        <extensions>
          <ns3:TrackPointExtension>
            <ns3:atemp>25.0</ns3:atemp>
          </ns3:TrackPointExtension>
        </extensions>
      </trkpt>
      <trkpt lat="42.569078095257282257080078125" lon="20.03169170580804347991943359375">
        <ele>2012.5999755859375</ele>
        <time>2026-06-15T13:38:07.000Z</time>
        <extensions>
          <ns3:TrackPointExtension>
            <ns3:atemp>25.0</ns3:atemp>
          </ns3:TrackPointExtension>
        </extensions>
      </trkpt>
      <trkpt lat="42.56907382048666477203369140625" lon="20.0316875986754894256591796875">
        <ele>2012.800048828125</ele>
        <time>2026-06-15T13:38:08.000Z</time>
        <extensions>
          <ns3:TrackPointExtension>
            <ns3:atemp>25.0</ns3:atemp>
          </ns3:TrackPointExtension>
        </extensions>
      </trkpt>
      <trkpt lat="42.56907046772539615631103515625" lon="20.03169120289385318756103515625">
        <ele>2013</ele>
        <time>2026-06-15T13:38:09.000Z</time>
        <extensions>
          <ns3:TrackPointExtension>
            <ns3:atemp>25.0</ns3:atemp>
          </ns3:TrackPointExtension>
        </extensions>
      </trkpt>
      <trkpt lat="42.56905873306095600128173828125" lon="20.0316875986754894256591796875">
        <ele>2013.199951171875</ele>
        <time>2026-06-15T13:38:10.000Z</time>
        <extensions>
          <ns3:TrackPointExtension>
            <ns3:atemp>25.0</ns3:atemp>
          </ns3:TrackPointExtension>
        </extensions>
      </trkpt>
      <trkpt lat="42.5690527819097042083740234375" lon="20.03167636692523956298828125">
        <ele>2013.5999755859375</ele>
        <time>2026-06-15T13:38:11.000Z</time>
        <extensions>
          <ns3:TrackPointExtension>
            <ns3:atemp>25.0</ns3:atemp>
          </ns3:TrackPointExtension>
        </extensions>
      </trkpt>
      <trkpt lat="42.56904800422489643096923828125" lon="20.0316715054214000701904296875">
        <ele>2013.800048828125</ele>
        <time>2026-06-15T13:38:12.000Z</time>
        <extensions>
          <ns3:TrackPointExtension>
            <ns3:atemp>25.0</ns3:atemp>
          </ns3:TrackPointExtension>
        </extensions>
      </trkpt>
      <trkpt lat="42.56903819739818572998046875" lon="20.03166454844176769256591796875">
        <ele>2014.199951171875</ele>
        <time>2026-06-15T13:38:13.000Z</time>
        <extensions>
          <ns3:TrackPointExtension>
            <ns3:atemp>25.0</ns3:atemp>
          </ns3:TrackPointExtension>
        </extensions>
      </trkpt>
      <trkpt lat="42.56903241388499736785888671875" lon="20.03166052512824535369873046875">
        <ele>2014.5999755859375</ele>
        <time>2026-06-15T13:38:14.000Z</time>
        <extensions>
          <ns3:TrackPointExtension>
            <ns3:atemp>25.0</ns3:atemp>
          </ns3:TrackPointExtension>
        </extensions>
      </trkpt>
      <trkpt lat="42.56902344524860382080078125" lon="20.031656585633754730224609375">
        <ele>2015.199951171875</ele>
        <time>2026-06-15T13:38:15.000Z</time>
        <extensions>
          <ns3:TrackPointExtension>
            <ns3:atemp>25.0</ns3:atemp>
          </ns3:TrackPointExtension>
        </extensions>
      </trkpt>
      <trkpt lat="42.56901715882122516632080078125" lon="20.03164962865412235260009765625">
        <ele>2015.5999755859375</ele>
        <time>2026-06-15T13:38:16.000Z</time>
        <extensions>
          <ns3:TrackPointExtension>
            <ns3:atemp>25.0</ns3:atemp>
          </ns3:TrackPointExtension>
        </extensions>
      </trkpt>
      <trkpt lat="42.5690058432519435882568359375" lon="20.03164208494126796722412109375">
        <ele>2016.199951171875</ele>
        <time>2026-06-15T13:38:17.000Z</time>
        <extensions>
          <ns3:TrackPointExtension>
            <ns3:atemp>25.0</ns3:atemp>
          </ns3:TrackPointExtension>
        </extensions>
      </trkpt>
      <trkpt lat="42.568999640643596649169921875" lon="20.0316376425325870513916015625">
        <ele>2016.4000244140625</ele>
        <time>2026-06-15T13:38:18.000Z</time>
        <extensions>
          <ns3:TrackPointExtension>
            <ns3:atemp>25.0</ns3:atemp>
          </ns3:TrackPointExtension>
        </extensions>
      </trkpt>
      <trkpt lat="42.56899285130202770233154296875" lon="20.03163236193358898162841796875">
        <ele>2016.5999755859375</ele>
        <time>2026-06-15T13:38:19.000Z</time>
        <extensions>
          <ns3:TrackPointExtension>
            <ns3:atemp>25.0</ns3:atemp>
          </ns3:TrackPointExtension>
        </extensions>
      </trkpt>
      <trkpt lat="42.56898446939885616302490234375" lon="20.03162833862006664276123046875">
        <ele>2016.5999755859375</ele>
        <time>2026-06-15T13:38:20.000Z</time>
        <extensions>
          <ns3:TrackPointExtension>
            <ns3:atemp>25.0</ns3:atemp>
          </ns3:TrackPointExtension>
        </extensions>
      </trkpt>
      <trkpt lat="42.56897659040987491607666015625" lon="20.031628422439098358154296875">
        <ele>2016.800048828125</ele>
        <time>2026-06-15T13:38:21.000Z</time>
        <extensions>
          <ns3:TrackPointExtension>
            <ns3:atemp>25.0</ns3:atemp>
          </ns3:TrackPointExtension>
        </extensions>
      </trkpt>
      <trkpt lat="42.56897248327732086181640625" lon="20.0316275842487812042236328125">
        <ele>2016.800048828125</ele>
        <time>2026-06-15T13:38:22.000Z</time>
        <extensions>
          <ns3:TrackPointExtension>
            <ns3:atemp>25.0</ns3:atemp>
          </ns3:TrackPointExtension>
        </extensions>
      </trkpt>
      <trkpt lat="42.5689689628779888153076171875" lon="20.0316275842487812042236328125">
        <ele>2017</ele>
        <time>2026-06-15T13:38:23.000Z</time>
        <extensions>
          <ns3:TrackPointExtension>
            <ns3:atemp>25.0</ns3:atemp>
          </ns3:TrackPointExtension>
        </extensions>
      </trkpt>
      <trkpt lat="42.56896435283124446868896484375" lon="20.03162465058267116546630859375">
        <ele>2017.199951171875</ele>
        <time>2026-06-15T13:38:24.000Z</time>
        <extensions>
          <ns3:TrackPointExtension>
            <ns3:atemp>25.0</ns3:atemp>
          </ns3:TrackPointExtension>
        </extensions>
      </trkpt>
      <trkpt lat="42.56896519102156162261962890625" lon="20.03162917681038379669189453125">
        <ele>2017.199951171875</ele>
        <time>2026-06-15T13:38:25.000Z</time>
        <extensions>
          <ns3:TrackPointExtension>
            <ns3:atemp>25.0</ns3:atemp>
          </ns3:TrackPointExtension>
        </extensions>
      </trkpt>
      <trkpt lat="42.5689637660980224609375" lon="20.03163135610520839691162109375">
        <ele>2017.4000244140625</ele>
        <time>2026-06-15T13:38:26.000Z</time>
        <extensions>
          <ns3:TrackPointExtension>
            <ns3:atemp>25.0</ns3:atemp>
          </ns3:TrackPointExtension>
        </extensions>
      </trkpt>
      <trkpt lat="42.5689637660980224609375" lon="20.03163135610520839691162109375">
        <ele>2017.4000244140625</ele>
        <time>2026-06-15T13:38:27.000Z</time>
        <extensions>
          <ns3:TrackPointExtension>
            <ns3:atemp>25.0</ns3:atemp>
          </ns3:TrackPointExtension>
        </extensions>
      </trkpt>
      <trkpt lat="42.5689637660980224609375" lon="20.03163135610520839691162109375">
        <ele>2017.4000244140625</ele>
        <time>2026-06-15T13:38:28.000Z</time>
        <extensions>
          <ns3:TrackPointExtension>
            <ns3:atemp>25.0</ns3:atemp>
          </ns3:TrackPointExtension>
        </extensions>
      </trkpt>
      <trkpt lat="42.5689637660980224609375" lon="20.03163135610520839691162109375">
        <ele>2017.4000244140625</ele>
        <time>2026-06-15T13:38:29.000Z</time>
        <extensions>
          <ns3:TrackPointExtension>
            <ns3:atemp>25.0</ns3:atemp>
          </ns3:TrackPointExtension>
        </extensions>
      </trkpt>
      <trkpt lat="42.5689637660980224609375" lon="20.03163135610520839691162109375">
        <ele>2017.4000244140625</ele>
        <time>2026-06-15T13:38:30.000Z</time>
        <extensions>
          <ns3:TrackPointExtension>
            <ns3:atemp>25.0</ns3:atemp>
          </ns3:TrackPointExtension>
        </extensions>
      </trkpt>
      <trkpt lat="42.5689637660980224609375" lon="20.03163135610520839691162109375">
        <ele>2017.4000244140625</ele>
        <time>2026-06-15T13:38:31.000Z</time>
        <extensions>
          <ns3:TrackPointExtension>
            <ns3:atemp>25.0</ns3:atemp>
          </ns3:TrackPointExtension>
        </extensions>
      </trkpt>
      <trkpt lat="42.5689637660980224609375" lon="20.03163135610520839691162109375">
        <ele>2017.4000244140625</ele>
        <time>2026-06-15T13:38:32.000Z</time>
        <extensions>
          <ns3:TrackPointExtension>
            <ns3:atemp>25.0</ns3:atemp>
          </ns3:TrackPointExtension>
        </extensions>
      </trkpt>
      <trkpt lat="42.5689637660980224609375" lon="20.03163135610520839691162109375">
        <ele>2017.4000244140625</ele>
        <time>2026-06-15T13:38:33.000Z</time>
        <extensions>
          <ns3:TrackPointExtension>
            <ns3:atemp>25.0</ns3:atemp>
          </ns3:TrackPointExtension>
        </extensions>
      </trkpt>
      <trkpt lat="42.5689637660980224609375" lon="20.03163135610520839691162109375">
        <ele>2017.4000244140625</ele>
        <time>2026-06-15T13:38:34.000Z</time>
        <extensions>
          <ns3:TrackPointExtension>
            <ns3:atemp>25.0</ns3:atemp>
          </ns3:TrackPointExtension>
        </extensions>
      </trkpt>
      <trkpt lat="42.5689637660980224609375" lon="20.03163135610520839691162109375">
        <ele>2017.4000244140625</ele>
        <time>2026-06-15T13:38:35.000Z</time>
        <extensions>
          <ns3:TrackPointExtension>
            <ns3:atemp>25.0</ns3:atemp>
          </ns3:TrackPointExtension>
        </extensions>
      </trkpt>
      <trkpt lat="42.5689637660980224609375" lon="20.03163135610520839691162109375">
        <ele>2017.4000244140625</ele>
        <time>2026-06-15T13:38:36.000Z</time>
        <extensions>
          <ns3:TrackPointExtension>
            <ns3:atemp>25.0</ns3:atemp>
          </ns3:TrackPointExtension>
        </extensions>
      </trkpt>
      <trkpt lat="42.5689637660980224609375" lon="20.03163135610520839691162109375">
        <ele>2017.4000244140625</ele>
        <time>2026-06-15T13:38:37.000Z</time>
        <extensions>
          <ns3:TrackPointExtension>
            <ns3:atemp>25.0</ns3:atemp>
          </ns3:TrackPointExtension>
        </extensions>
      </trkpt>
      <trkpt lat="42.5689637660980224609375" lon="20.03163135610520839691162109375">
        <ele>2017.4000244140625</ele>
        <time>2026-06-15T13:38:38.000Z</time>
        <extensions>
          <ns3:TrackPointExtension>
            <ns3:atemp>25.0</ns3:atemp>
          </ns3:TrackPointExtension>
        </extensions>
      </trkpt>
      <trkpt lat="42.5689637660980224609375" lon="20.03163135610520839691162109375">
        <ele>2017.199951171875</ele>
        <time>2026-06-15T13:38:39.000Z</time>
        <extensions>
          <ns3:TrackPointExtension>
            <ns3:atemp>25.0</ns3:atemp>
          </ns3:TrackPointExtension>
        </extensions>
      </trkpt>
      <trkpt lat="42.5689637660980224609375" lon="20.03163135610520839691162109375">
        <ele>2017.199951171875</ele>
        <time>2026-06-15T13:38:40.000Z</time>
        <extensions>
          <ns3:TrackPointExtension>
            <ns3:atemp>25.0</ns3:atemp>
          </ns3:TrackPointExtension>
        </extensions>
      </trkpt>
      <trkpt lat="42.5689637660980224609375" lon="20.03163135610520839691162109375">
        <ele>2017.199951171875</ele>
        <time>2026-06-15T13:38:41.000Z</time>
        <extensions>
          <ns3:TrackPointExtension>
            <ns3:atemp>25.0</ns3:atemp>
          </ns3:TrackPointExtension>
        </extensions>
      </trkpt>
      <trkpt lat="42.5689637660980224609375" lon="20.03163135610520839691162109375">
        <ele>2017.199951171875</ele>
        <time>2026-06-15T13:38:42.000Z</time>
        <extensions>
          <ns3:TrackPointExtension>
            <ns3:atemp>25.0</ns3:atemp>
          </ns3:TrackPointExtension>
        </extensions>
      </trkpt>
      <trkpt lat="42.5689637660980224609375" lon="20.03163135610520839691162109375">
        <ele>2017</ele>
        <time>2026-06-15T13:38:43.000Z</time>
        <extensions>
          <ns3:TrackPointExtension>
            <ns3:atemp>25.0</ns3:atemp>
          </ns3:TrackPointExtension>
        </extensions>
      </trkpt>
      <trkpt lat="42.5689637660980224609375" lon="20.03163135610520839691162109375">
        <ele>2017</ele>
        <time>2026-06-15T13:38:44.000Z</time>
        <extensions>
          <ns3:TrackPointExtension>
            <ns3:atemp>25.0</ns3:atemp>
          </ns3:TrackPointExtension>
        </extensions>
      </trkpt>
      <trkpt lat="42.5689637660980224609375" lon="20.03163135610520839691162109375">
        <ele>2017</ele>
        <time>2026-06-15T13:38:45.000Z</time>
        <extensions>
          <ns3:TrackPointExtension>
            <ns3:atemp>25.0</ns3:atemp>
          </ns3:TrackPointExtension>
        </extensions>
      </trkpt>
      <trkpt lat="42.5689637660980224609375" lon="20.03163135610520839691162109375">
        <ele>2017</ele>
        <time>2026-06-15T13:38:46.000Z</time>
        <extensions>
          <ns3:TrackPointExtension>
            <ns3:atemp>25.0</ns3:atemp>
          </ns3:TrackPointExtension>
        </extensions>
      </trkpt>
      <trkpt lat="42.5689637660980224609375" lon="20.03163135610520839691162109375">
        <ele>2017</ele>
        <time>2026-06-15T13:38:47.000Z</time>
        <extensions>
          <ns3:TrackPointExtension>
            <ns3:atemp>25.0</ns3:atemp>
          </ns3:TrackPointExtension>
        </extensions>
      </trkpt>
      <trkpt lat="42.5689639337360858917236328125" lon="20.03163621760904788970947265625">
        <ele>2017</ele>
        <time>2026-06-15T13:38:48.000Z</time>
        <extensions>
          <ns3:TrackPointExtension>
            <ns3:atemp>25.0</ns3:atemp>
          </ns3:TrackPointExtension>
        </extensions>
      </trkpt>
      <trkpt lat="42.56896519102156162261962890625" lon="20.031651221215724945068359375">
        <ele>2017.4000244140625</ele>
        <time>2026-06-15T13:38:49.000Z</time>
        <extensions>
          <ns3:TrackPointExtension>
            <ns3:atemp>25.0</ns3:atemp>
          </ns3:TrackPointExtension>
        </extensions>
      </trkpt>
      <trkpt lat="42.56895798258483409881591796875" lon="20.03165080212056636810302734375">
        <ele>2017.5999755859375</ele>
        <time>2026-06-15T13:38:50.000Z</time>
        <extensions>
          <ns3:TrackPointExtension>
            <ns3:atemp>25.0</ns3:atemp>
          </ns3:TrackPointExtension>
        </extensions>
      </trkpt>
      <trkpt lat="42.56895094178617000579833984375" lon="20.03164309076964855194091796875">
        <ele>2017.5999755859375</ele>
        <time>2026-06-15T13:38:51.000Z</time>
        <extensions>
          <ns3:TrackPointExtension>
            <ns3:atemp>25.0</ns3:atemp>
          </ns3:TrackPointExtension>
        </extensions>
      </trkpt>
      <trkpt lat="42.56894825957715511322021484375" lon="20.03163068555295467376708984375">
        <ele>2017.800048828125</ele>
        <time>2026-06-15T13:38:52.000Z</time>
        <extensions>
          <ns3:TrackPointExtension>
            <ns3:atemp>25.0</ns3:atemp>
          </ns3:TrackPointExtension>
        </extensions>
      </trkpt>
      <trkpt lat="42.5689438171684741973876953125" lon="20.031624734401702880859375">
        <ele>2018</ele>
        <time>2026-06-15T13:38:53.000Z</time>
        <extensions>
          <ns3:TrackPointExtension>
            <ns3:atemp>25.0</ns3:atemp>
          </ns3:TrackPointExtension>
        </extensions>
      </trkpt>
      <trkpt lat="42.56893635727465152740478515625" lon="20.03161895088851451873779296875">
        <ele>2018.199951171875</ele>
        <time>2026-06-15T13:38:54.000Z</time>
        <extensions>
          <ns3:TrackPointExtension>
            <ns3:atemp>25.0</ns3:atemp>
          </ns3:TrackPointExtension>
        </extensions>
      </trkpt>
      <trkpt lat="42.56892747245728969573974609375" lon="20.03161375410854816436767578125">
        <ele>2018.4000244140625</ele>
        <time>2026-06-15T13:38:55.000Z</time>
        <extensions>
          <ns3:TrackPointExtension>
            <ns3:atemp>25.0</ns3:atemp>
          </ns3:TrackPointExtension>
        </extensions>
      </trkpt>
      <trkpt lat="42.5689226947724819183349609375" lon="20.03160872496664524078369140625">
        <ele>2018.5999755859375</ele>
        <time>2026-06-15T13:38:56.000Z</time>
        <extensions>
          <ns3:TrackPointExtension>
            <ns3:atemp>25.0</ns3:atemp>
          </ns3:TrackPointExtension>
        </extensions>
      </trkpt>
      <trkpt lat="42.56891992874443531036376953125" lon="20.031597912311553955078125">
        <ele>2019</ele>
        <time>2026-06-15T13:38:57.000Z</time>
        <extensions>
          <ns3:TrackPointExtension>
            <ns3:atemp>25.0</ns3:atemp>
          </ns3:TrackPointExtension>
        </extensions>
      </trkpt>
      <trkpt lat="42.56891355849802494049072265625" lon="20.03159196116030216217041015625">
        <ele>2019.199951171875</ele>
        <time>2026-06-15T13:38:58.000Z</time>
        <extensions>
          <ns3:TrackPointExtension>
            <ns3:atemp>25.0</ns3:atemp>
          </ns3:TrackPointExtension>
        </extensions>
      </trkpt>
      <trkpt lat="42.56890953518450260162353515625" lon="20.03158508799970149993896484375">
        <ele>2019.5999755859375</ele>
        <time>2026-06-15T13:38:59.000Z</time>
        <extensions>
          <ns3:TrackPointExtension>
            <ns3:atemp>25.0</ns3:atemp>
          </ns3:TrackPointExtension>
        </extensions>
      </trkpt>
      <trkpt lat="42.5689066015183925628662109375" lon="20.0315782986581325531005859375">
        <ele>2019.5999755859375</ele>
        <time>2026-06-15T13:39:00.000Z</time>
        <extensions>
          <ns3:TrackPointExtension>
            <ns3:atemp>25.0</ns3:atemp>
          </ns3:TrackPointExtension>
        </extensions>
      </trkpt>
      <trkpt lat="42.56890081800520420074462890625" lon="20.0315695814788341522216796875">
        <ele>2019.800048828125</ele>
        <time>2026-06-15T13:39:01.000Z</time>
        <extensions>
          <ns3:TrackPointExtension>
            <ns3:atemp>25.0</ns3:atemp>
          </ns3:TrackPointExtension>
        </extensions>
      </trkpt>
      <trkpt lat="42.56889729760587215423583984375" lon="20.0315565057098865509033203125">
        <ele>2019.800048828125</ele>
        <time>2026-06-15T13:39:02.000Z</time>
        <extensions>
          <ns3:TrackPointExtension>
            <ns3:atemp>25.0</ns3:atemp>
          </ns3:TrackPointExtension>
        </extensions>
      </trkpt>
      <trkpt lat="42.56889562122523784637451171875" lon="20.0315434299409389495849609375">
        <ele>2020</ele>
        <time>2026-06-15T13:39:03.000Z</time>
        <extensions>
          <ns3:TrackPointExtension>
            <ns3:atemp>25.0</ns3:atemp>
          </ns3:TrackPointExtension>
        </extensions>
      </trkpt>
      <trkpt lat="42.56889645941555500030517578125" lon="20.03153915517032146453857421875">
        <ele>2020.199951171875</ele>
        <time>2026-06-15T13:39:04.000Z</time>
        <extensions>
          <ns3:TrackPointExtension>
            <ns3:atemp>25.0</ns3:atemp>
          </ns3:TrackPointExtension>
        </extensions>
      </trkpt>
      <trkpt lat="42.5688972137868404388427734375" lon="20.03153127618134021759033203125">
        <ele>2020.4000244140625</ele>
        <time>2026-06-15T13:39:05.000Z</time>
        <extensions>
          <ns3:TrackPointExtension>
            <ns3:atemp>25.0</ns3:atemp>
          </ns3:TrackPointExtension>
        </extensions>
      </trkpt>
      <trkpt lat="42.5688931904733180999755859375" lon="20.0315206311643123626708984375">
        <ele>2020.5999755859375</ele>
        <time>2026-06-15T13:39:06.000Z</time>
        <extensions>
          <ns3:TrackPointExtension>
            <ns3:atemp>25.0</ns3:atemp>
          </ns3:TrackPointExtension>
        </extensions>
      </trkpt>
      <trkpt lat="42.56888858042657375335693359375" lon="20.03151015378534793853759765625">
        <ele>2020.800048828125</ele>
        <time>2026-06-15T13:39:07.000Z</time>
        <extensions>
          <ns3:TrackPointExtension>
            <ns3:atemp>25.0</ns3:atemp>
          </ns3:TrackPointExtension>
        </extensions>
      </trkpt>
      <trkpt lat="42.56888723932206630706787109375" lon="20.031497664749622344970703125">
        <ele>2020.800048828125</ele>
        <time>2026-06-15T13:39:08.000Z</time>
        <extensions>
          <ns3:TrackPointExtension>
            <ns3:atemp>25.0</ns3:atemp>
          </ns3:TrackPointExtension>
        </extensions>
      </trkpt>
      <trkpt lat="42.56888757459819316864013671875" lon="20.03148458898067474365234375">
        <ele>2021</ele>
        <time>2026-06-15T13:39:09.000Z</time>
        <extensions>
          <ns3:TrackPointExtension>
            <ns3:atemp>25.0</ns3:atemp>
          </ns3:TrackPointExtension>
        </extensions>
      </trkpt>
      <trkpt lat="42.56888941861689090728759765625" lon="20.03147117793560028076171875">
        <ele>2021.199951171875</ele>
        <time>2026-06-15T13:39:10.000Z</time>
        <extensions>
          <ns3:TrackPointExtension>
            <ns3:atemp>25.0</ns3:atemp>
          </ns3:TrackPointExtension>
        </extensions>
      </trkpt>
      <trkpt lat="42.56888556294143199920654296875" lon="20.0314669869840145111083984375">
        <ele>2021.199951171875</ele>
        <time>2026-06-15T13:39:11.000Z</time>
        <extensions>
          <ns3:TrackPointExtension>
            <ns3:atemp>25.0</ns3:atemp>
          </ns3:TrackPointExtension>
        </extensions>
      </trkpt>
      <trkpt lat="42.56888070143759250640869140625" lon="20.0314592756330966949462890625">
        <ele>2021.4000244140625</ele>
        <time>2026-06-15T13:39:12.000Z</time>
        <extensions>
          <ns3:TrackPointExtension>
            <ns3:atemp>25.0</ns3:atemp>
          </ns3:TrackPointExtension>
        </extensions>
      </trkpt>
      <trkpt lat="42.56887257099151611328125" lon="20.031453073024749755859375">
        <ele>2021.5999755859375</ele>
        <time>2026-06-15T13:39:13.000Z</time>
        <extensions>
          <ns3:TrackPointExtension>
            <ns3:atemp>25.0</ns3:atemp>
          </ns3:TrackPointExtension>
        </extensions>
      </trkpt>
      <trkpt lat="42.5688656978309154510498046875" lon="20.03144108690321445465087890625">
        <ele>2021.800048828125</ele>
        <time>2026-06-15T13:39:14.000Z</time>
        <extensions>
          <ns3:TrackPointExtension>
            <ns3:atemp>25.0</ns3:atemp>
          </ns3:TrackPointExtension>
        </extensions>
      </trkpt>
      <trkpt lat="42.56885823793709278106689453125" lon="20.03143689595162868499755859375">
        <ele>2022.199951171875</ele>
        <time>2026-06-15T13:39:15.000Z</time>
        <extensions>
          <ns3:TrackPointExtension>
            <ns3:atemp>25.0</ns3:atemp>
          </ns3:TrackPointExtension>
        </extensions>
      </trkpt>
      <trkpt lat="42.5688502751290798187255859375" lon="20.031433962285518646240234375">
        <ele>2022.4000244140625</ele>
        <time>2026-06-15T13:39:16.000Z</time>
        <extensions>
          <ns3:TrackPointExtension>
            <ns3:atemp>25.0</ns3:atemp>
          </ns3:TrackPointExtension>
        </extensions>
      </trkpt>
      <trkpt lat="42.5688371993601322174072265625" lon="20.0314384885132312774658203125">
        <ele>2022.5999755859375</ele>
        <time>2026-06-15T13:39:17.000Z</time>
        <extensions>
          <ns3:TrackPointExtension>
            <ns3:atemp>25.0</ns3:atemp>
          </ns3:TrackPointExtension>
        </extensions>
      </trkpt>
      <trkpt lat="42.568829320371150970458984375" lon="20.03144008107483386993408203125">
        <ele>2022.800048828125</ele>
        <time>2026-06-15T13:39:18.000Z</time>
        <extensions>
          <ns3:TrackPointExtension>
            <ns3:atemp>25.0</ns3:atemp>
          </ns3:TrackPointExtension>
        </extensions>
      </trkpt>
      <trkpt lat="42.56882320158183574676513671875" lon="20.0314354710280895233154296875">
        <ele>2023</ele>
        <time>2026-06-15T13:39:19.000Z</time>
        <extensions>
          <ns3:TrackPointExtension>
            <ns3:atemp>25.0</ns3:atemp>
          </ns3:TrackPointExtension>
        </extensions>
      </trkpt>
      <trkpt lat="42.5688154064118862152099609375" lon="20.0314356386661529541015625">
        <ele>2023.199951171875</ele>
        <time>2026-06-15T13:39:20.000Z</time>
        <extensions>
          <ns3:TrackPointExtension>
            <ns3:atemp>25.0</ns3:atemp>
          </ns3:TrackPointExtension>
        </extensions>
      </trkpt>
      <trkpt lat="42.5688041746616363525390625" lon="20.0314334593713283538818359375">
        <ele>2023.199951171875</ele>
        <time>2026-06-15T13:39:21.000Z</time>
        <extensions>
          <ns3:TrackPointExtension>
            <ns3:atemp>25.0</ns3:atemp>
          </ns3:TrackPointExtension>
        </extensions>
      </trkpt>
      <trkpt lat="42.56879738532006740570068359375" lon="20.0314301066100597381591796875">
        <ele>2023.4000244140625</ele>
        <time>2026-06-15T13:39:22.000Z</time>
        <extensions>
          <ns3:TrackPointExtension>
            <ns3:atemp>25.0</ns3:atemp>
          </ns3:TrackPointExtension>
        </extensions>
      </trkpt>
      <trkpt lat="42.568786405026912689208984375" lon="20.03142063505947589874267578125">
        <ele>2023.4000244140625</ele>
        <time>2026-06-15T13:39:23.000Z</time>
        <extensions>
          <ns3:TrackPointExtension>
            <ns3:atemp>25.0</ns3:atemp>
          </ns3:TrackPointExtension>
        </extensions>
      </trkpt>
      <trkpt lat="42.56877944804728031158447265625" lon="20.03142197616398334503173828125">
        <ele>2023.5999755859375</ele>
        <time>2026-06-15T13:39:24.000Z</time>
        <extensions>
          <ns3:TrackPointExtension>
            <ns3:atemp>25.0</ns3:atemp>
          </ns3:TrackPointExtension>
        </extensions>
      </trkpt>
      <trkpt lat="42.56877089850604534149169921875" lon="20.03142063505947589874267578125">
        <ele>2023.5999755859375</ele>
        <time>2026-06-15T13:39:25.000Z</time>
        <extensions>
          <ns3:TrackPointExtension>
            <ns3:atemp>25.0</ns3:atemp>
          </ns3:TrackPointExtension>
        </extensions>
      </trkpt>
      <trkpt lat="42.56876670755445957183837890625" lon="20.0314130075275897979736328125">
        <ele>2023.800048828125</ele>
        <time>2026-06-15T13:39:26.000Z</time>
        <extensions>
          <ns3:TrackPointExtension>
            <ns3:atemp>25.0</ns3:atemp>
          </ns3:TrackPointExtension>
        </extensions>
      </trkpt>
      <trkpt lat="42.56876192986965179443359375" lon="20.03141342662274837493896484375">
        <ele>2024</ele>
        <time>2026-06-15T13:39:27.000Z</time>
        <extensions>
          <ns3:TrackPointExtension>
            <ns3:atemp>25.0</ns3:atemp>
          </ns3:TrackPointExtension>
        </extensions>
      </trkpt>
      <trkpt lat="42.56875329650938510894775390625" lon="20.0314113311469554901123046875">
        <ele>2024.199951171875</ele>
        <time>2026-06-15T13:39:28.000Z</time>
        <extensions>
          <ns3:TrackPointExtension>
            <ns3:atemp>25.0</ns3:atemp>
          </ns3:TrackPointExtension>
        </extensions>
      </trkpt>
      <trkpt lat="42.56874692626297473907470703125" lon="20.031411163508892059326171875">
        <ele>2024.4000244140625</ele>
        <time>2026-06-15T13:39:29.000Z</time>
        <extensions>
          <ns3:TrackPointExtension>
            <ns3:atemp>25.0</ns3:atemp>
          </ns3:TrackPointExtension>
        </extensions>
      </trkpt>
      <trkpt lat="42.56873871199786663055419921875" lon="20.03141325898468494415283203125">
        <ele>2024.5999755859375</ele>
        <time>2026-06-15T13:39:30.000Z</time>
        <extensions>
          <ns3:TrackPointExtension>
            <ns3:atemp>25.0</ns3:atemp>
          </ns3:TrackPointExtension>
        </extensions>
      </trkpt>
      <trkpt lat="42.56873267702758312225341796875" lon="20.031411834061145782470703125">
        <ele>2024.800048828125</ele>
        <time>2026-06-15T13:39:31.000Z</time>
        <extensions>
          <ns3:TrackPointExtension>
            <ns3:atemp>25.0</ns3:atemp>
          </ns3:TrackPointExtension>
        </extensions>
      </trkpt>
      <trkpt lat="42.56872882135212421417236328125" lon="20.0314143486320972442626953125">
        <ele>2025.199951171875</ele>
        <time>2026-06-15T13:39:32.000Z</time>
        <extensions>
          <ns3:TrackPointExtension>
            <ns3:atemp>25.0</ns3:atemp>
          </ns3:TrackPointExtension>
        </extensions>
      </trkpt>
      <trkpt lat="42.568728737533092498779296875" lon="20.03141074441373348236083984375">
        <ele>2025.4000244140625</ele>
        <time>2026-06-15T13:39:33.000Z</time>
        <extensions>
          <ns3:TrackPointExtension>
            <ns3:atemp>25.0</ns3:atemp>
          </ns3:TrackPointExtension>
        </extensions>
      </trkpt>
      <trkpt lat="42.5687263906002044677734375" lon="20.03140412271022796630859375">
        <ele>2025.5999755859375</ele>
        <time>2026-06-15T13:39:34.000Z</time>
        <extensions>
          <ns3:TrackPointExtension>
            <ns3:atemp>25.0</ns3:atemp>
          </ns3:TrackPointExtension>
        </extensions>
      </trkpt>
      <trkpt lat="42.5687201879918575286865234375" lon="20.03139875829219818115234375">
        <ele>2026</ele>
        <time>2026-06-15T13:39:35.000Z</time>
        <extensions>
          <ns3:TrackPointExtension>
            <ns3:atemp>25.0</ns3:atemp>
          </ns3:TrackPointExtension>
        </extensions>
      </trkpt>
      <trkpt lat="42.56871071644127368927001953125" lon="20.0313918851315975189208984375">
        <ele>2026.199951171875</ele>
        <time>2026-06-15T13:39:36.000Z</time>
        <extensions>
          <ns3:TrackPointExtension>
            <ns3:atemp>25.0</ns3:atemp>
          </ns3:TrackPointExtension>
        </extensions>
      </trkpt>
      <trkpt lat="42.56870132870972156524658203125" lon="20.031388364732265472412109375">
        <ele>2026.4000244140625</ele>
        <time>2026-06-15T13:39:37.000Z</time>
        <extensions>
          <ns3:TrackPointExtension>
            <ns3:atemp>26.0</ns3:atemp>
          </ns3:TrackPointExtension>
        </extensions>
      </trkpt>
      <trkpt lat="42.56869311444461345672607421875" lon="20.0313885323703289031982421875">
        <ele>2026.5999755859375</ele>
        <time>2026-06-15T13:39:38.000Z</time>
        <extensions>
          <ns3:TrackPointExtension>
            <ns3:atemp>26.0</ns3:atemp>
          </ns3:TrackPointExtension>
        </extensions>
      </trkpt>
      <trkpt lat="42.56868557073175907135009765625" lon="20.03139398060739040374755859375">
        <ele>2026.800048828125</ele>
        <time>2026-06-15T13:39:39.000Z</time>
        <extensions>
          <ns3:TrackPointExtension>
            <ns3:atemp>26.0</ns3:atemp>
          </ns3:TrackPointExtension>
        </extensions>
      </trkpt>
      <trkpt lat="42.56867433898150920867919921875" lon="20.03139205276966094970703125">
        <ele>2027</ele>
        <time>2026-06-15T13:39:40.000Z</time>
        <extensions>
          <ns3:TrackPointExtension>
            <ns3:atemp>26.0</ns3:atemp>
          </ns3:TrackPointExtension>
        </extensions>
      </trkpt>
      <trkpt lat="42.56866444833576679229736328125" lon="20.0313851796090602874755859375">
        <ele>2027</ele>
        <time>2026-06-15T13:39:41.000Z</time>
        <extensions>
          <ns3:TrackPointExtension>
            <ns3:atemp>26.0</ns3:atemp>
          </ns3:TrackPointExtension>
        </extensions>
      </trkpt>
      <trkpt lat="42.56865673698484897613525390625" lon="20.03137671388685703277587890625">
        <ele>2027</ele>
        <time>2026-06-15T13:39:42.000Z</time>
        <extensions>
          <ns3:TrackPointExtension>
            <ns3:atemp>26.0</ns3:atemp>
          </ns3:TrackPointExtension>
        </extensions>
      </trkpt>
      <trkpt lat="42.5686511211097240447998046875" lon="20.03137051127851009368896484375">
        <ele>2027</ele>
        <time>2026-06-15T13:39:43.000Z</time>
        <extensions>
          <ns3:TrackPointExtension>
            <ns3:atemp>26.0</ns3:atemp>
          </ns3:TrackPointExtension>
        </extensions>
      </trkpt>
      <trkpt lat="42.56864659488201141357421875" lon="20.0313674099743366241455078125">
        <ele>2027</ele>
        <time>2026-06-15T13:39:44.000Z</time>
        <extensions>
          <ns3:TrackPointExtension>
            <ns3:atemp>26.0</ns3:atemp>
          </ns3:TrackPointExtension>
        </extensions>
      </trkpt>
      <trkpt lat="42.5686417333781719207763671875" lon="20.0313660688698291778564453125">
        <ele>2027.199951171875</ele>
        <time>2026-06-15T13:39:45.000Z</time>
        <extensions>
          <ns3:TrackPointExtension>
            <ns3:atemp>26.0</ns3:atemp>
          </ns3:TrackPointExtension>
        </extensions>
      </trkpt>
      <trkpt lat="42.568634860217571258544921875" lon="20.031367242336273193359375">
        <ele>2027.5999755859375</ele>
        <time>2026-06-15T13:39:46.000Z</time>
        <extensions>
          <ns3:TrackPointExtension>
            <ns3:atemp>26.0</ns3:atemp>
          </ns3:TrackPointExtension>
        </extensions>
      </trkpt>
      <trkpt lat="42.5686286576092243194580078125" lon="20.03136363811790943145751953125">
        <ele>2027.800048828125</ele>
        <time>2026-06-15T13:39:47.000Z</time>
        <extensions>
          <ns3:TrackPointExtension>
            <ns3:atemp>26.0</ns3:atemp>
          </ns3:TrackPointExtension>
        </extensions>
      </trkpt>
      <trkpt lat="42.5686259754002094268798828125" lon="20.03135542385280132293701171875">
        <ele>2027.800048828125</ele>
        <time>2026-06-15T13:39:48.000Z</time>
        <extensions>
          <ns3:TrackPointExtension>
            <ns3:atemp>26.0</ns3:atemp>
          </ns3:TrackPointExtension>
        </extensions>
      </trkpt>
      <trkpt lat="42.5686204433441162109375" lon="20.03134779632091522216796875">
        <ele>2028</ele>
        <time>2026-06-15T13:39:49.000Z</time>
        <extensions>
          <ns3:TrackPointExtension>
            <ns3:atemp>26.0</ns3:atemp>
          </ns3:TrackPointExtension>
        </extensions>
      </trkpt>
      <trkpt lat="42.56861331872642040252685546875" lon="20.03134503029286861419677734375">
        <ele>2028</ele>
        <time>2026-06-15T13:39:50.000Z</time>
        <extensions>
          <ns3:TrackPointExtension>
            <ns3:atemp>26.0</ns3:atemp>
          </ns3:TrackPointExtension>
        </extensions>
      </trkpt>
      <trkpt lat="42.56860560737550258636474609375" lon="20.03133815713226795196533203125">
        <ele>2028.199951171875</ele>
        <time>2026-06-15T13:39:51.000Z</time>
        <extensions>
          <ns3:TrackPointExtension>
            <ns3:atemp>26.0</ns3:atemp>
          </ns3:TrackPointExtension>
        </extensions>
      </trkpt>
      <trkpt lat="42.56859521381556987762451171875" lon="20.03133329562842845916748046875">
        <ele>2028.4000244140625</ele>
        <time>2026-06-15T13:39:52.000Z</time>
        <extensions>
          <ns3:TrackPointExtension>
            <ns3:atemp>26.0</ns3:atemp>
          </ns3:TrackPointExtension>
        </extensions>
      </trkpt>
      <trkpt lat="42.568589933216571807861328125" lon="20.0313328765332698822021484375">
        <ele>2028.5999755859375</ele>
        <time>2026-06-15T13:39:53.000Z</time>
        <extensions>
          <ns3:TrackPointExtension>
            <ns3:atemp>26.0</ns3:atemp>
          </ns3:TrackPointExtension>
        </extensions>
      </trkpt>
      <trkpt lat="42.56858280859887599945068359375" lon="20.0313283503055572509765625">
        <ele>2028.800048828125</ele>
        <time>2026-06-15T13:39:54.000Z</time>
        <extensions>
          <ns3:TrackPointExtension>
            <ns3:atemp>26.0</ns3:atemp>
          </ns3:TrackPointExtension>
        </extensions>
      </trkpt>
      <trkpt lat="42.56857593543827533721923828125" lon="20.03132642246782779693603515625">
        <ele>2029</ele>
        <time>2026-06-15T13:39:55.000Z</time>
        <extensions>
          <ns3:TrackPointExtension>
            <ns3:atemp>26.0</ns3:atemp>
          </ns3:TrackPointExtension>
        </extensions>
      </trkpt>
      <trkpt lat="42.56856755353510379791259765625" lon="20.03132256679236888885498046875">
        <ele>2029.199951171875</ele>
        <time>2026-06-15T13:39:56.000Z</time>
        <extensions>
          <ns3:TrackPointExtension>
            <ns3:atemp>26.0</ns3:atemp>
          </ns3:TrackPointExtension>
        </extensions>
      </trkpt>
      <trkpt lat="42.56856017746031284332275390625" lon="20.03132524900138378143310546875">
        <ele>2029.5999755859375</ele>
        <time>2026-06-15T13:39:57.000Z</time>
        <extensions>
          <ns3:TrackPointExtension>
            <ns3:atemp>26.0</ns3:atemp>
          </ns3:TrackPointExtension>
        </extensions>
      </trkpt>
      <trkpt lat="42.56855682469904422760009765625" lon="20.03132809884846210479736328125">
        <ele>2029.800048828125</ele>
        <time>2026-06-15T13:39:58.000Z</time>
        <extensions>
          <ns3:TrackPointExtension>
            <ns3:atemp>26.0</ns3:atemp>
          </ns3:TrackPointExtension>
        </extensions>
      </trkpt>
      <trkpt lat="42.56854869425296783447265625" lon="20.03133346326649188995361328125">
        <ele>2030</ele>
        <time>2026-06-15T13:39:59.000Z</time>
        <extensions>
          <ns3:TrackPointExtension>
            <ns3:atemp>26.0</ns3:atemp>
          </ns3:TrackPointExtension>
        </extensions>
      </trkpt>
      <trkpt lat="42.56854341365396976470947265625" lon="20.03133681602776050567626953125">
        <ele>2030.4000244140625</ele>
        <time>2026-06-15T13:40:00.000Z</time>
        <extensions>
          <ns3:TrackPointExtension>
            <ns3:atemp>26.0</ns3:atemp>
          </ns3:TrackPointExtension>
        </extensions>
      </trkpt>
      <trkpt lat="42.56853804923593997955322265625" lon="20.0313352234661579132080078125">
        <ele>2030.5999755859375</ele>
        <time>2026-06-15T13:40:01.000Z</time>
        <extensions>
          <ns3:TrackPointExtension>
            <ns3:atemp>26.0</ns3:atemp>
          </ns3:TrackPointExtension>
        </extensions>
      </trkpt>
      <trkpt lat="42.5685314275324344635009765625" lon="20.0313318707048892974853515625">
        <ele>2031</ele>
        <time>2026-06-15T13:40:02.000Z</time>
        <extensions>
          <ns3:TrackPointExtension>
            <ns3:atemp>26.0</ns3:atemp>
          </ns3:TrackPointExtension>
        </extensions>
      </trkpt>
      <trkpt lat="42.5685213692486286163330078125" lon="20.0313338823616504669189453125">
        <ele>2031.4000244140625</ele>
        <time>2026-06-15T13:40:03.000Z</time>
        <extensions>
          <ns3:TrackPointExtension>
            <ns3:atemp>26.0</ns3:atemp>
          </ns3:TrackPointExtension>
        </extensions>
      </trkpt>
      <trkpt lat="42.56851189769804477691650390625" lon="20.03133036196231842041015625">
        <ele>2031.5999755859375</ele>
        <time>2026-06-15T13:40:04.000Z</time>
        <extensions>
          <ns3:TrackPointExtension>
            <ns3:atemp>26.0</ns3:atemp>
          </ns3:TrackPointExtension>
        </extensions>
      </trkpt>
      <trkpt lat="42.56850770674645900726318359375" lon="20.03132910467684268951416015625">
        <ele>2031.800048828125</ele>
        <time>2026-06-15T13:40:05.000Z</time>
        <extensions>
          <ns3:TrackPointExtension>
            <ns3:atemp>26.0</ns3:atemp>
          </ns3:TrackPointExtension>
        </extensions>
      </trkpt>
      <trkpt lat="42.5684992410242557525634765625" lon="20.0313198007643222808837890625">
        <ele>2031.800048828125</ele>
        <time>2026-06-15T13:40:06.000Z</time>
        <extensions>
          <ns3:TrackPointExtension>
            <ns3:atemp>26.0</ns3:atemp>
          </ns3:TrackPointExtension>
        </extensions>
      </trkpt>
      <trkpt lat="42.5684992410242557525634765625" lon="20.0313097424805164337158203125">
        <ele>2031.800048828125</ele>
        <time>2026-06-15T13:40:07.000Z</time>
        <extensions>
          <ns3:TrackPointExtension>
            <ns3:atemp>26.0</ns3:atemp>
          </ns3:TrackPointExtension>
        </extensions>
      </trkpt>
      <trkpt lat="42.5684962235391139984130859375" lon="20.03130563534796237945556640625">
        <ele>2031.5999755859375</ele>
        <time>2026-06-15T13:40:08.000Z</time>
        <extensions>
          <ns3:TrackPointExtension>
            <ns3:atemp>26.0</ns3:atemp>
          </ns3:TrackPointExtension>
        </extensions>
      </trkpt>
      <trkpt lat="42.5685019232332706451416015625" lon="20.0312906317412853240966796875">
        <ele>2031.5999755859375</ele>
        <time>2026-06-15T13:40:09.000Z</time>
        <extensions>
          <ns3:TrackPointExtension>
            <ns3:atemp>26.0</ns3:atemp>
          </ns3:TrackPointExtension>
        </extensions>
      </trkpt>
      <trkpt lat="42.5685032643377780914306640625" lon="20.03128065727651119232177734375">
        <ele>2031.4000244140625</ele>
        <time>2026-06-15T13:40:10.000Z</time>
        <extensions>
          <ns3:TrackPointExtension>
            <ns3:atemp>26.0</ns3:atemp>
          </ns3:TrackPointExtension>
        </extensions>
      </trkpt>
      <trkpt lat="42.5685022585093975067138671875" lon="20.0312718562781810760498046875">
        <ele>2031.5999755859375</ele>
        <time>2026-06-15T13:40:11.000Z</time>
        <extensions>
          <ns3:TrackPointExtension>
            <ns3:atemp>26.0</ns3:atemp>
          </ns3:TrackPointExtension>
        </extensions>
      </trkpt>
      <trkpt lat="42.568498067557811737060546875" lon="20.03126598894596099853515625">
        <ele>2031.800048828125</ele>
        <time>2026-06-15T13:40:12.000Z</time>
        <extensions>
          <ns3:TrackPointExtension>
            <ns3:atemp>26.0</ns3:atemp>
          </ns3:TrackPointExtension>
        </extensions>
      </trkpt>
      <trkpt lat="42.5684905238449573516845703125" lon="20.03126062452793121337890625">
        <ele>2032</ele>
        <time>2026-06-15T13:40:13.000Z</time>
        <extensions>
          <ns3:TrackPointExtension>
            <ns3:atemp>26.0</ns3:atemp>
          </ns3:TrackPointExtension>
        </extensions>
      </trkpt>
      <trkpt lat="42.56848809309303760528564453125" lon="20.031245537102222442626953125">
        <ele>2032.199951171875</ele>
        <time>2026-06-15T13:40:14.000Z</time>
        <extensions>
          <ns3:TrackPointExtension>
            <ns3:atemp>26.0</ns3:atemp>
          </ns3:TrackPointExtension>
        </extensions>
      </trkpt>
      <trkpt lat="42.5684876739978790283203125" lon="20.03123371861875057220458984375">
        <ele>2032.4000244140625</ele>
        <time>2026-06-15T13:40:15.000Z</time>
        <extensions>
          <ns3:TrackPointExtension>
            <ns3:atemp>26.0</ns3:atemp>
          </ns3:TrackPointExtension>
        </extensions>
      </trkpt>
      <trkpt lat="42.56848775781691074371337890625" lon="20.03123371861875057220458984375">
        <ele>2032.5999755859375</ele>
        <time>2026-06-15T13:40:16.000Z</time>
        <extensions>
          <ns3:TrackPointExtension>
            <ns3:atemp>26.0</ns3:atemp>
          </ns3:TrackPointExtension>
        </extensions>
      </trkpt>
      <trkpt lat="42.56848775781691074371337890625" lon="20.03123371861875057220458984375">
        <ele>2032.800048828125</ele>
        <time>2026-06-15T13:40:17.000Z</time>
        <extensions>
          <ns3:TrackPointExtension>
            <ns3:atemp>26.0</ns3:atemp>
          </ns3:TrackPointExtension>
        </extensions>
      </trkpt>
      <trkpt lat="42.56848775781691074371337890625" lon="20.03123371861875057220458984375">
        <ele>2033</ele>
        <time>2026-06-15T13:40:18.000Z</time>
        <extensions>
          <ns3:TrackPointExtension>
            <ns3:atemp>26.0</ns3:atemp>
          </ns3:TrackPointExtension>
        </extensions>
      </trkpt>
      <trkpt lat="42.56848775781691074371337890625" lon="20.03123371861875057220458984375">
        <ele>2033</ele>
        <time>2026-06-15T13:40:19.000Z</time>
        <extensions>
          <ns3:TrackPointExtension>
            <ns3:atemp>26.0</ns3:atemp>
          </ns3:TrackPointExtension>
        </extensions>
      </trkpt>
      <trkpt lat="42.56848775781691074371337890625" lon="20.03123371861875057220458984375">
        <ele>2033.199951171875</ele>
        <time>2026-06-15T13:40:20.000Z</time>
        <extensions>
          <ns3:TrackPointExtension>
            <ns3:atemp>26.0</ns3:atemp>
          </ns3:TrackPointExtension>
        </extensions>
      </trkpt>
      <trkpt lat="42.56848775781691074371337890625" lon="20.03123371861875057220458984375">
        <ele>2033.4000244140625</ele>
        <time>2026-06-15T13:40:21.000Z</time>
        <extensions>
          <ns3:TrackPointExtension>
            <ns3:atemp>26.0</ns3:atemp>
          </ns3:TrackPointExtension>
        </extensions>
      </trkpt>
      <trkpt lat="42.56848775781691074371337890625" lon="20.03123371861875057220458984375">
        <ele>2033.4000244140625</ele>
        <time>2026-06-15T13:40:22.000Z</time>
        <extensions>
          <ns3:TrackPointExtension>
            <ns3:atemp>26.0</ns3:atemp>
          </ns3:TrackPointExtension>
        </extensions>
      </trkpt>
      <trkpt lat="42.56848775781691074371337890625" lon="20.03123371861875057220458984375">
        <ele>2033.5999755859375</ele>
        <time>2026-06-15T13:40:23.000Z</time>
        <extensions>
          <ns3:TrackPointExtension>
            <ns3:atemp>26.0</ns3:atemp>
          </ns3:TrackPointExtension>
        </extensions>
      </trkpt>
      <trkpt lat="42.56848775781691074371337890625" lon="20.03123371861875057220458984375">
        <ele>2033.5999755859375</ele>
        <time>2026-06-15T13:40:24.000Z</time>
        <extensions>
          <ns3:TrackPointExtension>
            <ns3:atemp>26.0</ns3:atemp>
          </ns3:TrackPointExtension>
        </extensions>
      </trkpt>
      <trkpt lat="42.56848775781691074371337890625" lon="20.03123371861875057220458984375">
        <ele>2033.5999755859375</ele>
        <time>2026-06-15T13:40:25.000Z</time>
        <extensions>
          <ns3:TrackPointExtension>
            <ns3:atemp>26.0</ns3:atemp>
          </ns3:TrackPointExtension>
        </extensions>
      </trkpt>
      <trkpt lat="42.56848775781691074371337890625" lon="20.03123371861875057220458984375">
        <ele>2033.5999755859375</ele>
        <time>2026-06-15T13:40:26.000Z</time>
        <extensions>
          <ns3:TrackPointExtension>
            <ns3:atemp>26.0</ns3:atemp>
          </ns3:TrackPointExtension>
        </extensions>
      </trkpt>
      <trkpt lat="42.56848742254078388214111328125" lon="20.0312322936952114105224609375">
        <ele>2033.5999755859375</ele>
        <time>2026-06-15T13:40:27.000Z</time>
        <extensions>
          <ns3:TrackPointExtension>
            <ns3:atemp>26.0</ns3:atemp>
          </ns3:TrackPointExtension>
        </extensions>
      </trkpt>
      <trkpt lat="42.56848121993243694305419921875" lon="20.0312262587249279022216796875">
        <ele>2033.800048828125</ele>
        <time>2026-06-15T13:40:28.000Z</time>
        <extensions>
          <ns3:TrackPointExtension>
            <ns3:atemp>26.0</ns3:atemp>
          </ns3:TrackPointExtension>
        </extensions>
      </trkpt>
      <trkpt lat="42.568475939333438873291015625" lon="20.03121896646916866302490234375">
        <ele>2034</ele>
        <time>2026-06-15T13:40:29.000Z</time>
        <extensions>
          <ns3:TrackPointExtension>
            <ns3:atemp>26.0</ns3:atemp>
          </ns3:TrackPointExtension>
        </extensions>
      </trkpt>
      <trkpt lat="42.568475268781185150146484375" lon="20.031214021146297454833984375">
        <ele>2034</ele>
        <time>2026-06-15T13:40:30.000Z</time>
        <extensions>
          <ns3:TrackPointExtension>
            <ns3:atemp>26.0</ns3:atemp>
          </ns3:TrackPointExtension>
        </extensions>
      </trkpt>
      <trkpt lat="42.56847853772342205047607421875" lon="20.03121410496532917022705078125">
        <ele>2034.199951171875</ele>
        <time>2026-06-15T13:40:31.000Z</time>
        <extensions>
          <ns3:TrackPointExtension>
            <ns3:atemp>26.0</ns3:atemp>
          </ns3:TrackPointExtension>
        </extensions>
      </trkpt>
      <trkpt lat="42.56847552023828029632568359375" lon="20.0312091596424579620361328125">
        <ele>2034.4000244140625</ele>
        <time>2026-06-15T13:40:32.000Z</time>
        <extensions>
          <ns3:TrackPointExtension>
            <ns3:atemp>26.0</ns3:atemp>
          </ns3:TrackPointExtension>
        </extensions>
      </trkpt>
      <trkpt lat="42.56847283802926540374755859375" lon="20.031205303966999053955078125">
        <ele>2034.800048828125</ele>
        <time>2026-06-15T13:40:33.000Z</time>
        <extensions>
          <ns3:TrackPointExtension>
            <ns3:atemp>26.0</ns3:atemp>
          </ns3:TrackPointExtension>
        </extensions>
      </trkpt>
      <trkpt lat="42.56847283802926540374755859375" lon="20.0312051363289356231689453125">
        <ele>2035</ele>
        <time>2026-06-15T13:40:34.000Z</time>
        <extensions>
          <ns3:TrackPointExtension>
            <ns3:atemp>26.0</ns3:atemp>
          </ns3:TrackPointExtension>
        </extensions>
      </trkpt>
      <trkpt lat="42.56847283802926540374755859375" lon="20.0312051363289356231689453125">
        <ele>2035.199951171875</ele>
        <time>2026-06-15T13:40:35.000Z</time>
        <extensions>
          <ns3:TrackPointExtension>
            <ns3:atemp>26.0</ns3:atemp>
          </ns3:TrackPointExtension>
        </extensions>
      </trkpt>
      <trkpt lat="42.56847283802926540374755859375" lon="20.0312051363289356231689453125">
        <ele>2035.199951171875</ele>
        <time>2026-06-15T13:40:36.000Z</time>
        <extensions>
          <ns3:TrackPointExtension>
            <ns3:atemp>26.0</ns3:atemp>
          </ns3:TrackPointExtension>
        </extensions>
      </trkpt>
      <trkpt lat="42.56847283802926540374755859375" lon="20.0312051363289356231689453125">
        <ele>2035.4000244140625</ele>
        <time>2026-06-15T13:40:37.000Z</time>
        <extensions>
          <ns3:TrackPointExtension>
            <ns3:atemp>26.0</ns3:atemp>
          </ns3:TrackPointExtension>
        </extensions>
      </trkpt>
      <trkpt lat="42.56847283802926540374755859375" lon="20.0312051363289356231689453125">
        <ele>2036</ele>
        <time>2026-06-15T13:40:38.000Z</time>
        <extensions>
          <ns3:TrackPointExtension>
            <ns3:atemp>26.0</ns3:atemp>
          </ns3:TrackPointExtension>
        </extensions>
      </trkpt>
      <trkpt lat="42.56847267039120197296142578125" lon="20.03120429813861846923828125">
        <ele>2036.5999755859375</ele>
        <time>2026-06-15T13:40:39.000Z</time>
        <extensions>
          <ns3:TrackPointExtension>
            <ns3:atemp>26.0</ns3:atemp>
          </ns3:TrackPointExtension>
        </extensions>
      </trkpt>
      <trkpt lat="42.56847283802926540374755859375" lon="20.0312051363289356231689453125">
        <ele>2037.199951171875</ele>
        <time>2026-06-15T13:40:40.000Z</time>
        <extensions>
          <ns3:TrackPointExtension>
            <ns3:atemp>26.0</ns3:atemp>
          </ns3:TrackPointExtension>
        </extensions>
      </trkpt>
      <trkpt lat="42.56847283802926540374755859375" lon="20.0312051363289356231689453125">
        <ele>2037.800048828125</ele>
        <time>2026-06-15T13:40:41.000Z</time>
        <extensions>
          <ns3:TrackPointExtension>
            <ns3:atemp>26.0</ns3:atemp>
          </ns3:TrackPointExtension>
        </extensions>
      </trkpt>
      <trkpt lat="42.56847283802926540374755859375" lon="20.0312051363289356231689453125">
        <ele>2038</ele>
        <time>2026-06-15T13:40:42.000Z</time>
        <extensions>
          <ns3:TrackPointExtension>
            <ns3:atemp>26.0</ns3:atemp>
          </ns3:TrackPointExtension>
        </extensions>
      </trkpt>
      <trkpt lat="42.56847283802926540374755859375" lon="20.0312051363289356231689453125">
        <ele>2037.5999755859375</ele>
        <time>2026-06-15T13:40:43.000Z</time>
        <extensions>
          <ns3:TrackPointExtension>
            <ns3:atemp>26.0</ns3:atemp>
          </ns3:TrackPointExtension>
        </extensions>
      </trkpt>
      <trkpt lat="42.56847283802926540374755859375" lon="20.0312051363289356231689453125">
        <ele>2037.199951171875</ele>
        <time>2026-06-15T13:40:44.000Z</time>
        <extensions>
          <ns3:TrackPointExtension>
            <ns3:atemp>26.0</ns3:atemp>
          </ns3:TrackPointExtension>
        </extensions>
      </trkpt>
      <trkpt lat="42.56847283802926540374755859375" lon="20.0312051363289356231689453125">
        <ele>2037</ele>
        <time>2026-06-15T13:40:45.000Z</time>
        <extensions>
          <ns3:TrackPointExtension>
            <ns3:atemp>26.0</ns3:atemp>
          </ns3:TrackPointExtension>
        </extensions>
      </trkpt>
      <trkpt lat="42.56847283802926540374755859375" lon="20.0312051363289356231689453125">
        <ele>2036.5999755859375</ele>
        <time>2026-06-15T13:40:46.000Z</time>
        <extensions>
          <ns3:TrackPointExtension>
            <ns3:atemp>26.0</ns3:atemp>
          </ns3:TrackPointExtension>
        </extensions>
      </trkpt>
      <trkpt lat="42.56847283802926540374755859375" lon="20.0312051363289356231689453125">
        <ele>2036.199951171875</ele>
        <time>2026-06-15T13:40:47.000Z</time>
        <extensions>
          <ns3:TrackPointExtension>
            <ns3:atemp>26.0</ns3:atemp>
          </ns3:TrackPointExtension>
        </extensions>
      </trkpt>
      <trkpt lat="42.56847283802926540374755859375" lon="20.0312051363289356231689453125">
        <ele>2035.800048828125</ele>
        <time>2026-06-15T13:40:48.000Z</time>
        <extensions>
          <ns3:TrackPointExtension>
            <ns3:atemp>26.0</ns3:atemp>
          </ns3:TrackPointExtension>
        </extensions>
      </trkpt>
      <trkpt lat="42.56847283802926540374755859375" lon="20.0312051363289356231689453125">
        <ele>2035.4000244140625</ele>
        <time>2026-06-15T13:40:49.000Z</time>
        <extensions>
          <ns3:TrackPointExtension>
            <ns3:atemp>26.0</ns3:atemp>
          </ns3:TrackPointExtension>
        </extensions>
      </trkpt>
      <trkpt lat="42.56847283802926540374755859375" lon="20.0312051363289356231689453125">
        <ele>2035.199951171875</ele>
        <time>2026-06-15T13:40:50.000Z</time>
        <extensions>
          <ns3:TrackPointExtension>
            <ns3:atemp>26.0</ns3:atemp>
          </ns3:TrackPointExtension>
        </extensions>
      </trkpt>
      <trkpt lat="42.56847283802926540374755859375" lon="20.0312051363289356231689453125">
        <ele>2035.199951171875</ele>
        <time>2026-06-15T13:40:51.000Z</time>
        <extensions>
          <ns3:TrackPointExtension>
            <ns3:atemp>26.0</ns3:atemp>
          </ns3:TrackPointExtension>
        </extensions>
      </trkpt>
      <trkpt lat="42.56847283802926540374755859375" lon="20.0312051363289356231689453125">
        <ele>2035.199951171875</ele>
        <time>2026-06-15T13:40:52.000Z</time>
        <extensions>
          <ns3:TrackPointExtension>
            <ns3:atemp>26.0</ns3:atemp>
          </ns3:TrackPointExtension>
        </extensions>
      </trkpt>
      <trkpt lat="42.56847283802926540374755859375" lon="20.0312051363289356231689453125">
        <ele>2035.199951171875</ele>
        <time>2026-06-15T13:40:53.000Z</time>
        <extensions>
          <ns3:TrackPointExtension>
            <ns3:atemp>25.0</ns3:atemp>
          </ns3:TrackPointExtension>
        </extensions>
      </trkpt>
      <trkpt lat="42.56847283802926540374755859375" lon="20.0312051363289356231689453125">
        <ele>2035.199951171875</ele>
        <time>2026-06-15T13:40:54.000Z</time>
        <extensions>
          <ns3:TrackPointExtension>
            <ns3:atemp>25.0</ns3:atemp>
          </ns3:TrackPointExtension>
        </extensions>
      </trkpt>
      <trkpt lat="42.56847283802926540374755859375" lon="20.0312051363289356231689453125">
        <ele>2035.199951171875</ele>
        <time>2026-06-15T13:40:55.000Z</time>
        <extensions>
          <ns3:TrackPointExtension>
            <ns3:atemp>25.0</ns3:atemp>
          </ns3:TrackPointExtension>
        </extensions>
      </trkpt>
      <trkpt lat="42.56847283802926540374755859375" lon="20.0312051363289356231689453125">
        <ele>2035.199951171875</ele>
        <time>2026-06-15T13:40:56.000Z</time>
        <extensions>
          <ns3:TrackPointExtension>
            <ns3:atemp>25.0</ns3:atemp>
          </ns3:TrackPointExtension>
        </extensions>
      </trkpt>
      <trkpt lat="42.56847283802926540374755859375" lon="20.0312051363289356231689453125">
        <ele>2035.199951171875</ele>
        <time>2026-06-15T13:40:57.000Z</time>
        <extensions>
          <ns3:TrackPointExtension>
            <ns3:atemp>25.0</ns3:atemp>
          </ns3:TrackPointExtension>
        </extensions>
      </trkpt>
      <trkpt lat="42.56847283802926540374755859375" lon="20.0312051363289356231689453125">
        <ele>2035.4000244140625</ele>
        <time>2026-06-15T13:40:58.000Z</time>
        <extensions>
          <ns3:TrackPointExtension>
            <ns3:atemp>25.0</ns3:atemp>
          </ns3:TrackPointExtension>
        </extensions>
      </trkpt>
      <trkpt lat="42.56847283802926540374755859375" lon="20.0312051363289356231689453125">
        <ele>2035.4000244140625</ele>
        <time>2026-06-15T13:40:59.000Z</time>
        <extensions>
          <ns3:TrackPointExtension>
            <ns3:atemp>25.0</ns3:atemp>
          </ns3:TrackPointExtension>
        </extensions>
      </trkpt>
      <trkpt lat="42.56847283802926540374755859375" lon="20.0312051363289356231689453125">
        <ele>2035.4000244140625</ele>
        <time>2026-06-15T13:41:00.000Z</time>
        <extensions>
          <ns3:TrackPointExtension>
            <ns3:atemp>25.0</ns3:atemp>
          </ns3:TrackPointExtension>
        </extensions>
      </trkpt>
      <trkpt lat="42.56847283802926540374755859375" lon="20.0312051363289356231689453125">
        <ele>2035.4000244140625</ele>
        <time>2026-06-15T13:41:01.000Z</time>
        <extensions>
          <ns3:TrackPointExtension>
            <ns3:atemp>25.0</ns3:atemp>
          </ns3:TrackPointExtension>
        </extensions>
      </trkpt>
      <trkpt lat="42.56847283802926540374755859375" lon="20.0312051363289356231689453125">
        <ele>2035.4000244140625</ele>
        <time>2026-06-15T13:41:02.000Z</time>
        <extensions>
          <ns3:TrackPointExtension>
            <ns3:atemp>25.0</ns3:atemp>
          </ns3:TrackPointExtension>
        </extensions>
      </trkpt>
      <trkpt lat="42.56847283802926540374755859375" lon="20.0312051363289356231689453125">
        <ele>2035.199951171875</ele>
        <time>2026-06-15T13:41:03.000Z</time>
        <extensions>
          <ns3:TrackPointExtension>
            <ns3:atemp>25.0</ns3:atemp>
          </ns3:TrackPointExtension>
        </extensions>
      </trkpt>
      <trkpt lat="42.56847283802926540374755859375" lon="20.0312051363289356231689453125">
        <ele>2035.199951171875</ele>
        <time>2026-06-15T13:41:04.000Z</time>
        <extensions>
          <ns3:TrackPointExtension>
            <ns3:atemp>25.0</ns3:atemp>
          </ns3:TrackPointExtension>
        </extensions>
      </trkpt>
      <trkpt lat="42.56847283802926540374755859375" lon="20.0312051363289356231689453125">
        <ele>2035.199951171875</ele>
        <time>2026-06-15T13:41:05.000Z</time>
        <extensions>
          <ns3:TrackPointExtension>
            <ns3:atemp>25.0</ns3:atemp>
          </ns3:TrackPointExtension>
        </extensions>
      </trkpt>
      <trkpt lat="42.56847283802926540374755859375" lon="20.0312051363289356231689453125">
        <ele>2035.199951171875</ele>
        <time>2026-06-15T13:41:06.000Z</time>
        <extensions>
          <ns3:TrackPointExtension>
            <ns3:atemp>25.0</ns3:atemp>
          </ns3:TrackPointExtension>
        </extensions>
      </trkpt>
      <trkpt lat="42.56847283802926540374755859375" lon="20.0312051363289356231689453125">
        <ele>2035.199951171875</ele>
        <time>2026-06-15T13:41:07.000Z</time>
        <extensions>
          <ns3:TrackPointExtension>
            <ns3:atemp>25.0</ns3:atemp>
          </ns3:TrackPointExtension>
        </extensions>
      </trkpt>
      <trkpt lat="42.56847283802926540374755859375" lon="20.0312051363289356231689453125">
        <ele>2035.199951171875</ele>
        <time>2026-06-15T13:41:08.000Z</time>
        <extensions>
          <ns3:TrackPointExtension>
            <ns3:atemp>25.0</ns3:atemp>
          </ns3:TrackPointExtension>
        </extensions>
      </trkpt>
      <trkpt lat="42.56847283802926540374755859375" lon="20.0312051363289356231689453125">
        <ele>2035.199951171875</ele>
        <time>2026-06-15T13:41:09.000Z</time>
        <extensions>
          <ns3:TrackPointExtension>
            <ns3:atemp>25.0</ns3:atemp>
          </ns3:TrackPointExtension>
        </extensions>
      </trkpt>
      <trkpt lat="42.56847283802926540374755859375" lon="20.0312051363289356231689453125">
        <ele>2035.199951171875</ele>
        <time>2026-06-15T13:41:10.000Z</time>
        <extensions>
          <ns3:TrackPointExtension>
            <ns3:atemp>25.0</ns3:atemp>
          </ns3:TrackPointExtension>
        </extensions>
      </trkpt>
      <trkpt lat="42.56847283802926540374755859375" lon="20.0312051363289356231689453125">
        <ele>2035.199951171875</ele>
        <time>2026-06-15T13:41:11.000Z</time>
        <extensions>
          <ns3:TrackPointExtension>
            <ns3:atemp>25.0</ns3:atemp>
          </ns3:TrackPointExtension>
        </extensions>
      </trkpt>
      <trkpt lat="42.56847283802926540374755859375" lon="20.0312051363289356231689453125">
        <ele>2035.199951171875</ele>
        <time>2026-06-15T13:41:12.000Z</time>
        <extensions>
          <ns3:TrackPointExtension>
            <ns3:atemp>25.0</ns3:atemp>
          </ns3:TrackPointExtension>
        </extensions>
      </trkpt>
      <trkpt lat="42.56847283802926540374755859375" lon="20.0312051363289356231689453125">
        <ele>2035.199951171875</ele>
        <time>2026-06-15T13:41:13.000Z</time>
        <extensions>
          <ns3:TrackPointExtension>
            <ns3:atemp>25.0</ns3:atemp>
          </ns3:TrackPointExtension>
        </extensions>
      </trkpt>
      <trkpt lat="42.56847283802926540374755859375" lon="20.0312051363289356231689453125">
        <ele>2035.199951171875</ele>
        <time>2026-06-15T13:41:14.000Z</time>
        <extensions>
          <ns3:TrackPointExtension>
            <ns3:atemp>25.0</ns3:atemp>
          </ns3:TrackPointExtension>
        </extensions>
      </trkpt>
      <trkpt lat="42.56847283802926540374755859375" lon="20.0312051363289356231689453125">
        <ele>2035.199951171875</ele>
        <time>2026-06-15T13:41:15.000Z</time>
        <extensions>
          <ns3:TrackPointExtension>
            <ns3:atemp>25.0</ns3:atemp>
          </ns3:TrackPointExtension>
        </extensions>
      </trkpt>
      <trkpt lat="42.56847283802926540374755859375" lon="20.0312051363289356231689453125">
        <ele>2035.4000244140625</ele>
        <time>2026-06-15T13:41:16.000Z</time>
        <extensions>
          <ns3:TrackPointExtension>
            <ns3:atemp>25.0</ns3:atemp>
          </ns3:TrackPointExtension>
        </extensions>
      </trkpt>
      <trkpt lat="42.56847283802926540374755859375" lon="20.0312051363289356231689453125">
        <ele>2035.4000244140625</ele>
        <time>2026-06-15T13:41:17.000Z</time>
        <extensions>
          <ns3:TrackPointExtension>
            <ns3:atemp>25.0</ns3:atemp>
          </ns3:TrackPointExtension>
        </extensions>
      </trkpt>
      <trkpt lat="42.56847283802926540374755859375" lon="20.0312051363289356231689453125">
        <ele>2035.4000244140625</ele>
        <time>2026-06-15T13:41:18.000Z</time>
        <extensions>
          <ns3:TrackPointExtension>
            <ns3:atemp>25.0</ns3:atemp>
          </ns3:TrackPointExtension>
        </extensions>
      </trkpt>
      <trkpt lat="42.56847283802926540374755859375" lon="20.0312051363289356231689453125">
        <ele>2035.4000244140625</ele>
        <time>2026-06-15T13:41:19.000Z</time>
        <extensions>
          <ns3:TrackPointExtension>
            <ns3:atemp>25.0</ns3:atemp>
          </ns3:TrackPointExtension>
        </extensions>
      </trkpt>
      <trkpt lat="42.56847283802926540374755859375" lon="20.0312051363289356231689453125">
        <ele>2035.4000244140625</ele>
        <time>2026-06-15T13:41:20.000Z</time>
        <extensions>
          <ns3:TrackPointExtension>
            <ns3:atemp>25.0</ns3:atemp>
          </ns3:TrackPointExtension>
        </extensions>
      </trkpt>
      <trkpt lat="42.56847283802926540374755859375" lon="20.0312051363289356231689453125">
        <ele>2035.4000244140625</ele>
        <time>2026-06-15T13:41:21.000Z</time>
        <extensions>
          <ns3:TrackPointExtension>
            <ns3:atemp>25.0</ns3:atemp>
          </ns3:TrackPointExtension>
        </extensions>
      </trkpt>
      <trkpt lat="42.56847283802926540374755859375" lon="20.0312051363289356231689453125">
        <ele>2035.4000244140625</ele>
        <time>2026-06-15T13:41:22.000Z</time>
        <extensions>
          <ns3:TrackPointExtension>
            <ns3:atemp>25.0</ns3:atemp>
          </ns3:TrackPointExtension>
        </extensions>
      </trkpt>
      <trkpt lat="42.56847283802926540374755859375" lon="20.0312051363289356231689453125">
        <ele>2035.4000244140625</ele>
        <time>2026-06-15T13:41:23.000Z</time>
        <extensions>
          <ns3:TrackPointExtension>
            <ns3:atemp>25.0</ns3:atemp>
          </ns3:TrackPointExtension>
        </extensions>
      </trkpt>
      <trkpt lat="42.56847283802926540374755859375" lon="20.0312051363289356231689453125">
        <ele>2035.4000244140625</ele>
        <time>2026-06-15T13:41:24.000Z</time>
        <extensions>
          <ns3:TrackPointExtension>
            <ns3:atemp>25.0</ns3:atemp>
          </ns3:TrackPointExtension>
        </extensions>
      </trkpt>
      <trkpt lat="42.56847283802926540374755859375" lon="20.0312051363289356231689453125">
        <ele>2035.4000244140625</ele>
        <time>2026-06-15T13:41:25.000Z</time>
        <extensions>
          <ns3:TrackPointExtension>
            <ns3:atemp>25.0</ns3:atemp>
          </ns3:TrackPointExtension>
        </extensions>
      </trkpt>
      <trkpt lat="42.56847283802926540374755859375" lon="20.0312051363289356231689453125">
        <ele>2035.4000244140625</ele>
        <time>2026-06-15T13:41:26.000Z</time>
        <extensions>
          <ns3:TrackPointExtension>
            <ns3:atemp>25.0</ns3:atemp>
          </ns3:TrackPointExtension>
        </extensions>
      </trkpt>
      <trkpt lat="42.56847283802926540374755859375" lon="20.0312051363289356231689453125">
        <ele>2035.199951171875</ele>
        <time>2026-06-15T13:41:27.000Z</time>
        <extensions>
          <ns3:TrackPointExtension>
            <ns3:atemp>25.0</ns3:atemp>
          </ns3:TrackPointExtension>
        </extensions>
      </trkpt>
      <trkpt lat="42.56847283802926540374755859375" lon="20.0312051363289356231689453125">
        <ele>2035.199951171875</ele>
        <time>2026-06-15T13:41:28.000Z</time>
        <extensions>
          <ns3:TrackPointExtension>
            <ns3:atemp>25.0</ns3:atemp>
          </ns3:TrackPointExtension>
        </extensions>
      </trkpt>
      <trkpt lat="42.56847283802926540374755859375" lon="20.0312051363289356231689453125">
        <ele>2035.199951171875</ele>
        <time>2026-06-15T13:41:29.000Z</time>
        <extensions>
          <ns3:TrackPointExtension>
            <ns3:atemp>25.0</ns3:atemp>
          </ns3:TrackPointExtension>
        </extensions>
      </trkpt>
      <trkpt lat="42.56847283802926540374755859375" lon="20.0312051363289356231689453125">
        <ele>2035.199951171875</ele>
        <time>2026-06-15T13:41:30.000Z</time>
        <extensions>
          <ns3:TrackPointExtension>
            <ns3:atemp>25.0</ns3:atemp>
          </ns3:TrackPointExtension>
        </extensions>
      </trkpt>
      <trkpt lat="42.56847283802926540374755859375" lon="20.0312051363289356231689453125">
        <ele>2035</ele>
        <time>2026-06-15T13:41:31.000Z</time>
        <extensions>
          <ns3:TrackPointExtension>
            <ns3:atemp>25.0</ns3:atemp>
          </ns3:TrackPointExtension>
        </extensions>
      </trkpt>
      <trkpt lat="42.56847283802926540374755859375" lon="20.0312051363289356231689453125">
        <ele>2035</ele>
        <time>2026-06-15T13:41:32.000Z</time>
        <extensions>
          <ns3:TrackPointExtension>
            <ns3:atemp>25.0</ns3:atemp>
          </ns3:TrackPointExtension>
        </extensions>
      </trkpt>
      <trkpt lat="42.56847283802926540374755859375" lon="20.0312051363289356231689453125">
        <ele>2035</ele>
        <time>2026-06-15T13:41:33.000Z</time>
        <extensions>
          <ns3:TrackPointExtension>
            <ns3:atemp>25.0</ns3:atemp>
          </ns3:TrackPointExtension>
        </extensions>
      </trkpt>
      <trkpt lat="42.56847283802926540374755859375" lon="20.0312051363289356231689453125">
        <ele>2035.199951171875</ele>
        <time>2026-06-15T13:41:34.000Z</time>
        <extensions>
          <ns3:TrackPointExtension>
            <ns3:atemp>25.0</ns3:atemp>
          </ns3:TrackPointExtension>
        </extensions>
      </trkpt>
      <trkpt lat="42.56847283802926540374755859375" lon="20.0312051363289356231689453125">
        <ele>2035.199951171875</ele>
        <time>2026-06-15T13:41:35.000Z</time>
        <extensions>
          <ns3:TrackPointExtension>
            <ns3:atemp>25.0</ns3:atemp>
          </ns3:TrackPointExtension>
        </extensions>
      </trkpt>
      <trkpt lat="42.56847283802926540374755859375" lon="20.0312051363289356231689453125">
        <ele>2035.4000244140625</ele>
        <time>2026-06-15T13:41:36.000Z</time>
        <extensions>
          <ns3:TrackPointExtension>
            <ns3:atemp>25.0</ns3:atemp>
          </ns3:TrackPointExtension>
        </extensions>
      </trkpt>
      <trkpt lat="42.56847283802926540374755859375" lon="20.0312051363289356231689453125">
        <ele>2035.5999755859375</ele>
        <time>2026-06-15T13:41:37.000Z</time>
        <extensions>
          <ns3:TrackPointExtension>
            <ns3:atemp>25.0</ns3:atemp>
          </ns3:TrackPointExtension>
        </extensions>
      </trkpt>
      <trkpt lat="42.56847283802926540374755859375" lon="20.0312051363289356231689453125">
        <ele>2035.5999755859375</ele>
        <time>2026-06-15T13:41:38.000Z</time>
        <extensions>
          <ns3:TrackPointExtension>
            <ns3:atemp>24.0</ns3:atemp>
          </ns3:TrackPointExtension>
        </extensions>
      </trkpt>
      <trkpt lat="42.56847283802926540374755859375" lon="20.0312051363289356231689453125">
        <ele>2035.5999755859375</ele>
        <time>2026-06-15T13:41:39.000Z</time>
        <extensions>
          <ns3:TrackPointExtension>
            <ns3:atemp>25.0</ns3:atemp>
          </ns3:TrackPointExtension>
        </extensions>
      </trkpt>
      <trkpt lat="42.56847283802926540374755859375" lon="20.0312051363289356231689453125">
        <ele>2035.5999755859375</ele>
        <time>2026-06-15T13:41:40.000Z</time>
        <extensions>
          <ns3:TrackPointExtension>
            <ns3:atemp>24.0</ns3:atemp>
          </ns3:TrackPointExtension>
        </extensions>
      </trkpt>
      <trkpt lat="42.56847283802926540374755859375" lon="20.0312051363289356231689453125">
        <ele>2035.5999755859375</ele>
        <time>2026-06-15T13:41:41.000Z</time>
        <extensions>
          <ns3:TrackPointExtension>
            <ns3:atemp>24.0</ns3:atemp>
          </ns3:TrackPointExtension>
        </extensions>
      </trkpt>
      <trkpt lat="42.56847283802926540374755859375" lon="20.0312051363289356231689453125">
        <ele>2035.800048828125</ele>
        <time>2026-06-15T13:41:42.000Z</time>
        <extensions>
          <ns3:TrackPointExtension>
            <ns3:atemp>24.0</ns3:atemp>
          </ns3:TrackPointExtension>
        </extensions>
      </trkpt>
      <trkpt lat="42.56847283802926540374755859375" lon="20.0312051363289356231689453125">
        <ele>2035.800048828125</ele>
        <time>2026-06-15T13:41:43.000Z</time>
        <extensions>
          <ns3:TrackPointExtension>
            <ns3:atemp>24.0</ns3:atemp>
          </ns3:TrackPointExtension>
        </extensions>
      </trkpt>
      <trkpt lat="42.56847283802926540374755859375" lon="20.0312051363289356231689453125">
        <ele>2035.800048828125</ele>
        <time>2026-06-15T13:41:44.000Z</time>
        <extensions>
          <ns3:TrackPointExtension>
            <ns3:atemp>24.0</ns3:atemp>
          </ns3:TrackPointExtension>
        </extensions>
      </trkpt>
      <trkpt lat="42.56847283802926540374755859375" lon="20.0312051363289356231689453125">
        <ele>2035.5999755859375</ele>
        <time>2026-06-15T13:41:45.000Z</time>
        <extensions>
          <ns3:TrackPointExtension>
            <ns3:atemp>24.0</ns3:atemp>
          </ns3:TrackPointExtension>
        </extensions>
      </trkpt>
      <trkpt lat="42.56847283802926540374755859375" lon="20.0312051363289356231689453125">
        <ele>2035.5999755859375</ele>
        <time>2026-06-15T13:41:46.000Z</time>
        <extensions>
          <ns3:TrackPointExtension>
            <ns3:atemp>24.0</ns3:atemp>
          </ns3:TrackPointExtension>
        </extensions>
      </trkpt>
      <trkpt lat="42.56847283802926540374755859375" lon="20.0312051363289356231689453125">
        <ele>2035.5999755859375</ele>
        <time>2026-06-15T13:41:47.000Z</time>
        <extensions>
          <ns3:TrackPointExtension>
            <ns3:atemp>24.0</ns3:atemp>
          </ns3:TrackPointExtension>
        </extensions>
      </trkpt>
      <trkpt lat="42.56847283802926540374755859375" lon="20.0312051363289356231689453125">
        <ele>2035.800048828125</ele>
        <time>2026-06-15T13:41:48.000Z</time>
        <extensions>
          <ns3:TrackPointExtension>
            <ns3:atemp>24.0</ns3:atemp>
          </ns3:TrackPointExtension>
        </extensions>
      </trkpt>
      <trkpt lat="42.56847283802926540374755859375" lon="20.0312051363289356231689453125">
        <ele>2035.800048828125</ele>
        <time>2026-06-15T13:41:49.000Z</time>
        <extensions>
          <ns3:TrackPointExtension>
            <ns3:atemp>24.0</ns3:atemp>
          </ns3:TrackPointExtension>
        </extensions>
      </trkpt>
      <trkpt lat="42.5684626959264278411865234375" lon="20.03121125511825084686279296875">
        <ele>2035.800048828125</ele>
        <time>2026-06-15T13:41:50.000Z</time>
        <extensions>
          <ns3:TrackPointExtension>
            <ns3:atemp>24.0</ns3:atemp>
          </ns3:TrackPointExtension>
        </extensions>
      </trkpt>
      <trkpt lat="42.56844618357717990875244140625" lon="20.0312135182321071624755859375">
        <ele>2035.800048828125</ele>
        <time>2026-06-15T13:41:51.000Z</time>
        <extensions>
          <ns3:TrackPointExtension>
            <ns3:atemp>24.0</ns3:atemp>
          </ns3:TrackPointExtension>
        </extensions>
      </trkpt>
      <trkpt lat="42.56843813695013523101806640625" lon="20.0312151946127414703369140625">
        <ele>2036</ele>
        <time>2026-06-15T13:41:52.000Z</time>
        <extensions>
          <ns3:TrackPointExtension>
            <ns3:atemp>24.0</ns3:atemp>
          </ns3:TrackPointExtension>
        </extensions>
      </trkpt>
      <trkpt lat="42.56843813695013523101806640625" lon="20.03121527843177318572998046875">
        <ele>2036</ele>
        <time>2026-06-15T13:41:53.000Z</time>
        <extensions>
          <ns3:TrackPointExtension>
            <ns3:atemp>24.0</ns3:atemp>
          </ns3:TrackPointExtension>
        </extensions>
      </trkpt>
      <trkpt lat="42.568438053131103515625" lon="20.03121544606983661651611328125">
        <ele>2036.199951171875</ele>
        <time>2026-06-15T13:41:54.000Z</time>
        <extensions>
          <ns3:TrackPointExtension>
            <ns3:atemp>24.0</ns3:atemp>
          </ns3:TrackPointExtension>
        </extensions>
      </trkpt>
      <trkpt lat="42.56843981333076953887939453125" lon="20.0312210619449615478515625">
        <ele>2036.199951171875</ele>
        <time>2026-06-15T13:41:55.000Z</time>
        <extensions>
          <ns3:TrackPointExtension>
            <ns3:atemp>24.0</ns3:atemp>
          </ns3:TrackPointExtension>
        </extensions>
      </trkpt>
      <trkpt lat="42.56843813695013523101806640625" lon="20.03121527843177318572998046875">
        <ele>2036.199951171875</ele>
        <time>2026-06-15T13:41:56.000Z</time>
        <extensions>
          <ns3:TrackPointExtension>
            <ns3:atemp>24.0</ns3:atemp>
          </ns3:TrackPointExtension>
        </extensions>
      </trkpt>
      <trkpt lat="42.56843813695013523101806640625" lon="20.03121527843177318572998046875">
        <ele>2036.199951171875</ele>
        <time>2026-06-15T13:41:57.000Z</time>
        <extensions>
          <ns3:TrackPointExtension>
            <ns3:atemp>24.0</ns3:atemp>
          </ns3:TrackPointExtension>
        </extensions>
      </trkpt>
      <trkpt lat="42.56843763403594493865966796875" lon="20.03122449852526187896728515625">
        <ele>2036.199951171875</ele>
        <time>2026-06-15T13:41:58.000Z</time>
        <extensions>
          <ns3:TrackPointExtension>
            <ns3:atemp>24.0</ns3:atemp>
          </ns3:TrackPointExtension>
        </extensions>
      </trkpt>
      <trkpt lat="42.56842874921858310699462890625" lon="20.03123103640973567962646484375">
        <ele>2036.199951171875</ele>
        <time>2026-06-15T13:41:59.000Z</time>
        <extensions>
          <ns3:TrackPointExtension>
            <ns3:atemp>24.0</ns3:atemp>
          </ns3:TrackPointExtension>
        </extensions>
      </trkpt>
      <trkpt lat="42.56842221133410930633544921875" lon="20.031233131885528564453125">
        <ele>2036.4000244140625</ele>
        <time>2026-06-15T13:42:00.000Z</time>
        <extensions>
          <ns3:TrackPointExtension>
            <ns3:atemp>24.0</ns3:atemp>
          </ns3:TrackPointExtension>
        </extensions>
      </trkpt>
      <trkpt lat="42.56841248832643032073974609375" lon="20.03122667782008647918701171875">
        <ele>2036.5999755859375</ele>
        <time>2026-06-15T13:42:01.000Z</time>
        <extensions>
          <ns3:TrackPointExtension>
            <ns3:atemp>24.0</ns3:atemp>
          </ns3:TrackPointExtension>
        </extensions>
      </trkpt>
      <trkpt lat="42.5684026814997196197509765625" lon="20.0312195532023906707763671875">
        <ele>2036.800048828125</ele>
        <time>2026-06-15T13:42:02.000Z</time>
        <extensions>
          <ns3:TrackPointExtension>
            <ns3:atemp>24.0</ns3:atemp>
          </ns3:TrackPointExtension>
        </extensions>
      </trkpt>
      <trkpt lat="42.56838248111307621002197265625" lon="20.03120488487184047698974609375">
        <ele>2037.199951171875</ele>
        <time>2026-06-15T13:42:03.000Z</time>
        <extensions>
          <ns3:TrackPointExtension>
            <ns3:atemp>24.0</ns3:atemp>
          </ns3:TrackPointExtension>
        </extensions>
      </trkpt>
      <trkpt lat="42.5683669745922088623046875" lon="20.03119600005447864532470703125">
        <ele>2037.4000244140625</ele>
        <time>2026-06-15T13:42:04.000Z</time>
        <extensions>
          <ns3:TrackPointExtension>
            <ns3:atemp>24.0</ns3:atemp>
          </ns3:TrackPointExtension>
        </extensions>
      </trkpt>
      <trkpt lat="42.56835079751908779144287109375" lon="20.03118845634162425994873046875">
        <ele>2037.800048828125</ele>
        <time>2026-06-15T13:42:05.000Z</time>
        <extensions>
          <ns3:TrackPointExtension>
            <ns3:atemp>24.0</ns3:atemp>
          </ns3:TrackPointExtension>
        </extensions>
      </trkpt>
      <trkpt lat="42.5683342851698398590087890625" lon="20.0311746262013912200927734375">
        <ele>2038</ele>
        <time>2026-06-15T13:42:06.000Z</time>
        <extensions>
          <ns3:TrackPointExtension>
            <ns3:atemp>24.0</ns3:atemp>
          </ns3:TrackPointExtension>
        </extensions>
      </trkpt>
      <trkpt lat="42.56832447834312915802001953125" lon="20.03114788793027400970458984375">
        <ele>2038.4000244140625</ele>
        <time>2026-06-15T13:42:07.000Z</time>
        <extensions>
          <ns3:TrackPointExtension>
            <ns3:atemp>24.0</ns3:atemp>
          </ns3:TrackPointExtension>
        </extensions>
      </trkpt>
      <trkpt lat="42.56831810809671878814697265625" lon="20.03112106584012508392333984375">
        <ele>2038.800048828125</ele>
        <time>2026-06-15T13:42:08.000Z</time>
        <extensions>
          <ns3:TrackPointExtension>
            <ns3:atemp>24.0</ns3:atemp>
          </ns3:TrackPointExtension>
        </extensions>
      </trkpt>
      <trkpt lat="42.56831131875514984130859375" lon="20.03109022043645381927490234375">
        <ele>2039.199951171875</ele>
        <time>2026-06-15T13:42:09.000Z</time>
        <extensions>
          <ns3:TrackPointExtension>
            <ns3:atemp>24.0</ns3:atemp>
          </ns3:TrackPointExtension>
        </extensions>
      </trkpt>
      <trkpt lat="42.56831626407802104949951171875" lon="20.0310623086988925933837890625">
        <ele>2039.5999755859375</ele>
        <time>2026-06-15T13:42:10.000Z</time>
        <extensions>
          <ns3:TrackPointExtension>
            <ns3:atemp>24.0</ns3:atemp>
          </ns3:TrackPointExtension>
        </extensions>
      </trkpt>
      <trkpt lat="42.56832414306700229644775390625" lon="20.031039007008075714111328125">
        <ele>2040</ele>
        <time>2026-06-15T13:42:11.000Z</time>
        <extensions>
          <ns3:TrackPointExtension>
            <ns3:atemp>24.0</ns3:atemp>
          </ns3:TrackPointExtension>
        </extensions>
      </trkpt>
      <trkpt lat="42.5683312676846981048583984375" lon="20.0310093350708484649658203125">
        <ele>2040.4000244140625</ele>
        <time>2026-06-15T13:42:12.000Z</time>
        <extensions>
          <ns3:TrackPointExtension>
            <ns3:atemp>24.0</ns3:atemp>
          </ns3:TrackPointExtension>
        </extensions>
      </trkpt>
      <trkpt lat="42.56833814084529876708984375" lon="20.03100187517702579498291015625">
        <ele>2040.800048828125</ele>
        <time>2026-06-15T13:42:13.000Z</time>
        <extensions>
          <ns3:TrackPointExtension>
            <ns3:atemp>24.0</ns3:atemp>
          </ns3:TrackPointExtension>
        </extensions>
      </trkpt>
      <trkpt lat="42.56833814084529876708984375" lon="20.0310016237199306488037109375">
        <ele>2041.199951171875</ele>
        <time>2026-06-15T13:42:14.000Z</time>
        <extensions>
          <ns3:TrackPointExtension>
            <ns3:atemp>24.0</ns3:atemp>
          </ns3:TrackPointExtension>
        </extensions>
      </trkpt>
      <trkpt lat="42.56833814084529876708984375" lon="20.0310016237199306488037109375">
        <ele>2041.5999755859375</ele>
        <time>2026-06-15T13:42:15.000Z</time>
        <extensions>
          <ns3:TrackPointExtension>
            <ns3:atemp>24.0</ns3:atemp>
          </ns3:TrackPointExtension>
        </extensions>
      </trkpt>
      <trkpt lat="42.56833814084529876708984375" lon="20.0310016237199306488037109375">
        <ele>2042</ele>
        <time>2026-06-15T13:42:16.000Z</time>
        <extensions>
          <ns3:TrackPointExtension>
            <ns3:atemp>24.0</ns3:atemp>
          </ns3:TrackPointExtension>
        </extensions>
      </trkpt>
      <trkpt lat="42.56833814084529876708984375" lon="20.0310016237199306488037109375">
        <ele>2042.199951171875</ele>
        <time>2026-06-15T13:42:17.000Z</time>
        <extensions>
          <ns3:TrackPointExtension>
            <ns3:atemp>24.0</ns3:atemp>
          </ns3:TrackPointExtension>
        </extensions>
      </trkpt>
      <trkpt lat="42.56833814084529876708984375" lon="20.0310016237199306488037109375">
        <ele>2042.4000244140625</ele>
        <time>2026-06-15T13:42:18.000Z</time>
        <extensions>
          <ns3:TrackPointExtension>
            <ns3:atemp>24.0</ns3:atemp>
          </ns3:TrackPointExtension>
        </extensions>
      </trkpt>
      <trkpt lat="42.56833814084529876708984375" lon="20.0310016237199306488037109375">
        <ele>2042.5999755859375</ele>
        <time>2026-06-15T13:42:19.000Z</time>
        <extensions>
          <ns3:TrackPointExtension>
            <ns3:atemp>24.0</ns3:atemp>
          </ns3:TrackPointExtension>
        </extensions>
      </trkpt>
      <trkpt lat="42.56833788938820362091064453125" lon="20.030998773872852325439453125">
        <ele>2042.5999755859375</ele>
        <time>2026-06-15T13:42:20.000Z</time>
        <extensions>
          <ns3:TrackPointExtension>
            <ns3:atemp>24.0</ns3:atemp>
          </ns3:TrackPointExtension>
        </extensions>
      </trkpt>
      <trkpt lat="42.56833788938820362091064453125" lon="20.0309701077640056610107421875">
        <ele>2042.5999755859375</ele>
        <time>2026-06-15T13:42:21.000Z</time>
        <extensions>
          <ns3:TrackPointExtension>
            <ns3:atemp>24.0</ns3:atemp>
          </ns3:TrackPointExtension>
        </extensions>
      </trkpt>
      <trkpt lat="42.568341158330440521240234375" lon="20.03095158375799655914306640625">
        <ele>2042.5999755859375</ele>
        <time>2026-06-15T13:42:22.000Z</time>
        <extensions>
          <ns3:TrackPointExtension>
            <ns3:atemp>24.0</ns3:atemp>
          </ns3:TrackPointExtension>
        </extensions>
      </trkpt>
      <trkpt lat="42.5683443434536457061767578125" lon="20.03093414939939975738525390625">
        <ele>2042.5999755859375</ele>
        <time>2026-06-15T13:42:23.000Z</time>
        <extensions>
          <ns3:TrackPointExtension>
            <ns3:atemp>24.0</ns3:atemp>
          </ns3:TrackPointExtension>
        </extensions>
      </trkpt>
      <trkpt lat="42.56835029460489749908447265625" lon="20.0309137813746929168701171875">
        <ele>2042.5999755859375</ele>
        <time>2026-06-15T13:42:24.000Z</time>
        <extensions>
          <ns3:TrackPointExtension>
            <ns3:atemp>24.0</ns3:atemp>
          </ns3:TrackPointExtension>
        </extensions>
      </trkpt>
      <trkpt lat="42.56835867650806903839111328125" lon="20.0308906473219394683837890625">
        <ele>2042.800048828125</ele>
        <time>2026-06-15T13:42:25.000Z</time>
        <extensions>
          <ns3:TrackPointExtension>
            <ns3:atemp>24.0</ns3:atemp>
          </ns3:TrackPointExtension>
        </extensions>
      </trkpt>
      <trkpt lat="42.5683611072599887847900390625" lon="20.03086692653596401214599609375">
        <ele>2043</ele>
        <time>2026-06-15T13:42:26.000Z</time>
        <extensions>
          <ns3:TrackPointExtension>
            <ns3:atemp>24.0</ns3:atemp>
          </ns3:TrackPointExtension>
        </extensions>
      </trkpt>
      <trkpt lat="42.56836018525063991546630859375" lon="20.0308427028357982635498046875">
        <ele>2043.4000244140625</ele>
        <time>2026-06-15T13:42:27.000Z</time>
        <extensions>
          <ns3:TrackPointExtension>
            <ns3:atemp>24.0</ns3:atemp>
          </ns3:TrackPointExtension>
        </extensions>
      </trkpt>
      <trkpt lat="42.5683530606329441070556640625" lon="20.0308215804398059844970703125">
        <ele>2044</ele>
        <time>2026-06-15T13:42:28.000Z</time>
        <extensions>
          <ns3:TrackPointExtension>
            <ns3:atemp>24.0</ns3:atemp>
          </ns3:TrackPointExtension>
        </extensions>
      </trkpt>
      <trkpt lat="42.5683537311851978302001953125" lon="20.03080054186284542083740234375">
        <ele>2044.5999755859375</ele>
        <time>2026-06-15T13:42:29.000Z</time>
        <extensions>
          <ns3:TrackPointExtension>
            <ns3:atemp>24.0</ns3:atemp>
          </ns3:TrackPointExtension>
        </extensions>
      </trkpt>
      <trkpt lat="42.5683564133942127227783203125" lon="20.030777491629123687744140625">
        <ele>2045.199951171875</ele>
        <time>2026-06-15T13:42:30.000Z</time>
        <extensions>
          <ns3:TrackPointExtension>
            <ns3:atemp>24.0</ns3:atemp>
          </ns3:TrackPointExtension>
        </extensions>
      </trkpt>
      <trkpt lat="42.56836420856416225433349609375" lon="20.0307773239910602569580078125">
        <ele>2045.800048828125</ele>
        <time>2026-06-15T13:42:31.000Z</time>
        <extensions>
          <ns3:TrackPointExtension>
            <ns3:atemp>24.0</ns3:atemp>
          </ns3:TrackPointExtension>
        </extensions>
      </trkpt>
      <trkpt lat="42.56836068816483020782470703125" lon="20.030768774449825286865234375">
        <ele>2046.4000244140625</ele>
        <time>2026-06-15T13:42:32.000Z</time>
        <extensions>
          <ns3:TrackPointExtension>
            <ns3:atemp>24.0</ns3:atemp>
          </ns3:TrackPointExtension>
        </extensions>
      </trkpt>
      <trkpt lat="42.56836068816483020782470703125" lon="20.03076869063079357147216796875">
        <ele>2047</ele>
        <time>2026-06-15T13:42:33.000Z</time>
        <extensions>
          <ns3:TrackPointExtension>
            <ns3:atemp>24.0</ns3:atemp>
          </ns3:TrackPointExtension>
        </extensions>
      </trkpt>
      <trkpt lat="42.56836052052676677703857421875" lon="20.03076843917369842529296875">
        <ele>2047.4000244140625</ele>
        <time>2026-06-15T13:42:34.000Z</time>
        <extensions>
          <ns3:TrackPointExtension>
            <ns3:atemp>24.0</ns3:atemp>
          </ns3:TrackPointExtension>
        </extensions>
      </trkpt>
      <trkpt lat="42.568358592689037322998046875" lon="20.03074941225349903106689453125">
        <ele>2047.5999755859375</ele>
        <time>2026-06-15T13:42:35.000Z</time>
        <extensions>
          <ns3:TrackPointExtension>
            <ns3:atemp>24.0</ns3:atemp>
          </ns3:TrackPointExtension>
        </extensions>
      </trkpt>
      <trkpt lat="42.56835884414613246917724609375" lon="20.030732564628124237060546875">
        <ele>2047.800048828125</ele>
        <time>2026-06-15T13:42:36.000Z</time>
        <extensions>
          <ns3:TrackPointExtension>
            <ns3:atemp>24.0</ns3:atemp>
          </ns3:TrackPointExtension>
        </extensions>
      </trkpt>
      <trkpt lat="42.568360269069671630859375" lon="20.0307216681540012359619140625">
        <ele>2047.800048828125</ele>
        <time>2026-06-15T13:42:37.000Z</time>
        <extensions>
          <ns3:TrackPointExtension>
            <ns3:atemp>24.0</ns3:atemp>
          </ns3:TrackPointExtension>
        </extensions>
      </trkpt>
      <trkpt lat="42.56836219690740108489990234375" lon="20.0307132862508296966552734375">
        <ele>2048</ele>
        <time>2026-06-15T13:42:38.000Z</time>
        <extensions>
          <ns3:TrackPointExtension>
            <ns3:atemp>24.0</ns3:atemp>
          </ns3:TrackPointExtension>
        </extensions>
      </trkpt>
      <trkpt lat="42.56836538203060626983642578125" lon="20.03069727681577205657958984375">
        <ele>2048.199951171875</ele>
        <time>2026-06-15T13:42:39.000Z</time>
        <extensions>
          <ns3:TrackPointExtension>
            <ns3:atemp>24.0</ns3:atemp>
          </ns3:TrackPointExtension>
        </extensions>
      </trkpt>
      <trkpt lat="42.56836806423962116241455078125" lon="20.03068805672228336334228515625">
        <ele>2048.60009765625</ele>
        <time>2026-06-15T13:42:40.000Z</time>
        <extensions>
          <ns3:TrackPointExtension>
            <ns3:atemp>24.0</ns3:atemp>
          </ns3:TrackPointExtension>
        </extensions>
      </trkpt>
      <trkpt lat="42.568370997905731201171875" lon="20.03068001009523868560791015625">
        <ele>2048.800048828125</ele>
        <time>2026-06-15T13:42:41.000Z</time>
        <extensions>
          <ns3:TrackPointExtension>
            <ns3:atemp>24.0</ns3:atemp>
          </ns3:TrackPointExtension>
        </extensions>
      </trkpt>
      <trkpt lat="42.56837435066699981689453125" lon="20.03066919744014739990234375">
        <ele>2049.199951171875</ele>
        <time>2026-06-15T13:42:42.000Z</time>
        <extensions>
          <ns3:TrackPointExtension>
            <ns3:atemp>24.0</ns3:atemp>
          </ns3:TrackPointExtension>
        </extensions>
      </trkpt>
      <trkpt lat="42.5683772005140781402587890625" lon="20.03066156990826129913330078125">
        <ele>2049.39990234375</ele>
        <time>2026-06-15T13:42:43.000Z</time>
        <extensions>
          <ns3:TrackPointExtension>
            <ns3:atemp>24.0</ns3:atemp>
          </ns3:TrackPointExtension>
        </extensions>
      </trkpt>
      <trkpt lat="42.56838080473244190216064453125" lon="20.030656121671199798583984375">
        <ele>2049.60009765625</ele>
        <time>2026-06-15T13:42:44.000Z</time>
        <extensions>
          <ns3:TrackPointExtension>
            <ns3:atemp>24.0</ns3:atemp>
          </ns3:TrackPointExtension>
        </extensions>
      </trkpt>
      <trkpt lat="42.5683825649321079254150390625" lon="20.0306499190628528594970703125">
        <ele>2050</ele>
        <time>2026-06-15T13:42:45.000Z</time>
        <extensions>
          <ns3:TrackPointExtension>
            <ns3:atemp>24.0</ns3:atemp>
          </ns3:TrackPointExtension>
        </extensions>
      </trkpt>
      <trkpt lat="42.56838466040790081024169921875" lon="20.03064413554966449737548828125">
        <ele>2050.199951171875</ele>
        <time>2026-06-15T13:42:46.000Z</time>
        <extensions>
          <ns3:TrackPointExtension>
            <ns3:atemp>24.0</ns3:atemp>
          </ns3:TrackPointExtension>
        </extensions>
      </trkpt>
      <trkpt lat="42.5683865882456302642822265625" lon="20.03064027987420558929443359375">
        <ele>2050.39990234375</ele>
        <time>2026-06-15T13:42:47.000Z</time>
        <extensions>
          <ns3:TrackPointExtension>
            <ns3:atemp>24.0</ns3:atemp>
          </ns3:TrackPointExtension>
        </extensions>
      </trkpt>
      <trkpt lat="42.56838885135948657989501953125" lon="20.0306264497339725494384765625">
        <ele>2050.60009765625</ele>
        <time>2026-06-15T13:42:48.000Z</time>
        <extensions>
          <ns3:TrackPointExtension>
            <ns3:atemp>24.0</ns3:atemp>
          </ns3:TrackPointExtension>
        </extensions>
      </trkpt>
      <trkpt lat="42.568391449749469757080078125" lon="20.03061949275434017181396484375">
        <ele>2051</ele>
        <time>2026-06-15T13:42:49.000Z</time>
        <extensions>
          <ns3:TrackPointExtension>
            <ns3:atemp>24.0</ns3:atemp>
          </ns3:TrackPointExtension>
        </extensions>
      </trkpt>
      <trkpt lat="42.5683949701488018035888671875" lon="20.0306043215095996856689453125">
        <ele>2051.199951171875</ele>
        <time>2026-06-15T13:42:50.000Z</time>
        <extensions>
          <ns3:TrackPointExtension>
            <ns3:atemp>24.0</ns3:atemp>
          </ns3:TrackPointExtension>
        </extensions>
      </trkpt>
      <trkpt lat="42.56839756853878498077392578125" lon="20.03059769980609416961669921875">
        <ele>2051.39990234375</ele>
        <time>2026-06-15T13:42:51.000Z</time>
        <extensions>
          <ns3:TrackPointExtension>
            <ns3:atemp>24.0</ns3:atemp>
          </ns3:TrackPointExtension>
        </extensions>
      </trkpt>
      <trkpt lat="42.56839756853878498077392578125" lon="20.03059769980609416961669921875">
        <ele>2051.60009765625</ele>
        <time>2026-06-15T13:42:52.000Z</time>
        <extensions>
          <ns3:TrackPointExtension>
            <ns3:atemp>24.0</ns3:atemp>
          </ns3:TrackPointExtension>
        </extensions>
      </trkpt>
      <trkpt lat="42.56839756853878498077392578125" lon="20.03059769980609416961669921875">
        <ele>2051.800048828125</ele>
        <time>2026-06-15T13:42:53.000Z</time>
        <extensions>
          <ns3:TrackPointExtension>
            <ns3:atemp>24.0</ns3:atemp>
          </ns3:TrackPointExtension>
        </extensions>
      </trkpt>
      <trkpt lat="42.56839756853878498077392578125" lon="20.03059769980609416961669921875">
        <ele>2052</ele>
        <time>2026-06-15T13:42:54.000Z</time>
        <extensions>
          <ns3:TrackPointExtension>
            <ns3:atemp>24.0</ns3:atemp>
          </ns3:TrackPointExtension>
        </extensions>
      </trkpt>
      <trkpt lat="42.56839773617684841156005859375" lon="20.03059736452996730804443359375">
        <ele>2052</ele>
        <time>2026-06-15T13:42:55.000Z</time>
        <extensions>
          <ns3:TrackPointExtension>
            <ns3:atemp>24.0</ns3:atemp>
          </ns3:TrackPointExtension>
        </extensions>
      </trkpt>
      <trkpt lat="42.56839756853878498077392578125" lon="20.03059769980609416961669921875">
        <ele>2052</ele>
        <time>2026-06-15T13:42:56.000Z</time>
        <extensions>
          <ns3:TrackPointExtension>
            <ns3:atemp>24.0</ns3:atemp>
          </ns3:TrackPointExtension>
        </extensions>
      </trkpt>
      <trkpt lat="42.5683983229100704193115234375" lon="20.0305945985019207000732421875">
        <ele>2052</ele>
        <time>2026-06-15T13:42:57.000Z</time>
        <extensions>
          <ns3:TrackPointExtension>
            <ns3:atemp>24.0</ns3:atemp>
          </ns3:TrackPointExtension>
        </extensions>
      </trkpt>
      <trkpt lat="42.56840729154646396636962890625" lon="20.03057490102946758270263671875">
        <ele>2051.800048828125</ele>
        <time>2026-06-15T13:42:58.000Z</time>
        <extensions>
          <ns3:TrackPointExtension>
            <ns3:atemp>24.0</ns3:atemp>
          </ns3:TrackPointExtension>
        </extensions>
      </trkpt>
      <trkpt lat="42.5684127397835254669189453125" lon="20.03055277280509471893310546875">
        <ele>2051.800048828125</ele>
        <time>2026-06-15T13:42:59.000Z</time>
        <extensions>
          <ns3:TrackPointExtension>
            <ns3:atemp>24.0</ns3:atemp>
          </ns3:TrackPointExtension>
        </extensions>
      </trkpt>
      <trkpt lat="42.56841802038252353668212890625" lon="20.03052569925785064697265625">
        <ele>2052</ele>
        <time>2026-06-15T13:43:00.000Z</time>
        <extensions>
          <ns3:TrackPointExtension>
            <ns3:atemp>24.0</ns3:atemp>
          </ns3:TrackPointExtension>
        </extensions>
      </trkpt>
      <trkpt lat="42.568423636257648468017578125" lon="20.0304990448057651519775390625">
        <ele>2052.199951171875</ele>
        <time>2026-06-15T13:43:01.000Z</time>
        <extensions>
          <ns3:TrackPointExtension>
            <ns3:atemp>24.0</ns3:atemp>
          </ns3:TrackPointExtension>
        </extensions>
      </trkpt>
      <trkpt lat="42.56843067705631256103515625" lon="20.03047314472496509552001953125">
        <ele>2052.60009765625</ele>
        <time>2026-06-15T13:43:02.000Z</time>
        <extensions>
          <ns3:TrackPointExtension>
            <ns3:atemp>24.0</ns3:atemp>
          </ns3:TrackPointExtension>
        </extensions>
      </trkpt>
      <trkpt lat="42.5684340298175811767578125" lon="20.0304450653493404388427734375">
        <ele>2053</ele>
        <time>2026-06-15T13:43:03.000Z</time>
        <extensions>
          <ns3:TrackPointExtension>
            <ns3:atemp>24.0</ns3:atemp>
          </ns3:TrackPointExtension>
        </extensions>
      </trkpt>
      <trkpt lat="42.5684365443885326385498046875" lon="20.0304215960204601287841796875">
        <ele>2053.39990234375</ele>
        <time>2026-06-15T13:43:04.000Z</time>
        <extensions>
          <ns3:TrackPointExtension>
            <ns3:atemp>24.0</ns3:atemp>
          </ns3:TrackPointExtension>
        </extensions>
      </trkpt>
      <trkpt lat="42.568441070616245269775390625" lon="20.03039502538740634918212890625">
        <ele>2053.800048828125</ele>
        <time>2026-06-15T13:43:05.000Z</time>
        <extensions>
          <ns3:TrackPointExtension>
            <ns3:atemp>24.0</ns3:atemp>
          </ns3:TrackPointExtension>
        </extensions>
      </trkpt>
      <trkpt lat="42.56844936870038509368896484375" lon="20.0303672812879085540771484375">
        <ele>2054.60009765625</ele>
        <time>2026-06-15T13:43:06.000Z</time>
        <extensions>
          <ns3:TrackPointExtension>
            <ns3:atemp>24.0</ns3:atemp>
          </ns3:TrackPointExtension>
        </extensions>
      </trkpt>
      <trkpt lat="42.56846060045063495635986328125" lon="20.03034406341612339019775390625">
        <ele>2055</ele>
        <time>2026-06-15T13:43:07.000Z</time>
        <extensions>
          <ns3:TrackPointExtension>
            <ns3:atemp>24.0</ns3:atemp>
          </ns3:TrackPointExtension>
        </extensions>
      </trkpt>
      <trkpt lat="42.5684680603444576263427734375" lon="20.0303216837346553802490234375">
        <ele>2055.60009765625</ele>
        <time>2026-06-15T13:43:08.000Z</time>
        <extensions>
          <ns3:TrackPointExtension>
            <ns3:atemp>24.0</ns3:atemp>
          </ns3:TrackPointExtension>
        </extensions>
      </trkpt>
      <trkpt lat="42.56848004646599292755126953125" lon="20.03031237982213497161865234375">
        <ele>2056.199951171875</ele>
        <time>2026-06-15T13:43:09.000Z</time>
        <extensions>
          <ns3:TrackPointExtension>
            <ns3:atemp>24.0</ns3:atemp>
          </ns3:TrackPointExtension>
        </extensions>
      </trkpt>
      <trkpt lat="42.56849194876849651336669921875" lon="20.0303029082715511322021484375">
        <ele>2056.800048828125</ele>
        <time>2026-06-15T13:43:10.000Z</time>
        <extensions>
          <ns3:TrackPointExtension>
            <ns3:atemp>24.0</ns3:atemp>
          </ns3:TrackPointExtension>
        </extensions>
      </trkpt>
      <trkpt lat="42.5685086287558078765869140625" lon="20.03028924576938152313232421875">
        <ele>2057.199951171875</ele>
        <time>2026-06-15T13:43:11.000Z</time>
        <extensions>
          <ns3:TrackPointExtension>
            <ns3:atemp>24.0</ns3:atemp>
          </ns3:TrackPointExtension>
        </extensions>
      </trkpt>
      <trkpt lat="42.56852589547634124755859375" lon="20.03027868457138538360595703125">
        <ele>2057.60009765625</ele>
        <time>2026-06-15T13:43:12.000Z</time>
        <extensions>
          <ns3:TrackPointExtension>
            <ns3:atemp>24.0</ns3:atemp>
          </ns3:TrackPointExtension>
        </extensions>
      </trkpt>
      <trkpt lat="42.5685418210923671722412109375" lon="20.0302747450768947601318359375">
        <ele>2057.800048828125</ele>
        <time>2026-06-15T13:43:13.000Z</time>
        <extensions>
          <ns3:TrackPointExtension>
            <ns3:atemp>24.0</ns3:atemp>
          </ns3:TrackPointExtension>
        </extensions>
      </trkpt>
      <trkpt lat="42.56855447776615619659423828125" lon="20.0302643515169620513916015625">
        <ele>2058</ele>
        <time>2026-06-15T13:43:14.000Z</time>
        <extensions>
          <ns3:TrackPointExtension>
            <ns3:atemp>24.0</ns3:atemp>
          </ns3:TrackPointExtension>
        </extensions>
      </trkpt>
      <trkpt lat="42.5685676373541355133056640625" lon="20.030261166393756866455078125">
        <ele>2058</ele>
        <time>2026-06-15T13:43:15.000Z</time>
        <extensions>
          <ns3:TrackPointExtension>
            <ns3:atemp>24.0</ns3:atemp>
          </ns3:TrackPointExtension>
        </extensions>
      </trkpt>
      <trkpt lat="42.568575851619243621826171875" lon="20.03026150166988372802734375">
        <ele>2058</ele>
        <time>2026-06-15T13:43:16.000Z</time>
        <extensions>
          <ns3:TrackPointExtension>
            <ns3:atemp>24.0</ns3:atemp>
          </ns3:TrackPointExtension>
        </extensions>
      </trkpt>
      <trkpt lat="42.56857560016214847564697265625" lon="20.03026418387889862060546875">
        <ele>2058</ele>
        <time>2026-06-15T13:43:17.000Z</time>
        <extensions>
          <ns3:TrackPointExtension>
            <ns3:atemp>24.0</ns3:atemp>
          </ns3:TrackPointExtension>
        </extensions>
      </trkpt>
      <trkpt lat="42.5685756839811801910400390625" lon="20.03026418387889862060546875">
        <ele>2058</ele>
        <time>2026-06-15T13:43:18.000Z</time>
        <extensions>
          <ns3:TrackPointExtension>
            <ns3:atemp>24.0</ns3:atemp>
          </ns3:TrackPointExtension>
        </extensions>
      </trkpt>
      <trkpt lat="42.5685756839811801910400390625" lon="20.03026418387889862060546875">
        <ele>2058</ele>
        <time>2026-06-15T13:43:19.000Z</time>
        <extensions>
          <ns3:TrackPointExtension>
            <ns3:atemp>24.0</ns3:atemp>
          </ns3:TrackPointExtension>
        </extensions>
      </trkpt>
      <trkpt lat="42.5685756839811801910400390625" lon="20.03026418387889862060546875">
        <ele>2058</ele>
        <time>2026-06-15T13:43:20.000Z</time>
        <extensions>
          <ns3:TrackPointExtension>
            <ns3:atemp>24.0</ns3:atemp>
          </ns3:TrackPointExtension>
        </extensions>
      </trkpt>
      <trkpt lat="42.5685756839811801910400390625" lon="20.03026418387889862060546875">
        <ele>2058</ele>
        <time>2026-06-15T13:43:21.000Z</time>
        <extensions>
          <ns3:TrackPointExtension>
            <ns3:atemp>24.0</ns3:atemp>
          </ns3:TrackPointExtension>
        </extensions>
      </trkpt>
      <trkpt lat="42.5685756839811801910400390625" lon="20.03026418387889862060546875">
        <ele>2058</ele>
        <time>2026-06-15T13:43:22.000Z</time>
        <extensions>
          <ns3:TrackPointExtension>
            <ns3:atemp>24.0</ns3:atemp>
          </ns3:TrackPointExtension>
        </extensions>
      </trkpt>
      <trkpt lat="42.5685756839811801910400390625" lon="20.03026418387889862060546875">
        <ele>2057.800048828125</ele>
        <time>2026-06-15T13:43:23.000Z</time>
        <extensions>
          <ns3:TrackPointExtension>
            <ns3:atemp>24.0</ns3:atemp>
          </ns3:TrackPointExtension>
        </extensions>
      </trkpt>
      <trkpt lat="42.5685756839811801910400390625" lon="20.03026418387889862060546875">
        <ele>2057.60009765625</ele>
        <time>2026-06-15T13:43:24.000Z</time>
        <extensions>
          <ns3:TrackPointExtension>
            <ns3:atemp>24.0</ns3:atemp>
          </ns3:TrackPointExtension>
        </extensions>
      </trkpt>
      <trkpt lat="42.5685756839811801910400390625" lon="20.03026418387889862060546875">
        <ele>2057.60009765625</ele>
        <time>2026-06-15T13:43:25.000Z</time>
        <extensions>
          <ns3:TrackPointExtension>
            <ns3:atemp>24.0</ns3:atemp>
          </ns3:TrackPointExtension>
        </extensions>
      </trkpt>
      <trkpt lat="42.5685756839811801910400390625" lon="20.03026418387889862060546875">
        <ele>2057.60009765625</ele>
        <time>2026-06-15T13:43:26.000Z</time>
        <extensions>
          <ns3:TrackPointExtension>
            <ns3:atemp>24.0</ns3:atemp>
          </ns3:TrackPointExtension>
        </extensions>
      </trkpt>
      <trkpt lat="42.5685756839811801910400390625" lon="20.03026418387889862060546875">
        <ele>2057.39990234375</ele>
        <time>2026-06-15T13:43:27.000Z</time>
        <extensions>
          <ns3:TrackPointExtension>
            <ns3:atemp>24.0</ns3:atemp>
          </ns3:TrackPointExtension>
        </extensions>
      </trkpt>
      <trkpt lat="42.5685756839811801910400390625" lon="20.03026418387889862060546875">
        <ele>2057.39990234375</ele>
        <time>2026-06-15T13:43:28.000Z</time>
        <extensions>
          <ns3:TrackPointExtension>
            <ns3:atemp>24.0</ns3:atemp>
          </ns3:TrackPointExtension>
        </extensions>
      </trkpt>
      <trkpt lat="42.5685756839811801910400390625" lon="20.03026418387889862060546875">
        <ele>2057.39990234375</ele>
        <time>2026-06-15T13:43:29.000Z</time>
        <extensions>
          <ns3:TrackPointExtension>
            <ns3:atemp>23.0</ns3:atemp>
          </ns3:TrackPointExtension>
        </extensions>
      </trkpt>
      <trkpt lat="42.5685756839811801910400390625" lon="20.03026418387889862060546875">
        <ele>2057.39990234375</ele>
        <time>2026-06-15T13:43:30.000Z</time>
        <extensions>
          <ns3:TrackPointExtension>
            <ns3:atemp>23.0</ns3:atemp>
          </ns3:TrackPointExtension>
        </extensions>
      </trkpt>
      <trkpt lat="42.5685756839811801910400390625" lon="20.03026418387889862060546875">
        <ele>2057.199951171875</ele>
        <time>2026-06-15T13:43:31.000Z</time>
        <extensions>
          <ns3:TrackPointExtension>
            <ns3:atemp>23.0</ns3:atemp>
          </ns3:TrackPointExtension>
        </extensions>
      </trkpt>
      <trkpt lat="42.5685756839811801910400390625" lon="20.03026418387889862060546875">
        <ele>2057.199951171875</ele>
        <time>2026-06-15T13:43:32.000Z</time>
        <extensions>
          <ns3:TrackPointExtension>
            <ns3:atemp>23.0</ns3:atemp>
          </ns3:TrackPointExtension>
        </extensions>
      </trkpt>
      <trkpt lat="42.5685756839811801910400390625" lon="20.03026418387889862060546875">
        <ele>2057.199951171875</ele>
        <time>2026-06-15T13:43:33.000Z</time>
        <extensions>
          <ns3:TrackPointExtension>
            <ns3:atemp>23.0</ns3:atemp>
          </ns3:TrackPointExtension>
        </extensions>
      </trkpt>
      <trkpt lat="42.5685756839811801910400390625" lon="20.03026418387889862060546875">
        <ele>2057.199951171875</ele>
        <time>2026-06-15T13:43:34.000Z</time>
        <extensions>
          <ns3:TrackPointExtension>
            <ns3:atemp>23.0</ns3:atemp>
          </ns3:TrackPointExtension>
        </extensions>
      </trkpt>
      <trkpt lat="42.5685756839811801910400390625" lon="20.03026418387889862060546875">
        <ele>2057</ele>
        <time>2026-06-15T13:43:35.000Z</time>
        <extensions>
          <ns3:TrackPointExtension>
            <ns3:atemp>23.0</ns3:atemp>
          </ns3:TrackPointExtension>
        </extensions>
      </trkpt>
      <trkpt lat="42.5685761868953704833984375" lon="20.03026275895535945892333984375">
        <ele>2057</ele>
        <time>2026-06-15T13:43:36.000Z</time>
        <extensions>
          <ns3:TrackPointExtension>
            <ns3:atemp>23.0</ns3:atemp>
          </ns3:TrackPointExtension>
        </extensions>
      </trkpt>
      <trkpt lat="42.5685820542275905609130859375" lon="20.030258484184741973876953125">
        <ele>2057</ele>
        <time>2026-06-15T13:43:37.000Z</time>
        <extensions>
          <ns3:TrackPointExtension>
            <ns3:atemp>23.0</ns3:atemp>
          </ns3:TrackPointExtension>
        </extensions>
      </trkpt>
      <trkpt lat="42.56858767010271549224853515625" lon="20.03025487996637821197509765625">
        <ele>2056.800048828125</ele>
        <time>2026-06-15T13:43:38.000Z</time>
        <extensions>
          <ns3:TrackPointExtension>
            <ns3:atemp>23.0</ns3:atemp>
          </ns3:TrackPointExtension>
        </extensions>
      </trkpt>
      <trkpt lat="42.56859152577817440032958984375" lon="20.03025077283382415771484375">
        <ele>2056.60009765625</ele>
        <time>2026-06-15T13:43:39.000Z</time>
        <extensions>
          <ns3:TrackPointExtension>
            <ns3:atemp>23.0</ns3:atemp>
          </ns3:TrackPointExtension>
        </extensions>
      </trkpt>
      <trkpt lat="42.56859160959720611572265625" lon="20.03025077283382415771484375">
        <ele>2056.60009765625</ele>
        <time>2026-06-15T13:43:40.000Z</time>
        <extensions>
          <ns3:TrackPointExtension>
            <ns3:atemp>23.0</ns3:atemp>
          </ns3:TrackPointExtension>
        </extensions>
      </trkpt>
      <trkpt lat="42.56859160959720611572265625" lon="20.03025077283382415771484375">
        <ele>2056.60009765625</ele>
        <time>2026-06-15T13:43:41.000Z</time>
        <extensions>
          <ns3:TrackPointExtension>
            <ns3:atemp>23.0</ns3:atemp>
          </ns3:TrackPointExtension>
        </extensions>
      </trkpt>
      <trkpt lat="42.56859160959720611572265625" lon="20.03025077283382415771484375">
        <ele>2056.60009765625</ele>
        <time>2026-06-15T13:43:42.000Z</time>
        <extensions>
          <ns3:TrackPointExtension>
            <ns3:atemp>23.0</ns3:atemp>
          </ns3:TrackPointExtension>
        </extensions>
      </trkpt>
      <trkpt lat="42.56859219633042812347412109375" lon="20.030251108109951019287109375">
        <ele>2056.60009765625</ele>
        <time>2026-06-15T13:43:43.000Z</time>
        <extensions>
          <ns3:TrackPointExtension>
            <ns3:atemp>23.0</ns3:atemp>
          </ns3:TrackPointExtension>
        </extensions>
      </trkpt>
      <trkpt lat="42.56859160959720611572265625" lon="20.03025077283382415771484375">
        <ele>2056.60009765625</ele>
        <time>2026-06-15T13:43:44.000Z</time>
        <extensions>
          <ns3:TrackPointExtension>
            <ns3:atemp>23.0</ns3:atemp>
          </ns3:TrackPointExtension>
        </extensions>
      </trkpt>
      <trkpt lat="42.56859160959720611572265625" lon="20.03025077283382415771484375">
        <ele>2056.60009765625</ele>
        <time>2026-06-15T13:43:45.000Z</time>
        <extensions>
          <ns3:TrackPointExtension>
            <ns3:atemp>23.0</ns3:atemp>
          </ns3:TrackPointExtension>
        </extensions>
      </trkpt>
      <trkpt lat="42.56859160959720611572265625" lon="20.03025077283382415771484375">
        <ele>2056.60009765625</ele>
        <time>2026-06-15T13:43:46.000Z</time>
        <extensions>
          <ns3:TrackPointExtension>
            <ns3:atemp>23.0</ns3:atemp>
          </ns3:TrackPointExtension>
        </extensions>
      </trkpt>
      <trkpt lat="42.56859160959720611572265625" lon="20.03025077283382415771484375">
        <ele>2056.60009765625</ele>
        <time>2026-06-15T13:43:47.000Z</time>
        <extensions>
          <ns3:TrackPointExtension>
            <ns3:atemp>23.0</ns3:atemp>
          </ns3:TrackPointExtension>
        </extensions>
      </trkpt>
      <trkpt lat="42.56859160959720611572265625" lon="20.03025077283382415771484375">
        <ele>2056.60009765625</ele>
        <time>2026-06-15T13:43:48.000Z</time>
        <extensions>
          <ns3:TrackPointExtension>
            <ns3:atemp>23.0</ns3:atemp>
          </ns3:TrackPointExtension>
        </extensions>
      </trkpt>
      <trkpt lat="42.56859160959720611572265625" lon="20.03025077283382415771484375">
        <ele>2056.60009765625</ele>
        <time>2026-06-15T13:43:49.000Z</time>
        <extensions>
          <ns3:TrackPointExtension>
            <ns3:atemp>23.0</ns3:atemp>
          </ns3:TrackPointExtension>
        </extensions>
      </trkpt>
      <trkpt lat="42.56859160959720611572265625" lon="20.03025077283382415771484375">
        <ele>2056.60009765625</ele>
        <time>2026-06-15T13:43:50.000Z</time>
        <extensions>
          <ns3:TrackPointExtension>
            <ns3:atemp>23.0</ns3:atemp>
          </ns3:TrackPointExtension>
        </extensions>
      </trkpt>
      <trkpt lat="42.56859160959720611572265625" lon="20.03025077283382415771484375">
        <ele>2056.60009765625</ele>
        <time>2026-06-15T13:43:51.000Z</time>
        <extensions>
          <ns3:TrackPointExtension>
            <ns3:atemp>23.0</ns3:atemp>
          </ns3:TrackPointExtension>
        </extensions>
      </trkpt>
      <trkpt lat="42.56859160959720611572265625" lon="20.03025077283382415771484375">
        <ele>2056.60009765625</ele>
        <time>2026-06-15T13:43:52.000Z</time>
        <extensions>
          <ns3:TrackPointExtension>
            <ns3:atemp>23.0</ns3:atemp>
          </ns3:TrackPointExtension>
        </extensions>
      </trkpt>
      <trkpt lat="42.56859160959720611572265625" lon="20.03025077283382415771484375">
        <ele>2056.39990234375</ele>
        <time>2026-06-15T13:43:53.000Z</time>
        <extensions>
          <ns3:TrackPointExtension>
            <ns3:atemp>23.0</ns3:atemp>
          </ns3:TrackPointExtension>
        </extensions>
      </trkpt>
      <trkpt lat="42.56859160959720611572265625" lon="20.03025077283382415771484375">
        <ele>2056.39990234375</ele>
        <time>2026-06-15T13:43:54.000Z</time>
        <extensions>
          <ns3:TrackPointExtension>
            <ns3:atemp>23.0</ns3:atemp>
          </ns3:TrackPointExtension>
        </extensions>
      </trkpt>
      <trkpt lat="42.56860074587166309356689453125" lon="20.03025211393833160400390625">
        <ele>2056.39990234375</ele>
        <time>2026-06-15T13:43:55.000Z</time>
        <extensions>
          <ns3:TrackPointExtension>
            <ns3:atemp>23.0</ns3:atemp>
          </ns3:TrackPointExtension>
        </extensions>
      </trkpt>
      <trkpt lat="42.56861549802124500274658203125" lon="20.030248425900936126708984375">
        <ele>2056.199951171875</ele>
        <time>2026-06-15T13:43:56.000Z</time>
        <extensions>
          <ns3:TrackPointExtension>
            <ns3:atemp>23.0</ns3:atemp>
          </ns3:TrackPointExtension>
        </extensions>
      </trkpt>
      <trkpt lat="42.568612396717071533203125" lon="20.03023090772330760955810546875">
        <ele>2056</ele>
        <time>2026-06-15T13:43:57.000Z</time>
        <extensions>
          <ns3:TrackPointExtension>
            <ns3:atemp>23.0</ns3:atemp>
          </ns3:TrackPointExtension>
        </extensions>
      </trkpt>
      <trkpt lat="42.56860778667032718658447265625" lon="20.0302140600979328155517578125">
        <ele>2055.800048828125</ele>
        <time>2026-06-15T13:43:58.000Z</time>
        <extensions>
          <ns3:TrackPointExtension>
            <ns3:atemp>23.0</ns3:atemp>
          </ns3:TrackPointExtension>
        </extensions>
      </trkpt>
      <trkpt lat="42.56859202869236469268798828125" lon="20.03019955940544605255126953125">
        <ele>2055.800048828125</ele>
        <time>2026-06-15T13:43:59.000Z</time>
        <extensions>
          <ns3:TrackPointExtension>
            <ns3:atemp>23.0</ns3:atemp>
          </ns3:TrackPointExtension>
        </extensions>
      </trkpt>
      <trkpt lat="42.56858046166598796844482421875" lon="20.0302110426127910614013671875">
        <ele>2055.800048828125</ele>
        <time>2026-06-15T13:44:00.000Z</time>
        <extensions>
          <ns3:TrackPointExtension>
            <ns3:atemp>23.0</ns3:atemp>
          </ns3:TrackPointExtension>
        </extensions>
      </trkpt>
      <trkpt lat="42.56857325322926044464111328125" lon="20.03022369928658008575439453125">
        <ele>2055.800048828125</ele>
        <time>2026-06-15T13:44:01.000Z</time>
        <extensions>
          <ns3:TrackPointExtension>
            <ns3:atemp>23.0</ns3:atemp>
          </ns3:TrackPointExtension>
        </extensions>
      </trkpt>
      <trkpt lat="42.568562440574169158935546875" lon="20.0302321650087833404541015625">
        <ele>2056</ele>
        <time>2026-06-15T13:44:02.000Z</time>
        <extensions>
          <ns3:TrackPointExtension>
            <ns3:atemp>23.0</ns3:atemp>
          </ns3:TrackPointExtension>
        </extensions>
      </trkpt>
      <trkpt lat="42.56854827515780925750732421875" lon="20.03023962490260601043701171875">
        <ele>2056</ele>
        <time>2026-06-15T13:44:03.000Z</time>
        <extensions>
          <ns3:TrackPointExtension>
            <ns3:atemp>23.0</ns3:atemp>
          </ns3:TrackPointExtension>
        </extensions>
      </trkpt>
      <trkpt lat="42.56853788159787654876708984375" lon="20.030244402587413787841796875">
        <ele>2056.199951171875</ele>
        <time>2026-06-15T13:44:04.000Z</time>
        <extensions>
          <ns3:TrackPointExtension>
            <ns3:atemp>23.0</ns3:atemp>
          </ns3:TrackPointExtension>
        </extensions>
      </trkpt>
      <trkpt lat="42.5685294158756732940673828125" lon="20.03024431876838207244873046875">
        <ele>2056.199951171875</ele>
        <time>2026-06-15T13:44:05.000Z</time>
        <extensions>
          <ns3:TrackPointExtension>
            <ns3:atemp>23.0</ns3:atemp>
          </ns3:TrackPointExtension>
        </extensions>
      </trkpt>
      <trkpt lat="42.56851893849670886993408203125" lon="20.03024264238774776458740234375">
        <ele>2056.39990234375</ele>
        <time>2026-06-15T13:44:06.000Z</time>
        <extensions>
          <ns3:TrackPointExtension>
            <ns3:atemp>23.0</ns3:atemp>
          </ns3:TrackPointExtension>
        </extensions>
      </trkpt>
      <trkpt lat="42.568506784737110137939453125" lon="20.03023895435035228729248046875">
        <ele>2056.39990234375</ele>
        <time>2026-06-15T13:44:07.000Z</time>
        <extensions>
          <ns3:TrackPointExtension>
            <ns3:atemp>23.0</ns3:atemp>
          </ns3:TrackPointExtension>
        </extensions>
      </trkpt>
      <trkpt lat="42.56849639117717742919921875" lon="20.03024700097739696502685546875">
        <ele>2056.60009765625</ele>
        <time>2026-06-15T13:44:08.000Z</time>
        <extensions>
          <ns3:TrackPointExtension>
            <ns3:atemp>23.0</ns3:atemp>
          </ns3:TrackPointExtension>
        </extensions>
      </trkpt>
      <trkpt lat="42.56848490796983242034912109375" lon="20.03026016056537628173828125">
        <ele>2056.60009765625</ele>
        <time>2026-06-15T13:44:09.000Z</time>
        <extensions>
          <ns3:TrackPointExtension>
            <ns3:atemp>23.0</ns3:atemp>
          </ns3:TrackPointExtension>
        </extensions>
      </trkpt>
      <trkpt lat="42.5684834830462932586669921875" lon="20.0302797742187976837158203125">
        <ele>2056.800048828125</ele>
        <time>2026-06-15T13:44:10.000Z</time>
        <extensions>
          <ns3:TrackPointExtension>
            <ns3:atemp>23.0</ns3:atemp>
          </ns3:TrackPointExtension>
        </extensions>
      </trkpt>
      <trkpt lat="42.56848809309303760528564453125" lon="20.030297376215457916259765625">
        <ele>2056.800048828125</ele>
        <time>2026-06-15T13:44:11.000Z</time>
        <extensions>
          <ns3:TrackPointExtension>
            <ns3:atemp>23.0</ns3:atemp>
          </ns3:TrackPointExtension>
        </extensions>
      </trkpt>
      <trkpt lat="42.56849429570138454437255859375" lon="20.0302983820438385009765625">
        <ele>2057</ele>
        <time>2026-06-15T13:44:12.000Z</time>
        <extensions>
          <ns3:TrackPointExtension>
            <ns3:atemp>23.0</ns3:atemp>
          </ns3:TrackPointExtension>
        </extensions>
      </trkpt>
      <trkpt lat="42.5685035996139049530029296875" lon="20.03029905259609222412109375">
        <ele>2057</ele>
        <time>2026-06-15T13:44:13.000Z</time>
        <extensions>
          <ns3:TrackPointExtension>
            <ns3:atemp>23.0</ns3:atemp>
          </ns3:TrackPointExtension>
        </extensions>
      </trkpt>
      <trkpt lat="42.56850670091807842254638671875" lon="20.03030399791896343231201171875">
        <ele>2057.199951171875</ele>
        <time>2026-06-15T13:44:14.000Z</time>
        <extensions>
          <ns3:TrackPointExtension>
            <ns3:atemp>23.0</ns3:atemp>
          </ns3:TrackPointExtension>
        </extensions>
      </trkpt>
      <trkpt lat="42.56850577890872955322265625" lon="20.03030550666153430938720703125">
        <ele>2057.39990234375</ele>
        <time>2026-06-15T13:44:15.000Z</time>
        <extensions>
          <ns3:TrackPointExtension>
            <ns3:atemp>23.0</ns3:atemp>
          </ns3:TrackPointExtension>
        </extensions>
      </trkpt>
      <trkpt lat="42.56850577890872955322265625" lon="20.03030550666153430938720703125">
        <ele>2057.39990234375</ele>
        <time>2026-06-15T13:44:16.000Z</time>
        <extensions>
          <ns3:TrackPointExtension>
            <ns3:atemp>23.0</ns3:atemp>
          </ns3:TrackPointExtension>
        </extensions>
      </trkpt>
      <trkpt lat="42.56850577890872955322265625" lon="20.03030550666153430938720703125">
        <ele>2057.39990234375</ele>
        <time>2026-06-15T13:44:17.000Z</time>
        <extensions>
          <ns3:TrackPointExtension>
            <ns3:atemp>23.0</ns3:atemp>
          </ns3:TrackPointExtension>
        </extensions>
      </trkpt>
      <trkpt lat="42.56850577890872955322265625" lon="20.03030550666153430938720703125">
        <ele>2057.39990234375</ele>
        <time>2026-06-15T13:44:18.000Z</time>
        <extensions>
          <ns3:TrackPointExtension>
            <ns3:atemp>23.0</ns3:atemp>
          </ns3:TrackPointExtension>
        </extensions>
      </trkpt>
      <trkpt lat="42.56850577890872955322265625" lon="20.03030550666153430938720703125">
        <ele>2057.60009765625</ele>
        <time>2026-06-15T13:44:19.000Z</time>
        <extensions>
          <ns3:TrackPointExtension>
            <ns3:atemp>23.0</ns3:atemp>
          </ns3:TrackPointExtension>
        </extensions>
      </trkpt>
      <trkpt lat="42.56850577890872955322265625" lon="20.03030550666153430938720703125">
        <ele>2057.60009765625</ele>
        <time>2026-06-15T13:44:20.000Z</time>
        <extensions>
          <ns3:TrackPointExtension>
            <ns3:atemp>23.0</ns3:atemp>
          </ns3:TrackPointExtension>
        </extensions>
      </trkpt>
      <trkpt lat="42.56850577890872955322265625" lon="20.03030550666153430938720703125">
        <ele>2057.39990234375</ele>
        <time>2026-06-15T13:44:21.000Z</time>
        <extensions>
          <ns3:TrackPointExtension>
            <ns3:atemp>23.0</ns3:atemp>
          </ns3:TrackPointExtension>
        </extensions>
      </trkpt>
      <trkpt lat="42.56850577890872955322265625" lon="20.03030550666153430938720703125">
        <ele>2057.39990234375</ele>
        <time>2026-06-15T13:44:22.000Z</time>
        <extensions>
          <ns3:TrackPointExtension>
            <ns3:atemp>23.0</ns3:atemp>
          </ns3:TrackPointExtension>
        </extensions>
      </trkpt>
      <trkpt lat="42.56850577890872955322265625" lon="20.03030550666153430938720703125">
        <ele>2057.39990234375</ele>
        <time>2026-06-15T13:44:23.000Z</time>
        <extensions>
          <ns3:TrackPointExtension>
            <ns3:atemp>23.0</ns3:atemp>
          </ns3:TrackPointExtension>
        </extensions>
      </trkpt>
      <trkpt lat="42.56850577890872955322265625" lon="20.03030550666153430938720703125">
        <ele>2057.39990234375</ele>
        <time>2026-06-15T13:44:24.000Z</time>
        <extensions>
          <ns3:TrackPointExtension>
            <ns3:atemp>23.0</ns3:atemp>
          </ns3:TrackPointExtension>
        </extensions>
      </trkpt>
      <trkpt lat="42.56850577890872955322265625" lon="20.03030550666153430938720703125">
        <ele>2057.199951171875</ele>
        <time>2026-06-15T13:44:25.000Z</time>
        <extensions>
          <ns3:TrackPointExtension>
            <ns3:atemp>23.0</ns3:atemp>
          </ns3:TrackPointExtension>
        </extensions>
      </trkpt>
      <trkpt lat="42.56850577890872955322265625" lon="20.03030550666153430938720703125">
        <ele>2057.199951171875</ele>
        <time>2026-06-15T13:44:26.000Z</time>
        <extensions>
          <ns3:TrackPointExtension>
            <ns3:atemp>23.0</ns3:atemp>
          </ns3:TrackPointExtension>
        </extensions>
      </trkpt>
      <trkpt lat="42.56850577890872955322265625" lon="20.03030550666153430938720703125">
        <ele>2057.199951171875</ele>
        <time>2026-06-15T13:44:27.000Z</time>
        <extensions>
          <ns3:TrackPointExtension>
            <ns3:atemp>23.0</ns3:atemp>
          </ns3:TrackPointExtension>
        </extensions>
      </trkpt>
      <trkpt lat="42.56850577890872955322265625" lon="20.03030550666153430938720703125">
        <ele>2057.199951171875</ele>
        <time>2026-06-15T13:44:28.000Z</time>
        <extensions>
          <ns3:TrackPointExtension>
            <ns3:atemp>23.0</ns3:atemp>
          </ns3:TrackPointExtension>
        </extensions>
      </trkpt>
      <trkpt lat="42.56850577890872955322265625" lon="20.03030550666153430938720703125">
        <ele>2057.199951171875</ele>
        <time>2026-06-15T13:44:29.000Z</time>
        <extensions>
          <ns3:TrackPointExtension>
            <ns3:atemp>23.0</ns3:atemp>
          </ns3:TrackPointExtension>
        </extensions>
      </trkpt>
      <trkpt lat="42.56850577890872955322265625" lon="20.03030550666153430938720703125">
        <ele>2057.199951171875</ele>
        <time>2026-06-15T13:44:30.000Z</time>
        <extensions>
          <ns3:TrackPointExtension>
            <ns3:atemp>23.0</ns3:atemp>
          </ns3:TrackPointExtension>
        </extensions>
      </trkpt>
      <trkpt lat="42.56850577890872955322265625" lon="20.03030550666153430938720703125">
        <ele>2057.199951171875</ele>
        <time>2026-06-15T13:44:31.000Z</time>
        <extensions>
          <ns3:TrackPointExtension>
            <ns3:atemp>23.0</ns3:atemp>
          </ns3:TrackPointExtension>
        </extensions>
      </trkpt>
      <trkpt lat="42.56850577890872955322265625" lon="20.03030550666153430938720703125">
        <ele>2057.199951171875</ele>
        <time>2026-06-15T13:44:32.000Z</time>
        <extensions>
          <ns3:TrackPointExtension>
            <ns3:atemp>23.0</ns3:atemp>
          </ns3:TrackPointExtension>
        </extensions>
      </trkpt>
      <trkpt lat="42.56850577890872955322265625" lon="20.03030550666153430938720703125">
        <ele>2057.199951171875</ele>
        <time>2026-06-15T13:44:33.000Z</time>
        <extensions>
          <ns3:TrackPointExtension>
            <ns3:atemp>23.0</ns3:atemp>
          </ns3:TrackPointExtension>
        </extensions>
      </trkpt>
      <trkpt lat="42.56850577890872955322265625" lon="20.03030550666153430938720703125">
        <ele>2057.199951171875</ele>
        <time>2026-06-15T13:44:34.000Z</time>
        <extensions>
          <ns3:TrackPointExtension>
            <ns3:atemp>23.0</ns3:atemp>
          </ns3:TrackPointExtension>
        </extensions>
      </trkpt>
      <trkpt lat="42.56850577890872955322265625" lon="20.03030550666153430938720703125">
        <ele>2057</ele>
        <time>2026-06-15T13:44:35.000Z</time>
        <extensions>
          <ns3:TrackPointExtension>
            <ns3:atemp>23.0</ns3:atemp>
          </ns3:TrackPointExtension>
        </extensions>
      </trkpt>
      <trkpt lat="42.56850577890872955322265625" lon="20.03030550666153430938720703125">
        <ele>2057</ele>
        <time>2026-06-15T13:44:36.000Z</time>
        <extensions>
          <ns3:TrackPointExtension>
            <ns3:atemp>23.0</ns3:atemp>
          </ns3:TrackPointExtension>
        </extensions>
      </trkpt>
      <trkpt lat="42.56850577890872955322265625" lon="20.03030550666153430938720703125">
        <ele>2057</ele>
        <time>2026-06-15T13:44:37.000Z</time>
        <extensions>
          <ns3:TrackPointExtension>
            <ns3:atemp>23.0</ns3:atemp>
          </ns3:TrackPointExtension>
        </extensions>
      </trkpt>
      <trkpt lat="42.56850577890872955322265625" lon="20.03030550666153430938720703125">
        <ele>2057</ele>
        <time>2026-06-15T13:44:38.000Z</time>
        <extensions>
          <ns3:TrackPointExtension>
            <ns3:atemp>23.0</ns3:atemp>
          </ns3:TrackPointExtension>
        </extensions>
      </trkpt>
      <trkpt lat="42.56850577890872955322265625" lon="20.03030550666153430938720703125">
        <ele>2057</ele>
        <time>2026-06-15T13:44:39.000Z</time>
        <extensions>
          <ns3:TrackPointExtension>
            <ns3:atemp>23.0</ns3:atemp>
          </ns3:TrackPointExtension>
        </extensions>
      </trkpt>
      <trkpt lat="42.56850577890872955322265625" lon="20.03030550666153430938720703125">
        <ele>2057.199951171875</ele>
        <time>2026-06-15T13:44:40.000Z</time>
        <extensions>
          <ns3:TrackPointExtension>
            <ns3:atemp>23.0</ns3:atemp>
          </ns3:TrackPointExtension>
        </extensions>
      </trkpt>
      <trkpt lat="42.56850577890872955322265625" lon="20.03030550666153430938720703125">
        <ele>2057.199951171875</ele>
        <time>2026-06-15T13:44:41.000Z</time>
        <extensions>
          <ns3:TrackPointExtension>
            <ns3:atemp>23.0</ns3:atemp>
          </ns3:TrackPointExtension>
        </extensions>
      </trkpt>
      <trkpt lat="42.56850577890872955322265625" lon="20.03030550666153430938720703125">
        <ele>2057.199951171875</ele>
        <time>2026-06-15T13:44:42.000Z</time>
        <extensions>
          <ns3:TrackPointExtension>
            <ns3:atemp>23.0</ns3:atemp>
          </ns3:TrackPointExtension>
        </extensions>
      </trkpt>
      <trkpt lat="42.56850577890872955322265625" lon="20.03030550666153430938720703125">
        <ele>2057.199951171875</ele>
        <time>2026-06-15T13:44:43.000Z</time>
        <extensions>
          <ns3:TrackPointExtension>
            <ns3:atemp>23.0</ns3:atemp>
          </ns3:TrackPointExtension>
        </extensions>
      </trkpt>
      <trkpt lat="42.56850577890872955322265625" lon="20.03030550666153430938720703125">
        <ele>2057.199951171875</ele>
        <time>2026-06-15T13:44:44.000Z</time>
        <extensions>
          <ns3:TrackPointExtension>
            <ns3:atemp>23.0</ns3:atemp>
          </ns3:TrackPointExtension>
        </extensions>
      </trkpt>
      <trkpt lat="42.56850577890872955322265625" lon="20.03030550666153430938720703125">
        <ele>2057.199951171875</ele>
        <time>2026-06-15T13:44:45.000Z</time>
        <extensions>
          <ns3:TrackPointExtension>
            <ns3:atemp>23.0</ns3:atemp>
          </ns3:TrackPointExtension>
        </extensions>
      </trkpt>
      <trkpt lat="42.56850577890872955322265625" lon="20.03030550666153430938720703125">
        <ele>2057.199951171875</ele>
        <time>2026-06-15T13:44:46.000Z</time>
        <extensions>
          <ns3:TrackPointExtension>
            <ns3:atemp>23.0</ns3:atemp>
          </ns3:TrackPointExtension>
        </extensions>
      </trkpt>
      <trkpt lat="42.56850577890872955322265625" lon="20.03030550666153430938720703125">
        <ele>2057.199951171875</ele>
        <time>2026-06-15T13:44:47.000Z</time>
        <extensions>
          <ns3:TrackPointExtension>
            <ns3:atemp>23.0</ns3:atemp>
          </ns3:TrackPointExtension>
        </extensions>
      </trkpt>
      <trkpt lat="42.56850577890872955322265625" lon="20.03030550666153430938720703125">
        <ele>2057.199951171875</ele>
        <time>2026-06-15T13:44:48.000Z</time>
        <extensions>
          <ns3:TrackPointExtension>
            <ns3:atemp>23.0</ns3:atemp>
          </ns3:TrackPointExtension>
        </extensions>
      </trkpt>
      <trkpt lat="42.56850577890872955322265625" lon="20.03030550666153430938720703125">
        <ele>2057.199951171875</ele>
        <time>2026-06-15T13:44:49.000Z</time>
        <extensions>
          <ns3:TrackPointExtension>
            <ns3:atemp>23.0</ns3:atemp>
          </ns3:TrackPointExtension>
        </extensions>
      </trkpt>
      <trkpt lat="42.56850577890872955322265625" lon="20.03030550666153430938720703125">
        <ele>2057.199951171875</ele>
        <time>2026-06-15T13:44:50.000Z</time>
        <extensions>
          <ns3:TrackPointExtension>
            <ns3:atemp>23.0</ns3:atemp>
          </ns3:TrackPointExtension>
        </extensions>
      </trkpt>
      <trkpt lat="42.56850577890872955322265625" lon="20.03030550666153430938720703125">
        <ele>2057.199951171875</ele>
        <time>2026-06-15T13:44:51.000Z</time>
        <extensions>
          <ns3:TrackPointExtension>
            <ns3:atemp>23.0</ns3:atemp>
          </ns3:TrackPointExtension>
        </extensions>
      </trkpt>
      <trkpt lat="42.56850577890872955322265625" lon="20.03030550666153430938720703125">
        <ele>2057.199951171875</ele>
        <time>2026-06-15T13:44:52.000Z</time>
        <extensions>
          <ns3:TrackPointExtension>
            <ns3:atemp>23.0</ns3:atemp>
          </ns3:TrackPointExtension>
        </extensions>
      </trkpt>
      <trkpt lat="42.56850577890872955322265625" lon="20.03030550666153430938720703125">
        <ele>2057.199951171875</ele>
        <time>2026-06-15T13:44:53.000Z</time>
        <extensions>
          <ns3:TrackPointExtension>
            <ns3:atemp>23.0</ns3:atemp>
          </ns3:TrackPointExtension>
        </extensions>
      </trkpt>
      <trkpt lat="42.56850577890872955322265625" lon="20.03030550666153430938720703125">
        <ele>2057.199951171875</ele>
        <time>2026-06-15T13:44:54.000Z</time>
        <extensions>
          <ns3:TrackPointExtension>
            <ns3:atemp>23.0</ns3:atemp>
          </ns3:TrackPointExtension>
        </extensions>
      </trkpt>
      <trkpt lat="42.56850577890872955322265625" lon="20.03030550666153430938720703125">
        <ele>2057.199951171875</ele>
        <time>2026-06-15T13:44:55.000Z</time>
        <extensions>
          <ns3:TrackPointExtension>
            <ns3:atemp>23.0</ns3:atemp>
          </ns3:TrackPointExtension>
        </extensions>
      </trkpt>
      <trkpt lat="42.56850577890872955322265625" lon="20.03030550666153430938720703125">
        <ele>2057</ele>
        <time>2026-06-15T13:44:56.000Z</time>
        <extensions>
          <ns3:TrackPointExtension>
            <ns3:atemp>23.0</ns3:atemp>
          </ns3:TrackPointExtension>
        </extensions>
      </trkpt>
      <trkpt lat="42.56850577890872955322265625" lon="20.03030550666153430938720703125">
        <ele>2057</ele>
        <time>2026-06-15T13:44:57.000Z</time>
        <extensions>
          <ns3:TrackPointExtension>
            <ns3:atemp>23.0</ns3:atemp>
          </ns3:TrackPointExtension>
        </extensions>
      </trkpt>
      <trkpt lat="42.56850577890872955322265625" lon="20.03030550666153430938720703125">
        <ele>2057</ele>
        <time>2026-06-15T13:44:58.000Z</time>
        <extensions>
          <ns3:TrackPointExtension>
            <ns3:atemp>23.0</ns3:atemp>
          </ns3:TrackPointExtension>
        </extensions>
      </trkpt>
      <trkpt lat="42.56850577890872955322265625" lon="20.03030550666153430938720703125">
        <ele>2057</ele>
        <time>2026-06-15T13:44:59.000Z</time>
        <extensions>
          <ns3:TrackPointExtension>
            <ns3:atemp>23.0</ns3:atemp>
          </ns3:TrackPointExtension>
        </extensions>
      </trkpt>
      <trkpt lat="42.56850577890872955322265625" lon="20.03030550666153430938720703125">
        <ele>2057</ele>
        <time>2026-06-15T13:45:00.000Z</time>
        <extensions>
          <ns3:TrackPointExtension>
            <ns3:atemp>23.0</ns3:atemp>
          </ns3:TrackPointExtension>
        </extensions>
      </trkpt>
      <trkpt lat="42.56850577890872955322265625" lon="20.03030550666153430938720703125">
        <ele>2057</ele>
        <time>2026-06-15T13:45:01.000Z</time>
        <extensions>
          <ns3:TrackPointExtension>
            <ns3:atemp>23.0</ns3:atemp>
          </ns3:TrackPointExtension>
        </extensions>
      </trkpt>
      <trkpt lat="42.56850577890872955322265625" lon="20.03030550666153430938720703125">
        <ele>2057</ele>
        <time>2026-06-15T13:45:02.000Z</time>
        <extensions>
          <ns3:TrackPointExtension>
            <ns3:atemp>23.0</ns3:atemp>
          </ns3:TrackPointExtension>
        </extensions>
      </trkpt>
      <trkpt lat="42.56850577890872955322265625" lon="20.03030550666153430938720703125">
        <ele>2057</ele>
        <time>2026-06-15T13:45:03.000Z</time>
        <extensions>
          <ns3:TrackPointExtension>
            <ns3:atemp>23.0</ns3:atemp>
          </ns3:TrackPointExtension>
        </extensions>
      </trkpt>
      <trkpt lat="42.56850577890872955322265625" lon="20.03030550666153430938720703125">
        <ele>2056.800048828125</ele>
        <time>2026-06-15T13:45:04.000Z</time>
        <extensions>
          <ns3:TrackPointExtension>
            <ns3:atemp>23.0</ns3:atemp>
          </ns3:TrackPointExtension>
        </extensions>
      </trkpt>
      <trkpt lat="42.56850577890872955322265625" lon="20.03030550666153430938720703125">
        <ele>2056.800048828125</ele>
        <time>2026-06-15T13:45:05.000Z</time>
        <extensions>
          <ns3:TrackPointExtension>
            <ns3:atemp>23.0</ns3:atemp>
          </ns3:TrackPointExtension>
        </extensions>
      </trkpt>
      <trkpt lat="42.56850577890872955322265625" lon="20.03030550666153430938720703125">
        <ele>2056.800048828125</ele>
        <time>2026-06-15T13:45:06.000Z</time>
        <extensions>
          <ns3:TrackPointExtension>
            <ns3:atemp>23.0</ns3:atemp>
          </ns3:TrackPointExtension>
        </extensions>
      </trkpt>
      <trkpt lat="42.56850577890872955322265625" lon="20.03030550666153430938720703125">
        <ele>2056.800048828125</ele>
        <time>2026-06-15T13:45:07.000Z</time>
        <extensions>
          <ns3:TrackPointExtension>
            <ns3:atemp>23.0</ns3:atemp>
          </ns3:TrackPointExtension>
        </extensions>
      </trkpt>
      <trkpt lat="42.56850577890872955322265625" lon="20.03030550666153430938720703125">
        <ele>2056.800048828125</ele>
        <time>2026-06-15T13:45:08.000Z</time>
        <extensions>
          <ns3:TrackPointExtension>
            <ns3:atemp>23.0</ns3:atemp>
          </ns3:TrackPointExtension>
        </extensions>
      </trkpt>
      <trkpt lat="42.56850577890872955322265625" lon="20.03030550666153430938720703125">
        <ele>2056.60009765625</ele>
        <time>2026-06-15T13:45:09.000Z</time>
        <extensions>
          <ns3:TrackPointExtension>
            <ns3:atemp>23.0</ns3:atemp>
          </ns3:TrackPointExtension>
        </extensions>
      </trkpt>
      <trkpt lat="42.56850577890872955322265625" lon="20.03030550666153430938720703125">
        <ele>2056.60009765625</ele>
        <time>2026-06-15T13:45:10.000Z</time>
        <extensions>
          <ns3:TrackPointExtension>
            <ns3:atemp>23.0</ns3:atemp>
          </ns3:TrackPointExtension>
        </extensions>
      </trkpt>
      <trkpt lat="42.56850577890872955322265625" lon="20.03030550666153430938720703125">
        <ele>2056.60009765625</ele>
        <time>2026-06-15T13:45:11.000Z</time>
        <extensions>
          <ns3:TrackPointExtension>
            <ns3:atemp>23.0</ns3:atemp>
          </ns3:TrackPointExtension>
        </extensions>
      </trkpt>
      <trkpt lat="42.56850577890872955322265625" lon="20.03030550666153430938720703125">
        <ele>2056.60009765625</ele>
        <time>2026-06-15T13:45:12.000Z</time>
        <extensions>
          <ns3:TrackPointExtension>
            <ns3:atemp>23.0</ns3:atemp>
          </ns3:TrackPointExtension>
        </extensions>
      </trkpt>
      <trkpt lat="42.56850577890872955322265625" lon="20.03030550666153430938720703125">
        <ele>2056.60009765625</ele>
        <time>2026-06-15T13:45:13.000Z</time>
        <extensions>
          <ns3:TrackPointExtension>
            <ns3:atemp>23.0</ns3:atemp>
          </ns3:TrackPointExtension>
        </extensions>
      </trkpt>
      <trkpt lat="42.56850577890872955322265625" lon="20.03030550666153430938720703125">
        <ele>2056.60009765625</ele>
        <time>2026-06-15T13:45:14.000Z</time>
        <extensions>
          <ns3:TrackPointExtension>
            <ns3:atemp>23.0</ns3:atemp>
          </ns3:TrackPointExtension>
        </extensions>
      </trkpt>
      <trkpt lat="42.56850577890872955322265625" lon="20.03030550666153430938720703125">
        <ele>2056.60009765625</ele>
        <time>2026-06-15T13:45:15.000Z</time>
        <extensions>
          <ns3:TrackPointExtension>
            <ns3:atemp>23.0</ns3:atemp>
          </ns3:TrackPointExtension>
        </extensions>
      </trkpt>
      <trkpt lat="42.56850577890872955322265625" lon="20.03030550666153430938720703125">
        <ele>2056.60009765625</ele>
        <time>2026-06-15T13:45:16.000Z</time>
        <extensions>
          <ns3:TrackPointExtension>
            <ns3:atemp>23.0</ns3:atemp>
          </ns3:TrackPointExtension>
        </extensions>
      </trkpt>
      <trkpt lat="42.56850577890872955322265625" lon="20.03030550666153430938720703125">
        <ele>2056.60009765625</ele>
        <time>2026-06-15T13:45:17.000Z</time>
        <extensions>
          <ns3:TrackPointExtension>
            <ns3:atemp>23.0</ns3:atemp>
          </ns3:TrackPointExtension>
        </extensions>
      </trkpt>
      <trkpt lat="42.56850577890872955322265625" lon="20.03030550666153430938720703125">
        <ele>2056.60009765625</ele>
        <time>2026-06-15T13:45:18.000Z</time>
        <extensions>
          <ns3:TrackPointExtension>
            <ns3:atemp>23.0</ns3:atemp>
          </ns3:TrackPointExtension>
        </extensions>
      </trkpt>
      <trkpt lat="42.56850577890872955322265625" lon="20.03030550666153430938720703125">
        <ele>2056.60009765625</ele>
        <time>2026-06-15T13:45:19.000Z</time>
        <extensions>
          <ns3:TrackPointExtension>
            <ns3:atemp>23.0</ns3:atemp>
          </ns3:TrackPointExtension>
        </extensions>
      </trkpt>
      <trkpt lat="42.56850577890872955322265625" lon="20.03030550666153430938720703125">
        <ele>2056.60009765625</ele>
        <time>2026-06-15T13:45:20.000Z</time>
        <extensions>
          <ns3:TrackPointExtension>
            <ns3:atemp>23.0</ns3:atemp>
          </ns3:TrackPointExtension>
        </extensions>
      </trkpt>
      <trkpt lat="42.56850577890872955322265625" lon="20.03030550666153430938720703125">
        <ele>2056.60009765625</ele>
        <time>2026-06-15T13:45:21.000Z</time>
        <extensions>
          <ns3:TrackPointExtension>
            <ns3:atemp>23.0</ns3:atemp>
          </ns3:TrackPointExtension>
        </extensions>
      </trkpt>
      <trkpt lat="42.56850577890872955322265625" lon="20.03030550666153430938720703125">
        <ele>2056.39990234375</ele>
        <time>2026-06-15T13:45:22.000Z</time>
        <extensions>
          <ns3:TrackPointExtension>
            <ns3:atemp>23.0</ns3:atemp>
          </ns3:TrackPointExtension>
        </extensions>
      </trkpt>
      <trkpt lat="42.56850577890872955322265625" lon="20.03030550666153430938720703125">
        <ele>2056.39990234375</ele>
        <time>2026-06-15T13:45:23.000Z</time>
        <extensions>
          <ns3:TrackPointExtension>
            <ns3:atemp>23.0</ns3:atemp>
          </ns3:TrackPointExtension>
        </extensions>
      </trkpt>
      <trkpt lat="42.56850577890872955322265625" lon="20.03030550666153430938720703125">
        <ele>2056.39990234375</ele>
        <time>2026-06-15T13:45:24.000Z</time>
        <extensions>
          <ns3:TrackPointExtension>
            <ns3:atemp>23.0</ns3:atemp>
          </ns3:TrackPointExtension>
        </extensions>
      </trkpt>
      <trkpt lat="42.56850577890872955322265625" lon="20.03030550666153430938720703125">
        <ele>2056.39990234375</ele>
        <time>2026-06-15T13:45:25.000Z</time>
        <extensions>
          <ns3:TrackPointExtension>
            <ns3:atemp>23.0</ns3:atemp>
          </ns3:TrackPointExtension>
        </extensions>
      </trkpt>
      <trkpt lat="42.56850577890872955322265625" lon="20.03030550666153430938720703125">
        <ele>2056.39990234375</ele>
        <time>2026-06-15T13:45:26.000Z</time>
        <extensions>
          <ns3:TrackPointExtension>
            <ns3:atemp>23.0</ns3:atemp>
          </ns3:TrackPointExtension>
        </extensions>
      </trkpt>
      <trkpt lat="42.56850577890872955322265625" lon="20.03030550666153430938720703125">
        <ele>2056.39990234375</ele>
        <time>2026-06-15T13:45:27.000Z</time>
        <extensions>
          <ns3:TrackPointExtension>
            <ns3:atemp>23.0</ns3:atemp>
          </ns3:TrackPointExtension>
        </extensions>
      </trkpt>
      <trkpt lat="42.56850577890872955322265625" lon="20.03030550666153430938720703125">
        <ele>2056.39990234375</ele>
        <time>2026-06-15T13:45:28.000Z</time>
        <extensions>
          <ns3:TrackPointExtension>
            <ns3:atemp>23.0</ns3:atemp>
          </ns3:TrackPointExtension>
        </extensions>
      </trkpt>
      <trkpt lat="42.56850577890872955322265625" lon="20.03030550666153430938720703125">
        <ele>2056.39990234375</ele>
        <time>2026-06-15T13:45:29.000Z</time>
        <extensions>
          <ns3:TrackPointExtension>
            <ns3:atemp>23.0</ns3:atemp>
          </ns3:TrackPointExtension>
        </extensions>
      </trkpt>
      <trkpt lat="42.56850577890872955322265625" lon="20.03030550666153430938720703125">
        <ele>2056.39990234375</ele>
        <time>2026-06-15T13:45:30.000Z</time>
        <extensions>
          <ns3:TrackPointExtension>
            <ns3:atemp>23.0</ns3:atemp>
          </ns3:TrackPointExtension>
        </extensions>
      </trkpt>
      <trkpt lat="42.56850577890872955322265625" lon="20.03030550666153430938720703125">
        <ele>2056.39990234375</ele>
        <time>2026-06-15T13:45:31.000Z</time>
        <extensions>
          <ns3:TrackPointExtension>
            <ns3:atemp>23.0</ns3:atemp>
          </ns3:TrackPointExtension>
        </extensions>
      </trkpt>
      <trkpt lat="42.56850577890872955322265625" lon="20.03030550666153430938720703125">
        <ele>2056.39990234375</ele>
        <time>2026-06-15T13:45:32.000Z</time>
        <extensions>
          <ns3:TrackPointExtension>
            <ns3:atemp>23.0</ns3:atemp>
          </ns3:TrackPointExtension>
        </extensions>
      </trkpt>
      <trkpt lat="42.56850577890872955322265625" lon="20.03030550666153430938720703125">
        <ele>2056.39990234375</ele>
        <time>2026-06-15T13:45:33.000Z</time>
        <extensions>
          <ns3:TrackPointExtension>
            <ns3:atemp>23.0</ns3:atemp>
          </ns3:TrackPointExtension>
        </extensions>
      </trkpt>
      <trkpt lat="42.56850577890872955322265625" lon="20.03030550666153430938720703125">
        <ele>2056.39990234375</ele>
        <time>2026-06-15T13:45:34.000Z</time>
        <extensions>
          <ns3:TrackPointExtension>
            <ns3:atemp>23.0</ns3:atemp>
          </ns3:TrackPointExtension>
        </extensions>
      </trkpt>
      <trkpt lat="42.56850577890872955322265625" lon="20.03030550666153430938720703125">
        <ele>2056.199951171875</ele>
        <time>2026-06-15T13:45:35.000Z</time>
        <extensions>
          <ns3:TrackPointExtension>
            <ns3:atemp>23.0</ns3:atemp>
          </ns3:TrackPointExtension>
        </extensions>
      </trkpt>
      <trkpt lat="42.56850577890872955322265625" lon="20.03030550666153430938720703125">
        <ele>2056.199951171875</ele>
        <time>2026-06-15T13:45:36.000Z</time>
        <extensions>
          <ns3:TrackPointExtension>
            <ns3:atemp>23.0</ns3:atemp>
          </ns3:TrackPointExtension>
        </extensions>
      </trkpt>
      <trkpt lat="42.56850577890872955322265625" lon="20.03030550666153430938720703125">
        <ele>2056.199951171875</ele>
        <time>2026-06-15T13:45:37.000Z</time>
        <extensions>
          <ns3:TrackPointExtension>
            <ns3:atemp>23.0</ns3:atemp>
          </ns3:TrackPointExtension>
        </extensions>
      </trkpt>
      <trkpt lat="42.56850577890872955322265625" lon="20.03030550666153430938720703125">
        <ele>2056.199951171875</ele>
        <time>2026-06-15T13:45:38.000Z</time>
        <extensions>
          <ns3:TrackPointExtension>
            <ns3:atemp>23.0</ns3:atemp>
          </ns3:TrackPointExtension>
        </extensions>
      </trkpt>
      <trkpt lat="42.56850577890872955322265625" lon="20.03030550666153430938720703125">
        <ele>2056.199951171875</ele>
        <time>2026-06-15T13:45:39.000Z</time>
        <extensions>
          <ns3:TrackPointExtension>
            <ns3:atemp>23.0</ns3:atemp>
          </ns3:TrackPointExtension>
        </extensions>
      </trkpt>
      <trkpt lat="42.56850577890872955322265625" lon="20.03030550666153430938720703125">
        <ele>2056.199951171875</ele>
        <time>2026-06-15T13:45:40.000Z</time>
        <extensions>
          <ns3:TrackPointExtension>
            <ns3:atemp>23.0</ns3:atemp>
          </ns3:TrackPointExtension>
        </extensions>
      </trkpt>
      <trkpt lat="42.56850577890872955322265625" lon="20.03030550666153430938720703125">
        <ele>2056.199951171875</ele>
        <time>2026-06-15T13:45:41.000Z</time>
        <extensions>
          <ns3:TrackPointExtension>
            <ns3:atemp>23.0</ns3:atemp>
          </ns3:TrackPointExtension>
        </extensions>
      </trkpt>
      <trkpt lat="42.56850577890872955322265625" lon="20.03030550666153430938720703125">
        <ele>2056.199951171875</ele>
        <time>2026-06-15T13:45:42.000Z</time>
        <extensions>
          <ns3:TrackPointExtension>
            <ns3:atemp>23.0</ns3:atemp>
          </ns3:TrackPointExtension>
        </extensions>
      </trkpt>
      <trkpt lat="42.56850577890872955322265625" lon="20.03030550666153430938720703125">
        <ele>2056.199951171875</ele>
        <time>2026-06-15T13:45:43.000Z</time>
        <extensions>
          <ns3:TrackPointExtension>
            <ns3:atemp>23.0</ns3:atemp>
          </ns3:TrackPointExtension>
        </extensions>
      </trkpt>
      <trkpt lat="42.56850577890872955322265625" lon="20.03030550666153430938720703125">
        <ele>2056.199951171875</ele>
        <time>2026-06-15T13:45:44.000Z</time>
        <extensions>
          <ns3:TrackPointExtension>
            <ns3:atemp>23.0</ns3:atemp>
          </ns3:TrackPointExtension>
        </extensions>
      </trkpt>
      <trkpt lat="42.56850577890872955322265625" lon="20.03030550666153430938720703125">
        <ele>2056.199951171875</ele>
        <time>2026-06-15T13:45:45.000Z</time>
        <extensions>
          <ns3:TrackPointExtension>
            <ns3:atemp>23.0</ns3:atemp>
          </ns3:TrackPointExtension>
        </extensions>
      </trkpt>
      <trkpt lat="42.56850577890872955322265625" lon="20.03030550666153430938720703125">
        <ele>2056.39990234375</ele>
        <time>2026-06-15T13:45:46.000Z</time>
        <extensions>
          <ns3:TrackPointExtension>
            <ns3:atemp>23.0</ns3:atemp>
          </ns3:TrackPointExtension>
        </extensions>
      </trkpt>
      <trkpt lat="42.56850577890872955322265625" lon="20.03030550666153430938720703125">
        <ele>2056.39990234375</ele>
        <time>2026-06-15T13:45:47.000Z</time>
        <extensions>
          <ns3:TrackPointExtension>
            <ns3:atemp>23.0</ns3:atemp>
          </ns3:TrackPointExtension>
        </extensions>
      </trkpt>
      <trkpt lat="42.56850577890872955322265625" lon="20.03030550666153430938720703125">
        <ele>2056.39990234375</ele>
        <time>2026-06-15T13:45:48.000Z</time>
        <extensions>
          <ns3:TrackPointExtension>
            <ns3:atemp>23.0</ns3:atemp>
          </ns3:TrackPointExtension>
        </extensions>
      </trkpt>
      <trkpt lat="42.56850577890872955322265625" lon="20.03030550666153430938720703125">
        <ele>2056.39990234375</ele>
        <time>2026-06-15T13:45:49.000Z</time>
        <extensions>
          <ns3:TrackPointExtension>
            <ns3:atemp>23.0</ns3:atemp>
          </ns3:TrackPointExtension>
        </extensions>
      </trkpt>
      <trkpt lat="42.56850577890872955322265625" lon="20.03030550666153430938720703125">
        <ele>2056.39990234375</ele>
        <time>2026-06-15T13:45:50.000Z</time>
        <extensions>
          <ns3:TrackPointExtension>
            <ns3:atemp>23.0</ns3:atemp>
          </ns3:TrackPointExtension>
        </extensions>
      </trkpt>
      <trkpt lat="42.56850577890872955322265625" lon="20.03030550666153430938720703125">
        <ele>2056.39990234375</ele>
        <time>2026-06-15T13:45:51.000Z</time>
        <extensions>
          <ns3:TrackPointExtension>
            <ns3:atemp>23.0</ns3:atemp>
          </ns3:TrackPointExtension>
        </extensions>
      </trkpt>
      <trkpt lat="42.56850577890872955322265625" lon="20.03030550666153430938720703125">
        <ele>2056.39990234375</ele>
        <time>2026-06-15T13:45:52.000Z</time>
        <extensions>
          <ns3:TrackPointExtension>
            <ns3:atemp>23.0</ns3:atemp>
          </ns3:TrackPointExtension>
        </extensions>
      </trkpt>
      <trkpt lat="42.56850577890872955322265625" lon="20.03030550666153430938720703125">
        <ele>2056.39990234375</ele>
        <time>2026-06-15T13:45:53.000Z</time>
        <extensions>
          <ns3:TrackPointExtension>
            <ns3:atemp>23.0</ns3:atemp>
          </ns3:TrackPointExtension>
        </extensions>
      </trkpt>
      <trkpt lat="42.56850577890872955322265625" lon="20.03030550666153430938720703125">
        <ele>2056.39990234375</ele>
        <time>2026-06-15T13:45:54.000Z</time>
        <extensions>
          <ns3:TrackPointExtension>
            <ns3:atemp>23.0</ns3:atemp>
          </ns3:TrackPointExtension>
        </extensions>
      </trkpt>
      <trkpt lat="42.56850577890872955322265625" lon="20.03030550666153430938720703125">
        <ele>2056.199951171875</ele>
        <time>2026-06-15T13:45:55.000Z</time>
        <extensions>
          <ns3:TrackPointExtension>
            <ns3:atemp>23.0</ns3:atemp>
          </ns3:TrackPointExtension>
        </extensions>
      </trkpt>
      <trkpt lat="42.56850577890872955322265625" lon="20.03030550666153430938720703125">
        <ele>2056.199951171875</ele>
        <time>2026-06-15T13:45:56.000Z</time>
        <extensions>
          <ns3:TrackPointExtension>
            <ns3:atemp>23.0</ns3:atemp>
          </ns3:TrackPointExtension>
        </extensions>
      </trkpt>
      <trkpt lat="42.56850577890872955322265625" lon="20.03030550666153430938720703125">
        <ele>2056.199951171875</ele>
        <time>2026-06-15T13:45:57.000Z</time>
        <extensions>
          <ns3:TrackPointExtension>
            <ns3:atemp>23.0</ns3:atemp>
          </ns3:TrackPointExtension>
        </extensions>
      </trkpt>
      <trkpt lat="42.56850577890872955322265625" lon="20.03030550666153430938720703125">
        <ele>2056.199951171875</ele>
        <time>2026-06-15T13:45:58.000Z</time>
        <extensions>
          <ns3:TrackPointExtension>
            <ns3:atemp>23.0</ns3:atemp>
          </ns3:TrackPointExtension>
        </extensions>
      </trkpt>
      <trkpt lat="42.56850577890872955322265625" lon="20.03030550666153430938720703125">
        <ele>2056.199951171875</ele>
        <time>2026-06-15T13:45:59.000Z</time>
        <extensions>
          <ns3:TrackPointExtension>
            <ns3:atemp>23.0</ns3:atemp>
          </ns3:TrackPointExtension>
        </extensions>
      </trkpt>
      <trkpt lat="42.56850577890872955322265625" lon="20.03030550666153430938720703125">
        <ele>2056.199951171875</ele>
        <time>2026-06-15T13:46:00.000Z</time>
        <extensions>
          <ns3:TrackPointExtension>
            <ns3:atemp>23.0</ns3:atemp>
          </ns3:TrackPointExtension>
        </extensions>
      </trkpt>
      <trkpt lat="42.56850577890872955322265625" lon="20.03030550666153430938720703125">
        <ele>2056.199951171875</ele>
        <time>2026-06-15T13:46:01.000Z</time>
        <extensions>
          <ns3:TrackPointExtension>
            <ns3:atemp>23.0</ns3:atemp>
          </ns3:TrackPointExtension>
        </extensions>
      </trkpt>
      <trkpt lat="42.56850577890872955322265625" lon="20.03030550666153430938720703125">
        <ele>2056.199951171875</ele>
        <time>2026-06-15T13:46:02.000Z</time>
        <extensions>
          <ns3:TrackPointExtension>
            <ns3:atemp>23.0</ns3:atemp>
          </ns3:TrackPointExtension>
        </extensions>
      </trkpt>
      <trkpt lat="42.56850577890872955322265625" lon="20.03030550666153430938720703125">
        <ele>2056.199951171875</ele>
        <time>2026-06-15T13:46:03.000Z</time>
        <extensions>
          <ns3:TrackPointExtension>
            <ns3:atemp>23.0</ns3:atemp>
          </ns3:TrackPointExtension>
        </extensions>
      </trkpt>
      <trkpt lat="42.56850577890872955322265625" lon="20.03030550666153430938720703125">
        <ele>2056.199951171875</ele>
        <time>2026-06-15T13:46:04.000Z</time>
        <extensions>
          <ns3:TrackPointExtension>
            <ns3:atemp>23.0</ns3:atemp>
          </ns3:TrackPointExtension>
        </extensions>
      </trkpt>
      <trkpt lat="42.56850577890872955322265625" lon="20.03030550666153430938720703125">
        <ele>2056.199951171875</ele>
        <time>2026-06-15T13:46:05.000Z</time>
        <extensions>
          <ns3:TrackPointExtension>
            <ns3:atemp>23.0</ns3:atemp>
          </ns3:TrackPointExtension>
        </extensions>
      </trkpt>
      <trkpt lat="42.56850577890872955322265625" lon="20.03030550666153430938720703125">
        <ele>2056.199951171875</ele>
        <time>2026-06-15T13:46:06.000Z</time>
        <extensions>
          <ns3:TrackPointExtension>
            <ns3:atemp>23.0</ns3:atemp>
          </ns3:TrackPointExtension>
        </extensions>
      </trkpt>
      <trkpt lat="42.56850577890872955322265625" lon="20.03030550666153430938720703125">
        <ele>2056.199951171875</ele>
        <time>2026-06-15T13:46:07.000Z</time>
        <extensions>
          <ns3:TrackPointExtension>
            <ns3:atemp>23.0</ns3:atemp>
          </ns3:TrackPointExtension>
        </extensions>
      </trkpt>
      <trkpt lat="42.56850577890872955322265625" lon="20.03030550666153430938720703125">
        <ele>2056.199951171875</ele>
        <time>2026-06-15T13:46:08.000Z</time>
        <extensions>
          <ns3:TrackPointExtension>
            <ns3:atemp>23.0</ns3:atemp>
          </ns3:TrackPointExtension>
        </extensions>
      </trkpt>
      <trkpt lat="42.56850577890872955322265625" lon="20.03030550666153430938720703125">
        <ele>2056</ele>
        <time>2026-06-15T13:46:09.000Z</time>
        <extensions>
          <ns3:TrackPointExtension>
            <ns3:atemp>23.0</ns3:atemp>
          </ns3:TrackPointExtension>
        </extensions>
      </trkpt>
      <trkpt lat="42.56850577890872955322265625" lon="20.03030550666153430938720703125">
        <ele>2056</ele>
        <time>2026-06-15T13:46:10.000Z</time>
        <extensions>
          <ns3:TrackPointExtension>
            <ns3:atemp>23.0</ns3:atemp>
          </ns3:TrackPointExtension>
        </extensions>
      </trkpt>
      <trkpt lat="42.56850577890872955322265625" lon="20.03030550666153430938720703125">
        <ele>2056</ele>
        <time>2026-06-15T13:46:11.000Z</time>
        <extensions>
          <ns3:TrackPointExtension>
            <ns3:atemp>23.0</ns3:atemp>
          </ns3:TrackPointExtension>
        </extensions>
      </trkpt>
      <trkpt lat="42.56850577890872955322265625" lon="20.03030550666153430938720703125">
        <ele>2056</ele>
        <time>2026-06-15T13:46:12.000Z</time>
        <extensions>
          <ns3:TrackPointExtension>
            <ns3:atemp>23.0</ns3:atemp>
          </ns3:TrackPointExtension>
        </extensions>
      </trkpt>
      <trkpt lat="42.56850577890872955322265625" lon="20.03030550666153430938720703125">
        <ele>2056</ele>
        <time>2026-06-15T13:46:13.000Z</time>
        <extensions>
          <ns3:TrackPointExtension>
            <ns3:atemp>23.0</ns3:atemp>
          </ns3:TrackPointExtension>
        </extensions>
      </trkpt>
      <trkpt lat="42.56850577890872955322265625" lon="20.03030550666153430938720703125">
        <ele>2056</ele>
        <time>2026-06-15T13:46:14.000Z</time>
        <extensions>
          <ns3:TrackPointExtension>
            <ns3:atemp>23.0</ns3:atemp>
          </ns3:TrackPointExtension>
        </extensions>
      </trkpt>
      <trkpt lat="42.56850577890872955322265625" lon="20.03030550666153430938720703125">
        <ele>2056</ele>
        <time>2026-06-15T13:46:15.000Z</time>
        <extensions>
          <ns3:TrackPointExtension>
            <ns3:atemp>23.0</ns3:atemp>
          </ns3:TrackPointExtension>
        </extensions>
      </trkpt>
      <trkpt lat="42.56850804202258586883544921875" lon="20.03030416555702686309814453125">
        <ele>2056</ele>
        <time>2026-06-15T13:46:16.000Z</time>
        <extensions>
          <ns3:TrackPointExtension>
            <ns3:atemp>23.0</ns3:atemp>
          </ns3:TrackPointExtension>
        </extensions>
      </trkpt>
      <trkpt lat="42.56850577890872955322265625" lon="20.03030550666153430938720703125">
        <ele>2056</ele>
        <time>2026-06-15T13:46:17.000Z</time>
        <extensions>
          <ns3:TrackPointExtension>
            <ns3:atemp>23.0</ns3:atemp>
          </ns3:TrackPointExtension>
        </extensions>
      </trkpt>
      <trkpt lat="42.56850577890872955322265625" lon="20.03030550666153430938720703125">
        <ele>2056</ele>
        <time>2026-06-15T13:46:18.000Z</time>
        <extensions>
          <ns3:TrackPointExtension>
            <ns3:atemp>23.0</ns3:atemp>
          </ns3:TrackPointExtension>
        </extensions>
      </trkpt>
      <trkpt lat="42.56850577890872955322265625" lon="20.03030550666153430938720703125">
        <ele>2055.800048828125</ele>
        <time>2026-06-15T13:46:19.000Z</time>
        <extensions>
          <ns3:TrackPointExtension>
            <ns3:atemp>23.0</ns3:atemp>
          </ns3:TrackPointExtension>
        </extensions>
      </trkpt>
      <trkpt lat="42.56850577890872955322265625" lon="20.03030550666153430938720703125">
        <ele>2055.800048828125</ele>
        <time>2026-06-15T13:46:20.000Z</time>
        <extensions>
          <ns3:TrackPointExtension>
            <ns3:atemp>23.0</ns3:atemp>
          </ns3:TrackPointExtension>
        </extensions>
      </trkpt>
      <trkpt lat="42.56850577890872955322265625" lon="20.03030550666153430938720703125">
        <ele>2055.800048828125</ele>
        <time>2026-06-15T13:46:21.000Z</time>
        <extensions>
          <ns3:TrackPointExtension>
            <ns3:atemp>23.0</ns3:atemp>
          </ns3:TrackPointExtension>
        </extensions>
      </trkpt>
      <trkpt lat="42.56850577890872955322265625" lon="20.03030550666153430938720703125">
        <ele>2055.800048828125</ele>
        <time>2026-06-15T13:46:22.000Z</time>
        <extensions>
          <ns3:TrackPointExtension>
            <ns3:atemp>23.0</ns3:atemp>
          </ns3:TrackPointExtension>
        </extensions>
      </trkpt>
      <trkpt lat="42.56850577890872955322265625" lon="20.03030550666153430938720703125">
        <ele>2055.800048828125</ele>
        <time>2026-06-15T13:46:23.000Z</time>
        <extensions>
          <ns3:TrackPointExtension>
            <ns3:atemp>23.0</ns3:atemp>
          </ns3:TrackPointExtension>
        </extensions>
      </trkpt>
      <trkpt lat="42.56850577890872955322265625" lon="20.03030550666153430938720703125">
        <ele>2055.800048828125</ele>
        <time>2026-06-15T13:46:24.000Z</time>
        <extensions>
          <ns3:TrackPointExtension>
            <ns3:atemp>23.0</ns3:atemp>
          </ns3:TrackPointExtension>
        </extensions>
      </trkpt>
      <trkpt lat="42.56850577890872955322265625" lon="20.03030550666153430938720703125">
        <ele>2055.800048828125</ele>
        <time>2026-06-15T13:46:25.000Z</time>
        <extensions>
          <ns3:TrackPointExtension>
            <ns3:atemp>23.0</ns3:atemp>
          </ns3:TrackPointExtension>
        </extensions>
      </trkpt>
      <trkpt lat="42.56851323880255222320556640625" lon="20.03029637038707733154296875">
        <ele>2055.800048828125</ele>
        <time>2026-06-15T13:46:26.000Z</time>
        <extensions>
          <ns3:TrackPointExtension>
            <ns3:atemp>23.0</ns3:atemp>
          </ns3:TrackPointExtension>
        </extensions>
      </trkpt>
      <trkpt lat="42.56851105950772762298583984375" lon="20.03028606064617633819580078125">
        <ele>2055.800048828125</ele>
        <time>2026-06-15T13:46:27.000Z</time>
        <extensions>
          <ns3:TrackPointExtension>
            <ns3:atemp>23.0</ns3:atemp>
          </ns3:TrackPointExtension>
        </extensions>
      </trkpt>
      <trkpt lat="42.56852011196315288543701171875" lon="20.03028689883649349212646484375">
        <ele>2055.800048828125</ele>
        <time>2026-06-15T13:46:28.000Z</time>
        <extensions>
          <ns3:TrackPointExtension>
            <ns3:atemp>23.0</ns3:atemp>
          </ns3:TrackPointExtension>
        </extensions>
      </trkpt>
      <trkpt lat="42.5685267336666584014892578125" lon="20.030287988483905792236328125">
        <ele>2055.800048828125</ele>
        <time>2026-06-15T13:46:29.000Z</time>
        <extensions>
          <ns3:TrackPointExtension>
            <ns3:atemp>23.0</ns3:atemp>
          </ns3:TrackPointExtension>
        </extensions>
      </trkpt>
      <trkpt lat="42.568531595170497894287109375" lon="20.03028840757906436920166015625">
        <ele>2055.800048828125</ele>
        <time>2026-06-15T13:46:30.000Z</time>
        <extensions>
          <ns3:TrackPointExtension>
            <ns3:atemp>23.0</ns3:atemp>
          </ns3:TrackPointExtension>
        </extensions>
      </trkpt>
      <trkpt lat="42.56853067316114902496337890625" lon="20.03028622828423976898193359375">
        <ele>2055.800048828125</ele>
        <time>2026-06-15T13:46:31.000Z</time>
        <extensions>
          <ns3:TrackPointExtension>
            <ns3:atemp>23.0</ns3:atemp>
          </ns3:TrackPointExtension>
        </extensions>
      </trkpt>
      <trkpt lat="42.5685307569801807403564453125" lon="20.0302861444652080535888671875">
        <ele>2055.60009765625</ele>
        <time>2026-06-15T13:46:32.000Z</time>
        <extensions>
          <ns3:TrackPointExtension>
            <ns3:atemp>23.0</ns3:atemp>
          </ns3:TrackPointExtension>
        </extensions>
      </trkpt>
      <trkpt lat="42.5685384683310985565185546875" lon="20.030279271304607391357421875">
        <ele>2055.60009765625</ele>
        <time>2026-06-15T13:46:33.000Z</time>
        <extensions>
          <ns3:TrackPointExtension>
            <ns3:atemp>23.0</ns3:atemp>
          </ns3:TrackPointExtension>
        </extensions>
      </trkpt>
      <trkpt lat="42.5685371272265911102294921875" lon="20.03028019331395626068115234375">
        <ele>2055.60009765625</ele>
        <time>2026-06-15T13:46:34.000Z</time>
        <extensions>
          <ns3:TrackPointExtension>
            <ns3:atemp>23.0</ns3:atemp>
          </ns3:TrackPointExtension>
        </extensions>
      </trkpt>
      <trkpt lat="42.5685371272265911102294921875" lon="20.03028019331395626068115234375">
        <ele>2055.800048828125</ele>
        <time>2026-06-15T13:46:35.000Z</time>
        <extensions>
          <ns3:TrackPointExtension>
            <ns3:atemp>23.0</ns3:atemp>
          </ns3:TrackPointExtension>
        </extensions>
      </trkpt>
      <trkpt lat="42.5685371272265911102294921875" lon="20.03028019331395626068115234375">
        <ele>2055.800048828125</ele>
        <time>2026-06-15T13:46:36.000Z</time>
        <extensions>
          <ns3:TrackPointExtension>
            <ns3:atemp>23.0</ns3:atemp>
          </ns3:TrackPointExtension>
        </extensions>
      </trkpt>
      <trkpt lat="42.5685371272265911102294921875" lon="20.03028019331395626068115234375">
        <ele>2055.800048828125</ele>
        <time>2026-06-15T13:46:37.000Z</time>
        <extensions>
          <ns3:TrackPointExtension>
            <ns3:atemp>23.0</ns3:atemp>
          </ns3:TrackPointExtension>
        </extensions>
      </trkpt>
      <trkpt lat="42.5685371272265911102294921875" lon="20.03028019331395626068115234375">
        <ele>2055.800048828125</ele>
        <time>2026-06-15T13:46:38.000Z</time>
        <extensions>
          <ns3:TrackPointExtension>
            <ns3:atemp>23.0</ns3:atemp>
          </ns3:TrackPointExtension>
        </extensions>
      </trkpt>
      <trkpt lat="42.5685371272265911102294921875" lon="20.03028019331395626068115234375">
        <ele>2055.800048828125</ele>
        <time>2026-06-15T13:46:39.000Z</time>
        <extensions>
          <ns3:TrackPointExtension>
            <ns3:atemp>23.0</ns3:atemp>
          </ns3:TrackPointExtension>
        </extensions>
      </trkpt>
      <trkpt lat="42.5685371272265911102294921875" lon="20.03028019331395626068115234375">
        <ele>2055.800048828125</ele>
        <time>2026-06-15T13:46:40.000Z</time>
        <extensions>
          <ns3:TrackPointExtension>
            <ns3:atemp>23.0</ns3:atemp>
          </ns3:TrackPointExtension>
        </extensions>
      </trkpt>
      <trkpt lat="42.5685371272265911102294921875" lon="20.03028019331395626068115234375">
        <ele>2055.800048828125</ele>
        <time>2026-06-15T13:46:41.000Z</time>
        <extensions>
          <ns3:TrackPointExtension>
            <ns3:atemp>23.0</ns3:atemp>
          </ns3:TrackPointExtension>
        </extensions>
      </trkpt>
      <trkpt lat="42.5685371272265911102294921875" lon="20.03028019331395626068115234375">
        <ele>2055.60009765625</ele>
        <time>2026-06-15T13:46:42.000Z</time>
        <extensions>
          <ns3:TrackPointExtension>
            <ns3:atemp>23.0</ns3:atemp>
          </ns3:TrackPointExtension>
        </extensions>
      </trkpt>
      <trkpt lat="42.5685371272265911102294921875" lon="20.03028019331395626068115234375">
        <ele>2055.60009765625</ele>
        <time>2026-06-15T13:46:43.000Z</time>
        <extensions>
          <ns3:TrackPointExtension>
            <ns3:atemp>23.0</ns3:atemp>
          </ns3:TrackPointExtension>
        </extensions>
      </trkpt>
      <trkpt lat="42.5685371272265911102294921875" lon="20.03028019331395626068115234375">
        <ele>2055.60009765625</ele>
        <time>2026-06-15T13:46:44.000Z</time>
        <extensions>
          <ns3:TrackPointExtension>
            <ns3:atemp>23.0</ns3:atemp>
          </ns3:TrackPointExtension>
        </extensions>
      </trkpt>
      <trkpt lat="42.5685371272265911102294921875" lon="20.03028019331395626068115234375">
        <ele>2055.60009765625</ele>
        <time>2026-06-15T13:46:45.000Z</time>
        <extensions>
          <ns3:TrackPointExtension>
            <ns3:atemp>23.0</ns3:atemp>
          </ns3:TrackPointExtension>
        </extensions>
      </trkpt>
      <trkpt lat="42.5685371272265911102294921875" lon="20.03028019331395626068115234375">
        <ele>2055.60009765625</ele>
        <time>2026-06-15T13:46:46.000Z</time>
        <extensions>
          <ns3:TrackPointExtension>
            <ns3:atemp>23.0</ns3:atemp>
          </ns3:TrackPointExtension>
        </extensions>
      </trkpt>
      <trkpt lat="42.5685371272265911102294921875" lon="20.03028019331395626068115234375">
        <ele>2055.60009765625</ele>
        <time>2026-06-15T13:46:47.000Z</time>
        <extensions>
          <ns3:TrackPointExtension>
            <ns3:atemp>23.0</ns3:atemp>
          </ns3:TrackPointExtension>
        </extensions>
      </trkpt>
      <trkpt lat="42.5685371272265911102294921875" lon="20.03028019331395626068115234375">
        <ele>2055.60009765625</ele>
        <time>2026-06-15T13:46:48.000Z</time>
        <extensions>
          <ns3:TrackPointExtension>
            <ns3:atemp>23.0</ns3:atemp>
          </ns3:TrackPointExtension>
        </extensions>
      </trkpt>
      <trkpt lat="42.5685371272265911102294921875" lon="20.03028019331395626068115234375">
        <ele>2055.60009765625</ele>
        <time>2026-06-15T13:46:49.000Z</time>
        <extensions>
          <ns3:TrackPointExtension>
            <ns3:atemp>23.0</ns3:atemp>
          </ns3:TrackPointExtension>
        </extensions>
      </trkpt>
      <trkpt lat="42.5685371272265911102294921875" lon="20.03028019331395626068115234375">
        <ele>2055.60009765625</ele>
        <time>2026-06-15T13:46:50.000Z</time>
        <extensions>
          <ns3:TrackPointExtension>
            <ns3:atemp>23.0</ns3:atemp>
          </ns3:TrackPointExtension>
        </extensions>
      </trkpt>
      <trkpt lat="42.5685371272265911102294921875" lon="20.03028019331395626068115234375">
        <ele>2055.60009765625</ele>
        <time>2026-06-15T13:46:51.000Z</time>
        <extensions>
          <ns3:TrackPointExtension>
            <ns3:atemp>23.0</ns3:atemp>
          </ns3:TrackPointExtension>
        </extensions>
      </trkpt>
      <trkpt lat="42.5685371272265911102294921875" lon="20.03028019331395626068115234375">
        <ele>2055.60009765625</ele>
        <time>2026-06-15T13:46:52.000Z</time>
        <extensions>
          <ns3:TrackPointExtension>
            <ns3:atemp>23.0</ns3:atemp>
          </ns3:TrackPointExtension>
        </extensions>
      </trkpt>
      <trkpt lat="42.5685371272265911102294921875" lon="20.03028019331395626068115234375">
        <ele>2055.60009765625</ele>
        <time>2026-06-15T13:46:53.000Z</time>
        <extensions>
          <ns3:TrackPointExtension>
            <ns3:atemp>23.0</ns3:atemp>
          </ns3:TrackPointExtension>
        </extensions>
      </trkpt>
      <trkpt lat="42.5685371272265911102294921875" lon="20.03028019331395626068115234375">
        <ele>2055.60009765625</ele>
        <time>2026-06-15T13:46:54.000Z</time>
        <extensions>
          <ns3:TrackPointExtension>
            <ns3:atemp>23.0</ns3:atemp>
          </ns3:TrackPointExtension>
        </extensions>
      </trkpt>
      <trkpt lat="42.5685371272265911102294921875" lon="20.03028019331395626068115234375">
        <ele>2055.60009765625</ele>
        <time>2026-06-15T13:46:55.000Z</time>
        <extensions>
          <ns3:TrackPointExtension>
            <ns3:atemp>23.0</ns3:atemp>
          </ns3:TrackPointExtension>
        </extensions>
      </trkpt>
      <trkpt lat="42.5685371272265911102294921875" lon="20.03028019331395626068115234375">
        <ele>2055.60009765625</ele>
        <time>2026-06-15T13:46:56.000Z</time>
        <extensions>
          <ns3:TrackPointExtension>
            <ns3:atemp>23.0</ns3:atemp>
          </ns3:TrackPointExtension>
        </extensions>
      </trkpt>
      <trkpt lat="42.5685371272265911102294921875" lon="20.03028019331395626068115234375">
        <ele>2055.800048828125</ele>
        <time>2026-06-15T13:46:57.000Z</time>
        <extensions>
          <ns3:TrackPointExtension>
            <ns3:atemp>23.0</ns3:atemp>
          </ns3:TrackPointExtension>
        </extensions>
      </trkpt>
      <trkpt lat="42.5685371272265911102294921875" lon="20.03028019331395626068115234375">
        <ele>2055.800048828125</ele>
        <time>2026-06-15T13:46:58.000Z</time>
        <extensions>
          <ns3:TrackPointExtension>
            <ns3:atemp>23.0</ns3:atemp>
          </ns3:TrackPointExtension>
        </extensions>
      </trkpt>
      <trkpt lat="42.5685371272265911102294921875" lon="20.03028019331395626068115234375">
        <ele>2055.800048828125</ele>
        <time>2026-06-15T13:46:59.000Z</time>
        <extensions>
          <ns3:TrackPointExtension>
            <ns3:atemp>23.0</ns3:atemp>
          </ns3:TrackPointExtension>
        </extensions>
      </trkpt>
      <trkpt lat="42.5685371272265911102294921875" lon="20.03028019331395626068115234375">
        <ele>2055.800048828125</ele>
        <time>2026-06-15T13:47:00.000Z</time>
        <extensions>
          <ns3:TrackPointExtension>
            <ns3:atemp>23.0</ns3:atemp>
          </ns3:TrackPointExtension>
        </extensions>
      </trkpt>
      <trkpt lat="42.5685371272265911102294921875" lon="20.03028019331395626068115234375">
        <ele>2055.800048828125</ele>
        <time>2026-06-15T13:47:01.000Z</time>
        <extensions>
          <ns3:TrackPointExtension>
            <ns3:atemp>23.0</ns3:atemp>
          </ns3:TrackPointExtension>
        </extensions>
      </trkpt>
      <trkpt lat="42.5685371272265911102294921875" lon="20.03028019331395626068115234375">
        <ele>2055.800048828125</ele>
        <time>2026-06-15T13:47:02.000Z</time>
        <extensions>
          <ns3:TrackPointExtension>
            <ns3:atemp>23.0</ns3:atemp>
          </ns3:TrackPointExtension>
        </extensions>
      </trkpt>
      <trkpt lat="42.5685371272265911102294921875" lon="20.03028019331395626068115234375">
        <ele>2055.800048828125</ele>
        <time>2026-06-15T13:47:03.000Z</time>
        <extensions>
          <ns3:TrackPointExtension>
            <ns3:atemp>23.0</ns3:atemp>
          </ns3:TrackPointExtension>
        </extensions>
      </trkpt>
      <trkpt lat="42.5685371272265911102294921875" lon="20.03028019331395626068115234375">
        <ele>2055.800048828125</ele>
        <time>2026-06-15T13:47:04.000Z</time>
        <extensions>
          <ns3:TrackPointExtension>
            <ns3:atemp>23.0</ns3:atemp>
          </ns3:TrackPointExtension>
        </extensions>
      </trkpt>
      <trkpt lat="42.5685371272265911102294921875" lon="20.03028019331395626068115234375">
        <ele>2055.800048828125</ele>
        <time>2026-06-15T13:47:05.000Z</time>
        <extensions>
          <ns3:TrackPointExtension>
            <ns3:atemp>23.0</ns3:atemp>
          </ns3:TrackPointExtension>
        </extensions>
      </trkpt>
      <trkpt lat="42.5685371272265911102294921875" lon="20.03028019331395626068115234375">
        <ele>2055.800048828125</ele>
        <time>2026-06-15T13:47:06.000Z</time>
        <extensions>
          <ns3:TrackPointExtension>
            <ns3:atemp>23.0</ns3:atemp>
          </ns3:TrackPointExtension>
        </extensions>
      </trkpt>
      <trkpt lat="42.5685371272265911102294921875" lon="20.03028019331395626068115234375">
        <ele>2055.800048828125</ele>
        <time>2026-06-15T13:47:07.000Z</time>
        <extensions>
          <ns3:TrackPointExtension>
            <ns3:atemp>23.0</ns3:atemp>
          </ns3:TrackPointExtension>
        </extensions>
      </trkpt>
      <trkpt lat="42.5685371272265911102294921875" lon="20.03028019331395626068115234375">
        <ele>2055.800048828125</ele>
        <time>2026-06-15T13:47:08.000Z</time>
        <extensions>
          <ns3:TrackPointExtension>
            <ns3:atemp>23.0</ns3:atemp>
          </ns3:TrackPointExtension>
        </extensions>
      </trkpt>
      <trkpt lat="42.5685371272265911102294921875" lon="20.03028019331395626068115234375">
        <ele>2055.800048828125</ele>
        <time>2026-06-15T13:47:09.000Z</time>
        <extensions>
          <ns3:TrackPointExtension>
            <ns3:atemp>23.0</ns3:atemp>
          </ns3:TrackPointExtension>
        </extensions>
      </trkpt>
      <trkpt lat="42.5685371272265911102294921875" lon="20.03028019331395626068115234375">
        <ele>2055.60009765625</ele>
        <time>2026-06-15T13:47:10.000Z</time>
        <extensions>
          <ns3:TrackPointExtension>
            <ns3:atemp>23.0</ns3:atemp>
          </ns3:TrackPointExtension>
        </extensions>
      </trkpt>
      <trkpt lat="42.5685371272265911102294921875" lon="20.03028019331395626068115234375">
        <ele>2055.60009765625</ele>
        <time>2026-06-15T13:47:11.000Z</time>
        <extensions>
          <ns3:TrackPointExtension>
            <ns3:atemp>23.0</ns3:atemp>
          </ns3:TrackPointExtension>
        </extensions>
      </trkpt>
      <trkpt lat="42.5685371272265911102294921875" lon="20.03028019331395626068115234375">
        <ele>2055.60009765625</ele>
        <time>2026-06-15T13:47:12.000Z</time>
        <extensions>
          <ns3:TrackPointExtension>
            <ns3:atemp>23.0</ns3:atemp>
          </ns3:TrackPointExtension>
        </extensions>
      </trkpt>
      <trkpt lat="42.5685371272265911102294921875" lon="20.03028019331395626068115234375">
        <ele>2055.60009765625</ele>
        <time>2026-06-15T13:47:13.000Z</time>
        <extensions>
          <ns3:TrackPointExtension>
            <ns3:atemp>23.0</ns3:atemp>
          </ns3:TrackPointExtension>
        </extensions>
      </trkpt>
      <trkpt lat="42.5685371272265911102294921875" lon="20.03028019331395626068115234375">
        <ele>2055.60009765625</ele>
        <time>2026-06-15T13:47:14.000Z</time>
        <extensions>
          <ns3:TrackPointExtension>
            <ns3:atemp>23.0</ns3:atemp>
          </ns3:TrackPointExtension>
        </extensions>
      </trkpt>
      <trkpt lat="42.5685371272265911102294921875" lon="20.03028019331395626068115234375">
        <ele>2055.60009765625</ele>
        <time>2026-06-15T13:47:15.000Z</time>
        <extensions>
          <ns3:TrackPointExtension>
            <ns3:atemp>23.0</ns3:atemp>
          </ns3:TrackPointExtension>
        </extensions>
      </trkpt>
      <trkpt lat="42.5685371272265911102294921875" lon="20.03028019331395626068115234375">
        <ele>2055.39990234375</ele>
        <time>2026-06-15T13:47:16.000Z</time>
        <extensions>
          <ns3:TrackPointExtension>
            <ns3:atemp>23.0</ns3:atemp>
          </ns3:TrackPointExtension>
        </extensions>
      </trkpt>
      <trkpt lat="42.5685371272265911102294921875" lon="20.03028019331395626068115234375">
        <ele>2055.39990234375</ele>
        <time>2026-06-15T13:47:17.000Z</time>
        <extensions>
          <ns3:TrackPointExtension>
            <ns3:atemp>23.0</ns3:atemp>
          </ns3:TrackPointExtension>
        </extensions>
      </trkpt>
      <trkpt lat="42.5685371272265911102294921875" lon="20.03028019331395626068115234375">
        <ele>2055.39990234375</ele>
        <time>2026-06-15T13:47:18.000Z</time>
        <extensions>
          <ns3:TrackPointExtension>
            <ns3:atemp>23.0</ns3:atemp>
          </ns3:TrackPointExtension>
        </extensions>
      </trkpt>
      <trkpt lat="42.5685371272265911102294921875" lon="20.03028019331395626068115234375">
        <ele>2055.39990234375</ele>
        <time>2026-06-15T13:47:19.000Z</time>
        <extensions>
          <ns3:TrackPointExtension>
            <ns3:atemp>23.0</ns3:atemp>
          </ns3:TrackPointExtension>
        </extensions>
      </trkpt>
      <trkpt lat="42.5685371272265911102294921875" lon="20.03028019331395626068115234375">
        <ele>2055.39990234375</ele>
        <time>2026-06-15T13:47:20.000Z</time>
        <extensions>
          <ns3:TrackPointExtension>
            <ns3:atemp>23.0</ns3:atemp>
          </ns3:TrackPointExtension>
        </extensions>
      </trkpt>
      <trkpt lat="42.5685371272265911102294921875" lon="20.03028019331395626068115234375">
        <ele>2055.39990234375</ele>
        <time>2026-06-15T13:47:21.000Z</time>
        <extensions>
          <ns3:TrackPointExtension>
            <ns3:atemp>23.0</ns3:atemp>
          </ns3:TrackPointExtension>
        </extensions>
      </trkpt>
      <trkpt lat="42.5685371272265911102294921875" lon="20.03028019331395626068115234375">
        <ele>2055.39990234375</ele>
        <time>2026-06-15T13:47:22.000Z</time>
        <extensions>
          <ns3:TrackPointExtension>
            <ns3:atemp>23.0</ns3:atemp>
          </ns3:TrackPointExtension>
        </extensions>
      </trkpt>
      <trkpt lat="42.5685371272265911102294921875" lon="20.03028019331395626068115234375">
        <ele>2055.39990234375</ele>
        <time>2026-06-15T13:47:23.000Z</time>
        <extensions>
          <ns3:TrackPointExtension>
            <ns3:atemp>23.0</ns3:atemp>
          </ns3:TrackPointExtension>
        </extensions>
      </trkpt>
      <trkpt lat="42.5685371272265911102294921875" lon="20.03028019331395626068115234375">
        <ele>2055.39990234375</ele>
        <time>2026-06-15T13:47:24.000Z</time>
        <extensions>
          <ns3:TrackPointExtension>
            <ns3:atemp>23.0</ns3:atemp>
          </ns3:TrackPointExtension>
        </extensions>
      </trkpt>
      <trkpt lat="42.5685371272265911102294921875" lon="20.03028019331395626068115234375">
        <ele>2055.39990234375</ele>
        <time>2026-06-15T13:47:25.000Z</time>
        <extensions>
          <ns3:TrackPointExtension>
            <ns3:atemp>23.0</ns3:atemp>
          </ns3:TrackPointExtension>
        </extensions>
      </trkpt>
      <trkpt lat="42.5685371272265911102294921875" lon="20.03028019331395626068115234375">
        <ele>2055.39990234375</ele>
        <time>2026-06-15T13:47:26.000Z</time>
        <extensions>
          <ns3:TrackPointExtension>
            <ns3:atemp>23.0</ns3:atemp>
          </ns3:TrackPointExtension>
        </extensions>
      </trkpt>
      <trkpt lat="42.5685371272265911102294921875" lon="20.03028019331395626068115234375">
        <ele>2055.39990234375</ele>
        <time>2026-06-15T13:47:27.000Z</time>
        <extensions>
          <ns3:TrackPointExtension>
            <ns3:atemp>23.0</ns3:atemp>
          </ns3:TrackPointExtension>
        </extensions>
      </trkpt>
      <trkpt lat="42.5685371272265911102294921875" lon="20.03028019331395626068115234375">
        <ele>2055.39990234375</ele>
        <time>2026-06-15T13:47:28.000Z</time>
        <extensions>
          <ns3:TrackPointExtension>
            <ns3:atemp>23.0</ns3:atemp>
          </ns3:TrackPointExtension>
        </extensions>
      </trkpt>
      <trkpt lat="42.5685371272265911102294921875" lon="20.03028019331395626068115234375">
        <ele>2055.39990234375</ele>
        <time>2026-06-15T13:47:29.000Z</time>
        <extensions>
          <ns3:TrackPointExtension>
            <ns3:atemp>23.0</ns3:atemp>
          </ns3:TrackPointExtension>
        </extensions>
      </trkpt>
      <trkpt lat="42.5685371272265911102294921875" lon="20.03028019331395626068115234375">
        <ele>2055.39990234375</ele>
        <time>2026-06-15T13:47:30.000Z</time>
        <extensions>
          <ns3:TrackPointExtension>
            <ns3:atemp>23.0</ns3:atemp>
          </ns3:TrackPointExtension>
        </extensions>
      </trkpt>
      <trkpt lat="42.5685371272265911102294921875" lon="20.03028019331395626068115234375">
        <ele>2055.39990234375</ele>
        <time>2026-06-15T13:47:31.000Z</time>
        <extensions>
          <ns3:TrackPointExtension>
            <ns3:atemp>23.0</ns3:atemp>
          </ns3:TrackPointExtension>
        </extensions>
      </trkpt>
      <trkpt lat="42.5685371272265911102294921875" lon="20.03028019331395626068115234375">
        <ele>2055.39990234375</ele>
        <time>2026-06-15T13:47:32.000Z</time>
        <extensions>
          <ns3:TrackPointExtension>
            <ns3:atemp>23.0</ns3:atemp>
          </ns3:TrackPointExtension>
        </extensions>
      </trkpt>
      <trkpt lat="42.5685371272265911102294921875" lon="20.03028019331395626068115234375">
        <ele>2055.39990234375</ele>
        <time>2026-06-15T13:47:33.000Z</time>
        <extensions>
          <ns3:TrackPointExtension>
            <ns3:atemp>23.0</ns3:atemp>
          </ns3:TrackPointExtension>
        </extensions>
      </trkpt>
      <trkpt lat="42.5685371272265911102294921875" lon="20.03028019331395626068115234375">
        <ele>2055.39990234375</ele>
        <time>2026-06-15T13:47:34.000Z</time>
        <extensions>
          <ns3:TrackPointExtension>
            <ns3:atemp>23.0</ns3:atemp>
          </ns3:TrackPointExtension>
        </extensions>
      </trkpt>
      <trkpt lat="42.5685371272265911102294921875" lon="20.03028019331395626068115234375">
        <ele>2055.39990234375</ele>
        <time>2026-06-15T13:47:35.000Z</time>
        <extensions>
          <ns3:TrackPointExtension>
            <ns3:atemp>23.0</ns3:atemp>
          </ns3:TrackPointExtension>
        </extensions>
      </trkpt>
      <trkpt lat="42.5685371272265911102294921875" lon="20.03028019331395626068115234375">
        <ele>2055.39990234375</ele>
        <time>2026-06-15T13:47:36.000Z</time>
        <extensions>
          <ns3:TrackPointExtension>
            <ns3:atemp>23.0</ns3:atemp>
          </ns3:TrackPointExtension>
        </extensions>
      </trkpt>
      <trkpt lat="42.5685371272265911102294921875" lon="20.03028019331395626068115234375">
        <ele>2055.39990234375</ele>
        <time>2026-06-15T13:47:37.000Z</time>
        <extensions>
          <ns3:TrackPointExtension>
            <ns3:atemp>23.0</ns3:atemp>
          </ns3:TrackPointExtension>
        </extensions>
      </trkpt>
      <trkpt lat="42.5685371272265911102294921875" lon="20.03028019331395626068115234375">
        <ele>2055.39990234375</ele>
        <time>2026-06-15T13:47:38.000Z</time>
        <extensions>
          <ns3:TrackPointExtension>
            <ns3:atemp>23.0</ns3:atemp>
          </ns3:TrackPointExtension>
        </extensions>
      </trkpt>
      <trkpt lat="42.5685371272265911102294921875" lon="20.03028019331395626068115234375">
        <ele>2055.39990234375</ele>
        <time>2026-06-15T13:47:39.000Z</time>
        <extensions>
          <ns3:TrackPointExtension>
            <ns3:atemp>23.0</ns3:atemp>
          </ns3:TrackPointExtension>
        </extensions>
      </trkpt>
      <trkpt lat="42.5685371272265911102294921875" lon="20.03028019331395626068115234375">
        <ele>2055.39990234375</ele>
        <time>2026-06-15T13:47:40.000Z</time>
        <extensions>
          <ns3:TrackPointExtension>
            <ns3:atemp>23.0</ns3:atemp>
          </ns3:TrackPointExtension>
        </extensions>
      </trkpt>
      <trkpt lat="42.5685371272265911102294921875" lon="20.03028019331395626068115234375">
        <ele>2055.39990234375</ele>
        <time>2026-06-15T13:47:41.000Z</time>
        <extensions>
          <ns3:TrackPointExtension>
            <ns3:atemp>23.0</ns3:atemp>
          </ns3:TrackPointExtension>
        </extensions>
      </trkpt>
      <trkpt lat="42.5685371272265911102294921875" lon="20.03028019331395626068115234375">
        <ele>2055.39990234375</ele>
        <time>2026-06-15T13:47:42.000Z</time>
        <extensions>
          <ns3:TrackPointExtension>
            <ns3:atemp>23.0</ns3:atemp>
          </ns3:TrackPointExtension>
        </extensions>
      </trkpt>
      <trkpt lat="42.5685371272265911102294921875" lon="20.03028019331395626068115234375">
        <ele>2055.39990234375</ele>
        <time>2026-06-15T13:47:43.000Z</time>
        <extensions>
          <ns3:TrackPointExtension>
            <ns3:atemp>23.0</ns3:atemp>
          </ns3:TrackPointExtension>
        </extensions>
      </trkpt>
      <trkpt lat="42.5685371272265911102294921875" lon="20.03028019331395626068115234375">
        <ele>2055.39990234375</ele>
        <time>2026-06-15T13:47:44.000Z</time>
        <extensions>
          <ns3:TrackPointExtension>
            <ns3:atemp>23.0</ns3:atemp>
          </ns3:TrackPointExtension>
        </extensions>
      </trkpt>
      <trkpt lat="42.5685371272265911102294921875" lon="20.03028019331395626068115234375">
        <ele>2055.39990234375</ele>
        <time>2026-06-15T13:47:45.000Z</time>
        <extensions>
          <ns3:TrackPointExtension>
            <ns3:atemp>23.0</ns3:atemp>
          </ns3:TrackPointExtension>
        </extensions>
      </trkpt>
      <trkpt lat="42.5685371272265911102294921875" lon="20.03028019331395626068115234375">
        <ele>2055.39990234375</ele>
        <time>2026-06-15T13:47:46.000Z</time>
        <extensions>
          <ns3:TrackPointExtension>
            <ns3:atemp>23.0</ns3:atemp>
          </ns3:TrackPointExtension>
        </extensions>
      </trkpt>
      <trkpt lat="42.5685371272265911102294921875" lon="20.03028019331395626068115234375">
        <ele>2055.39990234375</ele>
        <time>2026-06-15T13:47:47.000Z</time>
        <extensions>
          <ns3:TrackPointExtension>
            <ns3:atemp>23.0</ns3:atemp>
          </ns3:TrackPointExtension>
        </extensions>
      </trkpt>
      <trkpt lat="42.5685371272265911102294921875" lon="20.03028019331395626068115234375">
        <ele>2055.39990234375</ele>
        <time>2026-06-15T13:47:48.000Z</time>
        <extensions>
          <ns3:TrackPointExtension>
            <ns3:atemp>23.0</ns3:atemp>
          </ns3:TrackPointExtension>
        </extensions>
      </trkpt>
      <trkpt lat="42.5685371272265911102294921875" lon="20.03028019331395626068115234375">
        <ele>2055.39990234375</ele>
        <time>2026-06-15T13:47:49.000Z</time>
        <extensions>
          <ns3:TrackPointExtension>
            <ns3:atemp>23.0</ns3:atemp>
          </ns3:TrackPointExtension>
        </extensions>
      </trkpt>
      <trkpt lat="42.5685371272265911102294921875" lon="20.03028019331395626068115234375">
        <ele>2055.39990234375</ele>
        <time>2026-06-15T13:47:50.000Z</time>
        <extensions>
          <ns3:TrackPointExtension>
            <ns3:atemp>23.0</ns3:atemp>
          </ns3:TrackPointExtension>
        </extensions>
      </trkpt>
      <trkpt lat="42.5685371272265911102294921875" lon="20.03028019331395626068115234375">
        <ele>2055.39990234375</ele>
        <time>2026-06-15T13:47:51.000Z</time>
        <extensions>
          <ns3:TrackPointExtension>
            <ns3:atemp>23.0</ns3:atemp>
          </ns3:TrackPointExtension>
        </extensions>
      </trkpt>
      <trkpt lat="42.5685371272265911102294921875" lon="20.03028019331395626068115234375">
        <ele>2055.39990234375</ele>
        <time>2026-06-15T13:47:52.000Z</time>
        <extensions>
          <ns3:TrackPointExtension>
            <ns3:atemp>23.0</ns3:atemp>
          </ns3:TrackPointExtension>
        </extensions>
      </trkpt>
      <trkpt lat="42.5685371272265911102294921875" lon="20.03028019331395626068115234375">
        <ele>2055.39990234375</ele>
        <time>2026-06-15T13:47:53.000Z</time>
        <extensions>
          <ns3:TrackPointExtension>
            <ns3:atemp>23.0</ns3:atemp>
          </ns3:TrackPointExtension>
        </extensions>
      </trkpt>
      <trkpt lat="42.5685371272265911102294921875" lon="20.03028019331395626068115234375">
        <ele>2055.39990234375</ele>
        <time>2026-06-15T13:47:54.000Z</time>
        <extensions>
          <ns3:TrackPointExtension>
            <ns3:atemp>23.0</ns3:atemp>
          </ns3:TrackPointExtension>
        </extensions>
      </trkpt>
      <trkpt lat="42.5685371272265911102294921875" lon="20.03028019331395626068115234375">
        <ele>2055.39990234375</ele>
        <time>2026-06-15T13:47:55.000Z</time>
        <extensions>
          <ns3:TrackPointExtension>
            <ns3:atemp>23.0</ns3:atemp>
          </ns3:TrackPointExtension>
        </extensions>
      </trkpt>
      <trkpt lat="42.5685371272265911102294921875" lon="20.03028019331395626068115234375">
        <ele>2055.39990234375</ele>
        <time>2026-06-15T13:47:56.000Z</time>
        <extensions>
          <ns3:TrackPointExtension>
            <ns3:atemp>23.0</ns3:atemp>
          </ns3:TrackPointExtension>
        </extensions>
      </trkpt>
      <trkpt lat="42.5685371272265911102294921875" lon="20.03028019331395626068115234375">
        <ele>2055.39990234375</ele>
        <time>2026-06-15T13:47:57.000Z</time>
        <extensions>
          <ns3:TrackPointExtension>
            <ns3:atemp>23.0</ns3:atemp>
          </ns3:TrackPointExtension>
        </extensions>
      </trkpt>
      <trkpt lat="42.5685371272265911102294921875" lon="20.03028019331395626068115234375">
        <ele>2055.39990234375</ele>
        <time>2026-06-15T13:47:58.000Z</time>
        <extensions>
          <ns3:TrackPointExtension>
            <ns3:atemp>23.0</ns3:atemp>
          </ns3:TrackPointExtension>
        </extensions>
      </trkpt>
      <trkpt lat="42.5685371272265911102294921875" lon="20.03028019331395626068115234375">
        <ele>2055.39990234375</ele>
        <time>2026-06-15T13:47:59.000Z</time>
        <extensions>
          <ns3:TrackPointExtension>
            <ns3:atemp>23.0</ns3:atemp>
          </ns3:TrackPointExtension>
        </extensions>
      </trkpt>
      <trkpt lat="42.5685371272265911102294921875" lon="20.03028019331395626068115234375">
        <ele>2055.39990234375</ele>
        <time>2026-06-15T13:48:00.000Z</time>
        <extensions>
          <ns3:TrackPointExtension>
            <ns3:atemp>23.0</ns3:atemp>
          </ns3:TrackPointExtension>
        </extensions>
      </trkpt>
      <trkpt lat="42.5685371272265911102294921875" lon="20.03028019331395626068115234375">
        <ele>2055.39990234375</ele>
        <time>2026-06-15T13:48:01.000Z</time>
        <extensions>
          <ns3:TrackPointExtension>
            <ns3:atemp>23.0</ns3:atemp>
          </ns3:TrackPointExtension>
        </extensions>
      </trkpt>
      <trkpt lat="42.5685371272265911102294921875" lon="20.03028019331395626068115234375">
        <ele>2055.39990234375</ele>
        <time>2026-06-15T13:48:02.000Z</time>
        <extensions>
          <ns3:TrackPointExtension>
            <ns3:atemp>23.0</ns3:atemp>
          </ns3:TrackPointExtension>
        </extensions>
      </trkpt>
      <trkpt lat="42.5685371272265911102294921875" lon="20.03028019331395626068115234375">
        <ele>2055.39990234375</ele>
        <time>2026-06-15T13:48:03.000Z</time>
        <extensions>
          <ns3:TrackPointExtension>
            <ns3:atemp>23.0</ns3:atemp>
          </ns3:TrackPointExtension>
        </extensions>
      </trkpt>
      <trkpt lat="42.5685371272265911102294921875" lon="20.03028019331395626068115234375">
        <ele>2055.39990234375</ele>
        <time>2026-06-15T13:48:04.000Z</time>
        <extensions>
          <ns3:TrackPointExtension>
            <ns3:atemp>23.0</ns3:atemp>
          </ns3:TrackPointExtension>
        </extensions>
      </trkpt>
      <trkpt lat="42.5685371272265911102294921875" lon="20.03028019331395626068115234375">
        <ele>2055.39990234375</ele>
        <time>2026-06-15T13:48:05.000Z</time>
        <extensions>
          <ns3:TrackPointExtension>
            <ns3:atemp>23.0</ns3:atemp>
          </ns3:TrackPointExtension>
        </extensions>
      </trkpt>
      <trkpt lat="42.5685371272265911102294921875" lon="20.03028019331395626068115234375">
        <ele>2055.39990234375</ele>
        <time>2026-06-15T13:48:06.000Z</time>
        <extensions>
          <ns3:TrackPointExtension>
            <ns3:atemp>23.0</ns3:atemp>
          </ns3:TrackPointExtension>
        </extensions>
      </trkpt>
      <trkpt lat="42.5685371272265911102294921875" lon="20.03028019331395626068115234375">
        <ele>2055.39990234375</ele>
        <time>2026-06-15T13:48:07.000Z</time>
        <extensions>
          <ns3:TrackPointExtension>
            <ns3:atemp>23.0</ns3:atemp>
          </ns3:TrackPointExtension>
        </extensions>
      </trkpt>
      <trkpt lat="42.5685371272265911102294921875" lon="20.03028019331395626068115234375">
        <ele>2055.39990234375</ele>
        <time>2026-06-15T13:48:08.000Z</time>
        <extensions>
          <ns3:TrackPointExtension>
            <ns3:atemp>23.0</ns3:atemp>
          </ns3:TrackPointExtension>
        </extensions>
      </trkpt>
      <trkpt lat="42.56853989325463771820068359375" lon="20.03028069622814655303955078125">
        <ele>2055.39990234375</ele>
        <time>2026-06-15T13:48:09.000Z</time>
        <extensions>
          <ns3:TrackPointExtension>
            <ns3:atemp>23.0</ns3:atemp>
          </ns3:TrackPointExtension>
        </extensions>
      </trkpt>
      <trkpt lat="42.5685371272265911102294921875" lon="20.03028019331395626068115234375">
        <ele>2055.39990234375</ele>
        <time>2026-06-15T13:48:10.000Z</time>
        <extensions>
          <ns3:TrackPointExtension>
            <ns3:atemp>23.0</ns3:atemp>
          </ns3:TrackPointExtension>
        </extensions>
      </trkpt>
      <trkpt lat="42.5685371272265911102294921875" lon="20.03028019331395626068115234375">
        <ele>2055.39990234375</ele>
        <time>2026-06-15T13:48:11.000Z</time>
        <extensions>
          <ns3:TrackPointExtension>
            <ns3:atemp>23.0</ns3:atemp>
          </ns3:TrackPointExtension>
        </extensions>
      </trkpt>
      <trkpt lat="42.5685371272265911102294921875" lon="20.03028019331395626068115234375">
        <ele>2055.39990234375</ele>
        <time>2026-06-15T13:48:12.000Z</time>
        <extensions>
          <ns3:TrackPointExtension>
            <ns3:atemp>23.0</ns3:atemp>
          </ns3:TrackPointExtension>
        </extensions>
      </trkpt>
      <trkpt lat="42.5685371272265911102294921875" lon="20.03028019331395626068115234375">
        <ele>2055.39990234375</ele>
        <time>2026-06-15T13:48:13.000Z</time>
        <extensions>
          <ns3:TrackPointExtension>
            <ns3:atemp>23.0</ns3:atemp>
          </ns3:TrackPointExtension>
        </extensions>
      </trkpt>
      <trkpt lat="42.5685371272265911102294921875" lon="20.03028019331395626068115234375">
        <ele>2055.39990234375</ele>
        <time>2026-06-15T13:48:14.000Z</time>
        <extensions>
          <ns3:TrackPointExtension>
            <ns3:atemp>23.0</ns3:atemp>
          </ns3:TrackPointExtension>
        </extensions>
      </trkpt>
      <trkpt lat="42.5685371272265911102294921875" lon="20.03028019331395626068115234375">
        <ele>2055.39990234375</ele>
        <time>2026-06-15T13:48:15.000Z</time>
        <extensions>
          <ns3:TrackPointExtension>
            <ns3:atemp>23.0</ns3:atemp>
          </ns3:TrackPointExtension>
        </extensions>
      </trkpt>
      <trkpt lat="42.5685371272265911102294921875" lon="20.03028019331395626068115234375">
        <ele>2055.39990234375</ele>
        <time>2026-06-15T13:48:16.000Z</time>
        <extensions>
          <ns3:TrackPointExtension>
            <ns3:atemp>23.0</ns3:atemp>
          </ns3:TrackPointExtension>
        </extensions>
      </trkpt>
      <trkpt lat="42.5685371272265911102294921875" lon="20.03028019331395626068115234375">
        <ele>2055.39990234375</ele>
        <time>2026-06-15T13:48:17.000Z</time>
        <extensions>
          <ns3:TrackPointExtension>
            <ns3:atemp>23.0</ns3:atemp>
          </ns3:TrackPointExtension>
        </extensions>
      </trkpt>
      <trkpt lat="42.5685371272265911102294921875" lon="20.03028019331395626068115234375">
        <ele>2055.39990234375</ele>
        <time>2026-06-15T13:48:18.000Z</time>
        <extensions>
          <ns3:TrackPointExtension>
            <ns3:atemp>23.0</ns3:atemp>
          </ns3:TrackPointExtension>
        </extensions>
      </trkpt>
      <trkpt lat="42.5685371272265911102294921875" lon="20.03028019331395626068115234375">
        <ele>2055.39990234375</ele>
        <time>2026-06-15T13:48:19.000Z</time>
        <extensions>
          <ns3:TrackPointExtension>
            <ns3:atemp>23.0</ns3:atemp>
          </ns3:TrackPointExtension>
        </extensions>
      </trkpt>
      <trkpt lat="42.5685371272265911102294921875" lon="20.03028019331395626068115234375">
        <ele>2055.39990234375</ele>
        <time>2026-06-15T13:48:20.000Z</time>
        <extensions>
          <ns3:TrackPointExtension>
            <ns3:atemp>23.0</ns3:atemp>
          </ns3:TrackPointExtension>
        </extensions>
      </trkpt>
      <trkpt lat="42.5685371272265911102294921875" lon="20.03028019331395626068115234375">
        <ele>2055.39990234375</ele>
        <time>2026-06-15T13:48:21.000Z</time>
        <extensions>
          <ns3:TrackPointExtension>
            <ns3:atemp>23.0</ns3:atemp>
          </ns3:TrackPointExtension>
        </extensions>
      </trkpt>
      <trkpt lat="42.5685371272265911102294921875" lon="20.03028019331395626068115234375">
        <ele>2055.39990234375</ele>
        <time>2026-06-15T13:48:22.000Z</time>
        <extensions>
          <ns3:TrackPointExtension>
            <ns3:atemp>23.0</ns3:atemp>
          </ns3:TrackPointExtension>
        </extensions>
      </trkpt>
      <trkpt lat="42.5685371272265911102294921875" lon="20.03028019331395626068115234375">
        <ele>2055.39990234375</ele>
        <time>2026-06-15T13:48:23.000Z</time>
        <extensions>
          <ns3:TrackPointExtension>
            <ns3:atemp>23.0</ns3:atemp>
          </ns3:TrackPointExtension>
        </extensions>
      </trkpt>
      <trkpt lat="42.5685371272265911102294921875" lon="20.03028019331395626068115234375">
        <ele>2055.39990234375</ele>
        <time>2026-06-15T13:48:24.000Z</time>
        <extensions>
          <ns3:TrackPointExtension>
            <ns3:atemp>23.0</ns3:atemp>
          </ns3:TrackPointExtension>
        </extensions>
      </trkpt>
      <trkpt lat="42.5685371272265911102294921875" lon="20.03028019331395626068115234375">
        <ele>2055.39990234375</ele>
        <time>2026-06-15T13:48:25.000Z</time>
        <extensions>
          <ns3:TrackPointExtension>
            <ns3:atemp>23.0</ns3:atemp>
          </ns3:TrackPointExtension>
        </extensions>
      </trkpt>
      <trkpt lat="42.5685371272265911102294921875" lon="20.03028019331395626068115234375">
        <ele>2055.39990234375</ele>
        <time>2026-06-15T13:48:26.000Z</time>
        <extensions>
          <ns3:TrackPointExtension>
            <ns3:atemp>23.0</ns3:atemp>
          </ns3:TrackPointExtension>
        </extensions>
      </trkpt>
      <trkpt lat="42.5685371272265911102294921875" lon="20.03028019331395626068115234375">
        <ele>2055.39990234375</ele>
        <time>2026-06-15T13:48:27.000Z</time>
        <extensions>
          <ns3:TrackPointExtension>
            <ns3:atemp>23.0</ns3:atemp>
          </ns3:TrackPointExtension>
        </extensions>
      </trkpt>
      <trkpt lat="42.5685371272265911102294921875" lon="20.03028019331395626068115234375">
        <ele>2055.39990234375</ele>
        <time>2026-06-15T13:48:28.000Z</time>
        <extensions>
          <ns3:TrackPointExtension>
            <ns3:atemp>23.0</ns3:atemp>
          </ns3:TrackPointExtension>
        </extensions>
      </trkpt>
      <trkpt lat="42.5685371272265911102294921875" lon="20.03028019331395626068115234375">
        <ele>2055.39990234375</ele>
        <time>2026-06-15T13:48:29.000Z</time>
        <extensions>
          <ns3:TrackPointExtension>
            <ns3:atemp>23.0</ns3:atemp>
          </ns3:TrackPointExtension>
        </extensions>
      </trkpt>
      <trkpt lat="42.5685371272265911102294921875" lon="20.03028019331395626068115234375">
        <ele>2055.39990234375</ele>
        <time>2026-06-15T13:48:30.000Z</time>
        <extensions>
          <ns3:TrackPointExtension>
            <ns3:atemp>23.0</ns3:atemp>
          </ns3:TrackPointExtension>
        </extensions>
      </trkpt>
      <trkpt lat="42.5685371272265911102294921875" lon="20.03028019331395626068115234375">
        <ele>2055.39990234375</ele>
        <time>2026-06-15T13:48:31.000Z</time>
        <extensions>
          <ns3:TrackPointExtension>
            <ns3:atemp>23.0</ns3:atemp>
          </ns3:TrackPointExtension>
        </extensions>
      </trkpt>
      <trkpt lat="42.5685371272265911102294921875" lon="20.03028019331395626068115234375">
        <ele>2055.39990234375</ele>
        <time>2026-06-15T13:48:32.000Z</time>
        <extensions>
          <ns3:TrackPointExtension>
            <ns3:atemp>23.0</ns3:atemp>
          </ns3:TrackPointExtension>
        </extensions>
      </trkpt>
      <trkpt lat="42.5685371272265911102294921875" lon="20.03028019331395626068115234375">
        <ele>2055.39990234375</ele>
        <time>2026-06-15T13:48:33.000Z</time>
        <extensions>
          <ns3:TrackPointExtension>
            <ns3:atemp>23.0</ns3:atemp>
          </ns3:TrackPointExtension>
        </extensions>
      </trkpt>
      <trkpt lat="42.5685371272265911102294921875" lon="20.03028019331395626068115234375">
        <ele>2055.39990234375</ele>
        <time>2026-06-15T13:48:34.000Z</time>
        <extensions>
          <ns3:TrackPointExtension>
            <ns3:atemp>23.0</ns3:atemp>
          </ns3:TrackPointExtension>
        </extensions>
      </trkpt>
      <trkpt lat="42.5685371272265911102294921875" lon="20.03028019331395626068115234375">
        <ele>2055.39990234375</ele>
        <time>2026-06-15T13:48:35.000Z</time>
        <extensions>
          <ns3:TrackPointExtension>
            <ns3:atemp>23.0</ns3:atemp>
          </ns3:TrackPointExtension>
        </extensions>
      </trkpt>
      <trkpt lat="42.5685371272265911102294921875" lon="20.03028019331395626068115234375">
        <ele>2055.39990234375</ele>
        <time>2026-06-15T13:48:36.000Z</time>
        <extensions>
          <ns3:TrackPointExtension>
            <ns3:atemp>23.0</ns3:atemp>
          </ns3:TrackPointExtension>
        </extensions>
      </trkpt>
      <trkpt lat="42.5685371272265911102294921875" lon="20.03028019331395626068115234375">
        <ele>2055.39990234375</ele>
        <time>2026-06-15T13:48:37.000Z</time>
        <extensions>
          <ns3:TrackPointExtension>
            <ns3:atemp>23.0</ns3:atemp>
          </ns3:TrackPointExtension>
        </extensions>
      </trkpt>
      <trkpt lat="42.5685371272265911102294921875" lon="20.03028019331395626068115234375">
        <ele>2055.39990234375</ele>
        <time>2026-06-15T13:48:38.000Z</time>
        <extensions>
          <ns3:TrackPointExtension>
            <ns3:atemp>23.0</ns3:atemp>
          </ns3:TrackPointExtension>
        </extensions>
      </trkpt>
      <trkpt lat="42.5685371272265911102294921875" lon="20.03028019331395626068115234375">
        <ele>2055.39990234375</ele>
        <time>2026-06-15T13:48:39.000Z</time>
        <extensions>
          <ns3:TrackPointExtension>
            <ns3:atemp>23.0</ns3:atemp>
          </ns3:TrackPointExtension>
        </extensions>
      </trkpt>
      <trkpt lat="42.5685371272265911102294921875" lon="20.03028019331395626068115234375">
        <ele>2055.39990234375</ele>
        <time>2026-06-15T13:48:40.000Z</time>
        <extensions>
          <ns3:TrackPointExtension>
            <ns3:atemp>23.0</ns3:atemp>
          </ns3:TrackPointExtension>
        </extensions>
      </trkpt>
      <trkpt lat="42.5685371272265911102294921875" lon="20.03028019331395626068115234375">
        <ele>2055.39990234375</ele>
        <time>2026-06-15T13:48:41.000Z</time>
        <extensions>
          <ns3:TrackPointExtension>
            <ns3:atemp>23.0</ns3:atemp>
          </ns3:TrackPointExtension>
        </extensions>
      </trkpt>
      <trkpt lat="42.5685371272265911102294921875" lon="20.03028019331395626068115234375">
        <ele>2055.39990234375</ele>
        <time>2026-06-15T13:48:42.000Z</time>
        <extensions>
          <ns3:TrackPointExtension>
            <ns3:atemp>23.0</ns3:atemp>
          </ns3:TrackPointExtension>
        </extensions>
      </trkpt>
      <trkpt lat="42.5685371272265911102294921875" lon="20.03028019331395626068115234375">
        <ele>2055.39990234375</ele>
        <time>2026-06-15T13:48:43.000Z</time>
        <extensions>
          <ns3:TrackPointExtension>
            <ns3:atemp>23.0</ns3:atemp>
          </ns3:TrackPointExtension>
        </extensions>
      </trkpt>
      <trkpt lat="42.5685371272265911102294921875" lon="20.03028019331395626068115234375">
        <ele>2055.39990234375</ele>
        <time>2026-06-15T13:48:44.000Z</time>
        <extensions>
          <ns3:TrackPointExtension>
            <ns3:atemp>23.0</ns3:atemp>
          </ns3:TrackPointExtension>
        </extensions>
      </trkpt>
      <trkpt lat="42.5685371272265911102294921875" lon="20.03028019331395626068115234375">
        <ele>2055.39990234375</ele>
        <time>2026-06-15T13:48:45.000Z</time>
        <extensions>
          <ns3:TrackPointExtension>
            <ns3:atemp>23.0</ns3:atemp>
          </ns3:TrackPointExtension>
        </extensions>
      </trkpt>
      <trkpt lat="42.5685371272265911102294921875" lon="20.03028019331395626068115234375">
        <ele>2055.39990234375</ele>
        <time>2026-06-15T13:48:46.000Z</time>
        <extensions>
          <ns3:TrackPointExtension>
            <ns3:atemp>23.0</ns3:atemp>
          </ns3:TrackPointExtension>
        </extensions>
      </trkpt>
      <trkpt lat="42.5685371272265911102294921875" lon="20.03028019331395626068115234375">
        <ele>2055.39990234375</ele>
        <time>2026-06-15T13:48:47.000Z</time>
        <extensions>
          <ns3:TrackPointExtension>
            <ns3:atemp>23.0</ns3:atemp>
          </ns3:TrackPointExtension>
        </extensions>
      </trkpt>
      <trkpt lat="42.5685371272265911102294921875" lon="20.03028019331395626068115234375">
        <ele>2055.39990234375</ele>
        <time>2026-06-15T13:48:48.000Z</time>
        <extensions>
          <ns3:TrackPointExtension>
            <ns3:atemp>23.0</ns3:atemp>
          </ns3:TrackPointExtension>
        </extensions>
      </trkpt>
      <trkpt lat="42.5685371272265911102294921875" lon="20.03028019331395626068115234375">
        <ele>2055.39990234375</ele>
        <time>2026-06-15T13:48:49.000Z</time>
        <extensions>
          <ns3:TrackPointExtension>
            <ns3:atemp>23.0</ns3:atemp>
          </ns3:TrackPointExtension>
        </extensions>
      </trkpt>
      <trkpt lat="42.5685371272265911102294921875" lon="20.03028019331395626068115234375">
        <ele>2055.39990234375</ele>
        <time>2026-06-15T13:48:50.000Z</time>
        <extensions>
          <ns3:TrackPointExtension>
            <ns3:atemp>23.0</ns3:atemp>
          </ns3:TrackPointExtension>
        </extensions>
      </trkpt>
      <trkpt lat="42.5685371272265911102294921875" lon="20.03028019331395626068115234375">
        <ele>2055.39990234375</ele>
        <time>2026-06-15T13:48:51.000Z</time>
        <extensions>
          <ns3:TrackPointExtension>
            <ns3:atemp>23.0</ns3:atemp>
          </ns3:TrackPointExtension>
        </extensions>
      </trkpt>
      <trkpt lat="42.5685371272265911102294921875" lon="20.03028019331395626068115234375">
        <ele>2055.39990234375</ele>
        <time>2026-06-15T13:48:52.000Z</time>
        <extensions>
          <ns3:TrackPointExtension>
            <ns3:atemp>23.0</ns3:atemp>
          </ns3:TrackPointExtension>
        </extensions>
      </trkpt>
      <trkpt lat="42.5685371272265911102294921875" lon="20.03028019331395626068115234375">
        <ele>2055.39990234375</ele>
        <time>2026-06-15T13:48:53.000Z</time>
        <extensions>
          <ns3:TrackPointExtension>
            <ns3:atemp>23.0</ns3:atemp>
          </ns3:TrackPointExtension>
        </extensions>
      </trkpt>
      <trkpt lat="42.5685371272265911102294921875" lon="20.03028019331395626068115234375">
        <ele>2055.39990234375</ele>
        <time>2026-06-15T13:48:54.000Z</time>
        <extensions>
          <ns3:TrackPointExtension>
            <ns3:atemp>23.0</ns3:atemp>
          </ns3:TrackPointExtension>
        </extensions>
      </trkpt>
      <trkpt lat="42.5685371272265911102294921875" lon="20.03028019331395626068115234375">
        <ele>2055.39990234375</ele>
        <time>2026-06-15T13:48:55.000Z</time>
        <extensions>
          <ns3:TrackPointExtension>
            <ns3:atemp>23.0</ns3:atemp>
          </ns3:TrackPointExtension>
        </extensions>
      </trkpt>
      <trkpt lat="42.5685371272265911102294921875" lon="20.03028019331395626068115234375">
        <ele>2055.39990234375</ele>
        <time>2026-06-15T13:48:56.000Z</time>
        <extensions>
          <ns3:TrackPointExtension>
            <ns3:atemp>23.0</ns3:atemp>
          </ns3:TrackPointExtension>
        </extensions>
      </trkpt>
      <trkpt lat="42.5685371272265911102294921875" lon="20.03028019331395626068115234375">
        <ele>2055.39990234375</ele>
        <time>2026-06-15T13:48:57.000Z</time>
        <extensions>
          <ns3:TrackPointExtension>
            <ns3:atemp>23.0</ns3:atemp>
          </ns3:TrackPointExtension>
        </extensions>
      </trkpt>
      <trkpt lat="42.5685371272265911102294921875" lon="20.03028019331395626068115234375">
        <ele>2055.39990234375</ele>
        <time>2026-06-15T13:48:58.000Z</time>
        <extensions>
          <ns3:TrackPointExtension>
            <ns3:atemp>23.0</ns3:atemp>
          </ns3:TrackPointExtension>
        </extensions>
      </trkpt>
      <trkpt lat="42.5685371272265911102294921875" lon="20.03028019331395626068115234375">
        <ele>2055.39990234375</ele>
        <time>2026-06-15T13:48:59.000Z</time>
        <extensions>
          <ns3:TrackPointExtension>
            <ns3:atemp>23.0</ns3:atemp>
          </ns3:TrackPointExtension>
        </extensions>
      </trkpt>
      <trkpt lat="42.5685371272265911102294921875" lon="20.03028019331395626068115234375">
        <ele>2055.39990234375</ele>
        <time>2026-06-15T13:49:00.000Z</time>
        <extensions>
          <ns3:TrackPointExtension>
            <ns3:atemp>23.0</ns3:atemp>
          </ns3:TrackPointExtension>
        </extensions>
      </trkpt>
      <trkpt lat="42.5685371272265911102294921875" lon="20.03028019331395626068115234375">
        <ele>2055.39990234375</ele>
        <time>2026-06-15T13:49:01.000Z</time>
        <extensions>
          <ns3:TrackPointExtension>
            <ns3:atemp>23.0</ns3:atemp>
          </ns3:TrackPointExtension>
        </extensions>
      </trkpt>
      <trkpt lat="42.5685371272265911102294921875" lon="20.03028019331395626068115234375">
        <ele>2055.39990234375</ele>
        <time>2026-06-15T13:49:02.000Z</time>
        <extensions>
          <ns3:TrackPointExtension>
            <ns3:atemp>23.0</ns3:atemp>
          </ns3:TrackPointExtension>
        </extensions>
      </trkpt>
      <trkpt lat="42.5685371272265911102294921875" lon="20.03028019331395626068115234375">
        <ele>2055.39990234375</ele>
        <time>2026-06-15T13:49:03.000Z</time>
        <extensions>
          <ns3:TrackPointExtension>
            <ns3:atemp>23.0</ns3:atemp>
          </ns3:TrackPointExtension>
        </extensions>
      </trkpt>
      <trkpt lat="42.5685371272265911102294921875" lon="20.03028019331395626068115234375">
        <ele>2055.39990234375</ele>
        <time>2026-06-15T13:49:04.000Z</time>
        <extensions>
          <ns3:TrackPointExtension>
            <ns3:atemp>23.0</ns3:atemp>
          </ns3:TrackPointExtension>
        </extensions>
      </trkpt>
      <trkpt lat="42.5685371272265911102294921875" lon="20.03028019331395626068115234375">
        <ele>2055.39990234375</ele>
        <time>2026-06-15T13:49:05.000Z</time>
        <extensions>
          <ns3:TrackPointExtension>
            <ns3:atemp>23.0</ns3:atemp>
          </ns3:TrackPointExtension>
        </extensions>
      </trkpt>
      <trkpt lat="42.5685371272265911102294921875" lon="20.03028019331395626068115234375">
        <ele>2055.39990234375</ele>
        <time>2026-06-15T13:49:06.000Z</time>
        <extensions>
          <ns3:TrackPointExtension>
            <ns3:atemp>23.0</ns3:atemp>
          </ns3:TrackPointExtension>
        </extensions>
      </trkpt>
      <trkpt lat="42.5685371272265911102294921875" lon="20.03028019331395626068115234375">
        <ele>2055.39990234375</ele>
        <time>2026-06-15T13:49:07.000Z</time>
        <extensions>
          <ns3:TrackPointExtension>
            <ns3:atemp>23.0</ns3:atemp>
          </ns3:TrackPointExtension>
        </extensions>
      </trkpt>
      <trkpt lat="42.5685371272265911102294921875" lon="20.03028019331395626068115234375">
        <ele>2055.39990234375</ele>
        <time>2026-06-15T13:49:08.000Z</time>
        <extensions>
          <ns3:TrackPointExtension>
            <ns3:atemp>23.0</ns3:atemp>
          </ns3:TrackPointExtension>
        </extensions>
      </trkpt>
      <trkpt lat="42.5685371272265911102294921875" lon="20.03028019331395626068115234375">
        <ele>2055.39990234375</ele>
        <time>2026-06-15T13:49:09.000Z</time>
        <extensions>
          <ns3:TrackPointExtension>
            <ns3:atemp>23.0</ns3:atemp>
          </ns3:TrackPointExtension>
        </extensions>
      </trkpt>
      <trkpt lat="42.5685371272265911102294921875" lon="20.03028019331395626068115234375">
        <ele>2055.39990234375</ele>
        <time>2026-06-15T13:49:10.000Z</time>
        <extensions>
          <ns3:TrackPointExtension>
            <ns3:atemp>23.0</ns3:atemp>
          </ns3:TrackPointExtension>
        </extensions>
      </trkpt>
      <trkpt lat="42.5685371272265911102294921875" lon="20.03028019331395626068115234375">
        <ele>2055.39990234375</ele>
        <time>2026-06-15T13:49:11.000Z</time>
        <extensions>
          <ns3:TrackPointExtension>
            <ns3:atemp>23.0</ns3:atemp>
          </ns3:TrackPointExtension>
        </extensions>
      </trkpt>
      <trkpt lat="42.5685371272265911102294921875" lon="20.03028019331395626068115234375">
        <ele>2055.39990234375</ele>
        <time>2026-06-15T13:49:12.000Z</time>
        <extensions>
          <ns3:TrackPointExtension>
            <ns3:atemp>23.0</ns3:atemp>
          </ns3:TrackPointExtension>
        </extensions>
      </trkpt>
      <trkpt lat="42.5685371272265911102294921875" lon="20.03028019331395626068115234375">
        <ele>2055.39990234375</ele>
        <time>2026-06-15T13:49:13.000Z</time>
        <extensions>
          <ns3:TrackPointExtension>
            <ns3:atemp>23.0</ns3:atemp>
          </ns3:TrackPointExtension>
        </extensions>
      </trkpt>
      <trkpt lat="42.5685371272265911102294921875" lon="20.03028019331395626068115234375">
        <ele>2055.39990234375</ele>
        <time>2026-06-15T13:49:14.000Z</time>
        <extensions>
          <ns3:TrackPointExtension>
            <ns3:atemp>23.0</ns3:atemp>
          </ns3:TrackPointExtension>
        </extensions>
      </trkpt>
      <trkpt lat="42.5685371272265911102294921875" lon="20.03028019331395626068115234375">
        <ele>2055.39990234375</ele>
        <time>2026-06-15T13:49:15.000Z</time>
        <extensions>
          <ns3:TrackPointExtension>
            <ns3:atemp>23.0</ns3:atemp>
          </ns3:TrackPointExtension>
        </extensions>
      </trkpt>
      <trkpt lat="42.5685371272265911102294921875" lon="20.03028019331395626068115234375">
        <ele>2055.39990234375</ele>
        <time>2026-06-15T13:49:16.000Z</time>
        <extensions>
          <ns3:TrackPointExtension>
            <ns3:atemp>23.0</ns3:atemp>
          </ns3:TrackPointExtension>
        </extensions>
      </trkpt>
      <trkpt lat="42.5685371272265911102294921875" lon="20.03028019331395626068115234375">
        <ele>2055.39990234375</ele>
        <time>2026-06-15T13:49:17.000Z</time>
        <extensions>
          <ns3:TrackPointExtension>
            <ns3:atemp>23.0</ns3:atemp>
          </ns3:TrackPointExtension>
        </extensions>
      </trkpt>
      <trkpt lat="42.5685371272265911102294921875" lon="20.03028019331395626068115234375">
        <ele>2055.39990234375</ele>
        <time>2026-06-15T13:49:18.000Z</time>
        <extensions>
          <ns3:TrackPointExtension>
            <ns3:atemp>23.0</ns3:atemp>
          </ns3:TrackPointExtension>
        </extensions>
      </trkpt>
      <trkpt lat="42.5685371272265911102294921875" lon="20.03028019331395626068115234375">
        <ele>2055.39990234375</ele>
        <time>2026-06-15T13:49:19.000Z</time>
        <extensions>
          <ns3:TrackPointExtension>
            <ns3:atemp>23.0</ns3:atemp>
          </ns3:TrackPointExtension>
        </extensions>
      </trkpt>
      <trkpt lat="42.5685371272265911102294921875" lon="20.03028019331395626068115234375">
        <ele>2055.39990234375</ele>
        <time>2026-06-15T13:49:20.000Z</time>
        <extensions>
          <ns3:TrackPointExtension>
            <ns3:atemp>23.0</ns3:atemp>
          </ns3:TrackPointExtension>
        </extensions>
      </trkpt>
      <trkpt lat="42.5685371272265911102294921875" lon="20.03028019331395626068115234375">
        <ele>2055.39990234375</ele>
        <time>2026-06-15T13:49:21.000Z</time>
        <extensions>
          <ns3:TrackPointExtension>
            <ns3:atemp>23.0</ns3:atemp>
          </ns3:TrackPointExtension>
        </extensions>
      </trkpt>
      <trkpt lat="42.5685371272265911102294921875" lon="20.03028019331395626068115234375">
        <ele>2055.39990234375</ele>
        <time>2026-06-15T13:49:22.000Z</time>
        <extensions>
          <ns3:TrackPointExtension>
            <ns3:atemp>23.0</ns3:atemp>
          </ns3:TrackPointExtension>
        </extensions>
      </trkpt>
      <trkpt lat="42.5685371272265911102294921875" lon="20.03028019331395626068115234375">
        <ele>2055.39990234375</ele>
        <time>2026-06-15T13:49:23.000Z</time>
        <extensions>
          <ns3:TrackPointExtension>
            <ns3:atemp>23.0</ns3:atemp>
          </ns3:TrackPointExtension>
        </extensions>
      </trkpt>
      <trkpt lat="42.5685371272265911102294921875" lon="20.03028019331395626068115234375">
        <ele>2055.39990234375</ele>
        <time>2026-06-15T13:49:24.000Z</time>
        <extensions>
          <ns3:TrackPointExtension>
            <ns3:atemp>23.0</ns3:atemp>
          </ns3:TrackPointExtension>
        </extensions>
      </trkpt>
      <trkpt lat="42.5685371272265911102294921875" lon="20.03028019331395626068115234375">
        <ele>2055.39990234375</ele>
        <time>2026-06-15T13:49:25.000Z</time>
        <extensions>
          <ns3:TrackPointExtension>
            <ns3:atemp>23.0</ns3:atemp>
          </ns3:TrackPointExtension>
        </extensions>
      </trkpt>
      <trkpt lat="42.5685371272265911102294921875" lon="20.03028019331395626068115234375">
        <ele>2055.39990234375</ele>
        <time>2026-06-15T13:49:26.000Z</time>
        <extensions>
          <ns3:TrackPointExtension>
            <ns3:atemp>23.0</ns3:atemp>
          </ns3:TrackPointExtension>
        </extensions>
      </trkpt>
      <trkpt lat="42.5685371272265911102294921875" lon="20.03028019331395626068115234375">
        <ele>2055.39990234375</ele>
        <time>2026-06-15T13:49:27.000Z</time>
        <extensions>
          <ns3:TrackPointExtension>
            <ns3:atemp>23.0</ns3:atemp>
          </ns3:TrackPointExtension>
        </extensions>
      </trkpt>
      <trkpt lat="42.5685371272265911102294921875" lon="20.03028019331395626068115234375">
        <ele>2055.39990234375</ele>
        <time>2026-06-15T13:49:28.000Z</time>
        <extensions>
          <ns3:TrackPointExtension>
            <ns3:atemp>23.0</ns3:atemp>
          </ns3:TrackPointExtension>
        </extensions>
      </trkpt>
      <trkpt lat="42.5685371272265911102294921875" lon="20.03028019331395626068115234375">
        <ele>2055.39990234375</ele>
        <time>2026-06-15T13:49:29.000Z</time>
        <extensions>
          <ns3:TrackPointExtension>
            <ns3:atemp>23.0</ns3:atemp>
          </ns3:TrackPointExtension>
        </extensions>
      </trkpt>
      <trkpt lat="42.5685371272265911102294921875" lon="20.03028019331395626068115234375">
        <ele>2055.39990234375</ele>
        <time>2026-06-15T13:49:30.000Z</time>
        <extensions>
          <ns3:TrackPointExtension>
            <ns3:atemp>23.0</ns3:atemp>
          </ns3:TrackPointExtension>
        </extensions>
      </trkpt>
      <trkpt lat="42.5685371272265911102294921875" lon="20.03028019331395626068115234375">
        <ele>2055.39990234375</ele>
        <time>2026-06-15T13:49:31.000Z</time>
        <extensions>
          <ns3:TrackPointExtension>
            <ns3:atemp>23.0</ns3:atemp>
          </ns3:TrackPointExtension>
        </extensions>
      </trkpt>
      <trkpt lat="42.5685371272265911102294921875" lon="20.03028019331395626068115234375">
        <ele>2055.39990234375</ele>
        <time>2026-06-15T13:49:32.000Z</time>
        <extensions>
          <ns3:TrackPointExtension>
            <ns3:atemp>23.0</ns3:atemp>
          </ns3:TrackPointExtension>
        </extensions>
      </trkpt>
      <trkpt lat="42.5685371272265911102294921875" lon="20.03028019331395626068115234375">
        <ele>2055.39990234375</ele>
        <time>2026-06-15T13:49:33.000Z</time>
        <extensions>
          <ns3:TrackPointExtension>
            <ns3:atemp>23.0</ns3:atemp>
          </ns3:TrackPointExtension>
        </extensions>
      </trkpt>
      <trkpt lat="42.5685371272265911102294921875" lon="20.03028019331395626068115234375">
        <ele>2055.39990234375</ele>
        <time>2026-06-15T13:49:34.000Z</time>
        <extensions>
          <ns3:TrackPointExtension>
            <ns3:atemp>23.0</ns3:atemp>
          </ns3:TrackPointExtension>
        </extensions>
      </trkpt>
      <trkpt lat="42.5685371272265911102294921875" lon="20.03028019331395626068115234375">
        <ele>2055.39990234375</ele>
        <time>2026-06-15T13:49:35.000Z</time>
        <extensions>
          <ns3:TrackPointExtension>
            <ns3:atemp>23.0</ns3:atemp>
          </ns3:TrackPointExtension>
        </extensions>
      </trkpt>
      <trkpt lat="42.5685371272265911102294921875" lon="20.03028019331395626068115234375">
        <ele>2055.39990234375</ele>
        <time>2026-06-15T13:49:36.000Z</time>
        <extensions>
          <ns3:TrackPointExtension>
            <ns3:atemp>23.0</ns3:atemp>
          </ns3:TrackPointExtension>
        </extensions>
      </trkpt>
      <trkpt lat="42.5685371272265911102294921875" lon="20.03028019331395626068115234375">
        <ele>2055.39990234375</ele>
        <time>2026-06-15T13:49:37.000Z</time>
        <extensions>
          <ns3:TrackPointExtension>
            <ns3:atemp>23.0</ns3:atemp>
          </ns3:TrackPointExtension>
        </extensions>
      </trkpt>
      <trkpt lat="42.5685371272265911102294921875" lon="20.03028019331395626068115234375">
        <ele>2055.39990234375</ele>
        <time>2026-06-15T13:49:38.000Z</time>
        <extensions>
          <ns3:TrackPointExtension>
            <ns3:atemp>23.0</ns3:atemp>
          </ns3:TrackPointExtension>
        </extensions>
      </trkpt>
      <trkpt lat="42.5685371272265911102294921875" lon="20.03028019331395626068115234375">
        <ele>2055.39990234375</ele>
        <time>2026-06-15T13:49:39.000Z</time>
        <extensions>
          <ns3:TrackPointExtension>
            <ns3:atemp>23.0</ns3:atemp>
          </ns3:TrackPointExtension>
        </extensions>
      </trkpt>
      <trkpt lat="42.5685371272265911102294921875" lon="20.03028019331395626068115234375">
        <ele>2055.39990234375</ele>
        <time>2026-06-15T13:49:40.000Z</time>
        <extensions>
          <ns3:TrackPointExtension>
            <ns3:atemp>23.0</ns3:atemp>
          </ns3:TrackPointExtension>
        </extensions>
      </trkpt>
      <trkpt lat="42.5685371272265911102294921875" lon="20.03028019331395626068115234375">
        <ele>2055.39990234375</ele>
        <time>2026-06-15T13:49:41.000Z</time>
        <extensions>
          <ns3:TrackPointExtension>
            <ns3:atemp>23.0</ns3:atemp>
          </ns3:TrackPointExtension>
        </extensions>
      </trkpt>
      <trkpt lat="42.5685371272265911102294921875" lon="20.03028019331395626068115234375">
        <ele>2055.39990234375</ele>
        <time>2026-06-15T13:49:42.000Z</time>
        <extensions>
          <ns3:TrackPointExtension>
            <ns3:atemp>23.0</ns3:atemp>
          </ns3:TrackPointExtension>
        </extensions>
      </trkpt>
      <trkpt lat="42.5685371272265911102294921875" lon="20.03028019331395626068115234375">
        <ele>2055.39990234375</ele>
        <time>2026-06-15T13:49:43.000Z</time>
        <extensions>
          <ns3:TrackPointExtension>
            <ns3:atemp>23.0</ns3:atemp>
          </ns3:TrackPointExtension>
        </extensions>
      </trkpt>
      <trkpt lat="42.5685371272265911102294921875" lon="20.03028019331395626068115234375">
        <ele>2055.39990234375</ele>
        <time>2026-06-15T13:49:44.000Z</time>
        <extensions>
          <ns3:TrackPointExtension>
            <ns3:atemp>23.0</ns3:atemp>
          </ns3:TrackPointExtension>
        </extensions>
      </trkpt>
      <trkpt lat="42.5685371272265911102294921875" lon="20.03028019331395626068115234375">
        <ele>2055.39990234375</ele>
        <time>2026-06-15T13:49:45.000Z</time>
        <extensions>
          <ns3:TrackPointExtension>
            <ns3:atemp>23.0</ns3:atemp>
          </ns3:TrackPointExtension>
        </extensions>
      </trkpt>
      <trkpt lat="42.5685371272265911102294921875" lon="20.03028019331395626068115234375">
        <ele>2055.39990234375</ele>
        <time>2026-06-15T13:49:46.000Z</time>
        <extensions>
          <ns3:TrackPointExtension>
            <ns3:atemp>23.0</ns3:atemp>
          </ns3:TrackPointExtension>
        </extensions>
      </trkpt>
      <trkpt lat="42.5685371272265911102294921875" lon="20.03028019331395626068115234375">
        <ele>2055.39990234375</ele>
        <time>2026-06-15T13:49:47.000Z</time>
        <extensions>
          <ns3:TrackPointExtension>
            <ns3:atemp>23.0</ns3:atemp>
          </ns3:TrackPointExtension>
        </extensions>
      </trkpt>
      <trkpt lat="42.5685371272265911102294921875" lon="20.03028019331395626068115234375">
        <ele>2055.39990234375</ele>
        <time>2026-06-15T13:49:48.000Z</time>
        <extensions>
          <ns3:TrackPointExtension>
            <ns3:atemp>23.0</ns3:atemp>
          </ns3:TrackPointExtension>
        </extensions>
      </trkpt>
      <trkpt lat="42.5685371272265911102294921875" lon="20.03028019331395626068115234375">
        <ele>2055.39990234375</ele>
        <time>2026-06-15T13:49:49.000Z</time>
        <extensions>
          <ns3:TrackPointExtension>
            <ns3:atemp>23.0</ns3:atemp>
          </ns3:TrackPointExtension>
        </extensions>
      </trkpt>
      <trkpt lat="42.5685371272265911102294921875" lon="20.03028019331395626068115234375">
        <ele>2055.39990234375</ele>
        <time>2026-06-15T13:49:50.000Z</time>
        <extensions>
          <ns3:TrackPointExtension>
            <ns3:atemp>23.0</ns3:atemp>
          </ns3:TrackPointExtension>
        </extensions>
      </trkpt>
      <trkpt lat="42.5685371272265911102294921875" lon="20.03028019331395626068115234375">
        <ele>2055.39990234375</ele>
        <time>2026-06-15T13:49:51.000Z</time>
        <extensions>
          <ns3:TrackPointExtension>
            <ns3:atemp>23.0</ns3:atemp>
          </ns3:TrackPointExtension>
        </extensions>
      </trkpt>
      <trkpt lat="42.5685371272265911102294921875" lon="20.03028019331395626068115234375">
        <ele>2055.39990234375</ele>
        <time>2026-06-15T13:49:52.000Z</time>
        <extensions>
          <ns3:TrackPointExtension>
            <ns3:atemp>23.0</ns3:atemp>
          </ns3:TrackPointExtension>
        </extensions>
      </trkpt>
      <trkpt lat="42.5685371272265911102294921875" lon="20.03028019331395626068115234375">
        <ele>2055.39990234375</ele>
        <time>2026-06-15T13:49:53.000Z</time>
        <extensions>
          <ns3:TrackPointExtension>
            <ns3:atemp>23.0</ns3:atemp>
          </ns3:TrackPointExtension>
        </extensions>
      </trkpt>
      <trkpt lat="42.5685371272265911102294921875" lon="20.03028019331395626068115234375">
        <ele>2055.39990234375</ele>
        <time>2026-06-15T13:49:54.000Z</time>
        <extensions>
          <ns3:TrackPointExtension>
            <ns3:atemp>23.0</ns3:atemp>
          </ns3:TrackPointExtension>
        </extensions>
      </trkpt>
      <trkpt lat="42.5685371272265911102294921875" lon="20.03028019331395626068115234375">
        <ele>2055.39990234375</ele>
        <time>2026-06-15T13:49:55.000Z</time>
        <extensions>
          <ns3:TrackPointExtension>
            <ns3:atemp>23.0</ns3:atemp>
          </ns3:TrackPointExtension>
        </extensions>
      </trkpt>
      <trkpt lat="42.5685371272265911102294921875" lon="20.03028019331395626068115234375">
        <ele>2055.39990234375</ele>
        <time>2026-06-15T13:49:56.000Z</time>
        <extensions>
          <ns3:TrackPointExtension>
            <ns3:atemp>23.0</ns3:atemp>
          </ns3:TrackPointExtension>
        </extensions>
      </trkpt>
      <trkpt lat="42.5685371272265911102294921875" lon="20.03028019331395626068115234375">
        <ele>2055.39990234375</ele>
        <time>2026-06-15T13:49:57.000Z</time>
        <extensions>
          <ns3:TrackPointExtension>
            <ns3:atemp>23.0</ns3:atemp>
          </ns3:TrackPointExtension>
        </extensions>
      </trkpt>
      <trkpt lat="42.5685371272265911102294921875" lon="20.03028019331395626068115234375">
        <ele>2055.39990234375</ele>
        <time>2026-06-15T13:49:58.000Z</time>
        <extensions>
          <ns3:TrackPointExtension>
            <ns3:atemp>23.0</ns3:atemp>
          </ns3:TrackPointExtension>
        </extensions>
      </trkpt>
      <trkpt lat="42.5685371272265911102294921875" lon="20.03028019331395626068115234375">
        <ele>2055.39990234375</ele>
        <time>2026-06-15T13:49:59.000Z</time>
        <extensions>
          <ns3:TrackPointExtension>
            <ns3:atemp>23.0</ns3:atemp>
          </ns3:TrackPointExtension>
        </extensions>
      </trkpt>
      <trkpt lat="42.5685371272265911102294921875" lon="20.03028019331395626068115234375">
        <ele>2055.39990234375</ele>
        <time>2026-06-15T13:50:00.000Z</time>
        <extensions>
          <ns3:TrackPointExtension>
            <ns3:atemp>23.0</ns3:atemp>
          </ns3:TrackPointExtension>
        </extensions>
      </trkpt>
      <trkpt lat="42.5685371272265911102294921875" lon="20.03028019331395626068115234375">
        <ele>2055.39990234375</ele>
        <time>2026-06-15T13:50:01.000Z</time>
        <extensions>
          <ns3:TrackPointExtension>
            <ns3:atemp>23.0</ns3:atemp>
          </ns3:TrackPointExtension>
        </extensions>
      </trkpt>
      <trkpt lat="42.5685371272265911102294921875" lon="20.03028019331395626068115234375">
        <ele>2055.39990234375</ele>
        <time>2026-06-15T13:50:02.000Z</time>
        <extensions>
          <ns3:TrackPointExtension>
            <ns3:atemp>23.0</ns3:atemp>
          </ns3:TrackPointExtension>
        </extensions>
      </trkpt>
      <trkpt lat="42.5685371272265911102294921875" lon="20.03028019331395626068115234375">
        <ele>2055.39990234375</ele>
        <time>2026-06-15T13:50:03.000Z</time>
        <extensions>
          <ns3:TrackPointExtension>
            <ns3:atemp>23.0</ns3:atemp>
          </ns3:TrackPointExtension>
        </extensions>
      </trkpt>
      <trkpt lat="42.5685371272265911102294921875" lon="20.03028019331395626068115234375">
        <ele>2055.39990234375</ele>
        <time>2026-06-15T13:50:04.000Z</time>
        <extensions>
          <ns3:TrackPointExtension>
            <ns3:atemp>23.0</ns3:atemp>
          </ns3:TrackPointExtension>
        </extensions>
      </trkpt>
      <trkpt lat="42.5685371272265911102294921875" lon="20.03028019331395626068115234375">
        <ele>2055.39990234375</ele>
        <time>2026-06-15T13:50:05.000Z</time>
        <extensions>
          <ns3:TrackPointExtension>
            <ns3:atemp>23.0</ns3:atemp>
          </ns3:TrackPointExtension>
        </extensions>
      </trkpt>
      <trkpt lat="42.5685371272265911102294921875" lon="20.03028019331395626068115234375">
        <ele>2055.39990234375</ele>
        <time>2026-06-15T13:50:06.000Z</time>
        <extensions>
          <ns3:TrackPointExtension>
            <ns3:atemp>23.0</ns3:atemp>
          </ns3:TrackPointExtension>
        </extensions>
      </trkpt>
      <trkpt lat="42.5685371272265911102294921875" lon="20.03028019331395626068115234375">
        <ele>2055.39990234375</ele>
        <time>2026-06-15T13:50:07.000Z</time>
        <extensions>
          <ns3:TrackPointExtension>
            <ns3:atemp>23.0</ns3:atemp>
          </ns3:TrackPointExtension>
        </extensions>
      </trkpt>
      <trkpt lat="42.5685371272265911102294921875" lon="20.03028019331395626068115234375">
        <ele>2055.39990234375</ele>
        <time>2026-06-15T13:50:08.000Z</time>
        <extensions>
          <ns3:TrackPointExtension>
            <ns3:atemp>23.0</ns3:atemp>
          </ns3:TrackPointExtension>
        </extensions>
      </trkpt>
      <trkpt lat="42.5685371272265911102294921875" lon="20.03028019331395626068115234375">
        <ele>2055.39990234375</ele>
        <time>2026-06-15T13:50:09.000Z</time>
        <extensions>
          <ns3:TrackPointExtension>
            <ns3:atemp>23.0</ns3:atemp>
          </ns3:TrackPointExtension>
        </extensions>
      </trkpt>
      <trkpt lat="42.5685371272265911102294921875" lon="20.03028019331395626068115234375">
        <ele>2055.39990234375</ele>
        <time>2026-06-15T13:50:10.000Z</time>
        <extensions>
          <ns3:TrackPointExtension>
            <ns3:atemp>23.0</ns3:atemp>
          </ns3:TrackPointExtension>
        </extensions>
      </trkpt>
      <trkpt lat="42.5685371272265911102294921875" lon="20.03028019331395626068115234375">
        <ele>2055.39990234375</ele>
        <time>2026-06-15T13:50:11.000Z</time>
        <extensions>
          <ns3:TrackPointExtension>
            <ns3:atemp>23.0</ns3:atemp>
          </ns3:TrackPointExtension>
        </extensions>
      </trkpt>
      <trkpt lat="42.5685371272265911102294921875" lon="20.03028019331395626068115234375">
        <ele>2055.39990234375</ele>
        <time>2026-06-15T13:50:12.000Z</time>
        <extensions>
          <ns3:TrackPointExtension>
            <ns3:atemp>23.0</ns3:atemp>
          </ns3:TrackPointExtension>
        </extensions>
      </trkpt>
      <trkpt lat="42.5685371272265911102294921875" lon="20.03028019331395626068115234375">
        <ele>2055.39990234375</ele>
        <time>2026-06-15T13:50:13.000Z</time>
        <extensions>
          <ns3:TrackPointExtension>
            <ns3:atemp>23.0</ns3:atemp>
          </ns3:TrackPointExtension>
        </extensions>
      </trkpt>
      <trkpt lat="42.5685371272265911102294921875" lon="20.03028019331395626068115234375">
        <ele>2055.39990234375</ele>
        <time>2026-06-15T13:50:14.000Z</time>
        <extensions>
          <ns3:TrackPointExtension>
            <ns3:atemp>23.0</ns3:atemp>
          </ns3:TrackPointExtension>
        </extensions>
      </trkpt>
      <trkpt lat="42.5685371272265911102294921875" lon="20.03028019331395626068115234375">
        <ele>2055.39990234375</ele>
        <time>2026-06-15T13:50:15.000Z</time>
        <extensions>
          <ns3:TrackPointExtension>
            <ns3:atemp>23.0</ns3:atemp>
          </ns3:TrackPointExtension>
        </extensions>
      </trkpt>
      <trkpt lat="42.5685371272265911102294921875" lon="20.03028019331395626068115234375">
        <ele>2055.39990234375</ele>
        <time>2026-06-15T13:50:16.000Z</time>
        <extensions>
          <ns3:TrackPointExtension>
            <ns3:atemp>23.0</ns3:atemp>
          </ns3:TrackPointExtension>
        </extensions>
      </trkpt>
      <trkpt lat="42.5685371272265911102294921875" lon="20.03028019331395626068115234375">
        <ele>2055.39990234375</ele>
        <time>2026-06-15T13:50:17.000Z</time>
        <extensions>
          <ns3:TrackPointExtension>
            <ns3:atemp>23.0</ns3:atemp>
          </ns3:TrackPointExtension>
        </extensions>
      </trkpt>
      <trkpt lat="42.5685371272265911102294921875" lon="20.03028019331395626068115234375">
        <ele>2055.39990234375</ele>
        <time>2026-06-15T13:50:18.000Z</time>
        <extensions>
          <ns3:TrackPointExtension>
            <ns3:atemp>23.0</ns3:atemp>
          </ns3:TrackPointExtension>
        </extensions>
      </trkpt>
      <trkpt lat="42.5685371272265911102294921875" lon="20.03028019331395626068115234375">
        <ele>2055.39990234375</ele>
        <time>2026-06-15T13:50:19.000Z</time>
        <extensions>
          <ns3:TrackPointExtension>
            <ns3:atemp>23.0</ns3:atemp>
          </ns3:TrackPointExtension>
        </extensions>
      </trkpt>
      <trkpt lat="42.5685371272265911102294921875" lon="20.03028019331395626068115234375">
        <ele>2055.39990234375</ele>
        <time>2026-06-15T13:50:20.000Z</time>
        <extensions>
          <ns3:TrackPointExtension>
            <ns3:atemp>23.0</ns3:atemp>
          </ns3:TrackPointExtension>
        </extensions>
      </trkpt>
      <trkpt lat="42.5685371272265911102294921875" lon="20.03028019331395626068115234375">
        <ele>2055.39990234375</ele>
        <time>2026-06-15T13:50:21.000Z</time>
        <extensions>
          <ns3:TrackPointExtension>
            <ns3:atemp>23.0</ns3:atemp>
          </ns3:TrackPointExtension>
        </extensions>
      </trkpt>
      <trkpt lat="42.5685371272265911102294921875" lon="20.03028019331395626068115234375">
        <ele>2055.39990234375</ele>
        <time>2026-06-15T13:50:22.000Z</time>
        <extensions>
          <ns3:TrackPointExtension>
            <ns3:atemp>23.0</ns3:atemp>
          </ns3:TrackPointExtension>
        </extensions>
      </trkpt>
      <trkpt lat="42.5685371272265911102294921875" lon="20.03028019331395626068115234375">
        <ele>2055.39990234375</ele>
        <time>2026-06-15T13:50:23.000Z</time>
        <extensions>
          <ns3:TrackPointExtension>
            <ns3:atemp>23.0</ns3:atemp>
          </ns3:TrackPointExtension>
        </extensions>
      </trkpt>
      <trkpt lat="42.5685371272265911102294921875" lon="20.03028019331395626068115234375">
        <ele>2055.39990234375</ele>
        <time>2026-06-15T13:50:24.000Z</time>
        <extensions>
          <ns3:TrackPointExtension>
            <ns3:atemp>23.0</ns3:atemp>
          </ns3:TrackPointExtension>
        </extensions>
      </trkpt>
      <trkpt lat="42.5685371272265911102294921875" lon="20.03028019331395626068115234375">
        <ele>2055.39990234375</ele>
        <time>2026-06-15T13:50:25.000Z</time>
        <extensions>
          <ns3:TrackPointExtension>
            <ns3:atemp>23.0</ns3:atemp>
          </ns3:TrackPointExtension>
        </extensions>
      </trkpt>
      <trkpt lat="42.5685371272265911102294921875" lon="20.03028019331395626068115234375">
        <ele>2055.39990234375</ele>
        <time>2026-06-15T13:50:26.000Z</time>
        <extensions>
          <ns3:TrackPointExtension>
            <ns3:atemp>23.0</ns3:atemp>
          </ns3:TrackPointExtension>
        </extensions>
      </trkpt>
      <trkpt lat="42.5685371272265911102294921875" lon="20.03028019331395626068115234375">
        <ele>2055.39990234375</ele>
        <time>2026-06-15T13:50:27.000Z</time>
        <extensions>
          <ns3:TrackPointExtension>
            <ns3:atemp>23.0</ns3:atemp>
          </ns3:TrackPointExtension>
        </extensions>
      </trkpt>
      <trkpt lat="42.5685371272265911102294921875" lon="20.03028019331395626068115234375">
        <ele>2055.39990234375</ele>
        <time>2026-06-15T13:50:28.000Z</time>
        <extensions>
          <ns3:TrackPointExtension>
            <ns3:atemp>23.0</ns3:atemp>
          </ns3:TrackPointExtension>
        </extensions>
      </trkpt>
      <trkpt lat="42.5685371272265911102294921875" lon="20.03028019331395626068115234375">
        <ele>2055.39990234375</ele>
        <time>2026-06-15T13:50:29.000Z</time>
        <extensions>
          <ns3:TrackPointExtension>
            <ns3:atemp>23.0</ns3:atemp>
          </ns3:TrackPointExtension>
        </extensions>
      </trkpt>
      <trkpt lat="42.5685371272265911102294921875" lon="20.03028019331395626068115234375">
        <ele>2055.39990234375</ele>
        <time>2026-06-15T13:50:30.000Z</time>
        <extensions>
          <ns3:TrackPointExtension>
            <ns3:atemp>23.0</ns3:atemp>
          </ns3:TrackPointExtension>
        </extensions>
      </trkpt>
      <trkpt lat="42.5685371272265911102294921875" lon="20.03028019331395626068115234375">
        <ele>2055.39990234375</ele>
        <time>2026-06-15T13:50:31.000Z</time>
        <extensions>
          <ns3:TrackPointExtension>
            <ns3:atemp>23.0</ns3:atemp>
          </ns3:TrackPointExtension>
        </extensions>
      </trkpt>
      <trkpt lat="42.5685371272265911102294921875" lon="20.03028019331395626068115234375">
        <ele>2055.39990234375</ele>
        <time>2026-06-15T13:50:32.000Z</time>
        <extensions>
          <ns3:TrackPointExtension>
            <ns3:atemp>23.0</ns3:atemp>
          </ns3:TrackPointExtension>
        </extensions>
      </trkpt>
      <trkpt lat="42.56854509003460407257080078125" lon="20.03027533181011676788330078125">
        <ele>2055.39990234375</ele>
        <time>2026-06-15T13:50:33.000Z</time>
        <extensions>
          <ns3:TrackPointExtension>
            <ns3:atemp>23.0</ns3:atemp>
          </ns3:TrackPointExtension>
        </extensions>
      </trkpt>
      <trkpt lat="42.56855271756649017333984375" lon="20.030253790318965911865234375">
        <ele>2055.39990234375</ele>
        <time>2026-06-15T13:50:34.000Z</time>
        <extensions>
          <ns3:TrackPointExtension>
            <ns3:atemp>23.0</ns3:atemp>
          </ns3:TrackPointExtension>
        </extensions>
      </trkpt>
      <trkpt lat="42.56856051273643970489501953125" lon="20.03023476339876651763916015625">
        <ele>2055.800048828125</ele>
        <time>2026-06-15T13:50:35.000Z</time>
        <extensions>
          <ns3:TrackPointExtension>
            <ns3:atemp>23.0</ns3:atemp>
          </ns3:TrackPointExtension>
        </extensions>
      </trkpt>
      <trkpt lat="42.56857140921056270599365234375" lon="20.030233003199100494384765625">
        <ele>2055.60009765625</ele>
        <time>2026-06-15T13:50:36.000Z</time>
        <extensions>
          <ns3:TrackPointExtension>
            <ns3:atemp>23.0</ns3:atemp>
          </ns3:TrackPointExtension>
        </extensions>
      </trkpt>
      <trkpt lat="42.56858917884528636932373046875" lon="20.03023006953299045562744140625">
        <ele>2055.60009765625</ele>
        <time>2026-06-15T13:50:37.000Z</time>
        <extensions>
          <ns3:TrackPointExtension>
            <ns3:atemp>23.0</ns3:atemp>
          </ns3:TrackPointExtension>
        </extensions>
      </trkpt>
      <trkpt lat="42.5686125643551349639892578125" lon="20.03022269345819950103759765625">
        <ele>2055.39990234375</ele>
        <time>2026-06-15T13:50:38.000Z</time>
        <extensions>
          <ns3:TrackPointExtension>
            <ns3:atemp>23.0</ns3:atemp>
          </ns3:TrackPointExtension>
        </extensions>
      </trkpt>
      <trkpt lat="42.56863796152174472808837890625" lon="20.03020911477506160736083984375">
        <ele>2055.39990234375</ele>
        <time>2026-06-15T13:50:39.000Z</time>
        <extensions>
          <ns3:TrackPointExtension>
            <ns3:atemp>23.0</ns3:atemp>
          </ns3:TrackPointExtension>
        </extensions>
      </trkpt>
      <trkpt lat="42.56865925155580043792724609375" lon="20.03018438816070556640625">
        <ele>2055.39990234375</ele>
        <time>2026-06-15T13:50:40.000Z</time>
        <extensions>
          <ns3:TrackPointExtension>
            <ns3:atemp>23.0</ns3:atemp>
          </ns3:TrackPointExtension>
        </extensions>
      </trkpt>
      <trkpt lat="42.56867484189569950103759765625" lon="20.0301562249660491943359375">
        <ele>2055.39990234375</ele>
        <time>2026-06-15T13:50:41.000Z</time>
        <extensions>
          <ns3:TrackPointExtension>
            <ns3:atemp>23.0</ns3:atemp>
          </ns3:TrackPointExtension>
        </extensions>
      </trkpt>
      <trkpt lat="42.56868691183626651763916015625" lon="20.0301312468945980072021484375">
        <ele>2055.39990234375</ele>
        <time>2026-06-15T13:50:42.000Z</time>
        <extensions>
          <ns3:TrackPointExtension>
            <ns3:atemp>23.0</ns3:atemp>
          </ns3:TrackPointExtension>
        </extensions>
      </trkpt>
      <trkpt lat="42.56869210861623287200927734375" lon="20.03010995686054229736328125">
        <ele>2055.39990234375</ele>
        <time>2026-06-15T13:50:43.000Z</time>
        <extensions>
          <ns3:TrackPointExtension>
            <ns3:atemp>23.0</ns3:atemp>
          </ns3:TrackPointExtension>
        </extensions>
      </trkpt>
      <trkpt lat="42.5686968863010406494140625" lon="20.03008623607456684112548828125">
        <ele>2055.60009765625</ele>
        <time>2026-06-15T13:50:44.000Z</time>
        <extensions>
          <ns3:TrackPointExtension>
            <ns3:atemp>23.0</ns3:atemp>
          </ns3:TrackPointExtension>
        </extensions>
      </trkpt>
      <trkpt lat="42.568700574338436126708984375" lon="20.03005974926054477691650390625">
        <ele>2055.60009765625</ele>
        <time>2026-06-15T13:50:45.000Z</time>
        <extensions>
          <ns3:TrackPointExtension>
            <ns3:atemp>23.0</ns3:atemp>
          </ns3:TrackPointExtension>
        </extensions>
      </trkpt>
      <trkpt lat="42.56870283745229244232177734375" lon="20.0300316698849201202392578125">
        <ele>2055.800048828125</ele>
        <time>2026-06-15T13:50:46.000Z</time>
        <extensions>
          <ns3:TrackPointExtension>
            <ns3:atemp>23.0</ns3:atemp>
          </ns3:TrackPointExtension>
        </extensions>
      </trkpt>
      <trkpt lat="42.5687091238796710968017578125" lon="20.03000493161380290985107421875">
        <ele>2056</ele>
        <time>2026-06-15T13:50:47.000Z</time>
        <extensions>
          <ns3:TrackPointExtension>
            <ns3:atemp>23.0</ns3:atemp>
          </ns3:TrackPointExtension>
        </extensions>
      </trkpt>
      <trkpt lat="42.5687171705067157745361328125" lon="20.02998598851263523101806640625">
        <ele>2056.199951171875</ele>
        <time>2026-06-15T13:50:48.000Z</time>
        <extensions>
          <ns3:TrackPointExtension>
            <ns3:atemp>23.0</ns3:atemp>
          </ns3:TrackPointExtension>
        </extensions>
      </trkpt>
      <trkpt lat="42.5687215290963649749755859375" lon="20.02997048199176788330078125">
        <ele>2056.39990234375</ele>
        <time>2026-06-15T13:50:49.000Z</time>
        <extensions>
          <ns3:TrackPointExtension>
            <ns3:atemp>23.0</ns3:atemp>
          </ns3:TrackPointExtension>
        </extensions>
      </trkpt>
      <trkpt lat="42.56872144527733325958251953125" lon="20.02996386028826236724853515625">
        <ele>2056.60009765625</ele>
        <time>2026-06-15T13:50:50.000Z</time>
        <extensions>
          <ns3:TrackPointExtension>
            <ns3:atemp>23.0</ns3:atemp>
          </ns3:TrackPointExtension>
        </extensions>
      </trkpt>
      <trkpt lat="42.56872303783893585205078125" lon="20.02995480783283710479736328125">
        <ele>2056.800048828125</ele>
        <time>2026-06-15T13:50:51.000Z</time>
        <extensions>
          <ns3:TrackPointExtension>
            <ns3:atemp>23.0</ns3:atemp>
          </ns3:TrackPointExtension>
        </extensions>
      </trkpt>
      <trkpt lat="42.56872236728668212890625" lon="20.02995044924318790435791015625">
        <ele>2057</ele>
        <time>2026-06-15T13:50:52.000Z</time>
        <extensions>
          <ns3:TrackPointExtension>
            <ns3:atemp>23.0</ns3:atemp>
          </ns3:TrackPointExtension>
        </extensions>
      </trkpt>
      <trkpt lat="42.56872572004795074462890625" lon="20.0299491919577121734619140625">
        <ele>2057.199951171875</ele>
        <time>2026-06-15T13:50:53.000Z</time>
        <extensions>
          <ns3:TrackPointExtension>
            <ns3:atemp>23.0</ns3:atemp>
          </ns3:TrackPointExtension>
        </extensions>
      </trkpt>
      <trkpt lat="42.56872345693409442901611328125" lon="20.0299532152712345123291015625">
        <ele>2057.39990234375</ele>
        <time>2026-06-15T13:50:54.000Z</time>
        <extensions>
          <ns3:TrackPointExtension>
            <ns3:atemp>23.0</ns3:atemp>
          </ns3:TrackPointExtension>
        </extensions>
      </trkpt>
      <trkpt lat="42.56872345693409442901611328125" lon="20.0299532152712345123291015625">
        <ele>2057.39990234375</ele>
        <time>2026-06-15T13:50:55.000Z</time>
        <extensions>
          <ns3:TrackPointExtension>
            <ns3:atemp>23.0</ns3:atemp>
          </ns3:TrackPointExtension>
        </extensions>
      </trkpt>
      <trkpt lat="42.56872345693409442901611328125" lon="20.0299532152712345123291015625">
        <ele>2057.39990234375</ele>
        <time>2026-06-15T13:50:56.000Z</time>
        <extensions>
          <ns3:TrackPointExtension>
            <ns3:atemp>23.0</ns3:atemp>
          </ns3:TrackPointExtension>
        </extensions>
      </trkpt>
      <trkpt lat="42.56872345693409442901611328125" lon="20.0299532152712345123291015625">
        <ele>2057.60009765625</ele>
        <time>2026-06-15T13:50:57.000Z</time>
        <extensions>
          <ns3:TrackPointExtension>
            <ns3:atemp>23.0</ns3:atemp>
          </ns3:TrackPointExtension>
        </extensions>
      </trkpt>
      <trkpt lat="42.56872345693409442901611328125" lon="20.0299532152712345123291015625">
        <ele>2057.60009765625</ele>
        <time>2026-06-15T13:50:58.000Z</time>
        <extensions>
          <ns3:TrackPointExtension>
            <ns3:atemp>23.0</ns3:atemp>
          </ns3:TrackPointExtension>
        </extensions>
      </trkpt>
      <trkpt lat="42.56872345693409442901611328125" lon="20.0299532152712345123291015625">
        <ele>2057.60009765625</ele>
        <time>2026-06-15T13:50:59.000Z</time>
        <extensions>
          <ns3:TrackPointExtension>
            <ns3:atemp>23.0</ns3:atemp>
          </ns3:TrackPointExtension>
        </extensions>
      </trkpt>
      <trkpt lat="42.56872345693409442901611328125" lon="20.0299532152712345123291015625">
        <ele>2057.39990234375</ele>
        <time>2026-06-15T13:51:00.000Z</time>
        <extensions>
          <ns3:TrackPointExtension>
            <ns3:atemp>23.0</ns3:atemp>
          </ns3:TrackPointExtension>
        </extensions>
      </trkpt>
      <trkpt lat="42.56872345693409442901611328125" lon="20.0299532152712345123291015625">
        <ele>2057.39990234375</ele>
        <time>2026-06-15T13:51:01.000Z</time>
        <extensions>
          <ns3:TrackPointExtension>
            <ns3:atemp>23.0</ns3:atemp>
          </ns3:TrackPointExtension>
        </extensions>
      </trkpt>
      <trkpt lat="42.56872345693409442901611328125" lon="20.0299532152712345123291015625">
        <ele>2057.199951171875</ele>
        <time>2026-06-15T13:51:02.000Z</time>
        <extensions>
          <ns3:TrackPointExtension>
            <ns3:atemp>23.0</ns3:atemp>
          </ns3:TrackPointExtension>
        </extensions>
      </trkpt>
      <trkpt lat="42.56872345693409442901611328125" lon="20.0299532152712345123291015625">
        <ele>2057.199951171875</ele>
        <time>2026-06-15T13:51:03.000Z</time>
        <extensions>
          <ns3:TrackPointExtension>
            <ns3:atemp>23.0</ns3:atemp>
          </ns3:TrackPointExtension>
        </extensions>
      </trkpt>
      <trkpt lat="42.56872345693409442901611328125" lon="20.0299532152712345123291015625">
        <ele>2057</ele>
        <time>2026-06-15T13:51:04.000Z</time>
        <extensions>
          <ns3:TrackPointExtension>
            <ns3:atemp>23.0</ns3:atemp>
          </ns3:TrackPointExtension>
        </extensions>
      </trkpt>
      <trkpt lat="42.56872345693409442901611328125" lon="20.0299532152712345123291015625">
        <ele>2057</ele>
        <time>2026-06-15T13:51:05.000Z</time>
        <extensions>
          <ns3:TrackPointExtension>
            <ns3:atemp>23.0</ns3:atemp>
          </ns3:TrackPointExtension>
        </extensions>
      </trkpt>
      <trkpt lat="42.56872345693409442901611328125" lon="20.0299532152712345123291015625">
        <ele>2057</ele>
        <time>2026-06-15T13:51:06.000Z</time>
        <extensions>
          <ns3:TrackPointExtension>
            <ns3:atemp>23.0</ns3:atemp>
          </ns3:TrackPointExtension>
        </extensions>
      </trkpt>
      <trkpt lat="42.56872345693409442901611328125" lon="20.0299532152712345123291015625">
        <ele>2057</ele>
        <time>2026-06-15T13:51:07.000Z</time>
        <extensions>
          <ns3:TrackPointExtension>
            <ns3:atemp>23.0</ns3:atemp>
          </ns3:TrackPointExtension>
        </extensions>
      </trkpt>
      <trkpt lat="42.56872345693409442901611328125" lon="20.0299532152712345123291015625">
        <ele>2057</ele>
        <time>2026-06-15T13:51:08.000Z</time>
        <extensions>
          <ns3:TrackPointExtension>
            <ns3:atemp>23.0</ns3:atemp>
          </ns3:TrackPointExtension>
        </extensions>
      </trkpt>
      <trkpt lat="42.56872345693409442901611328125" lon="20.0299532152712345123291015625">
        <ele>2057.199951171875</ele>
        <time>2026-06-15T13:51:09.000Z</time>
        <extensions>
          <ns3:TrackPointExtension>
            <ns3:atemp>23.0</ns3:atemp>
          </ns3:TrackPointExtension>
        </extensions>
      </trkpt>
      <trkpt lat="42.56872345693409442901611328125" lon="20.0299532152712345123291015625">
        <ele>2057.199951171875</ele>
        <time>2026-06-15T13:51:10.000Z</time>
        <extensions>
          <ns3:TrackPointExtension>
            <ns3:atemp>23.0</ns3:atemp>
          </ns3:TrackPointExtension>
        </extensions>
      </trkpt>
      <trkpt lat="42.56872345693409442901611328125" lon="20.0299532152712345123291015625">
        <ele>2057.199951171875</ele>
        <time>2026-06-15T13:51:11.000Z</time>
        <extensions>
          <ns3:TrackPointExtension>
            <ns3:atemp>23.0</ns3:atemp>
          </ns3:TrackPointExtension>
        </extensions>
      </trkpt>
      <trkpt lat="42.56872345693409442901611328125" lon="20.0299532152712345123291015625">
        <ele>2057.199951171875</ele>
        <time>2026-06-15T13:51:12.000Z</time>
        <extensions>
          <ns3:TrackPointExtension>
            <ns3:atemp>23.0</ns3:atemp>
          </ns3:TrackPointExtension>
        </extensions>
      </trkpt>
      <trkpt lat="42.56872345693409442901611328125" lon="20.0299532152712345123291015625">
        <ele>2057.199951171875</ele>
        <time>2026-06-15T13:51:13.000Z</time>
        <extensions>
          <ns3:TrackPointExtension>
            <ns3:atemp>23.0</ns3:atemp>
          </ns3:TrackPointExtension>
        </extensions>
      </trkpt>
      <trkpt lat="42.56872345693409442901611328125" lon="20.0299532152712345123291015625">
        <ele>2057.199951171875</ele>
        <time>2026-06-15T13:51:14.000Z</time>
        <extensions>
          <ns3:TrackPointExtension>
            <ns3:atemp>23.0</ns3:atemp>
          </ns3:TrackPointExtension>
        </extensions>
      </trkpt>
      <trkpt lat="42.56872345693409442901611328125" lon="20.0299532152712345123291015625">
        <ele>2057.199951171875</ele>
        <time>2026-06-15T13:51:15.000Z</time>
        <extensions>
          <ns3:TrackPointExtension>
            <ns3:atemp>23.0</ns3:atemp>
          </ns3:TrackPointExtension>
        </extensions>
      </trkpt>
      <trkpt lat="42.56872345693409442901611328125" lon="20.0299532152712345123291015625">
        <ele>2057.199951171875</ele>
        <time>2026-06-15T13:51:16.000Z</time>
        <extensions>
          <ns3:TrackPointExtension>
            <ns3:atemp>23.0</ns3:atemp>
          </ns3:TrackPointExtension>
        </extensions>
      </trkpt>
      <trkpt lat="42.56872345693409442901611328125" lon="20.0299532152712345123291015625">
        <ele>2057.199951171875</ele>
        <time>2026-06-15T13:51:17.000Z</time>
        <extensions>
          <ns3:TrackPointExtension>
            <ns3:atemp>23.0</ns3:atemp>
          </ns3:TrackPointExtension>
        </extensions>
      </trkpt>
      <trkpt lat="42.56872345693409442901611328125" lon="20.0299532152712345123291015625">
        <ele>2057.199951171875</ele>
        <time>2026-06-15T13:51:18.000Z</time>
        <extensions>
          <ns3:TrackPointExtension>
            <ns3:atemp>23.0</ns3:atemp>
          </ns3:TrackPointExtension>
        </extensions>
      </trkpt>
      <trkpt lat="42.56872345693409442901611328125" lon="20.0299532152712345123291015625">
        <ele>2057.199951171875</ele>
        <time>2026-06-15T13:51:19.000Z</time>
        <extensions>
          <ns3:TrackPointExtension>
            <ns3:atemp>23.0</ns3:atemp>
          </ns3:TrackPointExtension>
        </extensions>
      </trkpt>
      <trkpt lat="42.56872345693409442901611328125" lon="20.0299532152712345123291015625">
        <ele>2057.199951171875</ele>
        <time>2026-06-15T13:51:20.000Z</time>
        <extensions>
          <ns3:TrackPointExtension>
            <ns3:atemp>23.0</ns3:atemp>
          </ns3:TrackPointExtension>
        </extensions>
      </trkpt>
      <trkpt lat="42.56872345693409442901611328125" lon="20.0299532152712345123291015625">
        <ele>2057.199951171875</ele>
        <time>2026-06-15T13:51:21.000Z</time>
        <extensions>
          <ns3:TrackPointExtension>
            <ns3:atemp>23.0</ns3:atemp>
          </ns3:TrackPointExtension>
        </extensions>
      </trkpt>
      <trkpt lat="42.56872345693409442901611328125" lon="20.0299532152712345123291015625">
        <ele>2057.199951171875</ele>
        <time>2026-06-15T13:51:22.000Z</time>
        <extensions>
          <ns3:TrackPointExtension>
            <ns3:atemp>23.0</ns3:atemp>
          </ns3:TrackPointExtension>
        </extensions>
      </trkpt>
      <trkpt lat="42.56872345693409442901611328125" lon="20.0299532152712345123291015625">
        <ele>2057.199951171875</ele>
        <time>2026-06-15T13:51:23.000Z</time>
        <extensions>
          <ns3:TrackPointExtension>
            <ns3:atemp>23.0</ns3:atemp>
          </ns3:TrackPointExtension>
        </extensions>
      </trkpt>
      <trkpt lat="42.56872345693409442901611328125" lon="20.0299532152712345123291015625">
        <ele>2057</ele>
        <time>2026-06-15T13:51:24.000Z</time>
        <extensions>
          <ns3:TrackPointExtension>
            <ns3:atemp>23.0</ns3:atemp>
          </ns3:TrackPointExtension>
        </extensions>
      </trkpt>
      <trkpt lat="42.56872345693409442901611328125" lon="20.0299532152712345123291015625">
        <ele>2057</ele>
        <time>2026-06-15T13:51:25.000Z</time>
        <extensions>
          <ns3:TrackPointExtension>
            <ns3:atemp>23.0</ns3:atemp>
          </ns3:TrackPointExtension>
        </extensions>
      </trkpt>
      <trkpt lat="42.56872345693409442901611328125" lon="20.0299532152712345123291015625">
        <ele>2056.800048828125</ele>
        <time>2026-06-15T13:51:26.000Z</time>
        <extensions>
          <ns3:TrackPointExtension>
            <ns3:atemp>23.0</ns3:atemp>
          </ns3:TrackPointExtension>
        </extensions>
      </trkpt>
      <trkpt lat="42.56872345693409442901611328125" lon="20.0299532152712345123291015625">
        <ele>2056.60009765625</ele>
        <time>2026-06-15T13:51:27.000Z</time>
        <extensions>
          <ns3:TrackPointExtension>
            <ns3:atemp>23.0</ns3:atemp>
          </ns3:TrackPointExtension>
        </extensions>
      </trkpt>
      <trkpt lat="42.56872345693409442901611328125" lon="20.0299532152712345123291015625">
        <ele>2056.60009765625</ele>
        <time>2026-06-15T13:51:28.000Z</time>
        <extensions>
          <ns3:TrackPointExtension>
            <ns3:atemp>23.0</ns3:atemp>
          </ns3:TrackPointExtension>
        </extensions>
      </trkpt>
      <trkpt lat="42.56872345693409442901611328125" lon="20.0299532152712345123291015625">
        <ele>2056.60009765625</ele>
        <time>2026-06-15T13:51:29.000Z</time>
        <extensions>
          <ns3:TrackPointExtension>
            <ns3:atemp>23.0</ns3:atemp>
          </ns3:TrackPointExtension>
        </extensions>
      </trkpt>
      <trkpt lat="42.56872345693409442901611328125" lon="20.0299532152712345123291015625">
        <ele>2056.60009765625</ele>
        <time>2026-06-15T13:51:30.000Z</time>
        <extensions>
          <ns3:TrackPointExtension>
            <ns3:atemp>23.0</ns3:atemp>
          </ns3:TrackPointExtension>
        </extensions>
      </trkpt>
      <trkpt lat="42.56872345693409442901611328125" lon="20.0299532152712345123291015625">
        <ele>2056.60009765625</ele>
        <time>2026-06-15T13:51:31.000Z</time>
        <extensions>
          <ns3:TrackPointExtension>
            <ns3:atemp>23.0</ns3:atemp>
          </ns3:TrackPointExtension>
        </extensions>
      </trkpt>
      <trkpt lat="42.56872345693409442901611328125" lon="20.0299532152712345123291015625">
        <ele>2056.39990234375</ele>
        <time>2026-06-15T13:51:32.000Z</time>
        <extensions>
          <ns3:TrackPointExtension>
            <ns3:atemp>23.0</ns3:atemp>
          </ns3:TrackPointExtension>
        </extensions>
      </trkpt>
      <trkpt lat="42.56872345693409442901611328125" lon="20.0299532152712345123291015625">
        <ele>2056.39990234375</ele>
        <time>2026-06-15T13:51:33.000Z</time>
        <extensions>
          <ns3:TrackPointExtension>
            <ns3:atemp>23.0</ns3:atemp>
          </ns3:TrackPointExtension>
        </extensions>
      </trkpt>
      <trkpt lat="42.56872345693409442901611328125" lon="20.0299532152712345123291015625">
        <ele>2056.39990234375</ele>
        <time>2026-06-15T13:51:34.000Z</time>
        <extensions>
          <ns3:TrackPointExtension>
            <ns3:atemp>23.0</ns3:atemp>
          </ns3:TrackPointExtension>
        </extensions>
      </trkpt>
      <trkpt lat="42.56872345693409442901611328125" lon="20.0299532152712345123291015625">
        <ele>2056.39990234375</ele>
        <time>2026-06-15T13:51:35.000Z</time>
        <extensions>
          <ns3:TrackPointExtension>
            <ns3:atemp>23.0</ns3:atemp>
          </ns3:TrackPointExtension>
        </extensions>
      </trkpt>
      <trkpt lat="42.56872345693409442901611328125" lon="20.0299532152712345123291015625">
        <ele>2056.39990234375</ele>
        <time>2026-06-15T13:51:36.000Z</time>
        <extensions>
          <ns3:TrackPointExtension>
            <ns3:atemp>23.0</ns3:atemp>
          </ns3:TrackPointExtension>
        </extensions>
      </trkpt>
      <trkpt lat="42.56872345693409442901611328125" lon="20.0299532152712345123291015625">
        <ele>2056.39990234375</ele>
        <time>2026-06-15T13:51:37.000Z</time>
        <extensions>
          <ns3:TrackPointExtension>
            <ns3:atemp>23.0</ns3:atemp>
          </ns3:TrackPointExtension>
        </extensions>
      </trkpt>
      <trkpt lat="42.56872345693409442901611328125" lon="20.0299532152712345123291015625">
        <ele>2056.199951171875</ele>
        <time>2026-06-15T13:51:38.000Z</time>
        <extensions>
          <ns3:TrackPointExtension>
            <ns3:atemp>23.0</ns3:atemp>
          </ns3:TrackPointExtension>
        </extensions>
      </trkpt>
      <trkpt lat="42.56872345693409442901611328125" lon="20.0299532152712345123291015625">
        <ele>2056.199951171875</ele>
        <time>2026-06-15T13:51:39.000Z</time>
        <extensions>
          <ns3:TrackPointExtension>
            <ns3:atemp>23.0</ns3:atemp>
          </ns3:TrackPointExtension>
        </extensions>
      </trkpt>
      <trkpt lat="42.56872345693409442901611328125" lon="20.0299532152712345123291015625">
        <ele>2056.199951171875</ele>
        <time>2026-06-15T13:51:40.000Z</time>
        <extensions>
          <ns3:TrackPointExtension>
            <ns3:atemp>23.0</ns3:atemp>
          </ns3:TrackPointExtension>
        </extensions>
      </trkpt>
      <trkpt lat="42.56872345693409442901611328125" lon="20.0299532152712345123291015625">
        <ele>2056</ele>
        <time>2026-06-15T13:51:41.000Z</time>
        <extensions>
          <ns3:TrackPointExtension>
            <ns3:atemp>23.0</ns3:atemp>
          </ns3:TrackPointExtension>
        </extensions>
      </trkpt>
      <trkpt lat="42.56872345693409442901611328125" lon="20.0299532152712345123291015625">
        <ele>2056</ele>
        <time>2026-06-15T13:51:42.000Z</time>
        <extensions>
          <ns3:TrackPointExtension>
            <ns3:atemp>23.0</ns3:atemp>
          </ns3:TrackPointExtension>
        </extensions>
      </trkpt>
      <trkpt lat="42.56872345693409442901611328125" lon="20.0299532152712345123291015625">
        <ele>2056</ele>
        <time>2026-06-15T13:51:43.000Z</time>
        <extensions>
          <ns3:TrackPointExtension>
            <ns3:atemp>23.0</ns3:atemp>
          </ns3:TrackPointExtension>
        </extensions>
      </trkpt>
      <trkpt lat="42.56872345693409442901611328125" lon="20.0299532152712345123291015625">
        <ele>2056</ele>
        <time>2026-06-15T13:51:44.000Z</time>
        <extensions>
          <ns3:TrackPointExtension>
            <ns3:atemp>23.0</ns3:atemp>
          </ns3:TrackPointExtension>
        </extensions>
      </trkpt>
      <trkpt lat="42.56872345693409442901611328125" lon="20.0299532152712345123291015625">
        <ele>2056</ele>
        <time>2026-06-15T13:51:45.000Z</time>
        <extensions>
          <ns3:TrackPointExtension>
            <ns3:atemp>23.0</ns3:atemp>
          </ns3:TrackPointExtension>
        </extensions>
      </trkpt>
      <trkpt lat="42.56872345693409442901611328125" lon="20.0299532152712345123291015625">
        <ele>2056</ele>
        <time>2026-06-15T13:51:46.000Z</time>
        <extensions>
          <ns3:TrackPointExtension>
            <ns3:atemp>23.0</ns3:atemp>
          </ns3:TrackPointExtension>
        </extensions>
      </trkpt>
      <trkpt lat="42.56872345693409442901611328125" lon="20.0299532152712345123291015625">
        <ele>2056</ele>
        <time>2026-06-15T13:51:47.000Z</time>
        <extensions>
          <ns3:TrackPointExtension>
            <ns3:atemp>23.0</ns3:atemp>
          </ns3:TrackPointExtension>
        </extensions>
      </trkpt>
      <trkpt lat="42.56872345693409442901611328125" lon="20.0299532152712345123291015625">
        <ele>2056</ele>
        <time>2026-06-15T13:51:48.000Z</time>
        <extensions>
          <ns3:TrackPointExtension>
            <ns3:atemp>23.0</ns3:atemp>
          </ns3:TrackPointExtension>
        </extensions>
      </trkpt>
      <trkpt lat="42.56872345693409442901611328125" lon="20.0299532152712345123291015625">
        <ele>2056</ele>
        <time>2026-06-15T13:51:49.000Z</time>
        <extensions>
          <ns3:TrackPointExtension>
            <ns3:atemp>23.0</ns3:atemp>
          </ns3:TrackPointExtension>
        </extensions>
      </trkpt>
      <trkpt lat="42.56872345693409442901611328125" lon="20.0299532152712345123291015625">
        <ele>2056</ele>
        <time>2026-06-15T13:51:50.000Z</time>
        <extensions>
          <ns3:TrackPointExtension>
            <ns3:atemp>23.0</ns3:atemp>
          </ns3:TrackPointExtension>
        </extensions>
      </trkpt>
      <trkpt lat="42.56872345693409442901611328125" lon="20.0299532152712345123291015625">
        <ele>2056</ele>
        <time>2026-06-15T13:51:51.000Z</time>
        <extensions>
          <ns3:TrackPointExtension>
            <ns3:atemp>23.0</ns3:atemp>
          </ns3:TrackPointExtension>
        </extensions>
      </trkpt>
      <trkpt lat="42.56872345693409442901611328125" lon="20.0299532152712345123291015625">
        <ele>2056</ele>
        <time>2026-06-15T13:51:52.000Z</time>
        <extensions>
          <ns3:TrackPointExtension>
            <ns3:atemp>23.0</ns3:atemp>
          </ns3:TrackPointExtension>
        </extensions>
      </trkpt>
      <trkpt lat="42.56872345693409442901611328125" lon="20.0299532152712345123291015625">
        <ele>2056</ele>
        <time>2026-06-15T13:51:53.000Z</time>
        <extensions>
          <ns3:TrackPointExtension>
            <ns3:atemp>23.0</ns3:atemp>
          </ns3:TrackPointExtension>
        </extensions>
      </trkpt>
      <trkpt lat="42.56872345693409442901611328125" lon="20.0299532152712345123291015625">
        <ele>2056</ele>
        <time>2026-06-15T13:51:54.000Z</time>
        <extensions>
          <ns3:TrackPointExtension>
            <ns3:atemp>23.0</ns3:atemp>
          </ns3:TrackPointExtension>
        </extensions>
      </trkpt>
      <trkpt lat="42.56872345693409442901611328125" lon="20.0299532152712345123291015625">
        <ele>2056.199951171875</ele>
        <time>2026-06-15T13:51:55.000Z</time>
        <extensions>
          <ns3:TrackPointExtension>
            <ns3:atemp>23.0</ns3:atemp>
          </ns3:TrackPointExtension>
        </extensions>
      </trkpt>
      <trkpt lat="42.56872345693409442901611328125" lon="20.0299532152712345123291015625">
        <ele>2056.199951171875</ele>
        <time>2026-06-15T13:51:56.000Z</time>
        <extensions>
          <ns3:TrackPointExtension>
            <ns3:atemp>23.0</ns3:atemp>
          </ns3:TrackPointExtension>
        </extensions>
      </trkpt>
      <trkpt lat="42.56872345693409442901611328125" lon="20.0299532152712345123291015625">
        <ele>2056.199951171875</ele>
        <time>2026-06-15T13:51:57.000Z</time>
        <extensions>
          <ns3:TrackPointExtension>
            <ns3:atemp>23.0</ns3:atemp>
          </ns3:TrackPointExtension>
        </extensions>
      </trkpt>
      <trkpt lat="42.56872345693409442901611328125" lon="20.0299532152712345123291015625">
        <ele>2056.199951171875</ele>
        <time>2026-06-15T13:51:58.000Z</time>
        <extensions>
          <ns3:TrackPointExtension>
            <ns3:atemp>23.0</ns3:atemp>
          </ns3:TrackPointExtension>
        </extensions>
      </trkpt>
      <trkpt lat="42.56872345693409442901611328125" lon="20.0299532152712345123291015625">
        <ele>2056.199951171875</ele>
        <time>2026-06-15T13:51:59.000Z</time>
        <extensions>
          <ns3:TrackPointExtension>
            <ns3:atemp>23.0</ns3:atemp>
          </ns3:TrackPointExtension>
        </extensions>
      </trkpt>
      <trkpt lat="42.56872345693409442901611328125" lon="20.0299532152712345123291015625">
        <ele>2056.199951171875</ele>
        <time>2026-06-15T13:52:00.000Z</time>
        <extensions>
          <ns3:TrackPointExtension>
            <ns3:atemp>23.0</ns3:atemp>
          </ns3:TrackPointExtension>
        </extensions>
      </trkpt>
      <trkpt lat="42.56872345693409442901611328125" lon="20.0299532152712345123291015625">
        <ele>2056.199951171875</ele>
        <time>2026-06-15T13:52:01.000Z</time>
        <extensions>
          <ns3:TrackPointExtension>
            <ns3:atemp>23.0</ns3:atemp>
          </ns3:TrackPointExtension>
        </extensions>
      </trkpt>
      <trkpt lat="42.56872345693409442901611328125" lon="20.0299532152712345123291015625">
        <ele>2056.199951171875</ele>
        <time>2026-06-15T13:52:02.000Z</time>
        <extensions>
          <ns3:TrackPointExtension>
            <ns3:atemp>23.0</ns3:atemp>
          </ns3:TrackPointExtension>
        </extensions>
      </trkpt>
      <trkpt lat="42.56872345693409442901611328125" lon="20.0299532152712345123291015625">
        <ele>2056.199951171875</ele>
        <time>2026-06-15T13:52:03.000Z</time>
        <extensions>
          <ns3:TrackPointExtension>
            <ns3:atemp>23.0</ns3:atemp>
          </ns3:TrackPointExtension>
        </extensions>
      </trkpt>
      <trkpt lat="42.56872345693409442901611328125" lon="20.0299532152712345123291015625">
        <ele>2056.199951171875</ele>
        <time>2026-06-15T13:52:04.000Z</time>
        <extensions>
          <ns3:TrackPointExtension>
            <ns3:atemp>23.0</ns3:atemp>
          </ns3:TrackPointExtension>
        </extensions>
      </trkpt>
      <trkpt lat="42.56872345693409442901611328125" lon="20.0299532152712345123291015625">
        <ele>2056</ele>
        <time>2026-06-15T13:52:05.000Z</time>
        <extensions>
          <ns3:TrackPointExtension>
            <ns3:atemp>23.0</ns3:atemp>
          </ns3:TrackPointExtension>
        </extensions>
      </trkpt>
      <trkpt lat="42.56872345693409442901611328125" lon="20.0299532152712345123291015625">
        <ele>2056</ele>
        <time>2026-06-15T13:52:06.000Z</time>
        <extensions>
          <ns3:TrackPointExtension>
            <ns3:atemp>23.0</ns3:atemp>
          </ns3:TrackPointExtension>
        </extensions>
      </trkpt>
      <trkpt lat="42.56872345693409442901611328125" lon="20.0299532152712345123291015625">
        <ele>2056</ele>
        <time>2026-06-15T13:52:07.000Z</time>
        <extensions>
          <ns3:TrackPointExtension>
            <ns3:atemp>23.0</ns3:atemp>
          </ns3:TrackPointExtension>
        </extensions>
      </trkpt>
      <trkpt lat="42.56872345693409442901611328125" lon="20.0299532152712345123291015625">
        <ele>2056</ele>
        <time>2026-06-15T13:52:08.000Z</time>
        <extensions>
          <ns3:TrackPointExtension>
            <ns3:atemp>23.0</ns3:atemp>
          </ns3:TrackPointExtension>
        </extensions>
      </trkpt>
      <trkpt lat="42.56872345693409442901611328125" lon="20.0299532152712345123291015625">
        <ele>2055.800048828125</ele>
        <time>2026-06-15T13:52:09.000Z</time>
        <extensions>
          <ns3:TrackPointExtension>
            <ns3:atemp>23.0</ns3:atemp>
          </ns3:TrackPointExtension>
        </extensions>
      </trkpt>
      <trkpt lat="42.56872345693409442901611328125" lon="20.0299532152712345123291015625">
        <ele>2055.800048828125</ele>
        <time>2026-06-15T13:52:10.000Z</time>
        <extensions>
          <ns3:TrackPointExtension>
            <ns3:atemp>23.0</ns3:atemp>
          </ns3:TrackPointExtension>
        </extensions>
      </trkpt>
      <trkpt lat="42.56872345693409442901611328125" lon="20.0299532152712345123291015625">
        <ele>2055.800048828125</ele>
        <time>2026-06-15T13:52:11.000Z</time>
        <extensions>
          <ns3:TrackPointExtension>
            <ns3:atemp>23.0</ns3:atemp>
          </ns3:TrackPointExtension>
        </extensions>
      </trkpt>
      <trkpt lat="42.56872345693409442901611328125" lon="20.0299532152712345123291015625">
        <ele>2055.800048828125</ele>
        <time>2026-06-15T13:52:12.000Z</time>
        <extensions>
          <ns3:TrackPointExtension>
            <ns3:atemp>23.0</ns3:atemp>
          </ns3:TrackPointExtension>
        </extensions>
      </trkpt>
      <trkpt lat="42.56872345693409442901611328125" lon="20.0299532152712345123291015625">
        <ele>2055.800048828125</ele>
        <time>2026-06-15T13:52:13.000Z</time>
        <extensions>
          <ns3:TrackPointExtension>
            <ns3:atemp>23.0</ns3:atemp>
          </ns3:TrackPointExtension>
        </extensions>
      </trkpt>
      <trkpt lat="42.56872345693409442901611328125" lon="20.0299532152712345123291015625">
        <ele>2055.800048828125</ele>
        <time>2026-06-15T13:52:14.000Z</time>
        <extensions>
          <ns3:TrackPointExtension>
            <ns3:atemp>23.0</ns3:atemp>
          </ns3:TrackPointExtension>
        </extensions>
      </trkpt>
      <trkpt lat="42.56872345693409442901611328125" lon="20.0299532152712345123291015625">
        <ele>2056</ele>
        <time>2026-06-15T13:52:15.000Z</time>
        <extensions>
          <ns3:TrackPointExtension>
            <ns3:atemp>23.0</ns3:atemp>
          </ns3:TrackPointExtension>
        </extensions>
      </trkpt>
      <trkpt lat="42.56872345693409442901611328125" lon="20.0299532152712345123291015625">
        <ele>2056</ele>
        <time>2026-06-15T13:52:16.000Z</time>
        <extensions>
          <ns3:TrackPointExtension>
            <ns3:atemp>23.0</ns3:atemp>
          </ns3:TrackPointExtension>
        </extensions>
      </trkpt>
      <trkpt lat="42.56872345693409442901611328125" lon="20.0299532152712345123291015625">
        <ele>2056</ele>
        <time>2026-06-15T13:52:17.000Z</time>
        <extensions>
          <ns3:TrackPointExtension>
            <ns3:atemp>23.0</ns3:atemp>
          </ns3:TrackPointExtension>
        </extensions>
      </trkpt>
      <trkpt lat="42.56872345693409442901611328125" lon="20.0299532152712345123291015625">
        <ele>2056</ele>
        <time>2026-06-15T13:52:18.000Z</time>
        <extensions>
          <ns3:TrackPointExtension>
            <ns3:atemp>23.0</ns3:atemp>
          </ns3:TrackPointExtension>
        </extensions>
      </trkpt>
      <trkpt lat="42.56872345693409442901611328125" lon="20.0299532152712345123291015625">
        <ele>2056</ele>
        <time>2026-06-15T13:52:19.000Z</time>
        <extensions>
          <ns3:TrackPointExtension>
            <ns3:atemp>23.0</ns3:atemp>
          </ns3:TrackPointExtension>
        </extensions>
      </trkpt>
      <trkpt lat="42.56872345693409442901611328125" lon="20.0299532152712345123291015625">
        <ele>2056</ele>
        <time>2026-06-15T13:52:20.000Z</time>
        <extensions>
          <ns3:TrackPointExtension>
            <ns3:atemp>23.0</ns3:atemp>
          </ns3:TrackPointExtension>
        </extensions>
      </trkpt>
      <trkpt lat="42.56872345693409442901611328125" lon="20.0299532152712345123291015625">
        <ele>2056</ele>
        <time>2026-06-15T13:52:21.000Z</time>
        <extensions>
          <ns3:TrackPointExtension>
            <ns3:atemp>23.0</ns3:atemp>
          </ns3:TrackPointExtension>
        </extensions>
      </trkpt>
      <trkpt lat="42.56872345693409442901611328125" lon="20.0299532152712345123291015625">
        <ele>2056</ele>
        <time>2026-06-15T13:52:22.000Z</time>
        <extensions>
          <ns3:TrackPointExtension>
            <ns3:atemp>23.0</ns3:atemp>
          </ns3:TrackPointExtension>
        </extensions>
      </trkpt>
      <trkpt lat="42.56872345693409442901611328125" lon="20.0299532152712345123291015625">
        <ele>2055.800048828125</ele>
        <time>2026-06-15T13:52:23.000Z</time>
        <extensions>
          <ns3:TrackPointExtension>
            <ns3:atemp>23.0</ns3:atemp>
          </ns3:TrackPointExtension>
        </extensions>
      </trkpt>
      <trkpt lat="42.56872345693409442901611328125" lon="20.0299532152712345123291015625">
        <ele>2055.800048828125</ele>
        <time>2026-06-15T13:52:24.000Z</time>
        <extensions>
          <ns3:TrackPointExtension>
            <ns3:atemp>23.0</ns3:atemp>
          </ns3:TrackPointExtension>
        </extensions>
      </trkpt>
      <trkpt lat="42.56872345693409442901611328125" lon="20.0299532152712345123291015625">
        <ele>2055.800048828125</ele>
        <time>2026-06-15T13:52:25.000Z</time>
        <extensions>
          <ns3:TrackPointExtension>
            <ns3:atemp>23.0</ns3:atemp>
          </ns3:TrackPointExtension>
        </extensions>
      </trkpt>
      <trkpt lat="42.56872345693409442901611328125" lon="20.0299532152712345123291015625">
        <ele>2055.800048828125</ele>
        <time>2026-06-15T13:52:26.000Z</time>
        <extensions>
          <ns3:TrackPointExtension>
            <ns3:atemp>23.0</ns3:atemp>
          </ns3:TrackPointExtension>
        </extensions>
      </trkpt>
      <trkpt lat="42.56872345693409442901611328125" lon="20.0299532152712345123291015625">
        <ele>2055.800048828125</ele>
        <time>2026-06-15T13:52:27.000Z</time>
        <extensions>
          <ns3:TrackPointExtension>
            <ns3:atemp>23.0</ns3:atemp>
          </ns3:TrackPointExtension>
        </extensions>
      </trkpt>
      <trkpt lat="42.56872345693409442901611328125" lon="20.0299532152712345123291015625">
        <ele>2056</ele>
        <time>2026-06-15T13:52:28.000Z</time>
        <extensions>
          <ns3:TrackPointExtension>
            <ns3:atemp>23.0</ns3:atemp>
          </ns3:TrackPointExtension>
        </extensions>
      </trkpt>
      <trkpt lat="42.56872345693409442901611328125" lon="20.0299532152712345123291015625">
        <ele>2056</ele>
        <time>2026-06-15T13:52:29.000Z</time>
        <extensions>
          <ns3:TrackPointExtension>
            <ns3:atemp>23.0</ns3:atemp>
          </ns3:TrackPointExtension>
        </extensions>
      </trkpt>
      <trkpt lat="42.56872345693409442901611328125" lon="20.0299532152712345123291015625">
        <ele>2056</ele>
        <time>2026-06-15T13:52:30.000Z</time>
        <extensions>
          <ns3:TrackPointExtension>
            <ns3:atemp>23.0</ns3:atemp>
          </ns3:TrackPointExtension>
        </extensions>
      </trkpt>
      <trkpt lat="42.56872345693409442901611328125" lon="20.0299532152712345123291015625">
        <ele>2056</ele>
        <time>2026-06-15T13:52:31.000Z</time>
        <extensions>
          <ns3:TrackPointExtension>
            <ns3:atemp>23.0</ns3:atemp>
          </ns3:TrackPointExtension>
        </extensions>
      </trkpt>
      <trkpt lat="42.56872345693409442901611328125" lon="20.0299532152712345123291015625">
        <ele>2056</ele>
        <time>2026-06-15T13:52:32.000Z</time>
        <extensions>
          <ns3:TrackPointExtension>
            <ns3:atemp>23.0</ns3:atemp>
          </ns3:TrackPointExtension>
        </extensions>
      </trkpt>
      <trkpt lat="42.56872345693409442901611328125" lon="20.0299532152712345123291015625">
        <ele>2056.199951171875</ele>
        <time>2026-06-15T13:52:33.000Z</time>
        <extensions>
          <ns3:TrackPointExtension>
            <ns3:atemp>23.0</ns3:atemp>
          </ns3:TrackPointExtension>
        </extensions>
      </trkpt>
      <trkpt lat="42.56872345693409442901611328125" lon="20.0299532152712345123291015625">
        <ele>2056.199951171875</ele>
        <time>2026-06-15T13:52:34.000Z</time>
        <extensions>
          <ns3:TrackPointExtension>
            <ns3:atemp>23.0</ns3:atemp>
          </ns3:TrackPointExtension>
        </extensions>
      </trkpt>
      <trkpt lat="42.56872345693409442901611328125" lon="20.0299532152712345123291015625">
        <ele>2056.199951171875</ele>
        <time>2026-06-15T13:52:35.000Z</time>
        <extensions>
          <ns3:TrackPointExtension>
            <ns3:atemp>23.0</ns3:atemp>
          </ns3:TrackPointExtension>
        </extensions>
      </trkpt>
      <trkpt lat="42.56872345693409442901611328125" lon="20.0299532152712345123291015625">
        <ele>2056</ele>
        <time>2026-06-15T13:52:36.000Z</time>
        <extensions>
          <ns3:TrackPointExtension>
            <ns3:atemp>23.0</ns3:atemp>
          </ns3:TrackPointExtension>
        </extensions>
      </trkpt>
      <trkpt lat="42.56872345693409442901611328125" lon="20.0299532152712345123291015625">
        <ele>2056</ele>
        <time>2026-06-15T13:52:37.000Z</time>
        <extensions>
          <ns3:TrackPointExtension>
            <ns3:atemp>23.0</ns3:atemp>
          </ns3:TrackPointExtension>
        </extensions>
      </trkpt>
      <trkpt lat="42.56872345693409442901611328125" lon="20.0299532152712345123291015625">
        <ele>2056</ele>
        <time>2026-06-15T13:52:38.000Z</time>
        <extensions>
          <ns3:TrackPointExtension>
            <ns3:atemp>23.0</ns3:atemp>
          </ns3:TrackPointExtension>
        </extensions>
      </trkpt>
      <trkpt lat="42.56872345693409442901611328125" lon="20.0299532152712345123291015625">
        <ele>2056</ele>
        <time>2026-06-15T13:52:39.000Z</time>
        <extensions>
          <ns3:TrackPointExtension>
            <ns3:atemp>23.0</ns3:atemp>
          </ns3:TrackPointExtension>
        </extensions>
      </trkpt>
      <trkpt lat="42.56872345693409442901611328125" lon="20.0299532152712345123291015625">
        <ele>2056</ele>
        <time>2026-06-15T13:52:40.000Z</time>
        <extensions>
          <ns3:TrackPointExtension>
            <ns3:atemp>23.0</ns3:atemp>
          </ns3:TrackPointExtension>
        </extensions>
      </trkpt>
      <trkpt lat="42.56872345693409442901611328125" lon="20.0299532152712345123291015625">
        <ele>2056</ele>
        <time>2026-06-15T13:52:41.000Z</time>
        <extensions>
          <ns3:TrackPointExtension>
            <ns3:atemp>23.0</ns3:atemp>
          </ns3:TrackPointExtension>
        </extensions>
      </trkpt>
      <trkpt lat="42.56872345693409442901611328125" lon="20.0299532152712345123291015625">
        <ele>2056</ele>
        <time>2026-06-15T13:52:42.000Z</time>
        <extensions>
          <ns3:TrackPointExtension>
            <ns3:atemp>23.0</ns3:atemp>
          </ns3:TrackPointExtension>
        </extensions>
      </trkpt>
      <trkpt lat="42.56872345693409442901611328125" lon="20.0299532152712345123291015625">
        <ele>2056</ele>
        <time>2026-06-15T13:52:43.000Z</time>
        <extensions>
          <ns3:TrackPointExtension>
            <ns3:atemp>23.0</ns3:atemp>
          </ns3:TrackPointExtension>
        </extensions>
      </trkpt>
      <trkpt lat="42.56872345693409442901611328125" lon="20.0299532152712345123291015625">
        <ele>2056</ele>
        <time>2026-06-15T13:52:44.000Z</time>
        <extensions>
          <ns3:TrackPointExtension>
            <ns3:atemp>23.0</ns3:atemp>
          </ns3:TrackPointExtension>
        </extensions>
      </trkpt>
      <trkpt lat="42.56872345693409442901611328125" lon="20.0299532152712345123291015625">
        <ele>2056</ele>
        <time>2026-06-15T13:52:45.000Z</time>
        <extensions>
          <ns3:TrackPointExtension>
            <ns3:atemp>23.0</ns3:atemp>
          </ns3:TrackPointExtension>
        </extensions>
      </trkpt>
      <trkpt lat="42.56872345693409442901611328125" lon="20.0299532152712345123291015625">
        <ele>2056.199951171875</ele>
        <time>2026-06-15T13:52:46.000Z</time>
        <extensions>
          <ns3:TrackPointExtension>
            <ns3:atemp>23.0</ns3:atemp>
          </ns3:TrackPointExtension>
        </extensions>
      </trkpt>
      <trkpt lat="42.56872345693409442901611328125" lon="20.0299532152712345123291015625">
        <ele>2056.199951171875</ele>
        <time>2026-06-15T13:52:47.000Z</time>
        <extensions>
          <ns3:TrackPointExtension>
            <ns3:atemp>23.0</ns3:atemp>
          </ns3:TrackPointExtension>
        </extensions>
      </trkpt>
      <trkpt lat="42.56872345693409442901611328125" lon="20.0299532152712345123291015625">
        <ele>2056.199951171875</ele>
        <time>2026-06-15T13:52:48.000Z</time>
        <extensions>
          <ns3:TrackPointExtension>
            <ns3:atemp>23.0</ns3:atemp>
          </ns3:TrackPointExtension>
        </extensions>
      </trkpt>
      <trkpt lat="42.56872345693409442901611328125" lon="20.0299532152712345123291015625">
        <ele>2056.199951171875</ele>
        <time>2026-06-15T13:52:49.000Z</time>
        <extensions>
          <ns3:TrackPointExtension>
            <ns3:atemp>23.0</ns3:atemp>
          </ns3:TrackPointExtension>
        </extensions>
      </trkpt>
      <trkpt lat="42.56872345693409442901611328125" lon="20.0299532152712345123291015625">
        <ele>2056.199951171875</ele>
        <time>2026-06-15T13:52:50.000Z</time>
        <extensions>
          <ns3:TrackPointExtension>
            <ns3:atemp>23.0</ns3:atemp>
          </ns3:TrackPointExtension>
        </extensions>
      </trkpt>
      <trkpt lat="42.56872345693409442901611328125" lon="20.0299532152712345123291015625">
        <ele>2056.199951171875</ele>
        <time>2026-06-15T13:52:51.000Z</time>
        <extensions>
          <ns3:TrackPointExtension>
            <ns3:atemp>23.0</ns3:atemp>
          </ns3:TrackPointExtension>
        </extensions>
      </trkpt>
      <trkpt lat="42.56872345693409442901611328125" lon="20.0299532152712345123291015625">
        <ele>2056.199951171875</ele>
        <time>2026-06-15T13:52:52.000Z</time>
        <extensions>
          <ns3:TrackPointExtension>
            <ns3:atemp>23.0</ns3:atemp>
          </ns3:TrackPointExtension>
        </extensions>
      </trkpt>
      <trkpt lat="42.56872345693409442901611328125" lon="20.0299532152712345123291015625">
        <ele>2056.199951171875</ele>
        <time>2026-06-15T13:52:53.000Z</time>
        <extensions>
          <ns3:TrackPointExtension>
            <ns3:atemp>23.0</ns3:atemp>
          </ns3:TrackPointExtension>
        </extensions>
      </trkpt>
      <trkpt lat="42.56872345693409442901611328125" lon="20.0299532152712345123291015625">
        <ele>2056.199951171875</ele>
        <time>2026-06-15T13:52:54.000Z</time>
        <extensions>
          <ns3:TrackPointExtension>
            <ns3:atemp>23.0</ns3:atemp>
          </ns3:TrackPointExtension>
        </extensions>
      </trkpt>
      <trkpt lat="42.56872345693409442901611328125" lon="20.0299532152712345123291015625">
        <ele>2056.199951171875</ele>
        <time>2026-06-15T13:52:55.000Z</time>
        <extensions>
          <ns3:TrackPointExtension>
            <ns3:atemp>23.0</ns3:atemp>
          </ns3:TrackPointExtension>
        </extensions>
      </trkpt>
      <trkpt lat="42.56872345693409442901611328125" lon="20.0299532152712345123291015625">
        <ele>2056.199951171875</ele>
        <time>2026-06-15T13:52:56.000Z</time>
        <extensions>
          <ns3:TrackPointExtension>
            <ns3:atemp>23.0</ns3:atemp>
          </ns3:TrackPointExtension>
        </extensions>
      </trkpt>
      <trkpt lat="42.56872345693409442901611328125" lon="20.0299532152712345123291015625">
        <ele>2056.199951171875</ele>
        <time>2026-06-15T13:52:57.000Z</time>
        <extensions>
          <ns3:TrackPointExtension>
            <ns3:atemp>23.0</ns3:atemp>
          </ns3:TrackPointExtension>
        </extensions>
      </trkpt>
      <trkpt lat="42.56872345693409442901611328125" lon="20.0299532152712345123291015625">
        <ele>2056.199951171875</ele>
        <time>2026-06-15T13:52:58.000Z</time>
        <extensions>
          <ns3:TrackPointExtension>
            <ns3:atemp>23.0</ns3:atemp>
          </ns3:TrackPointExtension>
        </extensions>
      </trkpt>
      <trkpt lat="42.56872345693409442901611328125" lon="20.0299532152712345123291015625">
        <ele>2056.199951171875</ele>
        <time>2026-06-15T13:52:59.000Z</time>
        <extensions>
          <ns3:TrackPointExtension>
            <ns3:atemp>23.0</ns3:atemp>
          </ns3:TrackPointExtension>
        </extensions>
      </trkpt>
      <trkpt lat="42.56872345693409442901611328125" lon="20.0299532152712345123291015625">
        <ele>2056.199951171875</ele>
        <time>2026-06-15T13:53:00.000Z</time>
        <extensions>
          <ns3:TrackPointExtension>
            <ns3:atemp>23.0</ns3:atemp>
          </ns3:TrackPointExtension>
        </extensions>
      </trkpt>
      <trkpt lat="42.56872345693409442901611328125" lon="20.0299532152712345123291015625">
        <ele>2056.199951171875</ele>
        <time>2026-06-15T13:53:01.000Z</time>
        <extensions>
          <ns3:TrackPointExtension>
            <ns3:atemp>23.0</ns3:atemp>
          </ns3:TrackPointExtension>
        </extensions>
      </trkpt>
      <trkpt lat="42.56872345693409442901611328125" lon="20.0299532152712345123291015625">
        <ele>2056.199951171875</ele>
        <time>2026-06-15T13:53:02.000Z</time>
        <extensions>
          <ns3:TrackPointExtension>
            <ns3:atemp>23.0</ns3:atemp>
          </ns3:TrackPointExtension>
        </extensions>
      </trkpt>
      <trkpt lat="42.56872345693409442901611328125" lon="20.0299532152712345123291015625">
        <ele>2056.199951171875</ele>
        <time>2026-06-15T13:53:03.000Z</time>
        <extensions>
          <ns3:TrackPointExtension>
            <ns3:atemp>23.0</ns3:atemp>
          </ns3:TrackPointExtension>
        </extensions>
      </trkpt>
      <trkpt lat="42.56872345693409442901611328125" lon="20.0299532152712345123291015625">
        <ele>2056.199951171875</ele>
        <time>2026-06-15T13:53:04.000Z</time>
        <extensions>
          <ns3:TrackPointExtension>
            <ns3:atemp>23.0</ns3:atemp>
          </ns3:TrackPointExtension>
        </extensions>
      </trkpt>
      <trkpt lat="42.56872345693409442901611328125" lon="20.0299532152712345123291015625">
        <ele>2056.199951171875</ele>
        <time>2026-06-15T13:53:05.000Z</time>
        <extensions>
          <ns3:TrackPointExtension>
            <ns3:atemp>23.0</ns3:atemp>
          </ns3:TrackPointExtension>
        </extensions>
      </trkpt>
      <trkpt lat="42.56872345693409442901611328125" lon="20.0299532152712345123291015625">
        <ele>2056.199951171875</ele>
        <time>2026-06-15T13:53:06.000Z</time>
        <extensions>
          <ns3:TrackPointExtension>
            <ns3:atemp>23.0</ns3:atemp>
          </ns3:TrackPointExtension>
        </extensions>
      </trkpt>
      <trkpt lat="42.56872345693409442901611328125" lon="20.0299532152712345123291015625">
        <ele>2056.199951171875</ele>
        <time>2026-06-15T13:53:07.000Z</time>
        <extensions>
          <ns3:TrackPointExtension>
            <ns3:atemp>23.0</ns3:atemp>
          </ns3:TrackPointExtension>
        </extensions>
      </trkpt>
      <trkpt lat="42.56872345693409442901611328125" lon="20.0299532152712345123291015625">
        <ele>2056.199951171875</ele>
        <time>2026-06-15T13:53:08.000Z</time>
        <extensions>
          <ns3:TrackPointExtension>
            <ns3:atemp>23.0</ns3:atemp>
          </ns3:TrackPointExtension>
        </extensions>
      </trkpt>
      <trkpt lat="42.56872345693409442901611328125" lon="20.0299532152712345123291015625">
        <ele>2056.199951171875</ele>
        <time>2026-06-15T13:53:09.000Z</time>
        <extensions>
          <ns3:TrackPointExtension>
            <ns3:atemp>23.0</ns3:atemp>
          </ns3:TrackPointExtension>
        </extensions>
      </trkpt>
      <trkpt lat="42.56872345693409442901611328125" lon="20.0299532152712345123291015625">
        <ele>2056.199951171875</ele>
        <time>2026-06-15T13:53:10.000Z</time>
        <extensions>
          <ns3:TrackPointExtension>
            <ns3:atemp>23.0</ns3:atemp>
          </ns3:TrackPointExtension>
        </extensions>
      </trkpt>
      <trkpt lat="42.56872345693409442901611328125" lon="20.0299532152712345123291015625">
        <ele>2056.199951171875</ele>
        <time>2026-06-15T13:53:11.000Z</time>
        <extensions>
          <ns3:TrackPointExtension>
            <ns3:atemp>23.0</ns3:atemp>
          </ns3:TrackPointExtension>
        </extensions>
      </trkpt>
      <trkpt lat="42.56872345693409442901611328125" lon="20.0299532152712345123291015625">
        <ele>2056.199951171875</ele>
        <time>2026-06-15T13:53:12.000Z</time>
        <extensions>
          <ns3:TrackPointExtension>
            <ns3:atemp>23.0</ns3:atemp>
          </ns3:TrackPointExtension>
        </extensions>
      </trkpt>
      <trkpt lat="42.56872345693409442901611328125" lon="20.0299532152712345123291015625">
        <ele>2056.199951171875</ele>
        <time>2026-06-15T13:53:13.000Z</time>
        <extensions>
          <ns3:TrackPointExtension>
            <ns3:atemp>23.0</ns3:atemp>
          </ns3:TrackPointExtension>
        </extensions>
      </trkpt>
      <trkpt lat="42.56872345693409442901611328125" lon="20.0299532152712345123291015625">
        <ele>2056.199951171875</ele>
        <time>2026-06-15T13:53:14.000Z</time>
        <extensions>
          <ns3:TrackPointExtension>
            <ns3:atemp>23.0</ns3:atemp>
          </ns3:TrackPointExtension>
        </extensions>
      </trkpt>
      <trkpt lat="42.5687188468873500823974609375" lon="20.02995044924318790435791015625">
        <ele>2056.199951171875</ele>
        <time>2026-06-15T13:53:15.000Z</time>
        <extensions>
          <ns3:TrackPointExtension>
            <ns3:atemp>23.0</ns3:atemp>
          </ns3:TrackPointExtension>
        </extensions>
      </trkpt>
      <trkpt lat="42.5687040947377681732177734375" lon="20.02994860522449016571044921875">
        <ele>2056.199951171875</ele>
        <time>2026-06-15T13:53:16.000Z</time>
        <extensions>
          <ns3:TrackPointExtension>
            <ns3:atemp>23.0</ns3:atemp>
          </ns3:TrackPointExtension>
        </extensions>
      </trkpt>
      <trkpt lat="42.568706609308719635009765625" lon="20.02995396964251995086669921875">
        <ele>2056.199951171875</ele>
        <time>2026-06-15T13:53:17.000Z</time>
        <extensions>
          <ns3:TrackPointExtension>
            <ns3:atemp>23.0</ns3:atemp>
          </ns3:TrackPointExtension>
        </extensions>
      </trkpt>
      <trkpt lat="42.568707950413227081298828125" lon="20.0299485214054584503173828125">
        <ele>2056.199951171875</ele>
        <time>2026-06-15T13:53:18.000Z</time>
        <extensions>
          <ns3:TrackPointExtension>
            <ns3:atemp>23.0</ns3:atemp>
          </ns3:TrackPointExtension>
        </extensions>
      </trkpt>
      <trkpt lat="42.56870937533676624298095703125" lon="20.0299523770809173583984375">
        <ele>2056.199951171875</ele>
        <time>2026-06-15T13:53:19.000Z</time>
        <extensions>
          <ns3:TrackPointExtension>
            <ns3:atemp>23.0</ns3:atemp>
          </ns3:TrackPointExtension>
        </extensions>
      </trkpt>
      <trkpt lat="42.56870736368000507354736328125" lon="20.02995464019477367401123046875">
        <ele>2056.199951171875</ele>
        <time>2026-06-15T13:53:20.000Z</time>
        <extensions>
          <ns3:TrackPointExtension>
            <ns3:atemp>23.0</ns3:atemp>
          </ns3:TrackPointExtension>
        </extensions>
      </trkpt>
      <trkpt lat="42.56870736368000507354736328125" lon="20.029954724013805389404296875">
        <ele>2056.199951171875</ele>
        <time>2026-06-15T13:53:21.000Z</time>
        <extensions>
          <ns3:TrackPointExtension>
            <ns3:atemp>23.0</ns3:atemp>
          </ns3:TrackPointExtension>
        </extensions>
      </trkpt>
      <trkpt lat="42.56870736368000507354736328125" lon="20.029954724013805389404296875">
        <ele>2056.199951171875</ele>
        <time>2026-06-15T13:53:22.000Z</time>
        <extensions>
          <ns3:TrackPointExtension>
            <ns3:atemp>23.0</ns3:atemp>
          </ns3:TrackPointExtension>
        </extensions>
      </trkpt>
      <trkpt lat="42.56870736368000507354736328125" lon="20.029954724013805389404296875">
        <ele>2056.199951171875</ele>
        <time>2026-06-15T13:53:23.000Z</time>
        <extensions>
          <ns3:TrackPointExtension>
            <ns3:atemp>23.0</ns3:atemp>
          </ns3:TrackPointExtension>
        </extensions>
      </trkpt>
      <trkpt lat="42.56870736368000507354736328125" lon="20.029954724013805389404296875">
        <ele>2056.199951171875</ele>
        <time>2026-06-15T13:53:24.000Z</time>
        <extensions>
          <ns3:TrackPointExtension>
            <ns3:atemp>23.0</ns3:atemp>
          </ns3:TrackPointExtension>
        </extensions>
      </trkpt>
      <trkpt lat="42.56870736368000507354736328125" lon="20.029954724013805389404296875">
        <ele>2056.199951171875</ele>
        <time>2026-06-15T13:53:25.000Z</time>
        <extensions>
          <ns3:TrackPointExtension>
            <ns3:atemp>23.0</ns3:atemp>
          </ns3:TrackPointExtension>
        </extensions>
      </trkpt>
      <trkpt lat="42.56870736368000507354736328125" lon="20.029954724013805389404296875">
        <ele>2056.199951171875</ele>
        <time>2026-06-15T13:53:26.000Z</time>
        <extensions>
          <ns3:TrackPointExtension>
            <ns3:atemp>23.0</ns3:atemp>
          </ns3:TrackPointExtension>
        </extensions>
      </trkpt>
      <trkpt lat="42.56870736368000507354736328125" lon="20.029954724013805389404296875">
        <ele>2056.199951171875</ele>
        <time>2026-06-15T13:53:27.000Z</time>
        <extensions>
          <ns3:TrackPointExtension>
            <ns3:atemp>23.0</ns3:atemp>
          </ns3:TrackPointExtension>
        </extensions>
      </trkpt>
      <trkpt lat="42.56870736368000507354736328125" lon="20.029954724013805389404296875">
        <ele>2056.199951171875</ele>
        <time>2026-06-15T13:53:28.000Z</time>
        <extensions>
          <ns3:TrackPointExtension>
            <ns3:atemp>23.0</ns3:atemp>
          </ns3:TrackPointExtension>
        </extensions>
      </trkpt>
      <trkpt lat="42.56870736368000507354736328125" lon="20.029954724013805389404296875">
        <ele>2056.199951171875</ele>
        <time>2026-06-15T13:53:29.000Z</time>
        <extensions>
          <ns3:TrackPointExtension>
            <ns3:atemp>23.0</ns3:atemp>
          </ns3:TrackPointExtension>
        </extensions>
      </trkpt>
      <trkpt lat="42.56870736368000507354736328125" lon="20.029954724013805389404296875">
        <ele>2056.199951171875</ele>
        <time>2026-06-15T13:53:30.000Z</time>
        <extensions>
          <ns3:TrackPointExtension>
            <ns3:atemp>23.0</ns3:atemp>
          </ns3:TrackPointExtension>
        </extensions>
      </trkpt>
      <trkpt lat="42.56870736368000507354736328125" lon="20.029954724013805389404296875">
        <ele>2056.199951171875</ele>
        <time>2026-06-15T13:53:31.000Z</time>
        <extensions>
          <ns3:TrackPointExtension>
            <ns3:atemp>23.0</ns3:atemp>
          </ns3:TrackPointExtension>
        </extensions>
      </trkpt>
      <trkpt lat="42.56870736368000507354736328125" lon="20.029954724013805389404296875">
        <ele>2056.199951171875</ele>
        <time>2026-06-15T13:53:32.000Z</time>
        <extensions>
          <ns3:TrackPointExtension>
            <ns3:atemp>23.0</ns3:atemp>
          </ns3:TrackPointExtension>
        </extensions>
      </trkpt>
      <trkpt lat="42.56870736368000507354736328125" lon="20.029954724013805389404296875">
        <ele>2056.199951171875</ele>
        <time>2026-06-15T13:53:33.000Z</time>
        <extensions>
          <ns3:TrackPointExtension>
            <ns3:atemp>23.0</ns3:atemp>
          </ns3:TrackPointExtension>
        </extensions>
      </trkpt>
      <trkpt lat="42.56870736368000507354736328125" lon="20.029954724013805389404296875">
        <ele>2056.199951171875</ele>
        <time>2026-06-15T13:53:34.000Z</time>
        <extensions>
          <ns3:TrackPointExtension>
            <ns3:atemp>23.0</ns3:atemp>
          </ns3:TrackPointExtension>
        </extensions>
      </trkpt>
      <trkpt lat="42.56870736368000507354736328125" lon="20.029954724013805389404296875">
        <ele>2056.199951171875</ele>
        <time>2026-06-15T13:53:35.000Z</time>
        <extensions>
          <ns3:TrackPointExtension>
            <ns3:atemp>23.0</ns3:atemp>
          </ns3:TrackPointExtension>
        </extensions>
      </trkpt>
      <trkpt lat="42.56870736368000507354736328125" lon="20.029954724013805389404296875">
        <ele>2056.199951171875</ele>
        <time>2026-06-15T13:53:36.000Z</time>
        <extensions>
          <ns3:TrackPointExtension>
            <ns3:atemp>23.0</ns3:atemp>
          </ns3:TrackPointExtension>
        </extensions>
      </trkpt>
      <trkpt lat="42.56870736368000507354736328125" lon="20.029954724013805389404296875">
        <ele>2056.199951171875</ele>
        <time>2026-06-15T13:53:37.000Z</time>
        <extensions>
          <ns3:TrackPointExtension>
            <ns3:atemp>23.0</ns3:atemp>
          </ns3:TrackPointExtension>
        </extensions>
      </trkpt>
      <trkpt lat="42.56870736368000507354736328125" lon="20.029954724013805389404296875">
        <ele>2056.199951171875</ele>
        <time>2026-06-15T13:53:38.000Z</time>
        <extensions>
          <ns3:TrackPointExtension>
            <ns3:atemp>23.0</ns3:atemp>
          </ns3:TrackPointExtension>
        </extensions>
      </trkpt>
      <trkpt lat="42.56870736368000507354736328125" lon="20.029954724013805389404296875">
        <ele>2056.199951171875</ele>
        <time>2026-06-15T13:53:39.000Z</time>
        <extensions>
          <ns3:TrackPointExtension>
            <ns3:atemp>23.0</ns3:atemp>
          </ns3:TrackPointExtension>
        </extensions>
      </trkpt>
      <trkpt lat="42.56870736368000507354736328125" lon="20.029954724013805389404296875">
        <ele>2056.199951171875</ele>
        <time>2026-06-15T13:53:40.000Z</time>
        <extensions>
          <ns3:TrackPointExtension>
            <ns3:atemp>23.0</ns3:atemp>
          </ns3:TrackPointExtension>
        </extensions>
      </trkpt>
      <trkpt lat="42.56870736368000507354736328125" lon="20.029954724013805389404296875">
        <ele>2056.199951171875</ele>
        <time>2026-06-15T13:53:41.000Z</time>
        <extensions>
          <ns3:TrackPointExtension>
            <ns3:atemp>23.0</ns3:atemp>
          </ns3:TrackPointExtension>
        </extensions>
      </trkpt>
      <trkpt lat="42.56870736368000507354736328125" lon="20.029954724013805389404296875">
        <ele>2056.199951171875</ele>
        <time>2026-06-15T13:53:42.000Z</time>
        <extensions>
          <ns3:TrackPointExtension>
            <ns3:atemp>23.0</ns3:atemp>
          </ns3:TrackPointExtension>
        </extensions>
      </trkpt>
      <trkpt lat="42.56870736368000507354736328125" lon="20.029954724013805389404296875">
        <ele>2056.199951171875</ele>
        <time>2026-06-15T13:53:43.000Z</time>
        <extensions>
          <ns3:TrackPointExtension>
            <ns3:atemp>23.0</ns3:atemp>
          </ns3:TrackPointExtension>
        </extensions>
      </trkpt>
      <trkpt lat="42.56870736368000507354736328125" lon="20.029954724013805389404296875">
        <ele>2056.199951171875</ele>
        <time>2026-06-15T13:53:44.000Z</time>
        <extensions>
          <ns3:TrackPointExtension>
            <ns3:atemp>23.0</ns3:atemp>
          </ns3:TrackPointExtension>
        </extensions>
      </trkpt>
      <trkpt lat="42.56870736368000507354736328125" lon="20.029954724013805389404296875">
        <ele>2056.199951171875</ele>
        <time>2026-06-15T13:53:45.000Z</time>
        <extensions>
          <ns3:TrackPointExtension>
            <ns3:atemp>23.0</ns3:atemp>
          </ns3:TrackPointExtension>
        </extensions>
      </trkpt>
      <trkpt lat="42.56870736368000507354736328125" lon="20.029954724013805389404296875">
        <ele>2056.199951171875</ele>
        <time>2026-06-15T13:53:46.000Z</time>
        <extensions>
          <ns3:TrackPointExtension>
            <ns3:atemp>23.0</ns3:atemp>
          </ns3:TrackPointExtension>
        </extensions>
      </trkpt>
      <trkpt lat="42.56870736368000507354736328125" lon="20.029954724013805389404296875">
        <ele>2056.199951171875</ele>
        <time>2026-06-15T13:53:47.000Z</time>
        <extensions>
          <ns3:TrackPointExtension>
            <ns3:atemp>23.0</ns3:atemp>
          </ns3:TrackPointExtension>
        </extensions>
      </trkpt>
      <trkpt lat="42.56870736368000507354736328125" lon="20.029954724013805389404296875">
        <ele>2056.199951171875</ele>
        <time>2026-06-15T13:53:48.000Z</time>
        <extensions>
          <ns3:TrackPointExtension>
            <ns3:atemp>23.0</ns3:atemp>
          </ns3:TrackPointExtension>
        </extensions>
      </trkpt>
      <trkpt lat="42.56870736368000507354736328125" lon="20.029954724013805389404296875">
        <ele>2056.199951171875</ele>
        <time>2026-06-15T13:53:49.000Z</time>
        <extensions>
          <ns3:TrackPointExtension>
            <ns3:atemp>23.0</ns3:atemp>
          </ns3:TrackPointExtension>
        </extensions>
      </trkpt>
      <trkpt lat="42.56870736368000507354736328125" lon="20.029954724013805389404296875">
        <ele>2056.199951171875</ele>
        <time>2026-06-15T13:53:50.000Z</time>
        <extensions>
          <ns3:TrackPointExtension>
            <ns3:atemp>23.0</ns3:atemp>
          </ns3:TrackPointExtension>
        </extensions>
      </trkpt>
      <trkpt lat="42.56870736368000507354736328125" lon="20.029954724013805389404296875">
        <ele>2056.199951171875</ele>
        <time>2026-06-15T13:53:51.000Z</time>
        <extensions>
          <ns3:TrackPointExtension>
            <ns3:atemp>23.0</ns3:atemp>
          </ns3:TrackPointExtension>
        </extensions>
      </trkpt>
      <trkpt lat="42.56870736368000507354736328125" lon="20.029954724013805389404296875">
        <ele>2056.199951171875</ele>
        <time>2026-06-15T13:53:52.000Z</time>
        <extensions>
          <ns3:TrackPointExtension>
            <ns3:atemp>23.0</ns3:atemp>
          </ns3:TrackPointExtension>
        </extensions>
      </trkpt>
      <trkpt lat="42.56870736368000507354736328125" lon="20.029954724013805389404296875">
        <ele>2056.199951171875</ele>
        <time>2026-06-15T13:53:53.000Z</time>
        <extensions>
          <ns3:TrackPointExtension>
            <ns3:atemp>23.0</ns3:atemp>
          </ns3:TrackPointExtension>
        </extensions>
      </trkpt>
      <trkpt lat="42.56870736368000507354736328125" lon="20.029954724013805389404296875">
        <ele>2056.199951171875</ele>
        <time>2026-06-15T13:53:54.000Z</time>
        <extensions>
          <ns3:TrackPointExtension>
            <ns3:atemp>23.0</ns3:atemp>
          </ns3:TrackPointExtension>
        </extensions>
      </trkpt>
      <trkpt lat="42.56870736368000507354736328125" lon="20.029954724013805389404296875">
        <ele>2056.199951171875</ele>
        <time>2026-06-15T13:53:55.000Z</time>
        <extensions>
          <ns3:TrackPointExtension>
            <ns3:atemp>23.0</ns3:atemp>
          </ns3:TrackPointExtension>
        </extensions>
      </trkpt>
      <trkpt lat="42.56870736368000507354736328125" lon="20.029954724013805389404296875">
        <ele>2056.199951171875</ele>
        <time>2026-06-15T13:53:56.000Z</time>
        <extensions>
          <ns3:TrackPointExtension>
            <ns3:atemp>23.0</ns3:atemp>
          </ns3:TrackPointExtension>
        </extensions>
      </trkpt>
      <trkpt lat="42.56870736368000507354736328125" lon="20.029954724013805389404296875">
        <ele>2056.199951171875</ele>
        <time>2026-06-15T13:53:57.000Z</time>
        <extensions>
          <ns3:TrackPointExtension>
            <ns3:atemp>23.0</ns3:atemp>
          </ns3:TrackPointExtension>
        </extensions>
      </trkpt>
      <trkpt lat="42.56870736368000507354736328125" lon="20.029954724013805389404296875">
        <ele>2056.199951171875</ele>
        <time>2026-06-15T13:53:58.000Z</time>
        <extensions>
          <ns3:TrackPointExtension>
            <ns3:atemp>23.0</ns3:atemp>
          </ns3:TrackPointExtension>
        </extensions>
      </trkpt>
      <trkpt lat="42.56870736368000507354736328125" lon="20.029954724013805389404296875">
        <ele>2056.199951171875</ele>
        <time>2026-06-15T13:53:59.000Z</time>
        <extensions>
          <ns3:TrackPointExtension>
            <ns3:atemp>23.0</ns3:atemp>
          </ns3:TrackPointExtension>
        </extensions>
      </trkpt>
      <trkpt lat="42.56870736368000507354736328125" lon="20.029954724013805389404296875">
        <ele>2056.199951171875</ele>
        <time>2026-06-15T13:54:00.000Z</time>
        <extensions>
          <ns3:TrackPointExtension>
            <ns3:atemp>23.0</ns3:atemp>
          </ns3:TrackPointExtension>
        </extensions>
      </trkpt>
      <trkpt lat="42.56870736368000507354736328125" lon="20.029954724013805389404296875">
        <ele>2056.199951171875</ele>
        <time>2026-06-15T13:54:01.000Z</time>
        <extensions>
          <ns3:TrackPointExtension>
            <ns3:atemp>23.0</ns3:atemp>
          </ns3:TrackPointExtension>
        </extensions>
      </trkpt>
      <trkpt lat="42.56870736368000507354736328125" lon="20.029954724013805389404296875">
        <ele>2056.199951171875</ele>
        <time>2026-06-15T13:54:02.000Z</time>
        <extensions>
          <ns3:TrackPointExtension>
            <ns3:atemp>23.0</ns3:atemp>
          </ns3:TrackPointExtension>
        </extensions>
      </trkpt>
      <trkpt lat="42.56870736368000507354736328125" lon="20.029954724013805389404296875">
        <ele>2056.199951171875</ele>
        <time>2026-06-15T13:54:03.000Z</time>
        <extensions>
          <ns3:TrackPointExtension>
            <ns3:atemp>23.0</ns3:atemp>
          </ns3:TrackPointExtension>
        </extensions>
      </trkpt>
      <trkpt lat="42.56870736368000507354736328125" lon="20.029954724013805389404296875">
        <ele>2056.199951171875</ele>
        <time>2026-06-15T13:54:04.000Z</time>
        <extensions>
          <ns3:TrackPointExtension>
            <ns3:atemp>23.0</ns3:atemp>
          </ns3:TrackPointExtension>
        </extensions>
      </trkpt>
      <trkpt lat="42.56870736368000507354736328125" lon="20.029954724013805389404296875">
        <ele>2056.199951171875</ele>
        <time>2026-06-15T13:54:05.000Z</time>
        <extensions>
          <ns3:TrackPointExtension>
            <ns3:atemp>23.0</ns3:atemp>
          </ns3:TrackPointExtension>
        </extensions>
      </trkpt>
      <trkpt lat="42.56870602257549762725830078125" lon="20.02996050752699375152587890625">
        <ele>2056.199951171875</ele>
        <time>2026-06-15T13:54:06.000Z</time>
        <extensions>
          <ns3:TrackPointExtension>
            <ns3:atemp>23.0</ns3:atemp>
          </ns3:TrackPointExtension>
        </extensions>
      </trkpt>
      <trkpt lat="42.56870828568935394287109375" lon="20.02998464740812778472900390625">
        <ele>2056.199951171875</ele>
        <time>2026-06-15T13:54:07.000Z</time>
        <extensions>
          <ns3:TrackPointExtension>
            <ns3:atemp>23.0</ns3:atemp>
          </ns3:TrackPointExtension>
        </extensions>
      </trkpt>
      <trkpt lat="42.56870686076581478118896484375" lon="20.0299941189587116241455078125">
        <ele>2056.199951171875</ele>
        <time>2026-06-15T13:54:08.000Z</time>
        <extensions>
          <ns3:TrackPointExtension>
            <ns3:atemp>23.0</ns3:atemp>
          </ns3:TrackPointExtension>
        </extensions>
      </trkpt>
      <trkpt lat="42.56869847886264324188232421875" lon="20.02999822609126567840576171875">
        <ele>2056.199951171875</ele>
        <time>2026-06-15T13:54:09.000Z</time>
        <extensions>
          <ns3:TrackPointExtension>
            <ns3:atemp>23.0</ns3:atemp>
          </ns3:TrackPointExtension>
        </extensions>
      </trkpt>
      <trkpt lat="42.56869311444461345672607421875" lon="20.0300071947276592254638671875">
        <ele>2056.60009765625</ele>
        <time>2026-06-15T13:54:10.000Z</time>
        <extensions>
          <ns3:TrackPointExtension>
            <ns3:atemp>23.0</ns3:atemp>
          </ns3:TrackPointExtension>
        </extensions>
      </trkpt>
      <trkpt lat="42.5686940364539623260498046875" lon="20.0300239585340023040771484375">
        <ele>2056.60009765625</ele>
        <time>2026-06-15T13:54:11.000Z</time>
        <extensions>
          <ns3:TrackPointExtension>
            <ns3:atemp>23.0</ns3:atemp>
          </ns3:TrackPointExtension>
        </extensions>
      </trkpt>
      <trkpt lat="42.56868490017950534820556640625" lon="20.03005203790962696075439453125">
        <ele>2056.39990234375</ele>
        <time>2026-06-15T13:54:12.000Z</time>
        <extensions>
          <ns3:TrackPointExtension>
            <ns3:atemp>23.0</ns3:atemp>
          </ns3:TrackPointExtension>
        </extensions>
      </trkpt>
      <trkpt lat="42.56867802701890468597412109375" lon="20.030085146427154541015625">
        <ele>2056.199951171875</ele>
        <time>2026-06-15T13:54:13.000Z</time>
        <extensions>
          <ns3:TrackPointExtension>
            <ns3:atemp>23.0</ns3:atemp>
          </ns3:TrackPointExtension>
        </extensions>
      </trkpt>
      <trkpt lat="42.5686695612967014312744140625" lon="20.03011540509760379791259765625">
        <ele>2056.199951171875</ele>
        <time>2026-06-15T13:54:14.000Z</time>
        <extensions>
          <ns3:TrackPointExtension>
            <ns3:atemp>23.0</ns3:atemp>
          </ns3:TrackPointExtension>
        </extensions>
      </trkpt>
      <trkpt lat="42.56865874864161014556884765625" lon="20.03014524467289447784423828125">
        <ele>2056.199951171875</ele>
        <time>2026-06-15T13:54:15.000Z</time>
        <extensions>
          <ns3:TrackPointExtension>
            <ns3:atemp>23.0</ns3:atemp>
          </ns3:TrackPointExtension>
        </extensions>
      </trkpt>
      <trkpt lat="42.5686558149755001068115234375" lon="20.03017743118107318878173828125">
        <ele>2056.199951171875</ele>
        <time>2026-06-15T13:54:16.000Z</time>
        <extensions>
          <ns3:TrackPointExtension>
            <ns3:atemp>23.0</ns3:atemp>
          </ns3:TrackPointExtension>
        </extensions>
      </trkpt>
      <trkpt lat="42.5686688907444477081298828125" lon="20.03021716140210628509521484375">
        <ele>2055.800048828125</ele>
        <time>2026-06-15T13:54:17.000Z</time>
        <extensions>
          <ns3:TrackPointExtension>
            <ns3:atemp>23.0</ns3:atemp>
          </ns3:TrackPointExtension>
        </extensions>
      </trkpt>
      <trkpt lat="42.56869412027299404144287109375" lon="20.0302264653146266937255859375">
        <ele>2055.60009765625</ele>
        <time>2026-06-15T13:54:18.000Z</time>
        <extensions>
          <ns3:TrackPointExtension>
            <ns3:atemp>23.0</ns3:atemp>
          </ns3:TrackPointExtension>
        </extensions>
      </trkpt>
      <trkpt lat="42.56872211582958698272705078125" lon="20.03021615557372570037841796875">
        <ele>2055</ele>
        <time>2026-06-15T13:54:19.000Z</time>
        <extensions>
          <ns3:TrackPointExtension>
            <ns3:atemp>23.0</ns3:atemp>
          </ns3:TrackPointExtension>
        </extensions>
      </trkpt>
      <trkpt lat="42.5687491893768310546875" lon="20.03019855357706546783447265625">
        <ele>2054.60009765625</ele>
        <time>2026-06-15T13:54:20.000Z</time>
        <extensions>
          <ns3:TrackPointExtension>
            <ns3:atemp>23.0</ns3:atemp>
          </ns3:TrackPointExtension>
        </extensions>
      </trkpt>
      <trkpt lat="42.5687778554856777191162109375" lon="20.03018715418875217437744140625">
        <ele>2054.39990234375</ele>
        <time>2026-06-15T13:54:21.000Z</time>
        <extensions>
          <ns3:TrackPointExtension>
            <ns3:atemp>23.0</ns3:atemp>
          </ns3:TrackPointExtension>
        </extensions>
      </trkpt>
      <trkpt lat="42.56880392320454120635986328125" lon="20.0301723182201385498046875">
        <ele>2054.199951171875</ele>
        <time>2026-06-15T13:54:22.000Z</time>
        <extensions>
          <ns3:TrackPointExtension>
            <ns3:atemp>23.0</ns3:atemp>
          </ns3:TrackPointExtension>
        </extensions>
      </trkpt>
      <trkpt lat="42.56883141584694385528564453125" lon="20.0301617570221424102783203125">
        <ele>2054.39990234375</ele>
        <time>2026-06-15T13:54:23.000Z</time>
        <extensions>
          <ns3:TrackPointExtension>
            <ns3:atemp>23.0</ns3:atemp>
          </ns3:TrackPointExtension>
        </extensions>
      </trkpt>
      <trkpt lat="42.56885991431772708892822265625" lon="20.03014239482581615447998046875">
        <ele>2054.39990234375</ele>
        <time>2026-06-15T13:54:24.000Z</time>
        <extensions>
          <ns3:TrackPointExtension>
            <ns3:atemp>23.0</ns3:atemp>
          </ns3:TrackPointExtension>
        </extensions>
      </trkpt>
      <trkpt lat="42.56889176554977893829345703125" lon="20.03012110479176044464111328125">
        <ele>2054.199951171875</ele>
        <time>2026-06-15T13:54:25.000Z</time>
        <extensions>
          <ns3:TrackPointExtension>
            <ns3:atemp>23.0</ns3:atemp>
          </ns3:TrackPointExtension>
        </extensions>
      </trkpt>
      <trkpt lat="42.568923532962799072265625" lon="20.03009227104485034942626953125">
        <ele>2054</ele>
        <time>2026-06-15T13:54:26.000Z</time>
        <extensions>
          <ns3:TrackPointExtension>
            <ns3:atemp>23.0</ns3:atemp>
          </ns3:TrackPointExtension>
        </extensions>
      </trkpt>
      <trkpt lat="42.5689552165567874908447265625" lon="20.03006276674568653106689453125">
        <ele>2053.800048828125</ele>
        <time>2026-06-15T13:54:27.000Z</time>
        <extensions>
          <ns3:TrackPointExtension>
            <ns3:atemp>23.0</ns3:atemp>
          </ns3:TrackPointExtension>
        </extensions>
      </trkpt>
      <trkpt lat="42.56898564286530017852783203125" lon="20.0300320051610469818115234375">
        <ele>2053.60009765625</ele>
        <time>2026-06-15T13:54:28.000Z</time>
        <extensions>
          <ns3:TrackPointExtension>
            <ns3:atemp>23.0</ns3:atemp>
          </ns3:TrackPointExtension>
        </extensions>
      </trkpt>
      <trkpt lat="42.569020092487335205078125" lon="20.0299971364438533782958984375">
        <ele>2053.39990234375</ele>
        <time>2026-06-15T13:54:29.000Z</time>
        <extensions>
          <ns3:TrackPointExtension>
            <ns3:atemp>23.0</ns3:atemp>
          </ns3:TrackPointExtension>
        </extensions>
      </trkpt>
      <trkpt lat="42.56905621849000453948974609375" lon="20.02996235154569149017333984375">
        <ele>2053.39990234375</ele>
        <time>2026-06-15T13:54:30.000Z</time>
        <extensions>
          <ns3:TrackPointExtension>
            <ns3:atemp>23.0</ns3:atemp>
          </ns3:TrackPointExtension>
        </extensions>
      </trkpt>
      <trkpt lat="42.56909494288265705108642578125" lon="20.02993158996105194091796875">
        <ele>2053.39990234375</ele>
        <time>2026-06-15T13:54:31.000Z</time>
        <extensions>
          <ns3:TrackPointExtension>
            <ns3:atemp>23.0</ns3:atemp>
          </ns3:TrackPointExtension>
        </extensions>
      </trkpt>
      <trkpt lat="42.56913349963724613189697265625" lon="20.02990820445120334625244140625">
        <ele>2053.39990234375</ele>
        <time>2026-06-15T13:54:32.000Z</time>
        <extensions>
          <ns3:TrackPointExtension>
            <ns3:atemp>23.0</ns3:atemp>
          </ns3:TrackPointExtension>
        </extensions>
      </trkpt>
      <trkpt lat="42.5691716372966766357421875" lon="20.0299002416431903839111328125">
        <ele>2053.60009765625</ele>
        <time>2026-06-15T13:54:33.000Z</time>
        <extensions>
          <ns3:TrackPointExtension>
            <ns3:atemp>23.0</ns3:atemp>
          </ns3:TrackPointExtension>
        </extensions>
      </trkpt>
      <trkpt lat="42.5692080147564411163330078125" lon="20.0299076177179813385009765625">
        <ele>2053.39990234375</ele>
        <time>2026-06-15T13:54:34.000Z</time>
        <extensions>
          <ns3:TrackPointExtension>
            <ns3:atemp>23.0</ns3:atemp>
          </ns3:TrackPointExtension>
        </extensions>
      </trkpt>
      <trkpt lat="42.56924313493072986602783203125" lon="20.02990921027958393096923828125">
        <ele>2053.39990234375</ele>
        <time>2026-06-15T13:54:35.000Z</time>
        <extensions>
          <ns3:TrackPointExtension>
            <ns3:atemp>23.0</ns3:atemp>
          </ns3:TrackPointExtension>
        </extensions>
      </trkpt>
      <trkpt lat="42.5692757405340671539306640625" lon="20.02989999018609523773193359375">
        <ele>2053.39990234375</ele>
        <time>2026-06-15T13:54:36.000Z</time>
        <extensions>
          <ns3:TrackPointExtension>
            <ns3:atemp>23.0</ns3:atemp>
          </ns3:TrackPointExtension>
        </extensions>
      </trkpt>
      <trkpt lat="42.56930231116712093353271484375" lon="20.02987015061080455780029296875">
        <ele>2053.39990234375</ele>
        <time>2026-06-15T13:54:37.000Z</time>
        <extensions>
          <ns3:TrackPointExtension>
            <ns3:atemp>23.0</ns3:atemp>
          </ns3:TrackPointExtension>
        </extensions>
      </trkpt>
      <trkpt lat="42.56932896561920642852783203125" lon="20.02983159385621547698974609375">
        <ele>2053.199951171875</ele>
        <time>2026-06-15T13:54:38.000Z</time>
        <extensions>
          <ns3:TrackPointExtension>
            <ns3:atemp>23.0</ns3:atemp>
          </ns3:TrackPointExtension>
        </extensions>
      </trkpt>
      <trkpt lat="42.56935846991837024688720703125" lon="20.02978406846523284912109375">
        <ele>2053</ele>
        <time>2026-06-15T13:54:39.000Z</time>
        <extensions>
          <ns3:TrackPointExtension>
            <ns3:atemp>22.0</ns3:atemp>
          </ns3:TrackPointExtension>
        </extensions>
      </trkpt>
      <trkpt lat="42.56938864476978778839111328125" lon="20.02974115312099456787109375">
        <ele>2052.800048828125</ele>
        <time>2026-06-15T13:54:40.000Z</time>
        <extensions>
          <ns3:TrackPointExtension>
            <ns3:atemp>23.0</ns3:atemp>
          </ns3:TrackPointExtension>
        </extensions>
      </trkpt>
      <trkpt lat="42.5694165565073490142822265625" lon="20.029699914157390594482421875">
        <ele>2052.60009765625</ele>
        <time>2026-06-15T13:54:41.000Z</time>
        <extensions>
          <ns3:TrackPointExtension>
            <ns3:atemp>23.0</ns3:atemp>
          </ns3:TrackPointExtension>
        </extensions>
      </trkpt>
      <trkpt lat="42.569450922310352325439453125" lon="20.02965808846056461334228515625">
        <ele>2052.39990234375</ele>
        <time>2026-06-15T13:54:42.000Z</time>
        <extensions>
          <ns3:TrackPointExtension>
            <ns3:atemp>23.0</ns3:atemp>
          </ns3:TrackPointExtension>
        </extensions>
      </trkpt>
      <trkpt lat="42.56948369555175304412841796875" lon="20.029617436230182647705078125">
        <ele>2052.199951171875</ele>
        <time>2026-06-15T13:54:43.000Z</time>
        <extensions>
          <ns3:TrackPointExtension>
            <ns3:atemp>23.0</ns3:atemp>
          </ns3:TrackPointExtension>
        </extensions>
      </trkpt>
      <trkpt lat="42.56951387040317058563232421875" lon="20.0295800529420375823974609375">
        <ele>2052.199951171875</ele>
        <time>2026-06-15T13:54:44.000Z</time>
        <extensions>
          <ns3:TrackPointExtension>
            <ns3:atemp>23.0</ns3:atemp>
          </ns3:TrackPointExtension>
        </extensions>
      </trkpt>
      <trkpt lat="42.56954848766326904296875" lon="20.02954694442451000213623046875">
        <ele>2052</ele>
        <time>2026-06-15T13:54:45.000Z</time>
        <extensions>
          <ns3:TrackPointExtension>
            <ns3:atemp>23.0</ns3:atemp>
          </ns3:TrackPointExtension>
        </extensions>
      </trkpt>
      <trkpt lat="42.569585032761096954345703125" lon="20.0295200385153293609619140625">
        <ele>2051.800048828125</ele>
        <time>2026-06-15T13:54:46.000Z</time>
        <extensions>
          <ns3:TrackPointExtension>
            <ns3:atemp>23.0</ns3:atemp>
          </ns3:TrackPointExtension>
        </extensions>
      </trkpt>
      <trkpt lat="42.56962417624890804290771484375" lon="20.02949179150164127349853515625">
        <ele>2051.60009765625</ele>
        <time>2026-06-15T13:54:47.000Z</time>
        <extensions>
          <ns3:TrackPointExtension>
            <ns3:atemp>23.0</ns3:atemp>
          </ns3:TrackPointExtension>
        </extensions>
      </trkpt>
      <trkpt lat="42.56966306827962398529052734375" lon="20.0294533185660839080810546875">
        <ele>2051.199951171875</ele>
        <time>2026-06-15T13:54:48.000Z</time>
        <extensions>
          <ns3:TrackPointExtension>
            <ns3:atemp>23.0</ns3:atemp>
          </ns3:TrackPointExtension>
        </extensions>
      </trkpt>
      <trkpt lat="42.5697035528719425201416015625" lon="20.02941367216408252716064453125">
        <ele>2050.800048828125</ele>
        <time>2026-06-15T13:54:49.000Z</time>
        <extensions>
          <ns3:TrackPointExtension>
            <ns3:atemp>23.0</ns3:atemp>
          </ns3:TrackPointExtension>
        </extensions>
      </trkpt>
      <trkpt lat="42.56974185816943645477294921875" lon="20.029370002448558807373046875">
        <ele>2050.39990234375</ele>
        <time>2026-06-15T13:54:50.000Z</time>
        <extensions>
          <ns3:TrackPointExtension>
            <ns3:atemp>22.0</ns3:atemp>
          </ns3:TrackPointExtension>
        </extensions>
      </trkpt>
      <trkpt lat="42.56977739743888378143310546875" lon="20.02931392751634120941162109375">
        <ele>2049.800048828125</ele>
        <time>2026-06-15T13:54:51.000Z</time>
        <extensions>
          <ns3:TrackPointExtension>
            <ns3:atemp>22.0</ns3:atemp>
          </ns3:TrackPointExtension>
        </extensions>
      </trkpt>
      <trkpt lat="42.5698038004338741302490234375" lon="20.0292541645467281341552734375">
        <ele>2049.39990234375</ele>
        <time>2026-06-15T13:54:52.000Z</time>
        <extensions>
          <ns3:TrackPointExtension>
            <ns3:atemp>22.0</ns3:atemp>
          </ns3:TrackPointExtension>
        </extensions>
      </trkpt>
      <trkpt lat="42.5698299519717693328857421875" lon="20.02918819896876811981201171875">
        <ele>2048.800048828125</ele>
        <time>2026-06-15T13:54:53.000Z</time>
        <extensions>
          <ns3:TrackPointExtension>
            <ns3:atemp>22.0</ns3:atemp>
          </ns3:TrackPointExtension>
        </extensions>
      </trkpt>
      <trkpt lat="42.56985501386225223541259765625" lon="20.0291193835437297821044921875">
        <ele>2048.39990234375</ele>
        <time>2026-06-15T13:54:54.000Z</time>
        <extensions>
          <ns3:TrackPointExtension>
            <ns3:atemp>22.0</ns3:atemp>
          </ns3:TrackPointExtension>
        </extensions>
      </trkpt>
      <trkpt lat="42.56989005021750926971435546875" lon="20.0290566869080066680908203125">
        <ele>2047.800048828125</ele>
        <time>2026-06-15T13:54:55.000Z</time>
        <extensions>
          <ns3:TrackPointExtension>
            <ns3:atemp>22.0</ns3:atemp>
          </ns3:TrackPointExtension>
        </extensions>
      </trkpt>
      <trkpt lat="42.56993715651333332061767578125" lon="20.02901268191635608673095703125">
        <ele>2047.4000244140625</ele>
        <time>2026-06-15T13:54:56.000Z</time>
        <extensions>
          <ns3:TrackPointExtension>
            <ns3:atemp>22.0</ns3:atemp>
          </ns3:TrackPointExtension>
        </extensions>
      </trkpt>
      <trkpt lat="42.569994069635868072509765625" lon="20.02898267470300197601318359375">
        <ele>2047.199951171875</ele>
        <time>2026-06-15T13:54:57.000Z</time>
        <extensions>
          <ns3:TrackPointExtension>
            <ns3:atemp>22.0</ns3:atemp>
          </ns3:TrackPointExtension>
        </extensions>
      </trkpt>
      <trkpt lat="42.57005500607192516326904296875" lon="20.02896004356443881988525390625">
        <ele>2046.5999755859375</ele>
        <time>2026-06-15T13:54:58.000Z</time>
        <extensions>
          <ns3:TrackPointExtension>
            <ns3:atemp>22.0</ns3:atemp>
          </ns3:TrackPointExtension>
        </extensions>
      </trkpt>
      <trkpt lat="42.57012289948761463165283203125" lon="20.02893255092203617095947265625">
        <ele>2046.199951171875</ele>
        <time>2026-06-15T13:54:59.000Z</time>
        <extensions>
          <ns3:TrackPointExtension>
            <ns3:atemp>22.0</ns3:atemp>
          </ns3:TrackPointExtension>
        </extensions>
      </trkpt>
      <trkpt lat="42.5701967440545558929443359375" lon="20.028908662497997283935546875">
        <ele>2045.5999755859375</ele>
        <time>2026-06-15T13:55:00.000Z</time>
        <extensions>
          <ns3:TrackPointExtension>
            <ns3:atemp>22.0</ns3:atemp>
          </ns3:TrackPointExtension>
        </extensions>
      </trkpt>
      <trkpt lat="42.5702731870114803314208984375" lon="20.0288789905607700347900390625">
        <ele>2045</ele>
        <time>2026-06-15T13:55:01.000Z</time>
        <extensions>
          <ns3:TrackPointExtension>
            <ns3:atemp>22.0</ns3:atemp>
          </ns3:TrackPointExtension>
        </extensions>
      </trkpt>
      <trkpt lat="42.57034845650196075439453125" lon="20.0288494862616062164306640625">
        <ele>2044.4000244140625</ele>
        <time>2026-06-15T13:55:02.000Z</time>
        <extensions>
          <ns3:TrackPointExtension>
            <ns3:atemp>22.0</ns3:atemp>
          </ns3:TrackPointExtension>
        </extensions>
      </trkpt>
      <trkpt lat="42.5704237259924411773681640625" lon="20.02881621010601520538330078125">
        <ele>2043.4000244140625</ele>
        <time>2026-06-15T13:55:03.000Z</time>
        <extensions>
          <ns3:TrackPointExtension>
            <ns3:atemp>22.0</ns3:atemp>
          </ns3:TrackPointExtension>
        </extensions>
      </trkpt>
      <trkpt lat="42.5705001689493656158447265625" lon="20.02877932973206043243408203125">
        <ele>2042.5999755859375</ele>
        <time>2026-06-15T13:55:04.000Z</time>
        <extensions>
          <ns3:TrackPointExtension>
            <ns3:atemp>22.0</ns3:atemp>
          </ns3:TrackPointExtension>
        </extensions>
      </trkpt>
      <trkpt lat="42.570574097335338592529296875" lon="20.02874311991035938262939453125">
        <ele>2042</ele>
        <time>2026-06-15T13:55:05.000Z</time>
        <extensions>
          <ns3:TrackPointExtension>
            <ns3:atemp>22.0</ns3:atemp>
          </ns3:TrackPointExtension>
        </extensions>
      </trkpt>
      <trkpt lat="42.57064576260745525360107421875" lon="20.02870607189834117889404296875">
        <ele>2041.199951171875</ele>
        <time>2026-06-15T13:55:06.000Z</time>
        <extensions>
          <ns3:TrackPointExtension>
            <ns3:atemp>22.0</ns3:atemp>
          </ns3:TrackPointExtension>
        </extensions>
      </trkpt>
      <trkpt lat="42.57071457803249359130859375" lon="20.0286536850035190582275390625">
        <ele>2040.800048828125</ele>
        <time>2026-06-15T13:55:07.000Z</time>
        <extensions>
          <ns3:TrackPointExtension>
            <ns3:atemp>22.0</ns3:atemp>
          </ns3:TrackPointExtension>
        </extensions>
      </trkpt>
      <trkpt lat="42.570781297981739044189453125" lon="20.02858855761587619781494140625">
        <ele>2040</ele>
        <time>2026-06-15T13:55:08.000Z</time>
        <extensions>
          <ns3:TrackPointExtension>
            <ns3:atemp>22.0</ns3:atemp>
          </ns3:TrackPointExtension>
        </extensions>
      </trkpt>
      <trkpt lat="42.5708485208451747894287109375" lon="20.02851831726729869842529296875">
        <ele>2039.4000244140625</ele>
        <time>2026-06-15T13:55:09.000Z</time>
        <extensions>
          <ns3:TrackPointExtension>
            <ns3:atemp>22.0</ns3:atemp>
          </ns3:TrackPointExtension>
        </extensions>
      </trkpt>
      <trkpt lat="42.570916749536991119384765625" lon="20.02845277078449726104736328125">
        <ele>2038.800048828125</ele>
        <time>2026-06-15T13:55:10.000Z</time>
        <extensions>
          <ns3:TrackPointExtension>
            <ns3:atemp>22.0</ns3:atemp>
          </ns3:TrackPointExtension>
        </extensions>
      </trkpt>
      <trkpt lat="42.57099059410393238067626953125" lon="20.02839158289134502410888671875">
        <ele>2038.199951171875</ele>
        <time>2026-06-15T13:55:11.000Z</time>
        <extensions>
          <ns3:TrackPointExtension>
            <ns3:atemp>22.0</ns3:atemp>
          </ns3:TrackPointExtension>
        </extensions>
      </trkpt>
      <trkpt lat="42.57106234319508075714111328125" lon="20.028329305350780487060546875">
        <ele>2037.199951171875</ele>
        <time>2026-06-15T13:55:12.000Z</time>
        <extensions>
          <ns3:TrackPointExtension>
            <ns3:atemp>22.0</ns3:atemp>
          </ns3:TrackPointExtension>
        </extensions>
      </trkpt>
      <trkpt lat="42.57113526575267314910888671875" lon="20.02825931645929813385009765625">
        <ele>2036.5999755859375</ele>
        <time>2026-06-15T13:55:13.000Z</time>
        <extensions>
          <ns3:TrackPointExtension>
            <ns3:atemp>22.0</ns3:atemp>
          </ns3:TrackPointExtension>
        </extensions>
      </trkpt>
      <trkpt lat="42.57120500318706035614013671875" lon="20.02818287350237369537353515625">
        <ele>2036</ele>
        <time>2026-06-15T13:55:14.000Z</time>
        <extensions>
          <ns3:TrackPointExtension>
            <ns3:atemp>22.0</ns3:atemp>
          </ns3:TrackPointExtension>
        </extensions>
      </trkpt>
      <trkpt lat="42.5712639279663562774658203125" lon="20.0281016528606414794921875">
        <ele>2035.199951171875</ele>
        <time>2026-06-15T13:55:15.000Z</time>
        <extensions>
          <ns3:TrackPointExtension>
            <ns3:atemp>22.0</ns3:atemp>
          </ns3:TrackPointExtension>
        </extensions>
      </trkpt>
      <trkpt lat="42.57131732068955898284912109375" lon="20.02801456488668918609619140625">
        <ele>2034.5999755859375</ele>
        <time>2026-06-15T13:55:16.000Z</time>
        <extensions>
          <ns3:TrackPointExtension>
            <ns3:atemp>22.0</ns3:atemp>
          </ns3:TrackPointExtension>
        </extensions>
      </trkpt>
      <trkpt lat="42.57136166095733642578125" lon="20.0279294885694980621337890625">
        <ele>2034.199951171875</ele>
        <time>2026-06-15T13:55:17.000Z</time>
        <extensions>
          <ns3:TrackPointExtension>
            <ns3:atemp>22.0</ns3:atemp>
          </ns3:TrackPointExtension>
        </extensions>
      </trkpt>
      <trkpt lat="42.5713977031409740447998046875" lon="20.02784307114779949188232421875">
        <ele>2033.800048828125</ele>
        <time>2026-06-15T13:55:18.000Z</time>
        <extensions>
          <ns3:TrackPointExtension>
            <ns3:atemp>22.0</ns3:atemp>
          </ns3:TrackPointExtension>
        </extensions>
      </trkpt>
      <trkpt lat="42.5714275427162647247314453125" lon="20.02775355242192745208740234375">
        <ele>2033.800048828125</ele>
        <time>2026-06-15T13:55:19.000Z</time>
        <extensions>
          <ns3:TrackPointExtension>
            <ns3:atemp>22.0</ns3:atemp>
          </ns3:TrackPointExtension>
        </extensions>
      </trkpt>
      <trkpt lat="42.5714707933366298675537109375" lon="20.02768381498754024505615234375">
        <ele>2033.800048828125</ele>
        <time>2026-06-15T13:55:20.000Z</time>
        <extensions>
          <ns3:TrackPointExtension>
            <ns3:atemp>22.0</ns3:atemp>
          </ns3:TrackPointExtension>
        </extensions>
      </trkpt>
      <trkpt lat="42.57151815108954906463623046875" lon="20.02762564457952976226806640625">
        <ele>2033.800048828125</ele>
        <time>2026-06-15T13:55:21.000Z</time>
        <extensions>
          <ns3:TrackPointExtension>
            <ns3:atemp>22.0</ns3:atemp>
          </ns3:TrackPointExtension>
        </extensions>
      </trkpt>
      <trkpt lat="42.57156089879572391510009765625" lon="20.02757568843662738800048828125">
        <ele>2034</ele>
        <time>2026-06-15T13:55:22.000Z</time>
        <extensions>
          <ns3:TrackPointExtension>
            <ns3:atemp>22.0</ns3:atemp>
          </ns3:TrackPointExtension>
        </extensions>
      </trkpt>
      <trkpt lat="42.571602053940296173095703125" lon="20.02753361128270626068115234375">
        <ele>2034.199951171875</ele>
        <time>2026-06-15T13:55:23.000Z</time>
        <extensions>
          <ns3:TrackPointExtension>
            <ns3:atemp>22.0</ns3:atemp>
          </ns3:TrackPointExtension>
        </extensions>
      </trkpt>
      <trkpt lat="42.57164262235164642333984375" lon="20.0275010056793689727783203125">
        <ele>2034.199951171875</ele>
        <time>2026-06-15T13:55:24.000Z</time>
        <extensions>
          <ns3:TrackPointExtension>
            <ns3:atemp>22.0</ns3:atemp>
          </ns3:TrackPointExtension>
        </extensions>
      </trkpt>
      <trkpt lat="42.57167749106884002685546875" lon="20.0274738483130931854248046875">
        <ele>2034.199951171875</ele>
        <time>2026-06-15T13:55:25.000Z</time>
        <extensions>
          <ns3:TrackPointExtension>
            <ns3:atemp>22.0</ns3:atemp>
          </ns3:TrackPointExtension>
        </extensions>
      </trkpt>
      <trkpt lat="42.57170909084379673004150390625" lon="20.027440153062343597412109375">
        <ele>2034.4000244140625</ele>
        <time>2026-06-15T13:55:26.000Z</time>
        <extensions>
          <ns3:TrackPointExtension>
            <ns3:atemp>22.0</ns3:atemp>
          </ns3:TrackPointExtension>
        </extensions>
      </trkpt>
      <trkpt lat="42.571735493838787078857421875" lon="20.02740670926868915557861328125">
        <ele>2034.4000244140625</ele>
        <time>2026-06-15T13:55:27.000Z</time>
        <extensions>
          <ns3:TrackPointExtension>
            <ns3:atemp>22.0</ns3:atemp>
          </ns3:TrackPointExtension>
        </extensions>
      </trkpt>
      <trkpt lat="42.57176323793828487396240234375" lon="20.02736798487603664398193359375">
        <ele>2034.4000244140625</ele>
        <time>2026-06-15T13:55:28.000Z</time>
        <extensions>
          <ns3:TrackPointExtension>
            <ns3:atemp>22.0</ns3:atemp>
          </ns3:TrackPointExtension>
        </extensions>
      </trkpt>
      <trkpt lat="42.5717899762094020843505859375" lon="20.0273291766643524169921875">
        <ele>2034.4000244140625</ele>
        <time>2026-06-15T13:55:29.000Z</time>
        <extensions>
          <ns3:TrackPointExtension>
            <ns3:atemp>22.0</ns3:atemp>
          </ns3:TrackPointExtension>
        </extensions>
      </trkpt>
      <trkpt lat="42.57181654684245586395263671875" lon="20.027285926043987274169921875">
        <ele>2034.4000244140625</ele>
        <time>2026-06-15T13:55:30.000Z</time>
        <extensions>
          <ns3:TrackPointExtension>
            <ns3:atemp>22.0</ns3:atemp>
          </ns3:TrackPointExtension>
        </extensions>
      </trkpt>
      <trkpt lat="42.5718406029045581817626953125" lon="20.0272326171398162841796875">
        <ele>2034.4000244140625</ele>
        <time>2026-06-15T13:55:31.000Z</time>
        <extensions>
          <ns3:TrackPointExtension>
            <ns3:atemp>22.0</ns3:atemp>
          </ns3:TrackPointExtension>
        </extensions>
      </trkpt>
      <trkpt lat="42.57185962982475757598876953125" lon="20.02717696130275726318359375">
        <ele>2034.199951171875</ele>
        <time>2026-06-15T13:55:32.000Z</time>
        <extensions>
          <ns3:TrackPointExtension>
            <ns3:atemp>22.0</ns3:atemp>
          </ns3:TrackPointExtension>
        </extensions>
      </trkpt>
      <trkpt lat="42.5718771480023860931396484375" lon="20.027124322950839996337890625">
        <ele>2034.199951171875</ele>
        <time>2026-06-15T13:55:33.000Z</time>
        <extensions>
          <ns3:TrackPointExtension>
            <ns3:atemp>22.0</ns3:atemp>
          </ns3:TrackPointExtension>
        </extensions>
      </trkpt>
      <trkpt lat="42.5718986056745052337646484375" lon="20.02706858329474925994873046875">
        <ele>2034.199951171875</ele>
        <time>2026-06-15T13:55:34.000Z</time>
        <extensions>
          <ns3:TrackPointExtension>
            <ns3:atemp>22.0</ns3:atemp>
          </ns3:TrackPointExtension>
        </extensions>
      </trkpt>
      <trkpt lat="42.571930624544620513916015625" lon="20.0270239077508449554443359375">
        <ele>2034.199951171875</ele>
        <time>2026-06-15T13:55:35.000Z</time>
        <extensions>
          <ns3:TrackPointExtension>
            <ns3:atemp>22.0</ns3:atemp>
          </ns3:TrackPointExtension>
        </extensions>
      </trkpt>
      <trkpt lat="42.5719680078327655792236328125" lon="20.0269917212426662445068359375">
        <ele>2034</ele>
        <time>2026-06-15T13:55:36.000Z</time>
        <extensions>
          <ns3:TrackPointExtension>
            <ns3:atemp>22.0</ns3:atemp>
          </ns3:TrackPointExtension>
        </extensions>
      </trkpt>
      <trkpt lat="42.5720146112143993377685546875" lon="20.0269804894924163818359375">
        <ele>2034</ele>
        <time>2026-06-15T13:55:37.000Z</time>
        <extensions>
          <ns3:TrackPointExtension>
            <ns3:atemp>22.0</ns3:atemp>
          </ns3:TrackPointExtension>
        </extensions>
      </trkpt>
      <trkpt lat="42.5720612145960330963134765625" lon="20.02697981894016265869140625">
        <ele>2033.800048828125</ele>
        <time>2026-06-15T13:55:38.000Z</time>
        <extensions>
          <ns3:TrackPointExtension>
            <ns3:atemp>22.0</ns3:atemp>
          </ns3:TrackPointExtension>
        </extensions>
      </trkpt>
      <trkpt lat="42.57211527787148952484130859375" lon="20.0269793160259723663330078125">
        <ele>2033.4000244140625</ele>
        <time>2026-06-15T13:55:39.000Z</time>
        <extensions>
          <ns3:TrackPointExtension>
            <ns3:atemp>22.0</ns3:atemp>
          </ns3:TrackPointExtension>
        </extensions>
      </trkpt>
      <trkpt lat="42.57217344827950000762939453125" lon="20.02696615643799304962158203125">
        <ele>2033</ele>
        <time>2026-06-15T13:55:40.000Z</time>
        <extensions>
          <ns3:TrackPointExtension>
            <ns3:atemp>22.0</ns3:atemp>
          </ns3:TrackPointExtension>
        </extensions>
      </trkpt>
      <trkpt lat="42.57222927175462245941162109375" lon="20.026945285499095916748046875">
        <ele>2032.5999755859375</ele>
        <time>2026-06-15T13:55:41.000Z</time>
        <extensions>
          <ns3:TrackPointExtension>
            <ns3:atemp>22.0</ns3:atemp>
          </ns3:TrackPointExtension>
        </extensions>
      </trkpt>
      <trkpt lat="42.5722803175449371337890625" lon="20.0269125960767269134521484375">
        <ele>2032.199951171875</ele>
        <time>2026-06-15T13:55:42.000Z</time>
        <extensions>
          <ns3:TrackPointExtension>
            <ns3:atemp>22.0</ns3:atemp>
          </ns3:TrackPointExtension>
        </extensions>
      </trkpt>
      <trkpt lat="42.57232985459268093109130859375" lon="20.02687445841729640960693359375">
        <ele>2031.5999755859375</ele>
        <time>2026-06-15T13:55:43.000Z</time>
        <extensions>
          <ns3:TrackPointExtension>
            <ns3:atemp>22.0</ns3:atemp>
          </ns3:TrackPointExtension>
        </extensions>
      </trkpt>
      <trkpt lat="42.5723730213940143585205078125" lon="20.0268297828733921051025390625">
        <ele>2031</ele>
        <time>2026-06-15T13:55:44.000Z</time>
        <extensions>
          <ns3:TrackPointExtension>
            <ns3:atemp>22.0</ns3:atemp>
          </ns3:TrackPointExtension>
        </extensions>
      </trkpt>
      <trkpt lat="42.572413422167301177978515625" lon="20.0267754681408405303955078125">
        <ele>2030.800048828125</ele>
        <time>2026-06-15T13:55:45.000Z</time>
        <extensions>
          <ns3:TrackPointExtension>
            <ns3:atemp>22.0</ns3:atemp>
          </ns3:TrackPointExtension>
        </extensions>
      </trkpt>
      <trkpt lat="42.57245742715895175933837890625" lon="20.02670916728675365447998046875">
        <ele>2030.4000244140625</ele>
        <time>2026-06-15T13:55:46.000Z</time>
        <extensions>
          <ns3:TrackPointExtension>
            <ns3:atemp>22.0</ns3:atemp>
          </ns3:TrackPointExtension>
        </extensions>
      </trkpt>
      <trkpt lat="42.5725044496357440948486328125" lon="20.02663741819560527801513671875">
        <ele>2029.800048828125</ele>
        <time>2026-06-15T13:55:47.000Z</time>
        <extensions>
          <ns3:TrackPointExtension>
            <ns3:atemp>22.0</ns3:atemp>
          </ns3:TrackPointExtension>
        </extensions>
      </trkpt>
      <trkpt lat="42.572560943663120269775390625" lon="20.02656944096088409423828125">
        <ele>2029.5999755859375</ele>
        <time>2026-06-15T13:55:48.000Z</time>
        <extensions>
          <ns3:TrackPointExtension>
            <ns3:atemp>22.0</ns3:atemp>
          </ns3:TrackPointExtension>
        </extensions>
      </trkpt>
      <trkpt lat="42.57261936552822589874267578125" lon="20.0265102647244930267333984375">
        <ele>2029.4000244140625</ele>
        <time>2026-06-15T13:55:49.000Z</time>
        <extensions>
          <ns3:TrackPointExtension>
            <ns3:atemp>22.0</ns3:atemp>
          </ns3:TrackPointExtension>
        </extensions>
      </trkpt>
      <trkpt lat="42.57267820648849010467529296875" lon="20.0264495797455310821533203125">
        <ele>2028.800048828125</ele>
        <time>2026-06-15T13:55:50.000Z</time>
        <extensions>
          <ns3:TrackPointExtension>
            <ns3:atemp>22.0</ns3:atemp>
          </ns3:TrackPointExtension>
        </extensions>
      </trkpt>
      <trkpt lat="42.57273201830685138702392578125" lon="20.02639182843267917633056640625">
        <ele>2028.5999755859375</ele>
        <time>2026-06-15T13:55:51.000Z</time>
        <extensions>
          <ns3:TrackPointExtension>
            <ns3:atemp>22.0</ns3:atemp>
          </ns3:TrackPointExtension>
        </extensions>
      </trkpt>
      <trkpt lat="42.57278432138264179229736328125" lon="20.02633382566273212432861328125">
        <ele>2028.4000244140625</ele>
        <time>2026-06-15T13:55:52.000Z</time>
        <extensions>
          <ns3:TrackPointExtension>
            <ns3:atemp>22.0</ns3:atemp>
          </ns3:TrackPointExtension>
        </extensions>
      </trkpt>
      <trkpt lat="42.57283427752554416656494140625" lon="20.0262836180627346038818359375">
        <ele>2028.199951171875</ele>
        <time>2026-06-15T13:55:53.000Z</time>
        <extensions>
          <ns3:TrackPointExtension>
            <ns3:atemp>22.0</ns3:atemp>
          </ns3:TrackPointExtension>
        </extensions>
      </trkpt>
      <trkpt lat="42.57287987507879734039306640625" lon="20.02623810432851314544677734375">
        <ele>2028.199951171875</ele>
        <time>2026-06-15T13:55:54.000Z</time>
        <extensions>
          <ns3:TrackPointExtension>
            <ns3:atemp>22.0</ns3:atemp>
          </ns3:TrackPointExtension>
        </extensions>
      </trkpt>
      <trkpt lat="42.5729158334434032440185546875" lon="20.02618446014821529388427734375">
        <ele>2028.199951171875</ele>
        <time>2026-06-15T13:55:55.000Z</time>
        <extensions>
          <ns3:TrackPointExtension>
            <ns3:atemp>22.0</ns3:atemp>
          </ns3:TrackPointExtension>
        </extensions>
      </trkpt>
      <trkpt lat="42.57294843904674053192138671875" lon="20.0261337496340274810791015625">
        <ele>2028</ele>
        <time>2026-06-15T13:55:56.000Z</time>
        <extensions>
          <ns3:TrackPointExtension>
            <ns3:atemp>22.0</ns3:atemp>
          </ns3:TrackPointExtension>
        </extensions>
      </trkpt>
      <trkpt lat="42.5729785300791263580322265625" lon="20.02607725560665130615234375">
        <ele>2028</ele>
        <time>2026-06-15T13:55:57.000Z</time>
        <extensions>
          <ns3:TrackPointExtension>
            <ns3:atemp>22.0</ns3:atemp>
          </ns3:TrackPointExtension>
        </extensions>
      </trkpt>
      <trkpt lat="42.5730093754827976226806640625" lon="20.02601698972284793853759765625">
        <ele>2027.800048828125</ele>
        <time>2026-06-15T13:55:58.000Z</time>
        <extensions>
          <ns3:TrackPointExtension>
            <ns3:atemp>22.0</ns3:atemp>
          </ns3:TrackPointExtension>
        </extensions>
      </trkpt>
      <trkpt lat="42.573041059076786041259765625" lon="20.02595119178295135498046875">
        <ele>2027.5999755859375</ele>
        <time>2026-06-15T13:55:59.000Z</time>
        <extensions>
          <ns3:TrackPointExtension>
            <ns3:atemp>22.0</ns3:atemp>
          </ns3:TrackPointExtension>
        </extensions>
      </trkpt>
      <trkpt lat="42.5730831362307071685791015625" lon="20.02588489092886447906494140625">
        <ele>2027.4000244140625</ele>
        <time>2026-06-15T13:56:00.000Z</time>
        <extensions>
          <ns3:TrackPointExtension>
            <ns3:atemp>22.0</ns3:atemp>
          </ns3:TrackPointExtension>
        </extensions>
      </trkpt>
      <trkpt lat="42.57313384674489498138427734375" lon="20.02582085318863391876220703125">
        <ele>2027</ele>
        <time>2026-06-15T13:56:01.000Z</time>
        <extensions>
          <ns3:TrackPointExtension>
            <ns3:atemp>22.0</ns3:atemp>
          </ns3:TrackPointExtension>
        </extensions>
      </trkpt>
      <trkpt lat="42.57318983785808086395263671875" lon="20.02576502971351146697998046875">
        <ele>2026.5999755859375</ele>
        <time>2026-06-15T13:56:02.000Z</time>
        <extensions>
          <ns3:TrackPointExtension>
            <ns3:atemp>22.0</ns3:atemp>
          </ns3:TrackPointExtension>
        </extensions>
      </trkpt>
      <trkpt lat="42.5732504390180110931396484375" lon="20.02571356482803821563720703125">
        <ele>2026</ele>
        <time>2026-06-15T13:56:03.000Z</time>
        <extensions>
          <ns3:TrackPointExtension>
            <ns3:atemp>22.0</ns3:atemp>
          </ns3:TrackPointExtension>
        </extensions>
      </trkpt>
      <trkpt lat="42.57331120781600475311279296875" lon="20.02565472386777400970458984375">
        <ele>2025.5999755859375</ele>
        <time>2026-06-15T13:56:04.000Z</time>
        <extensions>
          <ns3:TrackPointExtension>
            <ns3:atemp>22.0</ns3:atemp>
          </ns3:TrackPointExtension>
        </extensions>
      </trkpt>
      <trkpt lat="42.57337264716625213623046875" lon="20.02559370361268520355224609375">
        <ele>2025</ele>
        <time>2026-06-15T13:56:05.000Z</time>
        <extensions>
          <ns3:TrackPointExtension>
            <ns3:atemp>22.0</ns3:atemp>
          </ns3:TrackPointExtension>
        </extensions>
      </trkpt>
      <trkpt lat="42.5734371878206729888916015625" lon="20.02553268335759639739990234375">
        <ele>2024</ele>
        <time>2026-06-15T13:56:06.000Z</time>
        <extensions>
          <ns3:TrackPointExtension>
            <ns3:atemp>22.0</ns3:atemp>
          </ns3:TrackPointExtension>
        </extensions>
      </trkpt>
      <trkpt lat="42.57349560968577861785888671875" lon="20.02546462230384349822998046875">
        <ele>2023.4000244140625</ele>
        <time>2026-06-15T13:56:07.000Z</time>
        <extensions>
          <ns3:TrackPointExtension>
            <ns3:atemp>22.0</ns3:atemp>
          </ns3:TrackPointExtension>
        </extensions>
      </trkpt>
      <trkpt lat="42.57355176843702793121337890625" lon="20.02538667060434818267822265625">
        <ele>2022.800048828125</ele>
        <time>2026-06-15T13:56:08.000Z</time>
        <extensions>
          <ns3:TrackPointExtension>
            <ns3:atemp>22.0</ns3:atemp>
          </ns3:TrackPointExtension>
        </extensions>
      </trkpt>
      <trkpt lat="42.57360004819929599761962890625" lon="20.0252915360033512115478515625">
        <ele>2022.199951171875</ele>
        <time>2026-06-15T13:56:09.000Z</time>
        <extensions>
          <ns3:TrackPointExtension>
            <ns3:atemp>22.0</ns3:atemp>
          </ns3:TrackPointExtension>
        </extensions>
      </trkpt>
      <trkpt lat="42.5736428797245025634765625" lon="20.02519070170819759368896484375">
        <ele>2021.4000244140625</ele>
        <time>2026-06-15T13:56:10.000Z</time>
        <extensions>
          <ns3:TrackPointExtension>
            <ns3:atemp>22.0</ns3:atemp>
          </ns3:TrackPointExtension>
        </extensions>
      </trkpt>
      <trkpt lat="42.57368135266005992889404296875" lon="20.025079809129238128662109375">
        <ele>2020.5999755859375</ele>
        <time>2026-06-15T13:56:11.000Z</time>
        <extensions>
          <ns3:TrackPointExtension>
            <ns3:atemp>22.0</ns3:atemp>
          </ns3:TrackPointExtension>
        </extensions>
      </trkpt>
      <trkpt lat="42.57371119223535060882568359375" lon="20.0249643065035343170166015625">
        <ele>2020</ele>
        <time>2026-06-15T13:56:12.000Z</time>
        <extensions>
          <ns3:TrackPointExtension>
            <ns3:atemp>22.0</ns3:atemp>
          </ns3:TrackPointExtension>
        </extensions>
      </trkpt>
      <trkpt lat="42.5737134553492069244384765625" lon="20.0248731113970279693603515625">
        <ele>2019.4000244140625</ele>
        <time>2026-06-15T13:56:13.000Z</time>
        <extensions>
          <ns3:TrackPointExtension>
            <ns3:atemp>22.0</ns3:atemp>
          </ns3:TrackPointExtension>
        </extensions>
      </trkpt>
      <trkpt lat="42.573704905807971954345703125" lon="20.0247980095446109771728515625">
        <ele>2019</ele>
        <time>2026-06-15T13:56:14.000Z</time>
        <extensions>
          <ns3:TrackPointExtension>
            <ns3:atemp>22.0</ns3:atemp>
          </ns3:TrackPointExtension>
        </extensions>
      </trkpt>
      <trkpt lat="42.5736879743635654449462890625" lon="20.02472802065312862396240234375">
        <ele>2018.800048828125</ele>
        <time>2026-06-15T13:56:15.000Z</time>
        <extensions>
          <ns3:TrackPointExtension>
            <ns3:atemp>22.0</ns3:atemp>
          </ns3:TrackPointExtension>
        </extensions>
      </trkpt>
      <trkpt lat="42.57367037236690521240234375" lon="20.02465811558067798614501953125">
        <ele>2018.800048828125</ele>
        <time>2026-06-15T13:56:16.000Z</time>
        <extensions>
          <ns3:TrackPointExtension>
            <ns3:atemp>22.0</ns3:atemp>
          </ns3:TrackPointExtension>
        </extensions>
      </trkpt>
      <trkpt lat="42.57366643287241458892822265625" lon="20.02459156326949596405029296875">
        <ele>2018.5999755859375</ele>
        <time>2026-06-15T13:56:17.000Z</time>
        <extensions>
          <ns3:TrackPointExtension>
            <ns3:atemp>22.0</ns3:atemp>
          </ns3:TrackPointExtension>
        </extensions>
      </trkpt>
      <trkpt lat="42.5736738927662372589111328125" lon="20.02453389577567577362060546875">
        <ele>2018.5999755859375</ele>
        <time>2026-06-15T13:56:18.000Z</time>
        <extensions>
          <ns3:TrackPointExtension>
            <ns3:atemp>22.0</ns3:atemp>
          </ns3:TrackPointExtension>
        </extensions>
      </trkpt>
      <trkpt lat="42.573688142001628875732421875" lon="20.02447723411023616790771484375">
        <ele>2018.800048828125</ele>
        <time>2026-06-15T13:56:19.000Z</time>
        <extensions>
          <ns3:TrackPointExtension>
            <ns3:atemp>22.0</ns3:atemp>
          </ns3:TrackPointExtension>
        </extensions>
      </trkpt>
      <trkpt lat="42.57370163686573505401611328125" lon="20.02442442812025547027587890625">
        <ele>2018.5999755859375</ele>
        <time>2026-06-15T13:56:20.000Z</time>
        <extensions>
          <ns3:TrackPointExtension>
            <ns3:atemp>22.0</ns3:atemp>
          </ns3:TrackPointExtension>
        </extensions>
      </trkpt>
      <trkpt lat="42.57371555082499980926513671875" lon="20.0243701972067356109619140625">
        <ele>2018.5999755859375</ele>
        <time>2026-06-15T13:56:21.000Z</time>
        <extensions>
          <ns3:TrackPointExtension>
            <ns3:atemp>22.0</ns3:atemp>
          </ns3:TrackPointExtension>
        </extensions>
      </trkpt>
      <trkpt lat="42.5737302191555500030517578125" lon="20.02431504428386688232421875">
        <ele>2018.5999755859375</ele>
        <time>2026-06-15T13:56:22.000Z</time>
        <extensions>
          <ns3:TrackPointExtension>
            <ns3:atemp>22.0</ns3:atemp>
          </ns3:TrackPointExtension>
        </extensions>
      </trkpt>
      <trkpt lat="42.5737443007528781890869140625" lon="20.02425176091492176055908203125">
        <ele>2018.5999755859375</ele>
        <time>2026-06-15T13:56:23.000Z</time>
        <extensions>
          <ns3:TrackPointExtension>
            <ns3:atemp>22.0</ns3:atemp>
          </ns3:TrackPointExtension>
        </extensions>
      </trkpt>
      <trkpt lat="42.5737501680850982666015625" lon="20.02419040538370609283447265625">
        <ele>2018.5999755859375</ele>
        <time>2026-06-15T13:56:24.000Z</time>
        <extensions>
          <ns3:TrackPointExtension>
            <ns3:atemp>22.0</ns3:atemp>
          </ns3:TrackPointExtension>
        </extensions>
      </trkpt>
      <trkpt lat="42.573746144771575927734375" lon="20.02413131296634674072265625">
        <ele>2018.800048828125</ele>
        <time>2026-06-15T13:56:25.000Z</time>
        <extensions>
          <ns3:TrackPointExtension>
            <ns3:atemp>22.0</ns3:atemp>
          </ns3:TrackPointExtension>
        </extensions>
      </trkpt>
      <trkpt lat="42.57374270819127559661865234375" lon="20.02407096326351165771484375">
        <ele>2018.800048828125</ele>
        <time>2026-06-15T13:56:26.000Z</time>
        <extensions>
          <ns3:TrackPointExtension>
            <ns3:atemp>22.0</ns3:atemp>
          </ns3:TrackPointExtension>
        </extensions>
      </trkpt>
      <trkpt lat="42.57375352084636688232421875" lon="20.02400918863713741302490234375">
        <ele>2018.800048828125</ele>
        <time>2026-06-15T13:56:27.000Z</time>
        <extensions>
          <ns3:TrackPointExtension>
            <ns3:atemp>22.0</ns3:atemp>
          </ns3:TrackPointExtension>
        </extensions>
      </trkpt>
      <trkpt lat="42.57377891801297664642333984375" lon="20.02395872958004474639892578125">
        <ele>2019</ele>
        <time>2026-06-15T13:56:28.000Z</time>
        <extensions>
          <ns3:TrackPointExtension>
            <ns3:atemp>22.0</ns3:atemp>
          </ns3:TrackPointExtension>
        </extensions>
      </trkpt>
      <trkpt lat="42.5738123618066310882568359375" lon="20.02392285503447055816650390625">
        <ele>2019.199951171875</ele>
        <time>2026-06-15T13:56:29.000Z</time>
        <extensions>
          <ns3:TrackPointExtension>
            <ns3:atemp>22.0</ns3:atemp>
          </ns3:TrackPointExtension>
        </extensions>
      </trkpt>
      <trkpt lat="42.57385435514152050018310546875" lon="20.02389536239206790924072265625">
        <ele>2019.199951171875</ele>
        <time>2026-06-15T13:56:30.000Z</time>
        <extensions>
          <ns3:TrackPointExtension>
            <ns3:atemp>22.0</ns3:atemp>
          </ns3:TrackPointExtension>
        </extensions>
      </trkpt>
      <trkpt lat="42.5738968513906002044677734375" lon="20.02386937849223613739013671875">
        <ele>2019.199951171875</ele>
        <time>2026-06-15T13:56:31.000Z</time>
        <extensions>
          <ns3:TrackPointExtension>
            <ns3:atemp>22.0</ns3:atemp>
          </ns3:TrackPointExtension>
        </extensions>
      </trkpt>
      <trkpt lat="42.573933899402618408203125" lon="20.0238361023366451263427734375">
        <ele>2019.199951171875</ele>
        <time>2026-06-15T13:56:32.000Z</time>
        <extensions>
          <ns3:TrackPointExtension>
            <ns3:atemp>22.0</ns3:atemp>
          </ns3:TrackPointExtension>
        </extensions>
      </trkpt>
      <trkpt lat="42.57396943867206573486328125" lon="20.02379628829658031463623046875">
        <ele>2019</ele>
        <time>2026-06-15T13:56:33.000Z</time>
        <extensions>
          <ns3:TrackPointExtension>
            <ns3:atemp>22.0</ns3:atemp>
          </ns3:TrackPointExtension>
        </extensions>
      </trkpt>
      <trkpt lat="42.57400237955152988433837890625" lon="20.02374549396336078643798828125">
        <ele>2019</ele>
        <time>2026-06-15T13:56:34.000Z</time>
        <extensions>
          <ns3:TrackPointExtension>
            <ns3:atemp>22.0</ns3:atemp>
          </ns3:TrackPointExtension>
        </extensions>
      </trkpt>
      <trkpt lat="42.5740272738039493560791015625" lon="20.0236872397363185882568359375">
        <ele>2018.5999755859375</ele>
        <time>2026-06-15T13:56:35.000Z</time>
        <extensions>
          <ns3:TrackPointExtension>
            <ns3:atemp>22.0</ns3:atemp>
          </ns3:TrackPointExtension>
        </extensions>
      </trkpt>
      <trkpt lat="42.57404160685837268829345703125" lon="20.023624040186405181884765625">
        <ele>2018.4000244140625</ele>
        <time>2026-06-15T13:56:36.000Z</time>
        <extensions>
          <ns3:TrackPointExtension>
            <ns3:atemp>22.0</ns3:atemp>
          </ns3:TrackPointExtension>
        </extensions>
      </trkpt>
      <trkpt lat="42.57404512725770473480224609375" lon="20.02355522476136684417724609375">
        <ele>2018.199951171875</ele>
        <time>2026-06-15T13:56:37.000Z</time>
        <extensions>
          <ns3:TrackPointExtension>
            <ns3:atemp>22.0</ns3:atemp>
          </ns3:TrackPointExtension>
        </extensions>
      </trkpt>
      <trkpt lat="42.57404579780995845794677734375" lon="20.02348917536437511444091796875">
        <ele>2018</ele>
        <time>2026-06-15T13:56:38.000Z</time>
        <extensions>
          <ns3:TrackPointExtension>
            <ns3:atemp>22.0</ns3:atemp>
          </ns3:TrackPointExtension>
        </extensions>
      </trkpt>
      <trkpt lat="42.5740457139909267425537109375" lon="20.02342698164284229278564453125">
        <ele>2017.800048828125</ele>
        <time>2026-06-15T13:56:39.000Z</time>
        <extensions>
          <ns3:TrackPointExtension>
            <ns3:atemp>22.0</ns3:atemp>
          </ns3:TrackPointExtension>
        </extensions>
      </trkpt>
      <trkpt lat="42.57404395379126071929931640625" lon="20.02336361445486545562744140625">
        <ele>2017.5999755859375</ele>
        <time>2026-06-15T13:56:40.000Z</time>
        <extensions>
          <ns3:TrackPointExtension>
            <ns3:atemp>22.0</ns3:atemp>
          </ns3:TrackPointExtension>
        </extensions>
      </trkpt>
      <trkpt lat="42.57405954413115978240966796875" lon="20.02330091781914234161376953125">
        <ele>2017.5999755859375</ele>
        <time>2026-06-15T13:56:41.000Z</time>
        <extensions>
          <ns3:TrackPointExtension>
            <ns3:atemp>22.0</ns3:atemp>
          </ns3:TrackPointExtension>
        </extensions>
      </trkpt>
      <trkpt lat="42.57408452220261096954345703125" lon="20.023250877857208251953125">
        <ele>2017.4000244140625</ele>
        <time>2026-06-15T13:56:42.000Z</time>
        <extensions>
          <ns3:TrackPointExtension>
            <ns3:atemp>22.0</ns3:atemp>
          </ns3:TrackPointExtension>
        </extensions>
      </trkpt>
      <trkpt lat="42.5741203129291534423828125" lon="20.02321475185453891754150390625">
        <ele>2017.199951171875</ele>
        <time>2026-06-15T13:56:43.000Z</time>
        <extensions>
          <ns3:TrackPointExtension>
            <ns3:atemp>22.0</ns3:atemp>
          </ns3:TrackPointExtension>
        </extensions>
      </trkpt>
      <trkpt lat="42.574159204959869384765625" lon="20.02318407408893108367919921875">
        <ele>2017</ele>
        <time>2026-06-15T13:56:44.000Z</time>
        <extensions>
          <ns3:TrackPointExtension>
            <ns3:atemp>22.0</ns3:atemp>
          </ns3:TrackPointExtension>
        </extensions>
      </trkpt>
      <trkpt lat="42.57420337758958339691162109375" lon="20.023159347474575042724609375">
        <ele>2016.800048828125</ele>
        <time>2026-06-15T13:56:45.000Z</time>
        <extensions>
          <ns3:TrackPointExtension>
            <ns3:atemp>22.0</ns3:atemp>
          </ns3:TrackPointExtension>
        </extensions>
      </trkpt>
      <trkpt lat="42.57424461655318737030029296875" lon="20.02312942408025264739990234375">
        <ele>2016.5999755859375</ele>
        <time>2026-06-15T13:56:46.000Z</time>
        <extensions>
          <ns3:TrackPointExtension>
            <ns3:atemp>22.0</ns3:atemp>
          </ns3:TrackPointExtension>
        </extensions>
      </trkpt>
      <trkpt lat="42.57428417913615703582763671875" lon="20.02310193143784999847412109375">
        <ele>2016.5999755859375</ele>
        <time>2026-06-15T13:56:47.000Z</time>
        <extensions>
          <ns3:TrackPointExtension>
            <ns3:atemp>22.0</ns3:atemp>
          </ns3:TrackPointExtension>
        </extensions>
      </trkpt>
      <trkpt lat="42.57432457990944385528564453125" lon="20.02307242713868618011474609375">
        <ele>2016.5999755859375</ele>
        <time>2026-06-15T13:56:48.000Z</time>
        <extensions>
          <ns3:TrackPointExtension>
            <ns3:atemp>22.0</ns3:atemp>
          </ns3:TrackPointExtension>
        </extensions>
      </trkpt>
      <trkpt lat="42.5743642263114452362060546875" lon="20.02304912544786930084228515625">
        <ele>2016.5999755859375</ele>
        <time>2026-06-15T13:56:49.000Z</time>
        <extensions>
          <ns3:TrackPointExtension>
            <ns3:atemp>22.0</ns3:atemp>
          </ns3:TrackPointExtension>
        </extensions>
      </trkpt>
      <trkpt lat="42.57440353743731975555419921875" lon="20.02303236164152622222900390625">
        <ele>2016.800048828125</ele>
        <time>2026-06-15T13:56:50.000Z</time>
        <extensions>
          <ns3:TrackPointExtension>
            <ns3:atemp>22.0</ns3:atemp>
          </ns3:TrackPointExtension>
        </extensions>
      </trkpt>
      <trkpt lat="42.57443857379257678985595703125" lon="20.023007802665233612060546875">
        <ele>2016.800048828125</ele>
        <time>2026-06-15T13:56:51.000Z</time>
        <extensions>
          <ns3:TrackPointExtension>
            <ns3:atemp>22.0</ns3:atemp>
          </ns3:TrackPointExtension>
        </extensions>
      </trkpt>
      <trkpt lat="42.57447193376719951629638671875" lon="20.02298106439411640167236328125">
        <ele>2016.5999755859375</ele>
        <time>2026-06-15T13:56:52.000Z</time>
        <extensions>
          <ns3:TrackPointExtension>
            <ns3:atemp>22.0</ns3:atemp>
          </ns3:TrackPointExtension>
        </extensions>
      </trkpt>
      <trkpt lat="42.574500851333141326904296875" lon="20.0229486264288425445556640625">
        <ele>2016.5999755859375</ele>
        <time>2026-06-15T13:56:53.000Z</time>
        <extensions>
          <ns3:TrackPointExtension>
            <ns3:atemp>22.0</ns3:atemp>
          </ns3:TrackPointExtension>
        </extensions>
      </trkpt>
      <trkpt lat="42.5745301879942417144775390625" lon="20.0229238159954547882080078125">
        <ele>2016.5999755859375</ele>
        <time>2026-06-15T13:56:54.000Z</time>
        <extensions>
          <ns3:TrackPointExtension>
            <ns3:atemp>22.0</ns3:atemp>
          </ns3:TrackPointExtension>
        </extensions>
      </trkpt>
      <trkpt lat="42.5745593570172786712646484375" lon="20.0228847563266754150390625">
        <ele>2016.4000244140625</ele>
        <time>2026-06-15T13:56:55.000Z</time>
        <extensions>
          <ns3:TrackPointExtension>
            <ns3:atemp>22.0</ns3:atemp>
          </ns3:TrackPointExtension>
        </extensions>
      </trkpt>
      <trkpt lat="42.5745848380029201507568359375" lon="20.02283220179378986358642578125">
        <ele>2016.4000244140625</ele>
        <time>2026-06-15T13:56:56.000Z</time>
        <extensions>
          <ns3:TrackPointExtension>
            <ns3:atemp>22.0</ns3:atemp>
          </ns3:TrackPointExtension>
        </extensions>
      </trkpt>
      <trkpt lat="42.5746099837124347686767578125" lon="20.02278191037476062774658203125">
        <ele>2016.4000244140625</ele>
        <time>2026-06-15T13:56:57.000Z</time>
        <extensions>
          <ns3:TrackPointExtension>
            <ns3:atemp>22.0</ns3:atemp>
          </ns3:TrackPointExtension>
        </extensions>
      </trkpt>
      <trkpt lat="42.57463890127837657928466796875" lon="20.02273748628795146942138671875">
        <ele>2016.4000244140625</ele>
        <time>2026-06-15T13:56:58.000Z</time>
        <extensions>
          <ns3:TrackPointExtension>
            <ns3:atemp>22.0</ns3:atemp>
          </ns3:TrackPointExtension>
        </extensions>
      </trkpt>
      <trkpt lat="42.57466706447303295135498046875" lon="20.02268987707793712615966796875">
        <ele>2016.4000244140625</ele>
        <time>2026-06-15T13:56:59.000Z</time>
        <extensions>
          <ns3:TrackPointExtension>
            <ns3:atemp>22.0</ns3:atemp>
          </ns3:TrackPointExtension>
        </extensions>
      </trkpt>
      <trkpt lat="42.57469908334314823150634765625" lon="20.02264126203954219818115234375">
        <ele>2016.199951171875</ele>
        <time>2026-06-15T13:57:00.000Z</time>
        <extensions>
          <ns3:TrackPointExtension>
            <ns3:atemp>22.0</ns3:atemp>
          </ns3:TrackPointExtension>
        </extensions>
      </trkpt>
      <trkpt lat="42.57473143748939037322998046875" lon="20.0225952453911304473876953125">
        <ele>2016</ele>
        <time>2026-06-15T13:57:01.000Z</time>
        <extensions>
          <ns3:TrackPointExtension>
            <ns3:atemp>22.0</ns3:atemp>
          </ns3:TrackPointExtension>
        </extensions>
      </trkpt>
      <trkpt lat="42.574771083891391754150390625" lon="20.02254688180983066558837890625">
        <ele>2015.5999755859375</ele>
        <time>2026-06-15T13:57:02.000Z</time>
        <extensions>
          <ns3:TrackPointExtension>
            <ns3:atemp>22.0</ns3:atemp>
          </ns3:TrackPointExtension>
        </extensions>
      </trkpt>
      <trkpt lat="42.57481299340724945068359375" lon="20.02249709330499172210693359375">
        <ele>2015.199951171875</ele>
        <time>2026-06-15T13:57:03.000Z</time>
        <extensions>
          <ns3:TrackPointExtension>
            <ns3:atemp>22.0</ns3:atemp>
          </ns3:TrackPointExtension>
        </extensions>
      </trkpt>
      <trkpt lat="42.57486303336918354034423828125" lon="20.02245887182652950286865234375">
        <ele>2014.800048828125</ele>
        <time>2026-06-15T13:57:04.000Z</time>
        <extensions>
          <ns3:TrackPointExtension>
            <ns3:atemp>21.0</ns3:atemp>
          </ns3:TrackPointExtension>
        </extensions>
      </trkpt>
      <trkpt lat="42.57491315715014934539794921875" lon="20.02242970280349254608154296875">
        <ele>2014.4000244140625</ele>
        <time>2026-06-15T13:57:05.000Z</time>
        <extensions>
          <ns3:TrackPointExtension>
            <ns3:atemp>21.0</ns3:atemp>
          </ns3:TrackPointExtension>
        </extensions>
      </trkpt>
      <trkpt lat="42.57496780715882778167724609375" lon="20.0224115140736103057861328125">
        <ele>2014</ele>
        <time>2026-06-15T13:57:06.000Z</time>
        <extensions>
          <ns3:TrackPointExtension>
            <ns3:atemp>21.0</ns3:atemp>
          </ns3:TrackPointExtension>
        </extensions>
      </trkpt>
      <trkpt lat="42.5750220380723476409912109375" lon="20.022406317293643951416015625">
        <ele>2013.5999755859375</ele>
        <time>2026-06-15T13:57:07.000Z</time>
        <extensions>
          <ns3:TrackPointExtension>
            <ns3:atemp>21.0</ns3:atemp>
          </ns3:TrackPointExtension>
        </extensions>
      </trkpt>
      <trkpt lat="42.57507693953812122344970703125" lon="20.0223974324762821197509765625">
        <ele>2013.4000244140625</ele>
        <time>2026-06-15T13:57:08.000Z</time>
        <extensions>
          <ns3:TrackPointExtension>
            <ns3:atemp>21.0</ns3:atemp>
          </ns3:TrackPointExtension>
        </extensions>
      </trkpt>
      <trkpt lat="42.57513510994613170623779296875" lon="20.02238946966826915740966796875">
        <ele>2013</ele>
        <time>2026-06-15T13:57:09.000Z</time>
        <extensions>
          <ns3:TrackPointExtension>
            <ns3:atemp>21.0</ns3:atemp>
          </ns3:TrackPointExtension>
        </extensions>
      </trkpt>
      <trkpt lat="42.5751960463821887969970703125" lon="20.0223890505731105804443359375">
        <ele>2012.5999755859375</ele>
        <time>2026-06-15T13:57:10.000Z</time>
        <extensions>
          <ns3:TrackPointExtension>
            <ns3:atemp>21.0</ns3:atemp>
          </ns3:TrackPointExtension>
        </extensions>
      </trkpt>
      <trkpt lat="42.57525413297116756439208984375" lon="20.02238477580249309539794921875">
        <ele>2012.4000244140625</ele>
        <time>2026-06-15T13:57:11.000Z</time>
        <extensions>
          <ns3:TrackPointExtension>
            <ns3:atemp>21.0</ns3:atemp>
          </ns3:TrackPointExtension>
        </extensions>
      </trkpt>
      <trkpt lat="42.57530660368502140045166015625" lon="20.02239198423922061920166015625">
        <ele>2012</ele>
        <time>2026-06-15T13:57:12.000Z</time>
        <extensions>
          <ns3:TrackPointExtension>
            <ns3:atemp>21.0</ns3:atemp>
          </ns3:TrackPointExtension>
        </extensions>
      </trkpt>
      <trkpt lat="42.575359828770160675048828125" lon="20.02239399589598178863525390625">
        <ele>2011.4000244140625</ele>
        <time>2026-06-15T13:57:13.000Z</time>
        <extensions>
          <ns3:TrackPointExtension>
            <ns3:atemp>21.0</ns3:atemp>
          </ns3:TrackPointExtension>
        </extensions>
      </trkpt>
      <trkpt lat="42.57541288621723651885986328125" lon="20.02238879911601543426513671875">
        <ele>2010.800048828125</ele>
        <time>2026-06-15T13:57:14.000Z</time>
        <extensions>
          <ns3:TrackPointExtension>
            <ns3:atemp>22.0</ns3:atemp>
          </ns3:TrackPointExtension>
        </extensions>
      </trkpt>
      <trkpt lat="42.575472481548786163330078125" lon="20.02238444052636623382568359375">
        <ele>2010.199951171875</ele>
        <time>2026-06-15T13:57:15.000Z</time>
        <extensions>
          <ns3:TrackPointExtension>
            <ns3:atemp>21.0</ns3:atemp>
          </ns3:TrackPointExtension>
        </extensions>
      </trkpt>
      <trkpt lat="42.57553123869001865386962890625" lon="20.0223786570131778717041015625">
        <ele>2009.5999755859375</ele>
        <time>2026-06-15T13:57:16.000Z</time>
        <extensions>
          <ns3:TrackPointExtension>
            <ns3:atemp>21.0</ns3:atemp>
          </ns3:TrackPointExtension>
        </extensions>
      </trkpt>
      <trkpt lat="42.575587816536426544189453125" lon="20.0223645754158496856689453125">
        <ele>2009</ele>
        <time>2026-06-15T13:57:17.000Z</time>
        <extensions>
          <ns3:TrackPointExtension>
            <ns3:atemp>21.0</ns3:atemp>
          </ns3:TrackPointExtension>
        </extensions>
      </trkpt>
      <trkpt lat="42.57564288564026355743408203125" lon="20.02233884297311305999755859375">
        <ele>2008.199951171875</ele>
        <time>2026-06-15T13:57:18.000Z</time>
        <extensions>
          <ns3:TrackPointExtension>
            <ns3:atemp>21.0</ns3:atemp>
          </ns3:TrackPointExtension>
        </extensions>
      </trkpt>
      <trkpt lat="42.5757013075053691864013671875" lon="20.0223161280155181884765625">
        <ele>2007.4000244140625</ele>
        <time>2026-06-15T13:57:19.000Z</time>
        <extensions>
          <ns3:TrackPointExtension>
            <ns3:atemp>21.0</ns3:atemp>
          </ns3:TrackPointExtension>
        </extensions>
      </trkpt>
      <trkpt lat="42.5757593102753162384033203125" lon="20.022294335067272186279296875">
        <ele>2006.800048828125</ele>
        <time>2026-06-15T13:57:20.000Z</time>
        <extensions>
          <ns3:TrackPointExtension>
            <ns3:atemp>21.0</ns3:atemp>
          </ns3:TrackPointExtension>
        </extensions>
      </trkpt>
      <trkpt lat="42.5758226774632930755615234375" lon="20.02227832563221454620361328125">
        <ele>2006</ele>
        <time>2026-06-15T13:57:21.000Z</time>
        <extensions>
          <ns3:TrackPointExtension>
            <ns3:atemp>21.0</ns3:atemp>
          </ns3:TrackPointExtension>
        </extensions>
      </trkpt>
      <trkpt lat="42.5758932530879974365234375" lon="20.02226449549198150634765625">
        <ele>2005.199951171875</ele>
        <time>2026-06-15T13:57:22.000Z</time>
        <extensions>
          <ns3:TrackPointExtension>
            <ns3:atemp>21.0</ns3:atemp>
          </ns3:TrackPointExtension>
        </extensions>
      </trkpt>
      <trkpt lat="42.57596768438816070556640625" lon="20.02225871197879314422607421875">
        <ele>2004.4000244140625</ele>
        <time>2026-06-15T13:57:23.000Z</time>
        <extensions>
          <ns3:TrackPointExtension>
            <ns3:atemp>21.0</ns3:atemp>
          </ns3:TrackPointExtension>
        </extensions>
      </trkpt>
      <trkpt lat="42.57604605518281459808349609375" lon="20.02226541750133037567138671875">
        <ele>2003.4000244140625</ele>
        <time>2026-06-15T13:57:24.000Z</time>
        <extensions>
          <ns3:TrackPointExtension>
            <ns3:atemp>21.0</ns3:atemp>
          </ns3:TrackPointExtension>
        </extensions>
      </trkpt>
      <trkpt lat="42.5761197321116924285888671875" lon="20.02226759679615497589111328125">
        <ele>2002.5999755859375</ele>
        <time>2026-06-15T13:57:25.000Z</time>
        <extensions>
          <ns3:TrackPointExtension>
            <ns3:atemp>21.0</ns3:atemp>
          </ns3:TrackPointExtension>
        </extensions>
      </trkpt>
      <trkpt lat="42.57619324140250682830810546875" lon="20.02225217409431934356689453125">
        <ele>2001.800048828125</ele>
        <time>2026-06-15T13:57:26.000Z</time>
        <extensions>
          <ns3:TrackPointExtension>
            <ns3:atemp>21.0</ns3:atemp>
          </ns3:TrackPointExtension>
        </extensions>
      </trkpt>
      <trkpt lat="42.57627253420650959014892578125" lon="20.02223038114607334136962890625">
        <ele>2000.800048828125</ele>
        <time>2026-06-15T13:57:27.000Z</time>
        <extensions>
          <ns3:TrackPointExtension>
            <ns3:atemp>21.0</ns3:atemp>
          </ns3:TrackPointExtension>
        </extensions>
      </trkpt>
      <trkpt lat="42.576354257762432098388671875" lon="20.02223021350800991058349609375">
        <ele>2000.199951171875</ele>
        <time>2026-06-15T13:57:28.000Z</time>
        <extensions>
          <ns3:TrackPointExtension>
            <ns3:atemp>21.0</ns3:atemp>
          </ns3:TrackPointExtension>
        </extensions>
      </trkpt>
      <trkpt lat="42.576432712376117706298828125" lon="20.02224840223789215087890625">
        <ele>1999.4000244140625</ele>
        <time>2026-06-15T13:57:29.000Z</time>
        <extensions>
          <ns3:TrackPointExtension>
            <ns3:atemp>21.0</ns3:atemp>
          </ns3:TrackPointExtension>
        </extensions>
      </trkpt>
      <trkpt lat="42.576512508094310760498046875" lon="20.02227229066193103790283203125">
        <ele>1998.199951171875</ele>
        <time>2026-06-15T13:57:30.000Z</time>
        <extensions>
          <ns3:TrackPointExtension>
            <ns3:atemp>21.0</ns3:atemp>
          </ns3:TrackPointExtension>
        </extensions>
      </trkpt>
      <trkpt lat="42.5765906274318695068359375" lon="20.0222951732575893402099609375">
        <ele>1997.4000244140625</ele>
        <time>2026-06-15T13:57:31.000Z</time>
        <extensions>
          <ns3:TrackPointExtension>
            <ns3:atemp>21.0</ns3:atemp>
          </ns3:TrackPointExtension>
        </extensions>
      </trkpt>
      <trkpt lat="42.57666614837944507598876953125" lon="20.0222931616008281707763671875">
        <ele>1996.5999755859375</ele>
        <time>2026-06-15T13:57:32.000Z</time>
        <extensions>
          <ns3:TrackPointExtension>
            <ns3:atemp>21.0</ns3:atemp>
          </ns3:TrackPointExtension>
        </extensions>
      </trkpt>
      <trkpt lat="42.57673747837543487548828125" lon="20.02226809971034526824951171875">
        <ele>1995.5999755859375</ele>
        <time>2026-06-15T13:57:33.000Z</time>
        <extensions>
          <ns3:TrackPointExtension>
            <ns3:atemp>21.0</ns3:atemp>
          </ns3:TrackPointExtension>
        </extensions>
      </trkpt>
      <trkpt lat="42.576800175011157989501953125" lon="20.02223574556410312652587890625">
        <ele>1994.800048828125</ele>
        <time>2026-06-15T13:57:34.000Z</time>
        <extensions>
          <ns3:TrackPointExtension>
            <ns3:atemp>21.0</ns3:atemp>
          </ns3:TrackPointExtension>
        </extensions>
      </trkpt>
      <trkpt lat="42.57685876451432704925537109375" lon="20.022188723087310791015625">
        <ele>1993.800048828125</ele>
        <time>2026-06-15T13:57:35.000Z</time>
        <extensions>
          <ns3:TrackPointExtension>
            <ns3:atemp>21.0</ns3:atemp>
          </ns3:TrackPointExtension>
        </extensions>
      </trkpt>
      <trkpt lat="42.5769136659801006317138671875" lon="20.02212258987128734588623046875">
        <ele>1993</ele>
        <time>2026-06-15T13:57:36.000Z</time>
        <extensions>
          <ns3:TrackPointExtension>
            <ns3:atemp>21.0</ns3:atemp>
          </ns3:TrackPointExtension>
        </extensions>
      </trkpt>
      <trkpt lat="42.57695901207625865936279296875" lon="20.02204396761953830718994140625">
        <ele>1992</ele>
        <time>2026-06-15T13:57:37.000Z</time>
        <extensions>
          <ns3:TrackPointExtension>
            <ns3:atemp>21.0</ns3:atemp>
          </ns3:TrackPointExtension>
        </extensions>
      </trkpt>
      <trkpt lat="42.5769971497356891632080078125" lon="20.02196232788264751434326171875">
        <ele>1991</ele>
        <time>2026-06-15T13:57:38.000Z</time>
        <extensions>
          <ns3:TrackPointExtension>
            <ns3:atemp>21.0</ns3:atemp>
          </ns3:TrackPointExtension>
        </extensions>
      </trkpt>
      <trkpt lat="42.57702422328293323516845703125" lon="20.021895356476306915283203125">
        <ele>1990.199951171875</ele>
        <time>2026-06-15T13:57:39.000Z</time>
        <extensions>
          <ns3:TrackPointExtension>
            <ns3:atemp>21.0</ns3:atemp>
          </ns3:TrackPointExtension>
        </extensions>
      </trkpt>
      <trkpt lat="42.57705758325755596160888671875" lon="20.0218308158218860626220703125">
        <ele>1989.4000244140625</ele>
        <time>2026-06-15T13:57:40.000Z</time>
        <extensions>
          <ns3:TrackPointExtension>
            <ns3:atemp>21.0</ns3:atemp>
          </ns3:TrackPointExtension>
        </extensions>
      </trkpt>
      <trkpt lat="42.57710385136306285858154296875" lon="20.0217711366713047027587890625">
        <ele>1988.5999755859375</ele>
        <time>2026-06-15T13:57:41.000Z</time>
        <extensions>
          <ns3:TrackPointExtension>
            <ns3:atemp>21.0</ns3:atemp>
          </ns3:TrackPointExtension>
        </extensions>
      </trkpt>
      <trkpt lat="42.5771647877991199493408203125" lon="20.02173551358282566070556640625">
        <ele>1987.800048828125</ele>
        <time>2026-06-15T13:57:42.000Z</time>
        <extensions>
          <ns3:TrackPointExtension>
            <ns3:atemp>21.0</ns3:atemp>
          </ns3:TrackPointExtension>
        </extensions>
      </trkpt>
      <trkpt lat="42.5772308371961116790771484375" lon="20.02173073589801788330078125">
        <ele>1987.199951171875</ele>
        <time>2026-06-15T13:57:43.000Z</time>
        <extensions>
          <ns3:TrackPointExtension>
            <ns3:atemp>21.0</ns3:atemp>
          </ns3:TrackPointExtension>
        </extensions>
      </trkpt>
      <trkpt lat="42.5773002393543720245361328125" lon="20.02173199318349361419677734375">
        <ele>1986.5999755859375</ele>
        <time>2026-06-15T13:57:44.000Z</time>
        <extensions>
          <ns3:TrackPointExtension>
            <ns3:atemp>21.0</ns3:atemp>
          </ns3:TrackPointExtension>
        </extensions>
      </trkpt>
      <trkpt lat="42.57736821658909320831298828125" lon="20.02175428904592990875244140625">
        <ele>1985.5999755859375</ele>
        <time>2026-06-15T13:57:45.000Z</time>
        <extensions>
          <ns3:TrackPointExtension>
            <ns3:atemp>21.0</ns3:atemp>
          </ns3:TrackPointExtension>
        </extensions>
      </trkpt>
      <trkpt lat="42.57743460126221179962158203125" lon="20.0217748247087001800537109375">
        <ele>1984.800048828125</ele>
        <time>2026-06-15T13:57:46.000Z</time>
        <extensions>
          <ns3:TrackPointExtension>
            <ns3:atemp>21.0</ns3:atemp>
          </ns3:TrackPointExtension>
        </extensions>
      </trkpt>
      <trkpt lat="42.57750266231596469879150390625" lon="20.02178815193474292755126953125">
        <ele>1984</ele>
        <time>2026-06-15T13:57:47.000Z</time>
        <extensions>
          <ns3:TrackPointExtension>
            <ns3:atemp>21.0</ns3:atemp>
          </ns3:TrackPointExtension>
        </extensions>
      </trkpt>
      <trkpt lat="42.577568627893924713134765625" lon="20.021804161369800567626953125">
        <ele>1983.199951171875</ele>
        <time>2026-06-15T13:57:48.000Z</time>
        <extensions>
          <ns3:TrackPointExtension>
            <ns3:atemp>21.0</ns3:atemp>
          </ns3:TrackPointExtension>
        </extensions>
      </trkpt>
      <trkpt lat="42.57762839086353778839111328125" lon="20.02180558629333972930908203125">
        <ele>1982.5999755859375</ele>
        <time>2026-06-15T13:57:49.000Z</time>
        <extensions>
          <ns3:TrackPointExtension>
            <ns3:atemp>21.0</ns3:atemp>
          </ns3:TrackPointExtension>
        </extensions>
      </trkpt>
      <trkpt lat="42.5776848010718822479248046875" lon="20.0218063406646251678466796875">
        <ele>1982.4000244140625</ele>
        <time>2026-06-15T13:57:50.000Z</time>
        <extensions>
          <ns3:TrackPointExtension>
            <ns3:atemp>21.0</ns3:atemp>
          </ns3:TrackPointExtension>
        </extensions>
      </trkpt>
      <trkpt lat="42.5777360983192920684814453125" lon="20.02179913222789764404296875">
        <ele>1982</ele>
        <time>2026-06-15T13:57:51.000Z</time>
        <extensions>
          <ns3:TrackPointExtension>
            <ns3:atemp>21.0</ns3:atemp>
          </ns3:TrackPointExtension>
        </extensions>
      </trkpt>
      <trkpt lat="42.57778848521411418914794921875" lon="20.02177004702389240264892578125">
        <ele>1981.199951171875</ele>
        <time>2026-06-15T13:57:52.000Z</time>
        <extensions>
          <ns3:TrackPointExtension>
            <ns3:atemp>21.0</ns3:atemp>
          </ns3:TrackPointExtension>
        </extensions>
      </trkpt>
      <trkpt lat="42.57783852517604827880859375" lon="20.02172981388866901397705078125">
        <ele>1980.800048828125</ele>
        <time>2026-06-15T13:57:53.000Z</time>
        <extensions>
          <ns3:TrackPointExtension>
            <ns3:atemp>21.0</ns3:atemp>
          </ns3:TrackPointExtension>
        </extensions>
      </trkpt>
      <trkpt lat="42.577888481318950653076171875" lon="20.02168723382055759429931640625">
        <ele>1980.199951171875</ele>
        <time>2026-06-15T13:57:54.000Z</time>
        <extensions>
          <ns3:TrackPointExtension>
            <ns3:atemp>21.0</ns3:atemp>
          </ns3:TrackPointExtension>
        </extensions>
      </trkpt>
      <trkpt lat="42.57794874720275402069091796875" lon="20.02164624631404876708984375">
        <ele>1979.5999755859375</ele>
        <time>2026-06-15T13:57:55.000Z</time>
        <extensions>
          <ns3:TrackPointExtension>
            <ns3:atemp>21.0</ns3:atemp>
          </ns3:TrackPointExtension>
        </extensions>
      </trkpt>
      <trkpt lat="42.57801957428455352783203125" lon="20.02160743810236454010009765625">
        <ele>1979</ele>
        <time>2026-06-15T13:57:56.000Z</time>
        <extensions>
          <ns3:TrackPointExtension>
            <ns3:atemp>21.0</ns3:atemp>
          </ns3:TrackPointExtension>
        </extensions>
      </trkpt>
      <trkpt lat="42.57809191010892391204833984375" lon="20.02157273702323436737060546875">
        <ele>1978.4000244140625</ele>
        <time>2026-06-15T13:57:57.000Z</time>
        <extensions>
          <ns3:TrackPointExtension>
            <ns3:atemp>21.0</ns3:atemp>
          </ns3:TrackPointExtension>
        </extensions>
      </trkpt>
      <trkpt lat="42.5781650841236114501953125" lon="20.02153485082089900970458984375">
        <ele>1977.4000244140625</ele>
        <time>2026-06-15T13:57:58.000Z</time>
        <extensions>
          <ns3:TrackPointExtension>
            <ns3:atemp>21.0</ns3:atemp>
          </ns3:TrackPointExtension>
        </extensions>
      </trkpt>
      <trkpt lat="42.57823658175766468048095703125" lon="20.0214992277324199676513671875">
        <ele>1976.5999755859375</ele>
        <time>2026-06-15T13:57:59.000Z</time>
        <extensions>
          <ns3:TrackPointExtension>
            <ns3:atemp>21.0</ns3:atemp>
          </ns3:TrackPointExtension>
        </extensions>
      </trkpt>
      <trkpt lat="42.57830430753529071807861328125" lon="20.021472908556461334228515625">
        <ele>1975.800048828125</ele>
        <time>2026-06-15T13:58:00.000Z</time>
        <extensions>
          <ns3:TrackPointExtension>
            <ns3:atemp>21.0</ns3:atemp>
          </ns3:TrackPointExtension>
        </extensions>
      </trkpt>
      <trkpt lat="42.578370608389377593994140625" lon="20.02144868485629558563232421875">
        <ele>1975</ele>
        <time>2026-06-15T13:58:01.000Z</time>
        <extensions>
          <ns3:TrackPointExtension>
            <ns3:atemp>21.0</ns3:atemp>
          </ns3:TrackPointExtension>
        </extensions>
      </trkpt>
      <trkpt lat="42.57842903025448322296142578125" lon="20.0214350223541259765625">
        <ele>1974.4000244140625</ele>
        <time>2026-06-15T13:58:02.000Z</time>
        <extensions>
          <ns3:TrackPointExtension>
            <ns3:atemp>21.0</ns3:atemp>
          </ns3:TrackPointExtension>
        </extensions>
      </trkpt>
      <trkpt lat="42.57847362197935581207275390625" lon="20.02141381613910198211669921875">
        <ele>1973.800048828125</ele>
        <time>2026-06-15T13:58:03.000Z</time>
        <extensions>
          <ns3:TrackPointExtension>
            <ns3:atemp>21.0</ns3:atemp>
          </ns3:TrackPointExtension>
        </extensions>
      </trkpt>
      <trkpt lat="42.5784995220601558685302734375" lon="20.0213808752596378326416015625">
        <ele>1973.199951171875</ele>
        <time>2026-06-15T13:58:04.000Z</time>
        <extensions>
          <ns3:TrackPointExtension>
            <ns3:atemp>21.0</ns3:atemp>
          </ns3:TrackPointExtension>
        </extensions>
      </trkpt>
      <trkpt lat="42.578516118228435516357421875" lon="20.0213537178933620452880859375">
        <ele>1973</ele>
        <time>2026-06-15T13:58:05.000Z</time>
        <extensions>
          <ns3:TrackPointExtension>
            <ns3:atemp>21.0</ns3:atemp>
          </ns3:TrackPointExtension>
        </extensions>
      </trkpt>
      <trkpt lat="42.57852475158870220184326171875" lon="20.02133586443960666656494140625">
        <ele>1973</ele>
        <time>2026-06-15T13:58:06.000Z</time>
        <extensions>
          <ns3:TrackPointExtension>
            <ns3:atemp>21.0</ns3:atemp>
          </ns3:TrackPointExtension>
        </extensions>
      </trkpt>
      <trkpt lat="42.57853916846215724945068359375" lon="20.021317340433597564697265625">
        <ele>1973</ele>
        <time>2026-06-15T13:58:07.000Z</time>
        <extensions>
          <ns3:TrackPointExtension>
            <ns3:atemp>21.0</ns3:atemp>
          </ns3:TrackPointExtension>
        </extensions>
      </trkpt>
      <trkpt lat="42.5785632245242595672607421875" lon="20.0212947092950344085693359375">
        <ele>1973.199951171875</ele>
        <time>2026-06-15T13:58:08.000Z</time>
        <extensions>
          <ns3:TrackPointExtension>
            <ns3:atemp>21.0</ns3:atemp>
          </ns3:TrackPointExtension>
        </extensions>
      </trkpt>
      <trkpt lat="42.578588537871837615966796875" lon="20.0212605111300945281982421875">
        <ele>1973.199951171875</ele>
        <time>2026-06-15T13:58:09.000Z</time>
        <extensions>
          <ns3:TrackPointExtension>
            <ns3:atemp>21.0</ns3:atemp>
          </ns3:TrackPointExtension>
        </extensions>
      </trkpt>
      <trkpt lat="42.57860085926949977874755859375" lon="20.0212316773831844329833984375">
        <ele>1973.4000244140625</ele>
        <time>2026-06-15T13:58:10.000Z</time>
        <extensions>
          <ns3:TrackPointExtension>
            <ns3:atemp>21.0</ns3:atemp>
          </ns3:TrackPointExtension>
        </extensions>
      </trkpt>
      <trkpt lat="42.5786068104207515716552734375" lon="20.02120527438819408416748046875">
        <ele>1973.4000244140625</ele>
        <time>2026-06-15T13:58:11.000Z</time>
        <extensions>
          <ns3:TrackPointExtension>
            <ns3:atemp>21.0</ns3:atemp>
          </ns3:TrackPointExtension>
        </extensions>
      </trkpt>
      <trkpt lat="42.5786138512194156646728515625" lon="20.0211880914866924285888671875">
        <ele>1973.5999755859375</ele>
        <time>2026-06-15T13:58:12.000Z</time>
        <extensions>
          <ns3:TrackPointExtension>
            <ns3:atemp>21.0</ns3:atemp>
          </ns3:TrackPointExtension>
        </extensions>
      </trkpt>
      <trkpt lat="42.5786229036748409271240234375" lon="20.0211776979267597198486328125">
        <ele>1973.5999755859375</ele>
        <time>2026-06-15T13:58:13.000Z</time>
        <extensions>
          <ns3:TrackPointExtension>
            <ns3:atemp>21.0</ns3:atemp>
          </ns3:TrackPointExtension>
        </extensions>
      </trkpt>
      <trkpt lat="42.5786371529102325439453125" lon="20.02117191441357135772705078125">
        <ele>1973.800048828125</ele>
        <time>2026-06-15T13:58:14.000Z</time>
        <extensions>
          <ns3:TrackPointExtension>
            <ns3:atemp>21.0</ns3:atemp>
          </ns3:TrackPointExtension>
        </extensions>
      </trkpt>
      <trkpt lat="42.57864830084145069122314453125" lon="20.02116906456649303436279296875">
        <ele>1974</ele>
        <time>2026-06-15T13:58:15.000Z</time>
        <extensions>
          <ns3:TrackPointExtension>
            <ns3:atemp>21.0</ns3:atemp>
          </ns3:TrackPointExtension>
        </extensions>
      </trkpt>
      <trkpt lat="42.5786517374217510223388671875" lon="20.021171830594539642333984375">
        <ele>1974</ele>
        <time>2026-06-15T13:58:16.000Z</time>
        <extensions>
          <ns3:TrackPointExtension>
            <ns3:atemp>21.0</ns3:atemp>
          </ns3:TrackPointExtension>
        </extensions>
      </trkpt>
      <trkpt lat="42.5786517374217510223388671875" lon="20.021171830594539642333984375">
        <ele>1974.199951171875</ele>
        <time>2026-06-15T13:58:17.000Z</time>
        <extensions>
          <ns3:TrackPointExtension>
            <ns3:atemp>21.0</ns3:atemp>
          </ns3:TrackPointExtension>
        </extensions>
      </trkpt>
      <trkpt lat="42.5786517374217510223388671875" lon="20.021171830594539642333984375">
        <ele>1974.199951171875</ele>
        <time>2026-06-15T13:58:18.000Z</time>
        <extensions>
          <ns3:TrackPointExtension>
            <ns3:atemp>21.0</ns3:atemp>
          </ns3:TrackPointExtension>
        </extensions>
      </trkpt>
      <trkpt lat="42.5786517374217510223388671875" lon="20.021171830594539642333984375">
        <ele>1974.199951171875</ele>
        <time>2026-06-15T13:58:19.000Z</time>
        <extensions>
          <ns3:TrackPointExtension>
            <ns3:atemp>21.0</ns3:atemp>
          </ns3:TrackPointExtension>
        </extensions>
      </trkpt>
      <trkpt lat="42.5786517374217510223388671875" lon="20.021171830594539642333984375">
        <ele>1974.199951171875</ele>
        <time>2026-06-15T13:58:20.000Z</time>
        <extensions>
          <ns3:TrackPointExtension>
            <ns3:atemp>21.0</ns3:atemp>
          </ns3:TrackPointExtension>
        </extensions>
      </trkpt>
      <trkpt lat="42.5786517374217510223388671875" lon="20.021171830594539642333984375">
        <ele>1974.199951171875</ele>
        <time>2026-06-15T13:58:21.000Z</time>
        <extensions>
          <ns3:TrackPointExtension>
            <ns3:atemp>21.0</ns3:atemp>
          </ns3:TrackPointExtension>
        </extensions>
      </trkpt>
      <trkpt lat="42.5786517374217510223388671875" lon="20.021171830594539642333984375">
        <ele>1974.199951171875</ele>
        <time>2026-06-15T13:58:22.000Z</time>
        <extensions>
          <ns3:TrackPointExtension>
            <ns3:atemp>21.0</ns3:atemp>
          </ns3:TrackPointExtension>
        </extensions>
      </trkpt>
      <trkpt lat="42.5786517374217510223388671875" lon="20.021171830594539642333984375">
        <ele>1974</ele>
        <time>2026-06-15T13:58:23.000Z</time>
        <extensions>
          <ns3:TrackPointExtension>
            <ns3:atemp>21.0</ns3:atemp>
          </ns3:TrackPointExtension>
        </extensions>
      </trkpt>
      <trkpt lat="42.5786517374217510223388671875" lon="20.021171830594539642333984375">
        <ele>1974</ele>
        <time>2026-06-15T13:58:24.000Z</time>
        <extensions>
          <ns3:TrackPointExtension>
            <ns3:atemp>21.0</ns3:atemp>
          </ns3:TrackPointExtension>
        </extensions>
      </trkpt>
      <trkpt lat="42.5786517374217510223388671875" lon="20.021171830594539642333984375">
        <ele>1974</ele>
        <time>2026-06-15T13:58:25.000Z</time>
        <extensions>
          <ns3:TrackPointExtension>
            <ns3:atemp>21.0</ns3:atemp>
          </ns3:TrackPointExtension>
        </extensions>
      </trkpt>
      <trkpt lat="42.5786517374217510223388671875" lon="20.021171830594539642333984375">
        <ele>1973.800048828125</ele>
        <time>2026-06-15T13:58:26.000Z</time>
        <extensions>
          <ns3:TrackPointExtension>
            <ns3:atemp>21.0</ns3:atemp>
          </ns3:TrackPointExtension>
        </extensions>
      </trkpt>
      <trkpt lat="42.5786517374217510223388671875" lon="20.021171830594539642333984375">
        <ele>1973.800048828125</ele>
        <time>2026-06-15T13:58:27.000Z</time>
        <extensions>
          <ns3:TrackPointExtension>
            <ns3:atemp>21.0</ns3:atemp>
          </ns3:TrackPointExtension>
        </extensions>
      </trkpt>
      <trkpt lat="42.5786517374217510223388671875" lon="20.021171830594539642333984375">
        <ele>1973.800048828125</ele>
        <time>2026-06-15T13:58:28.000Z</time>
        <extensions>
          <ns3:TrackPointExtension>
            <ns3:atemp>21.0</ns3:atemp>
          </ns3:TrackPointExtension>
        </extensions>
      </trkpt>
      <trkpt lat="42.5786517374217510223388671875" lon="20.021171830594539642333984375">
        <ele>1973.800048828125</ele>
        <time>2026-06-15T13:58:29.000Z</time>
        <extensions>
          <ns3:TrackPointExtension>
            <ns3:atemp>21.0</ns3:atemp>
          </ns3:TrackPointExtension>
        </extensions>
      </trkpt>
      <trkpt lat="42.5786517374217510223388671875" lon="20.021171830594539642333984375">
        <ele>1973.800048828125</ele>
        <time>2026-06-15T13:58:30.000Z</time>
        <extensions>
          <ns3:TrackPointExtension>
            <ns3:atemp>21.0</ns3:atemp>
          </ns3:TrackPointExtension>
        </extensions>
      </trkpt>
      <trkpt lat="42.5786517374217510223388671875" lon="20.021171830594539642333984375">
        <ele>1973.5999755859375</ele>
        <time>2026-06-15T13:58:31.000Z</time>
        <extensions>
          <ns3:TrackPointExtension>
            <ns3:atemp>21.0</ns3:atemp>
          </ns3:TrackPointExtension>
        </extensions>
      </trkpt>
      <trkpt lat="42.5786517374217510223388671875" lon="20.021171830594539642333984375">
        <ele>1973.5999755859375</ele>
        <time>2026-06-15T13:58:32.000Z</time>
        <extensions>
          <ns3:TrackPointExtension>
            <ns3:atemp>21.0</ns3:atemp>
          </ns3:TrackPointExtension>
        </extensions>
      </trkpt>
      <trkpt lat="42.5786517374217510223388671875" lon="20.021171830594539642333984375">
        <ele>1973.5999755859375</ele>
        <time>2026-06-15T13:58:33.000Z</time>
        <extensions>
          <ns3:TrackPointExtension>
            <ns3:atemp>21.0</ns3:atemp>
          </ns3:TrackPointExtension>
        </extensions>
      </trkpt>
      <trkpt lat="42.5786517374217510223388671875" lon="20.021171830594539642333984375">
        <ele>1973.5999755859375</ele>
        <time>2026-06-15T13:58:34.000Z</time>
        <extensions>
          <ns3:TrackPointExtension>
            <ns3:atemp>21.0</ns3:atemp>
          </ns3:TrackPointExtension>
        </extensions>
      </trkpt>
      <trkpt lat="42.5786517374217510223388671875" lon="20.021171830594539642333984375">
        <ele>1973.5999755859375</ele>
        <time>2026-06-15T13:58:35.000Z</time>
        <extensions>
          <ns3:TrackPointExtension>
            <ns3:atemp>21.0</ns3:atemp>
          </ns3:TrackPointExtension>
        </extensions>
      </trkpt>
      <trkpt lat="42.5786517374217510223388671875" lon="20.021171830594539642333984375">
        <ele>1973.5999755859375</ele>
        <time>2026-06-15T13:58:36.000Z</time>
        <extensions>
          <ns3:TrackPointExtension>
            <ns3:atemp>21.0</ns3:atemp>
          </ns3:TrackPointExtension>
        </extensions>
      </trkpt>
      <trkpt lat="42.5786517374217510223388671875" lon="20.021171830594539642333984375">
        <ele>1973.4000244140625</ele>
        <time>2026-06-15T13:58:37.000Z</time>
        <extensions>
          <ns3:TrackPointExtension>
            <ns3:atemp>21.0</ns3:atemp>
          </ns3:TrackPointExtension>
        </extensions>
      </trkpt>
      <trkpt lat="42.5786517374217510223388671875" lon="20.021171830594539642333984375">
        <ele>1973.4000244140625</ele>
        <time>2026-06-15T13:58:38.000Z</time>
        <extensions>
          <ns3:TrackPointExtension>
            <ns3:atemp>21.0</ns3:atemp>
          </ns3:TrackPointExtension>
        </extensions>
      </trkpt>
      <trkpt lat="42.5786517374217510223388671875" lon="20.021171830594539642333984375">
        <ele>1973.4000244140625</ele>
        <time>2026-06-15T13:58:39.000Z</time>
        <extensions>
          <ns3:TrackPointExtension>
            <ns3:atemp>21.0</ns3:atemp>
          </ns3:TrackPointExtension>
        </extensions>
      </trkpt>
      <trkpt lat="42.5786517374217510223388671875" lon="20.021171830594539642333984375">
        <ele>1973.4000244140625</ele>
        <time>2026-06-15T13:58:40.000Z</time>
        <extensions>
          <ns3:TrackPointExtension>
            <ns3:atemp>21.0</ns3:atemp>
          </ns3:TrackPointExtension>
        </extensions>
      </trkpt>
      <trkpt lat="42.5786517374217510223388671875" lon="20.021171830594539642333984375">
        <ele>1973.4000244140625</ele>
        <time>2026-06-15T13:58:41.000Z</time>
        <extensions>
          <ns3:TrackPointExtension>
            <ns3:atemp>21.0</ns3:atemp>
          </ns3:TrackPointExtension>
        </extensions>
      </trkpt>
      <trkpt lat="42.5786517374217510223388671875" lon="20.021171830594539642333984375">
        <ele>1973.4000244140625</ele>
        <time>2026-06-15T13:58:42.000Z</time>
        <extensions>
          <ns3:TrackPointExtension>
            <ns3:atemp>21.0</ns3:atemp>
          </ns3:TrackPointExtension>
        </extensions>
      </trkpt>
      <trkpt lat="42.5786517374217510223388671875" lon="20.021171830594539642333984375">
        <ele>1973.4000244140625</ele>
        <time>2026-06-15T13:58:43.000Z</time>
        <extensions>
          <ns3:TrackPointExtension>
            <ns3:atemp>21.0</ns3:atemp>
          </ns3:TrackPointExtension>
        </extensions>
      </trkpt>
      <trkpt lat="42.5786517374217510223388671875" lon="20.021171830594539642333984375">
        <ele>1973.4000244140625</ele>
        <time>2026-06-15T13:58:44.000Z</time>
        <extensions>
          <ns3:TrackPointExtension>
            <ns3:atemp>21.0</ns3:atemp>
          </ns3:TrackPointExtension>
        </extensions>
      </trkpt>
      <trkpt lat="42.5786517374217510223388671875" lon="20.021171830594539642333984375">
        <ele>1973.4000244140625</ele>
        <time>2026-06-15T13:58:45.000Z</time>
        <extensions>
          <ns3:TrackPointExtension>
            <ns3:atemp>21.0</ns3:atemp>
          </ns3:TrackPointExtension>
        </extensions>
      </trkpt>
      <trkpt lat="42.5786517374217510223388671875" lon="20.021171830594539642333984375">
        <ele>1973.4000244140625</ele>
        <time>2026-06-15T13:58:46.000Z</time>
        <extensions>
          <ns3:TrackPointExtension>
            <ns3:atemp>21.0</ns3:atemp>
          </ns3:TrackPointExtension>
        </extensions>
      </trkpt>
      <trkpt lat="42.5786517374217510223388671875" lon="20.021171830594539642333984375">
        <ele>1973.4000244140625</ele>
        <time>2026-06-15T13:58:47.000Z</time>
        <extensions>
          <ns3:TrackPointExtension>
            <ns3:atemp>21.0</ns3:atemp>
          </ns3:TrackPointExtension>
        </extensions>
      </trkpt>
      <trkpt lat="42.5786517374217510223388671875" lon="20.021171830594539642333984375">
        <ele>1973.4000244140625</ele>
        <time>2026-06-15T13:58:48.000Z</time>
        <extensions>
          <ns3:TrackPointExtension>
            <ns3:atemp>21.0</ns3:atemp>
          </ns3:TrackPointExtension>
        </extensions>
      </trkpt>
      <trkpt lat="42.5786517374217510223388671875" lon="20.021171830594539642333984375">
        <ele>1973.5999755859375</ele>
        <time>2026-06-15T13:58:49.000Z</time>
        <extensions>
          <ns3:TrackPointExtension>
            <ns3:atemp>21.0</ns3:atemp>
          </ns3:TrackPointExtension>
        </extensions>
      </trkpt>
      <trkpt lat="42.5786517374217510223388671875" lon="20.021171830594539642333984375">
        <ele>1973.5999755859375</ele>
        <time>2026-06-15T13:58:50.000Z</time>
        <extensions>
          <ns3:TrackPointExtension>
            <ns3:atemp>21.0</ns3:atemp>
          </ns3:TrackPointExtension>
        </extensions>
      </trkpt>
      <trkpt lat="42.5786517374217510223388671875" lon="20.021171830594539642333984375">
        <ele>1973.5999755859375</ele>
        <time>2026-06-15T13:58:51.000Z</time>
        <extensions>
          <ns3:TrackPointExtension>
            <ns3:atemp>21.0</ns3:atemp>
          </ns3:TrackPointExtension>
        </extensions>
      </trkpt>
      <trkpt lat="42.5786517374217510223388671875" lon="20.021171830594539642333984375">
        <ele>1973.5999755859375</ele>
        <time>2026-06-15T13:58:52.000Z</time>
        <extensions>
          <ns3:TrackPointExtension>
            <ns3:atemp>21.0</ns3:atemp>
          </ns3:TrackPointExtension>
        </extensions>
      </trkpt>
      <trkpt lat="42.5786517374217510223388671875" lon="20.021171830594539642333984375">
        <ele>1973.5999755859375</ele>
        <time>2026-06-15T13:58:53.000Z</time>
        <extensions>
          <ns3:TrackPointExtension>
            <ns3:atemp>21.0</ns3:atemp>
          </ns3:TrackPointExtension>
        </extensions>
      </trkpt>
      <trkpt lat="42.5786517374217510223388671875" lon="20.021171830594539642333984375">
        <ele>1973.5999755859375</ele>
        <time>2026-06-15T13:58:54.000Z</time>
        <extensions>
          <ns3:TrackPointExtension>
            <ns3:atemp>21.0</ns3:atemp>
          </ns3:TrackPointExtension>
        </extensions>
      </trkpt>
      <trkpt lat="42.5786517374217510223388671875" lon="20.021171830594539642333984375">
        <ele>1973.5999755859375</ele>
        <time>2026-06-15T13:58:55.000Z</time>
        <extensions>
          <ns3:TrackPointExtension>
            <ns3:atemp>21.0</ns3:atemp>
          </ns3:TrackPointExtension>
        </extensions>
      </trkpt>
      <trkpt lat="42.5786517374217510223388671875" lon="20.021171830594539642333984375">
        <ele>1973.5999755859375</ele>
        <time>2026-06-15T13:58:56.000Z</time>
        <extensions>
          <ns3:TrackPointExtension>
            <ns3:atemp>21.0</ns3:atemp>
          </ns3:TrackPointExtension>
        </extensions>
      </trkpt>
      <trkpt lat="42.5786517374217510223388671875" lon="20.021171830594539642333984375">
        <ele>1973.5999755859375</ele>
        <time>2026-06-15T13:58:57.000Z</time>
        <extensions>
          <ns3:TrackPointExtension>
            <ns3:atemp>21.0</ns3:atemp>
          </ns3:TrackPointExtension>
        </extensions>
      </trkpt>
      <trkpt lat="42.5786517374217510223388671875" lon="20.021171830594539642333984375">
        <ele>1973.5999755859375</ele>
        <time>2026-06-15T13:58:58.000Z</time>
        <extensions>
          <ns3:TrackPointExtension>
            <ns3:atemp>21.0</ns3:atemp>
          </ns3:TrackPointExtension>
        </extensions>
      </trkpt>
      <trkpt lat="42.5786517374217510223388671875" lon="20.021171830594539642333984375">
        <ele>1973.5999755859375</ele>
        <time>2026-06-15T13:58:59.000Z</time>
        <extensions>
          <ns3:TrackPointExtension>
            <ns3:atemp>21.0</ns3:atemp>
          </ns3:TrackPointExtension>
        </extensions>
      </trkpt>
      <trkpt lat="42.5786517374217510223388671875" lon="20.021171830594539642333984375">
        <ele>1973.5999755859375</ele>
        <time>2026-06-15T13:59:00.000Z</time>
        <extensions>
          <ns3:TrackPointExtension>
            <ns3:atemp>21.0</ns3:atemp>
          </ns3:TrackPointExtension>
        </extensions>
      </trkpt>
      <trkpt lat="42.5786517374217510223388671875" lon="20.021171830594539642333984375">
        <ele>1973.800048828125</ele>
        <time>2026-06-15T13:59:01.000Z</time>
        <extensions>
          <ns3:TrackPointExtension>
            <ns3:atemp>21.0</ns3:atemp>
          </ns3:TrackPointExtension>
        </extensions>
      </trkpt>
      <trkpt lat="42.5786517374217510223388671875" lon="20.021171830594539642333984375">
        <ele>1973.800048828125</ele>
        <time>2026-06-15T13:59:02.000Z</time>
        <extensions>
          <ns3:TrackPointExtension>
            <ns3:atemp>21.0</ns3:atemp>
          </ns3:TrackPointExtension>
        </extensions>
      </trkpt>
      <trkpt lat="42.5786517374217510223388671875" lon="20.021171830594539642333984375">
        <ele>1973.800048828125</ele>
        <time>2026-06-15T13:59:03.000Z</time>
        <extensions>
          <ns3:TrackPointExtension>
            <ns3:atemp>21.0</ns3:atemp>
          </ns3:TrackPointExtension>
        </extensions>
      </trkpt>
      <trkpt lat="42.5786517374217510223388671875" lon="20.021171830594539642333984375">
        <ele>1973.800048828125</ele>
        <time>2026-06-15T13:59:04.000Z</time>
        <extensions>
          <ns3:TrackPointExtension>
            <ns3:atemp>21.0</ns3:atemp>
          </ns3:TrackPointExtension>
        </extensions>
      </trkpt>
      <trkpt lat="42.5786517374217510223388671875" lon="20.021171830594539642333984375">
        <ele>1973.800048828125</ele>
        <time>2026-06-15T13:59:05.000Z</time>
        <extensions>
          <ns3:TrackPointExtension>
            <ns3:atemp>21.0</ns3:atemp>
          </ns3:TrackPointExtension>
        </extensions>
      </trkpt>
      <trkpt lat="42.5786517374217510223388671875" lon="20.021171830594539642333984375">
        <ele>1973.800048828125</ele>
        <time>2026-06-15T13:59:06.000Z</time>
        <extensions>
          <ns3:TrackPointExtension>
            <ns3:atemp>21.0</ns3:atemp>
          </ns3:TrackPointExtension>
        </extensions>
      </trkpt>
      <trkpt lat="42.5786517374217510223388671875" lon="20.021171830594539642333984375">
        <ele>1973.800048828125</ele>
        <time>2026-06-15T13:59:07.000Z</time>
        <extensions>
          <ns3:TrackPointExtension>
            <ns3:atemp>21.0</ns3:atemp>
          </ns3:TrackPointExtension>
        </extensions>
      </trkpt>
      <trkpt lat="42.5786517374217510223388671875" lon="20.021171830594539642333984375">
        <ele>1973.800048828125</ele>
        <time>2026-06-15T13:59:08.000Z</time>
        <extensions>
          <ns3:TrackPointExtension>
            <ns3:atemp>21.0</ns3:atemp>
          </ns3:TrackPointExtension>
        </extensions>
      </trkpt>
      <trkpt lat="42.5786517374217510223388671875" lon="20.021171830594539642333984375">
        <ele>1973.800048828125</ele>
        <time>2026-06-15T13:59:09.000Z</time>
        <extensions>
          <ns3:TrackPointExtension>
            <ns3:atemp>21.0</ns3:atemp>
          </ns3:TrackPointExtension>
        </extensions>
      </trkpt>
      <trkpt lat="42.5786517374217510223388671875" lon="20.021171830594539642333984375">
        <ele>1973.800048828125</ele>
        <time>2026-06-15T13:59:10.000Z</time>
        <extensions>
          <ns3:TrackPointExtension>
            <ns3:atemp>21.0</ns3:atemp>
          </ns3:TrackPointExtension>
        </extensions>
      </trkpt>
      <trkpt lat="42.5786517374217510223388671875" lon="20.021171830594539642333984375">
        <ele>1973.800048828125</ele>
        <time>2026-06-15T13:59:11.000Z</time>
        <extensions>
          <ns3:TrackPointExtension>
            <ns3:atemp>21.0</ns3:atemp>
          </ns3:TrackPointExtension>
        </extensions>
      </trkpt>
      <trkpt lat="42.5786517374217510223388671875" lon="20.021171830594539642333984375">
        <ele>1973.800048828125</ele>
        <time>2026-06-15T13:59:12.000Z</time>
        <extensions>
          <ns3:TrackPointExtension>
            <ns3:atemp>21.0</ns3:atemp>
          </ns3:TrackPointExtension>
        </extensions>
      </trkpt>
      <trkpt lat="42.5786517374217510223388671875" lon="20.021171830594539642333984375">
        <ele>1973.800048828125</ele>
        <time>2026-06-15T13:59:13.000Z</time>
        <extensions>
          <ns3:TrackPointExtension>
            <ns3:atemp>21.0</ns3:atemp>
          </ns3:TrackPointExtension>
        </extensions>
      </trkpt>
      <trkpt lat="42.5786517374217510223388671875" lon="20.021171830594539642333984375">
        <ele>1973.800048828125</ele>
        <time>2026-06-15T13:59:14.000Z</time>
        <extensions>
          <ns3:TrackPointExtension>
            <ns3:atemp>21.0</ns3:atemp>
          </ns3:TrackPointExtension>
        </extensions>
      </trkpt>
      <trkpt lat="42.5786517374217510223388671875" lon="20.021171830594539642333984375">
        <ele>1973.800048828125</ele>
        <time>2026-06-15T13:59:15.000Z</time>
        <extensions>
          <ns3:TrackPointExtension>
            <ns3:atemp>21.0</ns3:atemp>
          </ns3:TrackPointExtension>
        </extensions>
      </trkpt>
      <trkpt lat="42.5786517374217510223388671875" lon="20.021171830594539642333984375">
        <ele>1973.800048828125</ele>
        <time>2026-06-15T13:59:16.000Z</time>
        <extensions>
          <ns3:TrackPointExtension>
            <ns3:atemp>21.0</ns3:atemp>
          </ns3:TrackPointExtension>
        </extensions>
      </trkpt>
      <trkpt lat="42.5786517374217510223388671875" lon="20.021171830594539642333984375">
        <ele>1973.800048828125</ele>
        <time>2026-06-15T13:59:17.000Z</time>
        <extensions>
          <ns3:TrackPointExtension>
            <ns3:atemp>21.0</ns3:atemp>
          </ns3:TrackPointExtension>
        </extensions>
      </trkpt>
      <trkpt lat="42.5786517374217510223388671875" lon="20.021171830594539642333984375">
        <ele>1973.800048828125</ele>
        <time>2026-06-15T13:59:18.000Z</time>
        <extensions>
          <ns3:TrackPointExtension>
            <ns3:atemp>21.0</ns3:atemp>
          </ns3:TrackPointExtension>
        </extensions>
      </trkpt>
      <trkpt lat="42.5786517374217510223388671875" lon="20.021171830594539642333984375">
        <ele>1973.800048828125</ele>
        <time>2026-06-15T13:59:19.000Z</time>
        <extensions>
          <ns3:TrackPointExtension>
            <ns3:atemp>21.0</ns3:atemp>
          </ns3:TrackPointExtension>
        </extensions>
      </trkpt>
      <trkpt lat="42.5786517374217510223388671875" lon="20.021171830594539642333984375">
        <ele>1973.800048828125</ele>
        <time>2026-06-15T13:59:20.000Z</time>
        <extensions>
          <ns3:TrackPointExtension>
            <ns3:atemp>21.0</ns3:atemp>
          </ns3:TrackPointExtension>
        </extensions>
      </trkpt>
      <trkpt lat="42.5786517374217510223388671875" lon="20.021171830594539642333984375">
        <ele>1973.800048828125</ele>
        <time>2026-06-15T13:59:21.000Z</time>
        <extensions>
          <ns3:TrackPointExtension>
            <ns3:atemp>21.0</ns3:atemp>
          </ns3:TrackPointExtension>
        </extensions>
      </trkpt>
      <trkpt lat="42.5786517374217510223388671875" lon="20.021171830594539642333984375">
        <ele>1973.800048828125</ele>
        <time>2026-06-15T13:59:22.000Z</time>
        <extensions>
          <ns3:TrackPointExtension>
            <ns3:atemp>21.0</ns3:atemp>
          </ns3:TrackPointExtension>
        </extensions>
      </trkpt>
      <trkpt lat="42.5786517374217510223388671875" lon="20.021171830594539642333984375">
        <ele>1973.800048828125</ele>
        <time>2026-06-15T13:59:23.000Z</time>
        <extensions>
          <ns3:TrackPointExtension>
            <ns3:atemp>21.0</ns3:atemp>
          </ns3:TrackPointExtension>
        </extensions>
      </trkpt>
      <trkpt lat="42.5786517374217510223388671875" lon="20.021171830594539642333984375">
        <ele>1973.800048828125</ele>
        <time>2026-06-15T13:59:24.000Z</time>
        <extensions>
          <ns3:TrackPointExtension>
            <ns3:atemp>21.0</ns3:atemp>
          </ns3:TrackPointExtension>
        </extensions>
      </trkpt>
      <trkpt lat="42.5786517374217510223388671875" lon="20.021171830594539642333984375">
        <ele>1973.800048828125</ele>
        <time>2026-06-15T13:59:25.000Z</time>
        <extensions>
          <ns3:TrackPointExtension>
            <ns3:atemp>21.0</ns3:atemp>
          </ns3:TrackPointExtension>
        </extensions>
      </trkpt>
      <trkpt lat="42.5786517374217510223388671875" lon="20.021171830594539642333984375">
        <ele>1973.800048828125</ele>
        <time>2026-06-15T13:59:26.000Z</time>
        <extensions>
          <ns3:TrackPointExtension>
            <ns3:atemp>21.0</ns3:atemp>
          </ns3:TrackPointExtension>
        </extensions>
      </trkpt>
      <trkpt lat="42.5786517374217510223388671875" lon="20.021171830594539642333984375">
        <ele>1973.800048828125</ele>
        <time>2026-06-15T13:59:27.000Z</time>
        <extensions>
          <ns3:TrackPointExtension>
            <ns3:atemp>21.0</ns3:atemp>
          </ns3:TrackPointExtension>
        </extensions>
      </trkpt>
      <trkpt lat="42.5786517374217510223388671875" lon="20.021171830594539642333984375">
        <ele>1973.800048828125</ele>
        <time>2026-06-15T13:59:28.000Z</time>
        <extensions>
          <ns3:TrackPointExtension>
            <ns3:atemp>21.0</ns3:atemp>
          </ns3:TrackPointExtension>
        </extensions>
      </trkpt>
      <trkpt lat="42.5786517374217510223388671875" lon="20.021171830594539642333984375">
        <ele>1973.800048828125</ele>
        <time>2026-06-15T13:59:29.000Z</time>
        <extensions>
          <ns3:TrackPointExtension>
            <ns3:atemp>21.0</ns3:atemp>
          </ns3:TrackPointExtension>
        </extensions>
      </trkpt>
      <trkpt lat="42.5786517374217510223388671875" lon="20.021171830594539642333984375">
        <ele>1973.800048828125</ele>
        <time>2026-06-15T13:59:30.000Z</time>
        <extensions>
          <ns3:TrackPointExtension>
            <ns3:atemp>21.0</ns3:atemp>
          </ns3:TrackPointExtension>
        </extensions>
      </trkpt>
      <trkpt lat="42.5786517374217510223388671875" lon="20.021171830594539642333984375">
        <ele>1973.800048828125</ele>
        <time>2026-06-15T13:59:31.000Z</time>
        <extensions>
          <ns3:TrackPointExtension>
            <ns3:atemp>21.0</ns3:atemp>
          </ns3:TrackPointExtension>
        </extensions>
      </trkpt>
      <trkpt lat="42.57865257561206817626953125" lon="20.02116671763360500335693359375">
        <ele>1973.800048828125</ele>
        <time>2026-06-15T13:59:32.000Z</time>
        <extensions>
          <ns3:TrackPointExtension>
            <ns3:atemp>21.0</ns3:atemp>
          </ns3:TrackPointExtension>
        </extensions>
      </trkpt>
      <trkpt lat="42.57866238243877887725830078125" lon="20.0211481936275959014892578125">
        <ele>1973.800048828125</ele>
        <time>2026-06-15T13:59:33.000Z</time>
        <extensions>
          <ns3:TrackPointExtension>
            <ns3:atemp>21.0</ns3:atemp>
          </ns3:TrackPointExtension>
        </extensions>
      </trkpt>
      <trkpt lat="42.578671686351299285888671875" lon="20.0211337767541408538818359375">
        <ele>1973.800048828125</ele>
        <time>2026-06-15T13:59:34.000Z</time>
        <extensions>
          <ns3:TrackPointExtension>
            <ns3:atemp>21.0</ns3:atemp>
          </ns3:TrackPointExtension>
        </extensions>
      </trkpt>
      <trkpt lat="42.578686773777008056640625" lon="20.0211176835000514984130859375">
        <ele>1973.800048828125</ele>
        <time>2026-06-15T13:59:35.000Z</time>
        <extensions>
          <ns3:TrackPointExtension>
            <ns3:atemp>21.0</ns3:atemp>
          </ns3:TrackPointExtension>
        </extensions>
      </trkpt>
      <trkpt lat="42.57870513014495372772216796875" lon="20.0210922025144100189208984375">
        <ele>1973.800048828125</ele>
        <time>2026-06-15T13:59:36.000Z</time>
        <extensions>
          <ns3:TrackPointExtension>
            <ns3:atemp>21.0</ns3:atemp>
          </ns3:TrackPointExtension>
        </extensions>
      </trkpt>
      <trkpt lat="42.57872457616031169891357421875" lon="20.02106127329170703887939453125">
        <ele>1974</ele>
        <time>2026-06-15T13:59:37.000Z</time>
        <extensions>
          <ns3:TrackPointExtension>
            <ns3:atemp>21.0</ns3:atemp>
          </ns3:TrackPointExtension>
        </extensions>
      </trkpt>
      <trkpt lat="42.57874620147049427032470703125" lon="20.02103411592543125152587890625">
        <ele>1974.199951171875</ele>
        <time>2026-06-15T13:59:38.000Z</time>
        <extensions>
          <ns3:TrackPointExtension>
            <ns3:atemp>21.0</ns3:atemp>
          </ns3:TrackPointExtension>
        </extensions>
      </trkpt>
      <trkpt lat="42.57876950316131114959716796875" lon="20.0210097245872020721435546875">
        <ele>1974.4000244140625</ele>
        <time>2026-06-15T13:59:39.000Z</time>
        <extensions>
          <ns3:TrackPointExtension>
            <ns3:atemp>21.0</ns3:atemp>
          </ns3:TrackPointExtension>
        </extensions>
      </trkpt>
      <trkpt lat="42.5788066349923610687255859375" lon="20.02095247618854045867919921875">
        <ele>1974.5999755859375</ele>
        <time>2026-06-15T13:59:40.000Z</time>
        <extensions>
          <ns3:TrackPointExtension>
            <ns3:atemp>21.0</ns3:atemp>
          </ns3:TrackPointExtension>
        </extensions>
      </trkpt>
      <trkpt lat="42.5788066349923610687255859375" lon="20.02095247618854045867919921875">
        <ele>1975</ele>
        <time>2026-06-15T13:59:41.000Z</time>
        <extensions>
          <ns3:TrackPointExtension>
            <ns3:atemp>21.0</ns3:atemp>
          </ns3:TrackPointExtension>
        </extensions>
      </trkpt>
      <trkpt lat="42.57882700301706790924072265625" lon="20.02092665992677211761474609375">
        <ele>1975.199951171875</ele>
        <time>2026-06-15T13:59:42.000Z</time>
        <extensions>
          <ns3:TrackPointExtension>
            <ns3:atemp>21.0</ns3:atemp>
          </ns3:TrackPointExtension>
        </extensions>
      </trkpt>
      <trkpt lat="42.57887679152190685272216796875" lon="20.0208782963454723358154296875">
        <ele>1975.5999755859375</ele>
        <time>2026-06-15T13:59:43.000Z</time>
        <extensions>
          <ns3:TrackPointExtension>
            <ns3:atemp>21.0</ns3:atemp>
          </ns3:TrackPointExtension>
        </extensions>
      </trkpt>
      <trkpt lat="42.57887679152190685272216796875" lon="20.0208782963454723358154296875">
        <ele>1975.800048828125</ele>
        <time>2026-06-15T13:59:44.000Z</time>
        <extensions>
          <ns3:TrackPointExtension>
            <ns3:atemp>21.0</ns3:atemp>
          </ns3:TrackPointExtension>
        </extensions>
      </trkpt>
      <trkpt lat="42.57889875210821628570556640625" lon="20.0208588503301143646240234375">
        <ele>1976.199951171875</ele>
        <time>2026-06-15T13:59:45.000Z</time>
        <extensions>
          <ns3:TrackPointExtension>
            <ns3:atemp>21.0</ns3:atemp>
          </ns3:TrackPointExtension>
        </extensions>
      </trkpt>
      <trkpt lat="42.5789182819426059722900390625" lon="20.0208390690386295318603515625">
        <ele>1976.5999755859375</ele>
        <time>2026-06-15T13:59:46.000Z</time>
        <extensions>
          <ns3:TrackPointExtension>
            <ns3:atemp>21.0</ns3:atemp>
          </ns3:TrackPointExtension>
        </extensions>
      </trkpt>
      <trkpt lat="42.57893362082540988922119140625" lon="20.02081987448036670684814453125">
        <ele>1976.800048828125</ele>
        <time>2026-06-15T13:59:47.000Z</time>
        <extensions>
          <ns3:TrackPointExtension>
            <ns3:atemp>21.0</ns3:atemp>
          </ns3:TrackPointExtension>
        </extensions>
      </trkpt>
      <trkpt lat="42.5789675675332546234130859375" lon="20.0207881070673465728759765625">
        <ele>1977</ele>
        <time>2026-06-15T13:59:48.000Z</time>
        <extensions>
          <ns3:TrackPointExtension>
            <ns3:atemp>21.0</ns3:atemp>
          </ns3:TrackPointExtension>
        </extensions>
      </trkpt>
      <trkpt lat="42.57898240350186824798583984375" lon="20.0207730196416378021240234375">
        <ele>1977.4000244140625</ele>
        <time>2026-06-15T13:59:49.000Z</time>
        <extensions>
          <ns3:TrackPointExtension>
            <ns3:atemp>21.0</ns3:atemp>
          </ns3:TrackPointExtension>
        </extensions>
      </trkpt>
      <trkpt lat="42.57898240350186824798583984375" lon="20.0207730196416378021240234375">
        <ele>1977.5999755859375</ele>
        <time>2026-06-15T13:59:50.000Z</time>
        <extensions>
          <ns3:TrackPointExtension>
            <ns3:atemp>21.0</ns3:atemp>
          </ns3:TrackPointExtension>
        </extensions>
      </trkpt>
      <trkpt lat="42.5790004245936870574951171875" lon="20.020748041570186614990234375">
        <ele>1978</ele>
        <time>2026-06-15T13:59:51.000Z</time>
        <extensions>
          <ns3:TrackPointExtension>
            <ns3:atemp>21.0</ns3:atemp>
          </ns3:TrackPointExtension>
        </extensions>
      </trkpt>
      <trkpt lat="42.5790165178477764129638671875" lon="20.02072884701192378997802734375">
        <ele>1978.199951171875</ele>
        <time>2026-06-15T13:59:52.000Z</time>
        <extensions>
          <ns3:TrackPointExtension>
            <ns3:atemp>21.0</ns3:atemp>
          </ns3:TrackPointExtension>
        </extensions>
      </trkpt>
      <trkpt lat="42.57904007099568843841552734375" lon="20.0206982530653476715087890625">
        <ele>1978.5999755859375</ele>
        <time>2026-06-15T13:59:53.000Z</time>
        <extensions>
          <ns3:TrackPointExtension>
            <ns3:atemp>21.0</ns3:atemp>
          </ns3:TrackPointExtension>
        </extensions>
      </trkpt>
      <trkpt lat="42.57906303741037845611572265625" lon="20.02067637629806995391845703125">
        <ele>1978.800048828125</ele>
        <time>2026-06-15T13:59:54.000Z</time>
        <extensions>
          <ns3:TrackPointExtension>
            <ns3:atemp>21.0</ns3:atemp>
          </ns3:TrackPointExtension>
        </extensions>
      </trkpt>
      <trkpt lat="42.57908441126346588134765625" lon="20.02065072767436504364013671875">
        <ele>1979</ele>
        <time>2026-06-15T13:59:55.000Z</time>
        <extensions>
          <ns3:TrackPointExtension>
            <ns3:atemp>21.0</ns3:atemp>
          </ns3:TrackPointExtension>
        </extensions>
      </trkpt>
      <trkpt lat="42.57910092361271381378173828125" lon="20.0206254981458187103271484375">
        <ele>1979.199951171875</ele>
        <time>2026-06-15T13:59:56.000Z</time>
        <extensions>
          <ns3:TrackPointExtension>
            <ns3:atemp>21.0</ns3:atemp>
          </ns3:TrackPointExtension>
        </extensions>
      </trkpt>
      <trkpt lat="42.57912942208349704742431640625" lon="20.020589791238307952880859375">
        <ele>1979.5999755859375</ele>
        <time>2026-06-15T13:59:57.000Z</time>
        <extensions>
          <ns3:TrackPointExtension>
            <ns3:atemp>21.0</ns3:atemp>
          </ns3:TrackPointExtension>
        </extensions>
      </trkpt>
      <trkpt lat="42.57912942208349704742431640625" lon="20.020589791238307952880859375">
        <ele>1979.800048828125</ele>
        <time>2026-06-15T13:59:58.000Z</time>
        <extensions>
          <ns3:TrackPointExtension>
            <ns3:atemp>21.0</ns3:atemp>
          </ns3:TrackPointExtension>
        </extensions>
      </trkpt>
      <trkpt lat="42.57914551533758640289306640625" lon="20.02057160250842571258544921875">
        <ele>1980.199951171875</ele>
        <time>2026-06-15T13:59:59.000Z</time>
        <extensions>
          <ns3:TrackPointExtension>
            <ns3:atemp>21.0</ns3:atemp>
          </ns3:TrackPointExtension>
        </extensions>
      </trkpt>
      <trkpt lat="42.5791762769222259521484375" lon="20.0205249153077602386474609375">
        <ele>1980.4000244140625</ele>
        <time>2026-06-15T14:00:00.000Z</time>
        <extensions>
          <ns3:TrackPointExtension>
            <ns3:atemp>21.0</ns3:atemp>
          </ns3:TrackPointExtension>
        </extensions>
      </trkpt>
      <trkpt lat="42.5791762769222259521484375" lon="20.0205249153077602386474609375">
        <ele>1980.4000244140625</ele>
        <time>2026-06-15T14:00:01.000Z</time>
        <extensions>
          <ns3:TrackPointExtension>
            <ns3:atemp>21.0</ns3:atemp>
          </ns3:TrackPointExtension>
        </extensions>
      </trkpt>
      <trkpt lat="42.5791911967098712921142578125" lon="20.02050228416919708251953125">
        <ele>1980.5999755859375</ele>
        <time>2026-06-15T14:00:02.000Z</time>
        <extensions>
          <ns3:TrackPointExtension>
            <ns3:atemp>21.0</ns3:atemp>
          </ns3:TrackPointExtension>
        </extensions>
      </trkpt>
      <trkpt lat="42.57920368574559688568115234375" lon="20.02048426307737827301025390625">
        <ele>1980.800048828125</ele>
        <time>2026-06-15T14:00:03.000Z</time>
        <extensions>
          <ns3:TrackPointExtension>
            <ns3:atemp>21.0</ns3:atemp>
          </ns3:TrackPointExtension>
        </extensions>
      </trkpt>
      <trkpt lat="42.57921525277197360992431640625" lon="20.02046515233814716339111328125">
        <ele>1981</ele>
        <time>2026-06-15T14:00:04.000Z</time>
        <extensions>
          <ns3:TrackPointExtension>
            <ns3:atemp>21.0</ns3:atemp>
          </ns3:TrackPointExtension>
        </extensions>
      </trkpt>
      <trkpt lat="42.579228915274143218994140625" lon="20.020446963608264923095703125">
        <ele>1981.199951171875</ele>
        <time>2026-06-15T14:00:05.000Z</time>
        <extensions>
          <ns3:TrackPointExtension>
            <ns3:atemp>21.0</ns3:atemp>
          </ns3:TrackPointExtension>
        </extensions>
      </trkpt>
      <trkpt lat="42.5792465172708034515380859375" lon="20.020434558391571044921875">
        <ele>1981.4000244140625</ele>
        <time>2026-06-15T14:00:06.000Z</time>
        <extensions>
          <ns3:TrackPointExtension>
            <ns3:atemp>21.0</ns3:atemp>
          </ns3:TrackPointExtension>
        </extensions>
      </trkpt>
      <trkpt lat="42.5792592577636241912841796875" lon="20.0204136036336421966552734375">
        <ele>1981.5999755859375</ele>
        <time>2026-06-15T14:00:07.000Z</time>
        <extensions>
          <ns3:TrackPointExtension>
            <ns3:atemp>21.0</ns3:atemp>
          </ns3:TrackPointExtension>
        </extensions>
      </trkpt>
      <trkpt lat="42.57928180508315563201904296875" lon="20.02035099081695079803466796875">
        <ele>1981.800048828125</ele>
        <time>2026-06-15T14:00:08.000Z</time>
        <extensions>
          <ns3:TrackPointExtension>
            <ns3:atemp>21.0</ns3:atemp>
          </ns3:TrackPointExtension>
        </extensions>
      </trkpt>
      <trkpt lat="42.57928180508315563201904296875" lon="20.02035099081695079803466796875">
        <ele>1982</ele>
        <time>2026-06-15T14:00:09.000Z</time>
        <extensions>
          <ns3:TrackPointExtension>
            <ns3:atemp>21.0</ns3:atemp>
          </ns3:TrackPointExtension>
        </extensions>
      </trkpt>
      <trkpt lat="42.57930544205009937286376953125" lon="20.02028108574450016021728515625">
        <ele>1982.199951171875</ele>
        <time>2026-06-15T14:00:10.000Z</time>
        <extensions>
          <ns3:TrackPointExtension>
            <ns3:atemp>21.0</ns3:atemp>
          </ns3:TrackPointExtension>
        </extensions>
      </trkpt>
      <trkpt lat="42.57930544205009937286376953125" lon="20.02028108574450016021728515625">
        <ele>1982.4000244140625</ele>
        <time>2026-06-15T14:00:11.000Z</time>
        <extensions>
          <ns3:TrackPointExtension>
            <ns3:atemp>21.0</ns3:atemp>
          </ns3:TrackPointExtension>
        </extensions>
      </trkpt>
      <trkpt lat="42.5793212838470935821533203125" lon="20.02024705521762371063232421875">
        <ele>1982.5999755859375</ele>
        <time>2026-06-15T14:00:12.000Z</time>
        <extensions>
          <ns3:TrackPointExtension>
            <ns3:atemp>21.0</ns3:atemp>
          </ns3:TrackPointExtension>
        </extensions>
      </trkpt>
      <trkpt lat="42.579338550567626953125" lon="20.02021553926169872283935546875">
        <ele>1982.800048828125</ele>
        <time>2026-06-15T14:00:13.000Z</time>
        <extensions>
          <ns3:TrackPointExtension>
            <ns3:atemp>21.0</ns3:atemp>
          </ns3:TrackPointExtension>
        </extensions>
      </trkpt>
      <trkpt lat="42.57935640402138233184814453125" lon="20.02018511295318603515625">
        <ele>1982.800048828125</ele>
        <time>2026-06-15T14:00:14.000Z</time>
        <extensions>
          <ns3:TrackPointExtension>
            <ns3:atemp>21.0</ns3:atemp>
          </ns3:TrackPointExtension>
        </extensions>
      </trkpt>
      <trkpt lat="42.57937333546578884124755859375" lon="20.02015870995819568634033203125">
        <ele>1983.199951171875</ele>
        <time>2026-06-15T14:00:15.000Z</time>
        <extensions>
          <ns3:TrackPointExtension>
            <ns3:atemp>21.0</ns3:atemp>
          </ns3:TrackPointExtension>
        </extensions>
      </trkpt>
      <trkpt lat="42.579403929412364959716796875" lon="20.02011336386203765869140625">
        <ele>1983.4000244140625</ele>
        <time>2026-06-15T14:00:16.000Z</time>
        <extensions>
          <ns3:TrackPointExtension>
            <ns3:atemp>21.0</ns3:atemp>
          </ns3:TrackPointExtension>
        </extensions>
      </trkpt>
      <trkpt lat="42.579403929412364959716796875" lon="20.02011336386203765869140625">
        <ele>1983.800048828125</ele>
        <time>2026-06-15T14:00:17.000Z</time>
        <extensions>
          <ns3:TrackPointExtension>
            <ns3:atemp>21.0</ns3:atemp>
          </ns3:TrackPointExtension>
        </extensions>
      </trkpt>
      <trkpt lat="42.57942044176161289215087890625" lon="20.0200974382460117340087890625">
        <ele>1984</ele>
        <time>2026-06-15T14:00:18.000Z</time>
        <extensions>
          <ns3:TrackPointExtension>
            <ns3:atemp>21.0</ns3:atemp>
          </ns3:TrackPointExtension>
        </extensions>
      </trkpt>
      <trkpt lat="42.5794594176113605499267578125" lon="20.02006801776587963104248046875">
        <ele>1984.4000244140625</ele>
        <time>2026-06-15T14:00:19.000Z</time>
        <extensions>
          <ns3:TrackPointExtension>
            <ns3:atemp>21.0</ns3:atemp>
          </ns3:TrackPointExtension>
        </extensions>
      </trkpt>
      <trkpt lat="42.5794594176113605499267578125" lon="20.02006801776587963104248046875">
        <ele>1984.5999755859375</ele>
        <time>2026-06-15T14:00:20.000Z</time>
        <extensions>
          <ns3:TrackPointExtension>
            <ns3:atemp>21.0</ns3:atemp>
          </ns3:TrackPointExtension>
        </extensions>
      </trkpt>
      <trkpt lat="42.57948816753923892974853515625" lon="20.0200250186026096343994140625">
        <ele>1985</ele>
        <time>2026-06-15T14:00:21.000Z</time>
        <extensions>
          <ns3:TrackPointExtension>
            <ns3:atemp>21.0</ns3:atemp>
          </ns3:TrackPointExtension>
        </extensions>
      </trkpt>
      <trkpt lat="42.57948816753923892974853515625" lon="20.0200250186026096343994140625">
        <ele>1985.199951171875</ele>
        <time>2026-06-15T14:00:22.000Z</time>
        <extensions>
          <ns3:TrackPointExtension>
            <ns3:atemp>21.0</ns3:atemp>
          </ns3:TrackPointExtension>
        </extensions>
      </trkpt>
      <trkpt lat="42.5795164145529270172119140625" lon="20.01997497864067554473876953125">
        <ele>1985.4000244140625</ele>
        <time>2026-06-15T14:00:23.000Z</time>
        <extensions>
          <ns3:TrackPointExtension>
            <ns3:atemp>21.0</ns3:atemp>
          </ns3:TrackPointExtension>
        </extensions>
      </trkpt>
      <trkpt lat="42.5795164145529270172119140625" lon="20.01997497864067554473876953125">
        <ele>1985.5999755859375</ele>
        <time>2026-06-15T14:00:24.000Z</time>
        <extensions>
          <ns3:TrackPointExtension>
            <ns3:atemp>21.0</ns3:atemp>
          </ns3:TrackPointExtension>
        </extensions>
      </trkpt>
      <trkpt lat="42.579543404281139373779296875" lon="20.01992829144001007080078125">
        <ele>1985.800048828125</ele>
        <time>2026-06-15T14:00:25.000Z</time>
        <extensions>
          <ns3:TrackPointExtension>
            <ns3:atemp>21.0</ns3:atemp>
          </ns3:TrackPointExtension>
        </extensions>
      </trkpt>
      <trkpt lat="42.579543404281139373779296875" lon="20.01992829144001007080078125">
        <ele>1986</ele>
        <time>2026-06-15T14:00:26.000Z</time>
        <extensions>
          <ns3:TrackPointExtension>
            <ns3:atemp>21.0</ns3:atemp>
          </ns3:TrackPointExtension>
        </extensions>
      </trkpt>
      <trkpt lat="42.579551450908184051513671875" lon="20.0199075043201446533203125">
        <ele>1986.199951171875</ele>
        <time>2026-06-15T14:00:27.000Z</time>
        <extensions>
          <ns3:TrackPointExtension>
            <ns3:atemp>21.0</ns3:atemp>
          </ns3:TrackPointExtension>
        </extensions>
      </trkpt>
      <trkpt lat="42.579574920237064361572265625" lon="20.01985159702599048614501953125">
        <ele>1986.199951171875</ele>
        <time>2026-06-15T14:00:28.000Z</time>
        <extensions>
          <ns3:TrackPointExtension>
            <ns3:atemp>21.0</ns3:atemp>
          </ns3:TrackPointExtension>
        </extensions>
      </trkpt>
      <trkpt lat="42.579574920237064361572265625" lon="20.01985159702599048614501953125">
        <ele>1986.4000244140625</ele>
        <time>2026-06-15T14:00:29.000Z</time>
        <extensions>
          <ns3:TrackPointExtension>
            <ns3:atemp>21.0</ns3:atemp>
          </ns3:TrackPointExtension>
        </extensions>
      </trkpt>
      <trkpt lat="42.57961280643939971923828125" lon="20.0198000483214855194091796875">
        <ele>1986.5999755859375</ele>
        <time>2026-06-15T14:00:30.000Z</time>
        <extensions>
          <ns3:TrackPointExtension>
            <ns3:atemp>21.0</ns3:atemp>
          </ns3:TrackPointExtension>
        </extensions>
      </trkpt>
      <trkpt lat="42.57962915115058422088623046875" lon="20.01977196894586086273193359375">
        <ele>1986.800048828125</ele>
        <time>2026-06-15T14:00:31.000Z</time>
        <extensions>
          <ns3:TrackPointExtension>
            <ns3:atemp>21.0</ns3:atemp>
          </ns3:TrackPointExtension>
        </extensions>
      </trkpt>
      <trkpt lat="42.57962915115058422088623046875" lon="20.01977196894586086273193359375">
        <ele>1986.800048828125</ele>
        <time>2026-06-15T14:00:32.000Z</time>
        <extensions>
          <ns3:TrackPointExtension>
            <ns3:atemp>21.0</ns3:atemp>
          </ns3:TrackPointExtension>
        </extensions>
      </trkpt>
      <trkpt lat="42.57965194992721080780029296875" lon="20.01974615268409252166748046875">
        <ele>1987</ele>
        <time>2026-06-15T14:00:33.000Z</time>
        <extensions>
          <ns3:TrackPointExtension>
            <ns3:atemp>21.0</ns3:atemp>
          </ns3:TrackPointExtension>
        </extensions>
      </trkpt>
      <trkpt lat="42.5796971283853054046630859375" lon="20.0196969509124755859375">
        <ele>1987.199951171875</ele>
        <time>2026-06-15T14:00:34.000Z</time>
        <extensions>
          <ns3:TrackPointExtension>
            <ns3:atemp>21.0</ns3:atemp>
          </ns3:TrackPointExtension>
        </extensions>
      </trkpt>
      <trkpt lat="42.5796971283853054046630859375" lon="20.0196969509124755859375">
        <ele>1987.5999755859375</ele>
        <time>2026-06-15T14:00:35.000Z</time>
        <extensions>
          <ns3:TrackPointExtension>
            <ns3:atemp>21.0</ns3:atemp>
          </ns3:TrackPointExtension>
        </extensions>
      </trkpt>
      <trkpt lat="42.5797242857515811920166015625" lon="20.019655711948871612548828125">
        <ele>1987.800048828125</ele>
        <time>2026-06-15T14:00:36.000Z</time>
        <extensions>
          <ns3:TrackPointExtension>
            <ns3:atemp>21.0</ns3:atemp>
          </ns3:TrackPointExtension>
        </extensions>
      </trkpt>
      <trkpt lat="42.5797340087592601776123046875" lon="20.01963794231414794921875">
        <ele>1988.199951171875</ele>
        <time>2026-06-15T14:00:37.000Z</time>
        <extensions>
          <ns3:TrackPointExtension>
            <ns3:atemp>21.0</ns3:atemp>
          </ns3:TrackPointExtension>
        </extensions>
      </trkpt>
      <trkpt lat="42.5797444023191928863525390625" lon="20.019617490470409393310546875">
        <ele>1988.5999755859375</ele>
        <time>2026-06-15T14:00:38.000Z</time>
        <extensions>
          <ns3:TrackPointExtension>
            <ns3:atemp>21.0</ns3:atemp>
          </ns3:TrackPointExtension>
        </extensions>
      </trkpt>
      <trkpt lat="42.5797444023191928863525390625" lon="20.019617490470409393310546875">
        <ele>1988.800048828125</ele>
        <time>2026-06-15T14:00:39.000Z</time>
        <extensions>
          <ns3:TrackPointExtension>
            <ns3:atemp>21.0</ns3:atemp>
          </ns3:TrackPointExtension>
        </extensions>
      </trkpt>
      <trkpt lat="42.57975404150784015655517578125" lon="20.01959628425538539886474609375">
        <ele>1989.199951171875</ele>
        <time>2026-06-15T14:00:40.000Z</time>
        <extensions>
          <ns3:TrackPointExtension>
            <ns3:atemp>21.0</ns3:atemp>
          </ns3:TrackPointExtension>
        </extensions>
      </trkpt>
      <trkpt lat="42.5797661952674388885498046875" lon="20.01957465894520282745361328125">
        <ele>1989.5999755859375</ele>
        <time>2026-06-15T14:00:41.000Z</time>
        <extensions>
          <ns3:TrackPointExtension>
            <ns3:atemp>21.0</ns3:atemp>
          </ns3:TrackPointExtension>
        </extensions>
      </trkpt>
      <trkpt lat="42.579794861376285552978515625" lon="20.01954800449311733245849609375">
        <ele>1989.800048828125</ele>
        <time>2026-06-15T14:00:42.000Z</time>
        <extensions>
          <ns3:TrackPointExtension>
            <ns3:atemp>21.0</ns3:atemp>
          </ns3:TrackPointExtension>
        </extensions>
      </trkpt>
      <trkpt lat="42.57980785332620143890380859375" lon="20.01953979022800922393798828125">
        <ele>1990.199951171875</ele>
        <time>2026-06-15T14:00:43.000Z</time>
        <extensions>
          <ns3:TrackPointExtension>
            <ns3:atemp>21.0</ns3:atemp>
          </ns3:TrackPointExtension>
        </extensions>
      </trkpt>
      <trkpt lat="42.57980785332620143890380859375" lon="20.01953979022800922393798828125">
        <ele>1990.5999755859375</ele>
        <time>2026-06-15T14:00:44.000Z</time>
        <extensions>
          <ns3:TrackPointExtension>
            <ns3:atemp>21.0</ns3:atemp>
          </ns3:TrackPointExtension>
        </extensions>
      </trkpt>
      <trkpt lat="42.579841800034046173095703125" lon="20.019515566527843475341796875">
        <ele>1990.800048828125</ele>
        <time>2026-06-15T14:00:45.000Z</time>
        <extensions>
          <ns3:TrackPointExtension>
            <ns3:atemp>21.0</ns3:atemp>
          </ns3:TrackPointExtension>
        </extensions>
      </trkpt>
      <trkpt lat="42.579841800034046173095703125" lon="20.019515566527843475341796875">
        <ele>1991</ele>
        <time>2026-06-15T14:00:46.000Z</time>
        <extensions>
          <ns3:TrackPointExtension>
            <ns3:atemp>21.0</ns3:atemp>
          </ns3:TrackPointExtension>
        </extensions>
      </trkpt>
      <trkpt lat="42.57986962795257568359375" lon="20.01947860233485698699951171875">
        <ele>1991.199951171875</ele>
        <time>2026-06-15T14:00:47.000Z</time>
        <extensions>
          <ns3:TrackPointExtension>
            <ns3:atemp>21.0</ns3:atemp>
          </ns3:TrackPointExtension>
        </extensions>
      </trkpt>
      <trkpt lat="42.57986962795257568359375" lon="20.01947860233485698699951171875">
        <ele>1991.4000244140625</ele>
        <time>2026-06-15T14:00:48.000Z</time>
        <extensions>
          <ns3:TrackPointExtension>
            <ns3:atemp>21.0</ns3:atemp>
          </ns3:TrackPointExtension>
        </extensions>
      </trkpt>
      <trkpt lat="42.579891420900821685791015625" lon="20.01942629925906658172607421875">
        <ele>1991.5999755859375</ele>
        <time>2026-06-15T14:00:49.000Z</time>
        <extensions>
          <ns3:TrackPointExtension>
            <ns3:atemp>21.0</ns3:atemp>
          </ns3:TrackPointExtension>
        </extensions>
      </trkpt>
      <trkpt lat="42.579891420900821685791015625" lon="20.01942629925906658172607421875">
        <ele>1992</ele>
        <time>2026-06-15T14:00:50.000Z</time>
        <extensions>
          <ns3:TrackPointExtension>
            <ns3:atemp>21.0</ns3:atemp>
          </ns3:TrackPointExtension>
        </extensions>
      </trkpt>
      <trkpt lat="42.5799093581736087799072265625" lon="20.01937516964972019195556640625">
        <ele>1992.199951171875</ele>
        <time>2026-06-15T14:00:51.000Z</time>
        <extensions>
          <ns3:TrackPointExtension>
            <ns3:atemp>21.0</ns3:atemp>
          </ns3:TrackPointExtension>
        </extensions>
      </trkpt>
      <trkpt lat="42.5799093581736087799072265625" lon="20.01937516964972019195556640625">
        <ele>1992.4000244140625</ele>
        <time>2026-06-15T14:00:52.000Z</time>
        <extensions>
          <ns3:TrackPointExtension>
            <ns3:atemp>21.0</ns3:atemp>
          </ns3:TrackPointExtension>
        </extensions>
      </trkpt>
      <trkpt lat="42.5799231044948101043701171875" lon="20.019364692270755767822265625">
        <ele>1992.5999755859375</ele>
        <time>2026-06-15T14:00:53.000Z</time>
        <extensions>
          <ns3:TrackPointExtension>
            <ns3:atemp>21.0</ns3:atemp>
          </ns3:TrackPointExtension>
        </extensions>
      </trkpt>
      <trkpt lat="42.57996149361133575439453125" lon="20.0193353556096553802490234375">
        <ele>1993</ele>
        <time>2026-06-15T14:00:54.000Z</time>
        <extensions>
          <ns3:TrackPointExtension>
            <ns3:atemp>21.0</ns3:atemp>
          </ns3:TrackPointExtension>
        </extensions>
      </trkpt>
      <trkpt lat="42.5799760781228542327880859375" lon="20.01932135783135890960693359375">
        <ele>1993.199951171875</ele>
        <time>2026-06-15T14:00:55.000Z</time>
        <extensions>
          <ns3:TrackPointExtension>
            <ns3:atemp>21.0</ns3:atemp>
          </ns3:TrackPointExtension>
        </extensions>
      </trkpt>
      <trkpt lat="42.5799760781228542327880859375" lon="20.01932135783135890960693359375">
        <ele>1993.4000244140625</ele>
        <time>2026-06-15T14:00:56.000Z</time>
        <extensions>
          <ns3:TrackPointExtension>
            <ns3:atemp>21.0</ns3:atemp>
          </ns3:TrackPointExtension>
        </extensions>
      </trkpt>
      <trkpt lat="42.5799894891679286956787109375" lon="20.01930526457726955413818359375">
        <ele>1993.5999755859375</ele>
        <time>2026-06-15T14:00:57.000Z</time>
        <extensions>
          <ns3:TrackPointExtension>
            <ns3:atemp>21.0</ns3:atemp>
          </ns3:TrackPointExtension>
        </extensions>
      </trkpt>
      <trkpt lat="42.58000910282135009765625" lon="20.01926855184137821197509765625">
        <ele>1994</ele>
        <time>2026-06-15T14:00:58.000Z</time>
        <extensions>
          <ns3:TrackPointExtension>
            <ns3:atemp>21.0</ns3:atemp>
          </ns3:TrackPointExtension>
        </extensions>
      </trkpt>
      <trkpt lat="42.58000910282135009765625" lon="20.01926855184137821197509765625">
        <ele>1994.199951171875</ele>
        <time>2026-06-15T14:00:59.000Z</time>
        <extensions>
          <ns3:TrackPointExtension>
            <ns3:atemp>21.0</ns3:atemp>
          </ns3:TrackPointExtension>
        </extensions>
      </trkpt>
      <trkpt lat="42.58002243004739284515380859375" lon="20.01922362484037876129150390625">
        <ele>1994.5999755859375</ele>
        <time>2026-06-15T14:01:00.000Z</time>
        <extensions>
          <ns3:TrackPointExtension>
            <ns3:atemp>21.0</ns3:atemp>
          </ns3:TrackPointExtension>
        </extensions>
      </trkpt>
      <trkpt lat="42.58002243004739284515380859375" lon="20.01922362484037876129150390625">
        <ele>1995</ele>
        <time>2026-06-15T14:01:01.000Z</time>
        <extensions>
          <ns3:TrackPointExtension>
            <ns3:atemp>21.0</ns3:atemp>
          </ns3:TrackPointExtension>
        </extensions>
      </trkpt>
      <trkpt lat="42.5800243578851222991943359375" lon="20.01920149661600589752197265625">
        <ele>1995.199951171875</ele>
        <time>2026-06-15T14:01:02.000Z</time>
        <extensions>
          <ns3:TrackPointExtension>
            <ns3:atemp>21.0</ns3:atemp>
          </ns3:TrackPointExtension>
        </extensions>
      </trkpt>
      <trkpt lat="42.58003793656826019287109375" lon="20.0191538035869598388671875">
        <ele>1995.4000244140625</ele>
        <time>2026-06-15T14:01:03.000Z</time>
        <extensions>
          <ns3:TrackPointExtension>
            <ns3:atemp>21.0</ns3:atemp>
          </ns3:TrackPointExtension>
        </extensions>
      </trkpt>
      <trkpt lat="42.5800491683185100555419921875" lon="20.019132681190967559814453125">
        <ele>1995.5999755859375</ele>
        <time>2026-06-15T14:01:04.000Z</time>
        <extensions>
          <ns3:TrackPointExtension>
            <ns3:atemp>21.0</ns3:atemp>
          </ns3:TrackPointExtension>
        </extensions>
      </trkpt>
      <trkpt lat="42.5800491683185100555419921875" lon="20.019132681190967559814453125">
        <ele>1995.800048828125</ele>
        <time>2026-06-15T14:01:05.000Z</time>
        <extensions>
          <ns3:TrackPointExtension>
            <ns3:atemp>21.0</ns3:atemp>
          </ns3:TrackPointExtension>
        </extensions>
      </trkpt>
      <trkpt lat="42.58008227683603763580322265625" lon="20.0191120617091655731201171875">
        <ele>1996</ele>
        <time>2026-06-15T14:01:06.000Z</time>
        <extensions>
          <ns3:TrackPointExtension>
            <ns3:atemp>21.0</ns3:atemp>
          </ns3:TrackPointExtension>
        </extensions>
      </trkpt>
      <trkpt lat="42.5801034830510616302490234375" lon="20.01909404061734676361083984375">
        <ele>1996</ele>
        <time>2026-06-15T14:01:07.000Z</time>
        <extensions>
          <ns3:TrackPointExtension>
            <ns3:atemp>21.0</ns3:atemp>
          </ns3:TrackPointExtension>
        </extensions>
      </trkpt>
      <trkpt lat="42.5801034830510616302490234375" lon="20.01909404061734676361083984375">
        <ele>1996.199951171875</ele>
        <time>2026-06-15T14:01:08.000Z</time>
        <extensions>
          <ns3:TrackPointExtension>
            <ns3:atemp>21.0</ns3:atemp>
          </ns3:TrackPointExtension>
        </extensions>
      </trkpt>
      <trkpt lat="42.5801269523799419403076171875" lon="20.0190493650734424591064453125">
        <ele>1996.199951171875</ele>
        <time>2026-06-15T14:01:09.000Z</time>
        <extensions>
          <ns3:TrackPointExtension>
            <ns3:atemp>21.0</ns3:atemp>
          </ns3:TrackPointExtension>
        </extensions>
      </trkpt>
      <trkpt lat="42.5801269523799419403076171875" lon="20.0190493650734424591064453125">
        <ele>1996.199951171875</ele>
        <time>2026-06-15T14:01:10.000Z</time>
        <extensions>
          <ns3:TrackPointExtension>
            <ns3:atemp>21.0</ns3:atemp>
          </ns3:TrackPointExtension>
        </extensions>
      </trkpt>
      <trkpt lat="42.5801313109695911407470703125" lon="20.0189957208931446075439453125">
        <ele>1996.199951171875</ele>
        <time>2026-06-15T14:01:11.000Z</time>
        <extensions>
          <ns3:TrackPointExtension>
            <ns3:atemp>21.0</ns3:atemp>
          </ns3:TrackPointExtension>
        </extensions>
      </trkpt>
      <trkpt lat="42.58013072423636913299560546875" lon="20.0189605168998241424560546875">
        <ele>1996.199951171875</ele>
        <time>2026-06-15T14:01:12.000Z</time>
        <extensions>
          <ns3:TrackPointExtension>
            <ns3:atemp>21.0</ns3:atemp>
          </ns3:TrackPointExtension>
        </extensions>
      </trkpt>
      <trkpt lat="42.58013323880732059478759765625" lon="20.0189229659736156463623046875">
        <ele>1996.199951171875</ele>
        <time>2026-06-15T14:01:13.000Z</time>
        <extensions>
          <ns3:TrackPointExtension>
            <ns3:atemp>21.0</ns3:atemp>
          </ns3:TrackPointExtension>
        </extensions>
      </trkpt>
      <trkpt lat="42.58013323880732059478759765625" lon="20.0189229659736156463623046875">
        <ele>1996.4000244140625</ele>
        <time>2026-06-15T14:01:14.000Z</time>
        <extensions>
          <ns3:TrackPointExtension>
            <ns3:atemp>21.0</ns3:atemp>
          </ns3:TrackPointExtension>
        </extensions>
      </trkpt>
      <trkpt lat="42.5801477394998073577880859375" lon="20.01886789686977863311767578125">
        <ele>1996.4000244140625</ele>
        <time>2026-06-15T14:01:15.000Z</time>
        <extensions>
          <ns3:TrackPointExtension>
            <ns3:atemp>21.0</ns3:atemp>
          </ns3:TrackPointExtension>
        </extensions>
      </trkpt>
      <trkpt lat="42.58015595376491546630859375" lon="20.01883797347545623779296875">
        <ele>1996.4000244140625</ele>
        <time>2026-06-15T14:01:16.000Z</time>
        <extensions>
          <ns3:TrackPointExtension>
            <ns3:atemp>21.0</ns3:atemp>
          </ns3:TrackPointExtension>
        </extensions>
      </trkpt>
      <trkpt lat="42.58015595376491546630859375" lon="20.01883797347545623779296875">
        <ele>1996.4000244140625</ele>
        <time>2026-06-15T14:01:17.000Z</time>
        <extensions>
          <ns3:TrackPointExtension>
            <ns3:atemp>21.0</ns3:atemp>
          </ns3:TrackPointExtension>
        </extensions>
      </trkpt>
      <trkpt lat="42.58018034510314464569091796875" lon="20.0187915377318859100341796875">
        <ele>1996.4000244140625</ele>
        <time>2026-06-15T14:01:18.000Z</time>
        <extensions>
          <ns3:TrackPointExtension>
            <ns3:atemp>21.0</ns3:atemp>
          </ns3:TrackPointExtension>
        </extensions>
      </trkpt>
      <trkpt lat="42.58018034510314464569091796875" lon="20.0187915377318859100341796875">
        <ele>1996.4000244140625</ele>
        <time>2026-06-15T14:01:19.000Z</time>
        <extensions>
          <ns3:TrackPointExtension>
            <ns3:atemp>21.0</ns3:atemp>
          </ns3:TrackPointExtension>
        </extensions>
      </trkpt>
      <trkpt lat="42.580205909907817840576171875" lon="20.0187405757606029510498046875">
        <ele>1996.4000244140625</ele>
        <time>2026-06-15T14:01:20.000Z</time>
        <extensions>
          <ns3:TrackPointExtension>
            <ns3:atemp>21.0</ns3:atemp>
          </ns3:TrackPointExtension>
        </extensions>
      </trkpt>
      <trkpt lat="42.580205909907817840576171875" lon="20.0187405757606029510498046875">
        <ele>1996.4000244140625</ele>
        <time>2026-06-15T14:01:21.000Z</time>
        <extensions>
          <ns3:TrackPointExtension>
            <ns3:atemp>21.0</ns3:atemp>
          </ns3:TrackPointExtension>
        </extensions>
      </trkpt>
      <trkpt lat="42.58021605201065540313720703125" lon="20.01870746724307537078857421875">
        <ele>1996.5999755859375</ele>
        <time>2026-06-15T14:01:22.000Z</time>
        <extensions>
          <ns3:TrackPointExtension>
            <ns3:atemp>21.0</ns3:atemp>
          </ns3:TrackPointExtension>
        </extensions>
      </trkpt>
      <trkpt lat="42.58024153299629688262939453125" lon="20.01865482889115810394287109375">
        <ele>1996.800048828125</ele>
        <time>2026-06-15T14:01:23.000Z</time>
        <extensions>
          <ns3:TrackPointExtension>
            <ns3:atemp>21.0</ns3:atemp>
          </ns3:TrackPointExtension>
        </extensions>
      </trkpt>
      <trkpt lat="42.58025678806006908416748046875" lon="20.01863186247646808624267578125">
        <ele>1997</ele>
        <time>2026-06-15T14:01:24.000Z</time>
        <extensions>
          <ns3:TrackPointExtension>
            <ns3:atemp>21.0</ns3:atemp>
          </ns3:TrackPointExtension>
        </extensions>
      </trkpt>
      <trkpt lat="42.58027522824704647064208984375" lon="20.018616355955600738525390625">
        <ele>1997.199951171875</ele>
        <time>2026-06-15T14:01:25.000Z</time>
        <extensions>
          <ns3:TrackPointExtension>
            <ns3:atemp>21.0</ns3:atemp>
          </ns3:TrackPointExtension>
        </extensions>
      </trkpt>
      <trkpt lat="42.58029283024370670318603515625" lon="20.018598251044750213623046875">
        <ele>1997.4000244140625</ele>
        <time>2026-06-15T14:01:26.000Z</time>
        <extensions>
          <ns3:TrackPointExtension>
            <ns3:atemp>21.0</ns3:atemp>
          </ns3:TrackPointExtension>
        </extensions>
      </trkpt>
      <trkpt lat="42.58031277917325496673583984375" lon="20.0185742788016796112060546875">
        <ele>1997.4000244140625</ele>
        <time>2026-06-15T14:01:27.000Z</time>
        <extensions>
          <ns3:TrackPointExtension>
            <ns3:atemp>21.0</ns3:atemp>
          </ns3:TrackPointExtension>
        </extensions>
      </trkpt>
      <trkpt lat="42.5803321413695812225341796875" lon="20.018549971282482147216796875">
        <ele>1997.5999755859375</ele>
        <time>2026-06-15T14:01:28.000Z</time>
        <extensions>
          <ns3:TrackPointExtension>
            <ns3:atemp>21.0</ns3:atemp>
          </ns3:TrackPointExtension>
        </extensions>
      </trkpt>
      <trkpt lat="42.5803321413695812225341796875" lon="20.018549971282482147216796875">
        <ele>1997.5999755859375</ele>
        <time>2026-06-15T14:01:29.000Z</time>
        <extensions>
          <ns3:TrackPointExtension>
            <ns3:atemp>21.0</ns3:atemp>
          </ns3:TrackPointExtension>
        </extensions>
      </trkpt>
      <trkpt lat="42.5803703628480434417724609375" lon="20.0185162760317325592041015625">
        <ele>1997.5999755859375</ele>
        <time>2026-06-15T14:01:30.000Z</time>
        <extensions>
          <ns3:TrackPointExtension>
            <ns3:atemp>21.0</ns3:atemp>
          </ns3:TrackPointExtension>
        </extensions>
      </trkpt>
      <trkpt lat="42.58038804866373538970947265625" lon="20.01849657855927944183349609375">
        <ele>1997.800048828125</ele>
        <time>2026-06-15T14:01:31.000Z</time>
        <extensions>
          <ns3:TrackPointExtension>
            <ns3:atemp>21.0</ns3:atemp>
          </ns3:TrackPointExtension>
        </extensions>
      </trkpt>
      <trkpt lat="42.58038804866373538970947265625" lon="20.01849657855927944183349609375">
        <ele>1998</ele>
        <time>2026-06-15T14:01:32.000Z</time>
        <extensions>
          <ns3:TrackPointExtension>
            <ns3:atemp>21.0</ns3:atemp>
          </ns3:TrackPointExtension>
        </extensions>
      </trkpt>
      <trkpt lat="42.5804186426103115081787109375" lon="20.01846405677497386932373046875">
        <ele>1998.199951171875</ele>
        <time>2026-06-15T14:01:33.000Z</time>
        <extensions>
          <ns3:TrackPointExtension>
            <ns3:atemp>21.0</ns3:atemp>
          </ns3:TrackPointExtension>
        </extensions>
      </trkpt>
      <trkpt lat="42.580434568226337432861328125" lon="20.01845232211053371429443359375">
        <ele>1998.4000244140625</ele>
        <time>2026-06-15T14:01:34.000Z</time>
        <extensions>
          <ns3:TrackPointExtension>
            <ns3:atemp>21.0</ns3:atemp>
          </ns3:TrackPointExtension>
        </extensions>
      </trkpt>
      <trkpt lat="42.58045359514653682708740234375" lon="20.0184388272464275360107421875">
        <ele>1998.5999755859375</ele>
        <time>2026-06-15T14:01:35.000Z</time>
        <extensions>
          <ns3:TrackPointExtension>
            <ns3:atemp>21.0</ns3:atemp>
          </ns3:TrackPointExtension>
        </extensions>
      </trkpt>
      <trkpt lat="42.58045359514653682708740234375" lon="20.0184388272464275360107421875">
        <ele>1998.800048828125</ele>
        <time>2026-06-15T14:01:36.000Z</time>
        <extensions>
          <ns3:TrackPointExtension>
            <ns3:atemp>21.0</ns3:atemp>
          </ns3:TrackPointExtension>
        </extensions>
      </trkpt>
      <trkpt lat="42.580490894615650177001953125" lon="20.01839146949350833892822265625">
        <ele>1998.800048828125</ele>
        <time>2026-06-15T14:01:37.000Z</time>
        <extensions>
          <ns3:TrackPointExtension>
            <ns3:atemp>21.0</ns3:atemp>
          </ns3:TrackPointExtension>
        </extensions>
      </trkpt>
      <trkpt lat="42.58050992153584957122802734375" lon="20.018365569412708282470703125">
        <ele>1998.800048828125</ele>
        <time>2026-06-15T14:01:38.000Z</time>
        <extensions>
          <ns3:TrackPointExtension>
            <ns3:atemp>21.0</ns3:atemp>
          </ns3:TrackPointExtension>
        </extensions>
      </trkpt>
      <trkpt lat="42.580525092780590057373046875" lon="20.01833681948482990264892578125">
        <ele>1998.800048828125</ele>
        <time>2026-06-15T14:01:39.000Z</time>
        <extensions>
          <ns3:TrackPointExtension>
            <ns3:atemp>21.0</ns3:atemp>
          </ns3:TrackPointExtension>
        </extensions>
      </trkpt>
      <trkpt lat="42.5805396772921085357666015625" lon="20.01830748282372951507568359375">
        <ele>1999</ele>
        <time>2026-06-15T14:01:40.000Z</time>
        <extensions>
          <ns3:TrackPointExtension>
            <ns3:atemp>21.0</ns3:atemp>
          </ns3:TrackPointExtension>
        </extensions>
      </trkpt>
      <trkpt lat="42.58055468089878559112548828125" lon="20.01828409731388092041015625">
        <ele>1999</ele>
        <time>2026-06-15T14:01:41.000Z</time>
        <extensions>
          <ns3:TrackPointExtension>
            <ns3:atemp>21.0</ns3:atemp>
          </ns3:TrackPointExtension>
        </extensions>
      </trkpt>
      <trkpt lat="42.58055468089878559112548828125" lon="20.01828409731388092041015625">
        <ele>1999.4000244140625</ele>
        <time>2026-06-15T14:01:42.000Z</time>
        <extensions>
          <ns3:TrackPointExtension>
            <ns3:atemp>21.0</ns3:atemp>
          </ns3:TrackPointExtension>
        </extensions>
      </trkpt>
      <trkpt lat="42.5805844366550445556640625" lon="20.0182366557419300079345703125">
        <ele>1999.5999755859375</ele>
        <time>2026-06-15T14:01:43.000Z</time>
        <extensions>
          <ns3:TrackPointExtension>
            <ns3:atemp>21.0</ns3:atemp>
          </ns3:TrackPointExtension>
        </extensions>
      </trkpt>
      <trkpt lat="42.58060262538492679595947265625" lon="20.01821327023208141326904296875">
        <ele>1999.800048828125</ele>
        <time>2026-06-15T14:01:44.000Z</time>
        <extensions>
          <ns3:TrackPointExtension>
            <ns3:atemp>21.0</ns3:atemp>
          </ns3:TrackPointExtension>
        </extensions>
      </trkpt>
      <trkpt lat="42.58062290959060192108154296875" lon="20.0181877054274082183837890625">
        <ele>2000</ele>
        <time>2026-06-15T14:01:45.000Z</time>
        <extensions>
          <ns3:TrackPointExtension>
            <ns3:atemp>21.0</ns3:atemp>
          </ns3:TrackPointExtension>
        </extensions>
      </trkpt>
      <trkpt lat="42.58064134977757930755615234375" lon="20.01816063188016414642333984375">
        <ele>2000.199951171875</ele>
        <time>2026-06-15T14:01:46.000Z</time>
        <extensions>
          <ns3:TrackPointExtension>
            <ns3:atemp>21.0</ns3:atemp>
          </ns3:TrackPointExtension>
        </extensions>
      </trkpt>
      <trkpt lat="42.58064134977757930755615234375" lon="20.01816063188016414642333984375">
        <ele>2000.199951171875</ele>
        <time>2026-06-15T14:01:47.000Z</time>
        <extensions>
          <ns3:TrackPointExtension>
            <ns3:atemp>21.0</ns3:atemp>
          </ns3:TrackPointExtension>
        </extensions>
      </trkpt>
      <trkpt lat="42.5806771405041217803955078125" lon="20.0180941633880138397216796875">
        <ele>2000.4000244140625</ele>
        <time>2026-06-15T14:01:48.000Z</time>
        <extensions>
          <ns3:TrackPointExtension>
            <ns3:atemp>21.0</ns3:atemp>
          </ns3:TrackPointExtension>
        </extensions>
      </trkpt>
      <trkpt lat="42.580693401396274566650390625" lon="20.01806172542273998260498046875">
        <ele>2000.5999755859375</ele>
        <time>2026-06-15T14:01:49.000Z</time>
        <extensions>
          <ns3:TrackPointExtension>
            <ns3:atemp>20.0</ns3:atemp>
          </ns3:TrackPointExtension>
        </extensions>
      </trkpt>
      <trkpt lat="42.58071175776422023773193359375" lon="20.01803674735128879547119140625">
        <ele>2000.800048828125</ele>
        <time>2026-06-15T14:01:50.000Z</time>
        <extensions>
          <ns3:TrackPointExtension>
            <ns3:atemp>20.0</ns3:atemp>
          </ns3:TrackPointExtension>
        </extensions>
      </trkpt>
      <trkpt lat="42.58073204196989536285400390625" lon="20.01800791360437870025634765625">
        <ele>2000.800048828125</ele>
        <time>2026-06-15T14:01:51.000Z</time>
        <extensions>
          <ns3:TrackPointExtension>
            <ns3:atemp>20.0</ns3:atemp>
          </ns3:TrackPointExtension>
        </extensions>
      </trkpt>
      <trkpt lat="42.58075266145169734954833984375" lon="20.0179761461913585662841796875">
        <ele>2001</ele>
        <time>2026-06-15T14:01:52.000Z</time>
        <extensions>
          <ns3:TrackPointExtension>
            <ns3:atemp>20.0</ns3:atemp>
          </ns3:TrackPointExtension>
        </extensions>
      </trkpt>
      <trkpt lat="42.580772526562213897705078125" lon="20.01794471405446529388427734375">
        <ele>2001.199951171875</ele>
        <time>2026-06-15T14:01:53.000Z</time>
        <extensions>
          <ns3:TrackPointExtension>
            <ns3:atemp>20.0</ns3:atemp>
          </ns3:TrackPointExtension>
        </extensions>
      </trkpt>
      <trkpt lat="42.58078836835920810699462890625" lon="20.0179159641265869140625">
        <ele>2001.4000244140625</ele>
        <time>2026-06-15T14:01:54.000Z</time>
        <extensions>
          <ns3:TrackPointExtension>
            <ns3:atemp>20.0</ns3:atemp>
          </ns3:TrackPointExtension>
        </extensions>
      </trkpt>
      <trkpt lat="42.58080496452748775482177734375" lon="20.01789257861673831939697265625">
        <ele>2001.4000244140625</ele>
        <time>2026-06-15T14:01:55.000Z</time>
        <extensions>
          <ns3:TrackPointExtension>
            <ns3:atemp>20.0</ns3:atemp>
          </ns3:TrackPointExtension>
        </extensions>
      </trkpt>
      <trkpt lat="42.58082591928541660308837890625" lon="20.017866007983684539794921875">
        <ele>2001.5999755859375</ele>
        <time>2026-06-15T14:01:56.000Z</time>
        <extensions>
          <ns3:TrackPointExtension>
            <ns3:atemp>20.0</ns3:atemp>
          </ns3:TrackPointExtension>
        </extensions>
      </trkpt>
      <trkpt lat="42.58084016852080821990966796875" lon="20.01783792860805988311767578125">
        <ele>2001.800048828125</ele>
        <time>2026-06-15T14:01:57.000Z</time>
        <extensions>
          <ns3:TrackPointExtension>
            <ns3:atemp>20.0</ns3:atemp>
          </ns3:TrackPointExtension>
        </extensions>
      </trkpt>
      <trkpt lat="42.58085357956588268280029296875" lon="20.01779970712959766387939453125">
        <ele>2001.800048828125</ele>
        <time>2026-06-15T14:01:58.000Z</time>
        <extensions>
          <ns3:TrackPointExtension>
            <ns3:atemp>20.0</ns3:atemp>
          </ns3:TrackPointExtension>
        </extensions>
      </trkpt>
      <trkpt lat="42.5808712653815746307373046875" lon="20.01776911318302154541015625">
        <ele>2002</ele>
        <time>2026-06-15T14:01:59.000Z</time>
        <extensions>
          <ns3:TrackPointExtension>
            <ns3:atemp>20.0</ns3:atemp>
          </ns3:TrackPointExtension>
        </extensions>
      </trkpt>
      <trkpt lat="42.5808917172253131866455078125" lon="20.01774472184479236602783203125">
        <ele>2002.199951171875</ele>
        <time>2026-06-15T14:02:00.000Z</time>
        <extensions>
          <ns3:TrackPointExtension>
            <ns3:atemp>20.0</ns3:atemp>
          </ns3:TrackPointExtension>
        </extensions>
      </trkpt>
      <trkpt lat="42.58091501891613006591796875" lon="20.01772058196365833282470703125">
        <ele>2002.199951171875</ele>
        <time>2026-06-15T14:02:01.000Z</time>
        <extensions>
          <ns3:TrackPointExtension>
            <ns3:atemp>20.0</ns3:atemp>
          </ns3:TrackPointExtension>
        </extensions>
      </trkpt>
      <trkpt lat="42.58091501891613006591796875" lon="20.01772058196365833282470703125">
        <ele>2002.4000244140625</ele>
        <time>2026-06-15T14:02:02.000Z</time>
        <extensions>
          <ns3:TrackPointExtension>
            <ns3:atemp>20.0</ns3:atemp>
          </ns3:TrackPointExtension>
        </extensions>
      </trkpt>
      <trkpt lat="42.58095617406070232391357421875" lon="20.017661489546298980712890625">
        <ele>2002.4000244140625</ele>
        <time>2026-06-15T14:02:03.000Z</time>
        <extensions>
          <ns3:TrackPointExtension>
            <ns3:atemp>20.0</ns3:atemp>
          </ns3:TrackPointExtension>
        </extensions>
      </trkpt>
      <trkpt lat="42.58095617406070232391357421875" lon="20.017661489546298980712890625">
        <ele>2002.5999755859375</ele>
        <time>2026-06-15T14:02:04.000Z</time>
        <extensions>
          <ns3:TrackPointExtension>
            <ns3:atemp>20.0</ns3:atemp>
          </ns3:TrackPointExtension>
        </extensions>
      </trkpt>
      <trkpt lat="42.5809845887124538421630859375" lon="20.0175927579402923583984375">
        <ele>2002.5999755859375</ele>
        <time>2026-06-15T14:02:05.000Z</time>
        <extensions>
          <ns3:TrackPointExtension>
            <ns3:atemp>20.0</ns3:atemp>
          </ns3:TrackPointExtension>
        </extensions>
      </trkpt>
      <trkpt lat="42.58099674247205257415771484375" lon="20.01755998469889163970947265625">
        <ele>2002.5999755859375</ele>
        <time>2026-06-15T14:02:06.000Z</time>
        <extensions>
          <ns3:TrackPointExtension>
            <ns3:atemp>20.0</ns3:atemp>
          </ns3:TrackPointExtension>
        </extensions>
      </trkpt>
      <trkpt lat="42.58099674247205257415771484375" lon="20.01755998469889163970947265625">
        <ele>2002.800048828125</ele>
        <time>2026-06-15T14:02:07.000Z</time>
        <extensions>
          <ns3:TrackPointExtension>
            <ns3:atemp>20.0</ns3:atemp>
          </ns3:TrackPointExtension>
        </extensions>
      </trkpt>
      <trkpt lat="42.58101032115519046783447265625" lon="20.017489157617092132568359375">
        <ele>2002.800048828125</ele>
        <time>2026-06-15T14:02:08.000Z</time>
        <extensions>
          <ns3:TrackPointExtension>
            <ns3:atemp>20.0</ns3:atemp>
          </ns3:TrackPointExtension>
        </extensions>
      </trkpt>
      <trkpt lat="42.58101032115519046783447265625" lon="20.017489157617092132568359375">
        <ele>2003</ele>
        <time>2026-06-15T14:02:09.000Z</time>
        <extensions>
          <ns3:TrackPointExtension>
            <ns3:atemp>20.0</ns3:atemp>
          </ns3:TrackPointExtension>
        </extensions>
      </trkpt>
      <trkpt lat="42.5810161046683788299560546875" lon="20.017428807914257049560546875">
        <ele>2003.199951171875</ele>
        <time>2026-06-15T14:02:10.000Z</time>
        <extensions>
          <ns3:TrackPointExtension>
            <ns3:atemp>20.0</ns3:atemp>
          </ns3:TrackPointExtension>
        </extensions>
      </trkpt>
      <trkpt lat="42.58101887069642543792724609375" lon="20.01740299165248870849609375">
        <ele>2003.4000244140625</ele>
        <time>2026-06-15T14:02:11.000Z</time>
        <extensions>
          <ns3:TrackPointExtension>
            <ns3:atemp>20.0</ns3:atemp>
          </ns3:TrackPointExtension>
        </extensions>
      </trkpt>
      <trkpt lat="42.5810201279819011688232421875" lon="20.01737625338137149810791015625">
        <ele>2003.800048828125</ele>
        <time>2026-06-15T14:02:12.000Z</time>
        <extensions>
          <ns3:TrackPointExtension>
            <ns3:atemp>20.0</ns3:atemp>
          </ns3:TrackPointExtension>
        </extensions>
      </trkpt>
      <trkpt lat="42.58102239109575748443603515625" lon="20.0173580646514892578125">
        <ele>2004</ele>
        <time>2026-06-15T14:02:13.000Z</time>
        <extensions>
          <ns3:TrackPointExtension>
            <ns3:atemp>20.0</ns3:atemp>
          </ns3:TrackPointExtension>
        </extensions>
      </trkpt>
      <trkpt lat="42.58102239109575748443603515625" lon="20.0173580646514892578125">
        <ele>2004.199951171875</ele>
        <time>2026-06-15T14:02:14.000Z</time>
        <extensions>
          <ns3:TrackPointExtension>
            <ns3:atemp>20.0</ns3:atemp>
          </ns3:TrackPointExtension>
        </extensions>
      </trkpt>
      <trkpt lat="42.58102473802864551544189453125" lon="20.01735110767185688018798828125">
        <ele>2004.4000244140625</ele>
        <time>2026-06-15T14:02:15.000Z</time>
        <extensions>
          <ns3:TrackPointExtension>
            <ns3:atemp>20.0</ns3:atemp>
          </ns3:TrackPointExtension>
        </extensions>
      </trkpt>
      <trkpt lat="42.581024654209613800048828125" lon="20.01735471189022064208984375">
        <ele>2004.5999755859375</ele>
        <time>2026-06-15T14:02:16.000Z</time>
        <extensions>
          <ns3:TrackPointExtension>
            <ns3:atemp>20.0</ns3:atemp>
          </ns3:TrackPointExtension>
        </extensions>
      </trkpt>
      <trkpt lat="42.581024654209613800048828125" lon="20.01735471189022064208984375">
        <ele>2004.800048828125</ele>
        <time>2026-06-15T14:02:17.000Z</time>
        <extensions>
          <ns3:TrackPointExtension>
            <ns3:atemp>20.0</ns3:atemp>
          </ns3:TrackPointExtension>
        </extensions>
      </trkpt>
      <trkpt lat="42.581024654209613800048828125" lon="20.01735462807118892669677734375">
        <ele>2005</ele>
        <time>2026-06-15T14:02:18.000Z</time>
        <extensions>
          <ns3:TrackPointExtension>
            <ns3:atemp>20.0</ns3:atemp>
          </ns3:TrackPointExtension>
        </extensions>
      </trkpt>
      <trkpt lat="42.58102473802864551544189453125" lon="20.01735446043312549591064453125">
        <ele>2005</ele>
        <time>2026-06-15T14:02:19.000Z</time>
        <extensions>
          <ns3:TrackPointExtension>
            <ns3:atemp>20.0</ns3:atemp>
          </ns3:TrackPointExtension>
        </extensions>
      </trkpt>
      <trkpt lat="42.581024654209613800048828125" lon="20.01735462807118892669677734375">
        <ele>2005.199951171875</ele>
        <time>2026-06-15T14:02:20.000Z</time>
        <extensions>
          <ns3:TrackPointExtension>
            <ns3:atemp>20.0</ns3:atemp>
          </ns3:TrackPointExtension>
        </extensions>
      </trkpt>
      <trkpt lat="42.581024654209613800048828125" lon="20.01735462807118892669677734375">
        <ele>2005.199951171875</ele>
        <time>2026-06-15T14:02:21.000Z</time>
        <extensions>
          <ns3:TrackPointExtension>
            <ns3:atemp>20.0</ns3:atemp>
          </ns3:TrackPointExtension>
        </extensions>
      </trkpt>
      <trkpt lat="42.581024654209613800048828125" lon="20.01735462807118892669677734375">
        <ele>2005</ele>
        <time>2026-06-15T14:02:22.000Z</time>
        <extensions>
          <ns3:TrackPointExtension>
            <ns3:atemp>20.0</ns3:atemp>
          </ns3:TrackPointExtension>
        </extensions>
      </trkpt>
      <trkpt lat="42.581024654209613800048828125" lon="20.01735462807118892669677734375">
        <ele>2005</ele>
        <time>2026-06-15T14:02:23.000Z</time>
        <extensions>
          <ns3:TrackPointExtension>
            <ns3:atemp>20.0</ns3:atemp>
          </ns3:TrackPointExtension>
        </extensions>
      </trkpt>
      <trkpt lat="42.581024654209613800048828125" lon="20.01735462807118892669677734375">
        <ele>2005.199951171875</ele>
        <time>2026-06-15T14:02:24.000Z</time>
        <extensions>
          <ns3:TrackPointExtension>
            <ns3:atemp>20.0</ns3:atemp>
          </ns3:TrackPointExtension>
        </extensions>
      </trkpt>
      <trkpt lat="42.581024654209613800048828125" lon="20.01735462807118892669677734375">
        <ele>2005.199951171875</ele>
        <time>2026-06-15T14:02:25.000Z</time>
        <extensions>
          <ns3:TrackPointExtension>
            <ns3:atemp>20.0</ns3:atemp>
          </ns3:TrackPointExtension>
        </extensions>
      </trkpt>
      <trkpt lat="42.581024654209613800048828125" lon="20.01735462807118892669677734375">
        <ele>2005.199951171875</ele>
        <time>2026-06-15T14:02:26.000Z</time>
        <extensions>
          <ns3:TrackPointExtension>
            <ns3:atemp>20.0</ns3:atemp>
          </ns3:TrackPointExtension>
        </extensions>
      </trkpt>
      <trkpt lat="42.581024654209613800048828125" lon="20.01735462807118892669677734375">
        <ele>2005.199951171875</ele>
        <time>2026-06-15T14:02:27.000Z</time>
        <extensions>
          <ns3:TrackPointExtension>
            <ns3:atemp>20.0</ns3:atemp>
          </ns3:TrackPointExtension>
        </extensions>
      </trkpt>
      <trkpt lat="42.581024654209613800048828125" lon="20.01735462807118892669677734375">
        <ele>2005.199951171875</ele>
        <time>2026-06-15T14:02:28.000Z</time>
        <extensions>
          <ns3:TrackPointExtension>
            <ns3:atemp>20.0</ns3:atemp>
          </ns3:TrackPointExtension>
        </extensions>
      </trkpt>
      <trkpt lat="42.581024654209613800048828125" lon="20.01735462807118892669677734375">
        <ele>2005.199951171875</ele>
        <time>2026-06-15T14:02:29.000Z</time>
        <extensions>
          <ns3:TrackPointExtension>
            <ns3:atemp>20.0</ns3:atemp>
          </ns3:TrackPointExtension>
        </extensions>
      </trkpt>
      <trkpt lat="42.581024654209613800048828125" lon="20.01735462807118892669677734375">
        <ele>2005.199951171875</ele>
        <time>2026-06-15T14:02:30.000Z</time>
        <extensions>
          <ns3:TrackPointExtension>
            <ns3:atemp>20.0</ns3:atemp>
          </ns3:TrackPointExtension>
        </extensions>
      </trkpt>
      <trkpt lat="42.581024654209613800048828125" lon="20.01735462807118892669677734375">
        <ele>2005.199951171875</ele>
        <time>2026-06-15T14:02:31.000Z</time>
        <extensions>
          <ns3:TrackPointExtension>
            <ns3:atemp>20.0</ns3:atemp>
          </ns3:TrackPointExtension>
        </extensions>
      </trkpt>
      <trkpt lat="42.581024654209613800048828125" lon="20.01735462807118892669677734375">
        <ele>2005.199951171875</ele>
        <time>2026-06-15T14:02:32.000Z</time>
        <extensions>
          <ns3:TrackPointExtension>
            <ns3:atemp>20.0</ns3:atemp>
          </ns3:TrackPointExtension>
        </extensions>
      </trkpt>
      <trkpt lat="42.581024654209613800048828125" lon="20.01735462807118892669677734375">
        <ele>2005.4000244140625</ele>
        <time>2026-06-15T14:02:33.000Z</time>
        <extensions>
          <ns3:TrackPointExtension>
            <ns3:atemp>20.0</ns3:atemp>
          </ns3:TrackPointExtension>
        </extensions>
      </trkpt>
      <trkpt lat="42.581024654209613800048828125" lon="20.01735462807118892669677734375">
        <ele>2005.4000244140625</ele>
        <time>2026-06-15T14:02:34.000Z</time>
        <extensions>
          <ns3:TrackPointExtension>
            <ns3:atemp>20.0</ns3:atemp>
          </ns3:TrackPointExtension>
        </extensions>
      </trkpt>
      <trkpt lat="42.581024654209613800048828125" lon="20.01735462807118892669677734375">
        <ele>2005.4000244140625</ele>
        <time>2026-06-15T14:02:35.000Z</time>
        <extensions>
          <ns3:TrackPointExtension>
            <ns3:atemp>20.0</ns3:atemp>
          </ns3:TrackPointExtension>
        </extensions>
      </trkpt>
      <trkpt lat="42.581024654209613800048828125" lon="20.01735462807118892669677734375">
        <ele>2005.4000244140625</ele>
        <time>2026-06-15T14:02:36.000Z</time>
        <extensions>
          <ns3:TrackPointExtension>
            <ns3:atemp>20.0</ns3:atemp>
          </ns3:TrackPointExtension>
        </extensions>
      </trkpt>
      <trkpt lat="42.581024654209613800048828125" lon="20.01735462807118892669677734375">
        <ele>2005.4000244140625</ele>
        <time>2026-06-15T14:02:37.000Z</time>
        <extensions>
          <ns3:TrackPointExtension>
            <ns3:atemp>20.0</ns3:atemp>
          </ns3:TrackPointExtension>
        </extensions>
      </trkpt>
      <trkpt lat="42.581024654209613800048828125" lon="20.01735462807118892669677734375">
        <ele>2005.4000244140625</ele>
        <time>2026-06-15T14:02:38.000Z</time>
        <extensions>
          <ns3:TrackPointExtension>
            <ns3:atemp>20.0</ns3:atemp>
          </ns3:TrackPointExtension>
        </extensions>
      </trkpt>
      <trkpt lat="42.581024654209613800048828125" lon="20.01735462807118892669677734375">
        <ele>2005.4000244140625</ele>
        <time>2026-06-15T14:02:39.000Z</time>
        <extensions>
          <ns3:TrackPointExtension>
            <ns3:atemp>20.0</ns3:atemp>
          </ns3:TrackPointExtension>
        </extensions>
      </trkpt>
      <trkpt lat="42.581024654209613800048828125" lon="20.01735462807118892669677734375">
        <ele>2005.4000244140625</ele>
        <time>2026-06-15T14:02:40.000Z</time>
        <extensions>
          <ns3:TrackPointExtension>
            <ns3:atemp>20.0</ns3:atemp>
          </ns3:TrackPointExtension>
        </extensions>
      </trkpt>
      <trkpt lat="42.581024654209613800048828125" lon="20.01735462807118892669677734375">
        <ele>2005.4000244140625</ele>
        <time>2026-06-15T14:02:41.000Z</time>
        <extensions>
          <ns3:TrackPointExtension>
            <ns3:atemp>20.0</ns3:atemp>
          </ns3:TrackPointExtension>
        </extensions>
      </trkpt>
      <trkpt lat="42.581024654209613800048828125" lon="20.01735462807118892669677734375">
        <ele>2005.5999755859375</ele>
        <time>2026-06-15T14:02:42.000Z</time>
        <extensions>
          <ns3:TrackPointExtension>
            <ns3:atemp>20.0</ns3:atemp>
          </ns3:TrackPointExtension>
        </extensions>
      </trkpt>
      <trkpt lat="42.581024654209613800048828125" lon="20.01735462807118892669677734375">
        <ele>2005.5999755859375</ele>
        <time>2026-06-15T14:02:43.000Z</time>
        <extensions>
          <ns3:TrackPointExtension>
            <ns3:atemp>20.0</ns3:atemp>
          </ns3:TrackPointExtension>
        </extensions>
      </trkpt>
      <trkpt lat="42.581024654209613800048828125" lon="20.01735462807118892669677734375">
        <ele>2005.5999755859375</ele>
        <time>2026-06-15T14:02:44.000Z</time>
        <extensions>
          <ns3:TrackPointExtension>
            <ns3:atemp>20.0</ns3:atemp>
          </ns3:TrackPointExtension>
        </extensions>
      </trkpt>
      <trkpt lat="42.581024654209613800048828125" lon="20.01735462807118892669677734375">
        <ele>2005.5999755859375</ele>
        <time>2026-06-15T14:02:45.000Z</time>
        <extensions>
          <ns3:TrackPointExtension>
            <ns3:atemp>20.0</ns3:atemp>
          </ns3:TrackPointExtension>
        </extensions>
      </trkpt>
      <trkpt lat="42.581024654209613800048828125" lon="20.01735462807118892669677734375">
        <ele>2005.5999755859375</ele>
        <time>2026-06-15T14:02:46.000Z</time>
        <extensions>
          <ns3:TrackPointExtension>
            <ns3:atemp>20.0</ns3:atemp>
          </ns3:TrackPointExtension>
        </extensions>
      </trkpt>
      <trkpt lat="42.581024654209613800048828125" lon="20.01735462807118892669677734375">
        <ele>2005.5999755859375</ele>
        <time>2026-06-15T14:02:47.000Z</time>
        <extensions>
          <ns3:TrackPointExtension>
            <ns3:atemp>20.0</ns3:atemp>
          </ns3:TrackPointExtension>
        </extensions>
      </trkpt>
      <trkpt lat="42.581024654209613800048828125" lon="20.01735462807118892669677734375">
        <ele>2005.5999755859375</ele>
        <time>2026-06-15T14:02:48.000Z</time>
        <extensions>
          <ns3:TrackPointExtension>
            <ns3:atemp>20.0</ns3:atemp>
          </ns3:TrackPointExtension>
        </extensions>
      </trkpt>
      <trkpt lat="42.581024654209613800048828125" lon="20.01735462807118892669677734375">
        <ele>2005.800048828125</ele>
        <time>2026-06-15T14:02:49.000Z</time>
        <extensions>
          <ns3:TrackPointExtension>
            <ns3:atemp>20.0</ns3:atemp>
          </ns3:TrackPointExtension>
        </extensions>
      </trkpt>
      <trkpt lat="42.581024654209613800048828125" lon="20.01735462807118892669677734375">
        <ele>2005.800048828125</ele>
        <time>2026-06-15T14:02:50.000Z</time>
        <extensions>
          <ns3:TrackPointExtension>
            <ns3:atemp>20.0</ns3:atemp>
          </ns3:TrackPointExtension>
        </extensions>
      </trkpt>
      <trkpt lat="42.581024654209613800048828125" lon="20.01735462807118892669677734375">
        <ele>2005.800048828125</ele>
        <time>2026-06-15T14:02:51.000Z</time>
        <extensions>
          <ns3:TrackPointExtension>
            <ns3:atemp>20.0</ns3:atemp>
          </ns3:TrackPointExtension>
        </extensions>
      </trkpt>
      <trkpt lat="42.581024654209613800048828125" lon="20.01735462807118892669677734375">
        <ele>2006</ele>
        <time>2026-06-15T14:02:52.000Z</time>
        <extensions>
          <ns3:TrackPointExtension>
            <ns3:atemp>20.0</ns3:atemp>
          </ns3:TrackPointExtension>
        </extensions>
      </trkpt>
      <trkpt lat="42.581024654209613800048828125" lon="20.01735462807118892669677734375">
        <ele>2006</ele>
        <time>2026-06-15T14:02:53.000Z</time>
        <extensions>
          <ns3:TrackPointExtension>
            <ns3:atemp>20.0</ns3:atemp>
          </ns3:TrackPointExtension>
        </extensions>
      </trkpt>
      <trkpt lat="42.581024654209613800048828125" lon="20.01735462807118892669677734375">
        <ele>2006</ele>
        <time>2026-06-15T14:02:54.000Z</time>
        <extensions>
          <ns3:TrackPointExtension>
            <ns3:atemp>20.0</ns3:atemp>
          </ns3:TrackPointExtension>
        </extensions>
      </trkpt>
      <trkpt lat="42.581024654209613800048828125" lon="20.01735462807118892669677734375">
        <ele>2005.800048828125</ele>
        <time>2026-06-15T14:02:55.000Z</time>
        <extensions>
          <ns3:TrackPointExtension>
            <ns3:atemp>20.0</ns3:atemp>
          </ns3:TrackPointExtension>
        </extensions>
      </trkpt>
      <trkpt lat="42.581024654209613800048828125" lon="20.01735462807118892669677734375">
        <ele>2005.800048828125</ele>
        <time>2026-06-15T14:02:56.000Z</time>
        <extensions>
          <ns3:TrackPointExtension>
            <ns3:atemp>20.0</ns3:atemp>
          </ns3:TrackPointExtension>
        </extensions>
      </trkpt>
      <trkpt lat="42.581024654209613800048828125" lon="20.01735462807118892669677734375">
        <ele>2005.5999755859375</ele>
        <time>2026-06-15T14:02:57.000Z</time>
        <extensions>
          <ns3:TrackPointExtension>
            <ns3:atemp>20.0</ns3:atemp>
          </ns3:TrackPointExtension>
        </extensions>
      </trkpt>
      <trkpt lat="42.581024654209613800048828125" lon="20.01735462807118892669677734375">
        <ele>2005.4000244140625</ele>
        <time>2026-06-15T14:02:58.000Z</time>
        <extensions>
          <ns3:TrackPointExtension>
            <ns3:atemp>20.0</ns3:atemp>
          </ns3:TrackPointExtension>
        </extensions>
      </trkpt>
      <trkpt lat="42.581024654209613800048828125" lon="20.01735462807118892669677734375">
        <ele>2005.199951171875</ele>
        <time>2026-06-15T14:02:59.000Z</time>
        <extensions>
          <ns3:TrackPointExtension>
            <ns3:atemp>20.0</ns3:atemp>
          </ns3:TrackPointExtension>
        </extensions>
      </trkpt>
      <trkpt lat="42.581024654209613800048828125" lon="20.01735462807118892669677734375">
        <ele>2005.4000244140625</ele>
        <time>2026-06-15T14:03:00.000Z</time>
        <extensions>
          <ns3:TrackPointExtension>
            <ns3:atemp>20.0</ns3:atemp>
          </ns3:TrackPointExtension>
        </extensions>
      </trkpt>
      <trkpt lat="42.581024654209613800048828125" lon="20.01735462807118892669677734375">
        <ele>2005.4000244140625</ele>
        <time>2026-06-15T14:03:01.000Z</time>
        <extensions>
          <ns3:TrackPointExtension>
            <ns3:atemp>20.0</ns3:atemp>
          </ns3:TrackPointExtension>
        </extensions>
      </trkpt>
      <trkpt lat="42.581024654209613800048828125" lon="20.01735462807118892669677734375">
        <ele>2005.4000244140625</ele>
        <time>2026-06-15T14:03:02.000Z</time>
        <extensions>
          <ns3:TrackPointExtension>
            <ns3:atemp>20.0</ns3:atemp>
          </ns3:TrackPointExtension>
        </extensions>
      </trkpt>
      <trkpt lat="42.581024654209613800048828125" lon="20.01735462807118892669677734375">
        <ele>2005.5999755859375</ele>
        <time>2026-06-15T14:03:03.000Z</time>
        <extensions>
          <ns3:TrackPointExtension>
            <ns3:atemp>20.0</ns3:atemp>
          </ns3:TrackPointExtension>
        </extensions>
      </trkpt>
      <trkpt lat="42.581024654209613800048828125" lon="20.01735462807118892669677734375">
        <ele>2005.5999755859375</ele>
        <time>2026-06-15T14:03:04.000Z</time>
        <extensions>
          <ns3:TrackPointExtension>
            <ns3:atemp>20.0</ns3:atemp>
          </ns3:TrackPointExtension>
        </extensions>
      </trkpt>
      <trkpt lat="42.581024654209613800048828125" lon="20.01735462807118892669677734375">
        <ele>2005.4000244140625</ele>
        <time>2026-06-15T14:03:05.000Z</time>
        <extensions>
          <ns3:TrackPointExtension>
            <ns3:atemp>20.0</ns3:atemp>
          </ns3:TrackPointExtension>
        </extensions>
      </trkpt>
      <trkpt lat="42.581024654209613800048828125" lon="20.01735462807118892669677734375">
        <ele>2005.199951171875</ele>
        <time>2026-06-15T14:03:06.000Z</time>
        <extensions>
          <ns3:TrackPointExtension>
            <ns3:atemp>20.0</ns3:atemp>
          </ns3:TrackPointExtension>
        </extensions>
      </trkpt>
      <trkpt lat="42.581024654209613800048828125" lon="20.01735462807118892669677734375">
        <ele>2005.199951171875</ele>
        <time>2026-06-15T14:03:07.000Z</time>
        <extensions>
          <ns3:TrackPointExtension>
            <ns3:atemp>20.0</ns3:atemp>
          </ns3:TrackPointExtension>
        </extensions>
      </trkpt>
      <trkpt lat="42.581024654209613800048828125" lon="20.01735462807118892669677734375">
        <ele>2005.199951171875</ele>
        <time>2026-06-15T14:03:08.000Z</time>
        <extensions>
          <ns3:TrackPointExtension>
            <ns3:atemp>20.0</ns3:atemp>
          </ns3:TrackPointExtension>
        </extensions>
      </trkpt>
      <trkpt lat="42.581024654209613800048828125" lon="20.01735462807118892669677734375">
        <ele>2005</ele>
        <time>2026-06-15T14:03:09.000Z</time>
        <extensions>
          <ns3:TrackPointExtension>
            <ns3:atemp>20.0</ns3:atemp>
          </ns3:TrackPointExtension>
        </extensions>
      </trkpt>
      <trkpt lat="42.581024654209613800048828125" lon="20.01735462807118892669677734375">
        <ele>2005</ele>
        <time>2026-06-15T14:03:10.000Z</time>
        <extensions>
          <ns3:TrackPointExtension>
            <ns3:atemp>20.0</ns3:atemp>
          </ns3:TrackPointExtension>
        </extensions>
      </trkpt>
      <trkpt lat="42.581024654209613800048828125" lon="20.01735462807118892669677734375">
        <ele>2005</ele>
        <time>2026-06-15T14:03:11.000Z</time>
        <extensions>
          <ns3:TrackPointExtension>
            <ns3:atemp>20.0</ns3:atemp>
          </ns3:TrackPointExtension>
        </extensions>
      </trkpt>
      <trkpt lat="42.581024654209613800048828125" lon="20.01735462807118892669677734375">
        <ele>2005</ele>
        <time>2026-06-15T14:03:12.000Z</time>
        <extensions>
          <ns3:TrackPointExtension>
            <ns3:atemp>20.0</ns3:atemp>
          </ns3:TrackPointExtension>
        </extensions>
      </trkpt>
      <trkpt lat="42.581024654209613800048828125" lon="20.01735462807118892669677734375">
        <ele>2005</ele>
        <time>2026-06-15T14:03:13.000Z</time>
        <extensions>
          <ns3:TrackPointExtension>
            <ns3:atemp>20.0</ns3:atemp>
          </ns3:TrackPointExtension>
        </extensions>
      </trkpt>
      <trkpt lat="42.581024654209613800048828125" lon="20.01735462807118892669677734375">
        <ele>2004.800048828125</ele>
        <time>2026-06-15T14:03:14.000Z</time>
        <extensions>
          <ns3:TrackPointExtension>
            <ns3:atemp>20.0</ns3:atemp>
          </ns3:TrackPointExtension>
        </extensions>
      </trkpt>
      <trkpt lat="42.581024654209613800048828125" lon="20.01735462807118892669677734375">
        <ele>2004.800048828125</ele>
        <time>2026-06-15T14:03:15.000Z</time>
        <extensions>
          <ns3:TrackPointExtension>
            <ns3:atemp>20.0</ns3:atemp>
          </ns3:TrackPointExtension>
        </extensions>
      </trkpt>
      <trkpt lat="42.581024654209613800048828125" lon="20.01735462807118892669677734375">
        <ele>2004.800048828125</ele>
        <time>2026-06-15T14:03:16.000Z</time>
        <extensions>
          <ns3:TrackPointExtension>
            <ns3:atemp>20.0</ns3:atemp>
          </ns3:TrackPointExtension>
        </extensions>
      </trkpt>
      <trkpt lat="42.581024654209613800048828125" lon="20.01735462807118892669677734375">
        <ele>2005</ele>
        <time>2026-06-15T14:03:17.000Z</time>
        <extensions>
          <ns3:TrackPointExtension>
            <ns3:atemp>20.0</ns3:atemp>
          </ns3:TrackPointExtension>
        </extensions>
      </trkpt>
      <trkpt lat="42.581024654209613800048828125" lon="20.01735462807118892669677734375">
        <ele>2005</ele>
        <time>2026-06-15T14:03:18.000Z</time>
        <extensions>
          <ns3:TrackPointExtension>
            <ns3:atemp>20.0</ns3:atemp>
          </ns3:TrackPointExtension>
        </extensions>
      </trkpt>
      <trkpt lat="42.581024654209613800048828125" lon="20.01735462807118892669677734375">
        <ele>2005</ele>
        <time>2026-06-15T14:03:19.000Z</time>
        <extensions>
          <ns3:TrackPointExtension>
            <ns3:atemp>20.0</ns3:atemp>
          </ns3:TrackPointExtension>
        </extensions>
      </trkpt>
      <trkpt lat="42.581024654209613800048828125" lon="20.01735462807118892669677734375">
        <ele>2005</ele>
        <time>2026-06-15T14:03:20.000Z</time>
        <extensions>
          <ns3:TrackPointExtension>
            <ns3:atemp>20.0</ns3:atemp>
          </ns3:TrackPointExtension>
        </extensions>
      </trkpt>
      <trkpt lat="42.581024654209613800048828125" lon="20.01735462807118892669677734375">
        <ele>2005</ele>
        <time>2026-06-15T14:03:21.000Z</time>
        <extensions>
          <ns3:TrackPointExtension>
            <ns3:atemp>20.0</ns3:atemp>
          </ns3:TrackPointExtension>
        </extensions>
      </trkpt>
      <trkpt lat="42.581024654209613800048828125" lon="20.01735462807118892669677734375">
        <ele>2005</ele>
        <time>2026-06-15T14:03:22.000Z</time>
        <extensions>
          <ns3:TrackPointExtension>
            <ns3:atemp>20.0</ns3:atemp>
          </ns3:TrackPointExtension>
        </extensions>
      </trkpt>
      <trkpt lat="42.581024654209613800048828125" lon="20.01735462807118892669677734375">
        <ele>2005</ele>
        <time>2026-06-15T14:03:23.000Z</time>
        <extensions>
          <ns3:TrackPointExtension>
            <ns3:atemp>20.0</ns3:atemp>
          </ns3:TrackPointExtension>
        </extensions>
      </trkpt>
      <trkpt lat="42.581024654209613800048828125" lon="20.01735462807118892669677734375">
        <ele>2005</ele>
        <time>2026-06-15T14:03:24.000Z</time>
        <extensions>
          <ns3:TrackPointExtension>
            <ns3:atemp>20.0</ns3:atemp>
          </ns3:TrackPointExtension>
        </extensions>
      </trkpt>
      <trkpt lat="42.581024654209613800048828125" lon="20.01735462807118892669677734375">
        <ele>2005</ele>
        <time>2026-06-15T14:03:25.000Z</time>
        <extensions>
          <ns3:TrackPointExtension>
            <ns3:atemp>20.0</ns3:atemp>
          </ns3:TrackPointExtension>
        </extensions>
      </trkpt>
      <trkpt lat="42.581024654209613800048828125" lon="20.01735462807118892669677734375">
        <ele>2005</ele>
        <time>2026-06-15T14:03:26.000Z</time>
        <extensions>
          <ns3:TrackPointExtension>
            <ns3:atemp>20.0</ns3:atemp>
          </ns3:TrackPointExtension>
        </extensions>
      </trkpt>
      <trkpt lat="42.581024654209613800048828125" lon="20.01735462807118892669677734375">
        <ele>2005</ele>
        <time>2026-06-15T14:03:27.000Z</time>
        <extensions>
          <ns3:TrackPointExtension>
            <ns3:atemp>20.0</ns3:atemp>
          </ns3:TrackPointExtension>
        </extensions>
      </trkpt>
      <trkpt lat="42.581024654209613800048828125" lon="20.01735462807118892669677734375">
        <ele>2005</ele>
        <time>2026-06-15T14:03:28.000Z</time>
        <extensions>
          <ns3:TrackPointExtension>
            <ns3:atemp>20.0</ns3:atemp>
          </ns3:TrackPointExtension>
        </extensions>
      </trkpt>
      <trkpt lat="42.581024654209613800048828125" lon="20.01735462807118892669677734375">
        <ele>2005</ele>
        <time>2026-06-15T14:03:29.000Z</time>
        <extensions>
          <ns3:TrackPointExtension>
            <ns3:atemp>20.0</ns3:atemp>
          </ns3:TrackPointExtension>
        </extensions>
      </trkpt>
      <trkpt lat="42.581024654209613800048828125" lon="20.01735462807118892669677734375">
        <ele>2005</ele>
        <time>2026-06-15T14:03:30.000Z</time>
        <extensions>
          <ns3:TrackPointExtension>
            <ns3:atemp>20.0</ns3:atemp>
          </ns3:TrackPointExtension>
        </extensions>
      </trkpt>
      <trkpt lat="42.581024654209613800048828125" lon="20.01735462807118892669677734375">
        <ele>2005</ele>
        <time>2026-06-15T14:03:31.000Z</time>
        <extensions>
          <ns3:TrackPointExtension>
            <ns3:atemp>20.0</ns3:atemp>
          </ns3:TrackPointExtension>
        </extensions>
      </trkpt>
      <trkpt lat="42.581024654209613800048828125" lon="20.01735462807118892669677734375">
        <ele>2005</ele>
        <time>2026-06-15T14:03:32.000Z</time>
        <extensions>
          <ns3:TrackPointExtension>
            <ns3:atemp>20.0</ns3:atemp>
          </ns3:TrackPointExtension>
        </extensions>
      </trkpt>
      <trkpt lat="42.581024654209613800048828125" lon="20.01735462807118892669677734375">
        <ele>2005</ele>
        <time>2026-06-15T14:03:33.000Z</time>
        <extensions>
          <ns3:TrackPointExtension>
            <ns3:atemp>20.0</ns3:atemp>
          </ns3:TrackPointExtension>
        </extensions>
      </trkpt>
      <trkpt lat="42.581024654209613800048828125" lon="20.01735462807118892669677734375">
        <ele>2005</ele>
        <time>2026-06-15T14:03:34.000Z</time>
        <extensions>
          <ns3:TrackPointExtension>
            <ns3:atemp>20.0</ns3:atemp>
          </ns3:TrackPointExtension>
        </extensions>
      </trkpt>
      <trkpt lat="42.581024654209613800048828125" lon="20.01735462807118892669677734375">
        <ele>2005</ele>
        <time>2026-06-15T14:03:35.000Z</time>
        <extensions>
          <ns3:TrackPointExtension>
            <ns3:atemp>20.0</ns3:atemp>
          </ns3:TrackPointExtension>
        </extensions>
      </trkpt>
      <trkpt lat="42.581024654209613800048828125" lon="20.01735462807118892669677734375">
        <ele>2005</ele>
        <time>2026-06-15T14:03:36.000Z</time>
        <extensions>
          <ns3:TrackPointExtension>
            <ns3:atemp>20.0</ns3:atemp>
          </ns3:TrackPointExtension>
        </extensions>
      </trkpt>
      <trkpt lat="42.581024654209613800048828125" lon="20.01735462807118892669677734375">
        <ele>2005</ele>
        <time>2026-06-15T14:03:37.000Z</time>
        <extensions>
          <ns3:TrackPointExtension>
            <ns3:atemp>20.0</ns3:atemp>
          </ns3:TrackPointExtension>
        </extensions>
      </trkpt>
      <trkpt lat="42.581024654209613800048828125" lon="20.01735462807118892669677734375">
        <ele>2005</ele>
        <time>2026-06-15T14:03:38.000Z</time>
        <extensions>
          <ns3:TrackPointExtension>
            <ns3:atemp>20.0</ns3:atemp>
          </ns3:TrackPointExtension>
        </extensions>
      </trkpt>
      <trkpt lat="42.581024654209613800048828125" lon="20.01735462807118892669677734375">
        <ele>2005</ele>
        <time>2026-06-15T14:03:39.000Z</time>
        <extensions>
          <ns3:TrackPointExtension>
            <ns3:atemp>20.0</ns3:atemp>
          </ns3:TrackPointExtension>
        </extensions>
      </trkpt>
      <trkpt lat="42.581024654209613800048828125" lon="20.01735462807118892669677734375">
        <ele>2005</ele>
        <time>2026-06-15T14:03:40.000Z</time>
        <extensions>
          <ns3:TrackPointExtension>
            <ns3:atemp>20.0</ns3:atemp>
          </ns3:TrackPointExtension>
        </extensions>
      </trkpt>
      <trkpt lat="42.581024654209613800048828125" lon="20.01735462807118892669677734375">
        <ele>2005</ele>
        <time>2026-06-15T14:03:41.000Z</time>
        <extensions>
          <ns3:TrackPointExtension>
            <ns3:atemp>20.0</ns3:atemp>
          </ns3:TrackPointExtension>
        </extensions>
      </trkpt>
      <trkpt lat="42.581024654209613800048828125" lon="20.01735462807118892669677734375">
        <ele>2005</ele>
        <time>2026-06-15T14:03:42.000Z</time>
        <extensions>
          <ns3:TrackPointExtension>
            <ns3:atemp>20.0</ns3:atemp>
          </ns3:TrackPointExtension>
        </extensions>
      </trkpt>
      <trkpt lat="42.581024654209613800048828125" lon="20.01735462807118892669677734375">
        <ele>2005</ele>
        <time>2026-06-15T14:03:43.000Z</time>
        <extensions>
          <ns3:TrackPointExtension>
            <ns3:atemp>19.0</ns3:atemp>
          </ns3:TrackPointExtension>
        </extensions>
      </trkpt>
      <trkpt lat="42.581024654209613800048828125" lon="20.01735462807118892669677734375">
        <ele>2005</ele>
        <time>2026-06-15T14:03:44.000Z</time>
        <extensions>
          <ns3:TrackPointExtension>
            <ns3:atemp>19.0</ns3:atemp>
          </ns3:TrackPointExtension>
        </extensions>
      </trkpt>
      <trkpt lat="42.581024654209613800048828125" lon="20.01735462807118892669677734375">
        <ele>2005</ele>
        <time>2026-06-15T14:03:45.000Z</time>
        <extensions>
          <ns3:TrackPointExtension>
            <ns3:atemp>19.0</ns3:atemp>
          </ns3:TrackPointExtension>
        </extensions>
      </trkpt>
      <trkpt lat="42.581024654209613800048828125" lon="20.01735462807118892669677734375">
        <ele>2005</ele>
        <time>2026-06-15T14:03:46.000Z</time>
        <extensions>
          <ns3:TrackPointExtension>
            <ns3:atemp>20.0</ns3:atemp>
          </ns3:TrackPointExtension>
        </extensions>
      </trkpt>
      <trkpt lat="42.581024654209613800048828125" lon="20.01735462807118892669677734375">
        <ele>2005</ele>
        <time>2026-06-15T14:03:47.000Z</time>
        <extensions>
          <ns3:TrackPointExtension>
            <ns3:atemp>20.0</ns3:atemp>
          </ns3:TrackPointExtension>
        </extensions>
      </trkpt>
      <trkpt lat="42.581024654209613800048828125" lon="20.01735462807118892669677734375">
        <ele>2005</ele>
        <time>2026-06-15T14:03:48.000Z</time>
        <extensions>
          <ns3:TrackPointExtension>
            <ns3:atemp>20.0</ns3:atemp>
          </ns3:TrackPointExtension>
        </extensions>
      </trkpt>
      <trkpt lat="42.581024654209613800048828125" lon="20.01735462807118892669677734375">
        <ele>2005</ele>
        <time>2026-06-15T14:03:49.000Z</time>
        <extensions>
          <ns3:TrackPointExtension>
            <ns3:atemp>20.0</ns3:atemp>
          </ns3:TrackPointExtension>
        </extensions>
      </trkpt>
      <trkpt lat="42.581024654209613800048828125" lon="20.01735462807118892669677734375">
        <ele>2005</ele>
        <time>2026-06-15T14:03:50.000Z</time>
        <extensions>
          <ns3:TrackPointExtension>
            <ns3:atemp>20.0</ns3:atemp>
          </ns3:TrackPointExtension>
        </extensions>
      </trkpt>
      <trkpt lat="42.581024654209613800048828125" lon="20.01735462807118892669677734375">
        <ele>2005</ele>
        <time>2026-06-15T14:03:51.000Z</time>
        <extensions>
          <ns3:TrackPointExtension>
            <ns3:atemp>20.0</ns3:atemp>
          </ns3:TrackPointExtension>
        </extensions>
      </trkpt>
      <trkpt lat="42.581024654209613800048828125" lon="20.01735462807118892669677734375">
        <ele>2005</ele>
        <time>2026-06-15T14:03:52.000Z</time>
        <extensions>
          <ns3:TrackPointExtension>
            <ns3:atemp>20.0</ns3:atemp>
          </ns3:TrackPointExtension>
        </extensions>
      </trkpt>
      <trkpt lat="42.581024654209613800048828125" lon="20.01735462807118892669677734375">
        <ele>2005</ele>
        <time>2026-06-15T14:03:53.000Z</time>
        <extensions>
          <ns3:TrackPointExtension>
            <ns3:atemp>20.0</ns3:atemp>
          </ns3:TrackPointExtension>
        </extensions>
      </trkpt>
      <trkpt lat="42.581024654209613800048828125" lon="20.01735462807118892669677734375">
        <ele>2005</ele>
        <time>2026-06-15T14:03:54.000Z</time>
        <extensions>
          <ns3:TrackPointExtension>
            <ns3:atemp>19.0</ns3:atemp>
          </ns3:TrackPointExtension>
        </extensions>
      </trkpt>
      <trkpt lat="42.581024654209613800048828125" lon="20.01735462807118892669677734375">
        <ele>2005</ele>
        <time>2026-06-15T14:03:55.000Z</time>
        <extensions>
          <ns3:TrackPointExtension>
            <ns3:atemp>19.0</ns3:atemp>
          </ns3:TrackPointExtension>
        </extensions>
      </trkpt>
      <trkpt lat="42.581024654209613800048828125" lon="20.01735462807118892669677734375">
        <ele>2005</ele>
        <time>2026-06-15T14:03:56.000Z</time>
        <extensions>
          <ns3:TrackPointExtension>
            <ns3:atemp>19.0</ns3:atemp>
          </ns3:TrackPointExtension>
        </extensions>
      </trkpt>
      <trkpt lat="42.581024654209613800048828125" lon="20.01735462807118892669677734375">
        <ele>2005</ele>
        <time>2026-06-15T14:03:57.000Z</time>
        <extensions>
          <ns3:TrackPointExtension>
            <ns3:atemp>20.0</ns3:atemp>
          </ns3:TrackPointExtension>
        </extensions>
      </trkpt>
      <trkpt lat="42.581024654209613800048828125" lon="20.01735462807118892669677734375">
        <ele>2005</ele>
        <time>2026-06-15T14:03:58.000Z</time>
        <extensions>
          <ns3:TrackPointExtension>
            <ns3:atemp>19.0</ns3:atemp>
          </ns3:TrackPointExtension>
        </extensions>
      </trkpt>
      <trkpt lat="42.581024654209613800048828125" lon="20.01735462807118892669677734375">
        <ele>2005</ele>
        <time>2026-06-15T14:03:59.000Z</time>
        <extensions>
          <ns3:TrackPointExtension>
            <ns3:atemp>19.0</ns3:atemp>
          </ns3:TrackPointExtension>
        </extensions>
      </trkpt>
      <trkpt lat="42.581024654209613800048828125" lon="20.01735462807118892669677734375">
        <ele>2005</ele>
        <time>2026-06-15T14:04:00.000Z</time>
        <extensions>
          <ns3:TrackPointExtension>
            <ns3:atemp>19.0</ns3:atemp>
          </ns3:TrackPointExtension>
        </extensions>
      </trkpt>
      <trkpt lat="42.581024654209613800048828125" lon="20.01735462807118892669677734375">
        <ele>2005</ele>
        <time>2026-06-15T14:04:01.000Z</time>
        <extensions>
          <ns3:TrackPointExtension>
            <ns3:atemp>19.0</ns3:atemp>
          </ns3:TrackPointExtension>
        </extensions>
      </trkpt>
      <trkpt lat="42.581024654209613800048828125" lon="20.01735462807118892669677734375">
        <ele>2005</ele>
        <time>2026-06-15T14:04:02.000Z</time>
        <extensions>
          <ns3:TrackPointExtension>
            <ns3:atemp>19.0</ns3:atemp>
          </ns3:TrackPointExtension>
        </extensions>
      </trkpt>
      <trkpt lat="42.581024654209613800048828125" lon="20.01735462807118892669677734375">
        <ele>2005</ele>
        <time>2026-06-15T14:04:03.000Z</time>
        <extensions>
          <ns3:TrackPointExtension>
            <ns3:atemp>19.0</ns3:atemp>
          </ns3:TrackPointExtension>
        </extensions>
      </trkpt>
      <trkpt lat="42.581024654209613800048828125" lon="20.01735462807118892669677734375">
        <ele>2005</ele>
        <time>2026-06-15T14:04:04.000Z</time>
        <extensions>
          <ns3:TrackPointExtension>
            <ns3:atemp>19.0</ns3:atemp>
          </ns3:TrackPointExtension>
        </extensions>
      </trkpt>
      <trkpt lat="42.581024654209613800048828125" lon="20.01735462807118892669677734375">
        <ele>2005</ele>
        <time>2026-06-15T14:04:05.000Z</time>
        <extensions>
          <ns3:TrackPointExtension>
            <ns3:atemp>19.0</ns3:atemp>
          </ns3:TrackPointExtension>
        </extensions>
      </trkpt>
      <trkpt lat="42.581024654209613800048828125" lon="20.01735462807118892669677734375">
        <ele>2005</ele>
        <time>2026-06-15T14:04:06.000Z</time>
        <extensions>
          <ns3:TrackPointExtension>
            <ns3:atemp>19.0</ns3:atemp>
          </ns3:TrackPointExtension>
        </extensions>
      </trkpt>
      <trkpt lat="42.581024654209613800048828125" lon="20.01735462807118892669677734375">
        <ele>2005</ele>
        <time>2026-06-15T14:04:07.000Z</time>
        <extensions>
          <ns3:TrackPointExtension>
            <ns3:atemp>19.0</ns3:atemp>
          </ns3:TrackPointExtension>
        </extensions>
      </trkpt>
      <trkpt lat="42.581024654209613800048828125" lon="20.01735462807118892669677734375">
        <ele>2005</ele>
        <time>2026-06-15T14:04:08.000Z</time>
        <extensions>
          <ns3:TrackPointExtension>
            <ns3:atemp>19.0</ns3:atemp>
          </ns3:TrackPointExtension>
        </extensions>
      </trkpt>
      <trkpt lat="42.581024654209613800048828125" lon="20.01735462807118892669677734375">
        <ele>2005</ele>
        <time>2026-06-15T14:04:09.000Z</time>
        <extensions>
          <ns3:TrackPointExtension>
            <ns3:atemp>19.0</ns3:atemp>
          </ns3:TrackPointExtension>
        </extensions>
      </trkpt>
      <trkpt lat="42.581024654209613800048828125" lon="20.01735462807118892669677734375">
        <ele>2005</ele>
        <time>2026-06-15T14:04:10.000Z</time>
        <extensions>
          <ns3:TrackPointExtension>
            <ns3:atemp>19.0</ns3:atemp>
          </ns3:TrackPointExtension>
        </extensions>
      </trkpt>
      <trkpt lat="42.581024654209613800048828125" lon="20.01735462807118892669677734375">
        <ele>2005</ele>
        <time>2026-06-15T14:04:11.000Z</time>
        <extensions>
          <ns3:TrackPointExtension>
            <ns3:atemp>19.0</ns3:atemp>
          </ns3:TrackPointExtension>
        </extensions>
      </trkpt>
      <trkpt lat="42.581024654209613800048828125" lon="20.01735462807118892669677734375">
        <ele>2005</ele>
        <time>2026-06-15T14:04:12.000Z</time>
        <extensions>
          <ns3:TrackPointExtension>
            <ns3:atemp>19.0</ns3:atemp>
          </ns3:TrackPointExtension>
        </extensions>
      </trkpt>
      <trkpt lat="42.581024654209613800048828125" lon="20.01735462807118892669677734375">
        <ele>2005</ele>
        <time>2026-06-15T14:04:13.000Z</time>
        <extensions>
          <ns3:TrackPointExtension>
            <ns3:atemp>19.0</ns3:atemp>
          </ns3:TrackPointExtension>
        </extensions>
      </trkpt>
      <trkpt lat="42.581024654209613800048828125" lon="20.01735462807118892669677734375">
        <ele>2005</ele>
        <time>2026-06-15T14:04:14.000Z</time>
        <extensions>
          <ns3:TrackPointExtension>
            <ns3:atemp>19.0</ns3:atemp>
          </ns3:TrackPointExtension>
        </extensions>
      </trkpt>
      <trkpt lat="42.581024654209613800048828125" lon="20.01735462807118892669677734375">
        <ele>2005</ele>
        <time>2026-06-15T14:04:15.000Z</time>
        <extensions>
          <ns3:TrackPointExtension>
            <ns3:atemp>19.0</ns3:atemp>
          </ns3:TrackPointExtension>
        </extensions>
      </trkpt>
      <trkpt lat="42.581024654209613800048828125" lon="20.01735462807118892669677734375">
        <ele>2005</ele>
        <time>2026-06-15T14:04:16.000Z</time>
        <extensions>
          <ns3:TrackPointExtension>
            <ns3:atemp>19.0</ns3:atemp>
          </ns3:TrackPointExtension>
        </extensions>
      </trkpt>
      <trkpt lat="42.581024654209613800048828125" lon="20.01735462807118892669677734375">
        <ele>2005</ele>
        <time>2026-06-15T14:04:17.000Z</time>
        <extensions>
          <ns3:TrackPointExtension>
            <ns3:atemp>19.0</ns3:atemp>
          </ns3:TrackPointExtension>
        </extensions>
      </trkpt>
      <trkpt lat="42.581024654209613800048828125" lon="20.01735462807118892669677734375">
        <ele>2005</ele>
        <time>2026-06-15T14:04:18.000Z</time>
        <extensions>
          <ns3:TrackPointExtension>
            <ns3:atemp>19.0</ns3:atemp>
          </ns3:TrackPointExtension>
        </extensions>
      </trkpt>
      <trkpt lat="42.581024654209613800048828125" lon="20.01735462807118892669677734375">
        <ele>2005</ele>
        <time>2026-06-15T14:04:19.000Z</time>
        <extensions>
          <ns3:TrackPointExtension>
            <ns3:atemp>19.0</ns3:atemp>
          </ns3:TrackPointExtension>
        </extensions>
      </trkpt>
      <trkpt lat="42.581024654209613800048828125" lon="20.01735462807118892669677734375">
        <ele>2005</ele>
        <time>2026-06-15T14:04:20.000Z</time>
        <extensions>
          <ns3:TrackPointExtension>
            <ns3:atemp>19.0</ns3:atemp>
          </ns3:TrackPointExtension>
        </extensions>
      </trkpt>
      <trkpt lat="42.581024654209613800048828125" lon="20.01735462807118892669677734375">
        <ele>2005</ele>
        <time>2026-06-15T14:04:21.000Z</time>
        <extensions>
          <ns3:TrackPointExtension>
            <ns3:atemp>19.0</ns3:atemp>
          </ns3:TrackPointExtension>
        </extensions>
      </trkpt>
      <trkpt lat="42.581024654209613800048828125" lon="20.01735462807118892669677734375">
        <ele>2005</ele>
        <time>2026-06-15T14:04:22.000Z</time>
        <extensions>
          <ns3:TrackPointExtension>
            <ns3:atemp>19.0</ns3:atemp>
          </ns3:TrackPointExtension>
        </extensions>
      </trkpt>
      <trkpt lat="42.581024654209613800048828125" lon="20.01735462807118892669677734375">
        <ele>2005</ele>
        <time>2026-06-15T14:04:23.000Z</time>
        <extensions>
          <ns3:TrackPointExtension>
            <ns3:atemp>19.0</ns3:atemp>
          </ns3:TrackPointExtension>
        </extensions>
      </trkpt>
      <trkpt lat="42.581024654209613800048828125" lon="20.01735462807118892669677734375">
        <ele>2005</ele>
        <time>2026-06-15T14:04:24.000Z</time>
        <extensions>
          <ns3:TrackPointExtension>
            <ns3:atemp>19.0</ns3:atemp>
          </ns3:TrackPointExtension>
        </extensions>
      </trkpt>
      <trkpt lat="42.581024654209613800048828125" lon="20.01735462807118892669677734375">
        <ele>2005</ele>
        <time>2026-06-15T14:04:25.000Z</time>
        <extensions>
          <ns3:TrackPointExtension>
            <ns3:atemp>19.0</ns3:atemp>
          </ns3:TrackPointExtension>
        </extensions>
      </trkpt>
      <trkpt lat="42.581024654209613800048828125" lon="20.01735462807118892669677734375">
        <ele>2005</ele>
        <time>2026-06-15T14:04:26.000Z</time>
        <extensions>
          <ns3:TrackPointExtension>
            <ns3:atemp>19.0</ns3:atemp>
          </ns3:TrackPointExtension>
        </extensions>
      </trkpt>
      <trkpt lat="42.581024654209613800048828125" lon="20.01735462807118892669677734375">
        <ele>2005</ele>
        <time>2026-06-15T14:04:27.000Z</time>
        <extensions>
          <ns3:TrackPointExtension>
            <ns3:atemp>19.0</ns3:atemp>
          </ns3:TrackPointExtension>
        </extensions>
      </trkpt>
      <trkpt lat="42.581024654209613800048828125" lon="20.01735462807118892669677734375">
        <ele>2005</ele>
        <time>2026-06-15T14:04:28.000Z</time>
        <extensions>
          <ns3:TrackPointExtension>
            <ns3:atemp>19.0</ns3:atemp>
          </ns3:TrackPointExtension>
        </extensions>
      </trkpt>
      <trkpt lat="42.581024654209613800048828125" lon="20.01735462807118892669677734375">
        <ele>2005</ele>
        <time>2026-06-15T14:04:29.000Z</time>
        <extensions>
          <ns3:TrackPointExtension>
            <ns3:atemp>19.0</ns3:atemp>
          </ns3:TrackPointExtension>
        </extensions>
      </trkpt>
      <trkpt lat="42.581024654209613800048828125" lon="20.01735462807118892669677734375">
        <ele>2005</ele>
        <time>2026-06-15T14:04:30.000Z</time>
        <extensions>
          <ns3:TrackPointExtension>
            <ns3:atemp>19.0</ns3:atemp>
          </ns3:TrackPointExtension>
        </extensions>
      </trkpt>
      <trkpt lat="42.581024654209613800048828125" lon="20.01735462807118892669677734375">
        <ele>2005</ele>
        <time>2026-06-15T14:04:31.000Z</time>
        <extensions>
          <ns3:TrackPointExtension>
            <ns3:atemp>19.0</ns3:atemp>
          </ns3:TrackPointExtension>
        </extensions>
      </trkpt>
      <trkpt lat="42.581024654209613800048828125" lon="20.01735462807118892669677734375">
        <ele>2005</ele>
        <time>2026-06-15T14:04:32.000Z</time>
        <extensions>
          <ns3:TrackPointExtension>
            <ns3:atemp>19.0</ns3:atemp>
          </ns3:TrackPointExtension>
        </extensions>
      </trkpt>
      <trkpt lat="42.581024654209613800048828125" lon="20.01735462807118892669677734375">
        <ele>2005</ele>
        <time>2026-06-15T14:04:33.000Z</time>
        <extensions>
          <ns3:TrackPointExtension>
            <ns3:atemp>19.0</ns3:atemp>
          </ns3:TrackPointExtension>
        </extensions>
      </trkpt>
      <trkpt lat="42.581024654209613800048828125" lon="20.01735462807118892669677734375">
        <ele>2005</ele>
        <time>2026-06-15T14:04:34.000Z</time>
        <extensions>
          <ns3:TrackPointExtension>
            <ns3:atemp>19.0</ns3:atemp>
          </ns3:TrackPointExtension>
        </extensions>
      </trkpt>
      <trkpt lat="42.581024654209613800048828125" lon="20.01735462807118892669677734375">
        <ele>2005</ele>
        <time>2026-06-15T14:04:35.000Z</time>
        <extensions>
          <ns3:TrackPointExtension>
            <ns3:atemp>19.0</ns3:atemp>
          </ns3:TrackPointExtension>
        </extensions>
      </trkpt>
      <trkpt lat="42.581024654209613800048828125" lon="20.01735462807118892669677734375">
        <ele>2005</ele>
        <time>2026-06-15T14:04:36.000Z</time>
        <extensions>
          <ns3:TrackPointExtension>
            <ns3:atemp>19.0</ns3:atemp>
          </ns3:TrackPointExtension>
        </extensions>
      </trkpt>
      <trkpt lat="42.581024654209613800048828125" lon="20.01735462807118892669677734375">
        <ele>2005</ele>
        <time>2026-06-15T14:04:37.000Z</time>
        <extensions>
          <ns3:TrackPointExtension>
            <ns3:atemp>19.0</ns3:atemp>
          </ns3:TrackPointExtension>
        </extensions>
      </trkpt>
      <trkpt lat="42.581024654209613800048828125" lon="20.01735462807118892669677734375">
        <ele>2005</ele>
        <time>2026-06-15T14:04:38.000Z</time>
        <extensions>
          <ns3:TrackPointExtension>
            <ns3:atemp>19.0</ns3:atemp>
          </ns3:TrackPointExtension>
        </extensions>
      </trkpt>
      <trkpt lat="42.581024654209613800048828125" lon="20.01735462807118892669677734375">
        <ele>2005</ele>
        <time>2026-06-15T14:04:39.000Z</time>
        <extensions>
          <ns3:TrackPointExtension>
            <ns3:atemp>19.0</ns3:atemp>
          </ns3:TrackPointExtension>
        </extensions>
      </trkpt>
      <trkpt lat="42.581024654209613800048828125" lon="20.01735462807118892669677734375">
        <ele>2005</ele>
        <time>2026-06-15T14:04:40.000Z</time>
        <extensions>
          <ns3:TrackPointExtension>
            <ns3:atemp>19.0</ns3:atemp>
          </ns3:TrackPointExtension>
        </extensions>
      </trkpt>
      <trkpt lat="42.581024654209613800048828125" lon="20.01735462807118892669677734375">
        <ele>2005</ele>
        <time>2026-06-15T14:04:41.000Z</time>
        <extensions>
          <ns3:TrackPointExtension>
            <ns3:atemp>19.0</ns3:atemp>
          </ns3:TrackPointExtension>
        </extensions>
      </trkpt>
      <trkpt lat="42.581024654209613800048828125" lon="20.01735462807118892669677734375">
        <ele>2005</ele>
        <time>2026-06-15T14:04:42.000Z</time>
        <extensions>
          <ns3:TrackPointExtension>
            <ns3:atemp>19.0</ns3:atemp>
          </ns3:TrackPointExtension>
        </extensions>
      </trkpt>
      <trkpt lat="42.581024654209613800048828125" lon="20.01735462807118892669677734375">
        <ele>2005</ele>
        <time>2026-06-15T14:04:43.000Z</time>
        <extensions>
          <ns3:TrackPointExtension>
            <ns3:atemp>19.0</ns3:atemp>
          </ns3:TrackPointExtension>
        </extensions>
      </trkpt>
      <trkpt lat="42.581024654209613800048828125" lon="20.01735462807118892669677734375">
        <ele>2005</ele>
        <time>2026-06-15T14:04:44.000Z</time>
        <extensions>
          <ns3:TrackPointExtension>
            <ns3:atemp>19.0</ns3:atemp>
          </ns3:TrackPointExtension>
        </extensions>
      </trkpt>
      <trkpt lat="42.581024654209613800048828125" lon="20.01735462807118892669677734375">
        <ele>2005</ele>
        <time>2026-06-15T14:04:45.000Z</time>
        <extensions>
          <ns3:TrackPointExtension>
            <ns3:atemp>19.0</ns3:atemp>
          </ns3:TrackPointExtension>
        </extensions>
      </trkpt>
      <trkpt lat="42.581024654209613800048828125" lon="20.01735462807118892669677734375">
        <ele>2005</ele>
        <time>2026-06-15T14:04:46.000Z</time>
        <extensions>
          <ns3:TrackPointExtension>
            <ns3:atemp>19.0</ns3:atemp>
          </ns3:TrackPointExtension>
        </extensions>
      </trkpt>
      <trkpt lat="42.581024654209613800048828125" lon="20.01735462807118892669677734375">
        <ele>2005</ele>
        <time>2026-06-15T14:04:47.000Z</time>
        <extensions>
          <ns3:TrackPointExtension>
            <ns3:atemp>19.0</ns3:atemp>
          </ns3:TrackPointExtension>
        </extensions>
      </trkpt>
      <trkpt lat="42.581024654209613800048828125" lon="20.01735462807118892669677734375">
        <ele>2005</ele>
        <time>2026-06-15T14:04:48.000Z</time>
        <extensions>
          <ns3:TrackPointExtension>
            <ns3:atemp>19.0</ns3:atemp>
          </ns3:TrackPointExtension>
        </extensions>
      </trkpt>
      <trkpt lat="42.581024654209613800048828125" lon="20.01735462807118892669677734375">
        <ele>2005</ele>
        <time>2026-06-15T14:04:49.000Z</time>
        <extensions>
          <ns3:TrackPointExtension>
            <ns3:atemp>19.0</ns3:atemp>
          </ns3:TrackPointExtension>
        </extensions>
      </trkpt>
      <trkpt lat="42.581024654209613800048828125" lon="20.01735462807118892669677734375">
        <ele>2005</ele>
        <time>2026-06-15T14:04:50.000Z</time>
        <extensions>
          <ns3:TrackPointExtension>
            <ns3:atemp>19.0</ns3:atemp>
          </ns3:TrackPointExtension>
        </extensions>
      </trkpt>
      <trkpt lat="42.581024654209613800048828125" lon="20.01735462807118892669677734375">
        <ele>2005</ele>
        <time>2026-06-15T14:04:51.000Z</time>
        <extensions>
          <ns3:TrackPointExtension>
            <ns3:atemp>19.0</ns3:atemp>
          </ns3:TrackPointExtension>
        </extensions>
      </trkpt>
      <trkpt lat="42.581024654209613800048828125" lon="20.01735462807118892669677734375">
        <ele>2005</ele>
        <time>2026-06-15T14:04:52.000Z</time>
        <extensions>
          <ns3:TrackPointExtension>
            <ns3:atemp>19.0</ns3:atemp>
          </ns3:TrackPointExtension>
        </extensions>
      </trkpt>
      <trkpt lat="42.581024654209613800048828125" lon="20.01735462807118892669677734375">
        <ele>2005</ele>
        <time>2026-06-15T14:04:53.000Z</time>
        <extensions>
          <ns3:TrackPointExtension>
            <ns3:atemp>19.0</ns3:atemp>
          </ns3:TrackPointExtension>
        </extensions>
      </trkpt>
      <trkpt lat="42.581024654209613800048828125" lon="20.01735462807118892669677734375">
        <ele>2005</ele>
        <time>2026-06-15T14:04:54.000Z</time>
        <extensions>
          <ns3:TrackPointExtension>
            <ns3:atemp>19.0</ns3:atemp>
          </ns3:TrackPointExtension>
        </extensions>
      </trkpt>
      <trkpt lat="42.581024654209613800048828125" lon="20.01735462807118892669677734375">
        <ele>2005</ele>
        <time>2026-06-15T14:04:55.000Z</time>
        <extensions>
          <ns3:TrackPointExtension>
            <ns3:atemp>19.0</ns3:atemp>
          </ns3:TrackPointExtension>
        </extensions>
      </trkpt>
      <trkpt lat="42.581024654209613800048828125" lon="20.01735462807118892669677734375">
        <ele>2005</ele>
        <time>2026-06-15T14:04:56.000Z</time>
        <extensions>
          <ns3:TrackPointExtension>
            <ns3:atemp>19.0</ns3:atemp>
          </ns3:TrackPointExtension>
        </extensions>
      </trkpt>
      <trkpt lat="42.581024654209613800048828125" lon="20.01735462807118892669677734375">
        <ele>2005</ele>
        <time>2026-06-15T14:04:57.000Z</time>
        <extensions>
          <ns3:TrackPointExtension>
            <ns3:atemp>19.0</ns3:atemp>
          </ns3:TrackPointExtension>
        </extensions>
      </trkpt>
      <trkpt lat="42.581024654209613800048828125" lon="20.01735462807118892669677734375">
        <ele>2005</ele>
        <time>2026-06-15T14:04:58.000Z</time>
        <extensions>
          <ns3:TrackPointExtension>
            <ns3:atemp>19.0</ns3:atemp>
          </ns3:TrackPointExtension>
        </extensions>
      </trkpt>
      <trkpt lat="42.581024654209613800048828125" lon="20.01735462807118892669677734375">
        <ele>2005</ele>
        <time>2026-06-15T14:04:59.000Z</time>
        <extensions>
          <ns3:TrackPointExtension>
            <ns3:atemp>19.0</ns3:atemp>
          </ns3:TrackPointExtension>
        </extensions>
      </trkpt>
      <trkpt lat="42.581024654209613800048828125" lon="20.01735462807118892669677734375">
        <ele>2005</ele>
        <time>2026-06-15T14:05:00.000Z</time>
        <extensions>
          <ns3:TrackPointExtension>
            <ns3:atemp>19.0</ns3:atemp>
          </ns3:TrackPointExtension>
        </extensions>
      </trkpt>
      <trkpt lat="42.581024654209613800048828125" lon="20.01735462807118892669677734375">
        <ele>2005</ele>
        <time>2026-06-15T14:05:01.000Z</time>
        <extensions>
          <ns3:TrackPointExtension>
            <ns3:atemp>19.0</ns3:atemp>
          </ns3:TrackPointExtension>
        </extensions>
      </trkpt>
      <trkpt lat="42.581024654209613800048828125" lon="20.01735462807118892669677734375">
        <ele>2005</ele>
        <time>2026-06-15T14:05:02.000Z</time>
        <extensions>
          <ns3:TrackPointExtension>
            <ns3:atemp>19.0</ns3:atemp>
          </ns3:TrackPointExtension>
        </extensions>
      </trkpt>
      <trkpt lat="42.581024654209613800048828125" lon="20.01735462807118892669677734375">
        <ele>2005</ele>
        <time>2026-06-15T14:05:03.000Z</time>
        <extensions>
          <ns3:TrackPointExtension>
            <ns3:atemp>19.0</ns3:atemp>
          </ns3:TrackPointExtension>
        </extensions>
      </trkpt>
      <trkpt lat="42.581024654209613800048828125" lon="20.01735462807118892669677734375">
        <ele>2005</ele>
        <time>2026-06-15T14:05:04.000Z</time>
        <extensions>
          <ns3:TrackPointExtension>
            <ns3:atemp>19.0</ns3:atemp>
          </ns3:TrackPointExtension>
        </extensions>
      </trkpt>
      <trkpt lat="42.581024654209613800048828125" lon="20.01735462807118892669677734375">
        <ele>2005</ele>
        <time>2026-06-15T14:05:05.000Z</time>
        <extensions>
          <ns3:TrackPointExtension>
            <ns3:atemp>19.0</ns3:atemp>
          </ns3:TrackPointExtension>
        </extensions>
      </trkpt>
      <trkpt lat="42.581024654209613800048828125" lon="20.01735462807118892669677734375">
        <ele>2005</ele>
        <time>2026-06-15T14:05:06.000Z</time>
        <extensions>
          <ns3:TrackPointExtension>
            <ns3:atemp>19.0</ns3:atemp>
          </ns3:TrackPointExtension>
        </extensions>
      </trkpt>
      <trkpt lat="42.581024654209613800048828125" lon="20.01735462807118892669677734375">
        <ele>2005</ele>
        <time>2026-06-15T14:05:07.000Z</time>
        <extensions>
          <ns3:TrackPointExtension>
            <ns3:atemp>19.0</ns3:atemp>
          </ns3:TrackPointExtension>
        </extensions>
      </trkpt>
      <trkpt lat="42.581024654209613800048828125" lon="20.01735462807118892669677734375">
        <ele>2005</ele>
        <time>2026-06-15T14:05:08.000Z</time>
        <extensions>
          <ns3:TrackPointExtension>
            <ns3:atemp>19.0</ns3:atemp>
          </ns3:TrackPointExtension>
        </extensions>
      </trkpt>
      <trkpt lat="42.581024654209613800048828125" lon="20.01735462807118892669677734375">
        <ele>2005</ele>
        <time>2026-06-15T14:05:09.000Z</time>
        <extensions>
          <ns3:TrackPointExtension>
            <ns3:atemp>19.0</ns3:atemp>
          </ns3:TrackPointExtension>
        </extensions>
      </trkpt>
      <trkpt lat="42.581024654209613800048828125" lon="20.01735462807118892669677734375">
        <ele>2005</ele>
        <time>2026-06-15T14:05:10.000Z</time>
        <extensions>
          <ns3:TrackPointExtension>
            <ns3:atemp>19.0</ns3:atemp>
          </ns3:TrackPointExtension>
        </extensions>
      </trkpt>
      <trkpt lat="42.581024654209613800048828125" lon="20.01735462807118892669677734375">
        <ele>2005</ele>
        <time>2026-06-15T14:05:11.000Z</time>
        <extensions>
          <ns3:TrackPointExtension>
            <ns3:atemp>19.0</ns3:atemp>
          </ns3:TrackPointExtension>
        </extensions>
      </trkpt>
      <trkpt lat="42.581024654209613800048828125" lon="20.01735462807118892669677734375">
        <ele>2005</ele>
        <time>2026-06-15T14:05:12.000Z</time>
        <extensions>
          <ns3:TrackPointExtension>
            <ns3:atemp>19.0</ns3:atemp>
          </ns3:TrackPointExtension>
        </extensions>
      </trkpt>
      <trkpt lat="42.581024654209613800048828125" lon="20.01735462807118892669677734375">
        <ele>2005</ele>
        <time>2026-06-15T14:05:13.000Z</time>
        <extensions>
          <ns3:TrackPointExtension>
            <ns3:atemp>19.0</ns3:atemp>
          </ns3:TrackPointExtension>
        </extensions>
      </trkpt>
      <trkpt lat="42.581024654209613800048828125" lon="20.01735462807118892669677734375">
        <ele>2005</ele>
        <time>2026-06-15T14:05:14.000Z</time>
        <extensions>
          <ns3:TrackPointExtension>
            <ns3:atemp>19.0</ns3:atemp>
          </ns3:TrackPointExtension>
        </extensions>
      </trkpt>
      <trkpt lat="42.581024654209613800048828125" lon="20.01735462807118892669677734375">
        <ele>2005</ele>
        <time>2026-06-15T14:05:15.000Z</time>
        <extensions>
          <ns3:TrackPointExtension>
            <ns3:atemp>19.0</ns3:atemp>
          </ns3:TrackPointExtension>
        </extensions>
      </trkpt>
      <trkpt lat="42.581024654209613800048828125" lon="20.01735462807118892669677734375">
        <ele>2005</ele>
        <time>2026-06-15T14:05:16.000Z</time>
        <extensions>
          <ns3:TrackPointExtension>
            <ns3:atemp>19.0</ns3:atemp>
          </ns3:TrackPointExtension>
        </extensions>
      </trkpt>
      <trkpt lat="42.581024654209613800048828125" lon="20.01735462807118892669677734375">
        <ele>2005</ele>
        <time>2026-06-15T14:05:17.000Z</time>
        <extensions>
          <ns3:TrackPointExtension>
            <ns3:atemp>19.0</ns3:atemp>
          </ns3:TrackPointExtension>
        </extensions>
      </trkpt>
      <trkpt lat="42.581024654209613800048828125" lon="20.01735462807118892669677734375">
        <ele>2005</ele>
        <time>2026-06-15T14:05:18.000Z</time>
        <extensions>
          <ns3:TrackPointExtension>
            <ns3:atemp>19.0</ns3:atemp>
          </ns3:TrackPointExtension>
        </extensions>
      </trkpt>
      <trkpt lat="42.581024654209613800048828125" lon="20.01735462807118892669677734375">
        <ele>2005</ele>
        <time>2026-06-15T14:05:19.000Z</time>
        <extensions>
          <ns3:TrackPointExtension>
            <ns3:atemp>19.0</ns3:atemp>
          </ns3:TrackPointExtension>
        </extensions>
      </trkpt>
      <trkpt lat="42.581024654209613800048828125" lon="20.01735462807118892669677734375">
        <ele>2005</ele>
        <time>2026-06-15T14:05:20.000Z</time>
        <extensions>
          <ns3:TrackPointExtension>
            <ns3:atemp>19.0</ns3:atemp>
          </ns3:TrackPointExtension>
        </extensions>
      </trkpt>
      <trkpt lat="42.581024654209613800048828125" lon="20.01735462807118892669677734375">
        <ele>2005</ele>
        <time>2026-06-15T14:05:21.000Z</time>
        <extensions>
          <ns3:TrackPointExtension>
            <ns3:atemp>19.0</ns3:atemp>
          </ns3:TrackPointExtension>
        </extensions>
      </trkpt>
      <trkpt lat="42.581024654209613800048828125" lon="20.01735462807118892669677734375">
        <ele>2005</ele>
        <time>2026-06-15T14:05:22.000Z</time>
        <extensions>
          <ns3:TrackPointExtension>
            <ns3:atemp>19.0</ns3:atemp>
          </ns3:TrackPointExtension>
        </extensions>
      </trkpt>
      <trkpt lat="42.581024654209613800048828125" lon="20.01735462807118892669677734375">
        <ele>2005</ele>
        <time>2026-06-15T14:05:23.000Z</time>
        <extensions>
          <ns3:TrackPointExtension>
            <ns3:atemp>19.0</ns3:atemp>
          </ns3:TrackPointExtension>
        </extensions>
      </trkpt>
      <trkpt lat="42.581024654209613800048828125" lon="20.01735462807118892669677734375">
        <ele>2005</ele>
        <time>2026-06-15T14:05:24.000Z</time>
        <extensions>
          <ns3:TrackPointExtension>
            <ns3:atemp>19.0</ns3:atemp>
          </ns3:TrackPointExtension>
        </extensions>
      </trkpt>
      <trkpt lat="42.581024654209613800048828125" lon="20.01735462807118892669677734375">
        <ele>2005</ele>
        <time>2026-06-15T14:05:25.000Z</time>
        <extensions>
          <ns3:TrackPointExtension>
            <ns3:atemp>19.0</ns3:atemp>
          </ns3:TrackPointExtension>
        </extensions>
      </trkpt>
      <trkpt lat="42.581024654209613800048828125" lon="20.01735462807118892669677734375">
        <ele>2005</ele>
        <time>2026-06-15T14:05:26.000Z</time>
        <extensions>
          <ns3:TrackPointExtension>
            <ns3:atemp>19.0</ns3:atemp>
          </ns3:TrackPointExtension>
        </extensions>
      </trkpt>
      <trkpt lat="42.581024654209613800048828125" lon="20.01735462807118892669677734375">
        <ele>2005</ele>
        <time>2026-06-15T14:05:27.000Z</time>
        <extensions>
          <ns3:TrackPointExtension>
            <ns3:atemp>19.0</ns3:atemp>
          </ns3:TrackPointExtension>
        </extensions>
      </trkpt>
      <trkpt lat="42.581024654209613800048828125" lon="20.01735462807118892669677734375">
        <ele>2005</ele>
        <time>2026-06-15T14:05:28.000Z</time>
        <extensions>
          <ns3:TrackPointExtension>
            <ns3:atemp>19.0</ns3:atemp>
          </ns3:TrackPointExtension>
        </extensions>
      </trkpt>
      <trkpt lat="42.581024654209613800048828125" lon="20.01735462807118892669677734375">
        <ele>2005</ele>
        <time>2026-06-15T14:05:29.000Z</time>
        <extensions>
          <ns3:TrackPointExtension>
            <ns3:atemp>19.0</ns3:atemp>
          </ns3:TrackPointExtension>
        </extensions>
      </trkpt>
      <trkpt lat="42.581024654209613800048828125" lon="20.01735462807118892669677734375">
        <ele>2005</ele>
        <time>2026-06-15T14:05:30.000Z</time>
        <extensions>
          <ns3:TrackPointExtension>
            <ns3:atemp>19.0</ns3:atemp>
          </ns3:TrackPointExtension>
        </extensions>
      </trkpt>
      <trkpt lat="42.581024654209613800048828125" lon="20.01735462807118892669677734375">
        <ele>2005</ele>
        <time>2026-06-15T14:05:31.000Z</time>
        <extensions>
          <ns3:TrackPointExtension>
            <ns3:atemp>19.0</ns3:atemp>
          </ns3:TrackPointExtension>
        </extensions>
      </trkpt>
      <trkpt lat="42.581024654209613800048828125" lon="20.01735462807118892669677734375">
        <ele>2005</ele>
        <time>2026-06-15T14:05:32.000Z</time>
        <extensions>
          <ns3:TrackPointExtension>
            <ns3:atemp>19.0</ns3:atemp>
          </ns3:TrackPointExtension>
        </extensions>
      </trkpt>
      <trkpt lat="42.581024654209613800048828125" lon="20.01735462807118892669677734375">
        <ele>2005</ele>
        <time>2026-06-15T14:05:33.000Z</time>
        <extensions>
          <ns3:TrackPointExtension>
            <ns3:atemp>19.0</ns3:atemp>
          </ns3:TrackPointExtension>
        </extensions>
      </trkpt>
      <trkpt lat="42.581024654209613800048828125" lon="20.01735462807118892669677734375">
        <ele>2005</ele>
        <time>2026-06-15T14:05:34.000Z</time>
        <extensions>
          <ns3:TrackPointExtension>
            <ns3:atemp>19.0</ns3:atemp>
          </ns3:TrackPointExtension>
        </extensions>
      </trkpt>
      <trkpt lat="42.581024654209613800048828125" lon="20.01735462807118892669677734375">
        <ele>2005</ele>
        <time>2026-06-15T14:05:35.000Z</time>
        <extensions>
          <ns3:TrackPointExtension>
            <ns3:atemp>19.0</ns3:atemp>
          </ns3:TrackPointExtension>
        </extensions>
      </trkpt>
      <trkpt lat="42.581024654209613800048828125" lon="20.01735462807118892669677734375">
        <ele>2005</ele>
        <time>2026-06-15T14:05:36.000Z</time>
        <extensions>
          <ns3:TrackPointExtension>
            <ns3:atemp>19.0</ns3:atemp>
          </ns3:TrackPointExtension>
        </extensions>
      </trkpt>
      <trkpt lat="42.581024654209613800048828125" lon="20.01735462807118892669677734375">
        <ele>2005</ele>
        <time>2026-06-15T14:05:37.000Z</time>
        <extensions>
          <ns3:TrackPointExtension>
            <ns3:atemp>19.0</ns3:atemp>
          </ns3:TrackPointExtension>
        </extensions>
      </trkpt>
      <trkpt lat="42.581024654209613800048828125" lon="20.01735462807118892669677734375">
        <ele>2005</ele>
        <time>2026-06-15T14:05:38.000Z</time>
        <extensions>
          <ns3:TrackPointExtension>
            <ns3:atemp>19.0</ns3:atemp>
          </ns3:TrackPointExtension>
        </extensions>
      </trkpt>
      <trkpt lat="42.581024654209613800048828125" lon="20.01735462807118892669677734375">
        <ele>2005</ele>
        <time>2026-06-15T14:05:39.000Z</time>
        <extensions>
          <ns3:TrackPointExtension>
            <ns3:atemp>19.0</ns3:atemp>
          </ns3:TrackPointExtension>
        </extensions>
      </trkpt>
      <trkpt lat="42.581024654209613800048828125" lon="20.01735462807118892669677734375">
        <ele>2005</ele>
        <time>2026-06-15T14:05:40.000Z</time>
        <extensions>
          <ns3:TrackPointExtension>
            <ns3:atemp>19.0</ns3:atemp>
          </ns3:TrackPointExtension>
        </extensions>
      </trkpt>
      <trkpt lat="42.581024654209613800048828125" lon="20.01735462807118892669677734375">
        <ele>2005</ele>
        <time>2026-06-15T14:05:41.000Z</time>
        <extensions>
          <ns3:TrackPointExtension>
            <ns3:atemp>19.0</ns3:atemp>
          </ns3:TrackPointExtension>
        </extensions>
      </trkpt>
      <trkpt lat="42.581024654209613800048828125" lon="20.01735462807118892669677734375">
        <ele>2005</ele>
        <time>2026-06-15T14:05:42.000Z</time>
        <extensions>
          <ns3:TrackPointExtension>
            <ns3:atemp>19.0</ns3:atemp>
          </ns3:TrackPointExtension>
        </extensions>
      </trkpt>
      <trkpt lat="42.581024654209613800048828125" lon="20.01735462807118892669677734375">
        <ele>2005</ele>
        <time>2026-06-15T14:05:43.000Z</time>
        <extensions>
          <ns3:TrackPointExtension>
            <ns3:atemp>19.0</ns3:atemp>
          </ns3:TrackPointExtension>
        </extensions>
      </trkpt>
      <trkpt lat="42.581024654209613800048828125" lon="20.01735462807118892669677734375">
        <ele>2005</ele>
        <time>2026-06-15T14:05:44.000Z</time>
        <extensions>
          <ns3:TrackPointExtension>
            <ns3:atemp>19.0</ns3:atemp>
          </ns3:TrackPointExtension>
        </extensions>
      </trkpt>
      <trkpt lat="42.581024654209613800048828125" lon="20.01735462807118892669677734375">
        <ele>2005</ele>
        <time>2026-06-15T14:05:45.000Z</time>
        <extensions>
          <ns3:TrackPointExtension>
            <ns3:atemp>19.0</ns3:atemp>
          </ns3:TrackPointExtension>
        </extensions>
      </trkpt>
      <trkpt lat="42.581024654209613800048828125" lon="20.01735462807118892669677734375">
        <ele>2005</ele>
        <time>2026-06-15T14:05:46.000Z</time>
        <extensions>
          <ns3:TrackPointExtension>
            <ns3:atemp>19.0</ns3:atemp>
          </ns3:TrackPointExtension>
        </extensions>
      </trkpt>
      <trkpt lat="42.581024654209613800048828125" lon="20.01735462807118892669677734375">
        <ele>2005</ele>
        <time>2026-06-15T14:05:47.000Z</time>
        <extensions>
          <ns3:TrackPointExtension>
            <ns3:atemp>19.0</ns3:atemp>
          </ns3:TrackPointExtension>
        </extensions>
      </trkpt>
      <trkpt lat="42.581024654209613800048828125" lon="20.01735462807118892669677734375">
        <ele>2005</ele>
        <time>2026-06-15T14:05:48.000Z</time>
        <extensions>
          <ns3:TrackPointExtension>
            <ns3:atemp>19.0</ns3:atemp>
          </ns3:TrackPointExtension>
        </extensions>
      </trkpt>
      <trkpt lat="42.581024654209613800048828125" lon="20.01735462807118892669677734375">
        <ele>2005</ele>
        <time>2026-06-15T14:05:49.000Z</time>
        <extensions>
          <ns3:TrackPointExtension>
            <ns3:atemp>19.0</ns3:atemp>
          </ns3:TrackPointExtension>
        </extensions>
      </trkpt>
      <trkpt lat="42.581024654209613800048828125" lon="20.01735462807118892669677734375">
        <ele>2005</ele>
        <time>2026-06-15T14:05:50.000Z</time>
        <extensions>
          <ns3:TrackPointExtension>
            <ns3:atemp>19.0</ns3:atemp>
          </ns3:TrackPointExtension>
        </extensions>
      </trkpt>
      <trkpt lat="42.581024654209613800048828125" lon="20.01735462807118892669677734375">
        <ele>2005</ele>
        <time>2026-06-15T14:05:51.000Z</time>
        <extensions>
          <ns3:TrackPointExtension>
            <ns3:atemp>19.0</ns3:atemp>
          </ns3:TrackPointExtension>
        </extensions>
      </trkpt>
      <trkpt lat="42.581024654209613800048828125" lon="20.01735462807118892669677734375">
        <ele>2005</ele>
        <time>2026-06-15T14:05:52.000Z</time>
        <extensions>
          <ns3:TrackPointExtension>
            <ns3:atemp>19.0</ns3:atemp>
          </ns3:TrackPointExtension>
        </extensions>
      </trkpt>
      <trkpt lat="42.581024654209613800048828125" lon="20.01735462807118892669677734375">
        <ele>2005</ele>
        <time>2026-06-15T14:05:53.000Z</time>
        <extensions>
          <ns3:TrackPointExtension>
            <ns3:atemp>19.0</ns3:atemp>
          </ns3:TrackPointExtension>
        </extensions>
      </trkpt>
      <trkpt lat="42.581024654209613800048828125" lon="20.01735462807118892669677734375">
        <ele>2005</ele>
        <time>2026-06-15T14:05:54.000Z</time>
        <extensions>
          <ns3:TrackPointExtension>
            <ns3:atemp>19.0</ns3:atemp>
          </ns3:TrackPointExtension>
        </extensions>
      </trkpt>
      <trkpt lat="42.581024654209613800048828125" lon="20.01735462807118892669677734375">
        <ele>2005</ele>
        <time>2026-06-15T14:05:55.000Z</time>
        <extensions>
          <ns3:TrackPointExtension>
            <ns3:atemp>19.0</ns3:atemp>
          </ns3:TrackPointExtension>
        </extensions>
      </trkpt>
      <trkpt lat="42.581024654209613800048828125" lon="20.01735462807118892669677734375">
        <ele>2005</ele>
        <time>2026-06-15T14:05:56.000Z</time>
        <extensions>
          <ns3:TrackPointExtension>
            <ns3:atemp>19.0</ns3:atemp>
          </ns3:TrackPointExtension>
        </extensions>
      </trkpt>
      <trkpt lat="42.581024654209613800048828125" lon="20.01735462807118892669677734375">
        <ele>2005</ele>
        <time>2026-06-15T14:05:57.000Z</time>
        <extensions>
          <ns3:TrackPointExtension>
            <ns3:atemp>19.0</ns3:atemp>
          </ns3:TrackPointExtension>
        </extensions>
      </trkpt>
      <trkpt lat="42.581024654209613800048828125" lon="20.01735462807118892669677734375">
        <ele>2005</ele>
        <time>2026-06-15T14:05:58.000Z</time>
        <extensions>
          <ns3:TrackPointExtension>
            <ns3:atemp>19.0</ns3:atemp>
          </ns3:TrackPointExtension>
        </extensions>
      </trkpt>
      <trkpt lat="42.581024654209613800048828125" lon="20.01735462807118892669677734375">
        <ele>2005</ele>
        <time>2026-06-15T14:05:59.000Z</time>
        <extensions>
          <ns3:TrackPointExtension>
            <ns3:atemp>19.0</ns3:atemp>
          </ns3:TrackPointExtension>
        </extensions>
      </trkpt>
      <trkpt lat="42.581024654209613800048828125" lon="20.01735462807118892669677734375">
        <ele>2005</ele>
        <time>2026-06-15T14:06:00.000Z</time>
        <extensions>
          <ns3:TrackPointExtension>
            <ns3:atemp>19.0</ns3:atemp>
          </ns3:TrackPointExtension>
        </extensions>
      </trkpt>
      <trkpt lat="42.581024654209613800048828125" lon="20.01735462807118892669677734375">
        <ele>2005</ele>
        <time>2026-06-15T14:06:01.000Z</time>
        <extensions>
          <ns3:TrackPointExtension>
            <ns3:atemp>19.0</ns3:atemp>
          </ns3:TrackPointExtension>
        </extensions>
      </trkpt>
      <trkpt lat="42.581024654209613800048828125" lon="20.01735462807118892669677734375">
        <ele>2005</ele>
        <time>2026-06-15T14:06:02.000Z</time>
        <extensions>
          <ns3:TrackPointExtension>
            <ns3:atemp>19.0</ns3:atemp>
          </ns3:TrackPointExtension>
        </extensions>
      </trkpt>
      <trkpt lat="42.581024654209613800048828125" lon="20.01735462807118892669677734375">
        <ele>2005</ele>
        <time>2026-06-15T14:06:03.000Z</time>
        <extensions>
          <ns3:TrackPointExtension>
            <ns3:atemp>19.0</ns3:atemp>
          </ns3:TrackPointExtension>
        </extensions>
      </trkpt>
      <trkpt lat="42.581024654209613800048828125" lon="20.01735462807118892669677734375">
        <ele>2005</ele>
        <time>2026-06-15T14:06:04.000Z</time>
        <extensions>
          <ns3:TrackPointExtension>
            <ns3:atemp>19.0</ns3:atemp>
          </ns3:TrackPointExtension>
        </extensions>
      </trkpt>
      <trkpt lat="42.581024654209613800048828125" lon="20.01735462807118892669677734375">
        <ele>2005</ele>
        <time>2026-06-15T14:06:05.000Z</time>
        <extensions>
          <ns3:TrackPointExtension>
            <ns3:atemp>19.0</ns3:atemp>
          </ns3:TrackPointExtension>
        </extensions>
      </trkpt>
      <trkpt lat="42.581024654209613800048828125" lon="20.01735462807118892669677734375">
        <ele>2005</ele>
        <time>2026-06-15T14:06:06.000Z</time>
        <extensions>
          <ns3:TrackPointExtension>
            <ns3:atemp>19.0</ns3:atemp>
          </ns3:TrackPointExtension>
        </extensions>
      </trkpt>
      <trkpt lat="42.581024654209613800048828125" lon="20.01735462807118892669677734375">
        <ele>2005</ele>
        <time>2026-06-15T14:06:07.000Z</time>
        <extensions>
          <ns3:TrackPointExtension>
            <ns3:atemp>19.0</ns3:atemp>
          </ns3:TrackPointExtension>
        </extensions>
      </trkpt>
      <trkpt lat="42.581024654209613800048828125" lon="20.01735462807118892669677734375">
        <ele>2005</ele>
        <time>2026-06-15T14:06:08.000Z</time>
        <extensions>
          <ns3:TrackPointExtension>
            <ns3:atemp>19.0</ns3:atemp>
          </ns3:TrackPointExtension>
        </extensions>
      </trkpt>
      <trkpt lat="42.581024654209613800048828125" lon="20.01735462807118892669677734375">
        <ele>2005</ele>
        <time>2026-06-15T14:06:09.000Z</time>
        <extensions>
          <ns3:TrackPointExtension>
            <ns3:atemp>19.0</ns3:atemp>
          </ns3:TrackPointExtension>
        </extensions>
      </trkpt>
      <trkpt lat="42.581024654209613800048828125" lon="20.01735462807118892669677734375">
        <ele>2005</ele>
        <time>2026-06-15T14:06:10.000Z</time>
        <extensions>
          <ns3:TrackPointExtension>
            <ns3:atemp>19.0</ns3:atemp>
          </ns3:TrackPointExtension>
        </extensions>
      </trkpt>
      <trkpt lat="42.581024654209613800048828125" lon="20.01735462807118892669677734375">
        <ele>2005</ele>
        <time>2026-06-15T14:06:11.000Z</time>
        <extensions>
          <ns3:TrackPointExtension>
            <ns3:atemp>19.0</ns3:atemp>
          </ns3:TrackPointExtension>
        </extensions>
      </trkpt>
      <trkpt lat="42.581024654209613800048828125" lon="20.01735462807118892669677734375">
        <ele>2005</ele>
        <time>2026-06-15T14:06:12.000Z</time>
        <extensions>
          <ns3:TrackPointExtension>
            <ns3:atemp>19.0</ns3:atemp>
          </ns3:TrackPointExtension>
        </extensions>
      </trkpt>
      <trkpt lat="42.581024654209613800048828125" lon="20.01735462807118892669677734375">
        <ele>2005</ele>
        <time>2026-06-15T14:06:13.000Z</time>
        <extensions>
          <ns3:TrackPointExtension>
            <ns3:atemp>19.0</ns3:atemp>
          </ns3:TrackPointExtension>
        </extensions>
      </trkpt>
      <trkpt lat="42.581024654209613800048828125" lon="20.01735462807118892669677734375">
        <ele>2005</ele>
        <time>2026-06-15T14:06:14.000Z</time>
        <extensions>
          <ns3:TrackPointExtension>
            <ns3:atemp>19.0</ns3:atemp>
          </ns3:TrackPointExtension>
        </extensions>
      </trkpt>
      <trkpt lat="42.581024654209613800048828125" lon="20.01735462807118892669677734375">
        <ele>2005</ele>
        <time>2026-06-15T14:06:15.000Z</time>
        <extensions>
          <ns3:TrackPointExtension>
            <ns3:atemp>19.0</ns3:atemp>
          </ns3:TrackPointExtension>
        </extensions>
      </trkpt>
      <trkpt lat="42.581024654209613800048828125" lon="20.01735462807118892669677734375">
        <ele>2005</ele>
        <time>2026-06-15T14:06:16.000Z</time>
        <extensions>
          <ns3:TrackPointExtension>
            <ns3:atemp>19.0</ns3:atemp>
          </ns3:TrackPointExtension>
        </extensions>
      </trkpt>
      <trkpt lat="42.581024654209613800048828125" lon="20.01735462807118892669677734375">
        <ele>2005</ele>
        <time>2026-06-15T14:06:17.000Z</time>
        <extensions>
          <ns3:TrackPointExtension>
            <ns3:atemp>19.0</ns3:atemp>
          </ns3:TrackPointExtension>
        </extensions>
      </trkpt>
      <trkpt lat="42.581024654209613800048828125" lon="20.01735462807118892669677734375">
        <ele>2005</ele>
        <time>2026-06-15T14:06:18.000Z</time>
        <extensions>
          <ns3:TrackPointExtension>
            <ns3:atemp>19.0</ns3:atemp>
          </ns3:TrackPointExtension>
        </extensions>
      </trkpt>
      <trkpt lat="42.581024654209613800048828125" lon="20.01735462807118892669677734375">
        <ele>2005</ele>
        <time>2026-06-15T14:06:19.000Z</time>
        <extensions>
          <ns3:TrackPointExtension>
            <ns3:atemp>19.0</ns3:atemp>
          </ns3:TrackPointExtension>
        </extensions>
      </trkpt>
      <trkpt lat="42.581024654209613800048828125" lon="20.01735462807118892669677734375">
        <ele>2005</ele>
        <time>2026-06-15T14:06:20.000Z</time>
        <extensions>
          <ns3:TrackPointExtension>
            <ns3:atemp>19.0</ns3:atemp>
          </ns3:TrackPointExtension>
        </extensions>
      </trkpt>
      <trkpt lat="42.581024654209613800048828125" lon="20.01735462807118892669677734375">
        <ele>2005</ele>
        <time>2026-06-15T14:06:21.000Z</time>
        <extensions>
          <ns3:TrackPointExtension>
            <ns3:atemp>19.0</ns3:atemp>
          </ns3:TrackPointExtension>
        </extensions>
      </trkpt>
      <trkpt lat="42.581024654209613800048828125" lon="20.01735462807118892669677734375">
        <ele>2005</ele>
        <time>2026-06-15T14:06:22.000Z</time>
        <extensions>
          <ns3:TrackPointExtension>
            <ns3:atemp>19.0</ns3:atemp>
          </ns3:TrackPointExtension>
        </extensions>
      </trkpt>
      <trkpt lat="42.581024654209613800048828125" lon="20.01735462807118892669677734375">
        <ele>2005</ele>
        <time>2026-06-15T14:06:23.000Z</time>
        <extensions>
          <ns3:TrackPointExtension>
            <ns3:atemp>19.0</ns3:atemp>
          </ns3:TrackPointExtension>
        </extensions>
      </trkpt>
      <trkpt lat="42.581024654209613800048828125" lon="20.01735462807118892669677734375">
        <ele>2005</ele>
        <time>2026-06-15T14:06:24.000Z</time>
        <extensions>
          <ns3:TrackPointExtension>
            <ns3:atemp>19.0</ns3:atemp>
          </ns3:TrackPointExtension>
        </extensions>
      </trkpt>
      <trkpt lat="42.581024654209613800048828125" lon="20.01735462807118892669677734375">
        <ele>2005</ele>
        <time>2026-06-15T14:06:25.000Z</time>
        <extensions>
          <ns3:TrackPointExtension>
            <ns3:atemp>19.0</ns3:atemp>
          </ns3:TrackPointExtension>
        </extensions>
      </trkpt>
      <trkpt lat="42.581024654209613800048828125" lon="20.01735462807118892669677734375">
        <ele>2005</ele>
        <time>2026-06-15T14:06:26.000Z</time>
        <extensions>
          <ns3:TrackPointExtension>
            <ns3:atemp>19.0</ns3:atemp>
          </ns3:TrackPointExtension>
        </extensions>
      </trkpt>
      <trkpt lat="42.581024654209613800048828125" lon="20.01735462807118892669677734375">
        <ele>2005</ele>
        <time>2026-06-15T14:06:27.000Z</time>
        <extensions>
          <ns3:TrackPointExtension>
            <ns3:atemp>19.0</ns3:atemp>
          </ns3:TrackPointExtension>
        </extensions>
      </trkpt>
      <trkpt lat="42.581024654209613800048828125" lon="20.01735462807118892669677734375">
        <ele>2005</ele>
        <time>2026-06-15T14:06:28.000Z</time>
        <extensions>
          <ns3:TrackPointExtension>
            <ns3:atemp>19.0</ns3:atemp>
          </ns3:TrackPointExtension>
        </extensions>
      </trkpt>
      <trkpt lat="42.581024654209613800048828125" lon="20.01735462807118892669677734375">
        <ele>2005</ele>
        <time>2026-06-15T14:06:29.000Z</time>
        <extensions>
          <ns3:TrackPointExtension>
            <ns3:atemp>19.0</ns3:atemp>
          </ns3:TrackPointExtension>
        </extensions>
      </trkpt>
      <trkpt lat="42.581024654209613800048828125" lon="20.01735462807118892669677734375">
        <ele>2005</ele>
        <time>2026-06-15T14:06:30.000Z</time>
        <extensions>
          <ns3:TrackPointExtension>
            <ns3:atemp>19.0</ns3:atemp>
          </ns3:TrackPointExtension>
        </extensions>
      </trkpt>
      <trkpt lat="42.581024654209613800048828125" lon="20.01735462807118892669677734375">
        <ele>2005</ele>
        <time>2026-06-15T14:06:31.000Z</time>
        <extensions>
          <ns3:TrackPointExtension>
            <ns3:atemp>19.0</ns3:atemp>
          </ns3:TrackPointExtension>
        </extensions>
      </trkpt>
      <trkpt lat="42.581024654209613800048828125" lon="20.01735462807118892669677734375">
        <ele>2005</ele>
        <time>2026-06-15T14:06:32.000Z</time>
        <extensions>
          <ns3:TrackPointExtension>
            <ns3:atemp>19.0</ns3:atemp>
          </ns3:TrackPointExtension>
        </extensions>
      </trkpt>
      <trkpt lat="42.581024654209613800048828125" lon="20.01735462807118892669677734375">
        <ele>2005</ele>
        <time>2026-06-15T14:06:33.000Z</time>
        <extensions>
          <ns3:TrackPointExtension>
            <ns3:atemp>19.0</ns3:atemp>
          </ns3:TrackPointExtension>
        </extensions>
      </trkpt>
      <trkpt lat="42.581024654209613800048828125" lon="20.01735462807118892669677734375">
        <ele>2005</ele>
        <time>2026-06-15T14:06:34.000Z</time>
        <extensions>
          <ns3:TrackPointExtension>
            <ns3:atemp>19.0</ns3:atemp>
          </ns3:TrackPointExtension>
        </extensions>
      </trkpt>
      <trkpt lat="42.581024654209613800048828125" lon="20.01735462807118892669677734375">
        <ele>2005</ele>
        <time>2026-06-15T14:06:35.000Z</time>
        <extensions>
          <ns3:TrackPointExtension>
            <ns3:atemp>19.0</ns3:atemp>
          </ns3:TrackPointExtension>
        </extensions>
      </trkpt>
      <trkpt lat="42.581024654209613800048828125" lon="20.01735462807118892669677734375">
        <ele>2005</ele>
        <time>2026-06-15T14:06:36.000Z</time>
        <extensions>
          <ns3:TrackPointExtension>
            <ns3:atemp>19.0</ns3:atemp>
          </ns3:TrackPointExtension>
        </extensions>
      </trkpt>
      <trkpt lat="42.581024654209613800048828125" lon="20.01735462807118892669677734375">
        <ele>2005</ele>
        <time>2026-06-15T14:06:37.000Z</time>
        <extensions>
          <ns3:TrackPointExtension>
            <ns3:atemp>19.0</ns3:atemp>
          </ns3:TrackPointExtension>
        </extensions>
      </trkpt>
      <trkpt lat="42.581024654209613800048828125" lon="20.01735462807118892669677734375">
        <ele>2005</ele>
        <time>2026-06-15T14:06:38.000Z</time>
        <extensions>
          <ns3:TrackPointExtension>
            <ns3:atemp>19.0</ns3:atemp>
          </ns3:TrackPointExtension>
        </extensions>
      </trkpt>
      <trkpt lat="42.581024654209613800048828125" lon="20.01735462807118892669677734375">
        <ele>2005</ele>
        <time>2026-06-15T14:06:39.000Z</time>
        <extensions>
          <ns3:TrackPointExtension>
            <ns3:atemp>19.0</ns3:atemp>
          </ns3:TrackPointExtension>
        </extensions>
      </trkpt>
      <trkpt lat="42.581024654209613800048828125" lon="20.01735462807118892669677734375">
        <ele>2005</ele>
        <time>2026-06-15T14:06:40.000Z</time>
        <extensions>
          <ns3:TrackPointExtension>
            <ns3:atemp>19.0</ns3:atemp>
          </ns3:TrackPointExtension>
        </extensions>
      </trkpt>
      <trkpt lat="42.581024654209613800048828125" lon="20.01735462807118892669677734375">
        <ele>2005</ele>
        <time>2026-06-15T14:06:41.000Z</time>
        <extensions>
          <ns3:TrackPointExtension>
            <ns3:atemp>19.0</ns3:atemp>
          </ns3:TrackPointExtension>
        </extensions>
      </trkpt>
      <trkpt lat="42.581024654209613800048828125" lon="20.01735462807118892669677734375">
        <ele>2005</ele>
        <time>2026-06-15T14:06:42.000Z</time>
        <extensions>
          <ns3:TrackPointExtension>
            <ns3:atemp>19.0</ns3:atemp>
          </ns3:TrackPointExtension>
        </extensions>
      </trkpt>
      <trkpt lat="42.581024654209613800048828125" lon="20.01735462807118892669677734375">
        <ele>2005</ele>
        <time>2026-06-15T14:06:43.000Z</time>
        <extensions>
          <ns3:TrackPointExtension>
            <ns3:atemp>19.0</ns3:atemp>
          </ns3:TrackPointExtension>
        </extensions>
      </trkpt>
      <trkpt lat="42.581024654209613800048828125" lon="20.01735462807118892669677734375">
        <ele>2005</ele>
        <time>2026-06-15T14:06:44.000Z</time>
        <extensions>
          <ns3:TrackPointExtension>
            <ns3:atemp>19.0</ns3:atemp>
          </ns3:TrackPointExtension>
        </extensions>
      </trkpt>
      <trkpt lat="42.581024654209613800048828125" lon="20.01735462807118892669677734375">
        <ele>2005</ele>
        <time>2026-06-15T14:06:45.000Z</time>
        <extensions>
          <ns3:TrackPointExtension>
            <ns3:atemp>19.0</ns3:atemp>
          </ns3:TrackPointExtension>
        </extensions>
      </trkpt>
      <trkpt lat="42.581024654209613800048828125" lon="20.01735462807118892669677734375">
        <ele>2005</ele>
        <time>2026-06-15T14:06:46.000Z</time>
        <extensions>
          <ns3:TrackPointExtension>
            <ns3:atemp>19.0</ns3:atemp>
          </ns3:TrackPointExtension>
        </extensions>
      </trkpt>
      <trkpt lat="42.581024654209613800048828125" lon="20.01735462807118892669677734375">
        <ele>2005</ele>
        <time>2026-06-15T14:06:47.000Z</time>
        <extensions>
          <ns3:TrackPointExtension>
            <ns3:atemp>19.0</ns3:atemp>
          </ns3:TrackPointExtension>
        </extensions>
      </trkpt>
      <trkpt lat="42.581024654209613800048828125" lon="20.01735462807118892669677734375">
        <ele>2005</ele>
        <time>2026-06-15T14:06:48.000Z</time>
        <extensions>
          <ns3:TrackPointExtension>
            <ns3:atemp>19.0</ns3:atemp>
          </ns3:TrackPointExtension>
        </extensions>
      </trkpt>
      <trkpt lat="42.581024654209613800048828125" lon="20.01735462807118892669677734375">
        <ele>2005</ele>
        <time>2026-06-15T14:06:49.000Z</time>
        <extensions>
          <ns3:TrackPointExtension>
            <ns3:atemp>19.0</ns3:atemp>
          </ns3:TrackPointExtension>
        </extensions>
      </trkpt>
      <trkpt lat="42.581024654209613800048828125" lon="20.01735462807118892669677734375">
        <ele>2005</ele>
        <time>2026-06-15T14:06:50.000Z</time>
        <extensions>
          <ns3:TrackPointExtension>
            <ns3:atemp>19.0</ns3:atemp>
          </ns3:TrackPointExtension>
        </extensions>
      </trkpt>
      <trkpt lat="42.581024654209613800048828125" lon="20.01735462807118892669677734375">
        <ele>2005</ele>
        <time>2026-06-15T14:06:51.000Z</time>
        <extensions>
          <ns3:TrackPointExtension>
            <ns3:atemp>19.0</ns3:atemp>
          </ns3:TrackPointExtension>
        </extensions>
      </trkpt>
      <trkpt lat="42.581024654209613800048828125" lon="20.01735462807118892669677734375">
        <ele>2005</ele>
        <time>2026-06-15T14:06:52.000Z</time>
        <extensions>
          <ns3:TrackPointExtension>
            <ns3:atemp>19.0</ns3:atemp>
          </ns3:TrackPointExtension>
        </extensions>
      </trkpt>
      <trkpt lat="42.581024654209613800048828125" lon="20.01735462807118892669677734375">
        <ele>2005</ele>
        <time>2026-06-15T14:06:53.000Z</time>
        <extensions>
          <ns3:TrackPointExtension>
            <ns3:atemp>19.0</ns3:atemp>
          </ns3:TrackPointExtension>
        </extensions>
      </trkpt>
      <trkpt lat="42.581024654209613800048828125" lon="20.01735462807118892669677734375">
        <ele>2005</ele>
        <time>2026-06-15T14:06:54.000Z</time>
        <extensions>
          <ns3:TrackPointExtension>
            <ns3:atemp>19.0</ns3:atemp>
          </ns3:TrackPointExtension>
        </extensions>
      </trkpt>
      <trkpt lat="42.581024654209613800048828125" lon="20.01735462807118892669677734375">
        <ele>2005</ele>
        <time>2026-06-15T14:06:55.000Z</time>
        <extensions>
          <ns3:TrackPointExtension>
            <ns3:atemp>19.0</ns3:atemp>
          </ns3:TrackPointExtension>
        </extensions>
      </trkpt>
      <trkpt lat="42.581024654209613800048828125" lon="20.01735462807118892669677734375">
        <ele>2005</ele>
        <time>2026-06-15T14:06:56.000Z</time>
        <extensions>
          <ns3:TrackPointExtension>
            <ns3:atemp>19.0</ns3:atemp>
          </ns3:TrackPointExtension>
        </extensions>
      </trkpt>
      <trkpt lat="42.581024654209613800048828125" lon="20.01735462807118892669677734375">
        <ele>2005</ele>
        <time>2026-06-15T14:06:57.000Z</time>
        <extensions>
          <ns3:TrackPointExtension>
            <ns3:atemp>19.0</ns3:atemp>
          </ns3:TrackPointExtension>
        </extensions>
      </trkpt>
      <trkpt lat="42.581024654209613800048828125" lon="20.01735462807118892669677734375">
        <ele>2005</ele>
        <time>2026-06-15T14:06:58.000Z</time>
        <extensions>
          <ns3:TrackPointExtension>
            <ns3:atemp>19.0</ns3:atemp>
          </ns3:TrackPointExtension>
        </extensions>
      </trkpt>
      <trkpt lat="42.581024654209613800048828125" lon="20.01735462807118892669677734375">
        <ele>2005</ele>
        <time>2026-06-15T14:06:59.000Z</time>
        <extensions>
          <ns3:TrackPointExtension>
            <ns3:atemp>19.0</ns3:atemp>
          </ns3:TrackPointExtension>
        </extensions>
      </trkpt>
      <trkpt lat="42.581024654209613800048828125" lon="20.01735462807118892669677734375">
        <ele>2005</ele>
        <time>2026-06-15T14:07:00.000Z</time>
        <extensions>
          <ns3:TrackPointExtension>
            <ns3:atemp>19.0</ns3:atemp>
          </ns3:TrackPointExtension>
        </extensions>
      </trkpt>
      <trkpt lat="42.581024654209613800048828125" lon="20.01735462807118892669677734375">
        <ele>2005</ele>
        <time>2026-06-15T14:07:01.000Z</time>
        <extensions>
          <ns3:TrackPointExtension>
            <ns3:atemp>19.0</ns3:atemp>
          </ns3:TrackPointExtension>
        </extensions>
      </trkpt>
      <trkpt lat="42.581024654209613800048828125" lon="20.01735462807118892669677734375">
        <ele>2005</ele>
        <time>2026-06-15T14:07:02.000Z</time>
        <extensions>
          <ns3:TrackPointExtension>
            <ns3:atemp>19.0</ns3:atemp>
          </ns3:TrackPointExtension>
        </extensions>
      </trkpt>
      <trkpt lat="42.581024654209613800048828125" lon="20.01735462807118892669677734375">
        <ele>2005</ele>
        <time>2026-06-15T14:07:03.000Z</time>
        <extensions>
          <ns3:TrackPointExtension>
            <ns3:atemp>19.0</ns3:atemp>
          </ns3:TrackPointExtension>
        </extensions>
      </trkpt>
      <trkpt lat="42.581024654209613800048828125" lon="20.01735462807118892669677734375">
        <ele>2005</ele>
        <time>2026-06-15T14:07:04.000Z</time>
        <extensions>
          <ns3:TrackPointExtension>
            <ns3:atemp>19.0</ns3:atemp>
          </ns3:TrackPointExtension>
        </extensions>
      </trkpt>
      <trkpt lat="42.581024654209613800048828125" lon="20.01735462807118892669677734375">
        <ele>2005</ele>
        <time>2026-06-15T14:07:05.000Z</time>
        <extensions>
          <ns3:TrackPointExtension>
            <ns3:atemp>19.0</ns3:atemp>
          </ns3:TrackPointExtension>
        </extensions>
      </trkpt>
      <trkpt lat="42.581024654209613800048828125" lon="20.01735462807118892669677734375">
        <ele>2005</ele>
        <time>2026-06-15T14:07:06.000Z</time>
        <extensions>
          <ns3:TrackPointExtension>
            <ns3:atemp>19.0</ns3:atemp>
          </ns3:TrackPointExtension>
        </extensions>
      </trkpt>
      <trkpt lat="42.581024654209613800048828125" lon="20.01735462807118892669677734375">
        <ele>2005</ele>
        <time>2026-06-15T14:07:07.000Z</time>
        <extensions>
          <ns3:TrackPointExtension>
            <ns3:atemp>19.0</ns3:atemp>
          </ns3:TrackPointExtension>
        </extensions>
      </trkpt>
      <trkpt lat="42.581024654209613800048828125" lon="20.01735462807118892669677734375">
        <ele>2005</ele>
        <time>2026-06-15T14:07:08.000Z</time>
        <extensions>
          <ns3:TrackPointExtension>
            <ns3:atemp>19.0</ns3:atemp>
          </ns3:TrackPointExtension>
        </extensions>
      </trkpt>
      <trkpt lat="42.581024654209613800048828125" lon="20.01735462807118892669677734375">
        <ele>2005</ele>
        <time>2026-06-15T14:07:09.000Z</time>
        <extensions>
          <ns3:TrackPointExtension>
            <ns3:atemp>19.0</ns3:atemp>
          </ns3:TrackPointExtension>
        </extensions>
      </trkpt>
      <trkpt lat="42.581024654209613800048828125" lon="20.01735462807118892669677734375">
        <ele>2005</ele>
        <time>2026-06-15T14:07:10.000Z</time>
        <extensions>
          <ns3:TrackPointExtension>
            <ns3:atemp>19.0</ns3:atemp>
          </ns3:TrackPointExtension>
        </extensions>
      </trkpt>
      <trkpt lat="42.581024654209613800048828125" lon="20.01735462807118892669677734375">
        <ele>2005</ele>
        <time>2026-06-15T14:07:11.000Z</time>
        <extensions>
          <ns3:TrackPointExtension>
            <ns3:atemp>19.0</ns3:atemp>
          </ns3:TrackPointExtension>
        </extensions>
      </trkpt>
      <trkpt lat="42.581024654209613800048828125" lon="20.01735462807118892669677734375">
        <ele>2005</ele>
        <time>2026-06-15T14:07:12.000Z</time>
        <extensions>
          <ns3:TrackPointExtension>
            <ns3:atemp>19.0</ns3:atemp>
          </ns3:TrackPointExtension>
        </extensions>
      </trkpt>
      <trkpt lat="42.581024654209613800048828125" lon="20.01735462807118892669677734375">
        <ele>2005</ele>
        <time>2026-06-15T14:07:13.000Z</time>
        <extensions>
          <ns3:TrackPointExtension>
            <ns3:atemp>19.0</ns3:atemp>
          </ns3:TrackPointExtension>
        </extensions>
      </trkpt>
      <trkpt lat="42.581024654209613800048828125" lon="20.01735462807118892669677734375">
        <ele>2005</ele>
        <time>2026-06-15T14:07:14.000Z</time>
        <extensions>
          <ns3:TrackPointExtension>
            <ns3:atemp>19.0</ns3:atemp>
          </ns3:TrackPointExtension>
        </extensions>
      </trkpt>
      <trkpt lat="42.581024654209613800048828125" lon="20.01735462807118892669677734375">
        <ele>2005</ele>
        <time>2026-06-15T14:07:15.000Z</time>
        <extensions>
          <ns3:TrackPointExtension>
            <ns3:atemp>19.0</ns3:atemp>
          </ns3:TrackPointExtension>
        </extensions>
      </trkpt>
      <trkpt lat="42.581024654209613800048828125" lon="20.01735462807118892669677734375">
        <ele>2005</ele>
        <time>2026-06-15T14:07:16.000Z</time>
        <extensions>
          <ns3:TrackPointExtension>
            <ns3:atemp>19.0</ns3:atemp>
          </ns3:TrackPointExtension>
        </extensions>
      </trkpt>
      <trkpt lat="42.581024654209613800048828125" lon="20.01735462807118892669677734375">
        <ele>2005</ele>
        <time>2026-06-15T14:07:17.000Z</time>
        <extensions>
          <ns3:TrackPointExtension>
            <ns3:atemp>19.0</ns3:atemp>
          </ns3:TrackPointExtension>
        </extensions>
      </trkpt>
      <trkpt lat="42.581024654209613800048828125" lon="20.01735462807118892669677734375">
        <ele>2005</ele>
        <time>2026-06-15T14:07:18.000Z</time>
        <extensions>
          <ns3:TrackPointExtension>
            <ns3:atemp>19.0</ns3:atemp>
          </ns3:TrackPointExtension>
        </extensions>
      </trkpt>
      <trkpt lat="42.581024654209613800048828125" lon="20.01735462807118892669677734375">
        <ele>2005</ele>
        <time>2026-06-15T14:07:19.000Z</time>
        <extensions>
          <ns3:TrackPointExtension>
            <ns3:atemp>19.0</ns3:atemp>
          </ns3:TrackPointExtension>
        </extensions>
      </trkpt>
      <trkpt lat="42.581024654209613800048828125" lon="20.01735462807118892669677734375">
        <ele>2005</ele>
        <time>2026-06-15T14:07:20.000Z</time>
        <extensions>
          <ns3:TrackPointExtension>
            <ns3:atemp>19.0</ns3:atemp>
          </ns3:TrackPointExtension>
        </extensions>
      </trkpt>
      <trkpt lat="42.581024654209613800048828125" lon="20.01735462807118892669677734375">
        <ele>2005</ele>
        <time>2026-06-15T14:07:21.000Z</time>
        <extensions>
          <ns3:TrackPointExtension>
            <ns3:atemp>19.0</ns3:atemp>
          </ns3:TrackPointExtension>
        </extensions>
      </trkpt>
      <trkpt lat="42.581024654209613800048828125" lon="20.01735462807118892669677734375">
        <ele>2005</ele>
        <time>2026-06-15T14:07:22.000Z</time>
        <extensions>
          <ns3:TrackPointExtension>
            <ns3:atemp>19.0</ns3:atemp>
          </ns3:TrackPointExtension>
        </extensions>
      </trkpt>
      <trkpt lat="42.581024654209613800048828125" lon="20.01735462807118892669677734375">
        <ele>2005</ele>
        <time>2026-06-15T14:07:23.000Z</time>
        <extensions>
          <ns3:TrackPointExtension>
            <ns3:atemp>19.0</ns3:atemp>
          </ns3:TrackPointExtension>
        </extensions>
      </trkpt>
      <trkpt lat="42.581024654209613800048828125" lon="20.01735462807118892669677734375">
        <ele>2005</ele>
        <time>2026-06-15T14:07:24.000Z</time>
        <extensions>
          <ns3:TrackPointExtension>
            <ns3:atemp>19.0</ns3:atemp>
          </ns3:TrackPointExtension>
        </extensions>
      </trkpt>
      <trkpt lat="42.581024654209613800048828125" lon="20.01735462807118892669677734375">
        <ele>2005</ele>
        <time>2026-06-15T14:07:25.000Z</time>
        <extensions>
          <ns3:TrackPointExtension>
            <ns3:atemp>19.0</ns3:atemp>
          </ns3:TrackPointExtension>
        </extensions>
      </trkpt>
      <trkpt lat="42.581024654209613800048828125" lon="20.01735462807118892669677734375">
        <ele>2005</ele>
        <time>2026-06-15T14:07:26.000Z</time>
        <extensions>
          <ns3:TrackPointExtension>
            <ns3:atemp>19.0</ns3:atemp>
          </ns3:TrackPointExtension>
        </extensions>
      </trkpt>
      <trkpt lat="42.581024654209613800048828125" lon="20.01735462807118892669677734375">
        <ele>2005</ele>
        <time>2026-06-15T14:07:27.000Z</time>
        <extensions>
          <ns3:TrackPointExtension>
            <ns3:atemp>19.0</ns3:atemp>
          </ns3:TrackPointExtension>
        </extensions>
      </trkpt>
      <trkpt lat="42.581024654209613800048828125" lon="20.01735462807118892669677734375">
        <ele>2005</ele>
        <time>2026-06-15T14:07:28.000Z</time>
        <extensions>
          <ns3:TrackPointExtension>
            <ns3:atemp>19.0</ns3:atemp>
          </ns3:TrackPointExtension>
        </extensions>
      </trkpt>
      <trkpt lat="42.581024654209613800048828125" lon="20.01735462807118892669677734375">
        <ele>2005</ele>
        <time>2026-06-15T14:07:29.000Z</time>
        <extensions>
          <ns3:TrackPointExtension>
            <ns3:atemp>19.0</ns3:atemp>
          </ns3:TrackPointExtension>
        </extensions>
      </trkpt>
      <trkpt lat="42.581024654209613800048828125" lon="20.01735462807118892669677734375">
        <ele>2005</ele>
        <time>2026-06-15T14:07:30.000Z</time>
        <extensions>
          <ns3:TrackPointExtension>
            <ns3:atemp>19.0</ns3:atemp>
          </ns3:TrackPointExtension>
        </extensions>
      </trkpt>
      <trkpt lat="42.581024654209613800048828125" lon="20.01735462807118892669677734375">
        <ele>2005</ele>
        <time>2026-06-15T14:07:31.000Z</time>
        <extensions>
          <ns3:TrackPointExtension>
            <ns3:atemp>19.0</ns3:atemp>
          </ns3:TrackPointExtension>
        </extensions>
      </trkpt>
      <trkpt lat="42.581024654209613800048828125" lon="20.01735462807118892669677734375">
        <ele>2005</ele>
        <time>2026-06-15T14:07:32.000Z</time>
        <extensions>
          <ns3:TrackPointExtension>
            <ns3:atemp>19.0</ns3:atemp>
          </ns3:TrackPointExtension>
        </extensions>
      </trkpt>
      <trkpt lat="42.581024654209613800048828125" lon="20.01735462807118892669677734375">
        <ele>2005</ele>
        <time>2026-06-15T14:07:33.000Z</time>
        <extensions>
          <ns3:TrackPointExtension>
            <ns3:atemp>19.0</ns3:atemp>
          </ns3:TrackPointExtension>
        </extensions>
      </trkpt>
      <trkpt lat="42.581024654209613800048828125" lon="20.01735462807118892669677734375">
        <ele>2005</ele>
        <time>2026-06-15T14:07:34.000Z</time>
        <extensions>
          <ns3:TrackPointExtension>
            <ns3:atemp>18.0</ns3:atemp>
          </ns3:TrackPointExtension>
        </extensions>
      </trkpt>
      <trkpt lat="42.581024654209613800048828125" lon="20.01735462807118892669677734375">
        <ele>2005</ele>
        <time>2026-06-15T14:07:35.000Z</time>
        <extensions>
          <ns3:TrackPointExtension>
            <ns3:atemp>18.0</ns3:atemp>
          </ns3:TrackPointExtension>
        </extensions>
      </trkpt>
      <trkpt lat="42.581024654209613800048828125" lon="20.01735462807118892669677734375">
        <ele>2005</ele>
        <time>2026-06-15T14:07:36.000Z</time>
        <extensions>
          <ns3:TrackPointExtension>
            <ns3:atemp>18.0</ns3:atemp>
          </ns3:TrackPointExtension>
        </extensions>
      </trkpt>
      <trkpt lat="42.581024654209613800048828125" lon="20.01735462807118892669677734375">
        <ele>2005</ele>
        <time>2026-06-15T14:07:37.000Z</time>
        <extensions>
          <ns3:TrackPointExtension>
            <ns3:atemp>18.0</ns3:atemp>
          </ns3:TrackPointExtension>
        </extensions>
      </trkpt>
      <trkpt lat="42.581024654209613800048828125" lon="20.01735462807118892669677734375">
        <ele>2005</ele>
        <time>2026-06-15T14:07:38.000Z</time>
        <extensions>
          <ns3:TrackPointExtension>
            <ns3:atemp>18.0</ns3:atemp>
          </ns3:TrackPointExtension>
        </extensions>
      </trkpt>
      <trkpt lat="42.581024654209613800048828125" lon="20.01735462807118892669677734375">
        <ele>2005</ele>
        <time>2026-06-15T14:07:39.000Z</time>
        <extensions>
          <ns3:TrackPointExtension>
            <ns3:atemp>18.0</ns3:atemp>
          </ns3:TrackPointExtension>
        </extensions>
      </trkpt>
      <trkpt lat="42.581024654209613800048828125" lon="20.01735462807118892669677734375">
        <ele>2005</ele>
        <time>2026-06-15T14:07:40.000Z</time>
        <extensions>
          <ns3:TrackPointExtension>
            <ns3:atemp>18.0</ns3:atemp>
          </ns3:TrackPointExtension>
        </extensions>
      </trkpt>
      <trkpt lat="42.581024654209613800048828125" lon="20.01735462807118892669677734375">
        <ele>2005</ele>
        <time>2026-06-15T14:07:41.000Z</time>
        <extensions>
          <ns3:TrackPointExtension>
            <ns3:atemp>18.0</ns3:atemp>
          </ns3:TrackPointExtension>
        </extensions>
      </trkpt>
      <trkpt lat="42.581024654209613800048828125" lon="20.01735462807118892669677734375">
        <ele>2005</ele>
        <time>2026-06-15T14:07:42.000Z</time>
        <extensions>
          <ns3:TrackPointExtension>
            <ns3:atemp>18.0</ns3:atemp>
          </ns3:TrackPointExtension>
        </extensions>
      </trkpt>
      <trkpt lat="42.581024654209613800048828125" lon="20.01735462807118892669677734375">
        <ele>2005</ele>
        <time>2026-06-15T14:07:43.000Z</time>
        <extensions>
          <ns3:TrackPointExtension>
            <ns3:atemp>18.0</ns3:atemp>
          </ns3:TrackPointExtension>
        </extensions>
      </trkpt>
      <trkpt lat="42.581024654209613800048828125" lon="20.01735462807118892669677734375">
        <ele>2005</ele>
        <time>2026-06-15T14:07:44.000Z</time>
        <extensions>
          <ns3:TrackPointExtension>
            <ns3:atemp>18.0</ns3:atemp>
          </ns3:TrackPointExtension>
        </extensions>
      </trkpt>
      <trkpt lat="42.581024654209613800048828125" lon="20.01735462807118892669677734375">
        <ele>2005</ele>
        <time>2026-06-15T14:07:45.000Z</time>
        <extensions>
          <ns3:TrackPointExtension>
            <ns3:atemp>18.0</ns3:atemp>
          </ns3:TrackPointExtension>
        </extensions>
      </trkpt>
      <trkpt lat="42.581024654209613800048828125" lon="20.01735462807118892669677734375">
        <ele>2005</ele>
        <time>2026-06-15T14:07:46.000Z</time>
        <extensions>
          <ns3:TrackPointExtension>
            <ns3:atemp>18.0</ns3:atemp>
          </ns3:TrackPointExtension>
        </extensions>
      </trkpt>
      <trkpt lat="42.581024654209613800048828125" lon="20.01735462807118892669677734375">
        <ele>2005</ele>
        <time>2026-06-15T14:07:47.000Z</time>
        <extensions>
          <ns3:TrackPointExtension>
            <ns3:atemp>18.0</ns3:atemp>
          </ns3:TrackPointExtension>
        </extensions>
      </trkpt>
      <trkpt lat="42.581024654209613800048828125" lon="20.01735462807118892669677734375">
        <ele>2005</ele>
        <time>2026-06-15T14:07:48.000Z</time>
        <extensions>
          <ns3:TrackPointExtension>
            <ns3:atemp>18.0</ns3:atemp>
          </ns3:TrackPointExtension>
        </extensions>
      </trkpt>
      <trkpt lat="42.581024654209613800048828125" lon="20.01735462807118892669677734375">
        <ele>2005</ele>
        <time>2026-06-15T14:07:49.000Z</time>
        <extensions>
          <ns3:TrackPointExtension>
            <ns3:atemp>18.0</ns3:atemp>
          </ns3:TrackPointExtension>
        </extensions>
      </trkpt>
      <trkpt lat="42.581024654209613800048828125" lon="20.01735462807118892669677734375">
        <ele>2005</ele>
        <time>2026-06-15T14:07:50.000Z</time>
        <extensions>
          <ns3:TrackPointExtension>
            <ns3:atemp>18.0</ns3:atemp>
          </ns3:TrackPointExtension>
        </extensions>
      </trkpt>
      <trkpt lat="42.581024654209613800048828125" lon="20.01735462807118892669677734375">
        <ele>2005</ele>
        <time>2026-06-15T14:07:51.000Z</time>
        <extensions>
          <ns3:TrackPointExtension>
            <ns3:atemp>18.0</ns3:atemp>
          </ns3:TrackPointExtension>
        </extensions>
      </trkpt>
      <trkpt lat="42.581024654209613800048828125" lon="20.01735462807118892669677734375">
        <ele>2005</ele>
        <time>2026-06-15T14:07:52.000Z</time>
        <extensions>
          <ns3:TrackPointExtension>
            <ns3:atemp>18.0</ns3:atemp>
          </ns3:TrackPointExtension>
        </extensions>
      </trkpt>
      <trkpt lat="42.581024654209613800048828125" lon="20.01735462807118892669677734375">
        <ele>2005</ele>
        <time>2026-06-15T14:07:53.000Z</time>
        <extensions>
          <ns3:TrackPointExtension>
            <ns3:atemp>18.0</ns3:atemp>
          </ns3:TrackPointExtension>
        </extensions>
      </trkpt>
      <trkpt lat="42.581024654209613800048828125" lon="20.01735462807118892669677734375">
        <ele>2005</ele>
        <time>2026-06-15T14:07:54.000Z</time>
        <extensions>
          <ns3:TrackPointExtension>
            <ns3:atemp>18.0</ns3:atemp>
          </ns3:TrackPointExtension>
        </extensions>
      </trkpt>
      <trkpt lat="42.581024654209613800048828125" lon="20.01735462807118892669677734375">
        <ele>2005</ele>
        <time>2026-06-15T14:07:55.000Z</time>
        <extensions>
          <ns3:TrackPointExtension>
            <ns3:atemp>18.0</ns3:atemp>
          </ns3:TrackPointExtension>
        </extensions>
      </trkpt>
      <trkpt lat="42.581024654209613800048828125" lon="20.01735462807118892669677734375">
        <ele>2005</ele>
        <time>2026-06-15T14:07:56.000Z</time>
        <extensions>
          <ns3:TrackPointExtension>
            <ns3:atemp>18.0</ns3:atemp>
          </ns3:TrackPointExtension>
        </extensions>
      </trkpt>
      <trkpt lat="42.581024654209613800048828125" lon="20.01735462807118892669677734375">
        <ele>2005</ele>
        <time>2026-06-15T14:07:57.000Z</time>
        <extensions>
          <ns3:TrackPointExtension>
            <ns3:atemp>18.0</ns3:atemp>
          </ns3:TrackPointExtension>
        </extensions>
      </trkpt>
      <trkpt lat="42.581024654209613800048828125" lon="20.01735462807118892669677734375">
        <ele>2005</ele>
        <time>2026-06-15T14:07:58.000Z</time>
        <extensions>
          <ns3:TrackPointExtension>
            <ns3:atemp>18.0</ns3:atemp>
          </ns3:TrackPointExtension>
        </extensions>
      </trkpt>
      <trkpt lat="42.581024654209613800048828125" lon="20.01735462807118892669677734375">
        <ele>2005</ele>
        <time>2026-06-15T14:07:59.000Z</time>
        <extensions>
          <ns3:TrackPointExtension>
            <ns3:atemp>18.0</ns3:atemp>
          </ns3:TrackPointExtension>
        </extensions>
      </trkpt>
      <trkpt lat="42.581024654209613800048828125" lon="20.01735462807118892669677734375">
        <ele>2005</ele>
        <time>2026-06-15T14:08:00.000Z</time>
        <extensions>
          <ns3:TrackPointExtension>
            <ns3:atemp>18.0</ns3:atemp>
          </ns3:TrackPointExtension>
        </extensions>
      </trkpt>
      <trkpt lat="42.581024654209613800048828125" lon="20.01735462807118892669677734375">
        <ele>2005</ele>
        <time>2026-06-15T14:08:01.000Z</time>
        <extensions>
          <ns3:TrackPointExtension>
            <ns3:atemp>18.0</ns3:atemp>
          </ns3:TrackPointExtension>
        </extensions>
      </trkpt>
      <trkpt lat="42.581024654209613800048828125" lon="20.01735462807118892669677734375">
        <ele>2005</ele>
        <time>2026-06-15T14:08:02.000Z</time>
        <extensions>
          <ns3:TrackPointExtension>
            <ns3:atemp>18.0</ns3:atemp>
          </ns3:TrackPointExtension>
        </extensions>
      </trkpt>
      <trkpt lat="42.581024654209613800048828125" lon="20.01735462807118892669677734375">
        <ele>2005</ele>
        <time>2026-06-15T14:08:03.000Z</time>
        <extensions>
          <ns3:TrackPointExtension>
            <ns3:atemp>18.0</ns3:atemp>
          </ns3:TrackPointExtension>
        </extensions>
      </trkpt>
      <trkpt lat="42.581024654209613800048828125" lon="20.01735462807118892669677734375">
        <ele>2005</ele>
        <time>2026-06-15T14:08:04.000Z</time>
        <extensions>
          <ns3:TrackPointExtension>
            <ns3:atemp>18.0</ns3:atemp>
          </ns3:TrackPointExtension>
        </extensions>
      </trkpt>
      <trkpt lat="42.581024654209613800048828125" lon="20.01735462807118892669677734375">
        <ele>2005</ele>
        <time>2026-06-15T14:08:05.000Z</time>
        <extensions>
          <ns3:TrackPointExtension>
            <ns3:atemp>18.0</ns3:atemp>
          </ns3:TrackPointExtension>
        </extensions>
      </trkpt>
      <trkpt lat="42.581024654209613800048828125" lon="20.01735462807118892669677734375">
        <ele>2005</ele>
        <time>2026-06-15T14:08:06.000Z</time>
        <extensions>
          <ns3:TrackPointExtension>
            <ns3:atemp>18.0</ns3:atemp>
          </ns3:TrackPointExtension>
        </extensions>
      </trkpt>
      <trkpt lat="42.581024654209613800048828125" lon="20.01735462807118892669677734375">
        <ele>2005</ele>
        <time>2026-06-15T14:08:07.000Z</time>
        <extensions>
          <ns3:TrackPointExtension>
            <ns3:atemp>18.0</ns3:atemp>
          </ns3:TrackPointExtension>
        </extensions>
      </trkpt>
      <trkpt lat="42.581024654209613800048828125" lon="20.01735462807118892669677734375">
        <ele>2005</ele>
        <time>2026-06-15T14:08:08.000Z</time>
        <extensions>
          <ns3:TrackPointExtension>
            <ns3:atemp>18.0</ns3:atemp>
          </ns3:TrackPointExtension>
        </extensions>
      </trkpt>
      <trkpt lat="42.581024654209613800048828125" lon="20.01735462807118892669677734375">
        <ele>2005</ele>
        <time>2026-06-15T14:08:09.000Z</time>
        <extensions>
          <ns3:TrackPointExtension>
            <ns3:atemp>18.0</ns3:atemp>
          </ns3:TrackPointExtension>
        </extensions>
      </trkpt>
      <trkpt lat="42.581024654209613800048828125" lon="20.01735462807118892669677734375">
        <ele>2005</ele>
        <time>2026-06-15T14:08:10.000Z</time>
        <extensions>
          <ns3:TrackPointExtension>
            <ns3:atemp>18.0</ns3:atemp>
          </ns3:TrackPointExtension>
        </extensions>
      </trkpt>
      <trkpt lat="42.581024654209613800048828125" lon="20.01735462807118892669677734375">
        <ele>2005</ele>
        <time>2026-06-15T14:08:11.000Z</time>
        <extensions>
          <ns3:TrackPointExtension>
            <ns3:atemp>18.0</ns3:atemp>
          </ns3:TrackPointExtension>
        </extensions>
      </trkpt>
      <trkpt lat="42.581024654209613800048828125" lon="20.01735462807118892669677734375">
        <ele>2005</ele>
        <time>2026-06-15T14:08:12.000Z</time>
        <extensions>
          <ns3:TrackPointExtension>
            <ns3:atemp>18.0</ns3:atemp>
          </ns3:TrackPointExtension>
        </extensions>
      </trkpt>
      <trkpt lat="42.581024654209613800048828125" lon="20.01735462807118892669677734375">
        <ele>2005</ele>
        <time>2026-06-15T14:08:13.000Z</time>
        <extensions>
          <ns3:TrackPointExtension>
            <ns3:atemp>18.0</ns3:atemp>
          </ns3:TrackPointExtension>
        </extensions>
      </trkpt>
      <trkpt lat="42.581024654209613800048828125" lon="20.01735462807118892669677734375">
        <ele>2005</ele>
        <time>2026-06-15T14:08:14.000Z</time>
        <extensions>
          <ns3:TrackPointExtension>
            <ns3:atemp>18.0</ns3:atemp>
          </ns3:TrackPointExtension>
        </extensions>
      </trkpt>
      <trkpt lat="42.581024654209613800048828125" lon="20.01735462807118892669677734375">
        <ele>2005</ele>
        <time>2026-06-15T14:08:15.000Z</time>
        <extensions>
          <ns3:TrackPointExtension>
            <ns3:atemp>18.0</ns3:atemp>
          </ns3:TrackPointExtension>
        </extensions>
      </trkpt>
      <trkpt lat="42.581024654209613800048828125" lon="20.01735462807118892669677734375">
        <ele>2005</ele>
        <time>2026-06-15T14:08:16.000Z</time>
        <extensions>
          <ns3:TrackPointExtension>
            <ns3:atemp>18.0</ns3:atemp>
          </ns3:TrackPointExtension>
        </extensions>
      </trkpt>
      <trkpt lat="42.581024654209613800048828125" lon="20.01735462807118892669677734375">
        <ele>2005</ele>
        <time>2026-06-15T14:08:17.000Z</time>
        <extensions>
          <ns3:TrackPointExtension>
            <ns3:atemp>18.0</ns3:atemp>
          </ns3:TrackPointExtension>
        </extensions>
      </trkpt>
      <trkpt lat="42.581024654209613800048828125" lon="20.01735462807118892669677734375">
        <ele>2005</ele>
        <time>2026-06-15T14:08:18.000Z</time>
        <extensions>
          <ns3:TrackPointExtension>
            <ns3:atemp>18.0</ns3:atemp>
          </ns3:TrackPointExtension>
        </extensions>
      </trkpt>
      <trkpt lat="42.581024654209613800048828125" lon="20.01735462807118892669677734375">
        <ele>2005</ele>
        <time>2026-06-15T14:08:19.000Z</time>
        <extensions>
          <ns3:TrackPointExtension>
            <ns3:atemp>18.0</ns3:atemp>
          </ns3:TrackPointExtension>
        </extensions>
      </trkpt>
      <trkpt lat="42.581024654209613800048828125" lon="20.01735462807118892669677734375">
        <ele>2005</ele>
        <time>2026-06-15T14:08:20.000Z</time>
        <extensions>
          <ns3:TrackPointExtension>
            <ns3:atemp>18.0</ns3:atemp>
          </ns3:TrackPointExtension>
        </extensions>
      </trkpt>
      <trkpt lat="42.581024654209613800048828125" lon="20.01735462807118892669677734375">
        <ele>2005</ele>
        <time>2026-06-15T14:08:21.000Z</time>
        <extensions>
          <ns3:TrackPointExtension>
            <ns3:atemp>18.0</ns3:atemp>
          </ns3:TrackPointExtension>
        </extensions>
      </trkpt>
      <trkpt lat="42.581024654209613800048828125" lon="20.01735462807118892669677734375">
        <ele>2005</ele>
        <time>2026-06-15T14:08:22.000Z</time>
        <extensions>
          <ns3:TrackPointExtension>
            <ns3:atemp>18.0</ns3:atemp>
          </ns3:TrackPointExtension>
        </extensions>
      </trkpt>
      <trkpt lat="42.581024654209613800048828125" lon="20.01735462807118892669677734375">
        <ele>2005</ele>
        <time>2026-06-15T14:08:23.000Z</time>
        <extensions>
          <ns3:TrackPointExtension>
            <ns3:atemp>18.0</ns3:atemp>
          </ns3:TrackPointExtension>
        </extensions>
      </trkpt>
      <trkpt lat="42.581024654209613800048828125" lon="20.01735462807118892669677734375">
        <ele>2005</ele>
        <time>2026-06-15T14:08:24.000Z</time>
        <extensions>
          <ns3:TrackPointExtension>
            <ns3:atemp>18.0</ns3:atemp>
          </ns3:TrackPointExtension>
        </extensions>
      </trkpt>
      <trkpt lat="42.581024654209613800048828125" lon="20.01735462807118892669677734375">
        <ele>2005</ele>
        <time>2026-06-15T14:08:25.000Z</time>
        <extensions>
          <ns3:TrackPointExtension>
            <ns3:atemp>18.0</ns3:atemp>
          </ns3:TrackPointExtension>
        </extensions>
      </trkpt>
      <trkpt lat="42.581024654209613800048828125" lon="20.01735462807118892669677734375">
        <ele>2005</ele>
        <time>2026-06-15T14:08:26.000Z</time>
        <extensions>
          <ns3:TrackPointExtension>
            <ns3:atemp>18.0</ns3:atemp>
          </ns3:TrackPointExtension>
        </extensions>
      </trkpt>
      <trkpt lat="42.581024654209613800048828125" lon="20.01735462807118892669677734375">
        <ele>2005</ele>
        <time>2026-06-15T14:08:27.000Z</time>
        <extensions>
          <ns3:TrackPointExtension>
            <ns3:atemp>18.0</ns3:atemp>
          </ns3:TrackPointExtension>
        </extensions>
      </trkpt>
      <trkpt lat="42.58102725259959697723388671875" lon="20.01735127530992031097412109375">
        <ele>2005</ele>
        <time>2026-06-15T14:08:28.000Z</time>
        <extensions>
          <ns3:TrackPointExtension>
            <ns3:atemp>18.0</ns3:atemp>
          </ns3:TrackPointExtension>
        </extensions>
      </trkpt>
      <trkpt lat="42.5810278393328189849853515625" lon="20.0173602439463138580322265625">
        <ele>2005</ele>
        <time>2026-06-15T14:08:29.000Z</time>
        <extensions>
          <ns3:TrackPointExtension>
            <ns3:atemp>18.0</ns3:atemp>
          </ns3:TrackPointExtension>
        </extensions>
      </trkpt>
      <trkpt lat="42.5810291804373264312744140625" lon="20.017355717718601226806640625">
        <ele>2005</ele>
        <time>2026-06-15T14:08:30.000Z</time>
        <extensions>
          <ns3:TrackPointExtension>
            <ns3:atemp>18.0</ns3:atemp>
          </ns3:TrackPointExtension>
        </extensions>
      </trkpt>
      <trkpt lat="42.58102993480861186981201171875" lon="20.0173485092818737030029296875">
        <ele>2005</ele>
        <time>2026-06-15T14:08:31.000Z</time>
        <extensions>
          <ns3:TrackPointExtension>
            <ns3:atemp>18.0</ns3:atemp>
          </ns3:TrackPointExtension>
        </extensions>
      </trkpt>
      <trkpt lat="42.581024654209613800048828125" lon="20.01735462807118892669677734375">
        <ele>2005</ele>
        <time>2026-06-15T14:08:32.000Z</time>
        <extensions>
          <ns3:TrackPointExtension>
            <ns3:atemp>18.0</ns3:atemp>
          </ns3:TrackPointExtension>
        </extensions>
      </trkpt>
      <trkpt lat="42.581024654209613800048828125" lon="20.01735462807118892669677734375">
        <ele>2005</ele>
        <time>2026-06-15T14:08:33.000Z</time>
        <extensions>
          <ns3:TrackPointExtension>
            <ns3:atemp>18.0</ns3:atemp>
          </ns3:TrackPointExtension>
        </extensions>
      </trkpt>
      <trkpt lat="42.58103412576019763946533203125" lon="20.01734624616801738739013671875">
        <ele>2005</ele>
        <time>2026-06-15T14:08:34.000Z</time>
        <extensions>
          <ns3:TrackPointExtension>
            <ns3:atemp>18.0</ns3:atemp>
          </ns3:TrackPointExtension>
        </extensions>
      </trkpt>
      <trkpt lat="42.58103965781629085540771484375" lon="20.0173401273787021636962890625">
        <ele>2005</ele>
        <time>2026-06-15T14:08:35.000Z</time>
        <extensions>
          <ns3:TrackPointExtension>
            <ns3:atemp>18.0</ns3:atemp>
          </ns3:TrackPointExtension>
        </extensions>
      </trkpt>
      <trkpt lat="42.58104602806270122528076171875" lon="20.0173314101994037628173828125">
        <ele>2005</ele>
        <time>2026-06-15T14:08:36.000Z</time>
        <extensions>
          <ns3:TrackPointExtension>
            <ns3:atemp>18.0</ns3:atemp>
          </ns3:TrackPointExtension>
        </extensions>
      </trkpt>
      <trkpt lat="42.58105449378490447998046875" lon="20.01733057200908660888671875">
        <ele>2005</ele>
        <time>2026-06-15T14:08:37.000Z</time>
        <extensions>
          <ns3:TrackPointExtension>
            <ns3:atemp>18.0</ns3:atemp>
          </ns3:TrackPointExtension>
        </extensions>
      </trkpt>
      <trkpt lat="42.5810591876506805419921875" lon="20.017333589494228363037109375">
        <ele>2005</ele>
        <time>2026-06-15T14:08:38.000Z</time>
        <extensions>
          <ns3:TrackPointExtension>
            <ns3:atemp>18.0</ns3:atemp>
          </ns3:TrackPointExtension>
        </extensions>
      </trkpt>
      <trkpt lat="42.5810591876506805419921875" lon="20.01732847653329372406005859375">
        <ele>2005</ele>
        <time>2026-06-15T14:08:39.000Z</time>
        <extensions>
          <ns3:TrackPointExtension>
            <ns3:atemp>18.0</ns3:atemp>
          </ns3:TrackPointExtension>
        </extensions>
      </trkpt>
      <trkpt lat="42.5810593552887439727783203125" lon="20.0173287279903888702392578125">
        <ele>2005</ele>
        <time>2026-06-15T14:08:40.000Z</time>
        <extensions>
          <ns3:TrackPointExtension>
            <ns3:atemp>18.0</ns3:atemp>
          </ns3:TrackPointExtension>
        </extensions>
      </trkpt>
      <trkpt lat="42.5810593552887439727783203125" lon="20.0173287279903888702392578125">
        <ele>2005</ele>
        <time>2026-06-15T14:08:41.000Z</time>
        <extensions>
          <ns3:TrackPointExtension>
            <ns3:atemp>18.0</ns3:atemp>
          </ns3:TrackPointExtension>
        </extensions>
      </trkpt>
      <trkpt lat="42.5810593552887439727783203125" lon="20.0173287279903888702392578125">
        <ele>2004.800048828125</ele>
        <time>2026-06-15T14:08:42.000Z</time>
        <extensions>
          <ns3:TrackPointExtension>
            <ns3:atemp>18.0</ns3:atemp>
          </ns3:TrackPointExtension>
        </extensions>
      </trkpt>
      <trkpt lat="42.5810593552887439727783203125" lon="20.0173287279903888702392578125">
        <ele>2004.800048828125</ele>
        <time>2026-06-15T14:08:43.000Z</time>
        <extensions>
          <ns3:TrackPointExtension>
            <ns3:atemp>18.0</ns3:atemp>
          </ns3:TrackPointExtension>
        </extensions>
      </trkpt>
      <trkpt lat="42.5810593552887439727783203125" lon="20.0173287279903888702392578125">
        <ele>2004.5999755859375</ele>
        <time>2026-06-15T14:08:44.000Z</time>
        <extensions>
          <ns3:TrackPointExtension>
            <ns3:atemp>18.0</ns3:atemp>
          </ns3:TrackPointExtension>
        </extensions>
      </trkpt>
      <trkpt lat="42.5810593552887439727783203125" lon="20.0173287279903888702392578125">
        <ele>2004.5999755859375</ele>
        <time>2026-06-15T14:08:45.000Z</time>
        <extensions>
          <ns3:TrackPointExtension>
            <ns3:atemp>18.0</ns3:atemp>
          </ns3:TrackPointExtension>
        </extensions>
      </trkpt>
      <trkpt lat="42.58105960674583911895751953125" lon="20.01732931472361087799072265625">
        <ele>2004.5999755859375</ele>
        <time>2026-06-15T14:08:46.000Z</time>
        <extensions>
          <ns3:TrackPointExtension>
            <ns3:atemp>18.0</ns3:atemp>
          </ns3:TrackPointExtension>
        </extensions>
      </trkpt>
      <trkpt lat="42.5810727663338184356689453125" lon="20.017325542867183685302734375">
        <ele>2004.5999755859375</ele>
        <time>2026-06-15T14:08:47.000Z</time>
        <extensions>
          <ns3:TrackPointExtension>
            <ns3:atemp>18.0</ns3:atemp>
          </ns3:TrackPointExtension>
        </extensions>
      </trkpt>
      <trkpt lat="42.58108709938824176788330078125" lon="20.0173099525272846221923828125">
        <ele>2004.5999755859375</ele>
        <time>2026-06-15T14:08:48.000Z</time>
        <extensions>
          <ns3:TrackPointExtension>
            <ns3:atemp>18.0</ns3:atemp>
          </ns3:TrackPointExtension>
        </extensions>
      </trkpt>
      <trkpt lat="42.58110679686069488525390625" lon="20.0172965414822101593017578125">
        <ele>2004.4000244140625</ele>
        <time>2026-06-15T14:08:49.000Z</time>
        <extensions>
          <ns3:TrackPointExtension>
            <ns3:atemp>18.0</ns3:atemp>
          </ns3:TrackPointExtension>
        </extensions>
      </trkpt>
      <trkpt lat="42.5811297632753849029541015625" lon="20.01728153787553310394287109375">
        <ele>2004.4000244140625</ele>
        <time>2026-06-15T14:08:50.000Z</time>
        <extensions>
          <ns3:TrackPointExtension>
            <ns3:atemp>18.0</ns3:atemp>
          </ns3:TrackPointExtension>
        </extensions>
      </trkpt>
      <trkpt lat="42.581153400242328643798828125" lon="20.01726980321109294891357421875">
        <ele>2004.199951171875</ele>
        <time>2026-06-15T14:08:51.000Z</time>
        <extensions>
          <ns3:TrackPointExtension>
            <ns3:atemp>18.0</ns3:atemp>
          </ns3:TrackPointExtension>
        </extensions>
      </trkpt>
      <trkpt lat="42.58117779158055782318115234375" lon="20.01725144684314727783203125">
        <ele>2004</ele>
        <time>2026-06-15T14:08:52.000Z</time>
        <extensions>
          <ns3:TrackPointExtension>
            <ns3:atemp>18.0</ns3:atemp>
          </ns3:TrackPointExtension>
        </extensions>
      </trkpt>
      <trkpt lat="42.58120025508105754852294921875" lon="20.01722906716167926788330078125">
        <ele>2003.800048828125</ele>
        <time>2026-06-15T14:08:53.000Z</time>
        <extensions>
          <ns3:TrackPointExtension>
            <ns3:atemp>18.0</ns3:atemp>
          </ns3:TrackPointExtension>
        </extensions>
      </trkpt>
      <trkpt lat="42.5812290050089359283447265625" lon="20.01720048487186431884765625">
        <ele>2003.5999755859375</ele>
        <time>2026-06-15T14:08:54.000Z</time>
        <extensions>
          <ns3:TrackPointExtension>
            <ns3:atemp>18.0</ns3:atemp>
          </ns3:TrackPointExtension>
        </extensions>
      </trkpt>
      <trkpt lat="42.58125959895551204681396484375" lon="20.0171714834868907928466796875">
        <ele>2003.199951171875</ele>
        <time>2026-06-15T14:08:55.000Z</time>
        <extensions>
          <ns3:TrackPointExtension>
            <ns3:atemp>18.0</ns3:atemp>
          </ns3:TrackPointExtension>
        </extensions>
      </trkpt>
      <trkpt lat="42.58128507994115352630615234375" lon="20.01713569276034832000732421875">
        <ele>2002.800048828125</ele>
        <time>2026-06-15T14:08:56.000Z</time>
        <extensions>
          <ns3:TrackPointExtension>
            <ns3:atemp>18.0</ns3:atemp>
          </ns3:TrackPointExtension>
        </extensions>
      </trkpt>
      <trkpt lat="42.5813032686710357666015625" lon="20.0170923583209514617919921875">
        <ele>2002.5999755859375</ele>
        <time>2026-06-15T14:08:57.000Z</time>
        <extensions>
          <ns3:TrackPointExtension>
            <ns3:atemp>18.0</ns3:atemp>
          </ns3:TrackPointExtension>
        </extensions>
      </trkpt>
      <trkpt lat="42.5813215412199497222900390625" lon="20.01705857925117015838623046875">
        <ele>2002.199951171875</ele>
        <time>2026-06-15T14:08:58.000Z</time>
        <extensions>
          <ns3:TrackPointExtension>
            <ns3:atemp>18.0</ns3:atemp>
          </ns3:TrackPointExtension>
        </extensions>
      </trkpt>
      <trkpt lat="42.5813356228172779083251953125" lon="20.01703611575067043304443359375">
        <ele>2002</ele>
        <time>2026-06-15T14:08:59.000Z</time>
        <extensions>
          <ns3:TrackPointExtension>
            <ns3:atemp>18.0</ns3:atemp>
          </ns3:TrackPointExtension>
        </extensions>
      </trkpt>
      <trkpt lat="42.58135397918522357940673828125" lon="20.01701666973531246185302734375">
        <ele>2002</ele>
        <time>2026-06-15T14:09:00.000Z</time>
        <extensions>
          <ns3:TrackPointExtension>
            <ns3:atemp>18.0</ns3:atemp>
          </ns3:TrackPointExtension>
        </extensions>
      </trkpt>
      <trkpt lat="42.58136638440191745758056640625" lon="20.01701734028756618499755859375">
        <ele>2001.800048828125</ele>
        <time>2026-06-15T14:09:01.000Z</time>
        <extensions>
          <ns3:TrackPointExtension>
            <ns3:atemp>18.0</ns3:atemp>
          </ns3:TrackPointExtension>
        </extensions>
      </trkpt>
      <trkpt lat="42.58137677796185016632080078125" lon="20.01701197586953639984130859375">
        <ele>2001.800048828125</ele>
        <time>2026-06-15T14:09:02.000Z</time>
        <extensions>
          <ns3:TrackPointExtension>
            <ns3:atemp>18.0</ns3:atemp>
          </ns3:TrackPointExtension>
        </extensions>
      </trkpt>
      <trkpt lat="42.5813875906169414520263671875" lon="20.01699973829090595245361328125">
        <ele>2001.800048828125</ele>
        <time>2026-06-15T14:09:03.000Z</time>
        <extensions>
          <ns3:TrackPointExtension>
            <ns3:atemp>18.0</ns3:atemp>
          </ns3:TrackPointExtension>
        </extensions>
      </trkpt>
      <trkpt lat="42.5813855789601802825927734375" lon="20.01699529588222503662109375">
        <ele>2002</ele>
        <time>2026-06-15T14:09:04.000Z</time>
        <extensions>
          <ns3:TrackPointExtension>
            <ns3:atemp>18.0</ns3:atemp>
          </ns3:TrackPointExtension>
        </extensions>
      </trkpt>
      <trkpt lat="42.58138381876051425933837890625" lon="20.0169865787029266357421875">
        <ele>2002</ele>
        <time>2026-06-15T14:09:05.000Z</time>
        <extensions>
          <ns3:TrackPointExtension>
            <ns3:atemp>18.0</ns3:atemp>
          </ns3:TrackPointExtension>
        </extensions>
      </trkpt>
      <trkpt lat="42.58138013072311878204345703125" lon="20.01698129810392856597900390625">
        <ele>2001.800048828125</ele>
        <time>2026-06-15T14:09:06.000Z</time>
        <extensions>
          <ns3:TrackPointExtension>
            <ns3:atemp>18.0</ns3:atemp>
          </ns3:TrackPointExtension>
        </extensions>
      </trkpt>
      <trkpt lat="42.58136889897286891937255859375" lon="20.01697509549558162689208984375">
        <ele>2001.800048828125</ele>
        <time>2026-06-15T14:09:07.000Z</time>
        <extensions>
          <ns3:TrackPointExtension>
            <ns3:atemp>18.0</ns3:atemp>
          </ns3:TrackPointExtension>
        </extensions>
      </trkpt>
      <trkpt lat="42.5813614390790462493896484375" lon="20.01697744242846965789794921875">
        <ele>2001.5999755859375</ele>
        <time>2026-06-15T14:09:08.000Z</time>
        <extensions>
          <ns3:TrackPointExtension>
            <ns3:atemp>18.0</ns3:atemp>
          </ns3:TrackPointExtension>
        </extensions>
      </trkpt>
      <trkpt lat="42.5813530571758747100830078125" lon="20.01699051819741725921630859375">
        <ele>2001.800048828125</ele>
        <time>2026-06-15T14:09:09.000Z</time>
        <extensions>
          <ns3:TrackPointExtension>
            <ns3:atemp>18.0</ns3:atemp>
          </ns3:TrackPointExtension>
        </extensions>
      </trkpt>
      <trkpt lat="42.581345848739147186279296875" lon="20.01700711436569690704345703125">
        <ele>2002</ele>
        <time>2026-06-15T14:09:10.000Z</time>
        <extensions>
          <ns3:TrackPointExtension>
            <ns3:atemp>18.0</ns3:atemp>
          </ns3:TrackPointExtension>
        </extensions>
      </trkpt>
      <trkpt lat="42.5813354551792144775390625" lon="20.01701884903013706207275390625">
        <ele>2002</ele>
        <time>2026-06-15T14:09:11.000Z</time>
        <extensions>
          <ns3:TrackPointExtension>
            <ns3:atemp>18.0</ns3:atemp>
          </ns3:TrackPointExtension>
        </extensions>
      </trkpt>
      <trkpt lat="42.5813218764960765838623046875" lon="20.01704131253063678741455078125">
        <ele>2002.199951171875</ele>
        <time>2026-06-15T14:09:12.000Z</time>
        <extensions>
          <ns3:TrackPointExtension>
            <ns3:atemp>18.0</ns3:atemp>
          </ns3:TrackPointExtension>
        </extensions>
      </trkpt>
      <trkpt lat="42.58130687288939952850341796875" lon="20.01707039773464202880859375">
        <ele>2002.4000244140625</ele>
        <time>2026-06-15T14:09:13.000Z</time>
        <extensions>
          <ns3:TrackPointExtension>
            <ns3:atemp>18.0</ns3:atemp>
          </ns3:TrackPointExtension>
        </extensions>
      </trkpt>
      <trkpt lat="42.58129161782562732696533203125" lon="20.01710518263280391693115234375">
        <ele>2002.4000244140625</ele>
        <time>2026-06-15T14:09:14.000Z</time>
        <extensions>
          <ns3:TrackPointExtension>
            <ns3:atemp>18.0</ns3:atemp>
          </ns3:TrackPointExtension>
        </extensions>
      </trkpt>
      <trkpt lat="42.5812702439725399017333984375" lon="20.01713954843580722808837890625">
        <ele>2002.4000244140625</ele>
        <time>2026-06-15T14:09:15.000Z</time>
        <extensions>
          <ns3:TrackPointExtension>
            <ns3:atemp>18.0</ns3:atemp>
          </ns3:TrackPointExtension>
        </extensions>
      </trkpt>
      <trkpt lat="42.581243254244327545166015625" lon="20.01716737635433673858642578125">
        <ele>2002.4000244140625</ele>
        <time>2026-06-15T14:09:16.000Z</time>
        <extensions>
          <ns3:TrackPointExtension>
            <ns3:atemp>18.0</ns3:atemp>
          </ns3:TrackPointExtension>
        </extensions>
      </trkpt>
      <trkpt lat="42.5812172703444957733154296875" lon="20.017194449901580810546875">
        <ele>2002.4000244140625</ele>
        <time>2026-06-15T14:09:17.000Z</time>
        <extensions>
          <ns3:TrackPointExtension>
            <ns3:atemp>18.0</ns3:atemp>
          </ns3:TrackPointExtension>
        </extensions>
      </trkpt>
      <trkpt lat="42.5811924599111080169677734375" lon="20.01722185872495174407958984375">
        <ele>2002.5999755859375</ele>
        <time>2026-06-15T14:09:18.000Z</time>
        <extensions>
          <ns3:TrackPointExtension>
            <ns3:atemp>18.0</ns3:atemp>
          </ns3:TrackPointExtension>
        </extensions>
      </trkpt>
      <trkpt lat="42.581171505153179168701171875" lon="20.01723694615066051483154296875">
        <ele>2002.800048828125</ele>
        <time>2026-06-15T14:09:19.000Z</time>
        <extensions>
          <ns3:TrackPointExtension>
            <ns3:atemp>18.0</ns3:atemp>
          </ns3:TrackPointExtension>
        </extensions>
      </trkpt>
      <trkpt lat="42.58115348406136035919189453125" lon="20.017249099910259246826171875">
        <ele>2003.4000244140625</ele>
        <time>2026-06-15T14:09:20.000Z</time>
        <extensions>
          <ns3:TrackPointExtension>
            <ns3:atemp>18.0</ns3:atemp>
          </ns3:TrackPointExtension>
        </extensions>
      </trkpt>
      <trkpt lat="42.58113705553114414215087890625" lon="20.017257817089557647705078125">
        <ele>2003.800048828125</ele>
        <time>2026-06-15T14:09:21.000Z</time>
        <extensions>
          <ns3:TrackPointExtension>
            <ns3:atemp>18.0</ns3:atemp>
          </ns3:TrackPointExtension>
        </extensions>
      </trkpt>
      <trkpt lat="42.5811237283051013946533203125" lon="20.01726678572595119476318359375">
        <ele>2004.4000244140625</ele>
        <time>2026-06-15T14:09:22.000Z</time>
        <extensions>
          <ns3:TrackPointExtension>
            <ns3:atemp>18.0</ns3:atemp>
          </ns3:TrackPointExtension>
        </extensions>
      </trkpt>
      <trkpt lat="42.5811126641929149627685546875" lon="20.0172735750675201416015625">
        <ele>2004.800048828125</ele>
        <time>2026-06-15T14:09:23.000Z</time>
        <extensions>
          <ns3:TrackPointExtension>
            <ns3:atemp>18.0</ns3:atemp>
          </ns3:TrackPointExtension>
        </extensions>
      </trkpt>
      <trkpt lat="42.58110319264233112335205078125" lon="20.01727902330458164215087890625">
        <ele>2005</ele>
        <time>2026-06-15T14:09:24.000Z</time>
        <extensions>
          <ns3:TrackPointExtension>
            <ns3:atemp>18.0</ns3:atemp>
          </ns3:TrackPointExtension>
        </extensions>
      </trkpt>
      <trkpt lat="42.581094391644001007080078125" lon="20.01728623174130916595458984375">
        <ele>2005</ele>
        <time>2026-06-15T14:09:25.000Z</time>
        <extensions>
          <ns3:TrackPointExtension>
            <ns3:atemp>18.0</ns3:atemp>
          </ns3:TrackPointExtension>
        </extensions>
      </trkpt>
      <trkpt lat="42.58108190260827541351318359375" lon="20.01729193143546581268310546875">
        <ele>2005</ele>
        <time>2026-06-15T14:09:26.000Z</time>
        <extensions>
          <ns3:TrackPointExtension>
            <ns3:atemp>18.0</ns3:atemp>
          </ns3:TrackPointExtension>
        </extensions>
      </trkpt>
      <trkpt lat="42.5810710899531841278076171875" lon="20.01729964278638362884521484375">
        <ele>2005</ele>
        <time>2026-06-15T14:09:27.000Z</time>
        <extensions>
          <ns3:TrackPointExtension>
            <ns3:atemp>18.0</ns3:atemp>
          </ns3:TrackPointExtension>
        </extensions>
      </trkpt>
      <trkpt lat="42.5810566730797290802001953125" lon="20.0173096172511577606201171875">
        <ele>2005</ele>
        <time>2026-06-15T14:09:28.000Z</time>
        <extensions>
          <ns3:TrackPointExtension>
            <ns3:atemp>18.0</ns3:atemp>
          </ns3:TrackPointExtension>
        </extensions>
      </trkpt>
      <trkpt lat="42.58104301057755947113037109375" lon="20.01731238327920436859130859375">
        <ele>2005</ele>
        <time>2026-06-15T14:09:29.000Z</time>
        <extensions>
          <ns3:TrackPointExtension>
            <ns3:atemp>18.0</ns3:atemp>
          </ns3:TrackPointExtension>
        </extensions>
      </trkpt>
      <trkpt lat="42.58102624677121639251708984375" lon="20.01730919815599918365478515625">
        <ele>2005</ele>
        <time>2026-06-15T14:09:30.000Z</time>
        <extensions>
          <ns3:TrackPointExtension>
            <ns3:atemp>18.0</ns3:atemp>
          </ns3:TrackPointExtension>
        </extensions>
      </trkpt>
      <trkpt lat="42.58101182989776134490966796875" lon="20.01732478849589824676513671875">
        <ele>2005</ele>
        <time>2026-06-15T14:09:31.000Z</time>
        <extensions>
          <ns3:TrackPointExtension>
            <ns3:atemp>18.0</ns3:atemp>
          </ns3:TrackPointExtension>
        </extensions>
      </trkpt>
      <trkpt lat="42.58100512437522411346435546875" lon="20.0173475034534931182861328125">
        <ele>2005</ele>
        <time>2026-06-15T14:09:32.000Z</time>
        <extensions>
          <ns3:TrackPointExtension>
            <ns3:atemp>18.0</ns3:atemp>
          </ns3:TrackPointExtension>
        </extensions>
      </trkpt>
      <trkpt lat="42.581002525985240936279296875" lon="20.0173674523830413818359375">
        <ele>2005</ele>
        <time>2026-06-15T14:09:33.000Z</time>
        <extensions>
          <ns3:TrackPointExtension>
            <ns3:atemp>18.0</ns3:atemp>
          </ns3:TrackPointExtension>
        </extensions>
      </trkpt>
      <trkpt lat="42.58100260980427265167236328125" lon="20.01738446764647960662841796875">
        <ele>2005</ele>
        <time>2026-06-15T14:09:34.000Z</time>
        <extensions>
          <ns3:TrackPointExtension>
            <ns3:atemp>18.0</ns3:atemp>
          </ns3:TrackPointExtension>
        </extensions>
      </trkpt>
      <trkpt lat="42.58101618848741054534912109375" lon="20.01740106381475925445556640625">
        <ele>2005</ele>
        <time>2026-06-15T14:09:35.000Z</time>
        <extensions>
          <ns3:TrackPointExtension>
            <ns3:atemp>18.0</ns3:atemp>
          </ns3:TrackPointExtension>
        </extensions>
      </trkpt>
      <trkpt lat="42.58103571832180023193359375" lon="20.01739787869155406951904296875">
        <ele>2004.800048828125</ele>
        <time>2026-06-15T14:09:36.000Z</time>
        <extensions>
          <ns3:TrackPointExtension>
            <ns3:atemp>18.0</ns3:atemp>
          </ns3:TrackPointExtension>
        </extensions>
      </trkpt>
      <trkpt lat="42.58104317821562290191650390625" lon="20.01738488674163818359375">
        <ele>2004.5999755859375</ele>
        <time>2026-06-15T14:09:37.000Z</time>
        <extensions>
          <ns3:TrackPointExtension>
            <ns3:atemp>18.0</ns3:atemp>
          </ns3:TrackPointExtension>
        </extensions>
      </trkpt>
      <trkpt lat="42.58105206303298473358154296875" lon="20.017371140420436859130859375">
        <ele>2004.199951171875</ele>
        <time>2026-06-15T14:09:38.000Z</time>
        <extensions>
          <ns3:TrackPointExtension>
            <ns3:atemp>18.0</ns3:atemp>
          </ns3:TrackPointExtension>
        </extensions>
      </trkpt>
      <trkpt lat="42.58105390705168247222900390625" lon="20.0173674523830413818359375">
        <ele>2004</ele>
        <time>2026-06-15T14:09:39.000Z</time>
        <extensions>
          <ns3:TrackPointExtension>
            <ns3:atemp>18.0</ns3:atemp>
          </ns3:TrackPointExtension>
        </extensions>
      </trkpt>
      <trkpt lat="42.5810539908707141876220703125" lon="20.01736736856400966644287109375">
        <ele>2003.5999755859375</ele>
        <time>2026-06-15T14:09:40.000Z</time>
        <extensions>
          <ns3:TrackPointExtension>
            <ns3:atemp>18.0</ns3:atemp>
          </ns3:TrackPointExtension>
        </extensions>
      </trkpt>
      <trkpt lat="42.5810539908707141876220703125" lon="20.01736736856400966644287109375">
        <ele>2003.5999755859375</ele>
        <time>2026-06-15T14:09:41.000Z</time>
        <extensions>
          <ns3:TrackPointExtension>
            <ns3:atemp>18.0</ns3:atemp>
          </ns3:TrackPointExtension>
        </extensions>
      </trkpt>
      <trkpt lat="42.5810539908707141876220703125" lon="20.01736736856400966644287109375">
        <ele>2003.5999755859375</ele>
        <time>2026-06-15T14:09:42.000Z</time>
        <extensions>
          <ns3:TrackPointExtension>
            <ns3:atemp>18.0</ns3:atemp>
          </ns3:TrackPointExtension>
        </extensions>
      </trkpt>
      <trkpt lat="42.5810539908707141876220703125" lon="20.01736736856400966644287109375">
        <ele>2003.800048828125</ele>
        <time>2026-06-15T14:09:43.000Z</time>
        <extensions>
          <ns3:TrackPointExtension>
            <ns3:atemp>18.0</ns3:atemp>
          </ns3:TrackPointExtension>
        </extensions>
      </trkpt>
      <trkpt lat="42.5810539908707141876220703125" lon="20.01736736856400966644287109375">
        <ele>2003.800048828125</ele>
        <time>2026-06-15T14:09:44.000Z</time>
        <extensions>
          <ns3:TrackPointExtension>
            <ns3:atemp>18.0</ns3:atemp>
          </ns3:TrackPointExtension>
        </extensions>
      </trkpt>
      <trkpt lat="42.5810539908707141876220703125" lon="20.01736736856400966644287109375">
        <ele>2004</ele>
        <time>2026-06-15T14:09:45.000Z</time>
        <extensions>
          <ns3:TrackPointExtension>
            <ns3:atemp>18.0</ns3:atemp>
          </ns3:TrackPointExtension>
        </extensions>
      </trkpt>
      <trkpt lat="42.5810539908707141876220703125" lon="20.01736736856400966644287109375">
        <ele>2004</ele>
        <time>2026-06-15T14:09:46.000Z</time>
        <extensions>
          <ns3:TrackPointExtension>
            <ns3:atemp>18.0</ns3:atemp>
          </ns3:TrackPointExtension>
        </extensions>
      </trkpt>
      <trkpt lat="42.5810539908707141876220703125" lon="20.01736736856400966644287109375">
        <ele>2004</ele>
        <time>2026-06-15T14:09:47.000Z</time>
        <extensions>
          <ns3:TrackPointExtension>
            <ns3:atemp>18.0</ns3:atemp>
          </ns3:TrackPointExtension>
        </extensions>
      </trkpt>
      <trkpt lat="42.5810539908707141876220703125" lon="20.01736736856400966644287109375">
        <ele>2004</ele>
        <time>2026-06-15T14:09:48.000Z</time>
        <extensions>
          <ns3:TrackPointExtension>
            <ns3:atemp>18.0</ns3:atemp>
          </ns3:TrackPointExtension>
        </extensions>
      </trkpt>
      <trkpt lat="42.5810539908707141876220703125" lon="20.01736736856400966644287109375">
        <ele>2004</ele>
        <time>2026-06-15T14:09:49.000Z</time>
        <extensions>
          <ns3:TrackPointExtension>
            <ns3:atemp>18.0</ns3:atemp>
          </ns3:TrackPointExtension>
        </extensions>
      </trkpt>
      <trkpt lat="42.5810539908707141876220703125" lon="20.01736736856400966644287109375">
        <ele>2003.800048828125</ele>
        <time>2026-06-15T14:09:50.000Z</time>
        <extensions>
          <ns3:TrackPointExtension>
            <ns3:atemp>18.0</ns3:atemp>
          </ns3:TrackPointExtension>
        </extensions>
      </trkpt>
      <trkpt lat="42.5810539908707141876220703125" lon="20.01736736856400966644287109375">
        <ele>2003.800048828125</ele>
        <time>2026-06-15T14:09:51.000Z</time>
        <extensions>
          <ns3:TrackPointExtension>
            <ns3:atemp>18.0</ns3:atemp>
          </ns3:TrackPointExtension>
        </extensions>
      </trkpt>
      <trkpt lat="42.5810539908707141876220703125" lon="20.01736736856400966644287109375">
        <ele>2003.800048828125</ele>
        <time>2026-06-15T14:09:52.000Z</time>
        <extensions>
          <ns3:TrackPointExtension>
            <ns3:atemp>18.0</ns3:atemp>
          </ns3:TrackPointExtension>
        </extensions>
      </trkpt>
      <trkpt lat="42.5810539908707141876220703125" lon="20.01736736856400966644287109375">
        <ele>2003.800048828125</ele>
        <time>2026-06-15T14:09:53.000Z</time>
        <extensions>
          <ns3:TrackPointExtension>
            <ns3:atemp>18.0</ns3:atemp>
          </ns3:TrackPointExtension>
        </extensions>
      </trkpt>
      <trkpt lat="42.5810539908707141876220703125" lon="20.01736736856400966644287109375">
        <ele>2003.800048828125</ele>
        <time>2026-06-15T14:09:54.000Z</time>
        <extensions>
          <ns3:TrackPointExtension>
            <ns3:atemp>18.0</ns3:atemp>
          </ns3:TrackPointExtension>
        </extensions>
      </trkpt>
      <trkpt lat="42.5810539908707141876220703125" lon="20.01736736856400966644287109375">
        <ele>2003.800048828125</ele>
        <time>2026-06-15T14:09:55.000Z</time>
        <extensions>
          <ns3:TrackPointExtension>
            <ns3:atemp>18.0</ns3:atemp>
          </ns3:TrackPointExtension>
        </extensions>
      </trkpt>
      <trkpt lat="42.5810539908707141876220703125" lon="20.01736736856400966644287109375">
        <ele>2003.800048828125</ele>
        <time>2026-06-15T14:09:56.000Z</time>
        <extensions>
          <ns3:TrackPointExtension>
            <ns3:atemp>18.0</ns3:atemp>
          </ns3:TrackPointExtension>
        </extensions>
      </trkpt>
      <trkpt lat="42.5810539908707141876220703125" lon="20.01736736856400966644287109375">
        <ele>2003.800048828125</ele>
        <time>2026-06-15T14:09:57.000Z</time>
        <extensions>
          <ns3:TrackPointExtension>
            <ns3:atemp>18.0</ns3:atemp>
          </ns3:TrackPointExtension>
        </extensions>
      </trkpt>
      <trkpt lat="42.5810539908707141876220703125" lon="20.01736736856400966644287109375">
        <ele>2004</ele>
        <time>2026-06-15T14:09:58.000Z</time>
        <extensions>
          <ns3:TrackPointExtension>
            <ns3:atemp>18.0</ns3:atemp>
          </ns3:TrackPointExtension>
        </extensions>
      </trkpt>
      <trkpt lat="42.5810539908707141876220703125" lon="20.01736736856400966644287109375">
        <ele>2004</ele>
        <time>2026-06-15T14:09:59.000Z</time>
        <extensions>
          <ns3:TrackPointExtension>
            <ns3:atemp>18.0</ns3:atemp>
          </ns3:TrackPointExtension>
        </extensions>
      </trkpt>
      <trkpt lat="42.5810539908707141876220703125" lon="20.01736736856400966644287109375">
        <ele>2004</ele>
        <time>2026-06-15T14:10:00.000Z</time>
        <extensions>
          <ns3:TrackPointExtension>
            <ns3:atemp>18.0</ns3:atemp>
          </ns3:TrackPointExtension>
        </extensions>
      </trkpt>
      <trkpt lat="42.5810539908707141876220703125" lon="20.01736736856400966644287109375">
        <ele>2004.199951171875</ele>
        <time>2026-06-15T14:10:01.000Z</time>
        <extensions>
          <ns3:TrackPointExtension>
            <ns3:atemp>18.0</ns3:atemp>
          </ns3:TrackPointExtension>
        </extensions>
      </trkpt>
      <trkpt lat="42.5810539908707141876220703125" lon="20.01736736856400966644287109375">
        <ele>2004</ele>
        <time>2026-06-15T14:10:02.000Z</time>
        <extensions>
          <ns3:TrackPointExtension>
            <ns3:atemp>18.0</ns3:atemp>
          </ns3:TrackPointExtension>
        </extensions>
      </trkpt>
      <trkpt lat="42.5810539908707141876220703125" lon="20.01736736856400966644287109375">
        <ele>2004</ele>
        <time>2026-06-15T14:10:03.000Z</time>
        <extensions>
          <ns3:TrackPointExtension>
            <ns3:atemp>18.0</ns3:atemp>
          </ns3:TrackPointExtension>
        </extensions>
      </trkpt>
      <trkpt lat="42.5810539908707141876220703125" lon="20.01736736856400966644287109375">
        <ele>2004</ele>
        <time>2026-06-15T14:10:04.000Z</time>
        <extensions>
          <ns3:TrackPointExtension>
            <ns3:atemp>18.0</ns3:atemp>
          </ns3:TrackPointExtension>
        </extensions>
      </trkpt>
      <trkpt lat="42.58105575107038021087646484375" lon="20.017367787659168243408203125">
        <ele>2004</ele>
        <time>2026-06-15T14:10:05.000Z</time>
        <extensions>
          <ns3:TrackPointExtension>
            <ns3:atemp>18.0</ns3:atemp>
          </ns3:TrackPointExtension>
        </extensions>
      </trkpt>
      <trkpt lat="42.58106882683932781219482421875" lon="20.01736518926918506622314453125">
        <ele>2004</ele>
        <time>2026-06-15T14:10:06.000Z</time>
        <extensions>
          <ns3:TrackPointExtension>
            <ns3:atemp>18.0</ns3:atemp>
          </ns3:TrackPointExtension>
        </extensions>
      </trkpt>
      <trkpt lat="42.581080310046672821044921875" lon="20.0173518620431423187255859375">
        <ele>2004</ele>
        <time>2026-06-15T14:10:07.000Z</time>
        <extensions>
          <ns3:TrackPointExtension>
            <ns3:atemp>18.0</ns3:atemp>
          </ns3:TrackPointExtension>
        </extensions>
      </trkpt>
      <trkpt lat="42.5810845009982585906982421875" lon="20.01733191311359405517578125">
        <ele>2004</ele>
        <time>2026-06-15T14:10:08.000Z</time>
        <extensions>
          <ns3:TrackPointExtension>
            <ns3:atemp>18.0</ns3:atemp>
          </ns3:TrackPointExtension>
        </extensions>
      </trkpt>
      <trkpt lat="42.58109045214951038360595703125" lon="20.01731657423079013824462890625">
        <ele>2003.800048828125</ele>
        <time>2026-06-15T14:10:09.000Z</time>
        <extensions>
          <ns3:TrackPointExtension>
            <ns3:atemp>18.0</ns3:atemp>
          </ns3:TrackPointExtension>
        </extensions>
      </trkpt>
      <trkpt lat="42.58110336028039455413818359375" lon="20.01730198971927165985107421875">
        <ele>2003.800048828125</ele>
        <time>2026-06-15T14:10:10.000Z</time>
        <extensions>
          <ns3:TrackPointExtension>
            <ns3:atemp>18.0</ns3:atemp>
          </ns3:TrackPointExtension>
        </extensions>
      </trkpt>
      <trkpt lat="42.58112012408673763275146484375" lon="20.0172844715416431427001953125">
        <ele>2003.5999755859375</ele>
        <time>2026-06-15T14:10:11.000Z</time>
        <extensions>
          <ns3:TrackPointExtension>
            <ns3:atemp>18.0</ns3:atemp>
          </ns3:TrackPointExtension>
        </extensions>
      </trkpt>
      <trkpt lat="42.58114124648272991180419921875" lon="20.01727315597236156463623046875">
        <ele>2003.4000244140625</ele>
        <time>2026-06-15T14:10:12.000Z</time>
        <extensions>
          <ns3:TrackPointExtension>
            <ns3:atemp>18.0</ns3:atemp>
          </ns3:TrackPointExtension>
        </extensions>
      </trkpt>
      <trkpt lat="42.581166140735149383544921875" lon="20.01725890673696994781494140625">
        <ele>2003.199951171875</ele>
        <time>2026-06-15T14:10:13.000Z</time>
        <extensions>
          <ns3:TrackPointExtension>
            <ns3:atemp>18.0</ns3:atemp>
          </ns3:TrackPointExtension>
        </extensions>
      </trkpt>
      <trkpt lat="42.58118952624499797821044921875" lon="20.01723795197904109954833984375">
        <ele>2003.199951171875</ele>
        <time>2026-06-15T14:10:14.000Z</time>
        <extensions>
          <ns3:TrackPointExtension>
            <ns3:atemp>18.0</ns3:atemp>
          </ns3:TrackPointExtension>
        </extensions>
      </trkpt>
      <trkpt lat="42.5812160968780517578125" lon="20.01721146516501903533935546875">
        <ele>2003</ele>
        <time>2026-06-15T14:10:15.000Z</time>
        <extensions>
          <ns3:TrackPointExtension>
            <ns3:atemp>18.0</ns3:atemp>
          </ns3:TrackPointExtension>
        </extensions>
      </trkpt>
      <trkpt lat="42.581245936453342437744140625" lon="20.01718162558972835540771484375">
        <ele>2002.800048828125</ele>
        <time>2026-06-15T14:10:16.000Z</time>
        <extensions>
          <ns3:TrackPointExtension>
            <ns3:atemp>18.0</ns3:atemp>
          </ns3:TrackPointExtension>
        </extensions>
      </trkpt>
      <trkpt lat="42.5812746025621891021728515625" lon="20.0171501934528350830078125">
        <ele>2002.5999755859375</ele>
        <time>2026-06-15T14:10:17.000Z</time>
        <extensions>
          <ns3:TrackPointExtension>
            <ns3:atemp>18.0</ns3:atemp>
          </ns3:TrackPointExtension>
        </extensions>
      </trkpt>
      <trkpt lat="42.58129413239657878875732421875" lon="20.017113648355007171630859375">
        <ele>2002.4000244140625</ele>
        <time>2026-06-15T14:10:18.000Z</time>
        <extensions>
          <ns3:TrackPointExtension>
            <ns3:atemp>18.0</ns3:atemp>
          </ns3:TrackPointExtension>
        </extensions>
      </trkpt>
      <trkpt lat="42.5813128240406513214111328125" lon="20.017075426876544952392578125">
        <ele>2002</ele>
        <time>2026-06-15T14:10:19.000Z</time>
        <extensions>
          <ns3:TrackPointExtension>
            <ns3:atemp>18.0</ns3:atemp>
          </ns3:TrackPointExtension>
        </extensions>
      </trkpt>
      <trkpt lat="42.581331767141819000244140625" lon="20.01704550348222255706787109375">
        <ele>2001.5999755859375</ele>
        <time>2026-06-15T14:10:20.000Z</time>
        <extensions>
          <ns3:TrackPointExtension>
            <ns3:atemp>18.0</ns3:atemp>
          </ns3:TrackPointExtension>
        </extensions>
      </trkpt>
      <trkpt lat="42.58135045878589153289794921875" lon="20.0170293264091014862060546875">
        <ele>2001.199951171875</ele>
        <time>2026-06-15T14:10:21.000Z</time>
        <extensions>
          <ns3:TrackPointExtension>
            <ns3:atemp>18.0</ns3:atemp>
          </ns3:TrackPointExtension>
        </extensions>
      </trkpt>
      <trkpt lat="42.5813770294189453125" lon="20.01700870692729949951171875">
        <ele>2001</ele>
        <time>2026-06-15T14:10:22.000Z</time>
        <extensions>
          <ns3:TrackPointExtension>
            <ns3:atemp>18.0</ns3:atemp>
          </ns3:TrackPointExtension>
        </extensions>
      </trkpt>
      <trkpt lat="42.58140108548104763031005859375" lon="20.016985572874546051025390625">
        <ele>2001</ele>
        <time>2026-06-15T14:10:23.000Z</time>
        <extensions>
          <ns3:TrackPointExtension>
            <ns3:atemp>18.0</ns3:atemp>
          </ns3:TrackPointExtension>
        </extensions>
      </trkpt>
      <trkpt lat="42.581433020532131195068359375" lon="20.01696579158306121826171875">
        <ele>2000.800048828125</ele>
        <time>2026-06-15T14:10:24.000Z</time>
        <extensions>
          <ns3:TrackPointExtension>
            <ns3:atemp>18.0</ns3:atemp>
          </ns3:TrackPointExtension>
        </extensions>
      </trkpt>
      <trkpt lat="42.58146797306835651397705078125" lon="20.0169485248625278472900390625">
        <ele>2000.800048828125</ele>
        <time>2026-06-15T14:10:25.000Z</time>
        <extensions>
          <ns3:TrackPointExtension>
            <ns3:atemp>18.0</ns3:atemp>
          </ns3:TrackPointExtension>
        </extensions>
      </trkpt>
      <trkpt lat="42.58149680681526660919189453125" lon="20.01692497171461582183837890625">
        <ele>2000.800048828125</ele>
        <time>2026-06-15T14:10:26.000Z</time>
        <extensions>
          <ns3:TrackPointExtension>
            <ns3:atemp>17.0</ns3:atemp>
          </ns3:TrackPointExtension>
        </extensions>
      </trkpt>
      <trkpt lat="42.58152647875249385833740234375" lon="20.0169103033840656280517578125">
        <ele>2000.5999755859375</ele>
        <time>2026-06-15T14:10:27.000Z</time>
        <extensions>
          <ns3:TrackPointExtension>
            <ns3:atemp>17.0</ns3:atemp>
          </ns3:TrackPointExtension>
        </extensions>
      </trkpt>
      <trkpt lat="42.58155330084264278411865234375" lon="20.01689379103481769561767578125">
        <ele>2000.199951171875</ele>
        <time>2026-06-15T14:10:28.000Z</time>
        <extensions>
          <ns3:TrackPointExtension>
            <ns3:atemp>17.0</ns3:atemp>
          </ns3:TrackPointExtension>
        </extensions>
      </trkpt>
      <trkpt lat="42.58158096112310886383056640625" lon="20.016877613961696624755859375">
        <ele>2000.199951171875</ele>
        <time>2026-06-15T14:10:29.000Z</time>
        <extensions>
          <ns3:TrackPointExtension>
            <ns3:atemp>17.0</ns3:atemp>
          </ns3:TrackPointExtension>
        </extensions>
      </trkpt>
      <trkpt lat="42.58160627447068691253662109375" lon="20.0168650411069393157958984375">
        <ele>2000</ele>
        <time>2026-06-15T14:10:30.000Z</time>
        <extensions>
          <ns3:TrackPointExtension>
            <ns3:atemp>17.0</ns3:atemp>
          </ns3:TrackPointExtension>
        </extensions>
      </trkpt>
      <trkpt lat="42.5816239602863788604736328125" lon="20.0168586708605289459228515625">
        <ele>2000</ele>
        <time>2026-06-15T14:10:31.000Z</time>
        <extensions>
          <ns3:TrackPointExtension>
            <ns3:atemp>17.0</ns3:atemp>
          </ns3:TrackPointExtension>
        </extensions>
      </trkpt>
      <trkpt lat="42.5816316716372966766357421875" lon="20.0168606825172901153564453125">
        <ele>2000</ele>
        <time>2026-06-15T14:10:32.000Z</time>
        <extensions>
          <ns3:TrackPointExtension>
            <ns3:atemp>17.0</ns3:atemp>
          </ns3:TrackPointExtension>
        </extensions>
      </trkpt>
      <trkpt lat="42.58163175545632839202880859375" lon="20.0168606825172901153564453125">
        <ele>2000.199951171875</ele>
        <time>2026-06-15T14:10:33.000Z</time>
        <extensions>
          <ns3:TrackPointExtension>
            <ns3:atemp>17.0</ns3:atemp>
          </ns3:TrackPointExtension>
        </extensions>
      </trkpt>
      <trkpt lat="42.58163175545632839202880859375" lon="20.0168606825172901153564453125">
        <ele>2000.4000244140625</ele>
        <time>2026-06-15T14:10:34.000Z</time>
        <extensions>
          <ns3:TrackPointExtension>
            <ns3:atemp>17.0</ns3:atemp>
          </ns3:TrackPointExtension>
        </extensions>
      </trkpt>
      <trkpt lat="42.58163175545632839202880859375" lon="20.0168606825172901153564453125">
        <ele>2000.5999755859375</ele>
        <time>2026-06-15T14:10:35.000Z</time>
        <extensions>
          <ns3:TrackPointExtension>
            <ns3:atemp>17.0</ns3:atemp>
          </ns3:TrackPointExtension>
        </extensions>
      </trkpt>
      <trkpt lat="42.58163209073245525360107421875" lon="20.01686076633632183074951171875">
        <ele>2000.800048828125</ele>
        <time>2026-06-15T14:10:36.000Z</time>
        <extensions>
          <ns3:TrackPointExtension>
            <ns3:atemp>17.0</ns3:atemp>
          </ns3:TrackPointExtension>
        </extensions>
      </trkpt>
      <trkpt lat="42.58164147846400737762451171875" lon="20.0168606825172901153564453125">
        <ele>2000.800048828125</ele>
        <time>2026-06-15T14:10:37.000Z</time>
        <extensions>
          <ns3:TrackPointExtension>
            <ns3:atemp>17.0</ns3:atemp>
          </ns3:TrackPointExtension>
        </extensions>
      </trkpt>
      <trkpt lat="42.581643573939800262451171875" lon="20.01686160452663898468017578125">
        <ele>2000.800048828125</ele>
        <time>2026-06-15T14:10:38.000Z</time>
        <extensions>
          <ns3:TrackPointExtension>
            <ns3:atemp>17.0</ns3:atemp>
          </ns3:TrackPointExtension>
        </extensions>
      </trkpt>
      <trkpt lat="42.58163175545632839202880859375" lon="20.0168606825172901153564453125">
        <ele>2000.5999755859375</ele>
        <time>2026-06-15T14:10:39.000Z</time>
        <extensions>
          <ns3:TrackPointExtension>
            <ns3:atemp>18.0</ns3:atemp>
          </ns3:TrackPointExtension>
        </extensions>
      </trkpt>
      <trkpt lat="42.58163175545632839202880859375" lon="20.0168606825172901153564453125">
        <ele>2000.4000244140625</ele>
        <time>2026-06-15T14:10:40.000Z</time>
        <extensions>
          <ns3:TrackPointExtension>
            <ns3:atemp>17.0</ns3:atemp>
          </ns3:TrackPointExtension>
        </extensions>
      </trkpt>
      <trkpt lat="42.58163175545632839202880859375" lon="20.0168606825172901153564453125">
        <ele>2000.4000244140625</ele>
        <time>2026-06-15T14:10:41.000Z</time>
        <extensions>
          <ns3:TrackPointExtension>
            <ns3:atemp>17.0</ns3:atemp>
          </ns3:TrackPointExtension>
        </extensions>
      </trkpt>
      <trkpt lat="42.58163175545632839202880859375" lon="20.0168606825172901153564453125">
        <ele>2000.199951171875</ele>
        <time>2026-06-15T14:10:42.000Z</time>
        <extensions>
          <ns3:TrackPointExtension>
            <ns3:atemp>18.0</ns3:atemp>
          </ns3:TrackPointExtension>
        </extensions>
      </trkpt>
      <trkpt lat="42.58163175545632839202880859375" lon="20.0168606825172901153564453125">
        <ele>2000.4000244140625</ele>
        <time>2026-06-15T14:10:43.000Z</time>
        <extensions>
          <ns3:TrackPointExtension>
            <ns3:atemp>17.0</ns3:atemp>
          </ns3:TrackPointExtension>
        </extensions>
      </trkpt>
      <trkpt lat="42.58163175545632839202880859375" lon="20.0168606825172901153564453125">
        <ele>2000.5999755859375</ele>
        <time>2026-06-15T14:10:44.000Z</time>
        <extensions>
          <ns3:TrackPointExtension>
            <ns3:atemp>17.0</ns3:atemp>
          </ns3:TrackPointExtension>
        </extensions>
      </trkpt>
      <trkpt lat="42.58163175545632839202880859375" lon="20.0168606825172901153564453125">
        <ele>2000.5999755859375</ele>
        <time>2026-06-15T14:10:45.000Z</time>
        <extensions>
          <ns3:TrackPointExtension>
            <ns3:atemp>17.0</ns3:atemp>
          </ns3:TrackPointExtension>
        </extensions>
      </trkpt>
      <trkpt lat="42.58163175545632839202880859375" lon="20.0168606825172901153564453125">
        <ele>2000.800048828125</ele>
        <time>2026-06-15T14:10:46.000Z</time>
        <extensions>
          <ns3:TrackPointExtension>
            <ns3:atemp>17.0</ns3:atemp>
          </ns3:TrackPointExtension>
        </extensions>
      </trkpt>
      <trkpt lat="42.58163175545632839202880859375" lon="20.0168606825172901153564453125">
        <ele>2000.800048828125</ele>
        <time>2026-06-15T14:10:47.000Z</time>
        <extensions>
          <ns3:TrackPointExtension>
            <ns3:atemp>17.0</ns3:atemp>
          </ns3:TrackPointExtension>
        </extensions>
      </trkpt>
      <trkpt lat="42.58163175545632839202880859375" lon="20.0168606825172901153564453125">
        <ele>2000.800048828125</ele>
        <time>2026-06-15T14:10:48.000Z</time>
        <extensions>
          <ns3:TrackPointExtension>
            <ns3:atemp>17.0</ns3:atemp>
          </ns3:TrackPointExtension>
        </extensions>
      </trkpt>
      <trkpt lat="42.58163175545632839202880859375" lon="20.0168606825172901153564453125">
        <ele>2000.800048828125</ele>
        <time>2026-06-15T14:10:49.000Z</time>
        <extensions>
          <ns3:TrackPointExtension>
            <ns3:atemp>17.0</ns3:atemp>
          </ns3:TrackPointExtension>
        </extensions>
      </trkpt>
      <trkpt lat="42.58163175545632839202880859375" lon="20.0168606825172901153564453125">
        <ele>2000.800048828125</ele>
        <time>2026-06-15T14:10:50.000Z</time>
        <extensions>
          <ns3:TrackPointExtension>
            <ns3:atemp>17.0</ns3:atemp>
          </ns3:TrackPointExtension>
        </extensions>
      </trkpt>
      <trkpt lat="42.58163175545632839202880859375" lon="20.0168606825172901153564453125">
        <ele>2000.800048828125</ele>
        <time>2026-06-15T14:10:51.000Z</time>
        <extensions>
          <ns3:TrackPointExtension>
            <ns3:atemp>17.0</ns3:atemp>
          </ns3:TrackPointExtension>
        </extensions>
      </trkpt>
      <trkpt lat="42.58163175545632839202880859375" lon="20.0168606825172901153564453125">
        <ele>2000.800048828125</ele>
        <time>2026-06-15T14:10:52.000Z</time>
        <extensions>
          <ns3:TrackPointExtension>
            <ns3:atemp>17.0</ns3:atemp>
          </ns3:TrackPointExtension>
        </extensions>
      </trkpt>
      <trkpt lat="42.5816444121301174163818359375" lon="20.01685992814600467681884765625">
        <ele>2000.800048828125</ele>
        <time>2026-06-15T14:10:53.000Z</time>
        <extensions>
          <ns3:TrackPointExtension>
            <ns3:atemp>17.0</ns3:atemp>
          </ns3:TrackPointExtension>
        </extensions>
      </trkpt>
      <trkpt lat="42.58166134357452392578125" lon="20.01684802584350109100341796875">
        <ele>2000.800048828125</ele>
        <time>2026-06-15T14:10:54.000Z</time>
        <extensions>
          <ns3:TrackPointExtension>
            <ns3:atemp>17.0</ns3:atemp>
          </ns3:TrackPointExtension>
        </extensions>
      </trkpt>
      <trkpt lat="42.5816809572279453277587890625" lon="20.01684282906353473663330078125">
        <ele>2000.800048828125</ele>
        <time>2026-06-15T14:10:55.000Z</time>
        <extensions>
          <ns3:TrackPointExtension>
            <ns3:atemp>17.0</ns3:atemp>
          </ns3:TrackPointExtension>
        </extensions>
      </trkpt>
      <trkpt lat="42.58170182816684246063232421875" lon="20.01683830283582210540771484375">
        <ele>2000.800048828125</ele>
        <time>2026-06-15T14:10:56.000Z</time>
        <extensions>
          <ns3:TrackPointExtension>
            <ns3:atemp>17.0</ns3:atemp>
          </ns3:TrackPointExtension>
        </extensions>
      </trkpt>
      <trkpt lat="42.58172512985765933990478515625" lon="20.01682925038039684295654296875">
        <ele>2000.800048828125</ele>
        <time>2026-06-15T14:10:57.000Z</time>
        <extensions>
          <ns3:TrackPointExtension>
            <ns3:atemp>17.0</ns3:atemp>
          </ns3:TrackPointExtension>
        </extensions>
      </trkpt>
      <trkpt lat="42.5817513652145862579345703125" lon="20.01681768335402011871337890625">
        <ele>2000.5999755859375</ele>
        <time>2026-06-15T14:10:58.000Z</time>
        <extensions>
          <ns3:TrackPointExtension>
            <ns3:atemp>17.0</ns3:atemp>
          </ns3:TrackPointExtension>
        </extensions>
      </trkpt>
      <trkpt lat="42.5817751698195934295654296875" lon="20.01680108718574047088623046875">
        <ele>2000.5999755859375</ele>
        <time>2026-06-15T14:10:59.000Z</time>
        <extensions>
          <ns3:TrackPointExtension>
            <ns3:atemp>17.0</ns3:atemp>
          </ns3:TrackPointExtension>
        </extensions>
      </trkpt>
      <trkpt lat="42.58179319091141223907470703125" lon="20.0167875923216342926025390625">
        <ele>2000.4000244140625</ele>
        <time>2026-06-15T14:11:00.000Z</time>
        <extensions>
          <ns3:TrackPointExtension>
            <ns3:atemp>17.0</ns3:atemp>
          </ns3:TrackPointExtension>
        </extensions>
      </trkpt>
      <trkpt lat="42.5818100385367870330810546875" lon="20.01677879132330417633056640625">
        <ele>2000.4000244140625</ele>
        <time>2026-06-15T14:11:01.000Z</time>
        <extensions>
          <ns3:TrackPointExtension>
            <ns3:atemp>17.0</ns3:atemp>
          </ns3:TrackPointExtension>
        </extensions>
      </trkpt>
      <trkpt lat="42.5818289816379547119140625" lon="20.01676999032497406005859375">
        <ele>2000.4000244140625</ele>
        <time>2026-06-15T14:11:02.000Z</time>
        <extensions>
          <ns3:TrackPointExtension>
            <ns3:atemp>17.0</ns3:atemp>
          </ns3:TrackPointExtension>
        </extensions>
      </trkpt>
      <trkpt lat="42.58184817619621753692626953125" lon="20.01675657927989959716796875">
        <ele>2000.199951171875</ele>
        <time>2026-06-15T14:11:03.000Z</time>
        <extensions>
          <ns3:TrackPointExtension>
            <ns3:atemp>17.0</ns3:atemp>
          </ns3:TrackPointExtension>
        </extensions>
      </trkpt>
      <trkpt lat="42.58187047205865383148193359375" lon="20.0167352892458438873291015625">
        <ele>2000.199951171875</ele>
        <time>2026-06-15T14:11:04.000Z</time>
        <extensions>
          <ns3:TrackPointExtension>
            <ns3:atemp>17.0</ns3:atemp>
          </ns3:TrackPointExtension>
        </extensions>
      </trkpt>
      <trkpt lat="42.58189025335013866424560546875" lon="20.01671190373599529266357421875">
        <ele>2000.199951171875</ele>
        <time>2026-06-15T14:11:05.000Z</time>
        <extensions>
          <ns3:TrackPointExtension>
            <ns3:atemp>17.0</ns3:atemp>
          </ns3:TrackPointExtension>
        </extensions>
      </trkpt>
      <trkpt lat="42.5819119624793529510498046875" lon="20.0167034380137920379638671875">
        <ele>2000</ele>
        <time>2026-06-15T14:11:06.000Z</time>
        <extensions>
          <ns3:TrackPointExtension>
            <ns3:atemp>17.0</ns3:atemp>
          </ns3:TrackPointExtension>
        </extensions>
      </trkpt>
      <trkpt lat="42.5819394551217555999755859375" lon="20.0166977383196353912353515625">
        <ele>2000</ele>
        <time>2026-06-15T14:11:07.000Z</time>
        <extensions>
          <ns3:TrackPointExtension>
            <ns3:atemp>17.0</ns3:atemp>
          </ns3:TrackPointExtension>
        </extensions>
      </trkpt>
      <trkpt lat="42.58196887560188770294189453125" lon="20.01669011078774929046630859375">
        <ele>2000</ele>
        <time>2026-06-15T14:11:08.000Z</time>
        <extensions>
          <ns3:TrackPointExtension>
            <ns3:atemp>17.0</ns3:atemp>
          </ns3:TrackPointExtension>
        </extensions>
      </trkpt>
      <trkpt lat="42.58199837990105152130126953125" lon="20.016681142151355743408203125">
        <ele>2000</ele>
        <time>2026-06-15T14:11:09.000Z</time>
        <extensions>
          <ns3:TrackPointExtension>
            <ns3:atemp>17.0</ns3:atemp>
          </ns3:TrackPointExtension>
        </extensions>
      </trkpt>
      <trkpt lat="42.582028806209564208984375" lon="20.01666211523115634918212890625">
        <ele>1999.800048828125</ele>
        <time>2026-06-15T14:11:10.000Z</time>
        <extensions>
          <ns3:TrackPointExtension>
            <ns3:atemp>17.0</ns3:atemp>
          </ns3:TrackPointExtension>
        </extensions>
      </trkpt>
      <trkpt lat="42.58206308819353580474853515625" lon="20.01663747243583202362060546875">
        <ele>1999.800048828125</ele>
        <time>2026-06-15T14:11:11.000Z</time>
        <extensions>
          <ns3:TrackPointExtension>
            <ns3:atemp>17.0</ns3:atemp>
          </ns3:TrackPointExtension>
        </extensions>
      </trkpt>
      <trkpt lat="42.58210265077650547027587890625" lon="20.01661148853600025177001953125">
        <ele>1999.800048828125</ele>
        <time>2026-06-15T14:11:12.000Z</time>
        <extensions>
          <ns3:TrackPointExtension>
            <ns3:atemp>17.0</ns3:atemp>
          </ns3:TrackPointExtension>
        </extensions>
      </trkpt>
      <trkpt lat="42.58214824832975864410400390625" lon="20.0165891088545322418212890625">
        <ele>1999.5999755859375</ele>
        <time>2026-06-15T14:11:13.000Z</time>
        <extensions>
          <ns3:TrackPointExtension>
            <ns3:atemp>17.0</ns3:atemp>
          </ns3:TrackPointExtension>
        </extensions>
      </trkpt>
      <trkpt lat="42.5821966119110584259033203125" lon="20.0165622867643833160400390625">
        <ele>1999.5999755859375</ele>
        <time>2026-06-15T14:11:14.000Z</time>
        <extensions>
          <ns3:TrackPointExtension>
            <ns3:atemp>17.0</ns3:atemp>
          </ns3:TrackPointExtension>
        </extensions>
      </trkpt>
      <trkpt lat="42.58223575539886951446533203125" lon="20.01652766950428485870361328125">
        <ele>1999.4000244140625</ele>
        <time>2026-06-15T14:11:15.000Z</time>
        <extensions>
          <ns3:TrackPointExtension>
            <ns3:atemp>17.0</ns3:atemp>
          </ns3:TrackPointExtension>
        </extensions>
      </trkpt>
      <trkpt lat="42.5822675228118896484375" lon="20.016503445804119110107421875">
        <ele>1999.4000244140625</ele>
        <time>2026-06-15T14:11:16.000Z</time>
        <extensions>
          <ns3:TrackPointExtension>
            <ns3:atemp>17.0</ns3:atemp>
          </ns3:TrackPointExtension>
        </extensions>
      </trkpt>
      <trkpt lat="42.58230264298617839813232421875" lon="20.0164930522441864013671875">
        <ele>1999.4000244140625</ele>
        <time>2026-06-15T14:11:17.000Z</time>
        <extensions>
          <ns3:TrackPointExtension>
            <ns3:atemp>17.0</ns3:atemp>
          </ns3:TrackPointExtension>
        </extensions>
      </trkpt>
      <trkpt lat="42.58234019391238689422607421875" lon="20.01648408360779285430908203125">
        <ele>1999.199951171875</ele>
        <time>2026-06-15T14:11:18.000Z</time>
        <extensions>
          <ns3:TrackPointExtension>
            <ns3:atemp>17.0</ns3:atemp>
          </ns3:TrackPointExtension>
        </extensions>
      </trkpt>
      <trkpt lat="42.5823733024299144744873046875" lon="20.01645944081246852874755859375">
        <ele>1999</ele>
        <time>2026-06-15T14:11:19.000Z</time>
        <extensions>
          <ns3:TrackPointExtension>
            <ns3:atemp>17.0</ns3:atemp>
          </ns3:TrackPointExtension>
        </extensions>
      </trkpt>
      <trkpt lat="42.58239869959652423858642578125" lon="20.016423650085926055908203125">
        <ele>1998.800048828125</ele>
        <time>2026-06-15T14:11:20.000Z</time>
        <extensions>
          <ns3:TrackPointExtension>
            <ns3:atemp>17.0</ns3:atemp>
          </ns3:TrackPointExtension>
        </extensions>
      </trkpt>
      <trkpt lat="42.5824177265167236328125" lon="20.0163735263049602508544921875">
        <ele>1998.5999755859375</ele>
        <time>2026-06-15T14:11:21.000Z</time>
        <extensions>
          <ns3:TrackPointExtension>
            <ns3:atemp>17.0</ns3:atemp>
          </ns3:TrackPointExtension>
        </extensions>
      </trkpt>
      <trkpt lat="42.58244077675044536590576171875" lon="20.01632516272366046905517578125">
        <ele>1998.4000244140625</ele>
        <time>2026-06-15T14:11:22.000Z</time>
        <extensions>
          <ns3:TrackPointExtension>
            <ns3:atemp>17.0</ns3:atemp>
          </ns3:TrackPointExtension>
        </extensions>
      </trkpt>
      <trkpt lat="42.582469694316387176513671875" lon="20.01627855934202671051025390625">
        <ele>1998.199951171875</ele>
        <time>2026-06-15T14:11:23.000Z</time>
        <extensions>
          <ns3:TrackPointExtension>
            <ns3:atemp>17.0</ns3:atemp>
          </ns3:TrackPointExtension>
        </extensions>
      </trkpt>
      <trkpt lat="42.5824997015297412872314453125" lon="20.01623086631298065185546875">
        <ele>1998.199951171875</ele>
        <time>2026-06-15T14:11:24.000Z</time>
        <extensions>
          <ns3:TrackPointExtension>
            <ns3:atemp>17.0</ns3:atemp>
          </ns3:TrackPointExtension>
        </extensions>
      </trkpt>
      <trkpt lat="42.582531385123729705810546875" lon="20.01619390211999416351318359375">
        <ele>1998</ele>
        <time>2026-06-15T14:11:25.000Z</time>
        <extensions>
          <ns3:TrackPointExtension>
            <ns3:atemp>17.0</ns3:atemp>
          </ns3:TrackPointExtension>
        </extensions>
      </trkpt>
      <trkpt lat="42.58254722692072391510009765625" lon="20.01616037450730800628662109375">
        <ele>1998</ele>
        <time>2026-06-15T14:11:26.000Z</time>
        <extensions>
          <ns3:TrackPointExtension>
            <ns3:atemp>17.0</ns3:atemp>
          </ns3:TrackPointExtension>
        </extensions>
      </trkpt>
      <trkpt lat="42.5825540162622928619384765625" lon="20.01612634398043155670166015625">
        <ele>1997.800048828125</ele>
        <time>2026-06-15T14:11:27.000Z</time>
        <extensions>
          <ns3:TrackPointExtension>
            <ns3:atemp>17.0</ns3:atemp>
          </ns3:TrackPointExtension>
        </extensions>
      </trkpt>
      <trkpt lat="42.58256382308900356292724609375" lon="20.016090385615825653076171875">
        <ele>1997.800048828125</ele>
        <time>2026-06-15T14:11:28.000Z</time>
        <extensions>
          <ns3:TrackPointExtension>
            <ns3:atemp>17.0</ns3:atemp>
          </ns3:TrackPointExtension>
        </extensions>
      </trkpt>
      <trkpt lat="42.58258628658950328826904296875" lon="20.0160664133727550506591796875">
        <ele>1997.5999755859375</ele>
        <time>2026-06-15T14:11:29.000Z</time>
        <extensions>
          <ns3:TrackPointExtension>
            <ns3:atemp>17.0</ns3:atemp>
          </ns3:TrackPointExtension>
        </extensions>
      </trkpt>
      <trkpt lat="42.58261428214609622955322265625" lon="20.01604554243385791778564453125">
        <ele>1997.4000244140625</ele>
        <time>2026-06-15T14:11:30.000Z</time>
        <extensions>
          <ns3:TrackPointExtension>
            <ns3:atemp>17.0</ns3:atemp>
          </ns3:TrackPointExtension>
        </extensions>
      </trkpt>
      <trkpt lat="42.58263356052339076995849609375" lon="20.01601620577275753021240234375">
        <ele>1997.4000244140625</ele>
        <time>2026-06-15T14:11:31.000Z</time>
        <extensions>
          <ns3:TrackPointExtension>
            <ns3:atemp>17.0</ns3:atemp>
          </ns3:TrackPointExtension>
        </extensions>
      </trkpt>
      <trkpt lat="42.58265552110970020294189453125" lon="20.01597940921783447265625">
        <ele>1997.4000244140625</ele>
        <time>2026-06-15T14:11:32.000Z</time>
        <extensions>
          <ns3:TrackPointExtension>
            <ns3:atemp>17.0</ns3:atemp>
          </ns3:TrackPointExtension>
        </extensions>
      </trkpt>
      <trkpt lat="42.58268527686595916748046875" lon="20.01595593988895416259765625">
        <ele>1997.4000244140625</ele>
        <time>2026-06-15T14:11:33.000Z</time>
        <extensions>
          <ns3:TrackPointExtension>
            <ns3:atemp>17.0</ns3:atemp>
          </ns3:TrackPointExtension>
        </extensions>
      </trkpt>
      <trkpt lat="42.58271838538348674774169921875" lon="20.0159353204071521759033203125">
        <ele>1997.4000244140625</ele>
        <time>2026-06-15T14:11:34.000Z</time>
        <extensions>
          <ns3:TrackPointExtension>
            <ns3:atemp>17.0</ns3:atemp>
          </ns3:TrackPointExtension>
        </extensions>
      </trkpt>
      <trkpt lat="42.58274269290268421173095703125" lon="20.01590522937476634979248046875">
        <ele>1997.4000244140625</ele>
        <time>2026-06-15T14:11:35.000Z</time>
        <extensions>
          <ns3:TrackPointExtension>
            <ns3:atemp>17.0</ns3:atemp>
          </ns3:TrackPointExtension>
        </extensions>
      </trkpt>
      <trkpt lat="42.58276901207864284515380859375" lon="20.01587371341884136199951171875">
        <ele>1997.5999755859375</ele>
        <time>2026-06-15T14:11:36.000Z</time>
        <extensions>
          <ns3:TrackPointExtension>
            <ns3:atemp>17.0</ns3:atemp>
          </ns3:TrackPointExtension>
        </extensions>
      </trkpt>
      <trkpt lat="42.5827987678349018096923828125" lon="20.01584404148161411285400390625">
        <ele>1997.5999755859375</ele>
        <time>2026-06-15T14:11:37.000Z</time>
        <extensions>
          <ns3:TrackPointExtension>
            <ns3:atemp>17.0</ns3:atemp>
          </ns3:TrackPointExtension>
        </extensions>
      </trkpt>
      <trkpt lat="42.58282081224024295806884765625" lon="20.015810765326023101806640625">
        <ele>1997.800048828125</ele>
        <time>2026-06-15T14:11:38.000Z</time>
        <extensions>
          <ns3:TrackPointExtension>
            <ns3:atemp>17.0</ns3:atemp>
          </ns3:TrackPointExtension>
        </extensions>
      </trkpt>
      <trkpt lat="42.58284260518848896026611328125" lon="20.01580464653670787811279296875">
        <ele>1997.800048828125</ele>
        <time>2026-06-15T14:11:39.000Z</time>
        <extensions>
          <ns3:TrackPointExtension>
            <ns3:atemp>17.0</ns3:atemp>
          </ns3:TrackPointExtension>
        </extensions>
      </trkpt>
      <trkpt lat="42.58285936899483203887939453125" lon="20.01580196432769298553466796875">
        <ele>1998</ele>
        <time>2026-06-15T14:11:40.000Z</time>
        <extensions>
          <ns3:TrackPointExtension>
            <ns3:atemp>17.0</ns3:atemp>
          </ns3:TrackPointExtension>
        </extensions>
      </trkpt>
      <trkpt lat="42.58287571370601654052734375" lon="20.01579106785356998443603515625">
        <ele>1998</ele>
        <time>2026-06-15T14:11:41.000Z</time>
        <extensions>
          <ns3:TrackPointExtension>
            <ns3:atemp>17.0</ns3:atemp>
          </ns3:TrackPointExtension>
        </extensions>
      </trkpt>
      <trkpt lat="42.582892477512359619140625" lon="20.015772879123687744140625">
        <ele>1998.199951171875</ele>
        <time>2026-06-15T14:11:42.000Z</time>
        <extensions>
          <ns3:TrackPointExtension>
            <ns3:atemp>17.0</ns3:atemp>
          </ns3:TrackPointExtension>
        </extensions>
      </trkpt>
      <trkpt lat="42.58291536010801792144775390625" lon="20.01575804315507411956787109375">
        <ele>1998.4000244140625</ele>
        <time>2026-06-15T14:11:43.000Z</time>
        <extensions>
          <ns3:TrackPointExtension>
            <ns3:atemp>17.0</ns3:atemp>
          </ns3:TrackPointExtension>
        </extensions>
      </trkpt>
      <trkpt lat="42.5829516537487506866455078125" lon="20.015734322369098663330078125">
        <ele>1998.5999755859375</ele>
        <time>2026-06-15T14:11:44.000Z</time>
        <extensions>
          <ns3:TrackPointExtension>
            <ns3:atemp>17.0</ns3:atemp>
          </ns3:TrackPointExtension>
        </extensions>
      </trkpt>
      <trkpt lat="42.58298828266561031341552734375" lon="20.01570607535541057586669921875">
        <ele>1998.5999755859375</ele>
        <time>2026-06-15T14:11:45.000Z</time>
        <extensions>
          <ns3:TrackPointExtension>
            <ns3:atemp>17.0</ns3:atemp>
          </ns3:TrackPointExtension>
        </extensions>
      </trkpt>
      <trkpt lat="42.58302834816277027130126953125" lon="20.015681348741054534912109375">
        <ele>1998.5999755859375</ele>
        <time>2026-06-15T14:11:46.000Z</time>
        <extensions>
          <ns3:TrackPointExtension>
            <ns3:atemp>17.0</ns3:atemp>
          </ns3:TrackPointExtension>
        </extensions>
      </trkpt>
      <trkpt lat="42.5830659829080104827880859375" lon="20.015649832785129547119140625">
        <ele>1998.5999755859375</ele>
        <time>2026-06-15T14:11:47.000Z</time>
        <extensions>
          <ns3:TrackPointExtension>
            <ns3:atemp>17.0</ns3:atemp>
          </ns3:TrackPointExtension>
        </extensions>
      </trkpt>
      <trkpt lat="42.58309590630233287811279296875" lon="20.015604905784130096435546875">
        <ele>1998.4000244140625</ele>
        <time>2026-06-15T14:11:48.000Z</time>
        <extensions>
          <ns3:TrackPointExtension>
            <ns3:atemp>17.0</ns3:atemp>
          </ns3:TrackPointExtension>
        </extensions>
      </trkpt>
      <trkpt lat="42.5831276737153530120849609375" lon="20.01556945033371448516845703125">
        <ele>1998.199951171875</ele>
        <time>2026-06-15T14:11:49.000Z</time>
        <extensions>
          <ns3:TrackPointExtension>
            <ns3:atemp>17.0</ns3:atemp>
          </ns3:TrackPointExtension>
        </extensions>
      </trkpt>
      <trkpt lat="42.58315407671034336090087890625" lon="20.01556023024022579193115234375">
        <ele>1998.199951171875</ele>
        <time>2026-06-15T14:11:50.000Z</time>
        <extensions>
          <ns3:TrackPointExtension>
            <ns3:atemp>17.0</ns3:atemp>
          </ns3:TrackPointExtension>
        </extensions>
      </trkpt>
      <trkpt lat="42.58317419327795505523681640625" lon="20.01554681919515132904052734375">
        <ele>1998.199951171875</ele>
        <time>2026-06-15T14:11:51.000Z</time>
        <extensions>
          <ns3:TrackPointExtension>
            <ns3:atemp>17.0</ns3:atemp>
          </ns3:TrackPointExtension>
        </extensions>
      </trkpt>
      <trkpt lat="42.5831977464258670806884765625" lon="20.01552586443722248077392578125">
        <ele>1998.199951171875</ele>
        <time>2026-06-15T14:11:52.000Z</time>
        <extensions>
          <ns3:TrackPointExtension>
            <ns3:atemp>17.0</ns3:atemp>
          </ns3:TrackPointExtension>
        </extensions>
      </trkpt>
      <trkpt lat="42.58322247304022312164306640625" lon="20.015496276319026947021484375">
        <ele>1998.199951171875</ele>
        <time>2026-06-15T14:11:53.000Z</time>
        <extensions>
          <ns3:TrackPointExtension>
            <ns3:atemp>17.0</ns3:atemp>
          </ns3:TrackPointExtension>
        </extensions>
      </trkpt>
      <trkpt lat="42.583240829408168792724609375" lon="20.01545512117445468902587890625">
        <ele>1998.199951171875</ele>
        <time>2026-06-15T14:11:54.000Z</time>
        <extensions>
          <ns3:TrackPointExtension>
            <ns3:atemp>17.0</ns3:atemp>
          </ns3:TrackPointExtension>
        </extensions>
      </trkpt>
      <trkpt lat="42.58326890878379344940185546875" lon="20.0154099427163600921630859375">
        <ele>1998.199951171875</ele>
        <time>2026-06-15T14:11:55.000Z</time>
        <extensions>
          <ns3:TrackPointExtension>
            <ns3:atemp>17.0</ns3:atemp>
          </ns3:TrackPointExtension>
        </extensions>
      </trkpt>
      <trkpt lat="42.58329053409397602081298828125" lon="20.0153871439397335052490234375">
        <ele>1998</ele>
        <time>2026-06-15T14:11:56.000Z</time>
        <extensions>
          <ns3:TrackPointExtension>
            <ns3:atemp>17.0</ns3:atemp>
          </ns3:TrackPointExtension>
        </extensions>
      </trkpt>
      <trkpt lat="42.58330092765390872955322265625" lon="20.015386976301670074462890625">
        <ele>1997.800048828125</ele>
        <time>2026-06-15T14:11:57.000Z</time>
        <extensions>
          <ns3:TrackPointExtension>
            <ns3:atemp>17.0</ns3:atemp>
          </ns3:TrackPointExtension>
        </extensions>
      </trkpt>
      <trkpt lat="42.58330226875841617584228515625" lon="20.0153767503798007965087890625">
        <ele>1998</ele>
        <time>2026-06-15T14:11:58.000Z</time>
        <extensions>
          <ns3:TrackPointExtension>
            <ns3:atemp>17.0</ns3:atemp>
          </ns3:TrackPointExtension>
        </extensions>
      </trkpt>
      <trkpt lat="42.5833020173013210296630859375" lon="20.0153760798275470733642578125">
        <ele>1998</ele>
        <time>2026-06-15T14:11:59.000Z</time>
        <extensions>
          <ns3:TrackPointExtension>
            <ns3:atemp>17.0</ns3:atemp>
          </ns3:TrackPointExtension>
        </extensions>
      </trkpt>
      <trkpt lat="42.5833020173013210296630859375" lon="20.0153760798275470733642578125">
        <ele>1998.199951171875</ele>
        <time>2026-06-15T14:12:00.000Z</time>
        <extensions>
          <ns3:TrackPointExtension>
            <ns3:atemp>17.0</ns3:atemp>
          </ns3:TrackPointExtension>
        </extensions>
      </trkpt>
      <trkpt lat="42.5833020173013210296630859375" lon="20.0153760798275470733642578125">
        <ele>1998.199951171875</ele>
        <time>2026-06-15T14:12:01.000Z</time>
        <extensions>
          <ns3:TrackPointExtension>
            <ns3:atemp>17.0</ns3:atemp>
          </ns3:TrackPointExtension>
        </extensions>
      </trkpt>
      <trkpt lat="42.5833020173013210296630859375" lon="20.0153760798275470733642578125">
        <ele>1998.4000244140625</ele>
        <time>2026-06-15T14:12:02.000Z</time>
        <extensions>
          <ns3:TrackPointExtension>
            <ns3:atemp>17.0</ns3:atemp>
          </ns3:TrackPointExtension>
        </extensions>
      </trkpt>
      <trkpt lat="42.5833020173013210296630859375" lon="20.0153760798275470733642578125">
        <ele>1998.199951171875</ele>
        <time>2026-06-15T14:12:03.000Z</time>
        <extensions>
          <ns3:TrackPointExtension>
            <ns3:atemp>17.0</ns3:atemp>
          </ns3:TrackPointExtension>
        </extensions>
      </trkpt>
      <trkpt lat="42.5833020173013210296630859375" lon="20.0153760798275470733642578125">
        <ele>1998</ele>
        <time>2026-06-15T14:12:04.000Z</time>
        <extensions>
          <ns3:TrackPointExtension>
            <ns3:atemp>17.0</ns3:atemp>
          </ns3:TrackPointExtension>
        </extensions>
      </trkpt>
      <trkpt lat="42.5833020173013210296630859375" lon="20.0153760798275470733642578125">
        <ele>1997.800048828125</ele>
        <time>2026-06-15T14:12:05.000Z</time>
        <extensions>
          <ns3:TrackPointExtension>
            <ns3:atemp>17.0</ns3:atemp>
          </ns3:TrackPointExtension>
        </extensions>
      </trkpt>
      <trkpt lat="42.5833020173013210296630859375" lon="20.0153760798275470733642578125">
        <ele>1997.5999755859375</ele>
        <time>2026-06-15T14:12:06.000Z</time>
        <extensions>
          <ns3:TrackPointExtension>
            <ns3:atemp>17.0</ns3:atemp>
          </ns3:TrackPointExtension>
        </extensions>
      </trkpt>
      <trkpt lat="42.5833020173013210296630859375" lon="20.0153760798275470733642578125">
        <ele>1997.4000244140625</ele>
        <time>2026-06-15T14:12:07.000Z</time>
        <extensions>
          <ns3:TrackPointExtension>
            <ns3:atemp>17.0</ns3:atemp>
          </ns3:TrackPointExtension>
        </extensions>
      </trkpt>
      <trkpt lat="42.5833020173013210296630859375" lon="20.0153760798275470733642578125">
        <ele>1997.4000244140625</ele>
        <time>2026-06-15T14:12:08.000Z</time>
        <extensions>
          <ns3:TrackPointExtension>
            <ns3:atemp>17.0</ns3:atemp>
          </ns3:TrackPointExtension>
        </extensions>
      </trkpt>
      <trkpt lat="42.5833020173013210296630859375" lon="20.0153760798275470733642578125">
        <ele>1997.4000244140625</ele>
        <time>2026-06-15T14:12:09.000Z</time>
        <extensions>
          <ns3:TrackPointExtension>
            <ns3:atemp>17.0</ns3:atemp>
          </ns3:TrackPointExtension>
        </extensions>
      </trkpt>
      <trkpt lat="42.5833020173013210296630859375" lon="20.0153760798275470733642578125">
        <ele>1997.5999755859375</ele>
        <time>2026-06-15T14:12:10.000Z</time>
        <extensions>
          <ns3:TrackPointExtension>
            <ns3:atemp>17.0</ns3:atemp>
          </ns3:TrackPointExtension>
        </extensions>
      </trkpt>
      <trkpt lat="42.583301179111003875732421875" lon="20.01537297852337360382080078125">
        <ele>1997.4000244140625</ele>
        <time>2026-06-15T14:12:11.000Z</time>
        <extensions>
          <ns3:TrackPointExtension>
            <ns3:atemp>17.0</ns3:atemp>
          </ns3:TrackPointExtension>
        </extensions>
      </trkpt>
      <trkpt lat="42.58329556323587894439697265625" lon="20.015359483659267425537109375">
        <ele>1997.4000244140625</ele>
        <time>2026-06-15T14:12:12.000Z</time>
        <extensions>
          <ns3:TrackPointExtension>
            <ns3:atemp>17.0</ns3:atemp>
          </ns3:TrackPointExtension>
        </extensions>
      </trkpt>
      <trkpt lat="42.583289779722690582275390625" lon="20.01535378396511077880859375">
        <ele>1997.4000244140625</ele>
        <time>2026-06-15T14:12:13.000Z</time>
        <extensions>
          <ns3:TrackPointExtension>
            <ns3:atemp>17.0</ns3:atemp>
          </ns3:TrackPointExtension>
        </extensions>
      </trkpt>
      <trkpt lat="42.5832869298756122589111328125" lon="20.0153546221554279327392578125">
        <ele>1997.199951171875</ele>
        <time>2026-06-15T14:12:14.000Z</time>
        <extensions>
          <ns3:TrackPointExtension>
            <ns3:atemp>17.0</ns3:atemp>
          </ns3:TrackPointExtension>
        </extensions>
      </trkpt>
      <trkpt lat="42.583286762237548828125" lon="20.0153546221554279327392578125">
        <ele>1997.199951171875</ele>
        <time>2026-06-15T14:12:15.000Z</time>
        <extensions>
          <ns3:TrackPointExtension>
            <ns3:atemp>17.0</ns3:atemp>
          </ns3:TrackPointExtension>
        </extensions>
      </trkpt>
      <trkpt lat="42.583286762237548828125" lon="20.0153546221554279327392578125">
        <ele>1997</ele>
        <time>2026-06-15T14:12:16.000Z</time>
        <extensions>
          <ns3:TrackPointExtension>
            <ns3:atemp>17.0</ns3:atemp>
          </ns3:TrackPointExtension>
        </extensions>
      </trkpt>
      <trkpt lat="42.583286762237548828125" lon="20.0153546221554279327392578125">
        <ele>1997</ele>
        <time>2026-06-15T14:12:17.000Z</time>
        <extensions>
          <ns3:TrackPointExtension>
            <ns3:atemp>17.0</ns3:atemp>
          </ns3:TrackPointExtension>
        </extensions>
      </trkpt>
      <trkpt lat="42.5832862593233585357666015625" lon="20.0153542868793010711669921875">
        <ele>1997</ele>
        <time>2026-06-15T14:12:18.000Z</time>
        <extensions>
          <ns3:TrackPointExtension>
            <ns3:atemp>17.0</ns3:atemp>
          </ns3:TrackPointExtension>
        </extensions>
      </trkpt>
      <trkpt lat="42.58327494375407695770263671875" lon="20.0153529457747936248779296875">
        <ele>1997</ele>
        <time>2026-06-15T14:12:19.000Z</time>
        <extensions>
          <ns3:TrackPointExtension>
            <ns3:atemp>17.0</ns3:atemp>
          </ns3:TrackPointExtension>
        </extensions>
      </trkpt>
      <trkpt lat="42.58327628485858440399169921875" lon="20.015347413718700408935546875">
        <ele>1997</ele>
        <time>2026-06-15T14:12:20.000Z</time>
        <extensions>
          <ns3:TrackPointExtension>
            <ns3:atemp>17.0</ns3:atemp>
          </ns3:TrackPointExtension>
        </extensions>
      </trkpt>
      <trkpt lat="42.583286762237548828125" lon="20.0153546221554279327392578125">
        <ele>1997.199951171875</ele>
        <time>2026-06-15T14:12:21.000Z</time>
        <extensions>
          <ns3:TrackPointExtension>
            <ns3:atemp>17.0</ns3:atemp>
          </ns3:TrackPointExtension>
        </extensions>
      </trkpt>
      <trkpt lat="42.583286762237548828125" lon="20.0153546221554279327392578125">
        <ele>1997</ele>
        <time>2026-06-15T14:12:22.000Z</time>
        <extensions>
          <ns3:TrackPointExtension>
            <ns3:atemp>17.0</ns3:atemp>
          </ns3:TrackPointExtension>
        </extensions>
      </trkpt>
      <trkpt lat="42.583286762237548828125" lon="20.0153546221554279327392578125">
        <ele>1997</ele>
        <time>2026-06-15T14:12:23.000Z</time>
        <extensions>
          <ns3:TrackPointExtension>
            <ns3:atemp>17.0</ns3:atemp>
          </ns3:TrackPointExtension>
        </extensions>
      </trkpt>
      <trkpt lat="42.58327511139214038848876953125" lon="20.01534582115709781646728515625">
        <ele>1997</ele>
        <time>2026-06-15T14:12:24.000Z</time>
        <extensions>
          <ns3:TrackPointExtension>
            <ns3:atemp>17.0</ns3:atemp>
          </ns3:TrackPointExtension>
        </extensions>
      </trkpt>
      <trkpt lat="42.58327276445925235748291015625" lon="20.015338696539402008056640625">
        <ele>1997</ele>
        <time>2026-06-15T14:12:25.000Z</time>
        <extensions>
          <ns3:TrackPointExtension>
            <ns3:atemp>17.0</ns3:atemp>
          </ns3:TrackPointExtension>
        </extensions>
      </trkpt>
      <trkpt lat="42.58327276445925235748291015625" lon="20.015338696539402008056640625">
        <ele>1997</ele>
        <time>2026-06-15T14:12:26.000Z</time>
        <extensions>
          <ns3:TrackPointExtension>
            <ns3:atemp>17.0</ns3:atemp>
          </ns3:TrackPointExtension>
        </extensions>
      </trkpt>
      <trkpt lat="42.58327276445925235748291015625" lon="20.015338696539402008056640625">
        <ele>1997.199951171875</ele>
        <time>2026-06-15T14:12:27.000Z</time>
        <extensions>
          <ns3:TrackPointExtension>
            <ns3:atemp>17.0</ns3:atemp>
          </ns3:TrackPointExtension>
        </extensions>
      </trkpt>
      <trkpt lat="42.58327276445925235748291015625" lon="20.015338696539402008056640625">
        <ele>1997.199951171875</ele>
        <time>2026-06-15T14:12:28.000Z</time>
        <extensions>
          <ns3:TrackPointExtension>
            <ns3:atemp>17.0</ns3:atemp>
          </ns3:TrackPointExtension>
        </extensions>
      </trkpt>
      <trkpt lat="42.58327276445925235748291015625" lon="20.015338696539402008056640625">
        <ele>1997.4000244140625</ele>
        <time>2026-06-15T14:12:29.000Z</time>
        <extensions>
          <ns3:TrackPointExtension>
            <ns3:atemp>17.0</ns3:atemp>
          </ns3:TrackPointExtension>
        </extensions>
      </trkpt>
      <trkpt lat="42.58327276445925235748291015625" lon="20.015338696539402008056640625">
        <ele>1997.199951171875</ele>
        <time>2026-06-15T14:12:30.000Z</time>
        <extensions>
          <ns3:TrackPointExtension>
            <ns3:atemp>17.0</ns3:atemp>
          </ns3:TrackPointExtension>
        </extensions>
      </trkpt>
      <trkpt lat="42.58327276445925235748291015625" lon="20.015338696539402008056640625">
        <ele>1997</ele>
        <time>2026-06-15T14:12:31.000Z</time>
        <extensions>
          <ns3:TrackPointExtension>
            <ns3:atemp>17.0</ns3:atemp>
          </ns3:TrackPointExtension>
        </extensions>
      </trkpt>
      <trkpt lat="42.58327276445925235748291015625" lon="20.015338696539402008056640625">
        <ele>1997</ele>
        <time>2026-06-15T14:12:32.000Z</time>
        <extensions>
          <ns3:TrackPointExtension>
            <ns3:atemp>17.0</ns3:atemp>
          </ns3:TrackPointExtension>
        </extensions>
      </trkpt>
      <trkpt lat="42.58327276445925235748291015625" lon="20.015338696539402008056640625">
        <ele>1997</ele>
        <time>2026-06-15T14:12:33.000Z</time>
        <extensions>
          <ns3:TrackPointExtension>
            <ns3:atemp>17.0</ns3:atemp>
          </ns3:TrackPointExtension>
        </extensions>
      </trkpt>
      <trkpt lat="42.58327276445925235748291015625" lon="20.015338696539402008056640625">
        <ele>1997</ele>
        <time>2026-06-15T14:12:34.000Z</time>
        <extensions>
          <ns3:TrackPointExtension>
            <ns3:atemp>17.0</ns3:atemp>
          </ns3:TrackPointExtension>
        </extensions>
      </trkpt>
      <trkpt lat="42.58327276445925235748291015625" lon="20.015338696539402008056640625">
        <ele>1997</ele>
        <time>2026-06-15T14:12:35.000Z</time>
        <extensions>
          <ns3:TrackPointExtension>
            <ns3:atemp>17.0</ns3:atemp>
          </ns3:TrackPointExtension>
        </extensions>
      </trkpt>
      <trkpt lat="42.58327276445925235748291015625" lon="20.015338696539402008056640625">
        <ele>1997</ele>
        <time>2026-06-15T14:12:36.000Z</time>
        <extensions>
          <ns3:TrackPointExtension>
            <ns3:atemp>18.0</ns3:atemp>
          </ns3:TrackPointExtension>
        </extensions>
      </trkpt>
      <trkpt lat="42.58327276445925235748291015625" lon="20.015338696539402008056640625">
        <ele>1997</ele>
        <time>2026-06-15T14:12:37.000Z</time>
        <extensions>
          <ns3:TrackPointExtension>
            <ns3:atemp>18.0</ns3:atemp>
          </ns3:TrackPointExtension>
        </extensions>
      </trkpt>
      <trkpt lat="42.58327276445925235748291015625" lon="20.015338696539402008056640625">
        <ele>1997.199951171875</ele>
        <time>2026-06-15T14:12:38.000Z</time>
        <extensions>
          <ns3:TrackPointExtension>
            <ns3:atemp>18.0</ns3:atemp>
          </ns3:TrackPointExtension>
        </extensions>
      </trkpt>
      <trkpt lat="42.58327276445925235748291015625" lon="20.015338696539402008056640625">
        <ele>1997.199951171875</ele>
        <time>2026-06-15T14:12:39.000Z</time>
        <extensions>
          <ns3:TrackPointExtension>
            <ns3:atemp>18.0</ns3:atemp>
          </ns3:TrackPointExtension>
        </extensions>
      </trkpt>
      <trkpt lat="42.58327276445925235748291015625" lon="20.015338696539402008056640625">
        <ele>1997.199951171875</ele>
        <time>2026-06-15T14:12:40.000Z</time>
        <extensions>
          <ns3:TrackPointExtension>
            <ns3:atemp>18.0</ns3:atemp>
          </ns3:TrackPointExtension>
        </extensions>
      </trkpt>
      <trkpt lat="42.58327276445925235748291015625" lon="20.015338696539402008056640625">
        <ele>1997.199951171875</ele>
        <time>2026-06-15T14:12:41.000Z</time>
        <extensions>
          <ns3:TrackPointExtension>
            <ns3:atemp>18.0</ns3:atemp>
          </ns3:TrackPointExtension>
        </extensions>
      </trkpt>
      <trkpt lat="42.58327276445925235748291015625" lon="20.015338696539402008056640625">
        <ele>1997.199951171875</ele>
        <time>2026-06-15T14:12:42.000Z</time>
        <extensions>
          <ns3:TrackPointExtension>
            <ns3:atemp>18.0</ns3:atemp>
          </ns3:TrackPointExtension>
        </extensions>
      </trkpt>
      <trkpt lat="42.58327276445925235748291015625" lon="20.015338696539402008056640625">
        <ele>1997.4000244140625</ele>
        <time>2026-06-15T14:12:43.000Z</time>
        <extensions>
          <ns3:TrackPointExtension>
            <ns3:atemp>18.0</ns3:atemp>
          </ns3:TrackPointExtension>
        </extensions>
      </trkpt>
      <trkpt lat="42.58327276445925235748291015625" lon="20.015338696539402008056640625">
        <ele>1997.4000244140625</ele>
        <time>2026-06-15T14:12:44.000Z</time>
        <extensions>
          <ns3:TrackPointExtension>
            <ns3:atemp>18.0</ns3:atemp>
          </ns3:TrackPointExtension>
        </extensions>
      </trkpt>
      <trkpt lat="42.58327276445925235748291015625" lon="20.015338696539402008056640625">
        <ele>1997.4000244140625</ele>
        <time>2026-06-15T14:12:45.000Z</time>
        <extensions>
          <ns3:TrackPointExtension>
            <ns3:atemp>18.0</ns3:atemp>
          </ns3:TrackPointExtension>
        </extensions>
      </trkpt>
      <trkpt lat="42.58327276445925235748291015625" lon="20.015338696539402008056640625">
        <ele>1997.4000244140625</ele>
        <time>2026-06-15T14:12:46.000Z</time>
        <extensions>
          <ns3:TrackPointExtension>
            <ns3:atemp>18.0</ns3:atemp>
          </ns3:TrackPointExtension>
        </extensions>
      </trkpt>
      <trkpt lat="42.58327276445925235748291015625" lon="20.015338696539402008056640625">
        <ele>1997.4000244140625</ele>
        <time>2026-06-15T14:12:47.000Z</time>
        <extensions>
          <ns3:TrackPointExtension>
            <ns3:atemp>18.0</ns3:atemp>
          </ns3:TrackPointExtension>
        </extensions>
      </trkpt>
      <trkpt lat="42.58327276445925235748291015625" lon="20.015338696539402008056640625">
        <ele>1997.4000244140625</ele>
        <time>2026-06-15T14:12:48.000Z</time>
        <extensions>
          <ns3:TrackPointExtension>
            <ns3:atemp>18.0</ns3:atemp>
          </ns3:TrackPointExtension>
        </extensions>
      </trkpt>
      <trkpt lat="42.58327276445925235748291015625" lon="20.015338696539402008056640625">
        <ele>1997.4000244140625</ele>
        <time>2026-06-15T14:12:49.000Z</time>
        <extensions>
          <ns3:TrackPointExtension>
            <ns3:atemp>18.0</ns3:atemp>
          </ns3:TrackPointExtension>
        </extensions>
      </trkpt>
      <trkpt lat="42.58327276445925235748291015625" lon="20.015338696539402008056640625">
        <ele>1997.4000244140625</ele>
        <time>2026-06-15T14:12:50.000Z</time>
        <extensions>
          <ns3:TrackPointExtension>
            <ns3:atemp>18.0</ns3:atemp>
          </ns3:TrackPointExtension>
        </extensions>
      </trkpt>
      <trkpt lat="42.58327276445925235748291015625" lon="20.015338696539402008056640625">
        <ele>1997.4000244140625</ele>
        <time>2026-06-15T14:12:51.000Z</time>
        <extensions>
          <ns3:TrackPointExtension>
            <ns3:atemp>18.0</ns3:atemp>
          </ns3:TrackPointExtension>
        </extensions>
      </trkpt>
      <trkpt lat="42.58327024988830089569091796875" lon="20.0153455697000026702880859375">
        <ele>1997.4000244140625</ele>
        <time>2026-06-15T14:12:52.000Z</time>
        <extensions>
          <ns3:TrackPointExtension>
            <ns3:atemp>18.0</ns3:atemp>
          </ns3:TrackPointExtension>
        </extensions>
      </trkpt>
      <trkpt lat="42.5832715071737766265869140625" lon="20.01537113450467586517333984375">
        <ele>1997.199951171875</ele>
        <time>2026-06-15T14:12:53.000Z</time>
        <extensions>
          <ns3:TrackPointExtension>
            <ns3:atemp>18.0</ns3:atemp>
          </ns3:TrackPointExtension>
        </extensions>
      </trkpt>
      <trkpt lat="42.58328030817210674285888671875" lon="20.0153687037527561187744140625">
        <ele>1997.199951171875</ele>
        <time>2026-06-15T14:12:54.000Z</time>
        <extensions>
          <ns3:TrackPointExtension>
            <ns3:atemp>18.0</ns3:atemp>
          </ns3:TrackPointExtension>
        </extensions>
      </trkpt>
      <trkpt lat="42.583291791379451751708984375" lon="20.015364177525043487548828125">
        <ele>1997.4000244140625</ele>
        <time>2026-06-15T14:12:55.000Z</time>
        <extensions>
          <ns3:TrackPointExtension>
            <ns3:atemp>18.0</ns3:atemp>
          </ns3:TrackPointExtension>
        </extensions>
      </trkpt>
      <trkpt lat="42.58329757489264011383056640625" lon="20.01536509953439235687255859375">
        <ele>1997.4000244140625</ele>
        <time>2026-06-15T14:12:56.000Z</time>
        <extensions>
          <ns3:TrackPointExtension>
            <ns3:atemp>18.0</ns3:atemp>
          </ns3:TrackPointExtension>
        </extensions>
      </trkpt>
      <trkpt lat="42.5832976587116718292236328125" lon="20.0153650157153606414794921875">
        <ele>1997.5999755859375</ele>
        <time>2026-06-15T14:12:57.000Z</time>
        <extensions>
          <ns3:TrackPointExtension>
            <ns3:atemp>18.0</ns3:atemp>
          </ns3:TrackPointExtension>
        </extensions>
      </trkpt>
      <trkpt lat="42.5832976587116718292236328125" lon="20.0153650157153606414794921875">
        <ele>1997.800048828125</ele>
        <time>2026-06-15T14:12:58.000Z</time>
        <extensions>
          <ns3:TrackPointExtension>
            <ns3:atemp>18.0</ns3:atemp>
          </ns3:TrackPointExtension>
        </extensions>
      </trkpt>
      <trkpt lat="42.58329791016876697540283203125" lon="20.0153646804392337799072265625">
        <ele>1998</ele>
        <time>2026-06-15T14:12:59.000Z</time>
        <extensions>
          <ns3:TrackPointExtension>
            <ns3:atemp>18.0</ns3:atemp>
          </ns3:TrackPointExtension>
        </extensions>
      </trkpt>
      <trkpt lat="42.583306543529033660888671875" lon="20.01535587944090366363525390625">
        <ele>1998</ele>
        <time>2026-06-15T14:13:00.000Z</time>
        <extensions>
          <ns3:TrackPointExtension>
            <ns3:atemp>18.0</ns3:atemp>
          </ns3:TrackPointExtension>
        </extensions>
      </trkpt>
      <trkpt lat="42.58331350050866603851318359375" lon="20.01534833572804927825927734375">
        <ele>1998</ele>
        <time>2026-06-15T14:13:01.000Z</time>
        <extensions>
          <ns3:TrackPointExtension>
            <ns3:atemp>18.0</ns3:atemp>
          </ns3:TrackPointExtension>
        </extensions>
      </trkpt>
      <trkpt lat="42.58331785909831523895263671875" lon="20.01533567905426025390625">
        <ele>1998</ele>
        <time>2026-06-15T14:13:02.000Z</time>
        <extensions>
          <ns3:TrackPointExtension>
            <ns3:atemp>18.0</ns3:atemp>
          </ns3:TrackPointExtension>
        </extensions>
      </trkpt>
      <trkpt lat="42.58333009667694568634033203125" lon="20.01531816087663173675537109375">
        <ele>1997.800048828125</ele>
        <time>2026-06-15T14:13:03.000Z</time>
        <extensions>
          <ns3:TrackPointExtension>
            <ns3:atemp>18.0</ns3:atemp>
          </ns3:TrackPointExtension>
        </extensions>
      </trkpt>
      <trkpt lat="42.58334803394973278045654296875" lon="20.01531363464891910552978515625">
        <ele>1997.800048828125</ele>
        <time>2026-06-15T14:13:04.000Z</time>
        <extensions>
          <ns3:TrackPointExtension>
            <ns3:atemp>18.0</ns3:atemp>
          </ns3:TrackPointExtension>
        </extensions>
      </trkpt>
      <trkpt lat="42.5833720900118350982666015625" lon="20.01530676148831844329833984375">
        <ele>1997.5999755859375</ele>
        <time>2026-06-15T14:13:05.000Z</time>
        <extensions>
          <ns3:TrackPointExtension>
            <ns3:atemp>18.0</ns3:atemp>
          </ns3:TrackPointExtension>
        </extensions>
      </trkpt>
      <trkpt lat="42.58338726125657558441162109375" lon="20.0152858905494213104248046875">
        <ele>1997.5999755859375</ele>
        <time>2026-06-15T14:13:06.000Z</time>
        <extensions>
          <ns3:TrackPointExtension>
            <ns3:atemp>18.0</ns3:atemp>
          </ns3:TrackPointExtension>
        </extensions>
      </trkpt>
      <trkpt lat="42.58340276777744293212890625" lon="20.015253536403179168701171875">
        <ele>1997.4000244140625</ele>
        <time>2026-06-15T14:13:07.000Z</time>
        <extensions>
          <ns3:TrackPointExtension>
            <ns3:atemp>18.0</ns3:atemp>
          </ns3:TrackPointExtension>
        </extensions>
      </trkpt>
      <trkpt lat="42.58342548273503780364990234375" lon="20.01522813923656940460205078125">
        <ele>1997.199951171875</ele>
        <time>2026-06-15T14:13:08.000Z</time>
        <extensions>
          <ns3:TrackPointExtension>
            <ns3:atemp>18.0</ns3:atemp>
          </ns3:TrackPointExtension>
        </extensions>
      </trkpt>
      <trkpt lat="42.58344710804522037506103515625" lon="20.015184469521045684814453125">
        <ele>1997.199951171875</ele>
        <time>2026-06-15T14:13:09.000Z</time>
        <extensions>
          <ns3:TrackPointExtension>
            <ns3:atemp>18.0</ns3:atemp>
          </ns3:TrackPointExtension>
        </extensions>
      </trkpt>
      <trkpt lat="42.5834686495363712310791015625" lon="20.0151343457400798797607421875">
        <ele>1996.800048828125</ele>
        <time>2026-06-15T14:13:10.000Z</time>
        <extensions>
          <ns3:TrackPointExtension>
            <ns3:atemp>18.0</ns3:atemp>
          </ns3:TrackPointExtension>
        </extensions>
      </trkpt>
      <trkpt lat="42.5835008360445499420166015625" lon="20.01509805209934711456298828125">
        <ele>1996.5999755859375</ele>
        <time>2026-06-15T14:13:11.000Z</time>
        <extensions>
          <ns3:TrackPointExtension>
            <ns3:atemp>18.0</ns3:atemp>
          </ns3:TrackPointExtension>
        </extensions>
      </trkpt>
      <trkpt lat="42.583530843257904052734375" lon="20.0150602497160434722900390625">
        <ele>1996.4000244140625</ele>
        <time>2026-06-15T14:13:12.000Z</time>
        <extensions>
          <ns3:TrackPointExtension>
            <ns3:atemp>18.0</ns3:atemp>
          </ns3:TrackPointExtension>
        </extensions>
      </trkpt>
      <trkpt lat="42.583560682833194732666015625" lon="20.01502211205661296844482421875">
        <ele>1996</ele>
        <time>2026-06-15T14:13:13.000Z</time>
        <extensions>
          <ns3:TrackPointExtension>
            <ns3:atemp>18.0</ns3:atemp>
          </ns3:TrackPointExtension>
        </extensions>
      </trkpt>
      <trkpt lat="42.58359261788427829742431640625" lon="20.014990679919719696044921875">
        <ele>1995.800048828125</ele>
        <time>2026-06-15T14:13:14.000Z</time>
        <extensions>
          <ns3:TrackPointExtension>
            <ns3:atemp>18.0</ns3:atemp>
          </ns3:TrackPointExtension>
        </extensions>
      </trkpt>
      <trkpt lat="42.58362363092601299285888671875" lon="20.01496762968599796295166015625">
        <ele>1995.4000244140625</ele>
        <time>2026-06-15T14:13:15.000Z</time>
        <extensions>
          <ns3:TrackPointExtension>
            <ns3:atemp>18.0</ns3:atemp>
          </ns3:TrackPointExtension>
        </extensions>
      </trkpt>
      <trkpt lat="42.5836557336151599884033203125" lon="20.01494072377681732177734375">
        <ele>1995</ele>
        <time>2026-06-15T14:13:16.000Z</time>
        <extensions>
          <ns3:TrackPointExtension>
            <ns3:atemp>18.0</ns3:atemp>
          </ns3:TrackPointExtension>
        </extensions>
      </trkpt>
      <trkpt lat="42.58368900977075099945068359375" lon="20.01490644179284572601318359375">
        <ele>1994.5999755859375</ele>
        <time>2026-06-15T14:13:17.000Z</time>
        <extensions>
          <ns3:TrackPointExtension>
            <ns3:atemp>18.0</ns3:atemp>
          </ns3:TrackPointExtension>
        </extensions>
      </trkpt>
      <trkpt lat="42.583725638687610626220703125" lon="20.01488548703491687774658203125">
        <ele>1994.199951171875</ele>
        <time>2026-06-15T14:13:18.000Z</time>
        <extensions>
          <ns3:TrackPointExtension>
            <ns3:atemp>18.0</ns3:atemp>
          </ns3:TrackPointExtension>
        </extensions>
      </trkpt>
      <trkpt lat="42.58376193232834339141845703125" lon="20.014855228364467620849609375">
        <ele>1993.800048828125</ele>
        <time>2026-06-15T14:13:19.000Z</time>
        <extensions>
          <ns3:TrackPointExtension>
            <ns3:atemp>18.0</ns3:atemp>
          </ns3:TrackPointExtension>
        </extensions>
      </trkpt>
      <trkpt lat="42.58379898034036159515380859375" lon="20.0148228742182254791259765625">
        <ele>1993.5999755859375</ele>
        <time>2026-06-15T14:13:20.000Z</time>
        <extensions>
          <ns3:TrackPointExtension>
            <ns3:atemp>18.0</ns3:atemp>
          </ns3:TrackPointExtension>
        </extensions>
      </trkpt>
      <trkpt lat="42.5838351063430309295654296875" lon="20.014793872833251953125">
        <ele>1993.199951171875</ele>
        <time>2026-06-15T14:13:21.000Z</time>
        <extensions>
          <ns3:TrackPointExtension>
            <ns3:atemp>18.0</ns3:atemp>
          </ns3:TrackPointExtension>
        </extensions>
      </trkpt>
      <trkpt lat="42.58386972360312938690185546875" lon="20.01476495526731014251708984375">
        <ele>1993</ele>
        <time>2026-06-15T14:13:22.000Z</time>
        <extensions>
          <ns3:TrackPointExtension>
            <ns3:atemp>18.0</ns3:atemp>
          </ns3:TrackPointExtension>
        </extensions>
      </trkpt>
      <trkpt lat="42.58390308357775211334228515625" lon="20.01473897136747837066650390625">
        <ele>1992.800048828125</ele>
        <time>2026-06-15T14:13:23.000Z</time>
        <extensions>
          <ns3:TrackPointExtension>
            <ns3:atemp>18.0</ns3:atemp>
          </ns3:TrackPointExtension>
        </extensions>
      </trkpt>
      <trkpt lat="42.5839346833527088165283203125" lon="20.01469639129936695098876953125">
        <ele>1992.5999755859375</ele>
        <time>2026-06-15T14:13:24.000Z</time>
        <extensions>
          <ns3:TrackPointExtension>
            <ns3:atemp>18.0</ns3:atemp>
          </ns3:TrackPointExtension>
        </extensions>
      </trkpt>
      <trkpt lat="42.583968378603458404541015625" lon="20.0146609358489513397216796875">
        <ele>1992.4000244140625</ele>
        <time>2026-06-15T14:13:25.000Z</time>
        <extensions>
          <ns3:TrackPointExtension>
            <ns3:atemp>18.0</ns3:atemp>
          </ns3:TrackPointExtension>
        </extensions>
      </trkpt>
      <trkpt lat="42.584005258977413177490234375" lon="20.01462967135012149810791015625">
        <ele>1992.199951171875</ele>
        <time>2026-06-15T14:13:26.000Z</time>
        <extensions>
          <ns3:TrackPointExtension>
            <ns3:atemp>18.0</ns3:atemp>
          </ns3:TrackPointExtension>
        </extensions>
      </trkpt>
      <trkpt lat="42.5840389542281627655029296875" lon="20.01458709128201007843017578125">
        <ele>1992</ele>
        <time>2026-06-15T14:13:27.000Z</time>
        <extensions>
          <ns3:TrackPointExtension>
            <ns3:atemp>18.0</ns3:atemp>
          </ns3:TrackPointExtension>
        </extensions>
      </trkpt>
      <trkpt lat="42.58407742716372013092041015625" lon="20.01455004326999187469482421875">
        <ele>1991.5999755859375</ele>
        <time>2026-06-15T14:13:28.000Z</time>
        <extensions>
          <ns3:TrackPointExtension>
            <ns3:atemp>18.0</ns3:atemp>
          </ns3:TrackPointExtension>
        </extensions>
      </trkpt>
      <trkpt lat="42.58411464281380176544189453125" lon="20.01451048068702220916748046875">
        <ele>1991.199951171875</ele>
        <time>2026-06-15T14:13:29.000Z</time>
        <extensions>
          <ns3:TrackPointExtension>
            <ns3:atemp>18.0</ns3:atemp>
          </ns3:TrackPointExtension>
        </extensions>
      </trkpt>
      <trkpt lat="42.58415303193032741546630859375" lon="20.014464296400547027587890625">
        <ele>1991</ele>
        <time>2026-06-15T14:13:30.000Z</time>
        <extensions>
          <ns3:TrackPointExtension>
            <ns3:atemp>18.0</ns3:atemp>
          </ns3:TrackPointExtension>
        </extensions>
      </trkpt>
      <trkpt lat="42.58419795893132686614990234375" lon="20.01443487592041492462158203125">
        <ele>1990.800048828125</ele>
        <time>2026-06-15T14:13:31.000Z</time>
        <extensions>
          <ns3:TrackPointExtension>
            <ns3:atemp>18.0</ns3:atemp>
          </ns3:TrackPointExtension>
        </extensions>
      </trkpt>
      <trkpt lat="42.58423752151429653167724609375" lon="20.01440838910639286041259765625">
        <ele>1990.5999755859375</ele>
        <time>2026-06-15T14:13:32.000Z</time>
        <extensions>
          <ns3:TrackPointExtension>
            <ns3:atemp>18.0</ns3:atemp>
          </ns3:TrackPointExtension>
        </extensions>
      </trkpt>
      <trkpt lat="42.5842776708304882049560546875" lon="20.01438642852008342742919921875">
        <ele>1990.4000244140625</ele>
        <time>2026-06-15T14:13:33.000Z</time>
        <extensions>
          <ns3:TrackPointExtension>
            <ns3:atemp>18.0</ns3:atemp>
          </ns3:TrackPointExtension>
        </extensions>
      </trkpt>
      <trkpt lat="42.58430742658674716949462890625" lon="20.01435424201190471649169921875">
        <ele>1990.4000244140625</ele>
        <time>2026-06-15T14:13:34.000Z</time>
        <extensions>
          <ns3:TrackPointExtension>
            <ns3:atemp>18.0</ns3:atemp>
          </ns3:TrackPointExtension>
        </extensions>
      </trkpt>
      <trkpt lat="42.58433374576270580291748046875" lon="20.01432306133210659027099609375">
        <ele>1990.199951171875</ele>
        <time>2026-06-15T14:13:35.000Z</time>
        <extensions>
          <ns3:TrackPointExtension>
            <ns3:atemp>18.0</ns3:atemp>
          </ns3:TrackPointExtension>
        </extensions>
      </trkpt>
      <trkpt lat="42.584361322224140167236328125" lon="20.0142938084900379180908203125">
        <ele>1990</ele>
        <time>2026-06-15T14:13:36.000Z</time>
        <extensions>
          <ns3:TrackPointExtension>
            <ns3:atemp>18.0</ns3:atemp>
          </ns3:TrackPointExtension>
        </extensions>
      </trkpt>
      <trkpt lat="42.584380097687244415283203125" lon="20.0142532400786876678466796875">
        <ele>1989.800048828125</ele>
        <time>2026-06-15T14:13:37.000Z</time>
        <extensions>
          <ns3:TrackPointExtension>
            <ns3:atemp>18.0</ns3:atemp>
          </ns3:TrackPointExtension>
        </extensions>
      </trkpt>
      <trkpt lat="42.58438152261078357696533203125" lon="20.014206804335117340087890625">
        <ele>1989.5999755859375</ele>
        <time>2026-06-15T14:13:38.000Z</time>
        <extensions>
          <ns3:TrackPointExtension>
            <ns3:atemp>18.0</ns3:atemp>
          </ns3:TrackPointExtension>
        </extensions>
      </trkpt>
      <trkpt lat="42.58437632583081722259521484375" lon="20.01415508799254894256591796875">
        <ele>1989.4000244140625</ele>
        <time>2026-06-15T14:13:39.000Z</time>
        <extensions>
          <ns3:TrackPointExtension>
            <ns3:atemp>18.0</ns3:atemp>
          </ns3:TrackPointExtension>
        </extensions>
      </trkpt>
      <trkpt lat="42.58436433970928192138671875" lon="20.01409851014614105224609375">
        <ele>1989</ele>
        <time>2026-06-15T14:13:40.000Z</time>
        <extensions>
          <ns3:TrackPointExtension>
            <ns3:atemp>18.0</ns3:atemp>
          </ns3:TrackPointExtension>
        </extensions>
      </trkpt>
      <trkpt lat="42.58436056785285472869873046875" lon="20.01403237693011760711669921875">
        <ele>1988.5999755859375</ele>
        <time>2026-06-15T14:13:41.000Z</time>
        <extensions>
          <ns3:TrackPointExtension>
            <ns3:atemp>18.0</ns3:atemp>
          </ns3:TrackPointExtension>
        </extensions>
      </trkpt>
      <trkpt lat="42.58434849791228771209716796875" lon="20.0139729492366313934326171875">
        <ele>1988.199951171875</ele>
        <time>2026-06-15T14:13:42.000Z</time>
        <extensions>
          <ns3:TrackPointExtension>
            <ns3:atemp>18.0</ns3:atemp>
          </ns3:TrackPointExtension>
        </extensions>
      </trkpt>
      <trkpt lat="42.58432921953499317169189453125" lon="20.01391586847603321075439453125">
        <ele>1987.800048828125</ele>
        <time>2026-06-15T14:13:43.000Z</time>
        <extensions>
          <ns3:TrackPointExtension>
            <ns3:atemp>18.0</ns3:atemp>
          </ns3:TrackPointExtension>
        </extensions>
      </trkpt>
      <trkpt lat="42.584308348596096038818359375" lon="20.01385317184031009674072265625">
        <ele>1987.4000244140625</ele>
        <time>2026-06-15T14:13:44.000Z</time>
        <extensions>
          <ns3:TrackPointExtension>
            <ns3:atemp>18.0</ns3:atemp>
          </ns3:TrackPointExtension>
        </extensions>
      </trkpt>
      <trkpt lat="42.58428680710494518280029296875" lon="20.0137982703745365142822265625">
        <ele>1987</ele>
        <time>2026-06-15T14:13:45.000Z</time>
        <extensions>
          <ns3:TrackPointExtension>
            <ns3:atemp>18.0</ns3:atemp>
          </ns3:TrackPointExtension>
        </extensions>
      </trkpt>
      <trkpt lat="42.5842820294201374053955078125" lon="20.01375040970742702484130859375">
        <ele>1986.5999755859375</ele>
        <time>2026-06-15T14:13:46.000Z</time>
        <extensions>
          <ns3:TrackPointExtension>
            <ns3:atemp>18.0</ns3:atemp>
          </ns3:TrackPointExtension>
        </extensions>
      </trkpt>
      <trkpt lat="42.58428680710494518280029296875" lon="20.01371151767671108245849609375">
        <ele>1986.4000244140625</ele>
        <time>2026-06-15T14:13:47.000Z</time>
        <extensions>
          <ns3:TrackPointExtension>
            <ns3:atemp>18.0</ns3:atemp>
          </ns3:TrackPointExtension>
        </extensions>
      </trkpt>
      <trkpt lat="42.58429787121713161468505859375" lon="20.0136715359985828399658203125">
        <ele>1986</ele>
        <time>2026-06-15T14:13:48.000Z</time>
        <extensions>
          <ns3:TrackPointExtension>
            <ns3:atemp>18.0</ns3:atemp>
          </ns3:TrackPointExtension>
        </extensions>
      </trkpt>
      <trkpt lat="42.58431161753833293914794921875" lon="20.01362116076052188873291015625">
        <ele>1985.800048828125</ele>
        <time>2026-06-15T14:13:49.000Z</time>
        <extensions>
          <ns3:TrackPointExtension>
            <ns3:atemp>18.0</ns3:atemp>
          </ns3:TrackPointExtension>
        </extensions>
      </trkpt>
      <trkpt lat="42.58433215320110321044921875" lon="20.01358075998723506927490234375">
        <ele>1985.5999755859375</ele>
        <time>2026-06-15T14:13:50.000Z</time>
        <extensions>
          <ns3:TrackPointExtension>
            <ns3:atemp>18.0</ns3:atemp>
          </ns3:TrackPointExtension>
        </extensions>
      </trkpt>
      <trkpt lat="42.584351934492588043212890625" lon="20.0135649181902408599853515625">
        <ele>1985.4000244140625</ele>
        <time>2026-06-15T14:13:51.000Z</time>
        <extensions>
          <ns3:TrackPointExtension>
            <ns3:atemp>18.0</ns3:atemp>
          </ns3:TrackPointExtension>
        </extensions>
      </trkpt>
      <trkpt lat="42.5843678601086139678955078125" lon="20.01355779357254505157470703125">
        <ele>1985.199951171875</ele>
        <time>2026-06-15T14:13:52.000Z</time>
        <extensions>
          <ns3:TrackPointExtension>
            <ns3:atemp>18.0</ns3:atemp>
          </ns3:TrackPointExtension>
        </extensions>
      </trkpt>
      <trkpt lat="42.584380768239498138427734375" lon="20.01353926956653594970703125">
        <ele>1984.800048828125</ele>
        <time>2026-06-15T14:13:53.000Z</time>
        <extensions>
          <ns3:TrackPointExtension>
            <ns3:atemp>18.0</ns3:atemp>
          </ns3:TrackPointExtension>
        </extensions>
      </trkpt>
      <trkpt lat="42.584375403821468353271484375" lon="20.01352585852146148681640625">
        <ele>1984.5999755859375</ele>
        <time>2026-06-15T14:13:54.000Z</time>
        <extensions>
          <ns3:TrackPointExtension>
            <ns3:atemp>18.0</ns3:atemp>
          </ns3:TrackPointExtension>
        </extensions>
      </trkpt>
      <trkpt lat="42.5843742303550243377685546875" lon="20.01352761872112751007080078125">
        <ele>1984.4000244140625</ele>
        <time>2026-06-15T14:13:55.000Z</time>
        <extensions>
          <ns3:TrackPointExtension>
            <ns3:atemp>18.0</ns3:atemp>
          </ns3:TrackPointExtension>
        </extensions>
      </trkpt>
      <trkpt lat="42.58437414653599262237548828125" lon="20.01352761872112751007080078125">
        <ele>1984.199951171875</ele>
        <time>2026-06-15T14:13:56.000Z</time>
        <extensions>
          <ns3:TrackPointExtension>
            <ns3:atemp>18.0</ns3:atemp>
          </ns3:TrackPointExtension>
        </extensions>
      </trkpt>
      <trkpt lat="42.58437414653599262237548828125" lon="20.01352761872112751007080078125">
        <ele>1984.199951171875</ele>
        <time>2026-06-15T14:13:57.000Z</time>
        <extensions>
          <ns3:TrackPointExtension>
            <ns3:atemp>18.0</ns3:atemp>
          </ns3:TrackPointExtension>
        </extensions>
      </trkpt>
      <trkpt lat="42.58437414653599262237548828125" lon="20.01352761872112751007080078125">
        <ele>1984</ele>
        <time>2026-06-15T14:13:58.000Z</time>
        <extensions>
          <ns3:TrackPointExtension>
            <ns3:atemp>18.0</ns3:atemp>
          </ns3:TrackPointExtension>
        </extensions>
      </trkpt>
      <trkpt lat="42.58437414653599262237548828125" lon="20.01352761872112751007080078125">
        <ele>1983.800048828125</ele>
        <time>2026-06-15T14:13:59.000Z</time>
        <extensions>
          <ns3:TrackPointExtension>
            <ns3:atemp>18.0</ns3:atemp>
          </ns3:TrackPointExtension>
        </extensions>
      </trkpt>
      <trkpt lat="42.58437414653599262237548828125" lon="20.01352761872112751007080078125">
        <ele>1983.5999755859375</ele>
        <time>2026-06-15T14:14:00.000Z</time>
        <extensions>
          <ns3:TrackPointExtension>
            <ns3:atemp>18.0</ns3:atemp>
          </ns3:TrackPointExtension>
        </extensions>
      </trkpt>
      <trkpt lat="42.58437414653599262237548828125" lon="20.01352761872112751007080078125">
        <ele>1983.5999755859375</ele>
        <time>2026-06-15T14:14:01.000Z</time>
        <extensions>
          <ns3:TrackPointExtension>
            <ns3:atemp>18.0</ns3:atemp>
          </ns3:TrackPointExtension>
        </extensions>
      </trkpt>
      <trkpt lat="42.58437414653599262237548828125" lon="20.01352761872112751007080078125">
        <ele>1983.4000244140625</ele>
        <time>2026-06-15T14:14:02.000Z</time>
        <extensions>
          <ns3:TrackPointExtension>
            <ns3:atemp>18.0</ns3:atemp>
          </ns3:TrackPointExtension>
        </extensions>
      </trkpt>
      <trkpt lat="42.58437414653599262237548828125" lon="20.01352761872112751007080078125">
        <ele>1983.4000244140625</ele>
        <time>2026-06-15T14:14:03.000Z</time>
        <extensions>
          <ns3:TrackPointExtension>
            <ns3:atemp>18.0</ns3:atemp>
          </ns3:TrackPointExtension>
        </extensions>
      </trkpt>
      <trkpt lat="42.58437414653599262237548828125" lon="20.01352761872112751007080078125">
        <ele>1983.199951171875</ele>
        <time>2026-06-15T14:14:04.000Z</time>
        <extensions>
          <ns3:TrackPointExtension>
            <ns3:atemp>18.0</ns3:atemp>
          </ns3:TrackPointExtension>
        </extensions>
      </trkpt>
      <trkpt lat="42.58437414653599262237548828125" lon="20.01352761872112751007080078125">
        <ele>1983.199951171875</ele>
        <time>2026-06-15T14:14:05.000Z</time>
        <extensions>
          <ns3:TrackPointExtension>
            <ns3:atemp>18.0</ns3:atemp>
          </ns3:TrackPointExtension>
        </extensions>
      </trkpt>
      <trkpt lat="42.58437414653599262237548828125" lon="20.01352761872112751007080078125">
        <ele>1983.199951171875</ele>
        <time>2026-06-15T14:14:06.000Z</time>
        <extensions>
          <ns3:TrackPointExtension>
            <ns3:atemp>18.0</ns3:atemp>
          </ns3:TrackPointExtension>
        </extensions>
      </trkpt>
      <trkpt lat="42.58437414653599262237548828125" lon="20.01352761872112751007080078125">
        <ele>1983</ele>
        <time>2026-06-15T14:14:07.000Z</time>
        <extensions>
          <ns3:TrackPointExtension>
            <ns3:atemp>18.0</ns3:atemp>
          </ns3:TrackPointExtension>
        </extensions>
      </trkpt>
      <trkpt lat="42.58437414653599262237548828125" lon="20.01352761872112751007080078125">
        <ele>1983</ele>
        <time>2026-06-15T14:14:08.000Z</time>
        <extensions>
          <ns3:TrackPointExtension>
            <ns3:atemp>18.0</ns3:atemp>
          </ns3:TrackPointExtension>
        </extensions>
      </trkpt>
      <trkpt lat="42.58437414653599262237548828125" lon="20.01352761872112751007080078125">
        <ele>1983</ele>
        <time>2026-06-15T14:14:09.000Z</time>
        <extensions>
          <ns3:TrackPointExtension>
            <ns3:atemp>18.0</ns3:atemp>
          </ns3:TrackPointExtension>
        </extensions>
      </trkpt>
      <trkpt lat="42.58437414653599262237548828125" lon="20.01352761872112751007080078125">
        <ele>1982.800048828125</ele>
        <time>2026-06-15T14:14:10.000Z</time>
        <extensions>
          <ns3:TrackPointExtension>
            <ns3:atemp>18.0</ns3:atemp>
          </ns3:TrackPointExtension>
        </extensions>
      </trkpt>
      <trkpt lat="42.58437414653599262237548828125" lon="20.01352761872112751007080078125">
        <ele>1982.800048828125</ele>
        <time>2026-06-15T14:14:11.000Z</time>
        <extensions>
          <ns3:TrackPointExtension>
            <ns3:atemp>18.0</ns3:atemp>
          </ns3:TrackPointExtension>
        </extensions>
      </trkpt>
      <trkpt lat="42.58437414653599262237548828125" lon="20.01352761872112751007080078125">
        <ele>1982.800048828125</ele>
        <time>2026-06-15T14:14:12.000Z</time>
        <extensions>
          <ns3:TrackPointExtension>
            <ns3:atemp>18.0</ns3:atemp>
          </ns3:TrackPointExtension>
        </extensions>
      </trkpt>
      <trkpt lat="42.58437414653599262237548828125" lon="20.01352761872112751007080078125">
        <ele>1982.800048828125</ele>
        <time>2026-06-15T14:14:13.000Z</time>
        <extensions>
          <ns3:TrackPointExtension>
            <ns3:atemp>18.0</ns3:atemp>
          </ns3:TrackPointExtension>
        </extensions>
      </trkpt>
      <trkpt lat="42.58437414653599262237548828125" lon="20.01352761872112751007080078125">
        <ele>1982.5999755859375</ele>
        <time>2026-06-15T14:14:14.000Z</time>
        <extensions>
          <ns3:TrackPointExtension>
            <ns3:atemp>18.0</ns3:atemp>
          </ns3:TrackPointExtension>
        </extensions>
      </trkpt>
      <trkpt lat="42.58437414653599262237548828125" lon="20.01352761872112751007080078125">
        <ele>1982.5999755859375</ele>
        <time>2026-06-15T14:14:15.000Z</time>
        <extensions>
          <ns3:TrackPointExtension>
            <ns3:atemp>18.0</ns3:atemp>
          </ns3:TrackPointExtension>
        </extensions>
      </trkpt>
      <trkpt lat="42.58437414653599262237548828125" lon="20.01352761872112751007080078125">
        <ele>1982.5999755859375</ele>
        <time>2026-06-15T14:14:16.000Z</time>
        <extensions>
          <ns3:TrackPointExtension>
            <ns3:atemp>18.0</ns3:atemp>
          </ns3:TrackPointExtension>
        </extensions>
      </trkpt>
      <trkpt lat="42.58437414653599262237548828125" lon="20.01352761872112751007080078125">
        <ele>1982.5999755859375</ele>
        <time>2026-06-15T14:14:17.000Z</time>
        <extensions>
          <ns3:TrackPointExtension>
            <ns3:atemp>18.0</ns3:atemp>
          </ns3:TrackPointExtension>
        </extensions>
      </trkpt>
      <trkpt lat="42.58437414653599262237548828125" lon="20.01352761872112751007080078125">
        <ele>1982.4000244140625</ele>
        <time>2026-06-15T14:14:18.000Z</time>
        <extensions>
          <ns3:TrackPointExtension>
            <ns3:atemp>18.0</ns3:atemp>
          </ns3:TrackPointExtension>
        </extensions>
      </trkpt>
      <trkpt lat="42.58437414653599262237548828125" lon="20.01352761872112751007080078125">
        <ele>1982.4000244140625</ele>
        <time>2026-06-15T14:14:19.000Z</time>
        <extensions>
          <ns3:TrackPointExtension>
            <ns3:atemp>18.0</ns3:atemp>
          </ns3:TrackPointExtension>
        </extensions>
      </trkpt>
      <trkpt lat="42.58437431417405605316162109375" lon="20.01352787017822265625">
        <ele>1982.4000244140625</ele>
        <time>2026-06-15T14:14:20.000Z</time>
        <extensions>
          <ns3:TrackPointExtension>
            <ns3:atemp>18.0</ns3:atemp>
          </ns3:TrackPointExtension>
        </extensions>
      </trkpt>
      <trkpt lat="42.58436593227088451385498046875" lon="20.01353323459625244140625">
        <ele>1982.4000244140625</ele>
        <time>2026-06-15T14:14:21.000Z</time>
        <extensions>
          <ns3:TrackPointExtension>
            <ns3:atemp>18.0</ns3:atemp>
          </ns3:TrackPointExtension>
        </extensions>
      </trkpt>
      <trkpt lat="42.58436442352831363677978515625" lon="20.0135451368987560272216796875">
        <ele>1982.4000244140625</ele>
        <time>2026-06-15T14:14:22.000Z</time>
        <extensions>
          <ns3:TrackPointExtension>
            <ns3:atemp>18.0</ns3:atemp>
          </ns3:TrackPointExtension>
        </extensions>
      </trkpt>
      <trkpt lat="42.58436861447989940643310546875" lon="20.01354823820292949676513671875">
        <ele>1982.4000244140625</ele>
        <time>2026-06-15T14:14:23.000Z</time>
        <extensions>
          <ns3:TrackPointExtension>
            <ns3:atemp>18.0</ns3:atemp>
          </ns3:TrackPointExtension>
        </extensions>
      </trkpt>
      <trkpt lat="42.58436861447989940643310546875" lon="20.01354823820292949676513671875">
        <ele>1982.5999755859375</ele>
        <time>2026-06-15T14:14:24.000Z</time>
        <extensions>
          <ns3:TrackPointExtension>
            <ns3:atemp>18.0</ns3:atemp>
          </ns3:TrackPointExtension>
        </extensions>
      </trkpt>
      <trkpt lat="42.58436861447989940643310546875" lon="20.01354823820292949676513671875">
        <ele>1982.5999755859375</ele>
        <time>2026-06-15T14:14:25.000Z</time>
        <extensions>
          <ns3:TrackPointExtension>
            <ns3:atemp>18.0</ns3:atemp>
          </ns3:TrackPointExtension>
        </extensions>
      </trkpt>
      <trkpt lat="42.58436861447989940643310546875" lon="20.01354823820292949676513671875">
        <ele>1982.800048828125</ele>
        <time>2026-06-15T14:14:26.000Z</time>
        <extensions>
          <ns3:TrackPointExtension>
            <ns3:atemp>18.0</ns3:atemp>
          </ns3:TrackPointExtension>
        </extensions>
      </trkpt>
      <trkpt lat="42.58436861447989940643310546875" lon="20.01354823820292949676513671875">
        <ele>1983</ele>
        <time>2026-06-15T14:14:27.000Z</time>
        <extensions>
          <ns3:TrackPointExtension>
            <ns3:atemp>18.0</ns3:atemp>
          </ns3:TrackPointExtension>
        </extensions>
      </trkpt>
      <trkpt lat="42.58436861447989940643310546875" lon="20.01354823820292949676513671875">
        <ele>1983</ele>
        <time>2026-06-15T14:14:28.000Z</time>
        <extensions>
          <ns3:TrackPointExtension>
            <ns3:atemp>18.0</ns3:atemp>
          </ns3:TrackPointExtension>
        </extensions>
      </trkpt>
      <trkpt lat="42.58436861447989940643310546875" lon="20.01354823820292949676513671875">
        <ele>1983.199951171875</ele>
        <time>2026-06-15T14:14:29.000Z</time>
        <extensions>
          <ns3:TrackPointExtension>
            <ns3:atemp>18.0</ns3:atemp>
          </ns3:TrackPointExtension>
        </extensions>
      </trkpt>
      <trkpt lat="42.58436861447989940643310546875" lon="20.01354823820292949676513671875">
        <ele>1983.199951171875</ele>
        <time>2026-06-15T14:14:30.000Z</time>
        <extensions>
          <ns3:TrackPointExtension>
            <ns3:atemp>18.0</ns3:atemp>
          </ns3:TrackPointExtension>
        </extensions>
      </trkpt>
      <trkpt lat="42.58436861447989940643310546875" lon="20.01354823820292949676513671875">
        <ele>1983.199951171875</ele>
        <time>2026-06-15T14:14:31.000Z</time>
        <extensions>
          <ns3:TrackPointExtension>
            <ns3:atemp>18.0</ns3:atemp>
          </ns3:TrackPointExtension>
        </extensions>
      </trkpt>
      <trkpt lat="42.58436861447989940643310546875" lon="20.01354823820292949676513671875">
        <ele>1983.199951171875</ele>
        <time>2026-06-15T14:14:32.000Z</time>
        <extensions>
          <ns3:TrackPointExtension>
            <ns3:atemp>18.0</ns3:atemp>
          </ns3:TrackPointExtension>
        </extensions>
      </trkpt>
      <trkpt lat="42.58436861447989940643310546875" lon="20.01354823820292949676513671875">
        <ele>1983.199951171875</ele>
        <time>2026-06-15T14:14:33.000Z</time>
        <extensions>
          <ns3:TrackPointExtension>
            <ns3:atemp>18.0</ns3:atemp>
          </ns3:TrackPointExtension>
        </extensions>
      </trkpt>
      <trkpt lat="42.58436861447989940643310546875" lon="20.01354823820292949676513671875">
        <ele>1983</ele>
        <time>2026-06-15T14:14:34.000Z</time>
        <extensions>
          <ns3:TrackPointExtension>
            <ns3:atemp>18.0</ns3:atemp>
          </ns3:TrackPointExtension>
        </extensions>
      </trkpt>
      <trkpt lat="42.58436861447989940643310546875" lon="20.01354823820292949676513671875">
        <ele>1983</ele>
        <time>2026-06-15T14:14:35.000Z</time>
        <extensions>
          <ns3:TrackPointExtension>
            <ns3:atemp>18.0</ns3:atemp>
          </ns3:TrackPointExtension>
        </extensions>
      </trkpt>
      <trkpt lat="42.58436861447989940643310546875" lon="20.01354823820292949676513671875">
        <ele>1983</ele>
        <time>2026-06-15T14:14:36.000Z</time>
        <extensions>
          <ns3:TrackPointExtension>
            <ns3:atemp>18.0</ns3:atemp>
          </ns3:TrackPointExtension>
        </extensions>
      </trkpt>
      <trkpt lat="42.58436861447989940643310546875" lon="20.01354823820292949676513671875">
        <ele>1983</ele>
        <time>2026-06-15T14:14:37.000Z</time>
        <extensions>
          <ns3:TrackPointExtension>
            <ns3:atemp>18.0</ns3:atemp>
          </ns3:TrackPointExtension>
        </extensions>
      </trkpt>
      <trkpt lat="42.58436861447989940643310546875" lon="20.01354823820292949676513671875">
        <ele>1983</ele>
        <time>2026-06-15T14:14:38.000Z</time>
        <extensions>
          <ns3:TrackPointExtension>
            <ns3:atemp>18.0</ns3:atemp>
          </ns3:TrackPointExtension>
        </extensions>
      </trkpt>
      <trkpt lat="42.58436861447989940643310546875" lon="20.01354823820292949676513671875">
        <ele>1983</ele>
        <time>2026-06-15T14:14:39.000Z</time>
        <extensions>
          <ns3:TrackPointExtension>
            <ns3:atemp>18.0</ns3:atemp>
          </ns3:TrackPointExtension>
        </extensions>
      </trkpt>
      <trkpt lat="42.58436861447989940643310546875" lon="20.01354823820292949676513671875">
        <ele>1983</ele>
        <time>2026-06-15T14:14:40.000Z</time>
        <extensions>
          <ns3:TrackPointExtension>
            <ns3:atemp>18.0</ns3:atemp>
          </ns3:TrackPointExtension>
        </extensions>
      </trkpt>
      <trkpt lat="42.58436861447989940643310546875" lon="20.01354823820292949676513671875">
        <ele>1983</ele>
        <time>2026-06-15T14:14:41.000Z</time>
        <extensions>
          <ns3:TrackPointExtension>
            <ns3:atemp>18.0</ns3:atemp>
          </ns3:TrackPointExtension>
        </extensions>
      </trkpt>
      <trkpt lat="42.58436861447989940643310546875" lon="20.01354823820292949676513671875">
        <ele>1983</ele>
        <time>2026-06-15T14:14:42.000Z</time>
        <extensions>
          <ns3:TrackPointExtension>
            <ns3:atemp>18.0</ns3:atemp>
          </ns3:TrackPointExtension>
        </extensions>
      </trkpt>
      <trkpt lat="42.58436861447989940643310546875" lon="20.01354823820292949676513671875">
        <ele>1983</ele>
        <time>2026-06-15T14:14:43.000Z</time>
        <extensions>
          <ns3:TrackPointExtension>
            <ns3:atemp>18.0</ns3:atemp>
          </ns3:TrackPointExtension>
        </extensions>
      </trkpt>
      <trkpt lat="42.58436861447989940643310546875" lon="20.01354823820292949676513671875">
        <ele>1983</ele>
        <time>2026-06-15T14:14:44.000Z</time>
        <extensions>
          <ns3:TrackPointExtension>
            <ns3:atemp>18.0</ns3:atemp>
          </ns3:TrackPointExtension>
        </extensions>
      </trkpt>
      <trkpt lat="42.58436861447989940643310546875" lon="20.01354823820292949676513671875">
        <ele>1983</ele>
        <time>2026-06-15T14:14:45.000Z</time>
        <extensions>
          <ns3:TrackPointExtension>
            <ns3:atemp>18.0</ns3:atemp>
          </ns3:TrackPointExtension>
        </extensions>
      </trkpt>
      <trkpt lat="42.58436861447989940643310546875" lon="20.01354823820292949676513671875">
        <ele>1983</ele>
        <time>2026-06-15T14:14:46.000Z</time>
        <extensions>
          <ns3:TrackPointExtension>
            <ns3:atemp>18.0</ns3:atemp>
          </ns3:TrackPointExtension>
        </extensions>
      </trkpt>
      <trkpt lat="42.58436861447989940643310546875" lon="20.01354823820292949676513671875">
        <ele>1983</ele>
        <time>2026-06-15T14:14:47.000Z</time>
        <extensions>
          <ns3:TrackPointExtension>
            <ns3:atemp>18.0</ns3:atemp>
          </ns3:TrackPointExtension>
        </extensions>
      </trkpt>
      <trkpt lat="42.58436861447989940643310546875" lon="20.01354823820292949676513671875">
        <ele>1983</ele>
        <time>2026-06-15T14:14:48.000Z</time>
        <extensions>
          <ns3:TrackPointExtension>
            <ns3:atemp>18.0</ns3:atemp>
          </ns3:TrackPointExtension>
        </extensions>
      </trkpt>
      <trkpt lat="42.58436861447989940643310546875" lon="20.01354823820292949676513671875">
        <ele>1983</ele>
        <time>2026-06-15T14:14:49.000Z</time>
        <extensions>
          <ns3:TrackPointExtension>
            <ns3:atemp>18.0</ns3:atemp>
          </ns3:TrackPointExtension>
        </extensions>
      </trkpt>
      <trkpt lat="42.58436861447989940643310546875" lon="20.01354823820292949676513671875">
        <ele>1983</ele>
        <time>2026-06-15T14:14:50.000Z</time>
        <extensions>
          <ns3:TrackPointExtension>
            <ns3:atemp>18.0</ns3:atemp>
          </ns3:TrackPointExtension>
        </extensions>
      </trkpt>
      <trkpt lat="42.58436861447989940643310546875" lon="20.01354823820292949676513671875">
        <ele>1983</ele>
        <time>2026-06-15T14:14:51.000Z</time>
        <extensions>
          <ns3:TrackPointExtension>
            <ns3:atemp>18.0</ns3:atemp>
          </ns3:TrackPointExtension>
        </extensions>
      </trkpt>
      <trkpt lat="42.58436861447989940643310546875" lon="20.01354823820292949676513671875">
        <ele>1983</ele>
        <time>2026-06-15T14:14:52.000Z</time>
        <extensions>
          <ns3:TrackPointExtension>
            <ns3:atemp>18.0</ns3:atemp>
          </ns3:TrackPointExtension>
        </extensions>
      </trkpt>
      <trkpt lat="42.58436861447989940643310546875" lon="20.01354823820292949676513671875">
        <ele>1983</ele>
        <time>2026-06-15T14:14:53.000Z</time>
        <extensions>
          <ns3:TrackPointExtension>
            <ns3:atemp>18.0</ns3:atemp>
          </ns3:TrackPointExtension>
        </extensions>
      </trkpt>
      <trkpt lat="42.58436861447989940643310546875" lon="20.01354823820292949676513671875">
        <ele>1983</ele>
        <time>2026-06-15T14:14:54.000Z</time>
        <extensions>
          <ns3:TrackPointExtension>
            <ns3:atemp>18.0</ns3:atemp>
          </ns3:TrackPointExtension>
        </extensions>
      </trkpt>
      <trkpt lat="42.58436861447989940643310546875" lon="20.01354823820292949676513671875">
        <ele>1983</ele>
        <time>2026-06-15T14:14:55.000Z</time>
        <extensions>
          <ns3:TrackPointExtension>
            <ns3:atemp>18.0</ns3:atemp>
          </ns3:TrackPointExtension>
        </extensions>
      </trkpt>
      <trkpt lat="42.58436861447989940643310546875" lon="20.01354823820292949676513671875">
        <ele>1983</ele>
        <time>2026-06-15T14:14:56.000Z</time>
        <extensions>
          <ns3:TrackPointExtension>
            <ns3:atemp>18.0</ns3:atemp>
          </ns3:TrackPointExtension>
        </extensions>
      </trkpt>
      <trkpt lat="42.58436861447989940643310546875" lon="20.01354823820292949676513671875">
        <ele>1983</ele>
        <time>2026-06-15T14:14:57.000Z</time>
        <extensions>
          <ns3:TrackPointExtension>
            <ns3:atemp>18.0</ns3:atemp>
          </ns3:TrackPointExtension>
        </extensions>
      </trkpt>
      <trkpt lat="42.58436861447989940643310546875" lon="20.01354823820292949676513671875">
        <ele>1983</ele>
        <time>2026-06-15T14:14:58.000Z</time>
        <extensions>
          <ns3:TrackPointExtension>
            <ns3:atemp>18.0</ns3:atemp>
          </ns3:TrackPointExtension>
        </extensions>
      </trkpt>
      <trkpt lat="42.58436861447989940643310546875" lon="20.01354823820292949676513671875">
        <ele>1983</ele>
        <time>2026-06-15T14:14:59.000Z</time>
        <extensions>
          <ns3:TrackPointExtension>
            <ns3:atemp>18.0</ns3:atemp>
          </ns3:TrackPointExtension>
        </extensions>
      </trkpt>
      <trkpt lat="42.58436861447989940643310546875" lon="20.01354823820292949676513671875">
        <ele>1983.199951171875</ele>
        <time>2026-06-15T14:15:00.000Z</time>
        <extensions>
          <ns3:TrackPointExtension>
            <ns3:atemp>18.0</ns3:atemp>
          </ns3:TrackPointExtension>
        </extensions>
      </trkpt>
      <trkpt lat="42.58436861447989940643310546875" lon="20.01354823820292949676513671875">
        <ele>1983.199951171875</ele>
        <time>2026-06-15T14:15:01.000Z</time>
        <extensions>
          <ns3:TrackPointExtension>
            <ns3:atemp>18.0</ns3:atemp>
          </ns3:TrackPointExtension>
        </extensions>
      </trkpt>
      <trkpt lat="42.58436861447989940643310546875" lon="20.01354823820292949676513671875">
        <ele>1983.199951171875</ele>
        <time>2026-06-15T14:15:02.000Z</time>
        <extensions>
          <ns3:TrackPointExtension>
            <ns3:atemp>18.0</ns3:atemp>
          </ns3:TrackPointExtension>
        </extensions>
      </trkpt>
      <trkpt lat="42.58436861447989940643310546875" lon="20.01354823820292949676513671875">
        <ele>1983.199951171875</ele>
        <time>2026-06-15T14:15:03.000Z</time>
        <extensions>
          <ns3:TrackPointExtension>
            <ns3:atemp>18.0</ns3:atemp>
          </ns3:TrackPointExtension>
        </extensions>
      </trkpt>
      <trkpt lat="42.58436861447989940643310546875" lon="20.01354823820292949676513671875">
        <ele>1983.199951171875</ele>
        <time>2026-06-15T14:15:04.000Z</time>
        <extensions>
          <ns3:TrackPointExtension>
            <ns3:atemp>18.0</ns3:atemp>
          </ns3:TrackPointExtension>
        </extensions>
      </trkpt>
      <trkpt lat="42.58436861447989940643310546875" lon="20.01354823820292949676513671875">
        <ele>1983.199951171875</ele>
        <time>2026-06-15T14:15:05.000Z</time>
        <extensions>
          <ns3:TrackPointExtension>
            <ns3:atemp>18.0</ns3:atemp>
          </ns3:TrackPointExtension>
        </extensions>
      </trkpt>
      <trkpt lat="42.58436861447989940643310546875" lon="20.01354823820292949676513671875">
        <ele>1983.199951171875</ele>
        <time>2026-06-15T14:15:06.000Z</time>
        <extensions>
          <ns3:TrackPointExtension>
            <ns3:atemp>18.0</ns3:atemp>
          </ns3:TrackPointExtension>
        </extensions>
      </trkpt>
      <trkpt lat="42.58436861447989940643310546875" lon="20.01354823820292949676513671875">
        <ele>1983.199951171875</ele>
        <time>2026-06-15T14:15:07.000Z</time>
        <extensions>
          <ns3:TrackPointExtension>
            <ns3:atemp>18.0</ns3:atemp>
          </ns3:TrackPointExtension>
        </extensions>
      </trkpt>
      <trkpt lat="42.58436861447989940643310546875" lon="20.01354823820292949676513671875">
        <ele>1983.199951171875</ele>
        <time>2026-06-15T14:15:08.000Z</time>
        <extensions>
          <ns3:TrackPointExtension>
            <ns3:atemp>18.0</ns3:atemp>
          </ns3:TrackPointExtension>
        </extensions>
      </trkpt>
      <trkpt lat="42.58436861447989940643310546875" lon="20.01354823820292949676513671875">
        <ele>1983.199951171875</ele>
        <time>2026-06-15T14:15:09.000Z</time>
        <extensions>
          <ns3:TrackPointExtension>
            <ns3:atemp>18.0</ns3:atemp>
          </ns3:TrackPointExtension>
        </extensions>
      </trkpt>
      <trkpt lat="42.58436861447989940643310546875" lon="20.01354823820292949676513671875">
        <ele>1983.199951171875</ele>
        <time>2026-06-15T14:15:10.000Z</time>
        <extensions>
          <ns3:TrackPointExtension>
            <ns3:atemp>18.0</ns3:atemp>
          </ns3:TrackPointExtension>
        </extensions>
      </trkpt>
      <trkpt lat="42.58436861447989940643310546875" lon="20.01354823820292949676513671875">
        <ele>1983.199951171875</ele>
        <time>2026-06-15T14:15:11.000Z</time>
        <extensions>
          <ns3:TrackPointExtension>
            <ns3:atemp>18.0</ns3:atemp>
          </ns3:TrackPointExtension>
        </extensions>
      </trkpt>
      <trkpt lat="42.58436861447989940643310546875" lon="20.01354823820292949676513671875">
        <ele>1983.199951171875</ele>
        <time>2026-06-15T14:15:12.000Z</time>
        <extensions>
          <ns3:TrackPointExtension>
            <ns3:atemp>18.0</ns3:atemp>
          </ns3:TrackPointExtension>
        </extensions>
      </trkpt>
      <trkpt lat="42.58436861447989940643310546875" lon="20.01354823820292949676513671875">
        <ele>1983.199951171875</ele>
        <time>2026-06-15T14:15:13.000Z</time>
        <extensions>
          <ns3:TrackPointExtension>
            <ns3:atemp>18.0</ns3:atemp>
          </ns3:TrackPointExtension>
        </extensions>
      </trkpt>
      <trkpt lat="42.58436861447989940643310546875" lon="20.01354823820292949676513671875">
        <ele>1983.199951171875</ele>
        <time>2026-06-15T14:15:14.000Z</time>
        <extensions>
          <ns3:TrackPointExtension>
            <ns3:atemp>18.0</ns3:atemp>
          </ns3:TrackPointExtension>
        </extensions>
      </trkpt>
      <trkpt lat="42.58436861447989940643310546875" lon="20.01354823820292949676513671875">
        <ele>1983.199951171875</ele>
        <time>2026-06-15T14:15:15.000Z</time>
        <extensions>
          <ns3:TrackPointExtension>
            <ns3:atemp>18.0</ns3:atemp>
          </ns3:TrackPointExtension>
        </extensions>
      </trkpt>
      <trkpt lat="42.58436861447989940643310546875" lon="20.01354823820292949676513671875">
        <ele>1983.199951171875</ele>
        <time>2026-06-15T14:15:16.000Z</time>
        <extensions>
          <ns3:TrackPointExtension>
            <ns3:atemp>18.0</ns3:atemp>
          </ns3:TrackPointExtension>
        </extensions>
      </trkpt>
      <trkpt lat="42.58436861447989940643310546875" lon="20.01354823820292949676513671875">
        <ele>1983.199951171875</ele>
        <time>2026-06-15T14:15:17.000Z</time>
        <extensions>
          <ns3:TrackPointExtension>
            <ns3:atemp>18.0</ns3:atemp>
          </ns3:TrackPointExtension>
        </extensions>
      </trkpt>
      <trkpt lat="42.58436861447989940643310546875" lon="20.01354823820292949676513671875">
        <ele>1983.199951171875</ele>
        <time>2026-06-15T14:15:18.000Z</time>
        <extensions>
          <ns3:TrackPointExtension>
            <ns3:atemp>18.0</ns3:atemp>
          </ns3:TrackPointExtension>
        </extensions>
      </trkpt>
      <trkpt lat="42.58436861447989940643310546875" lon="20.01354823820292949676513671875">
        <ele>1983.199951171875</ele>
        <time>2026-06-15T14:15:19.000Z</time>
        <extensions>
          <ns3:TrackPointExtension>
            <ns3:atemp>18.0</ns3:atemp>
          </ns3:TrackPointExtension>
        </extensions>
      </trkpt>
      <trkpt lat="42.58436861447989940643310546875" lon="20.01354823820292949676513671875">
        <ele>1983.199951171875</ele>
        <time>2026-06-15T14:15:20.000Z</time>
        <extensions>
          <ns3:TrackPointExtension>
            <ns3:atemp>18.0</ns3:atemp>
          </ns3:TrackPointExtension>
        </extensions>
      </trkpt>
      <trkpt lat="42.58436861447989940643310546875" lon="20.01354823820292949676513671875">
        <ele>1983.199951171875</ele>
        <time>2026-06-15T14:15:21.000Z</time>
        <extensions>
          <ns3:TrackPointExtension>
            <ns3:atemp>18.0</ns3:atemp>
          </ns3:TrackPointExtension>
        </extensions>
      </trkpt>
      <trkpt lat="42.58436861447989940643310546875" lon="20.01354823820292949676513671875">
        <ele>1983.199951171875</ele>
        <time>2026-06-15T14:15:22.000Z</time>
        <extensions>
          <ns3:TrackPointExtension>
            <ns3:atemp>18.0</ns3:atemp>
          </ns3:TrackPointExtension>
        </extensions>
      </trkpt>
      <trkpt lat="42.58436861447989940643310546875" lon="20.01354823820292949676513671875">
        <ele>1983.199951171875</ele>
        <time>2026-06-15T14:15:23.000Z</time>
        <extensions>
          <ns3:TrackPointExtension>
            <ns3:atemp>18.0</ns3:atemp>
          </ns3:TrackPointExtension>
        </extensions>
      </trkpt>
      <trkpt lat="42.58436861447989940643310546875" lon="20.01354823820292949676513671875">
        <ele>1983.199951171875</ele>
        <time>2026-06-15T14:15:24.000Z</time>
        <extensions>
          <ns3:TrackPointExtension>
            <ns3:atemp>18.0</ns3:atemp>
          </ns3:TrackPointExtension>
        </extensions>
      </trkpt>
      <trkpt lat="42.58436861447989940643310546875" lon="20.01354823820292949676513671875">
        <ele>1983.199951171875</ele>
        <time>2026-06-15T14:15:25.000Z</time>
        <extensions>
          <ns3:TrackPointExtension>
            <ns3:atemp>18.0</ns3:atemp>
          </ns3:TrackPointExtension>
        </extensions>
      </trkpt>
      <trkpt lat="42.58436861447989940643310546875" lon="20.01354823820292949676513671875">
        <ele>1983.199951171875</ele>
        <time>2026-06-15T14:15:26.000Z</time>
        <extensions>
          <ns3:TrackPointExtension>
            <ns3:atemp>18.0</ns3:atemp>
          </ns3:TrackPointExtension>
        </extensions>
      </trkpt>
      <trkpt lat="42.58436861447989940643310546875" lon="20.01354823820292949676513671875">
        <ele>1983.199951171875</ele>
        <time>2026-06-15T14:15:27.000Z</time>
        <extensions>
          <ns3:TrackPointExtension>
            <ns3:atemp>18.0</ns3:atemp>
          </ns3:TrackPointExtension>
        </extensions>
      </trkpt>
      <trkpt lat="42.58436861447989940643310546875" lon="20.01354823820292949676513671875">
        <ele>1983.199951171875</ele>
        <time>2026-06-15T14:15:28.000Z</time>
        <extensions>
          <ns3:TrackPointExtension>
            <ns3:atemp>18.0</ns3:atemp>
          </ns3:TrackPointExtension>
        </extensions>
      </trkpt>
      <trkpt lat="42.58436861447989940643310546875" lon="20.01354823820292949676513671875">
        <ele>1983.199951171875</ele>
        <time>2026-06-15T14:15:29.000Z</time>
        <extensions>
          <ns3:TrackPointExtension>
            <ns3:atemp>18.0</ns3:atemp>
          </ns3:TrackPointExtension>
        </extensions>
      </trkpt>
      <trkpt lat="42.58436861447989940643310546875" lon="20.01354823820292949676513671875">
        <ele>1983.199951171875</ele>
        <time>2026-06-15T14:15:30.000Z</time>
        <extensions>
          <ns3:TrackPointExtension>
            <ns3:atemp>18.0</ns3:atemp>
          </ns3:TrackPointExtension>
        </extensions>
      </trkpt>
      <trkpt lat="42.58436861447989940643310546875" lon="20.01354823820292949676513671875">
        <ele>1983.199951171875</ele>
        <time>2026-06-15T14:15:31.000Z</time>
        <extensions>
          <ns3:TrackPointExtension>
            <ns3:atemp>18.0</ns3:atemp>
          </ns3:TrackPointExtension>
        </extensions>
      </trkpt>
      <trkpt lat="42.58436861447989940643310546875" lon="20.01354823820292949676513671875">
        <ele>1983.199951171875</ele>
        <time>2026-06-15T14:15:32.000Z</time>
        <extensions>
          <ns3:TrackPointExtension>
            <ns3:atemp>18.0</ns3:atemp>
          </ns3:TrackPointExtension>
        </extensions>
      </trkpt>
      <trkpt lat="42.58436861447989940643310546875" lon="20.01354823820292949676513671875">
        <ele>1983.199951171875</ele>
        <time>2026-06-15T14:15:33.000Z</time>
        <extensions>
          <ns3:TrackPointExtension>
            <ns3:atemp>18.0</ns3:atemp>
          </ns3:TrackPointExtension>
        </extensions>
      </trkpt>
      <trkpt lat="42.58436861447989940643310546875" lon="20.01354823820292949676513671875">
        <ele>1983.199951171875</ele>
        <time>2026-06-15T14:15:34.000Z</time>
        <extensions>
          <ns3:TrackPointExtension>
            <ns3:atemp>18.0</ns3:atemp>
          </ns3:TrackPointExtension>
        </extensions>
      </trkpt>
      <trkpt lat="42.58436861447989940643310546875" lon="20.01354823820292949676513671875">
        <ele>1983.199951171875</ele>
        <time>2026-06-15T14:15:35.000Z</time>
        <extensions>
          <ns3:TrackPointExtension>
            <ns3:atemp>18.0</ns3:atemp>
          </ns3:TrackPointExtension>
        </extensions>
      </trkpt>
      <trkpt lat="42.58436861447989940643310546875" lon="20.01354823820292949676513671875">
        <ele>1983.199951171875</ele>
        <time>2026-06-15T14:15:36.000Z</time>
        <extensions>
          <ns3:TrackPointExtension>
            <ns3:atemp>18.0</ns3:atemp>
          </ns3:TrackPointExtension>
        </extensions>
      </trkpt>
      <trkpt lat="42.58436861447989940643310546875" lon="20.01354823820292949676513671875">
        <ele>1983.199951171875</ele>
        <time>2026-06-15T14:15:37.000Z</time>
        <extensions>
          <ns3:TrackPointExtension>
            <ns3:atemp>18.0</ns3:atemp>
          </ns3:TrackPointExtension>
        </extensions>
      </trkpt>
      <trkpt lat="42.58436861447989940643310546875" lon="20.01354823820292949676513671875">
        <ele>1983.199951171875</ele>
        <time>2026-06-15T14:15:38.000Z</time>
        <extensions>
          <ns3:TrackPointExtension>
            <ns3:atemp>18.0</ns3:atemp>
          </ns3:TrackPointExtension>
        </extensions>
      </trkpt>
      <trkpt lat="42.58436861447989940643310546875" lon="20.01354823820292949676513671875">
        <ele>1983.199951171875</ele>
        <time>2026-06-15T14:15:39.000Z</time>
        <extensions>
          <ns3:TrackPointExtension>
            <ns3:atemp>18.0</ns3:atemp>
          </ns3:TrackPointExtension>
        </extensions>
      </trkpt>
      <trkpt lat="42.58436861447989940643310546875" lon="20.01354823820292949676513671875">
        <ele>1983.199951171875</ele>
        <time>2026-06-15T14:15:40.000Z</time>
        <extensions>
          <ns3:TrackPointExtension>
            <ns3:atemp>18.0</ns3:atemp>
          </ns3:TrackPointExtension>
        </extensions>
      </trkpt>
      <trkpt lat="42.58436861447989940643310546875" lon="20.01354823820292949676513671875">
        <ele>1983.199951171875</ele>
        <time>2026-06-15T14:15:41.000Z</time>
        <extensions>
          <ns3:TrackPointExtension>
            <ns3:atemp>18.0</ns3:atemp>
          </ns3:TrackPointExtension>
        </extensions>
      </trkpt>
      <trkpt lat="42.58436861447989940643310546875" lon="20.01354823820292949676513671875">
        <ele>1983.199951171875</ele>
        <time>2026-06-15T14:15:42.000Z</time>
        <extensions>
          <ns3:TrackPointExtension>
            <ns3:atemp>18.0</ns3:atemp>
          </ns3:TrackPointExtension>
        </extensions>
      </trkpt>
      <trkpt lat="42.58436861447989940643310546875" lon="20.01354823820292949676513671875">
        <ele>1983.199951171875</ele>
        <time>2026-06-15T14:15:43.000Z</time>
        <extensions>
          <ns3:TrackPointExtension>
            <ns3:atemp>18.0</ns3:atemp>
          </ns3:TrackPointExtension>
        </extensions>
      </trkpt>
      <trkpt lat="42.58436861447989940643310546875" lon="20.01354823820292949676513671875">
        <ele>1983.199951171875</ele>
        <time>2026-06-15T14:15:44.000Z</time>
        <extensions>
          <ns3:TrackPointExtension>
            <ns3:atemp>18.0</ns3:atemp>
          </ns3:TrackPointExtension>
        </extensions>
      </trkpt>
      <trkpt lat="42.58436861447989940643310546875" lon="20.01354823820292949676513671875">
        <ele>1983.199951171875</ele>
        <time>2026-06-15T14:15:45.000Z</time>
        <extensions>
          <ns3:TrackPointExtension>
            <ns3:atemp>18.0</ns3:atemp>
          </ns3:TrackPointExtension>
        </extensions>
      </trkpt>
      <trkpt lat="42.58436861447989940643310546875" lon="20.01354823820292949676513671875">
        <ele>1983.199951171875</ele>
        <time>2026-06-15T14:15:46.000Z</time>
        <extensions>
          <ns3:TrackPointExtension>
            <ns3:atemp>18.0</ns3:atemp>
          </ns3:TrackPointExtension>
        </extensions>
      </trkpt>
      <trkpt lat="42.58436861447989940643310546875" lon="20.01354823820292949676513671875">
        <ele>1983.199951171875</ele>
        <time>2026-06-15T14:15:47.000Z</time>
        <extensions>
          <ns3:TrackPointExtension>
            <ns3:atemp>19.0</ns3:atemp>
          </ns3:TrackPointExtension>
        </extensions>
      </trkpt>
      <trkpt lat="42.58436861447989940643310546875" lon="20.01354823820292949676513671875">
        <ele>1983.199951171875</ele>
        <time>2026-06-15T14:15:48.000Z</time>
        <extensions>
          <ns3:TrackPointExtension>
            <ns3:atemp>19.0</ns3:atemp>
          </ns3:TrackPointExtension>
        </extensions>
      </trkpt>
      <trkpt lat="42.58436861447989940643310546875" lon="20.01354823820292949676513671875">
        <ele>1983.199951171875</ele>
        <time>2026-06-15T14:15:49.000Z</time>
        <extensions>
          <ns3:TrackPointExtension>
            <ns3:atemp>19.0</ns3:atemp>
          </ns3:TrackPointExtension>
        </extensions>
      </trkpt>
      <trkpt lat="42.58436861447989940643310546875" lon="20.01354823820292949676513671875">
        <ele>1983.199951171875</ele>
        <time>2026-06-15T14:15:50.000Z</time>
        <extensions>
          <ns3:TrackPointExtension>
            <ns3:atemp>19.0</ns3:atemp>
          </ns3:TrackPointExtension>
        </extensions>
      </trkpt>
      <trkpt lat="42.58436861447989940643310546875" lon="20.01354823820292949676513671875">
        <ele>1983.199951171875</ele>
        <time>2026-06-15T14:15:51.000Z</time>
        <extensions>
          <ns3:TrackPointExtension>
            <ns3:atemp>18.0</ns3:atemp>
          </ns3:TrackPointExtension>
        </extensions>
      </trkpt>
      <trkpt lat="42.58436861447989940643310546875" lon="20.01354823820292949676513671875">
        <ele>1983.199951171875</ele>
        <time>2026-06-15T14:15:52.000Z</time>
        <extensions>
          <ns3:TrackPointExtension>
            <ns3:atemp>18.0</ns3:atemp>
          </ns3:TrackPointExtension>
        </extensions>
      </trkpt>
      <trkpt lat="42.58436861447989940643310546875" lon="20.01354823820292949676513671875">
        <ele>1983.199951171875</ele>
        <time>2026-06-15T14:15:53.000Z</time>
        <extensions>
          <ns3:TrackPointExtension>
            <ns3:atemp>18.0</ns3:atemp>
          </ns3:TrackPointExtension>
        </extensions>
      </trkpt>
      <trkpt lat="42.58436861447989940643310546875" lon="20.01354823820292949676513671875">
        <ele>1983.199951171875</ele>
        <time>2026-06-15T14:15:54.000Z</time>
        <extensions>
          <ns3:TrackPointExtension>
            <ns3:atemp>18.0</ns3:atemp>
          </ns3:TrackPointExtension>
        </extensions>
      </trkpt>
      <trkpt lat="42.58436861447989940643310546875" lon="20.01354823820292949676513671875">
        <ele>1983.199951171875</ele>
        <time>2026-06-15T14:15:55.000Z</time>
        <extensions>
          <ns3:TrackPointExtension>
            <ns3:atemp>19.0</ns3:atemp>
          </ns3:TrackPointExtension>
        </extensions>
      </trkpt>
      <trkpt lat="42.58436861447989940643310546875" lon="20.01354823820292949676513671875">
        <ele>1983.199951171875</ele>
        <time>2026-06-15T14:15:56.000Z</time>
        <extensions>
          <ns3:TrackPointExtension>
            <ns3:atemp>18.0</ns3:atemp>
          </ns3:TrackPointExtension>
        </extensions>
      </trkpt>
      <trkpt lat="42.58436861447989940643310546875" lon="20.01354823820292949676513671875">
        <ele>1983.199951171875</ele>
        <time>2026-06-15T14:15:57.000Z</time>
        <extensions>
          <ns3:TrackPointExtension>
            <ns3:atemp>18.0</ns3:atemp>
          </ns3:TrackPointExtension>
        </extensions>
      </trkpt>
      <trkpt lat="42.58436861447989940643310546875" lon="20.01354823820292949676513671875">
        <ele>1983.199951171875</ele>
        <time>2026-06-15T14:15:58.000Z</time>
        <extensions>
          <ns3:TrackPointExtension>
            <ns3:atemp>19.0</ns3:atemp>
          </ns3:TrackPointExtension>
        </extensions>
      </trkpt>
      <trkpt lat="42.58436861447989940643310546875" lon="20.01354823820292949676513671875">
        <ele>1983.199951171875</ele>
        <time>2026-06-15T14:15:59.000Z</time>
        <extensions>
          <ns3:TrackPointExtension>
            <ns3:atemp>19.0</ns3:atemp>
          </ns3:TrackPointExtension>
        </extensions>
      </trkpt>
      <trkpt lat="42.58436861447989940643310546875" lon="20.01354823820292949676513671875">
        <ele>1983.199951171875</ele>
        <time>2026-06-15T14:16:00.000Z</time>
        <extensions>
          <ns3:TrackPointExtension>
            <ns3:atemp>19.0</ns3:atemp>
          </ns3:TrackPointExtension>
        </extensions>
      </trkpt>
      <trkpt lat="42.58436861447989940643310546875" lon="20.01354823820292949676513671875">
        <ele>1983.199951171875</ele>
        <time>2026-06-15T14:16:01.000Z</time>
        <extensions>
          <ns3:TrackPointExtension>
            <ns3:atemp>19.0</ns3:atemp>
          </ns3:TrackPointExtension>
        </extensions>
      </trkpt>
      <trkpt lat="42.58436861447989940643310546875" lon="20.01354823820292949676513671875">
        <ele>1983.199951171875</ele>
        <time>2026-06-15T14:16:02.000Z</time>
        <extensions>
          <ns3:TrackPointExtension>
            <ns3:atemp>19.0</ns3:atemp>
          </ns3:TrackPointExtension>
        </extensions>
      </trkpt>
      <trkpt lat="42.58436861447989940643310546875" lon="20.01354823820292949676513671875">
        <ele>1983.199951171875</ele>
        <time>2026-06-15T14:16:03.000Z</time>
        <extensions>
          <ns3:TrackPointExtension>
            <ns3:atemp>19.0</ns3:atemp>
          </ns3:TrackPointExtension>
        </extensions>
      </trkpt>
      <trkpt lat="42.58436861447989940643310546875" lon="20.01354823820292949676513671875">
        <ele>1983.199951171875</ele>
        <time>2026-06-15T14:16:04.000Z</time>
        <extensions>
          <ns3:TrackPointExtension>
            <ns3:atemp>19.0</ns3:atemp>
          </ns3:TrackPointExtension>
        </extensions>
      </trkpt>
      <trkpt lat="42.58436861447989940643310546875" lon="20.01354823820292949676513671875">
        <ele>1983.199951171875</ele>
        <time>2026-06-15T14:16:05.000Z</time>
        <extensions>
          <ns3:TrackPointExtension>
            <ns3:atemp>19.0</ns3:atemp>
          </ns3:TrackPointExtension>
        </extensions>
      </trkpt>
      <trkpt lat="42.58436861447989940643310546875" lon="20.01354823820292949676513671875">
        <ele>1983.199951171875</ele>
        <time>2026-06-15T14:16:06.000Z</time>
        <extensions>
          <ns3:TrackPointExtension>
            <ns3:atemp>19.0</ns3:atemp>
          </ns3:TrackPointExtension>
        </extensions>
      </trkpt>
      <trkpt lat="42.58436861447989940643310546875" lon="20.01354823820292949676513671875">
        <ele>1983.199951171875</ele>
        <time>2026-06-15T14:16:07.000Z</time>
        <extensions>
          <ns3:TrackPointExtension>
            <ns3:atemp>19.0</ns3:atemp>
          </ns3:TrackPointExtension>
        </extensions>
      </trkpt>
      <trkpt lat="42.58436861447989940643310546875" lon="20.01354823820292949676513671875">
        <ele>1983.199951171875</ele>
        <time>2026-06-15T14:16:08.000Z</time>
        <extensions>
          <ns3:TrackPointExtension>
            <ns3:atemp>19.0</ns3:atemp>
          </ns3:TrackPointExtension>
        </extensions>
      </trkpt>
      <trkpt lat="42.58436861447989940643310546875" lon="20.01354823820292949676513671875">
        <ele>1983.199951171875</ele>
        <time>2026-06-15T14:16:09.000Z</time>
        <extensions>
          <ns3:TrackPointExtension>
            <ns3:atemp>19.0</ns3:atemp>
          </ns3:TrackPointExtension>
        </extensions>
      </trkpt>
      <trkpt lat="42.58436861447989940643310546875" lon="20.01354823820292949676513671875">
        <ele>1983.199951171875</ele>
        <time>2026-06-15T14:16:10.000Z</time>
        <extensions>
          <ns3:TrackPointExtension>
            <ns3:atemp>19.0</ns3:atemp>
          </ns3:TrackPointExtension>
        </extensions>
      </trkpt>
      <trkpt lat="42.58436861447989940643310546875" lon="20.01354823820292949676513671875">
        <ele>1983.199951171875</ele>
        <time>2026-06-15T14:16:11.000Z</time>
        <extensions>
          <ns3:TrackPointExtension>
            <ns3:atemp>19.0</ns3:atemp>
          </ns3:TrackPointExtension>
        </extensions>
      </trkpt>
      <trkpt lat="42.58436861447989940643310546875" lon="20.01354823820292949676513671875">
        <ele>1983.199951171875</ele>
        <time>2026-06-15T14:16:12.000Z</time>
        <extensions>
          <ns3:TrackPointExtension>
            <ns3:atemp>19.0</ns3:atemp>
          </ns3:TrackPointExtension>
        </extensions>
      </trkpt>
      <trkpt lat="42.58436861447989940643310546875" lon="20.01354823820292949676513671875">
        <ele>1983.199951171875</ele>
        <time>2026-06-15T14:16:13.000Z</time>
        <extensions>
          <ns3:TrackPointExtension>
            <ns3:atemp>19.0</ns3:atemp>
          </ns3:TrackPointExtension>
        </extensions>
      </trkpt>
      <trkpt lat="42.58436861447989940643310546875" lon="20.01354823820292949676513671875">
        <ele>1983.199951171875</ele>
        <time>2026-06-15T14:16:14.000Z</time>
        <extensions>
          <ns3:TrackPointExtension>
            <ns3:atemp>19.0</ns3:atemp>
          </ns3:TrackPointExtension>
        </extensions>
      </trkpt>
      <trkpt lat="42.58436861447989940643310546875" lon="20.01354823820292949676513671875">
        <ele>1983.199951171875</ele>
        <time>2026-06-15T14:16:15.000Z</time>
        <extensions>
          <ns3:TrackPointExtension>
            <ns3:atemp>19.0</ns3:atemp>
          </ns3:TrackPointExtension>
        </extensions>
      </trkpt>
      <trkpt lat="42.58436861447989940643310546875" lon="20.01354823820292949676513671875">
        <ele>1983.199951171875</ele>
        <time>2026-06-15T14:16:16.000Z</time>
        <extensions>
          <ns3:TrackPointExtension>
            <ns3:atemp>19.0</ns3:atemp>
          </ns3:TrackPointExtension>
        </extensions>
      </trkpt>
      <trkpt lat="42.58436861447989940643310546875" lon="20.01354823820292949676513671875">
        <ele>1983.199951171875</ele>
        <time>2026-06-15T14:16:17.000Z</time>
        <extensions>
          <ns3:TrackPointExtension>
            <ns3:atemp>19.0</ns3:atemp>
          </ns3:TrackPointExtension>
        </extensions>
      </trkpt>
      <trkpt lat="42.58436861447989940643310546875" lon="20.01354823820292949676513671875">
        <ele>1983.199951171875</ele>
        <time>2026-06-15T14:16:18.000Z</time>
        <extensions>
          <ns3:TrackPointExtension>
            <ns3:atemp>19.0</ns3:atemp>
          </ns3:TrackPointExtension>
        </extensions>
      </trkpt>
      <trkpt lat="42.58436861447989940643310546875" lon="20.01354823820292949676513671875">
        <ele>1983.199951171875</ele>
        <time>2026-06-15T14:16:19.000Z</time>
        <extensions>
          <ns3:TrackPointExtension>
            <ns3:atemp>19.0</ns3:atemp>
          </ns3:TrackPointExtension>
        </extensions>
      </trkpt>
      <trkpt lat="42.58436861447989940643310546875" lon="20.01354823820292949676513671875">
        <ele>1983.199951171875</ele>
        <time>2026-06-15T14:16:20.000Z</time>
        <extensions>
          <ns3:TrackPointExtension>
            <ns3:atemp>19.0</ns3:atemp>
          </ns3:TrackPointExtension>
        </extensions>
      </trkpt>
      <trkpt lat="42.58436861447989940643310546875" lon="20.01354823820292949676513671875">
        <ele>1983.199951171875</ele>
        <time>2026-06-15T14:16:21.000Z</time>
        <extensions>
          <ns3:TrackPointExtension>
            <ns3:atemp>19.0</ns3:atemp>
          </ns3:TrackPointExtension>
        </extensions>
      </trkpt>
      <trkpt lat="42.58436861447989940643310546875" lon="20.01354823820292949676513671875">
        <ele>1983.199951171875</ele>
        <time>2026-06-15T14:16:22.000Z</time>
        <extensions>
          <ns3:TrackPointExtension>
            <ns3:atemp>19.0</ns3:atemp>
          </ns3:TrackPointExtension>
        </extensions>
      </trkpt>
      <trkpt lat="42.58436861447989940643310546875" lon="20.01354823820292949676513671875">
        <ele>1983.199951171875</ele>
        <time>2026-06-15T14:16:23.000Z</time>
        <extensions>
          <ns3:TrackPointExtension>
            <ns3:atemp>19.0</ns3:atemp>
          </ns3:TrackPointExtension>
        </extensions>
      </trkpt>
      <trkpt lat="42.58436861447989940643310546875" lon="20.01354823820292949676513671875">
        <ele>1983.199951171875</ele>
        <time>2026-06-15T14:16:24.000Z</time>
        <extensions>
          <ns3:TrackPointExtension>
            <ns3:atemp>19.0</ns3:atemp>
          </ns3:TrackPointExtension>
        </extensions>
      </trkpt>
      <trkpt lat="42.58436861447989940643310546875" lon="20.01354823820292949676513671875">
        <ele>1983.199951171875</ele>
        <time>2026-06-15T14:16:25.000Z</time>
        <extensions>
          <ns3:TrackPointExtension>
            <ns3:atemp>19.0</ns3:atemp>
          </ns3:TrackPointExtension>
        </extensions>
      </trkpt>
      <trkpt lat="42.58436861447989940643310546875" lon="20.01354823820292949676513671875">
        <ele>1983.199951171875</ele>
        <time>2026-06-15T14:16:26.000Z</time>
        <extensions>
          <ns3:TrackPointExtension>
            <ns3:atemp>19.0</ns3:atemp>
          </ns3:TrackPointExtension>
        </extensions>
      </trkpt>
      <trkpt lat="42.58436861447989940643310546875" lon="20.01354823820292949676513671875">
        <ele>1983.199951171875</ele>
        <time>2026-06-15T14:16:27.000Z</time>
        <extensions>
          <ns3:TrackPointExtension>
            <ns3:atemp>19.0</ns3:atemp>
          </ns3:TrackPointExtension>
        </extensions>
      </trkpt>
      <trkpt lat="42.58436861447989940643310546875" lon="20.01354823820292949676513671875">
        <ele>1983.199951171875</ele>
        <time>2026-06-15T14:16:28.000Z</time>
        <extensions>
          <ns3:TrackPointExtension>
            <ns3:atemp>19.0</ns3:atemp>
          </ns3:TrackPointExtension>
        </extensions>
      </trkpt>
      <trkpt lat="42.58436861447989940643310546875" lon="20.01354823820292949676513671875">
        <ele>1983.199951171875</ele>
        <time>2026-06-15T14:16:29.000Z</time>
        <extensions>
          <ns3:TrackPointExtension>
            <ns3:atemp>19.0</ns3:atemp>
          </ns3:TrackPointExtension>
        </extensions>
      </trkpt>
      <trkpt lat="42.58436861447989940643310546875" lon="20.01354823820292949676513671875">
        <ele>1983.199951171875</ele>
        <time>2026-06-15T14:16:30.000Z</time>
        <extensions>
          <ns3:TrackPointExtension>
            <ns3:atemp>19.0</ns3:atemp>
          </ns3:TrackPointExtension>
        </extensions>
      </trkpt>
      <trkpt lat="42.58436861447989940643310546875" lon="20.01354823820292949676513671875">
        <ele>1983.199951171875</ele>
        <time>2026-06-15T14:16:31.000Z</time>
        <extensions>
          <ns3:TrackPointExtension>
            <ns3:atemp>19.0</ns3:atemp>
          </ns3:TrackPointExtension>
        </extensions>
      </trkpt>
      <trkpt lat="42.58436861447989940643310546875" lon="20.01354823820292949676513671875">
        <ele>1983.199951171875</ele>
        <time>2026-06-15T14:16:32.000Z</time>
        <extensions>
          <ns3:TrackPointExtension>
            <ns3:atemp>19.0</ns3:atemp>
          </ns3:TrackPointExtension>
        </extensions>
      </trkpt>
      <trkpt lat="42.58436861447989940643310546875" lon="20.01354823820292949676513671875">
        <ele>1983.199951171875</ele>
        <time>2026-06-15T14:16:33.000Z</time>
        <extensions>
          <ns3:TrackPointExtension>
            <ns3:atemp>19.0</ns3:atemp>
          </ns3:TrackPointExtension>
        </extensions>
      </trkpt>
      <trkpt lat="42.58436861447989940643310546875" lon="20.01354823820292949676513671875">
        <ele>1983.199951171875</ele>
        <time>2026-06-15T14:16:34.000Z</time>
        <extensions>
          <ns3:TrackPointExtension>
            <ns3:atemp>19.0</ns3:atemp>
          </ns3:TrackPointExtension>
        </extensions>
      </trkpt>
      <trkpt lat="42.58436861447989940643310546875" lon="20.01354823820292949676513671875">
        <ele>1983.199951171875</ele>
        <time>2026-06-15T14:16:35.000Z</time>
        <extensions>
          <ns3:TrackPointExtension>
            <ns3:atemp>19.0</ns3:atemp>
          </ns3:TrackPointExtension>
        </extensions>
      </trkpt>
      <trkpt lat="42.58436861447989940643310546875" lon="20.01354823820292949676513671875">
        <ele>1983.199951171875</ele>
        <time>2026-06-15T14:16:36.000Z</time>
        <extensions>
          <ns3:TrackPointExtension>
            <ns3:atemp>19.0</ns3:atemp>
          </ns3:TrackPointExtension>
        </extensions>
      </trkpt>
      <trkpt lat="42.58436861447989940643310546875" lon="20.01354823820292949676513671875">
        <ele>1983.199951171875</ele>
        <time>2026-06-15T14:16:37.000Z</time>
        <extensions>
          <ns3:TrackPointExtension>
            <ns3:atemp>19.0</ns3:atemp>
          </ns3:TrackPointExtension>
        </extensions>
      </trkpt>
      <trkpt lat="42.58436861447989940643310546875" lon="20.01354823820292949676513671875">
        <ele>1983.199951171875</ele>
        <time>2026-06-15T14:16:38.000Z</time>
        <extensions>
          <ns3:TrackPointExtension>
            <ns3:atemp>19.0</ns3:atemp>
          </ns3:TrackPointExtension>
        </extensions>
      </trkpt>
      <trkpt lat="42.58436861447989940643310546875" lon="20.01354823820292949676513671875">
        <ele>1983.199951171875</ele>
        <time>2026-06-15T14:16:39.000Z</time>
        <extensions>
          <ns3:TrackPointExtension>
            <ns3:atemp>19.0</ns3:atemp>
          </ns3:TrackPointExtension>
        </extensions>
      </trkpt>
      <trkpt lat="42.58436861447989940643310546875" lon="20.01354823820292949676513671875">
        <ele>1983.199951171875</ele>
        <time>2026-06-15T14:16:40.000Z</time>
        <extensions>
          <ns3:TrackPointExtension>
            <ns3:atemp>19.0</ns3:atemp>
          </ns3:TrackPointExtension>
        </extensions>
      </trkpt>
      <trkpt lat="42.58436861447989940643310546875" lon="20.01354823820292949676513671875">
        <ele>1983.199951171875</ele>
        <time>2026-06-15T14:16:41.000Z</time>
        <extensions>
          <ns3:TrackPointExtension>
            <ns3:atemp>19.0</ns3:atemp>
          </ns3:TrackPointExtension>
        </extensions>
      </trkpt>
      <trkpt lat="42.58436861447989940643310546875" lon="20.01354823820292949676513671875">
        <ele>1983.199951171875</ele>
        <time>2026-06-15T14:16:42.000Z</time>
        <extensions>
          <ns3:TrackPointExtension>
            <ns3:atemp>19.0</ns3:atemp>
          </ns3:TrackPointExtension>
        </extensions>
      </trkpt>
      <trkpt lat="42.58436861447989940643310546875" lon="20.01354823820292949676513671875">
        <ele>1983.199951171875</ele>
        <time>2026-06-15T14:16:43.000Z</time>
        <extensions>
          <ns3:TrackPointExtension>
            <ns3:atemp>19.0</ns3:atemp>
          </ns3:TrackPointExtension>
        </extensions>
      </trkpt>
      <trkpt lat="42.58436861447989940643310546875" lon="20.01354823820292949676513671875">
        <ele>1983.199951171875</ele>
        <time>2026-06-15T14:16:44.000Z</time>
        <extensions>
          <ns3:TrackPointExtension>
            <ns3:atemp>19.0</ns3:atemp>
          </ns3:TrackPointExtension>
        </extensions>
      </trkpt>
      <trkpt lat="42.58436861447989940643310546875" lon="20.01354823820292949676513671875">
        <ele>1983.199951171875</ele>
        <time>2026-06-15T14:16:45.000Z</time>
        <extensions>
          <ns3:TrackPointExtension>
            <ns3:atemp>19.0</ns3:atemp>
          </ns3:TrackPointExtension>
        </extensions>
      </trkpt>
      <trkpt lat="42.58436861447989940643310546875" lon="20.01354823820292949676513671875">
        <ele>1983.199951171875</ele>
        <time>2026-06-15T14:16:46.000Z</time>
        <extensions>
          <ns3:TrackPointExtension>
            <ns3:atemp>19.0</ns3:atemp>
          </ns3:TrackPointExtension>
        </extensions>
      </trkpt>
      <trkpt lat="42.58436861447989940643310546875" lon="20.01354823820292949676513671875">
        <ele>1983.199951171875</ele>
        <time>2026-06-15T14:16:47.000Z</time>
        <extensions>
          <ns3:TrackPointExtension>
            <ns3:atemp>19.0</ns3:atemp>
          </ns3:TrackPointExtension>
        </extensions>
      </trkpt>
      <trkpt lat="42.58436861447989940643310546875" lon="20.01354823820292949676513671875">
        <ele>1983.199951171875</ele>
        <time>2026-06-15T14:16:48.000Z</time>
        <extensions>
          <ns3:TrackPointExtension>
            <ns3:atemp>19.0</ns3:atemp>
          </ns3:TrackPointExtension>
        </extensions>
      </trkpt>
      <trkpt lat="42.58436861447989940643310546875" lon="20.01354823820292949676513671875">
        <ele>1983.199951171875</ele>
        <time>2026-06-15T14:16:49.000Z</time>
        <extensions>
          <ns3:TrackPointExtension>
            <ns3:atemp>19.0</ns3:atemp>
          </ns3:TrackPointExtension>
        </extensions>
      </trkpt>
      <trkpt lat="42.58436861447989940643310546875" lon="20.01354823820292949676513671875">
        <ele>1983.199951171875</ele>
        <time>2026-06-15T14:16:50.000Z</time>
        <extensions>
          <ns3:TrackPointExtension>
            <ns3:atemp>19.0</ns3:atemp>
          </ns3:TrackPointExtension>
        </extensions>
      </trkpt>
      <trkpt lat="42.58436861447989940643310546875" lon="20.01354823820292949676513671875">
        <ele>1983.199951171875</ele>
        <time>2026-06-15T14:16:51.000Z</time>
        <extensions>
          <ns3:TrackPointExtension>
            <ns3:atemp>19.0</ns3:atemp>
          </ns3:TrackPointExtension>
        </extensions>
      </trkpt>
      <trkpt lat="42.58436861447989940643310546875" lon="20.01354823820292949676513671875">
        <ele>1983.199951171875</ele>
        <time>2026-06-15T14:16:52.000Z</time>
        <extensions>
          <ns3:TrackPointExtension>
            <ns3:atemp>19.0</ns3:atemp>
          </ns3:TrackPointExtension>
        </extensions>
      </trkpt>
      <trkpt lat="42.58436861447989940643310546875" lon="20.01354823820292949676513671875">
        <ele>1983.199951171875</ele>
        <time>2026-06-15T14:16:53.000Z</time>
        <extensions>
          <ns3:TrackPointExtension>
            <ns3:atemp>19.0</ns3:atemp>
          </ns3:TrackPointExtension>
        </extensions>
      </trkpt>
      <trkpt lat="42.58436861447989940643310546875" lon="20.01354823820292949676513671875">
        <ele>1983.199951171875</ele>
        <time>2026-06-15T14:16:54.000Z</time>
        <extensions>
          <ns3:TrackPointExtension>
            <ns3:atemp>19.0</ns3:atemp>
          </ns3:TrackPointExtension>
        </extensions>
      </trkpt>
      <trkpt lat="42.58436861447989940643310546875" lon="20.01354823820292949676513671875">
        <ele>1983.199951171875</ele>
        <time>2026-06-15T14:16:55.000Z</time>
        <extensions>
          <ns3:TrackPointExtension>
            <ns3:atemp>19.0</ns3:atemp>
          </ns3:TrackPointExtension>
        </extensions>
      </trkpt>
      <trkpt lat="42.58436861447989940643310546875" lon="20.01354823820292949676513671875">
        <ele>1983.199951171875</ele>
        <time>2026-06-15T14:16:56.000Z</time>
        <extensions>
          <ns3:TrackPointExtension>
            <ns3:atemp>19.0</ns3:atemp>
          </ns3:TrackPointExtension>
        </extensions>
      </trkpt>
      <trkpt lat="42.58436861447989940643310546875" lon="20.01354823820292949676513671875">
        <ele>1983.199951171875</ele>
        <time>2026-06-15T14:16:57.000Z</time>
        <extensions>
          <ns3:TrackPointExtension>
            <ns3:atemp>19.0</ns3:atemp>
          </ns3:TrackPointExtension>
        </extensions>
      </trkpt>
      <trkpt lat="42.58436861447989940643310546875" lon="20.01354823820292949676513671875">
        <ele>1983.199951171875</ele>
        <time>2026-06-15T14:16:58.000Z</time>
        <extensions>
          <ns3:TrackPointExtension>
            <ns3:atemp>19.0</ns3:atemp>
          </ns3:TrackPointExtension>
        </extensions>
      </trkpt>
      <trkpt lat="42.58436861447989940643310546875" lon="20.01354823820292949676513671875">
        <ele>1983.199951171875</ele>
        <time>2026-06-15T14:16:59.000Z</time>
        <extensions>
          <ns3:TrackPointExtension>
            <ns3:atemp>19.0</ns3:atemp>
          </ns3:TrackPointExtension>
        </extensions>
      </trkpt>
      <trkpt lat="42.58436861447989940643310546875" lon="20.01354823820292949676513671875">
        <ele>1983.199951171875</ele>
        <time>2026-06-15T14:17:00.000Z</time>
        <extensions>
          <ns3:TrackPointExtension>
            <ns3:atemp>19.0</ns3:atemp>
          </ns3:TrackPointExtension>
        </extensions>
      </trkpt>
      <trkpt lat="42.58436861447989940643310546875" lon="20.01354823820292949676513671875">
        <ele>1983.199951171875</ele>
        <time>2026-06-15T14:17:01.000Z</time>
        <extensions>
          <ns3:TrackPointExtension>
            <ns3:atemp>19.0</ns3:atemp>
          </ns3:TrackPointExtension>
        </extensions>
      </trkpt>
      <trkpt lat="42.58436861447989940643310546875" lon="20.01354823820292949676513671875">
        <ele>1983.199951171875</ele>
        <time>2026-06-15T14:17:02.000Z</time>
        <extensions>
          <ns3:TrackPointExtension>
            <ns3:atemp>19.0</ns3:atemp>
          </ns3:TrackPointExtension>
        </extensions>
      </trkpt>
      <trkpt lat="42.58436861447989940643310546875" lon="20.01354823820292949676513671875">
        <ele>1983.199951171875</ele>
        <time>2026-06-15T14:17:03.000Z</time>
        <extensions>
          <ns3:TrackPointExtension>
            <ns3:atemp>19.0</ns3:atemp>
          </ns3:TrackPointExtension>
        </extensions>
      </trkpt>
      <trkpt lat="42.58436861447989940643310546875" lon="20.01354823820292949676513671875">
        <ele>1983.199951171875</ele>
        <time>2026-06-15T14:17:04.000Z</time>
        <extensions>
          <ns3:TrackPointExtension>
            <ns3:atemp>19.0</ns3:atemp>
          </ns3:TrackPointExtension>
        </extensions>
      </trkpt>
      <trkpt lat="42.58436861447989940643310546875" lon="20.01354823820292949676513671875">
        <ele>1983.199951171875</ele>
        <time>2026-06-15T14:17:05.000Z</time>
        <extensions>
          <ns3:TrackPointExtension>
            <ns3:atemp>19.0</ns3:atemp>
          </ns3:TrackPointExtension>
        </extensions>
      </trkpt>
      <trkpt lat="42.58436861447989940643310546875" lon="20.01354823820292949676513671875">
        <ele>1983.199951171875</ele>
        <time>2026-06-15T14:17:06.000Z</time>
        <extensions>
          <ns3:TrackPointExtension>
            <ns3:atemp>19.0</ns3:atemp>
          </ns3:TrackPointExtension>
        </extensions>
      </trkpt>
      <trkpt lat="42.58436861447989940643310546875" lon="20.01354823820292949676513671875">
        <ele>1983.199951171875</ele>
        <time>2026-06-15T14:17:07.000Z</time>
        <extensions>
          <ns3:TrackPointExtension>
            <ns3:atemp>19.0</ns3:atemp>
          </ns3:TrackPointExtension>
        </extensions>
      </trkpt>
      <trkpt lat="42.58436861447989940643310546875" lon="20.01354823820292949676513671875">
        <ele>1983.199951171875</ele>
        <time>2026-06-15T14:17:08.000Z</time>
        <extensions>
          <ns3:TrackPointExtension>
            <ns3:atemp>19.0</ns3:atemp>
          </ns3:TrackPointExtension>
        </extensions>
      </trkpt>
      <trkpt lat="42.58437448181211948394775390625" lon="20.01354237087070941925048828125">
        <ele>1983.199951171875</ele>
        <time>2026-06-15T14:17:09.000Z</time>
        <extensions>
          <ns3:TrackPointExtension>
            <ns3:atemp>19.0</ns3:atemp>
          </ns3:TrackPointExtension>
        </extensions>
      </trkpt>
      <trkpt lat="42.5843903236091136932373046875" lon="20.01353097148239612579345703125">
        <ele>1983.199951171875</ele>
        <time>2026-06-15T14:17:10.000Z</time>
        <extensions>
          <ns3:TrackPointExtension>
            <ns3:atemp>19.0</ns3:atemp>
          </ns3:TrackPointExtension>
        </extensions>
      </trkpt>
      <trkpt lat="42.58441052399575710296630859375" lon="20.01353315077722072601318359375">
        <ele>1983.199951171875</ele>
        <time>2026-06-15T14:17:11.000Z</time>
        <extensions>
          <ns3:TrackPointExtension>
            <ns3:atemp>19.0</ns3:atemp>
          </ns3:TrackPointExtension>
        </extensions>
      </trkpt>
      <trkpt lat="42.58442678488790988922119140625" lon="20.01352326013147830963134765625">
        <ele>1983.199951171875</ele>
        <time>2026-06-15T14:17:12.000Z</time>
        <extensions>
          <ns3:TrackPointExtension>
            <ns3:atemp>19.0</ns3:atemp>
          </ns3:TrackPointExtension>
        </extensions>
      </trkpt>
      <trkpt lat="42.584453858435153961181640625" lon="20.01351336948573589324951171875">
        <ele>1983</ele>
        <time>2026-06-15T14:17:13.000Z</time>
        <extensions>
          <ns3:TrackPointExtension>
            <ns3:atemp>19.0</ns3:atemp>
          </ns3:TrackPointExtension>
        </extensions>
      </trkpt>
      <trkpt lat="42.5844828598201274871826171875" lon="20.0134878046810626983642578125">
        <ele>1982.800048828125</ele>
        <time>2026-06-15T14:17:14.000Z</time>
        <extensions>
          <ns3:TrackPointExtension>
            <ns3:atemp>19.0</ns3:atemp>
          </ns3:TrackPointExtension>
        </extensions>
      </trkpt>
      <trkpt lat="42.58451990783214569091796875" lon="20.01348922960460186004638671875">
        <ele>1982.4000244140625</ele>
        <time>2026-06-15T14:17:15.000Z</time>
        <extensions>
          <ns3:TrackPointExtension>
            <ns3:atemp>19.0</ns3:atemp>
          </ns3:TrackPointExtension>
        </extensions>
      </trkpt>
      <trkpt lat="42.5845552794635295867919921875" lon="20.013485960662364959716796875">
        <ele>1982</ele>
        <time>2026-06-15T14:17:16.000Z</time>
        <extensions>
          <ns3:TrackPointExtension>
            <ns3:atemp>19.0</ns3:atemp>
          </ns3:TrackPointExtension>
        </extensions>
      </trkpt>
      <trkpt lat="42.584598697721958160400390625" lon="20.0134717114269733428955078125">
        <ele>1981.4000244140625</ele>
        <time>2026-06-15T14:17:17.000Z</time>
        <extensions>
          <ns3:TrackPointExtension>
            <ns3:atemp>19.0</ns3:atemp>
          </ns3:TrackPointExtension>
        </extensions>
      </trkpt>
      <trkpt lat="42.5846518389880657196044921875" lon="20.01346492208540439605712890625">
        <ele>1981</ele>
        <time>2026-06-15T14:17:18.000Z</time>
        <extensions>
          <ns3:TrackPointExtension>
            <ns3:atemp>19.0</ns3:atemp>
          </ns3:TrackPointExtension>
        </extensions>
      </trkpt>
      <trkpt lat="42.58470254950225353240966796875" lon="20.0134599767625331878662109375">
        <ele>1980.199951171875</ele>
        <time>2026-06-15T14:17:19.000Z</time>
        <extensions>
          <ns3:TrackPointExtension>
            <ns3:atemp>19.0</ns3:atemp>
          </ns3:TrackPointExtension>
        </extensions>
      </trkpt>
      <trkpt lat="42.58478066883981227874755859375" lon="20.01345871947705745697021484375">
        <ele>1979.199951171875</ele>
        <time>2026-06-15T14:17:20.000Z</time>
        <extensions>
          <ns3:TrackPointExtension>
            <ns3:atemp>19.0</ns3:atemp>
          </ns3:TrackPointExtension>
        </extensions>
      </trkpt>
      <trkpt lat="42.5848499871790409088134765625" lon="20.013468526303768157958984375">
        <ele>1977.800048828125</ele>
        <time>2026-06-15T14:17:21.000Z</time>
        <extensions>
          <ns3:TrackPointExtension>
            <ns3:atemp>19.0</ns3:atemp>
          </ns3:TrackPointExtension>
        </extensions>
      </trkpt>
      <trkpt lat="42.58491310290992259979248046875" lon="20.0134740583598613739013671875">
        <ele>1976</ele>
        <time>2026-06-15T14:17:22.000Z</time>
        <extensions>
          <ns3:TrackPointExtension>
            <ns3:atemp>19.0</ns3:atemp>
          </ns3:TrackPointExtension>
        </extensions>
      </trkpt>
      <trkpt lat="42.58495710790157318115234375" lon="20.013486631214618682861328125">
        <ele>1975</ele>
        <time>2026-06-15T14:17:23.000Z</time>
        <extensions>
          <ns3:TrackPointExtension>
            <ns3:atemp>19.0</ns3:atemp>
          </ns3:TrackPointExtension>
        </extensions>
      </trkpt>
      <trkpt lat="42.5849981792271137237548828125" lon="20.01349006779491901397705078125">
        <ele>1973.800048828125</ele>
        <time>2026-06-15T14:17:24.000Z</time>
        <extensions>
          <ns3:TrackPointExtension>
            <ns3:atemp>19.0</ns3:atemp>
          </ns3:TrackPointExtension>
        </extensions>
      </trkpt>
      <trkpt lat="42.585043609142303466796875" lon="20.0134633295238018035888671875">
        <ele>1972.5999755859375</ele>
        <time>2026-06-15T14:17:25.000Z</time>
        <extensions>
          <ns3:TrackPointExtension>
            <ns3:atemp>19.0</ns3:atemp>
          </ns3:TrackPointExtension>
        </extensions>
      </trkpt>
      <trkpt lat="42.58508543483912944793701171875" lon="20.01343307085335254669189453125">
        <ele>1971.4000244140625</ele>
        <time>2026-06-15T14:17:26.000Z</time>
        <extensions>
          <ns3:TrackPointExtension>
            <ns3:atemp>19.0</ns3:atemp>
          </ns3:TrackPointExtension>
        </extensions>
      </trkpt>
      <trkpt lat="42.58513974957168102264404296875" lon="20.01342133618891239166259765625">
        <ele>1970.199951171875</ele>
        <time>2026-06-15T14:17:27.000Z</time>
        <extensions>
          <ns3:TrackPointExtension>
            <ns3:atemp>19.0</ns3:atemp>
          </ns3:TrackPointExtension>
        </extensions>
      </trkpt>
      <trkpt lat="42.58518769405782222747802734375" lon="20.0134143792092800140380859375">
        <ele>1968.800048828125</ele>
        <time>2026-06-15T14:17:28.000Z</time>
        <extensions>
          <ns3:TrackPointExtension>
            <ns3:atemp>19.0</ns3:atemp>
          </ns3:TrackPointExtension>
        </extensions>
      </trkpt>
      <trkpt lat="42.58523060940206050872802734375" lon="20.01341764815151691436767578125">
        <ele>1967.4000244140625</ele>
        <time>2026-06-15T14:17:29.000Z</time>
        <extensions>
          <ns3:TrackPointExtension>
            <ns3:atemp>19.0</ns3:atemp>
          </ns3:TrackPointExtension>
        </extensions>
      </trkpt>
      <trkpt lat="42.5852529890835285186767578125" lon="20.01339853741228580474853515625">
        <ele>1966.199951171875</ele>
        <time>2026-06-15T14:17:30.000Z</time>
        <extensions>
          <ns3:TrackPointExtension>
            <ns3:atemp>19.0</ns3:atemp>
          </ns3:TrackPointExtension>
        </extensions>
      </trkpt>
      <trkpt lat="42.58527050726115703582763671875" lon="20.01337791793048381805419921875">
        <ele>1965</ele>
        <time>2026-06-15T14:17:31.000Z</time>
        <extensions>
          <ns3:TrackPointExtension>
            <ns3:atemp>19.0</ns3:atemp>
          </ns3:TrackPointExtension>
        </extensions>
      </trkpt>
      <trkpt lat="42.58529129438102245330810546875" lon="20.0133469887077808380126953125">
        <ele>1963.800048828125</ele>
        <time>2026-06-15T14:17:32.000Z</time>
        <extensions>
          <ns3:TrackPointExtension>
            <ns3:atemp>19.0</ns3:atemp>
          </ns3:TrackPointExtension>
        </extensions>
      </trkpt>
      <trkpt lat="42.58532733656466007232666015625" lon="20.01331555657088756561279296875">
        <ele>1962.199951171875</ele>
        <time>2026-06-15T14:17:33.000Z</time>
        <extensions>
          <ns3:TrackPointExtension>
            <ns3:atemp>19.0</ns3:atemp>
          </ns3:TrackPointExtension>
        </extensions>
      </trkpt>
      <trkpt lat="42.58536740206182003021240234375" lon="20.01329309307038784027099609375">
        <ele>1961</ele>
        <time>2026-06-15T14:17:34.000Z</time>
        <extensions>
          <ns3:TrackPointExtension>
            <ns3:atemp>19.0</ns3:atemp>
          </ns3:TrackPointExtension>
        </extensions>
      </trkpt>
      <trkpt lat="42.58541400544345378875732421875" lon="20.01327549107372760772705078125">
        <ele>1959.800048828125</ele>
        <time>2026-06-15T14:17:35.000Z</time>
        <extensions>
          <ns3:TrackPointExtension>
            <ns3:atemp>19.0</ns3:atemp>
          </ns3:TrackPointExtension>
        </extensions>
      </trkpt>
      <trkpt lat="42.58545071817934513092041015625" lon="20.0132668577134609222412109375">
        <ele>1958.5999755859375</ele>
        <time>2026-06-15T14:17:36.000Z</time>
        <extensions>
          <ns3:TrackPointExtension>
            <ns3:atemp>19.0</ns3:atemp>
          </ns3:TrackPointExtension>
        </extensions>
      </trkpt>
      <trkpt lat="42.5854767858982086181640625" lon="20.01327767036855220794677734375">
        <ele>1957.4000244140625</ele>
        <time>2026-06-15T14:17:37.000Z</time>
        <extensions>
          <ns3:TrackPointExtension>
            <ns3:atemp>19.0</ns3:atemp>
          </ns3:TrackPointExtension>
        </extensions>
      </trkpt>
      <trkpt lat="42.58549128659069538116455078125" lon="20.0132977031171321868896484375">
        <ele>1956.4000244140625</ele>
        <time>2026-06-15T14:17:38.000Z</time>
        <extensions>
          <ns3:TrackPointExtension>
            <ns3:atemp>19.0</ns3:atemp>
          </ns3:TrackPointExtension>
        </extensions>
      </trkpt>
      <trkpt lat="42.5855044461786746978759765625" lon="20.01330985687673091888427734375">
        <ele>1955.5999755859375</ele>
        <time>2026-06-15T14:17:39.000Z</time>
        <extensions>
          <ns3:TrackPointExtension>
            <ns3:atemp>19.0</ns3:atemp>
          </ns3:TrackPointExtension>
        </extensions>
      </trkpt>
      <trkpt lat="42.58552531711757183074951171875" lon="20.01331756822764873504638671875">
        <ele>1955</ele>
        <time>2026-06-15T14:17:40.000Z</time>
        <extensions>
          <ns3:TrackPointExtension>
            <ns3:atemp>19.0</ns3:atemp>
          </ns3:TrackPointExtension>
        </extensions>
      </trkpt>
      <trkpt lat="42.58555582724511623382568359375" lon="20.01332527957856655120849609375">
        <ele>1954.4000244140625</ele>
        <time>2026-06-15T14:17:41.000Z</time>
        <extensions>
          <ns3:TrackPointExtension>
            <ns3:atemp>19.0</ns3:atemp>
          </ns3:TrackPointExtension>
        </extensions>
      </trkpt>
      <trkpt lat="42.58560477755963802337646484375" lon="20.01332108862698078155517578125">
        <ele>1954</ele>
        <time>2026-06-15T14:17:42.000Z</time>
        <extensions>
          <ns3:TrackPointExtension>
            <ns3:atemp>19.0</ns3:atemp>
          </ns3:TrackPointExtension>
        </extensions>
      </trkpt>
      <trkpt lat="42.5856543146073818206787109375" lon="20.0133020617067813873291015625">
        <ele>1953</ele>
        <time>2026-06-15T14:17:43.000Z</time>
        <extensions>
          <ns3:TrackPointExtension>
            <ns3:atemp>19.0</ns3:atemp>
          </ns3:TrackPointExtension>
        </extensions>
      </trkpt>
      <trkpt lat="42.58570418693125247955322265625" lon="20.01329007558524608612060546875">
        <ele>1951.5999755859375</ele>
        <time>2026-06-15T14:17:44.000Z</time>
        <extensions>
          <ns3:TrackPointExtension>
            <ns3:atemp>19.0</ns3:atemp>
          </ns3:TrackPointExtension>
        </extensions>
      </trkpt>
      <trkpt lat="42.5857431627810001373291015625" lon="20.01329493708908557891845703125">
        <ele>1950.199951171875</ele>
        <time>2026-06-15T14:17:45.000Z</time>
        <extensions>
          <ns3:TrackPointExtension>
            <ns3:atemp>19.0</ns3:atemp>
          </ns3:TrackPointExtension>
        </extensions>
      </trkpt>
      <trkpt lat="42.585767805576324462890625" lon="20.01329996623098850250244140625">
        <ele>1948.800048828125</ele>
        <time>2026-06-15T14:17:46.000Z</time>
        <extensions>
          <ns3:TrackPointExtension>
            <ns3:atemp>19.0</ns3:atemp>
          </ns3:TrackPointExtension>
        </extensions>
      </trkpt>
      <trkpt lat="42.5857865810394287109375" lon="20.01331186853349208831787109375">
        <ele>1948</ele>
        <time>2026-06-15T14:17:47.000Z</time>
        <extensions>
          <ns3:TrackPointExtension>
            <ns3:atemp>19.0</ns3:atemp>
          </ns3:TrackPointExtension>
        </extensions>
      </trkpt>
      <trkpt lat="42.58579789660871028900146484375" lon="20.0133114494383335113525390625">
        <ele>1947.199951171875</ele>
        <time>2026-06-15T14:17:48.000Z</time>
        <extensions>
          <ns3:TrackPointExtension>
            <ns3:atemp>19.0</ns3:atemp>
          </ns3:TrackPointExtension>
        </extensions>
      </trkpt>
      <trkpt lat="42.58580476976931095123291015625" lon="20.01331488601863384246826171875">
        <ele>1946.199951171875</ele>
        <time>2026-06-15T14:17:49.000Z</time>
        <extensions>
          <ns3:TrackPointExtension>
            <ns3:atemp>19.0</ns3:atemp>
          </ns3:TrackPointExtension>
        </extensions>
      </trkpt>
      <trkpt lat="42.58580476976931095123291015625" lon="20.013314969837665557861328125">
        <ele>1945.199951171875</ele>
        <time>2026-06-15T14:17:50.000Z</time>
        <extensions>
          <ns3:TrackPointExtension>
            <ns3:atemp>19.0</ns3:atemp>
          </ns3:TrackPointExtension>
        </extensions>
      </trkpt>
      <trkpt lat="42.58580476976931095123291015625" lon="20.013314969837665557861328125">
        <ele>1944.5999755859375</ele>
        <time>2026-06-15T14:17:51.000Z</time>
        <extensions>
          <ns3:TrackPointExtension>
            <ns3:atemp>19.0</ns3:atemp>
          </ns3:TrackPointExtension>
        </extensions>
      </trkpt>
      <trkpt lat="42.5858196057379245758056640625" lon="20.0133285485208034515380859375">
        <ele>1944</ele>
        <time>2026-06-15T14:17:52.000Z</time>
        <extensions>
          <ns3:TrackPointExtension>
            <ns3:atemp>19.0</ns3:atemp>
          </ns3:TrackPointExtension>
        </extensions>
      </trkpt>
      <trkpt lat="42.585851959884166717529296875" lon="20.0133406184613704681396484375">
        <ele>1943.199951171875</ele>
        <time>2026-06-15T14:17:53.000Z</time>
        <extensions>
          <ns3:TrackPointExtension>
            <ns3:atemp>19.0</ns3:atemp>
          </ns3:TrackPointExtension>
        </extensions>
      </trkpt>
      <trkpt lat="42.58588087745010852813720703125" lon="20.01332963816821575164794921875">
        <ele>1942.4000244140625</ele>
        <time>2026-06-15T14:17:54.000Z</time>
        <extensions>
          <ns3:TrackPointExtension>
            <ns3:atemp>19.0</ns3:atemp>
          </ns3:TrackPointExtension>
        </extensions>
      </trkpt>
      <trkpt lat="42.5859034247696399688720703125" lon="20.01332796178758144378662109375">
        <ele>1941.5999755859375</ele>
        <time>2026-06-15T14:17:55.000Z</time>
        <extensions>
          <ns3:TrackPointExtension>
            <ns3:atemp>19.0</ns3:atemp>
          </ns3:TrackPointExtension>
        </extensions>
      </trkpt>
      <trkpt lat="42.58592412807047367095947265625" lon="20.01334388740360736846923828125">
        <ele>1940.5999755859375</ele>
        <time>2026-06-15T14:17:56.000Z</time>
        <extensions>
          <ns3:TrackPointExtension>
            <ns3:atemp>19.0</ns3:atemp>
          </ns3:TrackPointExtension>
        </extensions>
      </trkpt>
      <trkpt lat="42.58594625629484653472900390625" lon="20.0133500061929225921630859375">
        <ele>1939.800048828125</ele>
        <time>2026-06-15T14:17:57.000Z</time>
        <extensions>
          <ns3:TrackPointExtension>
            <ns3:atemp>19.0</ns3:atemp>
          </ns3:TrackPointExtension>
        </extensions>
      </trkpt>
      <trkpt lat="42.58597006089985370635986328125" lon="20.0133402831852436065673828125">
        <ele>1938.800048828125</ele>
        <time>2026-06-15T14:17:58.000Z</time>
        <extensions>
          <ns3:TrackPointExtension>
            <ns3:atemp>19.0</ns3:atemp>
          </ns3:TrackPointExtension>
        </extensions>
      </trkpt>
      <trkpt lat="42.585988752543926239013671875" lon="20.013325028121471405029296875">
        <ele>1938</ele>
        <time>2026-06-15T14:17:59.000Z</time>
        <extensions>
          <ns3:TrackPointExtension>
            <ns3:atemp>19.0</ns3:atemp>
          </ns3:TrackPointExtension>
        </extensions>
      </trkpt>
      <trkpt lat="42.58600853383541107177734375" lon="20.0133208371698856353759765625">
        <ele>1937</ele>
        <time>2026-06-15T14:18:00.000Z</time>
        <extensions>
          <ns3:TrackPointExtension>
            <ns3:atemp>19.0</ns3:atemp>
          </ns3:TrackPointExtension>
        </extensions>
      </trkpt>
      <trkpt lat="42.58602789603173732757568359375" lon="20.01332226209342479705810546875">
        <ele>1935.800048828125</ele>
        <time>2026-06-15T14:18:01.000Z</time>
        <extensions>
          <ns3:TrackPointExtension>
            <ns3:atemp>19.0</ns3:atemp>
          </ns3:TrackPointExtension>
        </extensions>
      </trkpt>
      <trkpt lat="42.58603912778198719024658203125" lon="20.013326369225978851318359375">
        <ele>1935</ele>
        <time>2026-06-15T14:18:02.000Z</time>
        <extensions>
          <ns3:TrackPointExtension>
            <ns3:atemp>19.0</ns3:atemp>
          </ns3:TrackPointExtension>
        </extensions>
      </trkpt>
      <trkpt lat="42.58604801259934902191162109375" lon="20.01332947053015232086181640625">
        <ele>1934.4000244140625</ele>
        <time>2026-06-15T14:18:03.000Z</time>
        <extensions>
          <ns3:TrackPointExtension>
            <ns3:atemp>19.0</ns3:atemp>
          </ns3:TrackPointExtension>
        </extensions>
      </trkpt>
      <trkpt lat="42.58606310002505779266357421875" lon="20.0133429653942584991455078125">
        <ele>1933.5999755859375</ele>
        <time>2026-06-15T14:18:04.000Z</time>
        <extensions>
          <ns3:TrackPointExtension>
            <ns3:atemp>19.0</ns3:atemp>
          </ns3:TrackPointExtension>
        </extensions>
      </trkpt>
      <trkpt lat="42.58609235286712646484375" lon="20.0133521854877471923828125">
        <ele>1933</ele>
        <time>2026-06-15T14:18:05.000Z</time>
        <extensions>
          <ns3:TrackPointExtension>
            <ns3:atemp>19.0</ns3:atemp>
          </ns3:TrackPointExtension>
        </extensions>
      </trkpt>
      <trkpt lat="42.5861151516437530517578125" lon="20.0133563764393329620361328125">
        <ele>1932.199951171875</ele>
        <time>2026-06-15T14:18:06.000Z</time>
        <extensions>
          <ns3:TrackPointExtension>
            <ns3:atemp>19.0</ns3:atemp>
          </ns3:TrackPointExtension>
        </extensions>
      </trkpt>
      <trkpt lat="42.58613702841103076934814453125" lon="20.01336215995252132415771484375">
        <ele>1931.5999755859375</ele>
        <time>2026-06-15T14:18:07.000Z</time>
        <extensions>
          <ns3:TrackPointExtension>
            <ns3:atemp>19.0</ns3:atemp>
          </ns3:TrackPointExtension>
        </extensions>
      </trkpt>
      <trkpt lat="42.58616267703473567962646484375" lon="20.0133644230663776397705078125">
        <ele>1931</ele>
        <time>2026-06-15T14:18:08.000Z</time>
        <extensions>
          <ns3:TrackPointExtension>
            <ns3:atemp>19.0</ns3:atemp>
          </ns3:TrackPointExtension>
        </extensions>
      </trkpt>
      <trkpt lat="42.5861669518053531646728515625" lon="20.01337154768407344818115234375">
        <ele>1930.4000244140625</ele>
        <time>2026-06-15T14:18:09.000Z</time>
        <extensions>
          <ns3:TrackPointExtension>
            <ns3:atemp>19.0</ns3:atemp>
          </ns3:TrackPointExtension>
        </extensions>
      </trkpt>
      <trkpt lat="42.586164437234401702880859375" lon="20.013370625674724578857421875">
        <ele>1930.199951171875</ele>
        <time>2026-06-15T14:18:10.000Z</time>
        <extensions>
          <ns3:TrackPointExtension>
            <ns3:atemp>19.0</ns3:atemp>
          </ns3:TrackPointExtension>
        </extensions>
      </trkpt>
      <trkpt lat="42.586164437234401702880859375" lon="20.013370625674724578857421875">
        <ele>1930</ele>
        <time>2026-06-15T14:18:11.000Z</time>
        <extensions>
          <ns3:TrackPointExtension>
            <ns3:atemp>19.0</ns3:atemp>
          </ns3:TrackPointExtension>
        </extensions>
      </trkpt>
      <trkpt lat="42.586164437234401702880859375" lon="20.013370625674724578857421875">
        <ele>1929.800048828125</ele>
        <time>2026-06-15T14:18:12.000Z</time>
        <extensions>
          <ns3:TrackPointExtension>
            <ns3:atemp>20.0</ns3:atemp>
          </ns3:TrackPointExtension>
        </extensions>
      </trkpt>
      <trkpt lat="42.586164437234401702880859375" lon="20.013370625674724578857421875">
        <ele>1929.800048828125</ele>
        <time>2026-06-15T14:18:13.000Z</time>
        <extensions>
          <ns3:TrackPointExtension>
            <ns3:atemp>20.0</ns3:atemp>
          </ns3:TrackPointExtension>
        </extensions>
      </trkpt>
      <trkpt lat="42.586164437234401702880859375" lon="20.013370625674724578857421875">
        <ele>1929.800048828125</ele>
        <time>2026-06-15T14:18:14.000Z</time>
        <extensions>
          <ns3:TrackPointExtension>
            <ns3:atemp>20.0</ns3:atemp>
          </ns3:TrackPointExtension>
        </extensions>
      </trkpt>
      <trkpt lat="42.586164437234401702880859375" lon="20.013370625674724578857421875">
        <ele>1929.5999755859375</ele>
        <time>2026-06-15T14:18:15.000Z</time>
        <extensions>
          <ns3:TrackPointExtension>
            <ns3:atemp>20.0</ns3:atemp>
          </ns3:TrackPointExtension>
        </extensions>
      </trkpt>
      <trkpt lat="42.586164437234401702880859375" lon="20.013370625674724578857421875">
        <ele>1929.5999755859375</ele>
        <time>2026-06-15T14:18:16.000Z</time>
        <extensions>
          <ns3:TrackPointExtension>
            <ns3:atemp>20.0</ns3:atemp>
          </ns3:TrackPointExtension>
        </extensions>
      </trkpt>
      <trkpt lat="42.586164437234401702880859375" lon="20.013370625674724578857421875">
        <ele>1929.4000244140625</ele>
        <time>2026-06-15T14:18:17.000Z</time>
        <extensions>
          <ns3:TrackPointExtension>
            <ns3:atemp>19.0</ns3:atemp>
          </ns3:TrackPointExtension>
        </extensions>
      </trkpt>
      <trkpt lat="42.586164437234401702880859375" lon="20.013370625674724578857421875">
        <ele>1929.199951171875</ele>
        <time>2026-06-15T14:18:18.000Z</time>
        <extensions>
          <ns3:TrackPointExtension>
            <ns3:atemp>19.0</ns3:atemp>
          </ns3:TrackPointExtension>
        </extensions>
      </trkpt>
      <trkpt lat="42.586164437234401702880859375" lon="20.013370625674724578857421875">
        <ele>1929.199951171875</ele>
        <time>2026-06-15T14:18:19.000Z</time>
        <extensions>
          <ns3:TrackPointExtension>
            <ns3:atemp>20.0</ns3:atemp>
          </ns3:TrackPointExtension>
        </extensions>
      </trkpt>
      <trkpt lat="42.586164437234401702880859375" lon="20.013370625674724578857421875">
        <ele>1929</ele>
        <time>2026-06-15T14:18:20.000Z</time>
        <extensions>
          <ns3:TrackPointExtension>
            <ns3:atemp>20.0</ns3:atemp>
          </ns3:TrackPointExtension>
        </extensions>
      </trkpt>
      <trkpt lat="42.586164437234401702880859375" lon="20.013370625674724578857421875">
        <ele>1929</ele>
        <time>2026-06-15T14:18:21.000Z</time>
        <extensions>
          <ns3:TrackPointExtension>
            <ns3:atemp>20.0</ns3:atemp>
          </ns3:TrackPointExtension>
        </extensions>
      </trkpt>
      <trkpt lat="42.586164437234401702880859375" lon="20.013370625674724578857421875">
        <ele>1928.800048828125</ele>
        <time>2026-06-15T14:18:22.000Z</time>
        <extensions>
          <ns3:TrackPointExtension>
            <ns3:atemp>20.0</ns3:atemp>
          </ns3:TrackPointExtension>
        </extensions>
      </trkpt>
      <trkpt lat="42.586164437234401702880859375" lon="20.013370625674724578857421875">
        <ele>1928.800048828125</ele>
        <time>2026-06-15T14:18:23.000Z</time>
        <extensions>
          <ns3:TrackPointExtension>
            <ns3:atemp>20.0</ns3:atemp>
          </ns3:TrackPointExtension>
        </extensions>
      </trkpt>
      <trkpt lat="42.586164437234401702880859375" lon="20.013370625674724578857421875">
        <ele>1928.800048828125</ele>
        <time>2026-06-15T14:18:24.000Z</time>
        <extensions>
          <ns3:TrackPointExtension>
            <ns3:atemp>20.0</ns3:atemp>
          </ns3:TrackPointExtension>
        </extensions>
      </trkpt>
      <trkpt lat="42.586164437234401702880859375" lon="20.013370625674724578857421875">
        <ele>1928.5999755859375</ele>
        <time>2026-06-15T14:18:25.000Z</time>
        <extensions>
          <ns3:TrackPointExtension>
            <ns3:atemp>20.0</ns3:atemp>
          </ns3:TrackPointExtension>
        </extensions>
      </trkpt>
      <trkpt lat="42.586164437234401702880859375" lon="20.013370625674724578857421875">
        <ele>1928.5999755859375</ele>
        <time>2026-06-15T14:18:26.000Z</time>
        <extensions>
          <ns3:TrackPointExtension>
            <ns3:atemp>20.0</ns3:atemp>
          </ns3:TrackPointExtension>
        </extensions>
      </trkpt>
      <trkpt lat="42.586164437234401702880859375" lon="20.013370625674724578857421875">
        <ele>1928.5999755859375</ele>
        <time>2026-06-15T14:18:27.000Z</time>
        <extensions>
          <ns3:TrackPointExtension>
            <ns3:atemp>20.0</ns3:atemp>
          </ns3:TrackPointExtension>
        </extensions>
      </trkpt>
      <trkpt lat="42.586164437234401702880859375" lon="20.013370625674724578857421875">
        <ele>1928.5999755859375</ele>
        <time>2026-06-15T14:18:28.000Z</time>
        <extensions>
          <ns3:TrackPointExtension>
            <ns3:atemp>20.0</ns3:atemp>
          </ns3:TrackPointExtension>
        </extensions>
      </trkpt>
      <trkpt lat="42.586164437234401702880859375" lon="20.013370625674724578857421875">
        <ele>1928.5999755859375</ele>
        <time>2026-06-15T14:18:29.000Z</time>
        <extensions>
          <ns3:TrackPointExtension>
            <ns3:atemp>20.0</ns3:atemp>
          </ns3:TrackPointExtension>
        </extensions>
      </trkpt>
      <trkpt lat="42.586164437234401702880859375" lon="20.013370625674724578857421875">
        <ele>1928.4000244140625</ele>
        <time>2026-06-15T14:18:30.000Z</time>
        <extensions>
          <ns3:TrackPointExtension>
            <ns3:atemp>20.0</ns3:atemp>
          </ns3:TrackPointExtension>
        </extensions>
      </trkpt>
      <trkpt lat="42.586164437234401702880859375" lon="20.013370625674724578857421875">
        <ele>1928.4000244140625</ele>
        <time>2026-06-15T14:18:31.000Z</time>
        <extensions>
          <ns3:TrackPointExtension>
            <ns3:atemp>19.0</ns3:atemp>
          </ns3:TrackPointExtension>
        </extensions>
      </trkpt>
      <trkpt lat="42.586164437234401702880859375" lon="20.013370625674724578857421875">
        <ele>1928.4000244140625</ele>
        <time>2026-06-15T14:18:32.000Z</time>
        <extensions>
          <ns3:TrackPointExtension>
            <ns3:atemp>19.0</ns3:atemp>
          </ns3:TrackPointExtension>
        </extensions>
      </trkpt>
      <trkpt lat="42.586164437234401702880859375" lon="20.013370625674724578857421875">
        <ele>1928.4000244140625</ele>
        <time>2026-06-15T14:18:33.000Z</time>
        <extensions>
          <ns3:TrackPointExtension>
            <ns3:atemp>19.0</ns3:atemp>
          </ns3:TrackPointExtension>
        </extensions>
      </trkpt>
      <trkpt lat="42.586164437234401702880859375" lon="20.013370625674724578857421875">
        <ele>1928.199951171875</ele>
        <time>2026-06-15T14:18:34.000Z</time>
        <extensions>
          <ns3:TrackPointExtension>
            <ns3:atemp>19.0</ns3:atemp>
          </ns3:TrackPointExtension>
        </extensions>
      </trkpt>
      <trkpt lat="42.586164437234401702880859375" lon="20.013370625674724578857421875">
        <ele>1928.199951171875</ele>
        <time>2026-06-15T14:18:35.000Z</time>
        <extensions>
          <ns3:TrackPointExtension>
            <ns3:atemp>19.0</ns3:atemp>
          </ns3:TrackPointExtension>
        </extensions>
      </trkpt>
      <trkpt lat="42.586164437234401702880859375" lon="20.013370625674724578857421875">
        <ele>1928.199951171875</ele>
        <time>2026-06-15T14:18:36.000Z</time>
        <extensions>
          <ns3:TrackPointExtension>
            <ns3:atemp>19.0</ns3:atemp>
          </ns3:TrackPointExtension>
        </extensions>
      </trkpt>
      <trkpt lat="42.586164437234401702880859375" lon="20.013370625674724578857421875">
        <ele>1928.199951171875</ele>
        <time>2026-06-15T14:18:37.000Z</time>
        <extensions>
          <ns3:TrackPointExtension>
            <ns3:atemp>19.0</ns3:atemp>
          </ns3:TrackPointExtension>
        </extensions>
      </trkpt>
      <trkpt lat="42.586164437234401702880859375" lon="20.013370625674724578857421875">
        <ele>1928.199951171875</ele>
        <time>2026-06-15T14:18:38.000Z</time>
        <extensions>
          <ns3:TrackPointExtension>
            <ns3:atemp>19.0</ns3:atemp>
          </ns3:TrackPointExtension>
        </extensions>
      </trkpt>
      <trkpt lat="42.586164437234401702880859375" lon="20.013370625674724578857421875">
        <ele>1928</ele>
        <time>2026-06-15T14:18:39.000Z</time>
        <extensions>
          <ns3:TrackPointExtension>
            <ns3:atemp>19.0</ns3:atemp>
          </ns3:TrackPointExtension>
        </extensions>
      </trkpt>
      <trkpt lat="42.586164437234401702880859375" lon="20.013370625674724578857421875">
        <ele>1928</ele>
        <time>2026-06-15T14:18:40.000Z</time>
        <extensions>
          <ns3:TrackPointExtension>
            <ns3:atemp>20.0</ns3:atemp>
          </ns3:TrackPointExtension>
        </extensions>
      </trkpt>
      <trkpt lat="42.586164437234401702880859375" lon="20.013370625674724578857421875">
        <ele>1928</ele>
        <time>2026-06-15T14:18:41.000Z</time>
        <extensions>
          <ns3:TrackPointExtension>
            <ns3:atemp>20.0</ns3:atemp>
          </ns3:TrackPointExtension>
        </extensions>
      </trkpt>
      <trkpt lat="42.586164437234401702880859375" lon="20.013370625674724578857421875">
        <ele>1928</ele>
        <time>2026-06-15T14:18:42.000Z</time>
        <extensions>
          <ns3:TrackPointExtension>
            <ns3:atemp>20.0</ns3:atemp>
          </ns3:TrackPointExtension>
        </extensions>
      </trkpt>
      <trkpt lat="42.586164437234401702880859375" lon="20.013370625674724578857421875">
        <ele>1928</ele>
        <time>2026-06-15T14:18:43.000Z</time>
        <extensions>
          <ns3:TrackPointExtension>
            <ns3:atemp>20.0</ns3:atemp>
          </ns3:TrackPointExtension>
        </extensions>
      </trkpt>
      <trkpt lat="42.586164437234401702880859375" lon="20.013370625674724578857421875">
        <ele>1927.800048828125</ele>
        <time>2026-06-15T14:18:44.000Z</time>
        <extensions>
          <ns3:TrackPointExtension>
            <ns3:atemp>20.0</ns3:atemp>
          </ns3:TrackPointExtension>
        </extensions>
      </trkpt>
      <trkpt lat="42.586164437234401702880859375" lon="20.013370625674724578857421875">
        <ele>1927.800048828125</ele>
        <time>2026-06-15T14:18:45.000Z</time>
        <extensions>
          <ns3:TrackPointExtension>
            <ns3:atemp>19.0</ns3:atemp>
          </ns3:TrackPointExtension>
        </extensions>
      </trkpt>
      <trkpt lat="42.586164437234401702880859375" lon="20.013370625674724578857421875">
        <ele>1927.800048828125</ele>
        <time>2026-06-15T14:18:46.000Z</time>
        <extensions>
          <ns3:TrackPointExtension>
            <ns3:atemp>20.0</ns3:atemp>
          </ns3:TrackPointExtension>
        </extensions>
      </trkpt>
      <trkpt lat="42.586164437234401702880859375" lon="20.013370625674724578857421875">
        <ele>1927.800048828125</ele>
        <time>2026-06-15T14:18:47.000Z</time>
        <extensions>
          <ns3:TrackPointExtension>
            <ns3:atemp>20.0</ns3:atemp>
          </ns3:TrackPointExtension>
        </extensions>
      </trkpt>
      <trkpt lat="42.586164437234401702880859375" lon="20.013370625674724578857421875">
        <ele>1927.5999755859375</ele>
        <time>2026-06-15T14:18:48.000Z</time>
        <extensions>
          <ns3:TrackPointExtension>
            <ns3:atemp>20.0</ns3:atemp>
          </ns3:TrackPointExtension>
        </extensions>
      </trkpt>
      <trkpt lat="42.586164437234401702880859375" lon="20.013370625674724578857421875">
        <ele>1927.5999755859375</ele>
        <time>2026-06-15T14:18:49.000Z</time>
        <extensions>
          <ns3:TrackPointExtension>
            <ns3:atemp>20.0</ns3:atemp>
          </ns3:TrackPointExtension>
        </extensions>
      </trkpt>
      <trkpt lat="42.586164437234401702880859375" lon="20.013370625674724578857421875">
        <ele>1927.5999755859375</ele>
        <time>2026-06-15T14:18:50.000Z</time>
        <extensions>
          <ns3:TrackPointExtension>
            <ns3:atemp>20.0</ns3:atemp>
          </ns3:TrackPointExtension>
        </extensions>
      </trkpt>
      <trkpt lat="42.586164437234401702880859375" lon="20.013370625674724578857421875">
        <ele>1927.5999755859375</ele>
        <time>2026-06-15T14:18:51.000Z</time>
        <extensions>
          <ns3:TrackPointExtension>
            <ns3:atemp>20.0</ns3:atemp>
          </ns3:TrackPointExtension>
        </extensions>
      </trkpt>
      <trkpt lat="42.586164437234401702880859375" lon="20.013370625674724578857421875">
        <ele>1927.5999755859375</ele>
        <time>2026-06-15T14:18:52.000Z</time>
        <extensions>
          <ns3:TrackPointExtension>
            <ns3:atemp>20.0</ns3:atemp>
          </ns3:TrackPointExtension>
        </extensions>
      </trkpt>
      <trkpt lat="42.586164437234401702880859375" lon="20.013370625674724578857421875">
        <ele>1927.4000244140625</ele>
        <time>2026-06-15T14:18:53.000Z</time>
        <extensions>
          <ns3:TrackPointExtension>
            <ns3:atemp>20.0</ns3:atemp>
          </ns3:TrackPointExtension>
        </extensions>
      </trkpt>
      <trkpt lat="42.586164437234401702880859375" lon="20.013370625674724578857421875">
        <ele>1927.4000244140625</ele>
        <time>2026-06-15T14:18:54.000Z</time>
        <extensions>
          <ns3:TrackPointExtension>
            <ns3:atemp>20.0</ns3:atemp>
          </ns3:TrackPointExtension>
        </extensions>
      </trkpt>
      <trkpt lat="42.586164437234401702880859375" lon="20.013370625674724578857421875">
        <ele>1927.4000244140625</ele>
        <time>2026-06-15T14:18:55.000Z</time>
        <extensions>
          <ns3:TrackPointExtension>
            <ns3:atemp>20.0</ns3:atemp>
          </ns3:TrackPointExtension>
        </extensions>
      </trkpt>
      <trkpt lat="42.586164437234401702880859375" lon="20.013370625674724578857421875">
        <ele>1927.4000244140625</ele>
        <time>2026-06-15T14:18:56.000Z</time>
        <extensions>
          <ns3:TrackPointExtension>
            <ns3:atemp>20.0</ns3:atemp>
          </ns3:TrackPointExtension>
        </extensions>
      </trkpt>
      <trkpt lat="42.586164437234401702880859375" lon="20.013370625674724578857421875">
        <ele>1927.199951171875</ele>
        <time>2026-06-15T14:18:57.000Z</time>
        <extensions>
          <ns3:TrackPointExtension>
            <ns3:atemp>20.0</ns3:atemp>
          </ns3:TrackPointExtension>
        </extensions>
      </trkpt>
      <trkpt lat="42.586164437234401702880859375" lon="20.013370625674724578857421875">
        <ele>1927.199951171875</ele>
        <time>2026-06-15T14:18:58.000Z</time>
        <extensions>
          <ns3:TrackPointExtension>
            <ns3:atemp>20.0</ns3:atemp>
          </ns3:TrackPointExtension>
        </extensions>
      </trkpt>
      <trkpt lat="42.586164437234401702880859375" lon="20.013370625674724578857421875">
        <ele>1927.199951171875</ele>
        <time>2026-06-15T14:18:59.000Z</time>
        <extensions>
          <ns3:TrackPointExtension>
            <ns3:atemp>20.0</ns3:atemp>
          </ns3:TrackPointExtension>
        </extensions>
      </trkpt>
      <trkpt lat="42.586164437234401702880859375" lon="20.013370625674724578857421875">
        <ele>1927.199951171875</ele>
        <time>2026-06-15T14:19:00.000Z</time>
        <extensions>
          <ns3:TrackPointExtension>
            <ns3:atemp>20.0</ns3:atemp>
          </ns3:TrackPointExtension>
        </extensions>
      </trkpt>
      <trkpt lat="42.586164437234401702880859375" lon="20.013370625674724578857421875">
        <ele>1927.199951171875</ele>
        <time>2026-06-15T14:19:01.000Z</time>
        <extensions>
          <ns3:TrackPointExtension>
            <ns3:atemp>20.0</ns3:atemp>
          </ns3:TrackPointExtension>
        </extensions>
      </trkpt>
      <trkpt lat="42.586164437234401702880859375" lon="20.013370625674724578857421875">
        <ele>1927.199951171875</ele>
        <time>2026-06-15T14:19:02.000Z</time>
        <extensions>
          <ns3:TrackPointExtension>
            <ns3:atemp>20.0</ns3:atemp>
          </ns3:TrackPointExtension>
        </extensions>
      </trkpt>
      <trkpt lat="42.586164437234401702880859375" lon="20.013370625674724578857421875">
        <ele>1927.199951171875</ele>
        <time>2026-06-15T14:19:03.000Z</time>
        <extensions>
          <ns3:TrackPointExtension>
            <ns3:atemp>20.0</ns3:atemp>
          </ns3:TrackPointExtension>
        </extensions>
      </trkpt>
      <trkpt lat="42.586164437234401702880859375" lon="20.013370625674724578857421875">
        <ele>1927.199951171875</ele>
        <time>2026-06-15T14:19:04.000Z</time>
        <extensions>
          <ns3:TrackPointExtension>
            <ns3:atemp>20.0</ns3:atemp>
          </ns3:TrackPointExtension>
        </extensions>
      </trkpt>
      <trkpt lat="42.586164437234401702880859375" lon="20.013370625674724578857421875">
        <ele>1927.199951171875</ele>
        <time>2026-06-15T14:19:05.000Z</time>
        <extensions>
          <ns3:TrackPointExtension>
            <ns3:atemp>20.0</ns3:atemp>
          </ns3:TrackPointExtension>
        </extensions>
      </trkpt>
      <trkpt lat="42.586164437234401702880859375" lon="20.013370625674724578857421875">
        <ele>1927.199951171875</ele>
        <time>2026-06-15T14:19:06.000Z</time>
        <extensions>
          <ns3:TrackPointExtension>
            <ns3:atemp>20.0</ns3:atemp>
          </ns3:TrackPointExtension>
        </extensions>
      </trkpt>
      <trkpt lat="42.586164437234401702880859375" lon="20.013370625674724578857421875">
        <ele>1927.199951171875</ele>
        <time>2026-06-15T14:19:07.000Z</time>
        <extensions>
          <ns3:TrackPointExtension>
            <ns3:atemp>20.0</ns3:atemp>
          </ns3:TrackPointExtension>
        </extensions>
      </trkpt>
      <trkpt lat="42.586164437234401702880859375" lon="20.013370625674724578857421875">
        <ele>1927.199951171875</ele>
        <time>2026-06-15T14:19:08.000Z</time>
        <extensions>
          <ns3:TrackPointExtension>
            <ns3:atemp>20.0</ns3:atemp>
          </ns3:TrackPointExtension>
        </extensions>
      </trkpt>
      <trkpt lat="42.586164437234401702880859375" lon="20.013370625674724578857421875">
        <ele>1927.199951171875</ele>
        <time>2026-06-15T14:19:09.000Z</time>
        <extensions>
          <ns3:TrackPointExtension>
            <ns3:atemp>20.0</ns3:atemp>
          </ns3:TrackPointExtension>
        </extensions>
      </trkpt>
      <trkpt lat="42.586164437234401702880859375" lon="20.013370625674724578857421875">
        <ele>1927.199951171875</ele>
        <time>2026-06-15T14:19:10.000Z</time>
        <extensions>
          <ns3:TrackPointExtension>
            <ns3:atemp>20.0</ns3:atemp>
          </ns3:TrackPointExtension>
        </extensions>
      </trkpt>
      <trkpt lat="42.586164437234401702880859375" lon="20.013370625674724578857421875">
        <ele>1927.199951171875</ele>
        <time>2026-06-15T14:19:11.000Z</time>
        <extensions>
          <ns3:TrackPointExtension>
            <ns3:atemp>20.0</ns3:atemp>
          </ns3:TrackPointExtension>
        </extensions>
      </trkpt>
      <trkpt lat="42.586164437234401702880859375" lon="20.013370625674724578857421875">
        <ele>1927.199951171875</ele>
        <time>2026-06-15T14:19:12.000Z</time>
        <extensions>
          <ns3:TrackPointExtension>
            <ns3:atemp>20.0</ns3:atemp>
          </ns3:TrackPointExtension>
        </extensions>
      </trkpt>
      <trkpt lat="42.586164437234401702880859375" lon="20.013370625674724578857421875">
        <ele>1927.199951171875</ele>
        <time>2026-06-15T14:19:13.000Z</time>
        <extensions>
          <ns3:TrackPointExtension>
            <ns3:atemp>20.0</ns3:atemp>
          </ns3:TrackPointExtension>
        </extensions>
      </trkpt>
      <trkpt lat="42.586164437234401702880859375" lon="20.013370625674724578857421875">
        <ele>1927.199951171875</ele>
        <time>2026-06-15T14:19:14.000Z</time>
        <extensions>
          <ns3:TrackPointExtension>
            <ns3:atemp>20.0</ns3:atemp>
          </ns3:TrackPointExtension>
        </extensions>
      </trkpt>
      <trkpt lat="42.586164437234401702880859375" lon="20.013370625674724578857421875">
        <ele>1927.199951171875</ele>
        <time>2026-06-15T14:19:15.000Z</time>
        <extensions>
          <ns3:TrackPointExtension>
            <ns3:atemp>20.0</ns3:atemp>
          </ns3:TrackPointExtension>
        </extensions>
      </trkpt>
      <trkpt lat="42.586164437234401702880859375" lon="20.013370625674724578857421875">
        <ele>1927.199951171875</ele>
        <time>2026-06-15T14:19:16.000Z</time>
        <extensions>
          <ns3:TrackPointExtension>
            <ns3:atemp>20.0</ns3:atemp>
          </ns3:TrackPointExtension>
        </extensions>
      </trkpt>
      <trkpt lat="42.586164437234401702880859375" lon="20.013370625674724578857421875">
        <ele>1927.199951171875</ele>
        <time>2026-06-15T14:19:17.000Z</time>
        <extensions>
          <ns3:TrackPointExtension>
            <ns3:atemp>20.0</ns3:atemp>
          </ns3:TrackPointExtension>
        </extensions>
      </trkpt>
      <trkpt lat="42.586164437234401702880859375" lon="20.013370625674724578857421875">
        <ele>1927.199951171875</ele>
        <time>2026-06-15T14:19:18.000Z</time>
        <extensions>
          <ns3:TrackPointExtension>
            <ns3:atemp>20.0</ns3:atemp>
          </ns3:TrackPointExtension>
        </extensions>
      </trkpt>
      <trkpt lat="42.586164437234401702880859375" lon="20.013370625674724578857421875">
        <ele>1927.199951171875</ele>
        <time>2026-06-15T14:19:19.000Z</time>
        <extensions>
          <ns3:TrackPointExtension>
            <ns3:atemp>20.0</ns3:atemp>
          </ns3:TrackPointExtension>
        </extensions>
      </trkpt>
      <trkpt lat="42.586164437234401702880859375" lon="20.013370625674724578857421875">
        <ele>1927.199951171875</ele>
        <time>2026-06-15T14:19:20.000Z</time>
        <extensions>
          <ns3:TrackPointExtension>
            <ns3:atemp>20.0</ns3:atemp>
          </ns3:TrackPointExtension>
        </extensions>
      </trkpt>
      <trkpt lat="42.586164437234401702880859375" lon="20.013370625674724578857421875">
        <ele>1927.199951171875</ele>
        <time>2026-06-15T14:19:21.000Z</time>
        <extensions>
          <ns3:TrackPointExtension>
            <ns3:atemp>20.0</ns3:atemp>
          </ns3:TrackPointExtension>
        </extensions>
      </trkpt>
      <trkpt lat="42.586164437234401702880859375" lon="20.013370625674724578857421875">
        <ele>1927.199951171875</ele>
        <time>2026-06-15T14:19:22.000Z</time>
        <extensions>
          <ns3:TrackPointExtension>
            <ns3:atemp>20.0</ns3:atemp>
          </ns3:TrackPointExtension>
        </extensions>
      </trkpt>
      <trkpt lat="42.586164437234401702880859375" lon="20.013370625674724578857421875">
        <ele>1927</ele>
        <time>2026-06-15T14:19:23.000Z</time>
        <extensions>
          <ns3:TrackPointExtension>
            <ns3:atemp>20.0</ns3:atemp>
          </ns3:TrackPointExtension>
        </extensions>
      </trkpt>
      <trkpt lat="42.586164437234401702880859375" lon="20.013370625674724578857421875">
        <ele>1927</ele>
        <time>2026-06-15T14:19:24.000Z</time>
        <extensions>
          <ns3:TrackPointExtension>
            <ns3:atemp>20.0</ns3:atemp>
          </ns3:TrackPointExtension>
        </extensions>
      </trkpt>
      <trkpt lat="42.586164437234401702880859375" lon="20.013370625674724578857421875">
        <ele>1927</ele>
        <time>2026-06-15T14:19:25.000Z</time>
        <extensions>
          <ns3:TrackPointExtension>
            <ns3:atemp>20.0</ns3:atemp>
          </ns3:TrackPointExtension>
        </extensions>
      </trkpt>
      <trkpt lat="42.586164437234401702880859375" lon="20.013370625674724578857421875">
        <ele>1927</ele>
        <time>2026-06-15T14:19:26.000Z</time>
        <extensions>
          <ns3:TrackPointExtension>
            <ns3:atemp>20.0</ns3:atemp>
          </ns3:TrackPointExtension>
        </extensions>
      </trkpt>
      <trkpt lat="42.586164437234401702880859375" lon="20.013370625674724578857421875">
        <ele>1927</ele>
        <time>2026-06-15T14:19:27.000Z</time>
        <extensions>
          <ns3:TrackPointExtension>
            <ns3:atemp>20.0</ns3:atemp>
          </ns3:TrackPointExtension>
        </extensions>
      </trkpt>
      <trkpt lat="42.586164437234401702880859375" lon="20.013370625674724578857421875">
        <ele>1927</ele>
        <time>2026-06-15T14:19:28.000Z</time>
        <extensions>
          <ns3:TrackPointExtension>
            <ns3:atemp>20.0</ns3:atemp>
          </ns3:TrackPointExtension>
        </extensions>
      </trkpt>
      <trkpt lat="42.586164437234401702880859375" lon="20.013370625674724578857421875">
        <ele>1927</ele>
        <time>2026-06-15T14:19:29.000Z</time>
        <extensions>
          <ns3:TrackPointExtension>
            <ns3:atemp>20.0</ns3:atemp>
          </ns3:TrackPointExtension>
        </extensions>
      </trkpt>
      <trkpt lat="42.586164437234401702880859375" lon="20.013370625674724578857421875">
        <ele>1927</ele>
        <time>2026-06-15T14:19:30.000Z</time>
        <extensions>
          <ns3:TrackPointExtension>
            <ns3:atemp>20.0</ns3:atemp>
          </ns3:TrackPointExtension>
        </extensions>
      </trkpt>
      <trkpt lat="42.586164437234401702880859375" lon="20.013370625674724578857421875">
        <ele>1927.199951171875</ele>
        <time>2026-06-15T14:19:31.000Z</time>
        <extensions>
          <ns3:TrackPointExtension>
            <ns3:atemp>20.0</ns3:atemp>
          </ns3:TrackPointExtension>
        </extensions>
      </trkpt>
      <trkpt lat="42.586164437234401702880859375" lon="20.013370625674724578857421875">
        <ele>1927.199951171875</ele>
        <time>2026-06-15T14:19:32.000Z</time>
        <extensions>
          <ns3:TrackPointExtension>
            <ns3:atemp>20.0</ns3:atemp>
          </ns3:TrackPointExtension>
        </extensions>
      </trkpt>
      <trkpt lat="42.586164437234401702880859375" lon="20.013370625674724578857421875">
        <ele>1927.199951171875</ele>
        <time>2026-06-15T14:19:33.000Z</time>
        <extensions>
          <ns3:TrackPointExtension>
            <ns3:atemp>20.0</ns3:atemp>
          </ns3:TrackPointExtension>
        </extensions>
      </trkpt>
      <trkpt lat="42.586164437234401702880859375" lon="20.013370625674724578857421875">
        <ele>1927.4000244140625</ele>
        <time>2026-06-15T14:19:34.000Z</time>
        <extensions>
          <ns3:TrackPointExtension>
            <ns3:atemp>20.0</ns3:atemp>
          </ns3:TrackPointExtension>
        </extensions>
      </trkpt>
      <trkpt lat="42.586164437234401702880859375" lon="20.013370625674724578857421875">
        <ele>1927.4000244140625</ele>
        <time>2026-06-15T14:19:35.000Z</time>
        <extensions>
          <ns3:TrackPointExtension>
            <ns3:atemp>20.0</ns3:atemp>
          </ns3:TrackPointExtension>
        </extensions>
      </trkpt>
      <trkpt lat="42.586164437234401702880859375" lon="20.013370625674724578857421875">
        <ele>1927.4000244140625</ele>
        <time>2026-06-15T14:19:36.000Z</time>
        <extensions>
          <ns3:TrackPointExtension>
            <ns3:atemp>20.0</ns3:atemp>
          </ns3:TrackPointExtension>
        </extensions>
      </trkpt>
      <trkpt lat="42.586164437234401702880859375" lon="20.013370625674724578857421875">
        <ele>1927.4000244140625</ele>
        <time>2026-06-15T14:19:37.000Z</time>
        <extensions>
          <ns3:TrackPointExtension>
            <ns3:atemp>20.0</ns3:atemp>
          </ns3:TrackPointExtension>
        </extensions>
      </trkpt>
      <trkpt lat="42.586164437234401702880859375" lon="20.013370625674724578857421875">
        <ele>1927.4000244140625</ele>
        <time>2026-06-15T14:19:38.000Z</time>
        <extensions>
          <ns3:TrackPointExtension>
            <ns3:atemp>20.0</ns3:atemp>
          </ns3:TrackPointExtension>
        </extensions>
      </trkpt>
      <trkpt lat="42.586164437234401702880859375" lon="20.013370625674724578857421875">
        <ele>1927.4000244140625</ele>
        <time>2026-06-15T14:19:39.000Z</time>
        <extensions>
          <ns3:TrackPointExtension>
            <ns3:atemp>20.0</ns3:atemp>
          </ns3:TrackPointExtension>
        </extensions>
      </trkpt>
      <trkpt lat="42.586164437234401702880859375" lon="20.013370625674724578857421875">
        <ele>1927.4000244140625</ele>
        <time>2026-06-15T14:19:40.000Z</time>
        <extensions>
          <ns3:TrackPointExtension>
            <ns3:atemp>20.0</ns3:atemp>
          </ns3:TrackPointExtension>
        </extensions>
      </trkpt>
      <trkpt lat="42.586164437234401702880859375" lon="20.013370625674724578857421875">
        <ele>1927.4000244140625</ele>
        <time>2026-06-15T14:19:41.000Z</time>
        <extensions>
          <ns3:TrackPointExtension>
            <ns3:atemp>20.0</ns3:atemp>
          </ns3:TrackPointExtension>
        </extensions>
      </trkpt>
      <trkpt lat="42.586164437234401702880859375" lon="20.013370625674724578857421875">
        <ele>1927.4000244140625</ele>
        <time>2026-06-15T14:19:42.000Z</time>
        <extensions>
          <ns3:TrackPointExtension>
            <ns3:atemp>20.0</ns3:atemp>
          </ns3:TrackPointExtension>
        </extensions>
      </trkpt>
      <trkpt lat="42.586164437234401702880859375" lon="20.013370625674724578857421875">
        <ele>1927.4000244140625</ele>
        <time>2026-06-15T14:19:43.000Z</time>
        <extensions>
          <ns3:TrackPointExtension>
            <ns3:atemp>20.0</ns3:atemp>
          </ns3:TrackPointExtension>
        </extensions>
      </trkpt>
      <trkpt lat="42.586164437234401702880859375" lon="20.013370625674724578857421875">
        <ele>1927.4000244140625</ele>
        <time>2026-06-15T14:19:44.000Z</time>
        <extensions>
          <ns3:TrackPointExtension>
            <ns3:atemp>20.0</ns3:atemp>
          </ns3:TrackPointExtension>
        </extensions>
      </trkpt>
      <trkpt lat="42.586164437234401702880859375" lon="20.013370625674724578857421875">
        <ele>1927.5999755859375</ele>
        <time>2026-06-15T14:19:45.000Z</time>
        <extensions>
          <ns3:TrackPointExtension>
            <ns3:atemp>20.0</ns3:atemp>
          </ns3:TrackPointExtension>
        </extensions>
      </trkpt>
      <trkpt lat="42.586164437234401702880859375" lon="20.013370625674724578857421875">
        <ele>1927.5999755859375</ele>
        <time>2026-06-15T14:19:46.000Z</time>
        <extensions>
          <ns3:TrackPointExtension>
            <ns3:atemp>20.0</ns3:atemp>
          </ns3:TrackPointExtension>
        </extensions>
      </trkpt>
      <trkpt lat="42.586164437234401702880859375" lon="20.013370625674724578857421875">
        <ele>1927.5999755859375</ele>
        <time>2026-06-15T14:19:47.000Z</time>
        <extensions>
          <ns3:TrackPointExtension>
            <ns3:atemp>20.0</ns3:atemp>
          </ns3:TrackPointExtension>
        </extensions>
      </trkpt>
      <trkpt lat="42.586164437234401702880859375" lon="20.013370625674724578857421875">
        <ele>1927.5999755859375</ele>
        <time>2026-06-15T14:19:48.000Z</time>
        <extensions>
          <ns3:TrackPointExtension>
            <ns3:atemp>20.0</ns3:atemp>
          </ns3:TrackPointExtension>
        </extensions>
      </trkpt>
      <trkpt lat="42.586164437234401702880859375" lon="20.013370625674724578857421875">
        <ele>1927.5999755859375</ele>
        <time>2026-06-15T14:19:49.000Z</time>
        <extensions>
          <ns3:TrackPointExtension>
            <ns3:atemp>20.0</ns3:atemp>
          </ns3:TrackPointExtension>
        </extensions>
      </trkpt>
      <trkpt lat="42.586164437234401702880859375" lon="20.013370625674724578857421875">
        <ele>1927.5999755859375</ele>
        <time>2026-06-15T14:19:50.000Z</time>
        <extensions>
          <ns3:TrackPointExtension>
            <ns3:atemp>20.0</ns3:atemp>
          </ns3:TrackPointExtension>
        </extensions>
      </trkpt>
      <trkpt lat="42.586164437234401702880859375" lon="20.013370625674724578857421875">
        <ele>1927.4000244140625</ele>
        <time>2026-06-15T14:19:51.000Z</time>
        <extensions>
          <ns3:TrackPointExtension>
            <ns3:atemp>20.0</ns3:atemp>
          </ns3:TrackPointExtension>
        </extensions>
      </trkpt>
      <trkpt lat="42.586164437234401702880859375" lon="20.013370625674724578857421875">
        <ele>1927.4000244140625</ele>
        <time>2026-06-15T14:19:52.000Z</time>
        <extensions>
          <ns3:TrackPointExtension>
            <ns3:atemp>20.0</ns3:atemp>
          </ns3:TrackPointExtension>
        </extensions>
      </trkpt>
      <trkpt lat="42.586164437234401702880859375" lon="20.013370625674724578857421875">
        <ele>1927.4000244140625</ele>
        <time>2026-06-15T14:19:53.000Z</time>
        <extensions>
          <ns3:TrackPointExtension>
            <ns3:atemp>20.0</ns3:atemp>
          </ns3:TrackPointExtension>
        </extensions>
      </trkpt>
      <trkpt lat="42.586164437234401702880859375" lon="20.013370625674724578857421875">
        <ele>1927.4000244140625</ele>
        <time>2026-06-15T14:19:54.000Z</time>
        <extensions>
          <ns3:TrackPointExtension>
            <ns3:atemp>20.0</ns3:atemp>
          </ns3:TrackPointExtension>
        </extensions>
      </trkpt>
      <trkpt lat="42.586164437234401702880859375" lon="20.013370625674724578857421875">
        <ele>1927.4000244140625</ele>
        <time>2026-06-15T14:19:55.000Z</time>
        <extensions>
          <ns3:TrackPointExtension>
            <ns3:atemp>20.0</ns3:atemp>
          </ns3:TrackPointExtension>
        </extensions>
      </trkpt>
      <trkpt lat="42.586164437234401702880859375" lon="20.013370625674724578857421875">
        <ele>1927.4000244140625</ele>
        <time>2026-06-15T14:19:56.000Z</time>
        <extensions>
          <ns3:TrackPointExtension>
            <ns3:atemp>20.0</ns3:atemp>
          </ns3:TrackPointExtension>
        </extensions>
      </trkpt>
      <trkpt lat="42.586164437234401702880859375" lon="20.013370625674724578857421875">
        <ele>1927.4000244140625</ele>
        <time>2026-06-15T14:19:57.000Z</time>
        <extensions>
          <ns3:TrackPointExtension>
            <ns3:atemp>20.0</ns3:atemp>
          </ns3:TrackPointExtension>
        </extensions>
      </trkpt>
      <trkpt lat="42.586164437234401702880859375" lon="20.013370625674724578857421875">
        <ele>1927.4000244140625</ele>
        <time>2026-06-15T14:19:58.000Z</time>
        <extensions>
          <ns3:TrackPointExtension>
            <ns3:atemp>20.0</ns3:atemp>
          </ns3:TrackPointExtension>
        </extensions>
      </trkpt>
      <trkpt lat="42.586164437234401702880859375" lon="20.013370625674724578857421875">
        <ele>1927.4000244140625</ele>
        <time>2026-06-15T14:19:59.000Z</time>
        <extensions>
          <ns3:TrackPointExtension>
            <ns3:atemp>20.0</ns3:atemp>
          </ns3:TrackPointExtension>
        </extensions>
      </trkpt>
      <trkpt lat="42.586164437234401702880859375" lon="20.013370625674724578857421875">
        <ele>1927.4000244140625</ele>
        <time>2026-06-15T14:20:00.000Z</time>
        <extensions>
          <ns3:TrackPointExtension>
            <ns3:atemp>20.0</ns3:atemp>
          </ns3:TrackPointExtension>
        </extensions>
      </trkpt>
      <trkpt lat="42.586164437234401702880859375" lon="20.013370625674724578857421875">
        <ele>1927.4000244140625</ele>
        <time>2026-06-15T14:20:01.000Z</time>
        <extensions>
          <ns3:TrackPointExtension>
            <ns3:atemp>20.0</ns3:atemp>
          </ns3:TrackPointExtension>
        </extensions>
      </trkpt>
      <trkpt lat="42.586164437234401702880859375" lon="20.013370625674724578857421875">
        <ele>1927.4000244140625</ele>
        <time>2026-06-15T14:20:02.000Z</time>
        <extensions>
          <ns3:TrackPointExtension>
            <ns3:atemp>20.0</ns3:atemp>
          </ns3:TrackPointExtension>
        </extensions>
      </trkpt>
      <trkpt lat="42.586164437234401702880859375" lon="20.013370625674724578857421875">
        <ele>1927.4000244140625</ele>
        <time>2026-06-15T14:20:03.000Z</time>
        <extensions>
          <ns3:TrackPointExtension>
            <ns3:atemp>20.0</ns3:atemp>
          </ns3:TrackPointExtension>
        </extensions>
      </trkpt>
      <trkpt lat="42.5861672870814800262451171875" lon="20.01337221823632717132568359375">
        <ele>1927.4000244140625</ele>
        <time>2026-06-15T14:20:04.000Z</time>
        <extensions>
          <ns3:TrackPointExtension>
            <ns3:atemp>20.0</ns3:atemp>
          </ns3:TrackPointExtension>
        </extensions>
      </trkpt>
      <trkpt lat="42.586164437234401702880859375" lon="20.013370625674724578857421875">
        <ele>1927.4000244140625</ele>
        <time>2026-06-15T14:20:05.000Z</time>
        <extensions>
          <ns3:TrackPointExtension>
            <ns3:atemp>20.0</ns3:atemp>
          </ns3:TrackPointExtension>
        </extensions>
      </trkpt>
      <trkpt lat="42.586164437234401702880859375" lon="20.013370625674724578857421875">
        <ele>1927.4000244140625</ele>
        <time>2026-06-15T14:20:06.000Z</time>
        <extensions>
          <ns3:TrackPointExtension>
            <ns3:atemp>20.0</ns3:atemp>
          </ns3:TrackPointExtension>
        </extensions>
      </trkpt>
      <trkpt lat="42.586164437234401702880859375" lon="20.013370625674724578857421875">
        <ele>1927.4000244140625</ele>
        <time>2026-06-15T14:20:07.000Z</time>
        <extensions>
          <ns3:TrackPointExtension>
            <ns3:atemp>20.0</ns3:atemp>
          </ns3:TrackPointExtension>
        </extensions>
      </trkpt>
      <trkpt lat="42.586164437234401702880859375" lon="20.013370625674724578857421875">
        <ele>1927.4000244140625</ele>
        <time>2026-06-15T14:20:08.000Z</time>
        <extensions>
          <ns3:TrackPointExtension>
            <ns3:atemp>20.0</ns3:atemp>
          </ns3:TrackPointExtension>
        </extensions>
      </trkpt>
      <trkpt lat="42.586164437234401702880859375" lon="20.013370625674724578857421875">
        <ele>1927.4000244140625</ele>
        <time>2026-06-15T14:20:09.000Z</time>
        <extensions>
          <ns3:TrackPointExtension>
            <ns3:atemp>20.0</ns3:atemp>
          </ns3:TrackPointExtension>
        </extensions>
      </trkpt>
      <trkpt lat="42.586164437234401702880859375" lon="20.013370625674724578857421875">
        <ele>1927.4000244140625</ele>
        <time>2026-06-15T14:20:10.000Z</time>
        <extensions>
          <ns3:TrackPointExtension>
            <ns3:atemp>20.0</ns3:atemp>
          </ns3:TrackPointExtension>
        </extensions>
      </trkpt>
      <trkpt lat="42.586164437234401702880859375" lon="20.013370625674724578857421875">
        <ele>1927.4000244140625</ele>
        <time>2026-06-15T14:20:11.000Z</time>
        <extensions>
          <ns3:TrackPointExtension>
            <ns3:atemp>20.0</ns3:atemp>
          </ns3:TrackPointExtension>
        </extensions>
      </trkpt>
      <trkpt lat="42.586164437234401702880859375" lon="20.013370625674724578857421875">
        <ele>1927.4000244140625</ele>
        <time>2026-06-15T14:20:12.000Z</time>
        <extensions>
          <ns3:TrackPointExtension>
            <ns3:atemp>20.0</ns3:atemp>
          </ns3:TrackPointExtension>
        </extensions>
      </trkpt>
      <trkpt lat="42.586164437234401702880859375" lon="20.013370625674724578857421875">
        <ele>1927.4000244140625</ele>
        <time>2026-06-15T14:20:13.000Z</time>
        <extensions>
          <ns3:TrackPointExtension>
            <ns3:atemp>20.0</ns3:atemp>
          </ns3:TrackPointExtension>
        </extensions>
      </trkpt>
      <trkpt lat="42.586164437234401702880859375" lon="20.013370625674724578857421875">
        <ele>1927.4000244140625</ele>
        <time>2026-06-15T14:20:14.000Z</time>
        <extensions>
          <ns3:TrackPointExtension>
            <ns3:atemp>20.0</ns3:atemp>
          </ns3:TrackPointExtension>
        </extensions>
      </trkpt>
      <trkpt lat="42.586164437234401702880859375" lon="20.013370625674724578857421875">
        <ele>1927.4000244140625</ele>
        <time>2026-06-15T14:20:15.000Z</time>
        <extensions>
          <ns3:TrackPointExtension>
            <ns3:atemp>20.0</ns3:atemp>
          </ns3:TrackPointExtension>
        </extensions>
      </trkpt>
      <trkpt lat="42.586164437234401702880859375" lon="20.013370625674724578857421875">
        <ele>1927.4000244140625</ele>
        <time>2026-06-15T14:20:16.000Z</time>
        <extensions>
          <ns3:TrackPointExtension>
            <ns3:atemp>20.0</ns3:atemp>
          </ns3:TrackPointExtension>
        </extensions>
      </trkpt>
      <trkpt lat="42.586164437234401702880859375" lon="20.013370625674724578857421875">
        <ele>1927.4000244140625</ele>
        <time>2026-06-15T14:20:17.000Z</time>
        <extensions>
          <ns3:TrackPointExtension>
            <ns3:atemp>20.0</ns3:atemp>
          </ns3:TrackPointExtension>
        </extensions>
      </trkpt>
      <trkpt lat="42.586164437234401702880859375" lon="20.013370625674724578857421875">
        <ele>1927.4000244140625</ele>
        <time>2026-06-15T14:20:18.000Z</time>
        <extensions>
          <ns3:TrackPointExtension>
            <ns3:atemp>20.0</ns3:atemp>
          </ns3:TrackPointExtension>
        </extensions>
      </trkpt>
      <trkpt lat="42.586164437234401702880859375" lon="20.013370625674724578857421875">
        <ele>1927.4000244140625</ele>
        <time>2026-06-15T14:20:19.000Z</time>
        <extensions>
          <ns3:TrackPointExtension>
            <ns3:atemp>20.0</ns3:atemp>
          </ns3:TrackPointExtension>
        </extensions>
      </trkpt>
      <trkpt lat="42.586164437234401702880859375" lon="20.013370625674724578857421875">
        <ele>1927.4000244140625</ele>
        <time>2026-06-15T14:20:20.000Z</time>
        <extensions>
          <ns3:TrackPointExtension>
            <ns3:atemp>20.0</ns3:atemp>
          </ns3:TrackPointExtension>
        </extensions>
      </trkpt>
      <trkpt lat="42.586164437234401702880859375" lon="20.013370625674724578857421875">
        <ele>1927.4000244140625</ele>
        <time>2026-06-15T14:20:21.000Z</time>
        <extensions>
          <ns3:TrackPointExtension>
            <ns3:atemp>20.0</ns3:atemp>
          </ns3:TrackPointExtension>
        </extensions>
      </trkpt>
      <trkpt lat="42.586164437234401702880859375" lon="20.013370625674724578857421875">
        <ele>1927.4000244140625</ele>
        <time>2026-06-15T14:20:22.000Z</time>
        <extensions>
          <ns3:TrackPointExtension>
            <ns3:atemp>20.0</ns3:atemp>
          </ns3:TrackPointExtension>
        </extensions>
      </trkpt>
      <trkpt lat="42.586164437234401702880859375" lon="20.013370625674724578857421875">
        <ele>1927.4000244140625</ele>
        <time>2026-06-15T14:20:23.000Z</time>
        <extensions>
          <ns3:TrackPointExtension>
            <ns3:atemp>20.0</ns3:atemp>
          </ns3:TrackPointExtension>
        </extensions>
      </trkpt>
      <trkpt lat="42.586164437234401702880859375" lon="20.013370625674724578857421875">
        <ele>1927.4000244140625</ele>
        <time>2026-06-15T14:20:24.000Z</time>
        <extensions>
          <ns3:TrackPointExtension>
            <ns3:atemp>20.0</ns3:atemp>
          </ns3:TrackPointExtension>
        </extensions>
      </trkpt>
      <trkpt lat="42.586164437234401702880859375" lon="20.013370625674724578857421875">
        <ele>1927.4000244140625</ele>
        <time>2026-06-15T14:20:25.000Z</time>
        <extensions>
          <ns3:TrackPointExtension>
            <ns3:atemp>20.0</ns3:atemp>
          </ns3:TrackPointExtension>
        </extensions>
      </trkpt>
      <trkpt lat="42.586164437234401702880859375" lon="20.013370625674724578857421875">
        <ele>1927.4000244140625</ele>
        <time>2026-06-15T14:20:26.000Z</time>
        <extensions>
          <ns3:TrackPointExtension>
            <ns3:atemp>20.0</ns3:atemp>
          </ns3:TrackPointExtension>
        </extensions>
      </trkpt>
      <trkpt lat="42.586164437234401702880859375" lon="20.013370625674724578857421875">
        <ele>1927.4000244140625</ele>
        <time>2026-06-15T14:20:27.000Z</time>
        <extensions>
          <ns3:TrackPointExtension>
            <ns3:atemp>20.0</ns3:atemp>
          </ns3:TrackPointExtension>
        </extensions>
      </trkpt>
      <trkpt lat="42.586164437234401702880859375" lon="20.013370625674724578857421875">
        <ele>1927.4000244140625</ele>
        <time>2026-06-15T14:20:28.000Z</time>
        <extensions>
          <ns3:TrackPointExtension>
            <ns3:atemp>20.0</ns3:atemp>
          </ns3:TrackPointExtension>
        </extensions>
      </trkpt>
      <trkpt lat="42.586164437234401702880859375" lon="20.013370625674724578857421875">
        <ele>1927.4000244140625</ele>
        <time>2026-06-15T14:20:29.000Z</time>
        <extensions>
          <ns3:TrackPointExtension>
            <ns3:atemp>20.0</ns3:atemp>
          </ns3:TrackPointExtension>
        </extensions>
      </trkpt>
      <trkpt lat="42.586164437234401702880859375" lon="20.013370625674724578857421875">
        <ele>1927.4000244140625</ele>
        <time>2026-06-15T14:20:30.000Z</time>
        <extensions>
          <ns3:TrackPointExtension>
            <ns3:atemp>20.0</ns3:atemp>
          </ns3:TrackPointExtension>
        </extensions>
      </trkpt>
      <trkpt lat="42.586164437234401702880859375" lon="20.013370625674724578857421875">
        <ele>1927.4000244140625</ele>
        <time>2026-06-15T14:20:31.000Z</time>
        <extensions>
          <ns3:TrackPointExtension>
            <ns3:atemp>20.0</ns3:atemp>
          </ns3:TrackPointExtension>
        </extensions>
      </trkpt>
      <trkpt lat="42.586164437234401702880859375" lon="20.013370625674724578857421875">
        <ele>1927.4000244140625</ele>
        <time>2026-06-15T14:20:32.000Z</time>
        <extensions>
          <ns3:TrackPointExtension>
            <ns3:atemp>20.0</ns3:atemp>
          </ns3:TrackPointExtension>
        </extensions>
      </trkpt>
      <trkpt lat="42.586164437234401702880859375" lon="20.013370625674724578857421875">
        <ele>1927.4000244140625</ele>
        <time>2026-06-15T14:20:33.000Z</time>
        <extensions>
          <ns3:TrackPointExtension>
            <ns3:atemp>20.0</ns3:atemp>
          </ns3:TrackPointExtension>
        </extensions>
      </trkpt>
      <trkpt lat="42.586164437234401702880859375" lon="20.013370625674724578857421875">
        <ele>1927.4000244140625</ele>
        <time>2026-06-15T14:20:34.000Z</time>
        <extensions>
          <ns3:TrackPointExtension>
            <ns3:atemp>20.0</ns3:atemp>
          </ns3:TrackPointExtension>
        </extensions>
      </trkpt>
      <trkpt lat="42.586164437234401702880859375" lon="20.013370625674724578857421875">
        <ele>1927.4000244140625</ele>
        <time>2026-06-15T14:20:35.000Z</time>
        <extensions>
          <ns3:TrackPointExtension>
            <ns3:atemp>20.0</ns3:atemp>
          </ns3:TrackPointExtension>
        </extensions>
      </trkpt>
      <trkpt lat="42.586164437234401702880859375" lon="20.013370625674724578857421875">
        <ele>1927.4000244140625</ele>
        <time>2026-06-15T14:20:36.000Z</time>
        <extensions>
          <ns3:TrackPointExtension>
            <ns3:atemp>20.0</ns3:atemp>
          </ns3:TrackPointExtension>
        </extensions>
      </trkpt>
      <trkpt lat="42.586164437234401702880859375" lon="20.013370625674724578857421875">
        <ele>1927.4000244140625</ele>
        <time>2026-06-15T14:20:37.000Z</time>
        <extensions>
          <ns3:TrackPointExtension>
            <ns3:atemp>20.0</ns3:atemp>
          </ns3:TrackPointExtension>
        </extensions>
      </trkpt>
      <trkpt lat="42.586164437234401702880859375" lon="20.013370625674724578857421875">
        <ele>1927.4000244140625</ele>
        <time>2026-06-15T14:20:38.000Z</time>
        <extensions>
          <ns3:TrackPointExtension>
            <ns3:atemp>20.0</ns3:atemp>
          </ns3:TrackPointExtension>
        </extensions>
      </trkpt>
      <trkpt lat="42.586164437234401702880859375" lon="20.013370625674724578857421875">
        <ele>1927.4000244140625</ele>
        <time>2026-06-15T14:20:39.000Z</time>
        <extensions>
          <ns3:TrackPointExtension>
            <ns3:atemp>20.0</ns3:atemp>
          </ns3:TrackPointExtension>
        </extensions>
      </trkpt>
      <trkpt lat="42.586164437234401702880859375" lon="20.013370625674724578857421875">
        <ele>1927.4000244140625</ele>
        <time>2026-06-15T14:20:40.000Z</time>
        <extensions>
          <ns3:TrackPointExtension>
            <ns3:atemp>20.0</ns3:atemp>
          </ns3:TrackPointExtension>
        </extensions>
      </trkpt>
      <trkpt lat="42.58617524988949298858642578125" lon="20.01337825320661067962646484375">
        <ele>1927.4000244140625</ele>
        <time>2026-06-15T14:20:41.000Z</time>
        <extensions>
          <ns3:TrackPointExtension>
            <ns3:atemp>20.0</ns3:atemp>
          </ns3:TrackPointExtension>
        </extensions>
      </trkpt>
      <trkpt lat="42.58618262596428394317626953125" lon="20.0133828632533550262451171875">
        <ele>1927.4000244140625</ele>
        <time>2026-06-15T14:20:42.000Z</time>
        <extensions>
          <ns3:TrackPointExtension>
            <ns3:atemp>20.0</ns3:atemp>
          </ns3:TrackPointExtension>
        </extensions>
      </trkpt>
      <trkpt lat="42.58618966676294803619384765625" lon="20.013372637331485748291015625">
        <ele>1927.4000244140625</ele>
        <time>2026-06-15T14:20:43.000Z</time>
        <extensions>
          <ns3:TrackPointExtension>
            <ns3:atemp>20.0</ns3:atemp>
          </ns3:TrackPointExtension>
        </extensions>
      </trkpt>
      <trkpt lat="42.5861897505819797515869140625" lon="20.01337238587439060211181640625">
        <ele>1927.4000244140625</ele>
        <time>2026-06-15T14:20:44.000Z</time>
        <extensions>
          <ns3:TrackPointExtension>
            <ns3:atemp>20.0</ns3:atemp>
          </ns3:TrackPointExtension>
        </extensions>
      </trkpt>
      <trkpt lat="42.586189918220043182373046875" lon="20.01337205059826374053955078125">
        <ele>1927.4000244140625</ele>
        <time>2026-06-15T14:20:45.000Z</time>
        <extensions>
          <ns3:TrackPointExtension>
            <ns3:atemp>20.0</ns3:atemp>
          </ns3:TrackPointExtension>
        </extensions>
      </trkpt>
      <trkpt lat="42.58620710112154483795166015625" lon="20.013370625674724578857421875">
        <ele>1927.4000244140625</ele>
        <time>2026-06-15T14:20:46.000Z</time>
        <extensions>
          <ns3:TrackPointExtension>
            <ns3:atemp>20.0</ns3:atemp>
          </ns3:TrackPointExtension>
        </extensions>
      </trkpt>
      <trkpt lat="42.58622646331787109375" lon="20.01336484216153621673583984375">
        <ele>1927.199951171875</ele>
        <time>2026-06-15T14:20:47.000Z</time>
        <extensions>
          <ns3:TrackPointExtension>
            <ns3:atemp>20.0</ns3:atemp>
          </ns3:TrackPointExtension>
        </extensions>
      </trkpt>
      <trkpt lat="42.5862464122474193572998046875" lon="20.013358891010284423828125">
        <ele>1927.199951171875</ele>
        <time>2026-06-15T14:20:48.000Z</time>
        <extensions>
          <ns3:TrackPointExtension>
            <ns3:atemp>20.0</ns3:atemp>
          </ns3:TrackPointExtension>
        </extensions>
      </trkpt>
      <trkpt lat="42.5862618349492549896240234375" lon="20.01336760818958282470703125">
        <ele>1927</ele>
        <time>2026-06-15T14:20:49.000Z</time>
        <extensions>
          <ns3:TrackPointExtension>
            <ns3:atemp>20.0</ns3:atemp>
          </ns3:TrackPointExtension>
        </extensions>
      </trkpt>
      <trkpt lat="42.58627499453723430633544921875" lon="20.01337976194918155670166015625">
        <ele>1926.800048828125</ele>
        <time>2026-06-15T14:20:50.000Z</time>
        <extensions>
          <ns3:TrackPointExtension>
            <ns3:atemp>20.0</ns3:atemp>
          </ns3:TrackPointExtension>
        </extensions>
      </trkpt>
      <trkpt lat="42.58629150688648223876953125" lon="20.01337808556854724884033203125">
        <ele>1926.4000244140625</ele>
        <time>2026-06-15T14:20:51.000Z</time>
        <extensions>
          <ns3:TrackPointExtension>
            <ns3:atemp>20.0</ns3:atemp>
          </ns3:TrackPointExtension>
        </extensions>
      </trkpt>
      <trkpt lat="42.5863044150173664093017578125" lon="20.01337322406470775604248046875">
        <ele>1926</ele>
        <time>2026-06-15T14:20:52.000Z</time>
        <extensions>
          <ns3:TrackPointExtension>
            <ns3:atemp>20.0</ns3:atemp>
          </ns3:TrackPointExtension>
        </extensions>
      </trkpt>
      <trkpt lat="42.5863245315849781036376953125" lon="20.0133694522082805633544921875">
        <ele>1925.5999755859375</ele>
        <time>2026-06-15T14:20:53.000Z</time>
        <extensions>
          <ns3:TrackPointExtension>
            <ns3:atemp>20.0</ns3:atemp>
          </ns3:TrackPointExtension>
        </extensions>
      </trkpt>
      <trkpt lat="42.5863500125706195831298828125" lon="20.01336769200861454010009765625">
        <ele>1925</ele>
        <time>2026-06-15T14:20:54.000Z</time>
        <extensions>
          <ns3:TrackPointExtension>
            <ns3:atemp>20.0</ns3:atemp>
          </ns3:TrackPointExtension>
        </extensions>
      </trkpt>
      <trkpt lat="42.5863768346607685089111328125" lon="20.01336065120995044708251953125">
        <ele>1924.4000244140625</ele>
        <time>2026-06-15T14:20:55.000Z</time>
        <extensions>
          <ns3:TrackPointExtension>
            <ns3:atemp>20.0</ns3:atemp>
          </ns3:TrackPointExtension>
        </extensions>
      </trkpt>
      <trkpt lat="42.5864190794527530670166015625" lon="20.01335293985903263092041015625">
        <ele>1923.5999755859375</ele>
        <time>2026-06-15T14:20:56.000Z</time>
        <extensions>
          <ns3:TrackPointExtension>
            <ns3:atemp>20.0</ns3:atemp>
          </ns3:TrackPointExtension>
        </extensions>
      </trkpt>
      <trkpt lat="42.5864516012370586395263671875" lon="20.01333919353783130645751953125">
        <ele>1922.800048828125</ele>
        <time>2026-06-15T14:20:57.000Z</time>
        <extensions>
          <ns3:TrackPointExtension>
            <ns3:atemp>20.0</ns3:atemp>
          </ns3:TrackPointExtension>
        </extensions>
      </trkpt>
      <trkpt lat="42.58647532202303409576416015625" lon="20.01330851577222347259521484375">
        <ele>1921.800048828125</ele>
        <time>2026-06-15T14:20:58.000Z</time>
        <extensions>
          <ns3:TrackPointExtension>
            <ns3:atemp>21.0</ns3:atemp>
          </ns3:TrackPointExtension>
        </extensions>
      </trkpt>
      <trkpt lat="42.5864998809993267059326171875" lon="20.01328186132013797760009765625">
        <ele>1920.800048828125</ele>
        <time>2026-06-15T14:20:59.000Z</time>
        <extensions>
          <ns3:TrackPointExtension>
            <ns3:atemp>21.0</ns3:atemp>
          </ns3:TrackPointExtension>
        </extensions>
      </trkpt>
      <trkpt lat="42.58651639334857463836669921875" lon="20.013239867985248565673828125">
        <ele>1920</ele>
        <time>2026-06-15T14:21:00.000Z</time>
        <extensions>
          <ns3:TrackPointExtension>
            <ns3:atemp>21.0</ns3:atemp>
          </ns3:TrackPointExtension>
        </extensions>
      </trkpt>
      <trkpt lat="42.58653516881167888641357421875" lon="20.0131910853087902069091796875">
        <ele>1919.199951171875</ele>
        <time>2026-06-15T14:21:01.000Z</time>
        <extensions>
          <ns3:TrackPointExtension>
            <ns3:atemp>21.0</ns3:atemp>
          </ns3:TrackPointExtension>
        </extensions>
      </trkpt>
      <trkpt lat="42.58654153905808925628662109375" lon="20.01312696374952793121337890625">
        <ele>1918.4000244140625</ele>
        <time>2026-06-15T14:21:02.000Z</time>
        <extensions>
          <ns3:TrackPointExtension>
            <ns3:atemp>21.0</ns3:atemp>
          </ns3:TrackPointExtension>
        </extensions>
      </trkpt>
      <trkpt lat="42.58655830286443233489990234375" lon="20.0130730681121349334716796875">
        <ele>1917.5999755859375</ele>
        <time>2026-06-15T14:21:03.000Z</time>
        <extensions>
          <ns3:TrackPointExtension>
            <ns3:atemp>21.0</ns3:atemp>
          </ns3:TrackPointExtension>
        </extensions>
      </trkpt>
      <trkpt lat="42.586564086377620697021484375" lon="20.01302294433116912841796875">
        <ele>1916.800048828125</ele>
        <time>2026-06-15T14:21:04.000Z</time>
        <extensions>
          <ns3:TrackPointExtension>
            <ns3:atemp>21.0</ns3:atemp>
          </ns3:TrackPointExtension>
        </extensions>
      </trkpt>
      <trkpt lat="42.586579509079456329345703125" lon="20.01296619884669780731201171875">
        <ele>1915.800048828125</ele>
        <time>2026-06-15T14:21:05.000Z</time>
        <extensions>
          <ns3:TrackPointExtension>
            <ns3:atemp>21.0</ns3:atemp>
          </ns3:TrackPointExtension>
        </extensions>
      </trkpt>
      <trkpt lat="42.58659836836159229278564453125" lon="20.0128960423171520233154296875">
        <ele>1914.800048828125</ele>
        <time>2026-06-15T14:21:06.000Z</time>
        <extensions>
          <ns3:TrackPointExtension>
            <ns3:atemp>21.0</ns3:atemp>
          </ns3:TrackPointExtension>
        </extensions>
      </trkpt>
      <trkpt lat="42.58661278523504734039306640625" lon="20.01284332014620304107666015625">
        <ele>1914.199951171875</ele>
        <time>2026-06-15T14:21:07.000Z</time>
        <extensions>
          <ns3:TrackPointExtension>
            <ns3:atemp>21.0</ns3:atemp>
          </ns3:TrackPointExtension>
        </extensions>
      </trkpt>
      <trkpt lat="42.5866132043302059173583984375" lon="20.01280576921999454498291015625">
        <ele>1913.5999755859375</ele>
        <time>2026-06-15T14:21:08.000Z</time>
        <extensions>
          <ns3:TrackPointExtension>
            <ns3:atemp>21.0</ns3:atemp>
          </ns3:TrackPointExtension>
        </extensions>
      </trkpt>
      <trkpt lat="42.5865994580090045928955078125" lon="20.01275195740163326263427734375">
        <ele>1912.800048828125</ele>
        <time>2026-06-15T14:21:09.000Z</time>
        <extensions>
          <ns3:TrackPointExtension>
            <ns3:atemp>21.0</ns3:atemp>
          </ns3:TrackPointExtension>
        </extensions>
      </trkpt>
      <trkpt lat="42.58660976774990558624267578125" lon="20.01272211782634258270263671875">
        <ele>1911.800048828125</ele>
        <time>2026-06-15T14:21:10.000Z</time>
        <extensions>
          <ns3:TrackPointExtension>
            <ns3:atemp>21.0</ns3:atemp>
          </ns3:TrackPointExtension>
        </extensions>
      </trkpt>
      <trkpt lat="42.5866296328604221343994140625" lon="20.0126875005662441253662109375">
        <ele>1911.199951171875</ele>
        <time>2026-06-15T14:21:11.000Z</time>
        <extensions>
          <ns3:TrackPointExtension>
            <ns3:atemp>21.0</ns3:atemp>
          </ns3:TrackPointExtension>
        </extensions>
      </trkpt>
      <trkpt lat="42.58665050379931926727294921875" lon="20.012645088136196136474609375">
        <ele>1910.5999755859375</ele>
        <time>2026-06-15T14:21:12.000Z</time>
        <extensions>
          <ns3:TrackPointExtension>
            <ns3:atemp>21.0</ns3:atemp>
          </ns3:TrackPointExtension>
        </extensions>
      </trkpt>
      <trkpt lat="42.58666693232953548431396484375" lon="20.012596137821674346923828125">
        <ele>1909.800048828125</ele>
        <time>2026-06-15T14:21:13.000Z</time>
        <extensions>
          <ns3:TrackPointExtension>
            <ns3:atemp>21.0</ns3:atemp>
          </ns3:TrackPointExtension>
        </extensions>
      </trkpt>
      <trkpt lat="42.58668218739330768585205078125" lon="20.01252732239663600921630859375">
        <ele>1909</ele>
        <time>2026-06-15T14:21:14.000Z</time>
        <extensions>
          <ns3:TrackPointExtension>
            <ns3:atemp>21.0</ns3:atemp>
          </ns3:TrackPointExtension>
        </extensions>
      </trkpt>
      <trkpt lat="42.58670129813253879547119140625" lon="20.01244761049747467041015625">
        <ele>1908.199951171875</ele>
        <time>2026-06-15T14:21:15.000Z</time>
        <extensions>
          <ns3:TrackPointExtension>
            <ns3:atemp>21.0</ns3:atemp>
          </ns3:TrackPointExtension>
        </extensions>
      </trkpt>
      <trkpt lat="42.58672392927110195159912109375" lon="20.0123659707605838775634765625">
        <ele>1907</ele>
        <time>2026-06-15T14:21:16.000Z</time>
        <extensions>
          <ns3:TrackPointExtension>
            <ns3:atemp>21.0</ns3:atemp>
          </ns3:TrackPointExtension>
        </extensions>
      </trkpt>
      <trkpt lat="42.58673868142068386077880859375" lon="20.01230134628713130950927734375">
        <ele>1906</ele>
        <time>2026-06-15T14:21:17.000Z</time>
        <extensions>
          <ns3:TrackPointExtension>
            <ns3:atemp>21.0</ns3:atemp>
          </ns3:TrackPointExtension>
        </extensions>
      </trkpt>
      <trkpt lat="42.5867550261318683624267578125" lon="20.012263543903827667236328125">
        <ele>1905.199951171875</ele>
        <time>2026-06-15T14:21:18.000Z</time>
        <extensions>
          <ns3:TrackPointExtension>
            <ns3:atemp>21.0</ns3:atemp>
          </ns3:TrackPointExtension>
        </extensions>
      </trkpt>
      <trkpt lat="42.5867754779756069183349609375" lon="20.01222875900566577911376953125">
        <ele>1904.4000244140625</ele>
        <time>2026-06-15T14:21:19.000Z</time>
        <extensions>
          <ns3:TrackPointExtension>
            <ns3:atemp>21.0</ns3:atemp>
          </ns3:TrackPointExtension>
        </extensions>
      </trkpt>
      <trkpt lat="42.58679031394422054290771484375" lon="20.012191794812679290771484375">
        <ele>1903.800048828125</ele>
        <time>2026-06-15T14:21:20.000Z</time>
        <extensions>
          <ns3:TrackPointExtension>
            <ns3:atemp>21.0</ns3:atemp>
          </ns3:TrackPointExtension>
        </extensions>
      </trkpt>
      <trkpt lat="42.58679333142936229705810546875" lon="20.01218433491885662078857421875">
        <ele>1903.199951171875</ele>
        <time>2026-06-15T14:21:21.000Z</time>
        <extensions>
          <ns3:TrackPointExtension>
            <ns3:atemp>21.0</ns3:atemp>
          </ns3:TrackPointExtension>
        </extensions>
      </trkpt>
      <trkpt lat="42.58679333142936229705810546875" lon="20.012184418737888336181640625">
        <ele>1902.5999755859375</ele>
        <time>2026-06-15T14:21:22.000Z</time>
        <extensions>
          <ns3:TrackPointExtension>
            <ns3:atemp>21.0</ns3:atemp>
          </ns3:TrackPointExtension>
        </extensions>
      </trkpt>
      <trkpt lat="42.58679333142936229705810546875" lon="20.012184418737888336181640625">
        <ele>1902.199951171875</ele>
        <time>2026-06-15T14:21:23.000Z</time>
        <extensions>
          <ns3:TrackPointExtension>
            <ns3:atemp>21.0</ns3:atemp>
          </ns3:TrackPointExtension>
        </extensions>
      </trkpt>
      <trkpt lat="42.58679333142936229705810546875" lon="20.012184418737888336181640625">
        <ele>1901.800048828125</ele>
        <time>2026-06-15T14:21:24.000Z</time>
        <extensions>
          <ns3:TrackPointExtension>
            <ns3:atemp>21.0</ns3:atemp>
          </ns3:TrackPointExtension>
        </extensions>
      </trkpt>
      <trkpt lat="42.58679333142936229705810546875" lon="20.012184418737888336181640625">
        <ele>1901.5999755859375</ele>
        <time>2026-06-15T14:21:25.000Z</time>
        <extensions>
          <ns3:TrackPointExtension>
            <ns3:atemp>21.0</ns3:atemp>
          </ns3:TrackPointExtension>
        </extensions>
      </trkpt>
      <trkpt lat="42.58679333142936229705810546875" lon="20.012184418737888336181640625">
        <ele>1901.5999755859375</ele>
        <time>2026-06-15T14:21:26.000Z</time>
        <extensions>
          <ns3:TrackPointExtension>
            <ns3:atemp>21.0</ns3:atemp>
          </ns3:TrackPointExtension>
        </extensions>
      </trkpt>
      <trkpt lat="42.58679333142936229705810546875" lon="20.012184418737888336181640625">
        <ele>1901.4000244140625</ele>
        <time>2026-06-15T14:21:27.000Z</time>
        <extensions>
          <ns3:TrackPointExtension>
            <ns3:atemp>21.0</ns3:atemp>
          </ns3:TrackPointExtension>
        </extensions>
      </trkpt>
      <trkpt lat="42.58679333142936229705810546875" lon="20.012184418737888336181640625">
        <ele>1901.4000244140625</ele>
        <time>2026-06-15T14:21:28.000Z</time>
        <extensions>
          <ns3:TrackPointExtension>
            <ns3:atemp>21.0</ns3:atemp>
          </ns3:TrackPointExtension>
        </extensions>
      </trkpt>
      <trkpt lat="42.58679333142936229705810546875" lon="20.012184418737888336181640625">
        <ele>1901.199951171875</ele>
        <time>2026-06-15T14:21:29.000Z</time>
        <extensions>
          <ns3:TrackPointExtension>
            <ns3:atemp>21.0</ns3:atemp>
          </ns3:TrackPointExtension>
        </extensions>
      </trkpt>
      <trkpt lat="42.58679333142936229705810546875" lon="20.012184418737888336181640625">
        <ele>1901.199951171875</ele>
        <time>2026-06-15T14:21:30.000Z</time>
        <extensions>
          <ns3:TrackPointExtension>
            <ns3:atemp>21.0</ns3:atemp>
          </ns3:TrackPointExtension>
        </extensions>
      </trkpt>
      <trkpt lat="42.58679333142936229705810546875" lon="20.012184418737888336181640625">
        <ele>1901</ele>
        <time>2026-06-15T14:21:31.000Z</time>
        <extensions>
          <ns3:TrackPointExtension>
            <ns3:atemp>21.0</ns3:atemp>
          </ns3:TrackPointExtension>
        </extensions>
      </trkpt>
      <trkpt lat="42.58679333142936229705810546875" lon="20.012184418737888336181640625">
        <ele>1901</ele>
        <time>2026-06-15T14:21:32.000Z</time>
        <extensions>
          <ns3:TrackPointExtension>
            <ns3:atemp>21.0</ns3:atemp>
          </ns3:TrackPointExtension>
        </extensions>
      </trkpt>
      <trkpt lat="42.58679333142936229705810546875" lon="20.012184418737888336181640625">
        <ele>1901</ele>
        <time>2026-06-15T14:21:33.000Z</time>
        <extensions>
          <ns3:TrackPointExtension>
            <ns3:atemp>21.0</ns3:atemp>
          </ns3:TrackPointExtension>
        </extensions>
      </trkpt>
      <trkpt lat="42.58679333142936229705810546875" lon="20.012184418737888336181640625">
        <ele>1901</ele>
        <time>2026-06-15T14:21:34.000Z</time>
        <extensions>
          <ns3:TrackPointExtension>
            <ns3:atemp>21.0</ns3:atemp>
          </ns3:TrackPointExtension>
        </extensions>
      </trkpt>
      <trkpt lat="42.58679333142936229705810546875" lon="20.012184418737888336181640625">
        <ele>1901</ele>
        <time>2026-06-15T14:21:35.000Z</time>
        <extensions>
          <ns3:TrackPointExtension>
            <ns3:atemp>21.0</ns3:atemp>
          </ns3:TrackPointExtension>
        </extensions>
      </trkpt>
      <trkpt lat="42.58679333142936229705810546875" lon="20.012184418737888336181640625">
        <ele>1901</ele>
        <time>2026-06-15T14:21:36.000Z</time>
        <extensions>
          <ns3:TrackPointExtension>
            <ns3:atemp>21.0</ns3:atemp>
          </ns3:TrackPointExtension>
        </extensions>
      </trkpt>
      <trkpt lat="42.58679333142936229705810546875" lon="20.012184418737888336181640625">
        <ele>1901</ele>
        <time>2026-06-15T14:21:37.000Z</time>
        <extensions>
          <ns3:TrackPointExtension>
            <ns3:atemp>21.0</ns3:atemp>
          </ns3:TrackPointExtension>
        </extensions>
      </trkpt>
      <trkpt lat="42.58679333142936229705810546875" lon="20.012184418737888336181640625">
        <ele>1901</ele>
        <time>2026-06-15T14:21:38.000Z</time>
        <extensions>
          <ns3:TrackPointExtension>
            <ns3:atemp>21.0</ns3:atemp>
          </ns3:TrackPointExtension>
        </extensions>
      </trkpt>
      <trkpt lat="42.58679333142936229705810546875" lon="20.012184418737888336181640625">
        <ele>1901</ele>
        <time>2026-06-15T14:21:39.000Z</time>
        <extensions>
          <ns3:TrackPointExtension>
            <ns3:atemp>21.0</ns3:atemp>
          </ns3:TrackPointExtension>
        </extensions>
      </trkpt>
      <trkpt lat="42.58679333142936229705810546875" lon="20.012184418737888336181640625">
        <ele>1901</ele>
        <time>2026-06-15T14:21:40.000Z</time>
        <extensions>
          <ns3:TrackPointExtension>
            <ns3:atemp>21.0</ns3:atemp>
          </ns3:TrackPointExtension>
        </extensions>
      </trkpt>
      <trkpt lat="42.58679333142936229705810546875" lon="20.012184418737888336181640625">
        <ele>1901</ele>
        <time>2026-06-15T14:21:41.000Z</time>
        <extensions>
          <ns3:TrackPointExtension>
            <ns3:atemp>21.0</ns3:atemp>
          </ns3:TrackPointExtension>
        </extensions>
      </trkpt>
      <trkpt lat="42.58679333142936229705810546875" lon="20.012184418737888336181640625">
        <ele>1901</ele>
        <time>2026-06-15T14:21:42.000Z</time>
        <extensions>
          <ns3:TrackPointExtension>
            <ns3:atemp>21.0</ns3:atemp>
          </ns3:TrackPointExtension>
        </extensions>
      </trkpt>
      <trkpt lat="42.58679333142936229705810546875" lon="20.012184418737888336181640625">
        <ele>1901</ele>
        <time>2026-06-15T14:21:43.000Z</time>
        <extensions>
          <ns3:TrackPointExtension>
            <ns3:atemp>21.0</ns3:atemp>
          </ns3:TrackPointExtension>
        </extensions>
      </trkpt>
      <trkpt lat="42.58679333142936229705810546875" lon="20.012184418737888336181640625">
        <ele>1900.800048828125</ele>
        <time>2026-06-15T14:21:44.000Z</time>
        <extensions>
          <ns3:TrackPointExtension>
            <ns3:atemp>21.0</ns3:atemp>
          </ns3:TrackPointExtension>
        </extensions>
      </trkpt>
      <trkpt lat="42.58679333142936229705810546875" lon="20.012184418737888336181640625">
        <ele>1901</ele>
        <time>2026-06-15T14:21:45.000Z</time>
        <extensions>
          <ns3:TrackPointExtension>
            <ns3:atemp>21.0</ns3:atemp>
          </ns3:TrackPointExtension>
        </extensions>
      </trkpt>
      <trkpt lat="42.58679333142936229705810546875" lon="20.012184418737888336181640625">
        <ele>1901</ele>
        <time>2026-06-15T14:21:46.000Z</time>
        <extensions>
          <ns3:TrackPointExtension>
            <ns3:atemp>21.0</ns3:atemp>
          </ns3:TrackPointExtension>
        </extensions>
      </trkpt>
      <trkpt lat="42.58679333142936229705810546875" lon="20.012184418737888336181640625">
        <ele>1901</ele>
        <time>2026-06-15T14:21:47.000Z</time>
        <extensions>
          <ns3:TrackPointExtension>
            <ns3:atemp>21.0</ns3:atemp>
          </ns3:TrackPointExtension>
        </extensions>
      </trkpt>
      <trkpt lat="42.58679333142936229705810546875" lon="20.012184418737888336181640625">
        <ele>1901</ele>
        <time>2026-06-15T14:21:48.000Z</time>
        <extensions>
          <ns3:TrackPointExtension>
            <ns3:atemp>21.0</ns3:atemp>
          </ns3:TrackPointExtension>
        </extensions>
      </trkpt>
      <trkpt lat="42.58679333142936229705810546875" lon="20.012184418737888336181640625">
        <ele>1901</ele>
        <time>2026-06-15T14:21:49.000Z</time>
        <extensions>
          <ns3:TrackPointExtension>
            <ns3:atemp>21.0</ns3:atemp>
          </ns3:TrackPointExtension>
        </extensions>
      </trkpt>
      <trkpt lat="42.58679333142936229705810546875" lon="20.012184418737888336181640625">
        <ele>1901</ele>
        <time>2026-06-15T14:21:50.000Z</time>
        <extensions>
          <ns3:TrackPointExtension>
            <ns3:atemp>21.0</ns3:atemp>
          </ns3:TrackPointExtension>
        </extensions>
      </trkpt>
      <trkpt lat="42.58679333142936229705810546875" lon="20.012184418737888336181640625">
        <ele>1901.199951171875</ele>
        <time>2026-06-15T14:21:51.000Z</time>
        <extensions>
          <ns3:TrackPointExtension>
            <ns3:atemp>21.0</ns3:atemp>
          </ns3:TrackPointExtension>
        </extensions>
      </trkpt>
      <trkpt lat="42.58679333142936229705810546875" lon="20.012184418737888336181640625">
        <ele>1901.199951171875</ele>
        <time>2026-06-15T14:21:52.000Z</time>
        <extensions>
          <ns3:TrackPointExtension>
            <ns3:atemp>21.0</ns3:atemp>
          </ns3:TrackPointExtension>
        </extensions>
      </trkpt>
      <trkpt lat="42.58679333142936229705810546875" lon="20.012184418737888336181640625">
        <ele>1901.199951171875</ele>
        <time>2026-06-15T14:21:53.000Z</time>
        <extensions>
          <ns3:TrackPointExtension>
            <ns3:atemp>21.0</ns3:atemp>
          </ns3:TrackPointExtension>
        </extensions>
      </trkpt>
      <trkpt lat="42.58679333142936229705810546875" lon="20.012184418737888336181640625">
        <ele>1901</ele>
        <time>2026-06-15T14:21:54.000Z</time>
        <extensions>
          <ns3:TrackPointExtension>
            <ns3:atemp>21.0</ns3:atemp>
          </ns3:TrackPointExtension>
        </extensions>
      </trkpt>
      <trkpt lat="42.58679333142936229705810546875" lon="20.012184418737888336181640625">
        <ele>1901</ele>
        <time>2026-06-15T14:21:55.000Z</time>
        <extensions>
          <ns3:TrackPointExtension>
            <ns3:atemp>21.0</ns3:atemp>
          </ns3:TrackPointExtension>
        </extensions>
      </trkpt>
      <trkpt lat="42.58679333142936229705810546875" lon="20.012184418737888336181640625">
        <ele>1901</ele>
        <time>2026-06-15T14:21:56.000Z</time>
        <extensions>
          <ns3:TrackPointExtension>
            <ns3:atemp>21.0</ns3:atemp>
          </ns3:TrackPointExtension>
        </extensions>
      </trkpt>
      <trkpt lat="42.58679333142936229705810546875" lon="20.012184418737888336181640625">
        <ele>1901</ele>
        <time>2026-06-15T14:21:57.000Z</time>
        <extensions>
          <ns3:TrackPointExtension>
            <ns3:atemp>21.0</ns3:atemp>
          </ns3:TrackPointExtension>
        </extensions>
      </trkpt>
      <trkpt lat="42.58679333142936229705810546875" lon="20.012184418737888336181640625">
        <ele>1900.800048828125</ele>
        <time>2026-06-15T14:21:58.000Z</time>
        <extensions>
          <ns3:TrackPointExtension>
            <ns3:atemp>21.0</ns3:atemp>
          </ns3:TrackPointExtension>
        </extensions>
      </trkpt>
      <trkpt lat="42.58679333142936229705810546875" lon="20.012184418737888336181640625">
        <ele>1900.800048828125</ele>
        <time>2026-06-15T14:21:59.000Z</time>
        <extensions>
          <ns3:TrackPointExtension>
            <ns3:atemp>21.0</ns3:atemp>
          </ns3:TrackPointExtension>
        </extensions>
      </trkpt>
      <trkpt lat="42.58679333142936229705810546875" lon="20.012184418737888336181640625">
        <ele>1900.800048828125</ele>
        <time>2026-06-15T14:22:00.000Z</time>
        <extensions>
          <ns3:TrackPointExtension>
            <ns3:atemp>21.0</ns3:atemp>
          </ns3:TrackPointExtension>
        </extensions>
      </trkpt>
      <trkpt lat="42.58679333142936229705810546875" lon="20.012184418737888336181640625">
        <ele>1900.800048828125</ele>
        <time>2026-06-15T14:22:01.000Z</time>
        <extensions>
          <ns3:TrackPointExtension>
            <ns3:atemp>21.0</ns3:atemp>
          </ns3:TrackPointExtension>
        </extensions>
      </trkpt>
      <trkpt lat="42.58679333142936229705810546875" lon="20.012184418737888336181640625">
        <ele>1900.5999755859375</ele>
        <time>2026-06-15T14:22:02.000Z</time>
        <extensions>
          <ns3:TrackPointExtension>
            <ns3:atemp>21.0</ns3:atemp>
          </ns3:TrackPointExtension>
        </extensions>
      </trkpt>
      <trkpt lat="42.58679333142936229705810546875" lon="20.012184418737888336181640625">
        <ele>1900.5999755859375</ele>
        <time>2026-06-15T14:22:03.000Z</time>
        <extensions>
          <ns3:TrackPointExtension>
            <ns3:atemp>21.0</ns3:atemp>
          </ns3:TrackPointExtension>
        </extensions>
      </trkpt>
      <trkpt lat="42.58679333142936229705810546875" lon="20.012184418737888336181640625">
        <ele>1900.5999755859375</ele>
        <time>2026-06-15T14:22:04.000Z</time>
        <extensions>
          <ns3:TrackPointExtension>
            <ns3:atemp>21.0</ns3:atemp>
          </ns3:TrackPointExtension>
        </extensions>
      </trkpt>
      <trkpt lat="42.58679333142936229705810546875" lon="20.012184418737888336181640625">
        <ele>1900.5999755859375</ele>
        <time>2026-06-15T14:22:05.000Z</time>
        <extensions>
          <ns3:TrackPointExtension>
            <ns3:atemp>21.0</ns3:atemp>
          </ns3:TrackPointExtension>
        </extensions>
      </trkpt>
      <trkpt lat="42.58679333142936229705810546875" lon="20.012184418737888336181640625">
        <ele>1900.4000244140625</ele>
        <time>2026-06-15T14:22:06.000Z</time>
        <extensions>
          <ns3:TrackPointExtension>
            <ns3:atemp>21.0</ns3:atemp>
          </ns3:TrackPointExtension>
        </extensions>
      </trkpt>
      <trkpt lat="42.58679333142936229705810546875" lon="20.012184418737888336181640625">
        <ele>1900.4000244140625</ele>
        <time>2026-06-15T14:22:07.000Z</time>
        <extensions>
          <ns3:TrackPointExtension>
            <ns3:atemp>21.0</ns3:atemp>
          </ns3:TrackPointExtension>
        </extensions>
      </trkpt>
      <trkpt lat="42.58679333142936229705810546875" lon="20.012184418737888336181640625">
        <ele>1900.4000244140625</ele>
        <time>2026-06-15T14:22:08.000Z</time>
        <extensions>
          <ns3:TrackPointExtension>
            <ns3:atemp>21.0</ns3:atemp>
          </ns3:TrackPointExtension>
        </extensions>
      </trkpt>
      <trkpt lat="42.58679333142936229705810546875" lon="20.012184418737888336181640625">
        <ele>1900.4000244140625</ele>
        <time>2026-06-15T14:22:09.000Z</time>
        <extensions>
          <ns3:TrackPointExtension>
            <ns3:atemp>21.0</ns3:atemp>
          </ns3:TrackPointExtension>
        </extensions>
      </trkpt>
      <trkpt lat="42.58679333142936229705810546875" lon="20.012184418737888336181640625">
        <ele>1900.4000244140625</ele>
        <time>2026-06-15T14:22:10.000Z</time>
        <extensions>
          <ns3:TrackPointExtension>
            <ns3:atemp>21.0</ns3:atemp>
          </ns3:TrackPointExtension>
        </extensions>
      </trkpt>
      <trkpt lat="42.58679333142936229705810546875" lon="20.012184418737888336181640625">
        <ele>1900.4000244140625</ele>
        <time>2026-06-15T14:22:11.000Z</time>
        <extensions>
          <ns3:TrackPointExtension>
            <ns3:atemp>21.0</ns3:atemp>
          </ns3:TrackPointExtension>
        </extensions>
      </trkpt>
      <trkpt lat="42.58679333142936229705810546875" lon="20.012184418737888336181640625">
        <ele>1900.4000244140625</ele>
        <time>2026-06-15T14:22:12.000Z</time>
        <extensions>
          <ns3:TrackPointExtension>
            <ns3:atemp>21.0</ns3:atemp>
          </ns3:TrackPointExtension>
        </extensions>
      </trkpt>
      <trkpt lat="42.58679333142936229705810546875" lon="20.012184418737888336181640625">
        <ele>1900.4000244140625</ele>
        <time>2026-06-15T14:22:13.000Z</time>
        <extensions>
          <ns3:TrackPointExtension>
            <ns3:atemp>21.0</ns3:atemp>
          </ns3:TrackPointExtension>
        </extensions>
      </trkpt>
      <trkpt lat="42.58679333142936229705810546875" lon="20.012184418737888336181640625">
        <ele>1900.4000244140625</ele>
        <time>2026-06-15T14:22:14.000Z</time>
        <extensions>
          <ns3:TrackPointExtension>
            <ns3:atemp>21.0</ns3:atemp>
          </ns3:TrackPointExtension>
        </extensions>
      </trkpt>
      <trkpt lat="42.58679333142936229705810546875" lon="20.012184418737888336181640625">
        <ele>1900.5999755859375</ele>
        <time>2026-06-15T14:22:15.000Z</time>
        <extensions>
          <ns3:TrackPointExtension>
            <ns3:atemp>21.0</ns3:atemp>
          </ns3:TrackPointExtension>
        </extensions>
      </trkpt>
      <trkpt lat="42.58679333142936229705810546875" lon="20.012184418737888336181640625">
        <ele>1900.5999755859375</ele>
        <time>2026-06-15T14:22:16.000Z</time>
        <extensions>
          <ns3:TrackPointExtension>
            <ns3:atemp>21.0</ns3:atemp>
          </ns3:TrackPointExtension>
        </extensions>
      </trkpt>
      <trkpt lat="42.58679333142936229705810546875" lon="20.012184418737888336181640625">
        <ele>1900.5999755859375</ele>
        <time>2026-06-15T14:22:17.000Z</time>
        <extensions>
          <ns3:TrackPointExtension>
            <ns3:atemp>21.0</ns3:atemp>
          </ns3:TrackPointExtension>
        </extensions>
      </trkpt>
      <trkpt lat="42.58679333142936229705810546875" lon="20.012184418737888336181640625">
        <ele>1900.5999755859375</ele>
        <time>2026-06-15T14:22:18.000Z</time>
        <extensions>
          <ns3:TrackPointExtension>
            <ns3:atemp>21.0</ns3:atemp>
          </ns3:TrackPointExtension>
        </extensions>
      </trkpt>
      <trkpt lat="42.58679333142936229705810546875" lon="20.012184418737888336181640625">
        <ele>1900.5999755859375</ele>
        <time>2026-06-15T14:22:19.000Z</time>
        <extensions>
          <ns3:TrackPointExtension>
            <ns3:atemp>21.0</ns3:atemp>
          </ns3:TrackPointExtension>
        </extensions>
      </trkpt>
      <trkpt lat="42.58679333142936229705810546875" lon="20.012184418737888336181640625">
        <ele>1900.5999755859375</ele>
        <time>2026-06-15T14:22:20.000Z</time>
        <extensions>
          <ns3:TrackPointExtension>
            <ns3:atemp>21.0</ns3:atemp>
          </ns3:TrackPointExtension>
        </extensions>
      </trkpt>
      <trkpt lat="42.58679333142936229705810546875" lon="20.012184418737888336181640625">
        <ele>1900.5999755859375</ele>
        <time>2026-06-15T14:22:21.000Z</time>
        <extensions>
          <ns3:TrackPointExtension>
            <ns3:atemp>21.0</ns3:atemp>
          </ns3:TrackPointExtension>
        </extensions>
      </trkpt>
      <trkpt lat="42.58679333142936229705810546875" lon="20.012184418737888336181640625">
        <ele>1900.5999755859375</ele>
        <time>2026-06-15T14:22:22.000Z</time>
        <extensions>
          <ns3:TrackPointExtension>
            <ns3:atemp>21.0</ns3:atemp>
          </ns3:TrackPointExtension>
        </extensions>
      </trkpt>
      <trkpt lat="42.58679333142936229705810546875" lon="20.012184418737888336181640625">
        <ele>1900.5999755859375</ele>
        <time>2026-06-15T14:22:23.000Z</time>
        <extensions>
          <ns3:TrackPointExtension>
            <ns3:atemp>21.0</ns3:atemp>
          </ns3:TrackPointExtension>
        </extensions>
      </trkpt>
      <trkpt lat="42.58679333142936229705810546875" lon="20.012184418737888336181640625">
        <ele>1900.5999755859375</ele>
        <time>2026-06-15T14:22:24.000Z</time>
        <extensions>
          <ns3:TrackPointExtension>
            <ns3:atemp>21.0</ns3:atemp>
          </ns3:TrackPointExtension>
        </extensions>
      </trkpt>
      <trkpt lat="42.58679333142936229705810546875" lon="20.012184418737888336181640625">
        <ele>1900.5999755859375</ele>
        <time>2026-06-15T14:22:25.000Z</time>
        <extensions>
          <ns3:TrackPointExtension>
            <ns3:atemp>21.0</ns3:atemp>
          </ns3:TrackPointExtension>
        </extensions>
      </trkpt>
      <trkpt lat="42.58679333142936229705810546875" lon="20.012184418737888336181640625">
        <ele>1900.5999755859375</ele>
        <time>2026-06-15T14:22:26.000Z</time>
        <extensions>
          <ns3:TrackPointExtension>
            <ns3:atemp>21.0</ns3:atemp>
          </ns3:TrackPointExtension>
        </extensions>
      </trkpt>
      <trkpt lat="42.58679333142936229705810546875" lon="20.012184418737888336181640625">
        <ele>1900.5999755859375</ele>
        <time>2026-06-15T14:22:27.000Z</time>
        <extensions>
          <ns3:TrackPointExtension>
            <ns3:atemp>21.0</ns3:atemp>
          </ns3:TrackPointExtension>
        </extensions>
      </trkpt>
      <trkpt lat="42.58679333142936229705810546875" lon="20.012184418737888336181640625">
        <ele>1900.5999755859375</ele>
        <time>2026-06-15T14:22:28.000Z</time>
        <extensions>
          <ns3:TrackPointExtension>
            <ns3:atemp>21.0</ns3:atemp>
          </ns3:TrackPointExtension>
        </extensions>
      </trkpt>
      <trkpt lat="42.58679333142936229705810546875" lon="20.012184418737888336181640625">
        <ele>1900.4000244140625</ele>
        <time>2026-06-15T14:22:29.000Z</time>
        <extensions>
          <ns3:TrackPointExtension>
            <ns3:atemp>21.0</ns3:atemp>
          </ns3:TrackPointExtension>
        </extensions>
      </trkpt>
      <trkpt lat="42.58679333142936229705810546875" lon="20.012184418737888336181640625">
        <ele>1900.4000244140625</ele>
        <time>2026-06-15T14:22:30.000Z</time>
        <extensions>
          <ns3:TrackPointExtension>
            <ns3:atemp>21.0</ns3:atemp>
          </ns3:TrackPointExtension>
        </extensions>
      </trkpt>
      <trkpt lat="42.58679333142936229705810546875" lon="20.012184418737888336181640625">
        <ele>1900.4000244140625</ele>
        <time>2026-06-15T14:22:31.000Z</time>
        <extensions>
          <ns3:TrackPointExtension>
            <ns3:atemp>21.0</ns3:atemp>
          </ns3:TrackPointExtension>
        </extensions>
      </trkpt>
      <trkpt lat="42.58679333142936229705810546875" lon="20.012184418737888336181640625">
        <ele>1900.4000244140625</ele>
        <time>2026-06-15T14:22:32.000Z</time>
        <extensions>
          <ns3:TrackPointExtension>
            <ns3:atemp>21.0</ns3:atemp>
          </ns3:TrackPointExtension>
        </extensions>
      </trkpt>
      <trkpt lat="42.58679333142936229705810546875" lon="20.012184418737888336181640625">
        <ele>1900.4000244140625</ele>
        <time>2026-06-15T14:22:33.000Z</time>
        <extensions>
          <ns3:TrackPointExtension>
            <ns3:atemp>21.0</ns3:atemp>
          </ns3:TrackPointExtension>
        </extensions>
      </trkpt>
      <trkpt lat="42.58679333142936229705810546875" lon="20.012184418737888336181640625">
        <ele>1900.4000244140625</ele>
        <time>2026-06-15T14:22:34.000Z</time>
        <extensions>
          <ns3:TrackPointExtension>
            <ns3:atemp>21.0</ns3:atemp>
          </ns3:TrackPointExtension>
        </extensions>
      </trkpt>
      <trkpt lat="42.58679333142936229705810546875" lon="20.012184418737888336181640625">
        <ele>1900.199951171875</ele>
        <time>2026-06-15T14:22:35.000Z</time>
        <extensions>
          <ns3:TrackPointExtension>
            <ns3:atemp>21.0</ns3:atemp>
          </ns3:TrackPointExtension>
        </extensions>
      </trkpt>
      <trkpt lat="42.58679333142936229705810546875" lon="20.012184418737888336181640625">
        <ele>1900.199951171875</ele>
        <time>2026-06-15T14:22:36.000Z</time>
        <extensions>
          <ns3:TrackPointExtension>
            <ns3:atemp>21.0</ns3:atemp>
          </ns3:TrackPointExtension>
        </extensions>
      </trkpt>
      <trkpt lat="42.58679333142936229705810546875" lon="20.012184418737888336181640625">
        <ele>1900.199951171875</ele>
        <time>2026-06-15T14:22:37.000Z</time>
        <extensions>
          <ns3:TrackPointExtension>
            <ns3:atemp>21.0</ns3:atemp>
          </ns3:TrackPointExtension>
        </extensions>
      </trkpt>
      <trkpt lat="42.58679333142936229705810546875" lon="20.012184418737888336181640625">
        <ele>1900.199951171875</ele>
        <time>2026-06-15T14:22:38.000Z</time>
        <extensions>
          <ns3:TrackPointExtension>
            <ns3:atemp>21.0</ns3:atemp>
          </ns3:TrackPointExtension>
        </extensions>
      </trkpt>
      <trkpt lat="42.58679333142936229705810546875" lon="20.012184418737888336181640625">
        <ele>1900.199951171875</ele>
        <time>2026-06-15T14:22:39.000Z</time>
        <extensions>
          <ns3:TrackPointExtension>
            <ns3:atemp>21.0</ns3:atemp>
          </ns3:TrackPointExtension>
        </extensions>
      </trkpt>
      <trkpt lat="42.58679333142936229705810546875" lon="20.012184418737888336181640625">
        <ele>1900</ele>
        <time>2026-06-15T14:22:40.000Z</time>
        <extensions>
          <ns3:TrackPointExtension>
            <ns3:atemp>21.0</ns3:atemp>
          </ns3:TrackPointExtension>
        </extensions>
      </trkpt>
      <trkpt lat="42.58679752238094806671142578125" lon="20.01216857694089412689208984375">
        <ele>1900</ele>
        <time>2026-06-15T14:22:41.000Z</time>
        <extensions>
          <ns3:TrackPointExtension>
            <ns3:atemp>21.0</ns3:atemp>
          </ns3:TrackPointExtension>
        </extensions>
      </trkpt>
      <trkpt lat="42.58680171333253383636474609375" lon="20.01214343123137950897216796875">
        <ele>1900</ele>
        <time>2026-06-15T14:22:42.000Z</time>
        <extensions>
          <ns3:TrackPointExtension>
            <ns3:atemp>21.0</ns3:atemp>
          </ns3:TrackPointExtension>
        </extensions>
      </trkpt>
      <trkpt lat="42.58680171333253383636474609375" lon="20.01214343123137950897216796875">
        <ele>1900</ele>
        <time>2026-06-15T14:22:43.000Z</time>
        <extensions>
          <ns3:TrackPointExtension>
            <ns3:atemp>21.0</ns3:atemp>
          </ns3:TrackPointExtension>
        </extensions>
      </trkpt>
      <trkpt lat="42.58680171333253383636474609375" lon="20.01214343123137950897216796875">
        <ele>1900</ele>
        <time>2026-06-15T14:22:44.000Z</time>
        <extensions>
          <ns3:TrackPointExtension>
            <ns3:atemp>21.0</ns3:atemp>
          </ns3:TrackPointExtension>
        </extensions>
      </trkpt>
      <trkpt lat="42.58680171333253383636474609375" lon="20.01214343123137950897216796875">
        <ele>1900</ele>
        <time>2026-06-15T14:22:45.000Z</time>
        <extensions>
          <ns3:TrackPointExtension>
            <ns3:atemp>21.0</ns3:atemp>
          </ns3:TrackPointExtension>
        </extensions>
      </trkpt>
      <trkpt lat="42.58680171333253383636474609375" lon="20.01214343123137950897216796875">
        <ele>1900</ele>
        <time>2026-06-15T14:22:46.000Z</time>
        <extensions>
          <ns3:TrackPointExtension>
            <ns3:atemp>21.0</ns3:atemp>
          </ns3:TrackPointExtension>
        </extensions>
      </trkpt>
      <trkpt lat="42.58680171333253383636474609375" lon="20.01214343123137950897216796875">
        <ele>1900</ele>
        <time>2026-06-15T14:22:47.000Z</time>
        <extensions>
          <ns3:TrackPointExtension>
            <ns3:atemp>21.0</ns3:atemp>
          </ns3:TrackPointExtension>
        </extensions>
      </trkpt>
      <trkpt lat="42.58680171333253383636474609375" lon="20.01214343123137950897216796875">
        <ele>1900</ele>
        <time>2026-06-15T14:22:48.000Z</time>
        <extensions>
          <ns3:TrackPointExtension>
            <ns3:atemp>21.0</ns3:atemp>
          </ns3:TrackPointExtension>
        </extensions>
      </trkpt>
      <trkpt lat="42.58680171333253383636474609375" lon="20.01214343123137950897216796875">
        <ele>1900</ele>
        <time>2026-06-15T14:22:49.000Z</time>
        <extensions>
          <ns3:TrackPointExtension>
            <ns3:atemp>21.0</ns3:atemp>
          </ns3:TrackPointExtension>
        </extensions>
      </trkpt>
      <trkpt lat="42.58680171333253383636474609375" lon="20.01214343123137950897216796875">
        <ele>1900</ele>
        <time>2026-06-15T14:22:50.000Z</time>
        <extensions>
          <ns3:TrackPointExtension>
            <ns3:atemp>21.0</ns3:atemp>
          </ns3:TrackPointExtension>
        </extensions>
      </trkpt>
      <trkpt lat="42.58680171333253383636474609375" lon="20.01214343123137950897216796875">
        <ele>1900</ele>
        <time>2026-06-15T14:22:51.000Z</time>
        <extensions>
          <ns3:TrackPointExtension>
            <ns3:atemp>21.0</ns3:atemp>
          </ns3:TrackPointExtension>
        </extensions>
      </trkpt>
      <trkpt lat="42.58680171333253383636474609375" lon="20.01214343123137950897216796875">
        <ele>1900</ele>
        <time>2026-06-15T14:22:52.000Z</time>
        <extensions>
          <ns3:TrackPointExtension>
            <ns3:atemp>21.0</ns3:atemp>
          </ns3:TrackPointExtension>
        </extensions>
      </trkpt>
      <trkpt lat="42.58680171333253383636474609375" lon="20.01214343123137950897216796875">
        <ele>1900.199951171875</ele>
        <time>2026-06-15T14:22:53.000Z</time>
        <extensions>
          <ns3:TrackPointExtension>
            <ns3:atemp>21.0</ns3:atemp>
          </ns3:TrackPointExtension>
        </extensions>
      </trkpt>
      <trkpt lat="42.58680171333253383636474609375" lon="20.01214343123137950897216796875">
        <ele>1900.199951171875</ele>
        <time>2026-06-15T14:22:54.000Z</time>
        <extensions>
          <ns3:TrackPointExtension>
            <ns3:atemp>21.0</ns3:atemp>
          </ns3:TrackPointExtension>
        </extensions>
      </trkpt>
      <trkpt lat="42.58680171333253383636474609375" lon="20.01214343123137950897216796875">
        <ele>1900</ele>
        <time>2026-06-15T14:22:55.000Z</time>
        <extensions>
          <ns3:TrackPointExtension>
            <ns3:atemp>21.0</ns3:atemp>
          </ns3:TrackPointExtension>
        </extensions>
      </trkpt>
      <trkpt lat="42.58680171333253383636474609375" lon="20.01214343123137950897216796875">
        <ele>1900</ele>
        <time>2026-06-15T14:22:56.000Z</time>
        <extensions>
          <ns3:TrackPointExtension>
            <ns3:atemp>21.0</ns3:atemp>
          </ns3:TrackPointExtension>
        </extensions>
      </trkpt>
      <trkpt lat="42.58680171333253383636474609375" lon="20.01214343123137950897216796875">
        <ele>1900</ele>
        <time>2026-06-15T14:22:57.000Z</time>
        <extensions>
          <ns3:TrackPointExtension>
            <ns3:atemp>21.0</ns3:atemp>
          </ns3:TrackPointExtension>
        </extensions>
      </trkpt>
      <trkpt lat="42.58680171333253383636474609375" lon="20.01214343123137950897216796875">
        <ele>1900</ele>
        <time>2026-06-15T14:22:58.000Z</time>
        <extensions>
          <ns3:TrackPointExtension>
            <ns3:atemp>21.0</ns3:atemp>
          </ns3:TrackPointExtension>
        </extensions>
      </trkpt>
      <trkpt lat="42.58680171333253383636474609375" lon="20.01214343123137950897216796875">
        <ele>1900</ele>
        <time>2026-06-15T14:22:59.000Z</time>
        <extensions>
          <ns3:TrackPointExtension>
            <ns3:atemp>21.0</ns3:atemp>
          </ns3:TrackPointExtension>
        </extensions>
      </trkpt>
      <trkpt lat="42.58680171333253383636474609375" lon="20.01214343123137950897216796875">
        <ele>1900</ele>
        <time>2026-06-15T14:23:00.000Z</time>
        <extensions>
          <ns3:TrackPointExtension>
            <ns3:atemp>21.0</ns3:atemp>
          </ns3:TrackPointExtension>
        </extensions>
      </trkpt>
      <trkpt lat="42.58680171333253383636474609375" lon="20.01214343123137950897216796875">
        <ele>1900.199951171875</ele>
        <time>2026-06-15T14:23:01.000Z</time>
        <extensions>
          <ns3:TrackPointExtension>
            <ns3:atemp>21.0</ns3:atemp>
          </ns3:TrackPointExtension>
        </extensions>
      </trkpt>
      <trkpt lat="42.58680171333253383636474609375" lon="20.01214343123137950897216796875">
        <ele>1900.199951171875</ele>
        <time>2026-06-15T14:23:02.000Z</time>
        <extensions>
          <ns3:TrackPointExtension>
            <ns3:atemp>21.0</ns3:atemp>
          </ns3:TrackPointExtension>
        </extensions>
      </trkpt>
      <trkpt lat="42.58680171333253383636474609375" lon="20.01214343123137950897216796875">
        <ele>1900.199951171875</ele>
        <time>2026-06-15T14:23:03.000Z</time>
        <extensions>
          <ns3:TrackPointExtension>
            <ns3:atemp>21.0</ns3:atemp>
          </ns3:TrackPointExtension>
        </extensions>
      </trkpt>
      <trkpt lat="42.58680171333253383636474609375" lon="20.01214343123137950897216796875">
        <ele>1900.199951171875</ele>
        <time>2026-06-15T14:23:04.000Z</time>
        <extensions>
          <ns3:TrackPointExtension>
            <ns3:atemp>21.0</ns3:atemp>
          </ns3:TrackPointExtension>
        </extensions>
      </trkpt>
      <trkpt lat="42.58680171333253383636474609375" lon="20.01214343123137950897216796875">
        <ele>1900</ele>
        <time>2026-06-15T14:23:05.000Z</time>
        <extensions>
          <ns3:TrackPointExtension>
            <ns3:atemp>21.0</ns3:atemp>
          </ns3:TrackPointExtension>
        </extensions>
      </trkpt>
      <trkpt lat="42.58680171333253383636474609375" lon="20.01214343123137950897216796875">
        <ele>1900</ele>
        <time>2026-06-15T14:23:06.000Z</time>
        <extensions>
          <ns3:TrackPointExtension>
            <ns3:atemp>21.0</ns3:atemp>
          </ns3:TrackPointExtension>
        </extensions>
      </trkpt>
      <trkpt lat="42.58680171333253383636474609375" lon="20.01214343123137950897216796875">
        <ele>1900</ele>
        <time>2026-06-15T14:23:07.000Z</time>
        <extensions>
          <ns3:TrackPointExtension>
            <ns3:atemp>21.0</ns3:atemp>
          </ns3:TrackPointExtension>
        </extensions>
      </trkpt>
      <trkpt lat="42.58680171333253383636474609375" lon="20.01214343123137950897216796875">
        <ele>1900</ele>
        <time>2026-06-15T14:23:08.000Z</time>
        <extensions>
          <ns3:TrackPointExtension>
            <ns3:atemp>21.0</ns3:atemp>
          </ns3:TrackPointExtension>
        </extensions>
      </trkpt>
      <trkpt lat="42.58680171333253383636474609375" lon="20.01214343123137950897216796875">
        <ele>1900</ele>
        <time>2026-06-15T14:23:09.000Z</time>
        <extensions>
          <ns3:TrackPointExtension>
            <ns3:atemp>21.0</ns3:atemp>
          </ns3:TrackPointExtension>
        </extensions>
      </trkpt>
      <trkpt lat="42.58680171333253383636474609375" lon="20.01214343123137950897216796875">
        <ele>1900</ele>
        <time>2026-06-15T14:23:10.000Z</time>
        <extensions>
          <ns3:TrackPointExtension>
            <ns3:atemp>21.0</ns3:atemp>
          </ns3:TrackPointExtension>
        </extensions>
      </trkpt>
      <trkpt lat="42.58680171333253383636474609375" lon="20.01214343123137950897216796875">
        <ele>1900</ele>
        <time>2026-06-15T14:23:11.000Z</time>
        <extensions>
          <ns3:TrackPointExtension>
            <ns3:atemp>21.0</ns3:atemp>
          </ns3:TrackPointExtension>
        </extensions>
      </trkpt>
      <trkpt lat="42.586800120770931243896484375" lon="20.012139491736888885498046875">
        <ele>1900</ele>
        <time>2026-06-15T14:23:12.000Z</time>
        <extensions>
          <ns3:TrackPointExtension>
            <ns3:atemp>21.0</ns3:atemp>
          </ns3:TrackPointExtension>
        </extensions>
      </trkpt>
      <trkpt lat="42.586806155741214752197265625" lon="20.012136138975620269775390625">
        <ele>1900</ele>
        <time>2026-06-15T14:23:13.000Z</time>
        <extensions>
          <ns3:TrackPointExtension>
            <ns3:atemp>21.0</ns3:atemp>
          </ns3:TrackPointExtension>
        </extensions>
      </trkpt>
      <trkpt lat="42.5868165493011474609375" lon="20.01213924027979373931884765625">
        <ele>1900</ele>
        <time>2026-06-15T14:23:14.000Z</time>
        <extensions>
          <ns3:TrackPointExtension>
            <ns3:atemp>21.0</ns3:atemp>
          </ns3:TrackPointExtension>
        </extensions>
      </trkpt>
      <trkpt lat="42.58682602085173130035400390625" lon="20.012144856154918670654296875">
        <ele>1900</ele>
        <time>2026-06-15T14:23:15.000Z</time>
        <extensions>
          <ns3:TrackPointExtension>
            <ns3:atemp>21.0</ns3:atemp>
          </ns3:TrackPointExtension>
        </extensions>
      </trkpt>
      <trkpt lat="42.58683574385941028594970703125" lon="20.012150220572948455810546875">
        <ele>1899.800048828125</ele>
        <time>2026-06-15T14:23:16.000Z</time>
        <extensions>
          <ns3:TrackPointExtension>
            <ns3:atemp>21.0</ns3:atemp>
          </ns3:TrackPointExtension>
        </extensions>
      </trkpt>
      <trkpt lat="42.58684672415256500244140625" lon="20.0121559202671051025390625">
        <ele>1899.800048828125</ele>
        <time>2026-06-15T14:23:17.000Z</time>
        <extensions>
          <ns3:TrackPointExtension>
            <ns3:atemp>21.0</ns3:atemp>
          </ns3:TrackPointExtension>
        </extensions>
      </trkpt>
      <trkpt lat="42.58685535751283168792724609375" lon="20.0121574290096759796142578125">
        <ele>1899.800048828125</ele>
        <time>2026-06-15T14:23:18.000Z</time>
        <extensions>
          <ns3:TrackPointExtension>
            <ns3:atemp>21.0</ns3:atemp>
          </ns3:TrackPointExtension>
        </extensions>
      </trkpt>
      <trkpt lat="42.58686290122568607330322265625" lon="20.01216103322803974151611328125">
        <ele>1899.5999755859375</ele>
        <time>2026-06-15T14:23:19.000Z</time>
        <extensions>
          <ns3:TrackPointExtension>
            <ns3:atemp>21.0</ns3:atemp>
          </ns3:TrackPointExtension>
        </extensions>
      </trkpt>
      <trkpt lat="42.58686306886374950408935546875" lon="20.012160949409008026123046875">
        <ele>1899.5999755859375</ele>
        <time>2026-06-15T14:23:20.000Z</time>
        <extensions>
          <ns3:TrackPointExtension>
            <ns3:atemp>21.0</ns3:atemp>
          </ns3:TrackPointExtension>
        </extensions>
      </trkpt>
      <trkpt lat="42.58686306886374950408935546875" lon="20.012160949409008026123046875">
        <ele>1899.5999755859375</ele>
        <time>2026-06-15T14:23:21.000Z</time>
        <extensions>
          <ns3:TrackPointExtension>
            <ns3:atemp>21.0</ns3:atemp>
          </ns3:TrackPointExtension>
        </extensions>
      </trkpt>
      <trkpt lat="42.58686306886374950408935546875" lon="20.012160949409008026123046875">
        <ele>1899.4000244140625</ele>
        <time>2026-06-15T14:23:22.000Z</time>
        <extensions>
          <ns3:TrackPointExtension>
            <ns3:atemp>21.0</ns3:atemp>
          </ns3:TrackPointExtension>
        </extensions>
      </trkpt>
      <trkpt lat="42.58686306886374950408935546875" lon="20.012160949409008026123046875">
        <ele>1899.4000244140625</ele>
        <time>2026-06-15T14:23:23.000Z</time>
        <extensions>
          <ns3:TrackPointExtension>
            <ns3:atemp>21.0</ns3:atemp>
          </ns3:TrackPointExtension>
        </extensions>
      </trkpt>
      <trkpt lat="42.58686306886374950408935546875" lon="20.012160949409008026123046875">
        <ele>1899.199951171875</ele>
        <time>2026-06-15T14:23:24.000Z</time>
        <extensions>
          <ns3:TrackPointExtension>
            <ns3:atemp>21.0</ns3:atemp>
          </ns3:TrackPointExtension>
        </extensions>
      </trkpt>
      <trkpt lat="42.58686306886374950408935546875" lon="20.012160949409008026123046875">
        <ele>1899</ele>
        <time>2026-06-15T14:23:25.000Z</time>
        <extensions>
          <ns3:TrackPointExtension>
            <ns3:atemp>21.0</ns3:atemp>
          </ns3:TrackPointExtension>
        </extensions>
      </trkpt>
      <trkpt lat="42.58686407469213008880615234375" lon="20.01216103322803974151611328125">
        <ele>1898.800048828125</ele>
        <time>2026-06-15T14:23:26.000Z</time>
        <extensions>
          <ns3:TrackPointExtension>
            <ns3:atemp>21.0</ns3:atemp>
          </ns3:TrackPointExtension>
        </extensions>
      </trkpt>
      <trkpt lat="42.58686306886374950408935546875" lon="20.012160949409008026123046875">
        <ele>1898.5999755859375</ele>
        <time>2026-06-15T14:23:27.000Z</time>
        <extensions>
          <ns3:TrackPointExtension>
            <ns3:atemp>21.0</ns3:atemp>
          </ns3:TrackPointExtension>
        </extensions>
      </trkpt>
      <trkpt lat="42.58687061257660388946533203125" lon="20.012162290513515472412109375">
        <ele>1898.5999755859375</ele>
        <time>2026-06-15T14:23:28.000Z</time>
        <extensions>
          <ns3:TrackPointExtension>
            <ns3:atemp>21.0</ns3:atemp>
          </ns3:TrackPointExtension>
        </extensions>
      </trkpt>
      <trkpt lat="42.58688234724104404449462890625" lon="20.0121644698083400726318359375">
        <ele>1898.4000244140625</ele>
        <time>2026-06-15T14:23:29.000Z</time>
        <extensions>
          <ns3:TrackPointExtension>
            <ns3:atemp>21.0</ns3:atemp>
          </ns3:TrackPointExtension>
        </extensions>
      </trkpt>
      <trkpt lat="42.58689760230481624603271484375" lon="20.01215449534356594085693359375">
        <ele>1898.4000244140625</ele>
        <time>2026-06-15T14:23:30.000Z</time>
        <extensions>
          <ns3:TrackPointExtension>
            <ns3:atemp>21.0</ns3:atemp>
          </ns3:TrackPointExtension>
        </extensions>
      </trkpt>
      <trkpt lat="42.58690749295055866241455078125" lon="20.012134797871112823486328125">
        <ele>1898.199951171875</ele>
        <time>2026-06-15T14:23:31.000Z</time>
        <extensions>
          <ns3:TrackPointExtension>
            <ns3:atemp>21.0</ns3:atemp>
          </ns3:TrackPointExtension>
        </extensions>
      </trkpt>
      <trkpt lat="42.58691336028277873992919921875" lon="20.01211124472320079803466796875">
        <ele>1898.199951171875</ele>
        <time>2026-06-15T14:23:32.000Z</time>
        <extensions>
          <ns3:TrackPointExtension>
            <ns3:atemp>21.0</ns3:atemp>
          </ns3:TrackPointExtension>
        </extensions>
      </trkpt>
      <trkpt lat="42.58692794479429721832275390625" lon="20.0120997615158557891845703125">
        <ele>1898</ele>
        <time>2026-06-15T14:23:33.000Z</time>
        <extensions>
          <ns3:TrackPointExtension>
            <ns3:atemp>21.0</ns3:atemp>
          </ns3:TrackPointExtension>
        </extensions>
      </trkpt>
      <trkpt lat="42.5869491510093212127685546875" lon="20.01208819448947906494140625">
        <ele>1897.800048828125</ele>
        <time>2026-06-15T14:23:34.000Z</time>
        <extensions>
          <ns3:TrackPointExtension>
            <ns3:atemp>21.0</ns3:atemp>
          </ns3:TrackPointExtension>
        </extensions>
      </trkpt>
      <trkpt lat="42.58697555400431156158447265625" lon="20.01207671128213405609130859375">
        <ele>1897.5999755859375</ele>
        <time>2026-06-15T14:23:35.000Z</time>
        <extensions>
          <ns3:TrackPointExtension>
            <ns3:atemp>21.0</ns3:atemp>
          </ns3:TrackPointExtension>
        </extensions>
      </trkpt>
      <trkpt lat="42.58700321428477764129638671875" lon="20.0120635516941547393798828125">
        <ele>1897.4000244140625</ele>
        <time>2026-06-15T14:23:36.000Z</time>
        <extensions>
          <ns3:TrackPointExtension>
            <ns3:atemp>21.0</ns3:atemp>
          </ns3:TrackPointExtension>
        </extensions>
      </trkpt>
      <trkpt lat="42.58702467195689678192138671875" lon="20.0120430998504161834716796875">
        <ele>1896.800048828125</ele>
        <time>2026-06-15T14:23:37.000Z</time>
        <extensions>
          <ns3:TrackPointExtension>
            <ns3:atemp>21.0</ns3:atemp>
          </ns3:TrackPointExtension>
        </extensions>
      </trkpt>
      <trkpt lat="42.58704386651515960693359375" lon="20.01201485283672809600830078125">
        <ele>1896.4000244140625</ele>
        <time>2026-06-15T14:23:38.000Z</time>
        <extensions>
          <ns3:TrackPointExtension>
            <ns3:atemp>21.0</ns3:atemp>
          </ns3:TrackPointExtension>
        </extensions>
      </trkpt>
      <trkpt lat="42.58706758730113506317138671875" lon="20.011988617479801177978515625">
        <ele>1895.800048828125</ele>
        <time>2026-06-15T14:23:39.000Z</time>
        <extensions>
          <ns3:TrackPointExtension>
            <ns3:atemp>21.0</ns3:atemp>
          </ns3:TrackPointExtension>
        </extensions>
      </trkpt>
      <trkpt lat="42.587087117135524749755859375" lon="20.0119520723819732666015625">
        <ele>1895.4000244140625</ele>
        <time>2026-06-15T14:23:40.000Z</time>
        <extensions>
          <ns3:TrackPointExtension>
            <ns3:atemp>21.0</ns3:atemp>
          </ns3:TrackPointExtension>
        </extensions>
      </trkpt>
      <trkpt lat="42.587105892598628997802734375" lon="20.01191577874124050140380859375">
        <ele>1894.800048828125</ele>
        <time>2026-06-15T14:23:41.000Z</time>
        <extensions>
          <ns3:TrackPointExtension>
            <ns3:atemp>21.0</ns3:atemp>
          </ns3:TrackPointExtension>
        </extensions>
      </trkpt>
      <trkpt lat="42.587127350270748138427734375" lon="20.01187772490084171295166015625">
        <ele>1894.4000244140625</ele>
        <time>2026-06-15T14:23:42.000Z</time>
        <extensions>
          <ns3:TrackPointExtension>
            <ns3:atemp>21.0</ns3:atemp>
          </ns3:TrackPointExtension>
        </extensions>
      </trkpt>
      <trkpt lat="42.587158866226673126220703125" lon="20.01183950342237949371337890625">
        <ele>1893.5999755859375</ele>
        <time>2026-06-15T14:23:43.000Z</time>
        <extensions>
          <ns3:TrackPointExtension>
            <ns3:atemp>21.0</ns3:atemp>
          </ns3:TrackPointExtension>
        </extensions>
      </trkpt>
      <trkpt lat="42.5871965847909450531005859375" lon="20.01179792918264865875244140625">
        <ele>1893</ele>
        <time>2026-06-15T14:23:44.000Z</time>
        <extensions>
          <ns3:TrackPointExtension>
            <ns3:atemp>21.0</ns3:atemp>
          </ns3:TrackPointExtension>
        </extensions>
      </trkpt>
      <trkpt lat="42.58722935803234577178955078125" lon="20.011759959161281585693359375">
        <ele>1892.4000244140625</ele>
        <time>2026-06-15T14:23:45.000Z</time>
        <extensions>
          <ns3:TrackPointExtension>
            <ns3:atemp>21.0</ns3:atemp>
          </ns3:TrackPointExtension>
        </extensions>
      </trkpt>
      <trkpt lat="42.58726439438760280609130859375" lon="20.011727772653102874755859375">
        <ele>1891.5999755859375</ele>
        <time>2026-06-15T14:23:46.000Z</time>
        <extensions>
          <ns3:TrackPointExtension>
            <ns3:atemp>21.0</ns3:atemp>
          </ns3:TrackPointExtension>
        </extensions>
      </trkpt>
      <trkpt lat="42.58729733526706695556640625" lon="20.01171343959867954254150390625">
        <ele>1891</ele>
        <time>2026-06-15T14:23:47.000Z</time>
        <extensions>
          <ns3:TrackPointExtension>
            <ns3:atemp>21.0</ns3:atemp>
          </ns3:TrackPointExtension>
        </extensions>
      </trkpt>
      <trkpt lat="42.58732072077691555023193359375" lon="20.01168510876595973968505859375">
        <ele>1890.4000244140625</ele>
        <time>2026-06-15T14:23:48.000Z</time>
        <extensions>
          <ns3:TrackPointExtension>
            <ns3:atemp>21.0</ns3:atemp>
          </ns3:TrackPointExtension>
        </extensions>
      </trkpt>
      <trkpt lat="42.5873323716223239898681640625" lon="20.01164085231721401214599609375">
        <ele>1889.4000244140625</ele>
        <time>2026-06-15T14:23:49.000Z</time>
        <extensions>
          <ns3:TrackPointExtension>
            <ns3:atemp>21.0</ns3:atemp>
          </ns3:TrackPointExtension>
        </extensions>
      </trkpt>
      <trkpt lat="42.58733178488910198211669921875" lon="20.01158670522272586822509765625">
        <ele>1888.4000244140625</ele>
        <time>2026-06-15T14:23:50.000Z</time>
        <extensions>
          <ns3:TrackPointExtension>
            <ns3:atemp>21.0</ns3:atemp>
          </ns3:TrackPointExtension>
        </extensions>
      </trkpt>
      <trkpt lat="42.58734201081097126007080078125" lon="20.01151395030319690704345703125">
        <ele>1887.5999755859375</ele>
        <time>2026-06-15T14:23:51.000Z</time>
        <extensions>
          <ns3:TrackPointExtension>
            <ns3:atemp>21.0</ns3:atemp>
          </ns3:TrackPointExtension>
        </extensions>
      </trkpt>
      <trkpt lat="42.58734720759093761444091796875" lon="20.01142744906246662139892578125">
        <ele>1886.5999755859375</ele>
        <time>2026-06-15T14:23:52.000Z</time>
        <extensions>
          <ns3:TrackPointExtension>
            <ns3:atemp>21.0</ns3:atemp>
          </ns3:TrackPointExtension>
        </extensions>
      </trkpt>
      <trkpt lat="42.5873374007642269134521484375" lon="20.01135905273258686065673828125">
        <ele>1885.4000244140625</ele>
        <time>2026-06-15T14:23:53.000Z</time>
        <extensions>
          <ns3:TrackPointExtension>
            <ns3:atemp>21.0</ns3:atemp>
          </ns3:TrackPointExtension>
        </extensions>
      </trkpt>
      <trkpt lat="42.58732021786272525787353515625" lon="20.0113225914537906646728515625">
        <ele>1884.199951171875</ele>
        <time>2026-06-15T14:23:54.000Z</time>
        <extensions>
          <ns3:TrackPointExtension>
            <ns3:atemp>21.0</ns3:atemp>
          </ns3:TrackPointExtension>
        </extensions>
      </trkpt>
      <trkpt lat="42.5873058848083019256591796875" lon="20.0112855434417724609375">
        <ele>1883</ele>
        <time>2026-06-15T14:23:55.000Z</time>
        <extensions>
          <ns3:TrackPointExtension>
            <ns3:atemp>21.0</ns3:atemp>
          </ns3:TrackPointExtension>
        </extensions>
      </trkpt>
      <trkpt lat="42.5873226486146450042724609375" lon="20.01124690286815166473388671875">
        <ele>1882</ele>
        <time>2026-06-15T14:23:56.000Z</time>
        <extensions>
          <ns3:TrackPointExtension>
            <ns3:atemp>21.0</ns3:atemp>
          </ns3:TrackPointExtension>
        </extensions>
      </trkpt>
      <trkpt lat="42.58733312599360942840576171875" lon="20.0111918337643146514892578125">
        <ele>1881.199951171875</ele>
        <time>2026-06-15T14:23:57.000Z</time>
        <extensions>
          <ns3:TrackPointExtension>
            <ns3:atemp>21.0</ns3:atemp>
          </ns3:TrackPointExtension>
        </extensions>
      </trkpt>
      <trkpt lat="42.58733580820262432098388671875" lon="20.01114129088819026947021484375">
        <ele>1880.5999755859375</ele>
        <time>2026-06-15T14:23:58.000Z</time>
        <extensions>
          <ns3:TrackPointExtension>
            <ns3:atemp>21.0</ns3:atemp>
          </ns3:TrackPointExtension>
        </extensions>
      </trkpt>
      <trkpt lat="42.58733513765037059783935546875" lon="20.011102817952632904052734375">
        <ele>1880</ele>
        <time>2026-06-15T14:23:59.000Z</time>
        <extensions>
          <ns3:TrackPointExtension>
            <ns3:atemp>21.0</ns3:atemp>
          </ns3:TrackPointExtension>
        </extensions>
      </trkpt>
      <trkpt lat="42.5873347185552120208740234375" lon="20.011065937578678131103515625">
        <ele>1879.4000244140625</ele>
        <time>2026-06-15T14:24:00.000Z</time>
        <extensions>
          <ns3:TrackPointExtension>
            <ns3:atemp>21.0</ns3:atemp>
          </ns3:TrackPointExtension>
        </extensions>
      </trkpt>
      <trkpt lat="42.58733379654586315155029296875" lon="20.01102008856832981109619140625">
        <ele>1879</ele>
        <time>2026-06-15T14:24:01.000Z</time>
        <extensions>
          <ns3:TrackPointExtension>
            <ns3:atemp>21.0</ns3:atemp>
          </ns3:TrackPointExtension>
        </extensions>
      </trkpt>
      <trkpt lat="42.5873340480029582977294921875" lon="20.01097398810088634490966796875">
        <ele>1878.800048828125</ele>
        <time>2026-06-15T14:24:02.000Z</time>
        <extensions>
          <ns3:TrackPointExtension>
            <ns3:atemp>21.0</ns3:atemp>
          </ns3:TrackPointExtension>
        </extensions>
      </trkpt>
      <trkpt lat="42.58733815513551235198974609375" lon="20.01092218793928623199462890625">
        <ele>1878.5999755859375</ele>
        <time>2026-06-15T14:24:03.000Z</time>
        <extensions>
          <ns3:TrackPointExtension>
            <ns3:atemp>21.0</ns3:atemp>
          </ns3:TrackPointExtension>
        </extensions>
      </trkpt>
      <trkpt lat="42.58733647875487804412841796875" lon="20.0108657777309417724609375">
        <ele>1878.5999755859375</ele>
        <time>2026-06-15T14:24:04.000Z</time>
        <extensions>
          <ns3:TrackPointExtension>
            <ns3:atemp>21.0</ns3:atemp>
          </ns3:TrackPointExtension>
        </extensions>
      </trkpt>
      <trkpt lat="42.58733932860195636749267578125" lon="20.01080299727618694305419921875">
        <ele>1878.4000244140625</ele>
        <time>2026-06-15T14:24:05.000Z</time>
        <extensions>
          <ns3:TrackPointExtension>
            <ns3:atemp>21.0</ns3:atemp>
          </ns3:TrackPointExtension>
        </extensions>
      </trkpt>
      <trkpt lat="42.58734821341931819915771484375" lon="20.0107388757169246673583984375">
        <ele>1878.4000244140625</ele>
        <time>2026-06-15T14:24:06.000Z</time>
        <extensions>
          <ns3:TrackPointExtension>
            <ns3:atemp>21.0</ns3:atemp>
          </ns3:TrackPointExtension>
        </extensions>
      </trkpt>
      <trkpt lat="42.58736799471080303192138671875" lon="20.01068598590791225433349609375">
        <ele>1878.199951171875</ele>
        <time>2026-06-15T14:24:07.000Z</time>
        <extensions>
          <ns3:TrackPointExtension>
            <ns3:atemp>21.0</ns3:atemp>
          </ns3:TrackPointExtension>
        </extensions>
      </trkpt>
      <trkpt lat="42.58739112876355648040771484375" lon="20.0106324255466461181640625">
        <ele>1878.199951171875</ele>
        <time>2026-06-15T14:24:08.000Z</time>
        <extensions>
          <ns3:TrackPointExtension>
            <ns3:atemp>21.0</ns3:atemp>
          </ns3:TrackPointExtension>
        </extensions>
      </trkpt>
      <trkpt lat="42.58742809295654296875" lon="20.0105933658778667449951171875">
        <ele>1878.199951171875</ele>
        <time>2026-06-15T14:24:09.000Z</time>
        <extensions>
          <ns3:TrackPointExtension>
            <ns3:atemp>21.0</ns3:atemp>
          </ns3:TrackPointExtension>
        </extensions>
      </trkpt>
      <trkpt lat="42.5874644704163074493408203125" lon="20.010541565716266632080078125">
        <ele>1878</ele>
        <time>2026-06-15T14:24:10.000Z</time>
        <extensions>
          <ns3:TrackPointExtension>
            <ns3:atemp>21.0</ns3:atemp>
          </ns3:TrackPointExtension>
        </extensions>
      </trkpt>
      <trkpt lat="42.5875000096857547760009765625" lon="20.01048666425049304962158203125">
        <ele>1877.5999755859375</ele>
        <time>2026-06-15T14:24:11.000Z</time>
        <extensions>
          <ns3:TrackPointExtension>
            <ns3:atemp>21.0</ns3:atemp>
          </ns3:TrackPointExtension>
        </extensions>
      </trkpt>
      <trkpt lat="42.58754133246839046478271484375" lon="20.01043251715600490570068359375">
        <ele>1877.199951171875</ele>
        <time>2026-06-15T14:24:12.000Z</time>
        <extensions>
          <ns3:TrackPointExtension>
            <ns3:atemp>20.0</ns3:atemp>
          </ns3:TrackPointExtension>
        </extensions>
      </trkpt>
      <trkpt lat="42.587583996355533599853515625" lon="20.01039496622979640960693359375">
        <ele>1876.800048828125</ele>
        <time>2026-06-15T14:24:13.000Z</time>
        <extensions>
          <ns3:TrackPointExtension>
            <ns3:atemp>21.0</ns3:atemp>
          </ns3:TrackPointExtension>
        </extensions>
      </trkpt>
      <trkpt lat="42.58761744014918804168701171875" lon="20.010349787771701812744140625">
        <ele>1876.199951171875</ele>
        <time>2026-06-15T14:24:14.000Z</time>
        <extensions>
          <ns3:TrackPointExtension>
            <ns3:atemp>21.0</ns3:atemp>
          </ns3:TrackPointExtension>
        </extensions>
      </trkpt>
      <trkpt lat="42.587651722133159637451171875" lon="20.010306537151336669921875">
        <ele>1875.5999755859375</ele>
        <time>2026-06-15T14:24:15.000Z</time>
        <extensions>
          <ns3:TrackPointExtension>
            <ns3:atemp>21.0</ns3:atemp>
          </ns3:TrackPointExtension>
        </extensions>
      </trkpt>
      <trkpt lat="42.58766806684434413909912109375" lon="20.0102557428181171417236328125">
        <ele>1874.800048828125</ele>
        <time>2026-06-15T14:24:16.000Z</time>
        <extensions>
          <ns3:TrackPointExtension>
            <ns3:atemp>21.0</ns3:atemp>
          </ns3:TrackPointExtension>
        </extensions>
      </trkpt>
      <trkpt lat="42.58767628110945224761962890625" lon="20.01021425239741802215576171875">
        <ele>1874</ele>
        <time>2026-06-15T14:24:17.000Z</time>
        <extensions>
          <ns3:TrackPointExtension>
            <ns3:atemp>21.0</ns3:atemp>
          </ns3:TrackPointExtension>
        </extensions>
      </trkpt>
      <trkpt lat="42.58768013678491115570068359375" lon="20.0101940520107746124267578125">
        <ele>1873.199951171875</ele>
        <time>2026-06-15T14:24:18.000Z</time>
        <extensions>
          <ns3:TrackPointExtension>
            <ns3:atemp>20.0</ns3:atemp>
          </ns3:TrackPointExtension>
        </extensions>
      </trkpt>
      <trkpt lat="42.5876793824136257171630859375" lon="20.01017452217638492584228515625">
        <ele>1872.5999755859375</ele>
        <time>2026-06-15T14:24:19.000Z</time>
        <extensions>
          <ns3:TrackPointExtension>
            <ns3:atemp>21.0</ns3:atemp>
          </ns3:TrackPointExtension>
        </extensions>
      </trkpt>
      <trkpt lat="42.58767477236688137054443359375" lon="20.010140575468540191650390625">
        <ele>1872</ele>
        <time>2026-06-15T14:24:20.000Z</time>
        <extensions>
          <ns3:TrackPointExtension>
            <ns3:atemp>20.0</ns3:atemp>
          </ns3:TrackPointExtension>
        </extensions>
      </trkpt>
      <trkpt lat="42.587687931954860687255859375" lon="20.01011014916002750396728515625">
        <ele>1871.4000244140625</ele>
        <time>2026-06-15T14:24:21.000Z</time>
        <extensions>
          <ns3:TrackPointExtension>
            <ns3:atemp>20.0</ns3:atemp>
          </ns3:TrackPointExtension>
        </extensions>
      </trkpt>
      <trkpt lat="42.58771182037889957427978515625" lon="20.01009338535368442535400390625">
        <ele>1871</ele>
        <time>2026-06-15T14:24:22.000Z</time>
        <extensions>
          <ns3:TrackPointExtension>
            <ns3:atemp>20.0</ns3:atemp>
          </ns3:TrackPointExtension>
        </extensions>
      </trkpt>
      <trkpt lat="42.58774853311479091644287109375" lon="20.0100646354258060455322265625">
        <ele>1870.5999755859375</ele>
        <time>2026-06-15T14:24:23.000Z</time>
        <extensions>
          <ns3:TrackPointExtension>
            <ns3:atemp>20.0</ns3:atemp>
          </ns3:TrackPointExtension>
        </extensions>
      </trkpt>
      <trkpt lat="42.587784826755523681640625" lon="20.0100472010672092437744140625">
        <ele>1869.800048828125</ele>
        <time>2026-06-15T14:24:24.000Z</time>
        <extensions>
          <ns3:TrackPointExtension>
            <ns3:atemp>20.0</ns3:atemp>
          </ns3:TrackPointExtension>
        </extensions>
      </trkpt>
      <trkpt lat="42.58780687116086483001708984375" lon="20.01002683304250240325927734375">
        <ele>1869.4000244140625</ele>
        <time>2026-06-15T14:24:25.000Z</time>
        <extensions>
          <ns3:TrackPointExtension>
            <ns3:atemp>20.0</ns3:atemp>
          </ns3:TrackPointExtension>
        </extensions>
      </trkpt>
      <trkpt lat="42.58782480843365192413330078125" lon="20.0099999271333217620849609375">
        <ele>1868.800048828125</ele>
        <time>2026-06-15T14:24:26.000Z</time>
        <extensions>
          <ns3:TrackPointExtension>
            <ns3:atemp>20.0</ns3:atemp>
          </ns3:TrackPointExtension>
        </extensions>
      </trkpt>
      <trkpt lat="42.58783654309809207916259765625" lon="20.0099714286625385284423828125">
        <ele>1868.4000244140625</ele>
        <time>2026-06-15T14:24:27.000Z</time>
        <extensions>
          <ns3:TrackPointExtension>
            <ns3:atemp>20.0</ns3:atemp>
          </ns3:TrackPointExtension>
        </extensions>
      </trkpt>
      <trkpt lat="42.58785816840827465057373046875" lon="20.00994971953332424163818359375">
        <ele>1867.800048828125</ele>
        <time>2026-06-15T14:24:28.000Z</time>
        <extensions>
          <ns3:TrackPointExtension>
            <ns3:atemp>20.0</ns3:atemp>
          </ns3:TrackPointExtension>
        </extensions>
      </trkpt>
      <trkpt lat="42.58788205683231353759765625" lon="20.0099350512027740478515625">
        <ele>1867.4000244140625</ele>
        <time>2026-06-15T14:24:29.000Z</time>
        <extensions>
          <ns3:TrackPointExtension>
            <ns3:atemp>20.0</ns3:atemp>
          </ns3:TrackPointExtension>
        </extensions>
      </trkpt>
      <trkpt lat="42.58790443651378154754638671875" lon="20.00992859713733196258544921875">
        <ele>1867</ele>
        <time>2026-06-15T14:24:30.000Z</time>
        <extensions>
          <ns3:TrackPointExtension>
            <ns3:atemp>20.0</ns3:atemp>
          </ns3:TrackPointExtension>
        </extensions>
      </trkpt>
      <trkpt lat="42.58792899549007415771484375" lon="20.009923987090587615966796875">
        <ele>1866.5999755859375</ele>
        <time>2026-06-15T14:24:31.000Z</time>
        <extensions>
          <ns3:TrackPointExtension>
            <ns3:atemp>20.0</ns3:atemp>
          </ns3:TrackPointExtension>
        </extensions>
      </trkpt>
      <trkpt lat="42.587960176169872283935546875" lon="20.009926669299602508544921875">
        <ele>1866</ele>
        <time>2026-06-15T14:24:32.000Z</time>
        <extensions>
          <ns3:TrackPointExtension>
            <ns3:atemp>20.0</ns3:atemp>
          </ns3:TrackPointExtension>
        </extensions>
      </trkpt>
      <trkpt lat="42.58799227885901927947998046875" lon="20.009909570217132568359375">
        <ele>1865.5999755859375</ele>
        <time>2026-06-15T14:24:33.000Z</time>
        <extensions>
          <ns3:TrackPointExtension>
            <ns3:atemp>20.0</ns3:atemp>
          </ns3:TrackPointExtension>
        </extensions>
      </trkpt>
      <trkpt lat="42.5880270637571811676025390625" lon="20.009897835552692413330078125">
        <ele>1865</ele>
        <time>2026-06-15T14:24:34.000Z</time>
        <extensions>
          <ns3:TrackPointExtension>
            <ns3:atemp>20.0</ns3:atemp>
          </ns3:TrackPointExtension>
        </extensions>
      </trkpt>
      <trkpt lat="42.58806117810308933258056640625" lon="20.00988702289760112762451171875">
        <ele>1864.5999755859375</ele>
        <time>2026-06-15T14:24:35.000Z</time>
        <extensions>
          <ns3:TrackPointExtension>
            <ns3:atemp>20.0</ns3:atemp>
          </ns3:TrackPointExtension>
        </extensions>
      </trkpt>
      <trkpt lat="42.5880931131541728973388671875" lon="20.0098674930632114410400390625">
        <ele>1864</ele>
        <time>2026-06-15T14:24:36.000Z</time>
        <extensions>
          <ns3:TrackPointExtension>
            <ns3:atemp>20.0</ns3:atemp>
          </ns3:TrackPointExtension>
        </extensions>
      </trkpt>
      <trkpt lat="42.5881266407668590545654296875" lon="20.00984528101980686187744140625">
        <ele>1863.4000244140625</ele>
        <time>2026-06-15T14:24:37.000Z</time>
        <extensions>
          <ns3:TrackPointExtension>
            <ns3:atemp>20.0</ns3:atemp>
          </ns3:TrackPointExtension>
        </extensions>
      </trkpt>
      <trkpt lat="42.5881645269691944122314453125" lon="20.00983153469860553741455078125">
        <ele>1863</ele>
        <time>2026-06-15T14:24:38.000Z</time>
        <extensions>
          <ns3:TrackPointExtension>
            <ns3:atemp>20.0</ns3:atemp>
          </ns3:TrackPointExtension>
        </extensions>
      </trkpt>
      <trkpt lat="42.58820584975183010101318359375" lon="20.00982248224318027496337890625">
        <ele>1862.4000244140625</ele>
        <time>2026-06-15T14:24:39.000Z</time>
        <extensions>
          <ns3:TrackPointExtension>
            <ns3:atemp>20.0</ns3:atemp>
          </ns3:TrackPointExtension>
        </extensions>
      </trkpt>
      <trkpt lat="42.58824884891510009765625" lon="20.00983371399343013763427734375">
        <ele>1862</ele>
        <time>2026-06-15T14:24:40.000Z</time>
        <extensions>
          <ns3:TrackPointExtension>
            <ns3:atemp>20.0</ns3:atemp>
          </ns3:TrackPointExtension>
        </extensions>
      </trkpt>
      <trkpt lat="42.58829067461192607879638671875" lon="20.00983622856438159942626953125">
        <ele>1861.199951171875</ele>
        <time>2026-06-15T14:24:41.000Z</time>
        <extensions>
          <ns3:TrackPointExtension>
            <ns3:atemp>20.0</ns3:atemp>
          </ns3:TrackPointExtension>
        </extensions>
      </trkpt>
      <trkpt lat="42.5883261300623416900634765625" lon="20.00980689190328121185302734375">
        <ele>1860.5999755859375</ele>
        <time>2026-06-15T14:24:42.000Z</time>
        <extensions>
          <ns3:TrackPointExtension>
            <ns3:atemp>20.0</ns3:atemp>
          </ns3:TrackPointExtension>
        </extensions>
      </trkpt>
      <trkpt lat="42.58837130852043628692626953125" lon="20.00978258438408374786376953125">
        <ele>1860</ele>
        <time>2026-06-15T14:24:43.000Z</time>
        <extensions>
          <ns3:TrackPointExtension>
            <ns3:atemp>20.0</ns3:atemp>
          </ns3:TrackPointExtension>
        </extensions>
      </trkpt>
      <trkpt lat="42.588414140045642852783203125" lon="20.00976003706455230712890625">
        <ele>1859.4000244140625</ele>
        <time>2026-06-15T14:24:44.000Z</time>
        <extensions>
          <ns3:TrackPointExtension>
            <ns3:atemp>20.0</ns3:atemp>
          </ns3:TrackPointExtension>
        </extensions>
      </trkpt>
      <trkpt lat="42.58846367709338665008544921875" lon="20.009746961295604705810546875">
        <ele>1858.800048828125</ele>
        <time>2026-06-15T14:24:45.000Z</time>
        <extensions>
          <ns3:TrackPointExtension>
            <ns3:atemp>20.0</ns3:atemp>
          </ns3:TrackPointExtension>
        </extensions>
      </trkpt>
      <trkpt lat="42.58851178921759128570556640625" lon="20.0097553431987762451171875">
        <ele>1858.4000244140625</ele>
        <time>2026-06-15T14:24:46.000Z</time>
        <extensions>
          <ns3:TrackPointExtension>
            <ns3:atemp>20.0</ns3:atemp>
          </ns3:TrackPointExtension>
        </extensions>
      </trkpt>
      <trkpt lat="42.58855101652443408966064453125" lon="20.00975861214101314544677734375">
        <ele>1857.800048828125</ele>
        <time>2026-06-15T14:24:47.000Z</time>
        <extensions>
          <ns3:TrackPointExtension>
            <ns3:atemp>20.0</ns3:atemp>
          </ns3:TrackPointExtension>
        </extensions>
      </trkpt>
      <trkpt lat="42.58859192021191120147705078125" lon="20.00976498238742351531982421875">
        <ele>1857.199951171875</ele>
        <time>2026-06-15T14:24:48.000Z</time>
        <extensions>
          <ns3:TrackPointExtension>
            <ns3:atemp>20.0</ns3:atemp>
          </ns3:TrackPointExtension>
        </extensions>
      </trkpt>
      <trkpt lat="42.5886211730539798736572265625" lon="20.0097876973450183868408203125">
        <ele>1856.800048828125</ele>
        <time>2026-06-15T14:24:49.000Z</time>
        <extensions>
          <ns3:TrackPointExtension>
            <ns3:atemp>20.0</ns3:atemp>
          </ns3:TrackPointExtension>
        </extensions>
      </trkpt>
      <trkpt lat="42.58864455856382846832275390625" lon="20.00980429351329803466796875">
        <ele>1856.199951171875</ele>
        <time>2026-06-15T14:24:50.000Z</time>
        <extensions>
          <ns3:TrackPointExtension>
            <ns3:atemp>20.0</ns3:atemp>
          </ns3:TrackPointExtension>
        </extensions>
      </trkpt>
      <trkpt lat="42.588670291006565093994140625" lon="20.0098250806331634521484375">
        <ele>1855.800048828125</ele>
        <time>2026-06-15T14:24:51.000Z</time>
        <extensions>
          <ns3:TrackPointExtension>
            <ns3:atemp>20.0</ns3:atemp>
          </ns3:TrackPointExtension>
        </extensions>
      </trkpt>
      <trkpt lat="42.58868697099387645721435546875" lon="20.00983589328825473785400390625">
        <ele>1855.4000244140625</ele>
        <time>2026-06-15T14:24:52.000Z</time>
        <extensions>
          <ns3:TrackPointExtension>
            <ns3:atemp>20.0</ns3:atemp>
          </ns3:TrackPointExtension>
        </extensions>
      </trkpt>
      <trkpt lat="42.58870205841958522796630859375" lon="20.00983178615570068359375">
        <ele>1854.800048828125</ele>
        <time>2026-06-15T14:24:53.000Z</time>
        <extensions>
          <ns3:TrackPointExtension>
            <ns3:atemp>20.0</ns3:atemp>
          </ns3:TrackPointExtension>
        </extensions>
      </trkpt>
      <trkpt lat="42.58871429599821567535400390625" lon="20.00982231460511684417724609375">
        <ele>1854.4000244140625</ele>
        <time>2026-06-15T14:24:54.000Z</time>
        <extensions>
          <ns3:TrackPointExtension>
            <ns3:atemp>20.0</ns3:atemp>
          </ns3:TrackPointExtension>
        </extensions>
      </trkpt>
      <trkpt lat="42.58873458020389080047607421875" lon="20.00981711782515048980712890625">
        <ele>1854</ele>
        <time>2026-06-15T14:24:55.000Z</time>
        <extensions>
          <ns3:TrackPointExtension>
            <ns3:atemp>20.0</ns3:atemp>
          </ns3:TrackPointExtension>
        </extensions>
      </trkpt>
      <trkpt lat="42.5887646712362766265869140625" lon="20.00981544144451618194580078125">
        <ele>1853.5999755859375</ele>
        <time>2026-06-15T14:24:56.000Z</time>
        <extensions>
          <ns3:TrackPointExtension>
            <ns3:atemp>20.0</ns3:atemp>
          </ns3:TrackPointExtension>
        </extensions>
      </trkpt>
      <trkpt lat="42.58879593573510646820068359375" lon="20.00980722717940807342529296875">
        <ele>1853.199951171875</ele>
        <time>2026-06-15T14:24:57.000Z</time>
        <extensions>
          <ns3:TrackPointExtension>
            <ns3:atemp>20.0</ns3:atemp>
          </ns3:TrackPointExtension>
        </extensions>
      </trkpt>
      <trkpt lat="42.588820494711399078369140625" lon="20.0098011083900928497314453125">
        <ele>1852.5999755859375</ele>
        <time>2026-06-15T14:24:58.000Z</time>
        <extensions>
          <ns3:TrackPointExtension>
            <ns3:atemp>20.0</ns3:atemp>
          </ns3:TrackPointExtension>
        </extensions>
      </trkpt>
      <trkpt lat="42.58884438313543796539306640625" lon="20.00980370678007602691650390625">
        <ele>1852</ele>
        <time>2026-06-15T14:24:59.000Z</time>
        <extensions>
          <ns3:TrackPointExtension>
            <ns3:atemp>20.0</ns3:atemp>
          </ns3:TrackPointExtension>
        </extensions>
      </trkpt>
      <trkpt lat="42.58886466734111309051513671875" lon="20.00979750417172908782958984375">
        <ele>1851.4000244140625</ele>
        <time>2026-06-15T14:25:00.000Z</time>
        <extensions>
          <ns3:TrackPointExtension>
            <ns3:atemp>20.0</ns3:atemp>
          </ns3:TrackPointExtension>
        </extensions>
      </trkpt>
      <trkpt lat="42.588886208832263946533203125" lon="20.0097980909049510955810546875">
        <ele>1850.800048828125</ele>
        <time>2026-06-15T14:25:01.000Z</time>
        <extensions>
          <ns3:TrackPointExtension>
            <ns3:atemp>20.0</ns3:atemp>
          </ns3:TrackPointExtension>
        </extensions>
      </trkpt>
      <trkpt lat="42.58891378529369831085205078125" lon="20.00980337150394916534423828125">
        <ele>1850.199951171875</ele>
        <time>2026-06-15T14:25:02.000Z</time>
        <extensions>
          <ns3:TrackPointExtension>
            <ns3:atemp>20.0</ns3:atemp>
          </ns3:TrackPointExtension>
        </extensions>
      </trkpt>
      <trkpt lat="42.58892853744328022003173828125" lon="20.00981074757874011993408203125">
        <ele>1849.800048828125</ele>
        <time>2026-06-15T14:25:03.000Z</time>
        <extensions>
          <ns3:TrackPointExtension>
            <ns3:atemp>20.0</ns3:atemp>
          </ns3:TrackPointExtension>
        </extensions>
      </trkpt>
      <trkpt lat="42.58893725462257862091064453125" lon="20.00980974175035953521728515625">
        <ele>1849.199951171875</ele>
        <time>2026-06-15T14:25:04.000Z</time>
        <extensions>
          <ns3:TrackPointExtension>
            <ns3:atemp>20.0</ns3:atemp>
          </ns3:TrackPointExtension>
        </extensions>
      </trkpt>
      <trkpt lat="42.58893893100321292877197265625" lon="20.00981208868324756622314453125">
        <ele>1848.5999755859375</ele>
        <time>2026-06-15T14:25:05.000Z</time>
        <extensions>
          <ns3:TrackPointExtension>
            <ns3:atemp>20.0</ns3:atemp>
          </ns3:TrackPointExtension>
        </extensions>
      </trkpt>
      <trkpt lat="42.58893876336514949798583984375" lon="20.0098121725022792816162109375">
        <ele>1848.4000244140625</ele>
        <time>2026-06-15T14:25:06.000Z</time>
        <extensions>
          <ns3:TrackPointExtension>
            <ns3:atemp>20.0</ns3:atemp>
          </ns3:TrackPointExtension>
        </extensions>
      </trkpt>
      <trkpt lat="42.5889366678893566131591796875" lon="20.009815357625484466552734375">
        <ele>1848</ele>
        <time>2026-06-15T14:25:07.000Z</time>
        <extensions>
          <ns3:TrackPointExtension>
            <ns3:atemp>20.0</ns3:atemp>
          </ns3:TrackPointExtension>
        </extensions>
      </trkpt>
      <trkpt lat="42.58893608115613460540771484375" lon="20.0098145194351673126220703125">
        <ele>1848</ele>
        <time>2026-06-15T14:25:08.000Z</time>
        <extensions>
          <ns3:TrackPointExtension>
            <ns3:atemp>20.0</ns3:atemp>
          </ns3:TrackPointExtension>
        </extensions>
      </trkpt>
      <trkpt lat="42.58893608115613460540771484375" lon="20.0098145194351673126220703125">
        <ele>1847.800048828125</ele>
        <time>2026-06-15T14:25:09.000Z</time>
        <extensions>
          <ns3:TrackPointExtension>
            <ns3:atemp>20.0</ns3:atemp>
          </ns3:TrackPointExtension>
        </extensions>
      </trkpt>
      <trkpt lat="42.58893608115613460540771484375" lon="20.0098145194351673126220703125">
        <ele>1847.800048828125</ele>
        <time>2026-06-15T14:25:10.000Z</time>
        <extensions>
          <ns3:TrackPointExtension>
            <ns3:atemp>20.0</ns3:atemp>
          </ns3:TrackPointExtension>
        </extensions>
      </trkpt>
      <trkpt lat="42.58893608115613460540771484375" lon="20.0098145194351673126220703125">
        <ele>1847.800048828125</ele>
        <time>2026-06-15T14:25:11.000Z</time>
        <extensions>
          <ns3:TrackPointExtension>
            <ns3:atemp>20.0</ns3:atemp>
          </ns3:TrackPointExtension>
        </extensions>
      </trkpt>
      <trkpt lat="42.58893608115613460540771484375" lon="20.0098145194351673126220703125">
        <ele>1847.800048828125</ele>
        <time>2026-06-15T14:25:12.000Z</time>
        <extensions>
          <ns3:TrackPointExtension>
            <ns3:atemp>20.0</ns3:atemp>
          </ns3:TrackPointExtension>
        </extensions>
      </trkpt>
      <trkpt lat="42.58893608115613460540771484375" lon="20.0098145194351673126220703125">
        <ele>1847.5999755859375</ele>
        <time>2026-06-15T14:25:13.000Z</time>
        <extensions>
          <ns3:TrackPointExtension>
            <ns3:atemp>20.0</ns3:atemp>
          </ns3:TrackPointExtension>
        </extensions>
      </trkpt>
      <trkpt lat="42.58893608115613460540771484375" lon="20.0098145194351673126220703125">
        <ele>1847.5999755859375</ele>
        <time>2026-06-15T14:25:14.000Z</time>
        <extensions>
          <ns3:TrackPointExtension>
            <ns3:atemp>20.0</ns3:atemp>
          </ns3:TrackPointExtension>
        </extensions>
      </trkpt>
      <trkpt lat="42.58893608115613460540771484375" lon="20.0098145194351673126220703125">
        <ele>1847.4000244140625</ele>
        <time>2026-06-15T14:25:15.000Z</time>
        <extensions>
          <ns3:TrackPointExtension>
            <ns3:atemp>20.0</ns3:atemp>
          </ns3:TrackPointExtension>
        </extensions>
      </trkpt>
      <trkpt lat="42.58893608115613460540771484375" lon="20.0098145194351673126220703125">
        <ele>1847.4000244140625</ele>
        <time>2026-06-15T14:25:16.000Z</time>
        <extensions>
          <ns3:TrackPointExtension>
            <ns3:atemp>20.0</ns3:atemp>
          </ns3:TrackPointExtension>
        </extensions>
      </trkpt>
      <trkpt lat="42.58893608115613460540771484375" lon="20.0098145194351673126220703125">
        <ele>1847.4000244140625</ele>
        <time>2026-06-15T14:25:17.000Z</time>
        <extensions>
          <ns3:TrackPointExtension>
            <ns3:atemp>20.0</ns3:atemp>
          </ns3:TrackPointExtension>
        </extensions>
      </trkpt>
      <trkpt lat="42.58893608115613460540771484375" lon="20.0098145194351673126220703125">
        <ele>1847.4000244140625</ele>
        <time>2026-06-15T14:25:18.000Z</time>
        <extensions>
          <ns3:TrackPointExtension>
            <ns3:atemp>20.0</ns3:atemp>
          </ns3:TrackPointExtension>
        </extensions>
      </trkpt>
      <trkpt lat="42.58893608115613460540771484375" lon="20.0098145194351673126220703125">
        <ele>1847.4000244140625</ele>
        <time>2026-06-15T14:25:19.000Z</time>
        <extensions>
          <ns3:TrackPointExtension>
            <ns3:atemp>20.0</ns3:atemp>
          </ns3:TrackPointExtension>
        </extensions>
      </trkpt>
      <trkpt lat="42.58893608115613460540771484375" lon="20.0098145194351673126220703125">
        <ele>1847.4000244140625</ele>
        <time>2026-06-15T14:25:20.000Z</time>
        <extensions>
          <ns3:TrackPointExtension>
            <ns3:atemp>20.0</ns3:atemp>
          </ns3:TrackPointExtension>
        </extensions>
      </trkpt>
      <trkpt lat="42.58893608115613460540771484375" lon="20.0098145194351673126220703125">
        <ele>1847.199951171875</ele>
        <time>2026-06-15T14:25:21.000Z</time>
        <extensions>
          <ns3:TrackPointExtension>
            <ns3:atemp>20.0</ns3:atemp>
          </ns3:TrackPointExtension>
        </extensions>
      </trkpt>
      <trkpt lat="42.58893608115613460540771484375" lon="20.0098145194351673126220703125">
        <ele>1847.199951171875</ele>
        <time>2026-06-15T14:25:22.000Z</time>
        <extensions>
          <ns3:TrackPointExtension>
            <ns3:atemp>20.0</ns3:atemp>
          </ns3:TrackPointExtension>
        </extensions>
      </trkpt>
      <trkpt lat="42.58893608115613460540771484375" lon="20.0098145194351673126220703125">
        <ele>1847.199951171875</ele>
        <time>2026-06-15T14:25:23.000Z</time>
        <extensions>
          <ns3:TrackPointExtension>
            <ns3:atemp>20.0</ns3:atemp>
          </ns3:TrackPointExtension>
        </extensions>
      </trkpt>
      <trkpt lat="42.58893608115613460540771484375" lon="20.0098145194351673126220703125">
        <ele>1847.199951171875</ele>
        <time>2026-06-15T14:25:24.000Z</time>
        <extensions>
          <ns3:TrackPointExtension>
            <ns3:atemp>20.0</ns3:atemp>
          </ns3:TrackPointExtension>
        </extensions>
      </trkpt>
      <trkpt lat="42.58894018828868865966796875" lon="20.00981644727289676666259765625">
        <ele>1847.199951171875</ele>
        <time>2026-06-15T14:25:25.000Z</time>
        <extensions>
          <ns3:TrackPointExtension>
            <ns3:atemp>20.0</ns3:atemp>
          </ns3:TrackPointExtension>
        </extensions>
      </trkpt>
      <trkpt lat="42.5889623165130615234375" lon="20.009823739528656005859375">
        <ele>1847.199951171875</ele>
        <time>2026-06-15T14:25:26.000Z</time>
        <extensions>
          <ns3:TrackPointExtension>
            <ns3:atemp>20.0</ns3:atemp>
          </ns3:TrackPointExtension>
        </extensions>
      </trkpt>
      <trkpt lat="42.58898285217583179473876953125" lon="20.0098277628421783447265625">
        <ele>1847</ele>
        <time>2026-06-15T14:25:27.000Z</time>
        <extensions>
          <ns3:TrackPointExtension>
            <ns3:atemp>20.0</ns3:atemp>
          </ns3:TrackPointExtension>
        </extensions>
      </trkpt>
      <trkpt lat="42.589002884924411773681640625" lon="20.0098306126892566680908203125">
        <ele>1846.800048828125</ele>
        <time>2026-06-15T14:25:28.000Z</time>
        <extensions>
          <ns3:TrackPointExtension>
            <ns3:atemp>20.0</ns3:atemp>
          </ns3:TrackPointExtension>
        </extensions>
      </trkpt>
      <trkpt lat="42.58902191184461116790771484375" lon="20.009826086461544036865234375">
        <ele>1846.5999755859375</ele>
        <time>2026-06-15T14:25:29.000Z</time>
        <extensions>
          <ns3:TrackPointExtension>
            <ns3:atemp>20.0</ns3:atemp>
          </ns3:TrackPointExtension>
        </extensions>
      </trkpt>
      <trkpt lat="42.58904638700187206268310546875" lon="20.0098235718905925750732421875">
        <ele>1846.4000244140625</ele>
        <time>2026-06-15T14:25:30.000Z</time>
        <extensions>
          <ns3:TrackPointExtension>
            <ns3:atemp>20.0</ns3:atemp>
          </ns3:TrackPointExtension>
        </extensions>
      </trkpt>
      <trkpt lat="42.5890687666833400726318359375" lon="20.00981644727289676666259765625">
        <ele>1845.800048828125</ele>
        <time>2026-06-15T14:25:31.000Z</time>
        <extensions>
          <ns3:TrackPointExtension>
            <ns3:atemp>20.0</ns3:atemp>
          </ns3:TrackPointExtension>
        </extensions>
      </trkpt>
      <trkpt lat="42.5890758074820041656494140625" lon="20.00980488024652004241943359375">
        <ele>1845.4000244140625</ele>
        <time>2026-06-15T14:25:32.000Z</time>
        <extensions>
          <ns3:TrackPointExtension>
            <ns3:atemp>20.0</ns3:atemp>
          </ns3:TrackPointExtension>
        </extensions>
      </trkpt>
      <trkpt lat="42.5890831835567951202392578125" lon="20.00978392548859119415283203125">
        <ele>1844.800048828125</ele>
        <time>2026-06-15T14:25:33.000Z</time>
        <extensions>
          <ns3:TrackPointExtension>
            <ns3:atemp>20.0</ns3:atemp>
          </ns3:TrackPointExtension>
        </extensions>
      </trkpt>
      <trkpt lat="42.5891043059527873992919921875" lon="20.00975609757006168365478515625">
        <ele>1844.199951171875</ele>
        <time>2026-06-15T14:25:34.000Z</time>
        <extensions>
          <ns3:TrackPointExtension>
            <ns3:atemp>20.0</ns3:atemp>
          </ns3:TrackPointExtension>
        </extensions>
      </trkpt>
      <trkpt lat="42.58912517689168453216552734375" lon="20.00972625799477100372314453125">
        <ele>1843.5999755859375</ele>
        <time>2026-06-15T14:25:35.000Z</time>
        <extensions>
          <ns3:TrackPointExtension>
            <ns3:atemp>20.0</ns3:atemp>
          </ns3:TrackPointExtension>
        </extensions>
      </trkpt>
      <trkpt lat="42.5891452096402645111083984375" lon="20.009708404541015625">
        <ele>1842.800048828125</ele>
        <time>2026-06-15T14:25:36.000Z</time>
        <extensions>
          <ns3:TrackPointExtension>
            <ns3:atemp>20.0</ns3:atemp>
          </ns3:TrackPointExtension>
        </extensions>
      </trkpt>
      <trkpt lat="42.589157782495021820068359375" lon="20.0096837617456912994384765625">
        <ele>1842.199951171875</ele>
        <time>2026-06-15T14:25:37.000Z</time>
        <extensions>
          <ns3:TrackPointExtension>
            <ns3:atemp>20.0</ns3:atemp>
          </ns3:TrackPointExtension>
        </extensions>
      </trkpt>
      <trkpt lat="42.58916021324694156646728515625" lon="20.0096659921109676361083984375">
        <ele>1841.4000244140625</ele>
        <time>2026-06-15T14:25:38.000Z</time>
        <extensions>
          <ns3:TrackPointExtension>
            <ns3:atemp>20.0</ns3:atemp>
          </ns3:TrackPointExtension>
        </extensions>
      </trkpt>
      <trkpt lat="42.58916574530303478240966796875" lon="20.0096542574465274810791015625">
        <ele>1840.800048828125</ele>
        <time>2026-06-15T14:25:39.000Z</time>
        <extensions>
          <ns3:TrackPointExtension>
            <ns3:atemp>20.0</ns3:atemp>
          </ns3:TrackPointExtension>
        </extensions>
      </trkpt>
      <trkpt lat="42.5891864486038684844970703125" lon="20.009645037353038787841796875">
        <ele>1840.199951171875</ele>
        <time>2026-06-15T14:25:40.000Z</time>
        <extensions>
          <ns3:TrackPointExtension>
            <ns3:atemp>20.0</ns3:atemp>
          </ns3:TrackPointExtension>
        </extensions>
      </trkpt>
      <trkpt lat="42.58920396678149700164794921875" lon="20.00963942147791385650634765625">
        <ele>1839.5999755859375</ele>
        <time>2026-06-15T14:25:41.000Z</time>
        <extensions>
          <ns3:TrackPointExtension>
            <ns3:atemp>20.0</ns3:atemp>
          </ns3:TrackPointExtension>
        </extensions>
      </trkpt>
      <trkpt lat="42.58921871893107891082763671875" lon="20.00963791273534297943115234375">
        <ele>1839</ele>
        <time>2026-06-15T14:25:42.000Z</time>
        <extensions>
          <ns3:TrackPointExtension>
            <ns3:atemp>20.0</ns3:atemp>
          </ns3:TrackPointExtension>
        </extensions>
      </trkpt>
      <trkpt lat="42.589230872690677642822265625" lon="20.0096373260021209716796875">
        <ele>1838.4000244140625</ele>
        <time>2026-06-15T14:25:43.000Z</time>
        <extensions>
          <ns3:TrackPointExtension>
            <ns3:atemp>20.0</ns3:atemp>
          </ns3:TrackPointExtension>
        </extensions>
      </trkpt>
      <trkpt lat="42.58924487046897411346435546875" lon="20.00963808037340641021728515625">
        <ele>1838</ele>
        <time>2026-06-15T14:25:44.000Z</time>
        <extensions>
          <ns3:TrackPointExtension>
            <ns3:atemp>20.0</ns3:atemp>
          </ns3:TrackPointExtension>
        </extensions>
      </trkpt>
      <trkpt lat="42.58925660513341426849365234375" lon="20.00963472761213779449462890625">
        <ele>1837.199951171875</ele>
        <time>2026-06-15T14:25:45.000Z</time>
        <extensions>
          <ns3:TrackPointExtension>
            <ns3:atemp>20.0</ns3:atemp>
          </ns3:TrackPointExtension>
        </extensions>
      </trkpt>
      <trkpt lat="42.58927102200686931610107421875" lon="20.0096224062144756317138671875">
        <ele>1836.800048828125</ele>
        <time>2026-06-15T14:25:46.000Z</time>
        <extensions>
          <ns3:TrackPointExtension>
            <ns3:atemp>20.0</ns3:atemp>
          </ns3:TrackPointExtension>
        </extensions>
      </trkpt>
      <trkpt lat="42.58927772752940654754638671875" lon="20.00961779616773128509521484375">
        <ele>1836.199951171875</ele>
        <time>2026-06-15T14:25:47.000Z</time>
        <extensions>
          <ns3:TrackPointExtension>
            <ns3:atemp>20.0</ns3:atemp>
          </ns3:TrackPointExtension>
        </extensions>
      </trkpt>
      <trkpt lat="42.58927739225327968597412109375" lon="20.0096131861209869384765625">
        <ele>1835.800048828125</ele>
        <time>2026-06-15T14:25:48.000Z</time>
        <extensions>
          <ns3:TrackPointExtension>
            <ns3:atemp>20.0</ns3:atemp>
          </ns3:TrackPointExtension>
        </extensions>
      </trkpt>
      <trkpt lat="42.5892840139567852020263671875" lon="20.00960857607424259185791015625">
        <ele>1835.199951171875</ele>
        <time>2026-06-15T14:25:49.000Z</time>
        <extensions>
          <ns3:TrackPointExtension>
            <ns3:atemp>20.0</ns3:atemp>
          </ns3:TrackPointExtension>
        </extensions>
      </trkpt>
      <trkpt lat="42.58929717354476451873779296875" lon="20.00960086472332477569580078125">
        <ele>1834.800048828125</ele>
        <time>2026-06-15T14:25:50.000Z</time>
        <extensions>
          <ns3:TrackPointExtension>
            <ns3:atemp>20.0</ns3:atemp>
          </ns3:TrackPointExtension>
        </extensions>
      </trkpt>
      <trkpt lat="42.589299269020557403564453125" lon="20.00958795659244060516357421875">
        <ele>1834.199951171875</ele>
        <time>2026-06-15T14:25:51.000Z</time>
        <extensions>
          <ns3:TrackPointExtension>
            <ns3:atemp>20.0</ns3:atemp>
          </ns3:TrackPointExtension>
        </extensions>
      </trkpt>
      <trkpt lat="42.5893058069050312042236328125" lon="20.00956415198743343353271484375">
        <ele>1833.800048828125</ele>
        <time>2026-06-15T14:25:52.000Z</time>
        <extensions>
          <ns3:TrackPointExtension>
            <ns3:atemp>20.0</ns3:atemp>
          </ns3:TrackPointExtension>
        </extensions>
      </trkpt>
      <trkpt lat="42.58931435644626617431640625" lon="20.00953414477407932281494140625">
        <ele>1833.199951171875</ele>
        <time>2026-06-15T14:25:53.000Z</time>
        <extensions>
          <ns3:TrackPointExtension>
            <ns3:atemp>20.0</ns3:atemp>
          </ns3:TrackPointExtension>
        </extensions>
      </trkpt>
      <trkpt lat="42.58931896649301052093505859375" lon="20.0094950012862682342529296875">
        <ele>1832.4000244140625</ele>
        <time>2026-06-15T14:25:54.000Z</time>
        <extensions>
          <ns3:TrackPointExtension>
            <ns3:atemp>20.0</ns3:atemp>
          </ns3:TrackPointExtension>
        </extensions>
      </trkpt>
      <trkpt lat="42.5893275998532772064208984375" lon="20.009453594684600830078125">
        <ele>1831.5999755859375</ele>
        <time>2026-06-15T14:25:55.000Z</time>
        <extensions>
          <ns3:TrackPointExtension>
            <ns3:atemp>20.0</ns3:atemp>
          </ns3:TrackPointExtension>
        </extensions>
      </trkpt>
      <trkpt lat="42.58933220990002155303955078125" lon="20.00942048616707324981689453125">
        <ele>1831</ele>
        <time>2026-06-15T14:25:56.000Z</time>
        <extensions>
          <ns3:TrackPointExtension>
            <ns3:atemp>20.0</ns3:atemp>
          </ns3:TrackPointExtension>
        </extensions>
      </trkpt>
      <trkpt lat="42.58933623321354389190673828125" lon="20.00938612036406993865966796875">
        <ele>1830</ele>
        <time>2026-06-15T14:25:57.000Z</time>
        <extensions>
          <ns3:TrackPointExtension>
            <ns3:atemp>20.0</ns3:atemp>
          </ns3:TrackPointExtension>
        </extensions>
      </trkpt>
      <trkpt lat="42.58934126235544681549072265625" lon="20.00937170349061489105224609375">
        <ele>1829.4000244140625</ele>
        <time>2026-06-15T14:25:58.000Z</time>
        <extensions>
          <ns3:TrackPointExtension>
            <ns3:atemp>20.0</ns3:atemp>
          </ns3:TrackPointExtension>
        </extensions>
      </trkpt>
      <trkpt lat="42.58935056626796722412109375" lon="20.0093585439026355743408203125">
        <ele>1828.800048828125</ele>
        <time>2026-06-15T14:25:59.000Z</time>
        <extensions>
          <ns3:TrackPointExtension>
            <ns3:atemp>20.0</ns3:atemp>
          </ns3:TrackPointExtension>
        </extensions>
      </trkpt>
      <trkpt lat="42.58936691097915172576904296875" lon="20.0093605555593967437744140625">
        <ele>1828.199951171875</ele>
        <time>2026-06-15T14:26:00.000Z</time>
        <extensions>
          <ns3:TrackPointExtension>
            <ns3:atemp>20.0</ns3:atemp>
          </ns3:TrackPointExtension>
        </extensions>
      </trkpt>
      <trkpt lat="42.58938367478549480438232421875" lon="20.00935770571231842041015625">
        <ele>1827.5999755859375</ele>
        <time>2026-06-15T14:26:01.000Z</time>
        <extensions>
          <ns3:TrackPointExtension>
            <ns3:atemp>20.0</ns3:atemp>
          </ns3:TrackPointExtension>
        </extensions>
      </trkpt>
      <trkpt lat="42.58939214050769805908203125" lon="20.00934429466724395751953125">
        <ele>1827.199951171875</ele>
        <time>2026-06-15T14:26:02.000Z</time>
        <extensions>
          <ns3:TrackPointExtension>
            <ns3:atemp>20.0</ns3:atemp>
          </ns3:TrackPointExtension>
        </extensions>
      </trkpt>
      <trkpt lat="42.58939574472606182098388671875" lon="20.00932828523218631744384765625">
        <ele>1826.5999755859375</ele>
        <time>2026-06-15T14:26:03.000Z</time>
        <extensions>
          <ns3:TrackPointExtension>
            <ns3:atemp>20.0</ns3:atemp>
          </ns3:TrackPointExtension>
        </extensions>
      </trkpt>
      <trkpt lat="42.5894037075340747833251953125" lon="20.00929794274270534515380859375">
        <ele>1826</ele>
        <time>2026-06-15T14:26:04.000Z</time>
        <extensions>
          <ns3:TrackPointExtension>
            <ns3:atemp>20.0</ns3:atemp>
          </ns3:TrackPointExtension>
        </extensions>
      </trkpt>
      <trkpt lat="42.5894154421985149383544921875" lon="20.00926491804420948028564453125">
        <ele>1825.5999755859375</ele>
        <time>2026-06-15T14:26:05.000Z</time>
        <extensions>
          <ns3:TrackPointExtension>
            <ns3:atemp>20.0</ns3:atemp>
          </ns3:TrackPointExtension>
        </extensions>
      </trkpt>
      <trkpt lat="42.5894303619861602783203125" lon="20.00922066159546375274658203125">
        <ele>1825</ele>
        <time>2026-06-15T14:26:06.000Z</time>
        <extensions>
          <ns3:TrackPointExtension>
            <ns3:atemp>20.0</ns3:atemp>
          </ns3:TrackPointExtension>
        </extensions>
      </trkpt>
      <trkpt lat="42.5894640572369098663330078125" lon="20.0091912411153316497802734375">
        <ele>1824.4000244140625</ele>
        <time>2026-06-15T14:26:07.000Z</time>
        <extensions>
          <ns3:TrackPointExtension>
            <ns3:atemp>20.0</ns3:atemp>
          </ns3:TrackPointExtension>
        </extensions>
      </trkpt>
      <trkpt lat="42.58950370363891124725341796875" lon="20.00917221419513225555419921875">
        <ele>1823.4000244140625</ele>
        <time>2026-06-15T14:26:08.000Z</time>
        <extensions>
          <ns3:TrackPointExtension>
            <ns3:atemp>20.0</ns3:atemp>
          </ns3:TrackPointExtension>
        </extensions>
      </trkpt>
      <trkpt lat="42.58953832089900970458984375" lon="20.0091652572154998779296875">
        <ele>1822.5999755859375</ele>
        <time>2026-06-15T14:26:09.000Z</time>
        <extensions>
          <ns3:TrackPointExtension>
            <ns3:atemp>20.0</ns3:atemp>
          </ns3:TrackPointExtension>
        </extensions>
      </trkpt>
      <trkpt lat="42.58955466561019420623779296875" lon="20.00915260054171085357666015625">
        <ele>1821.800048828125</ele>
        <time>2026-06-15T14:26:10.000Z</time>
        <extensions>
          <ns3:TrackPointExtension>
            <ns3:atemp>20.0</ns3:atemp>
          </ns3:TrackPointExtension>
        </extensions>
      </trkpt>
      <trkpt lat="42.58955935947597026824951171875" lon="20.0091446377336978912353515625">
        <ele>1820.800048828125</ele>
        <time>2026-06-15T14:26:11.000Z</time>
        <extensions>
          <ns3:TrackPointExtension>
            <ns3:atemp>20.0</ns3:atemp>
          </ns3:TrackPointExtension>
        </extensions>
      </trkpt>
      <trkpt lat="42.5895582698285579681396484375" lon="20.00913818366825580596923828125">
        <ele>1820.4000244140625</ele>
        <time>2026-06-15T14:26:12.000Z</time>
        <extensions>
          <ns3:TrackPointExtension>
            <ns3:atemp>20.0</ns3:atemp>
          </ns3:TrackPointExtension>
        </extensions>
      </trkpt>
      <trkpt lat="42.58955835364758968353271484375" lon="20.0091379322111606597900390625">
        <ele>1820</ele>
        <time>2026-06-15T14:26:13.000Z</time>
        <extensions>
          <ns3:TrackPointExtension>
            <ns3:atemp>20.0</ns3:atemp>
          </ns3:TrackPointExtension>
        </extensions>
      </trkpt>
      <trkpt lat="42.58955835364758968353271484375" lon="20.0091379322111606597900390625">
        <ele>1819.800048828125</ele>
        <time>2026-06-15T14:26:14.000Z</time>
        <extensions>
          <ns3:TrackPointExtension>
            <ns3:atemp>20.0</ns3:atemp>
          </ns3:TrackPointExtension>
        </extensions>
      </trkpt>
      <trkpt lat="42.58955835364758968353271484375" lon="20.0091379322111606597900390625">
        <ele>1819.5999755859375</ele>
        <time>2026-06-15T14:26:15.000Z</time>
        <extensions>
          <ns3:TrackPointExtension>
            <ns3:atemp>20.0</ns3:atemp>
          </ns3:TrackPointExtension>
        </extensions>
      </trkpt>
      <trkpt lat="42.58955835364758968353271484375" lon="20.0091379322111606597900390625">
        <ele>1819.4000244140625</ele>
        <time>2026-06-15T14:26:16.000Z</time>
        <extensions>
          <ns3:TrackPointExtension>
            <ns3:atemp>20.0</ns3:atemp>
          </ns3:TrackPointExtension>
        </extensions>
      </trkpt>
      <trkpt lat="42.58955852128565311431884765625" lon="20.009137429296970367431640625">
        <ele>1819.4000244140625</ele>
        <time>2026-06-15T14:26:17.000Z</time>
        <extensions>
          <ns3:TrackPointExtension>
            <ns3:atemp>20.0</ns3:atemp>
          </ns3:TrackPointExtension>
        </extensions>
      </trkpt>
      <trkpt lat="42.58956371806561946868896484375" lon="20.0091318972408771514892578125">
        <ele>1819.199951171875</ele>
        <time>2026-06-15T14:26:18.000Z</time>
        <extensions>
          <ns3:TrackPointExtension>
            <ns3:atemp>20.0</ns3:atemp>
          </ns3:TrackPointExtension>
        </extensions>
      </trkpt>
      <trkpt lat="42.589563466608524322509765625" lon="20.00912896357476711273193359375">
        <ele>1819.199951171875</ele>
        <time>2026-06-15T14:26:19.000Z</time>
        <extensions>
          <ns3:TrackPointExtension>
            <ns3:atemp>20.0</ns3:atemp>
          </ns3:TrackPointExtension>
        </extensions>
      </trkpt>
      <trkpt lat="42.58955835364758968353271484375" lon="20.0091379322111606597900390625">
        <ele>1818.800048828125</ele>
        <time>2026-06-15T14:26:20.000Z</time>
        <extensions>
          <ns3:TrackPointExtension>
            <ns3:atemp>20.0</ns3:atemp>
          </ns3:TrackPointExtension>
        </extensions>
      </trkpt>
      <trkpt lat="42.58955835364758968353271484375" lon="20.0091379322111606597900390625">
        <ele>1818.800048828125</ele>
        <time>2026-06-15T14:26:21.000Z</time>
        <extensions>
          <ns3:TrackPointExtension>
            <ns3:atemp>20.0</ns3:atemp>
          </ns3:TrackPointExtension>
        </extensions>
      </trkpt>
      <trkpt lat="42.58955835364758968353271484375" lon="20.0091379322111606597900390625">
        <ele>1818.5999755859375</ele>
        <time>2026-06-15T14:26:22.000Z</time>
        <extensions>
          <ns3:TrackPointExtension>
            <ns3:atemp>20.0</ns3:atemp>
          </ns3:TrackPointExtension>
        </extensions>
      </trkpt>
      <trkpt lat="42.58955835364758968353271484375" lon="20.0091379322111606597900390625">
        <ele>1818.4000244140625</ele>
        <time>2026-06-15T14:26:23.000Z</time>
        <extensions>
          <ns3:TrackPointExtension>
            <ns3:atemp>20.0</ns3:atemp>
          </ns3:TrackPointExtension>
        </extensions>
      </trkpt>
      <trkpt lat="42.58955835364758968353271484375" lon="20.0091379322111606597900390625">
        <ele>1818.199951171875</ele>
        <time>2026-06-15T14:26:24.000Z</time>
        <extensions>
          <ns3:TrackPointExtension>
            <ns3:atemp>20.0</ns3:atemp>
          </ns3:TrackPointExtension>
        </extensions>
      </trkpt>
      <trkpt lat="42.58955835364758968353271484375" lon="20.0091379322111606597900390625">
        <ele>1818</ele>
        <time>2026-06-15T14:26:25.000Z</time>
        <extensions>
          <ns3:TrackPointExtension>
            <ns3:atemp>20.0</ns3:atemp>
          </ns3:TrackPointExtension>
        </extensions>
      </trkpt>
      <trkpt lat="42.58955835364758968353271484375" lon="20.0091379322111606597900390625">
        <ele>1818</ele>
        <time>2026-06-15T14:26:26.000Z</time>
        <extensions>
          <ns3:TrackPointExtension>
            <ns3:atemp>20.0</ns3:atemp>
          </ns3:TrackPointExtension>
        </extensions>
      </trkpt>
      <trkpt lat="42.58955835364758968353271484375" lon="20.0091379322111606597900390625">
        <ele>1817.800048828125</ele>
        <time>2026-06-15T14:26:27.000Z</time>
        <extensions>
          <ns3:TrackPointExtension>
            <ns3:atemp>20.0</ns3:atemp>
          </ns3:TrackPointExtension>
        </extensions>
      </trkpt>
      <trkpt lat="42.58956220932304859161376953125" lon="20.0091272033751010894775390625">
        <ele>1817.800048828125</ele>
        <time>2026-06-15T14:26:28.000Z</time>
        <extensions>
          <ns3:TrackPointExtension>
            <ns3:atemp>20.0</ns3:atemp>
          </ns3:TrackPointExtension>
        </extensions>
      </trkpt>
      <trkpt lat="42.58955835364758968353271484375" lon="20.0091379322111606597900390625">
        <ele>1817.800048828125</ele>
        <time>2026-06-15T14:26:29.000Z</time>
        <extensions>
          <ns3:TrackPointExtension>
            <ns3:atemp>20.0</ns3:atemp>
          </ns3:TrackPointExtension>
        </extensions>
      </trkpt>
      <trkpt lat="42.58955835364758968353271484375" lon="20.0091379322111606597900390625">
        <ele>1817.5999755859375</ele>
        <time>2026-06-15T14:26:30.000Z</time>
        <extensions>
          <ns3:TrackPointExtension>
            <ns3:atemp>20.0</ns3:atemp>
          </ns3:TrackPointExtension>
        </extensions>
      </trkpt>
      <trkpt lat="42.58955835364758968353271484375" lon="20.0091379322111606597900390625">
        <ele>1817.5999755859375</ele>
        <time>2026-06-15T14:26:31.000Z</time>
        <extensions>
          <ns3:TrackPointExtension>
            <ns3:atemp>20.0</ns3:atemp>
          </ns3:TrackPointExtension>
        </extensions>
      </trkpt>
      <trkpt lat="42.58955835364758968353271484375" lon="20.0091379322111606597900390625">
        <ele>1817.5999755859375</ele>
        <time>2026-06-15T14:26:32.000Z</time>
        <extensions>
          <ns3:TrackPointExtension>
            <ns3:atemp>20.0</ns3:atemp>
          </ns3:TrackPointExtension>
        </extensions>
      </trkpt>
      <trkpt lat="42.58955835364758968353271484375" lon="20.0091379322111606597900390625">
        <ele>1817.4000244140625</ele>
        <time>2026-06-15T14:26:33.000Z</time>
        <extensions>
          <ns3:TrackPointExtension>
            <ns3:atemp>20.0</ns3:atemp>
          </ns3:TrackPointExtension>
        </extensions>
      </trkpt>
      <trkpt lat="42.58955835364758968353271484375" lon="20.0091379322111606597900390625">
        <ele>1817.4000244140625</ele>
        <time>2026-06-15T14:26:34.000Z</time>
        <extensions>
          <ns3:TrackPointExtension>
            <ns3:atemp>20.0</ns3:atemp>
          </ns3:TrackPointExtension>
        </extensions>
      </trkpt>
      <trkpt lat="42.58955835364758968353271484375" lon="20.0091379322111606597900390625">
        <ele>1817.4000244140625</ele>
        <time>2026-06-15T14:26:35.000Z</time>
        <extensions>
          <ns3:TrackPointExtension>
            <ns3:atemp>20.0</ns3:atemp>
          </ns3:TrackPointExtension>
        </extensions>
      </trkpt>
      <trkpt lat="42.58955835364758968353271484375" lon="20.0091379322111606597900390625">
        <ele>1817.199951171875</ele>
        <time>2026-06-15T14:26:36.000Z</time>
        <extensions>
          <ns3:TrackPointExtension>
            <ns3:atemp>20.0</ns3:atemp>
          </ns3:TrackPointExtension>
        </extensions>
      </trkpt>
      <trkpt lat="42.58955835364758968353271484375" lon="20.0091379322111606597900390625">
        <ele>1817.199951171875</ele>
        <time>2026-06-15T14:26:37.000Z</time>
        <extensions>
          <ns3:TrackPointExtension>
            <ns3:atemp>20.0</ns3:atemp>
          </ns3:TrackPointExtension>
        </extensions>
      </trkpt>
      <trkpt lat="42.58955835364758968353271484375" lon="20.0091379322111606597900390625">
        <ele>1817.199951171875</ele>
        <time>2026-06-15T14:26:38.000Z</time>
        <extensions>
          <ns3:TrackPointExtension>
            <ns3:atemp>20.0</ns3:atemp>
          </ns3:TrackPointExtension>
        </extensions>
      </trkpt>
      <trkpt lat="42.58955835364758968353271484375" lon="20.0091379322111606597900390625">
        <ele>1817.199951171875</ele>
        <time>2026-06-15T14:26:39.000Z</time>
        <extensions>
          <ns3:TrackPointExtension>
            <ns3:atemp>20.0</ns3:atemp>
          </ns3:TrackPointExtension>
        </extensions>
      </trkpt>
      <trkpt lat="42.58955835364758968353271484375" lon="20.0091379322111606597900390625">
        <ele>1817</ele>
        <time>2026-06-15T14:26:40.000Z</time>
        <extensions>
          <ns3:TrackPointExtension>
            <ns3:atemp>20.0</ns3:atemp>
          </ns3:TrackPointExtension>
        </extensions>
      </trkpt>
      <trkpt lat="42.58955835364758968353271484375" lon="20.0091379322111606597900390625">
        <ele>1817</ele>
        <time>2026-06-15T14:26:41.000Z</time>
        <extensions>
          <ns3:TrackPointExtension>
            <ns3:atemp>20.0</ns3:atemp>
          </ns3:TrackPointExtension>
        </extensions>
      </trkpt>
      <trkpt lat="42.58955835364758968353271484375" lon="20.0091379322111606597900390625">
        <ele>1817</ele>
        <time>2026-06-15T14:26:42.000Z</time>
        <extensions>
          <ns3:TrackPointExtension>
            <ns3:atemp>20.0</ns3:atemp>
          </ns3:TrackPointExtension>
        </extensions>
      </trkpt>
      <trkpt lat="42.58955835364758968353271484375" lon="20.0091379322111606597900390625">
        <ele>1817</ele>
        <time>2026-06-15T14:26:43.000Z</time>
        <extensions>
          <ns3:TrackPointExtension>
            <ns3:atemp>20.0</ns3:atemp>
          </ns3:TrackPointExtension>
        </extensions>
      </trkpt>
      <trkpt lat="42.58955835364758968353271484375" lon="20.0091379322111606597900390625">
        <ele>1816.800048828125</ele>
        <time>2026-06-15T14:26:44.000Z</time>
        <extensions>
          <ns3:TrackPointExtension>
            <ns3:atemp>20.0</ns3:atemp>
          </ns3:TrackPointExtension>
        </extensions>
      </trkpt>
      <trkpt lat="42.58955835364758968353271484375" lon="20.0091379322111606597900390625">
        <ele>1816.800048828125</ele>
        <time>2026-06-15T14:26:45.000Z</time>
        <extensions>
          <ns3:TrackPointExtension>
            <ns3:atemp>20.0</ns3:atemp>
          </ns3:TrackPointExtension>
        </extensions>
      </trkpt>
      <trkpt lat="42.58955835364758968353271484375" lon="20.0091379322111606597900390625">
        <ele>1816.800048828125</ele>
        <time>2026-06-15T14:26:46.000Z</time>
        <extensions>
          <ns3:TrackPointExtension>
            <ns3:atemp>20.0</ns3:atemp>
          </ns3:TrackPointExtension>
        </extensions>
      </trkpt>
      <trkpt lat="42.58955835364758968353271484375" lon="20.0091379322111606597900390625">
        <ele>1816.800048828125</ele>
        <time>2026-06-15T14:26:47.000Z</time>
        <extensions>
          <ns3:TrackPointExtension>
            <ns3:atemp>20.0</ns3:atemp>
          </ns3:TrackPointExtension>
        </extensions>
      </trkpt>
      <trkpt lat="42.58955835364758968353271484375" lon="20.0091379322111606597900390625">
        <ele>1816.800048828125</ele>
        <time>2026-06-15T14:26:48.000Z</time>
        <extensions>
          <ns3:TrackPointExtension>
            <ns3:atemp>20.0</ns3:atemp>
          </ns3:TrackPointExtension>
        </extensions>
      </trkpt>
      <trkpt lat="42.58955835364758968353271484375" lon="20.0091379322111606597900390625">
        <ele>1816.800048828125</ele>
        <time>2026-06-15T14:26:49.000Z</time>
        <extensions>
          <ns3:TrackPointExtension>
            <ns3:atemp>20.0</ns3:atemp>
          </ns3:TrackPointExtension>
        </extensions>
      </trkpt>
      <trkpt lat="42.58955835364758968353271484375" lon="20.0091379322111606597900390625">
        <ele>1816.800048828125</ele>
        <time>2026-06-15T14:26:50.000Z</time>
        <extensions>
          <ns3:TrackPointExtension>
            <ns3:atemp>20.0</ns3:atemp>
          </ns3:TrackPointExtension>
        </extensions>
      </trkpt>
      <trkpt lat="42.58955835364758968353271484375" lon="20.0091379322111606597900390625">
        <ele>1816.800048828125</ele>
        <time>2026-06-15T14:26:51.000Z</time>
        <extensions>
          <ns3:TrackPointExtension>
            <ns3:atemp>20.0</ns3:atemp>
          </ns3:TrackPointExtension>
        </extensions>
      </trkpt>
      <trkpt lat="42.58955835364758968353271484375" lon="20.0091379322111606597900390625">
        <ele>1816.800048828125</ele>
        <time>2026-06-15T14:26:52.000Z</time>
        <extensions>
          <ns3:TrackPointExtension>
            <ns3:atemp>20.0</ns3:atemp>
          </ns3:TrackPointExtension>
        </extensions>
      </trkpt>
      <trkpt lat="42.58955835364758968353271484375" lon="20.0091379322111606597900390625">
        <ele>1816.800048828125</ele>
        <time>2026-06-15T14:26:53.000Z</time>
        <extensions>
          <ns3:TrackPointExtension>
            <ns3:atemp>20.0</ns3:atemp>
          </ns3:TrackPointExtension>
        </extensions>
      </trkpt>
      <trkpt lat="42.58955835364758968353271484375" lon="20.0091379322111606597900390625">
        <ele>1816.800048828125</ele>
        <time>2026-06-15T14:26:54.000Z</time>
        <extensions>
          <ns3:TrackPointExtension>
            <ns3:atemp>20.0</ns3:atemp>
          </ns3:TrackPointExtension>
        </extensions>
      </trkpt>
      <trkpt lat="42.58955835364758968353271484375" lon="20.0091379322111606597900390625">
        <ele>1816.800048828125</ele>
        <time>2026-06-15T14:26:55.000Z</time>
        <extensions>
          <ns3:TrackPointExtension>
            <ns3:atemp>20.0</ns3:atemp>
          </ns3:TrackPointExtension>
        </extensions>
      </trkpt>
      <trkpt lat="42.58955835364758968353271484375" lon="20.0091379322111606597900390625">
        <ele>1816.800048828125</ele>
        <time>2026-06-15T14:26:56.000Z</time>
        <extensions>
          <ns3:TrackPointExtension>
            <ns3:atemp>20.0</ns3:atemp>
          </ns3:TrackPointExtension>
        </extensions>
      </trkpt>
      <trkpt lat="42.58955835364758968353271484375" lon="20.0091379322111606597900390625">
        <ele>1816.800048828125</ele>
        <time>2026-06-15T14:26:57.000Z</time>
        <extensions>
          <ns3:TrackPointExtension>
            <ns3:atemp>20.0</ns3:atemp>
          </ns3:TrackPointExtension>
        </extensions>
      </trkpt>
      <trkpt lat="42.58955835364758968353271484375" lon="20.0091379322111606597900390625">
        <ele>1816.800048828125</ele>
        <time>2026-06-15T14:26:58.000Z</time>
        <extensions>
          <ns3:TrackPointExtension>
            <ns3:atemp>20.0</ns3:atemp>
          </ns3:TrackPointExtension>
        </extensions>
      </trkpt>
      <trkpt lat="42.58955835364758968353271484375" lon="20.0091379322111606597900390625">
        <ele>1816.800048828125</ele>
        <time>2026-06-15T14:26:59.000Z</time>
        <extensions>
          <ns3:TrackPointExtension>
            <ns3:atemp>20.0</ns3:atemp>
          </ns3:TrackPointExtension>
        </extensions>
      </trkpt>
      <trkpt lat="42.58955835364758968353271484375" lon="20.0091379322111606597900390625">
        <ele>1817</ele>
        <time>2026-06-15T14:27:00.000Z</time>
        <extensions>
          <ns3:TrackPointExtension>
            <ns3:atemp>20.0</ns3:atemp>
          </ns3:TrackPointExtension>
        </extensions>
      </trkpt>
      <trkpt lat="42.58955835364758968353271484375" lon="20.0091379322111606597900390625">
        <ele>1817</ele>
        <time>2026-06-15T14:27:01.000Z</time>
        <extensions>
          <ns3:TrackPointExtension>
            <ns3:atemp>20.0</ns3:atemp>
          </ns3:TrackPointExtension>
        </extensions>
      </trkpt>
      <trkpt lat="42.58955835364758968353271484375" lon="20.0091379322111606597900390625">
        <ele>1817</ele>
        <time>2026-06-15T14:27:02.000Z</time>
        <extensions>
          <ns3:TrackPointExtension>
            <ns3:atemp>20.0</ns3:atemp>
          </ns3:TrackPointExtension>
        </extensions>
      </trkpt>
      <trkpt lat="42.58955835364758968353271484375" lon="20.0091379322111606597900390625">
        <ele>1817</ele>
        <time>2026-06-15T14:27:03.000Z</time>
        <extensions>
          <ns3:TrackPointExtension>
            <ns3:atemp>20.0</ns3:atemp>
          </ns3:TrackPointExtension>
        </extensions>
      </trkpt>
      <trkpt lat="42.58955835364758968353271484375" lon="20.0091379322111606597900390625">
        <ele>1816.800048828125</ele>
        <time>2026-06-15T14:27:04.000Z</time>
        <extensions>
          <ns3:TrackPointExtension>
            <ns3:atemp>20.0</ns3:atemp>
          </ns3:TrackPointExtension>
        </extensions>
      </trkpt>
      <trkpt lat="42.58955835364758968353271484375" lon="20.0091379322111606597900390625">
        <ele>1816.800048828125</ele>
        <time>2026-06-15T14:27:05.000Z</time>
        <extensions>
          <ns3:TrackPointExtension>
            <ns3:atemp>20.0</ns3:atemp>
          </ns3:TrackPointExtension>
        </extensions>
      </trkpt>
      <trkpt lat="42.58955835364758968353271484375" lon="20.0091379322111606597900390625">
        <ele>1816.800048828125</ele>
        <time>2026-06-15T14:27:06.000Z</time>
        <extensions>
          <ns3:TrackPointExtension>
            <ns3:atemp>20.0</ns3:atemp>
          </ns3:TrackPointExtension>
        </extensions>
      </trkpt>
      <trkpt lat="42.58955835364758968353271484375" lon="20.0091379322111606597900390625">
        <ele>1816.800048828125</ele>
        <time>2026-06-15T14:27:07.000Z</time>
        <extensions>
          <ns3:TrackPointExtension>
            <ns3:atemp>20.0</ns3:atemp>
          </ns3:TrackPointExtension>
        </extensions>
      </trkpt>
      <trkpt lat="42.58955835364758968353271484375" lon="20.0091379322111606597900390625">
        <ele>1816.800048828125</ele>
        <time>2026-06-15T14:27:08.000Z</time>
        <extensions>
          <ns3:TrackPointExtension>
            <ns3:atemp>20.0</ns3:atemp>
          </ns3:TrackPointExtension>
        </extensions>
      </trkpt>
      <trkpt lat="42.58955835364758968353271484375" lon="20.0091379322111606597900390625">
        <ele>1816.800048828125</ele>
        <time>2026-06-15T14:27:09.000Z</time>
        <extensions>
          <ns3:TrackPointExtension>
            <ns3:atemp>20.0</ns3:atemp>
          </ns3:TrackPointExtension>
        </extensions>
      </trkpt>
      <trkpt lat="42.58955835364758968353271484375" lon="20.0091379322111606597900390625">
        <ele>1816.800048828125</ele>
        <time>2026-06-15T14:27:10.000Z</time>
        <extensions>
          <ns3:TrackPointExtension>
            <ns3:atemp>20.0</ns3:atemp>
          </ns3:TrackPointExtension>
        </extensions>
      </trkpt>
      <trkpt lat="42.58955835364758968353271484375" lon="20.0091379322111606597900390625">
        <ele>1816.800048828125</ele>
        <time>2026-06-15T14:27:11.000Z</time>
        <extensions>
          <ns3:TrackPointExtension>
            <ns3:atemp>20.0</ns3:atemp>
          </ns3:TrackPointExtension>
        </extensions>
      </trkpt>
      <trkpt lat="42.58955835364758968353271484375" lon="20.0091379322111606597900390625">
        <ele>1816.5999755859375</ele>
        <time>2026-06-15T14:27:12.000Z</time>
        <extensions>
          <ns3:TrackPointExtension>
            <ns3:atemp>20.0</ns3:atemp>
          </ns3:TrackPointExtension>
        </extensions>
      </trkpt>
      <trkpt lat="42.58955835364758968353271484375" lon="20.0091379322111606597900390625">
        <ele>1816.5999755859375</ele>
        <time>2026-06-15T14:27:13.000Z</time>
        <extensions>
          <ns3:TrackPointExtension>
            <ns3:atemp>20.0</ns3:atemp>
          </ns3:TrackPointExtension>
        </extensions>
      </trkpt>
      <trkpt lat="42.58955835364758968353271484375" lon="20.0091379322111606597900390625">
        <ele>1816.800048828125</ele>
        <time>2026-06-15T14:27:14.000Z</time>
        <extensions>
          <ns3:TrackPointExtension>
            <ns3:atemp>20.0</ns3:atemp>
          </ns3:TrackPointExtension>
        </extensions>
      </trkpt>
      <trkpt lat="42.58955835364758968353271484375" lon="20.0091379322111606597900390625">
        <ele>1816.800048828125</ele>
        <time>2026-06-15T14:27:15.000Z</time>
        <extensions>
          <ns3:TrackPointExtension>
            <ns3:atemp>20.0</ns3:atemp>
          </ns3:TrackPointExtension>
        </extensions>
      </trkpt>
      <trkpt lat="42.58955835364758968353271484375" lon="20.0091379322111606597900390625">
        <ele>1816.800048828125</ele>
        <time>2026-06-15T14:27:16.000Z</time>
        <extensions>
          <ns3:TrackPointExtension>
            <ns3:atemp>20.0</ns3:atemp>
          </ns3:TrackPointExtension>
        </extensions>
      </trkpt>
      <trkpt lat="42.58955835364758968353271484375" lon="20.0091379322111606597900390625">
        <ele>1816.800048828125</ele>
        <time>2026-06-15T14:27:17.000Z</time>
        <extensions>
          <ns3:TrackPointExtension>
            <ns3:atemp>20.0</ns3:atemp>
          </ns3:TrackPointExtension>
        </extensions>
      </trkpt>
      <trkpt lat="42.58955835364758968353271484375" lon="20.0091379322111606597900390625">
        <ele>1816.800048828125</ele>
        <time>2026-06-15T14:27:18.000Z</time>
        <extensions>
          <ns3:TrackPointExtension>
            <ns3:atemp>20.0</ns3:atemp>
          </ns3:TrackPointExtension>
        </extensions>
      </trkpt>
      <trkpt lat="42.58955835364758968353271484375" lon="20.0091379322111606597900390625">
        <ele>1816.800048828125</ele>
        <time>2026-06-15T14:27:19.000Z</time>
        <extensions>
          <ns3:TrackPointExtension>
            <ns3:atemp>20.0</ns3:atemp>
          </ns3:TrackPointExtension>
        </extensions>
      </trkpt>
      <trkpt lat="42.58955835364758968353271484375" lon="20.0091379322111606597900390625">
        <ele>1816.800048828125</ele>
        <time>2026-06-15T14:27:20.000Z</time>
        <extensions>
          <ns3:TrackPointExtension>
            <ns3:atemp>20.0</ns3:atemp>
          </ns3:TrackPointExtension>
        </extensions>
      </trkpt>
      <trkpt lat="42.58955835364758968353271484375" lon="20.0091379322111606597900390625">
        <ele>1816.800048828125</ele>
        <time>2026-06-15T14:27:21.000Z</time>
        <extensions>
          <ns3:TrackPointExtension>
            <ns3:atemp>20.0</ns3:atemp>
          </ns3:TrackPointExtension>
        </extensions>
      </trkpt>
      <trkpt lat="42.58955835364758968353271484375" lon="20.0091379322111606597900390625">
        <ele>1816.800048828125</ele>
        <time>2026-06-15T14:27:22.000Z</time>
        <extensions>
          <ns3:TrackPointExtension>
            <ns3:atemp>20.0</ns3:atemp>
          </ns3:TrackPointExtension>
        </extensions>
      </trkpt>
      <trkpt lat="42.58955835364758968353271484375" lon="20.0091379322111606597900390625">
        <ele>1816.800048828125</ele>
        <time>2026-06-15T14:27:23.000Z</time>
        <extensions>
          <ns3:TrackPointExtension>
            <ns3:atemp>20.0</ns3:atemp>
          </ns3:TrackPointExtension>
        </extensions>
      </trkpt>
      <trkpt lat="42.58955835364758968353271484375" lon="20.0091379322111606597900390625">
        <ele>1816.800048828125</ele>
        <time>2026-06-15T14:27:24.000Z</time>
        <extensions>
          <ns3:TrackPointExtension>
            <ns3:atemp>20.0</ns3:atemp>
          </ns3:TrackPointExtension>
        </extensions>
      </trkpt>
      <trkpt lat="42.58955835364758968353271484375" lon="20.0091379322111606597900390625">
        <ele>1816.800048828125</ele>
        <time>2026-06-15T14:27:25.000Z</time>
        <extensions>
          <ns3:TrackPointExtension>
            <ns3:atemp>20.0</ns3:atemp>
          </ns3:TrackPointExtension>
        </extensions>
      </trkpt>
      <trkpt lat="42.58955835364758968353271484375" lon="20.0091379322111606597900390625">
        <ele>1816.800048828125</ele>
        <time>2026-06-15T14:27:26.000Z</time>
        <extensions>
          <ns3:TrackPointExtension>
            <ns3:atemp>20.0</ns3:atemp>
          </ns3:TrackPointExtension>
        </extensions>
      </trkpt>
      <trkpt lat="42.58955835364758968353271484375" lon="20.0091379322111606597900390625">
        <ele>1816.800048828125</ele>
        <time>2026-06-15T14:27:27.000Z</time>
        <extensions>
          <ns3:TrackPointExtension>
            <ns3:atemp>20.0</ns3:atemp>
          </ns3:TrackPointExtension>
        </extensions>
      </trkpt>
      <trkpt lat="42.58955835364758968353271484375" lon="20.0091379322111606597900390625">
        <ele>1816.800048828125</ele>
        <time>2026-06-15T14:27:28.000Z</time>
        <extensions>
          <ns3:TrackPointExtension>
            <ns3:atemp>20.0</ns3:atemp>
          </ns3:TrackPointExtension>
        </extensions>
      </trkpt>
      <trkpt lat="42.58955835364758968353271484375" lon="20.0091379322111606597900390625">
        <ele>1816.800048828125</ele>
        <time>2026-06-15T14:27:29.000Z</time>
        <extensions>
          <ns3:TrackPointExtension>
            <ns3:atemp>20.0</ns3:atemp>
          </ns3:TrackPointExtension>
        </extensions>
      </trkpt>
      <trkpt lat="42.58955835364758968353271484375" lon="20.0091379322111606597900390625">
        <ele>1816.800048828125</ele>
        <time>2026-06-15T14:27:30.000Z</time>
        <extensions>
          <ns3:TrackPointExtension>
            <ns3:atemp>20.0</ns3:atemp>
          </ns3:TrackPointExtension>
        </extensions>
      </trkpt>
      <trkpt lat="42.58955835364758968353271484375" lon="20.0091379322111606597900390625">
        <ele>1816.800048828125</ele>
        <time>2026-06-15T14:27:31.000Z</time>
        <extensions>
          <ns3:TrackPointExtension>
            <ns3:atemp>20.0</ns3:atemp>
          </ns3:TrackPointExtension>
        </extensions>
      </trkpt>
      <trkpt lat="42.58955835364758968353271484375" lon="20.0091379322111606597900390625">
        <ele>1816.800048828125</ele>
        <time>2026-06-15T14:27:32.000Z</time>
        <extensions>
          <ns3:TrackPointExtension>
            <ns3:atemp>20.0</ns3:atemp>
          </ns3:TrackPointExtension>
        </extensions>
      </trkpt>
      <trkpt lat="42.58955835364758968353271484375" lon="20.0091379322111606597900390625">
        <ele>1816.800048828125</ele>
        <time>2026-06-15T14:27:33.000Z</time>
        <extensions>
          <ns3:TrackPointExtension>
            <ns3:atemp>20.0</ns3:atemp>
          </ns3:TrackPointExtension>
        </extensions>
      </trkpt>
      <trkpt lat="42.58955835364758968353271484375" lon="20.0091379322111606597900390625">
        <ele>1816.5999755859375</ele>
        <time>2026-06-15T14:27:34.000Z</time>
        <extensions>
          <ns3:TrackPointExtension>
            <ns3:atemp>20.0</ns3:atemp>
          </ns3:TrackPointExtension>
        </extensions>
      </trkpt>
      <trkpt lat="42.58955835364758968353271484375" lon="20.0091379322111606597900390625">
        <ele>1816.5999755859375</ele>
        <time>2026-06-15T14:27:35.000Z</time>
        <extensions>
          <ns3:TrackPointExtension>
            <ns3:atemp>20.0</ns3:atemp>
          </ns3:TrackPointExtension>
        </extensions>
      </trkpt>
      <trkpt lat="42.58955835364758968353271484375" lon="20.0091379322111606597900390625">
        <ele>1816.5999755859375</ele>
        <time>2026-06-15T14:27:36.000Z</time>
        <extensions>
          <ns3:TrackPointExtension>
            <ns3:atemp>20.0</ns3:atemp>
          </ns3:TrackPointExtension>
        </extensions>
      </trkpt>
      <trkpt lat="42.58955835364758968353271484375" lon="20.0091379322111606597900390625">
        <ele>1816.5999755859375</ele>
        <time>2026-06-15T14:27:37.000Z</time>
        <extensions>
          <ns3:TrackPointExtension>
            <ns3:atemp>20.0</ns3:atemp>
          </ns3:TrackPointExtension>
        </extensions>
      </trkpt>
      <trkpt lat="42.58955835364758968353271484375" lon="20.0091379322111606597900390625">
        <ele>1816.5999755859375</ele>
        <time>2026-06-15T14:27:38.000Z</time>
        <extensions>
          <ns3:TrackPointExtension>
            <ns3:atemp>20.0</ns3:atemp>
          </ns3:TrackPointExtension>
        </extensions>
      </trkpt>
      <trkpt lat="42.58955835364758968353271484375" lon="20.0091379322111606597900390625">
        <ele>1816.5999755859375</ele>
        <time>2026-06-15T14:27:39.000Z</time>
        <extensions>
          <ns3:TrackPointExtension>
            <ns3:atemp>20.0</ns3:atemp>
          </ns3:TrackPointExtension>
        </extensions>
      </trkpt>
      <trkpt lat="42.58955835364758968353271484375" lon="20.0091379322111606597900390625">
        <ele>1816.4000244140625</ele>
        <time>2026-06-15T14:27:40.000Z</time>
        <extensions>
          <ns3:TrackPointExtension>
            <ns3:atemp>20.0</ns3:atemp>
          </ns3:TrackPointExtension>
        </extensions>
      </trkpt>
      <trkpt lat="42.58955835364758968353271484375" lon="20.0091379322111606597900390625">
        <ele>1816.4000244140625</ele>
        <time>2026-06-15T14:27:41.000Z</time>
        <extensions>
          <ns3:TrackPointExtension>
            <ns3:atemp>20.0</ns3:atemp>
          </ns3:TrackPointExtension>
        </extensions>
      </trkpt>
      <trkpt lat="42.58955835364758968353271484375" lon="20.0091379322111606597900390625">
        <ele>1816.4000244140625</ele>
        <time>2026-06-15T14:27:42.000Z</time>
        <extensions>
          <ns3:TrackPointExtension>
            <ns3:atemp>20.0</ns3:atemp>
          </ns3:TrackPointExtension>
        </extensions>
      </trkpt>
      <trkpt lat="42.58955835364758968353271484375" lon="20.0091379322111606597900390625">
        <ele>1816.4000244140625</ele>
        <time>2026-06-15T14:27:43.000Z</time>
        <extensions>
          <ns3:TrackPointExtension>
            <ns3:atemp>20.0</ns3:atemp>
          </ns3:TrackPointExtension>
        </extensions>
      </trkpt>
      <trkpt lat="42.58955835364758968353271484375" lon="20.0091379322111606597900390625">
        <ele>1816.4000244140625</ele>
        <time>2026-06-15T14:27:44.000Z</time>
        <extensions>
          <ns3:TrackPointExtension>
            <ns3:atemp>20.0</ns3:atemp>
          </ns3:TrackPointExtension>
        </extensions>
      </trkpt>
      <trkpt lat="42.58955835364758968353271484375" lon="20.0091379322111606597900390625">
        <ele>1816.5999755859375</ele>
        <time>2026-06-15T14:27:45.000Z</time>
        <extensions>
          <ns3:TrackPointExtension>
            <ns3:atemp>20.0</ns3:atemp>
          </ns3:TrackPointExtension>
        </extensions>
      </trkpt>
      <trkpt lat="42.58955835364758968353271484375" lon="20.0091379322111606597900390625">
        <ele>1816.5999755859375</ele>
        <time>2026-06-15T14:27:46.000Z</time>
        <extensions>
          <ns3:TrackPointExtension>
            <ns3:atemp>20.0</ns3:atemp>
          </ns3:TrackPointExtension>
        </extensions>
      </trkpt>
      <trkpt lat="42.58955835364758968353271484375" lon="20.0091379322111606597900390625">
        <ele>1816.5999755859375</ele>
        <time>2026-06-15T14:27:47.000Z</time>
        <extensions>
          <ns3:TrackPointExtension>
            <ns3:atemp>20.0</ns3:atemp>
          </ns3:TrackPointExtension>
        </extensions>
      </trkpt>
      <trkpt lat="42.58955835364758968353271484375" lon="20.0091379322111606597900390625">
        <ele>1816.5999755859375</ele>
        <time>2026-06-15T14:27:48.000Z</time>
        <extensions>
          <ns3:TrackPointExtension>
            <ns3:atemp>20.0</ns3:atemp>
          </ns3:TrackPointExtension>
        </extensions>
      </trkpt>
      <trkpt lat="42.58955835364758968353271484375" lon="20.0091379322111606597900390625">
        <ele>1816.5999755859375</ele>
        <time>2026-06-15T14:27:49.000Z</time>
        <extensions>
          <ns3:TrackPointExtension>
            <ns3:atemp>20.0</ns3:atemp>
          </ns3:TrackPointExtension>
        </extensions>
      </trkpt>
      <trkpt lat="42.58955835364758968353271484375" lon="20.0091379322111606597900390625">
        <ele>1816.5999755859375</ele>
        <time>2026-06-15T14:27:50.000Z</time>
        <extensions>
          <ns3:TrackPointExtension>
            <ns3:atemp>20.0</ns3:atemp>
          </ns3:TrackPointExtension>
        </extensions>
      </trkpt>
      <trkpt lat="42.58955835364758968353271484375" lon="20.0091379322111606597900390625">
        <ele>1816.5999755859375</ele>
        <time>2026-06-15T14:27:51.000Z</time>
        <extensions>
          <ns3:TrackPointExtension>
            <ns3:atemp>20.0</ns3:atemp>
          </ns3:TrackPointExtension>
        </extensions>
      </trkpt>
      <trkpt lat="42.58955835364758968353271484375" lon="20.0091379322111606597900390625">
        <ele>1816.5999755859375</ele>
        <time>2026-06-15T14:27:52.000Z</time>
        <extensions>
          <ns3:TrackPointExtension>
            <ns3:atemp>20.0</ns3:atemp>
          </ns3:TrackPointExtension>
        </extensions>
      </trkpt>
      <trkpt lat="42.58955835364758968353271484375" lon="20.0091379322111606597900390625">
        <ele>1816.5999755859375</ele>
        <time>2026-06-15T14:27:53.000Z</time>
        <extensions>
          <ns3:TrackPointExtension>
            <ns3:atemp>20.0</ns3:atemp>
          </ns3:TrackPointExtension>
        </extensions>
      </trkpt>
      <trkpt lat="42.58955835364758968353271484375" lon="20.0091379322111606597900390625">
        <ele>1816.5999755859375</ele>
        <time>2026-06-15T14:27:54.000Z</time>
        <extensions>
          <ns3:TrackPointExtension>
            <ns3:atemp>20.0</ns3:atemp>
          </ns3:TrackPointExtension>
        </extensions>
      </trkpt>
      <trkpt lat="42.58955835364758968353271484375" lon="20.0091379322111606597900390625">
        <ele>1816.5999755859375</ele>
        <time>2026-06-15T14:27:55.000Z</time>
        <extensions>
          <ns3:TrackPointExtension>
            <ns3:atemp>20.0</ns3:atemp>
          </ns3:TrackPointExtension>
        </extensions>
      </trkpt>
      <trkpt lat="42.58955835364758968353271484375" lon="20.0091379322111606597900390625">
        <ele>1816.5999755859375</ele>
        <time>2026-06-15T14:27:56.000Z</time>
        <extensions>
          <ns3:TrackPointExtension>
            <ns3:atemp>20.0</ns3:atemp>
          </ns3:TrackPointExtension>
        </extensions>
      </trkpt>
      <trkpt lat="42.58955835364758968353271484375" lon="20.0091379322111606597900390625">
        <ele>1816.5999755859375</ele>
        <time>2026-06-15T14:27:57.000Z</time>
        <extensions>
          <ns3:TrackPointExtension>
            <ns3:atemp>20.0</ns3:atemp>
          </ns3:TrackPointExtension>
        </extensions>
      </trkpt>
      <trkpt lat="42.58955835364758968353271484375" lon="20.0091379322111606597900390625">
        <ele>1816.4000244140625</ele>
        <time>2026-06-15T14:27:58.000Z</time>
        <extensions>
          <ns3:TrackPointExtension>
            <ns3:atemp>20.0</ns3:atemp>
          </ns3:TrackPointExtension>
        </extensions>
      </trkpt>
      <trkpt lat="42.58955835364758968353271484375" lon="20.0091379322111606597900390625">
        <ele>1816.4000244140625</ele>
        <time>2026-06-15T14:27:59.000Z</time>
        <extensions>
          <ns3:TrackPointExtension>
            <ns3:atemp>20.0</ns3:atemp>
          </ns3:TrackPointExtension>
        </extensions>
      </trkpt>
      <trkpt lat="42.58955835364758968353271484375" lon="20.0091379322111606597900390625">
        <ele>1816.5999755859375</ele>
        <time>2026-06-15T14:28:00.000Z</time>
        <extensions>
          <ns3:TrackPointExtension>
            <ns3:atemp>20.0</ns3:atemp>
          </ns3:TrackPointExtension>
        </extensions>
      </trkpt>
      <trkpt lat="42.58955835364758968353271484375" lon="20.0091379322111606597900390625">
        <ele>1816.5999755859375</ele>
        <time>2026-06-15T14:28:01.000Z</time>
        <extensions>
          <ns3:TrackPointExtension>
            <ns3:atemp>20.0</ns3:atemp>
          </ns3:TrackPointExtension>
        </extensions>
      </trkpt>
      <trkpt lat="42.58955835364758968353271484375" lon="20.0091379322111606597900390625">
        <ele>1816.5999755859375</ele>
        <time>2026-06-15T14:28:02.000Z</time>
        <extensions>
          <ns3:TrackPointExtension>
            <ns3:atemp>20.0</ns3:atemp>
          </ns3:TrackPointExtension>
        </extensions>
      </trkpt>
      <trkpt lat="42.58955835364758968353271484375" lon="20.0091379322111606597900390625">
        <ele>1816.5999755859375</ele>
        <time>2026-06-15T14:28:03.000Z</time>
        <extensions>
          <ns3:TrackPointExtension>
            <ns3:atemp>20.0</ns3:atemp>
          </ns3:TrackPointExtension>
        </extensions>
      </trkpt>
      <trkpt lat="42.58955835364758968353271484375" lon="20.0091379322111606597900390625">
        <ele>1816.5999755859375</ele>
        <time>2026-06-15T14:28:04.000Z</time>
        <extensions>
          <ns3:TrackPointExtension>
            <ns3:atemp>20.0</ns3:atemp>
          </ns3:TrackPointExtension>
        </extensions>
      </trkpt>
      <trkpt lat="42.58955835364758968353271484375" lon="20.0091379322111606597900390625">
        <ele>1816.5999755859375</ele>
        <time>2026-06-15T14:28:05.000Z</time>
        <extensions>
          <ns3:TrackPointExtension>
            <ns3:atemp>20.0</ns3:atemp>
          </ns3:TrackPointExtension>
        </extensions>
      </trkpt>
      <trkpt lat="42.58955835364758968353271484375" lon="20.0091379322111606597900390625">
        <ele>1816.5999755859375</ele>
        <time>2026-06-15T14:28:06.000Z</time>
        <extensions>
          <ns3:TrackPointExtension>
            <ns3:atemp>20.0</ns3:atemp>
          </ns3:TrackPointExtension>
        </extensions>
      </trkpt>
      <trkpt lat="42.58955835364758968353271484375" lon="20.0091379322111606597900390625">
        <ele>1816.5999755859375</ele>
        <time>2026-06-15T14:28:07.000Z</time>
        <extensions>
          <ns3:TrackPointExtension>
            <ns3:atemp>20.0</ns3:atemp>
          </ns3:TrackPointExtension>
        </extensions>
      </trkpt>
      <trkpt lat="42.58955835364758968353271484375" lon="20.0091379322111606597900390625">
        <ele>1816.5999755859375</ele>
        <time>2026-06-15T14:28:08.000Z</time>
        <extensions>
          <ns3:TrackPointExtension>
            <ns3:atemp>20.0</ns3:atemp>
          </ns3:TrackPointExtension>
        </extensions>
      </trkpt>
      <trkpt lat="42.58955835364758968353271484375" lon="20.0091379322111606597900390625">
        <ele>1816.5999755859375</ele>
        <time>2026-06-15T14:28:09.000Z</time>
        <extensions>
          <ns3:TrackPointExtension>
            <ns3:atemp>20.0</ns3:atemp>
          </ns3:TrackPointExtension>
        </extensions>
      </trkpt>
      <trkpt lat="42.58955835364758968353271484375" lon="20.0091379322111606597900390625">
        <ele>1816.4000244140625</ele>
        <time>2026-06-15T14:28:10.000Z</time>
        <extensions>
          <ns3:TrackPointExtension>
            <ns3:atemp>20.0</ns3:atemp>
          </ns3:TrackPointExtension>
        </extensions>
      </trkpt>
      <trkpt lat="42.58955835364758968353271484375" lon="20.0091379322111606597900390625">
        <ele>1816.4000244140625</ele>
        <time>2026-06-15T14:28:11.000Z</time>
        <extensions>
          <ns3:TrackPointExtension>
            <ns3:atemp>20.0</ns3:atemp>
          </ns3:TrackPointExtension>
        </extensions>
      </trkpt>
      <trkpt lat="42.58955852128565311431884765625" lon="20.00911940820515155792236328125">
        <ele>1816.4000244140625</ele>
        <time>2026-06-15T14:28:12.000Z</time>
        <extensions>
          <ns3:TrackPointExtension>
            <ns3:atemp>20.0</ns3:atemp>
          </ns3:TrackPointExtension>
        </extensions>
      </trkpt>
      <trkpt lat="42.58955843746662139892578125" lon="20.0091188214719295501708984375">
        <ele>1816.5999755859375</ele>
        <time>2026-06-15T14:28:13.000Z</time>
        <extensions>
          <ns3:TrackPointExtension>
            <ns3:atemp>20.0</ns3:atemp>
          </ns3:TrackPointExtension>
        </extensions>
      </trkpt>
      <trkpt lat="42.58955843746662139892578125" lon="20.0091188214719295501708984375">
        <ele>1816.5999755859375</ele>
        <time>2026-06-15T14:28:14.000Z</time>
        <extensions>
          <ns3:TrackPointExtension>
            <ns3:atemp>20.0</ns3:atemp>
          </ns3:TrackPointExtension>
        </extensions>
      </trkpt>
      <trkpt lat="42.58955843746662139892578125" lon="20.0091188214719295501708984375">
        <ele>1816.5999755859375</ele>
        <time>2026-06-15T14:28:15.000Z</time>
        <extensions>
          <ns3:TrackPointExtension>
            <ns3:atemp>20.0</ns3:atemp>
          </ns3:TrackPointExtension>
        </extensions>
      </trkpt>
      <trkpt lat="42.58955843746662139892578125" lon="20.0091188214719295501708984375">
        <ele>1816.5999755859375</ele>
        <time>2026-06-15T14:28:16.000Z</time>
        <extensions>
          <ns3:TrackPointExtension>
            <ns3:atemp>20.0</ns3:atemp>
          </ns3:TrackPointExtension>
        </extensions>
      </trkpt>
      <trkpt lat="42.58955843746662139892578125" lon="20.0091188214719295501708984375">
        <ele>1816.5999755859375</ele>
        <time>2026-06-15T14:28:17.000Z</time>
        <extensions>
          <ns3:TrackPointExtension>
            <ns3:atemp>20.0</ns3:atemp>
          </ns3:TrackPointExtension>
        </extensions>
      </trkpt>
      <trkpt lat="42.58955843746662139892578125" lon="20.0091188214719295501708984375">
        <ele>1816.5999755859375</ele>
        <time>2026-06-15T14:28:18.000Z</time>
        <extensions>
          <ns3:TrackPointExtension>
            <ns3:atemp>20.0</ns3:atemp>
          </ns3:TrackPointExtension>
        </extensions>
      </trkpt>
      <trkpt lat="42.58955843746662139892578125" lon="20.0091188214719295501708984375">
        <ele>1816.5999755859375</ele>
        <time>2026-06-15T14:28:19.000Z</time>
        <extensions>
          <ns3:TrackPointExtension>
            <ns3:atemp>20.0</ns3:atemp>
          </ns3:TrackPointExtension>
        </extensions>
      </trkpt>
      <trkpt lat="42.58955843746662139892578125" lon="20.0091188214719295501708984375">
        <ele>1816.5999755859375</ele>
        <time>2026-06-15T14:28:20.000Z</time>
        <extensions>
          <ns3:TrackPointExtension>
            <ns3:atemp>20.0</ns3:atemp>
          </ns3:TrackPointExtension>
        </extensions>
      </trkpt>
      <trkpt lat="42.58955843746662139892578125" lon="20.0091188214719295501708984375">
        <ele>1816.5999755859375</ele>
        <time>2026-06-15T14:28:21.000Z</time>
        <extensions>
          <ns3:TrackPointExtension>
            <ns3:atemp>20.0</ns3:atemp>
          </ns3:TrackPointExtension>
        </extensions>
      </trkpt>
      <trkpt lat="42.58955843746662139892578125" lon="20.0091188214719295501708984375">
        <ele>1816.5999755859375</ele>
        <time>2026-06-15T14:28:22.000Z</time>
        <extensions>
          <ns3:TrackPointExtension>
            <ns3:atemp>20.0</ns3:atemp>
          </ns3:TrackPointExtension>
        </extensions>
      </trkpt>
      <trkpt lat="42.58955785073339939117431640625" lon="20.00911203213036060333251953125">
        <ele>1816.5999755859375</ele>
        <time>2026-06-15T14:28:23.000Z</time>
        <extensions>
          <ns3:TrackPointExtension>
            <ns3:atemp>20.0</ns3:atemp>
          </ns3:TrackPointExtension>
        </extensions>
      </trkpt>
      <trkpt lat="42.58955466561019420623779296875" lon="20.00908168964087963104248046875">
        <ele>1816.5999755859375</ele>
        <time>2026-06-15T14:28:24.000Z</time>
        <extensions>
          <ns3:TrackPointExtension>
            <ns3:atemp>20.0</ns3:atemp>
          </ns3:TrackPointExtension>
        </extensions>
      </trkpt>
      <trkpt lat="42.58954494260251522064208984375" lon="20.00905889086425304412841796875">
        <ele>1816.5999755859375</ele>
        <time>2026-06-15T14:28:25.000Z</time>
        <extensions>
          <ns3:TrackPointExtension>
            <ns3:atemp>20.0</ns3:atemp>
          </ns3:TrackPointExtension>
        </extensions>
      </trkpt>
      <trkpt lat="42.58954695425927639007568359375" lon="20.009051598608493804931640625">
        <ele>1816.5999755859375</ele>
        <time>2026-06-15T14:28:26.000Z</time>
        <extensions>
          <ns3:TrackPointExtension>
            <ns3:atemp>20.0</ns3:atemp>
          </ns3:TrackPointExtension>
        </extensions>
      </trkpt>
      <trkpt lat="42.58954846300184726715087890625" lon="20.0090423785150051116943359375">
        <ele>1816.5999755859375</ele>
        <time>2026-06-15T14:28:27.000Z</time>
        <extensions>
          <ns3:TrackPointExtension>
            <ns3:atemp>20.0</ns3:atemp>
          </ns3:TrackPointExtension>
        </extensions>
      </trkpt>
      <trkpt lat="42.58955298922955989837646484375" lon="20.00903894193470478057861328125">
        <ele>1816.5999755859375</ele>
        <time>2026-06-15T14:28:28.000Z</time>
        <extensions>
          <ns3:TrackPointExtension>
            <ns3:atemp>20.0</ns3:atemp>
          </ns3:TrackPointExtension>
        </extensions>
      </trkpt>
      <trkpt lat="42.58955466561019420623779296875" lon="20.00904531218111515045166015625">
        <ele>1816.5999755859375</ele>
        <time>2026-06-15T14:28:29.000Z</time>
        <extensions>
          <ns3:TrackPointExtension>
            <ns3:atemp>20.0</ns3:atemp>
          </ns3:TrackPointExtension>
        </extensions>
      </trkpt>
      <trkpt lat="42.58955416269600391387939453125" lon="20.009046904742717742919921875">
        <ele>1816.5999755859375</ele>
        <time>2026-06-15T14:28:30.000Z</time>
        <extensions>
          <ns3:TrackPointExtension>
            <ns3:atemp>20.0</ns3:atemp>
          </ns3:TrackPointExtension>
        </extensions>
      </trkpt>
      <trkpt lat="42.5895542465150356292724609375" lon="20.00904665328562259674072265625">
        <ele>1816.5999755859375</ele>
        <time>2026-06-15T14:28:31.000Z</time>
        <extensions>
          <ns3:TrackPointExtension>
            <ns3:atemp>20.0</ns3:atemp>
          </ns3:TrackPointExtension>
        </extensions>
      </trkpt>
      <trkpt lat="42.5895542465150356292724609375" lon="20.00904665328562259674072265625">
        <ele>1816.5999755859375</ele>
        <time>2026-06-15T14:28:32.000Z</time>
        <extensions>
          <ns3:TrackPointExtension>
            <ns3:atemp>20.0</ns3:atemp>
          </ns3:TrackPointExtension>
        </extensions>
      </trkpt>
      <trkpt lat="42.5895545817911624908447265625" lon="20.009046234190464019775390625">
        <ele>1816.5999755859375</ele>
        <time>2026-06-15T14:28:33.000Z</time>
        <extensions>
          <ns3:TrackPointExtension>
            <ns3:atemp>20.0</ns3:atemp>
          </ns3:TrackPointExtension>
        </extensions>
      </trkpt>
      <trkpt lat="42.58956857956945896148681640625" lon="20.009038858115673065185546875">
        <ele>1816.5999755859375</ele>
        <time>2026-06-15T14:28:34.000Z</time>
        <extensions>
          <ns3:TrackPointExtension>
            <ns3:atemp>20.0</ns3:atemp>
          </ns3:TrackPointExtension>
        </extensions>
      </trkpt>
      <trkpt lat="42.58958366699516773223876953125" lon="20.00902687199413776397705078125">
        <ele>1816.5999755859375</ele>
        <time>2026-06-15T14:28:35.000Z</time>
        <extensions>
          <ns3:TrackPointExtension>
            <ns3:atemp>20.0</ns3:atemp>
          </ns3:TrackPointExtension>
        </extensions>
      </trkpt>
      <trkpt lat="42.5895867682993412017822265625" lon="20.0090152211487293243408203125">
        <ele>1816.5999755859375</ele>
        <time>2026-06-15T14:28:36.000Z</time>
        <extensions>
          <ns3:TrackPointExtension>
            <ns3:atemp>20.0</ns3:atemp>
          </ns3:TrackPointExtension>
        </extensions>
      </trkpt>
      <trkpt lat="42.589587606489658355712890625" lon="20.00900306738913059234619140625">
        <ele>1816.5999755859375</ele>
        <time>2026-06-15T14:28:37.000Z</time>
        <extensions>
          <ns3:TrackPointExtension>
            <ns3:atemp>20.0</ns3:atemp>
          </ns3:TrackPointExtension>
        </extensions>
      </trkpt>
      <trkpt lat="42.58959003724157810211181640625" lon="20.0089877285063266754150390625">
        <ele>1816.5999755859375</ele>
        <time>2026-06-15T14:28:38.000Z</time>
        <extensions>
          <ns3:TrackPointExtension>
            <ns3:atemp>20.0</ns3:atemp>
          </ns3:TrackPointExtension>
        </extensions>
      </trkpt>
      <trkpt lat="42.58959892205893993377685546875" lon="20.00896870158612728118896484375">
        <ele>1816.5999755859375</ele>
        <time>2026-06-15T14:28:39.000Z</time>
        <extensions>
          <ns3:TrackPointExtension>
            <ns3:atemp>20.0</ns3:atemp>
          </ns3:TrackPointExtension>
        </extensions>
      </trkpt>
      <trkpt lat="42.589598335325717926025390625" lon="20.00894992612302303314208984375">
        <ele>1816.5999755859375</ele>
        <time>2026-06-15T14:28:40.000Z</time>
        <extensions>
          <ns3:TrackPointExtension>
            <ns3:atemp>20.0</ns3:atemp>
          </ns3:TrackPointExtension>
        </extensions>
      </trkpt>
      <trkpt lat="42.58959707804024219512939453125" lon="20.0089317373931407928466796875">
        <ele>1816.800048828125</ele>
        <time>2026-06-15T14:28:41.000Z</time>
        <extensions>
          <ns3:TrackPointExtension>
            <ns3:atemp>20.0</ns3:atemp>
          </ns3:TrackPointExtension>
        </extensions>
      </trkpt>
      <trkpt lat="42.5895991735160350799560546875" lon="20.00892478041350841522216796875">
        <ele>1816.800048828125</ele>
        <time>2026-06-15T14:28:42.000Z</time>
        <extensions>
          <ns3:TrackPointExtension>
            <ns3:atemp>20.0</ns3:atemp>
          </ns3:TrackPointExtension>
        </extensions>
      </trkpt>
      <trkpt lat="42.58960093371570110321044921875" lon="20.00892763026058673858642578125">
        <ele>1816.800048828125</ele>
        <time>2026-06-15T14:28:43.000Z</time>
        <extensions>
          <ns3:TrackPointExtension>
            <ns3:atemp>20.0</ns3:atemp>
          </ns3:TrackPointExtension>
        </extensions>
      </trkpt>
      <trkpt lat="42.58960093371570110321044921875" lon="20.0089277140796184539794921875">
        <ele>1816.800048828125</ele>
        <time>2026-06-15T14:28:44.000Z</time>
        <extensions>
          <ns3:TrackPointExtension>
            <ns3:atemp>20.0</ns3:atemp>
          </ns3:TrackPointExtension>
        </extensions>
      </trkpt>
      <trkpt lat="42.58960093371570110321044921875" lon="20.0089277140796184539794921875">
        <ele>1816.800048828125</ele>
        <time>2026-06-15T14:28:45.000Z</time>
        <extensions>
          <ns3:TrackPointExtension>
            <ns3:atemp>20.0</ns3:atemp>
          </ns3:TrackPointExtension>
        </extensions>
      </trkpt>
      <trkpt lat="42.58960093371570110321044921875" lon="20.0089277140796184539794921875">
        <ele>1816.800048828125</ele>
        <time>2026-06-15T14:28:46.000Z</time>
        <extensions>
          <ns3:TrackPointExtension>
            <ns3:atemp>20.0</ns3:atemp>
          </ns3:TrackPointExtension>
        </extensions>
      </trkpt>
      <trkpt lat="42.58960093371570110321044921875" lon="20.0089277140796184539794921875">
        <ele>1816.800048828125</ele>
        <time>2026-06-15T14:28:47.000Z</time>
        <extensions>
          <ns3:TrackPointExtension>
            <ns3:atemp>20.0</ns3:atemp>
          </ns3:TrackPointExtension>
        </extensions>
      </trkpt>
      <trkpt lat="42.58960093371570110321044921875" lon="20.0089277140796184539794921875">
        <ele>1817</ele>
        <time>2026-06-15T14:28:48.000Z</time>
        <extensions>
          <ns3:TrackPointExtension>
            <ns3:atemp>20.0</ns3:atemp>
          </ns3:TrackPointExtension>
        </extensions>
      </trkpt>
      <trkpt lat="42.58960093371570110321044921875" lon="20.0089277140796184539794921875">
        <ele>1817</ele>
        <time>2026-06-15T14:28:49.000Z</time>
        <extensions>
          <ns3:TrackPointExtension>
            <ns3:atemp>20.0</ns3:atemp>
          </ns3:TrackPointExtension>
        </extensions>
      </trkpt>
      <trkpt lat="42.58960093371570110321044921875" lon="20.0089277140796184539794921875">
        <ele>1817</ele>
        <time>2026-06-15T14:28:50.000Z</time>
        <extensions>
          <ns3:TrackPointExtension>
            <ns3:atemp>20.0</ns3:atemp>
          </ns3:TrackPointExtension>
        </extensions>
      </trkpt>
      <trkpt lat="42.58960093371570110321044921875" lon="20.0089277140796184539794921875">
        <ele>1817.199951171875</ele>
        <time>2026-06-15T14:28:51.000Z</time>
        <extensions>
          <ns3:TrackPointExtension>
            <ns3:atemp>20.0</ns3:atemp>
          </ns3:TrackPointExtension>
        </extensions>
      </trkpt>
      <trkpt lat="42.58960093371570110321044921875" lon="20.0089277140796184539794921875">
        <ele>1817.199951171875</ele>
        <time>2026-06-15T14:28:52.000Z</time>
        <extensions>
          <ns3:TrackPointExtension>
            <ns3:atemp>20.0</ns3:atemp>
          </ns3:TrackPointExtension>
        </extensions>
      </trkpt>
      <trkpt lat="42.58960093371570110321044921875" lon="20.0089277140796184539794921875">
        <ele>1817.4000244140625</ele>
        <time>2026-06-15T14:28:53.000Z</time>
        <extensions>
          <ns3:TrackPointExtension>
            <ns3:atemp>20.0</ns3:atemp>
          </ns3:TrackPointExtension>
        </extensions>
      </trkpt>
      <trkpt lat="42.58960093371570110321044921875" lon="20.0089277140796184539794921875">
        <ele>1817.4000244140625</ele>
        <time>2026-06-15T14:28:54.000Z</time>
        <extensions>
          <ns3:TrackPointExtension>
            <ns3:atemp>20.0</ns3:atemp>
          </ns3:TrackPointExtension>
        </extensions>
      </trkpt>
      <trkpt lat="42.58960093371570110321044921875" lon="20.0089277140796184539794921875">
        <ele>1817.4000244140625</ele>
        <time>2026-06-15T14:28:55.000Z</time>
        <extensions>
          <ns3:TrackPointExtension>
            <ns3:atemp>20.0</ns3:atemp>
          </ns3:TrackPointExtension>
        </extensions>
      </trkpt>
      <trkpt lat="42.58960093371570110321044921875" lon="20.0089277140796184539794921875">
        <ele>1817.4000244140625</ele>
        <time>2026-06-15T14:28:56.000Z</time>
        <extensions>
          <ns3:TrackPointExtension>
            <ns3:atemp>20.0</ns3:atemp>
          </ns3:TrackPointExtension>
        </extensions>
      </trkpt>
      <trkpt lat="42.58960093371570110321044921875" lon="20.0089277140796184539794921875">
        <ele>1817.5999755859375</ele>
        <time>2026-06-15T14:28:57.000Z</time>
        <extensions>
          <ns3:TrackPointExtension>
            <ns3:atemp>20.0</ns3:atemp>
          </ns3:TrackPointExtension>
        </extensions>
      </trkpt>
      <trkpt lat="42.58960093371570110321044921875" lon="20.0089277140796184539794921875">
        <ele>1817.5999755859375</ele>
        <time>2026-06-15T14:28:58.000Z</time>
        <extensions>
          <ns3:TrackPointExtension>
            <ns3:atemp>20.0</ns3:atemp>
          </ns3:TrackPointExtension>
        </extensions>
      </trkpt>
      <trkpt lat="42.5895921327173709869384765625" lon="20.00893316231667995452880859375">
        <ele>1817.5999755859375</ele>
        <time>2026-06-15T14:28:59.000Z</time>
        <extensions>
          <ns3:TrackPointExtension>
            <ns3:atemp>20.0</ns3:atemp>
          </ns3:TrackPointExtension>
        </extensions>
      </trkpt>
      <trkpt lat="42.589583583176136016845703125" lon="20.00892830081284046173095703125">
        <ele>1817.5999755859375</ele>
        <time>2026-06-15T14:29:00.000Z</time>
        <extensions>
          <ns3:TrackPointExtension>
            <ns3:atemp>20.0</ns3:atemp>
          </ns3:TrackPointExtension>
        </extensions>
      </trkpt>
      <trkpt lat="42.58958165533840656280517578125" lon="20.00890885479748249053955078125">
        <ele>1817.5999755859375</ele>
        <time>2026-06-15T14:29:01.000Z</time>
        <extensions>
          <ns3:TrackPointExtension>
            <ns3:atemp>20.0</ns3:atemp>
          </ns3:TrackPointExtension>
        </extensions>
      </trkpt>
      <trkpt lat="42.58958618156611919403076171875" lon="20.008897371590137481689453125">
        <ele>1817.5999755859375</ele>
        <time>2026-06-15T14:29:02.000Z</time>
        <extensions>
          <ns3:TrackPointExtension>
            <ns3:atemp>20.0</ns3:atemp>
          </ns3:TrackPointExtension>
        </extensions>
      </trkpt>
      <trkpt lat="42.5895874388515949249267578125" lon="20.00889100134372711181640625">
        <ele>1817.5999755859375</ele>
        <time>2026-06-15T14:29:03.000Z</time>
        <extensions>
          <ns3:TrackPointExtension>
            <ns3:atemp>20.0</ns3:atemp>
          </ns3:TrackPointExtension>
        </extensions>
      </trkpt>
      <trkpt lat="42.58959196507930755615234375" lon="20.00888027250766754150390625">
        <ele>1817.4000244140625</ele>
        <time>2026-06-15T14:29:04.000Z</time>
        <extensions>
          <ns3:TrackPointExtension>
            <ns3:atemp>20.0</ns3:atemp>
          </ns3:TrackPointExtension>
        </extensions>
      </trkpt>
      <trkpt lat="42.58959825150668621063232421875" lon="20.00886174850165843963623046875">
        <ele>1817.4000244140625</ele>
        <time>2026-06-15T14:29:05.000Z</time>
        <extensions>
          <ns3:TrackPointExtension>
            <ns3:atemp>20.0</ns3:atemp>
          </ns3:TrackPointExtension>
        </extensions>
      </trkpt>
      <trkpt lat="42.5896149314939975738525390625" lon="20.008834339678287506103515625">
        <ele>1817.4000244140625</ele>
        <time>2026-06-15T14:29:06.000Z</time>
        <extensions>
          <ns3:TrackPointExtension>
            <ns3:atemp>20.0</ns3:atemp>
          </ns3:TrackPointExtension>
        </extensions>
      </trkpt>
      <trkpt lat="42.58963144384324550628662109375" lon="20.00882755033671855926513671875">
        <ele>1817.4000244140625</ele>
        <time>2026-06-15T14:29:07.000Z</time>
        <extensions>
          <ns3:TrackPointExtension>
            <ns3:atemp>20.0</ns3:atemp>
          </ns3:TrackPointExtension>
        </extensions>
      </trkpt>
      <trkpt lat="42.58964938111603260040283203125" lon="20.00882185064256191253662109375">
        <ele>1817.4000244140625</ele>
        <time>2026-06-15T14:29:08.000Z</time>
        <extensions>
          <ns3:TrackPointExtension>
            <ns3:atemp>20.0</ns3:atemp>
          </ns3:TrackPointExtension>
        </extensions>
      </trkpt>
      <trkpt lat="42.58966882713139057159423828125" lon="20.00881497748196125030517578125">
        <ele>1817.199951171875</ele>
        <time>2026-06-15T14:29:09.000Z</time>
        <extensions>
          <ns3:TrackPointExtension>
            <ns3:atemp>20.0</ns3:atemp>
          </ns3:TrackPointExtension>
        </extensions>
      </trkpt>
      <trkpt lat="42.5896873511373996734619140625" lon="20.00880290754139423370361328125">
        <ele>1817.199951171875</ele>
        <time>2026-06-15T14:29:10.000Z</time>
        <extensions>
          <ns3:TrackPointExtension>
            <ns3:atemp>20.0</ns3:atemp>
          </ns3:TrackPointExtension>
        </extensions>
      </trkpt>
      <trkpt lat="42.5897121615707874298095703125" lon="20.00878849066793918609619140625">
        <ele>1817.199951171875</ele>
        <time>2026-06-15T14:29:11.000Z</time>
        <extensions>
          <ns3:TrackPointExtension>
            <ns3:atemp>20.0</ns3:atemp>
          </ns3:TrackPointExtension>
        </extensions>
      </trkpt>
      <trkpt lat="42.589729763567447662353515625" lon="20.00877826474606990814208984375">
        <ele>1817.199951171875</ele>
        <time>2026-06-15T14:29:12.000Z</time>
        <extensions>
          <ns3:TrackPointExtension>
            <ns3:atemp>20.0</ns3:atemp>
          </ns3:TrackPointExtension>
        </extensions>
      </trkpt>
      <trkpt lat="42.58974543772637844085693359375" lon="20.00876150093972682952880859375">
        <ele>1817.199951171875</ele>
        <time>2026-06-15T14:29:13.000Z</time>
        <extensions>
          <ns3:TrackPointExtension>
            <ns3:atemp>20.0</ns3:atemp>
          </ns3:TrackPointExtension>
        </extensions>
      </trkpt>
      <trkpt lat="42.58975884877145290374755859375" lon="20.0087473355233669281005859375">
        <ele>1817.199951171875</ele>
        <time>2026-06-15T14:29:14.000Z</time>
        <extensions>
          <ns3:TrackPointExtension>
            <ns3:atemp>20.0</ns3:atemp>
          </ns3:TrackPointExtension>
        </extensions>
      </trkpt>
      <trkpt lat="42.589762620627880096435546875" lon="20.0087366066873073577880859375">
        <ele>1817.4000244140625</ele>
        <time>2026-06-15T14:29:15.000Z</time>
        <extensions>
          <ns3:TrackPointExtension>
            <ns3:atemp>20.0</ns3:atemp>
          </ns3:TrackPointExtension>
        </extensions>
      </trkpt>
      <trkpt lat="42.589778043329715728759765625" lon="20.0087292306125164031982421875">
        <ele>1817.4000244140625</ele>
        <time>2026-06-15T14:29:16.000Z</time>
        <extensions>
          <ns3:TrackPointExtension>
            <ns3:atemp>20.0</ns3:atemp>
          </ns3:TrackPointExtension>
        </extensions>
      </trkpt>
      <trkpt lat="42.58978617377579212188720703125" lon="20.00873048789799213409423828125">
        <ele>1817.4000244140625</ele>
        <time>2026-06-15T14:29:17.000Z</time>
        <extensions>
          <ns3:TrackPointExtension>
            <ns3:atemp>20.0</ns3:atemp>
          </ns3:TrackPointExtension>
        </extensions>
      </trkpt>
      <trkpt lat="42.5897983275353908538818359375" lon="20.00872914679348468780517578125">
        <ele>1817.4000244140625</ele>
        <time>2026-06-15T14:29:18.000Z</time>
        <extensions>
          <ns3:TrackPointExtension>
            <ns3:atemp>20.0</ns3:atemp>
          </ns3:TrackPointExtension>
        </extensions>
      </trkpt>
      <trkpt lat="42.58981249295175075531005859375" lon="20.0087195076048374176025390625">
        <ele>1817.5999755859375</ele>
        <time>2026-06-15T14:29:19.000Z</time>
        <extensions>
          <ns3:TrackPointExtension>
            <ns3:atemp>20.0</ns3:atemp>
          </ns3:TrackPointExtension>
        </extensions>
      </trkpt>
      <trkpt lat="42.589822970330715179443359375" lon="20.008714981377124786376953125">
        <ele>1817.5999755859375</ele>
        <time>2026-06-15T14:29:20.000Z</time>
        <extensions>
          <ns3:TrackPointExtension>
            <ns3:atemp>20.0</ns3:atemp>
          </ns3:TrackPointExtension>
        </extensions>
      </trkpt>
      <trkpt lat="42.5898368842899799346923828125" lon="20.008708275854587554931640625">
        <ele>1817.5999755859375</ele>
        <time>2026-06-15T14:29:21.000Z</time>
        <extensions>
          <ns3:TrackPointExtension>
            <ns3:atemp>20.0</ns3:atemp>
          </ns3:TrackPointExtension>
        </extensions>
      </trkpt>
      <trkpt lat="42.589847110211849212646484375" lon="20.00868271104991436004638671875">
        <ele>1817.5999755859375</ele>
        <time>2026-06-15T14:29:22.000Z</time>
        <extensions>
          <ns3:TrackPointExtension>
            <ns3:atemp>20.0</ns3:atemp>
          </ns3:TrackPointExtension>
        </extensions>
      </trkpt>
      <trkpt lat="42.589856497943401336669921875" lon="20.00864432193338871002197265625">
        <ele>1817.5999755859375</ele>
        <time>2026-06-15T14:29:23.000Z</time>
        <extensions>
          <ns3:TrackPointExtension>
            <ns3:atemp>20.0</ns3:atemp>
          </ns3:TrackPointExtension>
        </extensions>
      </trkpt>
      <trkpt lat="42.58985557593405246734619140625" lon="20.00863158144056797027587890625">
        <ele>1817.5999755859375</ele>
        <time>2026-06-15T14:29:24.000Z</time>
        <extensions>
          <ns3:TrackPointExtension>
            <ns3:atemp>20.0</ns3:atemp>
          </ns3:TrackPointExtension>
        </extensions>
      </trkpt>
      <trkpt lat="42.58985540829598903656005859375" lon="20.008627809584140777587890625">
        <ele>1817.800048828125</ele>
        <time>2026-06-15T14:29:25.000Z</time>
        <extensions>
          <ns3:TrackPointExtension>
            <ns3:atemp>20.0</ns3:atemp>
          </ns3:TrackPointExtension>
        </extensions>
      </trkpt>
      <trkpt lat="42.58985540829598903656005859375" lon="20.0086276419460773468017578125">
        <ele>1817.800048828125</ele>
        <time>2026-06-15T14:29:26.000Z</time>
        <extensions>
          <ns3:TrackPointExtension>
            <ns3:atemp>20.0</ns3:atemp>
          </ns3:TrackPointExtension>
        </extensions>
      </trkpt>
      <trkpt lat="42.58985540829598903656005859375" lon="20.0086276419460773468017578125">
        <ele>1818</ele>
        <time>2026-06-15T14:29:27.000Z</time>
        <extensions>
          <ns3:TrackPointExtension>
            <ns3:atemp>20.0</ns3:atemp>
          </ns3:TrackPointExtension>
        </extensions>
      </trkpt>
      <trkpt lat="42.58985540829598903656005859375" lon="20.0086276419460773468017578125">
        <ele>1818</ele>
        <time>2026-06-15T14:29:28.000Z</time>
        <extensions>
          <ns3:TrackPointExtension>
            <ns3:atemp>20.0</ns3:atemp>
          </ns3:TrackPointExtension>
        </extensions>
      </trkpt>
      <trkpt lat="42.58985540829598903656005859375" lon="20.0086276419460773468017578125">
        <ele>1818.199951171875</ele>
        <time>2026-06-15T14:29:29.000Z</time>
        <extensions>
          <ns3:TrackPointExtension>
            <ns3:atemp>20.0</ns3:atemp>
          </ns3:TrackPointExtension>
        </extensions>
      </trkpt>
      <trkpt lat="42.58985540829598903656005859375" lon="20.0086276419460773468017578125">
        <ele>1818.4000244140625</ele>
        <time>2026-06-15T14:29:30.000Z</time>
        <extensions>
          <ns3:TrackPointExtension>
            <ns3:atemp>20.0</ns3:atemp>
          </ns3:TrackPointExtension>
        </extensions>
      </trkpt>
      <trkpt lat="42.58985540829598903656005859375" lon="20.0086276419460773468017578125">
        <ele>1818.4000244140625</ele>
        <time>2026-06-15T14:29:31.000Z</time>
        <extensions>
          <ns3:TrackPointExtension>
            <ns3:atemp>20.0</ns3:atemp>
          </ns3:TrackPointExtension>
        </extensions>
      </trkpt>
      <trkpt lat="42.58985540829598903656005859375" lon="20.0086276419460773468017578125">
        <ele>1818.4000244140625</ele>
        <time>2026-06-15T14:29:32.000Z</time>
        <extensions>
          <ns3:TrackPointExtension>
            <ns3:atemp>20.0</ns3:atemp>
          </ns3:TrackPointExtension>
        </extensions>
      </trkpt>
      <trkpt lat="42.58985540829598903656005859375" lon="20.0086276419460773468017578125">
        <ele>1818.199951171875</ele>
        <time>2026-06-15T14:29:33.000Z</time>
        <extensions>
          <ns3:TrackPointExtension>
            <ns3:atemp>20.0</ns3:atemp>
          </ns3:TrackPointExtension>
        </extensions>
      </trkpt>
      <trkpt lat="42.58985540829598903656005859375" lon="20.0086276419460773468017578125">
        <ele>1818.199951171875</ele>
        <time>2026-06-15T14:29:34.000Z</time>
        <extensions>
          <ns3:TrackPointExtension>
            <ns3:atemp>20.0</ns3:atemp>
          </ns3:TrackPointExtension>
        </extensions>
      </trkpt>
      <trkpt lat="42.58985540829598903656005859375" lon="20.0086276419460773468017578125">
        <ele>1818.199951171875</ele>
        <time>2026-06-15T14:29:35.000Z</time>
        <extensions>
          <ns3:TrackPointExtension>
            <ns3:atemp>20.0</ns3:atemp>
          </ns3:TrackPointExtension>
        </extensions>
      </trkpt>
      <trkpt lat="42.58985540829598903656005859375" lon="20.0086276419460773468017578125">
        <ele>1818.199951171875</ele>
        <time>2026-06-15T14:29:36.000Z</time>
        <extensions>
          <ns3:TrackPointExtension>
            <ns3:atemp>20.0</ns3:atemp>
          </ns3:TrackPointExtension>
        </extensions>
      </trkpt>
      <trkpt lat="42.58985540829598903656005859375" lon="20.0086276419460773468017578125">
        <ele>1818.199951171875</ele>
        <time>2026-06-15T14:29:37.000Z</time>
        <extensions>
          <ns3:TrackPointExtension>
            <ns3:atemp>20.0</ns3:atemp>
          </ns3:TrackPointExtension>
        </extensions>
      </trkpt>
      <trkpt lat="42.58985540829598903656005859375" lon="20.0086276419460773468017578125">
        <ele>1818.199951171875</ele>
        <time>2026-06-15T14:29:38.000Z</time>
        <extensions>
          <ns3:TrackPointExtension>
            <ns3:atemp>20.0</ns3:atemp>
          </ns3:TrackPointExtension>
        </extensions>
      </trkpt>
      <trkpt lat="42.58985540829598903656005859375" lon="20.0086276419460773468017578125">
        <ele>1818.199951171875</ele>
        <time>2026-06-15T14:29:39.000Z</time>
        <extensions>
          <ns3:TrackPointExtension>
            <ns3:atemp>20.0</ns3:atemp>
          </ns3:TrackPointExtension>
        </extensions>
      </trkpt>
      <trkpt lat="42.58985540829598903656005859375" lon="20.0086276419460773468017578125">
        <ele>1818.199951171875</ele>
        <time>2026-06-15T14:29:40.000Z</time>
        <extensions>
          <ns3:TrackPointExtension>
            <ns3:atemp>20.0</ns3:atemp>
          </ns3:TrackPointExtension>
        </extensions>
      </trkpt>
      <trkpt lat="42.58985540829598903656005859375" lon="20.0086276419460773468017578125">
        <ele>1818.199951171875</ele>
        <time>2026-06-15T14:29:41.000Z</time>
        <extensions>
          <ns3:TrackPointExtension>
            <ns3:atemp>20.0</ns3:atemp>
          </ns3:TrackPointExtension>
        </extensions>
      </trkpt>
      <trkpt lat="42.58985540829598903656005859375" lon="20.0086276419460773468017578125">
        <ele>1818.199951171875</ele>
        <time>2026-06-15T14:29:42.000Z</time>
        <extensions>
          <ns3:TrackPointExtension>
            <ns3:atemp>20.0</ns3:atemp>
          </ns3:TrackPointExtension>
        </extensions>
      </trkpt>
      <trkpt lat="42.58985540829598903656005859375" lon="20.0086276419460773468017578125">
        <ele>1818</ele>
        <time>2026-06-15T14:29:43.000Z</time>
        <extensions>
          <ns3:TrackPointExtension>
            <ns3:atemp>20.0</ns3:atemp>
          </ns3:TrackPointExtension>
        </extensions>
      </trkpt>
      <trkpt lat="42.58985540829598903656005859375" lon="20.0086276419460773468017578125">
        <ele>1818</ele>
        <time>2026-06-15T14:29:44.000Z</time>
        <extensions>
          <ns3:TrackPointExtension>
            <ns3:atemp>20.0</ns3:atemp>
          </ns3:TrackPointExtension>
        </extensions>
      </trkpt>
      <trkpt lat="42.58985540829598903656005859375" lon="20.0086276419460773468017578125">
        <ele>1818</ele>
        <time>2026-06-15T14:29:45.000Z</time>
        <extensions>
          <ns3:TrackPointExtension>
            <ns3:atemp>20.0</ns3:atemp>
          </ns3:TrackPointExtension>
        </extensions>
      </trkpt>
      <trkpt lat="42.58985540829598903656005859375" lon="20.0086276419460773468017578125">
        <ele>1818</ele>
        <time>2026-06-15T14:29:46.000Z</time>
        <extensions>
          <ns3:TrackPointExtension>
            <ns3:atemp>21.0</ns3:atemp>
          </ns3:TrackPointExtension>
        </extensions>
      </trkpt>
      <trkpt lat="42.58985540829598903656005859375" lon="20.0086276419460773468017578125">
        <ele>1818</ele>
        <time>2026-06-15T14:29:47.000Z</time>
        <extensions>
          <ns3:TrackPointExtension>
            <ns3:atemp>21.0</ns3:atemp>
          </ns3:TrackPointExtension>
        </extensions>
      </trkpt>
      <trkpt lat="42.58985540829598903656005859375" lon="20.0086276419460773468017578125">
        <ele>1818</ele>
        <time>2026-06-15T14:29:48.000Z</time>
        <extensions>
          <ns3:TrackPointExtension>
            <ns3:atemp>21.0</ns3:atemp>
          </ns3:TrackPointExtension>
        </extensions>
      </trkpt>
      <trkpt lat="42.58985540829598903656005859375" lon="20.0086276419460773468017578125">
        <ele>1818</ele>
        <time>2026-06-15T14:29:49.000Z</time>
        <extensions>
          <ns3:TrackPointExtension>
            <ns3:atemp>21.0</ns3:atemp>
          </ns3:TrackPointExtension>
        </extensions>
      </trkpt>
      <trkpt lat="42.58985540829598903656005859375" lon="20.0086276419460773468017578125">
        <ele>1818</ele>
        <time>2026-06-15T14:29:50.000Z</time>
        <extensions>
          <ns3:TrackPointExtension>
            <ns3:atemp>21.0</ns3:atemp>
          </ns3:TrackPointExtension>
        </extensions>
      </trkpt>
      <trkpt lat="42.58985540829598903656005859375" lon="20.0086276419460773468017578125">
        <ele>1818</ele>
        <time>2026-06-15T14:29:51.000Z</time>
        <extensions>
          <ns3:TrackPointExtension>
            <ns3:atemp>21.0</ns3:atemp>
          </ns3:TrackPointExtension>
        </extensions>
      </trkpt>
      <trkpt lat="42.58985540829598903656005859375" lon="20.0086276419460773468017578125">
        <ele>1818</ele>
        <time>2026-06-15T14:29:52.000Z</time>
        <extensions>
          <ns3:TrackPointExtension>
            <ns3:atemp>21.0</ns3:atemp>
          </ns3:TrackPointExtension>
        </extensions>
      </trkpt>
      <trkpt lat="42.58985540829598903656005859375" lon="20.0086276419460773468017578125">
        <ele>1818</ele>
        <time>2026-06-15T14:29:53.000Z</time>
        <extensions>
          <ns3:TrackPointExtension>
            <ns3:atemp>21.0</ns3:atemp>
          </ns3:TrackPointExtension>
        </extensions>
      </trkpt>
      <trkpt lat="42.58985540829598903656005859375" lon="20.0086276419460773468017578125">
        <ele>1818</ele>
        <time>2026-06-15T14:29:54.000Z</time>
        <extensions>
          <ns3:TrackPointExtension>
            <ns3:atemp>21.0</ns3:atemp>
          </ns3:TrackPointExtension>
        </extensions>
      </trkpt>
      <trkpt lat="42.58985540829598903656005859375" lon="20.0086276419460773468017578125">
        <ele>1818</ele>
        <time>2026-06-15T14:29:55.000Z</time>
        <extensions>
          <ns3:TrackPointExtension>
            <ns3:atemp>21.0</ns3:atemp>
          </ns3:TrackPointExtension>
        </extensions>
      </trkpt>
      <trkpt lat="42.58985540829598903656005859375" lon="20.0086276419460773468017578125">
        <ele>1818</ele>
        <time>2026-06-15T14:29:56.000Z</time>
        <extensions>
          <ns3:TrackPointExtension>
            <ns3:atemp>21.0</ns3:atemp>
          </ns3:TrackPointExtension>
        </extensions>
      </trkpt>
      <trkpt lat="42.58985540829598903656005859375" lon="20.0086276419460773468017578125">
        <ele>1818</ele>
        <time>2026-06-15T14:29:57.000Z</time>
        <extensions>
          <ns3:TrackPointExtension>
            <ns3:atemp>21.0</ns3:atemp>
          </ns3:TrackPointExtension>
        </extensions>
      </trkpt>
      <trkpt lat="42.58985540829598903656005859375" lon="20.0086276419460773468017578125">
        <ele>1818</ele>
        <time>2026-06-15T14:29:58.000Z</time>
        <extensions>
          <ns3:TrackPointExtension>
            <ns3:atemp>21.0</ns3:atemp>
          </ns3:TrackPointExtension>
        </extensions>
      </trkpt>
      <trkpt lat="42.58985540829598903656005859375" lon="20.0086276419460773468017578125">
        <ele>1818.199951171875</ele>
        <time>2026-06-15T14:29:59.000Z</time>
        <extensions>
          <ns3:TrackPointExtension>
            <ns3:atemp>21.0</ns3:atemp>
          </ns3:TrackPointExtension>
        </extensions>
      </trkpt>
      <trkpt lat="42.58985540829598903656005859375" lon="20.0086276419460773468017578125">
        <ele>1818.199951171875</ele>
        <time>2026-06-15T14:30:00.000Z</time>
        <extensions>
          <ns3:TrackPointExtension>
            <ns3:atemp>21.0</ns3:atemp>
          </ns3:TrackPointExtension>
        </extensions>
      </trkpt>
      <trkpt lat="42.58985540829598903656005859375" lon="20.0086276419460773468017578125">
        <ele>1818.199951171875</ele>
        <time>2026-06-15T14:30:01.000Z</time>
        <extensions>
          <ns3:TrackPointExtension>
            <ns3:atemp>21.0</ns3:atemp>
          </ns3:TrackPointExtension>
        </extensions>
      </trkpt>
      <trkpt lat="42.58985540829598903656005859375" lon="20.0086276419460773468017578125">
        <ele>1818.199951171875</ele>
        <time>2026-06-15T14:30:02.000Z</time>
        <extensions>
          <ns3:TrackPointExtension>
            <ns3:atemp>21.0</ns3:atemp>
          </ns3:TrackPointExtension>
        </extensions>
      </trkpt>
      <trkpt lat="42.58985540829598903656005859375" lon="20.0086276419460773468017578125">
        <ele>1818.4000244140625</ele>
        <time>2026-06-15T14:30:03.000Z</time>
        <extensions>
          <ns3:TrackPointExtension>
            <ns3:atemp>21.0</ns3:atemp>
          </ns3:TrackPointExtension>
        </extensions>
      </trkpt>
      <trkpt lat="42.58985540829598903656005859375" lon="20.0086276419460773468017578125">
        <ele>1818.4000244140625</ele>
        <time>2026-06-15T14:30:04.000Z</time>
        <extensions>
          <ns3:TrackPointExtension>
            <ns3:atemp>21.0</ns3:atemp>
          </ns3:TrackPointExtension>
        </extensions>
      </trkpt>
      <trkpt lat="42.58985540829598903656005859375" lon="20.0086276419460773468017578125">
        <ele>1818.4000244140625</ele>
        <time>2026-06-15T14:30:05.000Z</time>
        <extensions>
          <ns3:TrackPointExtension>
            <ns3:atemp>21.0</ns3:atemp>
          </ns3:TrackPointExtension>
        </extensions>
      </trkpt>
      <trkpt lat="42.58985540829598903656005859375" lon="20.0086276419460773468017578125">
        <ele>1818.4000244140625</ele>
        <time>2026-06-15T14:30:06.000Z</time>
        <extensions>
          <ns3:TrackPointExtension>
            <ns3:atemp>21.0</ns3:atemp>
          </ns3:TrackPointExtension>
        </extensions>
      </trkpt>
      <trkpt lat="42.58985540829598903656005859375" lon="20.0086276419460773468017578125">
        <ele>1818.4000244140625</ele>
        <time>2026-06-15T14:30:07.000Z</time>
        <extensions>
          <ns3:TrackPointExtension>
            <ns3:atemp>21.0</ns3:atemp>
          </ns3:TrackPointExtension>
        </extensions>
      </trkpt>
      <trkpt lat="42.58985540829598903656005859375" lon="20.0086276419460773468017578125">
        <ele>1818.199951171875</ele>
        <time>2026-06-15T14:30:08.000Z</time>
        <extensions>
          <ns3:TrackPointExtension>
            <ns3:atemp>21.0</ns3:atemp>
          </ns3:TrackPointExtension>
        </extensions>
      </trkpt>
      <trkpt lat="42.58985457010567188262939453125" lon="20.0086232833564281463623046875">
        <ele>1818.199951171875</ele>
        <time>2026-06-15T14:30:09.000Z</time>
        <extensions>
          <ns3:TrackPointExtension>
            <ns3:atemp>21.0</ns3:atemp>
          </ns3:TrackPointExtension>
        </extensions>
      </trkpt>
      <trkpt lat="42.58985557593405246734619140625" lon="20.00861071050167083740234375">
        <ele>1818.199951171875</ele>
        <time>2026-06-15T14:30:10.000Z</time>
        <extensions>
          <ns3:TrackPointExtension>
            <ns3:atemp>21.0</ns3:atemp>
          </ns3:TrackPointExtension>
        </extensions>
      </trkpt>
      <trkpt lat="42.58985490538179874420166015625" lon="20.0086065195500850677490234375">
        <ele>1818.199951171875</ele>
        <time>2026-06-15T14:30:11.000Z</time>
        <extensions>
          <ns3:TrackPointExtension>
            <ns3:atemp>21.0</ns3:atemp>
          </ns3:TrackPointExtension>
        </extensions>
      </trkpt>
      <trkpt lat="42.58985490538179874420166015625" lon="20.00860643573105335235595703125">
        <ele>1818</ele>
        <time>2026-06-15T14:30:12.000Z</time>
        <extensions>
          <ns3:TrackPointExtension>
            <ns3:atemp>21.0</ns3:atemp>
          </ns3:TrackPointExtension>
        </extensions>
      </trkpt>
      <trkpt lat="42.589855156838893890380859375" lon="20.00860274769365787506103515625">
        <ele>1818</ele>
        <time>2026-06-15T14:30:13.000Z</time>
        <extensions>
          <ns3:TrackPointExtension>
            <ns3:atemp>21.0</ns3:atemp>
          </ns3:TrackPointExtension>
        </extensions>
      </trkpt>
      <trkpt lat="42.589855827391147613525390625" lon="20.008594952523708343505859375">
        <ele>1818</ele>
        <time>2026-06-15T14:30:14.000Z</time>
        <extensions>
          <ns3:TrackPointExtension>
            <ns3:atemp>21.0</ns3:atemp>
          </ns3:TrackPointExtension>
        </extensions>
      </trkpt>
      <trkpt lat="42.58985322900116443634033203125" lon="20.0085947848856449127197265625">
        <ele>1817.800048828125</ele>
        <time>2026-06-15T14:30:15.000Z</time>
        <extensions>
          <ns3:TrackPointExtension>
            <ns3:atemp>21.0</ns3:atemp>
          </ns3:TrackPointExtension>
        </extensions>
      </trkpt>
      <trkpt lat="42.58985322900116443634033203125" lon="20.0085947848856449127197265625">
        <ele>1817.5999755859375</ele>
        <time>2026-06-15T14:30:16.000Z</time>
        <extensions>
          <ns3:TrackPointExtension>
            <ns3:atemp>21.0</ns3:atemp>
          </ns3:TrackPointExtension>
        </extensions>
      </trkpt>
      <trkpt lat="42.58985322900116443634033203125" lon="20.0085947848856449127197265625">
        <ele>1817.5999755859375</ele>
        <time>2026-06-15T14:30:17.000Z</time>
        <extensions>
          <ns3:TrackPointExtension>
            <ns3:atemp>21.0</ns3:atemp>
          </ns3:TrackPointExtension>
        </extensions>
      </trkpt>
      <trkpt lat="42.58985322900116443634033203125" lon="20.0085947848856449127197265625">
        <ele>1817.4000244140625</ele>
        <time>2026-06-15T14:30:18.000Z</time>
        <extensions>
          <ns3:TrackPointExtension>
            <ns3:atemp>21.0</ns3:atemp>
          </ns3:TrackPointExtension>
        </extensions>
      </trkpt>
      <trkpt lat="42.58985322900116443634033203125" lon="20.0085947848856449127197265625">
        <ele>1817.4000244140625</ele>
        <time>2026-06-15T14:30:19.000Z</time>
        <extensions>
          <ns3:TrackPointExtension>
            <ns3:atemp>21.0</ns3:atemp>
          </ns3:TrackPointExtension>
        </extensions>
      </trkpt>
      <trkpt lat="42.58985322900116443634033203125" lon="20.0085947848856449127197265625">
        <ele>1817.4000244140625</ele>
        <time>2026-06-15T14:30:20.000Z</time>
        <extensions>
          <ns3:TrackPointExtension>
            <ns3:atemp>21.0</ns3:atemp>
          </ns3:TrackPointExtension>
        </extensions>
      </trkpt>
      <trkpt lat="42.58985322900116443634033203125" lon="20.0085947848856449127197265625">
        <ele>1817.199951171875</ele>
        <time>2026-06-15T14:30:21.000Z</time>
        <extensions>
          <ns3:TrackPointExtension>
            <ns3:atemp>21.0</ns3:atemp>
          </ns3:TrackPointExtension>
        </extensions>
      </trkpt>
      <trkpt lat="42.58985322900116443634033203125" lon="20.0085947848856449127197265625">
        <ele>1817.199951171875</ele>
        <time>2026-06-15T14:30:22.000Z</time>
        <extensions>
          <ns3:TrackPointExtension>
            <ns3:atemp>21.0</ns3:atemp>
          </ns3:TrackPointExtension>
        </extensions>
      </trkpt>
      <trkpt lat="42.58985322900116443634033203125" lon="20.0085947848856449127197265625">
        <ele>1817.199951171875</ele>
        <time>2026-06-15T14:30:23.000Z</time>
        <extensions>
          <ns3:TrackPointExtension>
            <ns3:atemp>21.0</ns3:atemp>
          </ns3:TrackPointExtension>
        </extensions>
      </trkpt>
      <trkpt lat="42.58985322900116443634033203125" lon="20.0085947848856449127197265625">
        <ele>1817</ele>
        <time>2026-06-15T14:30:24.000Z</time>
        <extensions>
          <ns3:TrackPointExtension>
            <ns3:atemp>21.0</ns3:atemp>
          </ns3:TrackPointExtension>
        </extensions>
      </trkpt>
      <trkpt lat="42.58985322900116443634033203125" lon="20.0085947848856449127197265625">
        <ele>1817</ele>
        <time>2026-06-15T14:30:25.000Z</time>
        <extensions>
          <ns3:TrackPointExtension>
            <ns3:atemp>21.0</ns3:atemp>
          </ns3:TrackPointExtension>
        </extensions>
      </trkpt>
      <trkpt lat="42.58985322900116443634033203125" lon="20.0085947848856449127197265625">
        <ele>1817</ele>
        <time>2026-06-15T14:30:26.000Z</time>
        <extensions>
          <ns3:TrackPointExtension>
            <ns3:atemp>21.0</ns3:atemp>
          </ns3:TrackPointExtension>
        </extensions>
      </trkpt>
      <trkpt lat="42.58985322900116443634033203125" lon="20.0085947848856449127197265625">
        <ele>1817</ele>
        <time>2026-06-15T14:30:27.000Z</time>
        <extensions>
          <ns3:TrackPointExtension>
            <ns3:atemp>21.0</ns3:atemp>
          </ns3:TrackPointExtension>
        </extensions>
      </trkpt>
      <trkpt lat="42.58985322900116443634033203125" lon="20.0085947848856449127197265625">
        <ele>1816.800048828125</ele>
        <time>2026-06-15T14:30:28.000Z</time>
        <extensions>
          <ns3:TrackPointExtension>
            <ns3:atemp>21.0</ns3:atemp>
          </ns3:TrackPointExtension>
        </extensions>
      </trkpt>
      <trkpt lat="42.58985322900116443634033203125" lon="20.0085947848856449127197265625">
        <ele>1816.800048828125</ele>
        <time>2026-06-15T14:30:29.000Z</time>
        <extensions>
          <ns3:TrackPointExtension>
            <ns3:atemp>21.0</ns3:atemp>
          </ns3:TrackPointExtension>
        </extensions>
      </trkpt>
      <trkpt lat="42.58985322900116443634033203125" lon="20.0085947848856449127197265625">
        <ele>1816.800048828125</ele>
        <time>2026-06-15T14:30:30.000Z</time>
        <extensions>
          <ns3:TrackPointExtension>
            <ns3:atemp>21.0</ns3:atemp>
          </ns3:TrackPointExtension>
        </extensions>
      </trkpt>
      <trkpt lat="42.58985322900116443634033203125" lon="20.0085947848856449127197265625">
        <ele>1816.800048828125</ele>
        <time>2026-06-15T14:30:31.000Z</time>
        <extensions>
          <ns3:TrackPointExtension>
            <ns3:atemp>21.0</ns3:atemp>
          </ns3:TrackPointExtension>
        </extensions>
      </trkpt>
      <trkpt lat="42.58985322900116443634033203125" lon="20.0085947848856449127197265625">
        <ele>1816.5999755859375</ele>
        <time>2026-06-15T14:30:32.000Z</time>
        <extensions>
          <ns3:TrackPointExtension>
            <ns3:atemp>21.0</ns3:atemp>
          </ns3:TrackPointExtension>
        </extensions>
      </trkpt>
      <trkpt lat="42.58985322900116443634033203125" lon="20.0085947848856449127197265625">
        <ele>1816.5999755859375</ele>
        <time>2026-06-15T14:30:33.000Z</time>
        <extensions>
          <ns3:TrackPointExtension>
            <ns3:atemp>21.0</ns3:atemp>
          </ns3:TrackPointExtension>
        </extensions>
      </trkpt>
      <trkpt lat="42.58985322900116443634033203125" lon="20.0085947848856449127197265625">
        <ele>1816.5999755859375</ele>
        <time>2026-06-15T14:30:34.000Z</time>
        <extensions>
          <ns3:TrackPointExtension>
            <ns3:atemp>21.0</ns3:atemp>
          </ns3:TrackPointExtension>
        </extensions>
      </trkpt>
      <trkpt lat="42.58985322900116443634033203125" lon="20.0085947848856449127197265625">
        <ele>1816.5999755859375</ele>
        <time>2026-06-15T14:30:35.000Z</time>
        <extensions>
          <ns3:TrackPointExtension>
            <ns3:atemp>21.0</ns3:atemp>
          </ns3:TrackPointExtension>
        </extensions>
      </trkpt>
      <trkpt lat="42.58985322900116443634033203125" lon="20.0085947848856449127197265625">
        <ele>1816.5999755859375</ele>
        <time>2026-06-15T14:30:36.000Z</time>
        <extensions>
          <ns3:TrackPointExtension>
            <ns3:atemp>21.0</ns3:atemp>
          </ns3:TrackPointExtension>
        </extensions>
      </trkpt>
      <trkpt lat="42.58985322900116443634033203125" lon="20.0085947848856449127197265625">
        <ele>1816.4000244140625</ele>
        <time>2026-06-15T14:30:37.000Z</time>
        <extensions>
          <ns3:TrackPointExtension>
            <ns3:atemp>21.0</ns3:atemp>
          </ns3:TrackPointExtension>
        </extensions>
      </trkpt>
      <trkpt lat="42.58985322900116443634033203125" lon="20.0085947848856449127197265625">
        <ele>1816.4000244140625</ele>
        <time>2026-06-15T14:30:38.000Z</time>
        <extensions>
          <ns3:TrackPointExtension>
            <ns3:atemp>21.0</ns3:atemp>
          </ns3:TrackPointExtension>
        </extensions>
      </trkpt>
      <trkpt lat="42.58985322900116443634033203125" lon="20.0085947848856449127197265625">
        <ele>1816.4000244140625</ele>
        <time>2026-06-15T14:30:39.000Z</time>
        <extensions>
          <ns3:TrackPointExtension>
            <ns3:atemp>21.0</ns3:atemp>
          </ns3:TrackPointExtension>
        </extensions>
      </trkpt>
      <trkpt lat="42.58985322900116443634033203125" lon="20.0085947848856449127197265625">
        <ele>1816.4000244140625</ele>
        <time>2026-06-15T14:30:40.000Z</time>
        <extensions>
          <ns3:TrackPointExtension>
            <ns3:atemp>21.0</ns3:atemp>
          </ns3:TrackPointExtension>
        </extensions>
      </trkpt>
      <trkpt lat="42.58985322900116443634033203125" lon="20.0085947848856449127197265625">
        <ele>1816.4000244140625</ele>
        <time>2026-06-15T14:30:41.000Z</time>
        <extensions>
          <ns3:TrackPointExtension>
            <ns3:atemp>21.0</ns3:atemp>
          </ns3:TrackPointExtension>
        </extensions>
      </trkpt>
      <trkpt lat="42.58985322900116443634033203125" lon="20.0085947848856449127197265625">
        <ele>1816.4000244140625</ele>
        <time>2026-06-15T14:30:42.000Z</time>
        <extensions>
          <ns3:TrackPointExtension>
            <ns3:atemp>21.0</ns3:atemp>
          </ns3:TrackPointExtension>
        </extensions>
      </trkpt>
      <trkpt lat="42.58985322900116443634033203125" lon="20.0085947848856449127197265625">
        <ele>1816.4000244140625</ele>
        <time>2026-06-15T14:30:43.000Z</time>
        <extensions>
          <ns3:TrackPointExtension>
            <ns3:atemp>21.0</ns3:atemp>
          </ns3:TrackPointExtension>
        </extensions>
      </trkpt>
      <trkpt lat="42.58985322900116443634033203125" lon="20.0085947848856449127197265625">
        <ele>1816.4000244140625</ele>
        <time>2026-06-15T14:30:44.000Z</time>
        <extensions>
          <ns3:TrackPointExtension>
            <ns3:atemp>21.0</ns3:atemp>
          </ns3:TrackPointExtension>
        </extensions>
      </trkpt>
      <trkpt lat="42.58985322900116443634033203125" lon="20.0085947848856449127197265625">
        <ele>1816.4000244140625</ele>
        <time>2026-06-15T14:30:45.000Z</time>
        <extensions>
          <ns3:TrackPointExtension>
            <ns3:atemp>21.0</ns3:atemp>
          </ns3:TrackPointExtension>
        </extensions>
      </trkpt>
      <trkpt lat="42.58985322900116443634033203125" lon="20.0085947848856449127197265625">
        <ele>1816.4000244140625</ele>
        <time>2026-06-15T14:30:46.000Z</time>
        <extensions>
          <ns3:TrackPointExtension>
            <ns3:atemp>21.0</ns3:atemp>
          </ns3:TrackPointExtension>
        </extensions>
      </trkpt>
      <trkpt lat="42.58985322900116443634033203125" lon="20.0085947848856449127197265625">
        <ele>1816.199951171875</ele>
        <time>2026-06-15T14:30:47.000Z</time>
        <extensions>
          <ns3:TrackPointExtension>
            <ns3:atemp>21.0</ns3:atemp>
          </ns3:TrackPointExtension>
        </extensions>
      </trkpt>
      <trkpt lat="42.58985322900116443634033203125" lon="20.0085947848856449127197265625">
        <ele>1816.199951171875</ele>
        <time>2026-06-15T14:30:48.000Z</time>
        <extensions>
          <ns3:TrackPointExtension>
            <ns3:atemp>21.0</ns3:atemp>
          </ns3:TrackPointExtension>
        </extensions>
      </trkpt>
      <trkpt lat="42.58985322900116443634033203125" lon="20.0085947848856449127197265625">
        <ele>1816.199951171875</ele>
        <time>2026-06-15T14:30:49.000Z</time>
        <extensions>
          <ns3:TrackPointExtension>
            <ns3:atemp>21.0</ns3:atemp>
          </ns3:TrackPointExtension>
        </extensions>
      </trkpt>
      <trkpt lat="42.58985322900116443634033203125" lon="20.0085947848856449127197265625">
        <ele>1816.199951171875</ele>
        <time>2026-06-15T14:30:50.000Z</time>
        <extensions>
          <ns3:TrackPointExtension>
            <ns3:atemp>21.0</ns3:atemp>
          </ns3:TrackPointExtension>
        </extensions>
      </trkpt>
      <trkpt lat="42.58985322900116443634033203125" lon="20.0085947848856449127197265625">
        <ele>1816</ele>
        <time>2026-06-15T14:30:51.000Z</time>
        <extensions>
          <ns3:TrackPointExtension>
            <ns3:atemp>21.0</ns3:atemp>
          </ns3:TrackPointExtension>
        </extensions>
      </trkpt>
      <trkpt lat="42.58985322900116443634033203125" lon="20.0085947848856449127197265625">
        <ele>1816</ele>
        <time>2026-06-15T14:30:52.000Z</time>
        <extensions>
          <ns3:TrackPointExtension>
            <ns3:atemp>21.0</ns3:atemp>
          </ns3:TrackPointExtension>
        </extensions>
      </trkpt>
      <trkpt lat="42.58985322900116443634033203125" lon="20.0085947848856449127197265625">
        <ele>1816</ele>
        <time>2026-06-15T14:30:53.000Z</time>
        <extensions>
          <ns3:TrackPointExtension>
            <ns3:atemp>21.0</ns3:atemp>
          </ns3:TrackPointExtension>
        </extensions>
      </trkpt>
      <trkpt lat="42.58985322900116443634033203125" lon="20.0085947848856449127197265625">
        <ele>1816</ele>
        <time>2026-06-15T14:30:54.000Z</time>
        <extensions>
          <ns3:TrackPointExtension>
            <ns3:atemp>21.0</ns3:atemp>
          </ns3:TrackPointExtension>
        </extensions>
      </trkpt>
      <trkpt lat="42.58985322900116443634033203125" lon="20.0085947848856449127197265625">
        <ele>1815.800048828125</ele>
        <time>2026-06-15T14:30:55.000Z</time>
        <extensions>
          <ns3:TrackPointExtension>
            <ns3:atemp>21.0</ns3:atemp>
          </ns3:TrackPointExtension>
        </extensions>
      </trkpt>
      <trkpt lat="42.58985322900116443634033203125" lon="20.0085947848856449127197265625">
        <ele>1815.800048828125</ele>
        <time>2026-06-15T14:30:56.000Z</time>
        <extensions>
          <ns3:TrackPointExtension>
            <ns3:atemp>21.0</ns3:atemp>
          </ns3:TrackPointExtension>
        </extensions>
      </trkpt>
      <trkpt lat="42.58985322900116443634033203125" lon="20.0085947848856449127197265625">
        <ele>1815.800048828125</ele>
        <time>2026-06-15T14:30:57.000Z</time>
        <extensions>
          <ns3:TrackPointExtension>
            <ns3:atemp>21.0</ns3:atemp>
          </ns3:TrackPointExtension>
        </extensions>
      </trkpt>
      <trkpt lat="42.58985322900116443634033203125" lon="20.0085947848856449127197265625">
        <ele>1815.5999755859375</ele>
        <time>2026-06-15T14:30:58.000Z</time>
        <extensions>
          <ns3:TrackPointExtension>
            <ns3:atemp>21.0</ns3:atemp>
          </ns3:TrackPointExtension>
        </extensions>
      </trkpt>
      <trkpt lat="42.58985322900116443634033203125" lon="20.0085947848856449127197265625">
        <ele>1815.5999755859375</ele>
        <time>2026-06-15T14:30:59.000Z</time>
        <extensions>
          <ns3:TrackPointExtension>
            <ns3:atemp>21.0</ns3:atemp>
          </ns3:TrackPointExtension>
        </extensions>
      </trkpt>
      <trkpt lat="42.58985322900116443634033203125" lon="20.0085947848856449127197265625">
        <ele>1815.5999755859375</ele>
        <time>2026-06-15T14:31:00.000Z</time>
        <extensions>
          <ns3:TrackPointExtension>
            <ns3:atemp>21.0</ns3:atemp>
          </ns3:TrackPointExtension>
        </extensions>
      </trkpt>
      <trkpt lat="42.58985322900116443634033203125" lon="20.0085947848856449127197265625">
        <ele>1815.5999755859375</ele>
        <time>2026-06-15T14:31:01.000Z</time>
        <extensions>
          <ns3:TrackPointExtension>
            <ns3:atemp>20.0</ns3:atemp>
          </ns3:TrackPointExtension>
        </extensions>
      </trkpt>
      <trkpt lat="42.58985322900116443634033203125" lon="20.0085947848856449127197265625">
        <ele>1815.5999755859375</ele>
        <time>2026-06-15T14:31:02.000Z</time>
        <extensions>
          <ns3:TrackPointExtension>
            <ns3:atemp>21.0</ns3:atemp>
          </ns3:TrackPointExtension>
        </extensions>
      </trkpt>
      <trkpt lat="42.58985322900116443634033203125" lon="20.0085947848856449127197265625">
        <ele>1815.5999755859375</ele>
        <time>2026-06-15T14:31:03.000Z</time>
        <extensions>
          <ns3:TrackPointExtension>
            <ns3:atemp>21.0</ns3:atemp>
          </ns3:TrackPointExtension>
        </extensions>
      </trkpt>
      <trkpt lat="42.58985322900116443634033203125" lon="20.0085947848856449127197265625">
        <ele>1815.5999755859375</ele>
        <time>2026-06-15T14:31:04.000Z</time>
        <extensions>
          <ns3:TrackPointExtension>
            <ns3:atemp>21.0</ns3:atemp>
          </ns3:TrackPointExtension>
        </extensions>
      </trkpt>
      <trkpt lat="42.58985322900116443634033203125" lon="20.0085947848856449127197265625">
        <ele>1815.5999755859375</ele>
        <time>2026-06-15T14:31:05.000Z</time>
        <extensions>
          <ns3:TrackPointExtension>
            <ns3:atemp>21.0</ns3:atemp>
          </ns3:TrackPointExtension>
        </extensions>
      </trkpt>
      <trkpt lat="42.58985322900116443634033203125" lon="20.0085947848856449127197265625">
        <ele>1815.800048828125</ele>
        <time>2026-06-15T14:31:06.000Z</time>
        <extensions>
          <ns3:TrackPointExtension>
            <ns3:atemp>21.0</ns3:atemp>
          </ns3:TrackPointExtension>
        </extensions>
      </trkpt>
      <trkpt lat="42.58985322900116443634033203125" lon="20.0085947848856449127197265625">
        <ele>1815.800048828125</ele>
        <time>2026-06-15T14:31:07.000Z</time>
        <extensions>
          <ns3:TrackPointExtension>
            <ns3:atemp>20.0</ns3:atemp>
          </ns3:TrackPointExtension>
        </extensions>
      </trkpt>
      <trkpt lat="42.58985322900116443634033203125" lon="20.0085947848856449127197265625">
        <ele>1815.800048828125</ele>
        <time>2026-06-15T14:31:08.000Z</time>
        <extensions>
          <ns3:TrackPointExtension>
            <ns3:atemp>20.0</ns3:atemp>
          </ns3:TrackPointExtension>
        </extensions>
      </trkpt>
      <trkpt lat="42.58985322900116443634033203125" lon="20.0085947848856449127197265625">
        <ele>1815.800048828125</ele>
        <time>2026-06-15T14:31:09.000Z</time>
        <extensions>
          <ns3:TrackPointExtension>
            <ns3:atemp>20.0</ns3:atemp>
          </ns3:TrackPointExtension>
        </extensions>
      </trkpt>
      <trkpt lat="42.58985322900116443634033203125" lon="20.0085947848856449127197265625">
        <ele>1816</ele>
        <time>2026-06-15T14:31:10.000Z</time>
        <extensions>
          <ns3:TrackPointExtension>
            <ns3:atemp>21.0</ns3:atemp>
          </ns3:TrackPointExtension>
        </extensions>
      </trkpt>
      <trkpt lat="42.58985322900116443634033203125" lon="20.0085947848856449127197265625">
        <ele>1816</ele>
        <time>2026-06-15T14:31:11.000Z</time>
        <extensions>
          <ns3:TrackPointExtension>
            <ns3:atemp>20.0</ns3:atemp>
          </ns3:TrackPointExtension>
        </extensions>
      </trkpt>
      <trkpt lat="42.58985322900116443634033203125" lon="20.0085947848856449127197265625">
        <ele>1816.199951171875</ele>
        <time>2026-06-15T14:31:12.000Z</time>
        <extensions>
          <ns3:TrackPointExtension>
            <ns3:atemp>20.0</ns3:atemp>
          </ns3:TrackPointExtension>
        </extensions>
      </trkpt>
      <trkpt lat="42.58985322900116443634033203125" lon="20.0085947848856449127197265625">
        <ele>1816.199951171875</ele>
        <time>2026-06-15T14:31:13.000Z</time>
        <extensions>
          <ns3:TrackPointExtension>
            <ns3:atemp>21.0</ns3:atemp>
          </ns3:TrackPointExtension>
        </extensions>
      </trkpt>
      <trkpt lat="42.5898596830666065216064453125" lon="20.00860090367496013641357421875">
        <ele>1816.199951171875</ele>
        <time>2026-06-15T14:31:14.000Z</time>
        <extensions>
          <ns3:TrackPointExtension>
            <ns3:atemp>21.0</ns3:atemp>
          </ns3:TrackPointExtension>
        </extensions>
      </trkpt>
      <trkpt lat="42.58987116627395153045654296875" lon="20.00860928557813167572021484375">
        <ele>1816.199951171875</ele>
        <time>2026-06-15T14:31:15.000Z</time>
        <extensions>
          <ns3:TrackPointExtension>
            <ns3:atemp>21.0</ns3:atemp>
          </ns3:TrackPointExtension>
        </extensions>
      </trkpt>
      <trkpt lat="42.58987116627395153045654296875" lon="20.00860936939716339111328125">
        <ele>1816.199951171875</ele>
        <time>2026-06-15T14:31:16.000Z</time>
        <extensions>
          <ns3:TrackPointExtension>
            <ns3:atemp>21.0</ns3:atemp>
          </ns3:TrackPointExtension>
        </extensions>
      </trkpt>
      <trkpt lat="42.58987116627395153045654296875" lon="20.00860936939716339111328125">
        <ele>1816.199951171875</ele>
        <time>2026-06-15T14:31:17.000Z</time>
        <extensions>
          <ns3:TrackPointExtension>
            <ns3:atemp>21.0</ns3:atemp>
          </ns3:TrackPointExtension>
        </extensions>
      </trkpt>
      <trkpt lat="42.58987116627395153045654296875" lon="20.00860936939716339111328125">
        <ele>1816.199951171875</ele>
        <time>2026-06-15T14:31:18.000Z</time>
        <extensions>
          <ns3:TrackPointExtension>
            <ns3:atemp>21.0</ns3:atemp>
          </ns3:TrackPointExtension>
        </extensions>
      </trkpt>
      <trkpt lat="42.58987116627395153045654296875" lon="20.00860936939716339111328125">
        <ele>1816.199951171875</ele>
        <time>2026-06-15T14:31:19.000Z</time>
        <extensions>
          <ns3:TrackPointExtension>
            <ns3:atemp>21.0</ns3:atemp>
          </ns3:TrackPointExtension>
        </extensions>
      </trkpt>
      <trkpt lat="42.58987116627395153045654296875" lon="20.00860936939716339111328125">
        <ele>1816.199951171875</ele>
        <time>2026-06-15T14:31:20.000Z</time>
        <extensions>
          <ns3:TrackPointExtension>
            <ns3:atemp>21.0</ns3:atemp>
          </ns3:TrackPointExtension>
        </extensions>
      </trkpt>
      <trkpt lat="42.58987116627395153045654296875" lon="20.00860936939716339111328125">
        <ele>1816.199951171875</ele>
        <time>2026-06-15T14:31:21.000Z</time>
        <extensions>
          <ns3:TrackPointExtension>
            <ns3:atemp>21.0</ns3:atemp>
          </ns3:TrackPointExtension>
        </extensions>
      </trkpt>
      <trkpt lat="42.58987116627395153045654296875" lon="20.00860936939716339111328125">
        <ele>1816.199951171875</ele>
        <time>2026-06-15T14:31:22.000Z</time>
        <extensions>
          <ns3:TrackPointExtension>
            <ns3:atemp>21.0</ns3:atemp>
          </ns3:TrackPointExtension>
        </extensions>
      </trkpt>
      <trkpt lat="42.58987116627395153045654296875" lon="20.00860936939716339111328125">
        <ele>1816.199951171875</ele>
        <time>2026-06-15T14:31:23.000Z</time>
        <extensions>
          <ns3:TrackPointExtension>
            <ns3:atemp>21.0</ns3:atemp>
          </ns3:TrackPointExtension>
        </extensions>
      </trkpt>
      <trkpt lat="42.58987116627395153045654296875" lon="20.00860936939716339111328125">
        <ele>1816.199951171875</ele>
        <time>2026-06-15T14:31:24.000Z</time>
        <extensions>
          <ns3:TrackPointExtension>
            <ns3:atemp>21.0</ns3:atemp>
          </ns3:TrackPointExtension>
        </extensions>
      </trkpt>
      <trkpt lat="42.58987116627395153045654296875" lon="20.00860936939716339111328125">
        <ele>1816</ele>
        <time>2026-06-15T14:31:25.000Z</time>
        <extensions>
          <ns3:TrackPointExtension>
            <ns3:atemp>20.0</ns3:atemp>
          </ns3:TrackPointExtension>
        </extensions>
      </trkpt>
      <trkpt lat="42.58987116627395153045654296875" lon="20.00860936939716339111328125">
        <ele>1816</ele>
        <time>2026-06-15T14:31:26.000Z</time>
        <extensions>
          <ns3:TrackPointExtension>
            <ns3:atemp>20.0</ns3:atemp>
          </ns3:TrackPointExtension>
        </extensions>
      </trkpt>
      <trkpt lat="42.58987116627395153045654296875" lon="20.00860936939716339111328125">
        <ele>1816</ele>
        <time>2026-06-15T14:31:27.000Z</time>
        <extensions>
          <ns3:TrackPointExtension>
            <ns3:atemp>20.0</ns3:atemp>
          </ns3:TrackPointExtension>
        </extensions>
      </trkpt>
      <trkpt lat="42.58987116627395153045654296875" lon="20.00860936939716339111328125">
        <ele>1816</ele>
        <time>2026-06-15T14:31:28.000Z</time>
        <extensions>
          <ns3:TrackPointExtension>
            <ns3:atemp>21.0</ns3:atemp>
          </ns3:TrackPointExtension>
        </extensions>
      </trkpt>
      <trkpt lat="42.58987116627395153045654296875" lon="20.00860936939716339111328125">
        <ele>1816</ele>
        <time>2026-06-15T14:31:29.000Z</time>
        <extensions>
          <ns3:TrackPointExtension>
            <ns3:atemp>21.0</ns3:atemp>
          </ns3:TrackPointExtension>
        </extensions>
      </trkpt>
      <trkpt lat="42.58987116627395153045654296875" lon="20.00860936939716339111328125">
        <ele>1816</ele>
        <time>2026-06-15T14:31:30.000Z</time>
        <extensions>
          <ns3:TrackPointExtension>
            <ns3:atemp>21.0</ns3:atemp>
          </ns3:TrackPointExtension>
        </extensions>
      </trkpt>
      <trkpt lat="42.58987116627395153045654296875" lon="20.00860936939716339111328125">
        <ele>1816</ele>
        <time>2026-06-15T14:31:31.000Z</time>
        <extensions>
          <ns3:TrackPointExtension>
            <ns3:atemp>21.0</ns3:atemp>
          </ns3:TrackPointExtension>
        </extensions>
      </trkpt>
      <trkpt lat="42.58987116627395153045654296875" lon="20.00860936939716339111328125">
        <ele>1816</ele>
        <time>2026-06-15T14:31:32.000Z</time>
        <extensions>
          <ns3:TrackPointExtension>
            <ns3:atemp>21.0</ns3:atemp>
          </ns3:TrackPointExtension>
        </extensions>
      </trkpt>
      <trkpt lat="42.58987116627395153045654296875" lon="20.00860936939716339111328125">
        <ele>1816</ele>
        <time>2026-06-15T14:31:33.000Z</time>
        <extensions>
          <ns3:TrackPointExtension>
            <ns3:atemp>21.0</ns3:atemp>
          </ns3:TrackPointExtension>
        </extensions>
      </trkpt>
      <trkpt lat="42.58987116627395153045654296875" lon="20.00860936939716339111328125">
        <ele>1815.800048828125</ele>
        <time>2026-06-15T14:31:34.000Z</time>
        <extensions>
          <ns3:TrackPointExtension>
            <ns3:atemp>21.0</ns3:atemp>
          </ns3:TrackPointExtension>
        </extensions>
      </trkpt>
      <trkpt lat="42.58987116627395153045654296875" lon="20.00860936939716339111328125">
        <ele>1815.800048828125</ele>
        <time>2026-06-15T14:31:35.000Z</time>
        <extensions>
          <ns3:TrackPointExtension>
            <ns3:atemp>21.0</ns3:atemp>
          </ns3:TrackPointExtension>
        </extensions>
      </trkpt>
      <trkpt lat="42.58987116627395153045654296875" lon="20.00860936939716339111328125">
        <ele>1815.800048828125</ele>
        <time>2026-06-15T14:31:36.000Z</time>
        <extensions>
          <ns3:TrackPointExtension>
            <ns3:atemp>21.0</ns3:atemp>
          </ns3:TrackPointExtension>
        </extensions>
      </trkpt>
      <trkpt lat="42.58987116627395153045654296875" lon="20.00860936939716339111328125">
        <ele>1815.800048828125</ele>
        <time>2026-06-15T14:31:37.000Z</time>
        <extensions>
          <ns3:TrackPointExtension>
            <ns3:atemp>21.0</ns3:atemp>
          </ns3:TrackPointExtension>
        </extensions>
      </trkpt>
      <trkpt lat="42.58987116627395153045654296875" lon="20.00860936939716339111328125">
        <ele>1815.800048828125</ele>
        <time>2026-06-15T14:31:38.000Z</time>
        <extensions>
          <ns3:TrackPointExtension>
            <ns3:atemp>21.0</ns3:atemp>
          </ns3:TrackPointExtension>
        </extensions>
      </trkpt>
      <trkpt lat="42.58987552486360073089599609375" lon="20.00861582346260547637939453125">
        <ele>1815.800048828125</ele>
        <time>2026-06-15T14:31:39.000Z</time>
        <extensions>
          <ns3:TrackPointExtension>
            <ns3:atemp>20.0</ns3:atemp>
          </ns3:TrackPointExtension>
        </extensions>
      </trkpt>
      <trkpt lat="42.5898836553096771240234375" lon="20.008619092404842376708984375">
        <ele>1815.800048828125</ele>
        <time>2026-06-15T14:31:40.000Z</time>
        <extensions>
          <ns3:TrackPointExtension>
            <ns3:atemp>20.0</ns3:atemp>
          </ns3:TrackPointExtension>
        </extensions>
      </trkpt>
      <trkpt lat="42.58988826535642147064208984375" lon="20.00860040076076984405517578125">
        <ele>1815.800048828125</ele>
        <time>2026-06-15T14:31:41.000Z</time>
        <extensions>
          <ns3:TrackPointExtension>
            <ns3:atemp>21.0</ns3:atemp>
          </ns3:TrackPointExtension>
        </extensions>
      </trkpt>
      <trkpt lat="42.58989245630800724029541015625" lon="20.00857307575643062591552734375">
        <ele>1815.800048828125</ele>
        <time>2026-06-15T14:31:42.000Z</time>
        <extensions>
          <ns3:TrackPointExtension>
            <ns3:atemp>21.0</ns3:atemp>
          </ns3:TrackPointExtension>
        </extensions>
      </trkpt>
      <trkpt lat="42.58990603499114513397216796875" lon="20.00854357145726680755615234375">
        <ele>1815.800048828125</ele>
        <time>2026-06-15T14:31:43.000Z</time>
        <extensions>
          <ns3:TrackPointExtension>
            <ns3:atemp>21.0</ns3:atemp>
          </ns3:TrackPointExtension>
        </extensions>
      </trkpt>
      <trkpt lat="42.58992053568363189697265625" lon="20.00852161087095737457275390625">
        <ele>1815.800048828125</ele>
        <time>2026-06-15T14:31:44.000Z</time>
        <extensions>
          <ns3:TrackPointExtension>
            <ns3:atemp>21.0</ns3:atemp>
          </ns3:TrackPointExtension>
        </extensions>
      </trkpt>
      <trkpt lat="42.58992615155875682830810546875" lon="20.0085109658539295196533203125">
        <ele>1815.800048828125</ele>
        <time>2026-06-15T14:31:45.000Z</time>
        <extensions>
          <ns3:TrackPointExtension>
            <ns3:atemp>21.0</ns3:atemp>
          </ns3:TrackPointExtension>
        </extensions>
      </trkpt>
      <trkpt lat="42.58993084542453289031982421875" lon="20.0084948725998401641845703125">
        <ele>1815.5999755859375</ele>
        <time>2026-06-15T14:31:46.000Z</time>
        <extensions>
          <ns3:TrackPointExtension>
            <ns3:atemp>21.0</ns3:atemp>
          </ns3:TrackPointExtension>
        </extensions>
      </trkpt>
      <trkpt lat="42.5899441726505756378173828125" lon="20.00847525894641876220703125">
        <ele>1815.5999755859375</ele>
        <time>2026-06-15T14:31:47.000Z</time>
        <extensions>
          <ns3:TrackPointExtension>
            <ns3:atemp>21.0</ns3:atemp>
          </ns3:TrackPointExtension>
        </extensions>
      </trkpt>
      <trkpt lat="42.5899676419794559478759765625" lon="20.00845824368298053741455078125">
        <ele>1815.199951171875</ele>
        <time>2026-06-15T14:31:48.000Z</time>
        <extensions>
          <ns3:TrackPointExtension>
            <ns3:atemp>21.0</ns3:atemp>
          </ns3:TrackPointExtension>
        </extensions>
      </trkpt>
      <trkpt lat="42.58999018929898738861083984375" lon="20.008438043296337127685546875">
        <ele>1815</ele>
        <time>2026-06-15T14:31:49.000Z</time>
        <extensions>
          <ns3:TrackPointExtension>
            <ns3:atemp>21.0</ns3:atemp>
          </ns3:TrackPointExtension>
        </extensions>
      </trkpt>
      <trkpt lat="42.59000896476209163665771484375" lon="20.0084100477397441864013671875">
        <ele>1814.5999755859375</ele>
        <time>2026-06-15T14:31:50.000Z</time>
        <extensions>
          <ns3:TrackPointExtension>
            <ns3:atemp>21.0</ns3:atemp>
          </ns3:TrackPointExtension>
        </extensions>
      </trkpt>
      <trkpt lat="42.5900338590145111083984375" lon="20.008385069668292999267578125">
        <ele>1814.4000244140625</ele>
        <time>2026-06-15T14:31:51.000Z</time>
        <extensions>
          <ns3:TrackPointExtension>
            <ns3:atemp>21.0</ns3:atemp>
          </ns3:TrackPointExtension>
        </extensions>
      </trkpt>
      <trkpt lat="42.590054310858249664306640625" lon="20.00835849903523921966552734375">
        <ele>1814.199951171875</ele>
        <time>2026-06-15T14:31:52.000Z</time>
        <extensions>
          <ns3:TrackPointExtension>
            <ns3:atemp>21.0</ns3:atemp>
          </ns3:TrackPointExtension>
        </extensions>
      </trkpt>
      <trkpt lat="42.5900796242058277130126953125" lon="20.00833033584058284759521484375">
        <ele>1814</ele>
        <time>2026-06-15T14:31:53.000Z</time>
        <extensions>
          <ns3:TrackPointExtension>
            <ns3:atemp>21.0</ns3:atemp>
          </ns3:TrackPointExtension>
        </extensions>
      </trkpt>
      <trkpt lat="42.59010787121951580047607421875" lon="20.00831055454909801483154296875">
        <ele>1813.800048828125</ele>
        <time>2026-06-15T14:31:54.000Z</time>
        <extensions>
          <ns3:TrackPointExtension>
            <ns3:atemp>21.0</ns3:atemp>
          </ns3:TrackPointExtension>
        </extensions>
      </trkpt>
      <trkpt lat="42.59013754315674304962158203125" lon="20.00828574411571025848388671875">
        <ele>1813.5999755859375</ele>
        <time>2026-06-15T14:31:55.000Z</time>
        <extensions>
          <ns3:TrackPointExtension>
            <ns3:atemp>21.0</ns3:atemp>
          </ns3:TrackPointExtension>
        </extensions>
      </trkpt>
      <trkpt lat="42.5901641137897968292236328125" lon="20.00827099196612834930419921875">
        <ele>1813.5999755859375</ele>
        <time>2026-06-15T14:31:56.000Z</time>
        <extensions>
          <ns3:TrackPointExtension>
            <ns3:atemp>21.0</ns3:atemp>
          </ns3:TrackPointExtension>
        </extensions>
      </trkpt>
      <trkpt lat="42.59018297307193279266357421875" lon="20.0082434155046939849853515625">
        <ele>1813.4000244140625</ele>
        <time>2026-06-15T14:31:57.000Z</time>
        <extensions>
          <ns3:TrackPointExtension>
            <ns3:atemp>21.0</ns3:atemp>
          </ns3:TrackPointExtension>
        </extensions>
      </trkpt>
      <trkpt lat="42.59018766693770885467529296875" lon="20.00821818597614765167236328125">
        <ele>1813.4000244140625</ele>
        <time>2026-06-15T14:31:58.000Z</time>
        <extensions>
          <ns3:TrackPointExtension>
            <ns3:atemp>21.0</ns3:atemp>
          </ns3:TrackPointExtension>
        </extensions>
      </trkpt>
      <trkpt lat="42.590199820697307586669921875" lon="20.00819270499050617218017578125">
        <ele>1813.4000244140625</ele>
        <time>2026-06-15T14:31:59.000Z</time>
        <extensions>
          <ns3:TrackPointExtension>
            <ns3:atemp>21.0</ns3:atemp>
          </ns3:TrackPointExtension>
        </extensions>
      </trkpt>
      <trkpt lat="42.59020811878144741058349609375" lon="20.008159764111042022705078125">
        <ele>1813.199951171875</ele>
        <time>2026-06-15T14:32:00.000Z</time>
        <extensions>
          <ns3:TrackPointExtension>
            <ns3:atemp>21.0</ns3:atemp>
          </ns3:TrackPointExtension>
        </extensions>
      </trkpt>
      <trkpt lat="42.59022823534905910491943359375" lon="20.0081210397183895111083984375">
        <ele>1813</ele>
        <time>2026-06-15T14:32:01.000Z</time>
        <extensions>
          <ns3:TrackPointExtension>
            <ns3:atemp>21.0</ns3:atemp>
          </ns3:TrackPointExtension>
        </extensions>
      </trkpt>
      <trkpt lat="42.59024198167026042938232421875" lon="20.00807988457381725311279296875">
        <ele>1812.5999755859375</ele>
        <time>2026-06-15T14:32:02.000Z</time>
        <extensions>
          <ns3:TrackPointExtension>
            <ns3:atemp>21.0</ns3:atemp>
          </ns3:TrackPointExtension>
        </extensions>
      </trkpt>
      <trkpt lat="42.5902596674859523773193359375" lon="20.00803546048700809478759765625">
        <ele>1812.4000244140625</ele>
        <time>2026-06-15T14:32:03.000Z</time>
        <extensions>
          <ns3:TrackPointExtension>
            <ns3:atemp>21.0</ns3:atemp>
          </ns3:TrackPointExtension>
        </extensions>
      </trkpt>
      <trkpt lat="42.590287663042545318603515625" lon="20.00799975357949733734130859375">
        <ele>1812</ele>
        <time>2026-06-15T14:32:04.000Z</time>
        <extensions>
          <ns3:TrackPointExtension>
            <ns3:atemp>21.0</ns3:atemp>
          </ns3:TrackPointExtension>
        </extensions>
      </trkpt>
      <trkpt lat="42.59032663889229297637939453125" lon="20.00797561369836330413818359375">
        <ele>1811.800048828125</ele>
        <time>2026-06-15T14:32:05.000Z</time>
        <extensions>
          <ns3:TrackPointExtension>
            <ns3:atemp>21.0</ns3:atemp>
          </ns3:TrackPointExtension>
        </extensions>
      </trkpt>
      <trkpt lat="42.590360082685947418212890625" lon="20.00793806277215480804443359375">
        <ele>1811.5999755859375</ele>
        <time>2026-06-15T14:32:06.000Z</time>
        <extensions>
          <ns3:TrackPointExtension>
            <ns3:atemp>21.0</ns3:atemp>
          </ns3:TrackPointExtension>
        </extensions>
      </trkpt>
      <trkpt lat="42.5903905928134918212890625" lon="20.0078943930566310882568359375">
        <ele>1811.4000244140625</ele>
        <time>2026-06-15T14:32:07.000Z</time>
        <extensions>
          <ns3:TrackPointExtension>
            <ns3:atemp>21.0</ns3:atemp>
          </ns3:TrackPointExtension>
        </extensions>
      </trkpt>
      <trkpt lat="42.59042101912200450897216796875" lon="20.0078487955033779144287109375">
        <ele>1811</ele>
        <time>2026-06-15T14:32:08.000Z</time>
        <extensions>
          <ns3:TrackPointExtension>
            <ns3:atemp>21.0</ns3:atemp>
          </ns3:TrackPointExtension>
        </extensions>
      </trkpt>
      <trkpt lat="42.59044666774570941925048828125" lon="20.00780361704528331756591796875">
        <ele>1810.800048828125</ele>
        <time>2026-06-15T14:32:09.000Z</time>
        <extensions>
          <ns3:TrackPointExtension>
            <ns3:atemp>21.0</ns3:atemp>
          </ns3:TrackPointExtension>
        </extensions>
      </trkpt>
      <trkpt lat="42.59046779014170169830322265625" lon="20.00777293927967548370361328125">
        <ele>1810.4000244140625</ele>
        <time>2026-06-15T14:32:10.000Z</time>
        <extensions>
          <ns3:TrackPointExtension>
            <ns3:atemp>21.0</ns3:atemp>
          </ns3:TrackPointExtension>
        </extensions>
      </trkpt>
      <trkpt lat="42.59048270992934703826904296875" lon="20.0077415071427822113037109375">
        <ele>1810</ele>
        <time>2026-06-15T14:32:11.000Z</time>
        <extensions>
          <ns3:TrackPointExtension>
            <ns3:atemp>21.0</ns3:atemp>
          </ns3:TrackPointExtension>
        </extensions>
      </trkpt>
      <trkpt lat="42.59048572741448879241943359375" lon="20.007717199623584747314453125">
        <ele>1809.5999755859375</ele>
        <time>2026-06-15T14:32:12.000Z</time>
        <extensions>
          <ns3:TrackPointExtension>
            <ns3:atemp>21.0</ns3:atemp>
          </ns3:TrackPointExtension>
        </extensions>
      </trkpt>
      <trkpt lat="42.59048170410096645355224609375" lon="20.00770152546465396881103515625">
        <ele>1809.4000244140625</ele>
        <time>2026-06-15T14:32:13.000Z</time>
        <extensions>
          <ns3:TrackPointExtension>
            <ns3:atemp>21.0</ns3:atemp>
          </ns3:TrackPointExtension>
        </extensions>
      </trkpt>
      <trkpt lat="42.59047935716807842254638671875" lon="20.00767017714679241180419921875">
        <ele>1809.199951171875</ele>
        <time>2026-06-15T14:32:14.000Z</time>
        <extensions>
          <ns3:TrackPointExtension>
            <ns3:atemp>21.0</ns3:atemp>
          </ns3:TrackPointExtension>
        </extensions>
      </trkpt>
      <trkpt lat="42.5904792733490467071533203125" lon="20.007627010345458984375">
        <ele>1809</ele>
        <time>2026-06-15T14:32:15.000Z</time>
        <extensions>
          <ns3:TrackPointExtension>
            <ns3:atemp>21.0</ns3:atemp>
          </ns3:TrackPointExtension>
        </extensions>
      </trkpt>
      <trkpt lat="42.590494193136692047119140625" lon="20.0075956620275974273681640625">
        <ele>1808.4000244140625</ele>
        <time>2026-06-15T14:32:16.000Z</time>
        <extensions>
          <ns3:TrackPointExtension>
            <ns3:atemp>21.0</ns3:atemp>
          </ns3:TrackPointExtension>
        </extensions>
      </trkpt>
      <trkpt lat="42.59051305241882801055908203125" lon="20.00757210887968540191650390625">
        <ele>1807.800048828125</ele>
        <time>2026-06-15T14:32:17.000Z</time>
        <extensions>
          <ns3:TrackPointExtension>
            <ns3:atemp>21.0</ns3:atemp>
          </ns3:TrackPointExtension>
        </extensions>
      </trkpt>
      <trkpt lat="42.59051925502717494964599609375" lon="20.0075398385524749755859375">
        <ele>1807.199951171875</ele>
        <time>2026-06-15T14:32:18.000Z</time>
        <extensions>
          <ns3:TrackPointExtension>
            <ns3:atemp>21.0</ns3:atemp>
          </ns3:TrackPointExtension>
        </extensions>
      </trkpt>
      <trkpt lat="42.59052445180714130401611328125" lon="20.007507316768169403076171875">
        <ele>1806.800048828125</ele>
        <time>2026-06-15T14:32:19.000Z</time>
        <extensions>
          <ns3:TrackPointExtension>
            <ns3:atemp>21.0</ns3:atemp>
          </ns3:TrackPointExtension>
        </extensions>
      </trkpt>
      <trkpt lat="42.5905215181410312652587890625" lon="20.00747747719287872314453125">
        <ele>1806.4000244140625</ele>
        <time>2026-06-15T14:32:20.000Z</time>
        <extensions>
          <ns3:TrackPointExtension>
            <ns3:atemp>21.0</ns3:atemp>
          </ns3:TrackPointExtension>
        </extensions>
      </trkpt>
      <trkpt lat="42.5905151478946208953857421875" lon="20.00744688324630260467529296875">
        <ele>1806.4000244140625</ele>
        <time>2026-06-15T14:32:21.000Z</time>
        <extensions>
          <ns3:TrackPointExtension>
            <ns3:atemp>21.0</ns3:atemp>
          </ns3:TrackPointExtension>
        </extensions>
      </trkpt>
      <trkpt lat="42.59050467051565647125244140625" lon="20.00745090655982494354248046875">
        <ele>1806.199951171875</ele>
        <time>2026-06-15T14:32:22.000Z</time>
        <extensions>
          <ns3:TrackPointExtension>
            <ns3:atemp>21.0</ns3:atemp>
          </ns3:TrackPointExtension>
        </extensions>
      </trkpt>
      <trkpt lat="42.59050391614437103271484375" lon="20.00745199620723724365234375">
        <ele>1806</ele>
        <time>2026-06-15T14:32:23.000Z</time>
        <extensions>
          <ns3:TrackPointExtension>
            <ns3:atemp>21.0</ns3:atemp>
          </ns3:TrackPointExtension>
        </extensions>
      </trkpt>
      <trkpt lat="42.59050383232533931732177734375" lon="20.00745199620723724365234375">
        <ele>1806</ele>
        <time>2026-06-15T14:32:24.000Z</time>
        <extensions>
          <ns3:TrackPointExtension>
            <ns3:atemp>21.0</ns3:atemp>
          </ns3:TrackPointExtension>
        </extensions>
      </trkpt>
      <trkpt lat="42.59050383232533931732177734375" lon="20.00745199620723724365234375">
        <ele>1806</ele>
        <time>2026-06-15T14:32:25.000Z</time>
        <extensions>
          <ns3:TrackPointExtension>
            <ns3:atemp>21.0</ns3:atemp>
          </ns3:TrackPointExtension>
        </extensions>
      </trkpt>
      <trkpt lat="42.59050383232533931732177734375" lon="20.00745199620723724365234375">
        <ele>1805.800048828125</ele>
        <time>2026-06-15T14:32:26.000Z</time>
        <extensions>
          <ns3:TrackPointExtension>
            <ns3:atemp>21.0</ns3:atemp>
          </ns3:TrackPointExtension>
        </extensions>
      </trkpt>
      <trkpt lat="42.59050383232533931732177734375" lon="20.00745199620723724365234375">
        <ele>1805.800048828125</ele>
        <time>2026-06-15T14:32:27.000Z</time>
        <extensions>
          <ns3:TrackPointExtension>
            <ns3:atemp>21.0</ns3:atemp>
          </ns3:TrackPointExtension>
        </extensions>
      </trkpt>
      <trkpt lat="42.59050383232533931732177734375" lon="20.00745199620723724365234375">
        <ele>1805.5999755859375</ele>
        <time>2026-06-15T14:32:28.000Z</time>
        <extensions>
          <ns3:TrackPointExtension>
            <ns3:atemp>21.0</ns3:atemp>
          </ns3:TrackPointExtension>
        </extensions>
      </trkpt>
      <trkpt lat="42.59050383232533931732177734375" lon="20.00745199620723724365234375">
        <ele>1805.4000244140625</ele>
        <time>2026-06-15T14:32:29.000Z</time>
        <extensions>
          <ns3:TrackPointExtension>
            <ns3:atemp>21.0</ns3:atemp>
          </ns3:TrackPointExtension>
        </extensions>
      </trkpt>
      <trkpt lat="42.59050383232533931732177734375" lon="20.00745199620723724365234375">
        <ele>1805.199951171875</ele>
        <time>2026-06-15T14:32:30.000Z</time>
        <extensions>
          <ns3:TrackPointExtension>
            <ns3:atemp>21.0</ns3:atemp>
          </ns3:TrackPointExtension>
        </extensions>
      </trkpt>
      <trkpt lat="42.59050383232533931732177734375" lon="20.00745199620723724365234375">
        <ele>1805.199951171875</ele>
        <time>2026-06-15T14:32:31.000Z</time>
        <extensions>
          <ns3:TrackPointExtension>
            <ns3:atemp>21.0</ns3:atemp>
          </ns3:TrackPointExtension>
        </extensions>
      </trkpt>
      <trkpt lat="42.59050383232533931732177734375" lon="20.00745199620723724365234375">
        <ele>1805</ele>
        <time>2026-06-15T14:32:32.000Z</time>
        <extensions>
          <ns3:TrackPointExtension>
            <ns3:atemp>21.0</ns3:atemp>
          </ns3:TrackPointExtension>
        </extensions>
      </trkpt>
      <trkpt lat="42.59050383232533931732177734375" lon="20.00745199620723724365234375">
        <ele>1805</ele>
        <time>2026-06-15T14:32:33.000Z</time>
        <extensions>
          <ns3:TrackPointExtension>
            <ns3:atemp>21.0</ns3:atemp>
          </ns3:TrackPointExtension>
        </extensions>
      </trkpt>
      <trkpt lat="42.59050383232533931732177734375" lon="20.00745199620723724365234375">
        <ele>1805</ele>
        <time>2026-06-15T14:32:34.000Z</time>
        <extensions>
          <ns3:TrackPointExtension>
            <ns3:atemp>21.0</ns3:atemp>
          </ns3:TrackPointExtension>
        </extensions>
      </trkpt>
      <trkpt lat="42.59050383232533931732177734375" lon="20.00745199620723724365234375">
        <ele>1805</ele>
        <time>2026-06-15T14:32:35.000Z</time>
        <extensions>
          <ns3:TrackPointExtension>
            <ns3:atemp>21.0</ns3:atemp>
          </ns3:TrackPointExtension>
        </extensions>
      </trkpt>
      <trkpt lat="42.59050383232533931732177734375" lon="20.00745199620723724365234375">
        <ele>1805</ele>
        <time>2026-06-15T14:32:36.000Z</time>
        <extensions>
          <ns3:TrackPointExtension>
            <ns3:atemp>21.0</ns3:atemp>
          </ns3:TrackPointExtension>
        </extensions>
      </trkpt>
      <trkpt lat="42.59050383232533931732177734375" lon="20.00745199620723724365234375">
        <ele>1805</ele>
        <time>2026-06-15T14:32:37.000Z</time>
        <extensions>
          <ns3:TrackPointExtension>
            <ns3:atemp>21.0</ns3:atemp>
          </ns3:TrackPointExtension>
        </extensions>
      </trkpt>
      <trkpt lat="42.59050383232533931732177734375" lon="20.00745199620723724365234375">
        <ele>1805</ele>
        <time>2026-06-15T14:32:38.000Z</time>
        <extensions>
          <ns3:TrackPointExtension>
            <ns3:atemp>21.0</ns3:atemp>
          </ns3:TrackPointExtension>
        </extensions>
      </trkpt>
      <trkpt lat="42.59050399996340274810791015625" lon="20.0074528343975543975830078125">
        <ele>1805</ele>
        <time>2026-06-15T14:32:39.000Z</time>
        <extensions>
          <ns3:TrackPointExtension>
            <ns3:atemp>21.0</ns3:atemp>
          </ns3:TrackPointExtension>
        </extensions>
      </trkpt>
      <trkpt lat="42.59050634689629077911376953125" lon="20.00744529068470001220703125">
        <ele>1805</ele>
        <time>2026-06-15T14:32:40.000Z</time>
        <extensions>
          <ns3:TrackPointExtension>
            <ns3:atemp>21.0</ns3:atemp>
          </ns3:TrackPointExtension>
        </extensions>
      </trkpt>
      <trkpt lat="42.590513639152050018310546875" lon="20.00743883661925792694091796875">
        <ele>1805</ele>
        <time>2026-06-15T14:32:41.000Z</time>
        <extensions>
          <ns3:TrackPointExtension>
            <ns3:atemp>21.0</ns3:atemp>
          </ns3:TrackPointExtension>
        </extensions>
      </trkpt>
      <trkpt lat="42.5905174948275089263916015625" lon="20.0074270181357860565185546875">
        <ele>1805</ele>
        <time>2026-06-15T14:32:42.000Z</time>
        <extensions>
          <ns3:TrackPointExtension>
            <ns3:atemp>21.0</ns3:atemp>
          </ns3:TrackPointExtension>
        </extensions>
      </trkpt>
      <trkpt lat="42.59052629582583904266357421875" lon="20.00741134397685527801513671875">
        <ele>1805</ele>
        <time>2026-06-15T14:32:43.000Z</time>
        <extensions>
          <ns3:TrackPointExtension>
            <ns3:atemp>21.0</ns3:atemp>
          </ns3:TrackPointExtension>
        </extensions>
      </trkpt>
      <trkpt lat="42.59053149260580539703369140625" lon="20.00738351605832576751708984375">
        <ele>1805.199951171875</ele>
        <time>2026-06-15T14:32:44.000Z</time>
        <extensions>
          <ns3:TrackPointExtension>
            <ns3:atemp>21.0</ns3:atemp>
          </ns3:TrackPointExtension>
        </extensions>
      </trkpt>
      <trkpt lat="42.59053350426256656646728515625" lon="20.00734177418053150177001953125">
        <ele>1805.199951171875</ele>
        <time>2026-06-15T14:32:45.000Z</time>
        <extensions>
          <ns3:TrackPointExtension>
            <ns3:atemp>21.0</ns3:atemp>
          </ns3:TrackPointExtension>
        </extensions>
      </trkpt>
      <trkpt lat="42.5905486755073070526123046875" lon="20.0072908960282802581787109375">
        <ele>1805.199951171875</ele>
        <time>2026-06-15T14:32:46.000Z</time>
        <extensions>
          <ns3:TrackPointExtension>
            <ns3:atemp>21.0</ns3:atemp>
          </ns3:TrackPointExtension>
        </extensions>
      </trkpt>
      <trkpt lat="42.590556554496288299560546875" lon="20.007253177464008331298828125">
        <ele>1805.199951171875</ele>
        <time>2026-06-15T14:32:47.000Z</time>
        <extensions>
          <ns3:TrackPointExtension>
            <ns3:atemp>21.0</ns3:atemp>
          </ns3:TrackPointExtension>
        </extensions>
      </trkpt>
      <trkpt lat="42.590561248362064361572265625" lon="20.00723113305866718292236328125">
        <ele>1805</ele>
        <time>2026-06-15T14:32:48.000Z</time>
        <extensions>
          <ns3:TrackPointExtension>
            <ns3:atemp>21.0</ns3:atemp>
          </ns3:TrackPointExtension>
        </extensions>
      </trkpt>
      <trkpt lat="42.59056434966623783111572265625" lon="20.0072121061384677886962890625">
        <ele>1804.800048828125</ele>
        <time>2026-06-15T14:32:49.000Z</time>
        <extensions>
          <ns3:TrackPointExtension>
            <ns3:atemp>21.0</ns3:atemp>
          </ns3:TrackPointExtension>
        </extensions>
      </trkpt>
      <trkpt lat="42.59057071991264820098876953125" lon="20.007188804447650909423828125">
        <ele>1804.4000244140625</ele>
        <time>2026-06-15T14:32:50.000Z</time>
        <extensions>
          <ns3:TrackPointExtension>
            <ns3:atemp>21.0</ns3:atemp>
          </ns3:TrackPointExtension>
        </extensions>
      </trkpt>
      <trkpt lat="42.59058035910129547119140625" lon="20.0071681849658489227294921875">
        <ele>1804</ele>
        <time>2026-06-15T14:32:51.000Z</time>
        <extensions>
          <ns3:TrackPointExtension>
            <ns3:atemp>21.0</ns3:atemp>
          </ns3:TrackPointExtension>
        </extensions>
      </trkpt>
      <trkpt lat="42.59058932773768901824951171875" lon="20.00715469010174274444580078125">
        <ele>1803.800048828125</ele>
        <time>2026-06-15T14:32:52.000Z</time>
        <extensions>
          <ns3:TrackPointExtension>
            <ns3:atemp>21.0</ns3:atemp>
          </ns3:TrackPointExtension>
        </extensions>
      </trkpt>
      <trkpt lat="42.590592764317989349365234375" lon="20.00715485773980617523193359375">
        <ele>1803.4000244140625</ele>
        <time>2026-06-15T14:32:53.000Z</time>
        <extensions>
          <ns3:TrackPointExtension>
            <ns3:atemp>21.0</ns3:atemp>
          </ns3:TrackPointExtension>
        </extensions>
      </trkpt>
      <trkpt lat="42.590592764317989349365234375" lon="20.0071547739207744598388671875">
        <ele>1803.199951171875</ele>
        <time>2026-06-15T14:32:54.000Z</time>
        <extensions>
          <ns3:TrackPointExtension>
            <ns3:atemp>21.0</ns3:atemp>
          </ns3:TrackPointExtension>
        </extensions>
      </trkpt>
      <trkpt lat="42.590592764317989349365234375" lon="20.0071547739207744598388671875">
        <ele>1803</ele>
        <time>2026-06-15T14:32:55.000Z</time>
        <extensions>
          <ns3:TrackPointExtension>
            <ns3:atemp>21.0</ns3:atemp>
          </ns3:TrackPointExtension>
        </extensions>
      </trkpt>
      <trkpt lat="42.590592764317989349365234375" lon="20.0071547739207744598388671875">
        <ele>1802.5999755859375</ele>
        <time>2026-06-15T14:32:56.000Z</time>
        <extensions>
          <ns3:TrackPointExtension>
            <ns3:atemp>21.0</ns3:atemp>
          </ns3:TrackPointExtension>
        </extensions>
      </trkpt>
      <trkpt lat="42.590592764317989349365234375" lon="20.0071547739207744598388671875">
        <ele>1802.5999755859375</ele>
        <time>2026-06-15T14:32:57.000Z</time>
        <extensions>
          <ns3:TrackPointExtension>
            <ns3:atemp>21.0</ns3:atemp>
          </ns3:TrackPointExtension>
        </extensions>
      </trkpt>
      <trkpt lat="42.590592764317989349365234375" lon="20.0071547739207744598388671875">
        <ele>1802.4000244140625</ele>
        <time>2026-06-15T14:32:58.000Z</time>
        <extensions>
          <ns3:TrackPointExtension>
            <ns3:atemp>21.0</ns3:atemp>
          </ns3:TrackPointExtension>
        </extensions>
      </trkpt>
      <trkpt lat="42.590592764317989349365234375" lon="20.0071547739207744598388671875">
        <ele>1802.4000244140625</ele>
        <time>2026-06-15T14:32:59.000Z</time>
        <extensions>
          <ns3:TrackPointExtension>
            <ns3:atemp>21.0</ns3:atemp>
          </ns3:TrackPointExtension>
        </extensions>
      </trkpt>
      <trkpt lat="42.590592764317989349365234375" lon="20.0071547739207744598388671875">
        <ele>1802.199951171875</ele>
        <time>2026-06-15T14:33:00.000Z</time>
        <extensions>
          <ns3:TrackPointExtension>
            <ns3:atemp>21.0</ns3:atemp>
          </ns3:TrackPointExtension>
        </extensions>
      </trkpt>
      <trkpt lat="42.590592764317989349365234375" lon="20.0071547739207744598388671875">
        <ele>1802.199951171875</ele>
        <time>2026-06-15T14:33:01.000Z</time>
        <extensions>
          <ns3:TrackPointExtension>
            <ns3:atemp>21.0</ns3:atemp>
          </ns3:TrackPointExtension>
        </extensions>
      </trkpt>
      <trkpt lat="42.590592764317989349365234375" lon="20.0071547739207744598388671875">
        <ele>1802.199951171875</ele>
        <time>2026-06-15T14:33:02.000Z</time>
        <extensions>
          <ns3:TrackPointExtension>
            <ns3:atemp>21.0</ns3:atemp>
          </ns3:TrackPointExtension>
        </extensions>
      </trkpt>
      <trkpt lat="42.590592764317989349365234375" lon="20.0071547739207744598388671875">
        <ele>1802.199951171875</ele>
        <time>2026-06-15T14:33:03.000Z</time>
        <extensions>
          <ns3:TrackPointExtension>
            <ns3:atemp>21.0</ns3:atemp>
          </ns3:TrackPointExtension>
        </extensions>
      </trkpt>
      <trkpt lat="42.590592764317989349365234375" lon="20.0071547739207744598388671875">
        <ele>1802.199951171875</ele>
        <time>2026-06-15T14:33:04.000Z</time>
        <extensions>
          <ns3:TrackPointExtension>
            <ns3:atemp>21.0</ns3:atemp>
          </ns3:TrackPointExtension>
        </extensions>
      </trkpt>
      <trkpt lat="42.590592764317989349365234375" lon="20.0071547739207744598388671875">
        <ele>1802.199951171875</ele>
        <time>2026-06-15T14:33:05.000Z</time>
        <extensions>
          <ns3:TrackPointExtension>
            <ns3:atemp>21.0</ns3:atemp>
          </ns3:TrackPointExtension>
        </extensions>
      </trkpt>
      <trkpt lat="42.590592764317989349365234375" lon="20.0071547739207744598388671875">
        <ele>1802.199951171875</ele>
        <time>2026-06-15T14:33:06.000Z</time>
        <extensions>
          <ns3:TrackPointExtension>
            <ns3:atemp>21.0</ns3:atemp>
          </ns3:TrackPointExtension>
        </extensions>
      </trkpt>
      <trkpt lat="42.590592764317989349365234375" lon="20.0071547739207744598388671875">
        <ele>1802</ele>
        <time>2026-06-15T14:33:07.000Z</time>
        <extensions>
          <ns3:TrackPointExtension>
            <ns3:atemp>21.0</ns3:atemp>
          </ns3:TrackPointExtension>
        </extensions>
      </trkpt>
      <trkpt lat="42.590592764317989349365234375" lon="20.0071547739207744598388671875">
        <ele>1802</ele>
        <time>2026-06-15T14:33:08.000Z</time>
        <extensions>
          <ns3:TrackPointExtension>
            <ns3:atemp>21.0</ns3:atemp>
          </ns3:TrackPointExtension>
        </extensions>
      </trkpt>
      <trkpt lat="42.590592764317989349365234375" lon="20.0071547739207744598388671875">
        <ele>1802</ele>
        <time>2026-06-15T14:33:09.000Z</time>
        <extensions>
          <ns3:TrackPointExtension>
            <ns3:atemp>21.0</ns3:atemp>
          </ns3:TrackPointExtension>
        </extensions>
      </trkpt>
      <trkpt lat="42.590592764317989349365234375" lon="20.0071547739207744598388671875">
        <ele>1802.199951171875</ele>
        <time>2026-06-15T14:33:10.000Z</time>
        <extensions>
          <ns3:TrackPointExtension>
            <ns3:atemp>21.0</ns3:atemp>
          </ns3:TrackPointExtension>
        </extensions>
      </trkpt>
      <trkpt lat="42.590592764317989349365234375" lon="20.0071547739207744598388671875">
        <ele>1802.199951171875</ele>
        <time>2026-06-15T14:33:11.000Z</time>
        <extensions>
          <ns3:TrackPointExtension>
            <ns3:atemp>21.0</ns3:atemp>
          </ns3:TrackPointExtension>
        </extensions>
      </trkpt>
      <trkpt lat="42.590592764317989349365234375" lon="20.0071547739207744598388671875">
        <ele>1802.199951171875</ele>
        <time>2026-06-15T14:33:12.000Z</time>
        <extensions>
          <ns3:TrackPointExtension>
            <ns3:atemp>21.0</ns3:atemp>
          </ns3:TrackPointExtension>
        </extensions>
      </trkpt>
      <trkpt lat="42.590599469840526580810546875" lon="20.0071554444730281829833984375">
        <ele>1802</ele>
        <time>2026-06-15T14:33:13.000Z</time>
        <extensions>
          <ns3:TrackPointExtension>
            <ns3:atemp>21.0</ns3:atemp>
          </ns3:TrackPointExtension>
        </extensions>
      </trkpt>
      <trkpt lat="42.59061916731297969818115234375" lon="20.0071490742266178131103515625">
        <ele>1802</ele>
        <time>2026-06-15T14:33:14.000Z</time>
        <extensions>
          <ns3:TrackPointExtension>
            <ns3:atemp>21.0</ns3:atemp>
          </ns3:TrackPointExtension>
        </extensions>
      </trkpt>
      <trkpt lat="42.5906328298151493072509765625" lon="20.00713859684765338897705078125">
        <ele>1802</ele>
        <time>2026-06-15T14:33:15.000Z</time>
        <extensions>
          <ns3:TrackPointExtension>
            <ns3:atemp>21.0</ns3:atemp>
          </ns3:TrackPointExtension>
        </extensions>
      </trkpt>
      <trkpt lat="42.59064263664186000823974609375" lon="20.00712015666067600250244140625">
        <ele>1801.800048828125</ele>
        <time>2026-06-15T14:33:16.000Z</time>
        <extensions>
          <ns3:TrackPointExtension>
            <ns3:atemp>21.0</ns3:atemp>
          </ns3:TrackPointExtension>
        </extensions>
      </trkpt>
      <trkpt lat="42.59064632467925548553466796875" lon="20.0071080029010772705078125">
        <ele>1801.5999755859375</ele>
        <time>2026-06-15T14:33:17.000Z</time>
        <extensions>
          <ns3:TrackPointExtension>
            <ns3:atemp>21.0</ns3:atemp>
          </ns3:TrackPointExtension>
        </extensions>
      </trkpt>
      <trkpt lat="42.59065303020179271697998046875" lon="20.00709081999957561492919921875">
        <ele>1801.199951171875</ele>
        <time>2026-06-15T14:33:18.000Z</time>
        <extensions>
          <ns3:TrackPointExtension>
            <ns3:atemp>21.0</ns3:atemp>
          </ns3:TrackPointExtension>
        </extensions>
      </trkpt>
      <trkpt lat="42.59065520949661731719970703125" lon="20.00706416554749011993408203125">
        <ele>1800.800048828125</ele>
        <time>2026-06-15T14:33:19.000Z</time>
        <extensions>
          <ns3:TrackPointExtension>
            <ns3:atemp>21.0</ns3:atemp>
          </ns3:TrackPointExtension>
        </extensions>
      </trkpt>
      <trkpt lat="42.59066040627658367156982421875" lon="20.00703767873346805572509765625">
        <ele>1800.199951171875</ele>
        <time>2026-06-15T14:33:20.000Z</time>
        <extensions>
          <ns3:TrackPointExtension>
            <ns3:atemp>21.0</ns3:atemp>
          </ns3:TrackPointExtension>
        </extensions>
      </trkpt>
      <trkpt lat="42.59066442959010601043701171875" lon="20.00700783915817737579345703125">
        <ele>1799.5999755859375</ele>
        <time>2026-06-15T14:33:21.000Z</time>
        <extensions>
          <ns3:TrackPointExtension>
            <ns3:atemp>21.0</ns3:atemp>
          </ns3:TrackPointExtension>
        </extensions>
      </trkpt>
      <trkpt lat="42.5906695425510406494140625" lon="20.0069851242005825042724609375">
        <ele>1798.800048828125</ele>
        <time>2026-06-15T14:33:22.000Z</time>
        <extensions>
          <ns3:TrackPointExtension>
            <ns3:atemp>21.0</ns3:atemp>
          </ns3:TrackPointExtension>
        </extensions>
      </trkpt>
      <trkpt lat="42.59069301187992095947265625" lon="20.006963498890399932861328125">
        <ele>1798.199951171875</ele>
        <time>2026-06-15T14:33:23.000Z</time>
        <extensions>
          <ns3:TrackPointExtension>
            <ns3:atemp>21.0</ns3:atemp>
          </ns3:TrackPointExtension>
        </extensions>
      </trkpt>
      <trkpt lat="42.59071002714335918426513671875" lon="20.00693659298121929168701171875">
        <ele>1797.4000244140625</ele>
        <time>2026-06-15T14:33:24.000Z</time>
        <extensions>
          <ns3:TrackPointExtension>
            <ns3:atemp>21.0</ns3:atemp>
          </ns3:TrackPointExtension>
        </extensions>
      </trkpt>
      <trkpt lat="42.59074866771697998046875" lon="20.0069081783294677734375">
        <ele>1796.4000244140625</ele>
        <time>2026-06-15T14:33:25.000Z</time>
        <extensions>
          <ns3:TrackPointExtension>
            <ns3:atemp>21.0</ns3:atemp>
          </ns3:TrackPointExtension>
        </extensions>
      </trkpt>
      <trkpt lat="42.5907783396542072296142578125" lon="20.0068711303174495697021484375">
        <ele>1795.5999755859375</ele>
        <time>2026-06-15T14:33:26.000Z</time>
        <extensions>
          <ns3:TrackPointExtension>
            <ns3:atemp>21.0</ns3:atemp>
          </ns3:TrackPointExtension>
        </extensions>
      </trkpt>
      <trkpt lat="42.59080608375370502471923828125" lon="20.0068439729511737823486328125">
        <ele>1794.800048828125</ele>
        <time>2026-06-15T14:33:27.000Z</time>
        <extensions>
          <ns3:TrackPointExtension>
            <ns3:atemp>21.0</ns3:atemp>
          </ns3:TrackPointExtension>
        </extensions>
      </trkpt>
      <trkpt lat="42.5908356718719005584716796875" lon="20.0068496726453304290771484375">
        <ele>1794</ele>
        <time>2026-06-15T14:33:28.000Z</time>
        <extensions>
          <ns3:TrackPointExtension>
            <ns3:atemp>21.0</ns3:atemp>
          </ns3:TrackPointExtension>
        </extensions>
      </trkpt>
      <trkpt lat="42.59086525999009609222412109375" lon="20.00686182640492916107177734375">
        <ele>1793.4000244140625</ele>
        <time>2026-06-15T14:33:29.000Z</time>
        <extensions>
          <ns3:TrackPointExtension>
            <ns3:atemp>21.0</ns3:atemp>
          </ns3:TrackPointExtension>
        </extensions>
      </trkpt>
      <trkpt lat="42.5908926688134670257568359375" lon="20.00686970539391040802001953125">
        <ele>1792.4000244140625</ele>
        <time>2026-06-15T14:33:30.000Z</time>
        <extensions>
          <ns3:TrackPointExtension>
            <ns3:atemp>21.0</ns3:atemp>
          </ns3:TrackPointExtension>
        </extensions>
      </trkpt>
      <trkpt lat="42.59093030355870723724365234375" lon="20.00687423162162303924560546875">
        <ele>1791.800048828125</ele>
        <time>2026-06-15T14:33:31.000Z</time>
        <extensions>
          <ns3:TrackPointExtension>
            <ns3:atemp>21.0</ns3:atemp>
          </ns3:TrackPointExtension>
        </extensions>
      </trkpt>
      <trkpt lat="42.59095746092498302459716796875" lon="20.0068624131381511688232421875">
        <ele>1791.4000244140625</ele>
        <time>2026-06-15T14:33:32.000Z</time>
        <extensions>
          <ns3:TrackPointExtension>
            <ns3:atemp>21.0</ns3:atemp>
          </ns3:TrackPointExtension>
        </extensions>
      </trkpt>
      <trkpt lat="42.5909841991961002349853515625" lon="20.00684916973114013671875">
        <ele>1790.800048828125</ele>
        <time>2026-06-15T14:33:33.000Z</time>
        <extensions>
          <ns3:TrackPointExtension>
            <ns3:atemp>21.0</ns3:atemp>
          </ns3:TrackPointExtension>
        </extensions>
      </trkpt>
      <trkpt lat="42.591007165610790252685546875" lon="20.00682444311678409576416015625">
        <ele>1790.5999755859375</ele>
        <time>2026-06-15T14:33:34.000Z</time>
        <extensions>
          <ns3:TrackPointExtension>
            <ns3:atemp>21.0</ns3:atemp>
          </ns3:TrackPointExtension>
        </extensions>
      </trkpt>
      <trkpt lat="42.59103365242481231689453125" lon="20.00679778866469860076904296875">
        <ele>1789.800048828125</ele>
        <time>2026-06-15T14:33:35.000Z</time>
        <extensions>
          <ns3:TrackPointExtension>
            <ns3:atemp>21.0</ns3:atemp>
          </ns3:TrackPointExtension>
        </extensions>
      </trkpt>
      <trkpt lat="42.591060809791088104248046875" lon="20.00676669180393218994140625">
        <ele>1788.800048828125</ele>
        <time>2026-06-15T14:33:36.000Z</time>
        <extensions>
          <ns3:TrackPointExtension>
            <ns3:atemp>21.0</ns3:atemp>
          </ns3:TrackPointExtension>
        </extensions>
      </trkpt>
      <trkpt lat="42.591098360717296600341796875" lon="20.006744898855686187744140625">
        <ele>1788.199951171875</ele>
        <time>2026-06-15T14:33:37.000Z</time>
        <extensions>
          <ns3:TrackPointExtension>
            <ns3:atemp>21.0</ns3:atemp>
          </ns3:TrackPointExtension>
        </extensions>
      </trkpt>
      <trkpt lat="42.59113951586186885833740234375" lon="20.00670257024466991424560546875">
        <ele>1787.199951171875</ele>
        <time>2026-06-15T14:33:38.000Z</time>
        <extensions>
          <ns3:TrackPointExtension>
            <ns3:atemp>21.0</ns3:atemp>
          </ns3:TrackPointExtension>
        </extensions>
      </trkpt>
      <trkpt lat="42.59118326939642429351806640625" lon="20.00665814615786075592041015625">
        <ele>1786.800048828125</ele>
        <time>2026-06-15T14:33:39.000Z</time>
        <extensions>
          <ns3:TrackPointExtension>
            <ns3:atemp>21.0</ns3:atemp>
          </ns3:TrackPointExtension>
        </extensions>
      </trkpt>
      <trkpt lat="42.59123054333031177520751953125" lon="20.0066344253718852996826171875">
        <ele>1786.199951171875</ele>
        <time>2026-06-15T14:33:40.000Z</time>
        <extensions>
          <ns3:TrackPointExtension>
            <ns3:atemp>21.0</ns3:atemp>
          </ns3:TrackPointExtension>
        </extensions>
      </trkpt>
      <trkpt lat="42.591271363198757171630859375" lon="20.00661925412714481353759765625">
        <ele>1785.5999755859375</ele>
        <time>2026-06-15T14:33:41.000Z</time>
        <extensions>
          <ns3:TrackPointExtension>
            <ns3:atemp>21.0</ns3:atemp>
          </ns3:TrackPointExtension>
        </extensions>
      </trkpt>
      <trkpt lat="42.5913144461810588836669921875" lon="20.00661271624267101287841796875">
        <ele>1785.199951171875</ele>
        <time>2026-06-15T14:33:42.000Z</time>
        <extensions>
          <ns3:TrackPointExtension>
            <ns3:atemp>21.0</ns3:atemp>
          </ns3:TrackPointExtension>
        </extensions>
      </trkpt>
      <trkpt lat="42.59135761298239231109619140625" lon="20.0066065974533557891845703125">
        <ele>1785</ele>
        <time>2026-06-15T14:33:43.000Z</time>
        <extensions>
          <ns3:TrackPointExtension>
            <ns3:atemp>21.0</ns3:atemp>
          </ns3:TrackPointExtension>
        </extensions>
      </trkpt>
      <trkpt lat="42.59139843285083770751953125" lon="20.00659142620861530303955078125">
        <ele>1785</ele>
        <time>2026-06-15T14:33:44.000Z</time>
        <extensions>
          <ns3:TrackPointExtension>
            <ns3:atemp>21.0</ns3:atemp>
          </ns3:TrackPointExtension>
        </extensions>
      </trkpt>
      <trkpt lat="42.5914210639894008636474609375" lon="20.00656058080494403839111328125">
        <ele>1784.800048828125</ele>
        <time>2026-06-15T14:33:45.000Z</time>
        <extensions>
          <ns3:TrackPointExtension>
            <ns3:atemp>21.0</ns3:atemp>
          </ns3:TrackPointExtension>
        </extensions>
      </trkpt>
      <trkpt lat="42.591439671814441680908203125" lon="20.00652085058391094207763671875">
        <ele>1784.5999755859375</ele>
        <time>2026-06-15T14:33:46.000Z</time>
        <extensions>
          <ns3:TrackPointExtension>
            <ns3:atemp>21.0</ns3:atemp>
          </ns3:TrackPointExtension>
        </extensions>
      </trkpt>
      <trkpt lat="42.59147085249423980712890625" lon="20.00649402849376201629638671875">
        <ele>1784</ele>
        <time>2026-06-15T14:33:47.000Z</time>
        <extensions>
          <ns3:TrackPointExtension>
            <ns3:atemp>21.0</ns3:atemp>
          </ns3:TrackPointExtension>
        </extensions>
      </trkpt>
      <trkpt lat="42.59149893186986446380615234375" lon="20.00646754167973995208740234375">
        <ele>1783.5999755859375</ele>
        <time>2026-06-15T14:33:48.000Z</time>
        <extensions>
          <ns3:TrackPointExtension>
            <ns3:atemp>21.0</ns3:atemp>
          </ns3:TrackPointExtension>
        </extensions>
      </trkpt>
      <trkpt lat="42.59151150472462177276611328125" lon="20.00643946230411529541015625">
        <ele>1783</ele>
        <time>2026-06-15T14:33:49.000Z</time>
        <extensions>
          <ns3:TrackPointExtension>
            <ns3:atemp>21.0</ns3:atemp>
          </ns3:TrackPointExtension>
        </extensions>
      </trkpt>
      <trkpt lat="42.59152206592261791229248046875" lon="20.00641372986137866973876953125">
        <ele>1782.5999755859375</ele>
        <time>2026-06-15T14:33:50.000Z</time>
        <extensions>
          <ns3:TrackPointExtension>
            <ns3:atemp>21.0</ns3:atemp>
          </ns3:TrackPointExtension>
        </extensions>
      </trkpt>
      <trkpt lat="42.59153581224381923675537109375" lon="20.00638908706605434417724609375">
        <ele>1782</ele>
        <time>2026-06-15T14:33:51.000Z</time>
        <extensions>
          <ns3:TrackPointExtension>
            <ns3:atemp>21.0</ns3:atemp>
          </ns3:TrackPointExtension>
        </extensions>
      </trkpt>
      <trkpt lat="42.59154721163213253021240234375" lon="20.0063662044703960418701171875">
        <ele>1781.4000244140625</ele>
        <time>2026-06-15T14:33:52.000Z</time>
        <extensions>
          <ns3:TrackPointExtension>
            <ns3:atemp>21.0</ns3:atemp>
          </ns3:TrackPointExtension>
        </extensions>
      </trkpt>
      <trkpt lat="42.59156129322946071624755859375" lon="20.0063541345298290252685546875">
        <ele>1781</ele>
        <time>2026-06-15T14:33:53.000Z</time>
        <extensions>
          <ns3:TrackPointExtension>
            <ns3:atemp>21.0</ns3:atemp>
          </ns3:TrackPointExtension>
        </extensions>
      </trkpt>
      <trkpt lat="42.5915840081870555877685546875" lon="20.00633418560028076171875">
        <ele>1780.4000244140625</ele>
        <time>2026-06-15T14:33:54.000Z</time>
        <extensions>
          <ns3:TrackPointExtension>
            <ns3:atemp>21.0</ns3:atemp>
          </ns3:TrackPointExtension>
        </extensions>
      </trkpt>
      <trkpt lat="42.591613344848155975341796875" lon="20.006308369338512420654296875">
        <ele>1780</ele>
        <time>2026-06-15T14:33:55.000Z</time>
        <extensions>
          <ns3:TrackPointExtension>
            <ns3:atemp>21.0</ns3:atemp>
          </ns3:TrackPointExtension>
        </extensions>
      </trkpt>
      <trkpt lat="42.59165349416434764862060546875" lon="20.00628582201898097991943359375">
        <ele>1779.4000244140625</ele>
        <time>2026-06-15T14:33:56.000Z</time>
        <extensions>
          <ns3:TrackPointExtension>
            <ns3:atemp>21.0</ns3:atemp>
          </ns3:TrackPointExtension>
        </extensions>
      </trkpt>
      <trkpt lat="42.5917030312120914459228515625" lon="20.00625078566372394561767578125">
        <ele>1778.800048828125</ele>
        <time>2026-06-15T14:33:57.000Z</time>
        <extensions>
          <ns3:TrackPointExtension>
            <ns3:atemp>21.0</ns3:atemp>
          </ns3:TrackPointExtension>
        </extensions>
      </trkpt>
      <trkpt lat="42.59175248444080352783203125" lon="20.00622865743935108184814453125">
        <ele>1777.800048828125</ele>
        <time>2026-06-15T14:33:58.000Z</time>
        <extensions>
          <ns3:TrackPointExtension>
            <ns3:atemp>21.0</ns3:atemp>
          </ns3:TrackPointExtension>
        </extensions>
      </trkpt>
      <trkpt lat="42.5917818211019039154052734375" lon="20.0062040984630584716796875">
        <ele>1777</ele>
        <time>2026-06-15T14:33:59.000Z</time>
        <extensions>
          <ns3:TrackPointExtension>
            <ns3:atemp>21.0</ns3:atemp>
          </ns3:TrackPointExtension>
        </extensions>
      </trkpt>
      <trkpt lat="42.59180705063045024871826171875" lon="20.0061844848096370697021484375">
        <ele>1776.4000244140625</ele>
        <time>2026-06-15T14:34:00.000Z</time>
        <extensions>
          <ns3:TrackPointExtension>
            <ns3:atemp>21.0</ns3:atemp>
          </ns3:TrackPointExtension>
        </extensions>
      </trkpt>
      <trkpt lat="42.5918341241776943206787109375" lon="20.006170570850372314453125">
        <ele>1775.800048828125</ele>
        <time>2026-06-15T14:34:01.000Z</time>
        <extensions>
          <ns3:TrackPointExtension>
            <ns3:atemp>21.0</ns3:atemp>
          </ns3:TrackPointExtension>
        </extensions>
      </trkpt>
      <trkpt lat="42.5918508879840373992919921875" lon="20.00615070573985576629638671875">
        <ele>1775.4000244140625</ele>
        <time>2026-06-15T14:34:02.000Z</time>
        <extensions>
          <ns3:TrackPointExtension>
            <ns3:atemp>21.0</ns3:atemp>
          </ns3:TrackPointExtension>
        </extensions>
      </trkpt>
      <trkpt lat="42.59187008254230022430419921875" lon="20.00613100826740264892578125">
        <ele>1774.800048828125</ele>
        <time>2026-06-15T14:34:03.000Z</time>
        <extensions>
          <ns3:TrackPointExtension>
            <ns3:atemp>21.0</ns3:atemp>
          </ns3:TrackPointExtension>
        </extensions>
      </trkpt>
      <trkpt lat="42.591892294585704803466796875" lon="20.00611684285104274749755859375">
        <ele>1774.4000244140625</ele>
        <time>2026-06-15T14:34:04.000Z</time>
        <extensions>
          <ns3:TrackPointExtension>
            <ns3:atemp>21.0</ns3:atemp>
          </ns3:TrackPointExtension>
        </extensions>
      </trkpt>
      <trkpt lat="42.59191132150590419769287109375" lon="20.00609991140663623809814453125">
        <ele>1774</ele>
        <time>2026-06-15T14:34:05.000Z</time>
        <extensions>
          <ns3:TrackPointExtension>
            <ns3:atemp>21.0</ns3:atemp>
          </ns3:TrackPointExtension>
        </extensions>
      </trkpt>
      <trkpt lat="42.5919350422918796539306640625" lon="20.006077699363231658935546875">
        <ele>1773.5999755859375</ele>
        <time>2026-06-15T14:34:06.000Z</time>
        <extensions>
          <ns3:TrackPointExtension>
            <ns3:atemp>21.0</ns3:atemp>
          </ns3:TrackPointExtension>
        </extensions>
      </trkpt>
      <trkpt lat="42.59195608086884021759033203125" lon="20.00605590641498565673828125">
        <ele>1773.199951171875</ele>
        <time>2026-06-15T14:34:07.000Z</time>
        <extensions>
          <ns3:TrackPointExtension>
            <ns3:atemp>21.0</ns3:atemp>
          </ns3:TrackPointExtension>
        </extensions>
      </trkpt>
      <trkpt lat="42.59197200648486614227294921875" lon="20.00602363608777523040771484375">
        <ele>1772.800048828125</ele>
        <time>2026-06-15T14:34:08.000Z</time>
        <extensions>
          <ns3:TrackPointExtension>
            <ns3:atemp>21.0</ns3:atemp>
          </ns3:TrackPointExtension>
        </extensions>
      </trkpt>
      <trkpt lat="42.591985166072845458984375" lon="20.00598524697124958038330078125">
        <ele>1772.199951171875</ele>
        <time>2026-06-15T14:34:09.000Z</time>
        <extensions>
          <ns3:TrackPointExtension>
            <ns3:atemp>21.0</ns3:atemp>
          </ns3:TrackPointExtension>
        </extensions>
      </trkpt>
      <trkpt lat="42.5920026004314422607421875" lon="20.0059571675956249237060546875">
        <ele>1771.5999755859375</ele>
        <time>2026-06-15T14:34:10.000Z</time>
        <extensions>
          <ns3:TrackPointExtension>
            <ns3:atemp>21.0</ns3:atemp>
          </ns3:TrackPointExtension>
        </extensions>
      </trkpt>
      <trkpt lat="42.59201802313327789306640625" lon="20.00595674850046634674072265625">
        <ele>1771</ele>
        <time>2026-06-15T14:34:11.000Z</time>
        <extensions>
          <ns3:TrackPointExtension>
            <ns3:atemp>21.0</ns3:atemp>
          </ns3:TrackPointExtension>
        </extensions>
      </trkpt>
      <trkpt lat="42.59204140864312648773193359375" lon="20.00595490448176860809326171875">
        <ele>1770.5999755859375</ele>
        <time>2026-06-15T14:34:12.000Z</time>
        <extensions>
          <ns3:TrackPointExtension>
            <ns3:atemp>21.0</ns3:atemp>
          </ns3:TrackPointExtension>
        </extensions>
      </trkpt>
      <trkpt lat="42.5920562446117401123046875" lon="20.0059531442821025848388671875">
        <ele>1770</ele>
        <time>2026-06-15T14:34:13.000Z</time>
        <extensions>
          <ns3:TrackPointExtension>
            <ns3:atemp>21.0</ns3:atemp>
          </ns3:TrackPointExtension>
        </extensions>
      </trkpt>
      <trkpt lat="42.5920641236007213592529296875" lon="20.0059474445879459381103515625">
        <ele>1769.5999755859375</ele>
        <time>2026-06-15T14:34:14.000Z</time>
        <extensions>
          <ns3:TrackPointExtension>
            <ns3:atemp>21.0</ns3:atemp>
          </ns3:TrackPointExtension>
        </extensions>
      </trkpt>
      <trkpt lat="42.59206420741975307464599609375" lon="20.00593579374253749847412109375">
        <ele>1769.199951171875</ele>
        <time>2026-06-15T14:34:15.000Z</time>
        <extensions>
          <ns3:TrackPointExtension>
            <ns3:atemp>21.0</ns3:atemp>
          </ns3:TrackPointExtension>
        </extensions>
      </trkpt>
      <trkpt lat="42.5920708291232585906982421875" lon="20.00591802410781383514404296875">
        <ele>1768.800048828125</ele>
        <time>2026-06-15T14:34:16.000Z</time>
        <extensions>
          <ns3:TrackPointExtension>
            <ns3:atemp>21.0</ns3:atemp>
          </ns3:TrackPointExtension>
        </extensions>
      </trkpt>
      <trkpt lat="42.59209186770021915435791015625" lon="20.0058948062360286712646484375">
        <ele>1768.4000244140625</ele>
        <time>2026-06-15T14:34:17.000Z</time>
        <extensions>
          <ns3:TrackPointExtension>
            <ns3:atemp>21.0</ns3:atemp>
          </ns3:TrackPointExtension>
        </extensions>
      </trkpt>
      <trkpt lat="42.59211751632392406463623046875" lon="20.00586815178394317626953125">
        <ele>1767.800048828125</ele>
        <time>2026-06-15T14:34:18.000Z</time>
        <extensions>
          <ns3:TrackPointExtension>
            <ns3:atemp>21.0</ns3:atemp>
          </ns3:TrackPointExtension>
        </extensions>
      </trkpt>
      <trkpt lat="42.59214970283210277557373046875" lon="20.00584158115088939666748046875">
        <ele>1767.4000244140625</ele>
        <time>2026-06-15T14:34:19.000Z</time>
        <extensions>
          <ns3:TrackPointExtension>
            <ns3:atemp>21.0</ns3:atemp>
          </ns3:TrackPointExtension>
        </extensions>
      </trkpt>
      <trkpt lat="42.592182643711566925048828125" lon="20.0058250688016414642333984375">
        <ele>1766.800048828125</ele>
        <time>2026-06-15T14:34:20.000Z</time>
        <extensions>
          <ns3:TrackPointExtension>
            <ns3:atemp>21.0</ns3:atemp>
          </ns3:TrackPointExtension>
        </extensions>
      </trkpt>
      <trkpt lat="42.59220250882208347320556640625" lon="20.00580118037760257720947265625">
        <ele>1766</ele>
        <time>2026-06-15T14:34:21.000Z</time>
        <extensions>
          <ns3:TrackPointExtension>
            <ns3:atemp>21.0</ns3:atemp>
          </ns3:TrackPointExtension>
        </extensions>
      </trkpt>
      <trkpt lat="42.59221642278134822845458984375" lon="20.0057697482407093048095703125">
        <ele>1765.199951171875</ele>
        <time>2026-06-15T14:34:22.000Z</time>
        <extensions>
          <ns3:TrackPointExtension>
            <ns3:atemp>21.0</ns3:atemp>
          </ns3:TrackPointExtension>
        </extensions>
      </trkpt>
      <trkpt lat="42.59222731925547122955322265625" lon="20.00574233941733837127685546875">
        <ele>1764.800048828125</ele>
        <time>2026-06-15T14:34:23.000Z</time>
        <extensions>
          <ns3:TrackPointExtension>
            <ns3:atemp>21.0</ns3:atemp>
          </ns3:TrackPointExtension>
        </extensions>
      </trkpt>
      <trkpt lat="42.592228241264820098876953125" lon="20.0057164393365383148193359375">
        <ele>1764.199951171875</ele>
        <time>2026-06-15T14:34:24.000Z</time>
        <extensions>
          <ns3:TrackPointExtension>
            <ns3:atemp>21.0</ns3:atemp>
          </ns3:TrackPointExtension>
        </extensions>
      </trkpt>
      <trkpt lat="42.59222187101840972900390625" lon="20.00570026226341724395751953125">
        <ele>1763.5999755859375</ele>
        <time>2026-06-15T14:34:25.000Z</time>
        <extensions>
          <ns3:TrackPointExtension>
            <ns3:atemp>21.0</ns3:atemp>
          </ns3:TrackPointExtension>
        </extensions>
      </trkpt>
      <trkpt lat="42.59221910499036312103271484375" lon="20.00567763112485408782958984375">
        <ele>1763.199951171875</ele>
        <time>2026-06-15T14:34:26.000Z</time>
        <extensions>
          <ns3:TrackPointExtension>
            <ns3:atemp>21.0</ns3:atemp>
          </ns3:TrackPointExtension>
        </extensions>
      </trkpt>
      <trkpt lat="42.59221189655363559722900390625" lon="20.00564896501600742340087890625">
        <ele>1762.800048828125</ele>
        <time>2026-06-15T14:34:27.000Z</time>
        <extensions>
          <ns3:TrackPointExtension>
            <ns3:atemp>21.0</ns3:atemp>
          </ns3:TrackPointExtension>
        </extensions>
      </trkpt>
      <trkpt lat="42.5921962223947048187255859375" lon="20.00561342574656009674072265625">
        <ele>1762.199951171875</ele>
        <time>2026-06-15T14:34:28.000Z</time>
        <extensions>
          <ns3:TrackPointExtension>
            <ns3:atemp>21.0</ns3:atemp>
          </ns3:TrackPointExtension>
        </extensions>
      </trkpt>
      <trkpt lat="42.5921854935586452484130859375" lon="20.0055756233632564544677734375">
        <ele>1761.800048828125</ele>
        <time>2026-06-15T14:34:29.000Z</time>
        <extensions>
          <ns3:TrackPointExtension>
            <ns3:atemp>21.0</ns3:atemp>
          </ns3:TrackPointExtension>
        </extensions>
      </trkpt>
      <trkpt lat="42.59218540973961353302001953125" lon="20.0055454485118389129638671875">
        <ele>1761.4000244140625</ele>
        <time>2026-06-15T14:34:30.000Z</time>
        <extensions>
          <ns3:TrackPointExtension>
            <ns3:atemp>21.0</ns3:atemp>
          </ns3:TrackPointExtension>
        </extensions>
      </trkpt>
      <trkpt lat="42.592179961502552032470703125" lon="20.0055239908397197723388671875">
        <ele>1761</ele>
        <time>2026-06-15T14:34:31.000Z</time>
        <extensions>
          <ns3:TrackPointExtension>
            <ns3:atemp>21.0</ns3:atemp>
          </ns3:TrackPointExtension>
        </extensions>
      </trkpt>
      <trkpt lat="42.59217417798936367034912109375" lon="20.00550739467144012451171875">
        <ele>1760.5999755859375</ele>
        <time>2026-06-15T14:34:32.000Z</time>
        <extensions>
          <ns3:TrackPointExtension>
            <ns3:atemp>21.0</ns3:atemp>
          </ns3:TrackPointExtension>
        </extensions>
      </trkpt>
      <trkpt lat="42.59216613136231899261474609375" lon="20.00549457035958766937255859375">
        <ele>1760.199951171875</ele>
        <time>2026-06-15T14:34:33.000Z</time>
        <extensions>
          <ns3:TrackPointExtension>
            <ns3:atemp>21.0</ns3:atemp>
          </ns3:TrackPointExtension>
        </extensions>
      </trkpt>
      <trkpt lat="42.59215959347784519195556640625" lon="20.005484931170940399169921875">
        <ele>1760</ele>
        <time>2026-06-15T14:34:34.000Z</time>
        <extensions>
          <ns3:TrackPointExtension>
            <ns3:atemp>21.0</ns3:atemp>
          </ns3:TrackPointExtension>
        </extensions>
      </trkpt>
      <trkpt lat="42.592153809964656829833984375" lon="20.00547596253454685211181640625">
        <ele>1759.800048828125</ele>
        <time>2026-06-15T14:34:35.000Z</time>
        <extensions>
          <ns3:TrackPointExtension>
            <ns3:atemp>21.0</ns3:atemp>
          </ns3:TrackPointExtension>
        </extensions>
      </trkpt>
      <trkpt lat="42.592153809964656829833984375" lon="20.00547587871551513671875">
        <ele>1759.4000244140625</ele>
        <time>2026-06-15T14:34:36.000Z</time>
        <extensions>
          <ns3:TrackPointExtension>
            <ns3:atemp>21.0</ns3:atemp>
          </ns3:TrackPointExtension>
        </extensions>
      </trkpt>
      <trkpt lat="42.592153809964656829833984375" lon="20.00547587871551513671875">
        <ele>1759.199951171875</ele>
        <time>2026-06-15T14:34:37.000Z</time>
        <extensions>
          <ns3:TrackPointExtension>
            <ns3:atemp>21.0</ns3:atemp>
          </ns3:TrackPointExtension>
        </extensions>
      </trkpt>
      <trkpt lat="42.592153809964656829833984375" lon="20.00547587871551513671875">
        <ele>1759</ele>
        <time>2026-06-15T14:34:38.000Z</time>
        <extensions>
          <ns3:TrackPointExtension>
            <ns3:atemp>21.0</ns3:atemp>
          </ns3:TrackPointExtension>
        </extensions>
      </trkpt>
      <trkpt lat="42.592153809964656829833984375" lon="20.00547587871551513671875">
        <ele>1759</ele>
        <time>2026-06-15T14:34:39.000Z</time>
        <extensions>
          <ns3:TrackPointExtension>
            <ns3:atemp>21.0</ns3:atemp>
          </ns3:TrackPointExtension>
        </extensions>
      </trkpt>
      <trkpt lat="42.59215305559337139129638671875" lon="20.00547545962035655975341796875">
        <ele>1758.800048828125</ele>
        <time>2026-06-15T14:34:40.000Z</time>
        <extensions>
          <ns3:TrackPointExtension>
            <ns3:atemp>21.0</ns3:atemp>
          </ns3:TrackPointExtension>
        </extensions>
      </trkpt>
      <trkpt lat="42.592153809964656829833984375" lon="20.00547587871551513671875">
        <ele>1758.800048828125</ele>
        <time>2026-06-15T14:34:41.000Z</time>
        <extensions>
          <ns3:TrackPointExtension>
            <ns3:atemp>21.0</ns3:atemp>
          </ns3:TrackPointExtension>
        </extensions>
      </trkpt>
      <trkpt lat="42.592153809964656829833984375" lon="20.00547587871551513671875">
        <ele>1758.800048828125</ele>
        <time>2026-06-15T14:34:42.000Z</time>
        <extensions>
          <ns3:TrackPointExtension>
            <ns3:atemp>21.0</ns3:atemp>
          </ns3:TrackPointExtension>
        </extensions>
      </trkpt>
      <trkpt lat="42.592153809964656829833984375" lon="20.00547587871551513671875">
        <ele>1758.5999755859375</ele>
        <time>2026-06-15T14:34:43.000Z</time>
        <extensions>
          <ns3:TrackPointExtension>
            <ns3:atemp>21.0</ns3:atemp>
          </ns3:TrackPointExtension>
        </extensions>
      </trkpt>
      <trkpt lat="42.592153809964656829833984375" lon="20.00547587871551513671875">
        <ele>1758.5999755859375</ele>
        <time>2026-06-15T14:34:44.000Z</time>
        <extensions>
          <ns3:TrackPointExtension>
            <ns3:atemp>21.0</ns3:atemp>
          </ns3:TrackPointExtension>
        </extensions>
      </trkpt>
      <trkpt lat="42.592153809964656829833984375" lon="20.00547587871551513671875">
        <ele>1758.800048828125</ele>
        <time>2026-06-15T14:34:45.000Z</time>
        <extensions>
          <ns3:TrackPointExtension>
            <ns3:atemp>21.0</ns3:atemp>
          </ns3:TrackPointExtension>
        </extensions>
      </trkpt>
      <trkpt lat="42.59214542806148529052734375" lon="20.0054726935923099517822265625">
        <ele>1758.800048828125</ele>
        <time>2026-06-15T14:34:46.000Z</time>
        <extensions>
          <ns3:TrackPointExtension>
            <ns3:atemp>21.0</ns3:atemp>
          </ns3:TrackPointExtension>
        </extensions>
      </trkpt>
      <trkpt lat="42.59213176555931568145751953125" lon="20.00547260977327823638916015625">
        <ele>1758.800048828125</ele>
        <time>2026-06-15T14:34:47.000Z</time>
        <extensions>
          <ns3:TrackPointExtension>
            <ns3:atemp>21.0</ns3:atemp>
          </ns3:TrackPointExtension>
        </extensions>
      </trkpt>
      <trkpt lat="42.592126987874507904052734375" lon="20.0054718554019927978515625">
        <ele>1759</ele>
        <time>2026-06-15T14:34:48.000Z</time>
        <extensions>
          <ns3:TrackPointExtension>
            <ns3:atemp>21.0</ns3:atemp>
          </ns3:TrackPointExtension>
        </extensions>
      </trkpt>
      <trkpt lat="42.59213025681674480438232421875" lon="20.00546489842236042022705078125">
        <ele>1759</ele>
        <time>2026-06-15T14:34:49.000Z</time>
        <extensions>
          <ns3:TrackPointExtension>
            <ns3:atemp>21.0</ns3:atemp>
          </ns3:TrackPointExtension>
        </extensions>
      </trkpt>
      <trkpt lat="42.59213143028318881988525390625" lon="20.00545752234756946563720703125">
        <ele>1759.199951171875</ele>
        <time>2026-06-15T14:34:50.000Z</time>
        <extensions>
          <ns3:TrackPointExtension>
            <ns3:atemp>21.0</ns3:atemp>
          </ns3:TrackPointExtension>
        </extensions>
      </trkpt>
      <trkpt lat="42.5921298377215862274169921875" lon="20.0054539181292057037353515625">
        <ele>1759.199951171875</ele>
        <time>2026-06-15T14:34:51.000Z</time>
        <extensions>
          <ns3:TrackPointExtension>
            <ns3:atemp>21.0</ns3:atemp>
          </ns3:TrackPointExtension>
        </extensions>
      </trkpt>
      <trkpt lat="42.5921298377215862274169921875" lon="20.00545383431017398834228515625">
        <ele>1759.4000244140625</ele>
        <time>2026-06-15T14:34:52.000Z</time>
        <extensions>
          <ns3:TrackPointExtension>
            <ns3:atemp>21.0</ns3:atemp>
          </ns3:TrackPointExtension>
        </extensions>
      </trkpt>
      <trkpt lat="42.5921298377215862274169921875" lon="20.00545375049114227294921875">
        <ele>1759.4000244140625</ele>
        <time>2026-06-15T14:34:53.000Z</time>
        <extensions>
          <ns3:TrackPointExtension>
            <ns3:atemp>21.0</ns3:atemp>
          </ns3:TrackPointExtension>
        </extensions>
      </trkpt>
      <trkpt lat="42.592133022844791412353515625" lon="20.005446039140224456787109375">
        <ele>1759.4000244140625</ele>
        <time>2026-06-15T14:34:54.000Z</time>
        <extensions>
          <ns3:TrackPointExtension>
            <ns3:atemp>21.0</ns3:atemp>
          </ns3:TrackPointExtension>
        </extensions>
      </trkpt>
      <trkpt lat="42.59213981218636035919189453125" lon="20.00544159673154354095458984375">
        <ele>1759.4000244140625</ele>
        <time>2026-06-15T14:34:55.000Z</time>
        <extensions>
          <ns3:TrackPointExtension>
            <ns3:atemp>21.0</ns3:atemp>
          </ns3:TrackPointExtension>
        </extensions>
      </trkpt>
      <trkpt lat="42.5921476073563098907470703125" lon="20.00543656758964061737060546875">
        <ele>1759.4000244140625</ele>
        <time>2026-06-15T14:34:56.000Z</time>
        <extensions>
          <ns3:TrackPointExtension>
            <ns3:atemp>21.0</ns3:atemp>
          </ns3:TrackPointExtension>
        </extensions>
      </trkpt>
      <trkpt lat="42.59215188212692737579345703125" lon="20.00543338246643543243408203125">
        <ele>1759.199951171875</ele>
        <time>2026-06-15T14:34:57.000Z</time>
        <extensions>
          <ns3:TrackPointExtension>
            <ns3:atemp>21.0</ns3:atemp>
          </ns3:TrackPointExtension>
        </extensions>
      </trkpt>
      <trkpt lat="42.59215456433594226837158203125" lon="20.00543070025742053985595703125">
        <ele>1759.199951171875</ele>
        <time>2026-06-15T14:34:58.000Z</time>
        <extensions>
          <ns3:TrackPointExtension>
            <ns3:atemp>21.0</ns3:atemp>
          </ns3:TrackPointExtension>
        </extensions>
      </trkpt>
      <trkpt lat="42.59215674363076686859130859375" lon="20.0054240785539150238037109375">
        <ele>1759.199951171875</ele>
        <time>2026-06-15T14:34:59.000Z</time>
        <extensions>
          <ns3:TrackPointExtension>
            <ns3:atemp>21.0</ns3:atemp>
          </ns3:TrackPointExtension>
        </extensions>
      </trkpt>
      <trkpt lat="42.5921566598117351531982421875" lon="20.00542399473488330841064453125">
        <ele>1759</ele>
        <time>2026-06-15T14:35:00.000Z</time>
        <extensions>
          <ns3:TrackPointExtension>
            <ns3:atemp>21.0</ns3:atemp>
          </ns3:TrackPointExtension>
        </extensions>
      </trkpt>
      <trkpt lat="42.592156492173671722412109375" lon="20.00542382709681987762451171875">
        <ele>1759</ele>
        <time>2026-06-15T14:35:01.000Z</time>
        <extensions>
          <ns3:TrackPointExtension>
            <ns3:atemp>21.0</ns3:atemp>
          </ns3:TrackPointExtension>
        </extensions>
      </trkpt>
      <trkpt lat="42.59215858764946460723876953125" lon="20.005411170423030853271484375">
        <ele>1759</ele>
        <time>2026-06-15T14:35:02.000Z</time>
        <extensions>
          <ns3:TrackPointExtension>
            <ns3:atemp>21.0</ns3:atemp>
          </ns3:TrackPointExtension>
        </extensions>
      </trkpt>
      <trkpt lat="42.5921600125730037689208984375" lon="20.0053942389786243438720703125">
        <ele>1758.800048828125</ele>
        <time>2026-06-15T14:35:03.000Z</time>
        <extensions>
          <ns3:TrackPointExtension>
            <ns3:atemp>21.0</ns3:atemp>
          </ns3:TrackPointExtension>
        </extensions>
      </trkpt>
      <trkpt lat="42.59216076694428920745849609375" lon="20.005384348332881927490234375">
        <ele>1758.800048828125</ele>
        <time>2026-06-15T14:35:04.000Z</time>
        <extensions>
          <ns3:TrackPointExtension>
            <ns3:atemp>21.0</ns3:atemp>
          </ns3:TrackPointExtension>
        </extensions>
      </trkpt>
      <trkpt lat="42.59216059930622577667236328125" lon="20.0053657405078411102294921875">
        <ele>1758.5999755859375</ele>
        <time>2026-06-15T14:35:05.000Z</time>
        <extensions>
          <ns3:TrackPointExtension>
            <ns3:atemp>21.0</ns3:atemp>
          </ns3:TrackPointExtension>
        </extensions>
      </trkpt>
      <trkpt lat="42.59215456433594226837158203125" lon="20.00534688122570514678955078125">
        <ele>1758.199951171875</ele>
        <time>2026-06-15T14:35:06.000Z</time>
        <extensions>
          <ns3:TrackPointExtension>
            <ns3:atemp>21.0</ns3:atemp>
          </ns3:TrackPointExtension>
        </extensions>
      </trkpt>
      <trkpt lat="42.59214852936565876007080078125" lon="20.0053302012383937835693359375">
        <ele>1757.800048828125</ele>
        <time>2026-06-15T14:35:07.000Z</time>
        <extensions>
          <ns3:TrackPointExtension>
            <ns3:atemp>21.0</ns3:atemp>
          </ns3:TrackPointExtension>
        </extensions>
      </trkpt>
      <trkpt lat="42.5921393930912017822265625" lon="20.005318634212017059326171875">
        <ele>1757.5999755859375</ele>
        <time>2026-06-15T14:35:08.000Z</time>
        <extensions>
          <ns3:TrackPointExtension>
            <ns3:atemp>21.0</ns3:atemp>
          </ns3:TrackPointExtension>
        </extensions>
      </trkpt>
      <trkpt lat="42.59212925098836421966552734375" lon="20.00530446879565715789794921875">
        <ele>1757.199951171875</ele>
        <time>2026-06-15T14:35:09.000Z</time>
        <extensions>
          <ns3:TrackPointExtension>
            <ns3:atemp>21.0</ns3:atemp>
          </ns3:TrackPointExtension>
        </extensions>
      </trkpt>
      <trkpt lat="42.5921206176280975341796875" lon="20.0052852742373943328857421875">
        <ele>1757</ele>
        <time>2026-06-15T14:35:10.000Z</time>
        <extensions>
          <ns3:TrackPointExtension>
            <ns3:atemp>21.0</ns3:atemp>
          </ns3:TrackPointExtension>
        </extensions>
      </trkpt>
      <trkpt lat="42.5921077094972133636474609375" lon="20.00527136027812957763671875">
        <ele>1756.800048828125</ele>
        <time>2026-06-15T14:35:11.000Z</time>
        <extensions>
          <ns3:TrackPointExtension>
            <ns3:atemp>21.0</ns3:atemp>
          </ns3:TrackPointExtension>
        </extensions>
      </trkpt>
      <trkpt lat="42.59210293181240558624267578125" lon="20.0052534230053424835205078125">
        <ele>1756.5999755859375</ele>
        <time>2026-06-15T14:35:12.000Z</time>
        <extensions>
          <ns3:TrackPointExtension>
            <ns3:atemp>21.0</ns3:atemp>
          </ns3:TrackPointExtension>
        </extensions>
      </trkpt>
      <trkpt lat="42.59209672920405864715576171875" lon="20.0052111782133579254150390625">
        <ele>1756.199951171875</ele>
        <time>2026-06-15T14:35:13.000Z</time>
        <extensions>
          <ns3:TrackPointExtension>
            <ns3:atemp>21.0</ns3:atemp>
          </ns3:TrackPointExtension>
        </extensions>
      </trkpt>
      <trkpt lat="42.592077367007732391357421875" lon="20.00515242107212543487548828125">
        <ele>1755.5999755859375</ele>
        <time>2026-06-15T14:35:14.000Z</time>
        <extensions>
          <ns3:TrackPointExtension>
            <ns3:atemp>21.0</ns3:atemp>
          </ns3:TrackPointExtension>
        </extensions>
      </trkpt>
      <trkpt lat="42.592065632343292236328125" lon="20.00509995035827159881591796875">
        <ele>1755</ele>
        <time>2026-06-15T14:35:15.000Z</time>
        <extensions>
          <ns3:TrackPointExtension>
            <ns3:atemp>21.0</ns3:atemp>
          </ns3:TrackPointExtension>
        </extensions>
      </trkpt>
      <trkpt lat="42.5920557416975498199462890625" lon="20.0050569511950016021728515625">
        <ele>1754.4000244140625</ele>
        <time>2026-06-15T14:35:16.000Z</time>
        <extensions>
          <ns3:TrackPointExtension>
            <ns3:atemp>21.0</ns3:atemp>
          </ns3:TrackPointExtension>
        </extensions>
      </trkpt>
      <trkpt lat="42.59204476140439510345458984375" lon="20.0050214119255542755126953125">
        <ele>1753.800048828125</ele>
        <time>2026-06-15T14:35:17.000Z</time>
        <extensions>
          <ns3:TrackPointExtension>
            <ns3:atemp>21.0</ns3:atemp>
          </ns3:TrackPointExtension>
        </extensions>
      </trkpt>
      <trkpt lat="42.59203948080539703369140625" lon="20.00500716269016265869140625">
        <ele>1753</ele>
        <time>2026-06-15T14:35:18.000Z</time>
        <extensions>
          <ns3:TrackPointExtension>
            <ns3:atemp>21.0</ns3:atemp>
          </ns3:TrackPointExtension>
        </extensions>
      </trkpt>
      <trkpt lat="42.5920342840254306793212890625" lon="20.004993416368961334228515625">
        <ele>1752.5999755859375</ele>
        <time>2026-06-15T14:35:19.000Z</time>
        <extensions>
          <ns3:TrackPointExtension>
            <ns3:atemp>21.0</ns3:atemp>
          </ns3:TrackPointExtension>
        </extensions>
      </trkpt>
      <trkpt lat="42.59203436784446239471435546875" lon="20.004993416368961334228515625">
        <ele>1752.4000244140625</ele>
        <time>2026-06-15T14:35:20.000Z</time>
        <extensions>
          <ns3:TrackPointExtension>
            <ns3:atemp>21.0</ns3:atemp>
          </ns3:TrackPointExtension>
        </extensions>
      </trkpt>
      <trkpt lat="42.59203436784446239471435546875" lon="20.004993416368961334228515625">
        <ele>1752</ele>
        <time>2026-06-15T14:35:21.000Z</time>
        <extensions>
          <ns3:TrackPointExtension>
            <ns3:atemp>21.0</ns3:atemp>
          </ns3:TrackPointExtension>
        </extensions>
      </trkpt>
      <trkpt lat="42.59203420020639896392822265625" lon="20.00499316491186618804931640625">
        <ele>1752</ele>
        <time>2026-06-15T14:35:22.000Z</time>
        <extensions>
          <ns3:TrackPointExtension>
            <ns3:atemp>21.0</ns3:atemp>
          </ns3:TrackPointExtension>
        </extensions>
      </trkpt>
      <trkpt lat="42.59203503839671611785888671875" lon="20.00498830340802669525146484375">
        <ele>1751.800048828125</ele>
        <time>2026-06-15T14:35:23.000Z</time>
        <extensions>
          <ns3:TrackPointExtension>
            <ns3:atemp>21.0</ns3:atemp>
          </ns3:TrackPointExtension>
        </extensions>
      </trkpt>
      <trkpt lat="42.59203436784446239471435546875" lon="20.004993416368961334228515625">
        <ele>1751.5999755859375</ele>
        <time>2026-06-15T14:35:24.000Z</time>
        <extensions>
          <ns3:TrackPointExtension>
            <ns3:atemp>21.0</ns3:atemp>
          </ns3:TrackPointExtension>
        </extensions>
      </trkpt>
      <trkpt lat="42.59203436784446239471435546875" lon="20.004993416368961334228515625">
        <ele>1751.5999755859375</ele>
        <time>2026-06-15T14:35:25.000Z</time>
        <extensions>
          <ns3:TrackPointExtension>
            <ns3:atemp>21.0</ns3:atemp>
          </ns3:TrackPointExtension>
        </extensions>
      </trkpt>
      <trkpt lat="42.59203772060573101043701171875" lon="20.0049862079322338104248046875">
        <ele>1751.4000244140625</ele>
        <time>2026-06-15T14:35:26.000Z</time>
        <extensions>
          <ns3:TrackPointExtension>
            <ns3:atemp>21.0</ns3:atemp>
          </ns3:TrackPointExtension>
        </extensions>
      </trkpt>
      <trkpt lat="42.5920369662344455718994140625" lon="20.00497908331453800201416015625">
        <ele>1751.4000244140625</ele>
        <time>2026-06-15T14:35:27.000Z</time>
        <extensions>
          <ns3:TrackPointExtension>
            <ns3:atemp>21.0</ns3:atemp>
          </ns3:TrackPointExtension>
        </extensions>
      </trkpt>
      <trkpt lat="42.5920359604060649871826171875" lon="20.00497003085911273956298828125">
        <ele>1751.4000244140625</ele>
        <time>2026-06-15T14:35:28.000Z</time>
        <extensions>
          <ns3:TrackPointExtension>
            <ns3:atemp>21.0</ns3:atemp>
          </ns3:TrackPointExtension>
        </extensions>
      </trkpt>
      <trkpt lat="42.5920456834137439727783203125" lon="20.004967264831066131591796875">
        <ele>1751.4000244140625</ele>
        <time>2026-06-15T14:35:29.000Z</time>
        <extensions>
          <ns3:TrackPointExtension>
            <ns3:atemp>21.0</ns3:atemp>
          </ns3:TrackPointExtension>
        </extensions>
      </trkpt>
      <trkpt lat="42.59205289185047149658203125" lon="20.00496961176395416259765625">
        <ele>1751.5999755859375</ele>
        <time>2026-06-15T14:35:30.000Z</time>
        <extensions>
          <ns3:TrackPointExtension>
            <ns3:atemp>21.0</ns3:atemp>
          </ns3:TrackPointExtension>
        </extensions>
      </trkpt>
      <trkpt lat="42.59205850772559642791748046875" lon="20.0049627386033535003662109375">
        <ele>1751.5999755859375</ele>
        <time>2026-06-15T14:35:31.000Z</time>
        <extensions>
          <ns3:TrackPointExtension>
            <ns3:atemp>21.0</ns3:atemp>
          </ns3:TrackPointExtension>
        </extensions>
      </trkpt>
      <trkpt lat="42.59205867536365985870361328125" lon="20.00496248714625835418701171875">
        <ele>1751.800048828125</ele>
        <time>2026-06-15T14:35:32.000Z</time>
        <extensions>
          <ns3:TrackPointExtension>
            <ns3:atemp>21.0</ns3:atemp>
          </ns3:TrackPointExtension>
        </extensions>
      </trkpt>
      <trkpt lat="42.59205867536365985870361328125" lon="20.00496248714625835418701171875">
        <ele>1751.800048828125</ele>
        <time>2026-06-15T14:35:33.000Z</time>
        <extensions>
          <ns3:TrackPointExtension>
            <ns3:atemp>21.0</ns3:atemp>
          </ns3:TrackPointExtension>
        </extensions>
      </trkpt>
      <trkpt lat="42.59205867536365985870361328125" lon="20.00496248714625835418701171875">
        <ele>1751.800048828125</ele>
        <time>2026-06-15T14:35:34.000Z</time>
        <extensions>
          <ns3:TrackPointExtension>
            <ns3:atemp>21.0</ns3:atemp>
          </ns3:TrackPointExtension>
        </extensions>
      </trkpt>
      <trkpt lat="42.59205867536365985870361328125" lon="20.00496248714625835418701171875">
        <ele>1751.5999755859375</ele>
        <time>2026-06-15T14:35:35.000Z</time>
        <extensions>
          <ns3:TrackPointExtension>
            <ns3:atemp>21.0</ns3:atemp>
          </ns3:TrackPointExtension>
        </extensions>
      </trkpt>
      <trkpt lat="42.59205867536365985870361328125" lon="20.00496248714625835418701171875">
        <ele>1751.5999755859375</ele>
        <time>2026-06-15T14:35:36.000Z</time>
        <extensions>
          <ns3:TrackPointExtension>
            <ns3:atemp>21.0</ns3:atemp>
          </ns3:TrackPointExtension>
        </extensions>
      </trkpt>
      <trkpt lat="42.59205959737300872802734375" lon="20.00496014021337032318115234375">
        <ele>1751.5999755859375</ele>
        <time>2026-06-15T14:35:37.000Z</time>
        <extensions>
          <ns3:TrackPointExtension>
            <ns3:atemp>21.0</ns3:atemp>
          </ns3:TrackPointExtension>
        </extensions>
      </trkpt>
      <trkpt lat="42.592067979276180267333984375" lon="20.00495016574859619140625">
        <ele>1751.5999755859375</ele>
        <time>2026-06-15T14:35:38.000Z</time>
        <extensions>
          <ns3:TrackPointExtension>
            <ns3:atemp>21.0</ns3:atemp>
          </ns3:TrackPointExtension>
        </extensions>
      </trkpt>
      <trkpt lat="42.59206839837133884429931640625" lon="20.00494656153023242950439453125">
        <ele>1751.5999755859375</ele>
        <time>2026-06-15T14:35:39.000Z</time>
        <extensions>
          <ns3:TrackPointExtension>
            <ns3:atemp>21.0</ns3:atemp>
          </ns3:TrackPointExtension>
        </extensions>
      </trkpt>
      <trkpt lat="42.5920657999813556671142578125" lon="20.00494170002639293670654296875">
        <ele>1751.5999755859375</ele>
        <time>2026-06-15T14:35:40.000Z</time>
        <extensions>
          <ns3:TrackPointExtension>
            <ns3:atemp>21.0</ns3:atemp>
          </ns3:TrackPointExtension>
        </extensions>
      </trkpt>
      <trkpt lat="42.592063285410404205322265625" lon="20.004925690591335296630859375">
        <ele>1751.4000244140625</ele>
        <time>2026-06-15T14:35:41.000Z</time>
        <extensions>
          <ns3:TrackPointExtension>
            <ns3:atemp>21.0</ns3:atemp>
          </ns3:TrackPointExtension>
        </extensions>
      </trkpt>
      <trkpt lat="42.592055238783359527587890625" lon="20.00491060316562652587890625">
        <ele>1751.4000244140625</ele>
        <time>2026-06-15T14:35:42.000Z</time>
        <extensions>
          <ns3:TrackPointExtension>
            <ns3:atemp>21.0</ns3:atemp>
          </ns3:TrackPointExtension>
        </extensions>
      </trkpt>
      <trkpt lat="42.59205632843077182769775390625" lon="20.0048976950347423553466796875">
        <ele>1751.199951171875</ele>
        <time>2026-06-15T14:35:43.000Z</time>
        <extensions>
          <ns3:TrackPointExtension>
            <ns3:atemp>21.0</ns3:atemp>
          </ns3:TrackPointExtension>
        </extensions>
      </trkpt>
      <trkpt lat="42.59205020964145660400390625" lon="20.004904232919216156005859375">
        <ele>1751</ele>
        <time>2026-06-15T14:35:44.000Z</time>
        <extensions>
          <ns3:TrackPointExtension>
            <ns3:atemp>21.0</ns3:atemp>
          </ns3:TrackPointExtension>
        </extensions>
      </trkpt>
      <trkpt lat="42.5920500420033931732177734375" lon="20.00490398146212100982666015625">
        <ele>1751</ele>
        <time>2026-06-15T14:35:45.000Z</time>
        <extensions>
          <ns3:TrackPointExtension>
            <ns3:atemp>21.0</ns3:atemp>
          </ns3:TrackPointExtension>
        </extensions>
      </trkpt>
      <trkpt lat="42.5920497067272663116455078125" lon="20.0049037300050258636474609375">
        <ele>1751</ele>
        <time>2026-06-15T14:35:46.000Z</time>
        <extensions>
          <ns3:TrackPointExtension>
            <ns3:atemp>21.0</ns3:atemp>
          </ns3:TrackPointExtension>
        </extensions>
      </trkpt>
      <trkpt lat="42.5920456834137439727783203125" lon="20.00489124096930027008056640625">
        <ele>1751</ele>
        <time>2026-06-15T14:35:47.000Z</time>
        <extensions>
          <ns3:TrackPointExtension>
            <ns3:atemp>21.0</ns3:atemp>
          </ns3:TrackPointExtension>
        </extensions>
      </trkpt>
      <trkpt lat="42.5920500420033931732177734375" lon="20.00490398146212100982666015625">
        <ele>1751</ele>
        <time>2026-06-15T14:35:48.000Z</time>
        <extensions>
          <ns3:TrackPointExtension>
            <ns3:atemp>21.0</ns3:atemp>
          </ns3:TrackPointExtension>
        </extensions>
      </trkpt>
      <trkpt lat="42.5920500420033931732177734375" lon="20.00490398146212100982666015625">
        <ele>1751</ele>
        <time>2026-06-15T14:35:49.000Z</time>
        <extensions>
          <ns3:TrackPointExtension>
            <ns3:atemp>21.0</ns3:atemp>
          </ns3:TrackPointExtension>
        </extensions>
      </trkpt>
      <trkpt lat="42.5920500420033931732177734375" lon="20.00490398146212100982666015625">
        <ele>1751</ele>
        <time>2026-06-15T14:35:50.000Z</time>
        <extensions>
          <ns3:TrackPointExtension>
            <ns3:atemp>21.0</ns3:atemp>
          </ns3:TrackPointExtension>
        </extensions>
      </trkpt>
      <trkpt lat="42.5920500420033931732177734375" lon="20.00490398146212100982666015625">
        <ele>1751</ele>
        <time>2026-06-15T14:35:51.000Z</time>
        <extensions>
          <ns3:TrackPointExtension>
            <ns3:atemp>21.0</ns3:atemp>
          </ns3:TrackPointExtension>
        </extensions>
      </trkpt>
      <trkpt lat="42.5920500420033931732177734375" lon="20.00490398146212100982666015625">
        <ele>1750.800048828125</ele>
        <time>2026-06-15T14:35:52.000Z</time>
        <extensions>
          <ns3:TrackPointExtension>
            <ns3:atemp>21.0</ns3:atemp>
          </ns3:TrackPointExtension>
        </extensions>
      </trkpt>
      <trkpt lat="42.5920500420033931732177734375" lon="20.00490398146212100982666015625">
        <ele>1750.800048828125</ele>
        <time>2026-06-15T14:35:53.000Z</time>
        <extensions>
          <ns3:TrackPointExtension>
            <ns3:atemp>21.0</ns3:atemp>
          </ns3:TrackPointExtension>
        </extensions>
      </trkpt>
      <trkpt lat="42.5920500420033931732177734375" lon="20.00490398146212100982666015625">
        <ele>1750.800048828125</ele>
        <time>2026-06-15T14:35:54.000Z</time>
        <extensions>
          <ns3:TrackPointExtension>
            <ns3:atemp>21.0</ns3:atemp>
          </ns3:TrackPointExtension>
        </extensions>
      </trkpt>
      <trkpt lat="42.5920500420033931732177734375" lon="20.00490398146212100982666015625">
        <ele>1750.800048828125</ele>
        <time>2026-06-15T14:35:55.000Z</time>
        <extensions>
          <ns3:TrackPointExtension>
            <ns3:atemp>21.0</ns3:atemp>
          </ns3:TrackPointExtension>
        </extensions>
      </trkpt>
      <trkpt lat="42.5920500420033931732177734375" lon="20.00490398146212100982666015625">
        <ele>1750.800048828125</ele>
        <time>2026-06-15T14:35:56.000Z</time>
        <extensions>
          <ns3:TrackPointExtension>
            <ns3:atemp>21.0</ns3:atemp>
          </ns3:TrackPointExtension>
        </extensions>
      </trkpt>
      <trkpt lat="42.5920500420033931732177734375" lon="20.00490398146212100982666015625">
        <ele>1750.800048828125</ele>
        <time>2026-06-15T14:35:57.000Z</time>
        <extensions>
          <ns3:TrackPointExtension>
            <ns3:atemp>21.0</ns3:atemp>
          </ns3:TrackPointExtension>
        </extensions>
      </trkpt>
      <trkpt lat="42.5920500420033931732177734375" lon="20.00490398146212100982666015625">
        <ele>1750.800048828125</ele>
        <time>2026-06-15T14:35:58.000Z</time>
        <extensions>
          <ns3:TrackPointExtension>
            <ns3:atemp>21.0</ns3:atemp>
          </ns3:TrackPointExtension>
        </extensions>
      </trkpt>
      <trkpt lat="42.5920500420033931732177734375" lon="20.00490398146212100982666015625">
        <ele>1750.800048828125</ele>
        <time>2026-06-15T14:35:59.000Z</time>
        <extensions>
          <ns3:TrackPointExtension>
            <ns3:atemp>21.0</ns3:atemp>
          </ns3:TrackPointExtension>
        </extensions>
      </trkpt>
      <trkpt lat="42.5920500420033931732177734375" lon="20.00490398146212100982666015625">
        <ele>1750.800048828125</ele>
        <time>2026-06-15T14:36:00.000Z</time>
        <extensions>
          <ns3:TrackPointExtension>
            <ns3:atemp>21.0</ns3:atemp>
          </ns3:TrackPointExtension>
        </extensions>
      </trkpt>
      <trkpt lat="42.5920500420033931732177734375" lon="20.00490398146212100982666015625">
        <ele>1751</ele>
        <time>2026-06-15T14:36:01.000Z</time>
        <extensions>
          <ns3:TrackPointExtension>
            <ns3:atemp>21.0</ns3:atemp>
          </ns3:TrackPointExtension>
        </extensions>
      </trkpt>
      <trkpt lat="42.5920500420033931732177734375" lon="20.00490398146212100982666015625">
        <ele>1751</ele>
        <time>2026-06-15T14:36:02.000Z</time>
        <extensions>
          <ns3:TrackPointExtension>
            <ns3:atemp>21.0</ns3:atemp>
          </ns3:TrackPointExtension>
        </extensions>
      </trkpt>
      <trkpt lat="42.5920500420033931732177734375" lon="20.00490398146212100982666015625">
        <ele>1751</ele>
        <time>2026-06-15T14:36:03.000Z</time>
        <extensions>
          <ns3:TrackPointExtension>
            <ns3:atemp>21.0</ns3:atemp>
          </ns3:TrackPointExtension>
        </extensions>
      </trkpt>
      <trkpt lat="42.5920500420033931732177734375" lon="20.00490398146212100982666015625">
        <ele>1751</ele>
        <time>2026-06-15T14:36:04.000Z</time>
        <extensions>
          <ns3:TrackPointExtension>
            <ns3:atemp>21.0</ns3:atemp>
          </ns3:TrackPointExtension>
        </extensions>
      </trkpt>
      <trkpt lat="42.5920500420033931732177734375" lon="20.00490398146212100982666015625">
        <ele>1751</ele>
        <time>2026-06-15T14:36:05.000Z</time>
        <extensions>
          <ns3:TrackPointExtension>
            <ns3:atemp>21.0</ns3:atemp>
          </ns3:TrackPointExtension>
        </extensions>
      </trkpt>
      <trkpt lat="42.5920500420033931732177734375" lon="20.00490398146212100982666015625">
        <ele>1751</ele>
        <time>2026-06-15T14:36:06.000Z</time>
        <extensions>
          <ns3:TrackPointExtension>
            <ns3:atemp>21.0</ns3:atemp>
          </ns3:TrackPointExtension>
        </extensions>
      </trkpt>
      <trkpt lat="42.5920500420033931732177734375" lon="20.00490398146212100982666015625">
        <ele>1751</ele>
        <time>2026-06-15T14:36:07.000Z</time>
        <extensions>
          <ns3:TrackPointExtension>
            <ns3:atemp>21.0</ns3:atemp>
          </ns3:TrackPointExtension>
        </extensions>
      </trkpt>
      <trkpt lat="42.5920500420033931732177734375" lon="20.00490398146212100982666015625">
        <ele>1751</ele>
        <time>2026-06-15T14:36:08.000Z</time>
        <extensions>
          <ns3:TrackPointExtension>
            <ns3:atemp>21.0</ns3:atemp>
          </ns3:TrackPointExtension>
        </extensions>
      </trkpt>
      <trkpt lat="42.5920500420033931732177734375" lon="20.00490398146212100982666015625">
        <ele>1751</ele>
        <time>2026-06-15T14:36:09.000Z</time>
        <extensions>
          <ns3:TrackPointExtension>
            <ns3:atemp>21.0</ns3:atemp>
          </ns3:TrackPointExtension>
        </extensions>
      </trkpt>
      <trkpt lat="42.5920500420033931732177734375" lon="20.00490398146212100982666015625">
        <ele>1751.199951171875</ele>
        <time>2026-06-15T14:36:10.000Z</time>
        <extensions>
          <ns3:TrackPointExtension>
            <ns3:atemp>21.0</ns3:atemp>
          </ns3:TrackPointExtension>
        </extensions>
      </trkpt>
      <trkpt lat="42.5920500420033931732177734375" lon="20.00490398146212100982666015625">
        <ele>1751.199951171875</ele>
        <time>2026-06-15T14:36:11.000Z</time>
        <extensions>
          <ns3:TrackPointExtension>
            <ns3:atemp>21.0</ns3:atemp>
          </ns3:TrackPointExtension>
        </extensions>
      </trkpt>
      <trkpt lat="42.5920500420033931732177734375" lon="20.00490398146212100982666015625">
        <ele>1751.199951171875</ele>
        <time>2026-06-15T14:36:12.000Z</time>
        <extensions>
          <ns3:TrackPointExtension>
            <ns3:atemp>21.0</ns3:atemp>
          </ns3:TrackPointExtension>
        </extensions>
      </trkpt>
      <trkpt lat="42.5920500420033931732177734375" lon="20.00490398146212100982666015625">
        <ele>1751.199951171875</ele>
        <time>2026-06-15T14:36:13.000Z</time>
        <extensions>
          <ns3:TrackPointExtension>
            <ns3:atemp>21.0</ns3:atemp>
          </ns3:TrackPointExtension>
        </extensions>
      </trkpt>
      <trkpt lat="42.5920500420033931732177734375" lon="20.00490398146212100982666015625">
        <ele>1751.199951171875</ele>
        <time>2026-06-15T14:36:14.000Z</time>
        <extensions>
          <ns3:TrackPointExtension>
            <ns3:atemp>21.0</ns3:atemp>
          </ns3:TrackPointExtension>
        </extensions>
      </trkpt>
      <trkpt lat="42.5920500420033931732177734375" lon="20.00490398146212100982666015625">
        <ele>1751.199951171875</ele>
        <time>2026-06-15T14:36:15.000Z</time>
        <extensions>
          <ns3:TrackPointExtension>
            <ns3:atemp>21.0</ns3:atemp>
          </ns3:TrackPointExtension>
        </extensions>
      </trkpt>
      <trkpt lat="42.5920500420033931732177734375" lon="20.00490398146212100982666015625">
        <ele>1751.199951171875</ele>
        <time>2026-06-15T14:36:16.000Z</time>
        <extensions>
          <ns3:TrackPointExtension>
            <ns3:atemp>21.0</ns3:atemp>
          </ns3:TrackPointExtension>
        </extensions>
      </trkpt>
      <trkpt lat="42.5920500420033931732177734375" lon="20.00490398146212100982666015625">
        <ele>1751.199951171875</ele>
        <time>2026-06-15T14:36:17.000Z</time>
        <extensions>
          <ns3:TrackPointExtension>
            <ns3:atemp>21.0</ns3:atemp>
          </ns3:TrackPointExtension>
        </extensions>
      </trkpt>
      <trkpt lat="42.5920500420033931732177734375" lon="20.00490398146212100982666015625">
        <ele>1751.199951171875</ele>
        <time>2026-06-15T14:36:18.000Z</time>
        <extensions>
          <ns3:TrackPointExtension>
            <ns3:atemp>21.0</ns3:atemp>
          </ns3:TrackPointExtension>
        </extensions>
      </trkpt>
      <trkpt lat="42.5920500420033931732177734375" lon="20.00490398146212100982666015625">
        <ele>1751.199951171875</ele>
        <time>2026-06-15T14:36:19.000Z</time>
        <extensions>
          <ns3:TrackPointExtension>
            <ns3:atemp>21.0</ns3:atemp>
          </ns3:TrackPointExtension>
        </extensions>
      </trkpt>
      <trkpt lat="42.5920500420033931732177734375" lon="20.00490398146212100982666015625">
        <ele>1751.199951171875</ele>
        <time>2026-06-15T14:36:20.000Z</time>
        <extensions>
          <ns3:TrackPointExtension>
            <ns3:atemp>21.0</ns3:atemp>
          </ns3:TrackPointExtension>
        </extensions>
      </trkpt>
      <trkpt lat="42.5920500420033931732177734375" lon="20.00490398146212100982666015625">
        <ele>1751.199951171875</ele>
        <time>2026-06-15T14:36:21.000Z</time>
        <extensions>
          <ns3:TrackPointExtension>
            <ns3:atemp>21.0</ns3:atemp>
          </ns3:TrackPointExtension>
        </extensions>
      </trkpt>
      <trkpt lat="42.5920500420033931732177734375" lon="20.00490398146212100982666015625">
        <ele>1751.199951171875</ele>
        <time>2026-06-15T14:36:22.000Z</time>
        <extensions>
          <ns3:TrackPointExtension>
            <ns3:atemp>21.0</ns3:atemp>
          </ns3:TrackPointExtension>
        </extensions>
      </trkpt>
      <trkpt lat="42.5920500420033931732177734375" lon="20.00490398146212100982666015625">
        <ele>1751.199951171875</ele>
        <time>2026-06-15T14:36:23.000Z</time>
        <extensions>
          <ns3:TrackPointExtension>
            <ns3:atemp>21.0</ns3:atemp>
          </ns3:TrackPointExtension>
        </extensions>
      </trkpt>
      <trkpt lat="42.5920500420033931732177734375" lon="20.00490398146212100982666015625">
        <ele>1751.199951171875</ele>
        <time>2026-06-15T14:36:24.000Z</time>
        <extensions>
          <ns3:TrackPointExtension>
            <ns3:atemp>21.0</ns3:atemp>
          </ns3:TrackPointExtension>
        </extensions>
      </trkpt>
      <trkpt lat="42.5920500420033931732177734375" lon="20.00490398146212100982666015625">
        <ele>1751.199951171875</ele>
        <time>2026-06-15T14:36:25.000Z</time>
        <extensions>
          <ns3:TrackPointExtension>
            <ns3:atemp>21.0</ns3:atemp>
          </ns3:TrackPointExtension>
        </extensions>
      </trkpt>
      <trkpt lat="42.5920500420033931732177734375" lon="20.00490398146212100982666015625">
        <ele>1751.199951171875</ele>
        <time>2026-06-15T14:36:26.000Z</time>
        <extensions>
          <ns3:TrackPointExtension>
            <ns3:atemp>21.0</ns3:atemp>
          </ns3:TrackPointExtension>
        </extensions>
      </trkpt>
      <trkpt lat="42.5920500420033931732177734375" lon="20.00490398146212100982666015625">
        <ele>1751.199951171875</ele>
        <time>2026-06-15T14:36:27.000Z</time>
        <extensions>
          <ns3:TrackPointExtension>
            <ns3:atemp>21.0</ns3:atemp>
          </ns3:TrackPointExtension>
        </extensions>
      </trkpt>
      <trkpt lat="42.5920500420033931732177734375" lon="20.00490398146212100982666015625">
        <ele>1751.4000244140625</ele>
        <time>2026-06-15T14:36:28.000Z</time>
        <extensions>
          <ns3:TrackPointExtension>
            <ns3:atemp>21.0</ns3:atemp>
          </ns3:TrackPointExtension>
        </extensions>
      </trkpt>
      <trkpt lat="42.5920500420033931732177734375" lon="20.00490398146212100982666015625">
        <ele>1751.4000244140625</ele>
        <time>2026-06-15T14:36:29.000Z</time>
        <extensions>
          <ns3:TrackPointExtension>
            <ns3:atemp>21.0</ns3:atemp>
          </ns3:TrackPointExtension>
        </extensions>
      </trkpt>
      <trkpt lat="42.5920500420033931732177734375" lon="20.00490398146212100982666015625">
        <ele>1751.4000244140625</ele>
        <time>2026-06-15T14:36:30.000Z</time>
        <extensions>
          <ns3:TrackPointExtension>
            <ns3:atemp>21.0</ns3:atemp>
          </ns3:TrackPointExtension>
        </extensions>
      </trkpt>
      <trkpt lat="42.5920500420033931732177734375" lon="20.00490398146212100982666015625">
        <ele>1751.4000244140625</ele>
        <time>2026-06-15T14:36:31.000Z</time>
        <extensions>
          <ns3:TrackPointExtension>
            <ns3:atemp>21.0</ns3:atemp>
          </ns3:TrackPointExtension>
        </extensions>
      </trkpt>
      <trkpt lat="42.5920500420033931732177734375" lon="20.00490398146212100982666015625">
        <ele>1751.4000244140625</ele>
        <time>2026-06-15T14:36:32.000Z</time>
        <extensions>
          <ns3:TrackPointExtension>
            <ns3:atemp>21.0</ns3:atemp>
          </ns3:TrackPointExtension>
        </extensions>
      </trkpt>
      <trkpt lat="42.5920500420033931732177734375" lon="20.00490398146212100982666015625">
        <ele>1751.5999755859375</ele>
        <time>2026-06-15T14:36:33.000Z</time>
        <extensions>
          <ns3:TrackPointExtension>
            <ns3:atemp>21.0</ns3:atemp>
          </ns3:TrackPointExtension>
        </extensions>
      </trkpt>
      <trkpt lat="42.5920500420033931732177734375" lon="20.00490398146212100982666015625">
        <ele>1751.5999755859375</ele>
        <time>2026-06-15T14:36:34.000Z</time>
        <extensions>
          <ns3:TrackPointExtension>
            <ns3:atemp>21.0</ns3:atemp>
          </ns3:TrackPointExtension>
        </extensions>
      </trkpt>
      <trkpt lat="42.5920500420033931732177734375" lon="20.00490398146212100982666015625">
        <ele>1751.5999755859375</ele>
        <time>2026-06-15T14:36:35.000Z</time>
        <extensions>
          <ns3:TrackPointExtension>
            <ns3:atemp>21.0</ns3:atemp>
          </ns3:TrackPointExtension>
        </extensions>
      </trkpt>
      <trkpt lat="42.5920500420033931732177734375" lon="20.00490398146212100982666015625">
        <ele>1751.5999755859375</ele>
        <time>2026-06-15T14:36:36.000Z</time>
        <extensions>
          <ns3:TrackPointExtension>
            <ns3:atemp>21.0</ns3:atemp>
          </ns3:TrackPointExtension>
        </extensions>
      </trkpt>
      <trkpt lat="42.5920500420033931732177734375" lon="20.00490398146212100982666015625">
        <ele>1751.4000244140625</ele>
        <time>2026-06-15T14:36:37.000Z</time>
        <extensions>
          <ns3:TrackPointExtension>
            <ns3:atemp>21.0</ns3:atemp>
          </ns3:TrackPointExtension>
        </extensions>
      </trkpt>
      <trkpt lat="42.5920500420033931732177734375" lon="20.00490398146212100982666015625">
        <ele>1751.4000244140625</ele>
        <time>2026-06-15T14:36:38.000Z</time>
        <extensions>
          <ns3:TrackPointExtension>
            <ns3:atemp>21.0</ns3:atemp>
          </ns3:TrackPointExtension>
        </extensions>
      </trkpt>
      <trkpt lat="42.5920500420033931732177734375" lon="20.00490398146212100982666015625">
        <ele>1751.4000244140625</ele>
        <time>2026-06-15T14:36:39.000Z</time>
        <extensions>
          <ns3:TrackPointExtension>
            <ns3:atemp>21.0</ns3:atemp>
          </ns3:TrackPointExtension>
        </extensions>
      </trkpt>
      <trkpt lat="42.5920500420033931732177734375" lon="20.00490398146212100982666015625">
        <ele>1751.4000244140625</ele>
        <time>2026-06-15T14:36:40.000Z</time>
        <extensions>
          <ns3:TrackPointExtension>
            <ns3:atemp>21.0</ns3:atemp>
          </ns3:TrackPointExtension>
        </extensions>
      </trkpt>
      <trkpt lat="42.5920500420033931732177734375" lon="20.00490398146212100982666015625">
        <ele>1751.4000244140625</ele>
        <time>2026-06-15T14:36:41.000Z</time>
        <extensions>
          <ns3:TrackPointExtension>
            <ns3:atemp>21.0</ns3:atemp>
          </ns3:TrackPointExtension>
        </extensions>
      </trkpt>
      <trkpt lat="42.5920500420033931732177734375" lon="20.00490398146212100982666015625">
        <ele>1751.4000244140625</ele>
        <time>2026-06-15T14:36:42.000Z</time>
        <extensions>
          <ns3:TrackPointExtension>
            <ns3:atemp>21.0</ns3:atemp>
          </ns3:TrackPointExtension>
        </extensions>
      </trkpt>
      <trkpt lat="42.5920500420033931732177734375" lon="20.00490398146212100982666015625">
        <ele>1751.4000244140625</ele>
        <time>2026-06-15T14:36:43.000Z</time>
        <extensions>
          <ns3:TrackPointExtension>
            <ns3:atemp>21.0</ns3:atemp>
          </ns3:TrackPointExtension>
        </extensions>
      </trkpt>
      <trkpt lat="42.5920500420033931732177734375" lon="20.00490398146212100982666015625">
        <ele>1751.4000244140625</ele>
        <time>2026-06-15T14:36:44.000Z</time>
        <extensions>
          <ns3:TrackPointExtension>
            <ns3:atemp>21.0</ns3:atemp>
          </ns3:TrackPointExtension>
        </extensions>
      </trkpt>
      <trkpt lat="42.5920500420033931732177734375" lon="20.00490398146212100982666015625">
        <ele>1751.4000244140625</ele>
        <time>2026-06-15T14:36:45.000Z</time>
        <extensions>
          <ns3:TrackPointExtension>
            <ns3:atemp>21.0</ns3:atemp>
          </ns3:TrackPointExtension>
        </extensions>
      </trkpt>
      <trkpt lat="42.5920500420033931732177734375" lon="20.00490398146212100982666015625">
        <ele>1751.4000244140625</ele>
        <time>2026-06-15T14:36:46.000Z</time>
        <extensions>
          <ns3:TrackPointExtension>
            <ns3:atemp>21.0</ns3:atemp>
          </ns3:TrackPointExtension>
        </extensions>
      </trkpt>
      <trkpt lat="42.5920500420033931732177734375" lon="20.00490398146212100982666015625">
        <ele>1751.4000244140625</ele>
        <time>2026-06-15T14:36:47.000Z</time>
        <extensions>
          <ns3:TrackPointExtension>
            <ns3:atemp>21.0</ns3:atemp>
          </ns3:TrackPointExtension>
        </extensions>
      </trkpt>
      <trkpt lat="42.5920500420033931732177734375" lon="20.00490398146212100982666015625">
        <ele>1751.4000244140625</ele>
        <time>2026-06-15T14:36:48.000Z</time>
        <extensions>
          <ns3:TrackPointExtension>
            <ns3:atemp>21.0</ns3:atemp>
          </ns3:TrackPointExtension>
        </extensions>
      </trkpt>
      <trkpt lat="42.5920500420033931732177734375" lon="20.00490398146212100982666015625">
        <ele>1751.4000244140625</ele>
        <time>2026-06-15T14:36:49.000Z</time>
        <extensions>
          <ns3:TrackPointExtension>
            <ns3:atemp>21.0</ns3:atemp>
          </ns3:TrackPointExtension>
        </extensions>
      </trkpt>
      <trkpt lat="42.5920500420033931732177734375" lon="20.00490398146212100982666015625">
        <ele>1751.4000244140625</ele>
        <time>2026-06-15T14:36:50.000Z</time>
        <extensions>
          <ns3:TrackPointExtension>
            <ns3:atemp>21.0</ns3:atemp>
          </ns3:TrackPointExtension>
        </extensions>
      </trkpt>
      <trkpt lat="42.5920500420033931732177734375" lon="20.00490398146212100982666015625">
        <ele>1751.4000244140625</ele>
        <time>2026-06-15T14:36:51.000Z</time>
        <extensions>
          <ns3:TrackPointExtension>
            <ns3:atemp>21.0</ns3:atemp>
          </ns3:TrackPointExtension>
        </extensions>
      </trkpt>
      <trkpt lat="42.5920500420033931732177734375" lon="20.00490398146212100982666015625">
        <ele>1751.4000244140625</ele>
        <time>2026-06-15T14:36:52.000Z</time>
        <extensions>
          <ns3:TrackPointExtension>
            <ns3:atemp>21.0</ns3:atemp>
          </ns3:TrackPointExtension>
        </extensions>
      </trkpt>
      <trkpt lat="42.5920500420033931732177734375" lon="20.00490398146212100982666015625">
        <ele>1751.4000244140625</ele>
        <time>2026-06-15T14:36:53.000Z</time>
        <extensions>
          <ns3:TrackPointExtension>
            <ns3:atemp>21.0</ns3:atemp>
          </ns3:TrackPointExtension>
        </extensions>
      </trkpt>
      <trkpt lat="42.5920500420033931732177734375" lon="20.00490398146212100982666015625">
        <ele>1751.4000244140625</ele>
        <time>2026-06-15T14:36:54.000Z</time>
        <extensions>
          <ns3:TrackPointExtension>
            <ns3:atemp>21.0</ns3:atemp>
          </ns3:TrackPointExtension>
        </extensions>
      </trkpt>
      <trkpt lat="42.5920500420033931732177734375" lon="20.00490398146212100982666015625">
        <ele>1751.4000244140625</ele>
        <time>2026-06-15T14:36:55.000Z</time>
        <extensions>
          <ns3:TrackPointExtension>
            <ns3:atemp>21.0</ns3:atemp>
          </ns3:TrackPointExtension>
        </extensions>
      </trkpt>
      <trkpt lat="42.5920500420033931732177734375" lon="20.00490398146212100982666015625">
        <ele>1751.4000244140625</ele>
        <time>2026-06-15T14:36:56.000Z</time>
        <extensions>
          <ns3:TrackPointExtension>
            <ns3:atemp>21.0</ns3:atemp>
          </ns3:TrackPointExtension>
        </extensions>
      </trkpt>
      <trkpt lat="42.5920500420033931732177734375" lon="20.00490398146212100982666015625">
        <ele>1751.4000244140625</ele>
        <time>2026-06-15T14:36:57.000Z</time>
        <extensions>
          <ns3:TrackPointExtension>
            <ns3:atemp>21.0</ns3:atemp>
          </ns3:TrackPointExtension>
        </extensions>
      </trkpt>
      <trkpt lat="42.5920500420033931732177734375" lon="20.00490398146212100982666015625">
        <ele>1751.4000244140625</ele>
        <time>2026-06-15T14:36:58.000Z</time>
        <extensions>
          <ns3:TrackPointExtension>
            <ns3:atemp>21.0</ns3:atemp>
          </ns3:TrackPointExtension>
        </extensions>
      </trkpt>
      <trkpt lat="42.5920500420033931732177734375" lon="20.00490398146212100982666015625">
        <ele>1751.4000244140625</ele>
        <time>2026-06-15T14:36:59.000Z</time>
        <extensions>
          <ns3:TrackPointExtension>
            <ns3:atemp>21.0</ns3:atemp>
          </ns3:TrackPointExtension>
        </extensions>
      </trkpt>
      <trkpt lat="42.5920500420033931732177734375" lon="20.00490398146212100982666015625">
        <ele>1751.4000244140625</ele>
        <time>2026-06-15T14:37:00.000Z</time>
        <extensions>
          <ns3:TrackPointExtension>
            <ns3:atemp>21.0</ns3:atemp>
          </ns3:TrackPointExtension>
        </extensions>
      </trkpt>
      <trkpt lat="42.5920500420033931732177734375" lon="20.00490398146212100982666015625">
        <ele>1751.4000244140625</ele>
        <time>2026-06-15T14:37:01.000Z</time>
        <extensions>
          <ns3:TrackPointExtension>
            <ns3:atemp>21.0</ns3:atemp>
          </ns3:TrackPointExtension>
        </extensions>
      </trkpt>
      <trkpt lat="42.5920500420033931732177734375" lon="20.00490398146212100982666015625">
        <ele>1751.4000244140625</ele>
        <time>2026-06-15T14:37:02.000Z</time>
        <extensions>
          <ns3:TrackPointExtension>
            <ns3:atemp>21.0</ns3:atemp>
          </ns3:TrackPointExtension>
        </extensions>
      </trkpt>
      <trkpt lat="42.5920500420033931732177734375" lon="20.00490398146212100982666015625">
        <ele>1751.4000244140625</ele>
        <time>2026-06-15T14:37:03.000Z</time>
        <extensions>
          <ns3:TrackPointExtension>
            <ns3:atemp>21.0</ns3:atemp>
          </ns3:TrackPointExtension>
        </extensions>
      </trkpt>
      <trkpt lat="42.5920500420033931732177734375" lon="20.00490398146212100982666015625">
        <ele>1751.4000244140625</ele>
        <time>2026-06-15T14:37:04.000Z</time>
        <extensions>
          <ns3:TrackPointExtension>
            <ns3:atemp>21.0</ns3:atemp>
          </ns3:TrackPointExtension>
        </extensions>
      </trkpt>
      <trkpt lat="42.5920500420033931732177734375" lon="20.00490398146212100982666015625">
        <ele>1751.4000244140625</ele>
        <time>2026-06-15T14:37:05.000Z</time>
        <extensions>
          <ns3:TrackPointExtension>
            <ns3:atemp>21.0</ns3:atemp>
          </ns3:TrackPointExtension>
        </extensions>
      </trkpt>
      <trkpt lat="42.5920500420033931732177734375" lon="20.00490398146212100982666015625">
        <ele>1751.4000244140625</ele>
        <time>2026-06-15T14:37:06.000Z</time>
        <extensions>
          <ns3:TrackPointExtension>
            <ns3:atemp>21.0</ns3:atemp>
          </ns3:TrackPointExtension>
        </extensions>
      </trkpt>
      <trkpt lat="42.5920500420033931732177734375" lon="20.00490398146212100982666015625">
        <ele>1751.4000244140625</ele>
        <time>2026-06-15T14:37:07.000Z</time>
        <extensions>
          <ns3:TrackPointExtension>
            <ns3:atemp>21.0</ns3:atemp>
          </ns3:TrackPointExtension>
        </extensions>
      </trkpt>
      <trkpt lat="42.5920500420033931732177734375" lon="20.00490398146212100982666015625">
        <ele>1751.4000244140625</ele>
        <time>2026-06-15T14:37:08.000Z</time>
        <extensions>
          <ns3:TrackPointExtension>
            <ns3:atemp>21.0</ns3:atemp>
          </ns3:TrackPointExtension>
        </extensions>
      </trkpt>
      <trkpt lat="42.5920500420033931732177734375" lon="20.00490398146212100982666015625">
        <ele>1751.4000244140625</ele>
        <time>2026-06-15T14:37:09.000Z</time>
        <extensions>
          <ns3:TrackPointExtension>
            <ns3:atemp>21.0</ns3:atemp>
          </ns3:TrackPointExtension>
        </extensions>
      </trkpt>
      <trkpt lat="42.5920500420033931732177734375" lon="20.00490398146212100982666015625">
        <ele>1751.4000244140625</ele>
        <time>2026-06-15T14:37:10.000Z</time>
        <extensions>
          <ns3:TrackPointExtension>
            <ns3:atemp>21.0</ns3:atemp>
          </ns3:TrackPointExtension>
        </extensions>
      </trkpt>
      <trkpt lat="42.5920500420033931732177734375" lon="20.00490398146212100982666015625">
        <ele>1751.4000244140625</ele>
        <time>2026-06-15T14:37:11.000Z</time>
        <extensions>
          <ns3:TrackPointExtension>
            <ns3:atemp>21.0</ns3:atemp>
          </ns3:TrackPointExtension>
        </extensions>
      </trkpt>
      <trkpt lat="42.5920500420033931732177734375" lon="20.00490398146212100982666015625">
        <ele>1751.4000244140625</ele>
        <time>2026-06-15T14:37:12.000Z</time>
        <extensions>
          <ns3:TrackPointExtension>
            <ns3:atemp>21.0</ns3:atemp>
          </ns3:TrackPointExtension>
        </extensions>
      </trkpt>
      <trkpt lat="42.5920500420033931732177734375" lon="20.00490398146212100982666015625">
        <ele>1751.4000244140625</ele>
        <time>2026-06-15T14:37:13.000Z</time>
        <extensions>
          <ns3:TrackPointExtension>
            <ns3:atemp>21.0</ns3:atemp>
          </ns3:TrackPointExtension>
        </extensions>
      </trkpt>
      <trkpt lat="42.5920500420033931732177734375" lon="20.00490398146212100982666015625">
        <ele>1751.4000244140625</ele>
        <time>2026-06-15T14:37:14.000Z</time>
        <extensions>
          <ns3:TrackPointExtension>
            <ns3:atemp>21.0</ns3:atemp>
          </ns3:TrackPointExtension>
        </extensions>
      </trkpt>
      <trkpt lat="42.5920500420033931732177734375" lon="20.00490398146212100982666015625">
        <ele>1751.4000244140625</ele>
        <time>2026-06-15T14:37:15.000Z</time>
        <extensions>
          <ns3:TrackPointExtension>
            <ns3:atemp>21.0</ns3:atemp>
          </ns3:TrackPointExtension>
        </extensions>
      </trkpt>
      <trkpt lat="42.5920500420033931732177734375" lon="20.00490398146212100982666015625">
        <ele>1751.4000244140625</ele>
        <time>2026-06-15T14:37:16.000Z</time>
        <extensions>
          <ns3:TrackPointExtension>
            <ns3:atemp>21.0</ns3:atemp>
          </ns3:TrackPointExtension>
        </extensions>
      </trkpt>
      <trkpt lat="42.5920500420033931732177734375" lon="20.00490398146212100982666015625">
        <ele>1751.4000244140625</ele>
        <time>2026-06-15T14:37:17.000Z</time>
        <extensions>
          <ns3:TrackPointExtension>
            <ns3:atemp>21.0</ns3:atemp>
          </ns3:TrackPointExtension>
        </extensions>
      </trkpt>
      <trkpt lat="42.5920500420033931732177734375" lon="20.00490398146212100982666015625">
        <ele>1751.4000244140625</ele>
        <time>2026-06-15T14:37:18.000Z</time>
        <extensions>
          <ns3:TrackPointExtension>
            <ns3:atemp>21.0</ns3:atemp>
          </ns3:TrackPointExtension>
        </extensions>
      </trkpt>
      <trkpt lat="42.5920500420033931732177734375" lon="20.00490398146212100982666015625">
        <ele>1751.4000244140625</ele>
        <time>2026-06-15T14:37:19.000Z</time>
        <extensions>
          <ns3:TrackPointExtension>
            <ns3:atemp>21.0</ns3:atemp>
          </ns3:TrackPointExtension>
        </extensions>
      </trkpt>
      <trkpt lat="42.5920500420033931732177734375" lon="20.00490398146212100982666015625">
        <ele>1751.4000244140625</ele>
        <time>2026-06-15T14:37:20.000Z</time>
        <extensions>
          <ns3:TrackPointExtension>
            <ns3:atemp>21.0</ns3:atemp>
          </ns3:TrackPointExtension>
        </extensions>
      </trkpt>
      <trkpt lat="42.5920500420033931732177734375" lon="20.00490398146212100982666015625">
        <ele>1751.4000244140625</ele>
        <time>2026-06-15T14:37:21.000Z</time>
        <extensions>
          <ns3:TrackPointExtension>
            <ns3:atemp>21.0</ns3:atemp>
          </ns3:TrackPointExtension>
        </extensions>
      </trkpt>
      <trkpt lat="42.5920500420033931732177734375" lon="20.00490398146212100982666015625">
        <ele>1751.4000244140625</ele>
        <time>2026-06-15T14:37:22.000Z</time>
        <extensions>
          <ns3:TrackPointExtension>
            <ns3:atemp>21.0</ns3:atemp>
          </ns3:TrackPointExtension>
        </extensions>
      </trkpt>
      <trkpt lat="42.5920500420033931732177734375" lon="20.00490398146212100982666015625">
        <ele>1751.4000244140625</ele>
        <time>2026-06-15T14:37:23.000Z</time>
        <extensions>
          <ns3:TrackPointExtension>
            <ns3:atemp>21.0</ns3:atemp>
          </ns3:TrackPointExtension>
        </extensions>
      </trkpt>
      <trkpt lat="42.5920500420033931732177734375" lon="20.00490398146212100982666015625">
        <ele>1751.4000244140625</ele>
        <time>2026-06-15T14:37:24.000Z</time>
        <extensions>
          <ns3:TrackPointExtension>
            <ns3:atemp>21.0</ns3:atemp>
          </ns3:TrackPointExtension>
        </extensions>
      </trkpt>
      <trkpt lat="42.5920500420033931732177734375" lon="20.00490398146212100982666015625">
        <ele>1751.4000244140625</ele>
        <time>2026-06-15T14:37:25.000Z</time>
        <extensions>
          <ns3:TrackPointExtension>
            <ns3:atemp>21.0</ns3:atemp>
          </ns3:TrackPointExtension>
        </extensions>
      </trkpt>
      <trkpt lat="42.5920500420033931732177734375" lon="20.00490398146212100982666015625">
        <ele>1751.4000244140625</ele>
        <time>2026-06-15T14:37:26.000Z</time>
        <extensions>
          <ns3:TrackPointExtension>
            <ns3:atemp>21.0</ns3:atemp>
          </ns3:TrackPointExtension>
        </extensions>
      </trkpt>
      <trkpt lat="42.5920500420033931732177734375" lon="20.00490398146212100982666015625">
        <ele>1751.4000244140625</ele>
        <time>2026-06-15T14:37:27.000Z</time>
        <extensions>
          <ns3:TrackPointExtension>
            <ns3:atemp>21.0</ns3:atemp>
          </ns3:TrackPointExtension>
        </extensions>
      </trkpt>
      <trkpt lat="42.5920500420033931732177734375" lon="20.00490398146212100982666015625">
        <ele>1751.4000244140625</ele>
        <time>2026-06-15T14:37:28.000Z</time>
        <extensions>
          <ns3:TrackPointExtension>
            <ns3:atemp>21.0</ns3:atemp>
          </ns3:TrackPointExtension>
        </extensions>
      </trkpt>
      <trkpt lat="42.5920500420033931732177734375" lon="20.00490398146212100982666015625">
        <ele>1751.4000244140625</ele>
        <time>2026-06-15T14:37:29.000Z</time>
        <extensions>
          <ns3:TrackPointExtension>
            <ns3:atemp>21.0</ns3:atemp>
          </ns3:TrackPointExtension>
        </extensions>
      </trkpt>
      <trkpt lat="42.5920500420033931732177734375" lon="20.00490398146212100982666015625">
        <ele>1751.4000244140625</ele>
        <time>2026-06-15T14:37:30.000Z</time>
        <extensions>
          <ns3:TrackPointExtension>
            <ns3:atemp>21.0</ns3:atemp>
          </ns3:TrackPointExtension>
        </extensions>
      </trkpt>
      <trkpt lat="42.5920500420033931732177734375" lon="20.00490398146212100982666015625">
        <ele>1751.4000244140625</ele>
        <time>2026-06-15T14:37:31.000Z</time>
        <extensions>
          <ns3:TrackPointExtension>
            <ns3:atemp>21.0</ns3:atemp>
          </ns3:TrackPointExtension>
        </extensions>
      </trkpt>
      <trkpt lat="42.5920500420033931732177734375" lon="20.00490398146212100982666015625">
        <ele>1751.4000244140625</ele>
        <time>2026-06-15T14:37:32.000Z</time>
        <extensions>
          <ns3:TrackPointExtension>
            <ns3:atemp>21.0</ns3:atemp>
          </ns3:TrackPointExtension>
        </extensions>
      </trkpt>
      <trkpt lat="42.5920500420033931732177734375" lon="20.00490398146212100982666015625">
        <ele>1751.4000244140625</ele>
        <time>2026-06-15T14:37:33.000Z</time>
        <extensions>
          <ns3:TrackPointExtension>
            <ns3:atemp>21.0</ns3:atemp>
          </ns3:TrackPointExtension>
        </extensions>
      </trkpt>
      <trkpt lat="42.5920500420033931732177734375" lon="20.00490398146212100982666015625">
        <ele>1751.4000244140625</ele>
        <time>2026-06-15T14:37:34.000Z</time>
        <extensions>
          <ns3:TrackPointExtension>
            <ns3:atemp>21.0</ns3:atemp>
          </ns3:TrackPointExtension>
        </extensions>
      </trkpt>
      <trkpt lat="42.5920500420033931732177734375" lon="20.00490398146212100982666015625">
        <ele>1751.4000244140625</ele>
        <time>2026-06-15T14:37:35.000Z</time>
        <extensions>
          <ns3:TrackPointExtension>
            <ns3:atemp>21.0</ns3:atemp>
          </ns3:TrackPointExtension>
        </extensions>
      </trkpt>
      <trkpt lat="42.5920500420033931732177734375" lon="20.00490398146212100982666015625">
        <ele>1751.4000244140625</ele>
        <time>2026-06-15T14:37:36.000Z</time>
        <extensions>
          <ns3:TrackPointExtension>
            <ns3:atemp>21.0</ns3:atemp>
          </ns3:TrackPointExtension>
        </extensions>
      </trkpt>
      <trkpt lat="42.59204811416566371917724609375" lon="20.00489174388349056243896484375">
        <ele>1751.4000244140625</ele>
        <time>2026-06-15T14:37:37.000Z</time>
        <extensions>
          <ns3:TrackPointExtension>
            <ns3:atemp>21.0</ns3:atemp>
          </ns3:TrackPointExtension>
        </extensions>
      </trkpt>
      <trkpt lat="42.59205465205013751983642578125" lon="20.004884116351604461669921875">
        <ele>1751.4000244140625</ele>
        <time>2026-06-15T14:37:38.000Z</time>
        <extensions>
          <ns3:TrackPointExtension>
            <ns3:atemp>21.0</ns3:atemp>
          </ns3:TrackPointExtension>
        </extensions>
      </trkpt>
      <trkpt lat="42.5920627824962139129638671875" lon="20.0048641674220561981201171875">
        <ele>1751.4000244140625</ele>
        <time>2026-06-15T14:37:39.000Z</time>
        <extensions>
          <ns3:TrackPointExtension>
            <ns3:atemp>21.0</ns3:atemp>
          </ns3:TrackPointExtension>
        </extensions>
      </trkpt>
      <trkpt lat="42.592069990932941436767578125" lon="20.00483340583741664886474609375">
        <ele>1751.5999755859375</ele>
        <time>2026-06-15T14:37:40.000Z</time>
        <extensions>
          <ns3:TrackPointExtension>
            <ns3:atemp>21.0</ns3:atemp>
          </ns3:TrackPointExtension>
        </extensions>
      </trkpt>
      <trkpt lat="42.5920748524367809295654296875" lon="20.004775486886501312255859375">
        <ele>1751.4000244140625</ele>
        <time>2026-06-15T14:37:41.000Z</time>
        <extensions>
          <ns3:TrackPointExtension>
            <ns3:atemp>21.0</ns3:atemp>
          </ns3:TrackPointExtension>
        </extensions>
      </trkpt>
      <trkpt lat="42.59207812137901782989501953125" lon="20.00471203587949275970458984375">
        <ele>1751.199951171875</ele>
        <time>2026-06-15T14:37:42.000Z</time>
        <extensions>
          <ns3:TrackPointExtension>
            <ns3:atemp>21.0</ns3:atemp>
          </ns3:TrackPointExtension>
        </extensions>
      </trkpt>
      <trkpt lat="42.59208566509187221527099609375" lon="20.00467247329652309417724609375">
        <ele>1750.800048828125</ele>
        <time>2026-06-15T14:37:43.000Z</time>
        <extensions>
          <ns3:TrackPointExtension>
            <ns3:atemp>21.0</ns3:atemp>
          </ns3:TrackPointExtension>
        </extensions>
      </trkpt>
      <trkpt lat="42.592089436948299407958984375" lon="20.0046244449913501739501953125">
        <ele>1750.5999755859375</ele>
        <time>2026-06-15T14:37:44.000Z</time>
        <extensions>
          <ns3:TrackPointExtension>
            <ns3:atemp>21.0</ns3:atemp>
          </ns3:TrackPointExtension>
        </extensions>
      </trkpt>
      <trkpt lat="42.59210460819303989410400390625" lon="20.00456535257399082183837890625">
        <ele>1750</ele>
        <time>2026-06-15T14:37:45.000Z</time>
        <extensions>
          <ns3:TrackPointExtension>
            <ns3:atemp>21.0</ns3:atemp>
          </ns3:TrackPointExtension>
        </extensions>
      </trkpt>
      <trkpt lat="42.59213042445480823516845703125" lon="20.00451095402240753173828125">
        <ele>1749.4000244140625</ele>
        <time>2026-06-15T14:37:46.000Z</time>
        <extensions>
          <ns3:TrackPointExtension>
            <ns3:atemp>21.0</ns3:atemp>
          </ns3:TrackPointExtension>
        </extensions>
      </trkpt>
      <trkpt lat="42.59214274585247039794921875" lon="20.00446611084043979644775390625">
        <ele>1748.800048828125</ele>
        <time>2026-06-15T14:37:47.000Z</time>
        <extensions>
          <ns3:TrackPointExtension>
            <ns3:atemp>21.0</ns3:atemp>
          </ns3:TrackPointExtension>
        </extensions>
      </trkpt>
      <trkpt lat="42.59214542806148529052734375" lon="20.00441917218267917633056640625">
        <ele>1748.199951171875</ele>
        <time>2026-06-15T14:37:48.000Z</time>
        <extensions>
          <ns3:TrackPointExtension>
            <ns3:atemp>21.0</ns3:atemp>
          </ns3:TrackPointExtension>
        </extensions>
      </trkpt>
      <trkpt lat="42.59214081801474094390869140625" lon="20.00436066649854183197021484375">
        <ele>1747.4000244140625</ele>
        <time>2026-06-15T14:37:49.000Z</time>
        <extensions>
          <ns3:TrackPointExtension>
            <ns3:atemp>21.0</ns3:atemp>
          </ns3:TrackPointExtension>
        </extensions>
      </trkpt>
      <trkpt lat="42.592147104442119598388671875" lon="20.00431590713560581207275390625">
        <ele>1746.800048828125</ele>
        <time>2026-06-15T14:37:50.000Z</time>
        <extensions>
          <ns3:TrackPointExtension>
            <ns3:atemp>21.0</ns3:atemp>
          </ns3:TrackPointExtension>
        </extensions>
      </trkpt>
      <trkpt lat="42.59215774945914745330810546875" lon="20.004261843860149383544921875">
        <ele>1746</ele>
        <time>2026-06-15T14:37:51.000Z</time>
        <extensions>
          <ns3:TrackPointExtension>
            <ns3:atemp>21.0</ns3:atemp>
          </ns3:TrackPointExtension>
        </extensions>
      </trkpt>
      <trkpt lat="42.592159844934940338134765625" lon="20.0042085349559783935546875">
        <ele>1745.4000244140625</ele>
        <time>2026-06-15T14:37:52.000Z</time>
        <extensions>
          <ns3:TrackPointExtension>
            <ns3:atemp>21.0</ns3:atemp>
          </ns3:TrackPointExtension>
        </extensions>
      </trkpt>
      <trkpt lat="42.5921662151813507080078125" lon="20.00414642505347728729248046875">
        <ele>1744.5999755859375</ele>
        <time>2026-06-15T14:37:53.000Z</time>
        <extensions>
          <ns3:TrackPointExtension>
            <ns3:atemp>21.0</ns3:atemp>
          </ns3:TrackPointExtension>
        </extensions>
      </trkpt>
      <trkpt lat="42.592156492173671722412109375" lon="20.0040752626955509185791015625">
        <ele>1743.800048828125</ele>
        <time>2026-06-15T14:37:54.000Z</time>
        <extensions>
          <ns3:TrackPointExtension>
            <ns3:atemp>21.0</ns3:atemp>
          </ns3:TrackPointExtension>
        </extensions>
      </trkpt>
      <trkpt lat="42.59215037338435649871826171875" lon="20.0040132366120815277099609375">
        <ele>1743.199951171875</ele>
        <time>2026-06-15T14:37:55.000Z</time>
        <extensions>
          <ns3:TrackPointExtension>
            <ns3:atemp>21.0</ns3:atemp>
          </ns3:TrackPointExtension>
        </extensions>
      </trkpt>
      <trkpt lat="42.59214048273861408233642578125" lon="20.0039617717266082763671875">
        <ele>1742.4000244140625</ele>
        <time>2026-06-15T14:37:56.000Z</time>
        <extensions>
          <ns3:TrackPointExtension>
            <ns3:atemp>21.0</ns3:atemp>
          </ns3:TrackPointExtension>
        </extensions>
      </trkpt>
      <trkpt lat="42.59212874807417392730712890625" lon="20.00392220914363861083984375">
        <ele>1741.4000244140625</ele>
        <time>2026-06-15T14:37:57.000Z</time>
        <extensions>
          <ns3:TrackPointExtension>
            <ns3:atemp>21.0</ns3:atemp>
          </ns3:TrackPointExtension>
        </extensions>
      </trkpt>
      <trkpt lat="42.59212397038936614990234375" lon="20.0038925372064113616943359375">
        <ele>1741</ele>
        <time>2026-06-15T14:37:58.000Z</time>
        <extensions>
          <ns3:TrackPointExtension>
            <ns3:atemp>21.0</ns3:atemp>
          </ns3:TrackPointExtension>
        </extensions>
      </trkpt>
      <trkpt lat="42.59211500175297260284423828125" lon="20.0038598477840423583984375">
        <ele>1740.5999755859375</ele>
        <time>2026-06-15T14:37:59.000Z</time>
        <extensions>
          <ns3:TrackPointExtension>
            <ns3:atemp>21.0</ns3:atemp>
          </ns3:TrackPointExtension>
        </extensions>
      </trkpt>
      <trkpt lat="42.59210787713527679443359375" lon="20.00383679755032062530517578125">
        <ele>1740.199951171875</ele>
        <time>2026-06-15T14:38:00.000Z</time>
        <extensions>
          <ns3:TrackPointExtension>
            <ns3:atemp>21.0</ns3:atemp>
          </ns3:TrackPointExtension>
        </extensions>
      </trkpt>
      <trkpt lat="42.59209848940372467041015625" lon="20.00381282530725002288818359375">
        <ele>1740</ele>
        <time>2026-06-15T14:38:01.000Z</time>
        <extensions>
          <ns3:TrackPointExtension>
            <ns3:atemp>21.0</ns3:atemp>
          </ns3:TrackPointExtension>
        </extensions>
      </trkpt>
      <trkpt lat="42.59209589101374149322509765625" lon="20.00379078090190887451171875">
        <ele>1739.800048828125</ele>
        <time>2026-06-15T14:38:02.000Z</time>
        <extensions>
          <ns3:TrackPointExtension>
            <ns3:atemp>21.0</ns3:atemp>
          </ns3:TrackPointExtension>
        </extensions>
      </trkpt>
      <trkpt lat="42.59209656156599521636962890625" lon="20.003759600222110748291015625">
        <ele>1739.5999755859375</ele>
        <time>2026-06-15T14:38:03.000Z</time>
        <extensions>
          <ns3:TrackPointExtension>
            <ns3:atemp>21.0</ns3:atemp>
          </ns3:TrackPointExtension>
        </extensions>
      </trkpt>
      <trkpt lat="42.592105865478515625" lon="20.0037114880979061126708984375">
        <ele>1739.4000244140625</ele>
        <time>2026-06-15T14:38:04.000Z</time>
        <extensions>
          <ns3:TrackPointExtension>
            <ns3:atemp>21.0</ns3:atemp>
          </ns3:TrackPointExtension>
        </extensions>
      </trkpt>
      <trkpt lat="42.59210997261106967926025390625" lon="20.003661699593067169189453125">
        <ele>1739</ele>
        <time>2026-06-15T14:38:05.000Z</time>
        <extensions>
          <ns3:TrackPointExtension>
            <ns3:atemp>21.0</ns3:atemp>
          </ns3:TrackPointExtension>
        </extensions>
      </trkpt>
      <trkpt lat="42.59212690405547618865966796875" lon="20.00363378785550594329833984375">
        <ele>1738.4000244140625</ele>
        <time>2026-06-15T14:38:06.000Z</time>
        <extensions>
          <ns3:TrackPointExtension>
            <ns3:atemp>21.0</ns3:atemp>
          </ns3:TrackPointExtension>
        </extensions>
      </trkpt>
      <trkpt lat="42.5921429134905338287353515625" lon="20.00361484475433826446533203125">
        <ele>1737.800048828125</ele>
        <time>2026-06-15T14:38:07.000Z</time>
        <extensions>
          <ns3:TrackPointExtension>
            <ns3:atemp>21.0</ns3:atemp>
          </ns3:TrackPointExtension>
        </extensions>
      </trkpt>
      <trkpt lat="42.5921596772968769073486328125" lon="20.00361333601176738739013671875">
        <ele>1737.199951171875</ele>
        <time>2026-06-15T14:38:08.000Z</time>
        <extensions>
          <ns3:TrackPointExtension>
            <ns3:atemp>21.0</ns3:atemp>
          </ns3:TrackPointExtension>
        </extensions>
      </trkpt>
      <trkpt lat="42.592171244323253631591796875" lon="20.003604032099246978759765625">
        <ele>1736.4000244140625</ele>
        <time>2026-06-15T14:38:09.000Z</time>
        <extensions>
          <ns3:TrackPointExtension>
            <ns3:atemp>21.0</ns3:atemp>
          </ns3:TrackPointExtension>
        </extensions>
      </trkpt>
      <trkpt lat="42.59217099286615848541259765625" lon="20.00359632074832916259765625">
        <ele>1735.800048828125</ele>
        <time>2026-06-15T14:38:10.000Z</time>
        <extensions>
          <ns3:TrackPointExtension>
            <ns3:atemp>21.0</ns3:atemp>
          </ns3:TrackPointExtension>
        </extensions>
      </trkpt>
      <trkpt lat="42.59217384271323680877685546875" lon="20.0035649724304676055908203125">
        <ele>1735.4000244140625</ele>
        <time>2026-06-15T14:38:11.000Z</time>
        <extensions>
          <ns3:TrackPointExtension>
            <ns3:atemp>21.0</ns3:atemp>
          </ns3:TrackPointExtension>
        </extensions>
      </trkpt>
      <trkpt lat="42.59217317216098308563232421875" lon="20.0035378150641918182373046875">
        <ele>1734.800048828125</ele>
        <time>2026-06-15T14:38:12.000Z</time>
        <extensions>
          <ns3:TrackPointExtension>
            <ns3:atemp>21.0</ns3:atemp>
          </ns3:TrackPointExtension>
        </extensions>
      </trkpt>
      <trkpt lat="42.5921650417149066925048828125" lon="20.0034922175109386444091796875">
        <ele>1734.199951171875</ele>
        <time>2026-06-15T14:38:13.000Z</time>
        <extensions>
          <ns3:TrackPointExtension>
            <ns3:atemp>21.0</ns3:atemp>
          </ns3:TrackPointExtension>
        </extensions>
      </trkpt>
      <trkpt lat="42.5921566598117351531982421875" lon="20.00345827080309391021728515625">
        <ele>1733.5999755859375</ele>
        <time>2026-06-15T14:38:14.000Z</time>
        <extensions>
          <ns3:TrackPointExtension>
            <ns3:atemp>21.0</ns3:atemp>
          </ns3:TrackPointExtension>
        </extensions>
      </trkpt>
      <trkpt lat="42.592156492173671722412109375" lon="20.0034332089126110076904296875">
        <ele>1733</ele>
        <time>2026-06-15T14:38:15.000Z</time>
        <extensions>
          <ns3:TrackPointExtension>
            <ns3:atemp>21.0</ns3:atemp>
          </ns3:TrackPointExtension>
        </extensions>
      </trkpt>
      <trkpt lat="42.59216328151524066925048828125" lon="20.00340730883181095123291015625">
        <ele>1732.5999755859375</ele>
        <time>2026-06-15T14:38:16.000Z</time>
        <extensions>
          <ns3:TrackPointExtension>
            <ns3:atemp>21.0</ns3:atemp>
          </ns3:TrackPointExtension>
        </extensions>
      </trkpt>
      <trkpt lat="42.59217132814228534698486328125" lon="20.00336925499141216278076171875">
        <ele>1732.199951171875</ele>
        <time>2026-06-15T14:38:17.000Z</time>
        <extensions>
          <ns3:TrackPointExtension>
            <ns3:atemp>21.0</ns3:atemp>
          </ns3:TrackPointExtension>
        </extensions>
      </trkpt>
      <trkpt lat="42.59217417798936367034912109375" lon="20.003328435122966766357421875">
        <ele>1731.5999755859375</ele>
        <time>2026-06-15T14:38:18.000Z</time>
        <extensions>
          <ns3:TrackPointExtension>
            <ns3:atemp>21.0</ns3:atemp>
          </ns3:TrackPointExtension>
        </extensions>
      </trkpt>
      <trkpt lat="42.59216076694428920745849609375" lon="20.00328711234033107757568359375">
        <ele>1731</ele>
        <time>2026-06-15T14:38:19.000Z</time>
        <extensions>
          <ns3:TrackPointExtension>
            <ns3:atemp>21.0</ns3:atemp>
          </ns3:TrackPointExtension>
        </extensions>
      </trkpt>
      <trkpt lat="42.5921422429382801055908203125" lon="20.0032491423189640045166015625">
        <ele>1730.199951171875</ele>
        <time>2026-06-15T14:38:20.000Z</time>
        <extensions>
          <ns3:TrackPointExtension>
            <ns3:atemp>21.0</ns3:atemp>
          </ns3:TrackPointExtension>
        </extensions>
      </trkpt>
      <trkpt lat="42.59212640114128589630126953125" lon="20.003209076821804046630859375">
        <ele>1729.5999755859375</ele>
        <time>2026-06-15T14:38:21.000Z</time>
        <extensions>
          <ns3:TrackPointExtension>
            <ns3:atemp>21.0</ns3:atemp>
          </ns3:TrackPointExtension>
        </extensions>
      </trkpt>
      <trkpt lat="42.59210092015564441680908203125" lon="20.0031592883169651031494140625">
        <ele>1728.800048828125</ele>
        <time>2026-06-15T14:38:22.000Z</time>
        <extensions>
          <ns3:TrackPointExtension>
            <ns3:atemp>21.0</ns3:atemp>
          </ns3:TrackPointExtension>
        </extensions>
      </trkpt>
      <trkpt lat="42.59207041002810001373291015625" lon="20.00310556031763553619384765625">
        <ele>1727.800048828125</ele>
        <time>2026-06-15T14:38:23.000Z</time>
        <extensions>
          <ns3:TrackPointExtension>
            <ns3:atemp>21.0</ns3:atemp>
          </ns3:TrackPointExtension>
        </extensions>
      </trkpt>
      <trkpt lat="42.5920466892421245574951171875" lon="20.00303900800645351409912109375">
        <ele>1727</ele>
        <time>2026-06-15T14:38:24.000Z</time>
        <extensions>
          <ns3:TrackPointExtension>
            <ns3:atemp>21.0</ns3:atemp>
          </ns3:TrackPointExtension>
        </extensions>
      </trkpt>
      <trkpt lat="42.59203738532960414886474609375" lon="20.00298066996037960052490234375">
        <ele>1726.199951171875</ele>
        <time>2026-06-15T14:38:25.000Z</time>
        <extensions>
          <ns3:TrackPointExtension>
            <ns3:atemp>21.0</ns3:atemp>
          </ns3:TrackPointExtension>
        </extensions>
      </trkpt>
      <trkpt lat="42.59202330373227596282958984375" lon="20.00293037854135036468505859375">
        <ele>1725.199951171875</ele>
        <time>2026-06-15T14:38:26.000Z</time>
        <extensions>
          <ns3:TrackPointExtension>
            <ns3:atemp>21.0</ns3:atemp>
          </ns3:TrackPointExtension>
        </extensions>
      </trkpt>
      <trkpt lat="42.5919984094798564910888671875" lon="20.00288419425487518310546875">
        <ele>1724.5999755859375</ele>
        <time>2026-06-15T14:38:27.000Z</time>
        <extensions>
          <ns3:TrackPointExtension>
            <ns3:atemp>21.0</ns3:atemp>
          </ns3:TrackPointExtension>
        </extensions>
      </trkpt>
      <trkpt lat="42.59196882136166095733642578125" lon="20.0028357468545436859130859375">
        <ele>1723.800048828125</ele>
        <time>2026-06-15T14:38:28.000Z</time>
        <extensions>
          <ns3:TrackPointExtension>
            <ns3:atemp>21.0</ns3:atemp>
          </ns3:TrackPointExtension>
        </extensions>
      </trkpt>
      <trkpt lat="42.59195222519338130950927734375" lon="20.00278537161648273468017578125">
        <ele>1723</ele>
        <time>2026-06-15T14:38:29.000Z</time>
        <extensions>
          <ns3:TrackPointExtension>
            <ns3:atemp>21.0</ns3:atemp>
          </ns3:TrackPointExtension>
        </extensions>
      </trkpt>
      <trkpt lat="42.59195155464112758636474609375" lon="20.0027220882475376129150390625">
        <ele>1722.199951171875</ele>
        <time>2026-06-15T14:38:30.000Z</time>
        <extensions>
          <ns3:TrackPointExtension>
            <ns3:atemp>21.0</ns3:atemp>
          </ns3:TrackPointExtension>
        </extensions>
      </trkpt>
      <trkpt lat="42.59194468148052692413330078125" lon="20.00265218317508697509765625">
        <ele>1721.4000244140625</ele>
        <time>2026-06-15T14:38:31.000Z</time>
        <extensions>
          <ns3:TrackPointExtension>
            <ns3:atemp>21.0</ns3:atemp>
          </ns3:TrackPointExtension>
        </extensions>
      </trkpt>
      <trkpt lat="42.59192682802677154541015625" lon="20.00257682986557483673095703125">
        <ele>1720.5999755859375</ele>
        <time>2026-06-15T14:38:32.000Z</time>
        <extensions>
          <ns3:TrackPointExtension>
            <ns3:atemp>21.0</ns3:atemp>
          </ns3:TrackPointExtension>
        </extensions>
      </trkpt>
      <trkpt lat="42.59192573837935924530029296875" lon="20.0025044940412044525146484375">
        <ele>1719.800048828125</ele>
        <time>2026-06-15T14:38:33.000Z</time>
        <extensions>
          <ns3:TrackPointExtension>
            <ns3:atemp>21.0</ns3:atemp>
          </ns3:TrackPointExtension>
        </extensions>
      </trkpt>
      <trkpt lat="42.59193219244480133056640625" lon="20.00244841910898685455322265625">
        <ele>1719</ele>
        <time>2026-06-15T14:38:34.000Z</time>
        <extensions>
          <ns3:TrackPointExtension>
            <ns3:atemp>21.0</ns3:atemp>
          </ns3:TrackPointExtension>
        </extensions>
      </trkpt>
      <trkpt lat="42.59194233454763889312744140625" lon="20.00238664448261260986328125">
        <ele>1718</ele>
        <time>2026-06-15T14:38:35.000Z</time>
        <extensions>
          <ns3:TrackPointExtension>
            <ns3:atemp>21.0</ns3:atemp>
          </ns3:TrackPointExtension>
        </extensions>
      </trkpt>
      <trkpt lat="42.591931521892547607421875" lon="20.0023324973881244659423828125">
        <ele>1717.199951171875</ele>
        <time>2026-06-15T14:38:36.000Z</time>
        <extensions>
          <ns3:TrackPointExtension>
            <ns3:atemp>21.0</ns3:atemp>
          </ns3:TrackPointExtension>
        </extensions>
      </trkpt>
      <trkpt lat="42.59192548692226409912109375" lon="20.00227776356041431427001953125">
        <ele>1716.4000244140625</ele>
        <time>2026-06-15T14:38:37.000Z</time>
        <extensions>
          <ns3:TrackPointExtension>
            <ns3:atemp>21.0</ns3:atemp>
          </ns3:TrackPointExtension>
        </extensions>
      </trkpt>
      <trkpt lat="42.59191785939037799835205078125" lon="20.00222059898078441619873046875">
        <ele>1715.5999755859375</ele>
        <time>2026-06-15T14:38:38.000Z</time>
        <extensions>
          <ns3:TrackPointExtension>
            <ns3:atemp>21.0</ns3:atemp>
          </ns3:TrackPointExtension>
        </extensions>
      </trkpt>
      <trkpt lat="42.5919115729629993438720703125" lon="20.00215890817344188690185546875">
        <ele>1714.800048828125</ele>
        <time>2026-06-15T14:38:39.000Z</time>
        <extensions>
          <ns3:TrackPointExtension>
            <ns3:atemp>21.0</ns3:atemp>
          </ns3:TrackPointExtension>
        </extensions>
      </trkpt>
      <trkpt lat="42.5919011794030666351318359375" lon="20.00209428369998931884765625">
        <ele>1714</ele>
        <time>2026-06-15T14:38:40.000Z</time>
        <extensions>
          <ns3:TrackPointExtension>
            <ns3:atemp>21.0</ns3:atemp>
          </ns3:TrackPointExtension>
        </extensions>
      </trkpt>
      <trkpt lat="42.59189422242343425750732421875" lon="20.002016164362430572509765625">
        <ele>1713.199951171875</ele>
        <time>2026-06-15T14:38:41.000Z</time>
        <extensions>
          <ns3:TrackPointExtension>
            <ns3:atemp>21.0</ns3:atemp>
          </ns3:TrackPointExtension>
        </extensions>
      </trkpt>
      <trkpt lat="42.59187226183712482452392578125" lon="20.0019539706408977508544921875">
        <ele>1712</ele>
        <time>2026-06-15T14:38:42.000Z</time>
        <extensions>
          <ns3:TrackPointExtension>
            <ns3:atemp>21.0</ns3:atemp>
          </ns3:TrackPointExtension>
        </extensions>
      </trkpt>
      <trkpt lat="42.59183672256767749786376953125" lon="20.00189714133739471435546875">
        <ele>1711</ele>
        <time>2026-06-15T14:38:43.000Z</time>
        <extensions>
          <ns3:TrackPointExtension>
            <ns3:atemp>21.0</ns3:atemp>
          </ns3:TrackPointExtension>
        </extensions>
      </trkpt>
      <trkpt lat="42.5918014347553253173828125" lon="20.001845173537731170654296875">
        <ele>1709.800048828125</ele>
        <time>2026-06-15T14:38:44.000Z</time>
        <extensions>
          <ns3:TrackPointExtension>
            <ns3:atemp>20.0</ns3:atemp>
          </ns3:TrackPointExtension>
        </extensions>
      </trkpt>
      <trkpt lat="42.59177134372293949127197265625" lon="20.00178071670234203338623046875">
        <ele>1708.800048828125</ele>
        <time>2026-06-15T14:38:45.000Z</time>
        <extensions>
          <ns3:TrackPointExtension>
            <ns3:atemp>21.0</ns3:atemp>
          </ns3:TrackPointExtension>
        </extensions>
      </trkpt>
      <trkpt lat="42.5917647220194339752197265625" lon="20.0017092190682888031005859375">
        <ele>1708.199951171875</ele>
        <time>2026-06-15T14:38:46.000Z</time>
        <extensions>
          <ns3:TrackPointExtension>
            <ns3:atemp>21.0</ns3:atemp>
          </ns3:TrackPointExtension>
        </extensions>
      </trkpt>
      <trkpt lat="42.5917462818324565887451171875" lon="20.001648701727390289306640625">
        <ele>1707.4000244140625</ele>
        <time>2026-06-15T14:38:47.000Z</time>
        <extensions>
          <ns3:TrackPointExtension>
            <ns3:atemp>20.0</ns3:atemp>
          </ns3:TrackPointExtension>
        </extensions>
      </trkpt>
      <trkpt lat="42.591711580753326416015625" lon="20.0015824846923351287841796875">
        <ele>1706.4000244140625</ele>
        <time>2026-06-15T14:38:48.000Z</time>
        <extensions>
          <ns3:TrackPointExtension>
            <ns3:atemp>20.0</ns3:atemp>
          </ns3:TrackPointExtension>
        </extensions>
      </trkpt>
      <trkpt lat="42.5916812382638454437255859375" lon="20.00153076834976673126220703125">
        <ele>1705.5999755859375</ele>
        <time>2026-06-15T14:38:49.000Z</time>
        <extensions>
          <ns3:TrackPointExtension>
            <ns3:atemp>20.0</ns3:atemp>
          </ns3:TrackPointExtension>
        </extensions>
      </trkpt>
      <trkpt lat="42.59168853051960468292236328125" lon="20.00147058628499507904052734375">
        <ele>1704.4000244140625</ele>
        <time>2026-06-15T14:38:50.000Z</time>
        <extensions>
          <ns3:TrackPointExtension>
            <ns3:atemp>20.0</ns3:atemp>
          </ns3:TrackPointExtension>
        </extensions>
      </trkpt>
      <trkpt lat="42.59169372729957103729248046875" lon="20.0013997592031955718994140625">
        <ele>1703.800048828125</ele>
        <time>2026-06-15T14:38:51.000Z</time>
        <extensions>
          <ns3:TrackPointExtension>
            <ns3:atemp>20.0</ns3:atemp>
          </ns3:TrackPointExtension>
        </extensions>
      </trkpt>
      <trkpt lat="42.59169322438538074493408203125" lon="20.00132474116981029510498046875">
        <ele>1702.800048828125</ele>
        <time>2026-06-15T14:38:52.000Z</time>
        <extensions>
          <ns3:TrackPointExtension>
            <ns3:atemp>20.0</ns3:atemp>
          </ns3:TrackPointExtension>
        </extensions>
      </trkpt>
      <trkpt lat="42.59168333373963832855224609375" lon="20.001238323748111724853515625">
        <ele>1701.800048828125</ele>
        <time>2026-06-15T14:38:53.000Z</time>
        <extensions>
          <ns3:TrackPointExtension>
            <ns3:atemp>20.0</ns3:atemp>
          </ns3:TrackPointExtension>
        </extensions>
      </trkpt>
      <trkpt lat="42.591666989028453826904296875" lon="20.0011774711310863494873046875">
        <ele>1700.5999755859375</ele>
        <time>2026-06-15T14:38:54.000Z</time>
        <extensions>
          <ns3:TrackPointExtension>
            <ns3:atemp>20.0</ns3:atemp>
          </ns3:TrackPointExtension>
        </extensions>
      </trkpt>
      <trkpt lat="42.59165726602077484130859375" lon="20.0011308677494525909423828125">
        <ele>1699.5999755859375</ele>
        <time>2026-06-15T14:38:55.000Z</time>
        <extensions>
          <ns3:TrackPointExtension>
            <ns3:atemp>20.0</ns3:atemp>
          </ns3:TrackPointExtension>
        </extensions>
      </trkpt>
      <trkpt lat="42.59164712391793727874755859375" lon="20.0010856054723262786865234375">
        <ele>1698.199951171875</ele>
        <time>2026-06-15T14:38:56.000Z</time>
        <extensions>
          <ns3:TrackPointExtension>
            <ns3:atemp>20.0</ns3:atemp>
          </ns3:TrackPointExtension>
        </extensions>
      </trkpt>
      <trkpt lat="42.59165994822978973388671875" lon="20.00103053636848926544189453125">
        <ele>1697.199951171875</ele>
        <time>2026-06-15T14:38:57.000Z</time>
        <extensions>
          <ns3:TrackPointExtension>
            <ns3:atemp>20.0</ns3:atemp>
          </ns3:TrackPointExtension>
        </extensions>
      </trkpt>
      <trkpt lat="42.5916651450097560882568359375" lon="20.00096348114311695098876953125">
        <ele>1696.199951171875</ele>
        <time>2026-06-15T14:38:58.000Z</time>
        <extensions>
          <ns3:TrackPointExtension>
            <ns3:atemp>20.0</ns3:atemp>
          </ns3:TrackPointExtension>
        </extensions>
      </trkpt>
      <trkpt lat="42.59168182499706745147705078125" lon="20.0008898042142391204833984375">
        <ele>1695</ele>
        <time>2026-06-15T14:38:59.000Z</time>
        <extensions>
          <ns3:TrackPointExtension>
            <ns3:atemp>20.0</ns3:atemp>
          </ns3:TrackPointExtension>
        </extensions>
      </trkpt>
      <trkpt lat="42.59169037453830242156982421875" lon="20.00081009231507778167724609375">
        <ele>1694</ele>
        <time>2026-06-15T14:39:00.000Z</time>
        <extensions>
          <ns3:TrackPointExtension>
            <ns3:atemp>20.0</ns3:atemp>
          </ns3:TrackPointExtension>
        </extensions>
      </trkpt>
      <trkpt lat="42.5916914641857147216796875" lon="20.00072342343628406524658203125">
        <ele>1692.5999755859375</ele>
        <time>2026-06-15T14:39:01.000Z</time>
        <extensions>
          <ns3:TrackPointExtension>
            <ns3:atemp>20.0</ns3:atemp>
          </ns3:TrackPointExtension>
        </extensions>
      </trkpt>
      <trkpt lat="42.591703198850154876708984375" lon="20.00066525302827358245849609375">
        <ele>1691.199951171875</ele>
        <time>2026-06-15T14:39:02.000Z</time>
        <extensions>
          <ns3:TrackPointExtension>
            <ns3:atemp>20.0</ns3:atemp>
          </ns3:TrackPointExtension>
        </extensions>
      </trkpt>
      <trkpt lat="42.59173379279673099517822265625" lon="20.000634491443634033203125">
        <ele>1690</ele>
        <time>2026-06-15T14:39:03.000Z</time>
        <extensions>
          <ns3:TrackPointExtension>
            <ns3:atemp>20.0</ns3:atemp>
          </ns3:TrackPointExtension>
        </extensions>
      </trkpt>
      <trkpt lat="42.59177570231258869171142578125" lon="20.00061244703829288482666015625">
        <ele>1689</ele>
        <time>2026-06-15T14:39:04.000Z</time>
        <extensions>
          <ns3:TrackPointExtension>
            <ns3:atemp>20.0</ns3:atemp>
          </ns3:TrackPointExtension>
        </extensions>
      </trkpt>
      <trkpt lat="42.5918233953416347503662109375" lon="20.00058026053011417388916015625">
        <ele>1687.800048828125</ele>
        <time>2026-06-15T14:39:05.000Z</time>
        <extensions>
          <ns3:TrackPointExtension>
            <ns3:atemp>20.0</ns3:atemp>
          </ns3:TrackPointExtension>
        </extensions>
      </trkpt>
      <trkpt lat="42.59187142364680767059326171875" lon="20.00056006014347076416015625">
        <ele>1687</ele>
        <time>2026-06-15T14:39:06.000Z</time>
        <extensions>
          <ns3:TrackPointExtension>
            <ns3:atemp>20.0</ns3:atemp>
          </ns3:TrackPointExtension>
        </extensions>
      </trkpt>
      <trkpt lat="42.59191903285682201385498046875" lon="20.000553019344806671142578125">
        <ele>1686</ele>
        <time>2026-06-15T14:39:07.000Z</time>
        <extensions>
          <ns3:TrackPointExtension>
            <ns3:atemp>20.0</ns3:atemp>
          </ns3:TrackPointExtension>
        </extensions>
      </trkpt>
      <trkpt lat="42.59196211583912372589111328125" lon="20.0005605630576610565185546875">
        <ele>1684.5999755859375</ele>
        <time>2026-06-15T14:39:08.000Z</time>
        <extensions>
          <ns3:TrackPointExtension>
            <ns3:atemp>20.0</ns3:atemp>
          </ns3:TrackPointExtension>
        </extensions>
      </trkpt>
      <trkpt lat="42.591992877423763275146484375" lon="20.00054405070841312408447265625">
        <ele>1683.5999755859375</ele>
        <time>2026-06-15T14:39:09.000Z</time>
        <extensions>
          <ns3:TrackPointExtension>
            <ns3:atemp>20.0</ns3:atemp>
          </ns3:TrackPointExtension>
        </extensions>
      </trkpt>
      <trkpt lat="42.59202741086483001708984375" lon="20.0005176477134227752685546875">
        <ele>1682.800048828125</ele>
        <time>2026-06-15T14:39:10.000Z</time>
        <extensions>
          <ns3:TrackPointExtension>
            <ns3:atemp>20.0</ns3:atemp>
          </ns3:TrackPointExtension>
        </extensions>
      </trkpt>
      <trkpt lat="42.592068649828433990478515625" lon="20.00051043927669525146484375">
        <ele>1681.800048828125</ele>
        <time>2026-06-15T14:39:11.000Z</time>
        <extensions>
          <ns3:TrackPointExtension>
            <ns3:atemp>20.0</ns3:atemp>
          </ns3:TrackPointExtension>
        </extensions>
      </trkpt>
      <trkpt lat="42.5921181030571460723876953125" lon="20.00049744732677936553955078125">
        <ele>1680.800048828125</ele>
        <time>2026-06-15T14:39:12.000Z</time>
        <extensions>
          <ns3:TrackPointExtension>
            <ns3:atemp>20.0</ns3:atemp>
          </ns3:TrackPointExtension>
        </extensions>
      </trkpt>
      <trkpt lat="42.59216554462909698486328125" lon="20.0004695355892181396484375">
        <ele>1679.5999755859375</ele>
        <time>2026-06-15T14:39:13.000Z</time>
        <extensions>
          <ns3:TrackPointExtension>
            <ns3:atemp>20.0</ns3:atemp>
          </ns3:TrackPointExtension>
        </extensions>
      </trkpt>
      <trkpt lat="42.592204771935939788818359375" lon="20.00046526081860065460205078125">
        <ele>1678.4000244140625</ele>
        <time>2026-06-15T14:39:14.000Z</time>
        <extensions>
          <ns3:TrackPointExtension>
            <ns3:atemp>20.0</ns3:atemp>
          </ns3:TrackPointExtension>
        </extensions>
      </trkpt>
      <trkpt lat="42.592238299548625946044921875" lon="20.00043743290007114410400390625">
        <ele>1676.800048828125</ele>
        <time>2026-06-15T14:39:15.000Z</time>
        <extensions>
          <ns3:TrackPointExtension>
            <ns3:atemp>20.0</ns3:atemp>
          </ns3:TrackPointExtension>
        </extensions>
      </trkpt>
      <trkpt lat="42.5922681391239166259765625" lon="20.0004180707037448883056640625">
        <ele>1675.800048828125</ele>
        <time>2026-06-15T14:39:16.000Z</time>
        <extensions>
          <ns3:TrackPointExtension>
            <ns3:atemp>20.0</ns3:atemp>
          </ns3:TrackPointExtension>
        </extensions>
      </trkpt>
      <trkpt lat="42.59230208583176136016845703125" lon="20.00040072016417980194091796875">
        <ele>1674.800048828125</ele>
        <time>2026-06-15T14:39:17.000Z</time>
        <extensions>
          <ns3:TrackPointExtension>
            <ns3:atemp>20.0</ns3:atemp>
          </ns3:TrackPointExtension>
        </extensions>
      </trkpt>
      <trkpt lat="42.59232404641807079315185546875" lon="20.0003821961581707000732421875">
        <ele>1673.800048828125</ele>
        <time>2026-06-15T14:39:18.000Z</time>
        <extensions>
          <ns3:TrackPointExtension>
            <ns3:atemp>20.0</ns3:atemp>
          </ns3:TrackPointExtension>
        </extensions>
      </trkpt>
      <trkpt lat="42.59234583936631679534912109375" lon="20.0003775022923946380615234375">
        <ele>1672.800048828125</ele>
        <time>2026-06-15T14:39:19.000Z</time>
        <extensions>
          <ns3:TrackPointExtension>
            <ns3:atemp>20.0</ns3:atemp>
          </ns3:TrackPointExtension>
        </extensions>
      </trkpt>
      <trkpt lat="42.59237148799002170562744140625" lon="20.00039300881326198577880859375">
        <ele>1671.800048828125</ele>
        <time>2026-06-15T14:39:20.000Z</time>
        <extensions>
          <ns3:TrackPointExtension>
            <ns3:atemp>20.0</ns3:atemp>
          </ns3:TrackPointExtension>
        </extensions>
      </trkpt>
      <trkpt lat="42.5923987291753292083740234375" lon="20.0004093535244464874267578125">
        <ele>1670.5999755859375</ele>
        <time>2026-06-15T14:39:21.000Z</time>
        <extensions>
          <ns3:TrackPointExtension>
            <ns3:atemp>20.0</ns3:atemp>
          </ns3:TrackPointExtension>
        </extensions>
      </trkpt>
      <trkpt lat="42.59242177940905094146728515625" lon="20.00045268796384334564208984375">
        <ele>1669.800048828125</ele>
        <time>2026-06-15T14:39:22.000Z</time>
        <extensions>
          <ns3:TrackPointExtension>
            <ns3:atemp>20.0</ns3:atemp>
          </ns3:TrackPointExtension>
        </extensions>
      </trkpt>
      <trkpt lat="42.5924513675272464752197265625" lon="20.0004965253174304962158203125">
        <ele>1668.800048828125</ele>
        <time>2026-06-15T14:39:23.000Z</time>
        <extensions>
          <ns3:TrackPointExtension>
            <ns3:atemp>20.0</ns3:atemp>
          </ns3:TrackPointExtension>
        </extensions>
      </trkpt>
      <trkpt lat="42.5924932770431041717529296875" lon="20.00053592026233673095703125">
        <ele>1667.800048828125</ele>
        <time>2026-06-15T14:39:24.000Z</time>
        <extensions>
          <ns3:TrackPointExtension>
            <ns3:atemp>20.0</ns3:atemp>
          </ns3:TrackPointExtension>
        </extensions>
      </trkpt>
      <trkpt lat="42.59254717268049716949462890625" lon="20.00053382478654384613037109375">
        <ele>1666.800048828125</ele>
        <time>2026-06-15T14:39:25.000Z</time>
        <extensions>
          <ns3:TrackPointExtension>
            <ns3:atemp>20.0</ns3:atemp>
          </ns3:TrackPointExtension>
        </extensions>
      </trkpt>
      <trkpt lat="42.59260450489819049835205078125" lon="20.00051873736083507537841796875">
        <ele>1665.5999755859375</ele>
        <time>2026-06-15T14:39:26.000Z</time>
        <extensions>
          <ns3:TrackPointExtension>
            <ns3:atemp>20.0</ns3:atemp>
          </ns3:TrackPointExtension>
        </extensions>
      </trkpt>
      <trkpt lat="42.59264876134693622589111328125" lon="20.0004740618169307708740234375">
        <ele>1663.800048828125</ele>
        <time>2026-06-15T14:39:27.000Z</time>
        <extensions>
          <ns3:TrackPointExtension>
            <ns3:atemp>20.0</ns3:atemp>
          </ns3:TrackPointExtension>
        </extensions>
      </trkpt>
      <trkpt lat="42.59268321096897125244140625" lon="20.00041882507503032684326171875">
        <ele>1662.800048828125</ele>
        <time>2026-06-15T14:39:28.000Z</time>
        <extensions>
          <ns3:TrackPointExtension>
            <ns3:atemp>20.0</ns3:atemp>
          </ns3:TrackPointExtension>
        </extensions>
      </trkpt>
      <trkpt lat="42.5927249528467655181884765625" lon="20.0003607384860515594482421875">
        <ele>1661.800048828125</ele>
        <time>2026-06-15T14:39:29.000Z</time>
        <extensions>
          <ns3:TrackPointExtension>
            <ns3:atemp>20.0</ns3:atemp>
          </ns3:TrackPointExtension>
        </extensions>
      </trkpt>
      <trkpt lat="42.59275537915527820587158203125" lon="20.00030525028705596923828125">
        <ele>1660.5999755859375</ele>
        <time>2026-06-15T14:39:30.000Z</time>
        <extensions>
          <ns3:TrackPointExtension>
            <ns3:atemp>20.0</ns3:atemp>
          </ns3:TrackPointExtension>
        </extensions>
      </trkpt>
      <trkpt lat="42.59278404526412487030029296875" lon="20.00025118701159954071044921875">
        <ele>1659.5999755859375</ele>
        <time>2026-06-15T14:39:31.000Z</time>
        <extensions>
          <ns3:TrackPointExtension>
            <ns3:atemp>20.0</ns3:atemp>
          </ns3:TrackPointExtension>
        </extensions>
      </trkpt>
      <trkpt lat="42.59281455539166927337646484375" lon="20.00021615065634250640869140625">
        <ele>1658.5999755859375</ele>
        <time>2026-06-15T14:39:32.000Z</time>
        <extensions>
          <ns3:TrackPointExtension>
            <ns3:atemp>20.0</ns3:atemp>
          </ns3:TrackPointExtension>
        </extensions>
      </trkpt>
      <trkpt lat="42.59282930754125118255615234375" lon="20.00017910264432430267333984375">
        <ele>1657.5999755859375</ele>
        <time>2026-06-15T14:39:33.000Z</time>
        <extensions>
          <ns3:TrackPointExtension>
            <ns3:atemp>20.0</ns3:atemp>
          </ns3:TrackPointExtension>
        </extensions>
      </trkpt>
      <trkpt lat="42.59283383376896381378173828125" lon="20.00015144236385822296142578125">
        <ele>1656.5999755859375</ele>
        <time>2026-06-15T14:39:34.000Z</time>
        <extensions>
          <ns3:TrackPointExtension>
            <ns3:atemp>20.0</ns3:atemp>
          </ns3:TrackPointExtension>
        </extensions>
      </trkpt>
      <trkpt lat="42.59284338913857936859130859375" lon="20.0001203455030918121337890625">
        <ele>1656</ele>
        <time>2026-06-15T14:39:35.000Z</time>
        <extensions>
          <ns3:TrackPointExtension>
            <ns3:atemp>20.0</ns3:atemp>
          </ns3:TrackPointExtension>
        </extensions>
      </trkpt>
      <trkpt lat="42.5928496755659580230712890625" lon="20.00008522532880306243896484375">
        <ele>1655.199951171875</ele>
        <time>2026-06-15T14:39:36.000Z</time>
        <extensions>
          <ns3:TrackPointExtension>
            <ns3:atemp>20.0</ns3:atemp>
          </ns3:TrackPointExtension>
        </extensions>
      </trkpt>
      <trkpt lat="42.59283718653023242950439453125" lon="20.0000536255538463592529296875">
        <ele>1654.5999755859375</ele>
        <time>2026-06-15T14:39:37.000Z</time>
        <extensions>
          <ns3:TrackPointExtension>
            <ns3:atemp>20.0</ns3:atemp>
          </ns3:TrackPointExtension>
        </extensions>
      </trkpt>
      <trkpt lat="42.59282427839934825897216796875" lon="20.00002671964466571807861328125">
        <ele>1654.199951171875</ele>
        <time>2026-06-15T14:39:38.000Z</time>
        <extensions>
          <ns3:TrackPointExtension>
            <ns3:atemp>20.0</ns3:atemp>
          </ns3:TrackPointExtension>
        </extensions>
      </trkpt>
      <trkpt lat="42.5928188301622867584228515625" lon="19.9999979697167873382568359375">
        <ele>1653.5999755859375</ele>
        <time>2026-06-15T14:39:39.000Z</time>
        <extensions>
          <ns3:TrackPointExtension>
            <ns3:atemp>20.0</ns3:atemp>
          </ns3:TrackPointExtension>
        </extensions>
      </trkpt>
      <trkpt lat="42.59281623177230358123779296875" lon="19.99997123144567012786865234375">
        <ele>1653.199951171875</ele>
        <time>2026-06-15T14:39:40.000Z</time>
        <extensions>
          <ns3:TrackPointExtension>
            <ns3:atemp>20.0</ns3:atemp>
          </ns3:TrackPointExtension>
        </extensions>
      </trkpt>
      <trkpt lat="42.5928171537816524505615234375" lon="19.9999543838202953338623046875">
        <ele>1652.800048828125</ele>
        <time>2026-06-15T14:39:41.000Z</time>
        <extensions>
          <ns3:TrackPointExtension>
            <ns3:atemp>20.0</ns3:atemp>
          </ns3:TrackPointExtension>
        </extensions>
      </trkpt>
      <trkpt lat="42.59281824342906475067138671875" lon="19.99995044432580471038818359375">
        <ele>1652.5999755859375</ele>
        <time>2026-06-15T14:39:42.000Z</time>
        <extensions>
          <ns3:TrackPointExtension>
            <ns3:atemp>20.0</ns3:atemp>
          </ns3:TrackPointExtension>
        </extensions>
      </trkpt>
      <trkpt lat="42.59281438775360584259033203125" lon="19.99994155950844287872314453125">
        <ele>1652.199951171875</ele>
        <time>2026-06-15T14:39:43.000Z</time>
        <extensions>
          <ns3:TrackPointExtension>
            <ns3:atemp>20.0</ns3:atemp>
          </ns3:TrackPointExtension>
        </extensions>
      </trkpt>
      <trkpt lat="42.592814303934574127197265625" lon="19.999941475689411163330078125">
        <ele>1652</ele>
        <time>2026-06-15T14:39:44.000Z</time>
        <extensions>
          <ns3:TrackPointExtension>
            <ns3:atemp>20.0</ns3:atemp>
          </ns3:TrackPointExtension>
        </extensions>
      </trkpt>
      <trkpt lat="42.592814303934574127197265625" lon="19.999941475689411163330078125">
        <ele>1651.800048828125</ele>
        <time>2026-06-15T14:39:45.000Z</time>
        <extensions>
          <ns3:TrackPointExtension>
            <ns3:atemp>20.0</ns3:atemp>
          </ns3:TrackPointExtension>
        </extensions>
      </trkpt>
      <trkpt lat="42.592814303934574127197265625" lon="19.999941475689411163330078125">
        <ele>1651.800048828125</ele>
        <time>2026-06-15T14:39:46.000Z</time>
        <extensions>
          <ns3:TrackPointExtension>
            <ns3:atemp>20.0</ns3:atemp>
          </ns3:TrackPointExtension>
        </extensions>
      </trkpt>
      <trkpt lat="42.592814303934574127197265625" lon="19.999941475689411163330078125">
        <ele>1651.800048828125</ele>
        <time>2026-06-15T14:39:47.000Z</time>
        <extensions>
          <ns3:TrackPointExtension>
            <ns3:atemp>20.0</ns3:atemp>
          </ns3:TrackPointExtension>
        </extensions>
      </trkpt>
      <trkpt lat="42.59281321428716182708740234375" lon="19.99994072131812572479248046875">
        <ele>1651.5999755859375</ele>
        <time>2026-06-15T14:39:48.000Z</time>
        <extensions>
          <ns3:TrackPointExtension>
            <ns3:atemp>20.0</ns3:atemp>
          </ns3:TrackPointExtension>
        </extensions>
      </trkpt>
      <trkpt lat="42.592814303934574127197265625" lon="19.999941475689411163330078125">
        <ele>1651.5999755859375</ele>
        <time>2026-06-15T14:39:49.000Z</time>
        <extensions>
          <ns3:TrackPointExtension>
            <ns3:atemp>20.0</ns3:atemp>
          </ns3:TrackPointExtension>
        </extensions>
      </trkpt>
      <trkpt lat="42.592814303934574127197265625" lon="19.999941475689411163330078125">
        <ele>1651.5999755859375</ele>
        <time>2026-06-15T14:39:50.000Z</time>
        <extensions>
          <ns3:TrackPointExtension>
            <ns3:atemp>20.0</ns3:atemp>
          </ns3:TrackPointExtension>
        </extensions>
      </trkpt>
      <trkpt lat="42.592814303934574127197265625" lon="19.999941475689411163330078125">
        <ele>1651.4000244140625</ele>
        <time>2026-06-15T14:39:51.000Z</time>
        <extensions>
          <ns3:TrackPointExtension>
            <ns3:atemp>20.0</ns3:atemp>
          </ns3:TrackPointExtension>
        </extensions>
      </trkpt>
      <trkpt lat="42.592814303934574127197265625" lon="19.999941475689411163330078125">
        <ele>1651.4000244140625</ele>
        <time>2026-06-15T14:39:52.000Z</time>
        <extensions>
          <ns3:TrackPointExtension>
            <ns3:atemp>20.0</ns3:atemp>
          </ns3:TrackPointExtension>
        </extensions>
      </trkpt>
      <trkpt lat="42.592814303934574127197265625" lon="19.999941475689411163330078125">
        <ele>1651.199951171875</ele>
        <time>2026-06-15T14:39:53.000Z</time>
        <extensions>
          <ns3:TrackPointExtension>
            <ns3:atemp>20.0</ns3:atemp>
          </ns3:TrackPointExtension>
        </extensions>
      </trkpt>
      <trkpt lat="42.592814303934574127197265625" lon="19.999941475689411163330078125">
        <ele>1651.199951171875</ele>
        <time>2026-06-15T14:39:54.000Z</time>
        <extensions>
          <ns3:TrackPointExtension>
            <ns3:atemp>20.0</ns3:atemp>
          </ns3:TrackPointExtension>
        </extensions>
      </trkpt>
      <trkpt lat="42.592814303934574127197265625" lon="19.999941475689411163330078125">
        <ele>1651</ele>
        <time>2026-06-15T14:39:55.000Z</time>
        <extensions>
          <ns3:TrackPointExtension>
            <ns3:atemp>20.0</ns3:atemp>
          </ns3:TrackPointExtension>
        </extensions>
      </trkpt>
      <trkpt lat="42.592814303934574127197265625" lon="19.999941475689411163330078125">
        <ele>1651</ele>
        <time>2026-06-15T14:39:56.000Z</time>
        <extensions>
          <ns3:TrackPointExtension>
            <ns3:atemp>20.0</ns3:atemp>
          </ns3:TrackPointExtension>
        </extensions>
      </trkpt>
      <trkpt lat="42.592814303934574127197265625" lon="19.999941475689411163330078125">
        <ele>1651</ele>
        <time>2026-06-15T14:39:57.000Z</time>
        <extensions>
          <ns3:TrackPointExtension>
            <ns3:atemp>20.0</ns3:atemp>
          </ns3:TrackPointExtension>
        </extensions>
      </trkpt>
      <trkpt lat="42.592814303934574127197265625" lon="19.999941475689411163330078125">
        <ele>1651</ele>
        <time>2026-06-15T14:39:58.000Z</time>
        <extensions>
          <ns3:TrackPointExtension>
            <ns3:atemp>20.0</ns3:atemp>
          </ns3:TrackPointExtension>
        </extensions>
      </trkpt>
      <trkpt lat="42.592814303934574127197265625" lon="19.999941475689411163330078125">
        <ele>1651</ele>
        <time>2026-06-15T14:39:59.000Z</time>
        <extensions>
          <ns3:TrackPointExtension>
            <ns3:atemp>20.0</ns3:atemp>
          </ns3:TrackPointExtension>
        </extensions>
      </trkpt>
      <trkpt lat="42.592814303934574127197265625" lon="19.999941475689411163330078125">
        <ele>1651</ele>
        <time>2026-06-15T14:40:00.000Z</time>
        <extensions>
          <ns3:TrackPointExtension>
            <ns3:atemp>20.0</ns3:atemp>
          </ns3:TrackPointExtension>
        </extensions>
      </trkpt>
      <trkpt lat="42.592814303934574127197265625" lon="19.999941475689411163330078125">
        <ele>1651</ele>
        <time>2026-06-15T14:40:01.000Z</time>
        <extensions>
          <ns3:TrackPointExtension>
            <ns3:atemp>20.0</ns3:atemp>
          </ns3:TrackPointExtension>
        </extensions>
      </trkpt>
      <trkpt lat="42.592814303934574127197265625" lon="19.999941475689411163330078125">
        <ele>1651</ele>
        <time>2026-06-15T14:40:02.000Z</time>
        <extensions>
          <ns3:TrackPointExtension>
            <ns3:atemp>20.0</ns3:atemp>
          </ns3:TrackPointExtension>
        </extensions>
      </trkpt>
      <trkpt lat="42.592814303934574127197265625" lon="19.999941475689411163330078125">
        <ele>1651</ele>
        <time>2026-06-15T14:40:03.000Z</time>
        <extensions>
          <ns3:TrackPointExtension>
            <ns3:atemp>20.0</ns3:atemp>
          </ns3:TrackPointExtension>
        </extensions>
      </trkpt>
      <trkpt lat="42.592814303934574127197265625" lon="19.999941475689411163330078125">
        <ele>1651</ele>
        <time>2026-06-15T14:40:04.000Z</time>
        <extensions>
          <ns3:TrackPointExtension>
            <ns3:atemp>20.0</ns3:atemp>
          </ns3:TrackPointExtension>
        </extensions>
      </trkpt>
      <trkpt lat="42.592814303934574127197265625" lon="19.999941475689411163330078125">
        <ele>1651</ele>
        <time>2026-06-15T14:40:05.000Z</time>
        <extensions>
          <ns3:TrackPointExtension>
            <ns3:atemp>20.0</ns3:atemp>
          </ns3:TrackPointExtension>
        </extensions>
      </trkpt>
      <trkpt lat="42.592814303934574127197265625" lon="19.999941475689411163330078125">
        <ele>1651</ele>
        <time>2026-06-15T14:40:06.000Z</time>
        <extensions>
          <ns3:TrackPointExtension>
            <ns3:atemp>20.0</ns3:atemp>
          </ns3:TrackPointExtension>
        </extensions>
      </trkpt>
      <trkpt lat="42.592814303934574127197265625" lon="19.999941475689411163330078125">
        <ele>1651</ele>
        <time>2026-06-15T14:40:07.000Z</time>
        <extensions>
          <ns3:TrackPointExtension>
            <ns3:atemp>20.0</ns3:atemp>
          </ns3:TrackPointExtension>
        </extensions>
      </trkpt>
      <trkpt lat="42.592814303934574127197265625" lon="19.999941475689411163330078125">
        <ele>1651</ele>
        <time>2026-06-15T14:40:08.000Z</time>
        <extensions>
          <ns3:TrackPointExtension>
            <ns3:atemp>20.0</ns3:atemp>
          </ns3:TrackPointExtension>
        </extensions>
      </trkpt>
      <trkpt lat="42.592814303934574127197265625" lon="19.999941475689411163330078125">
        <ele>1651</ele>
        <time>2026-06-15T14:40:09.000Z</time>
        <extensions>
          <ns3:TrackPointExtension>
            <ns3:atemp>20.0</ns3:atemp>
          </ns3:TrackPointExtension>
        </extensions>
      </trkpt>
      <trkpt lat="42.592814303934574127197265625" lon="19.999941475689411163330078125">
        <ele>1651</ele>
        <time>2026-06-15T14:40:10.000Z</time>
        <extensions>
          <ns3:TrackPointExtension>
            <ns3:atemp>20.0</ns3:atemp>
          </ns3:TrackPointExtension>
        </extensions>
      </trkpt>
      <trkpt lat="42.592814303934574127197265625" lon="19.999941475689411163330078125">
        <ele>1651</ele>
        <time>2026-06-15T14:40:11.000Z</time>
        <extensions>
          <ns3:TrackPointExtension>
            <ns3:atemp>20.0</ns3:atemp>
          </ns3:TrackPointExtension>
        </extensions>
      </trkpt>
      <trkpt lat="42.592814303934574127197265625" lon="19.999941475689411163330078125">
        <ele>1651</ele>
        <time>2026-06-15T14:40:12.000Z</time>
        <extensions>
          <ns3:TrackPointExtension>
            <ns3:atemp>20.0</ns3:atemp>
          </ns3:TrackPointExtension>
        </extensions>
      </trkpt>
      <trkpt lat="42.592814303934574127197265625" lon="19.999941475689411163330078125">
        <ele>1650.800048828125</ele>
        <time>2026-06-15T14:40:13.000Z</time>
        <extensions>
          <ns3:TrackPointExtension>
            <ns3:atemp>20.0</ns3:atemp>
          </ns3:TrackPointExtension>
        </extensions>
      </trkpt>
      <trkpt lat="42.592814303934574127197265625" lon="19.999941475689411163330078125">
        <ele>1650.800048828125</ele>
        <time>2026-06-15T14:40:14.000Z</time>
        <extensions>
          <ns3:TrackPointExtension>
            <ns3:atemp>20.0</ns3:atemp>
          </ns3:TrackPointExtension>
        </extensions>
      </trkpt>
      <trkpt lat="42.592814303934574127197265625" lon="19.999941475689411163330078125">
        <ele>1650.800048828125</ele>
        <time>2026-06-15T14:40:15.000Z</time>
        <extensions>
          <ns3:TrackPointExtension>
            <ns3:atemp>20.0</ns3:atemp>
          </ns3:TrackPointExtension>
        </extensions>
      </trkpt>
      <trkpt lat="42.592814303934574127197265625" lon="19.999941475689411163330078125">
        <ele>1650.800048828125</ele>
        <time>2026-06-15T14:40:16.000Z</time>
        <extensions>
          <ns3:TrackPointExtension>
            <ns3:atemp>20.0</ns3:atemp>
          </ns3:TrackPointExtension>
        </extensions>
      </trkpt>
      <trkpt lat="42.592814303934574127197265625" lon="19.999941475689411163330078125">
        <ele>1650.800048828125</ele>
        <time>2026-06-15T14:40:17.000Z</time>
        <extensions>
          <ns3:TrackPointExtension>
            <ns3:atemp>20.0</ns3:atemp>
          </ns3:TrackPointExtension>
        </extensions>
      </trkpt>
      <trkpt lat="42.592814303934574127197265625" lon="19.999941475689411163330078125">
        <ele>1650.800048828125</ele>
        <time>2026-06-15T14:40:18.000Z</time>
        <extensions>
          <ns3:TrackPointExtension>
            <ns3:atemp>20.0</ns3:atemp>
          </ns3:TrackPointExtension>
        </extensions>
      </trkpt>
      <trkpt lat="42.592814303934574127197265625" lon="19.999941475689411163330078125">
        <ele>1650.800048828125</ele>
        <time>2026-06-15T14:40:19.000Z</time>
        <extensions>
          <ns3:TrackPointExtension>
            <ns3:atemp>20.0</ns3:atemp>
          </ns3:TrackPointExtension>
        </extensions>
      </trkpt>
      <trkpt lat="42.592814303934574127197265625" lon="19.999941475689411163330078125">
        <ele>1650.800048828125</ele>
        <time>2026-06-15T14:40:20.000Z</time>
        <extensions>
          <ns3:TrackPointExtension>
            <ns3:atemp>20.0</ns3:atemp>
          </ns3:TrackPointExtension>
        </extensions>
      </trkpt>
      <trkpt lat="42.592814303934574127197265625" lon="19.999941475689411163330078125">
        <ele>1650.800048828125</ele>
        <time>2026-06-15T14:40:21.000Z</time>
        <extensions>
          <ns3:TrackPointExtension>
            <ns3:atemp>20.0</ns3:atemp>
          </ns3:TrackPointExtension>
        </extensions>
      </trkpt>
      <trkpt lat="42.592814303934574127197265625" lon="19.999941475689411163330078125">
        <ele>1650.800048828125</ele>
        <time>2026-06-15T14:40:22.000Z</time>
        <extensions>
          <ns3:TrackPointExtension>
            <ns3:atemp>20.0</ns3:atemp>
          </ns3:TrackPointExtension>
        </extensions>
      </trkpt>
      <trkpt lat="42.592814303934574127197265625" lon="19.999941475689411163330078125">
        <ele>1650.800048828125</ele>
        <time>2026-06-15T14:40:23.000Z</time>
        <extensions>
          <ns3:TrackPointExtension>
            <ns3:atemp>20.0</ns3:atemp>
          </ns3:TrackPointExtension>
        </extensions>
      </trkpt>
      <trkpt lat="42.592814303934574127197265625" lon="19.999941475689411163330078125">
        <ele>1650.800048828125</ele>
        <time>2026-06-15T14:40:24.000Z</time>
        <extensions>
          <ns3:TrackPointExtension>
            <ns3:atemp>20.0</ns3:atemp>
          </ns3:TrackPointExtension>
        </extensions>
      </trkpt>
      <trkpt lat="42.592814303934574127197265625" lon="19.999941475689411163330078125">
        <ele>1650.800048828125</ele>
        <time>2026-06-15T14:40:25.000Z</time>
        <extensions>
          <ns3:TrackPointExtension>
            <ns3:atemp>20.0</ns3:atemp>
          </ns3:TrackPointExtension>
        </extensions>
      </trkpt>
      <trkpt lat="42.592814303934574127197265625" lon="19.999941475689411163330078125">
        <ele>1650.800048828125</ele>
        <time>2026-06-15T14:40:26.000Z</time>
        <extensions>
          <ns3:TrackPointExtension>
            <ns3:atemp>20.0</ns3:atemp>
          </ns3:TrackPointExtension>
        </extensions>
      </trkpt>
      <trkpt lat="42.592814303934574127197265625" lon="19.999941475689411163330078125">
        <ele>1650.800048828125</ele>
        <time>2026-06-15T14:40:27.000Z</time>
        <extensions>
          <ns3:TrackPointExtension>
            <ns3:atemp>20.0</ns3:atemp>
          </ns3:TrackPointExtension>
        </extensions>
      </trkpt>
      <trkpt lat="42.592814303934574127197265625" lon="19.999941475689411163330078125">
        <ele>1650.800048828125</ele>
        <time>2026-06-15T14:40:28.000Z</time>
        <extensions>
          <ns3:TrackPointExtension>
            <ns3:atemp>20.0</ns3:atemp>
          </ns3:TrackPointExtension>
        </extensions>
      </trkpt>
      <trkpt lat="42.592814303934574127197265625" lon="19.999941475689411163330078125">
        <ele>1650.800048828125</ele>
        <time>2026-06-15T14:40:29.000Z</time>
        <extensions>
          <ns3:TrackPointExtension>
            <ns3:atemp>20.0</ns3:atemp>
          </ns3:TrackPointExtension>
        </extensions>
      </trkpt>
      <trkpt lat="42.592814303934574127197265625" lon="19.999941475689411163330078125">
        <ele>1650.800048828125</ele>
        <time>2026-06-15T14:40:30.000Z</time>
        <extensions>
          <ns3:TrackPointExtension>
            <ns3:atemp>20.0</ns3:atemp>
          </ns3:TrackPointExtension>
        </extensions>
      </trkpt>
      <trkpt lat="42.592814303934574127197265625" lon="19.999941475689411163330078125">
        <ele>1650.800048828125</ele>
        <time>2026-06-15T14:40:31.000Z</time>
        <extensions>
          <ns3:TrackPointExtension>
            <ns3:atemp>20.0</ns3:atemp>
          </ns3:TrackPointExtension>
        </extensions>
      </trkpt>
      <trkpt lat="42.592814303934574127197265625" lon="19.999941475689411163330078125">
        <ele>1650.800048828125</ele>
        <time>2026-06-15T14:40:32.000Z</time>
        <extensions>
          <ns3:TrackPointExtension>
            <ns3:atemp>20.0</ns3:atemp>
          </ns3:TrackPointExtension>
        </extensions>
      </trkpt>
      <trkpt lat="42.592814303934574127197265625" lon="19.999941475689411163330078125">
        <ele>1650.800048828125</ele>
        <time>2026-06-15T14:40:33.000Z</time>
        <extensions>
          <ns3:TrackPointExtension>
            <ns3:atemp>20.0</ns3:atemp>
          </ns3:TrackPointExtension>
        </extensions>
      </trkpt>
      <trkpt lat="42.592814303934574127197265625" lon="19.999941475689411163330078125">
        <ele>1650.800048828125</ele>
        <time>2026-06-15T14:40:34.000Z</time>
        <extensions>
          <ns3:TrackPointExtension>
            <ns3:atemp>20.0</ns3:atemp>
          </ns3:TrackPointExtension>
        </extensions>
      </trkpt>
      <trkpt lat="42.592814303934574127197265625" lon="19.999941475689411163330078125">
        <ele>1650.800048828125</ele>
        <time>2026-06-15T14:40:35.000Z</time>
        <extensions>
          <ns3:TrackPointExtension>
            <ns3:atemp>20.0</ns3:atemp>
          </ns3:TrackPointExtension>
        </extensions>
      </trkpt>
      <trkpt lat="42.592814303934574127197265625" lon="19.999941475689411163330078125">
        <ele>1650.800048828125</ele>
        <time>2026-06-15T14:40:36.000Z</time>
        <extensions>
          <ns3:TrackPointExtension>
            <ns3:atemp>20.0</ns3:atemp>
          </ns3:TrackPointExtension>
        </extensions>
      </trkpt>
      <trkpt lat="42.592814303934574127197265625" lon="19.999941475689411163330078125">
        <ele>1650.800048828125</ele>
        <time>2026-06-15T14:40:37.000Z</time>
        <extensions>
          <ns3:TrackPointExtension>
            <ns3:atemp>20.0</ns3:atemp>
          </ns3:TrackPointExtension>
        </extensions>
      </trkpt>
      <trkpt lat="42.592814303934574127197265625" lon="19.999941475689411163330078125">
        <ele>1650.800048828125</ele>
        <time>2026-06-15T14:40:38.000Z</time>
        <extensions>
          <ns3:TrackPointExtension>
            <ns3:atemp>20.0</ns3:atemp>
          </ns3:TrackPointExtension>
        </extensions>
      </trkpt>
      <trkpt lat="42.592814303934574127197265625" lon="19.999941475689411163330078125">
        <ele>1650.800048828125</ele>
        <time>2026-06-15T14:40:39.000Z</time>
        <extensions>
          <ns3:TrackPointExtension>
            <ns3:atemp>20.0</ns3:atemp>
          </ns3:TrackPointExtension>
        </extensions>
      </trkpt>
      <trkpt lat="42.592814303934574127197265625" lon="19.999941475689411163330078125">
        <ele>1650.800048828125</ele>
        <time>2026-06-15T14:40:40.000Z</time>
        <extensions>
          <ns3:TrackPointExtension>
            <ns3:atemp>20.0</ns3:atemp>
          </ns3:TrackPointExtension>
        </extensions>
      </trkpt>
      <trkpt lat="42.592814303934574127197265625" lon="19.999941475689411163330078125">
        <ele>1650.800048828125</ele>
        <time>2026-06-15T14:40:41.000Z</time>
        <extensions>
          <ns3:TrackPointExtension>
            <ns3:atemp>20.0</ns3:atemp>
          </ns3:TrackPointExtension>
        </extensions>
      </trkpt>
      <trkpt lat="42.592814303934574127197265625" lon="19.999941475689411163330078125">
        <ele>1650.800048828125</ele>
        <time>2026-06-15T14:40:42.000Z</time>
        <extensions>
          <ns3:TrackPointExtension>
            <ns3:atemp>20.0</ns3:atemp>
          </ns3:TrackPointExtension>
        </extensions>
      </trkpt>
      <trkpt lat="42.592814303934574127197265625" lon="19.999941475689411163330078125">
        <ele>1650.800048828125</ele>
        <time>2026-06-15T14:40:43.000Z</time>
        <extensions>
          <ns3:TrackPointExtension>
            <ns3:atemp>20.0</ns3:atemp>
          </ns3:TrackPointExtension>
        </extensions>
      </trkpt>
      <trkpt lat="42.592814303934574127197265625" lon="19.999941475689411163330078125">
        <ele>1650.800048828125</ele>
        <time>2026-06-15T14:40:44.000Z</time>
        <extensions>
          <ns3:TrackPointExtension>
            <ns3:atemp>20.0</ns3:atemp>
          </ns3:TrackPointExtension>
        </extensions>
      </trkpt>
      <trkpt lat="42.592814303934574127197265625" lon="19.999941475689411163330078125">
        <ele>1650.800048828125</ele>
        <time>2026-06-15T14:40:45.000Z</time>
        <extensions>
          <ns3:TrackPointExtension>
            <ns3:atemp>20.0</ns3:atemp>
          </ns3:TrackPointExtension>
        </extensions>
      </trkpt>
      <trkpt lat="42.592814303934574127197265625" lon="19.999941475689411163330078125">
        <ele>1650.800048828125</ele>
        <time>2026-06-15T14:40:46.000Z</time>
        <extensions>
          <ns3:TrackPointExtension>
            <ns3:atemp>20.0</ns3:atemp>
          </ns3:TrackPointExtension>
        </extensions>
      </trkpt>
      <trkpt lat="42.592814303934574127197265625" lon="19.999941475689411163330078125">
        <ele>1650.800048828125</ele>
        <time>2026-06-15T14:40:47.000Z</time>
        <extensions>
          <ns3:TrackPointExtension>
            <ns3:atemp>20.0</ns3:atemp>
          </ns3:TrackPointExtension>
        </extensions>
      </trkpt>
      <trkpt lat="42.592814303934574127197265625" lon="19.999941475689411163330078125">
        <ele>1650.800048828125</ele>
        <time>2026-06-15T14:40:48.000Z</time>
        <extensions>
          <ns3:TrackPointExtension>
            <ns3:atemp>20.0</ns3:atemp>
          </ns3:TrackPointExtension>
        </extensions>
      </trkpt>
      <trkpt lat="42.592814303934574127197265625" lon="19.999941475689411163330078125">
        <ele>1650.800048828125</ele>
        <time>2026-06-15T14:40:49.000Z</time>
        <extensions>
          <ns3:TrackPointExtension>
            <ns3:atemp>20.0</ns3:atemp>
          </ns3:TrackPointExtension>
        </extensions>
      </trkpt>
      <trkpt lat="42.592814303934574127197265625" lon="19.999941475689411163330078125">
        <ele>1650.5999755859375</ele>
        <time>2026-06-15T14:40:50.000Z</time>
        <extensions>
          <ns3:TrackPointExtension>
            <ns3:atemp>20.0</ns3:atemp>
          </ns3:TrackPointExtension>
        </extensions>
      </trkpt>
      <trkpt lat="42.592814303934574127197265625" lon="19.999941475689411163330078125">
        <ele>1650.5999755859375</ele>
        <time>2026-06-15T14:40:51.000Z</time>
        <extensions>
          <ns3:TrackPointExtension>
            <ns3:atemp>20.0</ns3:atemp>
          </ns3:TrackPointExtension>
        </extensions>
      </trkpt>
      <trkpt lat="42.592814303934574127197265625" lon="19.999941475689411163330078125">
        <ele>1650.5999755859375</ele>
        <time>2026-06-15T14:40:52.000Z</time>
        <extensions>
          <ns3:TrackPointExtension>
            <ns3:atemp>20.0</ns3:atemp>
          </ns3:TrackPointExtension>
        </extensions>
      </trkpt>
      <trkpt lat="42.592814303934574127197265625" lon="19.999941475689411163330078125">
        <ele>1650.5999755859375</ele>
        <time>2026-06-15T14:40:53.000Z</time>
        <extensions>
          <ns3:TrackPointExtension>
            <ns3:atemp>20.0</ns3:atemp>
          </ns3:TrackPointExtension>
        </extensions>
      </trkpt>
      <trkpt lat="42.592814303934574127197265625" lon="19.999941475689411163330078125">
        <ele>1650.5999755859375</ele>
        <time>2026-06-15T14:40:54.000Z</time>
        <extensions>
          <ns3:TrackPointExtension>
            <ns3:atemp>20.0</ns3:atemp>
          </ns3:TrackPointExtension>
        </extensions>
      </trkpt>
      <trkpt lat="42.592814303934574127197265625" lon="19.999941475689411163330078125">
        <ele>1650.5999755859375</ele>
        <time>2026-06-15T14:40:55.000Z</time>
        <extensions>
          <ns3:TrackPointExtension>
            <ns3:atemp>20.0</ns3:atemp>
          </ns3:TrackPointExtension>
        </extensions>
      </trkpt>
      <trkpt lat="42.592814303934574127197265625" lon="19.999941475689411163330078125">
        <ele>1650.5999755859375</ele>
        <time>2026-06-15T14:40:56.000Z</time>
        <extensions>
          <ns3:TrackPointExtension>
            <ns3:atemp>20.0</ns3:atemp>
          </ns3:TrackPointExtension>
        </extensions>
      </trkpt>
      <trkpt lat="42.592814303934574127197265625" lon="19.999941475689411163330078125">
        <ele>1650.5999755859375</ele>
        <time>2026-06-15T14:40:57.000Z</time>
        <extensions>
          <ns3:TrackPointExtension>
            <ns3:atemp>20.0</ns3:atemp>
          </ns3:TrackPointExtension>
        </extensions>
      </trkpt>
      <trkpt lat="42.592814303934574127197265625" lon="19.999941475689411163330078125">
        <ele>1650.4000244140625</ele>
        <time>2026-06-15T14:40:58.000Z</time>
        <extensions>
          <ns3:TrackPointExtension>
            <ns3:atemp>20.0</ns3:atemp>
          </ns3:TrackPointExtension>
        </extensions>
      </trkpt>
      <trkpt lat="42.592814303934574127197265625" lon="19.999941475689411163330078125">
        <ele>1650.4000244140625</ele>
        <time>2026-06-15T14:40:59.000Z</time>
        <extensions>
          <ns3:TrackPointExtension>
            <ns3:atemp>20.0</ns3:atemp>
          </ns3:TrackPointExtension>
        </extensions>
      </trkpt>
      <trkpt lat="42.592814303934574127197265625" lon="19.999941475689411163330078125">
        <ele>1650.4000244140625</ele>
        <time>2026-06-15T14:41:00.000Z</time>
        <extensions>
          <ns3:TrackPointExtension>
            <ns3:atemp>20.0</ns3:atemp>
          </ns3:TrackPointExtension>
        </extensions>
      </trkpt>
      <trkpt lat="42.592814303934574127197265625" lon="19.999941475689411163330078125">
        <ele>1650.4000244140625</ele>
        <time>2026-06-15T14:41:01.000Z</time>
        <extensions>
          <ns3:TrackPointExtension>
            <ns3:atemp>20.0</ns3:atemp>
          </ns3:TrackPointExtension>
        </extensions>
      </trkpt>
      <trkpt lat="42.592814303934574127197265625" lon="19.999941475689411163330078125">
        <ele>1650.4000244140625</ele>
        <time>2026-06-15T14:41:02.000Z</time>
        <extensions>
          <ns3:TrackPointExtension>
            <ns3:atemp>20.0</ns3:atemp>
          </ns3:TrackPointExtension>
        </extensions>
      </trkpt>
      <trkpt lat="42.592814303934574127197265625" lon="19.999941475689411163330078125">
        <ele>1650.4000244140625</ele>
        <time>2026-06-15T14:41:03.000Z</time>
        <extensions>
          <ns3:TrackPointExtension>
            <ns3:atemp>20.0</ns3:atemp>
          </ns3:TrackPointExtension>
        </extensions>
      </trkpt>
      <trkpt lat="42.592814303934574127197265625" lon="19.999941475689411163330078125">
        <ele>1650.4000244140625</ele>
        <time>2026-06-15T14:41:04.000Z</time>
        <extensions>
          <ns3:TrackPointExtension>
            <ns3:atemp>20.0</ns3:atemp>
          </ns3:TrackPointExtension>
        </extensions>
      </trkpt>
      <trkpt lat="42.592814303934574127197265625" lon="19.999941475689411163330078125">
        <ele>1650.4000244140625</ele>
        <time>2026-06-15T14:41:05.000Z</time>
        <extensions>
          <ns3:TrackPointExtension>
            <ns3:atemp>20.0</ns3:atemp>
          </ns3:TrackPointExtension>
        </extensions>
      </trkpt>
      <trkpt lat="42.592814303934574127197265625" lon="19.999941475689411163330078125">
        <ele>1650.4000244140625</ele>
        <time>2026-06-15T14:41:06.000Z</time>
        <extensions>
          <ns3:TrackPointExtension>
            <ns3:atemp>20.0</ns3:atemp>
          </ns3:TrackPointExtension>
        </extensions>
      </trkpt>
      <trkpt lat="42.592814303934574127197265625" lon="19.999941475689411163330078125">
        <ele>1650.4000244140625</ele>
        <time>2026-06-15T14:41:07.000Z</time>
        <extensions>
          <ns3:TrackPointExtension>
            <ns3:atemp>20.0</ns3:atemp>
          </ns3:TrackPointExtension>
        </extensions>
      </trkpt>
      <trkpt lat="42.592814303934574127197265625" lon="19.999941475689411163330078125">
        <ele>1650.4000244140625</ele>
        <time>2026-06-15T14:41:08.000Z</time>
        <extensions>
          <ns3:TrackPointExtension>
            <ns3:atemp>20.0</ns3:atemp>
          </ns3:TrackPointExtension>
        </extensions>
      </trkpt>
      <trkpt lat="42.592814303934574127197265625" lon="19.999941475689411163330078125">
        <ele>1650.4000244140625</ele>
        <time>2026-06-15T14:41:09.000Z</time>
        <extensions>
          <ns3:TrackPointExtension>
            <ns3:atemp>20.0</ns3:atemp>
          </ns3:TrackPointExtension>
        </extensions>
      </trkpt>
      <trkpt lat="42.592814303934574127197265625" lon="19.999941475689411163330078125">
        <ele>1650.4000244140625</ele>
        <time>2026-06-15T14:41:10.000Z</time>
        <extensions>
          <ns3:TrackPointExtension>
            <ns3:atemp>20.0</ns3:atemp>
          </ns3:TrackPointExtension>
        </extensions>
      </trkpt>
      <trkpt lat="42.592814303934574127197265625" lon="19.999941475689411163330078125">
        <ele>1650.4000244140625</ele>
        <time>2026-06-15T14:41:11.000Z</time>
        <extensions>
          <ns3:TrackPointExtension>
            <ns3:atemp>20.0</ns3:atemp>
          </ns3:TrackPointExtension>
        </extensions>
      </trkpt>
      <trkpt lat="42.592814303934574127197265625" lon="19.999941475689411163330078125">
        <ele>1650.4000244140625</ele>
        <time>2026-06-15T14:41:12.000Z</time>
        <extensions>
          <ns3:TrackPointExtension>
            <ns3:atemp>20.0</ns3:atemp>
          </ns3:TrackPointExtension>
        </extensions>
      </trkpt>
      <trkpt lat="42.592814303934574127197265625" lon="19.999941475689411163330078125">
        <ele>1650.4000244140625</ele>
        <time>2026-06-15T14:41:13.000Z</time>
        <extensions>
          <ns3:TrackPointExtension>
            <ns3:atemp>20.0</ns3:atemp>
          </ns3:TrackPointExtension>
        </extensions>
      </trkpt>
      <trkpt lat="42.592814303934574127197265625" lon="19.999941475689411163330078125">
        <ele>1650.4000244140625</ele>
        <time>2026-06-15T14:41:14.000Z</time>
        <extensions>
          <ns3:TrackPointExtension>
            <ns3:atemp>20.0</ns3:atemp>
          </ns3:TrackPointExtension>
        </extensions>
      </trkpt>
      <trkpt lat="42.592814303934574127197265625" lon="19.999941475689411163330078125">
        <ele>1650.4000244140625</ele>
        <time>2026-06-15T14:41:15.000Z</time>
        <extensions>
          <ns3:TrackPointExtension>
            <ns3:atemp>20.0</ns3:atemp>
          </ns3:TrackPointExtension>
        </extensions>
      </trkpt>
      <trkpt lat="42.592814303934574127197265625" lon="19.999941475689411163330078125">
        <ele>1650.5999755859375</ele>
        <time>2026-06-15T14:41:16.000Z</time>
        <extensions>
          <ns3:TrackPointExtension>
            <ns3:atemp>20.0</ns3:atemp>
          </ns3:TrackPointExtension>
        </extensions>
      </trkpt>
      <trkpt lat="42.592814303934574127197265625" lon="19.999941475689411163330078125">
        <ele>1650.5999755859375</ele>
        <time>2026-06-15T14:41:17.000Z</time>
        <extensions>
          <ns3:TrackPointExtension>
            <ns3:atemp>20.0</ns3:atemp>
          </ns3:TrackPointExtension>
        </extensions>
      </trkpt>
      <trkpt lat="42.592814303934574127197265625" lon="19.999941475689411163330078125">
        <ele>1650.5999755859375</ele>
        <time>2026-06-15T14:41:18.000Z</time>
        <extensions>
          <ns3:TrackPointExtension>
            <ns3:atemp>20.0</ns3:atemp>
          </ns3:TrackPointExtension>
        </extensions>
      </trkpt>
      <trkpt lat="42.592814303934574127197265625" lon="19.999941475689411163330078125">
        <ele>1650.5999755859375</ele>
        <time>2026-06-15T14:41:19.000Z</time>
        <extensions>
          <ns3:TrackPointExtension>
            <ns3:atemp>20.0</ns3:atemp>
          </ns3:TrackPointExtension>
        </extensions>
      </trkpt>
      <trkpt lat="42.592814303934574127197265625" lon="19.999941475689411163330078125">
        <ele>1650.5999755859375</ele>
        <time>2026-06-15T14:41:20.000Z</time>
        <extensions>
          <ns3:TrackPointExtension>
            <ns3:atemp>20.0</ns3:atemp>
          </ns3:TrackPointExtension>
        </extensions>
      </trkpt>
      <trkpt lat="42.592814303934574127197265625" lon="19.999941475689411163330078125">
        <ele>1650.5999755859375</ele>
        <time>2026-06-15T14:41:21.000Z</time>
        <extensions>
          <ns3:TrackPointExtension>
            <ns3:atemp>20.0</ns3:atemp>
          </ns3:TrackPointExtension>
        </extensions>
      </trkpt>
      <trkpt lat="42.592814303934574127197265625" lon="19.999941475689411163330078125">
        <ele>1650.5999755859375</ele>
        <time>2026-06-15T14:41:22.000Z</time>
        <extensions>
          <ns3:TrackPointExtension>
            <ns3:atemp>20.0</ns3:atemp>
          </ns3:TrackPointExtension>
        </extensions>
      </trkpt>
      <trkpt lat="42.592814303934574127197265625" lon="19.999941475689411163330078125">
        <ele>1650.5999755859375</ele>
        <time>2026-06-15T14:41:23.000Z</time>
        <extensions>
          <ns3:TrackPointExtension>
            <ns3:atemp>20.0</ns3:atemp>
          </ns3:TrackPointExtension>
        </extensions>
      </trkpt>
      <trkpt lat="42.592814303934574127197265625" lon="19.999941475689411163330078125">
        <ele>1650.5999755859375</ele>
        <time>2026-06-15T14:41:24.000Z</time>
        <extensions>
          <ns3:TrackPointExtension>
            <ns3:atemp>20.0</ns3:atemp>
          </ns3:TrackPointExtension>
        </extensions>
      </trkpt>
      <trkpt lat="42.592814303934574127197265625" lon="19.999941475689411163330078125">
        <ele>1650.5999755859375</ele>
        <time>2026-06-15T14:41:25.000Z</time>
        <extensions>
          <ns3:TrackPointExtension>
            <ns3:atemp>20.0</ns3:atemp>
          </ns3:TrackPointExtension>
        </extensions>
      </trkpt>
      <trkpt lat="42.592814303934574127197265625" lon="19.999941475689411163330078125">
        <ele>1650.5999755859375</ele>
        <time>2026-06-15T14:41:26.000Z</time>
        <extensions>
          <ns3:TrackPointExtension>
            <ns3:atemp>20.0</ns3:atemp>
          </ns3:TrackPointExtension>
        </extensions>
      </trkpt>
      <trkpt lat="42.592814303934574127197265625" lon="19.999941475689411163330078125">
        <ele>1650.5999755859375</ele>
        <time>2026-06-15T14:41:27.000Z</time>
        <extensions>
          <ns3:TrackPointExtension>
            <ns3:atemp>20.0</ns3:atemp>
          </ns3:TrackPointExtension>
        </extensions>
      </trkpt>
      <trkpt lat="42.592814303934574127197265625" lon="19.999941475689411163330078125">
        <ele>1650.5999755859375</ele>
        <time>2026-06-15T14:41:28.000Z</time>
        <extensions>
          <ns3:TrackPointExtension>
            <ns3:atemp>20.0</ns3:atemp>
          </ns3:TrackPointExtension>
        </extensions>
      </trkpt>
      <trkpt lat="42.592814303934574127197265625" lon="19.999941475689411163330078125">
        <ele>1650.5999755859375</ele>
        <time>2026-06-15T14:41:29.000Z</time>
        <extensions>
          <ns3:TrackPointExtension>
            <ns3:atemp>20.0</ns3:atemp>
          </ns3:TrackPointExtension>
        </extensions>
      </trkpt>
      <trkpt lat="42.592814303934574127197265625" lon="19.999941475689411163330078125">
        <ele>1650.5999755859375</ele>
        <time>2026-06-15T14:41:30.000Z</time>
        <extensions>
          <ns3:TrackPointExtension>
            <ns3:atemp>20.0</ns3:atemp>
          </ns3:TrackPointExtension>
        </extensions>
      </trkpt>
      <trkpt lat="42.592814303934574127197265625" lon="19.999941475689411163330078125">
        <ele>1650.5999755859375</ele>
        <time>2026-06-15T14:41:31.000Z</time>
        <extensions>
          <ns3:TrackPointExtension>
            <ns3:atemp>20.0</ns3:atemp>
          </ns3:TrackPointExtension>
        </extensions>
      </trkpt>
      <trkpt lat="42.592814303934574127197265625" lon="19.999941475689411163330078125">
        <ele>1650.5999755859375</ele>
        <time>2026-06-15T14:41:32.000Z</time>
        <extensions>
          <ns3:TrackPointExtension>
            <ns3:atemp>20.0</ns3:atemp>
          </ns3:TrackPointExtension>
        </extensions>
      </trkpt>
      <trkpt lat="42.592814303934574127197265625" lon="19.999941475689411163330078125">
        <ele>1650.5999755859375</ele>
        <time>2026-06-15T14:41:33.000Z</time>
        <extensions>
          <ns3:TrackPointExtension>
            <ns3:atemp>20.0</ns3:atemp>
          </ns3:TrackPointExtension>
        </extensions>
      </trkpt>
      <trkpt lat="42.592814303934574127197265625" lon="19.999941475689411163330078125">
        <ele>1650.5999755859375</ele>
        <time>2026-06-15T14:41:34.000Z</time>
        <extensions>
          <ns3:TrackPointExtension>
            <ns3:atemp>20.0</ns3:atemp>
          </ns3:TrackPointExtension>
        </extensions>
      </trkpt>
      <trkpt lat="42.592814303934574127197265625" lon="19.999941475689411163330078125">
        <ele>1650.4000244140625</ele>
        <time>2026-06-15T14:41:35.000Z</time>
        <extensions>
          <ns3:TrackPointExtension>
            <ns3:atemp>20.0</ns3:atemp>
          </ns3:TrackPointExtension>
        </extensions>
      </trkpt>
      <trkpt lat="42.592814303934574127197265625" lon="19.999941475689411163330078125">
        <ele>1650.4000244140625</ele>
        <time>2026-06-15T14:41:36.000Z</time>
        <extensions>
          <ns3:TrackPointExtension>
            <ns3:atemp>20.0</ns3:atemp>
          </ns3:TrackPointExtension>
        </extensions>
      </trkpt>
      <trkpt lat="42.592814303934574127197265625" lon="19.999941475689411163330078125">
        <ele>1650.4000244140625</ele>
        <time>2026-06-15T14:41:37.000Z</time>
        <extensions>
          <ns3:TrackPointExtension>
            <ns3:atemp>20.0</ns3:atemp>
          </ns3:TrackPointExtension>
        </extensions>
      </trkpt>
      <trkpt lat="42.592814303934574127197265625" lon="19.999941475689411163330078125">
        <ele>1650.4000244140625</ele>
        <time>2026-06-15T14:41:38.000Z</time>
        <extensions>
          <ns3:TrackPointExtension>
            <ns3:atemp>20.0</ns3:atemp>
          </ns3:TrackPointExtension>
        </extensions>
      </trkpt>
      <trkpt lat="42.592814303934574127197265625" lon="19.999941475689411163330078125">
        <ele>1650.199951171875</ele>
        <time>2026-06-15T14:41:39.000Z</time>
        <extensions>
          <ns3:TrackPointExtension>
            <ns3:atemp>20.0</ns3:atemp>
          </ns3:TrackPointExtension>
        </extensions>
      </trkpt>
      <trkpt lat="42.592814303934574127197265625" lon="19.999941475689411163330078125">
        <ele>1650.199951171875</ele>
        <time>2026-06-15T14:41:40.000Z</time>
        <extensions>
          <ns3:TrackPointExtension>
            <ns3:atemp>20.0</ns3:atemp>
          </ns3:TrackPointExtension>
        </extensions>
      </trkpt>
      <trkpt lat="42.592814303934574127197265625" lon="19.999941475689411163330078125">
        <ele>1650</ele>
        <time>2026-06-15T14:41:41.000Z</time>
        <extensions>
          <ns3:TrackPointExtension>
            <ns3:atemp>20.0</ns3:atemp>
          </ns3:TrackPointExtension>
        </extensions>
      </trkpt>
      <trkpt lat="42.592814303934574127197265625" lon="19.999941475689411163330078125">
        <ele>1650</ele>
        <time>2026-06-15T14:41:42.000Z</time>
        <extensions>
          <ns3:TrackPointExtension>
            <ns3:atemp>20.0</ns3:atemp>
          </ns3:TrackPointExtension>
        </extensions>
      </trkpt>
      <trkpt lat="42.592814303934574127197265625" lon="19.999941475689411163330078125">
        <ele>1650</ele>
        <time>2026-06-15T14:41:43.000Z</time>
        <extensions>
          <ns3:TrackPointExtension>
            <ns3:atemp>20.0</ns3:atemp>
          </ns3:TrackPointExtension>
        </extensions>
      </trkpt>
      <trkpt lat="42.592814303934574127197265625" lon="19.999941475689411163330078125">
        <ele>1650</ele>
        <time>2026-06-15T14:41:44.000Z</time>
        <extensions>
          <ns3:TrackPointExtension>
            <ns3:atemp>20.0</ns3:atemp>
          </ns3:TrackPointExtension>
        </extensions>
      </trkpt>
      <trkpt lat="42.592814303934574127197265625" lon="19.999941475689411163330078125">
        <ele>1650</ele>
        <time>2026-06-15T14:41:45.000Z</time>
        <extensions>
          <ns3:TrackPointExtension>
            <ns3:atemp>20.0</ns3:atemp>
          </ns3:TrackPointExtension>
        </extensions>
      </trkpt>
      <trkpt lat="42.592814303934574127197265625" lon="19.999941475689411163330078125">
        <ele>1650.199951171875</ele>
        <time>2026-06-15T14:41:46.000Z</time>
        <extensions>
          <ns3:TrackPointExtension>
            <ns3:atemp>20.0</ns3:atemp>
          </ns3:TrackPointExtension>
        </extensions>
      </trkpt>
      <trkpt lat="42.592814303934574127197265625" lon="19.999941475689411163330078125">
        <ele>1650.199951171875</ele>
        <time>2026-06-15T14:41:47.000Z</time>
        <extensions>
          <ns3:TrackPointExtension>
            <ns3:atemp>20.0</ns3:atemp>
          </ns3:TrackPointExtension>
        </extensions>
      </trkpt>
      <trkpt lat="42.592814303934574127197265625" lon="19.999941475689411163330078125">
        <ele>1650.199951171875</ele>
        <time>2026-06-15T14:41:48.000Z</time>
        <extensions>
          <ns3:TrackPointExtension>
            <ns3:atemp>20.0</ns3:atemp>
          </ns3:TrackPointExtension>
        </extensions>
      </trkpt>
      <trkpt lat="42.592814303934574127197265625" lon="19.999941475689411163330078125">
        <ele>1650.199951171875</ele>
        <time>2026-06-15T14:41:49.000Z</time>
        <extensions>
          <ns3:TrackPointExtension>
            <ns3:atemp>20.0</ns3:atemp>
          </ns3:TrackPointExtension>
        </extensions>
      </trkpt>
      <trkpt lat="42.592814303934574127197265625" lon="19.999941475689411163330078125">
        <ele>1650.199951171875</ele>
        <time>2026-06-15T14:41:50.000Z</time>
        <extensions>
          <ns3:TrackPointExtension>
            <ns3:atemp>20.0</ns3:atemp>
          </ns3:TrackPointExtension>
        </extensions>
      </trkpt>
      <trkpt lat="42.592814303934574127197265625" lon="19.999941475689411163330078125">
        <ele>1650.199951171875</ele>
        <time>2026-06-15T14:41:51.000Z</time>
        <extensions>
          <ns3:TrackPointExtension>
            <ns3:atemp>20.0</ns3:atemp>
          </ns3:TrackPointExtension>
        </extensions>
      </trkpt>
      <trkpt lat="42.592814303934574127197265625" lon="19.999941475689411163330078125">
        <ele>1650</ele>
        <time>2026-06-15T14:41:52.000Z</time>
        <extensions>
          <ns3:TrackPointExtension>
            <ns3:atemp>20.0</ns3:atemp>
          </ns3:TrackPointExtension>
        </extensions>
      </trkpt>
      <trkpt lat="42.592814303934574127197265625" lon="19.999941475689411163330078125">
        <ele>1650</ele>
        <time>2026-06-15T14:41:53.000Z</time>
        <extensions>
          <ns3:TrackPointExtension>
            <ns3:atemp>20.0</ns3:atemp>
          </ns3:TrackPointExtension>
        </extensions>
      </trkpt>
      <trkpt lat="42.592814303934574127197265625" lon="19.999941475689411163330078125">
        <ele>1650</ele>
        <time>2026-06-15T14:41:54.000Z</time>
        <extensions>
          <ns3:TrackPointExtension>
            <ns3:atemp>20.0</ns3:atemp>
          </ns3:TrackPointExtension>
        </extensions>
      </trkpt>
      <trkpt lat="42.592814303934574127197265625" lon="19.999941475689411163330078125">
        <ele>1650</ele>
        <time>2026-06-15T14:41:55.000Z</time>
        <extensions>
          <ns3:TrackPointExtension>
            <ns3:atemp>20.0</ns3:atemp>
          </ns3:TrackPointExtension>
        </extensions>
      </trkpt>
      <trkpt lat="42.592814303934574127197265625" lon="19.999941475689411163330078125">
        <ele>1650</ele>
        <time>2026-06-15T14:41:56.000Z</time>
        <extensions>
          <ns3:TrackPointExtension>
            <ns3:atemp>20.0</ns3:atemp>
          </ns3:TrackPointExtension>
        </extensions>
      </trkpt>
      <trkpt lat="42.592814303934574127197265625" lon="19.999941475689411163330078125">
        <ele>1650</ele>
        <time>2026-06-15T14:41:57.000Z</time>
        <extensions>
          <ns3:TrackPointExtension>
            <ns3:atemp>20.0</ns3:atemp>
          </ns3:TrackPointExtension>
        </extensions>
      </trkpt>
      <trkpt lat="42.592814303934574127197265625" lon="19.999941475689411163330078125">
        <ele>1650</ele>
        <time>2026-06-15T14:41:58.000Z</time>
        <extensions>
          <ns3:TrackPointExtension>
            <ns3:atemp>20.0</ns3:atemp>
          </ns3:TrackPointExtension>
        </extensions>
      </trkpt>
      <trkpt lat="42.592814303934574127197265625" lon="19.999941475689411163330078125">
        <ele>1650.199951171875</ele>
        <time>2026-06-15T14:41:59.000Z</time>
        <extensions>
          <ns3:TrackPointExtension>
            <ns3:atemp>20.0</ns3:atemp>
          </ns3:TrackPointExtension>
        </extensions>
      </trkpt>
      <trkpt lat="42.592814303934574127197265625" lon="19.999941475689411163330078125">
        <ele>1650.199951171875</ele>
        <time>2026-06-15T14:42:00.000Z</time>
        <extensions>
          <ns3:TrackPointExtension>
            <ns3:atemp>20.0</ns3:atemp>
          </ns3:TrackPointExtension>
        </extensions>
      </trkpt>
      <trkpt lat="42.592814303934574127197265625" lon="19.999941475689411163330078125">
        <ele>1650.199951171875</ele>
        <time>2026-06-15T14:42:01.000Z</time>
        <extensions>
          <ns3:TrackPointExtension>
            <ns3:atemp>20.0</ns3:atemp>
          </ns3:TrackPointExtension>
        </extensions>
      </trkpt>
      <trkpt lat="42.592814303934574127197265625" lon="19.999941475689411163330078125">
        <ele>1650.199951171875</ele>
        <time>2026-06-15T14:42:02.000Z</time>
        <extensions>
          <ns3:TrackPointExtension>
            <ns3:atemp>20.0</ns3:atemp>
          </ns3:TrackPointExtension>
        </extensions>
      </trkpt>
      <trkpt lat="42.592814303934574127197265625" lon="19.999941475689411163330078125">
        <ele>1650.199951171875</ele>
        <time>2026-06-15T14:42:03.000Z</time>
        <extensions>
          <ns3:TrackPointExtension>
            <ns3:atemp>20.0</ns3:atemp>
          </ns3:TrackPointExtension>
        </extensions>
      </trkpt>
      <trkpt lat="42.592814303934574127197265625" lon="19.999941475689411163330078125">
        <ele>1650.199951171875</ele>
        <time>2026-06-15T14:42:04.000Z</time>
        <extensions>
          <ns3:TrackPointExtension>
            <ns3:atemp>20.0</ns3:atemp>
          </ns3:TrackPointExtension>
        </extensions>
      </trkpt>
      <trkpt lat="42.592814303934574127197265625" lon="19.999941475689411163330078125">
        <ele>1650.199951171875</ele>
        <time>2026-06-15T14:42:05.000Z</time>
        <extensions>
          <ns3:TrackPointExtension>
            <ns3:atemp>20.0</ns3:atemp>
          </ns3:TrackPointExtension>
        </extensions>
      </trkpt>
      <trkpt lat="42.592814303934574127197265625" lon="19.999941475689411163330078125">
        <ele>1650.199951171875</ele>
        <time>2026-06-15T14:42:06.000Z</time>
        <extensions>
          <ns3:TrackPointExtension>
            <ns3:atemp>20.0</ns3:atemp>
          </ns3:TrackPointExtension>
        </extensions>
      </trkpt>
      <trkpt lat="42.592814303934574127197265625" lon="19.999941475689411163330078125">
        <ele>1650.199951171875</ele>
        <time>2026-06-15T14:42:07.000Z</time>
        <extensions>
          <ns3:TrackPointExtension>
            <ns3:atemp>20.0</ns3:atemp>
          </ns3:TrackPointExtension>
        </extensions>
      </trkpt>
      <trkpt lat="42.592814303934574127197265625" lon="19.999941475689411163330078125">
        <ele>1650.199951171875</ele>
        <time>2026-06-15T14:42:08.000Z</time>
        <extensions>
          <ns3:TrackPointExtension>
            <ns3:atemp>20.0</ns3:atemp>
          </ns3:TrackPointExtension>
        </extensions>
      </trkpt>
      <trkpt lat="42.592814303934574127197265625" lon="19.999941475689411163330078125">
        <ele>1650.199951171875</ele>
        <time>2026-06-15T14:42:09.000Z</time>
        <extensions>
          <ns3:TrackPointExtension>
            <ns3:atemp>20.0</ns3:atemp>
          </ns3:TrackPointExtension>
        </extensions>
      </trkpt>
      <trkpt lat="42.592814303934574127197265625" lon="19.999941475689411163330078125">
        <ele>1650.199951171875</ele>
        <time>2026-06-15T14:42:10.000Z</time>
        <extensions>
          <ns3:TrackPointExtension>
            <ns3:atemp>20.0</ns3:atemp>
          </ns3:TrackPointExtension>
        </extensions>
      </trkpt>
      <trkpt lat="42.592814303934574127197265625" lon="19.999941475689411163330078125">
        <ele>1650.199951171875</ele>
        <time>2026-06-15T14:42:11.000Z</time>
        <extensions>
          <ns3:TrackPointExtension>
            <ns3:atemp>20.0</ns3:atemp>
          </ns3:TrackPointExtension>
        </extensions>
      </trkpt>
      <trkpt lat="42.592814303934574127197265625" lon="19.999941475689411163330078125">
        <ele>1650.199951171875</ele>
        <time>2026-06-15T14:42:12.000Z</time>
        <extensions>
          <ns3:TrackPointExtension>
            <ns3:atemp>20.0</ns3:atemp>
          </ns3:TrackPointExtension>
        </extensions>
      </trkpt>
      <trkpt lat="42.592805922031402587890625" lon="19.99993217177689075469970703125">
        <ele>1650.199951171875</ele>
        <time>2026-06-15T14:42:13.000Z</time>
        <extensions>
          <ns3:TrackPointExtension>
            <ns3:atemp>20.0</ns3:atemp>
          </ns3:TrackPointExtension>
        </extensions>
      </trkpt>
      <trkpt lat="42.59280852042138576507568359375" lon="19.999928735196590423583984375">
        <ele>1650.199951171875</ele>
        <time>2026-06-15T14:42:14.000Z</time>
        <extensions>
          <ns3:TrackPointExtension>
            <ns3:atemp>20.0</ns3:atemp>
          </ns3:TrackPointExtension>
        </extensions>
      </trkpt>
      <trkpt lat="42.5928151421248912811279296875" lon="19.9999262206256389617919921875">
        <ele>1650.199951171875</ele>
        <time>2026-06-15T14:42:15.000Z</time>
        <extensions>
          <ns3:TrackPointExtension>
            <ns3:atemp>20.0</ns3:atemp>
          </ns3:TrackPointExtension>
        </extensions>
      </trkpt>
      <trkpt lat="42.5928288884460926055908203125" lon="19.9999285675585269927978515625">
        <ele>1650.4000244140625</ele>
        <time>2026-06-15T14:42:16.000Z</time>
        <extensions>
          <ns3:TrackPointExtension>
            <ns3:atemp>20.0</ns3:atemp>
          </ns3:TrackPointExtension>
        </extensions>
      </trkpt>
      <trkpt lat="42.59283601306378841400146484375" lon="19.9999344348907470703125">
        <ele>1650.4000244140625</ele>
        <time>2026-06-15T14:42:17.000Z</time>
        <extensions>
          <ns3:TrackPointExtension>
            <ns3:atemp>20.0</ns3:atemp>
          </ns3:TrackPointExtension>
        </extensions>
      </trkpt>
      <trkpt lat="42.5928362645208835601806640625" lon="19.9999344348907470703125">
        <ele>1650.4000244140625</ele>
        <time>2026-06-15T14:42:18.000Z</time>
        <extensions>
          <ns3:TrackPointExtension>
            <ns3:atemp>20.0</ns3:atemp>
          </ns3:TrackPointExtension>
        </extensions>
      </trkpt>
      <trkpt lat="42.5928362645208835601806640625" lon="19.9999344348907470703125">
        <ele>1650.4000244140625</ele>
        <time>2026-06-15T14:42:19.000Z</time>
        <extensions>
          <ns3:TrackPointExtension>
            <ns3:atemp>20.0</ns3:atemp>
          </ns3:TrackPointExtension>
        </extensions>
      </trkpt>
      <trkpt lat="42.5928362645208835601806640625" lon="19.9999344348907470703125">
        <ele>1650.4000244140625</ele>
        <time>2026-06-15T14:42:20.000Z</time>
        <extensions>
          <ns3:TrackPointExtension>
            <ns3:atemp>20.0</ns3:atemp>
          </ns3:TrackPointExtension>
        </extensions>
      </trkpt>
      <trkpt lat="42.5928362645208835601806640625" lon="19.9999344348907470703125">
        <ele>1650.4000244140625</ele>
        <time>2026-06-15T14:42:21.000Z</time>
        <extensions>
          <ns3:TrackPointExtension>
            <ns3:atemp>20.0</ns3:atemp>
          </ns3:TrackPointExtension>
        </extensions>
      </trkpt>
      <trkpt lat="42.5928362645208835601806640625" lon="19.9999344348907470703125">
        <ele>1650.4000244140625</ele>
        <time>2026-06-15T14:42:22.000Z</time>
        <extensions>
          <ns3:TrackPointExtension>
            <ns3:atemp>20.0</ns3:atemp>
          </ns3:TrackPointExtension>
        </extensions>
      </trkpt>
      <trkpt lat="42.59283768944442272186279296875" lon="19.999934770166873931884765625">
        <ele>1650.4000244140625</ele>
        <time>2026-06-15T14:42:23.000Z</time>
        <extensions>
          <ns3:TrackPointExtension>
            <ns3:atemp>20.0</ns3:atemp>
          </ns3:TrackPointExtension>
        </extensions>
      </trkpt>
      <trkpt lat="42.5928520224988460540771484375" lon="19.9999141506850719451904296875">
        <ele>1650.4000244140625</ele>
        <time>2026-06-15T14:42:24.000Z</time>
        <extensions>
          <ns3:TrackPointExtension>
            <ns3:atemp>20.0</ns3:atemp>
          </ns3:TrackPointExtension>
        </extensions>
      </trkpt>
      <trkpt lat="42.5928479991853237152099609375" lon="19.99987953342497348785400390625">
        <ele>1650.199951171875</ele>
        <time>2026-06-15T14:42:25.000Z</time>
        <extensions>
          <ns3:TrackPointExtension>
            <ns3:atemp>20.0</ns3:atemp>
          </ns3:TrackPointExtension>
        </extensions>
      </trkpt>
      <trkpt lat="42.5928448140621185302734375" lon="19.99983661808073520660400390625">
        <ele>1650</ele>
        <time>2026-06-15T14:42:26.000Z</time>
        <extensions>
          <ns3:TrackPointExtension>
            <ns3:atemp>20.0</ns3:atemp>
          </ns3:TrackPointExtension>
        </extensions>
      </trkpt>
      <trkpt lat="42.59285763837397098541259765625" lon="19.99978532083332538604736328125">
        <ele>1649.800048828125</ele>
        <time>2026-06-15T14:42:27.000Z</time>
        <extensions>
          <ns3:TrackPointExtension>
            <ns3:atemp>20.0</ns3:atemp>
          </ns3:TrackPointExtension>
        </extensions>
      </trkpt>
      <trkpt lat="42.59287540800869464874267578125" lon="19.999730251729488372802734375">
        <ele>1649.199951171875</ele>
        <time>2026-06-15T14:42:28.000Z</time>
        <extensions>
          <ns3:TrackPointExtension>
            <ns3:atemp>20.0</ns3:atemp>
          </ns3:TrackPointExtension>
        </extensions>
      </trkpt>
      <trkpt lat="42.5928825326263904571533203125" lon="19.99967761337757110595703125">
        <ele>1648.5999755859375</ele>
        <time>2026-06-15T14:42:29.000Z</time>
        <extensions>
          <ns3:TrackPointExtension>
            <ns3:atemp>20.0</ns3:atemp>
          </ns3:TrackPointExtension>
        </extensions>
      </trkpt>
      <trkpt lat="42.59287440218031406402587890625" lon="19.99960309825837612152099609375">
        <ele>1647.800048828125</ele>
        <time>2026-06-15T14:42:30.000Z</time>
        <extensions>
          <ns3:TrackPointExtension>
            <ns3:atemp>20.0</ns3:atemp>
          </ns3:TrackPointExtension>
        </extensions>
      </trkpt>
      <trkpt lat="42.59286736138164997100830078125" lon="19.99952338635921478271484375">
        <ele>1646.4000244140625</ele>
        <time>2026-06-15T14:42:31.000Z</time>
        <extensions>
          <ns3:TrackPointExtension>
            <ns3:atemp>20.0</ns3:atemp>
          </ns3:TrackPointExtension>
        </extensions>
      </trkpt>
      <trkpt lat="42.5928614102303981781005859375" lon="19.999445267021656036376953125">
        <ele>1645.5999755859375</ele>
        <time>2026-06-15T14:42:32.000Z</time>
        <extensions>
          <ns3:TrackPointExtension>
            <ns3:atemp>20.0</ns3:atemp>
          </ns3:TrackPointExtension>
        </extensions>
      </trkpt>
      <trkpt lat="42.59285059757530689239501953125" lon="19.99938013963401317596435546875">
        <ele>1644.5999755859375</ele>
        <time>2026-06-15T14:42:33.000Z</time>
        <extensions>
          <ns3:TrackPointExtension>
            <ns3:atemp>20.0</ns3:atemp>
          </ns3:TrackPointExtension>
        </extensions>
      </trkpt>
      <trkpt lat="42.5928671099245548248291015625" lon="19.9993264116346836090087890625">
        <ele>1643.5999755859375</ele>
        <time>2026-06-15T14:42:34.000Z</time>
        <extensions>
          <ns3:TrackPointExtension>
            <ns3:atemp>20.0</ns3:atemp>
          </ns3:TrackPointExtension>
        </extensions>
      </trkpt>
      <trkpt lat="42.5928667746484279632568359375" lon="19.999274276196956634521484375">
        <ele>1642.800048828125</ele>
        <time>2026-06-15T14:42:35.000Z</time>
        <extensions>
          <ns3:TrackPointExtension>
            <ns3:atemp>20.0</ns3:atemp>
          </ns3:TrackPointExtension>
        </extensions>
      </trkpt>
      <trkpt lat="42.59285260923206806182861328125" lon="19.99922297894954681396484375">
        <ele>1641.800048828125</ele>
        <time>2026-06-15T14:42:36.000Z</time>
        <extensions>
          <ns3:TrackPointExtension>
            <ns3:atemp>20.0</ns3:atemp>
          </ns3:TrackPointExtension>
        </extensions>
      </trkpt>
      <trkpt lat="42.592837102711200714111328125" lon="19.99916623346507549285888671875">
        <ele>1640.800048828125</ele>
        <time>2026-06-15T14:42:37.000Z</time>
        <extensions>
          <ns3:TrackPointExtension>
            <ns3:atemp>20.0</ns3:atemp>
          </ns3:TrackPointExtension>
        </extensions>
      </trkpt>
      <trkpt lat="42.592816315591335296630859375" lon="19.99909557402133941650390625">
        <ele>1640</ele>
        <time>2026-06-15T14:42:38.000Z</time>
        <extensions>
          <ns3:TrackPointExtension>
            <ns3:atemp>20.0</ns3:atemp>
          </ns3:TrackPointExtension>
        </extensions>
      </trkpt>
      <trkpt lat="42.59280600585043430328369140625" lon="19.99902541749179363250732421875">
        <ele>1638.800048828125</ele>
        <time>2026-06-15T14:42:39.000Z</time>
        <extensions>
          <ns3:TrackPointExtension>
            <ns3:atemp>20.0</ns3:atemp>
          </ns3:TrackPointExtension>
        </extensions>
      </trkpt>
      <trkpt lat="42.5927977077662944793701171875" lon="19.99895350076258182525634765625">
        <ele>1637.5999755859375</ele>
        <time>2026-06-15T14:42:40.000Z</time>
        <extensions>
          <ns3:TrackPointExtension>
            <ns3:atemp>20.0</ns3:atemp>
          </ns3:TrackPointExtension>
        </extensions>
      </trkpt>
      <trkpt lat="42.5927930139005184173583984375" lon="19.99889415688812732696533203125">
        <ele>1636.4000244140625</ele>
        <time>2026-06-15T14:42:41.000Z</time>
        <extensions>
          <ns3:TrackPointExtension>
            <ns3:atemp>20.0</ns3:atemp>
          </ns3:TrackPointExtension>
        </extensions>
      </trkpt>
      <trkpt lat="42.59278672747313976287841796875" lon="19.99883397482335567474365234375">
        <ele>1635.199951171875</ele>
        <time>2026-06-15T14:42:42.000Z</time>
        <extensions>
          <ns3:TrackPointExtension>
            <ns3:atemp>20.0</ns3:atemp>
          </ns3:TrackPointExtension>
        </extensions>
      </trkpt>
      <trkpt lat="42.59278354234993457794189453125" lon="19.99878167174756526947021484375">
        <ele>1634</ele>
        <time>2026-06-15T14:42:43.000Z</time>
        <extensions>
          <ns3:TrackPointExtension>
            <ns3:atemp>20.0</ns3:atemp>
          </ns3:TrackPointExtension>
        </extensions>
      </trkpt>
      <trkpt lat="42.59278505109250545501708984375" lon="19.9987363256514072418212890625">
        <ele>1632.800048828125</ele>
        <time>2026-06-15T14:42:44.000Z</time>
        <extensions>
          <ns3:TrackPointExtension>
            <ns3:atemp>20.0</ns3:atemp>
          </ns3:TrackPointExtension>
        </extensions>
      </trkpt>
      <trkpt lat="42.59278052486479282379150390625" lon="19.99868125654757022857666015625">
        <ele>1631.800048828125</ele>
        <time>2026-06-15T14:42:45.000Z</time>
        <extensions>
          <ns3:TrackPointExtension>
            <ns3:atemp>20.0</ns3:atemp>
          </ns3:TrackPointExtension>
        </extensions>
      </trkpt>
      <trkpt lat="42.5927678681910037994384765625" lon="19.998605065047740936279296875">
        <ele>1630.5999755859375</ele>
        <time>2026-06-15T14:42:46.000Z</time>
        <extensions>
          <ns3:TrackPointExtension>
            <ns3:atemp>20.0</ns3:atemp>
          </ns3:TrackPointExtension>
        </extensions>
      </trkpt>
      <trkpt lat="42.5927484221756458282470703125" lon="19.9985311366617679595947265625">
        <ele>1629.4000244140625</ele>
        <time>2026-06-15T14:42:47.000Z</time>
        <extensions>
          <ns3:TrackPointExtension>
            <ns3:atemp>20.0</ns3:atemp>
          </ns3:TrackPointExtension>
        </extensions>
      </trkpt>
      <trkpt lat="42.5927413813769817352294921875" lon="19.99846483580768108367919921875">
        <ele>1628.199951171875</ele>
        <time>2026-06-15T14:42:48.000Z</time>
        <extensions>
          <ns3:TrackPointExtension>
            <ns3:atemp>20.0</ns3:atemp>
          </ns3:TrackPointExtension>
        </extensions>
      </trkpt>
      <trkpt lat="42.592732496559619903564453125" lon="19.99839375726878643035888671875">
        <ele>1627</ele>
        <time>2026-06-15T14:42:49.000Z</time>
        <extensions>
          <ns3:TrackPointExtension>
            <ns3:atemp>20.0</ns3:atemp>
          </ns3:TrackPointExtension>
        </extensions>
      </trkpt>
      <trkpt lat="42.592716403305530548095703125" lon="19.99834053218364715576171875">
        <ele>1626</ele>
        <time>2026-06-15T14:42:50.000Z</time>
        <extensions>
          <ns3:TrackPointExtension>
            <ns3:atemp>20.0</ns3:atemp>
          </ns3:TrackPointExtension>
        </extensions>
      </trkpt>
      <trkpt lat="42.59271145798265933990478515625" lon="19.9982917495071887969970703125">
        <ele>1625</ele>
        <time>2026-06-15T14:42:51.000Z</time>
        <extensions>
          <ns3:TrackPointExtension>
            <ns3:atemp>20.0</ns3:atemp>
          </ns3:TrackPointExtension>
        </extensions>
      </trkpt>
      <trkpt lat="42.59270676411688327789306640625" lon="19.998246319591999053955078125">
        <ele>1624.199951171875</ele>
        <time>2026-06-15T14:42:52.000Z</time>
        <extensions>
          <ns3:TrackPointExtension>
            <ns3:atemp>20.0</ns3:atemp>
          </ns3:TrackPointExtension>
        </extensions>
      </trkpt>
      <trkpt lat="42.592705003917217254638671875" lon="19.99820030294358730316162109375">
        <ele>1623.5999755859375</ele>
        <time>2026-06-15T14:42:53.000Z</time>
        <extensions>
          <ns3:TrackPointExtension>
            <ns3:atemp>20.0</ns3:atemp>
          </ns3:TrackPointExtension>
        </extensions>
      </trkpt>
      <trkpt lat="42.59270274080336093902587890625" lon="19.9981549568474292755126953125">
        <ele>1622.800048828125</ele>
        <time>2026-06-15T14:42:54.000Z</time>
        <extensions>
          <ns3:TrackPointExtension>
            <ns3:atemp>20.0</ns3:atemp>
          </ns3:TrackPointExtension>
        </extensions>
      </trkpt>
      <trkpt lat="42.5926961190998554229736328125" lon="19.99810508452355861663818359375">
        <ele>1621.5999755859375</ele>
        <time>2026-06-15T14:42:55.000Z</time>
        <extensions>
          <ns3:TrackPointExtension>
            <ns3:atemp>20.0</ns3:atemp>
          </ns3:TrackPointExtension>
        </extensions>
      </trkpt>
      <trkpt lat="42.59267994202673435211181640625" lon="19.99803953804075717926025390625">
        <ele>1620.5999755859375</ele>
        <time>2026-06-15T14:42:56.000Z</time>
        <extensions>
          <ns3:TrackPointExtension>
            <ns3:atemp>20.0</ns3:atemp>
          </ns3:TrackPointExtension>
        </extensions>
      </trkpt>
      <trkpt lat="42.59266971610486507415771484375" lon="19.99797533266246318817138671875">
        <ele>1619.5999755859375</ele>
        <time>2026-06-15T14:42:57.000Z</time>
        <extensions>
          <ns3:TrackPointExtension>
            <ns3:atemp>20.0</ns3:atemp>
          </ns3:TrackPointExtension>
        </extensions>
      </trkpt>
      <trkpt lat="42.592644989490509033203125" lon="19.99791749753057956695556640625">
        <ele>1618.199951171875</ele>
        <time>2026-06-15T14:42:58.000Z</time>
        <extensions>
          <ns3:TrackPointExtension>
            <ns3:atemp>20.0</ns3:atemp>
          </ns3:TrackPointExtension>
        </extensions>
      </trkpt>
      <trkpt lat="42.59263350628316402435302734375" lon="19.9978495202958583831787109375">
        <ele>1617</ele>
        <time>2026-06-15T14:42:59.000Z</time>
        <extensions>
          <ns3:TrackPointExtension>
            <ns3:atemp>20.0</ns3:atemp>
          </ns3:TrackPointExtension>
        </extensions>
      </trkpt>
      <trkpt lat="42.59263149462640285491943359375" lon="19.99776964075863361358642578125">
        <ele>1615.5999755859375</ele>
        <time>2026-06-15T14:43:00.000Z</time>
        <extensions>
          <ns3:TrackPointExtension>
            <ns3:atemp>20.0</ns3:atemp>
          </ns3:TrackPointExtension>
        </extensions>
      </trkpt>
      <trkpt lat="42.5926324166357517242431640625" lon="19.99768280424177646636962890625">
        <ele>1614</ele>
        <time>2026-06-15T14:43:01.000Z</time>
        <extensions>
          <ns3:TrackPointExtension>
            <ns3:atemp>20.0</ns3:atemp>
          </ns3:TrackPointExtension>
        </extensions>
      </trkpt>
      <trkpt lat="42.59264172054827213287353515625" lon="19.9976049363613128662109375">
        <ele>1612.800048828125</ele>
        <time>2026-06-15T14:43:02.000Z</time>
        <extensions>
          <ns3:TrackPointExtension>
            <ns3:atemp>20.0</ns3:atemp>
          </ns3:TrackPointExtension>
        </extensions>
      </trkpt>
      <trkpt lat="42.592671476304531097412109375" lon="19.99754902906715869903564453125">
        <ele>1611.800048828125</ele>
        <time>2026-06-15T14:43:03.000Z</time>
        <extensions>
          <ns3:TrackPointExtension>
            <ns3:atemp>20.0</ns3:atemp>
          </ns3:TrackPointExtension>
        </extensions>
      </trkpt>
      <trkpt lat="42.59270927868783473968505859375" lon="19.99750896356999874114990234375">
        <ele>1610.5999755859375</ele>
        <time>2026-06-15T14:43:04.000Z</time>
        <extensions>
          <ns3:TrackPointExtension>
            <ns3:atemp>20.0</ns3:atemp>
          </ns3:TrackPointExtension>
        </extensions>
      </trkpt>
      <trkpt lat="42.59274624288082122802734375" lon="19.99748834408819675445556640625">
        <ele>1609.4000244140625</ele>
        <time>2026-06-15T14:43:05.000Z</time>
        <extensions>
          <ns3:TrackPointExtension>
            <ns3:atemp>20.0</ns3:atemp>
          </ns3:TrackPointExtension>
        </extensions>
      </trkpt>
      <trkpt lat="42.5927869789302349090576171875" lon="19.99747510068118572235107421875">
        <ele>1608.5999755859375</ele>
        <time>2026-06-15T14:43:06.000Z</time>
        <extensions>
          <ns3:TrackPointExtension>
            <ns3:atemp>20.0</ns3:atemp>
          </ns3:TrackPointExtension>
        </extensions>
      </trkpt>
      <trkpt lat="42.59283148683607578277587890625" lon="19.99746001325547695159912109375">
        <ele>1607.199951171875</ele>
        <time>2026-06-15T14:43:07.000Z</time>
        <extensions>
          <ns3:TrackPointExtension>
            <ns3:atemp>20.0</ns3:atemp>
          </ns3:TrackPointExtension>
        </extensions>
      </trkpt>
      <trkpt lat="42.592874653637409210205078125" lon="19.99746688641607761383056640625">
        <ele>1606.4000244140625</ele>
        <time>2026-06-15T14:43:08.000Z</time>
        <extensions>
          <ns3:TrackPointExtension>
            <ns3:atemp>20.0</ns3:atemp>
          </ns3:TrackPointExtension>
        </extensions>
      </trkpt>
      <trkpt lat="42.59292251430451869964599609375" lon="19.99747694469988346099853515625">
        <ele>1605.5999755859375</ele>
        <time>2026-06-15T14:43:09.000Z</time>
        <extensions>
          <ns3:TrackPointExtension>
            <ns3:atemp>20.0</ns3:atemp>
          </ns3:TrackPointExtension>
        </extensions>
      </trkpt>
      <trkpt lat="42.5929723866283893585205078125" lon="19.99747660942375659942626953125">
        <ele>1604.5999755859375</ele>
        <time>2026-06-15T14:43:10.000Z</time>
        <extensions>
          <ns3:TrackPointExtension>
            <ns3:atemp>20.0</ns3:atemp>
          </ns3:TrackPointExtension>
        </extensions>
      </trkpt>
      <trkpt lat="42.59302460588514804840087890625" lon="19.99749102629721164703369140625">
        <ele>1603.800048828125</ele>
        <time>2026-06-15T14:43:11.000Z</time>
        <extensions>
          <ns3:TrackPointExtension>
            <ns3:atemp>20.0</ns3:atemp>
          </ns3:TrackPointExtension>
        </extensions>
      </trkpt>
      <trkpt lat="42.59307741187512874603271484375" lon="19.99747795052826404571533203125">
        <ele>1602.800048828125</ele>
        <time>2026-06-15T14:43:12.000Z</time>
        <extensions>
          <ns3:TrackPointExtension>
            <ns3:atemp>20.0</ns3:atemp>
          </ns3:TrackPointExtension>
        </extensions>
      </trkpt>
      <trkpt lat="42.59312250651419162750244140625" lon="19.99745272099971771240234375">
        <ele>1601.5999755859375</ele>
        <time>2026-06-15T14:43:13.000Z</time>
        <extensions>
          <ns3:TrackPointExtension>
            <ns3:atemp>20.0</ns3:atemp>
          </ns3:TrackPointExtension>
        </extensions>
      </trkpt>
      <trkpt lat="42.59317112155258655548095703125" lon="19.997428245842456817626953125">
        <ele>1600.5999755859375</ele>
        <time>2026-06-15T14:43:14.000Z</time>
        <extensions>
          <ns3:TrackPointExtension>
            <ns3:atemp>20.0</ns3:atemp>
          </ns3:TrackPointExtension>
        </extensions>
      </trkpt>
      <trkpt lat="42.59321973659098148345947265625" lon="19.99740955419838428497314453125">
        <ele>1599.4000244140625</ele>
        <time>2026-06-15T14:43:15.000Z</time>
        <extensions>
          <ns3:TrackPointExtension>
            <ns3:atemp>20.0</ns3:atemp>
          </ns3:TrackPointExtension>
        </extensions>
      </trkpt>
      <trkpt lat="42.59327338077127933502197265625" lon="19.9973958916962146759033203125">
        <ele>1598.4000244140625</ele>
        <time>2026-06-15T14:43:16.000Z</time>
        <extensions>
          <ns3:TrackPointExtension>
            <ns3:atemp>20.0</ns3:atemp>
          </ns3:TrackPointExtension>
        </extensions>
      </trkpt>
      <trkpt lat="42.5933153741061687469482421875" lon="19.99734987504780292510986328125">
        <ele>1597.199951171875</ele>
        <time>2026-06-15T14:43:17.000Z</time>
        <extensions>
          <ns3:TrackPointExtension>
            <ns3:atemp>20.0</ns3:atemp>
          </ns3:TrackPointExtension>
        </extensions>
      </trkpt>
      <trkpt lat="42.59334982372820377349853515625" lon="19.99729371629655361175537109375">
        <ele>1595.800048828125</ele>
        <time>2026-06-15T14:43:18.000Z</time>
        <extensions>
          <ns3:TrackPointExtension>
            <ns3:atemp>20.0</ns3:atemp>
          </ns3:TrackPointExtension>
        </extensions>
      </trkpt>
      <trkpt lat="42.5933854468166828155517578125" lon="19.9972440116107463836669921875">
        <ele>1594.4000244140625</ele>
        <time>2026-06-15T14:43:19.000Z</time>
        <extensions>
          <ns3:TrackPointExtension>
            <ns3:atemp>20.0</ns3:atemp>
          </ns3:TrackPointExtension>
        </extensions>
      </trkpt>
      <trkpt lat="42.59342995472252368927001953125" lon="19.997210986912250518798828125">
        <ele>1593.199951171875</ele>
        <time>2026-06-15T14:43:20.000Z</time>
        <extensions>
          <ns3:TrackPointExtension>
            <ns3:atemp>20.0</ns3:atemp>
          </ns3:TrackPointExtension>
        </extensions>
      </trkpt>
      <trkpt lat="42.5934810005128383636474609375" lon="19.99718558974564075469970703125">
        <ele>1592</ele>
        <time>2026-06-15T14:43:21.000Z</time>
        <extensions>
          <ns3:TrackPointExtension>
            <ns3:atemp>20.0</ns3:atemp>
          </ns3:TrackPointExtension>
        </extensions>
      </trkpt>
      <trkpt lat="42.593513019382953643798828125" lon="19.9971491284668445587158203125">
        <ele>1590.800048828125</ele>
        <time>2026-06-15T14:43:22.000Z</time>
        <extensions>
          <ns3:TrackPointExtension>
            <ns3:atemp>20.0</ns3:atemp>
          </ns3:TrackPointExtension>
        </extensions>
      </trkpt>
      <trkpt lat="42.59353623725473880767822265625" lon="19.99713219702243804931640625">
        <ele>1589.800048828125</ele>
        <time>2026-06-15T14:43:23.000Z</time>
        <extensions>
          <ns3:TrackPointExtension>
            <ns3:atemp>20.0</ns3:atemp>
          </ns3:TrackPointExtension>
        </extensions>
      </trkpt>
      <trkpt lat="42.59354026056826114654541015625" lon="19.997112415730953216552734375">
        <ele>1588.800048828125</ele>
        <time>2026-06-15T14:43:24.000Z</time>
        <extensions>
          <ns3:TrackPointExtension>
            <ns3:atemp>20.0</ns3:atemp>
          </ns3:TrackPointExtension>
        </extensions>
      </trkpt>
      <trkpt lat="42.59354042820632457733154296875" lon="19.99710160307586193084716796875">
        <ele>1588</ele>
        <time>2026-06-15T14:43:25.000Z</time>
        <extensions>
          <ns3:TrackPointExtension>
            <ns3:atemp>20.0</ns3:atemp>
          </ns3:TrackPointExtension>
        </extensions>
      </trkpt>
      <trkpt lat="42.59354176931083202362060546875" lon="19.99710671603679656982421875">
        <ele>1587.199951171875</ele>
        <time>2026-06-15T14:43:26.000Z</time>
        <extensions>
          <ns3:TrackPointExtension>
            <ns3:atemp>20.0</ns3:atemp>
          </ns3:TrackPointExtension>
        </extensions>
      </trkpt>
      <trkpt lat="42.59354176931083202362060546875" lon="19.99710663221776485443115234375">
        <ele>1586.800048828125</ele>
        <time>2026-06-15T14:43:27.000Z</time>
        <extensions>
          <ns3:TrackPointExtension>
            <ns3:atemp>20.0</ns3:atemp>
          </ns3:TrackPointExtension>
        </extensions>
      </trkpt>
      <trkpt lat="42.59354176931083202362060546875" lon="19.99710663221776485443115234375">
        <ele>1586.4000244140625</ele>
        <time>2026-06-15T14:43:28.000Z</time>
        <extensions>
          <ns3:TrackPointExtension>
            <ns3:atemp>20.0</ns3:atemp>
          </ns3:TrackPointExtension>
        </extensions>
      </trkpt>
      <trkpt lat="42.59354176931083202362060546875" lon="19.99710663221776485443115234375">
        <ele>1586</ele>
        <time>2026-06-15T14:43:29.000Z</time>
        <extensions>
          <ns3:TrackPointExtension>
            <ns3:atemp>20.0</ns3:atemp>
          </ns3:TrackPointExtension>
        </extensions>
      </trkpt>
      <trkpt lat="42.59354176931083202362060546875" lon="19.99710663221776485443115234375">
        <ele>1585.800048828125</ele>
        <time>2026-06-15T14:43:30.000Z</time>
        <extensions>
          <ns3:TrackPointExtension>
            <ns3:atemp>20.0</ns3:atemp>
          </ns3:TrackPointExtension>
        </extensions>
      </trkpt>
      <trkpt lat="42.59354176931083202362060546875" lon="19.99710663221776485443115234375">
        <ele>1585.4000244140625</ele>
        <time>2026-06-15T14:43:31.000Z</time>
        <extensions>
          <ns3:TrackPointExtension>
            <ns3:atemp>20.0</ns3:atemp>
          </ns3:TrackPointExtension>
        </extensions>
      </trkpt>
      <trkpt lat="42.59354176931083202362060546875" lon="19.99710663221776485443115234375">
        <ele>1585</ele>
        <time>2026-06-15T14:43:32.000Z</time>
        <extensions>
          <ns3:TrackPointExtension>
            <ns3:atemp>20.0</ns3:atemp>
          </ns3:TrackPointExtension>
        </extensions>
      </trkpt>
      <trkpt lat="42.59354176931083202362060546875" lon="19.99710663221776485443115234375">
        <ele>1585</ele>
        <time>2026-06-15T14:43:33.000Z</time>
        <extensions>
          <ns3:TrackPointExtension>
            <ns3:atemp>20.0</ns3:atemp>
          </ns3:TrackPointExtension>
        </extensions>
      </trkpt>
      <trkpt lat="42.59354176931083202362060546875" lon="19.99710663221776485443115234375">
        <ele>1584.800048828125</ele>
        <time>2026-06-15T14:43:34.000Z</time>
        <extensions>
          <ns3:TrackPointExtension>
            <ns3:atemp>20.0</ns3:atemp>
          </ns3:TrackPointExtension>
        </extensions>
      </trkpt>
      <trkpt lat="42.59354176931083202362060546875" lon="19.99710663221776485443115234375">
        <ele>1584.800048828125</ele>
        <time>2026-06-15T14:43:35.000Z</time>
        <extensions>
          <ns3:TrackPointExtension>
            <ns3:atemp>20.0</ns3:atemp>
          </ns3:TrackPointExtension>
        </extensions>
      </trkpt>
      <trkpt lat="42.59354176931083202362060546875" lon="19.99710663221776485443115234375">
        <ele>1584.800048828125</ele>
        <time>2026-06-15T14:43:36.000Z</time>
        <extensions>
          <ns3:TrackPointExtension>
            <ns3:atemp>20.0</ns3:atemp>
          </ns3:TrackPointExtension>
        </extensions>
      </trkpt>
      <trkpt lat="42.59354176931083202362060546875" lon="19.99710663221776485443115234375">
        <ele>1584.800048828125</ele>
        <time>2026-06-15T14:43:37.000Z</time>
        <extensions>
          <ns3:TrackPointExtension>
            <ns3:atemp>20.0</ns3:atemp>
          </ns3:TrackPointExtension>
        </extensions>
      </trkpt>
      <trkpt lat="42.59354176931083202362060546875" lon="19.99710663221776485443115234375">
        <ele>1584.800048828125</ele>
        <time>2026-06-15T14:43:38.000Z</time>
        <extensions>
          <ns3:TrackPointExtension>
            <ns3:atemp>20.0</ns3:atemp>
          </ns3:TrackPointExtension>
        </extensions>
      </trkpt>
      <trkpt lat="42.59354176931083202362060546875" lon="19.99710663221776485443115234375">
        <ele>1584.800048828125</ele>
        <time>2026-06-15T14:43:39.000Z</time>
        <extensions>
          <ns3:TrackPointExtension>
            <ns3:atemp>20.0</ns3:atemp>
          </ns3:TrackPointExtension>
        </extensions>
      </trkpt>
      <trkpt lat="42.59354176931083202362060546875" lon="19.99710663221776485443115234375">
        <ele>1584.800048828125</ele>
        <time>2026-06-15T14:43:40.000Z</time>
        <extensions>
          <ns3:TrackPointExtension>
            <ns3:atemp>20.0</ns3:atemp>
          </ns3:TrackPointExtension>
        </extensions>
      </trkpt>
      <trkpt lat="42.59354176931083202362060546875" lon="19.99710663221776485443115234375">
        <ele>1584.800048828125</ele>
        <time>2026-06-15T14:43:41.000Z</time>
        <extensions>
          <ns3:TrackPointExtension>
            <ns3:atemp>20.0</ns3:atemp>
          </ns3:TrackPointExtension>
        </extensions>
      </trkpt>
      <trkpt lat="42.59354176931083202362060546875" lon="19.99710663221776485443115234375">
        <ele>1584.5999755859375</ele>
        <time>2026-06-15T14:43:42.000Z</time>
        <extensions>
          <ns3:TrackPointExtension>
            <ns3:atemp>20.0</ns3:atemp>
          </ns3:TrackPointExtension>
        </extensions>
      </trkpt>
      <trkpt lat="42.59354176931083202362060546875" lon="19.99710663221776485443115234375">
        <ele>1584.5999755859375</ele>
        <time>2026-06-15T14:43:43.000Z</time>
        <extensions>
          <ns3:TrackPointExtension>
            <ns3:atemp>20.0</ns3:atemp>
          </ns3:TrackPointExtension>
        </extensions>
      </trkpt>
      <trkpt lat="42.59354176931083202362060546875" lon="19.99710663221776485443115234375">
        <ele>1584.5999755859375</ele>
        <time>2026-06-15T14:43:44.000Z</time>
        <extensions>
          <ns3:TrackPointExtension>
            <ns3:atemp>20.0</ns3:atemp>
          </ns3:TrackPointExtension>
        </extensions>
      </trkpt>
      <trkpt lat="42.59354176931083202362060546875" lon="19.99710663221776485443115234375">
        <ele>1584.5999755859375</ele>
        <time>2026-06-15T14:43:45.000Z</time>
        <extensions>
          <ns3:TrackPointExtension>
            <ns3:atemp>20.0</ns3:atemp>
          </ns3:TrackPointExtension>
        </extensions>
      </trkpt>
      <trkpt lat="42.59354176931083202362060546875" lon="19.99710663221776485443115234375">
        <ele>1584.5999755859375</ele>
        <time>2026-06-15T14:43:46.000Z</time>
        <extensions>
          <ns3:TrackPointExtension>
            <ns3:atemp>20.0</ns3:atemp>
          </ns3:TrackPointExtension>
        </extensions>
      </trkpt>
      <trkpt lat="42.59354176931083202362060546875" lon="19.99710663221776485443115234375">
        <ele>1584.4000244140625</ele>
        <time>2026-06-15T14:43:47.000Z</time>
        <extensions>
          <ns3:TrackPointExtension>
            <ns3:atemp>20.0</ns3:atemp>
          </ns3:TrackPointExtension>
        </extensions>
      </trkpt>
      <trkpt lat="42.59354176931083202362060546875" lon="19.99710663221776485443115234375">
        <ele>1584.4000244140625</ele>
        <time>2026-06-15T14:43:48.000Z</time>
        <extensions>
          <ns3:TrackPointExtension>
            <ns3:atemp>20.0</ns3:atemp>
          </ns3:TrackPointExtension>
        </extensions>
      </trkpt>
      <trkpt lat="42.59354176931083202362060546875" lon="19.99710663221776485443115234375">
        <ele>1584.4000244140625</ele>
        <time>2026-06-15T14:43:49.000Z</time>
        <extensions>
          <ns3:TrackPointExtension>
            <ns3:atemp>20.0</ns3:atemp>
          </ns3:TrackPointExtension>
        </extensions>
      </trkpt>
      <trkpt lat="42.59354176931083202362060546875" lon="19.99710663221776485443115234375">
        <ele>1584.4000244140625</ele>
        <time>2026-06-15T14:43:50.000Z</time>
        <extensions>
          <ns3:TrackPointExtension>
            <ns3:atemp>20.0</ns3:atemp>
          </ns3:TrackPointExtension>
        </extensions>
      </trkpt>
      <trkpt lat="42.59354176931083202362060546875" lon="19.99710663221776485443115234375">
        <ele>1584.4000244140625</ele>
        <time>2026-06-15T14:43:51.000Z</time>
        <extensions>
          <ns3:TrackPointExtension>
            <ns3:atemp>20.0</ns3:atemp>
          </ns3:TrackPointExtension>
        </extensions>
      </trkpt>
      <trkpt lat="42.59354176931083202362060546875" lon="19.99710663221776485443115234375">
        <ele>1584.4000244140625</ele>
        <time>2026-06-15T14:43:52.000Z</time>
        <extensions>
          <ns3:TrackPointExtension>
            <ns3:atemp>20.0</ns3:atemp>
          </ns3:TrackPointExtension>
        </extensions>
      </trkpt>
      <trkpt lat="42.59354176931083202362060546875" lon="19.99710663221776485443115234375">
        <ele>1584.4000244140625</ele>
        <time>2026-06-15T14:43:53.000Z</time>
        <extensions>
          <ns3:TrackPointExtension>
            <ns3:atemp>20.0</ns3:atemp>
          </ns3:TrackPointExtension>
        </extensions>
      </trkpt>
      <trkpt lat="42.59354176931083202362060546875" lon="19.99710663221776485443115234375">
        <ele>1584.4000244140625</ele>
        <time>2026-06-15T14:43:54.000Z</time>
        <extensions>
          <ns3:TrackPointExtension>
            <ns3:atemp>20.0</ns3:atemp>
          </ns3:TrackPointExtension>
        </extensions>
      </trkpt>
      <trkpt lat="42.59354176931083202362060546875" lon="19.99710663221776485443115234375">
        <ele>1584.4000244140625</ele>
        <time>2026-06-15T14:43:55.000Z</time>
        <extensions>
          <ns3:TrackPointExtension>
            <ns3:atemp>20.0</ns3:atemp>
          </ns3:TrackPointExtension>
        </extensions>
      </trkpt>
      <trkpt lat="42.59354176931083202362060546875" lon="19.99710663221776485443115234375">
        <ele>1584.4000244140625</ele>
        <time>2026-06-15T14:43:56.000Z</time>
        <extensions>
          <ns3:TrackPointExtension>
            <ns3:atemp>20.0</ns3:atemp>
          </ns3:TrackPointExtension>
        </extensions>
      </trkpt>
      <trkpt lat="42.59354176931083202362060546875" lon="19.99710663221776485443115234375">
        <ele>1584.4000244140625</ele>
        <time>2026-06-15T14:43:57.000Z</time>
        <extensions>
          <ns3:TrackPointExtension>
            <ns3:atemp>20.0</ns3:atemp>
          </ns3:TrackPointExtension>
        </extensions>
      </trkpt>
      <trkpt lat="42.59354176931083202362060546875" lon="19.99710663221776485443115234375">
        <ele>1584.4000244140625</ele>
        <time>2026-06-15T14:43:58.000Z</time>
        <extensions>
          <ns3:TrackPointExtension>
            <ns3:atemp>20.0</ns3:atemp>
          </ns3:TrackPointExtension>
        </extensions>
      </trkpt>
      <trkpt lat="42.59354176931083202362060546875" lon="19.99710663221776485443115234375">
        <ele>1584.4000244140625</ele>
        <time>2026-06-15T14:43:59.000Z</time>
        <extensions>
          <ns3:TrackPointExtension>
            <ns3:atemp>20.0</ns3:atemp>
          </ns3:TrackPointExtension>
        </extensions>
      </trkpt>
      <trkpt lat="42.59354981593787670135498046875" lon="19.9970968253910541534423828125">
        <ele>1584.4000244140625</ele>
        <time>2026-06-15T14:44:00.000Z</time>
        <extensions>
          <ns3:TrackPointExtension>
            <ns3:atemp>20.0</ns3:atemp>
          </ns3:TrackPointExtension>
        </extensions>
      </trkpt>
      <trkpt lat="42.59355962276458740234375" lon="19.997080899775028228759765625">
        <ele>1584.4000244140625</ele>
        <time>2026-06-15T14:44:01.000Z</time>
        <extensions>
          <ns3:TrackPointExtension>
            <ns3:atemp>20.0</ns3:atemp>
          </ns3:TrackPointExtension>
        </extensions>
      </trkpt>
      <trkpt lat="42.59355400688946247100830078125" lon="19.99706673435866832733154296875">
        <ele>1584.4000244140625</ele>
        <time>2026-06-15T14:44:02.000Z</time>
        <extensions>
          <ns3:TrackPointExtension>
            <ns3:atemp>20.0</ns3:atemp>
          </ns3:TrackPointExtension>
        </extensions>
      </trkpt>
      <trkpt lat="42.59354931302368640899658203125" lon="19.99707008711993694305419921875">
        <ele>1584.5999755859375</ele>
        <time>2026-06-15T14:44:03.000Z</time>
        <extensions>
          <ns3:TrackPointExtension>
            <ns3:atemp>20.0</ns3:atemp>
          </ns3:TrackPointExtension>
        </extensions>
      </trkpt>
      <trkpt lat="42.59354797191917896270751953125" lon="19.99707947485148906707763671875">
        <ele>1584.5999755859375</ele>
        <time>2026-06-15T14:44:04.000Z</time>
        <extensions>
          <ns3:TrackPointExtension>
            <ns3:atemp>20.0</ns3:atemp>
          </ns3:TrackPointExtension>
        </extensions>
      </trkpt>
      <trkpt lat="42.5935480557382106781005859375" lon="19.9970797263085842132568359375">
        <ele>1584.800048828125</ele>
        <time>2026-06-15T14:44:05.000Z</time>
        <extensions>
          <ns3:TrackPointExtension>
            <ns3:atemp>20.0</ns3:atemp>
          </ns3:TrackPointExtension>
        </extensions>
      </trkpt>
      <trkpt lat="42.5935480557382106781005859375" lon="19.9970797263085842132568359375">
        <ele>1585</ele>
        <time>2026-06-15T14:44:06.000Z</time>
        <extensions>
          <ns3:TrackPointExtension>
            <ns3:atemp>20.0</ns3:atemp>
          </ns3:TrackPointExtension>
        </extensions>
      </trkpt>
      <trkpt lat="42.5935480557382106781005859375" lon="19.9970797263085842132568359375">
        <ele>1585.199951171875</ele>
        <time>2026-06-15T14:44:07.000Z</time>
        <extensions>
          <ns3:TrackPointExtension>
            <ns3:atemp>20.0</ns3:atemp>
          </ns3:TrackPointExtension>
        </extensions>
      </trkpt>
      <trkpt lat="42.5935480557382106781005859375" lon="19.9970797263085842132568359375">
        <ele>1585.199951171875</ele>
        <time>2026-06-15T14:44:08.000Z</time>
        <extensions>
          <ns3:TrackPointExtension>
            <ns3:atemp>20.0</ns3:atemp>
          </ns3:TrackPointExtension>
        </extensions>
      </trkpt>
      <trkpt lat="42.5935480557382106781005859375" lon="19.9970797263085842132568359375">
        <ele>1585.4000244140625</ele>
        <time>2026-06-15T14:44:09.000Z</time>
        <extensions>
          <ns3:TrackPointExtension>
            <ns3:atemp>20.0</ns3:atemp>
          </ns3:TrackPointExtension>
        </extensions>
      </trkpt>
      <trkpt lat="42.5935480557382106781005859375" lon="19.9970797263085842132568359375">
        <ele>1585.4000244140625</ele>
        <time>2026-06-15T14:44:10.000Z</time>
        <extensions>
          <ns3:TrackPointExtension>
            <ns3:atemp>20.0</ns3:atemp>
          </ns3:TrackPointExtension>
        </extensions>
      </trkpt>
      <trkpt lat="42.5935480557382106781005859375" lon="19.9970797263085842132568359375">
        <ele>1585.4000244140625</ele>
        <time>2026-06-15T14:44:11.000Z</time>
        <extensions>
          <ns3:TrackPointExtension>
            <ns3:atemp>20.0</ns3:atemp>
          </ns3:TrackPointExtension>
        </extensions>
      </trkpt>
      <trkpt lat="42.5935480557382106781005859375" lon="19.9970797263085842132568359375">
        <ele>1585.4000244140625</ele>
        <time>2026-06-15T14:44:12.000Z</time>
        <extensions>
          <ns3:TrackPointExtension>
            <ns3:atemp>20.0</ns3:atemp>
          </ns3:TrackPointExtension>
        </extensions>
      </trkpt>
      <trkpt lat="42.5935480557382106781005859375" lon="19.9970797263085842132568359375">
        <ele>1585.4000244140625</ele>
        <time>2026-06-15T14:44:13.000Z</time>
        <extensions>
          <ns3:TrackPointExtension>
            <ns3:atemp>20.0</ns3:atemp>
          </ns3:TrackPointExtension>
        </extensions>
      </trkpt>
      <trkpt lat="42.5935480557382106781005859375" lon="19.9970797263085842132568359375">
        <ele>1585.5999755859375</ele>
        <time>2026-06-15T14:44:14.000Z</time>
        <extensions>
          <ns3:TrackPointExtension>
            <ns3:atemp>20.0</ns3:atemp>
          </ns3:TrackPointExtension>
        </extensions>
      </trkpt>
      <trkpt lat="42.5935480557382106781005859375" lon="19.9970797263085842132568359375">
        <ele>1585.5999755859375</ele>
        <time>2026-06-15T14:44:15.000Z</time>
        <extensions>
          <ns3:TrackPointExtension>
            <ns3:atemp>20.0</ns3:atemp>
          </ns3:TrackPointExtension>
        </extensions>
      </trkpt>
      <trkpt lat="42.5935480557382106781005859375" lon="19.9970797263085842132568359375">
        <ele>1585.5999755859375</ele>
        <time>2026-06-15T14:44:16.000Z</time>
        <extensions>
          <ns3:TrackPointExtension>
            <ns3:atemp>20.0</ns3:atemp>
          </ns3:TrackPointExtension>
        </extensions>
      </trkpt>
      <trkpt lat="42.5935480557382106781005859375" lon="19.9970797263085842132568359375">
        <ele>1585.5999755859375</ele>
        <time>2026-06-15T14:44:17.000Z</time>
        <extensions>
          <ns3:TrackPointExtension>
            <ns3:atemp>20.0</ns3:atemp>
          </ns3:TrackPointExtension>
        </extensions>
      </trkpt>
      <trkpt lat="42.5935480557382106781005859375" lon="19.9970797263085842132568359375">
        <ele>1585.5999755859375</ele>
        <time>2026-06-15T14:44:18.000Z</time>
        <extensions>
          <ns3:TrackPointExtension>
            <ns3:atemp>20.0</ns3:atemp>
          </ns3:TrackPointExtension>
        </extensions>
      </trkpt>
      <trkpt lat="42.5935480557382106781005859375" lon="19.9970797263085842132568359375">
        <ele>1585.5999755859375</ele>
        <time>2026-06-15T14:44:19.000Z</time>
        <extensions>
          <ns3:TrackPointExtension>
            <ns3:atemp>20.0</ns3:atemp>
          </ns3:TrackPointExtension>
        </extensions>
      </trkpt>
      <trkpt lat="42.5935480557382106781005859375" lon="19.9970797263085842132568359375">
        <ele>1585.5999755859375</ele>
        <time>2026-06-15T14:44:20.000Z</time>
        <extensions>
          <ns3:TrackPointExtension>
            <ns3:atemp>20.0</ns3:atemp>
          </ns3:TrackPointExtension>
        </extensions>
      </trkpt>
      <trkpt lat="42.5935480557382106781005859375" lon="19.9970797263085842132568359375">
        <ele>1585.5999755859375</ele>
        <time>2026-06-15T14:44:21.000Z</time>
        <extensions>
          <ns3:TrackPointExtension>
            <ns3:atemp>20.0</ns3:atemp>
          </ns3:TrackPointExtension>
        </extensions>
      </trkpt>
      <trkpt lat="42.5935480557382106781005859375" lon="19.9970797263085842132568359375">
        <ele>1585.5999755859375</ele>
        <time>2026-06-15T14:44:22.000Z</time>
        <extensions>
          <ns3:TrackPointExtension>
            <ns3:atemp>20.0</ns3:atemp>
          </ns3:TrackPointExtension>
        </extensions>
      </trkpt>
      <trkpt lat="42.5935480557382106781005859375" lon="19.9970797263085842132568359375">
        <ele>1585.5999755859375</ele>
        <time>2026-06-15T14:44:23.000Z</time>
        <extensions>
          <ns3:TrackPointExtension>
            <ns3:atemp>20.0</ns3:atemp>
          </ns3:TrackPointExtension>
        </extensions>
      </trkpt>
      <trkpt lat="42.5935480557382106781005859375" lon="19.9970797263085842132568359375">
        <ele>1585.5999755859375</ele>
        <time>2026-06-15T14:44:24.000Z</time>
        <extensions>
          <ns3:TrackPointExtension>
            <ns3:atemp>20.0</ns3:atemp>
          </ns3:TrackPointExtension>
        </extensions>
      </trkpt>
      <trkpt lat="42.5935480557382106781005859375" lon="19.9970797263085842132568359375">
        <ele>1585.5999755859375</ele>
        <time>2026-06-15T14:44:25.000Z</time>
        <extensions>
          <ns3:TrackPointExtension>
            <ns3:atemp>20.0</ns3:atemp>
          </ns3:TrackPointExtension>
        </extensions>
      </trkpt>
      <trkpt lat="42.5935480557382106781005859375" lon="19.9970797263085842132568359375">
        <ele>1585.5999755859375</ele>
        <time>2026-06-15T14:44:26.000Z</time>
        <extensions>
          <ns3:TrackPointExtension>
            <ns3:atemp>20.0</ns3:atemp>
          </ns3:TrackPointExtension>
        </extensions>
      </trkpt>
      <trkpt lat="42.5935480557382106781005859375" lon="19.9970797263085842132568359375">
        <ele>1585.5999755859375</ele>
        <time>2026-06-15T14:44:27.000Z</time>
        <extensions>
          <ns3:TrackPointExtension>
            <ns3:atemp>20.0</ns3:atemp>
          </ns3:TrackPointExtension>
        </extensions>
      </trkpt>
      <trkpt lat="42.5935480557382106781005859375" lon="19.9970797263085842132568359375">
        <ele>1585.5999755859375</ele>
        <time>2026-06-15T14:44:28.000Z</time>
        <extensions>
          <ns3:TrackPointExtension>
            <ns3:atemp>20.0</ns3:atemp>
          </ns3:TrackPointExtension>
        </extensions>
      </trkpt>
      <trkpt lat="42.5935480557382106781005859375" lon="19.9970797263085842132568359375">
        <ele>1585.5999755859375</ele>
        <time>2026-06-15T14:44:29.000Z</time>
        <extensions>
          <ns3:TrackPointExtension>
            <ns3:atemp>20.0</ns3:atemp>
          </ns3:TrackPointExtension>
        </extensions>
      </trkpt>
      <trkpt lat="42.59354981593787670135498046875" lon="19.99708383344113826751708984375">
        <ele>1585.5999755859375</ele>
        <time>2026-06-15T14:44:30.000Z</time>
        <extensions>
          <ns3:TrackPointExtension>
            <ns3:atemp>20.0</ns3:atemp>
          </ns3:TrackPointExtension>
        </extensions>
      </trkpt>
      <trkpt lat="42.593544535338878631591796875" lon="19.9970711767673492431640625">
        <ele>1585.5999755859375</ele>
        <time>2026-06-15T14:44:31.000Z</time>
        <extensions>
          <ns3:TrackPointExtension>
            <ns3:atemp>20.0</ns3:atemp>
          </ns3:TrackPointExtension>
        </extensions>
      </trkpt>
      <trkpt lat="42.593540512025356292724609375" lon="19.99705977737903594970703125">
        <ele>1585.5999755859375</ele>
        <time>2026-06-15T14:44:32.000Z</time>
        <extensions>
          <ns3:TrackPointExtension>
            <ns3:atemp>20.0</ns3:atemp>
          </ns3:TrackPointExtension>
        </extensions>
      </trkpt>
      <trkpt lat="42.593528442084789276123046875" lon="19.997038654983043670654296875">
        <ele>1585.4000244140625</ele>
        <time>2026-06-15T14:44:33.000Z</time>
        <extensions>
          <ns3:TrackPointExtension>
            <ns3:atemp>20.0</ns3:atemp>
          </ns3:TrackPointExtension>
        </extensions>
      </trkpt>
      <trkpt lat="42.5935111753642559051513671875" lon="19.99701493419706821441650390625">
        <ele>1585.199951171875</ele>
        <time>2026-06-15T14:44:34.000Z</time>
        <extensions>
          <ns3:TrackPointExtension>
            <ns3:atemp>20.0</ns3:atemp>
          </ns3:TrackPointExtension>
        </extensions>
      </trkpt>
      <trkpt lat="42.59350187145173549652099609375" lon="19.9969714321196079254150390625">
        <ele>1585</ele>
        <time>2026-06-15T14:44:35.000Z</time>
        <extensions>
          <ns3:TrackPointExtension>
            <ns3:atemp>20.0</ns3:atemp>
          </ns3:TrackPointExtension>
        </extensions>
      </trkpt>
      <trkpt lat="42.59349583648145198822021484375" lon="19.99692390672862529754638671875">
        <ele>1584.4000244140625</ele>
        <time>2026-06-15T14:44:36.000Z</time>
        <extensions>
          <ns3:TrackPointExtension>
            <ns3:atemp>20.0</ns3:atemp>
          </ns3:TrackPointExtension>
        </extensions>
      </trkpt>
      <trkpt lat="42.5934897176921367645263671875" lon="19.99686355702579021453857421875">
        <ele>1583.800048828125</ele>
        <time>2026-06-15T14:44:37.000Z</time>
        <extensions>
          <ns3:TrackPointExtension>
            <ns3:atemp>20.0</ns3:atemp>
          </ns3:TrackPointExtension>
        </extensions>
      </trkpt>
      <trkpt lat="42.5934900529682636260986328125" lon="19.9967923946678638458251953125">
        <ele>1583.199951171875</ele>
        <time>2026-06-15T14:44:38.000Z</time>
        <extensions>
          <ns3:TrackPointExtension>
            <ns3:atemp>20.0</ns3:atemp>
          </ns3:TrackPointExtension>
        </extensions>
      </trkpt>
      <trkpt lat="42.59348611347377300262451171875" lon="19.99672223813831806182861328125">
        <ele>1582.5999755859375</ele>
        <time>2026-06-15T14:44:39.000Z</time>
        <extensions>
          <ns3:TrackPointExtension>
            <ns3:atemp>20.0</ns3:atemp>
          </ns3:TrackPointExtension>
        </extensions>
      </trkpt>
      <trkpt lat="42.59348611347377300262451171875" lon="19.996664822101593017578125">
        <ele>1581.5999755859375</ele>
        <time>2026-06-15T14:44:40.000Z</time>
        <extensions>
          <ns3:TrackPointExtension>
            <ns3:atemp>20.0</ns3:atemp>
          </ns3:TrackPointExtension>
        </extensions>
      </trkpt>
      <trkpt lat="42.5934913940727710723876953125" lon="19.99660246074199676513671875">
        <ele>1580.5999755859375</ele>
        <time>2026-06-15T14:44:41.000Z</time>
        <extensions>
          <ns3:TrackPointExtension>
            <ns3:atemp>20.0</ns3:atemp>
          </ns3:TrackPointExtension>
        </extensions>
      </trkpt>
      <trkpt lat="42.5934722833335399627685546875" lon="19.996557198464870452880859375">
        <ele>1579.4000244140625</ele>
        <time>2026-06-15T14:44:42.000Z</time>
        <extensions>
          <ns3:TrackPointExtension>
            <ns3:atemp>20.0</ns3:atemp>
          </ns3:TrackPointExtension>
        </extensions>
      </trkpt>
      <trkpt lat="42.593446634709835052490234375" lon="19.9964943341910839080810546875">
        <ele>1578.199951171875</ele>
        <time>2026-06-15T14:44:43.000Z</time>
        <extensions>
          <ns3:TrackPointExtension>
            <ns3:atemp>20.0</ns3:atemp>
          </ns3:TrackPointExtension>
        </extensions>
      </trkpt>
      <trkpt lat="42.593411095440387725830078125" lon="19.996423088014125823974609375">
        <ele>1576.800048828125</ele>
        <time>2026-06-15T14:44:44.000Z</time>
        <extensions>
          <ns3:TrackPointExtension>
            <ns3:atemp>20.0</ns3:atemp>
          </ns3:TrackPointExtension>
        </extensions>
      </trkpt>
      <trkpt lat="42.59337228722870349884033203125" lon="19.99636818654835224151611328125">
        <ele>1575.4000244140625</ele>
        <time>2026-06-15T14:44:45.000Z</time>
        <extensions>
          <ns3:TrackPointExtension>
            <ns3:atemp>20.0</ns3:atemp>
          </ns3:TrackPointExtension>
        </extensions>
      </trkpt>
      <trkpt lat="42.59333892725408077239990234375" lon="19.9963226728141307830810546875">
        <ele>1574</ele>
        <time>2026-06-15T14:44:46.000Z</time>
        <extensions>
          <ns3:TrackPointExtension>
            <ns3:atemp>20.0</ns3:atemp>
          </ns3:TrackPointExtension>
        </extensions>
      </trkpt>
      <trkpt lat="42.5933324731886386871337890625" lon="19.99628554098308086395263671875">
        <ele>1572.800048828125</ele>
        <time>2026-06-15T14:44:47.000Z</time>
        <extensions>
          <ns3:TrackPointExtension>
            <ns3:atemp>20.0</ns3:atemp>
          </ns3:TrackPointExtension>
        </extensions>
      </trkpt>
      <trkpt lat="42.593350075185298919677734375" lon="19.99626944772899150848388671875">
        <ele>1571.800048828125</ele>
        <time>2026-06-15T14:44:48.000Z</time>
        <extensions>
          <ns3:TrackPointExtension>
            <ns3:atemp>20.0</ns3:atemp>
          </ns3:TrackPointExtension>
        </extensions>
      </trkpt>
      <trkpt lat="42.59337245486676692962646484375" lon="19.9962596409022808074951171875">
        <ele>1570.800048828125</ele>
        <time>2026-06-15T14:44:49.000Z</time>
        <extensions>
          <ns3:TrackPointExtension>
            <ns3:atemp>20.0</ns3:atemp>
          </ns3:TrackPointExtension>
        </extensions>
      </trkpt>
      <trkpt lat="42.59339625947177410125732421875" lon="19.99624530784785747528076171875">
        <ele>1570</ele>
        <time>2026-06-15T14:44:50.000Z</time>
        <extensions>
          <ns3:TrackPointExtension>
            <ns3:atemp>20.0</ns3:atemp>
          </ns3:TrackPointExtension>
        </extensions>
      </trkpt>
      <trkpt lat="42.5934156216681003570556640625" lon="19.9962378479540348052978515625">
        <ele>1569.4000244140625</ele>
        <time>2026-06-15T14:44:51.000Z</time>
        <extensions>
          <ns3:TrackPointExtension>
            <ns3:atemp>20.0</ns3:atemp>
          </ns3:TrackPointExtension>
        </extensions>
      </trkpt>
      <trkpt lat="42.59343917481601238250732421875" lon="19.99624547548592090606689453125">
        <ele>1568.4000244140625</ele>
        <time>2026-06-15T14:44:52.000Z</time>
        <extensions>
          <ns3:TrackPointExtension>
            <ns3:atemp>20.0</ns3:atemp>
          </ns3:TrackPointExtension>
        </extensions>
      </trkpt>
      <trkpt lat="42.59347454644739627838134765625" lon="19.9962338246405124664306640625">
        <ele>1567.800048828125</ele>
        <time>2026-06-15T14:44:53.000Z</time>
        <extensions>
          <ns3:TrackPointExtension>
            <ns3:atemp>20.0</ns3:atemp>
          </ns3:TrackPointExtension>
        </extensions>
      </trkpt>
      <trkpt lat="42.5935178808867931365966796875" lon="19.99623105861246585845947265625">
        <ele>1567</ele>
        <time>2026-06-15T14:44:54.000Z</time>
        <extensions>
          <ns3:TrackPointExtension>
            <ns3:atemp>20.0</ns3:atemp>
          </ns3:TrackPointExtension>
        </extensions>
      </trkpt>
      <trkpt lat="42.593560628592967987060546875" lon="19.996221922338008880615234375">
        <ele>1566.199951171875</ele>
        <time>2026-06-15T14:44:55.000Z</time>
        <extensions>
          <ns3:TrackPointExtension>
            <ns3:atemp>20.0</ns3:atemp>
          </ns3:TrackPointExtension>
        </extensions>
      </trkpt>
      <trkpt lat="42.59360966272652149200439453125" lon="19.9962066672742366790771484375">
        <ele>1565.5999755859375</ele>
        <time>2026-06-15T14:44:56.000Z</time>
        <extensions>
          <ns3:TrackPointExtension>
            <ns3:atemp>20.0</ns3:atemp>
          </ns3:TrackPointExtension>
        </extensions>
      </trkpt>
      <trkpt lat="42.59366649203002452850341796875" lon="19.99619484879076480865478515625">
        <ele>1564.800048828125</ele>
        <time>2026-06-15T14:44:57.000Z</time>
        <extensions>
          <ns3:TrackPointExtension>
            <ns3:atemp>20.0</ns3:atemp>
          </ns3:TrackPointExtension>
        </extensions>
      </trkpt>
      <trkpt lat="42.5937156938016414642333984375" lon="19.9961959384381771087646484375">
        <ele>1563.5999755859375</ele>
        <time>2026-06-15T14:44:58.000Z</time>
        <extensions>
          <ns3:TrackPointExtension>
            <ns3:atemp>20.0</ns3:atemp>
          </ns3:TrackPointExtension>
        </extensions>
      </trkpt>
      <trkpt lat="42.593776881694793701171875" lon="19.99619920738041400909423828125">
        <ele>1562.5999755859375</ele>
        <time>2026-06-15T14:44:59.000Z</time>
        <extensions>
          <ns3:TrackPointExtension>
            <ns3:atemp>20.0</ns3:atemp>
          </ns3:TrackPointExtension>
        </extensions>
      </trkpt>
      <trkpt lat="42.5938360579311847686767578125" lon="19.996196441352367401123046875">
        <ele>1561.5999755859375</ele>
        <time>2026-06-15T14:45:00.000Z</time>
        <extensions>
          <ns3:TrackPointExtension>
            <ns3:atemp>20.0</ns3:atemp>
          </ns3:TrackPointExtension>
        </extensions>
      </trkpt>
      <trkpt lat="42.593894563615322113037109375" lon="19.996168948709964752197265625">
        <ele>1560.4000244140625</ele>
        <time>2026-06-15T14:45:01.000Z</time>
        <extensions>
          <ns3:TrackPointExtension>
            <ns3:atemp>20.0</ns3:atemp>
          </ns3:TrackPointExtension>
        </extensions>
      </trkpt>
      <trkpt lat="42.59394510649144649505615234375" lon="19.9961431324481964111328125">
        <ele>1559.4000244140625</ele>
        <time>2026-06-15T14:45:02.000Z</time>
        <extensions>
          <ns3:TrackPointExtension>
            <ns3:atemp>20.0</ns3:atemp>
          </ns3:TrackPointExtension>
        </extensions>
      </trkpt>
      <trkpt lat="42.59398081339895725250244140625" lon="19.99615327455103397369384765625">
        <ele>1558.4000244140625</ele>
        <time>2026-06-15T14:45:03.000Z</time>
        <extensions>
          <ns3:TrackPointExtension>
            <ns3:atemp>20.0</ns3:atemp>
          </ns3:TrackPointExtension>
        </extensions>
      </trkpt>
      <trkpt lat="42.593998499214649200439453125" lon="19.996174313127994537353515625">
        <ele>1557.4000244140625</ele>
        <time>2026-06-15T14:45:04.000Z</time>
        <extensions>
          <ns3:TrackPointExtension>
            <ns3:atemp>20.0</ns3:atemp>
          </ns3:TrackPointExtension>
        </extensions>
      </trkpt>
      <trkpt lat="42.5940184481441974639892578125" lon="19.99620691873133182525634765625">
        <ele>1556.800048828125</ele>
        <time>2026-06-15T14:45:05.000Z</time>
        <extensions>
          <ns3:TrackPointExtension>
            <ns3:atemp>20.0</ns3:atemp>
          </ns3:TrackPointExtension>
        </extensions>
      </trkpt>
      <trkpt lat="42.5940409116446971893310546875" lon="19.996243380010128021240234375">
        <ele>1556.199951171875</ele>
        <time>2026-06-15T14:45:06.000Z</time>
        <extensions>
          <ns3:TrackPointExtension>
            <ns3:atemp>20.0</ns3:atemp>
          </ns3:TrackPointExtension>
        </extensions>
      </trkpt>
      <trkpt lat="42.594068907201290130615234375" lon="19.99628772027790546417236328125">
        <ele>1555.5999755859375</ele>
        <time>2026-06-15T14:45:07.000Z</time>
        <extensions>
          <ns3:TrackPointExtension>
            <ns3:atemp>20.0</ns3:atemp>
          </ns3:TrackPointExtension>
        </extensions>
      </trkpt>
      <trkpt lat="42.59409648366272449493408203125" lon="19.99632753431797027587890625">
        <ele>1555</ele>
        <time>2026-06-15T14:45:08.000Z</time>
        <extensions>
          <ns3:TrackPointExtension>
            <ns3:atemp>20.0</ns3:atemp>
          </ns3:TrackPointExtension>
        </extensions>
      </trkpt>
      <trkpt lat="42.59413034655153751373291015625" lon="19.99635167419910430908203125">
        <ele>1554.5999755859375</ele>
        <time>2026-06-15T14:45:09.000Z</time>
        <extensions>
          <ns3:TrackPointExtension>
            <ns3:atemp>20.0</ns3:atemp>
          </ns3:TrackPointExtension>
        </extensions>
      </trkpt>
      <trkpt lat="42.5941537320613861083984375" lon="19.99638562090694904327392578125">
        <ele>1553.800048828125</ele>
        <time>2026-06-15T14:45:10.000Z</time>
        <extensions>
          <ns3:TrackPointExtension>
            <ns3:atemp>20.0</ns3:atemp>
          </ns3:TrackPointExtension>
        </extensions>
      </trkpt>
      <trkpt lat="42.59417125023901462554931640625" lon="19.9964339844882488250732421875">
        <ele>1553.4000244140625</ele>
        <time>2026-06-15T14:45:11.000Z</time>
        <extensions>
          <ns3:TrackPointExtension>
            <ns3:atemp>20.0</ns3:atemp>
          </ns3:TrackPointExtension>
        </extensions>
      </trkpt>
      <trkpt lat="42.59418751113116741180419921875" lon="19.99648310244083404541015625">
        <ele>1553</ele>
        <time>2026-06-15T14:45:12.000Z</time>
        <extensions>
          <ns3:TrackPointExtension>
            <ns3:atemp>20.0</ns3:atemp>
          </ns3:TrackPointExtension>
        </extensions>
      </trkpt>
      <trkpt lat="42.594215758144855499267578125" lon="19.9965285323560237884521484375">
        <ele>1552.199951171875</ele>
        <time>2026-06-15T14:45:13.000Z</time>
        <extensions>
          <ns3:TrackPointExtension>
            <ns3:atemp>20.0</ns3:atemp>
          </ns3:TrackPointExtension>
        </extensions>
      </trkpt>
      <trkpt lat="42.594258673489093780517578125" lon="19.9965312145650386810302734375">
        <ele>1551.5999755859375</ele>
        <time>2026-06-15T14:45:14.000Z</time>
        <extensions>
          <ns3:TrackPointExtension>
            <ns3:atemp>20.0</ns3:atemp>
          </ns3:TrackPointExtension>
        </extensions>
      </trkpt>
      <trkpt lat="42.59429614059627056121826171875" lon="19.996514283120632171630859375">
        <ele>1550.5999755859375</ele>
        <time>2026-06-15T14:45:15.000Z</time>
        <extensions>
          <ns3:TrackPointExtension>
            <ns3:atemp>20.0</ns3:atemp>
          </ns3:TrackPointExtension>
        </extensions>
      </trkpt>
      <trkpt lat="42.594333775341510772705078125" lon="19.996485449373722076416015625">
        <ele>1549.4000244140625</ele>
        <time>2026-06-15T14:45:16.000Z</time>
        <extensions>
          <ns3:TrackPointExtension>
            <ns3:atemp>20.0</ns3:atemp>
          </ns3:TrackPointExtension>
        </extensions>
      </trkpt>
      <trkpt lat="42.594371996819972991943359375" lon="19.996474049985408782958984375">
        <ele>1548.4000244140625</ele>
        <time>2026-06-15T14:45:17.000Z</time>
        <extensions>
          <ns3:TrackPointExtension>
            <ns3:atemp>20.0</ns3:atemp>
          </ns3:TrackPointExtension>
        </extensions>
      </trkpt>
      <trkpt lat="42.594411559402942657470703125" lon="19.9964504130184650421142578125">
        <ele>1547.4000244140625</ele>
        <time>2026-06-15T14:45:18.000Z</time>
        <extensions>
          <ns3:TrackPointExtension>
            <ns3:atemp>20.0</ns3:atemp>
          </ns3:TrackPointExtension>
        </extensions>
      </trkpt>
      <trkpt lat="42.59444366209208965301513671875" lon="19.99642887152731418609619140625">
        <ele>1546</ele>
        <time>2026-06-15T14:45:19.000Z</time>
        <extensions>
          <ns3:TrackPointExtension>
            <ns3:atemp>20.0</ns3:atemp>
          </ns3:TrackPointExtension>
        </extensions>
      </trkpt>
      <trkpt lat="42.59448238648474216461181640625" lon="19.99640724621713161468505859375">
        <ele>1544.800048828125</ele>
        <time>2026-06-15T14:45:20.000Z</time>
        <extensions>
          <ns3:TrackPointExtension>
            <ns3:atemp>20.0</ns3:atemp>
          </ns3:TrackPointExtension>
        </extensions>
      </trkpt>
      <trkpt lat="42.59452379308640956878662109375" lon="19.99641261063516139984130859375">
        <ele>1543.800048828125</ele>
        <time>2026-06-15T14:45:21.000Z</time>
        <extensions>
          <ns3:TrackPointExtension>
            <ns3:atemp>20.0</ns3:atemp>
          </ns3:TrackPointExtension>
        </extensions>
      </trkpt>
      <trkpt lat="42.5945609249174594879150390625" lon="19.99643892981112003326416015625">
        <ele>1542.4000244140625</ele>
        <time>2026-06-15T14:45:22.000Z</time>
        <extensions>
          <ns3:TrackPointExtension>
            <ns3:atemp>20.0</ns3:atemp>
          </ns3:TrackPointExtension>
        </extensions>
      </trkpt>
      <trkpt lat="42.594592273235321044921875" lon="19.9964604713022708892822265625">
        <ele>1541.5999755859375</ele>
        <time>2026-06-15T14:45:23.000Z</time>
        <extensions>
          <ns3:TrackPointExtension>
            <ns3:atemp>20.0</ns3:atemp>
          </ns3:TrackPointExtension>
        </extensions>
      </trkpt>
      <trkpt lat="42.594630159437656402587890625" lon="19.9964829348027706146240234375">
        <ele>1540.5999755859375</ele>
        <time>2026-06-15T14:45:24.000Z</time>
        <extensions>
          <ns3:TrackPointExtension>
            <ns3:atemp>20.0</ns3:atemp>
          </ns3:TrackPointExtension>
        </extensions>
      </trkpt>
      <trkpt lat="42.59467399679124355316162109375" lon="19.99648536555469036102294921875">
        <ele>1540</ele>
        <time>2026-06-15T14:45:25.000Z</time>
        <extensions>
          <ns3:TrackPointExtension>
            <ns3:atemp>20.0</ns3:atemp>
          </ns3:TrackPointExtension>
        </extensions>
      </trkpt>
      <trkpt lat="42.59470417164266109466552734375" lon="19.9964661709964275360107421875">
        <ele>1539</ele>
        <time>2026-06-15T14:45:26.000Z</time>
        <extensions>
          <ns3:TrackPointExtension>
            <ns3:atemp>20.0</ns3:atemp>
          </ns3:TrackPointExtension>
        </extensions>
      </trkpt>
      <trkpt lat="42.594722025096416473388671875" lon="19.996418058872222900390625">
        <ele>1538.199951171875</ele>
        <time>2026-06-15T14:45:27.000Z</time>
        <extensions>
          <ns3:TrackPointExtension>
            <ns3:atemp>20.0</ns3:atemp>
          </ns3:TrackPointExtension>
        </extensions>
      </trkpt>
      <trkpt lat="42.59471221826970577239990234375" lon="19.99635594896972179412841796875">
        <ele>1537.199951171875</ele>
        <time>2026-06-15T14:45:28.000Z</time>
        <extensions>
          <ns3:TrackPointExtension>
            <ns3:atemp>20.0</ns3:atemp>
          </ns3:TrackPointExtension>
        </extensions>
      </trkpt>
      <trkpt lat="42.59468774311244487762451171875" lon="19.99628855846822261810302734375">
        <ele>1536.4000244140625</ele>
        <time>2026-06-15T14:45:29.000Z</time>
        <extensions>
          <ns3:TrackPointExtension>
            <ns3:atemp>20.0</ns3:atemp>
          </ns3:TrackPointExtension>
        </extensions>
      </trkpt>
      <trkpt lat="42.59465572424232959747314453125" lon="19.9962197430431842803955078125">
        <ele>1535.5999755859375</ele>
        <time>2026-06-15T14:45:30.000Z</time>
        <extensions>
          <ns3:TrackPointExtension>
            <ns3:atemp>20.0</ns3:atemp>
          </ns3:TrackPointExtension>
        </extensions>
      </trkpt>
      <trkpt lat="42.59461012668907642364501953125" lon="19.99616165645420551300048828125">
        <ele>1535</ele>
        <time>2026-06-15T14:45:31.000Z</time>
        <extensions>
          <ns3:TrackPointExtension>
            <ns3:atemp>20.0</ns3:atemp>
          </ns3:TrackPointExtension>
        </extensions>
      </trkpt>
      <trkpt lat="42.594563104212284088134765625" lon="19.9961040727794170379638671875">
        <ele>1533.800048828125</ele>
        <time>2026-06-15T14:45:32.000Z</time>
        <extensions>
          <ns3:TrackPointExtension>
            <ns3:atemp>20.0</ns3:atemp>
          </ns3:TrackPointExtension>
        </extensions>
      </trkpt>
      <trkpt lat="42.5945294089615345001220703125" lon="19.9960303120315074920654296875">
        <ele>1532.800048828125</ele>
        <time>2026-06-15T14:45:33.000Z</time>
        <extensions>
          <ns3:TrackPointExtension>
            <ns3:atemp>20.0</ns3:atemp>
          </ns3:TrackPointExtension>
        </extensions>
      </trkpt>
      <trkpt lat="42.5945146568119525909423828125" lon="19.9959511868655681610107421875">
        <ele>1531.5999755859375</ele>
        <time>2026-06-15T14:45:34.000Z</time>
        <extensions>
          <ns3:TrackPointExtension>
            <ns3:atemp>19.0</ns3:atemp>
          </ns3:TrackPointExtension>
        </extensions>
      </trkpt>
      <trkpt lat="42.59451541118323802947998046875" lon="19.99589209444820880889892578125">
        <ele>1530.199951171875</ele>
        <time>2026-06-15T14:45:35.000Z</time>
        <extensions>
          <ns3:TrackPointExtension>
            <ns3:atemp>20.0</ns3:atemp>
          </ns3:TrackPointExtension>
        </extensions>
      </trkpt>
      <trkpt lat="42.59452513419091701507568359375" lon="19.99585806392133235931396484375">
        <ele>1529.4000244140625</ele>
        <time>2026-06-15T14:45:36.000Z</time>
        <extensions>
          <ns3:TrackPointExtension>
            <ns3:atemp>20.0</ns3:atemp>
          </ns3:TrackPointExtension>
        </extensions>
      </trkpt>
      <trkpt lat="42.59452966041862964630126953125" lon="19.99583777971565723419189453125">
        <ele>1528.5999755859375</ele>
        <time>2026-06-15T14:45:37.000Z</time>
        <extensions>
          <ns3:TrackPointExtension>
            <ns3:atemp>19.0</ns3:atemp>
          </ns3:TrackPointExtension>
        </extensions>
      </trkpt>
      <trkpt lat="42.5945265591144561767578125" lon="19.99581699259579181671142578125">
        <ele>1527.800048828125</ele>
        <time>2026-06-15T14:45:38.000Z</time>
        <extensions>
          <ns3:TrackPointExtension>
            <ns3:atemp>19.0</ns3:atemp>
          </ns3:TrackPointExtension>
        </extensions>
      </trkpt>
      <trkpt lat="42.59452731348574161529541015625" lon="19.9957986362278461456298828125">
        <ele>1527.199951171875</ele>
        <time>2026-06-15T14:45:39.000Z</time>
        <extensions>
          <ns3:TrackPointExtension>
            <ns3:atemp>20.0</ns3:atemp>
          </ns3:TrackPointExtension>
        </extensions>
      </trkpt>
      <trkpt lat="42.5945250503718852996826171875" lon="19.995792098343372344970703125">
        <ele>1526.5999755859375</ele>
        <time>2026-06-15T14:45:40.000Z</time>
        <extensions>
          <ns3:TrackPointExtension>
            <ns3:atemp>19.0</ns3:atemp>
          </ns3:TrackPointExtension>
        </extensions>
      </trkpt>
      <trkpt lat="42.59452496655285358428955078125" lon="19.995792098343372344970703125">
        <ele>1526.199951171875</ele>
        <time>2026-06-15T14:45:41.000Z</time>
        <extensions>
          <ns3:TrackPointExtension>
            <ns3:atemp>19.0</ns3:atemp>
          </ns3:TrackPointExtension>
        </extensions>
      </trkpt>
      <trkpt lat="42.59452496655285358428955078125" lon="19.995792098343372344970703125">
        <ele>1526</ele>
        <time>2026-06-15T14:45:42.000Z</time>
        <extensions>
          <ns3:TrackPointExtension>
            <ns3:atemp>19.0</ns3:atemp>
          </ns3:TrackPointExtension>
        </extensions>
      </trkpt>
      <trkpt lat="42.59452496655285358428955078125" lon="19.995792098343372344970703125">
        <ele>1525.5999755859375</ele>
        <time>2026-06-15T14:45:43.000Z</time>
        <extensions>
          <ns3:TrackPointExtension>
            <ns3:atemp>19.0</ns3:atemp>
          </ns3:TrackPointExtension>
        </extensions>
      </trkpt>
      <trkpt lat="42.59452496655285358428955078125" lon="19.995792098343372344970703125">
        <ele>1525.5999755859375</ele>
        <time>2026-06-15T14:45:44.000Z</time>
        <extensions>
          <ns3:TrackPointExtension>
            <ns3:atemp>19.0</ns3:atemp>
          </ns3:TrackPointExtension>
        </extensions>
      </trkpt>
      <trkpt lat="42.594524882733821868896484375" lon="19.99579184688627719879150390625">
        <ele>1525.4000244140625</ele>
        <time>2026-06-15T14:45:45.000Z</time>
        <extensions>
          <ns3:TrackPointExtension>
            <ns3:atemp>19.0</ns3:atemp>
          </ns3:TrackPointExtension>
        </extensions>
      </trkpt>
      <trkpt lat="42.5945185124874114990234375" lon="19.99577508307993412017822265625">
        <ele>1525.4000244140625</ele>
        <time>2026-06-15T14:45:46.000Z</time>
        <extensions>
          <ns3:TrackPointExtension>
            <ns3:atemp>19.0</ns3:atemp>
          </ns3:TrackPointExtension>
        </extensions>
      </trkpt>
      <trkpt lat="42.5945066101849079132080078125" lon="19.99576787464320659637451171875">
        <ele>1525.199951171875</ele>
        <time>2026-06-15T14:45:47.000Z</time>
        <extensions>
          <ns3:TrackPointExtension>
            <ns3:atemp>19.0</ns3:atemp>
          </ns3:TrackPointExtension>
        </extensions>
      </trkpt>
      <trkpt lat="42.5945089571177959442138671875" lon="19.995765946805477142333984375">
        <ele>1525.199951171875</ele>
        <time>2026-06-15T14:45:48.000Z</time>
        <extensions>
          <ns3:TrackPointExtension>
            <ns3:atemp>19.0</ns3:atemp>
          </ns3:TrackPointExtension>
        </extensions>
      </trkpt>
      <trkpt lat="42.5945089571177959442138671875" lon="19.995765946805477142333984375">
        <ele>1525</ele>
        <time>2026-06-15T14:45:49.000Z</time>
        <extensions>
          <ns3:TrackPointExtension>
            <ns3:atemp>19.0</ns3:atemp>
          </ns3:TrackPointExtension>
        </extensions>
      </trkpt>
      <trkpt lat="42.5945089571177959442138671875" lon="19.995765946805477142333984375">
        <ele>1525</ele>
        <time>2026-06-15T14:45:50.000Z</time>
        <extensions>
          <ns3:TrackPointExtension>
            <ns3:atemp>19.0</ns3:atemp>
          </ns3:TrackPointExtension>
        </extensions>
      </trkpt>
      <trkpt lat="42.5945089571177959442138671875" lon="19.995765946805477142333984375">
        <ele>1524.800048828125</ele>
        <time>2026-06-15T14:45:51.000Z</time>
        <extensions>
          <ns3:TrackPointExtension>
            <ns3:atemp>19.0</ns3:atemp>
          </ns3:TrackPointExtension>
        </extensions>
      </trkpt>
      <trkpt lat="42.5945089571177959442138671875" lon="19.995765946805477142333984375">
        <ele>1524.800048828125</ele>
        <time>2026-06-15T14:45:52.000Z</time>
        <extensions>
          <ns3:TrackPointExtension>
            <ns3:atemp>19.0</ns3:atemp>
          </ns3:TrackPointExtension>
        </extensions>
      </trkpt>
      <trkpt lat="42.5945089571177959442138671875" lon="19.995765946805477142333984375">
        <ele>1524.5999755859375</ele>
        <time>2026-06-15T14:45:53.000Z</time>
        <extensions>
          <ns3:TrackPointExtension>
            <ns3:atemp>19.0</ns3:atemp>
          </ns3:TrackPointExtension>
        </extensions>
      </trkpt>
      <trkpt lat="42.5945089571177959442138671875" lon="19.995765946805477142333984375">
        <ele>1524.5999755859375</ele>
        <time>2026-06-15T14:45:54.000Z</time>
        <extensions>
          <ns3:TrackPointExtension>
            <ns3:atemp>19.0</ns3:atemp>
          </ns3:TrackPointExtension>
        </extensions>
      </trkpt>
      <trkpt lat="42.5945089571177959442138671875" lon="19.995765946805477142333984375">
        <ele>1524.4000244140625</ele>
        <time>2026-06-15T14:45:55.000Z</time>
        <extensions>
          <ns3:TrackPointExtension>
            <ns3:atemp>19.0</ns3:atemp>
          </ns3:TrackPointExtension>
        </extensions>
      </trkpt>
      <trkpt lat="42.5945089571177959442138671875" lon="19.995765946805477142333984375">
        <ele>1524.4000244140625</ele>
        <time>2026-06-15T14:45:56.000Z</time>
        <extensions>
          <ns3:TrackPointExtension>
            <ns3:atemp>19.0</ns3:atemp>
          </ns3:TrackPointExtension>
        </extensions>
      </trkpt>
      <trkpt lat="42.5945089571177959442138671875" lon="19.995765946805477142333984375">
        <ele>1524.199951171875</ele>
        <time>2026-06-15T14:45:57.000Z</time>
        <extensions>
          <ns3:TrackPointExtension>
            <ns3:atemp>19.0</ns3:atemp>
          </ns3:TrackPointExtension>
        </extensions>
      </trkpt>
      <trkpt lat="42.5945089571177959442138671875" lon="19.995765946805477142333984375">
        <ele>1524.199951171875</ele>
        <time>2026-06-15T14:45:58.000Z</time>
        <extensions>
          <ns3:TrackPointExtension>
            <ns3:atemp>19.0</ns3:atemp>
          </ns3:TrackPointExtension>
        </extensions>
      </trkpt>
      <trkpt lat="42.5945089571177959442138671875" lon="19.995765946805477142333984375">
        <ele>1524.199951171875</ele>
        <time>2026-06-15T14:45:59.000Z</time>
        <extensions>
          <ns3:TrackPointExtension>
            <ns3:atemp>19.0</ns3:atemp>
          </ns3:TrackPointExtension>
        </extensions>
      </trkpt>
      <trkpt lat="42.5945089571177959442138671875" lon="19.995765946805477142333984375">
        <ele>1524.199951171875</ele>
        <time>2026-06-15T14:46:00.000Z</time>
        <extensions>
          <ns3:TrackPointExtension>
            <ns3:atemp>19.0</ns3:atemp>
          </ns3:TrackPointExtension>
        </extensions>
      </trkpt>
      <trkpt lat="42.5945089571177959442138671875" lon="19.995765946805477142333984375">
        <ele>1524.199951171875</ele>
        <time>2026-06-15T14:46:01.000Z</time>
        <extensions>
          <ns3:TrackPointExtension>
            <ns3:atemp>19.0</ns3:atemp>
          </ns3:TrackPointExtension>
        </extensions>
      </trkpt>
      <trkpt lat="42.5945089571177959442138671875" lon="19.995765946805477142333984375">
        <ele>1524.199951171875</ele>
        <time>2026-06-15T14:46:02.000Z</time>
        <extensions>
          <ns3:TrackPointExtension>
            <ns3:atemp>19.0</ns3:atemp>
          </ns3:TrackPointExtension>
        </extensions>
      </trkpt>
      <trkpt lat="42.5945089571177959442138671875" lon="19.995765946805477142333984375">
        <ele>1524.199951171875</ele>
        <time>2026-06-15T14:46:03.000Z</time>
        <extensions>
          <ns3:TrackPointExtension>
            <ns3:atemp>19.0</ns3:atemp>
          </ns3:TrackPointExtension>
        </extensions>
      </trkpt>
      <trkpt lat="42.5945089571177959442138671875" lon="19.995765946805477142333984375">
        <ele>1524.199951171875</ele>
        <time>2026-06-15T14:46:04.000Z</time>
        <extensions>
          <ns3:TrackPointExtension>
            <ns3:atemp>19.0</ns3:atemp>
          </ns3:TrackPointExtension>
        </extensions>
      </trkpt>
      <trkpt lat="42.5945089571177959442138671875" lon="19.995765946805477142333984375">
        <ele>1524.199951171875</ele>
        <time>2026-06-15T14:46:05.000Z</time>
        <extensions>
          <ns3:TrackPointExtension>
            <ns3:atemp>19.0</ns3:atemp>
          </ns3:TrackPointExtension>
        </extensions>
      </trkpt>
      <trkpt lat="42.5945089571177959442138671875" lon="19.995765946805477142333984375">
        <ele>1524</ele>
        <time>2026-06-15T14:46:06.000Z</time>
        <extensions>
          <ns3:TrackPointExtension>
            <ns3:atemp>19.0</ns3:atemp>
          </ns3:TrackPointExtension>
        </extensions>
      </trkpt>
      <trkpt lat="42.5945089571177959442138671875" lon="19.995765946805477142333984375">
        <ele>1524</ele>
        <time>2026-06-15T14:46:07.000Z</time>
        <extensions>
          <ns3:TrackPointExtension>
            <ns3:atemp>19.0</ns3:atemp>
          </ns3:TrackPointExtension>
        </extensions>
      </trkpt>
      <trkpt lat="42.5945089571177959442138671875" lon="19.995765946805477142333984375">
        <ele>1524</ele>
        <time>2026-06-15T14:46:08.000Z</time>
        <extensions>
          <ns3:TrackPointExtension>
            <ns3:atemp>19.0</ns3:atemp>
          </ns3:TrackPointExtension>
        </extensions>
      </trkpt>
      <trkpt lat="42.5945089571177959442138671875" lon="19.995765946805477142333984375">
        <ele>1524</ele>
        <time>2026-06-15T14:46:09.000Z</time>
        <extensions>
          <ns3:TrackPointExtension>
            <ns3:atemp>19.0</ns3:atemp>
          </ns3:TrackPointExtension>
        </extensions>
      </trkpt>
      <trkpt lat="42.5945089571177959442138671875" lon="19.995765946805477142333984375">
        <ele>1524</ele>
        <time>2026-06-15T14:46:10.000Z</time>
        <extensions>
          <ns3:TrackPointExtension>
            <ns3:atemp>19.0</ns3:atemp>
          </ns3:TrackPointExtension>
        </extensions>
      </trkpt>
      <trkpt lat="42.5945089571177959442138671875" lon="19.995765946805477142333984375">
        <ele>1523.800048828125</ele>
        <time>2026-06-15T14:46:11.000Z</time>
        <extensions>
          <ns3:TrackPointExtension>
            <ns3:atemp>19.0</ns3:atemp>
          </ns3:TrackPointExtension>
        </extensions>
      </trkpt>
      <trkpt lat="42.5945089571177959442138671875" lon="19.995765946805477142333984375">
        <ele>1523.800048828125</ele>
        <time>2026-06-15T14:46:12.000Z</time>
        <extensions>
          <ns3:TrackPointExtension>
            <ns3:atemp>19.0</ns3:atemp>
          </ns3:TrackPointExtension>
        </extensions>
      </trkpt>
      <trkpt lat="42.5945089571177959442138671875" lon="19.995765946805477142333984375">
        <ele>1523.5999755859375</ele>
        <time>2026-06-15T14:46:13.000Z</time>
        <extensions>
          <ns3:TrackPointExtension>
            <ns3:atemp>19.0</ns3:atemp>
          </ns3:TrackPointExtension>
        </extensions>
      </trkpt>
      <trkpt lat="42.5945089571177959442138671875" lon="19.995765946805477142333984375">
        <ele>1523.5999755859375</ele>
        <time>2026-06-15T14:46:14.000Z</time>
        <extensions>
          <ns3:TrackPointExtension>
            <ns3:atemp>19.0</ns3:atemp>
          </ns3:TrackPointExtension>
        </extensions>
      </trkpt>
      <trkpt lat="42.5945089571177959442138671875" lon="19.995765946805477142333984375">
        <ele>1523.5999755859375</ele>
        <time>2026-06-15T14:46:15.000Z</time>
        <extensions>
          <ns3:TrackPointExtension>
            <ns3:atemp>19.0</ns3:atemp>
          </ns3:TrackPointExtension>
        </extensions>
      </trkpt>
      <trkpt lat="42.5945089571177959442138671875" lon="19.995765946805477142333984375">
        <ele>1523.5999755859375</ele>
        <time>2026-06-15T14:46:16.000Z</time>
        <extensions>
          <ns3:TrackPointExtension>
            <ns3:atemp>19.0</ns3:atemp>
          </ns3:TrackPointExtension>
        </extensions>
      </trkpt>
      <trkpt lat="42.5945089571177959442138671875" lon="19.995765946805477142333984375">
        <ele>1523.5999755859375</ele>
        <time>2026-06-15T14:46:17.000Z</time>
        <extensions>
          <ns3:TrackPointExtension>
            <ns3:atemp>19.0</ns3:atemp>
          </ns3:TrackPointExtension>
        </extensions>
      </trkpt>
      <trkpt lat="42.5945089571177959442138671875" lon="19.995765946805477142333984375">
        <ele>1523.5999755859375</ele>
        <time>2026-06-15T14:46:18.000Z</time>
        <extensions>
          <ns3:TrackPointExtension>
            <ns3:atemp>19.0</ns3:atemp>
          </ns3:TrackPointExtension>
        </extensions>
      </trkpt>
      <trkpt lat="42.5945089571177959442138671875" lon="19.995765946805477142333984375">
        <ele>1523.5999755859375</ele>
        <time>2026-06-15T14:46:19.000Z</time>
        <extensions>
          <ns3:TrackPointExtension>
            <ns3:atemp>19.0</ns3:atemp>
          </ns3:TrackPointExtension>
        </extensions>
      </trkpt>
      <trkpt lat="42.5945089571177959442138671875" lon="19.995765946805477142333984375">
        <ele>1523.4000244140625</ele>
        <time>2026-06-15T14:46:20.000Z</time>
        <extensions>
          <ns3:TrackPointExtension>
            <ns3:atemp>19.0</ns3:atemp>
          </ns3:TrackPointExtension>
        </extensions>
      </trkpt>
      <trkpt lat="42.5945089571177959442138671875" lon="19.995765946805477142333984375">
        <ele>1523.4000244140625</ele>
        <time>2026-06-15T14:46:21.000Z</time>
        <extensions>
          <ns3:TrackPointExtension>
            <ns3:atemp>19.0</ns3:atemp>
          </ns3:TrackPointExtension>
        </extensions>
      </trkpt>
      <trkpt lat="42.5945089571177959442138671875" lon="19.995765946805477142333984375">
        <ele>1523.5999755859375</ele>
        <time>2026-06-15T14:46:22.000Z</time>
        <extensions>
          <ns3:TrackPointExtension>
            <ns3:atemp>19.0</ns3:atemp>
          </ns3:TrackPointExtension>
        </extensions>
      </trkpt>
      <trkpt lat="42.5945089571177959442138671875" lon="19.995765946805477142333984375">
        <ele>1523.4000244140625</ele>
        <time>2026-06-15T14:46:23.000Z</time>
        <extensions>
          <ns3:TrackPointExtension>
            <ns3:atemp>19.0</ns3:atemp>
          </ns3:TrackPointExtension>
        </extensions>
      </trkpt>
      <trkpt lat="42.5945089571177959442138671875" lon="19.995765946805477142333984375">
        <ele>1523.4000244140625</ele>
        <time>2026-06-15T14:46:24.000Z</time>
        <extensions>
          <ns3:TrackPointExtension>
            <ns3:atemp>19.0</ns3:atemp>
          </ns3:TrackPointExtension>
        </extensions>
      </trkpt>
      <trkpt lat="42.5945089571177959442138671875" lon="19.995765946805477142333984375">
        <ele>1523.4000244140625</ele>
        <time>2026-06-15T14:46:25.000Z</time>
        <extensions>
          <ns3:TrackPointExtension>
            <ns3:atemp>19.0</ns3:atemp>
          </ns3:TrackPointExtension>
        </extensions>
      </trkpt>
      <trkpt lat="42.5945089571177959442138671875" lon="19.995765946805477142333984375">
        <ele>1523.4000244140625</ele>
        <time>2026-06-15T14:46:26.000Z</time>
        <extensions>
          <ns3:TrackPointExtension>
            <ns3:atemp>19.0</ns3:atemp>
          </ns3:TrackPointExtension>
        </extensions>
      </trkpt>
      <trkpt lat="42.5945089571177959442138671875" lon="19.995765946805477142333984375">
        <ele>1523.4000244140625</ele>
        <time>2026-06-15T14:46:27.000Z</time>
        <extensions>
          <ns3:TrackPointExtension>
            <ns3:atemp>19.0</ns3:atemp>
          </ns3:TrackPointExtension>
        </extensions>
      </trkpt>
      <trkpt lat="42.5945089571177959442138671875" lon="19.995765946805477142333984375">
        <ele>1523.4000244140625</ele>
        <time>2026-06-15T14:46:28.000Z</time>
        <extensions>
          <ns3:TrackPointExtension>
            <ns3:atemp>19.0</ns3:atemp>
          </ns3:TrackPointExtension>
        </extensions>
      </trkpt>
      <trkpt lat="42.5945089571177959442138671875" lon="19.995765946805477142333984375">
        <ele>1523.4000244140625</ele>
        <time>2026-06-15T14:46:29.000Z</time>
        <extensions>
          <ns3:TrackPointExtension>
            <ns3:atemp>19.0</ns3:atemp>
          </ns3:TrackPointExtension>
        </extensions>
      </trkpt>
      <trkpt lat="42.5945089571177959442138671875" lon="19.995765946805477142333984375">
        <ele>1523.4000244140625</ele>
        <time>2026-06-15T14:46:30.000Z</time>
        <extensions>
          <ns3:TrackPointExtension>
            <ns3:atemp>19.0</ns3:atemp>
          </ns3:TrackPointExtension>
        </extensions>
      </trkpt>
      <trkpt lat="42.5945089571177959442138671875" lon="19.995765946805477142333984375">
        <ele>1523.4000244140625</ele>
        <time>2026-06-15T14:46:31.000Z</time>
        <extensions>
          <ns3:TrackPointExtension>
            <ns3:atemp>19.0</ns3:atemp>
          </ns3:TrackPointExtension>
        </extensions>
      </trkpt>
      <trkpt lat="42.5945089571177959442138671875" lon="19.995765946805477142333984375">
        <ele>1523.4000244140625</ele>
        <time>2026-06-15T14:46:32.000Z</time>
        <extensions>
          <ns3:TrackPointExtension>
            <ns3:atemp>19.0</ns3:atemp>
          </ns3:TrackPointExtension>
        </extensions>
      </trkpt>
      <trkpt lat="42.5945089571177959442138671875" lon="19.995765946805477142333984375">
        <ele>1523.4000244140625</ele>
        <time>2026-06-15T14:46:33.000Z</time>
        <extensions>
          <ns3:TrackPointExtension>
            <ns3:atemp>19.0</ns3:atemp>
          </ns3:TrackPointExtension>
        </extensions>
      </trkpt>
      <trkpt lat="42.5945089571177959442138671875" lon="19.995765946805477142333984375">
        <ele>1523.4000244140625</ele>
        <time>2026-06-15T14:46:34.000Z</time>
        <extensions>
          <ns3:TrackPointExtension>
            <ns3:atemp>19.0</ns3:atemp>
          </ns3:TrackPointExtension>
        </extensions>
      </trkpt>
      <trkpt lat="42.5945089571177959442138671875" lon="19.995765946805477142333984375">
        <ele>1523.4000244140625</ele>
        <time>2026-06-15T14:46:35.000Z</time>
        <extensions>
          <ns3:TrackPointExtension>
            <ns3:atemp>19.0</ns3:atemp>
          </ns3:TrackPointExtension>
        </extensions>
      </trkpt>
      <trkpt lat="42.5945089571177959442138671875" lon="19.995765946805477142333984375">
        <ele>1523.4000244140625</ele>
        <time>2026-06-15T14:46:36.000Z</time>
        <extensions>
          <ns3:TrackPointExtension>
            <ns3:atemp>19.0</ns3:atemp>
          </ns3:TrackPointExtension>
        </extensions>
      </trkpt>
      <trkpt lat="42.5945089571177959442138671875" lon="19.995765946805477142333984375">
        <ele>1523.4000244140625</ele>
        <time>2026-06-15T14:46:37.000Z</time>
        <extensions>
          <ns3:TrackPointExtension>
            <ns3:atemp>19.0</ns3:atemp>
          </ns3:TrackPointExtension>
        </extensions>
      </trkpt>
      <trkpt lat="42.5945089571177959442138671875" lon="19.995765946805477142333984375">
        <ele>1523.4000244140625</ele>
        <time>2026-06-15T14:46:38.000Z</time>
        <extensions>
          <ns3:TrackPointExtension>
            <ns3:atemp>19.0</ns3:atemp>
          </ns3:TrackPointExtension>
        </extensions>
      </trkpt>
      <trkpt lat="42.5945089571177959442138671875" lon="19.995765946805477142333984375">
        <ele>1523.4000244140625</ele>
        <time>2026-06-15T14:46:39.000Z</time>
        <extensions>
          <ns3:TrackPointExtension>
            <ns3:atemp>19.0</ns3:atemp>
          </ns3:TrackPointExtension>
        </extensions>
      </trkpt>
      <trkpt lat="42.5945089571177959442138671875" lon="19.995765946805477142333984375">
        <ele>1523.4000244140625</ele>
        <time>2026-06-15T14:46:40.000Z</time>
        <extensions>
          <ns3:TrackPointExtension>
            <ns3:atemp>19.0</ns3:atemp>
          </ns3:TrackPointExtension>
        </extensions>
      </trkpt>
      <trkpt lat="42.5945089571177959442138671875" lon="19.995765946805477142333984375">
        <ele>1523.4000244140625</ele>
        <time>2026-06-15T14:46:41.000Z</time>
        <extensions>
          <ns3:TrackPointExtension>
            <ns3:atemp>19.0</ns3:atemp>
          </ns3:TrackPointExtension>
        </extensions>
      </trkpt>
      <trkpt lat="42.5945089571177959442138671875" lon="19.995765946805477142333984375">
        <ele>1523.4000244140625</ele>
        <time>2026-06-15T14:46:42.000Z</time>
        <extensions>
          <ns3:TrackPointExtension>
            <ns3:atemp>19.0</ns3:atemp>
          </ns3:TrackPointExtension>
        </extensions>
      </trkpt>
      <trkpt lat="42.5945089571177959442138671875" lon="19.995765946805477142333984375">
        <ele>1523.4000244140625</ele>
        <time>2026-06-15T14:46:43.000Z</time>
        <extensions>
          <ns3:TrackPointExtension>
            <ns3:atemp>19.0</ns3:atemp>
          </ns3:TrackPointExtension>
        </extensions>
      </trkpt>
      <trkpt lat="42.5945089571177959442138671875" lon="19.995765946805477142333984375">
        <ele>1523.4000244140625</ele>
        <time>2026-06-15T14:46:44.000Z</time>
        <extensions>
          <ns3:TrackPointExtension>
            <ns3:atemp>19.0</ns3:atemp>
          </ns3:TrackPointExtension>
        </extensions>
      </trkpt>
      <trkpt lat="42.5945089571177959442138671875" lon="19.995765946805477142333984375">
        <ele>1523.4000244140625</ele>
        <time>2026-06-15T14:46:45.000Z</time>
        <extensions>
          <ns3:TrackPointExtension>
            <ns3:atemp>19.0</ns3:atemp>
          </ns3:TrackPointExtension>
        </extensions>
      </trkpt>
      <trkpt lat="42.5945089571177959442138671875" lon="19.995765946805477142333984375">
        <ele>1523.5999755859375</ele>
        <time>2026-06-15T14:46:46.000Z</time>
        <extensions>
          <ns3:TrackPointExtension>
            <ns3:atemp>19.0</ns3:atemp>
          </ns3:TrackPointExtension>
        </extensions>
      </trkpt>
      <trkpt lat="42.5945089571177959442138671875" lon="19.995765946805477142333984375">
        <ele>1523.5999755859375</ele>
        <time>2026-06-15T14:46:47.000Z</time>
        <extensions>
          <ns3:TrackPointExtension>
            <ns3:atemp>19.0</ns3:atemp>
          </ns3:TrackPointExtension>
        </extensions>
      </trkpt>
      <trkpt lat="42.5945089571177959442138671875" lon="19.995765946805477142333984375">
        <ele>1523.5999755859375</ele>
        <time>2026-06-15T14:46:48.000Z</time>
        <extensions>
          <ns3:TrackPointExtension>
            <ns3:atemp>19.0</ns3:atemp>
          </ns3:TrackPointExtension>
        </extensions>
      </trkpt>
      <trkpt lat="42.5945089571177959442138671875" lon="19.995765946805477142333984375">
        <ele>1523.5999755859375</ele>
        <time>2026-06-15T14:46:49.000Z</time>
        <extensions>
          <ns3:TrackPointExtension>
            <ns3:atemp>19.0</ns3:atemp>
          </ns3:TrackPointExtension>
        </extensions>
      </trkpt>
      <trkpt lat="42.5945089571177959442138671875" lon="19.995765946805477142333984375">
        <ele>1523.5999755859375</ele>
        <time>2026-06-15T14:46:50.000Z</time>
        <extensions>
          <ns3:TrackPointExtension>
            <ns3:atemp>19.0</ns3:atemp>
          </ns3:TrackPointExtension>
        </extensions>
      </trkpt>
      <trkpt lat="42.5945089571177959442138671875" lon="19.995765946805477142333984375">
        <ele>1523.5999755859375</ele>
        <time>2026-06-15T14:46:51.000Z</time>
        <extensions>
          <ns3:TrackPointExtension>
            <ns3:atemp>19.0</ns3:atemp>
          </ns3:TrackPointExtension>
        </extensions>
      </trkpt>
      <trkpt lat="42.5945089571177959442138671875" lon="19.995765946805477142333984375">
        <ele>1523.5999755859375</ele>
        <time>2026-06-15T14:46:52.000Z</time>
        <extensions>
          <ns3:TrackPointExtension>
            <ns3:atemp>19.0</ns3:atemp>
          </ns3:TrackPointExtension>
        </extensions>
      </trkpt>
      <trkpt lat="42.5945089571177959442138671875" lon="19.995765946805477142333984375">
        <ele>1523.5999755859375</ele>
        <time>2026-06-15T14:46:53.000Z</time>
        <extensions>
          <ns3:TrackPointExtension>
            <ns3:atemp>19.0</ns3:atemp>
          </ns3:TrackPointExtension>
        </extensions>
      </trkpt>
      <trkpt lat="42.5945089571177959442138671875" lon="19.995765946805477142333984375">
        <ele>1523.5999755859375</ele>
        <time>2026-06-15T14:46:54.000Z</time>
        <extensions>
          <ns3:TrackPointExtension>
            <ns3:atemp>19.0</ns3:atemp>
          </ns3:TrackPointExtension>
        </extensions>
      </trkpt>
      <trkpt lat="42.5945089571177959442138671875" lon="19.995765946805477142333984375">
        <ele>1523.5999755859375</ele>
        <time>2026-06-15T14:46:55.000Z</time>
        <extensions>
          <ns3:TrackPointExtension>
            <ns3:atemp>19.0</ns3:atemp>
          </ns3:TrackPointExtension>
        </extensions>
      </trkpt>
      <trkpt lat="42.5945089571177959442138671875" lon="19.995765946805477142333984375">
        <ele>1523.5999755859375</ele>
        <time>2026-06-15T14:46:56.000Z</time>
        <extensions>
          <ns3:TrackPointExtension>
            <ns3:atemp>19.0</ns3:atemp>
          </ns3:TrackPointExtension>
        </extensions>
      </trkpt>
      <trkpt lat="42.5945089571177959442138671875" lon="19.995765946805477142333984375">
        <ele>1523.5999755859375</ele>
        <time>2026-06-15T14:46:57.000Z</time>
        <extensions>
          <ns3:TrackPointExtension>
            <ns3:atemp>19.0</ns3:atemp>
          </ns3:TrackPointExtension>
        </extensions>
      </trkpt>
      <trkpt lat="42.5945089571177959442138671875" lon="19.995765946805477142333984375">
        <ele>1523.4000244140625</ele>
        <time>2026-06-15T14:46:58.000Z</time>
        <extensions>
          <ns3:TrackPointExtension>
            <ns3:atemp>19.0</ns3:atemp>
          </ns3:TrackPointExtension>
        </extensions>
      </trkpt>
      <trkpt lat="42.5945089571177959442138671875" lon="19.995765946805477142333984375">
        <ele>1523.4000244140625</ele>
        <time>2026-06-15T14:46:59.000Z</time>
        <extensions>
          <ns3:TrackPointExtension>
            <ns3:atemp>19.0</ns3:atemp>
          </ns3:TrackPointExtension>
        </extensions>
      </trkpt>
      <trkpt lat="42.5945089571177959442138671875" lon="19.995765946805477142333984375">
        <ele>1523.4000244140625</ele>
        <time>2026-06-15T14:47:00.000Z</time>
        <extensions>
          <ns3:TrackPointExtension>
            <ns3:atemp>19.0</ns3:atemp>
          </ns3:TrackPointExtension>
        </extensions>
      </trkpt>
      <trkpt lat="42.5945089571177959442138671875" lon="19.995765946805477142333984375">
        <ele>1523.4000244140625</ele>
        <time>2026-06-15T14:47:01.000Z</time>
        <extensions>
          <ns3:TrackPointExtension>
            <ns3:atemp>19.0</ns3:atemp>
          </ns3:TrackPointExtension>
        </extensions>
      </trkpt>
      <trkpt lat="42.5945089571177959442138671875" lon="19.995765946805477142333984375">
        <ele>1523.4000244140625</ele>
        <time>2026-06-15T14:47:02.000Z</time>
        <extensions>
          <ns3:TrackPointExtension>
            <ns3:atemp>19.0</ns3:atemp>
          </ns3:TrackPointExtension>
        </extensions>
      </trkpt>
      <trkpt lat="42.5945089571177959442138671875" lon="19.995765946805477142333984375">
        <ele>1523.4000244140625</ele>
        <time>2026-06-15T14:47:03.000Z</time>
        <extensions>
          <ns3:TrackPointExtension>
            <ns3:atemp>19.0</ns3:atemp>
          </ns3:TrackPointExtension>
        </extensions>
      </trkpt>
      <trkpt lat="42.5945089571177959442138671875" lon="19.995765946805477142333984375">
        <ele>1523.4000244140625</ele>
        <time>2026-06-15T14:47:04.000Z</time>
        <extensions>
          <ns3:TrackPointExtension>
            <ns3:atemp>19.0</ns3:atemp>
          </ns3:TrackPointExtension>
        </extensions>
      </trkpt>
      <trkpt lat="42.5945089571177959442138671875" lon="19.995765946805477142333984375">
        <ele>1523.4000244140625</ele>
        <time>2026-06-15T14:47:05.000Z</time>
        <extensions>
          <ns3:TrackPointExtension>
            <ns3:atemp>19.0</ns3:atemp>
          </ns3:TrackPointExtension>
        </extensions>
      </trkpt>
      <trkpt lat="42.5945089571177959442138671875" lon="19.995765946805477142333984375">
        <ele>1523.4000244140625</ele>
        <time>2026-06-15T14:47:06.000Z</time>
        <extensions>
          <ns3:TrackPointExtension>
            <ns3:atemp>19.0</ns3:atemp>
          </ns3:TrackPointExtension>
        </extensions>
      </trkpt>
      <trkpt lat="42.5945089571177959442138671875" lon="19.995765946805477142333984375">
        <ele>1523.199951171875</ele>
        <time>2026-06-15T14:47:07.000Z</time>
        <extensions>
          <ns3:TrackPointExtension>
            <ns3:atemp>19.0</ns3:atemp>
          </ns3:TrackPointExtension>
        </extensions>
      </trkpt>
      <trkpt lat="42.5945089571177959442138671875" lon="19.995765946805477142333984375">
        <ele>1523.199951171875</ele>
        <time>2026-06-15T14:47:08.000Z</time>
        <extensions>
          <ns3:TrackPointExtension>
            <ns3:atemp>19.0</ns3:atemp>
          </ns3:TrackPointExtension>
        </extensions>
      </trkpt>
      <trkpt lat="42.5945089571177959442138671875" lon="19.995765946805477142333984375">
        <ele>1523.199951171875</ele>
        <time>2026-06-15T14:47:09.000Z</time>
        <extensions>
          <ns3:TrackPointExtension>
            <ns3:atemp>19.0</ns3:atemp>
          </ns3:TrackPointExtension>
        </extensions>
      </trkpt>
      <trkpt lat="42.5945089571177959442138671875" lon="19.995765946805477142333984375">
        <ele>1523.199951171875</ele>
        <time>2026-06-15T14:47:10.000Z</time>
        <extensions>
          <ns3:TrackPointExtension>
            <ns3:atemp>19.0</ns3:atemp>
          </ns3:TrackPointExtension>
        </extensions>
      </trkpt>
      <trkpt lat="42.5945089571177959442138671875" lon="19.995765946805477142333984375">
        <ele>1523.199951171875</ele>
        <time>2026-06-15T14:47:11.000Z</time>
        <extensions>
          <ns3:TrackPointExtension>
            <ns3:atemp>19.0</ns3:atemp>
          </ns3:TrackPointExtension>
        </extensions>
      </trkpt>
      <trkpt lat="42.5945089571177959442138671875" lon="19.995765946805477142333984375">
        <ele>1523.199951171875</ele>
        <time>2026-06-15T14:47:12.000Z</time>
        <extensions>
          <ns3:TrackPointExtension>
            <ns3:atemp>19.0</ns3:atemp>
          </ns3:TrackPointExtension>
        </extensions>
      </trkpt>
      <trkpt lat="42.5945089571177959442138671875" lon="19.995765946805477142333984375">
        <ele>1523</ele>
        <time>2026-06-15T14:47:13.000Z</time>
        <extensions>
          <ns3:TrackPointExtension>
            <ns3:atemp>20.0</ns3:atemp>
          </ns3:TrackPointExtension>
        </extensions>
      </trkpt>
      <trkpt lat="42.5945089571177959442138671875" lon="19.995765946805477142333984375">
        <ele>1523</ele>
        <time>2026-06-15T14:47:14.000Z</time>
        <extensions>
          <ns3:TrackPointExtension>
            <ns3:atemp>19.0</ns3:atemp>
          </ns3:TrackPointExtension>
        </extensions>
      </trkpt>
      <trkpt lat="42.5945089571177959442138671875" lon="19.995765946805477142333984375">
        <ele>1523.199951171875</ele>
        <time>2026-06-15T14:47:15.000Z</time>
        <extensions>
          <ns3:TrackPointExtension>
            <ns3:atemp>20.0</ns3:atemp>
          </ns3:TrackPointExtension>
        </extensions>
      </trkpt>
      <trkpt lat="42.5945089571177959442138671875" lon="19.995765946805477142333984375">
        <ele>1523.199951171875</ele>
        <time>2026-06-15T14:47:16.000Z</time>
        <extensions>
          <ns3:TrackPointExtension>
            <ns3:atemp>20.0</ns3:atemp>
          </ns3:TrackPointExtension>
        </extensions>
      </trkpt>
      <trkpt lat="42.5945089571177959442138671875" lon="19.995765946805477142333984375">
        <ele>1523.199951171875</ele>
        <time>2026-06-15T14:47:17.000Z</time>
        <extensions>
          <ns3:TrackPointExtension>
            <ns3:atemp>20.0</ns3:atemp>
          </ns3:TrackPointExtension>
        </extensions>
      </trkpt>
      <trkpt lat="42.5945089571177959442138671875" lon="19.995765946805477142333984375">
        <ele>1523.199951171875</ele>
        <time>2026-06-15T14:47:18.000Z</time>
        <extensions>
          <ns3:TrackPointExtension>
            <ns3:atemp>20.0</ns3:atemp>
          </ns3:TrackPointExtension>
        </extensions>
      </trkpt>
      <trkpt lat="42.5945089571177959442138671875" lon="19.995765946805477142333984375">
        <ele>1523.199951171875</ele>
        <time>2026-06-15T14:47:19.000Z</time>
        <extensions>
          <ns3:TrackPointExtension>
            <ns3:atemp>20.0</ns3:atemp>
          </ns3:TrackPointExtension>
        </extensions>
      </trkpt>
      <trkpt lat="42.5945089571177959442138671875" lon="19.995765946805477142333984375">
        <ele>1523.199951171875</ele>
        <time>2026-06-15T14:47:20.000Z</time>
        <extensions>
          <ns3:TrackPointExtension>
            <ns3:atemp>20.0</ns3:atemp>
          </ns3:TrackPointExtension>
        </extensions>
      </trkpt>
      <trkpt lat="42.5945089571177959442138671875" lon="19.995765946805477142333984375">
        <ele>1523.199951171875</ele>
        <time>2026-06-15T14:47:21.000Z</time>
        <extensions>
          <ns3:TrackPointExtension>
            <ns3:atemp>20.0</ns3:atemp>
          </ns3:TrackPointExtension>
        </extensions>
      </trkpt>
      <trkpt lat="42.5945089571177959442138671875" lon="19.995765946805477142333984375">
        <ele>1523.199951171875</ele>
        <time>2026-06-15T14:47:22.000Z</time>
        <extensions>
          <ns3:TrackPointExtension>
            <ns3:atemp>20.0</ns3:atemp>
          </ns3:TrackPointExtension>
        </extensions>
      </trkpt>
      <trkpt lat="42.5945089571177959442138671875" lon="19.995765946805477142333984375">
        <ele>1523.199951171875</ele>
        <time>2026-06-15T14:47:23.000Z</time>
        <extensions>
          <ns3:TrackPointExtension>
            <ns3:atemp>20.0</ns3:atemp>
          </ns3:TrackPointExtension>
        </extensions>
      </trkpt>
      <trkpt lat="42.5945089571177959442138671875" lon="19.995765946805477142333984375">
        <ele>1523</ele>
        <time>2026-06-15T14:47:24.000Z</time>
        <extensions>
          <ns3:TrackPointExtension>
            <ns3:atemp>20.0</ns3:atemp>
          </ns3:TrackPointExtension>
        </extensions>
      </trkpt>
      <trkpt lat="42.5945089571177959442138671875" lon="19.995765946805477142333984375">
        <ele>1523</ele>
        <time>2026-06-15T14:47:25.000Z</time>
        <extensions>
          <ns3:TrackPointExtension>
            <ns3:atemp>20.0</ns3:atemp>
          </ns3:TrackPointExtension>
        </extensions>
      </trkpt>
      <trkpt lat="42.5945089571177959442138671875" lon="19.995765946805477142333984375">
        <ele>1522.800048828125</ele>
        <time>2026-06-15T14:47:26.000Z</time>
        <extensions>
          <ns3:TrackPointExtension>
            <ns3:atemp>20.0</ns3:atemp>
          </ns3:TrackPointExtension>
        </extensions>
      </trkpt>
      <trkpt lat="42.5945089571177959442138671875" lon="19.995765946805477142333984375">
        <ele>1522.800048828125</ele>
        <time>2026-06-15T14:47:27.000Z</time>
        <extensions>
          <ns3:TrackPointExtension>
            <ns3:atemp>20.0</ns3:atemp>
          </ns3:TrackPointExtension>
        </extensions>
      </trkpt>
      <trkpt lat="42.5945089571177959442138671875" lon="19.995765946805477142333984375">
        <ele>1522.5999755859375</ele>
        <time>2026-06-15T14:47:28.000Z</time>
        <extensions>
          <ns3:TrackPointExtension>
            <ns3:atemp>20.0</ns3:atemp>
          </ns3:TrackPointExtension>
        </extensions>
      </trkpt>
      <trkpt lat="42.5945089571177959442138671875" lon="19.995765946805477142333984375">
        <ele>1522.5999755859375</ele>
        <time>2026-06-15T14:47:29.000Z</time>
        <extensions>
          <ns3:TrackPointExtension>
            <ns3:atemp>20.0</ns3:atemp>
          </ns3:TrackPointExtension>
        </extensions>
      </trkpt>
      <trkpt lat="42.5945089571177959442138671875" lon="19.995765946805477142333984375">
        <ele>1522.5999755859375</ele>
        <time>2026-06-15T14:47:30.000Z</time>
        <extensions>
          <ns3:TrackPointExtension>
            <ns3:atemp>20.0</ns3:atemp>
          </ns3:TrackPointExtension>
        </extensions>
      </trkpt>
      <trkpt lat="42.5945089571177959442138671875" lon="19.995765946805477142333984375">
        <ele>1522.5999755859375</ele>
        <time>2026-06-15T14:47:31.000Z</time>
        <extensions>
          <ns3:TrackPointExtension>
            <ns3:atemp>20.0</ns3:atemp>
          </ns3:TrackPointExtension>
        </extensions>
      </trkpt>
      <trkpt lat="42.5945089571177959442138671875" lon="19.995765946805477142333984375">
        <ele>1522.5999755859375</ele>
        <time>2026-06-15T14:47:32.000Z</time>
        <extensions>
          <ns3:TrackPointExtension>
            <ns3:atemp>20.0</ns3:atemp>
          </ns3:TrackPointExtension>
        </extensions>
      </trkpt>
      <trkpt lat="42.5945089571177959442138671875" lon="19.995765946805477142333984375">
        <ele>1522.5999755859375</ele>
        <time>2026-06-15T14:47:33.000Z</time>
        <extensions>
          <ns3:TrackPointExtension>
            <ns3:atemp>20.0</ns3:atemp>
          </ns3:TrackPointExtension>
        </extensions>
      </trkpt>
      <trkpt lat="42.5945089571177959442138671875" lon="19.995765946805477142333984375">
        <ele>1522.5999755859375</ele>
        <time>2026-06-15T14:47:34.000Z</time>
        <extensions>
          <ns3:TrackPointExtension>
            <ns3:atemp>20.0</ns3:atemp>
          </ns3:TrackPointExtension>
        </extensions>
      </trkpt>
      <trkpt lat="42.5945089571177959442138671875" lon="19.995765946805477142333984375">
        <ele>1522.5999755859375</ele>
        <time>2026-06-15T14:47:35.000Z</time>
        <extensions>
          <ns3:TrackPointExtension>
            <ns3:atemp>20.0</ns3:atemp>
          </ns3:TrackPointExtension>
        </extensions>
      </trkpt>
      <trkpt lat="42.5945089571177959442138671875" lon="19.995765946805477142333984375">
        <ele>1522.5999755859375</ele>
        <time>2026-06-15T14:47:36.000Z</time>
        <extensions>
          <ns3:TrackPointExtension>
            <ns3:atemp>20.0</ns3:atemp>
          </ns3:TrackPointExtension>
        </extensions>
      </trkpt>
      <trkpt lat="42.5945089571177959442138671875" lon="19.995765946805477142333984375">
        <ele>1522.5999755859375</ele>
        <time>2026-06-15T14:47:37.000Z</time>
        <extensions>
          <ns3:TrackPointExtension>
            <ns3:atemp>20.0</ns3:atemp>
          </ns3:TrackPointExtension>
        </extensions>
      </trkpt>
      <trkpt lat="42.5945089571177959442138671875" lon="19.995765946805477142333984375">
        <ele>1522.5999755859375</ele>
        <time>2026-06-15T14:47:38.000Z</time>
        <extensions>
          <ns3:TrackPointExtension>
            <ns3:atemp>20.0</ns3:atemp>
          </ns3:TrackPointExtension>
        </extensions>
      </trkpt>
      <trkpt lat="42.5945089571177959442138671875" lon="19.995765946805477142333984375">
        <ele>1522.5999755859375</ele>
        <time>2026-06-15T14:47:39.000Z</time>
        <extensions>
          <ns3:TrackPointExtension>
            <ns3:atemp>20.0</ns3:atemp>
          </ns3:TrackPointExtension>
        </extensions>
      </trkpt>
      <trkpt lat="42.5945089571177959442138671875" lon="19.995765946805477142333984375">
        <ele>1522.5999755859375</ele>
        <time>2026-06-15T14:47:40.000Z</time>
        <extensions>
          <ns3:TrackPointExtension>
            <ns3:atemp>20.0</ns3:atemp>
          </ns3:TrackPointExtension>
        </extensions>
      </trkpt>
      <trkpt lat="42.5945089571177959442138671875" lon="19.995765946805477142333984375">
        <ele>1522.5999755859375</ele>
        <time>2026-06-15T14:47:41.000Z</time>
        <extensions>
          <ns3:TrackPointExtension>
            <ns3:atemp>20.0</ns3:atemp>
          </ns3:TrackPointExtension>
        </extensions>
      </trkpt>
      <trkpt lat="42.5945089571177959442138671875" lon="19.995765946805477142333984375">
        <ele>1522.5999755859375</ele>
        <time>2026-06-15T14:47:42.000Z</time>
        <extensions>
          <ns3:TrackPointExtension>
            <ns3:atemp>20.0</ns3:atemp>
          </ns3:TrackPointExtension>
        </extensions>
      </trkpt>
      <trkpt lat="42.5945089571177959442138671875" lon="19.995765946805477142333984375">
        <ele>1522.5999755859375</ele>
        <time>2026-06-15T14:47:43.000Z</time>
        <extensions>
          <ns3:TrackPointExtension>
            <ns3:atemp>20.0</ns3:atemp>
          </ns3:TrackPointExtension>
        </extensions>
      </trkpt>
      <trkpt lat="42.5945089571177959442138671875" lon="19.995765946805477142333984375">
        <ele>1522.5999755859375</ele>
        <time>2026-06-15T14:47:44.000Z</time>
        <extensions>
          <ns3:TrackPointExtension>
            <ns3:atemp>20.0</ns3:atemp>
          </ns3:TrackPointExtension>
        </extensions>
      </trkpt>
      <trkpt lat="42.5945089571177959442138671875" lon="19.995765946805477142333984375">
        <ele>1522.5999755859375</ele>
        <time>2026-06-15T14:47:45.000Z</time>
        <extensions>
          <ns3:TrackPointExtension>
            <ns3:atemp>20.0</ns3:atemp>
          </ns3:TrackPointExtension>
        </extensions>
      </trkpt>
      <trkpt lat="42.5945089571177959442138671875" lon="19.995765946805477142333984375">
        <ele>1522.5999755859375</ele>
        <time>2026-06-15T14:47:46.000Z</time>
        <extensions>
          <ns3:TrackPointExtension>
            <ns3:atemp>20.0</ns3:atemp>
          </ns3:TrackPointExtension>
        </extensions>
      </trkpt>
      <trkpt lat="42.5945089571177959442138671875" lon="19.995765946805477142333984375">
        <ele>1522.5999755859375</ele>
        <time>2026-06-15T14:47:47.000Z</time>
        <extensions>
          <ns3:TrackPointExtension>
            <ns3:atemp>20.0</ns3:atemp>
          </ns3:TrackPointExtension>
        </extensions>
      </trkpt>
      <trkpt lat="42.5945089571177959442138671875" lon="19.995765946805477142333984375">
        <ele>1522.5999755859375</ele>
        <time>2026-06-15T14:47:48.000Z</time>
        <extensions>
          <ns3:TrackPointExtension>
            <ns3:atemp>20.0</ns3:atemp>
          </ns3:TrackPointExtension>
        </extensions>
      </trkpt>
      <trkpt lat="42.5945089571177959442138671875" lon="19.995765946805477142333984375">
        <ele>1522.4000244140625</ele>
        <time>2026-06-15T14:47:49.000Z</time>
        <extensions>
          <ns3:TrackPointExtension>
            <ns3:atemp>20.0</ns3:atemp>
          </ns3:TrackPointExtension>
        </extensions>
      </trkpt>
      <trkpt lat="42.5945089571177959442138671875" lon="19.995765946805477142333984375">
        <ele>1522.4000244140625</ele>
        <time>2026-06-15T14:47:50.000Z</time>
        <extensions>
          <ns3:TrackPointExtension>
            <ns3:atemp>20.0</ns3:atemp>
          </ns3:TrackPointExtension>
        </extensions>
      </trkpt>
      <trkpt lat="42.5945089571177959442138671875" lon="19.995765946805477142333984375">
        <ele>1522.4000244140625</ele>
        <time>2026-06-15T14:47:51.000Z</time>
        <extensions>
          <ns3:TrackPointExtension>
            <ns3:atemp>20.0</ns3:atemp>
          </ns3:TrackPointExtension>
        </extensions>
      </trkpt>
      <trkpt lat="42.5945089571177959442138671875" lon="19.995765946805477142333984375">
        <ele>1522.4000244140625</ele>
        <time>2026-06-15T14:47:52.000Z</time>
        <extensions>
          <ns3:TrackPointExtension>
            <ns3:atemp>20.0</ns3:atemp>
          </ns3:TrackPointExtension>
        </extensions>
      </trkpt>
      <trkpt lat="42.5945089571177959442138671875" lon="19.995765946805477142333984375">
        <ele>1522.199951171875</ele>
        <time>2026-06-15T14:47:53.000Z</time>
        <extensions>
          <ns3:TrackPointExtension>
            <ns3:atemp>20.0</ns3:atemp>
          </ns3:TrackPointExtension>
        </extensions>
      </trkpt>
      <trkpt lat="42.5945089571177959442138671875" lon="19.995765946805477142333984375">
        <ele>1522.199951171875</ele>
        <time>2026-06-15T14:47:54.000Z</time>
        <extensions>
          <ns3:TrackPointExtension>
            <ns3:atemp>20.0</ns3:atemp>
          </ns3:TrackPointExtension>
        </extensions>
      </trkpt>
      <trkpt lat="42.5945089571177959442138671875" lon="19.995765946805477142333984375">
        <ele>1522.199951171875</ele>
        <time>2026-06-15T14:47:55.000Z</time>
        <extensions>
          <ns3:TrackPointExtension>
            <ns3:atemp>20.0</ns3:atemp>
          </ns3:TrackPointExtension>
        </extensions>
      </trkpt>
      <trkpt lat="42.5945089571177959442138671875" lon="19.995765946805477142333984375">
        <ele>1522</ele>
        <time>2026-06-15T14:47:56.000Z</time>
        <extensions>
          <ns3:TrackPointExtension>
            <ns3:atemp>20.0</ns3:atemp>
          </ns3:TrackPointExtension>
        </extensions>
      </trkpt>
      <trkpt lat="42.5945089571177959442138671875" lon="19.995765946805477142333984375">
        <ele>1522</ele>
        <time>2026-06-15T14:47:57.000Z</time>
        <extensions>
          <ns3:TrackPointExtension>
            <ns3:atemp>20.0</ns3:atemp>
          </ns3:TrackPointExtension>
        </extensions>
      </trkpt>
      <trkpt lat="42.5945089571177959442138671875" lon="19.995765946805477142333984375">
        <ele>1522</ele>
        <time>2026-06-15T14:47:58.000Z</time>
        <extensions>
          <ns3:TrackPointExtension>
            <ns3:atemp>20.0</ns3:atemp>
          </ns3:TrackPointExtension>
        </extensions>
      </trkpt>
      <trkpt lat="42.5945089571177959442138671875" lon="19.995765946805477142333984375">
        <ele>1522</ele>
        <time>2026-06-15T14:47:59.000Z</time>
        <extensions>
          <ns3:TrackPointExtension>
            <ns3:atemp>20.0</ns3:atemp>
          </ns3:TrackPointExtension>
        </extensions>
      </trkpt>
      <trkpt lat="42.594508789479732513427734375" lon="19.995765276253223419189453125">
        <ele>1522</ele>
        <time>2026-06-15T14:48:00.000Z</time>
        <extensions>
          <ns3:TrackPointExtension>
            <ns3:atemp>20.0</ns3:atemp>
          </ns3:TrackPointExtension>
        </extensions>
      </trkpt>
      <trkpt lat="42.5945089571177959442138671875" lon="19.995765946805477142333984375">
        <ele>1522</ele>
        <time>2026-06-15T14:48:01.000Z</time>
        <extensions>
          <ns3:TrackPointExtension>
            <ns3:atemp>20.0</ns3:atemp>
          </ns3:TrackPointExtension>
        </extensions>
      </trkpt>
      <trkpt lat="42.5945089571177959442138671875" lon="19.995765946805477142333984375">
        <ele>1522</ele>
        <time>2026-06-15T14:48:02.000Z</time>
        <extensions>
          <ns3:TrackPointExtension>
            <ns3:atemp>20.0</ns3:atemp>
          </ns3:TrackPointExtension>
        </extensions>
      </trkpt>
      <trkpt lat="42.5945089571177959442138671875" lon="19.995765946805477142333984375">
        <ele>1522</ele>
        <time>2026-06-15T14:48:03.000Z</time>
        <extensions>
          <ns3:TrackPointExtension>
            <ns3:atemp>20.0</ns3:atemp>
          </ns3:TrackPointExtension>
        </extensions>
      </trkpt>
      <trkpt lat="42.5945089571177959442138671875" lon="19.995765946805477142333984375">
        <ele>1522</ele>
        <time>2026-06-15T14:48:04.000Z</time>
        <extensions>
          <ns3:TrackPointExtension>
            <ns3:atemp>20.0</ns3:atemp>
          </ns3:TrackPointExtension>
        </extensions>
      </trkpt>
      <trkpt lat="42.5945089571177959442138671875" lon="19.995765946805477142333984375">
        <ele>1522</ele>
        <time>2026-06-15T14:48:05.000Z</time>
        <extensions>
          <ns3:TrackPointExtension>
            <ns3:atemp>20.0</ns3:atemp>
          </ns3:TrackPointExtension>
        </extensions>
      </trkpt>
      <trkpt lat="42.5945089571177959442138671875" lon="19.995765946805477142333984375">
        <ele>1522</ele>
        <time>2026-06-15T14:48:06.000Z</time>
        <extensions>
          <ns3:TrackPointExtension>
            <ns3:atemp>20.0</ns3:atemp>
          </ns3:TrackPointExtension>
        </extensions>
      </trkpt>
      <trkpt lat="42.5945089571177959442138671875" lon="19.995765946805477142333984375">
        <ele>1521.800048828125</ele>
        <time>2026-06-15T14:48:07.000Z</time>
        <extensions>
          <ns3:TrackPointExtension>
            <ns3:atemp>20.0</ns3:atemp>
          </ns3:TrackPointExtension>
        </extensions>
      </trkpt>
      <trkpt lat="42.5945089571177959442138671875" lon="19.995765946805477142333984375">
        <ele>1521.800048828125</ele>
        <time>2026-06-15T14:48:08.000Z</time>
        <extensions>
          <ns3:TrackPointExtension>
            <ns3:atemp>20.0</ns3:atemp>
          </ns3:TrackPointExtension>
        </extensions>
      </trkpt>
      <trkpt lat="42.5945089571177959442138671875" lon="19.995765946805477142333984375">
        <ele>1521.800048828125</ele>
        <time>2026-06-15T14:48:09.000Z</time>
        <extensions>
          <ns3:TrackPointExtension>
            <ns3:atemp>20.0</ns3:atemp>
          </ns3:TrackPointExtension>
        </extensions>
      </trkpt>
      <trkpt lat="42.5945089571177959442138671875" lon="19.995765946805477142333984375">
        <ele>1521.800048828125</ele>
        <time>2026-06-15T14:48:10.000Z</time>
        <extensions>
          <ns3:TrackPointExtension>
            <ns3:atemp>20.0</ns3:atemp>
          </ns3:TrackPointExtension>
        </extensions>
      </trkpt>
      <trkpt lat="42.5945089571177959442138671875" lon="19.995765946805477142333984375">
        <ele>1521.800048828125</ele>
        <time>2026-06-15T14:48:11.000Z</time>
        <extensions>
          <ns3:TrackPointExtension>
            <ns3:atemp>20.0</ns3:atemp>
          </ns3:TrackPointExtension>
        </extensions>
      </trkpt>
      <trkpt lat="42.5945089571177959442138671875" lon="19.995765946805477142333984375">
        <ele>1521.800048828125</ele>
        <time>2026-06-15T14:48:12.000Z</time>
        <extensions>
          <ns3:TrackPointExtension>
            <ns3:atemp>20.0</ns3:atemp>
          </ns3:TrackPointExtension>
        </extensions>
      </trkpt>
      <trkpt lat="42.5945089571177959442138671875" lon="19.995765946805477142333984375">
        <ele>1521.800048828125</ele>
        <time>2026-06-15T14:48:13.000Z</time>
        <extensions>
          <ns3:TrackPointExtension>
            <ns3:atemp>20.0</ns3:atemp>
          </ns3:TrackPointExtension>
        </extensions>
      </trkpt>
      <trkpt lat="42.5945089571177959442138671875" lon="19.995765946805477142333984375">
        <ele>1521.800048828125</ele>
        <time>2026-06-15T14:48:14.000Z</time>
        <extensions>
          <ns3:TrackPointExtension>
            <ns3:atemp>20.0</ns3:atemp>
          </ns3:TrackPointExtension>
        </extensions>
      </trkpt>
      <trkpt lat="42.5945089571177959442138671875" lon="19.995765946805477142333984375">
        <ele>1521.800048828125</ele>
        <time>2026-06-15T14:48:15.000Z</time>
        <extensions>
          <ns3:TrackPointExtension>
            <ns3:atemp>20.0</ns3:atemp>
          </ns3:TrackPointExtension>
        </extensions>
      </trkpt>
      <trkpt lat="42.5945089571177959442138671875" lon="19.995765946805477142333984375">
        <ele>1521.800048828125</ele>
        <time>2026-06-15T14:48:16.000Z</time>
        <extensions>
          <ns3:TrackPointExtension>
            <ns3:atemp>20.0</ns3:atemp>
          </ns3:TrackPointExtension>
        </extensions>
      </trkpt>
      <trkpt lat="42.5945089571177959442138671875" lon="19.995765946805477142333984375">
        <ele>1521.800048828125</ele>
        <time>2026-06-15T14:48:17.000Z</time>
        <extensions>
          <ns3:TrackPointExtension>
            <ns3:atemp>20.0</ns3:atemp>
          </ns3:TrackPointExtension>
        </extensions>
      </trkpt>
      <trkpt lat="42.5945089571177959442138671875" lon="19.995765946805477142333984375">
        <ele>1521.800048828125</ele>
        <time>2026-06-15T14:48:18.000Z</time>
        <extensions>
          <ns3:TrackPointExtension>
            <ns3:atemp>20.0</ns3:atemp>
          </ns3:TrackPointExtension>
        </extensions>
      </trkpt>
      <trkpt lat="42.5945089571177959442138671875" lon="19.995765946805477142333984375">
        <ele>1522</ele>
        <time>2026-06-15T14:48:19.000Z</time>
        <extensions>
          <ns3:TrackPointExtension>
            <ns3:atemp>20.0</ns3:atemp>
          </ns3:TrackPointExtension>
        </extensions>
      </trkpt>
      <trkpt lat="42.5945089571177959442138671875" lon="19.995765946805477142333984375">
        <ele>1522</ele>
        <time>2026-06-15T14:48:20.000Z</time>
        <extensions>
          <ns3:TrackPointExtension>
            <ns3:atemp>20.0</ns3:atemp>
          </ns3:TrackPointExtension>
        </extensions>
      </trkpt>
      <trkpt lat="42.5945089571177959442138671875" lon="19.995765946805477142333984375">
        <ele>1522</ele>
        <time>2026-06-15T14:48:21.000Z</time>
        <extensions>
          <ns3:TrackPointExtension>
            <ns3:atemp>20.0</ns3:atemp>
          </ns3:TrackPointExtension>
        </extensions>
      </trkpt>
      <trkpt lat="42.5945089571177959442138671875" lon="19.995765946805477142333984375">
        <ele>1522</ele>
        <time>2026-06-15T14:48:22.000Z</time>
        <extensions>
          <ns3:TrackPointExtension>
            <ns3:atemp>20.0</ns3:atemp>
          </ns3:TrackPointExtension>
        </extensions>
      </trkpt>
      <trkpt lat="42.5945089571177959442138671875" lon="19.995765946805477142333984375">
        <ele>1522</ele>
        <time>2026-06-15T14:48:23.000Z</time>
        <extensions>
          <ns3:TrackPointExtension>
            <ns3:atemp>20.0</ns3:atemp>
          </ns3:TrackPointExtension>
        </extensions>
      </trkpt>
      <trkpt lat="42.5945089571177959442138671875" lon="19.995765946805477142333984375">
        <ele>1521.800048828125</ele>
        <time>2026-06-15T14:48:24.000Z</time>
        <extensions>
          <ns3:TrackPointExtension>
            <ns3:atemp>20.0</ns3:atemp>
          </ns3:TrackPointExtension>
        </extensions>
      </trkpt>
      <trkpt lat="42.5945089571177959442138671875" lon="19.995765946805477142333984375">
        <ele>1521.800048828125</ele>
        <time>2026-06-15T14:48:25.000Z</time>
        <extensions>
          <ns3:TrackPointExtension>
            <ns3:atemp>20.0</ns3:atemp>
          </ns3:TrackPointExtension>
        </extensions>
      </trkpt>
      <trkpt lat="42.5945089571177959442138671875" lon="19.995765946805477142333984375">
        <ele>1521.800048828125</ele>
        <time>2026-06-15T14:48:26.000Z</time>
        <extensions>
          <ns3:TrackPointExtension>
            <ns3:atemp>20.0</ns3:atemp>
          </ns3:TrackPointExtension>
        </extensions>
      </trkpt>
      <trkpt lat="42.5945089571177959442138671875" lon="19.995765946805477142333984375">
        <ele>1521.800048828125</ele>
        <time>2026-06-15T14:48:27.000Z</time>
        <extensions>
          <ns3:TrackPointExtension>
            <ns3:atemp>20.0</ns3:atemp>
          </ns3:TrackPointExtension>
        </extensions>
      </trkpt>
      <trkpt lat="42.5945089571177959442138671875" lon="19.995765946805477142333984375">
        <ele>1521.5999755859375</ele>
        <time>2026-06-15T14:48:28.000Z</time>
        <extensions>
          <ns3:TrackPointExtension>
            <ns3:atemp>20.0</ns3:atemp>
          </ns3:TrackPointExtension>
        </extensions>
      </trkpt>
      <trkpt lat="42.5945089571177959442138671875" lon="19.995765946805477142333984375">
        <ele>1521.5999755859375</ele>
        <time>2026-06-15T14:48:29.000Z</time>
        <extensions>
          <ns3:TrackPointExtension>
            <ns3:atemp>20.0</ns3:atemp>
          </ns3:TrackPointExtension>
        </extensions>
      </trkpt>
      <trkpt lat="42.5945089571177959442138671875" lon="19.995765946805477142333984375">
        <ele>1521.5999755859375</ele>
        <time>2026-06-15T14:48:30.000Z</time>
        <extensions>
          <ns3:TrackPointExtension>
            <ns3:atemp>20.0</ns3:atemp>
          </ns3:TrackPointExtension>
        </extensions>
      </trkpt>
      <trkpt lat="42.5945089571177959442138671875" lon="19.995765946805477142333984375">
        <ele>1521.5999755859375</ele>
        <time>2026-06-15T14:48:31.000Z</time>
        <extensions>
          <ns3:TrackPointExtension>
            <ns3:atemp>20.0</ns3:atemp>
          </ns3:TrackPointExtension>
        </extensions>
      </trkpt>
      <trkpt lat="42.5945089571177959442138671875" lon="19.995765946805477142333984375">
        <ele>1521.5999755859375</ele>
        <time>2026-06-15T14:48:32.000Z</time>
        <extensions>
          <ns3:TrackPointExtension>
            <ns3:atemp>20.0</ns3:atemp>
          </ns3:TrackPointExtension>
        </extensions>
      </trkpt>
      <trkpt lat="42.5945089571177959442138671875" lon="19.995765946805477142333984375">
        <ele>1521.4000244140625</ele>
        <time>2026-06-15T14:48:33.000Z</time>
        <extensions>
          <ns3:TrackPointExtension>
            <ns3:atemp>20.0</ns3:atemp>
          </ns3:TrackPointExtension>
        </extensions>
      </trkpt>
      <trkpt lat="42.5945089571177959442138671875" lon="19.995765946805477142333984375">
        <ele>1521.4000244140625</ele>
        <time>2026-06-15T14:48:34.000Z</time>
        <extensions>
          <ns3:TrackPointExtension>
            <ns3:atemp>20.0</ns3:atemp>
          </ns3:TrackPointExtension>
        </extensions>
      </trkpt>
      <trkpt lat="42.5945089571177959442138671875" lon="19.995765946805477142333984375">
        <ele>1521.4000244140625</ele>
        <time>2026-06-15T14:48:35.000Z</time>
        <extensions>
          <ns3:TrackPointExtension>
            <ns3:atemp>20.0</ns3:atemp>
          </ns3:TrackPointExtension>
        </extensions>
      </trkpt>
      <trkpt lat="42.5945089571177959442138671875" lon="19.995765946805477142333984375">
        <ele>1521.4000244140625</ele>
        <time>2026-06-15T14:48:36.000Z</time>
        <extensions>
          <ns3:TrackPointExtension>
            <ns3:atemp>20.0</ns3:atemp>
          </ns3:TrackPointExtension>
        </extensions>
      </trkpt>
      <trkpt lat="42.5945089571177959442138671875" lon="19.995765946805477142333984375">
        <ele>1521.4000244140625</ele>
        <time>2026-06-15T14:48:37.000Z</time>
        <extensions>
          <ns3:TrackPointExtension>
            <ns3:atemp>20.0</ns3:atemp>
          </ns3:TrackPointExtension>
        </extensions>
      </trkpt>
      <trkpt lat="42.5945089571177959442138671875" lon="19.995765946805477142333984375">
        <ele>1521.4000244140625</ele>
        <time>2026-06-15T14:48:38.000Z</time>
        <extensions>
          <ns3:TrackPointExtension>
            <ns3:atemp>20.0</ns3:atemp>
          </ns3:TrackPointExtension>
        </extensions>
      </trkpt>
      <trkpt lat="42.5945089571177959442138671875" lon="19.995765946805477142333984375">
        <ele>1521.5999755859375</ele>
        <time>2026-06-15T14:48:39.000Z</time>
        <extensions>
          <ns3:TrackPointExtension>
            <ns3:atemp>20.0</ns3:atemp>
          </ns3:TrackPointExtension>
        </extensions>
      </trkpt>
      <trkpt lat="42.5945089571177959442138671875" lon="19.995765946805477142333984375">
        <ele>1521.5999755859375</ele>
        <time>2026-06-15T14:48:40.000Z</time>
        <extensions>
          <ns3:TrackPointExtension>
            <ns3:atemp>20.0</ns3:atemp>
          </ns3:TrackPointExtension>
        </extensions>
      </trkpt>
      <trkpt lat="42.5945089571177959442138671875" lon="19.995765946805477142333984375">
        <ele>1521.5999755859375</ele>
        <time>2026-06-15T14:48:41.000Z</time>
        <extensions>
          <ns3:TrackPointExtension>
            <ns3:atemp>20.0</ns3:atemp>
          </ns3:TrackPointExtension>
        </extensions>
      </trkpt>
      <trkpt lat="42.5945089571177959442138671875" lon="19.995765946805477142333984375">
        <ele>1521.5999755859375</ele>
        <time>2026-06-15T14:48:42.000Z</time>
        <extensions>
          <ns3:TrackPointExtension>
            <ns3:atemp>20.0</ns3:atemp>
          </ns3:TrackPointExtension>
        </extensions>
      </trkpt>
      <trkpt lat="42.5945089571177959442138671875" lon="19.995765946805477142333984375">
        <ele>1521.5999755859375</ele>
        <time>2026-06-15T14:48:43.000Z</time>
        <extensions>
          <ns3:TrackPointExtension>
            <ns3:atemp>20.0</ns3:atemp>
          </ns3:TrackPointExtension>
        </extensions>
      </trkpt>
      <trkpt lat="42.5945089571177959442138671875" lon="19.995765946805477142333984375">
        <ele>1521.5999755859375</ele>
        <time>2026-06-15T14:48:44.000Z</time>
        <extensions>
          <ns3:TrackPointExtension>
            <ns3:atemp>20.0</ns3:atemp>
          </ns3:TrackPointExtension>
        </extensions>
      </trkpt>
      <trkpt lat="42.5945089571177959442138671875" lon="19.995765946805477142333984375">
        <ele>1521.5999755859375</ele>
        <time>2026-06-15T14:48:45.000Z</time>
        <extensions>
          <ns3:TrackPointExtension>
            <ns3:atemp>20.0</ns3:atemp>
          </ns3:TrackPointExtension>
        </extensions>
      </trkpt>
      <trkpt lat="42.5945089571177959442138671875" lon="19.995765946805477142333984375">
        <ele>1521.5999755859375</ele>
        <time>2026-06-15T14:48:46.000Z</time>
        <extensions>
          <ns3:TrackPointExtension>
            <ns3:atemp>20.0</ns3:atemp>
          </ns3:TrackPointExtension>
        </extensions>
      </trkpt>
      <trkpt lat="42.5945089571177959442138671875" lon="19.995765946805477142333984375">
        <ele>1521.5999755859375</ele>
        <time>2026-06-15T14:48:47.000Z</time>
        <extensions>
          <ns3:TrackPointExtension>
            <ns3:atemp>20.0</ns3:atemp>
          </ns3:TrackPointExtension>
        </extensions>
      </trkpt>
      <trkpt lat="42.5945089571177959442138671875" lon="19.995765946805477142333984375">
        <ele>1521.5999755859375</ele>
        <time>2026-06-15T14:48:48.000Z</time>
        <extensions>
          <ns3:TrackPointExtension>
            <ns3:atemp>20.0</ns3:atemp>
          </ns3:TrackPointExtension>
        </extensions>
      </trkpt>
      <trkpt lat="42.5945089571177959442138671875" lon="19.995765946805477142333984375">
        <ele>1521.5999755859375</ele>
        <time>2026-06-15T14:48:49.000Z</time>
        <extensions>
          <ns3:TrackPointExtension>
            <ns3:atemp>20.0</ns3:atemp>
          </ns3:TrackPointExtension>
        </extensions>
      </trkpt>
      <trkpt lat="42.5945089571177959442138671875" lon="19.995765946805477142333984375">
        <ele>1521.5999755859375</ele>
        <time>2026-06-15T14:48:50.000Z</time>
        <extensions>
          <ns3:TrackPointExtension>
            <ns3:atemp>20.0</ns3:atemp>
          </ns3:TrackPointExtension>
        </extensions>
      </trkpt>
      <trkpt lat="42.59450686164200305938720703125" lon="19.9957654438912868499755859375">
        <ele>1521.5999755859375</ele>
        <time>2026-06-15T14:48:51.000Z</time>
        <extensions>
          <ns3:TrackPointExtension>
            <ns3:atemp>20.0</ns3:atemp>
          </ns3:TrackPointExtension>
        </extensions>
      </trkpt>
      <trkpt lat="42.59450350888073444366455078125" lon="19.9957580678164958953857421875">
        <ele>1521.5999755859375</ele>
        <time>2026-06-15T14:48:52.000Z</time>
        <extensions>
          <ns3:TrackPointExtension>
            <ns3:atemp>20.0</ns3:atemp>
          </ns3:TrackPointExtension>
        </extensions>
      </trkpt>
      <trkpt lat="42.59451205842196941375732421875" lon="19.9957443214952945709228515625">
        <ele>1521.5999755859375</ele>
        <time>2026-06-15T14:48:53.000Z</time>
        <extensions>
          <ns3:TrackPointExtension>
            <ns3:atemp>20.0</ns3:atemp>
          </ns3:TrackPointExtension>
        </extensions>
      </trkpt>
      <trkpt lat="42.594518177211284637451171875" lon="19.9957211874425411224365234375">
        <ele>1521.4000244140625</ele>
        <time>2026-06-15T14:48:54.000Z</time>
        <extensions>
          <ns3:TrackPointExtension>
            <ns3:atemp>20.0</ns3:atemp>
          </ns3:TrackPointExtension>
        </extensions>
      </trkpt>
      <trkpt lat="42.594526223838329315185546875" lon="19.995688162744045257568359375">
        <ele>1521.199951171875</ele>
        <time>2026-06-15T14:48:55.000Z</time>
        <extensions>
          <ns3:TrackPointExtension>
            <ns3:atemp>20.0</ns3:atemp>
          </ns3:TrackPointExtension>
        </extensions>
      </trkpt>
      <trkpt lat="42.59453418664634227752685546875" lon="19.9956429004669189453125">
        <ele>1521</ele>
        <time>2026-06-15T14:48:56.000Z</time>
        <extensions>
          <ns3:TrackPointExtension>
            <ns3:atemp>20.0</ns3:atemp>
          </ns3:TrackPointExtension>
        </extensions>
      </trkpt>
      <trkpt lat="42.5945424847304821014404296875" lon="19.99559319578111171722412109375">
        <ele>1520.5999755859375</ele>
        <time>2026-06-15T14:48:57.000Z</time>
        <extensions>
          <ns3:TrackPointExtension>
            <ns3:atemp>20.0</ns3:atemp>
          </ns3:TrackPointExtension>
        </extensions>
      </trkpt>
      <trkpt lat="42.59455204010009765625" lon="19.99553938396275043487548828125">
        <ele>1520.4000244140625</ele>
        <time>2026-06-15T14:48:58.000Z</time>
        <extensions>
          <ns3:TrackPointExtension>
            <ns3:atemp>20.0</ns3:atemp>
          </ns3:TrackPointExtension>
        </extensions>
      </trkpt>
      <trkpt lat="42.59456436149775981903076171875" lon="19.9954982288181781768798828125">
        <ele>1520</ele>
        <time>2026-06-15T14:48:59.000Z</time>
        <extensions>
          <ns3:TrackPointExtension>
            <ns3:atemp>20.0</ns3:atemp>
          </ns3:TrackPointExtension>
        </extensions>
      </trkpt>
      <trkpt lat="42.59457358159124851226806640625" lon="19.99546922743320465087890625">
        <ele>1519.5999755859375</ele>
        <time>2026-06-15T14:49:00.000Z</time>
        <extensions>
          <ns3:TrackPointExtension>
            <ns3:atemp>20.0</ns3:atemp>
          </ns3:TrackPointExtension>
        </extensions>
      </trkpt>
      <trkpt lat="42.594579868018627166748046875" lon="19.99544181860983371734619140625">
        <ele>1519.199951171875</ele>
        <time>2026-06-15T14:49:01.000Z</time>
        <extensions>
          <ns3:TrackPointExtension>
            <ns3:atemp>20.0</ns3:atemp>
          </ns3:TrackPointExtension>
        </extensions>
      </trkpt>
      <trkpt lat="42.59458330459892749786376953125" lon="19.99541851691901683807373046875">
        <ele>1518.5999755859375</ele>
        <time>2026-06-15T14:49:02.000Z</time>
        <extensions>
          <ns3:TrackPointExtension>
            <ns3:atemp>20.0</ns3:atemp>
          </ns3:TrackPointExtension>
        </extensions>
      </trkpt>
      <trkpt lat="42.5945877470076084136962890625" lon="19.995397813618183135986328125">
        <ele>1518.199951171875</ele>
        <time>2026-06-15T14:49:03.000Z</time>
        <extensions>
          <ns3:TrackPointExtension>
            <ns3:atemp>20.0</ns3:atemp>
          </ns3:TrackPointExtension>
        </extensions>
      </trkpt>
      <trkpt lat="42.59459185414016246795654296875" lon="19.995372332632541656494140625">
        <ele>1517.800048828125</ele>
        <time>2026-06-15T14:49:04.000Z</time>
        <extensions>
          <ns3:TrackPointExtension>
            <ns3:atemp>20.0</ns3:atemp>
          </ns3:TrackPointExtension>
        </extensions>
      </trkpt>
      <trkpt lat="42.59460191242396831512451171875" lon="19.995346181094646453857421875">
        <ele>1517.4000244140625</ele>
        <time>2026-06-15T14:49:05.000Z</time>
        <extensions>
          <ns3:TrackPointExtension>
            <ns3:atemp>20.0</ns3:atemp>
          </ns3:TrackPointExtension>
        </extensions>
      </trkpt>
      <trkpt lat="42.59461062960326671600341796875" lon="19.99531240202486515045166015625">
        <ele>1517</ele>
        <time>2026-06-15T14:49:06.000Z</time>
        <extensions>
          <ns3:TrackPointExtension>
            <ns3:atemp>20.0</ns3:atemp>
          </ns3:TrackPointExtension>
        </extensions>
      </trkpt>
      <trkpt lat="42.59462739340960979461669921875" lon="19.99528105370700359344482421875">
        <ele>1516.800048828125</ele>
        <time>2026-06-15T14:49:07.000Z</time>
        <extensions>
          <ns3:TrackPointExtension>
            <ns3:atemp>20.0</ns3:atemp>
          </ns3:TrackPointExtension>
        </extensions>
      </trkpt>
      <trkpt lat="42.59465421549975872039794921875" lon="19.9952450953423976898193359375">
        <ele>1516</ele>
        <time>2026-06-15T14:49:08.000Z</time>
        <extensions>
          <ns3:TrackPointExtension>
            <ns3:atemp>20.0</ns3:atemp>
          </ns3:TrackPointExtension>
        </extensions>
      </trkpt>
      <trkpt lat="42.5946839712560176849365234375" lon="19.995214752852916717529296875">
        <ele>1515.4000244140625</ele>
        <time>2026-06-15T14:49:09.000Z</time>
        <extensions>
          <ns3:TrackPointExtension>
            <ns3:atemp>20.0</ns3:atemp>
          </ns3:TrackPointExtension>
        </extensions>
      </trkpt>
      <trkpt lat="42.59471925906836986541748046875" lon="19.99518851749598979949951171875">
        <ele>1514.800048828125</ele>
        <time>2026-06-15T14:49:10.000Z</time>
        <extensions>
          <ns3:TrackPointExtension>
            <ns3:atemp>20.0</ns3:atemp>
          </ns3:TrackPointExtension>
        </extensions>
      </trkpt>
      <trkpt lat="42.5947600789368152618408203125" lon="19.995165802538394927978515625">
        <ele>1514</ele>
        <time>2026-06-15T14:49:11.000Z</time>
        <extensions>
          <ns3:TrackPointExtension>
            <ns3:atemp>20.0</ns3:atemp>
          </ns3:TrackPointExtension>
        </extensions>
      </trkpt>
      <trkpt lat="42.59479972533881664276123046875" lon="19.9951391480863094329833984375">
        <ele>1513.4000244140625</ele>
        <time>2026-06-15T14:49:12.000Z</time>
        <extensions>
          <ns3:TrackPointExtension>
            <ns3:atemp>20.0</ns3:atemp>
          </ns3:TrackPointExtension>
        </extensions>
      </trkpt>
      <trkpt lat="42.59484012611210346221923828125" lon="19.99510520137846469879150390625">
        <ele>1512.4000244140625</ele>
        <time>2026-06-15T14:49:13.000Z</time>
        <extensions>
          <ns3:TrackPointExtension>
            <ns3:atemp>20.0</ns3:atemp>
          </ns3:TrackPointExtension>
        </extensions>
      </trkpt>
      <trkpt lat="42.59487499482929706573486328125" lon="19.99506580643355846405029296875">
        <ele>1511.4000244140625</ele>
        <time>2026-06-15T14:49:14.000Z</time>
        <extensions>
          <ns3:TrackPointExtension>
            <ns3:atemp>20.0</ns3:atemp>
          </ns3:TrackPointExtension>
        </extensions>
      </trkpt>
      <trkpt lat="42.59490952827036380767822265625" lon="19.9950246512889862060546875">
        <ele>1510.4000244140625</ele>
        <time>2026-06-15T14:49:15.000Z</time>
        <extensions>
          <ns3:TrackPointExtension>
            <ns3:atemp>20.0</ns3:atemp>
          </ns3:TrackPointExtension>
        </extensions>
      </trkpt>
      <trkpt lat="42.59494833648204803466796875" lon="19.99498299323022365570068359375">
        <ele>1509.4000244140625</ele>
        <time>2026-06-15T14:49:16.000Z</time>
        <extensions>
          <ns3:TrackPointExtension>
            <ns3:atemp>20.0</ns3:atemp>
          </ns3:TrackPointExtension>
        </extensions>
      </trkpt>
      <trkpt lat="42.59498446248471736907958984375" lon="19.9949473701417446136474609375">
        <ele>1508.4000244140625</ele>
        <time>2026-06-15T14:49:17.000Z</time>
        <extensions>
          <ns3:TrackPointExtension>
            <ns3:atemp>20.0</ns3:atemp>
          </ns3:TrackPointExtension>
        </extensions>
      </trkpt>
      <trkpt lat="42.5950182415544986724853515625" lon="19.9949039518833160400390625">
        <ele>1507.5999755859375</ele>
        <time>2026-06-15T14:49:18.000Z</time>
        <extensions>
          <ns3:TrackPointExtension>
            <ns3:atemp>20.0</ns3:atemp>
          </ns3:TrackPointExtension>
        </extensions>
      </trkpt>
      <trkpt lat="42.595057301223278045654296875" lon="19.99486799351871013641357421875">
        <ele>1506.4000244140625</ele>
        <time>2026-06-15T14:49:19.000Z</time>
        <extensions>
          <ns3:TrackPointExtension>
            <ns3:atemp>20.0</ns3:atemp>
          </ns3:TrackPointExtension>
        </extensions>
      </trkpt>
      <trkpt lat="42.59510465897619724273681640625" lon="19.99484083615243434906005859375">
        <ele>1505.4000244140625</ele>
        <time>2026-06-15T14:49:20.000Z</time>
        <extensions>
          <ns3:TrackPointExtension>
            <ns3:atemp>20.0</ns3:atemp>
          </ns3:TrackPointExtension>
        </extensions>
      </trkpt>
      <trkpt lat="42.59515796788036823272705078125" lon="19.99482977204024791717529296875">
        <ele>1504.5999755859375</ele>
        <time>2026-06-15T14:49:21.000Z</time>
        <extensions>
          <ns3:TrackPointExtension>
            <ns3:atemp>20.0</ns3:atemp>
          </ns3:TrackPointExtension>
        </extensions>
      </trkpt>
      <trkpt lat="42.59521119296550750732421875" lon="19.99483044259250164031982421875">
        <ele>1503.5999755859375</ele>
        <time>2026-06-15T14:49:22.000Z</time>
        <extensions>
          <ns3:TrackPointExtension>
            <ns3:atemp>20.0</ns3:atemp>
          </ns3:TrackPointExtension>
        </extensions>
      </trkpt>
      <trkpt lat="42.59526173584163188934326171875" lon="19.99485005624592304229736328125">
        <ele>1502.4000244140625</ele>
        <time>2026-06-15T14:49:23.000Z</time>
        <extensions>
          <ns3:TrackPointExtension>
            <ns3:atemp>20.0</ns3:atemp>
          </ns3:TrackPointExtension>
        </extensions>
      </trkpt>
      <trkpt lat="42.59530934505164623260498046875" lon="19.99487578868865966796875">
        <ele>1501.4000244140625</ele>
        <time>2026-06-15T14:49:24.000Z</time>
        <extensions>
          <ns3:TrackPointExtension>
            <ns3:atemp>20.0</ns3:atemp>
          </ns3:TrackPointExtension>
        </extensions>
      </trkpt>
      <trkpt lat="42.59535863064229488372802734375" lon="19.99488257803022861480712890625">
        <ele>1500.199951171875</ele>
        <time>2026-06-15T14:49:25.000Z</time>
        <extensions>
          <ns3:TrackPointExtension>
            <ns3:atemp>20.0</ns3:atemp>
          </ns3:TrackPointExtension>
        </extensions>
      </trkpt>
      <trkpt lat="42.59540322236716747283935546875" lon="19.99486841261386871337890625">
        <ele>1499</ele>
        <time>2026-06-15T14:49:26.000Z</time>
        <extensions>
          <ns3:TrackPointExtension>
            <ns3:atemp>20.0</ns3:atemp>
          </ns3:TrackPointExtension>
        </extensions>
      </trkpt>
      <trkpt lat="42.59543574415147304534912109375" lon="19.99483061023056507110595703125">
        <ele>1498</ele>
        <time>2026-06-15T14:49:27.000Z</time>
        <extensions>
          <ns3:TrackPointExtension>
            <ns3:atemp>20.0</ns3:atemp>
          </ns3:TrackPointExtension>
        </extensions>
      </trkpt>
      <trkpt lat="42.59544010274112224578857421875" lon="19.9947850964963436126708984375">
        <ele>1497.199951171875</ele>
        <time>2026-06-15T14:49:28.000Z</time>
        <extensions>
          <ns3:TrackPointExtension>
            <ns3:atemp>20.0</ns3:atemp>
          </ns3:TrackPointExtension>
        </extensions>
      </trkpt>
      <trkpt lat="42.59543373249471187591552734375" lon="19.9947334639728069305419921875">
        <ele>1496.4000244140625</ele>
        <time>2026-06-15T14:49:29.000Z</time>
        <extensions>
          <ns3:TrackPointExtension>
            <ns3:atemp>20.0</ns3:atemp>
          </ns3:TrackPointExtension>
        </extensions>
      </trkpt>
      <trkpt lat="42.59542216546833515167236328125" lon="19.99467051587998867034912109375">
        <ele>1495.5999755859375</ele>
        <time>2026-06-15T14:49:30.000Z</time>
        <extensions>
          <ns3:TrackPointExtension>
            <ns3:atemp>20.0</ns3:atemp>
          </ns3:TrackPointExtension>
        </extensions>
      </trkpt>
      <trkpt lat="42.59540322236716747283935546875" lon="19.99459591694176197052001953125">
        <ele>1494.5999755859375</ele>
        <time>2026-06-15T14:49:31.000Z</time>
        <extensions>
          <ns3:TrackPointExtension>
            <ns3:atemp>20.0</ns3:atemp>
          </ns3:TrackPointExtension>
        </extensions>
      </trkpt>
      <trkpt lat="42.59537824429571628570556640625" lon="19.99452316202223300933837890625">
        <ele>1493.800048828125</ele>
        <time>2026-06-15T14:49:32.000Z</time>
        <extensions>
          <ns3:TrackPointExtension>
            <ns3:atemp>20.0</ns3:atemp>
          </ns3:TrackPointExtension>
        </extensions>
      </trkpt>
      <trkpt lat="42.5953474827110767364501953125" lon="19.99445225112140178680419921875">
        <ele>1493</ele>
        <time>2026-06-15T14:49:33.000Z</time>
        <extensions>
          <ns3:TrackPointExtension>
            <ns3:atemp>20.0</ns3:atemp>
          </ns3:TrackPointExtension>
        </extensions>
      </trkpt>
      <trkpt lat="42.59531269781291484832763671875" lon="19.9943827651441097259521484375">
        <ele>1492</ele>
        <time>2026-06-15T14:49:34.000Z</time>
        <extensions>
          <ns3:TrackPointExtension>
            <ns3:atemp>20.0</ns3:atemp>
          </ns3:TrackPointExtension>
        </extensions>
      </trkpt>
      <trkpt lat="42.59526927955448627471923828125" lon="19.99432249926030635833740234375">
        <ele>1491</ele>
        <time>2026-06-15T14:49:35.000Z</time>
        <extensions>
          <ns3:TrackPointExtension>
            <ns3:atemp>20.0</ns3:atemp>
          </ns3:TrackPointExtension>
        </extensions>
      </trkpt>
      <trkpt lat="42.5952244363725185394287109375" lon="19.99426424503326416015625">
        <ele>1489.5999755859375</ele>
        <time>2026-06-15T14:49:36.000Z</time>
        <extensions>
          <ns3:TrackPointExtension>
            <ns3:atemp>20.0</ns3:atemp>
          </ns3:TrackPointExtension>
        </extensions>
      </trkpt>
      <trkpt lat="42.5951825268566608428955078125" lon="19.9942178092896938323974609375">
        <ele>1488.5999755859375</ele>
        <time>2026-06-15T14:49:37.000Z</time>
        <extensions>
          <ns3:TrackPointExtension>
            <ns3:atemp>20.0</ns3:atemp>
          </ns3:TrackPointExtension>
        </extensions>
      </trkpt>
      <trkpt lat="42.5951630808413028717041015625" lon="19.9941623210906982421875">
        <ele>1487.800048828125</ele>
        <time>2026-06-15T14:49:38.000Z</time>
        <extensions>
          <ns3:TrackPointExtension>
            <ns3:atemp>20.0</ns3:atemp>
          </ns3:TrackPointExtension>
        </extensions>
      </trkpt>
      <trkpt lat="42.59516718797385692596435546875" lon="19.99410222284495830535888671875">
        <ele>1486.800048828125</ele>
        <time>2026-06-15T14:49:39.000Z</time>
        <extensions>
          <ns3:TrackPointExtension>
            <ns3:atemp>20.0</ns3:atemp>
          </ns3:TrackPointExtension>
        </extensions>
      </trkpt>
      <trkpt lat="42.59519954212009906768798828125" lon="19.99405746348202228546142578125">
        <ele>1485.800048828125</ele>
        <time>2026-06-15T14:49:40.000Z</time>
        <extensions>
          <ns3:TrackPointExtension>
            <ns3:atemp>20.0</ns3:atemp>
          </ns3:TrackPointExtension>
        </extensions>
      </trkpt>
      <trkpt lat="42.59525008499622344970703125" lon="19.99403768219053745269775390625">
        <ele>1485</ele>
        <time>2026-06-15T14:49:41.000Z</time>
        <extensions>
          <ns3:TrackPointExtension>
            <ns3:atemp>20.0</ns3:atemp>
          </ns3:TrackPointExtension>
        </extensions>
      </trkpt>
      <trkpt lat="42.59531169198453426361083984375" lon="19.9940220080316066741943359375">
        <ele>1483.800048828125</ele>
        <time>2026-06-15T14:49:42.000Z</time>
        <extensions>
          <ns3:TrackPointExtension>
            <ns3:atemp>20.0</ns3:atemp>
          </ns3:TrackPointExtension>
        </extensions>
      </trkpt>
      <trkpt lat="42.59537824429571628570556640625" lon="19.9940072558820247650146484375">
        <ele>1482.5999755859375</ele>
        <time>2026-06-15T14:49:43.000Z</time>
        <extensions>
          <ns3:TrackPointExtension>
            <ns3:atemp>20.0</ns3:atemp>
          </ns3:TrackPointExtension>
        </extensions>
      </trkpt>
      <trkpt lat="42.5954433716833591461181640625" lon="19.993983618915081024169921875">
        <ele>1481.4000244140625</ele>
        <time>2026-06-15T14:49:44.000Z</time>
        <extensions>
          <ns3:TrackPointExtension>
            <ns3:atemp>20.0</ns3:atemp>
          </ns3:TrackPointExtension>
        </extensions>
      </trkpt>
      <trkpt lat="42.59550782851874828338623046875" lon="19.99395419843494892120361328125">
        <ele>1480.199951171875</ele>
        <time>2026-06-15T14:49:45.000Z</time>
        <extensions>
          <ns3:TrackPointExtension>
            <ns3:atemp>20.0</ns3:atemp>
          </ns3:TrackPointExtension>
        </extensions>
      </trkpt>
      <trkpt lat="42.59557186625897884368896484375" lon="19.993929304182529449462890625">
        <ele>1479.199951171875</ele>
        <time>2026-06-15T14:49:46.000Z</time>
        <extensions>
          <ns3:TrackPointExtension>
            <ns3:atemp>20.0</ns3:atemp>
          </ns3:TrackPointExtension>
        </extensions>
      </trkpt>
      <trkpt lat="42.595639340579509735107421875" lon="19.9939053319394588470458984375">
        <ele>1478</ele>
        <time>2026-06-15T14:49:47.000Z</time>
        <extensions>
          <ns3:TrackPointExtension>
            <ns3:atemp>20.0</ns3:atemp>
          </ns3:TrackPointExtension>
        </extensions>
      </trkpt>
      <trkpt lat="42.59570513851940631866455078125" lon="19.99389217235147953033447265625">
        <ele>1476.5999755859375</ele>
        <time>2026-06-15T14:49:48.000Z</time>
        <extensions>
          <ns3:TrackPointExtension>
            <ns3:atemp>20.0</ns3:atemp>
          </ns3:TrackPointExtension>
        </extensions>
      </trkpt>
      <trkpt lat="42.5957759656012058258056640625" lon="19.99387993477284908294677734375">
        <ele>1475.5999755859375</ele>
        <time>2026-06-15T14:49:49.000Z</time>
        <extensions>
          <ns3:TrackPointExtension>
            <ns3:atemp>20.0</ns3:atemp>
          </ns3:TrackPointExtension>
        </extensions>
      </trkpt>
      <trkpt lat="42.5958436913788318634033203125" lon="19.9938833713531494140625">
        <ele>1474.5999755859375</ele>
        <time>2026-06-15T14:49:50.000Z</time>
        <extensions>
          <ns3:TrackPointExtension>
            <ns3:atemp>20.0</ns3:atemp>
          </ns3:TrackPointExtension>
        </extensions>
      </trkpt>
      <trkpt lat="42.5959060527384281158447265625" lon="19.993893764913082122802734375">
        <ele>1473.5999755859375</ele>
        <time>2026-06-15T14:49:51.000Z</time>
        <extensions>
          <ns3:TrackPointExtension>
            <ns3:atemp>20.0</ns3:atemp>
          </ns3:TrackPointExtension>
        </extensions>
      </trkpt>
      <trkpt lat="42.59596615098416805267333984375" lon="19.99390943907201290130615234375">
        <ele>1472.800048828125</ele>
        <time>2026-06-15T14:49:52.000Z</time>
        <extensions>
          <ns3:TrackPointExtension>
            <ns3:atemp>20.0</ns3:atemp>
          </ns3:TrackPointExtension>
        </extensions>
      </trkpt>
      <trkpt lat="42.59601878933608531951904296875" lon="19.99393927864730358123779296875">
        <ele>1471.800048828125</ele>
        <time>2026-06-15T14:49:53.000Z</time>
        <extensions>
          <ns3:TrackPointExtension>
            <ns3:atemp>20.0</ns3:atemp>
          </ns3:TrackPointExtension>
        </extensions>
      </trkpt>
      <trkpt lat="42.5960700027644634246826171875" lon="19.993978925049304962158203125">
        <ele>1471</ele>
        <time>2026-06-15T14:49:54.000Z</time>
        <extensions>
          <ns3:TrackPointExtension>
            <ns3:atemp>20.0</ns3:atemp>
          </ns3:TrackPointExtension>
        </extensions>
      </trkpt>
      <trkpt lat="42.5961206294596195220947265625" lon="19.9940176494419574737548828125">
        <ele>1470.199951171875</ele>
        <time>2026-06-15T14:49:55.000Z</time>
        <extensions>
          <ns3:TrackPointExtension>
            <ns3:atemp>20.0</ns3:atemp>
          </ns3:TrackPointExtension>
        </extensions>
      </trkpt>
      <trkpt lat="42.596171088516712188720703125" lon="19.99403650872409343719482421875">
        <ele>1469.4000244140625</ele>
        <time>2026-06-15T14:49:56.000Z</time>
        <extensions>
          <ns3:TrackPointExtension>
            <ns3:atemp>20.0</ns3:atemp>
          </ns3:TrackPointExtension>
        </extensions>
      </trkpt>
      <trkpt lat="42.596220038831233978271484375" lon="19.99402695335447788238525390625">
        <ele>1468.800048828125</ele>
        <time>2026-06-15T14:49:57.000Z</time>
        <extensions>
          <ns3:TrackPointExtension>
            <ns3:atemp>20.0</ns3:atemp>
          </ns3:TrackPointExtension>
        </extensions>
      </trkpt>
      <trkpt lat="42.59624728001654148101806640625" lon="19.99398672021925449371337890625">
        <ele>1468</ele>
        <time>2026-06-15T14:49:58.000Z</time>
        <extensions>
          <ns3:TrackPointExtension>
            <ns3:atemp>20.0</ns3:atemp>
          </ns3:TrackPointExtension>
        </extensions>
      </trkpt>
      <trkpt lat="42.596252895891666412353515625" lon="19.99393072910606861114501953125">
        <ele>1467</ele>
        <time>2026-06-15T14:49:59.000Z</time>
        <extensions>
          <ns3:TrackPointExtension>
            <ns3:atemp>20.0</ns3:atemp>
          </ns3:TrackPointExtension>
        </extensions>
      </trkpt>
      <trkpt lat="42.59625482372939586639404296875" lon="19.993864260613918304443359375">
        <ele>1466.199951171875</ele>
        <time>2026-06-15T14:50:00.000Z</time>
        <extensions>
          <ns3:TrackPointExtension>
            <ns3:atemp>20.0</ns3:atemp>
          </ns3:TrackPointExtension>
        </extensions>
      </trkpt>
      <trkpt lat="42.59624795056879520416259765625" lon="19.99379226006567478179931640625">
        <ele>1465.4000244140625</ele>
        <time>2026-06-15T14:50:01.000Z</time>
        <extensions>
          <ns3:TrackPointExtension>
            <ns3:atemp>20.0</ns3:atemp>
          </ns3:TrackPointExtension>
        </extensions>
      </trkpt>
      <trkpt lat="42.5962326116859912872314453125" lon="19.993712715804576873779296875">
        <ele>1464.4000244140625</ele>
        <time>2026-06-15T14:50:02.000Z</time>
        <extensions>
          <ns3:TrackPointExtension>
            <ns3:atemp>20.0</ns3:atemp>
          </ns3:TrackPointExtension>
        </extensions>
      </trkpt>
      <trkpt lat="42.59621324948966503143310546875" lon="19.99363434500992298126220703125">
        <ele>1463.5999755859375</ele>
        <time>2026-06-15T14:50:03.000Z</time>
        <extensions>
          <ns3:TrackPointExtension>
            <ns3:atemp>20.0</ns3:atemp>
          </ns3:TrackPointExtension>
        </extensions>
      </trkpt>
      <trkpt lat="42.59618944488465785980224609375" lon="19.9935579858720302581787109375">
        <ele>1462.5999755859375</ele>
        <time>2026-06-15T14:50:04.000Z</time>
        <extensions>
          <ns3:TrackPointExtension>
            <ns3:atemp>20.0</ns3:atemp>
          </ns3:TrackPointExtension>
        </extensions>
      </trkpt>
      <trkpt lat="42.59616312570869922637939453125" lon="19.9934701435267925262451171875">
        <ele>1461.199951171875</ele>
        <time>2026-06-15T14:50:05.000Z</time>
        <extensions>
          <ns3:TrackPointExtension>
            <ns3:atemp>20.0</ns3:atemp>
          </ns3:TrackPointExtension>
        </extensions>
      </trkpt>
      <trkpt lat="42.59613781236112117767333984375" lon="19.99338456429541110992431640625">
        <ele>1460.199951171875</ele>
        <time>2026-06-15T14:50:06.000Z</time>
        <extensions>
          <ns3:TrackPointExtension>
            <ns3:atemp>20.0</ns3:atemp>
          </ns3:TrackPointExtension>
        </extensions>
      </trkpt>
      <trkpt lat="42.59609539993107318878173828125" lon="19.993322454392910003662109375">
        <ele>1459</ele>
        <time>2026-06-15T14:50:07.000Z</time>
        <extensions>
          <ns3:TrackPointExtension>
            <ns3:atemp>20.0</ns3:atemp>
          </ns3:TrackPointExtension>
        </extensions>
      </trkpt>
      <trkpt lat="42.59604142047464847564697265625" lon="19.99328498728573322296142578125">
        <ele>1458</ele>
        <time>2026-06-15T14:50:08.000Z</time>
        <extensions>
          <ns3:TrackPointExtension>
            <ns3:atemp>20.0</ns3:atemp>
          </ns3:TrackPointExtension>
        </extensions>
      </trkpt>
      <trkpt lat="42.59599816985428333282470703125" lon="19.9932377971708774566650390625">
        <ele>1456.800048828125</ele>
        <time>2026-06-15T14:50:09.000Z</time>
        <extensions>
          <ns3:TrackPointExtension>
            <ns3:atemp>20.0</ns3:atemp>
          </ns3:TrackPointExtension>
        </extensions>
      </trkpt>
      <trkpt lat="42.59598241187632083892822265625" lon="19.993174932897090911865234375">
        <ele>1455.199951171875</ele>
        <time>2026-06-15T14:50:10.000Z</time>
        <extensions>
          <ns3:TrackPointExtension>
            <ns3:atemp>20.0</ns3:atemp>
          </ns3:TrackPointExtension>
        </extensions>
      </trkpt>
      <trkpt lat="42.595996744930744171142578125" lon="19.99311835505068302154541015625">
        <ele>1454.199951171875</ele>
        <time>2026-06-15T14:50:11.000Z</time>
        <extensions>
          <ns3:TrackPointExtension>
            <ns3:atemp>20.0</ns3:atemp>
          </ns3:TrackPointExtension>
        </extensions>
      </trkpt>
      <trkpt lat="42.59603018872439861297607421875" lon="19.99310351908206939697265625">
        <ele>1453.199951171875</ele>
        <time>2026-06-15T14:50:12.000Z</time>
        <extensions>
          <ns3:TrackPointExtension>
            <ns3:atemp>20.0</ns3:atemp>
          </ns3:TrackPointExtension>
        </extensions>
      </trkpt>
      <trkpt lat="42.59607276879251003265380859375" lon="19.99309857375919818878173828125">
        <ele>1452.4000244140625</ele>
        <time>2026-06-15T14:50:13.000Z</time>
        <extensions>
          <ns3:TrackPointExtension>
            <ns3:atemp>20.0</ns3:atemp>
          </ns3:TrackPointExtension>
        </extensions>
      </trkpt>
      <trkpt lat="42.5961223058402538299560546875" lon="19.99309086240828037261962890625">
        <ele>1451.4000244140625</ele>
        <time>2026-06-15T14:50:14.000Z</time>
        <extensions>
          <ns3:TrackPointExtension>
            <ns3:atemp>20.0</ns3:atemp>
          </ns3:TrackPointExtension>
        </extensions>
      </trkpt>
      <trkpt lat="42.596179135143756866455078125" lon="19.99308164231479167938232421875">
        <ele>1450.4000244140625</ele>
        <time>2026-06-15T14:50:15.000Z</time>
        <extensions>
          <ns3:TrackPointExtension>
            <ns3:atemp>20.0</ns3:atemp>
          </ns3:TrackPointExtension>
        </extensions>
      </trkpt>
      <trkpt lat="42.59623303078114986419677734375" lon="19.99306571669876575469970703125">
        <ele>1448.800048828125</ele>
        <time>2026-06-15T14:50:16.000Z</time>
        <extensions>
          <ns3:TrackPointExtension>
            <ns3:atemp>20.0</ns3:atemp>
          </ns3:TrackPointExtension>
        </extensions>
      </trkpt>
      <trkpt lat="42.59629304520785808563232421875" lon="19.9930463545024394989013671875">
        <ele>1447.5999755859375</ele>
        <time>2026-06-15T14:50:17.000Z</time>
        <extensions>
          <ns3:TrackPointExtension>
            <ns3:atemp>20.0</ns3:atemp>
          </ns3:TrackPointExtension>
        </extensions>
      </trkpt>
      <trkpt lat="42.59635373018682003021240234375" lon="19.99303922988474369049072265625">
        <ele>1446.5999755859375</ele>
        <time>2026-06-15T14:50:18.000Z</time>
        <extensions>
          <ns3:TrackPointExtension>
            <ns3:atemp>20.0</ns3:atemp>
          </ns3:TrackPointExtension>
        </extensions>
      </trkpt>
      <trkpt lat="42.596420533955097198486328125" lon="19.99304115772247314453125">
        <ele>1445.5999755859375</ele>
        <time>2026-06-15T14:50:19.000Z</time>
        <extensions>
          <ns3:TrackPointExtension>
            <ns3:atemp>20.0</ns3:atemp>
          </ns3:TrackPointExtension>
        </extensions>
      </trkpt>
      <trkpt lat="42.59648700244724750518798828125" lon="19.9930500425398349761962890625">
        <ele>1444.199951171875</ele>
        <time>2026-06-15T14:50:20.000Z</time>
        <extensions>
          <ns3:TrackPointExtension>
            <ns3:atemp>20.0</ns3:atemp>
          </ns3:TrackPointExtension>
        </extensions>
      </trkpt>
      <trkpt lat="42.59654651395976543426513671875" lon="19.99306772835552692413330078125">
        <ele>1443</ele>
        <time>2026-06-15T14:50:21.000Z</time>
        <extensions>
          <ns3:TrackPointExtension>
            <ns3:atemp>20.0</ns3:atemp>
          </ns3:TrackPointExtension>
        </extensions>
      </trkpt>
      <trkpt lat="42.5965967215597629547119140625" lon="19.99309371225535869598388671875">
        <ele>1441.4000244140625</ele>
        <time>2026-06-15T14:50:22.000Z</time>
        <extensions>
          <ns3:TrackPointExtension>
            <ns3:atemp>20.0</ns3:atemp>
          </ns3:TrackPointExtension>
        </extensions>
      </trkpt>
      <trkpt lat="42.59662798605859279632568359375" lon="19.99312254600226879119873046875">
        <ele>1440.199951171875</ele>
        <time>2026-06-15T14:50:23.000Z</time>
        <extensions>
          <ns3:TrackPointExtension>
            <ns3:atemp>20.0</ns3:atemp>
          </ns3:TrackPointExtension>
        </extensions>
      </trkpt>
      <trkpt lat="42.59664743207395076751708984375" lon="19.99315540306270122528076171875">
        <ele>1439.4000244140625</ele>
        <time>2026-06-15T14:50:24.000Z</time>
        <extensions>
          <ns3:TrackPointExtension>
            <ns3:atemp>20.0</ns3:atemp>
          </ns3:TrackPointExtension>
        </extensions>
      </trkpt>
      <trkpt lat="42.59666101075708866119384765625" lon="19.99317727982997894287109375">
        <ele>1438.800048828125</ele>
        <time>2026-06-15T14:50:25.000Z</time>
        <extensions>
          <ns3:TrackPointExtension>
            <ns3:atemp>20.0</ns3:atemp>
          </ns3:TrackPointExtension>
        </extensions>
      </trkpt>
      <trkpt lat="42.59667442180216312408447265625" lon="19.9931878410279750823974609375">
        <ele>1438</ele>
        <time>2026-06-15T14:50:26.000Z</time>
        <extensions>
          <ns3:TrackPointExtension>
            <ns3:atemp>20.0</ns3:atemp>
          </ns3:TrackPointExtension>
        </extensions>
      </trkpt>
      <trkpt lat="42.59667593054473400115966796875" lon="19.99318758957087993621826171875">
        <ele>1437.4000244140625</ele>
        <time>2026-06-15T14:50:27.000Z</time>
        <extensions>
          <ns3:TrackPointExtension>
            <ns3:atemp>20.0</ns3:atemp>
          </ns3:TrackPointExtension>
        </extensions>
      </trkpt>
      <trkpt lat="42.59667593054473400115966796875" lon="19.99318758957087993621826171875">
        <ele>1437.199951171875</ele>
        <time>2026-06-15T14:50:28.000Z</time>
        <extensions>
          <ns3:TrackPointExtension>
            <ns3:atemp>20.0</ns3:atemp>
          </ns3:TrackPointExtension>
        </extensions>
      </trkpt>
      <trkpt lat="42.59667609818279743194580078125" lon="19.99318758957087993621826171875">
        <ele>1437</ele>
        <time>2026-06-15T14:50:29.000Z</time>
        <extensions>
          <ns3:TrackPointExtension>
            <ns3:atemp>20.0</ns3:atemp>
          </ns3:TrackPointExtension>
        </extensions>
      </trkpt>
      <trkpt lat="42.59668582119047641754150390625" lon="19.99318993650376796722412109375">
        <ele>1436.800048828125</ele>
        <time>2026-06-15T14:50:30.000Z</time>
        <extensions>
          <ns3:TrackPointExtension>
            <ns3:atemp>21.0</ns3:atemp>
          </ns3:TrackPointExtension>
        </extensions>
      </trkpt>
      <trkpt lat="42.5966912694275379180908203125" lon="19.99318800866603851318359375">
        <ele>1436.5999755859375</ele>
        <time>2026-06-15T14:50:31.000Z</time>
        <extensions>
          <ns3:TrackPointExtension>
            <ns3:atemp>21.0</ns3:atemp>
          </ns3:TrackPointExtension>
        </extensions>
      </trkpt>
      <trkpt lat="42.59669805876910686492919921875" lon="19.9931921996176242828369140625">
        <ele>1436.4000244140625</ele>
        <time>2026-06-15T14:50:32.000Z</time>
        <extensions>
          <ns3:TrackPointExtension>
            <ns3:atemp>21.0</ns3:atemp>
          </ns3:TrackPointExtension>
        </extensions>
      </trkpt>
      <trkpt lat="42.59669772349298000335693359375" lon="19.99319261871278285980224609375">
        <ele>1436.199951171875</ele>
        <time>2026-06-15T14:50:33.000Z</time>
        <extensions>
          <ns3:TrackPointExtension>
            <ns3:atemp>21.0</ns3:atemp>
          </ns3:TrackPointExtension>
        </extensions>
      </trkpt>
      <trkpt lat="42.59669252671301364898681640625" lon="19.99318708665668964385986328125">
        <ele>1436</ele>
        <time>2026-06-15T14:50:34.000Z</time>
        <extensions>
          <ns3:TrackPointExtension>
            <ns3:atemp>21.0</ns3:atemp>
          </ns3:TrackPointExtension>
        </extensions>
      </trkpt>
      <trkpt lat="42.59669244289398193359375" lon="19.99318708665668964385986328125">
        <ele>1436</ele>
        <time>2026-06-15T14:50:35.000Z</time>
        <extensions>
          <ns3:TrackPointExtension>
            <ns3:atemp>20.0</ns3:atemp>
          </ns3:TrackPointExtension>
        </extensions>
      </trkpt>
      <trkpt lat="42.59669244289398193359375" lon="19.99318708665668964385986328125">
        <ele>1436</ele>
        <time>2026-06-15T14:50:36.000Z</time>
        <extensions>
          <ns3:TrackPointExtension>
            <ns3:atemp>21.0</ns3:atemp>
          </ns3:TrackPointExtension>
        </extensions>
      </trkpt>
      <trkpt lat="42.59669235907495021820068359375" lon="19.9931871704757213592529296875">
        <ele>1436</ele>
        <time>2026-06-15T14:50:37.000Z</time>
        <extensions>
          <ns3:TrackPointExtension>
            <ns3:atemp>20.0</ns3:atemp>
          </ns3:TrackPointExtension>
        </extensions>
      </trkpt>
      <trkpt lat="42.59668850339949131011962890625" lon="19.99319697730243206024169921875">
        <ele>1436.199951171875</ele>
        <time>2026-06-15T14:50:38.000Z</time>
        <extensions>
          <ns3:TrackPointExtension>
            <ns3:atemp>20.0</ns3:atemp>
          </ns3:TrackPointExtension>
        </extensions>
      </trkpt>
      <trkpt lat="42.59668783284723758697509765625" lon="19.99321038834750652313232421875">
        <ele>1436</ele>
        <time>2026-06-15T14:50:39.000Z</time>
        <extensions>
          <ns3:TrackPointExtension>
            <ns3:atemp>20.0</ns3:atemp>
          </ns3:TrackPointExtension>
        </extensions>
      </trkpt>
      <trkpt lat="42.59669043123722076416015625" lon="19.99322346411645412445068359375">
        <ele>1436</ele>
        <time>2026-06-15T14:50:40.000Z</time>
        <extensions>
          <ns3:TrackPointExtension>
            <ns3:atemp>21.0</ns3:atemp>
          </ns3:TrackPointExtension>
        </extensions>
      </trkpt>
      <trkpt lat="42.59669135324656963348388671875" lon="19.9932364560663700103759765625">
        <ele>1435.800048828125</ele>
        <time>2026-06-15T14:50:41.000Z</time>
        <extensions>
          <ns3:TrackPointExtension>
            <ns3:atemp>21.0</ns3:atemp>
          </ns3:TrackPointExtension>
        </extensions>
      </trkpt>
      <trkpt lat="42.596692107617855072021484375" lon="19.99324307776987552642822265625">
        <ele>1435.5999755859375</ele>
        <time>2026-06-15T14:50:42.000Z</time>
        <extensions>
          <ns3:TrackPointExtension>
            <ns3:atemp>21.0</ns3:atemp>
          </ns3:TrackPointExtension>
        </extensions>
      </trkpt>
      <trkpt lat="42.59669705294072628021240234375" lon="19.99324961565434932708740234375">
        <ele>1435.4000244140625</ele>
        <time>2026-06-15T14:50:43.000Z</time>
        <extensions>
          <ns3:TrackPointExtension>
            <ns3:atemp>21.0</ns3:atemp>
          </ns3:TrackPointExtension>
        </extensions>
      </trkpt>
      <trkpt lat="42.59670409373939037322998046875" lon="19.99325749464333057403564453125">
        <ele>1435.199951171875</ele>
        <time>2026-06-15T14:50:44.000Z</time>
        <extensions>
          <ns3:TrackPointExtension>
            <ns3:atemp>21.0</ns3:atemp>
          </ns3:TrackPointExtension>
        </extensions>
      </trkpt>
      <trkpt lat="42.59670761413872241973876953125" lon="19.9932572431862354278564453125">
        <ele>1435</ele>
        <time>2026-06-15T14:50:45.000Z</time>
        <extensions>
          <ns3:TrackPointExtension>
            <ns3:atemp>21.0</ns3:atemp>
          </ns3:TrackPointExtension>
        </extensions>
      </trkpt>
      <trkpt lat="42.59671079926192760467529296875" lon="19.993262104690074920654296875">
        <ele>1435</ele>
        <time>2026-06-15T14:50:46.000Z</time>
        <extensions>
          <ns3:TrackPointExtension>
            <ns3:atemp>21.0</ns3:atemp>
          </ns3:TrackPointExtension>
        </extensions>
      </trkpt>
      <trkpt lat="42.596716918051242828369140625" lon="19.9932673014700412750244140625">
        <ele>1435</ele>
        <time>2026-06-15T14:50:47.000Z</time>
        <extensions>
          <ns3:TrackPointExtension>
            <ns3:atemp>21.0</ns3:atemp>
          </ns3:TrackPointExtension>
        </extensions>
      </trkpt>
      <trkpt lat="42.59671918116509914398193359375" lon="19.99327425844967365264892578125">
        <ele>1435</ele>
        <time>2026-06-15T14:50:48.000Z</time>
        <extensions>
          <ns3:TrackPointExtension>
            <ns3:atemp>21.0</ns3:atemp>
          </ns3:TrackPointExtension>
        </extensions>
      </trkpt>
      <trkpt lat="42.5967234559357166290283203125" lon="19.99328414909541606903076171875">
        <ele>1435</ele>
        <time>2026-06-15T14:50:49.000Z</time>
        <extensions>
          <ns3:TrackPointExtension>
            <ns3:atemp>21.0</ns3:atemp>
          </ns3:TrackPointExtension>
        </extensions>
      </trkpt>
      <trkpt lat="42.59672219865024089813232421875" lon="19.99329135753214359283447265625">
        <ele>1434.800048828125</ele>
        <time>2026-06-15T14:50:50.000Z</time>
        <extensions>
          <ns3:TrackPointExtension>
            <ns3:atemp>21.0</ns3:atemp>
          </ns3:TrackPointExtension>
        </extensions>
      </trkpt>
      <trkpt lat="42.59672219865024089813232421875" lon="19.9932914413511753082275390625">
        <ele>1434.800048828125</ele>
        <time>2026-06-15T14:50:51.000Z</time>
        <extensions>
          <ns3:TrackPointExtension>
            <ns3:atemp>21.0</ns3:atemp>
          </ns3:TrackPointExtension>
        </extensions>
      </trkpt>
      <trkpt lat="42.59672219865024089813232421875" lon="19.9932914413511753082275390625">
        <ele>1434.5999755859375</ele>
        <time>2026-06-15T14:50:52.000Z</time>
        <extensions>
          <ns3:TrackPointExtension>
            <ns3:atemp>21.0</ns3:atemp>
          </ns3:TrackPointExtension>
        </extensions>
      </trkpt>
      <trkpt lat="42.59672219865024089813232421875" lon="19.9932914413511753082275390625">
        <ele>1434.4000244140625</ele>
        <time>2026-06-15T14:50:53.000Z</time>
        <extensions>
          <ns3:TrackPointExtension>
            <ns3:atemp>21.0</ns3:atemp>
          </ns3:TrackPointExtension>
        </extensions>
      </trkpt>
      <trkpt lat="42.59672219865024089813232421875" lon="19.9932914413511753082275390625">
        <ele>1434.199951171875</ele>
        <time>2026-06-15T14:50:54.000Z</time>
        <extensions>
          <ns3:TrackPointExtension>
            <ns3:atemp>21.0</ns3:atemp>
          </ns3:TrackPointExtension>
        </extensions>
      </trkpt>
      <trkpt lat="42.59672219865024089813232421875" lon="19.9932914413511753082275390625">
        <ele>1434</ele>
        <time>2026-06-15T14:50:55.000Z</time>
        <extensions>
          <ns3:TrackPointExtension>
            <ns3:atemp>21.0</ns3:atemp>
          </ns3:TrackPointExtension>
        </extensions>
      </trkpt>
      <trkpt lat="42.59672219865024089813232421875" lon="19.9932914413511753082275390625">
        <ele>1433.800048828125</ele>
        <time>2026-06-15T14:50:56.000Z</time>
        <extensions>
          <ns3:TrackPointExtension>
            <ns3:atemp>21.0</ns3:atemp>
          </ns3:TrackPointExtension>
        </extensions>
      </trkpt>
      <trkpt lat="42.59672219865024089813232421875" lon="19.9932914413511753082275390625">
        <ele>1433.800048828125</ele>
        <time>2026-06-15T14:50:57.000Z</time>
        <extensions>
          <ns3:TrackPointExtension>
            <ns3:atemp>21.0</ns3:atemp>
          </ns3:TrackPointExtension>
        </extensions>
      </trkpt>
      <trkpt lat="42.59672219865024089813232421875" lon="19.9932914413511753082275390625">
        <ele>1433.800048828125</ele>
        <time>2026-06-15T14:50:58.000Z</time>
        <extensions>
          <ns3:TrackPointExtension>
            <ns3:atemp>21.0</ns3:atemp>
          </ns3:TrackPointExtension>
        </extensions>
      </trkpt>
      <trkpt lat="42.59672219865024089813232421875" lon="19.9932914413511753082275390625">
        <ele>1433.800048828125</ele>
        <time>2026-06-15T14:50:59.000Z</time>
        <extensions>
          <ns3:TrackPointExtension>
            <ns3:atemp>21.0</ns3:atemp>
          </ns3:TrackPointExtension>
        </extensions>
      </trkpt>
      <trkpt lat="42.59672219865024089813232421875" lon="19.9932914413511753082275390625">
        <ele>1433.800048828125</ele>
        <time>2026-06-15T14:51:00.000Z</time>
        <extensions>
          <ns3:TrackPointExtension>
            <ns3:atemp>21.0</ns3:atemp>
          </ns3:TrackPointExtension>
        </extensions>
      </trkpt>
      <trkpt lat="42.59672219865024089813232421875" lon="19.9932914413511753082275390625">
        <ele>1433.5999755859375</ele>
        <time>2026-06-15T14:51:01.000Z</time>
        <extensions>
          <ns3:TrackPointExtension>
            <ns3:atemp>21.0</ns3:atemp>
          </ns3:TrackPointExtension>
        </extensions>
      </trkpt>
      <trkpt lat="42.59672219865024089813232421875" lon="19.9932914413511753082275390625">
        <ele>1433.5999755859375</ele>
        <time>2026-06-15T14:51:02.000Z</time>
        <extensions>
          <ns3:TrackPointExtension>
            <ns3:atemp>21.0</ns3:atemp>
          </ns3:TrackPointExtension>
        </extensions>
      </trkpt>
      <trkpt lat="42.59672219865024089813232421875" lon="19.9932914413511753082275390625">
        <ele>1433.5999755859375</ele>
        <time>2026-06-15T14:51:03.000Z</time>
        <extensions>
          <ns3:TrackPointExtension>
            <ns3:atemp>21.0</ns3:atemp>
          </ns3:TrackPointExtension>
        </extensions>
      </trkpt>
      <trkpt lat="42.59672219865024089813232421875" lon="19.9932914413511753082275390625">
        <ele>1433.5999755859375</ele>
        <time>2026-06-15T14:51:04.000Z</time>
        <extensions>
          <ns3:TrackPointExtension>
            <ns3:atemp>21.0</ns3:atemp>
          </ns3:TrackPointExtension>
        </extensions>
      </trkpt>
      <trkpt lat="42.59672219865024089813232421875" lon="19.9932914413511753082275390625">
        <ele>1433.5999755859375</ele>
        <time>2026-06-15T14:51:05.000Z</time>
        <extensions>
          <ns3:TrackPointExtension>
            <ns3:atemp>21.0</ns3:atemp>
          </ns3:TrackPointExtension>
        </extensions>
      </trkpt>
      <trkpt lat="42.59672219865024089813232421875" lon="19.9932914413511753082275390625">
        <ele>1433.5999755859375</ele>
        <time>2026-06-15T14:51:06.000Z</time>
        <extensions>
          <ns3:TrackPointExtension>
            <ns3:atemp>21.0</ns3:atemp>
          </ns3:TrackPointExtension>
        </extensions>
      </trkpt>
      <trkpt lat="42.59672219865024089813232421875" lon="19.9932914413511753082275390625">
        <ele>1433.5999755859375</ele>
        <time>2026-06-15T14:51:07.000Z</time>
        <extensions>
          <ns3:TrackPointExtension>
            <ns3:atemp>21.0</ns3:atemp>
          </ns3:TrackPointExtension>
        </extensions>
      </trkpt>
      <trkpt lat="42.59672219865024089813232421875" lon="19.9932914413511753082275390625">
        <ele>1433.5999755859375</ele>
        <time>2026-06-15T14:51:08.000Z</time>
        <extensions>
          <ns3:TrackPointExtension>
            <ns3:atemp>21.0</ns3:atemp>
          </ns3:TrackPointExtension>
        </extensions>
      </trkpt>
      <trkpt lat="42.59672219865024089813232421875" lon="19.9932914413511753082275390625">
        <ele>1433.800048828125</ele>
        <time>2026-06-15T14:51:09.000Z</time>
        <extensions>
          <ns3:TrackPointExtension>
            <ns3:atemp>21.0</ns3:atemp>
          </ns3:TrackPointExtension>
        </extensions>
      </trkpt>
      <trkpt lat="42.59672219865024089813232421875" lon="19.9932914413511753082275390625">
        <ele>1433.800048828125</ele>
        <time>2026-06-15T14:51:10.000Z</time>
        <extensions>
          <ns3:TrackPointExtension>
            <ns3:atemp>21.0</ns3:atemp>
          </ns3:TrackPointExtension>
        </extensions>
      </trkpt>
      <trkpt lat="42.59672219865024089813232421875" lon="19.9932914413511753082275390625">
        <ele>1433.800048828125</ele>
        <time>2026-06-15T14:51:11.000Z</time>
        <extensions>
          <ns3:TrackPointExtension>
            <ns3:atemp>21.0</ns3:atemp>
          </ns3:TrackPointExtension>
        </extensions>
      </trkpt>
      <trkpt lat="42.59672219865024089813232421875" lon="19.9932914413511753082275390625">
        <ele>1433.800048828125</ele>
        <time>2026-06-15T14:51:12.000Z</time>
        <extensions>
          <ns3:TrackPointExtension>
            <ns3:atemp>21.0</ns3:atemp>
          </ns3:TrackPointExtension>
        </extensions>
      </trkpt>
      <trkpt lat="42.59672219865024089813232421875" lon="19.9932914413511753082275390625">
        <ele>1433.5999755859375</ele>
        <time>2026-06-15T14:51:13.000Z</time>
        <extensions>
          <ns3:TrackPointExtension>
            <ns3:atemp>21.0</ns3:atemp>
          </ns3:TrackPointExtension>
        </extensions>
      </trkpt>
      <trkpt lat="42.59672219865024089813232421875" lon="19.9932914413511753082275390625">
        <ele>1433.800048828125</ele>
        <time>2026-06-15T14:51:14.000Z</time>
        <extensions>
          <ns3:TrackPointExtension>
            <ns3:atemp>21.0</ns3:atemp>
          </ns3:TrackPointExtension>
        </extensions>
      </trkpt>
      <trkpt lat="42.59672219865024089813232421875" lon="19.9932914413511753082275390625">
        <ele>1433.800048828125</ele>
        <time>2026-06-15T14:51:15.000Z</time>
        <extensions>
          <ns3:TrackPointExtension>
            <ns3:atemp>21.0</ns3:atemp>
          </ns3:TrackPointExtension>
        </extensions>
      </trkpt>
      <trkpt lat="42.59672219865024089813232421875" lon="19.9932914413511753082275390625">
        <ele>1433.800048828125</ele>
        <time>2026-06-15T14:51:16.000Z</time>
        <extensions>
          <ns3:TrackPointExtension>
            <ns3:atemp>21.0</ns3:atemp>
          </ns3:TrackPointExtension>
        </extensions>
      </trkpt>
      <trkpt lat="42.59672219865024089813232421875" lon="19.9932914413511753082275390625">
        <ele>1433.800048828125</ele>
        <time>2026-06-15T14:51:17.000Z</time>
        <extensions>
          <ns3:TrackPointExtension>
            <ns3:atemp>21.0</ns3:atemp>
          </ns3:TrackPointExtension>
        </extensions>
      </trkpt>
      <trkpt lat="42.59672219865024089813232421875" lon="19.9932914413511753082275390625">
        <ele>1433.800048828125</ele>
        <time>2026-06-15T14:51:18.000Z</time>
        <extensions>
          <ns3:TrackPointExtension>
            <ns3:atemp>21.0</ns3:atemp>
          </ns3:TrackPointExtension>
        </extensions>
      </trkpt>
      <trkpt lat="42.59672219865024089813232421875" lon="19.9932914413511753082275390625">
        <ele>1433.800048828125</ele>
        <time>2026-06-15T14:51:19.000Z</time>
        <extensions>
          <ns3:TrackPointExtension>
            <ns3:atemp>21.0</ns3:atemp>
          </ns3:TrackPointExtension>
        </extensions>
      </trkpt>
      <trkpt lat="42.59672219865024089813232421875" lon="19.9932914413511753082275390625">
        <ele>1433.800048828125</ele>
        <time>2026-06-15T14:51:20.000Z</time>
        <extensions>
          <ns3:TrackPointExtension>
            <ns3:atemp>21.0</ns3:atemp>
          </ns3:TrackPointExtension>
        </extensions>
      </trkpt>
      <trkpt lat="42.59672219865024089813232421875" lon="19.9932914413511753082275390625">
        <ele>1433.5999755859375</ele>
        <time>2026-06-15T14:51:21.000Z</time>
        <extensions>
          <ns3:TrackPointExtension>
            <ns3:atemp>21.0</ns3:atemp>
          </ns3:TrackPointExtension>
        </extensions>
      </trkpt>
      <trkpt lat="42.59672219865024089813232421875" lon="19.9932914413511753082275390625">
        <ele>1433.5999755859375</ele>
        <time>2026-06-15T14:51:22.000Z</time>
        <extensions>
          <ns3:TrackPointExtension>
            <ns3:atemp>21.0</ns3:atemp>
          </ns3:TrackPointExtension>
        </extensions>
      </trkpt>
      <trkpt lat="42.59672219865024089813232421875" lon="19.9932914413511753082275390625">
        <ele>1433.5999755859375</ele>
        <time>2026-06-15T14:51:23.000Z</time>
        <extensions>
          <ns3:TrackPointExtension>
            <ns3:atemp>21.0</ns3:atemp>
          </ns3:TrackPointExtension>
        </extensions>
      </trkpt>
      <trkpt lat="42.59672219865024089813232421875" lon="19.9932914413511753082275390625">
        <ele>1433.5999755859375</ele>
        <time>2026-06-15T14:51:24.000Z</time>
        <extensions>
          <ns3:TrackPointExtension>
            <ns3:atemp>21.0</ns3:atemp>
          </ns3:TrackPointExtension>
        </extensions>
      </trkpt>
      <trkpt lat="42.59672219865024089813232421875" lon="19.9932914413511753082275390625">
        <ele>1433.4000244140625</ele>
        <time>2026-06-15T14:51:25.000Z</time>
        <extensions>
          <ns3:TrackPointExtension>
            <ns3:atemp>21.0</ns3:atemp>
          </ns3:TrackPointExtension>
        </extensions>
      </trkpt>
      <trkpt lat="42.59672219865024089813232421875" lon="19.9932914413511753082275390625">
        <ele>1433.4000244140625</ele>
        <time>2026-06-15T14:51:26.000Z</time>
        <extensions>
          <ns3:TrackPointExtension>
            <ns3:atemp>21.0</ns3:atemp>
          </ns3:TrackPointExtension>
        </extensions>
      </trkpt>
      <trkpt lat="42.59672219865024089813232421875" lon="19.9932914413511753082275390625">
        <ele>1433.199951171875</ele>
        <time>2026-06-15T14:51:27.000Z</time>
        <extensions>
          <ns3:TrackPointExtension>
            <ns3:atemp>21.0</ns3:atemp>
          </ns3:TrackPointExtension>
        </extensions>
      </trkpt>
      <trkpt lat="42.59672219865024089813232421875" lon="19.9932914413511753082275390625">
        <ele>1433.199951171875</ele>
        <time>2026-06-15T14:51:28.000Z</time>
        <extensions>
          <ns3:TrackPointExtension>
            <ns3:atemp>21.0</ns3:atemp>
          </ns3:TrackPointExtension>
        </extensions>
      </trkpt>
      <trkpt lat="42.59672219865024089813232421875" lon="19.9932914413511753082275390625">
        <ele>1433.199951171875</ele>
        <time>2026-06-15T14:51:29.000Z</time>
        <extensions>
          <ns3:TrackPointExtension>
            <ns3:atemp>21.0</ns3:atemp>
          </ns3:TrackPointExtension>
        </extensions>
      </trkpt>
      <trkpt lat="42.59672219865024089813232421875" lon="19.9932914413511753082275390625">
        <ele>1433.199951171875</ele>
        <time>2026-06-15T14:51:30.000Z</time>
        <extensions>
          <ns3:TrackPointExtension>
            <ns3:atemp>21.0</ns3:atemp>
          </ns3:TrackPointExtension>
        </extensions>
      </trkpt>
      <trkpt lat="42.59672219865024089813232421875" lon="19.9932914413511753082275390625">
        <ele>1433.199951171875</ele>
        <time>2026-06-15T14:51:31.000Z</time>
        <extensions>
          <ns3:TrackPointExtension>
            <ns3:atemp>21.0</ns3:atemp>
          </ns3:TrackPointExtension>
        </extensions>
      </trkpt>
      <trkpt lat="42.59672219865024089813232421875" lon="19.9932914413511753082275390625">
        <ele>1433</ele>
        <time>2026-06-15T14:51:32.000Z</time>
        <extensions>
          <ns3:TrackPointExtension>
            <ns3:atemp>21.0</ns3:atemp>
          </ns3:TrackPointExtension>
        </extensions>
      </trkpt>
      <trkpt lat="42.59672219865024089813232421875" lon="19.9932914413511753082275390625">
        <ele>1433</ele>
        <time>2026-06-15T14:51:33.000Z</time>
        <extensions>
          <ns3:TrackPointExtension>
            <ns3:atemp>21.0</ns3:atemp>
          </ns3:TrackPointExtension>
        </extensions>
      </trkpt>
      <trkpt lat="42.59672219865024089813232421875" lon="19.9932914413511753082275390625">
        <ele>1433</ele>
        <time>2026-06-15T14:51:34.000Z</time>
        <extensions>
          <ns3:TrackPointExtension>
            <ns3:atemp>21.0</ns3:atemp>
          </ns3:TrackPointExtension>
        </extensions>
      </trkpt>
      <trkpt lat="42.59672219865024089813232421875" lon="19.9932914413511753082275390625">
        <ele>1433</ele>
        <time>2026-06-15T14:51:35.000Z</time>
        <extensions>
          <ns3:TrackPointExtension>
            <ns3:atemp>21.0</ns3:atemp>
          </ns3:TrackPointExtension>
        </extensions>
      </trkpt>
      <trkpt lat="42.59672219865024089813232421875" lon="19.9932914413511753082275390625">
        <ele>1433</ele>
        <time>2026-06-15T14:51:36.000Z</time>
        <extensions>
          <ns3:TrackPointExtension>
            <ns3:atemp>21.0</ns3:atemp>
          </ns3:TrackPointExtension>
        </extensions>
      </trkpt>
      <trkpt lat="42.59672219865024089813232421875" lon="19.9932914413511753082275390625">
        <ele>1433</ele>
        <time>2026-06-15T14:51:37.000Z</time>
        <extensions>
          <ns3:TrackPointExtension>
            <ns3:atemp>21.0</ns3:atemp>
          </ns3:TrackPointExtension>
        </extensions>
      </trkpt>
      <trkpt lat="42.59672219865024089813232421875" lon="19.9932914413511753082275390625">
        <ele>1432.800048828125</ele>
        <time>2026-06-15T14:51:38.000Z</time>
        <extensions>
          <ns3:TrackPointExtension>
            <ns3:atemp>21.0</ns3:atemp>
          </ns3:TrackPointExtension>
        </extensions>
      </trkpt>
      <trkpt lat="42.59672219865024089813232421875" lon="19.9932914413511753082275390625">
        <ele>1432.800048828125</ele>
        <time>2026-06-15T14:51:39.000Z</time>
        <extensions>
          <ns3:TrackPointExtension>
            <ns3:atemp>21.0</ns3:atemp>
          </ns3:TrackPointExtension>
        </extensions>
      </trkpt>
      <trkpt lat="42.59672219865024089813232421875" lon="19.9932914413511753082275390625">
        <ele>1432.5999755859375</ele>
        <time>2026-06-15T14:51:40.000Z</time>
        <extensions>
          <ns3:TrackPointExtension>
            <ns3:atemp>21.0</ns3:atemp>
          </ns3:TrackPointExtension>
        </extensions>
      </trkpt>
      <trkpt lat="42.59672219865024089813232421875" lon="19.9932914413511753082275390625">
        <ele>1432.5999755859375</ele>
        <time>2026-06-15T14:51:41.000Z</time>
        <extensions>
          <ns3:TrackPointExtension>
            <ns3:atemp>21.0</ns3:atemp>
          </ns3:TrackPointExtension>
        </extensions>
      </trkpt>
      <trkpt lat="42.59672219865024089813232421875" lon="19.9932914413511753082275390625">
        <ele>1432.5999755859375</ele>
        <time>2026-06-15T14:51:42.000Z</time>
        <extensions>
          <ns3:TrackPointExtension>
            <ns3:atemp>21.0</ns3:atemp>
          </ns3:TrackPointExtension>
        </extensions>
      </trkpt>
      <trkpt lat="42.59672219865024089813232421875" lon="19.9932914413511753082275390625">
        <ele>1432.5999755859375</ele>
        <time>2026-06-15T14:51:43.000Z</time>
        <extensions>
          <ns3:TrackPointExtension>
            <ns3:atemp>21.0</ns3:atemp>
          </ns3:TrackPointExtension>
        </extensions>
      </trkpt>
      <trkpt lat="42.59672219865024089813232421875" lon="19.9932914413511753082275390625">
        <ele>1432.5999755859375</ele>
        <time>2026-06-15T14:51:44.000Z</time>
        <extensions>
          <ns3:TrackPointExtension>
            <ns3:atemp>21.0</ns3:atemp>
          </ns3:TrackPointExtension>
        </extensions>
      </trkpt>
      <trkpt lat="42.59672219865024089813232421875" lon="19.9932914413511753082275390625">
        <ele>1432.5999755859375</ele>
        <time>2026-06-15T14:51:45.000Z</time>
        <extensions>
          <ns3:TrackPointExtension>
            <ns3:atemp>21.0</ns3:atemp>
          </ns3:TrackPointExtension>
        </extensions>
      </trkpt>
      <trkpt lat="42.59672219865024089813232421875" lon="19.9932914413511753082275390625">
        <ele>1432.800048828125</ele>
        <time>2026-06-15T14:51:46.000Z</time>
        <extensions>
          <ns3:TrackPointExtension>
            <ns3:atemp>21.0</ns3:atemp>
          </ns3:TrackPointExtension>
        </extensions>
      </trkpt>
      <trkpt lat="42.59672404266893863677978515625" lon="19.99329336918890476226806640625">
        <ele>1433</ele>
        <time>2026-06-15T14:51:47.000Z</time>
        <extensions>
          <ns3:TrackPointExtension>
            <ns3:atemp>21.0</ns3:atemp>
          </ns3:TrackPointExtension>
        </extensions>
      </trkpt>
      <trkpt lat="42.59674047119915485382080078125" lon="19.9933189339935779571533203125">
        <ele>1433</ele>
        <time>2026-06-15T14:51:48.000Z</time>
        <extensions>
          <ns3:TrackPointExtension>
            <ns3:atemp>21.0</ns3:atemp>
          </ns3:TrackPointExtension>
        </extensions>
      </trkpt>
      <trkpt lat="42.5967576541006565093994140625" lon="19.99334600754082202911376953125">
        <ele>1433</ele>
        <time>2026-06-15T14:51:49.000Z</time>
        <extensions>
          <ns3:TrackPointExtension>
            <ns3:atemp>21.0</ns3:atemp>
          </ns3:TrackPointExtension>
        </extensions>
      </trkpt>
      <trkpt lat="42.596780955791473388671875" lon="19.99335723929107189178466796875">
        <ele>1433</ele>
        <time>2026-06-15T14:51:50.000Z</time>
        <extensions>
          <ns3:TrackPointExtension>
            <ns3:atemp>21.0</ns3:atemp>
          </ns3:TrackPointExtension>
        </extensions>
      </trkpt>
      <trkpt lat="42.59680132381618022918701171875" lon="19.9933497793972492218017578125">
        <ele>1432.800048828125</ele>
        <time>2026-06-15T14:51:51.000Z</time>
        <extensions>
          <ns3:TrackPointExtension>
            <ns3:atemp>21.0</ns3:atemp>
          </ns3:TrackPointExtension>
        </extensions>
      </trkpt>
      <trkpt lat="42.5968196801841259002685546875" lon="19.99332941137254238128662109375">
        <ele>1432.199951171875</ele>
        <time>2026-06-15T14:51:52.000Z</time>
        <extensions>
          <ns3:TrackPointExtension>
            <ns3:atemp>21.0</ns3:atemp>
          </ns3:TrackPointExtension>
        </extensions>
      </trkpt>
      <trkpt lat="42.59683216921985149383544921875" lon="19.9933135695755481719970703125">
        <ele>1431.800048828125</ele>
        <time>2026-06-15T14:51:53.000Z</time>
        <extensions>
          <ns3:TrackPointExtension>
            <ns3:atemp>21.0</ns3:atemp>
          </ns3:TrackPointExtension>
        </extensions>
      </trkpt>
      <trkpt lat="42.5968372821807861328125" lon="19.99331281520426273345947265625">
        <ele>1431.5999755859375</ele>
        <time>2026-06-15T14:51:54.000Z</time>
        <extensions>
          <ns3:TrackPointExtension>
            <ns3:atemp>21.0</ns3:atemp>
          </ns3:TrackPointExtension>
        </extensions>
      </trkpt>
      <trkpt lat="42.59683929383754730224609375" lon="19.99331097118556499481201171875">
        <ele>1431.4000244140625</ele>
        <time>2026-06-15T14:51:55.000Z</time>
        <extensions>
          <ns3:TrackPointExtension>
            <ns3:atemp>21.0</ns3:atemp>
          </ns3:TrackPointExtension>
        </extensions>
      </trkpt>
      <trkpt lat="42.59683929383754730224609375" lon="19.99331097118556499481201171875">
        <ele>1431.199951171875</ele>
        <time>2026-06-15T14:51:56.000Z</time>
        <extensions>
          <ns3:TrackPointExtension>
            <ns3:atemp>21.0</ns3:atemp>
          </ns3:TrackPointExtension>
        </extensions>
      </trkpt>
      <trkpt lat="42.59683929383754730224609375" lon="19.99331097118556499481201171875">
        <ele>1431.199951171875</ele>
        <time>2026-06-15T14:51:57.000Z</time>
        <extensions>
          <ns3:TrackPointExtension>
            <ns3:atemp>21.0</ns3:atemp>
          </ns3:TrackPointExtension>
        </extensions>
      </trkpt>
      <trkpt lat="42.59683929383754730224609375" lon="19.99331097118556499481201171875">
        <ele>1431.199951171875</ele>
        <time>2026-06-15T14:51:58.000Z</time>
        <extensions>
          <ns3:TrackPointExtension>
            <ns3:atemp>21.0</ns3:atemp>
          </ns3:TrackPointExtension>
        </extensions>
      </trkpt>
      <trkpt lat="42.59683929383754730224609375" lon="19.99331097118556499481201171875">
        <ele>1431.4000244140625</ele>
        <time>2026-06-15T14:51:59.000Z</time>
        <extensions>
          <ns3:TrackPointExtension>
            <ns3:atemp>21.0</ns3:atemp>
          </ns3:TrackPointExtension>
        </extensions>
      </trkpt>
      <trkpt lat="42.59683929383754730224609375" lon="19.99331097118556499481201171875">
        <ele>1431.4000244140625</ele>
        <time>2026-06-15T14:52:00.000Z</time>
        <extensions>
          <ns3:TrackPointExtension>
            <ns3:atemp>21.0</ns3:atemp>
          </ns3:TrackPointExtension>
        </extensions>
      </trkpt>
      <trkpt lat="42.59683929383754730224609375" lon="19.99331097118556499481201171875">
        <ele>1431.199951171875</ele>
        <time>2026-06-15T14:52:01.000Z</time>
        <extensions>
          <ns3:TrackPointExtension>
            <ns3:atemp>21.0</ns3:atemp>
          </ns3:TrackPointExtension>
        </extensions>
      </trkpt>
      <trkpt lat="42.59683929383754730224609375" lon="19.99331097118556499481201171875">
        <ele>1431.199951171875</ele>
        <time>2026-06-15T14:52:02.000Z</time>
        <extensions>
          <ns3:TrackPointExtension>
            <ns3:atemp>21.0</ns3:atemp>
          </ns3:TrackPointExtension>
        </extensions>
      </trkpt>
      <trkpt lat="42.59683929383754730224609375" lon="19.99331097118556499481201171875">
        <ele>1431</ele>
        <time>2026-06-15T14:52:03.000Z</time>
        <extensions>
          <ns3:TrackPointExtension>
            <ns3:atemp>21.0</ns3:atemp>
          </ns3:TrackPointExtension>
        </extensions>
      </trkpt>
      <trkpt lat="42.59683971293270587921142578125" lon="19.9933115579187870025634765625">
        <ele>1431</ele>
        <time>2026-06-15T14:52:04.000Z</time>
        <extensions>
          <ns3:TrackPointExtension>
            <ns3:atemp>21.0</ns3:atemp>
          </ns3:TrackPointExtension>
        </extensions>
      </trkpt>
      <trkpt lat="42.59685614146292209625244140625" lon="19.99329253099858760833740234375">
        <ele>1431</ele>
        <time>2026-06-15T14:52:05.000Z</time>
        <extensions>
          <ns3:TrackPointExtension>
            <ns3:atemp>21.0</ns3:atemp>
          </ns3:TrackPointExtension>
        </extensions>
      </trkpt>
      <trkpt lat="42.59686854667961597442626953125" lon="19.9932569079101085662841796875">
        <ele>1430.800048828125</ele>
        <time>2026-06-15T14:52:06.000Z</time>
        <extensions>
          <ns3:TrackPointExtension>
            <ns3:atemp>21.0</ns3:atemp>
          </ns3:TrackPointExtension>
        </extensions>
      </trkpt>
      <trkpt lat="42.5968761742115020751953125" lon="19.99320468865334987640380859375">
        <ele>1430.4000244140625</ele>
        <time>2026-06-15T14:52:07.000Z</time>
        <extensions>
          <ns3:TrackPointExtension>
            <ns3:atemp>21.0</ns3:atemp>
          </ns3:TrackPointExtension>
        </extensions>
      </trkpt>
      <trkpt lat="42.59687290526926517486572265625" lon="19.9931553192436695098876953125">
        <ele>1430</ele>
        <time>2026-06-15T14:52:08.000Z</time>
        <extensions>
          <ns3:TrackPointExtension>
            <ns3:atemp>21.0</ns3:atemp>
          </ns3:TrackPointExtension>
        </extensions>
      </trkpt>
      <trkpt lat="42.596858404576778411865234375" lon="19.99309857375919818878173828125">
        <ele>1429.5999755859375</ele>
        <time>2026-06-15T14:52:09.000Z</time>
        <extensions>
          <ns3:TrackPointExtension>
            <ns3:atemp>21.0</ns3:atemp>
          </ns3:TrackPointExtension>
        </extensions>
      </trkpt>
      <trkpt lat="42.596839629113674163818359375" lon="19.9930349551141262054443359375">
        <ele>1428.800048828125</ele>
        <time>2026-06-15T14:52:10.000Z</time>
        <extensions>
          <ns3:TrackPointExtension>
            <ns3:atemp>21.0</ns3:atemp>
          </ns3:TrackPointExtension>
        </extensions>
      </trkpt>
      <trkpt lat="42.59682361967861652374267578125" lon="19.99296580441296100616455078125">
        <ele>1428.4000244140625</ele>
        <time>2026-06-15T14:52:11.000Z</time>
        <extensions>
          <ns3:TrackPointExtension>
            <ns3:atemp>21.0</ns3:atemp>
          </ns3:TrackPointExtension>
        </extensions>
      </trkpt>
      <trkpt lat="42.5968136452138423919677734375" lon="19.99289036728441715240478515625">
        <ele>1427.5999755859375</ele>
        <time>2026-06-15T14:52:12.000Z</time>
        <extensions>
          <ns3:TrackPointExtension>
            <ns3:atemp>21.0</ns3:atemp>
          </ns3:TrackPointExtension>
        </extensions>
      </trkpt>
      <trkpt lat="42.59680216200649738311767578125" lon="19.99281493015587329864501953125">
        <ele>1427</ele>
        <time>2026-06-15T14:52:13.000Z</time>
        <extensions>
          <ns3:TrackPointExtension>
            <ns3:atemp>21.0</ns3:atemp>
          </ns3:TrackPointExtension>
        </extensions>
      </trkpt>
      <trkpt lat="42.5967811234295368194580078125" lon="19.99274636618793010711669921875">
        <ele>1426</ele>
        <time>2026-06-15T14:52:14.000Z</time>
        <extensions>
          <ns3:TrackPointExtension>
            <ns3:atemp>21.0</ns3:atemp>
          </ns3:TrackPointExtension>
        </extensions>
      </trkpt>
      <trkpt lat="42.596755139529705047607421875" lon="19.9926804006099700927734375">
        <ele>1424.800048828125</ele>
        <time>2026-06-15T14:52:15.000Z</time>
        <extensions>
          <ns3:TrackPointExtension>
            <ns3:atemp>21.0</ns3:atemp>
          </ns3:TrackPointExtension>
        </extensions>
      </trkpt>
      <trkpt lat="42.59673527441918849945068359375" lon="19.99261929653584957122802734375">
        <ele>1423.800048828125</ele>
        <time>2026-06-15T14:52:16.000Z</time>
        <extensions>
          <ns3:TrackPointExtension>
            <ns3:atemp>21.0</ns3:atemp>
          </ns3:TrackPointExtension>
        </extensions>
      </trkpt>
      <trkpt lat="42.5967449136078357696533203125" lon="19.99256095848977565765380859375">
        <ele>1423</ele>
        <time>2026-06-15T14:52:17.000Z</time>
        <extensions>
          <ns3:TrackPointExtension>
            <ns3:atemp>21.0</ns3:atemp>
          </ns3:TrackPointExtension>
        </extensions>
      </trkpt>
      <trkpt lat="42.5967742502689361572265625" lon="19.9925179593265056610107421875">
        <ele>1422.199951171875</ele>
        <time>2026-06-15T14:52:18.000Z</time>
        <extensions>
          <ns3:TrackPointExtension>
            <ns3:atemp>21.0</ns3:atemp>
          </ns3:TrackPointExtension>
        </extensions>
      </trkpt>
      <trkpt lat="42.59681188501417636871337890625" lon="19.99250940978527069091796875">
        <ele>1421.4000244140625</ele>
        <time>2026-06-15T14:52:19.000Z</time>
        <extensions>
          <ns3:TrackPointExtension>
            <ns3:atemp>21.0</ns3:atemp>
          </ns3:TrackPointExtension>
        </extensions>
      </trkpt>
      <trkpt lat="42.59686217643320560455322265625" lon="19.9925275146961212158203125">
        <ele>1420.5999755859375</ele>
        <time>2026-06-15T14:52:20.000Z</time>
        <extensions>
          <ns3:TrackPointExtension>
            <ns3:atemp>21.0</ns3:atemp>
          </ns3:TrackPointExtension>
        </extensions>
      </trkpt>
      <trkpt lat="42.59692202322185039520263671875" lon="19.99254302121698856353759765625">
        <ele>1419.800048828125</ele>
        <time>2026-06-15T14:52:21.000Z</time>
        <extensions>
          <ns3:TrackPointExtension>
            <ns3:atemp>21.0</ns3:atemp>
          </ns3:TrackPointExtension>
        </extensions>
      </trkpt>
      <trkpt lat="42.596979774534702301025390625" lon="19.99254285357892513275146484375">
        <ele>1419</ele>
        <time>2026-06-15T14:52:22.000Z</time>
        <extensions>
          <ns3:TrackPointExtension>
            <ns3:atemp>21.0</ns3:atemp>
          </ns3:TrackPointExtension>
        </extensions>
      </trkpt>
      <trkpt lat="42.59703719057142734527587890625" lon="19.99255224131047725677490234375">
        <ele>1418</ele>
        <time>2026-06-15T14:52:23.000Z</time>
        <extensions>
          <ns3:TrackPointExtension>
            <ns3:atemp>21.0</ns3:atemp>
          </ns3:TrackPointExtension>
        </extensions>
      </trkpt>
      <trkpt lat="42.59709418751299381256103515625" lon="19.992547966539859771728515625">
        <ele>1417.199951171875</ele>
        <time>2026-06-15T14:52:24.000Z</time>
        <extensions>
          <ns3:TrackPointExtension>
            <ns3:atemp>21.0</ns3:atemp>
          </ns3:TrackPointExtension>
        </extensions>
      </trkpt>
      <trkpt lat="42.5971345044672489166259765625" lon="19.992526508867740631103515625">
        <ele>1416.4000244140625</ele>
        <time>2026-06-15T14:52:25.000Z</time>
        <extensions>
          <ns3:TrackPointExtension>
            <ns3:atemp>21.0</ns3:atemp>
          </ns3:TrackPointExtension>
        </extensions>
      </trkpt>
      <trkpt lat="42.597156465053558349609375" lon="19.99247713945806026458740234375">
        <ele>1415.4000244140625</ele>
        <time>2026-06-15T14:52:26.000Z</time>
        <extensions>
          <ns3:TrackPointExtension>
            <ns3:atemp>21.0</ns3:atemp>
          </ns3:TrackPointExtension>
        </extensions>
      </trkpt>
      <trkpt lat="42.5971663556993007659912109375" lon="19.992407150566577911376953125">
        <ele>1414.800048828125</ele>
        <time>2026-06-15T14:52:27.000Z</time>
        <extensions>
          <ns3:TrackPointExtension>
            <ns3:atemp>21.0</ns3:atemp>
          </ns3:TrackPointExtension>
        </extensions>
      </trkpt>
      <trkpt lat="42.5971670262515544891357421875" lon="19.992315955460071563720703125">
        <ele>1413.800048828125</ele>
        <time>2026-06-15T14:52:28.000Z</time>
        <extensions>
          <ns3:TrackPointExtension>
            <ns3:atemp>21.0</ns3:atemp>
          </ns3:TrackPointExtension>
        </extensions>
      </trkpt>
      <trkpt lat="42.59717934764921665191650390625" lon="19.99222953803837299346923828125">
        <ele>1412.800048828125</ele>
        <time>2026-06-15T14:52:29.000Z</time>
        <extensions>
          <ns3:TrackPointExtension>
            <ns3:atemp>21.0</ns3:atemp>
          </ns3:TrackPointExtension>
        </extensions>
      </trkpt>
      <trkpt lat="42.59721480309963226318359375" lon="19.9921686016023159027099609375">
        <ele>1411.800048828125</ele>
        <time>2026-06-15T14:52:30.000Z</time>
        <extensions>
          <ns3:TrackPointExtension>
            <ns3:atemp>21.0</ns3:atemp>
          </ns3:TrackPointExtension>
        </extensions>
      </trkpt>
      <trkpt lat="42.5972650945186614990234375" lon="19.992141611874103546142578125">
        <ele>1410.5999755859375</ele>
        <time>2026-06-15T14:52:31.000Z</time>
        <extensions>
          <ns3:TrackPointExtension>
            <ns3:atemp>21.0</ns3:atemp>
          </ns3:TrackPointExtension>
        </extensions>
      </trkpt>
      <trkpt lat="42.5973053276538848876953125" lon="19.992115795612335205078125">
        <ele>1409.199951171875</ele>
        <time>2026-06-15T14:52:32.000Z</time>
        <extensions>
          <ns3:TrackPointExtension>
            <ns3:atemp>21.0</ns3:atemp>
          </ns3:TrackPointExtension>
        </extensions>
      </trkpt>
      <trkpt lat="42.5973272882401943206787109375" lon="19.99206776730716228485107421875">
        <ele>1407.800048828125</ele>
        <time>2026-06-15T14:52:33.000Z</time>
        <extensions>
          <ns3:TrackPointExtension>
            <ns3:atemp>21.0</ns3:atemp>
          </ns3:TrackPointExtension>
        </extensions>
      </trkpt>
      <trkpt lat="42.5973266176879405975341796875" lon="19.99201395548880100250244140625">
        <ele>1406.800048828125</ele>
        <time>2026-06-15T14:52:34.000Z</time>
        <extensions>
          <ns3:TrackPointExtension>
            <ns3:atemp>21.0</ns3:atemp>
          </ns3:TrackPointExtension>
        </extensions>
      </trkpt>
      <trkpt lat="42.59730021469295024871826171875" lon="19.9919563718140125274658203125">
        <ele>1405.800048828125</ele>
        <time>2026-06-15T14:52:35.000Z</time>
        <extensions>
          <ns3:TrackPointExtension>
            <ns3:atemp>21.0</ns3:atemp>
          </ns3:TrackPointExtension>
        </extensions>
      </trkpt>
      <trkpt lat="42.5972592271864414215087890625" lon="19.991902895271778106689453125">
        <ele>1404.800048828125</ele>
        <time>2026-06-15T14:52:36.000Z</time>
        <extensions>
          <ns3:TrackPointExtension>
            <ns3:atemp>21.0</ns3:atemp>
          </ns3:TrackPointExtension>
        </extensions>
      </trkpt>
      <trkpt lat="42.59720751084387302398681640625" lon="19.9918628297746181488037109375">
        <ele>1403.800048828125</ele>
        <time>2026-06-15T14:52:37.000Z</time>
        <extensions>
          <ns3:TrackPointExtension>
            <ns3:atemp>21.0</ns3:atemp>
          </ns3:TrackPointExtension>
        </extensions>
      </trkpt>
      <trkpt lat="42.59714514948427677154541015625" lon="19.991827793419361114501953125">
        <ele>1402.800048828125</ele>
        <time>2026-06-15T14:52:38.000Z</time>
        <extensions>
          <ns3:TrackPointExtension>
            <ns3:atemp>21.0</ns3:atemp>
          </ns3:TrackPointExtension>
        </extensions>
      </trkpt>
      <trkpt lat="42.59707801043987274169921875" lon="19.99179451726377010345458984375">
        <ele>1402</ele>
        <time>2026-06-15T14:52:39.000Z</time>
        <extensions>
          <ns3:TrackPointExtension>
            <ns3:atemp>21.0</ns3:atemp>
          </ns3:TrackPointExtension>
        </extensions>
      </trkpt>
      <trkpt lat="42.59700785391032695770263671875" lon="19.99176132492721080780029296875">
        <ele>1401</ele>
        <time>2026-06-15T14:52:40.000Z</time>
        <extensions>
          <ns3:TrackPointExtension>
            <ns3:atemp>21.0</ns3:atemp>
          </ns3:TrackPointExtension>
        </extensions>
      </trkpt>
      <trkpt lat="42.59693291969597339630126953125" lon="19.99173265881836414337158203125">
        <ele>1400.199951171875</ele>
        <time>2026-06-15T14:52:41.000Z</time>
        <extensions>
          <ns3:TrackPointExtension>
            <ns3:atemp>21.0</ns3:atemp>
          </ns3:TrackPointExtension>
        </extensions>
      </trkpt>
      <trkpt lat="42.59685915894806385040283203125" lon="19.99170072376728057861328125">
        <ele>1399.199951171875</ele>
        <time>2026-06-15T14:52:42.000Z</time>
        <extensions>
          <ns3:TrackPointExtension>
            <ns3:atemp>21.0</ns3:atemp>
          </ns3:TrackPointExtension>
        </extensions>
      </trkpt>
      <trkpt lat="42.596782632172107696533203125" lon="19.99168186448514461517333984375">
        <ele>1398.199951171875</ele>
        <time>2026-06-15T14:52:43.000Z</time>
        <extensions>
          <ns3:TrackPointExtension>
            <ns3:atemp>21.0</ns3:atemp>
          </ns3:TrackPointExtension>
        </extensions>
      </trkpt>
      <trkpt lat="42.59669981896877288818359375" lon="19.991665519773960113525390625">
        <ele>1397.199951171875</ele>
        <time>2026-06-15T14:52:44.000Z</time>
        <extensions>
          <ns3:TrackPointExtension>
            <ns3:atemp>21.0</ns3:atemp>
          </ns3:TrackPointExtension>
        </extensions>
      </trkpt>
      <trkpt lat="42.59661138989031314849853515625" lon="19.9916516058146953582763671875">
        <ele>1396.199951171875</ele>
        <time>2026-06-15T14:52:45.000Z</time>
        <extensions>
          <ns3:TrackPointExtension>
            <ns3:atemp>21.0</ns3:atemp>
          </ns3:TrackPointExtension>
        </extensions>
      </trkpt>
      <trkpt lat="42.596517093479633331298828125" lon="19.99165336601436138153076171875">
        <ele>1395.199951171875</ele>
        <time>2026-06-15T14:52:46.000Z</time>
        <extensions>
          <ns3:TrackPointExtension>
            <ns3:atemp>21.0</ns3:atemp>
          </ns3:TrackPointExtension>
        </extensions>
      </trkpt>
      <trkpt lat="42.59642422199249267578125" lon="19.99167046509683132171630859375">
        <ele>1394.199951171875</ele>
        <time>2026-06-15T14:52:47.000Z</time>
        <extensions>
          <ns3:TrackPointExtension>
            <ns3:atemp>21.0</ns3:atemp>
          </ns3:TrackPointExtension>
        </extensions>
      </trkpt>
      <trkpt lat="42.59634451009333133697509765625" lon="19.9916884861886501312255859375">
        <ele>1393</ele>
        <time>2026-06-15T14:52:48.000Z</time>
        <extensions>
          <ns3:TrackPointExtension>
            <ns3:atemp>21.0</ns3:atemp>
          </ns3:TrackPointExtension>
        </extensions>
      </trkpt>
      <trkpt lat="42.596284411847591400146484375" lon="19.991676248610019683837890625">
        <ele>1392.199951171875</ele>
        <time>2026-06-15T14:52:49.000Z</time>
        <extensions>
          <ns3:TrackPointExtension>
            <ns3:atemp>21.0</ns3:atemp>
          </ns3:TrackPointExtension>
        </extensions>
      </trkpt>
      <trkpt lat="42.59625331498682498931884765625" lon="19.99163039959967136383056640625">
        <ele>1391.5999755859375</ele>
        <time>2026-06-15T14:52:50.000Z</time>
        <extensions>
          <ns3:TrackPointExtension>
            <ns3:atemp>21.0</ns3:atemp>
          </ns3:TrackPointExtension>
        </extensions>
      </trkpt>
      <trkpt lat="42.59625063277781009674072265625" lon="19.9915624223649501800537109375">
        <ele>1391</ele>
        <time>2026-06-15T14:52:51.000Z</time>
        <extensions>
          <ns3:TrackPointExtension>
            <ns3:atemp>21.0</ns3:atemp>
          </ns3:TrackPointExtension>
        </extensions>
      </trkpt>
      <trkpt lat="42.59627711959183216094970703125" lon="19.99150852672755718231201171875">
        <ele>1390.5999755859375</ele>
        <time>2026-06-15T14:52:52.000Z</time>
        <extensions>
          <ns3:TrackPointExtension>
            <ns3:atemp>21.0</ns3:atemp>
          </ns3:TrackPointExtension>
        </extensions>
      </trkpt>
      <trkpt lat="42.59632171131670475006103515625" lon="19.99147675931453704833984375">
        <ele>1390.199951171875</ele>
        <time>2026-06-15T14:52:53.000Z</time>
        <extensions>
          <ns3:TrackPointExtension>
            <ns3:atemp>21.0</ns3:atemp>
          </ns3:TrackPointExtension>
        </extensions>
      </trkpt>
      <trkpt lat="42.59637703187763690948486328125" lon="19.99145052395761013031005859375">
        <ele>1389.4000244140625</ele>
        <time>2026-06-15T14:52:54.000Z</time>
        <extensions>
          <ns3:TrackPointExtension>
            <ns3:atemp>21.0</ns3:atemp>
          </ns3:TrackPointExtension>
        </extensions>
      </trkpt>
      <trkpt lat="42.59643922559916973114013671875" lon="19.99142420478165149688720703125">
        <ele>1388.5999755859375</ele>
        <time>2026-06-15T14:52:55.000Z</time>
        <extensions>
          <ns3:TrackPointExtension>
            <ns3:atemp>21.0</ns3:atemp>
          </ns3:TrackPointExtension>
        </extensions>
      </trkpt>
      <trkpt lat="42.59650644846260547637939453125" lon="19.99139738269150257110595703125">
        <ele>1387.800048828125</ele>
        <time>2026-06-15T14:52:56.000Z</time>
        <extensions>
          <ns3:TrackPointExtension>
            <ns3:atemp>21.0</ns3:atemp>
          </ns3:TrackPointExtension>
        </extensions>
      </trkpt>
      <trkpt lat="42.59658255614340305328369140625" lon="19.9913746677339076995849609375">
        <ele>1387.199951171875</ele>
        <time>2026-06-15T14:52:57.000Z</time>
        <extensions>
          <ns3:TrackPointExtension>
            <ns3:atemp>21.0</ns3:atemp>
          </ns3:TrackPointExtension>
        </extensions>
      </trkpt>
      <trkpt lat="42.5966621004045009613037109375" lon="19.9913431517779827117919921875">
        <ele>1386.4000244140625</ele>
        <time>2026-06-15T14:52:58.000Z</time>
        <extensions>
          <ns3:TrackPointExtension>
            <ns3:atemp>21.0</ns3:atemp>
          </ns3:TrackPointExtension>
        </extensions>
      </trkpt>
      <trkpt lat="42.5967492721974849700927734375" lon="19.9913273938000202178955078125">
        <ele>1385.4000244140625</ele>
        <time>2026-06-15T14:52:59.000Z</time>
        <extensions>
          <ns3:TrackPointExtension>
            <ns3:atemp>21.0</ns3:atemp>
          </ns3:TrackPointExtension>
        </extensions>
      </trkpt>
      <trkpt lat="42.59684122167527675628662109375" lon="19.9913126416504383087158203125">
        <ele>1384</ele>
        <time>2026-06-15T14:53:00.000Z</time>
        <extensions>
          <ns3:TrackPointExtension>
            <ns3:atemp>21.0</ns3:atemp>
          </ns3:TrackPointExtension>
        </extensions>
      </trkpt>
      <trkpt lat="42.59693048894405364990234375" lon="19.991285987198352813720703125">
        <ele>1382.800048828125</ele>
        <time>2026-06-15T14:53:01.000Z</time>
        <extensions>
          <ns3:TrackPointExtension>
            <ns3:atemp>21.0</ns3:atemp>
          </ns3:TrackPointExtension>
        </extensions>
      </trkpt>
      <trkpt lat="42.59701640345156192779541015625" lon="19.99123913235962390899658203125">
        <ele>1381.4000244140625</ele>
        <time>2026-06-15T14:53:02.000Z</time>
        <extensions>
          <ns3:TrackPointExtension>
            <ns3:atemp>21.0</ns3:atemp>
          </ns3:TrackPointExtension>
        </extensions>
      </trkpt>
      <trkpt lat="42.597094438970088958740234375" lon="19.99117660336196422576904296875">
        <ele>1380</ele>
        <time>2026-06-15T14:53:03.000Z</time>
        <extensions>
          <ns3:TrackPointExtension>
            <ns3:atemp>21.0</ns3:atemp>
          </ns3:TrackPointExtension>
        </extensions>
      </trkpt>
      <trkpt lat="42.5971824489533901214599609375" lon="19.9911275692284107208251953125">
        <ele>1379</ele>
        <time>2026-06-15T14:53:04.000Z</time>
        <extensions>
          <ns3:TrackPointExtension>
            <ns3:atemp>21.0</ns3:atemp>
          </ns3:TrackPointExtension>
        </extensions>
      </trkpt>
      <trkpt lat="42.59727557189762592315673828125" lon="19.99109923839569091796875">
        <ele>1377</ele>
        <time>2026-06-15T14:53:05.000Z</time>
        <extensions>
          <ns3:TrackPointExtension>
            <ns3:atemp>21.0</ns3:atemp>
          </ns3:TrackPointExtension>
        </extensions>
      </trkpt>
      <trkpt lat="42.5973670184612274169921875" lon="19.99107367359101772308349609375">
        <ele>1375.800048828125</ele>
        <time>2026-06-15T14:53:06.000Z</time>
        <extensions>
          <ns3:TrackPointExtension>
            <ns3:atemp>21.0</ns3:atemp>
          </ns3:TrackPointExtension>
        </extensions>
      </trkpt>
      <trkpt lat="42.59745276533067226409912109375" lon="19.99103310517966747283935546875">
        <ele>1374.4000244140625</ele>
        <time>2026-06-15T14:53:07.000Z</time>
        <extensions>
          <ns3:TrackPointExtension>
            <ns3:atemp>21.0</ns3:atemp>
          </ns3:TrackPointExtension>
        </extensions>
      </trkpt>
      <trkpt lat="42.59752518497407436370849609375" lon="19.99098113738000392913818359375">
        <ele>1373.4000244140625</ele>
        <time>2026-06-15T14:53:08.000Z</time>
        <extensions>
          <ns3:TrackPointExtension>
            <ns3:atemp>21.0</ns3:atemp>
          </ns3:TrackPointExtension>
        </extensions>
      </trkpt>
      <trkpt lat="42.59759576059877872467041015625" lon="19.9909337796270847320556640625">
        <ele>1372.5999755859375</ele>
        <time>2026-06-15T14:53:09.000Z</time>
        <extensions>
          <ns3:TrackPointExtension>
            <ns3:atemp>21.0</ns3:atemp>
          </ns3:TrackPointExtension>
        </extensions>
      </trkpt>
      <trkpt lat="42.5976635701954364776611328125" lon="19.99089111573994159698486328125">
        <ele>1371.800048828125</ele>
        <time>2026-06-15T14:53:10.000Z</time>
        <extensions>
          <ns3:TrackPointExtension>
            <ns3:atemp>21.0</ns3:atemp>
          </ns3:TrackPointExtension>
        </extensions>
      </trkpt>
      <trkpt lat="42.5977380014955997467041015625" lon="19.99084887094795703887939453125">
        <ele>1370.800048828125</ele>
        <time>2026-06-15T14:53:11.000Z</time>
        <extensions>
          <ns3:TrackPointExtension>
            <ns3:atemp>21.0</ns3:atemp>
          </ns3:TrackPointExtension>
        </extensions>
      </trkpt>
      <trkpt lat="42.59781586937606334686279296875" lon="19.99082003720104694366455078125">
        <ele>1369.800048828125</ele>
        <time>2026-06-15T14:53:12.000Z</time>
        <extensions>
          <ns3:TrackPointExtension>
            <ns3:atemp>21.0</ns3:atemp>
          </ns3:TrackPointExtension>
        </extensions>
      </trkpt>
      <trkpt lat="42.59788141585886478424072265625" lon="19.990796484053134918212890625">
        <ele>1369</ele>
        <time>2026-06-15T14:53:13.000Z</time>
        <extensions>
          <ns3:TrackPointExtension>
            <ns3:atemp>21.0</ns3:atemp>
          </ns3:TrackPointExtension>
        </extensions>
      </trkpt>
      <trkpt lat="42.59793472476303577423095703125" lon="19.99077175743877887725830078125">
        <ele>1368.199951171875</ele>
        <time>2026-06-15T14:53:14.000Z</time>
        <extensions>
          <ns3:TrackPointExtension>
            <ns3:atemp>21.0</ns3:atemp>
          </ns3:TrackPointExtension>
        </extensions>
      </trkpt>
      <trkpt lat="42.59799054823815822601318359375" lon="19.990738816559314727783203125">
        <ele>1367.199951171875</ele>
        <time>2026-06-15T14:53:15.000Z</time>
        <extensions>
          <ns3:TrackPointExtension>
            <ns3:atemp>21.0</ns3:atemp>
          </ns3:TrackPointExtension>
        </extensions>
      </trkpt>
      <trkpt lat="42.59803698398172855377197265625" lon="19.99071358703076839447021484375">
        <ele>1366</ele>
        <time>2026-06-15T14:53:16.000Z</time>
        <extensions>
          <ns3:TrackPointExtension>
            <ns3:atemp>21.0</ns3:atemp>
          </ns3:TrackPointExtension>
        </extensions>
      </trkpt>
      <trkpt lat="42.59807269088923931121826171875" lon="19.99067821539938449859619140625">
        <ele>1365</ele>
        <time>2026-06-15T14:53:17.000Z</time>
        <extensions>
          <ns3:TrackPointExtension>
            <ns3:atemp>21.0</ns3:atemp>
          </ns3:TrackPointExtension>
        </extensions>
      </trkpt>
      <trkpt lat="42.59808962233364582061767578125" lon="19.990635551512241363525390625">
        <ele>1364.4000244140625</ele>
        <time>2026-06-15T14:53:18.000Z</time>
        <extensions>
          <ns3:TrackPointExtension>
            <ns3:atemp>21.0</ns3:atemp>
          </ns3:TrackPointExtension>
        </extensions>
      </trkpt>
      <trkpt lat="42.59808383882045745849609375" lon="19.99060093425214290618896484375">
        <ele>1363.5999755859375</ele>
        <time>2026-06-15T14:53:19.000Z</time>
        <extensions>
          <ns3:TrackPointExtension>
            <ns3:atemp>21.0</ns3:atemp>
          </ns3:TrackPointExtension>
        </extensions>
      </trkpt>
      <trkpt lat="42.5980622135102748870849609375" lon="19.99057687819004058837890625">
        <ele>1362.800048828125</ele>
        <time>2026-06-15T14:53:20.000Z</time>
        <extensions>
          <ns3:TrackPointExtension>
            <ns3:atemp>21.0</ns3:atemp>
          </ns3:TrackPointExtension>
        </extensions>
      </trkpt>
      <trkpt lat="42.59803094901144504547119140625" lon="19.99055986292660236358642578125">
        <ele>1362</ele>
        <time>2026-06-15T14:53:21.000Z</time>
        <extensions>
          <ns3:TrackPointExtension>
            <ns3:atemp>21.0</ns3:atemp>
          </ns3:TrackPointExtension>
        </extensions>
      </trkpt>
      <trkpt lat="42.59799893014132976531982421875" lon="19.99054444022476673126220703125">
        <ele>1361.199951171875</ele>
        <time>2026-06-15T14:53:22.000Z</time>
        <extensions>
          <ns3:TrackPointExtension>
            <ns3:atemp>21.0</ns3:atemp>
          </ns3:TrackPointExtension>
        </extensions>
      </trkpt>
      <trkpt lat="42.59795299731194972991943359375" lon="19.99053371138870716094970703125">
        <ele>1360.5999755859375</ele>
        <time>2026-06-15T14:53:23.000Z</time>
        <extensions>
          <ns3:TrackPointExtension>
            <ns3:atemp>21.0</ns3:atemp>
          </ns3:TrackPointExtension>
        </extensions>
      </trkpt>
      <trkpt lat="42.59788812138140201568603515625" lon="19.99051384627819061279296875">
        <ele>1359.800048828125</ele>
        <time>2026-06-15T14:53:24.000Z</time>
        <extensions>
          <ns3:TrackPointExtension>
            <ns3:atemp>21.0</ns3:atemp>
          </ns3:TrackPointExtension>
        </extensions>
      </trkpt>
      <trkpt lat="42.59780597873032093048095703125" lon="19.990500770509243011474609375">
        <ele>1358.800048828125</ele>
        <time>2026-06-15T14:53:25.000Z</time>
        <extensions>
          <ns3:TrackPointExtension>
            <ns3:atemp>21.0</ns3:atemp>
          </ns3:TrackPointExtension>
        </extensions>
      </trkpt>
      <trkpt lat="42.59772584773600101470947265625" lon="19.9905063025653362274169921875">
        <ele>1357.5999755859375</ele>
        <time>2026-06-15T14:53:26.000Z</time>
        <extensions>
          <ns3:TrackPointExtension>
            <ns3:atemp>21.0</ns3:atemp>
          </ns3:TrackPointExtension>
        </extensions>
      </trkpt>
      <trkpt lat="42.59764638729393482208251953125" lon="19.99051309190690517425537109375">
        <ele>1356</ele>
        <time>2026-06-15T14:53:27.000Z</time>
        <extensions>
          <ns3:TrackPointExtension>
            <ns3:atemp>21.0</ns3:atemp>
          </ns3:TrackPointExtension>
        </extensions>
      </trkpt>
      <trkpt lat="42.5975653342902660369873046875" lon="19.9905158579349517822265625">
        <ele>1354.5999755859375</ele>
        <time>2026-06-15T14:53:28.000Z</time>
        <extensions>
          <ns3:TrackPointExtension>
            <ns3:atemp>21.0</ns3:atemp>
          </ns3:TrackPointExtension>
        </extensions>
      </trkpt>
      <trkpt lat="42.59747472591698169708251953125" lon="19.99048979021608829498291015625">
        <ele>1353.199951171875</ele>
        <time>2026-06-15T14:53:29.000Z</time>
        <extensions>
          <ns3:TrackPointExtension>
            <ns3:atemp>21.0</ns3:atemp>
          </ns3:TrackPointExtension>
        </extensions>
      </trkpt>
      <trkpt lat="42.59738185442984104156494140625" lon="19.99045441858470439910888671875">
        <ele>1352</ele>
        <time>2026-06-15T14:53:30.000Z</time>
        <extensions>
          <ns3:TrackPointExtension>
            <ns3:atemp>21.0</ns3:atemp>
          </ns3:TrackPointExtension>
        </extensions>
      </trkpt>
      <trkpt lat="42.597286216914653778076171875" lon="19.99043044634163379669189453125">
        <ele>1350.5999755859375</ele>
        <time>2026-06-15T14:53:31.000Z</time>
        <extensions>
          <ns3:TrackPointExtension>
            <ns3:atemp>21.0</ns3:atemp>
          </ns3:TrackPointExtension>
        </extensions>
      </trkpt>
      <trkpt lat="42.5971899926662445068359375" lon="19.9904060550034046173095703125">
        <ele>1349.5999755859375</ele>
        <time>2026-06-15T14:53:32.000Z</time>
        <extensions>
          <ns3:TrackPointExtension>
            <ns3:atemp>21.0</ns3:atemp>
          </ns3:TrackPointExtension>
        </extensions>
      </trkpt>
      <trkpt lat="42.59710173122584819793701171875" lon="19.99038049019873142242431640625">
        <ele>1348</ele>
        <time>2026-06-15T14:53:33.000Z</time>
        <extensions>
          <ns3:TrackPointExtension>
            <ns3:atemp>21.0</ns3:atemp>
          </ns3:TrackPointExtension>
        </extensions>
      </trkpt>
      <trkpt lat="42.59701992385089397430419921875" lon="19.99034143052995204925537109375">
        <ele>1346.800048828125</ele>
        <time>2026-06-15T14:53:34.000Z</time>
        <extensions>
          <ns3:TrackPointExtension>
            <ns3:atemp>21.0</ns3:atemp>
          </ns3:TrackPointExtension>
        </extensions>
      </trkpt>
      <trkpt lat="42.59693987667560577392578125" lon="19.99028644524514675140380859375">
        <ele>1345.4000244140625</ele>
        <time>2026-06-15T14:53:35.000Z</time>
        <extensions>
          <ns3:TrackPointExtension>
            <ns3:atemp>21.0</ns3:atemp>
          </ns3:TrackPointExtension>
        </extensions>
      </trkpt>
      <trkpt lat="42.5968729890882968902587890625" lon="19.9902072362601757049560546875">
        <ele>1344</ele>
        <time>2026-06-15T14:53:36.000Z</time>
        <extensions>
          <ns3:TrackPointExtension>
            <ns3:atemp>21.0</ns3:atemp>
          </ns3:TrackPointExtension>
        </extensions>
      </trkpt>
      <trkpt lat="42.5968091189861297607421875" lon="19.99012232758104801177978515625">
        <ele>1342.4000244140625</ele>
        <time>2026-06-15T14:53:37.000Z</time>
        <extensions>
          <ns3:TrackPointExtension>
            <ns3:atemp>21.0</ns3:atemp>
          </ns3:TrackPointExtension>
        </extensions>
      </trkpt>
      <trkpt lat="42.5967445783317089080810546875" lon="19.9900543503463268280029296875">
        <ele>1340.800048828125</ele>
        <time>2026-06-15T14:53:38.000Z</time>
        <extensions>
          <ns3:TrackPointExtension>
            <ns3:atemp>21.0</ns3:atemp>
          </ns3:TrackPointExtension>
        </extensions>
      </trkpt>
      <trkpt lat="42.5966768525540828704833984375" lon="19.99000146053731441497802734375">
        <ele>1339</ele>
        <time>2026-06-15T14:53:39.000Z</time>
        <extensions>
          <ns3:TrackPointExtension>
            <ns3:atemp>21.0</ns3:atemp>
          </ns3:TrackPointExtension>
        </extensions>
      </trkpt>
      <trkpt lat="42.5966037623584270477294921875" lon="19.98995988629758358001708984375">
        <ele>1337.5999755859375</ele>
        <time>2026-06-15T14:53:40.000Z</time>
        <extensions>
          <ns3:TrackPointExtension>
            <ns3:atemp>21.0</ns3:atemp>
          </ns3:TrackPointExtension>
        </extensions>
      </trkpt>
      <trkpt lat="42.59652455337345600128173828125" lon="19.98992216773331165313720703125">
        <ele>1336.199951171875</ele>
        <time>2026-06-15T14:53:41.000Z</time>
        <extensions>
          <ns3:TrackPointExtension>
            <ns3:atemp>21.0</ns3:atemp>
          </ns3:TrackPointExtension>
        </extensions>
      </trkpt>
      <trkpt lat="42.59643821977078914642333984375" lon="19.98986718244850635528564453125">
        <ele>1335</ele>
        <time>2026-06-15T14:53:42.000Z</time>
        <extensions>
          <ns3:TrackPointExtension>
            <ns3:atemp>21.0</ns3:atemp>
          </ns3:TrackPointExtension>
        </extensions>
      </trkpt>
      <trkpt lat="42.596352137625217437744140625" lon="19.98981186188757419586181640625">
        <ele>1333.800048828125</ele>
        <time>2026-06-15T14:53:43.000Z</time>
        <extensions>
          <ns3:TrackPointExtension>
            <ns3:atemp>21.0</ns3:atemp>
          </ns3:TrackPointExtension>
        </extensions>
      </trkpt>
      <trkpt lat="42.59626655839383602142333984375" lon="19.989768527448177337646484375">
        <ele>1332.199951171875</ele>
        <time>2026-06-15T14:53:44.000Z</time>
        <extensions>
          <ns3:TrackPointExtension>
            <ns3:atemp>21.0</ns3:atemp>
          </ns3:TrackPointExtension>
        </extensions>
      </trkpt>
      <trkpt lat="42.59618282318115234375" lon="19.98974950052797794342041015625">
        <ele>1330.800048828125</ele>
        <time>2026-06-15T14:53:45.000Z</time>
        <extensions>
          <ns3:TrackPointExtension>
            <ns3:atemp>21.0</ns3:atemp>
          </ns3:TrackPointExtension>
        </extensions>
      </trkpt>
      <trkpt lat="42.5961005128920078277587890625" lon="19.989743717014789581298828125">
        <ele>1329.5999755859375</ele>
        <time>2026-06-15T14:53:46.000Z</time>
        <extensions>
          <ns3:TrackPointExtension>
            <ns3:atemp>21.0</ns3:atemp>
          </ns3:TrackPointExtension>
        </extensions>
      </trkpt>
      <trkpt lat="42.59601853787899017333984375" lon="19.98973491601645946502685546875">
        <ele>1328.4000244140625</ele>
        <time>2026-06-15T14:53:47.000Z</time>
        <extensions>
          <ns3:TrackPointExtension>
            <ns3:atemp>21.0</ns3:atemp>
          </ns3:TrackPointExtension>
        </extensions>
      </trkpt>
      <trkpt lat="42.595942430198192596435546875" lon="19.989712536334991455078125">
        <ele>1327.199951171875</ele>
        <time>2026-06-15T14:53:48.000Z</time>
        <extensions>
          <ns3:TrackPointExtension>
            <ns3:atemp>21.0</ns3:atemp>
          </ns3:TrackPointExtension>
        </extensions>
      </trkpt>
      <trkpt lat="42.5958641432225704193115234375" lon="19.98967875726521015167236328125">
        <ele>1326</ele>
        <time>2026-06-15T14:53:49.000Z</time>
        <extensions>
          <ns3:TrackPointExtension>
            <ns3:atemp>21.0</ns3:atemp>
          </ns3:TrackPointExtension>
        </extensions>
      </trkpt>
      <trkpt lat="42.5957850180566310882568359375" lon="19.98963785357773303985595703125">
        <ele>1324.5999755859375</ele>
        <time>2026-06-15T14:53:50.000Z</time>
        <extensions>
          <ns3:TrackPointExtension>
            <ns3:atemp>21.0</ns3:atemp>
          </ns3:TrackPointExtension>
        </extensions>
      </trkpt>
      <trkpt lat="42.59570949710905551910400390625" lon="19.9895896576344966888427734375">
        <ele>1323.199951171875</ele>
        <time>2026-06-15T14:53:51.000Z</time>
        <extensions>
          <ns3:TrackPointExtension>
            <ns3:atemp>21.0</ns3:atemp>
          </ns3:TrackPointExtension>
        </extensions>
      </trkpt>
      <trkpt lat="42.59563908912241458892822265625" lon="19.98954498209059238433837890625">
        <ele>1322</ele>
        <time>2026-06-15T14:53:52.000Z</time>
        <extensions>
          <ns3:TrackPointExtension>
            <ns3:atemp>21.0</ns3:atemp>
          </ns3:TrackPointExtension>
        </extensions>
      </trkpt>
      <trkpt lat="42.595578990876674652099609375" lon="19.98950533568859100341796875">
        <ele>1321</ele>
        <time>2026-06-15T14:53:53.000Z</time>
        <extensions>
          <ns3:TrackPointExtension>
            <ns3:atemp>21.0</ns3:atemp>
          </ns3:TrackPointExtension>
        </extensions>
      </trkpt>
      <trkpt lat="42.59555107913911342620849609375" lon="19.98945009894669055938720703125">
        <ele>1320</ele>
        <time>2026-06-15T14:53:54.000Z</time>
        <extensions>
          <ns3:TrackPointExtension>
            <ns3:atemp>21.0</ns3:atemp>
          </ns3:TrackPointExtension>
        </extensions>
      </trkpt>
      <trkpt lat="42.59555074386298656463623046875" lon="19.989391006529331207275390625">
        <ele>1318.800048828125</ele>
        <time>2026-06-15T14:53:55.000Z</time>
        <extensions>
          <ns3:TrackPointExtension>
            <ns3:atemp>21.0</ns3:atemp>
          </ns3:TrackPointExtension>
        </extensions>
      </trkpt>
      <trkpt lat="42.5955753028392791748046875" lon="19.98935152776539325714111328125">
        <ele>1318</ele>
        <time>2026-06-15T14:53:56.000Z</time>
        <extensions>
          <ns3:TrackPointExtension>
            <ns3:atemp>21.0</ns3:atemp>
          </ns3:TrackPointExtension>
        </extensions>
      </trkpt>
      <trkpt lat="42.59561955928802490234375" lon="19.98933912254869937896728515625">
        <ele>1317.4000244140625</ele>
        <time>2026-06-15T14:53:57.000Z</time>
        <extensions>
          <ns3:TrackPointExtension>
            <ns3:atemp>21.0</ns3:atemp>
          </ns3:TrackPointExtension>
        </extensions>
      </trkpt>
      <trkpt lat="42.59567320346832275390625" lon="19.9893356859683990478515625">
        <ele>1316.5999755859375</ele>
        <time>2026-06-15T14:53:58.000Z</time>
        <extensions>
          <ns3:TrackPointExtension>
            <ns3:atemp>21.0</ns3:atemp>
          </ns3:TrackPointExtension>
        </extensions>
      </trkpt>
      <trkpt lat="42.5957280211150646209716796875" lon="19.989311881363391876220703125">
        <ele>1315.800048828125</ele>
        <time>2026-06-15T14:53:59.000Z</time>
        <extensions>
          <ns3:TrackPointExtension>
            <ns3:atemp>21.0</ns3:atemp>
          </ns3:TrackPointExtension>
        </extensions>
      </trkpt>
      <trkpt lat="42.59575760923326015472412109375" lon="19.98926888220012187957763671875">
        <ele>1315.199951171875</ele>
        <time>2026-06-15T14:54:00.000Z</time>
        <extensions>
          <ns3:TrackPointExtension>
            <ns3:atemp>21.0</ns3:atemp>
          </ns3:TrackPointExtension>
        </extensions>
      </trkpt>
      <trkpt lat="42.5957605428993701934814453125" lon="19.98922077007591724395751953125">
        <ele>1314.199951171875</ele>
        <time>2026-06-15T14:54:01.000Z</time>
        <extensions>
          <ns3:TrackPointExtension>
            <ns3:atemp>21.0</ns3:atemp>
          </ns3:TrackPointExtension>
        </extensions>
      </trkpt>
      <trkpt lat="42.59573958814144134521484375" lon="19.98918321914970874786376953125">
        <ele>1313.199951171875</ele>
        <time>2026-06-15T14:54:02.000Z</time>
        <extensions>
          <ns3:TrackPointExtension>
            <ns3:atemp>21.0</ns3:atemp>
          </ns3:TrackPointExtension>
        </extensions>
      </trkpt>
      <trkpt lat="42.59570580907166004180908203125" lon="19.98914935626089572906494140625">
        <ele>1312.5999755859375</ele>
        <time>2026-06-15T14:54:03.000Z</time>
        <extensions>
          <ns3:TrackPointExtension>
            <ns3:atemp>21.0</ns3:atemp>
          </ns3:TrackPointExtension>
        </extensions>
      </trkpt>
      <trkpt lat="42.5956586189568042755126953125" lon="19.98911364935338497161865234375">
        <ele>1311.800048828125</ele>
        <time>2026-06-15T14:54:04.000Z</time>
        <extensions>
          <ns3:TrackPointExtension>
            <ns3:atemp>21.0</ns3:atemp>
          </ns3:TrackPointExtension>
        </extensions>
      </trkpt>
      <trkpt lat="42.59560011327266693115234375" lon="19.98908825218677520751953125">
        <ele>1311.199951171875</ele>
        <time>2026-06-15T14:54:05.000Z</time>
        <extensions>
          <ns3:TrackPointExtension>
            <ns3:atemp>21.0</ns3:atemp>
          </ns3:TrackPointExtension>
        </extensions>
      </trkpt>
      <trkpt lat="42.59553096257150173187255859375" lon="19.98906612396240234375">
        <ele>1310.4000244140625</ele>
        <time>2026-06-15T14:54:06.000Z</time>
        <extensions>
          <ns3:TrackPointExtension>
            <ns3:atemp>21.0</ns3:atemp>
          </ns3:TrackPointExtension>
        </extensions>
      </trkpt>
      <trkpt lat="42.595458962023258209228515625" lon="19.98904106207191944122314453125">
        <ele>1309.5999755859375</ele>
        <time>2026-06-15T14:54:07.000Z</time>
        <extensions>
          <ns3:TrackPointExtension>
            <ns3:atemp>21.0</ns3:atemp>
          </ns3:TrackPointExtension>
        </extensions>
      </trkpt>
      <trkpt lat="42.5953887216746807098388671875" lon="19.98903033323585987091064453125">
        <ele>1308.5999755859375</ele>
        <time>2026-06-15T14:54:08.000Z</time>
        <extensions>
          <ns3:TrackPointExtension>
            <ns3:atemp>21.0</ns3:atemp>
          </ns3:TrackPointExtension>
        </extensions>
      </trkpt>
      <trkpt lat="42.5953122787177562713623046875" lon="19.98903930187225341796875">
        <ele>1307.800048828125</ele>
        <time>2026-06-15T14:54:09.000Z</time>
        <extensions>
          <ns3:TrackPointExtension>
            <ns3:atemp>21.0</ns3:atemp>
          </ns3:TrackPointExtension>
        </extensions>
      </trkpt>
      <trkpt lat="42.5952400267124176025390625" lon="19.989063441753387451171875">
        <ele>1306.800048828125</ele>
        <time>2026-06-15T14:54:10.000Z</time>
        <extensions>
          <ns3:TrackPointExtension>
            <ns3:atemp>21.0</ns3:atemp>
          </ns3:TrackPointExtension>
        </extensions>
      </trkpt>
      <trkpt lat="42.59517003782093524932861328125" lon="19.9891041778028011322021484375">
        <ele>1306</ele>
        <time>2026-06-15T14:54:11.000Z</time>
        <extensions>
          <ns3:TrackPointExtension>
            <ns3:atemp>21.0</ns3:atemp>
          </ns3:TrackPointExtension>
        </extensions>
      </trkpt>
      <trkpt lat="42.59509661234915256500244140625" lon="19.98913996852934360504150390625">
        <ele>1304.800048828125</ele>
        <time>2026-06-15T14:54:12.000Z</time>
        <extensions>
          <ns3:TrackPointExtension>
            <ns3:atemp>21.0</ns3:atemp>
          </ns3:TrackPointExtension>
        </extensions>
      </trkpt>
      <trkpt lat="42.5950148887932300567626953125" lon="19.9891688860952854156494140625">
        <ele>1303.800048828125</ele>
        <time>2026-06-15T14:54:13.000Z</time>
        <extensions>
          <ns3:TrackPointExtension>
            <ns3:atemp>21.0</ns3:atemp>
          </ns3:TrackPointExtension>
        </extensions>
      </trkpt>
      <trkpt lat="42.5949235260486602783203125" lon="19.98919478617608547210693359375">
        <ele>1302.800048828125</ele>
        <time>2026-06-15T14:54:14.000Z</time>
        <extensions>
          <ns3:TrackPointExtension>
            <ns3:atemp>21.0</ns3:atemp>
          </ns3:TrackPointExtension>
        </extensions>
      </trkpt>
      <trkpt lat="42.59483928792178630828857421875" lon="19.98920417390763759613037109375">
        <ele>1302</ele>
        <time>2026-06-15T14:54:15.000Z</time>
        <extensions>
          <ns3:TrackPointExtension>
            <ns3:atemp>21.0</ns3:atemp>
          </ns3:TrackPointExtension>
        </extensions>
      </trkpt>
      <trkpt lat="42.594751529395580291748046875" lon="19.98918472789227962493896484375">
        <ele>1300.5999755859375</ele>
        <time>2026-06-15T14:54:16.000Z</time>
        <extensions>
          <ns3:TrackPointExtension>
            <ns3:atemp>21.0</ns3:atemp>
          </ns3:TrackPointExtension>
        </extensions>
      </trkpt>
      <trkpt lat="42.5946651957929134368896484375" lon="19.98915237374603748321533203125">
        <ele>1299.5999755859375</ele>
        <time>2026-06-15T14:54:17.000Z</time>
        <extensions>
          <ns3:TrackPointExtension>
            <ns3:atemp>21.0</ns3:atemp>
          </ns3:TrackPointExtension>
        </extensions>
      </trkpt>
      <trkpt lat="42.59458045475184917449951171875" lon="19.98911314643919467926025390625">
        <ele>1298.5999755859375</ele>
        <time>2026-06-15T14:54:18.000Z</time>
        <extensions>
          <ns3:TrackPointExtension>
            <ns3:atemp>21.0</ns3:atemp>
          </ns3:TrackPointExtension>
        </extensions>
      </trkpt>
      <trkpt lat="42.5944955460727214813232421875" lon="19.98908347450196743011474609375">
        <ele>1297.800048828125</ele>
        <time>2026-06-15T14:54:19.000Z</time>
        <extensions>
          <ns3:TrackPointExtension>
            <ns3:atemp>21.0</ns3:atemp>
          </ns3:TrackPointExtension>
        </extensions>
      </trkpt>
      <trkpt lat="42.59440460242331027984619140625" lon="19.98905380256474018096923828125">
        <ele>1297</ele>
        <time>2026-06-15T14:54:20.000Z</time>
        <extensions>
          <ns3:TrackPointExtension>
            <ns3:atemp>21.0</ns3:atemp>
          </ns3:TrackPointExtension>
        </extensions>
      </trkpt>
      <trkpt lat="42.5943131558597087860107421875" lon="19.9890218675136566162109375">
        <ele>1296.4000244140625</ele>
        <time>2026-06-15T14:54:21.000Z</time>
        <extensions>
          <ns3:TrackPointExtension>
            <ns3:atemp>21.0</ns3:atemp>
          </ns3:TrackPointExtension>
        </extensions>
      </trkpt>
      <trkpt lat="42.594221793115139007568359375" lon="19.98898171819746494293212890625">
        <ele>1295.5999755859375</ele>
        <time>2026-06-15T14:54:22.000Z</time>
        <extensions>
          <ns3:TrackPointExtension>
            <ns3:atemp>21.0</ns3:atemp>
          </ns3:TrackPointExtension>
        </extensions>
      </trkpt>
      <trkpt lat="42.59413051418960094451904296875" lon="19.98893427662551403045654296875">
        <ele>1294.5999755859375</ele>
        <time>2026-06-15T14:54:23.000Z</time>
        <extensions>
          <ns3:TrackPointExtension>
            <ns3:atemp>21.0</ns3:atemp>
          </ns3:TrackPointExtension>
        </extensions>
      </trkpt>
      <trkpt lat="42.59406044147908687591552734375" lon="19.98886705376207828521728515625">
        <ele>1293.800048828125</ele>
        <time>2026-06-15T14:54:24.000Z</time>
        <extensions>
          <ns3:TrackPointExtension>
            <ns3:atemp>21.0</ns3:atemp>
          </ns3:TrackPointExtension>
        </extensions>
      </trkpt>
      <trkpt lat="42.5940137542784214019775390625" lon="19.98878155834972858428955078125">
        <ele>1293.199951171875</ele>
        <time>2026-06-15T14:54:25.000Z</time>
        <extensions>
          <ns3:TrackPointExtension>
            <ns3:atemp>21.0</ns3:atemp>
          </ns3:TrackPointExtension>
        </extensions>
      </trkpt>
      <trkpt lat="42.5939899496734142303466796875" lon="19.98868349008262157440185546875">
        <ele>1292.800048828125</ele>
        <time>2026-06-15T14:54:26.000Z</time>
        <extensions>
          <ns3:TrackPointExtension>
            <ns3:atemp>21.0</ns3:atemp>
          </ns3:TrackPointExtension>
        </extensions>
      </trkpt>
      <trkpt lat="42.5939621217548847198486328125" lon="19.9885965697467327117919921875">
        <ele>1292.4000244140625</ele>
        <time>2026-06-15T14:54:27.000Z</time>
        <extensions>
          <ns3:TrackPointExtension>
            <ns3:atemp>21.0</ns3:atemp>
          </ns3:TrackPointExtension>
        </extensions>
      </trkpt>
      <trkpt lat="42.59392163716256618499755859375" lon="19.98852825723588466644287109375">
        <ele>1292</ele>
        <time>2026-06-15T14:54:28.000Z</time>
        <extensions>
          <ns3:TrackPointExtension>
            <ns3:atemp>21.0</ns3:atemp>
          </ns3:TrackPointExtension>
        </extensions>
      </trkpt>
      <trkpt lat="42.5938756205141544342041015625" lon="19.98846857808530330657958984375">
        <ele>1291.800048828125</ele>
        <time>2026-06-15T14:54:29.000Z</time>
        <extensions>
          <ns3:TrackPointExtension>
            <ns3:atemp>21.0</ns3:atemp>
          </ns3:TrackPointExtension>
        </extensions>
      </trkpt>
      <trkpt lat="42.59382038377225399017333984375" lon="19.988414682447910308837890625">
        <ele>1291.5999755859375</ele>
        <time>2026-06-15T14:54:30.000Z</time>
        <extensions>
          <ns3:TrackPointExtension>
            <ns3:atemp>21.0</ns3:atemp>
          </ns3:TrackPointExtension>
        </extensions>
      </trkpt>
      <trkpt lat="42.59376070462167263031005859375" lon="19.988380484282970428466796875">
        <ele>1291.4000244140625</ele>
        <time>2026-06-15T14:54:31.000Z</time>
        <extensions>
          <ns3:TrackPointExtension>
            <ns3:atemp>21.0</ns3:atemp>
          </ns3:TrackPointExtension>
        </extensions>
      </trkpt>
      <trkpt lat="42.59368644095957279205322265625" lon="19.98835491947829723358154296875">
        <ele>1291.199951171875</ele>
        <time>2026-06-15T14:54:32.000Z</time>
        <extensions>
          <ns3:TrackPointExtension>
            <ns3:atemp>21.0</ns3:atemp>
          </ns3:TrackPointExtension>
        </extensions>
      </trkpt>
      <trkpt lat="42.5936087407171726226806640625" lon="19.98833119869232177734375">
        <ele>1290.5999755859375</ele>
        <time>2026-06-15T14:54:33.000Z</time>
        <extensions>
          <ns3:TrackPointExtension>
            <ns3:atemp>21.0</ns3:atemp>
          </ns3:TrackPointExtension>
        </extensions>
      </trkpt>
      <trkpt lat="42.5935349799692630767822265625" lon="19.98830496333539485931396484375">
        <ele>1289.5999755859375</ele>
        <time>2026-06-15T14:54:34.000Z</time>
        <extensions>
          <ns3:TrackPointExtension>
            <ns3:atemp>21.0</ns3:atemp>
          </ns3:TrackPointExtension>
        </extensions>
      </trkpt>
      <trkpt lat="42.59347580373287200927734375" lon="19.98826774768531322479248046875">
        <ele>1288.5999755859375</ele>
        <time>2026-06-15T14:54:35.000Z</time>
        <extensions>
          <ns3:TrackPointExtension>
            <ns3:atemp>21.0</ns3:atemp>
          </ns3:TrackPointExtension>
        </extensions>
      </trkpt>
      <trkpt lat="42.59344085119664669036865234375" lon="19.98822533525526523590087890625">
        <ele>1287.5999755859375</ele>
        <time>2026-06-15T14:54:36.000Z</time>
        <extensions>
          <ns3:TrackPointExtension>
            <ns3:atemp>21.0</ns3:atemp>
          </ns3:TrackPointExtension>
        </extensions>
      </trkpt>
      <trkpt lat="42.59342350065708160400390625" lon="19.9881875328719615936279296875">
        <ele>1286.5999755859375</ele>
        <time>2026-06-15T14:54:37.000Z</time>
        <extensions>
          <ns3:TrackPointExtension>
            <ns3:atemp>21.0</ns3:atemp>
          </ns3:TrackPointExtension>
        </extensions>
      </trkpt>
      <trkpt lat="42.5934072397649288177490234375" lon="19.98815392144024372100830078125">
        <ele>1286</ele>
        <time>2026-06-15T14:54:38.000Z</time>
        <extensions>
          <ns3:TrackPointExtension>
            <ns3:atemp>21.0</ns3:atemp>
          </ns3:TrackPointExtension>
        </extensions>
      </trkpt>
      <trkpt lat="42.59338921867311000823974609375" lon="19.98812508769333362579345703125">
        <ele>1285.4000244140625</ele>
        <time>2026-06-15T14:54:39.000Z</time>
        <extensions>
          <ns3:TrackPointExtension>
            <ns3:atemp>21.0</ns3:atemp>
          </ns3:TrackPointExtension>
        </extensions>
      </trkpt>
      <trkpt lat="42.593371532857418060302734375" lon="19.98809541575610637664794921875">
        <ele>1284.800048828125</ele>
        <time>2026-06-15T14:54:40.000Z</time>
        <extensions>
          <ns3:TrackPointExtension>
            <ns3:atemp>21.0</ns3:atemp>
          </ns3:TrackPointExtension>
        </extensions>
      </trkpt>
      <trkpt lat="42.59334613569080829620361328125" lon="19.98806021176278591156005859375">
        <ele>1284.199951171875</ele>
        <time>2026-06-15T14:54:41.000Z</time>
        <extensions>
          <ns3:TrackPointExtension>
            <ns3:atemp>21.0</ns3:atemp>
          </ns3:TrackPointExtension>
        </extensions>
      </trkpt>
      <trkpt lat="42.5933234207332134246826171875" lon="19.98801243491470813751220703125">
        <ele>1283.5999755859375</ele>
        <time>2026-06-15T14:54:42.000Z</time>
        <extensions>
          <ns3:TrackPointExtension>
            <ns3:atemp>21.0</ns3:atemp>
          </ns3:TrackPointExtension>
        </extensions>
      </trkpt>
      <trkpt lat="42.59329902939498424530029296875" lon="19.98796633444726467132568359375">
        <ele>1282.800048828125</ele>
        <time>2026-06-15T14:54:43.000Z</time>
        <extensions>
          <ns3:TrackPointExtension>
            <ns3:atemp>21.0</ns3:atemp>
          </ns3:TrackPointExtension>
        </extensions>
      </trkpt>
      <trkpt lat="42.5932583771646022796630859375" lon="19.98793766833841800689697265625">
        <ele>1282.199951171875</ele>
        <time>2026-06-15T14:54:44.000Z</time>
        <extensions>
          <ns3:TrackPointExtension>
            <ns3:atemp>21.0</ns3:atemp>
          </ns3:TrackPointExtension>
        </extensions>
      </trkpt>
      <trkpt lat="42.593213617801666259765625" lon="19.98793900944292545318603515625">
        <ele>1281.5999755859375</ele>
        <time>2026-06-15T14:54:45.000Z</time>
        <extensions>
          <ns3:TrackPointExtension>
            <ns3:atemp>21.0</ns3:atemp>
          </ns3:TrackPointExtension>
        </extensions>
      </trkpt>
      <trkpt lat="42.59316726587712764739990234375" lon="19.98795795254409313201904296875">
        <ele>1280.5999755859375</ele>
        <time>2026-06-15T14:54:46.000Z</time>
        <extensions>
          <ns3:TrackPointExtension>
            <ns3:atemp>21.0</ns3:atemp>
          </ns3:TrackPointExtension>
        </extensions>
      </trkpt>
      <trkpt lat="42.59311345405876636505126953125" lon="19.98797907494008541107177734375">
        <ele>1279.800048828125</ele>
        <time>2026-06-15T14:54:47.000Z</time>
        <extensions>
          <ns3:TrackPointExtension>
            <ns3:atemp>21.0</ns3:atemp>
          </ns3:TrackPointExtension>
        </extensions>
      </trkpt>
      <trkpt lat="42.59305796585977077484130859375" lon="19.98798477463424205780029296875">
        <ele>1278.800048828125</ele>
        <time>2026-06-15T14:54:48.000Z</time>
        <extensions>
          <ns3:TrackPointExtension>
            <ns3:atemp>21.0</ns3:atemp>
          </ns3:TrackPointExtension>
        </extensions>
      </trkpt>
      <trkpt lat="42.592992670834064483642578125" lon="19.987982846796512603759765625">
        <ele>1277.800048828125</ele>
        <time>2026-06-15T14:54:49.000Z</time>
        <extensions>
          <ns3:TrackPointExtension>
            <ns3:atemp>21.0</ns3:atemp>
          </ns3:TrackPointExtension>
        </extensions>
      </trkpt>
      <trkpt lat="42.59291564114391803741455078125" lon="19.9879736267030239105224609375">
        <ele>1276.5999755859375</ele>
        <time>2026-06-15T14:54:50.000Z</time>
        <extensions>
          <ns3:TrackPointExtension>
            <ns3:atemp>21.0</ns3:atemp>
          </ns3:TrackPointExtension>
        </extensions>
      </trkpt>
      <trkpt lat="42.59284020401537418365478515625" lon="19.98796172440052032470703125">
        <ele>1275.199951171875</ele>
        <time>2026-06-15T14:54:51.000Z</time>
        <extensions>
          <ns3:TrackPointExtension>
            <ns3:atemp>21.0</ns3:atemp>
          </ns3:TrackPointExtension>
        </extensions>
      </trkpt>
      <trkpt lat="42.59277700446546077728271484375" lon="19.98797974549233913421630859375">
        <ele>1273.800048828125</ele>
        <time>2026-06-15T14:54:52.000Z</time>
        <extensions>
          <ns3:TrackPointExtension>
            <ns3:atemp>21.0</ns3:atemp>
          </ns3:TrackPointExtension>
        </extensions>
      </trkpt>
      <trkpt lat="42.5927241146564483642578125" lon="19.98800757341086864471435546875">
        <ele>1272.5999755859375</ele>
        <time>2026-06-15T14:54:53.000Z</time>
        <extensions>
          <ns3:TrackPointExtension>
            <ns3:atemp>21.0</ns3:atemp>
          </ns3:TrackPointExtension>
        </extensions>
      </trkpt>
      <trkpt lat="42.59267943911254405975341796875" lon="19.9879918992519378662109375">
        <ele>1271.5999755859375</ele>
        <time>2026-06-15T14:54:54.000Z</time>
        <extensions>
          <ns3:TrackPointExtension>
            <ns3:atemp>21.0</ns3:atemp>
          </ns3:TrackPointExtension>
        </extensions>
      </trkpt>
      <trkpt lat="42.59266376495361328125" lon="19.98796147294342517852783203125">
        <ele>1270.5999755859375</ele>
        <time>2026-06-15T14:54:55.000Z</time>
        <extensions>
          <ns3:TrackPointExtension>
            <ns3:atemp>21.0</ns3:atemp>
          </ns3:TrackPointExtension>
        </extensions>
      </trkpt>
      <trkpt lat="42.59266502223908901214599609375" lon="19.98792425729334354400634765625">
        <ele>1269.800048828125</ele>
        <time>2026-06-15T14:54:56.000Z</time>
        <extensions>
          <ns3:TrackPointExtension>
            <ns3:atemp>21.0</ns3:atemp>
          </ns3:TrackPointExtension>
        </extensions>
      </trkpt>
      <trkpt lat="42.59267776273190975189208984375" lon="19.98789441771805286407470703125">
        <ele>1269</ele>
        <time>2026-06-15T14:54:57.000Z</time>
        <extensions>
          <ns3:TrackPointExtension>
            <ns3:atemp>21.0</ns3:atemp>
          </ns3:TrackPointExtension>
        </extensions>
      </trkpt>
      <trkpt lat="42.59270089678466320037841796875" lon="19.98788435943424701690673828125">
        <ele>1268.4000244140625</ele>
        <time>2026-06-15T14:54:58.000Z</time>
        <extensions>
          <ns3:TrackPointExtension>
            <ns3:atemp>21.0</ns3:atemp>
          </ns3:TrackPointExtension>
        </extensions>
      </trkpt>
      <trkpt lat="42.5927366875112056732177734375" lon="19.9878720380365848541259765625">
        <ele>1268</ele>
        <time>2026-06-15T14:54:59.000Z</time>
        <extensions>
          <ns3:TrackPointExtension>
            <ns3:atemp>21.0</ns3:atemp>
          </ns3:TrackPointExtension>
        </extensions>
      </trkpt>
      <trkpt lat="42.5927817821502685546875" lon="19.98784814961254596710205078125">
        <ele>1267.4000244140625</ele>
        <time>2026-06-15T14:55:00.000Z</time>
        <extensions>
          <ns3:TrackPointExtension>
            <ns3:atemp>21.0</ns3:atemp>
          </ns3:TrackPointExtension>
        </extensions>
      </trkpt>
      <trkpt lat="42.592827714979648590087890625" lon="19.98780976049602031707763671875">
        <ele>1266.800048828125</ele>
        <time>2026-06-15T14:55:01.000Z</time>
        <extensions>
          <ns3:TrackPointExtension>
            <ns3:atemp>21.0</ns3:atemp>
          </ns3:TrackPointExtension>
        </extensions>
      </trkpt>
      <trkpt lat="42.5928778387606143951416015625" lon="19.9877741374075412750244140625">
        <ele>1265.800048828125</ele>
        <time>2026-06-15T14:55:02.000Z</time>
        <extensions>
          <ns3:TrackPointExtension>
            <ns3:atemp>21.0</ns3:atemp>
          </ns3:TrackPointExtension>
        </extensions>
      </trkpt>
      <trkpt lat="42.59292636997997760772705078125" lon="19.9877322278916835784912109375">
        <ele>1264.800048828125</ele>
        <time>2026-06-15T14:55:03.000Z</time>
        <extensions>
          <ns3:TrackPointExtension>
            <ns3:atemp>21.0</ns3:atemp>
          </ns3:TrackPointExtension>
        </extensions>
      </trkpt>
      <trkpt lat="42.59296760894358158111572265625" lon="19.98768704943358898162841796875">
        <ele>1263.800048828125</ele>
        <time>2026-06-15T14:55:04.000Z</time>
        <extensions>
          <ns3:TrackPointExtension>
            <ns3:atemp>21.0</ns3:atemp>
          </ns3:TrackPointExtension>
        </extensions>
      </trkpt>
      <trkpt lat="42.59301555342972278594970703125" lon="19.98765151016414165496826171875">
        <ele>1262.5999755859375</ele>
        <time>2026-06-15T14:55:05.000Z</time>
        <extensions>
          <ns3:TrackPointExtension>
            <ns3:atemp>21.0</ns3:atemp>
          </ns3:TrackPointExtension>
        </extensions>
      </trkpt>
      <trkpt lat="42.5930615700781345367431640625" lon="19.98761261813342571258544921875">
        <ele>1261.5999755859375</ele>
        <time>2026-06-15T14:55:06.000Z</time>
        <extensions>
          <ns3:TrackPointExtension>
            <ns3:atemp>21.0</ns3:atemp>
          </ns3:TrackPointExtension>
        </extensions>
      </trkpt>
      <trkpt lat="42.59311236441135406494140625" lon="19.98755260370671749114990234375">
        <ele>1260.4000244140625</ele>
        <time>2026-06-15T14:55:07.000Z</time>
        <extensions>
          <ns3:TrackPointExtension>
            <ns3:atemp>21.0</ns3:atemp>
          </ns3:TrackPointExtension>
        </extensions>
      </trkpt>
      <trkpt lat="42.59317229501903057098388671875" lon="19.98749879188835620880126953125">
        <ele>1258.800048828125</ele>
        <time>2026-06-15T14:55:08.000Z</time>
        <extensions>
          <ns3:TrackPointExtension>
            <ns3:atemp>21.0</ns3:atemp>
          </ns3:TrackPointExtension>
        </extensions>
      </trkpt>
      <trkpt lat="42.5932402722537517547607421875" lon="19.98746828176081180572509765625">
        <ele>1257.5999755859375</ele>
        <time>2026-06-15T14:55:09.000Z</time>
        <extensions>
          <ns3:TrackPointExtension>
            <ns3:atemp>21.0</ns3:atemp>
          </ns3:TrackPointExtension>
        </extensions>
      </trkpt>
      <trkpt lat="42.5933150388300418853759765625" lon="19.987452439963817596435546875">
        <ele>1256</ele>
        <time>2026-06-15T14:55:10.000Z</time>
        <extensions>
          <ns3:TrackPointExtension>
            <ns3:atemp>21.0</ns3:atemp>
          </ns3:TrackPointExtension>
        </extensions>
      </trkpt>
      <trkpt lat="42.59339860640466213226318359375" lon="19.987459145486354827880859375">
        <ele>1254.5999755859375</ele>
        <time>2026-06-15T14:55:11.000Z</time>
        <extensions>
          <ns3:TrackPointExtension>
            <ns3:atemp>21.0</ns3:atemp>
          </ns3:TrackPointExtension>
        </extensions>
      </trkpt>
      <trkpt lat="42.593492902815341949462890625" lon="19.9874616600573062896728515625">
        <ele>1253</ele>
        <time>2026-06-15T14:55:12.000Z</time>
        <extensions>
          <ns3:TrackPointExtension>
            <ns3:atemp>21.0</ns3:atemp>
          </ns3:TrackPointExtension>
        </extensions>
      </trkpt>
      <trkpt lat="42.5935856066644191741943359375" lon="19.9874640069901943206787109375">
        <ele>1251.5999755859375</ele>
        <time>2026-06-15T14:55:13.000Z</time>
        <extensions>
          <ns3:TrackPointExtension>
            <ns3:atemp>21.0</ns3:atemp>
          </ns3:TrackPointExtension>
        </extensions>
      </trkpt>
      <trkpt lat="42.59367520920932292938232421875" lon="19.98745738528668880462646484375">
        <ele>1249.4000244140625</ele>
        <time>2026-06-15T14:55:14.000Z</time>
        <extensions>
          <ns3:TrackPointExtension>
            <ns3:atemp>21.0</ns3:atemp>
          </ns3:TrackPointExtension>
        </extensions>
      </trkpt>
      <trkpt lat="42.59376372210681438446044921875" lon="19.98743064701557159423828125">
        <ele>1248.199951171875</ele>
        <time>2026-06-15T14:55:15.000Z</time>
        <extensions>
          <ns3:TrackPointExtension>
            <ns3:atemp>21.0</ns3:atemp>
          </ns3:TrackPointExtension>
        </extensions>
      </trkpt>
      <trkpt lat="42.59385257028043270111083984375" lon="19.98739250935614109039306640625">
        <ele>1246.199951171875</ele>
        <time>2026-06-15T14:55:16.000Z</time>
        <extensions>
          <ns3:TrackPointExtension>
            <ns3:atemp>21.0</ns3:atemp>
          </ns3:TrackPointExtension>
        </extensions>
      </trkpt>
      <trkpt lat="42.5939373113214969635009765625" lon="19.98733199201524257659912109375">
        <ele>1244.800048828125</ele>
        <time>2026-06-15T14:55:17.000Z</time>
        <extensions>
          <ns3:TrackPointExtension>
            <ns3:atemp>21.0</ns3:atemp>
          </ns3:TrackPointExtension>
        </extensions>
      </trkpt>
      <trkpt lat="42.594005875289440155029296875" lon="19.9872516095638275146484375">
        <ele>1242.4000244140625</ele>
        <time>2026-06-15T14:55:18.000Z</time>
        <extensions>
          <ns3:TrackPointExtension>
            <ns3:atemp>21.0</ns3:atemp>
          </ns3:TrackPointExtension>
        </extensions>
      </trkpt>
      <trkpt lat="42.59407469071447849273681640625" lon="19.98718497343361377716064453125">
        <ele>1240</ele>
        <time>2026-06-15T14:55:19.000Z</time>
        <extensions>
          <ns3:TrackPointExtension>
            <ns3:atemp>21.0</ns3:atemp>
          </ns3:TrackPointExtension>
        </extensions>
      </trkpt>
      <trkpt lat="42.5941522233188152313232421875" lon="19.987137280404567718505859375">
        <ele>1238.800048828125</ele>
        <time>2026-06-15T14:55:20.000Z</time>
        <extensions>
          <ns3:TrackPointExtension>
            <ns3:atemp>21.0</ns3:atemp>
          </ns3:TrackPointExtension>
        </extensions>
      </trkpt>
      <trkpt lat="42.5942370481789112091064453125" lon="19.9870958738029003143310546875">
        <ele>1237.5999755859375</ele>
        <time>2026-06-15T14:55:21.000Z</time>
        <extensions>
          <ns3:TrackPointExtension>
            <ns3:atemp>21.0</ns3:atemp>
          </ns3:TrackPointExtension>
        </extensions>
      </trkpt>
      <trkpt lat="42.59432698599994182586669921875" lon="19.9870727397501468658447265625">
        <ele>1236.5999755859375</ele>
        <time>2026-06-15T14:55:22.000Z</time>
        <extensions>
          <ns3:TrackPointExtension>
            <ns3:atemp>21.0</ns3:atemp>
          </ns3:TrackPointExtension>
        </extensions>
      </trkpt>
      <trkpt lat="42.5944227911531925201416015625" lon="19.987061507999897003173828125">
        <ele>1235.5999755859375</ele>
        <time>2026-06-15T14:55:23.000Z</time>
        <extensions>
          <ns3:TrackPointExtension>
            <ns3:atemp>21.0</ns3:atemp>
          </ns3:TrackPointExtension>
        </extensions>
      </trkpt>
      <trkpt lat="42.59452261961996555328369140625" lon="19.987060166895389556884765625">
        <ele>1234.5999755859375</ele>
        <time>2026-06-15T14:55:24.000Z</time>
        <extensions>
          <ns3:TrackPointExtension>
            <ns3:atemp>21.0</ns3:atemp>
          </ns3:TrackPointExtension>
        </extensions>
      </trkpt>
      <trkpt lat="42.59461767040193080902099609375" lon="19.9870650283992290496826171875">
        <ele>1233</ele>
        <time>2026-06-15T14:55:25.000Z</time>
        <extensions>
          <ns3:TrackPointExtension>
            <ns3:atemp>21.0</ns3:atemp>
          </ns3:TrackPointExtension>
        </extensions>
      </trkpt>
      <trkpt lat="42.5947089493274688720703125" lon="19.98706050217151641845703125">
        <ele>1231.800048828125</ele>
        <time>2026-06-15T14:55:26.000Z</time>
        <extensions>
          <ns3:TrackPointExtension>
            <ns3:atemp>21.0</ns3:atemp>
          </ns3:TrackPointExtension>
        </extensions>
      </trkpt>
      <trkpt lat="42.5947976298630237579345703125" lon="19.98705404810607433319091796875">
        <ele>1230.5999755859375</ele>
        <time>2026-06-15T14:55:27.000Z</time>
        <extensions>
          <ns3:TrackPointExtension>
            <ns3:atemp>21.0</ns3:atemp>
          </ns3:TrackPointExtension>
        </extensions>
      </trkpt>
      <trkpt lat="42.594884969294071197509765625" lon="19.9870599992573261260986328125">
        <ele>1229.5999755859375</ele>
        <time>2026-06-15T14:55:28.000Z</time>
        <extensions>
          <ns3:TrackPointExtension>
            <ns3:atemp>21.0</ns3:atemp>
          </ns3:TrackPointExtension>
        </extensions>
      </trkpt>
      <trkpt lat="42.59497289545834064483642578125" lon="19.9870643578469753265380859375">
        <ele>1229</ele>
        <time>2026-06-15T14:55:29.000Z</time>
        <extensions>
          <ns3:TrackPointExtension>
            <ns3:atemp>21.0</ns3:atemp>
          </ns3:TrackPointExtension>
        </extensions>
      </trkpt>
      <trkpt lat="42.5950547866523265838623046875" lon="19.987050108611583709716796875">
        <ele>1228.199951171875</ele>
        <time>2026-06-15T14:55:30.000Z</time>
        <extensions>
          <ns3:TrackPointExtension>
            <ns3:atemp>21.0</ns3:atemp>
          </ns3:TrackPointExtension>
        </extensions>
      </trkpt>
      <trkpt lat="42.59513483382761478424072265625" lon="19.9870449118316173553466796875">
        <ele>1227.800048828125</ele>
        <time>2026-06-15T14:55:31.000Z</time>
        <extensions>
          <ns3:TrackPointExtension>
            <ns3:atemp>21.0</ns3:atemp>
          </ns3:TrackPointExtension>
        </extensions>
      </trkpt>
      <trkpt lat="42.59521530009806156158447265625" lon="19.98703636229038238525390625">
        <ele>1227.199951171875</ele>
        <time>2026-06-15T14:55:32.000Z</time>
        <extensions>
          <ns3:TrackPointExtension>
            <ns3:atemp>21.0</ns3:atemp>
          </ns3:TrackPointExtension>
        </extensions>
      </trkpt>
      <trkpt lat="42.59529073722660541534423828125" lon="19.987022615969181060791015625">
        <ele>1226.800048828125</ele>
        <time>2026-06-15T14:55:33.000Z</time>
        <extensions>
          <ns3:TrackPointExtension>
            <ns3:atemp>21.0</ns3:atemp>
          </ns3:TrackPointExtension>
        </extensions>
      </trkpt>
      <trkpt lat="42.59536206722259521484375" lon="19.98701213859021663665771484375">
        <ele>1226.5999755859375</ele>
        <time>2026-06-15T14:55:34.000Z</time>
        <extensions>
          <ns3:TrackPointExtension>
            <ns3:atemp>21.0</ns3:atemp>
          </ns3:TrackPointExtension>
        </extensions>
      </trkpt>
      <trkpt lat="42.595429457724094390869140625" lon="19.9870048463344573974609375">
        <ele>1226.199951171875</ele>
        <time>2026-06-15T14:55:35.000Z</time>
        <extensions>
          <ns3:TrackPointExtension>
            <ns3:atemp>21.0</ns3:atemp>
          </ns3:TrackPointExtension>
        </extensions>
      </trkpt>
      <trkpt lat="42.59549609385430812835693359375" lon="19.98699520714581012725830078125">
        <ele>1226</ele>
        <time>2026-06-15T14:55:36.000Z</time>
        <extensions>
          <ns3:TrackPointExtension>
            <ns3:atemp>21.0</ns3:atemp>
          </ns3:TrackPointExtension>
        </extensions>
      </trkpt>
      <trkpt lat="42.59555853903293609619140625" lon="19.9869781918823719024658203125">
        <ele>1226</ele>
        <time>2026-06-15T14:55:37.000Z</time>
        <extensions>
          <ns3:TrackPointExtension>
            <ns3:atemp>21.0</ns3:atemp>
          </ns3:TrackPointExtension>
        </extensions>
      </trkpt>
      <trkpt lat="42.59560975246131420135498046875" lon="19.98696302063763141632080078125">
        <ele>1225.800048828125</ele>
        <time>2026-06-15T14:55:38.000Z</time>
        <extensions>
          <ns3:TrackPointExtension>
            <ns3:atemp>21.0</ns3:atemp>
          </ns3:TrackPointExtension>
        </extensions>
      </trkpt>
      <trkpt lat="42.5956398434937000274658203125" lon="19.986948184669017791748046875">
        <ele>1225.800048828125</ele>
        <time>2026-06-15T14:55:39.000Z</time>
        <extensions>
          <ns3:TrackPointExtension>
            <ns3:atemp>21.0</ns3:atemp>
          </ns3:TrackPointExtension>
        </extensions>
      </trkpt>
      <trkpt lat="42.59564897976815700531005859375" lon="19.98697207309305667877197265625">
        <ele>1225.800048828125</ele>
        <time>2026-06-15T14:55:40.000Z</time>
        <extensions>
          <ns3:TrackPointExtension>
            <ns3:atemp>21.0</ns3:atemp>
          </ns3:TrackPointExtension>
        </extensions>
      </trkpt>
      <trkpt lat="42.59563774801790714263916015625" lon="19.9869780242443084716796875">
        <ele>1225.800048828125</ele>
        <time>2026-06-15T14:55:41.000Z</time>
        <extensions>
          <ns3:TrackPointExtension>
            <ns3:atemp>21.0</ns3:atemp>
          </ns3:TrackPointExtension>
        </extensions>
      </trkpt>
      <trkpt lat="42.595627270638942718505859375" lon="19.9869785271584987640380859375">
        <ele>1226</ele>
        <time>2026-06-15T14:55:42.000Z</time>
        <extensions>
          <ns3:TrackPointExtension>
            <ns3:atemp>21.0</ns3:atemp>
          </ns3:TrackPointExtension>
        </extensions>
      </trkpt>
      <trkpt lat="42.59561964310705661773681640625" lon="19.98697777278721332550048828125">
        <ele>1226</ele>
        <time>2026-06-15T14:55:43.000Z</time>
        <extensions>
          <ns3:TrackPointExtension>
            <ns3:atemp>21.0</ns3:atemp>
          </ns3:TrackPointExtension>
        </extensions>
      </trkpt>
      <trkpt lat="42.595611177384853363037109375" lon="19.98697978444397449493408203125">
        <ele>1226</ele>
        <time>2026-06-15T14:55:44.000Z</time>
        <extensions>
          <ns3:TrackPointExtension>
            <ns3:atemp>21.0</ns3:atemp>
          </ns3:TrackPointExtension>
        </extensions>
      </trkpt>
      <trkpt lat="42.59560321457684040069580078125" lon="19.98697559349238872528076171875">
        <ele>1225.800048828125</ele>
        <time>2026-06-15T14:55:45.000Z</time>
        <extensions>
          <ns3:TrackPointExtension>
            <ns3:atemp>21.0</ns3:atemp>
          </ns3:TrackPointExtension>
        </extensions>
      </trkpt>
      <trkpt lat="42.595589719712734222412109375" lon="19.98697576113045215606689453125">
        <ele>1225.5999755859375</ele>
        <time>2026-06-15T14:55:46.000Z</time>
        <extensions>
          <ns3:TrackPointExtension>
            <ns3:atemp>21.0</ns3:atemp>
          </ns3:TrackPointExtension>
        </extensions>
      </trkpt>
      <trkpt lat="42.595571614801883697509765625" lon="19.98697064816951751708984375">
        <ele>1225.5999755859375</ele>
        <time>2026-06-15T14:55:47.000Z</time>
        <extensions>
          <ns3:TrackPointExtension>
            <ns3:atemp>21.0</ns3:atemp>
          </ns3:TrackPointExtension>
        </extensions>
      </trkpt>
      <trkpt lat="42.595548145473003387451171875" lon="19.98697022907435894012451171875">
        <ele>1225.4000244140625</ele>
        <time>2026-06-15T14:55:48.000Z</time>
        <extensions>
          <ns3:TrackPointExtension>
            <ns3:atemp>21.0</ns3:atemp>
          </ns3:TrackPointExtension>
        </extensions>
      </trkpt>
      <trkpt lat="42.59552610106766223907470703125" lon="19.986972995102405548095703125">
        <ele>1225.4000244140625</ele>
        <time>2026-06-15T14:55:49.000Z</time>
        <extensions>
          <ns3:TrackPointExtension>
            <ns3:atemp>21.0</ns3:atemp>
          </ns3:TrackPointExtension>
        </extensions>
      </trkpt>
      <trkpt lat="42.5955067388713359832763671875" lon="19.9869785271584987640380859375">
        <ele>1225.4000244140625</ele>
        <time>2026-06-15T14:55:50.000Z</time>
        <extensions>
          <ns3:TrackPointExtension>
            <ns3:atemp>21.0</ns3:atemp>
          </ns3:TrackPointExtension>
        </extensions>
      </trkpt>
      <trkpt lat="42.59548704139888286590576171875" lon="19.986982382833957672119140625">
        <ele>1225.4000244140625</ele>
        <time>2026-06-15T14:55:51.000Z</time>
        <extensions>
          <ns3:TrackPointExtension>
            <ns3:atemp>21.0</ns3:atemp>
          </ns3:TrackPointExtension>
        </extensions>
      </trkpt>
      <trkpt lat="42.59546642191708087921142578125" lon="19.98698313720524311065673828125">
        <ele>1225.4000244140625</ele>
        <time>2026-06-15T14:55:52.000Z</time>
        <extensions>
          <ns3:TrackPointExtension>
            <ns3:atemp>21.0</ns3:atemp>
          </ns3:TrackPointExtension>
        </extensions>
      </trkpt>
      <trkpt lat="42.59544798173010349273681640625" lon="19.986981712281703948974609375">
        <ele>1225.5999755859375</ele>
        <time>2026-06-15T14:55:53.000Z</time>
        <extensions>
          <ns3:TrackPointExtension>
            <ns3:atemp>21.0</ns3:atemp>
          </ns3:TrackPointExtension>
        </extensions>
      </trkpt>
      <trkpt lat="42.5954313017427921295166015625" lon="19.98698808252811431884765625">
        <ele>1225.5999755859375</ele>
        <time>2026-06-15T14:55:54.000Z</time>
        <extensions>
          <ns3:TrackPointExtension>
            <ns3:atemp>21.0</ns3:atemp>
          </ns3:TrackPointExtension>
        </extensions>
      </trkpt>
      <trkpt lat="42.59541093371808528900146484375" lon="19.98699353076517581939697265625">
        <ele>1225.800048828125</ele>
        <time>2026-06-15T14:55:55.000Z</time>
        <extensions>
          <ns3:TrackPointExtension>
            <ns3:atemp>21.0</ns3:atemp>
          </ns3:TrackPointExtension>
        </extensions>
      </trkpt>
      <trkpt lat="42.59539081715047359466552734375" lon="19.98700224794447422027587890625">
        <ele>1225.5999755859375</ele>
        <time>2026-06-15T14:55:56.000Z</time>
        <extensions>
          <ns3:TrackPointExtension>
            <ns3:atemp>21.0</ns3:atemp>
          </ns3:TrackPointExtension>
        </extensions>
      </trkpt>
      <trkpt lat="42.595370449125766754150390625" lon="19.98700425960123538970947265625">
        <ele>1225.5999755859375</ele>
        <time>2026-06-15T14:55:57.000Z</time>
        <extensions>
          <ns3:TrackPointExtension>
            <ns3:atemp>21.0</ns3:atemp>
          </ns3:TrackPointExtension>
        </extensions>
      </trkpt>
      <trkpt lat="42.59535066783428192138671875" lon="19.9870050139725208282470703125">
        <ele>1225.4000244140625</ele>
        <time>2026-06-15T14:55:58.000Z</time>
        <extensions>
          <ns3:TrackPointExtension>
            <ns3:atemp>21.0</ns3:atemp>
          </ns3:TrackPointExtension>
        </extensions>
      </trkpt>
      <trkpt lat="42.5953285396099090576171875" lon="19.98700819909572601318359375">
        <ele>1225.4000244140625</ele>
        <time>2026-06-15T14:55:59.000Z</time>
        <extensions>
          <ns3:TrackPointExtension>
            <ns3:atemp>21.0</ns3:atemp>
          </ns3:TrackPointExtension>
        </extensions>
      </trkpt>
      <trkpt lat="42.5953069142997264862060546875" lon="19.98701079748570919036865234375">
        <ele>1225.4000244140625</ele>
        <time>2026-06-15T14:56:00.000Z</time>
        <extensions>
          <ns3:TrackPointExtension>
            <ns3:atemp>21.0</ns3:atemp>
          </ns3:TrackPointExtension>
        </extensions>
      </trkpt>
      <trkpt lat="42.59528436698019504547119140625" lon="19.98701213859021663665771484375">
        <ele>1225.4000244140625</ele>
        <time>2026-06-15T14:56:01.000Z</time>
        <extensions>
          <ns3:TrackPointExtension>
            <ns3:atemp>21.0</ns3:atemp>
          </ns3:TrackPointExtension>
        </extensions>
      </trkpt>
      <trkpt lat="42.5952619872987270355224609375" lon="19.987015910446643829345703125">
        <ele>1225.4000244140625</ele>
        <time>2026-06-15T14:56:02.000Z</time>
        <extensions>
          <ns3:TrackPointExtension>
            <ns3:atemp>21.0</ns3:atemp>
          </ns3:TrackPointExtension>
        </extensions>
      </trkpt>
      <trkpt lat="42.59523935616016387939453125" lon="19.98701700009405612945556640625">
        <ele>1225.4000244140625</ele>
        <time>2026-06-15T14:56:03.000Z</time>
        <extensions>
          <ns3:TrackPointExtension>
            <ns3:atemp>21.0</ns3:atemp>
          </ns3:TrackPointExtension>
        </extensions>
      </trkpt>
      <trkpt lat="42.59521479718387126922607421875" lon="19.9870160780847072601318359375">
        <ele>1225.4000244140625</ele>
        <time>2026-06-15T14:56:04.000Z</time>
        <extensions>
          <ns3:TrackPointExtension>
            <ns3:atemp>21.0</ns3:atemp>
          </ns3:TrackPointExtension>
        </extensions>
      </trkpt>
      <trkpt lat="42.59518973529338836669921875" lon="19.98701599426567554473876953125">
        <ele>1225.4000244140625</ele>
        <time>2026-06-15T14:56:05.000Z</time>
        <extensions>
          <ns3:TrackPointExtension>
            <ns3:atemp>21.0</ns3:atemp>
          </ns3:TrackPointExtension>
        </extensions>
      </trkpt>
      <trkpt lat="42.595169283449649810791015625" lon="19.98701498843729496002197265625">
        <ele>1225.4000244140625</ele>
        <time>2026-06-15T14:56:06.000Z</time>
        <extensions>
          <ns3:TrackPointExtension>
            <ns3:atemp>21.0</ns3:atemp>
          </ns3:TrackPointExtension>
        </extensions>
      </trkpt>
      <trkpt lat="42.59515218436717987060546875" lon="19.987011887133121490478515625">
        <ele>1225.4000244140625</ele>
        <time>2026-06-15T14:56:07.000Z</time>
        <extensions>
          <ns3:TrackPointExtension>
            <ns3:atemp>21.0</ns3:atemp>
          </ns3:TrackPointExtension>
        </extensions>
      </trkpt>
      <trkpt lat="42.5951335765421390533447265625" lon="19.9870128929615020751953125">
        <ele>1225.199951171875</ele>
        <time>2026-06-15T14:56:08.000Z</time>
        <extensions>
          <ns3:TrackPointExtension>
            <ns3:atemp>21.0</ns3:atemp>
          </ns3:TrackPointExtension>
        </extensions>
      </trkpt>
      <trkpt lat="42.5951137952506542205810546875" lon="19.98701649717986583709716796875">
        <ele>1225.4000244140625</ele>
        <time>2026-06-15T14:56:09.000Z</time>
        <extensions>
          <ns3:TrackPointExtension>
            <ns3:atemp>21.0</ns3:atemp>
          </ns3:TrackPointExtension>
        </extensions>
      </trkpt>
      <trkpt lat="42.59509694762527942657470703125" lon="19.98702538199722766876220703125">
        <ele>1225.4000244140625</ele>
        <time>2026-06-15T14:56:10.000Z</time>
        <extensions>
          <ns3:TrackPointExtension>
            <ns3:atemp>21.0</ns3:atemp>
          </ns3:TrackPointExtension>
        </extensions>
      </trkpt>
      <trkpt lat="42.59508110582828521728515625" lon="19.98702806420624256134033203125">
        <ele>1225.4000244140625</ele>
        <time>2026-06-15T14:56:11.000Z</time>
        <extensions>
          <ns3:TrackPointExtension>
            <ns3:atemp>21.0</ns3:atemp>
          </ns3:TrackPointExtension>
        </extensions>
      </trkpt>
      <trkpt lat="42.59506392292678356170654296875" lon="19.98703233897686004638671875">
        <ele>1225.4000244140625</ele>
        <time>2026-06-15T14:56:12.000Z</time>
        <extensions>
          <ns3:TrackPointExtension>
            <ns3:atemp>21.0</ns3:atemp>
          </ns3:TrackPointExtension>
        </extensions>
      </trkpt>
      <trkpt lat="42.59504464454948902130126953125" lon="19.98703502118587493896484375">
        <ele>1225.5999755859375</ele>
        <time>2026-06-15T14:56:13.000Z</time>
        <extensions>
          <ns3:TrackPointExtension>
            <ns3:atemp>21.0</ns3:atemp>
          </ns3:TrackPointExtension>
        </extensions>
      </trkpt>
      <trkpt lat="42.59502335451543331146240234375" lon="19.98703879304230213165283203125">
        <ele>1225.5999755859375</ele>
        <time>2026-06-15T14:56:14.000Z</time>
        <extensions>
          <ns3:TrackPointExtension>
            <ns3:atemp>21.0</ns3:atemp>
          </ns3:TrackPointExtension>
        </extensions>
      </trkpt>
      <trkpt lat="42.59500256739556789398193359375" lon="19.98704038560390472412109375">
        <ele>1225.5999755859375</ele>
        <time>2026-06-15T14:56:15.000Z</time>
        <extensions>
          <ns3:TrackPointExtension>
            <ns3:atemp>21.0</ns3:atemp>
          </ns3:TrackPointExtension>
        </extensions>
      </trkpt>
      <trkpt lat="42.59498245082795619964599609375" lon="19.9870348535478115081787109375">
        <ele>1225.5999755859375</ele>
        <time>2026-06-15T14:56:16.000Z</time>
        <extensions>
          <ns3:TrackPointExtension>
            <ns3:atemp>21.0</ns3:atemp>
          </ns3:TrackPointExtension>
        </extensions>
      </trkpt>
      <trkpt lat="42.594961412250995635986328125" lon="19.98703510500490665435791015625">
        <ele>1225.5999755859375</ele>
        <time>2026-06-15T14:56:17.000Z</time>
        <extensions>
          <ns3:TrackPointExtension>
            <ns3:atemp>21.0</ns3:atemp>
          </ns3:TrackPointExtension>
        </extensions>
      </trkpt>
      <trkpt lat="42.594941966235637664794921875" lon="19.9870328418910503387451171875">
        <ele>1225.5999755859375</ele>
        <time>2026-06-15T14:56:18.000Z</time>
        <extensions>
          <ns3:TrackPointExtension>
            <ns3:atemp>21.0</ns3:atemp>
          </ns3:TrackPointExtension>
        </extensions>
      </trkpt>
      <trkpt lat="42.594923190772533416748046875" lon="19.9870247952640056610107421875">
        <ele>1225.4000244140625</ele>
        <time>2026-06-15T14:56:19.000Z</time>
        <extensions>
          <ns3:TrackPointExtension>
            <ns3:atemp>21.0</ns3:atemp>
          </ns3:TrackPointExtension>
        </extensions>
      </trkpt>
      <trkpt lat="42.5949065946042537689208984375" lon="19.987024627625942230224609375">
        <ele>1225.4000244140625</ele>
        <time>2026-06-15T14:56:20.000Z</time>
        <extensions>
          <ns3:TrackPointExtension>
            <ns3:atemp>21.0</ns3:atemp>
          </ns3:TrackPointExtension>
        </extensions>
      </trkpt>
      <trkpt lat="42.59489343501627445220947265625" lon="19.9870147369801998138427734375">
        <ele>1225.4000244140625</ele>
        <time>2026-06-15T14:56:21.000Z</time>
        <extensions>
          <ns3:TrackPointExtension>
            <ns3:atemp>21.0</ns3:atemp>
          </ns3:TrackPointExtension>
        </extensions>
      </trkpt>
      <trkpt lat="42.59487725794315338134765625" lon="19.98701783828437328338623046875">
        <ele>1225.4000244140625</ele>
        <time>2026-06-15T14:56:22.000Z</time>
        <extensions>
          <ns3:TrackPointExtension>
            <ns3:atemp>21.0</ns3:atemp>
          </ns3:TrackPointExtension>
        </extensions>
      </trkpt>
      <trkpt lat="42.59486594237387180328369140625" lon="19.98701951466500759124755859375">
        <ele>1225.4000244140625</ele>
        <time>2026-06-15T14:56:23.000Z</time>
        <extensions>
          <ns3:TrackPointExtension>
            <ns3:atemp>21.0</ns3:atemp>
          </ns3:TrackPointExtension>
        </extensions>
      </trkpt>
      <trkpt lat="42.59485848248004913330078125" lon="19.9870147369801998138427734375">
        <ele>1225.5999755859375</ele>
        <time>2026-06-15T14:56:24.000Z</time>
        <extensions>
          <ns3:TrackPointExtension>
            <ns3:atemp>21.0</ns3:atemp>
          </ns3:TrackPointExtension>
        </extensions>
      </trkpt>
      <trkpt lat="42.5948583148419857025146484375" lon="19.987015910446643829345703125">
        <ele>1225.5999755859375</ele>
        <time>2026-06-15T14:56:25.000Z</time>
        <extensions>
          <ns3:TrackPointExtension>
            <ns3:atemp>21.0</ns3:atemp>
          </ns3:TrackPointExtension>
        </extensions>
      </trkpt>
      <trkpt lat="42.5948593206703662872314453125" lon="19.9870214425027370452880859375">
        <ele>1225.5999755859375</ele>
        <time>2026-06-15T14:56:26.000Z</time>
        <extensions>
          <ns3:TrackPointExtension>
            <ns3:atemp>21.0</ns3:atemp>
          </ns3:TrackPointExtension>
        </extensions>
      </trkpt>
      <trkpt lat="42.5948593206703662872314453125" lon="19.9870214425027370452880859375">
        <ele>1225.4000244140625</ele>
        <time>2026-06-15T14:56:27.000Z</time>
        <extensions>
          <ns3:TrackPointExtension>
            <ns3:atemp>21.0</ns3:atemp>
          </ns3:TrackPointExtension>
        </extensions>
      </trkpt>
      <trkpt lat="42.5948593206703662872314453125" lon="19.9870214425027370452880859375">
        <ele>1225.4000244140625</ele>
        <time>2026-06-15T14:56:28.000Z</time>
        <extensions>
          <ns3:TrackPointExtension>
            <ns3:atemp>21.0</ns3:atemp>
          </ns3:TrackPointExtension>
        </extensions>
      </trkpt>
      <trkpt lat="42.5948593206703662872314453125" lon="19.9870214425027370452880859375">
        <ele>1225.4000244140625</ele>
        <time>2026-06-15T14:56:29.000Z</time>
        <extensions>
          <ns3:TrackPointExtension>
            <ns3:atemp>21.0</ns3:atemp>
          </ns3:TrackPointExtension>
        </extensions>
      </trkpt>
      <trkpt lat="42.5948593206703662872314453125" lon="19.9870214425027370452880859375">
        <ele>1225.4000244140625</ele>
        <time>2026-06-15T14:56:30.000Z</time>
        <extensions>
          <ns3:TrackPointExtension>
            <ns3:atemp>21.0</ns3:atemp>
          </ns3:TrackPointExtension>
        </extensions>
      </trkpt>
      <trkpt lat="42.5948593206703662872314453125" lon="19.9870214425027370452880859375">
        <ele>1225.4000244140625</ele>
        <time>2026-06-15T14:56:31.000Z</time>
        <extensions>
          <ns3:TrackPointExtension>
            <ns3:atemp>21.0</ns3:atemp>
          </ns3:TrackPointExtension>
        </extensions>
      </trkpt>
      <trkpt lat="42.5948593206703662872314453125" lon="19.9870214425027370452880859375">
        <ele>1225.4000244140625</ele>
        <time>2026-06-15T14:56:32.000Z</time>
        <extensions>
          <ns3:TrackPointExtension>
            <ns3:atemp>21.0</ns3:atemp>
          </ns3:TrackPointExtension>
        </extensions>
      </trkpt>
      <trkpt lat="42.5948593206703662872314453125" lon="19.9870214425027370452880859375">
        <ele>1225.5999755859375</ele>
        <time>2026-06-15T14:56:33.000Z</time>
        <extensions>
          <ns3:TrackPointExtension>
            <ns3:atemp>21.0</ns3:atemp>
          </ns3:TrackPointExtension>
        </extensions>
      </trkpt>
      <trkpt lat="42.5948593206703662872314453125" lon="19.9870214425027370452880859375">
        <ele>1225.5999755859375</ele>
        <time>2026-06-15T14:56:34.000Z</time>
        <extensions>
          <ns3:TrackPointExtension>
            <ns3:atemp>21.0</ns3:atemp>
          </ns3:TrackPointExtension>
        </extensions>
      </trkpt>
      <trkpt lat="42.5948593206703662872314453125" lon="19.9870214425027370452880859375">
        <ele>1225.5999755859375</ele>
        <time>2026-06-15T14:56:35.000Z</time>
        <extensions>
          <ns3:TrackPointExtension>
            <ns3:atemp>21.0</ns3:atemp>
          </ns3:TrackPointExtension>
        </extensions>
      </trkpt>
      <trkpt lat="42.5948593206703662872314453125" lon="19.9870214425027370452880859375">
        <ele>1225.5999755859375</ele>
        <time>2026-06-15T14:56:36.000Z</time>
        <extensions>
          <ns3:TrackPointExtension>
            <ns3:atemp>21.0</ns3:atemp>
          </ns3:TrackPointExtension>
        </extensions>
      </trkpt>
      <trkpt lat="42.5948593206703662872314453125" lon="19.9870214425027370452880859375">
        <ele>1225.5999755859375</ele>
        <time>2026-06-15T14:56:37.000Z</time>
        <extensions>
          <ns3:TrackPointExtension>
            <ns3:atemp>21.0</ns3:atemp>
          </ns3:TrackPointExtension>
        </extensions>
      </trkpt>
      <trkpt lat="42.5948593206703662872314453125" lon="19.9870214425027370452880859375">
        <ele>1225.5999755859375</ele>
        <time>2026-06-15T14:56:38.000Z</time>
        <extensions>
          <ns3:TrackPointExtension>
            <ns3:atemp>21.0</ns3:atemp>
          </ns3:TrackPointExtension>
        </extensions>
      </trkpt>
      <trkpt lat="42.5948593206703662872314453125" lon="19.9870214425027370452880859375">
        <ele>1225.5999755859375</ele>
        <time>2026-06-15T14:56:39.000Z</time>
        <extensions>
          <ns3:TrackPointExtension>
            <ns3:atemp>21.0</ns3:atemp>
          </ns3:TrackPointExtension>
        </extensions>
      </trkpt>
      <trkpt lat="42.5948593206703662872314453125" lon="19.9870214425027370452880859375">
        <ele>1225.5999755859375</ele>
        <time>2026-06-15T14:56:40.000Z</time>
        <extensions>
          <ns3:TrackPointExtension>
            <ns3:atemp>21.0</ns3:atemp>
          </ns3:TrackPointExtension>
        </extensions>
      </trkpt>
      <trkpt lat="42.5948593206703662872314453125" lon="19.9870214425027370452880859375">
        <ele>1225.5999755859375</ele>
        <time>2026-06-15T14:56:41.000Z</time>
        <extensions>
          <ns3:TrackPointExtension>
            <ns3:atemp>21.0</ns3:atemp>
          </ns3:TrackPointExtension>
        </extensions>
      </trkpt>
      <trkpt lat="42.5948593206703662872314453125" lon="19.9870214425027370452880859375">
        <ele>1225.5999755859375</ele>
        <time>2026-06-15T14:56:42.000Z</time>
        <extensions>
          <ns3:TrackPointExtension>
            <ns3:atemp>21.0</ns3:atemp>
          </ns3:TrackPointExtension>
        </extensions>
      </trkpt>
      <trkpt lat="42.5948593206703662872314453125" lon="19.9870214425027370452880859375">
        <ele>1225.5999755859375</ele>
        <time>2026-06-15T14:56:43.000Z</time>
        <extensions>
          <ns3:TrackPointExtension>
            <ns3:atemp>21.0</ns3:atemp>
          </ns3:TrackPointExtension>
        </extensions>
      </trkpt>
      <trkpt lat="42.5948593206703662872314453125" lon="19.9870214425027370452880859375">
        <ele>1225.5999755859375</ele>
        <time>2026-06-15T14:56:44.000Z</time>
        <extensions>
          <ns3:TrackPointExtension>
            <ns3:atemp>21.0</ns3:atemp>
          </ns3:TrackPointExtension>
        </extensions>
      </trkpt>
      <trkpt lat="42.5948593206703662872314453125" lon="19.9870214425027370452880859375">
        <ele>1225.4000244140625</ele>
        <time>2026-06-15T14:56:45.000Z</time>
        <extensions>
          <ns3:TrackPointExtension>
            <ns3:atemp>21.0</ns3:atemp>
          </ns3:TrackPointExtension>
        </extensions>
      </trkpt>
      <trkpt lat="42.5948593206703662872314453125" lon="19.9870214425027370452880859375">
        <ele>1225.4000244140625</ele>
        <time>2026-06-15T14:56:46.000Z</time>
        <extensions>
          <ns3:TrackPointExtension>
            <ns3:atemp>21.0</ns3:atemp>
          </ns3:TrackPointExtension>
        </extensions>
      </trkpt>
      <trkpt lat="42.5948593206703662872314453125" lon="19.9870214425027370452880859375">
        <ele>1225.4000244140625</ele>
        <time>2026-06-15T14:56:47.000Z</time>
        <extensions>
          <ns3:TrackPointExtension>
            <ns3:atemp>21.0</ns3:atemp>
          </ns3:TrackPointExtension>
        </extensions>
      </trkpt>
      <trkpt lat="42.5948593206703662872314453125" lon="19.9870214425027370452880859375">
        <ele>1225.4000244140625</ele>
        <time>2026-06-15T14:56:48.000Z</time>
        <extensions>
          <ns3:TrackPointExtension>
            <ns3:atemp>21.0</ns3:atemp>
          </ns3:TrackPointExtension>
        </extensions>
      </trkpt>
      <trkpt lat="42.5948593206703662872314453125" lon="19.9870214425027370452880859375">
        <ele>1225.4000244140625</ele>
        <time>2026-06-15T14:56:49.000Z</time>
        <extensions>
          <ns3:TrackPointExtension>
            <ns3:atemp>21.0</ns3:atemp>
          </ns3:TrackPointExtension>
        </extensions>
      </trkpt>
      <trkpt lat="42.5948593206703662872314453125" lon="19.9870214425027370452880859375">
        <ele>1225.199951171875</ele>
        <time>2026-06-15T14:56:50.000Z</time>
        <extensions>
          <ns3:TrackPointExtension>
            <ns3:atemp>21.0</ns3:atemp>
          </ns3:TrackPointExtension>
        </extensions>
      </trkpt>
      <trkpt lat="42.5948593206703662872314453125" lon="19.9870214425027370452880859375">
        <ele>1225.199951171875</ele>
        <time>2026-06-15T14:56:51.000Z</time>
        <extensions>
          <ns3:TrackPointExtension>
            <ns3:atemp>21.0</ns3:atemp>
          </ns3:TrackPointExtension>
        </extensions>
      </trkpt>
      <trkpt lat="42.5948593206703662872314453125" lon="19.9870214425027370452880859375">
        <ele>1225.199951171875</ele>
        <time>2026-06-15T14:56:52.000Z</time>
        <extensions>
          <ns3:TrackPointExtension>
            <ns3:atemp>21.0</ns3:atemp>
          </ns3:TrackPointExtension>
        </extensions>
      </trkpt>
      <trkpt lat="42.5948593206703662872314453125" lon="19.9870214425027370452880859375">
        <ele>1225.199951171875</ele>
        <time>2026-06-15T14:56:53.000Z</time>
        <extensions>
          <ns3:TrackPointExtension>
            <ns3:atemp>21.0</ns3:atemp>
          </ns3:TrackPointExtension>
        </extensions>
      </trkpt>
      <trkpt lat="42.5948593206703662872314453125" lon="19.9870214425027370452880859375">
        <ele>1225.199951171875</ele>
        <time>2026-06-15T14:56:54.000Z</time>
        <extensions>
          <ns3:TrackPointExtension>
            <ns3:atemp>21.0</ns3:atemp>
          </ns3:TrackPointExtension>
        </extensions>
      </trkpt>
      <trkpt lat="42.5948593206703662872314453125" lon="19.9870214425027370452880859375">
        <ele>1225.199951171875</ele>
        <time>2026-06-15T14:56:55.000Z</time>
        <extensions>
          <ns3:TrackPointExtension>
            <ns3:atemp>21.0</ns3:atemp>
          </ns3:TrackPointExtension>
        </extensions>
      </trkpt>
      <trkpt lat="42.5948593206703662872314453125" lon="19.9870214425027370452880859375">
        <ele>1225.199951171875</ele>
        <time>2026-06-15T14:56:56.000Z</time>
        <extensions>
          <ns3:TrackPointExtension>
            <ns3:atemp>21.0</ns3:atemp>
          </ns3:TrackPointExtension>
        </extensions>
      </trkpt>
      <trkpt lat="42.5948593206703662872314453125" lon="19.9870214425027370452880859375">
        <ele>1225.199951171875</ele>
        <time>2026-06-15T14:56:57.000Z</time>
        <extensions>
          <ns3:TrackPointExtension>
            <ns3:atemp>21.0</ns3:atemp>
          </ns3:TrackPointExtension>
        </extensions>
      </trkpt>
      <trkpt lat="42.5948593206703662872314453125" lon="19.9870214425027370452880859375">
        <ele>1225</ele>
        <time>2026-06-15T14:56:58.000Z</time>
        <extensions>
          <ns3:TrackPointExtension>
            <ns3:atemp>21.0</ns3:atemp>
          </ns3:TrackPointExtension>
        </extensions>
      </trkpt>
      <trkpt lat="42.5948593206703662872314453125" lon="19.9870214425027370452880859375">
        <ele>1225</ele>
        <time>2026-06-15T14:56:59.000Z</time>
        <extensions>
          <ns3:TrackPointExtension>
            <ns3:atemp>21.0</ns3:atemp>
          </ns3:TrackPointExtension>
        </extensions>
      </trkpt>
      <trkpt lat="42.5948593206703662872314453125" lon="19.9870214425027370452880859375">
        <ele>1225</ele>
        <time>2026-06-15T14:57:00.000Z</time>
        <extensions>
          <ns3:TrackPointExtension>
            <ns3:atemp>21.0</ns3:atemp>
          </ns3:TrackPointExtension>
        </extensions>
      </trkpt>
      <trkpt lat="42.5948593206703662872314453125" lon="19.9870214425027370452880859375">
        <ele>1225</ele>
        <time>2026-06-15T14:57:01.000Z</time>
        <extensions>
          <ns3:TrackPointExtension>
            <ns3:atemp>21.0</ns3:atemp>
          </ns3:TrackPointExtension>
        </extensions>
      </trkpt>
      <trkpt lat="42.5948593206703662872314453125" lon="19.9870214425027370452880859375">
        <ele>1225</ele>
        <time>2026-06-15T14:57:02.000Z</time>
        <extensions>
          <ns3:TrackPointExtension>
            <ns3:atemp>21.0</ns3:atemp>
          </ns3:TrackPointExtension>
        </extensions>
      </trkpt>
      <trkpt lat="42.5948593206703662872314453125" lon="19.9870214425027370452880859375">
        <ele>1225</ele>
        <time>2026-06-15T14:57:03.000Z</time>
        <extensions>
          <ns3:TrackPointExtension>
            <ns3:atemp>21.0</ns3:atemp>
          </ns3:TrackPointExtension>
        </extensions>
      </trkpt>
      <trkpt lat="42.5948593206703662872314453125" lon="19.9870214425027370452880859375">
        <ele>1224.800048828125</ele>
        <time>2026-06-15T14:57:04.000Z</time>
        <extensions>
          <ns3:TrackPointExtension>
            <ns3:atemp>21.0</ns3:atemp>
          </ns3:TrackPointExtension>
        </extensions>
      </trkpt>
      <trkpt lat="42.5948593206703662872314453125" lon="19.9870214425027370452880859375">
        <ele>1224.800048828125</ele>
        <time>2026-06-15T14:57:05.000Z</time>
        <extensions>
          <ns3:TrackPointExtension>
            <ns3:atemp>21.0</ns3:atemp>
          </ns3:TrackPointExtension>
        </extensions>
      </trkpt>
      <trkpt lat="42.5948593206703662872314453125" lon="19.9870214425027370452880859375">
        <ele>1224.800048828125</ele>
        <time>2026-06-15T14:57:06.000Z</time>
        <extensions>
          <ns3:TrackPointExtension>
            <ns3:atemp>21.0</ns3:atemp>
          </ns3:TrackPointExtension>
        </extensions>
      </trkpt>
      <trkpt lat="42.5948593206703662872314453125" lon="19.9870214425027370452880859375">
        <ele>1224.800048828125</ele>
        <time>2026-06-15T14:57:07.000Z</time>
        <extensions>
          <ns3:TrackPointExtension>
            <ns3:atemp>21.0</ns3:atemp>
          </ns3:TrackPointExtension>
        </extensions>
      </trkpt>
      <trkpt lat="42.5948593206703662872314453125" lon="19.9870214425027370452880859375">
        <ele>1224.800048828125</ele>
        <time>2026-06-15T14:57:08.000Z</time>
        <extensions>
          <ns3:TrackPointExtension>
            <ns3:atemp>21.0</ns3:atemp>
          </ns3:TrackPointExtension>
        </extensions>
      </trkpt>
      <trkpt lat="42.5948593206703662872314453125" lon="19.9870214425027370452880859375">
        <ele>1224.800048828125</ele>
        <time>2026-06-15T14:57:09.000Z</time>
        <extensions>
          <ns3:TrackPointExtension>
            <ns3:atemp>21.0</ns3:atemp>
          </ns3:TrackPointExtension>
        </extensions>
      </trkpt>
      <trkpt lat="42.5948593206703662872314453125" lon="19.9870214425027370452880859375">
        <ele>1224.800048828125</ele>
        <time>2026-06-15T14:57:10.000Z</time>
        <extensions>
          <ns3:TrackPointExtension>
            <ns3:atemp>21.0</ns3:atemp>
          </ns3:TrackPointExtension>
        </extensions>
      </trkpt>
      <trkpt lat="42.5948593206703662872314453125" lon="19.9870214425027370452880859375">
        <ele>1224.800048828125</ele>
        <time>2026-06-15T14:57:11.000Z</time>
        <extensions>
          <ns3:TrackPointExtension>
            <ns3:atemp>21.0</ns3:atemp>
          </ns3:TrackPointExtension>
        </extensions>
      </trkpt>
      <trkpt lat="42.5948593206703662872314453125" lon="19.9870214425027370452880859375">
        <ele>1224.800048828125</ele>
        <time>2026-06-15T14:57:12.000Z</time>
        <extensions>
          <ns3:TrackPointExtension>
            <ns3:atemp>21.0</ns3:atemp>
          </ns3:TrackPointExtension>
        </extensions>
      </trkpt>
      <trkpt lat="42.5948593206703662872314453125" lon="19.9870214425027370452880859375">
        <ele>1224.800048828125</ele>
        <time>2026-06-15T14:57:13.000Z</time>
        <extensions>
          <ns3:TrackPointExtension>
            <ns3:atemp>21.0</ns3:atemp>
          </ns3:TrackPointExtension>
        </extensions>
      </trkpt>
      <trkpt lat="42.5948593206703662872314453125" lon="19.9870214425027370452880859375">
        <ele>1225</ele>
        <time>2026-06-15T14:57:14.000Z</time>
        <extensions>
          <ns3:TrackPointExtension>
            <ns3:atemp>21.0</ns3:atemp>
          </ns3:TrackPointExtension>
        </extensions>
      </trkpt>
      <trkpt lat="42.5948593206703662872314453125" lon="19.9870214425027370452880859375">
        <ele>1225.199951171875</ele>
        <time>2026-06-15T14:57:15.000Z</time>
        <extensions>
          <ns3:TrackPointExtension>
            <ns3:atemp>21.0</ns3:atemp>
          </ns3:TrackPointExtension>
        </extensions>
      </trkpt>
      <trkpt lat="42.5948593206703662872314453125" lon="19.9870214425027370452880859375">
        <ele>1225.199951171875</ele>
        <time>2026-06-15T14:57:16.000Z</time>
        <extensions>
          <ns3:TrackPointExtension>
            <ns3:atemp>21.0</ns3:atemp>
          </ns3:TrackPointExtension>
        </extensions>
      </trkpt>
      <trkpt lat="42.5948593206703662872314453125" lon="19.9870214425027370452880859375">
        <ele>1225.199951171875</ele>
        <time>2026-06-15T14:57:17.000Z</time>
        <extensions>
          <ns3:TrackPointExtension>
            <ns3:atemp>21.0</ns3:atemp>
          </ns3:TrackPointExtension>
        </extensions>
      </trkpt>
      <trkpt lat="42.5948593206703662872314453125" lon="19.9870214425027370452880859375">
        <ele>1225.199951171875</ele>
        <time>2026-06-15T14:57:18.000Z</time>
        <extensions>
          <ns3:TrackPointExtension>
            <ns3:atemp>21.0</ns3:atemp>
          </ns3:TrackPointExtension>
        </extensions>
      </trkpt>
      <trkpt lat="42.5948593206703662872314453125" lon="19.9870214425027370452880859375">
        <ele>1225.199951171875</ele>
        <time>2026-06-15T14:57:19.000Z</time>
        <extensions>
          <ns3:TrackPointExtension>
            <ns3:atemp>21.0</ns3:atemp>
          </ns3:TrackPointExtension>
        </extensions>
      </trkpt>
      <trkpt lat="42.5948593206703662872314453125" lon="19.9870214425027370452880859375">
        <ele>1225.199951171875</ele>
        <time>2026-06-15T14:57:20.000Z</time>
        <extensions>
          <ns3:TrackPointExtension>
            <ns3:atemp>21.0</ns3:atemp>
          </ns3:TrackPointExtension>
        </extensions>
      </trkpt>
      <trkpt lat="42.5948593206703662872314453125" lon="19.9870214425027370452880859375">
        <ele>1225.4000244140625</ele>
        <time>2026-06-15T14:57:21.000Z</time>
        <extensions>
          <ns3:TrackPointExtension>
            <ns3:atemp>21.0</ns3:atemp>
          </ns3:TrackPointExtension>
        </extensions>
      </trkpt>
      <trkpt lat="42.5948593206703662872314453125" lon="19.9870214425027370452880859375">
        <ele>1225.5999755859375</ele>
        <time>2026-06-15T14:57:22.000Z</time>
        <extensions>
          <ns3:TrackPointExtension>
            <ns3:atemp>21.0</ns3:atemp>
          </ns3:TrackPointExtension>
        </extensions>
      </trkpt>
      <trkpt lat="42.5948593206703662872314453125" lon="19.9870214425027370452880859375">
        <ele>1225.5999755859375</ele>
        <time>2026-06-15T14:57:23.000Z</time>
        <extensions>
          <ns3:TrackPointExtension>
            <ns3:atemp>21.0</ns3:atemp>
          </ns3:TrackPointExtension>
        </extensions>
      </trkpt>
      <trkpt lat="42.594859488308429718017578125" lon="19.9870221130549907684326171875">
        <ele>1225.5999755859375</ele>
        <time>2026-06-15T14:57:24.000Z</time>
        <extensions>
          <ns3:TrackPointExtension>
            <ns3:atemp>21.0</ns3:atemp>
          </ns3:TrackPointExtension>
        </extensions>
      </trkpt>
      <trkpt lat="42.5948673672974109649658203125" lon="19.98702622018754482269287109375">
        <ele>1225.5999755859375</ele>
        <time>2026-06-15T14:57:25.000Z</time>
        <extensions>
          <ns3:TrackPointExtension>
            <ns3:atemp>21.0</ns3:atemp>
          </ns3:TrackPointExtension>
        </extensions>
      </trkpt>
      <trkpt lat="42.594878263771533966064453125" lon="19.98703510500490665435791015625">
        <ele>1225.199951171875</ele>
        <time>2026-06-15T14:57:26.000Z</time>
        <extensions>
          <ns3:TrackPointExtension>
            <ns3:atemp>21.0</ns3:atemp>
          </ns3:TrackPointExtension>
        </extensions>
      </trkpt>
      <trkpt lat="42.5948881544172763824462890625" lon="19.9870274774730205535888671875">
        <ele>1225.199951171875</ele>
        <time>2026-06-15T14:57:27.000Z</time>
        <extensions>
          <ns3:TrackPointExtension>
            <ns3:atemp>21.0</ns3:atemp>
          </ns3:TrackPointExtension>
        </extensions>
      </trkpt>
      <trkpt lat="42.594897039234638214111328125" lon="19.98700685799121856689453125">
        <ele>1225.5999755859375</ele>
        <time>2026-06-15T14:57:28.000Z</time>
        <extensions>
          <ns3:TrackPointExtension>
            <ns3:atemp>21.0</ns3:atemp>
          </ns3:TrackPointExtension>
        </extensions>
      </trkpt>
      <trkpt lat="42.59490986354649066925048828125" lon="19.98698405921459197998046875">
        <ele>1225.5999755859375</ele>
        <time>2026-06-15T14:57:29.000Z</time>
        <extensions>
          <ns3:TrackPointExtension>
            <ns3:atemp>21.0</ns3:atemp>
          </ns3:TrackPointExtension>
        </extensions>
      </trkpt>
      <trkpt lat="42.5949344225227832794189453125" lon="19.9869614280760288238525390625">
        <ele>1225.4000244140625</ele>
        <time>2026-06-15T14:57:30.000Z</time>
        <extensions>
          <ns3:TrackPointExtension>
            <ns3:atemp>21.0</ns3:atemp>
          </ns3:TrackPointExtension>
        </extensions>
      </trkpt>
      <trkpt lat="42.59496853686869144439697265625" lon="19.98693971894681453704833984375">
        <ele>1225.199951171875</ele>
        <time>2026-06-15T14:57:31.000Z</time>
        <extensions>
          <ns3:TrackPointExtension>
            <ns3:atemp>21.0</ns3:atemp>
          </ns3:TrackPointExtension>
        </extensions>
      </trkpt>
      <trkpt lat="42.59500826708972454071044921875" lon="19.98691541142761707305908203125">
        <ele>1225.199951171875</ele>
        <time>2026-06-15T14:57:32.000Z</time>
        <extensions>
          <ns3:TrackPointExtension>
            <ns3:atemp>21.0</ns3:atemp>
          </ns3:TrackPointExtension>
        </extensions>
      </trkpt>
      <trkpt lat="42.5950551219284534454345703125" lon="19.98688272200524806976318359375">
        <ele>1225</ele>
        <time>2026-06-15T14:57:33.000Z</time>
        <extensions>
          <ns3:TrackPointExtension>
            <ns3:atemp>21.0</ns3:atemp>
          </ns3:TrackPointExtension>
        </extensions>
      </trkpt>
      <trkpt lat="42.5951114483177661895751953125" lon="19.98684382997453212738037109375">
        <ele>1224.5999755859375</ele>
        <time>2026-06-15T14:57:34.000Z</time>
        <extensions>
          <ns3:TrackPointExtension>
            <ns3:atemp>21.0</ns3:atemp>
          </ns3:TrackPointExtension>
        </extensions>
      </trkpt>
      <trkpt lat="42.59517422877252101898193359375" lon="19.98681164346635341644287109375">
        <ele>1224.199951171875</ele>
        <time>2026-06-15T14:57:35.000Z</time>
        <extensions>
          <ns3:TrackPointExtension>
            <ns3:atemp>21.0</ns3:atemp>
          </ns3:TrackPointExtension>
        </extensions>
      </trkpt>
      <trkpt lat="42.59523357264697551727294921875" lon="19.98677694238722324371337890625">
        <ele>1223.5999755859375</ele>
        <time>2026-06-15T14:57:36.000Z</time>
        <extensions>
          <ns3:TrackPointExtension>
            <ns3:atemp>21.0</ns3:atemp>
          </ns3:TrackPointExtension>
        </extensions>
      </trkpt>
      <trkpt lat="42.59529928676784038543701171875" lon="19.98675330542027950286865234375">
        <ele>1222.800048828125</ele>
        <time>2026-06-15T14:57:37.000Z</time>
        <extensions>
          <ns3:TrackPointExtension>
            <ns3:atemp>21.0</ns3:atemp>
          </ns3:TrackPointExtension>
        </extensions>
      </trkpt>
      <trkpt lat="42.59536676108837127685546875" lon="19.986736290156841278076171875">
        <ele>1222.199951171875</ele>
        <time>2026-06-15T14:57:38.000Z</time>
        <extensions>
          <ns3:TrackPointExtension>
            <ns3:atemp>21.0</ns3:atemp>
          </ns3:TrackPointExtension>
        </extensions>
      </trkpt>
      <trkpt lat="42.595424093306064605712890625" lon="19.9867160059511661529541015625">
        <ele>1221.4000244140625</ele>
        <time>2026-06-15T14:57:39.000Z</time>
        <extensions>
          <ns3:TrackPointExtension>
            <ns3:atemp>21.0</ns3:atemp>
          </ns3:TrackPointExtension>
        </extensions>
      </trkpt>
      <trkpt lat="42.59546675719320774078369140625" lon="19.98671106062829494476318359375">
        <ele>1221</ele>
        <time>2026-06-15T14:57:40.000Z</time>
        <extensions>
          <ns3:TrackPointExtension>
            <ns3:atemp>21.0</ns3:atemp>
          </ns3:TrackPointExtension>
        </extensions>
      </trkpt>
      <trkpt lat="42.5954963453114032745361328125" lon="19.9867200292646884918212890625">
        <ele>1220.5999755859375</ele>
        <time>2026-06-15T14:57:41.000Z</time>
        <extensions>
          <ns3:TrackPointExtension>
            <ns3:atemp>21.0</ns3:atemp>
          </ns3:TrackPointExtension>
        </extensions>
      </trkpt>
      <trkpt lat="42.59551989845931529998779296875" lon="19.98672430403530597686767578125">
        <ele>1220.4000244140625</ele>
        <time>2026-06-15T14:57:42.000Z</time>
        <extensions>
          <ns3:TrackPointExtension>
            <ns3:atemp>21.0</ns3:atemp>
          </ns3:TrackPointExtension>
        </extensions>
      </trkpt>
      <trkpt lat="42.59553867392241954803466796875" lon="19.98672229237854480743408203125">
        <ele>1220.199951171875</ele>
        <time>2026-06-15T14:57:43.000Z</time>
        <extensions>
          <ns3:TrackPointExtension>
            <ns3:atemp>21.0</ns3:atemp>
          </ns3:TrackPointExtension>
        </extensions>
      </trkpt>
      <trkpt lat="42.5955556891858577728271484375" lon="19.98671793378889560699462890625">
        <ele>1220.199951171875</ele>
        <time>2026-06-15T14:57:44.000Z</time>
        <extensions>
          <ns3:TrackPointExtension>
            <ns3:atemp>21.0</ns3:atemp>
          </ns3:TrackPointExtension>
        </extensions>
      </trkpt>
      <trkpt lat="42.59556926786899566650390625" lon="19.98671240173280239105224609375">
        <ele>1220.4000244140625</ele>
        <time>2026-06-15T14:57:45.000Z</time>
        <extensions>
          <ns3:TrackPointExtension>
            <ns3:atemp>21.0</ns3:atemp>
          </ns3:TrackPointExtension>
        </extensions>
      </trkpt>
      <trkpt lat="42.595574297010898590087890625" lon="19.98671114444732666015625">
        <ele>1220.5999755859375</ele>
        <time>2026-06-15T14:57:46.000Z</time>
        <extensions>
          <ns3:TrackPointExtension>
            <ns3:atemp>21.0</ns3:atemp>
          </ns3:TrackPointExtension>
        </extensions>
      </trkpt>
      <trkpt lat="42.59557102806866168975830078125" lon="19.9867103062570095062255859375">
        <ele>1220.5999755859375</ele>
        <time>2026-06-15T14:57:47.000Z</time>
        <extensions>
          <ns3:TrackPointExtension>
            <ns3:atemp>21.0</ns3:atemp>
          </ns3:TrackPointExtension>
        </extensions>
      </trkpt>
      <trkpt lat="42.595570944249629974365234375" lon="19.98671022243797779083251953125">
        <ele>1220.5999755859375</ele>
        <time>2026-06-15T14:57:48.000Z</time>
        <extensions>
          <ns3:TrackPointExtension>
            <ns3:atemp>21.0</ns3:atemp>
          </ns3:TrackPointExtension>
        </extensions>
      </trkpt>
      <trkpt lat="42.595570944249629974365234375" lon="19.98671022243797779083251953125">
        <ele>1220.800048828125</ele>
        <time>2026-06-15T14:57:49.000Z</time>
        <extensions>
          <ns3:TrackPointExtension>
            <ns3:atemp>21.0</ns3:atemp>
          </ns3:TrackPointExtension>
        </extensions>
      </trkpt>
      <trkpt lat="42.595570944249629974365234375" lon="19.98671022243797779083251953125">
        <ele>1220.800048828125</ele>
        <time>2026-06-15T14:57:50.000Z</time>
        <extensions>
          <ns3:TrackPointExtension>
            <ns3:atemp>21.0</ns3:atemp>
          </ns3:TrackPointExtension>
        </extensions>
      </trkpt>
      <trkpt lat="42.595570944249629974365234375" lon="19.98671022243797779083251953125">
        <ele>1220.800048828125</ele>
        <time>2026-06-15T14:57:51.000Z</time>
        <extensions>
          <ns3:TrackPointExtension>
            <ns3:atemp>21.0</ns3:atemp>
          </ns3:TrackPointExtension>
        </extensions>
      </trkpt>
      <trkpt lat="42.595570944249629974365234375" lon="19.98671022243797779083251953125">
        <ele>1220.800048828125</ele>
        <time>2026-06-15T14:57:52.000Z</time>
        <extensions>
          <ns3:TrackPointExtension>
            <ns3:atemp>21.0</ns3:atemp>
          </ns3:TrackPointExtension>
        </extensions>
      </trkpt>
      <trkpt lat="42.595570944249629974365234375" lon="19.98671022243797779083251953125">
        <ele>1220.800048828125</ele>
        <time>2026-06-15T14:57:53.000Z</time>
        <extensions>
          <ns3:TrackPointExtension>
            <ns3:atemp>21.0</ns3:atemp>
          </ns3:TrackPointExtension>
        </extensions>
      </trkpt>
      <trkpt lat="42.595570944249629974365234375" lon="19.98671022243797779083251953125">
        <ele>1220.800048828125</ele>
        <time>2026-06-15T14:57:54.000Z</time>
        <extensions>
          <ns3:TrackPointExtension>
            <ns3:atemp>21.0</ns3:atemp>
          </ns3:TrackPointExtension>
        </extensions>
      </trkpt>
      <trkpt lat="42.595570944249629974365234375" lon="19.98671022243797779083251953125">
        <ele>1220.800048828125</ele>
        <time>2026-06-15T14:57:55.000Z</time>
        <extensions>
          <ns3:TrackPointExtension>
            <ns3:atemp>21.0</ns3:atemp>
          </ns3:TrackPointExtension>
        </extensions>
      </trkpt>
      <trkpt lat="42.595570944249629974365234375" lon="19.98671022243797779083251953125">
        <ele>1220.800048828125</ele>
        <time>2026-06-15T14:57:56.000Z</time>
        <extensions>
          <ns3:TrackPointExtension>
            <ns3:atemp>21.0</ns3:atemp>
          </ns3:TrackPointExtension>
        </extensions>
      </trkpt>
      <trkpt lat="42.595570944249629974365234375" lon="19.98671022243797779083251953125">
        <ele>1220.800048828125</ele>
        <time>2026-06-15T14:57:57.000Z</time>
        <extensions>
          <ns3:TrackPointExtension>
            <ns3:atemp>21.0</ns3:atemp>
          </ns3:TrackPointExtension>
        </extensions>
      </trkpt>
      <trkpt lat="42.595570944249629974365234375" lon="19.98671022243797779083251953125">
        <ele>1220.800048828125</ele>
        <time>2026-06-15T14:57:58.000Z</time>
        <extensions>
          <ns3:TrackPointExtension>
            <ns3:atemp>21.0</ns3:atemp>
          </ns3:TrackPointExtension>
        </extensions>
      </trkpt>
      <trkpt lat="42.595570944249629974365234375" lon="19.98671022243797779083251953125">
        <ele>1220.800048828125</ele>
        <time>2026-06-15T14:57:59.000Z</time>
        <extensions>
          <ns3:TrackPointExtension>
            <ns3:atemp>21.0</ns3:atemp>
          </ns3:TrackPointExtension>
        </extensions>
      </trkpt>
      <trkpt lat="42.595570944249629974365234375" lon="19.98671022243797779083251953125">
        <ele>1220.5999755859375</ele>
        <time>2026-06-15T14:58:00.000Z</time>
        <extensions>
          <ns3:TrackPointExtension>
            <ns3:atemp>21.0</ns3:atemp>
          </ns3:TrackPointExtension>
        </extensions>
      </trkpt>
      <trkpt lat="42.595570944249629974365234375" lon="19.98671022243797779083251953125">
        <ele>1220.5999755859375</ele>
        <time>2026-06-15T14:58:01.000Z</time>
        <extensions>
          <ns3:TrackPointExtension>
            <ns3:atemp>22.0</ns3:atemp>
          </ns3:TrackPointExtension>
        </extensions>
      </trkpt>
      <trkpt lat="42.595570944249629974365234375" lon="19.98671022243797779083251953125">
        <ele>1220.4000244140625</ele>
        <time>2026-06-15T14:58:02.000Z</time>
        <extensions>
          <ns3:TrackPointExtension>
            <ns3:atemp>22.0</ns3:atemp>
          </ns3:TrackPointExtension>
        </extensions>
      </trkpt>
      <trkpt lat="42.595570944249629974365234375" lon="19.98671022243797779083251953125">
        <ele>1220.4000244140625</ele>
        <time>2026-06-15T14:58:03.000Z</time>
        <extensions>
          <ns3:TrackPointExtension>
            <ns3:atemp>22.0</ns3:atemp>
          </ns3:TrackPointExtension>
        </extensions>
      </trkpt>
      <trkpt lat="42.595570944249629974365234375" lon="19.98671022243797779083251953125">
        <ele>1220.4000244140625</ele>
        <time>2026-06-15T14:58:04.000Z</time>
        <extensions>
          <ns3:TrackPointExtension>
            <ns3:atemp>22.0</ns3:atemp>
          </ns3:TrackPointExtension>
        </extensions>
      </trkpt>
      <trkpt lat="42.595570944249629974365234375" lon="19.98671022243797779083251953125">
        <ele>1220.4000244140625</ele>
        <time>2026-06-15T14:58:05.000Z</time>
        <extensions>
          <ns3:TrackPointExtension>
            <ns3:atemp>22.0</ns3:atemp>
          </ns3:TrackPointExtension>
        </extensions>
      </trkpt>
      <trkpt lat="42.595570944249629974365234375" lon="19.98671022243797779083251953125">
        <ele>1220.4000244140625</ele>
        <time>2026-06-15T14:58:06.000Z</time>
        <extensions>
          <ns3:TrackPointExtension>
            <ns3:atemp>22.0</ns3:atemp>
          </ns3:TrackPointExtension>
        </extensions>
      </trkpt>
      <trkpt lat="42.595570944249629974365234375" lon="19.98671022243797779083251953125">
        <ele>1220.5999755859375</ele>
        <time>2026-06-15T14:58:07.000Z</time>
        <extensions>
          <ns3:TrackPointExtension>
            <ns3:atemp>22.0</ns3:atemp>
          </ns3:TrackPointExtension>
        </extensions>
      </trkpt>
      <trkpt lat="42.595570944249629974365234375" lon="19.98671022243797779083251953125">
        <ele>1220.5999755859375</ele>
        <time>2026-06-15T14:58:08.000Z</time>
        <extensions>
          <ns3:TrackPointExtension>
            <ns3:atemp>22.0</ns3:atemp>
          </ns3:TrackPointExtension>
        </extensions>
      </trkpt>
      <trkpt lat="42.595570944249629974365234375" lon="19.98671022243797779083251953125">
        <ele>1220.5999755859375</ele>
        <time>2026-06-15T14:58:09.000Z</time>
        <extensions>
          <ns3:TrackPointExtension>
            <ns3:atemp>22.0</ns3:atemp>
          </ns3:TrackPointExtension>
        </extensions>
      </trkpt>
      <trkpt lat="42.595570944249629974365234375" lon="19.98671022243797779083251953125">
        <ele>1220.5999755859375</ele>
        <time>2026-06-15T14:58:10.000Z</time>
        <extensions>
          <ns3:TrackPointExtension>
            <ns3:atemp>22.0</ns3:atemp>
          </ns3:TrackPointExtension>
        </extensions>
      </trkpt>
      <trkpt lat="42.595570944249629974365234375" lon="19.98671022243797779083251953125">
        <ele>1220.800048828125</ele>
        <time>2026-06-15T14:58:11.000Z</time>
        <extensions>
          <ns3:TrackPointExtension>
            <ns3:atemp>22.0</ns3:atemp>
          </ns3:TrackPointExtension>
        </extensions>
      </trkpt>
      <trkpt lat="42.595570944249629974365234375" lon="19.98671022243797779083251953125">
        <ele>1220.800048828125</ele>
        <time>2026-06-15T14:58:12.000Z</time>
        <extensions>
          <ns3:TrackPointExtension>
            <ns3:atemp>22.0</ns3:atemp>
          </ns3:TrackPointExtension>
        </extensions>
      </trkpt>
      <trkpt lat="42.595570944249629974365234375" lon="19.98671022243797779083251953125">
        <ele>1221</ele>
        <time>2026-06-15T14:58:13.000Z</time>
        <extensions>
          <ns3:TrackPointExtension>
            <ns3:atemp>22.0</ns3:atemp>
          </ns3:TrackPointExtension>
        </extensions>
      </trkpt>
      <trkpt lat="42.595570944249629974365234375" lon="19.98671022243797779083251953125">
        <ele>1221</ele>
        <time>2026-06-15T14:58:14.000Z</time>
        <extensions>
          <ns3:TrackPointExtension>
            <ns3:atemp>22.0</ns3:atemp>
          </ns3:TrackPointExtension>
        </extensions>
      </trkpt>
      <trkpt lat="42.595570944249629974365234375" lon="19.98671022243797779083251953125">
        <ele>1221</ele>
        <time>2026-06-15T14:58:15.000Z</time>
        <extensions>
          <ns3:TrackPointExtension>
            <ns3:atemp>22.0</ns3:atemp>
          </ns3:TrackPointExtension>
        </extensions>
      </trkpt>
      <trkpt lat="42.59557337500154972076416015625" lon="19.98671240173280239105224609375">
        <ele>1221.199951171875</ele>
        <time>2026-06-15T14:58:16.000Z</time>
        <extensions>
          <ns3:TrackPointExtension>
            <ns3:atemp>22.0</ns3:atemp>
          </ns3:TrackPointExtension>
        </extensions>
      </trkpt>
      <trkpt lat="42.595585025846958160400390625" lon="19.98670167289674282073974609375">
        <ele>1221.199951171875</ele>
        <time>2026-06-15T14:58:17.000Z</time>
        <extensions>
          <ns3:TrackPointExtension>
            <ns3:atemp>22.0</ns3:atemp>
          </ns3:TrackPointExtension>
        </extensions>
      </trkpt>
      <trkpt lat="42.5955929048359394073486328125" lon="19.98667535372078418731689453125">
        <ele>1221</ele>
        <time>2026-06-15T14:58:18.000Z</time>
        <extensions>
          <ns3:TrackPointExtension>
            <ns3:atemp>22.0</ns3:atemp>
          </ns3:TrackPointExtension>
        </extensions>
      </trkpt>
      <trkpt lat="42.59560958482325077056884765625" lon="19.98665221966803073883056640625">
        <ele>1220.800048828125</ele>
        <time>2026-06-15T14:58:19.000Z</time>
        <extensions>
          <ns3:TrackPointExtension>
            <ns3:atemp>22.0</ns3:atemp>
          </ns3:TrackPointExtension>
        </extensions>
      </trkpt>
      <trkpt lat="42.59562299586832523345947265625" lon="19.98662036843597888946533203125">
        <ele>1220.5999755859375</ele>
        <time>2026-06-15T14:58:20.000Z</time>
        <extensions>
          <ns3:TrackPointExtension>
            <ns3:atemp>22.0</ns3:atemp>
          </ns3:TrackPointExtension>
        </extensions>
      </trkpt>
      <trkpt lat="42.5956274382770061492919921875" lon="19.98658566735684871673583984375">
        <ele>1220</ele>
        <time>2026-06-15T14:58:21.000Z</time>
        <extensions>
          <ns3:TrackPointExtension>
            <ns3:atemp>22.0</ns3:atemp>
          </ns3:TrackPointExtension>
        </extensions>
      </trkpt>
      <trkpt lat="42.59562534280121326446533203125" lon="19.9865634553134441375732421875">
        <ele>1219.4000244140625</ele>
        <time>2026-06-15T14:58:22.000Z</time>
        <extensions>
          <ns3:TrackPointExtension>
            <ns3:atemp>22.0</ns3:atemp>
          </ns3:TrackPointExtension>
        </extensions>
      </trkpt>
      <trkpt lat="42.59562115184962749481201171875" lon="19.98654610477387905120849609375">
        <ele>1218.800048828125</ele>
        <time>2026-06-15T14:58:23.000Z</time>
        <extensions>
          <ns3:TrackPointExtension>
            <ns3:atemp>22.0</ns3:atemp>
          </ns3:TrackPointExtension>
        </extensions>
      </trkpt>
      <trkpt lat="42.5956123508512973785400390625" lon="19.98653219081461429595947265625">
        <ele>1218.199951171875</ele>
        <time>2026-06-15T14:58:24.000Z</time>
        <extensions>
          <ns3:TrackPointExtension>
            <ns3:atemp>22.0</ns3:atemp>
          </ns3:TrackPointExtension>
        </extensions>
      </trkpt>
      <trkpt lat="42.59560254402458667755126953125" lon="19.98651810921728610992431640625">
        <ele>1217.800048828125</ele>
        <time>2026-06-15T14:58:25.000Z</time>
        <extensions>
          <ns3:TrackPointExtension>
            <ns3:atemp>22.0</ns3:atemp>
          </ns3:TrackPointExtension>
        </extensions>
      </trkpt>
      <trkpt lat="42.595597095787525177001953125" lon="19.98648919165134429931640625">
        <ele>1217.4000244140625</ele>
        <time>2026-06-15T14:58:26.000Z</time>
        <extensions>
          <ns3:TrackPointExtension>
            <ns3:atemp>22.0</ns3:atemp>
          </ns3:TrackPointExtension>
        </extensions>
      </trkpt>
      <trkpt lat="42.59559147991240024566650390625" lon="19.98647435568273067474365234375">
        <ele>1217</ele>
        <time>2026-06-15T14:58:27.000Z</time>
        <extensions>
          <ns3:TrackPointExtension>
            <ns3:atemp>22.0</ns3:atemp>
          </ns3:TrackPointExtension>
        </extensions>
      </trkpt>
      <trkpt lat="42.59559474885463714599609375" lon="19.986478798091411590576171875">
        <ele>1216.4000244140625</ele>
        <time>2026-06-15T14:58:28.000Z</time>
        <extensions>
          <ns3:TrackPointExtension>
            <ns3:atemp>22.0</ns3:atemp>
          </ns3:TrackPointExtension>
        </extensions>
      </trkpt>
      <trkpt lat="42.59559474885463714599609375" lon="19.9864789657294750213623046875">
        <ele>1216.199951171875</ele>
        <time>2026-06-15T14:58:29.000Z</time>
        <extensions>
          <ns3:TrackPointExtension>
            <ns3:atemp>22.0</ns3:atemp>
          </ns3:TrackPointExtension>
        </extensions>
      </trkpt>
      <trkpt lat="42.59559474885463714599609375" lon="19.98647921718657016754150390625">
        <ele>1216</ele>
        <time>2026-06-15T14:58:30.000Z</time>
        <extensions>
          <ns3:TrackPointExtension>
            <ns3:atemp>22.0</ns3:atemp>
          </ns3:TrackPointExtension>
        </extensions>
      </trkpt>
      <trkpt lat="42.5955915637314319610595703125" lon="19.98648114502429962158203125">
        <ele>1215.800048828125</ele>
        <time>2026-06-15T14:58:31.000Z</time>
        <extensions>
          <ns3:TrackPointExtension>
            <ns3:atemp>22.0</ns3:atemp>
          </ns3:TrackPointExtension>
        </extensions>
      </trkpt>
      <trkpt lat="42.59558544494211673736572265625" lon="19.986466728150844573974609375">
        <ele>1215.5999755859375</ele>
        <time>2026-06-15T14:58:32.000Z</time>
        <extensions>
          <ns3:TrackPointExtension>
            <ns3:atemp>22.0</ns3:atemp>
          </ns3:TrackPointExtension>
        </extensions>
      </trkpt>
      <trkpt lat="42.5955848582088947296142578125" lon="19.98645625077188014984130859375">
        <ele>1215.4000244140625</ele>
        <time>2026-06-15T14:58:33.000Z</time>
        <extensions>
          <ns3:TrackPointExtension>
            <ns3:atemp>22.0</ns3:atemp>
          </ns3:TrackPointExtension>
        </extensions>
      </trkpt>
      <trkpt lat="42.59558628313243389129638671875" lon="19.9864477850496768951416015625">
        <ele>1215.199951171875</ele>
        <time>2026-06-15T14:58:34.000Z</time>
        <extensions>
          <ns3:TrackPointExtension>
            <ns3:atemp>22.0</ns3:atemp>
          </ns3:TrackPointExtension>
        </extensions>
      </trkpt>
      <trkpt lat="42.59558628313243389129638671875" lon="19.98644761741161346435546875">
        <ele>1215</ele>
        <time>2026-06-15T14:58:35.000Z</time>
        <extensions>
          <ns3:TrackPointExtension>
            <ns3:atemp>22.0</ns3:atemp>
          </ns3:TrackPointExtension>
        </extensions>
      </trkpt>
      <trkpt lat="42.595585696399211883544921875" lon="19.98642859049141407012939453125">
        <ele>1214.800048828125</ele>
        <time>2026-06-15T14:58:36.000Z</time>
        <extensions>
          <ns3:TrackPointExtension>
            <ns3:atemp>22.0</ns3:atemp>
          </ns3:TrackPointExtension>
        </extensions>
      </trkpt>
      <trkpt lat="42.59558737277984619140625" lon="19.98641735874116420745849609375">
        <ele>1214.800048828125</ele>
        <time>2026-06-15T14:58:37.000Z</time>
        <extensions>
          <ns3:TrackPointExtension>
            <ns3:atemp>22.0</ns3:atemp>
          </ns3:TrackPointExtension>
        </extensions>
      </trkpt>
      <trkpt lat="42.59559013880789279937744140625" lon="19.98641283251345157623291015625">
        <ele>1214.5999755859375</ele>
        <time>2026-06-15T14:58:38.000Z</time>
        <extensions>
          <ns3:TrackPointExtension>
            <ns3:atemp>22.0</ns3:atemp>
          </ns3:TrackPointExtension>
        </extensions>
      </trkpt>
      <trkpt lat="42.59559013880789279937744140625" lon="19.98641249723732471466064453125">
        <ele>1214.5999755859375</ele>
        <time>2026-06-15T14:58:39.000Z</time>
        <extensions>
          <ns3:TrackPointExtension>
            <ns3:atemp>22.0</ns3:atemp>
          </ns3:TrackPointExtension>
        </extensions>
      </trkpt>
      <trkpt lat="42.59559013880789279937744140625" lon="19.98641283251345157623291015625">
        <ele>1214.5999755859375</ele>
        <time>2026-06-15T14:58:40.000Z</time>
        <extensions>
          <ns3:TrackPointExtension>
            <ns3:atemp>22.0</ns3:atemp>
          </ns3:TrackPointExtension>
        </extensions>
      </trkpt>
      <trkpt lat="42.59559013880789279937744140625" lon="19.98641283251345157623291015625">
        <ele>1214.4000244140625</ele>
        <time>2026-06-15T14:58:41.000Z</time>
        <extensions>
          <ns3:TrackPointExtension>
            <ns3:atemp>22.0</ns3:atemp>
          </ns3:TrackPointExtension>
        </extensions>
      </trkpt>
      <trkpt lat="42.59559013880789279937744140625" lon="19.98641283251345157623291015625">
        <ele>1214.4000244140625</ele>
        <time>2026-06-15T14:58:42.000Z</time>
        <extensions>
          <ns3:TrackPointExtension>
            <ns3:atemp>22.0</ns3:atemp>
          </ns3:TrackPointExtension>
        </extensions>
      </trkpt>
      <trkpt lat="42.59559013880789279937744140625" lon="19.98641283251345157623291015625">
        <ele>1214.4000244140625</ele>
        <time>2026-06-15T14:58:43.000Z</time>
        <extensions>
          <ns3:TrackPointExtension>
            <ns3:atemp>22.0</ns3:atemp>
          </ns3:TrackPointExtension>
        </extensions>
      </trkpt>
      <trkpt lat="42.59559013880789279937744140625" lon="19.98641283251345157623291015625">
        <ele>1214.4000244140625</ele>
        <time>2026-06-15T14:58:44.000Z</time>
        <extensions>
          <ns3:TrackPointExtension>
            <ns3:atemp>22.0</ns3:atemp>
          </ns3:TrackPointExtension>
        </extensions>
      </trkpt>
      <trkpt lat="42.59558829478919506072998046875" lon="19.9864092282950878143310546875">
        <ele>1214.4000244140625</ele>
        <time>2026-06-15T14:58:45.000Z</time>
        <extensions>
          <ns3:TrackPointExtension>
            <ns3:atemp>22.0</ns3:atemp>
          </ns3:TrackPointExtension>
        </extensions>
      </trkpt>
      <trkpt lat="42.5955913960933685302734375" lon="19.98638634569942951202392578125">
        <ele>1214.4000244140625</ele>
        <time>2026-06-15T14:58:46.000Z</time>
        <extensions>
          <ns3:TrackPointExtension>
            <ns3:atemp>22.0</ns3:atemp>
          </ns3:TrackPointExtension>
        </extensions>
      </trkpt>
      <trkpt lat="42.595595419406890869140625" lon="19.98638517223298549652099609375">
        <ele>1214.4000244140625</ele>
        <time>2026-06-15T14:58:47.000Z</time>
        <extensions>
          <ns3:TrackPointExtension>
            <ns3:atemp>22.0</ns3:atemp>
          </ns3:TrackPointExtension>
        </extensions>
      </trkpt>
      <trkpt lat="42.59559952653944492340087890625" lon="19.9863847531378269195556640625">
        <ele>1214.4000244140625</ele>
        <time>2026-06-15T14:58:48.000Z</time>
        <extensions>
          <ns3:TrackPointExtension>
            <ns3:atemp>22.0</ns3:atemp>
          </ns3:TrackPointExtension>
        </extensions>
      </trkpt>
      <trkpt lat="42.5955992750823497772216796875" lon="19.98637880198657512664794921875">
        <ele>1214.4000244140625</ele>
        <time>2026-06-15T14:58:49.000Z</time>
        <extensions>
          <ns3:TrackPointExtension>
            <ns3:atemp>22.0</ns3:atemp>
          </ns3:TrackPointExtension>
        </extensions>
      </trkpt>
      <trkpt lat="42.595599107444286346435546875" lon="19.98637855052947998046875">
        <ele>1214.4000244140625</ele>
        <time>2026-06-15T14:58:50.000Z</time>
        <extensions>
          <ns3:TrackPointExtension>
            <ns3:atemp>22.0</ns3:atemp>
          </ns3:TrackPointExtension>
        </extensions>
      </trkpt>
      <trkpt lat="42.595599107444286346435546875" lon="19.98637855052947998046875">
        <ele>1214.4000244140625</ele>
        <time>2026-06-15T14:58:51.000Z</time>
        <extensions>
          <ns3:TrackPointExtension>
            <ns3:atemp>22.0</ns3:atemp>
          </ns3:TrackPointExtension>
        </extensions>
      </trkpt>
      <trkpt lat="42.595599107444286346435546875" lon="19.98637855052947998046875">
        <ele>1214.5999755859375</ele>
        <time>2026-06-15T14:58:52.000Z</time>
        <extensions>
          <ns3:TrackPointExtension>
            <ns3:atemp>22.0</ns3:atemp>
          </ns3:TrackPointExtension>
        </extensions>
      </trkpt>
      <trkpt lat="42.595599107444286346435546875" lon="19.98637855052947998046875">
        <ele>1214.800048828125</ele>
        <time>2026-06-15T14:58:53.000Z</time>
        <extensions>
          <ns3:TrackPointExtension>
            <ns3:atemp>22.0</ns3:atemp>
          </ns3:TrackPointExtension>
        </extensions>
      </trkpt>
      <trkpt lat="42.595599107444286346435546875" lon="19.98637855052947998046875">
        <ele>1214.800048828125</ele>
        <time>2026-06-15T14:58:54.000Z</time>
        <extensions>
          <ns3:TrackPointExtension>
            <ns3:atemp>22.0</ns3:atemp>
          </ns3:TrackPointExtension>
        </extensions>
      </trkpt>
      <trkpt lat="42.595599107444286346435546875" lon="19.98637855052947998046875">
        <ele>1214.800048828125</ele>
        <time>2026-06-15T14:58:55.000Z</time>
        <extensions>
          <ns3:TrackPointExtension>
            <ns3:atemp>22.0</ns3:atemp>
          </ns3:TrackPointExtension>
        </extensions>
      </trkpt>
      <trkpt lat="42.595599107444286346435546875" lon="19.98637855052947998046875">
        <ele>1214.800048828125</ele>
        <time>2026-06-15T14:58:56.000Z</time>
        <extensions>
          <ns3:TrackPointExtension>
            <ns3:atemp>22.0</ns3:atemp>
          </ns3:TrackPointExtension>
        </extensions>
      </trkpt>
      <trkpt lat="42.59559885598719120025634765625" lon="19.986376203596591949462890625">
        <ele>1214.800048828125</ele>
        <time>2026-06-15T14:58:57.000Z</time>
        <extensions>
          <ns3:TrackPointExtension>
            <ns3:atemp>22.0</ns3:atemp>
          </ns3:TrackPointExtension>
        </extensions>
      </trkpt>
      <trkpt lat="42.595599107444286346435546875" lon="19.98637855052947998046875">
        <ele>1214.800048828125</ele>
        <time>2026-06-15T14:58:58.000Z</time>
        <extensions>
          <ns3:TrackPointExtension>
            <ns3:atemp>22.0</ns3:atemp>
          </ns3:TrackPointExtension>
        </extensions>
      </trkpt>
      <trkpt lat="42.595599107444286346435546875" lon="19.98637855052947998046875">
        <ele>1214.800048828125</ele>
        <time>2026-06-15T14:58:59.000Z</time>
        <extensions>
          <ns3:TrackPointExtension>
            <ns3:atemp>22.0</ns3:atemp>
          </ns3:TrackPointExtension>
        </extensions>
      </trkpt>
      <trkpt lat="42.59560002945363521575927734375" lon="19.98636086471378803253173828125">
        <ele>1214.800048828125</ele>
        <time>2026-06-15T14:59:00.000Z</time>
        <extensions>
          <ns3:TrackPointExtension>
            <ns3:atemp>22.0</ns3:atemp>
          </ns3:TrackPointExtension>
        </extensions>
      </trkpt>
      <trkpt lat="42.5956021249294281005859375" lon="19.98635449446737766265869140625">
        <ele>1214.800048828125</ele>
        <time>2026-06-15T14:59:01.000Z</time>
        <extensions>
          <ns3:TrackPointExtension>
            <ns3:atemp>22.0</ns3:atemp>
          </ns3:TrackPointExtension>
        </extensions>
      </trkpt>
      <trkpt lat="42.59560204111039638519287109375" lon="19.9863542430102825164794921875">
        <ele>1214.5999755859375</ele>
        <time>2026-06-15T14:59:02.000Z</time>
        <extensions>
          <ns3:TrackPointExtension>
            <ns3:atemp>22.0</ns3:atemp>
          </ns3:TrackPointExtension>
        </extensions>
      </trkpt>
      <trkpt lat="42.5955992750823497772216796875" lon="19.9863418377935886383056640625">
        <ele>1214.5999755859375</ele>
        <time>2026-06-15T14:59:03.000Z</time>
        <extensions>
          <ns3:TrackPointExtension>
            <ns3:atemp>22.0</ns3:atemp>
          </ns3:TrackPointExtension>
        </extensions>
      </trkpt>
      <trkpt lat="42.59559399448335170745849609375" lon="19.98632918111979961395263671875">
        <ele>1214.5999755859375</ele>
        <time>2026-06-15T14:59:04.000Z</time>
        <extensions>
          <ns3:TrackPointExtension>
            <ns3:atemp>22.0</ns3:atemp>
          </ns3:TrackPointExtension>
        </extensions>
      </trkpt>
      <trkpt lat="42.5955908931791782379150390625" lon="19.986323900520801544189453125">
        <ele>1214.4000244140625</ele>
        <time>2026-06-15T14:59:05.000Z</time>
        <extensions>
          <ns3:TrackPointExtension>
            <ns3:atemp>22.0</ns3:atemp>
          </ns3:TrackPointExtension>
        </extensions>
      </trkpt>
      <trkpt lat="42.59558661840856075286865234375" lon="19.98631895519793033599853515625">
        <ele>1214.4000244140625</ele>
        <time>2026-06-15T14:59:06.000Z</time>
        <extensions>
          <ns3:TrackPointExtension>
            <ns3:atemp>22.0</ns3:atemp>
          </ns3:TrackPointExtension>
        </extensions>
      </trkpt>
      <trkpt lat="42.5955855287611484527587890625" lon="19.9863133393228054046630859375">
        <ele>1214.4000244140625</ele>
        <time>2026-06-15T14:59:07.000Z</time>
        <extensions>
          <ns3:TrackPointExtension>
            <ns3:atemp>22.0</ns3:atemp>
          </ns3:TrackPointExtension>
        </extensions>
      </trkpt>
      <trkpt lat="42.5955848582088947296142578125" lon="19.98630923219025135040283203125">
        <ele>1214.4000244140625</ele>
        <time>2026-06-15T14:59:08.000Z</time>
        <extensions>
          <ns3:TrackPointExtension>
            <ns3:atemp>22.0</ns3:atemp>
          </ns3:TrackPointExtension>
        </extensions>
      </trkpt>
      <trkpt lat="42.5955848582088947296142578125" lon="19.98630923219025135040283203125">
        <ele>1214.4000244140625</ele>
        <time>2026-06-15T14:59:09.000Z</time>
        <extensions>
          <ns3:TrackPointExtension>
            <ns3:atemp>22.0</ns3:atemp>
          </ns3:TrackPointExtension>
        </extensions>
      </trkpt>
      <trkpt lat="42.5955848582088947296142578125" lon="19.98630923219025135040283203125">
        <ele>1214.4000244140625</ele>
        <time>2026-06-15T14:59:10.000Z</time>
        <extensions>
          <ns3:TrackPointExtension>
            <ns3:atemp>22.0</ns3:atemp>
          </ns3:TrackPointExtension>
        </extensions>
      </trkpt>
      <trkpt lat="42.5955848582088947296142578125" lon="19.98630923219025135040283203125">
        <ele>1214.4000244140625</ele>
        <time>2026-06-15T14:59:11.000Z</time>
        <extensions>
          <ns3:TrackPointExtension>
            <ns3:atemp>22.0</ns3:atemp>
          </ns3:TrackPointExtension>
        </extensions>
      </trkpt>
      <trkpt lat="42.5955848582088947296142578125" lon="19.98630923219025135040283203125">
        <ele>1214.4000244140625</ele>
        <time>2026-06-15T14:59:12.000Z</time>
        <extensions>
          <ns3:TrackPointExtension>
            <ns3:atemp>22.0</ns3:atemp>
          </ns3:TrackPointExtension>
        </extensions>
      </trkpt>
      <trkpt lat="42.5955848582088947296142578125" lon="19.98630923219025135040283203125">
        <ele>1214.4000244140625</ele>
        <time>2026-06-15T14:59:13.000Z</time>
        <extensions>
          <ns3:TrackPointExtension>
            <ns3:atemp>22.0</ns3:atemp>
          </ns3:TrackPointExtension>
        </extensions>
      </trkpt>
      <trkpt lat="42.5955848582088947296142578125" lon="19.98630923219025135040283203125">
        <ele>1214.4000244140625</ele>
        <time>2026-06-15T14:59:14.000Z</time>
        <extensions>
          <ns3:TrackPointExtension>
            <ns3:atemp>22.0</ns3:atemp>
          </ns3:TrackPointExtension>
        </extensions>
      </trkpt>
      <trkpt lat="42.5955848582088947296142578125" lon="19.98630923219025135040283203125">
        <ele>1214.4000244140625</ele>
        <time>2026-06-15T14:59:15.000Z</time>
        <extensions>
          <ns3:TrackPointExtension>
            <ns3:atemp>22.0</ns3:atemp>
          </ns3:TrackPointExtension>
        </extensions>
      </trkpt>
      <trkpt lat="42.5955848582088947296142578125" lon="19.98630923219025135040283203125">
        <ele>1214.4000244140625</ele>
        <time>2026-06-15T14:59:16.000Z</time>
        <extensions>
          <ns3:TrackPointExtension>
            <ns3:atemp>22.0</ns3:atemp>
          </ns3:TrackPointExtension>
        </extensions>
      </trkpt>
      <trkpt lat="42.5955848582088947296142578125" lon="19.98630923219025135040283203125">
        <ele>1214.4000244140625</ele>
        <time>2026-06-15T14:59:17.000Z</time>
        <extensions>
          <ns3:TrackPointExtension>
            <ns3:atemp>22.0</ns3:atemp>
          </ns3:TrackPointExtension>
        </extensions>
      </trkpt>
      <trkpt lat="42.5955848582088947296142578125" lon="19.98630923219025135040283203125">
        <ele>1214.4000244140625</ele>
        <time>2026-06-15T14:59:18.000Z</time>
        <extensions>
          <ns3:TrackPointExtension>
            <ns3:atemp>22.0</ns3:atemp>
          </ns3:TrackPointExtension>
        </extensions>
      </trkpt>
      <trkpt lat="42.5955848582088947296142578125" lon="19.98630923219025135040283203125">
        <ele>1214.4000244140625</ele>
        <time>2026-06-15T14:59:19.000Z</time>
        <extensions>
          <ns3:TrackPointExtension>
            <ns3:atemp>22.0</ns3:atemp>
          </ns3:TrackPointExtension>
        </extensions>
      </trkpt>
      <trkpt lat="42.5955848582088947296142578125" lon="19.98630923219025135040283203125">
        <ele>1214.4000244140625</ele>
        <time>2026-06-15T14:59:20.000Z</time>
        <extensions>
          <ns3:TrackPointExtension>
            <ns3:atemp>22.0</ns3:atemp>
          </ns3:TrackPointExtension>
        </extensions>
      </trkpt>
      <trkpt lat="42.5955848582088947296142578125" lon="19.98630923219025135040283203125">
        <ele>1214.4000244140625</ele>
        <time>2026-06-15T14:59:21.000Z</time>
        <extensions>
          <ns3:TrackPointExtension>
            <ns3:atemp>22.0</ns3:atemp>
          </ns3:TrackPointExtension>
        </extensions>
      </trkpt>
      <trkpt lat="42.59558225981891155242919921875" lon="19.9863099865615367889404296875">
        <ele>1214.4000244140625</ele>
        <time>2026-06-15T14:59:22.000Z</time>
        <extensions>
          <ns3:TrackPointExtension>
            <ns3:atemp>22.0</ns3:atemp>
          </ns3:TrackPointExtension>
        </extensions>
      </trkpt>
      <trkpt lat="42.5955771468579769134521484375" lon="19.986304454505443572998046875">
        <ele>1214.4000244140625</ele>
        <time>2026-06-15T14:59:23.000Z</time>
        <extensions>
          <ns3:TrackPointExtension>
            <ns3:atemp>22.0</ns3:atemp>
          </ns3:TrackPointExtension>
        </extensions>
      </trkpt>
      <trkpt lat="42.5955701060593128204345703125" lon="19.98629607260227203369140625">
        <ele>1214.4000244140625</ele>
        <time>2026-06-15T14:59:24.000Z</time>
        <extensions>
          <ns3:TrackPointExtension>
            <ns3:atemp>22.0</ns3:atemp>
          </ns3:TrackPointExtension>
        </extensions>
      </trkpt>
      <trkpt lat="42.5955697707831859588623046875" lon="19.98628266155719757080078125">
        <ele>1214.4000244140625</ele>
        <time>2026-06-15T14:59:25.000Z</time>
        <extensions>
          <ns3:TrackPointExtension>
            <ns3:atemp>22.0</ns3:atemp>
          </ns3:TrackPointExtension>
        </extensions>
      </trkpt>
      <trkpt lat="42.5955712795257568359375" lon="19.98627101071178913116455078125">
        <ele>1214.199951171875</ele>
        <time>2026-06-15T14:59:26.000Z</time>
        <extensions>
          <ns3:TrackPointExtension>
            <ns3:atemp>22.0</ns3:atemp>
          </ns3:TrackPointExtension>
        </extensions>
      </trkpt>
      <trkpt lat="42.59557220153510570526123046875" lon="19.98626195825636386871337890625">
        <ele>1214.199951171875</ele>
        <time>2026-06-15T14:59:27.000Z</time>
        <extensions>
          <ns3:TrackPointExtension>
            <ns3:atemp>22.0</ns3:atemp>
          </ns3:TrackPointExtension>
        </extensions>
      </trkpt>
      <trkpt lat="42.5955727882683277130126953125" lon="19.9862583540380001068115234375">
        <ele>1214.199951171875</ele>
        <time>2026-06-15T14:59:28.000Z</time>
        <extensions>
          <ns3:TrackPointExtension>
            <ns3:atemp>22.0</ns3:atemp>
          </ns3:TrackPointExtension>
        </extensions>
      </trkpt>
      <trkpt lat="42.59557287208735942840576171875" lon="19.9862583540380001068115234375">
        <ele>1214.199951171875</ele>
        <time>2026-06-15T14:59:29.000Z</time>
        <extensions>
          <ns3:TrackPointExtension>
            <ns3:atemp>22.0</ns3:atemp>
          </ns3:TrackPointExtension>
        </extensions>
      </trkpt>
      <trkpt lat="42.59557287208735942840576171875" lon="19.9862583540380001068115234375">
        <ele>1214.199951171875</ele>
        <time>2026-06-15T14:59:30.000Z</time>
        <extensions>
          <ns3:TrackPointExtension>
            <ns3:atemp>22.0</ns3:atemp>
          </ns3:TrackPointExtension>
        </extensions>
      </trkpt>
      <trkpt lat="42.59557287208735942840576171875" lon="19.9862583540380001068115234375">
        <ele>1214.199951171875</ele>
        <time>2026-06-15T14:59:31.000Z</time>
        <extensions>
          <ns3:TrackPointExtension>
            <ns3:atemp>22.0</ns3:atemp>
          </ns3:TrackPointExtension>
        </extensions>
      </trkpt>
      <trkpt lat="42.59557287208735942840576171875" lon="19.9862583540380001068115234375">
        <ele>1214</ele>
        <time>2026-06-15T14:59:32.000Z</time>
        <extensions>
          <ns3:TrackPointExtension>
            <ns3:atemp>22.0</ns3:atemp>
          </ns3:TrackPointExtension>
        </extensions>
      </trkpt>
      <trkpt lat="42.59557287208735942840576171875" lon="19.9862583540380001068115234375">
        <ele>1214</ele>
        <time>2026-06-15T14:59:33.000Z</time>
        <extensions>
          <ns3:TrackPointExtension>
            <ns3:atemp>22.0</ns3:atemp>
          </ns3:TrackPointExtension>
        </extensions>
      </trkpt>
      <trkpt lat="42.59557287208735942840576171875" lon="19.9862583540380001068115234375">
        <ele>1214</ele>
        <time>2026-06-15T14:59:34.000Z</time>
        <extensions>
          <ns3:TrackPointExtension>
            <ns3:atemp>22.0</ns3:atemp>
          </ns3:TrackPointExtension>
        </extensions>
      </trkpt>
      <trkpt lat="42.59557287208735942840576171875" lon="19.9862583540380001068115234375">
        <ele>1214</ele>
        <time>2026-06-15T14:59:35.000Z</time>
        <extensions>
          <ns3:TrackPointExtension>
            <ns3:atemp>22.0</ns3:atemp>
          </ns3:TrackPointExtension>
        </extensions>
      </trkpt>
      <trkpt lat="42.59557287208735942840576171875" lon="19.9862583540380001068115234375">
        <ele>1214</ele>
        <time>2026-06-15T14:59:36.000Z</time>
        <extensions>
          <ns3:TrackPointExtension>
            <ns3:atemp>22.0</ns3:atemp>
          </ns3:TrackPointExtension>
        </extensions>
      </trkpt>
      <trkpt lat="42.59557287208735942840576171875" lon="19.9862583540380001068115234375">
        <ele>1214</ele>
        <time>2026-06-15T14:59:37.000Z</time>
        <extensions>
          <ns3:TrackPointExtension>
            <ns3:atemp>22.0</ns3:atemp>
          </ns3:TrackPointExtension>
        </extensions>
      </trkpt>
      <trkpt lat="42.59557287208735942840576171875" lon="19.9862583540380001068115234375">
        <ele>1214</ele>
        <time>2026-06-15T14:59:38.000Z</time>
        <extensions>
          <ns3:TrackPointExtension>
            <ns3:atemp>22.0</ns3:atemp>
          </ns3:TrackPointExtension>
        </extensions>
      </trkpt>
      <trkpt lat="42.59557287208735942840576171875" lon="19.9862583540380001068115234375">
        <ele>1214</ele>
        <time>2026-06-15T14:59:39.000Z</time>
        <extensions>
          <ns3:TrackPointExtension>
            <ns3:atemp>22.0</ns3:atemp>
          </ns3:TrackPointExtension>
        </extensions>
      </trkpt>
      <trkpt lat="42.59557287208735942840576171875" lon="19.9862583540380001068115234375">
        <ele>1214</ele>
        <time>2026-06-15T14:59:40.000Z</time>
        <extensions>
          <ns3:TrackPointExtension>
            <ns3:atemp>22.0</ns3:atemp>
          </ns3:TrackPointExtension>
        </extensions>
      </trkpt>
      <trkpt lat="42.59557287208735942840576171875" lon="19.9862583540380001068115234375">
        <ele>1214</ele>
        <time>2026-06-15T14:59:41.000Z</time>
        <extensions>
          <ns3:TrackPointExtension>
            <ns3:atemp>22.0</ns3:atemp>
          </ns3:TrackPointExtension>
        </extensions>
      </trkpt>
      <trkpt lat="42.59557287208735942840576171875" lon="19.9862583540380001068115234375">
        <ele>1214.199951171875</ele>
        <time>2026-06-15T14:59:42.000Z</time>
        <extensions>
          <ns3:TrackPointExtension>
            <ns3:atemp>22.0</ns3:atemp>
          </ns3:TrackPointExtension>
        </extensions>
      </trkpt>
      <trkpt lat="42.59557287208735942840576171875" lon="19.9862583540380001068115234375">
        <ele>1214.199951171875</ele>
        <time>2026-06-15T14:59:43.000Z</time>
        <extensions>
          <ns3:TrackPointExtension>
            <ns3:atemp>22.0</ns3:atemp>
          </ns3:TrackPointExtension>
        </extensions>
      </trkpt>
      <trkpt lat="42.59557287208735942840576171875" lon="19.9862583540380001068115234375">
        <ele>1214.199951171875</ele>
        <time>2026-06-15T14:59:44.000Z</time>
        <extensions>
          <ns3:TrackPointExtension>
            <ns3:atemp>22.0</ns3:atemp>
          </ns3:TrackPointExtension>
        </extensions>
      </trkpt>
      <trkpt lat="42.59557287208735942840576171875" lon="19.9862583540380001068115234375">
        <ele>1214.199951171875</ele>
        <time>2026-06-15T14:59:45.000Z</time>
        <extensions>
          <ns3:TrackPointExtension>
            <ns3:atemp>22.0</ns3:atemp>
          </ns3:TrackPointExtension>
        </extensions>
      </trkpt>
      <trkpt lat="42.5955788232386112213134765625" lon="19.98625039122998714447021484375">
        <ele>1214.199951171875</ele>
        <time>2026-06-15T14:59:46.000Z</time>
        <extensions>
          <ns3:TrackPointExtension>
            <ns3:atemp>22.0</ns3:atemp>
          </ns3:TrackPointExtension>
        </extensions>
      </trkpt>
      <trkpt lat="42.59558209218084812164306640625" lon="19.98623345978558063507080078125">
        <ele>1214.4000244140625</ele>
        <time>2026-06-15T14:59:47.000Z</time>
        <extensions>
          <ns3:TrackPointExtension>
            <ns3:atemp>22.0</ns3:atemp>
          </ns3:TrackPointExtension>
        </extensions>
      </trkpt>
      <trkpt lat="42.59558293037116527557373046875" lon="19.98622239567339420318603515625">
        <ele>1214.4000244140625</ele>
        <time>2026-06-15T14:59:48.000Z</time>
        <extensions>
          <ns3:TrackPointExtension>
            <ns3:atemp>22.0</ns3:atemp>
          </ns3:TrackPointExtension>
        </extensions>
      </trkpt>
      <trkpt lat="42.59558309800922870635986328125" lon="19.98622222803533077239990234375">
        <ele>1214.5999755859375</ele>
        <time>2026-06-15T14:59:49.000Z</time>
        <extensions>
          <ns3:TrackPointExtension>
            <ns3:atemp>22.0</ns3:atemp>
          </ns3:TrackPointExtension>
        </extensions>
      </trkpt>
      <trkpt lat="42.59558309800922870635986328125" lon="19.98622222803533077239990234375">
        <ele>1214.5999755859375</ele>
        <time>2026-06-15T14:59:50.000Z</time>
        <extensions>
          <ns3:TrackPointExtension>
            <ns3:atemp>22.0</ns3:atemp>
          </ns3:TrackPointExtension>
        </extensions>
      </trkpt>
      <trkpt lat="42.59558309800922870635986328125" lon="19.98622222803533077239990234375">
        <ele>1214.800048828125</ele>
        <time>2026-06-15T14:59:51.000Z</time>
        <extensions>
          <ns3:TrackPointExtension>
            <ns3:atemp>22.0</ns3:atemp>
          </ns3:TrackPointExtension>
        </extensions>
      </trkpt>
      <trkpt lat="42.59558309800922870635986328125" lon="19.98622222803533077239990234375">
        <ele>1214.800048828125</ele>
        <time>2026-06-15T14:59:52.000Z</time>
        <extensions>
          <ns3:TrackPointExtension>
            <ns3:atemp>22.0</ns3:atemp>
          </ns3:TrackPointExtension>
        </extensions>
      </trkpt>
      <trkpt lat="42.59558309800922870635986328125" lon="19.98622222803533077239990234375">
        <ele>1214.800048828125</ele>
        <time>2026-06-15T14:59:53.000Z</time>
        <extensions>
          <ns3:TrackPointExtension>
            <ns3:atemp>22.0</ns3:atemp>
          </ns3:TrackPointExtension>
        </extensions>
      </trkpt>
      <trkpt lat="42.59558309800922870635986328125" lon="19.98622222803533077239990234375">
        <ele>1214.800048828125</ele>
        <time>2026-06-15T14:59:54.000Z</time>
        <extensions>
          <ns3:TrackPointExtension>
            <ns3:atemp>22.0</ns3:atemp>
          </ns3:TrackPointExtension>
        </extensions>
      </trkpt>
      <trkpt lat="42.59558309800922870635986328125" lon="19.98622222803533077239990234375">
        <ele>1214.800048828125</ele>
        <time>2026-06-15T14:59:55.000Z</time>
        <extensions>
          <ns3:TrackPointExtension>
            <ns3:atemp>22.0</ns3:atemp>
          </ns3:TrackPointExtension>
        </extensions>
      </trkpt>
      <trkpt lat="42.5955835171043872833251953125" lon="19.98621904291212558746337890625">
        <ele>1214.800048828125</ele>
        <time>2026-06-15T14:59:56.000Z</time>
        <extensions>
          <ns3:TrackPointExtension>
            <ns3:atemp>22.0</ns3:atemp>
          </ns3:TrackPointExtension>
        </extensions>
      </trkpt>
      <trkpt lat="42.5955861993134021759033203125" lon="19.98620085418224334716796875">
        <ele>1214.800048828125</ele>
        <time>2026-06-15T14:59:57.000Z</time>
        <extensions>
          <ns3:TrackPointExtension>
            <ns3:atemp>22.0</ns3:atemp>
          </ns3:TrackPointExtension>
        </extensions>
      </trkpt>
      <trkpt lat="42.595593072474002838134765625" lon="19.98619590885937213897705078125">
        <ele>1214.800048828125</ele>
        <time>2026-06-15T14:59:58.000Z</time>
        <extensions>
          <ns3:TrackPointExtension>
            <ns3:atemp>22.0</ns3:atemp>
          </ns3:TrackPointExtension>
        </extensions>
      </trkpt>
      <trkpt lat="42.595595754683017730712890625" lon="19.98619272373616695404052734375">
        <ele>1214.800048828125</ele>
        <time>2026-06-15T14:59:59.000Z</time>
        <extensions>
          <ns3:TrackPointExtension>
            <ns3:atemp>22.0</ns3:atemp>
          </ns3:TrackPointExtension>
        </extensions>
      </trkpt>
      <trkpt lat="42.59560572914779186248779296875" lon="19.98618417419493198394775390625">
        <ele>1214.5999755859375</ele>
        <time>2026-06-15T15:00:00.000Z</time>
        <extensions>
          <ns3:TrackPointExtension>
            <ns3:atemp>22.0</ns3:atemp>
          </ns3:TrackPointExtension>
        </extensions>
      </trkpt>
      <trkpt lat="42.59560958482325077056884765625" lon="19.98617939651012420654296875">
        <ele>1214.5999755859375</ele>
        <time>2026-06-15T15:00:01.000Z</time>
        <extensions>
          <ns3:TrackPointExtension>
            <ns3:atemp>22.0</ns3:atemp>
          </ns3:TrackPointExtension>
        </extensions>
      </trkpt>
      <trkpt lat="42.59561478160321712493896484375" lon="19.98618300072848796844482421875">
        <ele>1214.4000244140625</ele>
        <time>2026-06-15T15:00:02.000Z</time>
        <extensions>
          <ns3:TrackPointExtension>
            <ns3:atemp>22.0</ns3:atemp>
          </ns3:TrackPointExtension>
        </extensions>
      </trkpt>
      <trkpt lat="42.59561620652675628662109375" lon="19.9861798994243144989013671875">
        <ele>1214.199951171875</ele>
        <time>2026-06-15T15:00:03.000Z</time>
        <extensions>
          <ns3:TrackPointExtension>
            <ns3:atemp>22.0</ns3:atemp>
          </ns3:TrackPointExtension>
        </extensions>
      </trkpt>
      <trkpt lat="42.59561997838318347930908203125" lon="19.9861805699765682220458984375">
        <ele>1214.199951171875</ele>
        <time>2026-06-15T15:00:04.000Z</time>
        <extensions>
          <ns3:TrackPointExtension>
            <ns3:atemp>22.0</ns3:atemp>
          </ns3:TrackPointExtension>
        </extensions>
      </trkpt>
      <trkpt lat="42.5956247560679912567138671875" lon="19.986169673502445220947265625">
        <ele>1214</ele>
        <time>2026-06-15T15:00:05.000Z</time>
        <extensions>
          <ns3:TrackPointExtension>
            <ns3:atemp>22.0</ns3:atemp>
          </ns3:TrackPointExtension>
        </extensions>
      </trkpt>
      <trkpt lat="42.59563003666698932647705078125" lon="19.98615953139960765838623046875">
        <ele>1214</ele>
        <time>2026-06-15T15:00:06.000Z</time>
        <extensions>
          <ns3:TrackPointExtension>
            <ns3:atemp>22.0</ns3:atemp>
          </ns3:TrackPointExtension>
        </extensions>
      </trkpt>
      <trkpt lat="42.59563523344695568084716796875" lon="19.98615525662899017333984375">
        <ele>1214</ele>
        <time>2026-06-15T15:00:07.000Z</time>
        <extensions>
          <ns3:TrackPointExtension>
            <ns3:atemp>22.0</ns3:atemp>
          </ns3:TrackPointExtension>
        </extensions>
      </trkpt>
      <trkpt lat="42.59564797393977642059326171875" lon="19.98614913783967494964599609375">
        <ele>1213.800048828125</ele>
        <time>2026-06-15T15:00:08.000Z</time>
        <extensions>
          <ns3:TrackPointExtension>
            <ns3:atemp>22.0</ns3:atemp>
          </ns3:TrackPointExtension>
        </extensions>
      </trkpt>
      <trkpt lat="42.5956572778522968292236328125" lon="19.98614511452615261077880859375">
        <ele>1213.800048828125</ele>
        <time>2026-06-15T15:00:09.000Z</time>
        <extensions>
          <ns3:TrackPointExtension>
            <ns3:atemp>22.0</ns3:atemp>
          </ns3:TrackPointExtension>
        </extensions>
      </trkpt>
      <trkpt lat="42.595667503774166107177734375" lon="19.98613790608942508697509765625">
        <ele>1213.800048828125</ele>
        <time>2026-06-15T15:00:10.000Z</time>
        <extensions>
          <ns3:TrackPointExtension>
            <ns3:atemp>22.0</ns3:atemp>
          </ns3:TrackPointExtension>
        </extensions>
      </trkpt>
      <trkpt lat="42.5956787355244159698486328125" lon="19.9861343018710613250732421875">
        <ele>1213.5999755859375</ele>
        <time>2026-06-15T15:00:11.000Z</time>
        <extensions>
          <ns3:TrackPointExtension>
            <ns3:atemp>22.0</ns3:atemp>
          </ns3:TrackPointExtension>
        </extensions>
      </trkpt>
      <trkpt lat="42.59568921290338039398193359375" lon="19.9861336313188076019287109375">
        <ele>1213.5999755859375</ele>
        <time>2026-06-15T15:00:12.000Z</time>
        <extensions>
          <ns3:TrackPointExtension>
            <ns3:atemp>22.0</ns3:atemp>
          </ns3:TrackPointExtension>
        </extensions>
      </trkpt>
      <trkpt lat="42.5956981815397739410400390625" lon="19.986132793128490447998046875">
        <ele>1213.5999755859375</ele>
        <time>2026-06-15T15:00:13.000Z</time>
        <extensions>
          <ns3:TrackPointExtension>
            <ns3:atemp>22.0</ns3:atemp>
          </ns3:TrackPointExtension>
        </extensions>
      </trkpt>
      <trkpt lat="42.5957132689654827117919921875" lon="19.9861319549381732940673828125">
        <ele>1213.4000244140625</ele>
        <time>2026-06-15T15:00:14.000Z</time>
        <extensions>
          <ns3:TrackPointExtension>
            <ns3:atemp>22.0</ns3:atemp>
          </ns3:TrackPointExtension>
        </extensions>
      </trkpt>
      <trkpt lat="42.59572458453476428985595703125" lon="19.98613254167139530181884765625">
        <ele>1213.4000244140625</ele>
        <time>2026-06-15T15:00:15.000Z</time>
        <extensions>
          <ns3:TrackPointExtension>
            <ns3:atemp>22.0</ns3:atemp>
          </ns3:TrackPointExtension>
        </extensions>
      </trkpt>
      <trkpt lat="42.59573162533342838287353515625" lon="19.9861306138336658477783203125">
        <ele>1213.199951171875</ele>
        <time>2026-06-15T15:00:16.000Z</time>
        <extensions>
          <ns3:TrackPointExtension>
            <ns3:atemp>22.0</ns3:atemp>
          </ns3:TrackPointExtension>
        </extensions>
      </trkpt>
      <trkpt lat="42.59573095478117465972900390625" lon="19.98612172901630401611328125">
        <ele>1213.199951171875</ele>
        <time>2026-06-15T15:00:17.000Z</time>
        <extensions>
          <ns3:TrackPointExtension>
            <ns3:atemp>22.0</ns3:atemp>
          </ns3:TrackPointExtension>
        </extensions>
      </trkpt>
      <trkpt lat="42.5957310386002063751220703125" lon="19.98612172901630401611328125">
        <ele>1213</ele>
        <time>2026-06-15T15:00:18.000Z</time>
        <extensions>
          <ns3:TrackPointExtension>
            <ns3:atemp>22.0</ns3:atemp>
          </ns3:TrackPointExtension>
        </extensions>
      </trkpt>
      <trkpt lat="42.5957310386002063751220703125" lon="19.98612172901630401611328125">
        <ele>1213</ele>
        <time>2026-06-15T15:00:19.000Z</time>
        <extensions>
          <ns3:TrackPointExtension>
            <ns3:atemp>23.0</ns3:atemp>
          </ns3:TrackPointExtension>
        </extensions>
      </trkpt>
      <trkpt lat="42.5957310386002063751220703125" lon="19.98612172901630401611328125">
        <ele>1212.800048828125</ele>
        <time>2026-06-15T15:00:20.000Z</time>
        <extensions>
          <ns3:TrackPointExtension>
            <ns3:atemp>23.0</ns3:atemp>
          </ns3:TrackPointExtension>
        </extensions>
      </trkpt>
      <trkpt lat="42.595731206238269805908203125" lon="19.98612164519727230072021484375">
        <ele>1212.800048828125</ele>
        <time>2026-06-15T15:00:21.000Z</time>
        <extensions>
          <ns3:TrackPointExtension>
            <ns3:atemp>23.0</ns3:atemp>
          </ns3:TrackPointExtension>
        </extensions>
      </trkpt>
      <trkpt lat="42.5957488082349300384521484375" lon="19.986113347113132476806640625">
        <ele>1212.5999755859375</ele>
        <time>2026-06-15T15:00:22.000Z</time>
        <extensions>
          <ns3:TrackPointExtension>
            <ns3:atemp>23.0</ns3:atemp>
          </ns3:TrackPointExtension>
        </extensions>
      </trkpt>
      <trkpt lat="42.595768086612224578857421875" lon="19.9861188791692256927490234375">
        <ele>1212.4000244140625</ele>
        <time>2026-06-15T15:00:23.000Z</time>
        <extensions>
          <ns3:TrackPointExtension>
            <ns3:atemp>22.0</ns3:atemp>
          </ns3:TrackPointExtension>
        </extensions>
      </trkpt>
      <trkpt lat="42.5957903824746608734130859375" lon="19.98612080700695514678955078125">
        <ele>1212.199951171875</ele>
        <time>2026-06-15T15:00:24.000Z</time>
        <extensions>
          <ns3:TrackPointExtension>
            <ns3:atemp>23.0</ns3:atemp>
          </ns3:TrackPointExtension>
        </extensions>
      </trkpt>
      <trkpt lat="42.59580421261489391326904296875" lon="19.9861222319304943084716796875">
        <ele>1212</ele>
        <time>2026-06-15T15:00:25.000Z</time>
        <extensions>
          <ns3:TrackPointExtension>
            <ns3:atemp>23.0</ns3:atemp>
          </ns3:TrackPointExtension>
        </extensions>
      </trkpt>
      <trkpt lat="42.59582986123859882354736328125" lon="19.98612214811146259307861328125">
        <ele>1212</ele>
        <time>2026-06-15T15:00:26.000Z</time>
        <extensions>
          <ns3:TrackPointExtension>
            <ns3:atemp>23.0</ns3:atemp>
          </ns3:TrackPointExtension>
        </extensions>
      </trkpt>
      <trkpt lat="42.59585098363459110260009765625" lon="19.9861141853034496307373046875">
        <ele>1211.800048828125</ele>
        <time>2026-06-15T15:00:27.000Z</time>
        <extensions>
          <ns3:TrackPointExtension>
            <ns3:atemp>23.0</ns3:atemp>
          </ns3:TrackPointExtension>
        </extensions>
      </trkpt>
      <trkpt lat="42.59587914682924747467041015625" lon="19.9861188791692256927490234375">
        <ele>1211.800048828125</ele>
        <time>2026-06-15T15:00:28.000Z</time>
        <extensions>
          <ns3:TrackPointExtension>
            <ns3:atemp>22.0</ns3:atemp>
          </ns3:TrackPointExtension>
        </extensions>
      </trkpt>
      <trkpt lat="42.595906890928745269775390625" lon="19.98611963354051113128662109375">
        <ele>1211.800048828125</ele>
        <time>2026-06-15T15:00:29.000Z</time>
        <extensions>
          <ns3:TrackPointExtension>
            <ns3:atemp>23.0</ns3:atemp>
          </ns3:TrackPointExtension>
        </extensions>
      </trkpt>
      <trkpt lat="42.5959345512092113494873046875" lon="19.986113011837005615234375">
        <ele>1211.5999755859375</ele>
        <time>2026-06-15T15:00:30.000Z</time>
        <extensions>
          <ns3:TrackPointExtension>
            <ns3:atemp>22.0</ns3:atemp>
          </ns3:TrackPointExtension>
        </extensions>
      </trkpt>
      <trkpt lat="42.5959640555083751678466796875" lon="19.98610035516321659088134765625">
        <ele>1211.5999755859375</ele>
        <time>2026-06-15T15:00:31.000Z</time>
        <extensions>
          <ns3:TrackPointExtension>
            <ns3:atemp>22.0</ns3:atemp>
          </ns3:TrackPointExtension>
        </extensions>
      </trkpt>
      <trkpt lat="42.595988698303699493408203125" lon="19.9860937334597110748291015625">
        <ele>1211.5999755859375</ele>
        <time>2026-06-15T15:00:32.000Z</time>
        <extensions>
          <ns3:TrackPointExtension>
            <ns3:atemp>22.0</ns3:atemp>
          </ns3:TrackPointExtension>
        </extensions>
      </trkpt>
      <trkpt lat="42.59600956924259662628173828125" lon="19.98608761467039585113525390625">
        <ele>1211.4000244140625</ele>
        <time>2026-06-15T15:00:33.000Z</time>
        <extensions>
          <ns3:TrackPointExtension>
            <ns3:atemp>22.0</ns3:atemp>
          </ns3:TrackPointExtension>
        </extensions>
      </trkpt>
      <trkpt lat="42.59602985344827175140380859375" lon="19.98607604764401912689208984375">
        <ele>1211.4000244140625</ele>
        <time>2026-06-15T15:00:34.000Z</time>
        <extensions>
          <ns3:TrackPointExtension>
            <ns3:atemp>22.0</ns3:atemp>
          </ns3:TrackPointExtension>
        </extensions>
      </trkpt>
      <trkpt lat="42.59604477323591709136962890625" lon="19.98605995438992977142333984375">
        <ele>1211.5999755859375</ele>
        <time>2026-06-15T15:00:35.000Z</time>
        <extensions>
          <ns3:TrackPointExtension>
            <ns3:atemp>22.0</ns3:atemp>
          </ns3:TrackPointExtension>
        </extensions>
      </trkpt>
      <trkpt lat="42.5960502214729785919189453125" lon="19.98604838736355304718017578125">
        <ele>1211.800048828125</ele>
        <time>2026-06-15T15:00:36.000Z</time>
        <extensions>
          <ns3:TrackPointExtension>
            <ns3:atemp>22.0</ns3:atemp>
          </ns3:TrackPointExtension>
        </extensions>
      </trkpt>
      <trkpt lat="42.59605432860553264617919921875" lon="19.9860419332981109619140625">
        <ele>1212</ele>
        <time>2026-06-15T15:00:37.000Z</time>
        <extensions>
          <ns3:TrackPointExtension>
            <ns3:atemp>22.0</ns3:atemp>
          </ns3:TrackPointExtension>
        </extensions>
      </trkpt>
      <trkpt lat="42.59605432860553264617919921875" lon="19.98604168184101581573486328125">
        <ele>1212</ele>
        <time>2026-06-15T15:00:38.000Z</time>
        <extensions>
          <ns3:TrackPointExtension>
            <ns3:atemp>23.0</ns3:atemp>
          </ns3:TrackPointExtension>
        </extensions>
      </trkpt>
      <trkpt lat="42.59605432860553264617919921875" lon="19.98604168184101581573486328125">
        <ele>1212.199951171875</ele>
        <time>2026-06-15T15:00:39.000Z</time>
        <extensions>
          <ns3:TrackPointExtension>
            <ns3:atemp>23.0</ns3:atemp>
          </ns3:TrackPointExtension>
        </extensions>
      </trkpt>
      <trkpt lat="42.596054412424564361572265625" lon="19.98604117892682552337646484375">
        <ele>1212.4000244140625</ele>
        <time>2026-06-15T15:00:40.000Z</time>
        <extensions>
          <ns3:TrackPointExtension>
            <ns3:atemp>23.0</ns3:atemp>
          </ns3:TrackPointExtension>
        </extensions>
      </trkpt>
      <trkpt lat="42.5960582681000232696533203125" lon="19.98602676205337047576904296875">
        <ele>1212.5999755859375</ele>
        <time>2026-06-15T15:00:41.000Z</time>
        <extensions>
          <ns3:TrackPointExtension>
            <ns3:atemp>22.0</ns3:atemp>
          </ns3:TrackPointExtension>
        </extensions>
      </trkpt>
      <trkpt lat="42.59606145322322845458984375" lon="19.98602022416889667510986328125">
        <ele>1212.5999755859375</ele>
        <time>2026-06-15T15:00:42.000Z</time>
        <extensions>
          <ns3:TrackPointExtension>
            <ns3:atemp>22.0</ns3:atemp>
          </ns3:TrackPointExtension>
        </extensions>
      </trkpt>
      <trkpt lat="42.59606539271771907806396484375" lon="19.9860146082937717437744140625">
        <ele>1212.5999755859375</ele>
        <time>2026-06-15T15:00:43.000Z</time>
        <extensions>
          <ns3:TrackPointExtension>
            <ns3:atemp>23.0</ns3:atemp>
          </ns3:TrackPointExtension>
        </extensions>
      </trkpt>
      <trkpt lat="42.59606949985027313232421875" lon="19.9860109202563762664794921875">
        <ele>1212.5999755859375</ele>
        <time>2026-06-15T15:00:44.000Z</time>
        <extensions>
          <ns3:TrackPointExtension>
            <ns3:atemp>23.0</ns3:atemp>
          </ns3:TrackPointExtension>
        </extensions>
      </trkpt>
      <trkpt lat="42.59606949985027313232421875" lon="19.986010752618312835693359375">
        <ele>1212.800048828125</ele>
        <time>2026-06-15T15:00:45.000Z</time>
        <extensions>
          <ns3:TrackPointExtension>
            <ns3:atemp>23.0</ns3:atemp>
          </ns3:TrackPointExtension>
        </extensions>
      </trkpt>
      <trkpt lat="42.59606949985027313232421875" lon="19.986010752618312835693359375">
        <ele>1213</ele>
        <time>2026-06-15T15:00:46.000Z</time>
        <extensions>
          <ns3:TrackPointExtension>
            <ns3:atemp>22.0</ns3:atemp>
          </ns3:TrackPointExtension>
        </extensions>
      </trkpt>
      <trkpt lat="42.59606949985027313232421875" lon="19.986010752618312835693359375">
        <ele>1213</ele>
        <time>2026-06-15T15:00:47.000Z</time>
        <extensions>
          <ns3:TrackPointExtension>
            <ns3:atemp>22.0</ns3:atemp>
          </ns3:TrackPointExtension>
        </extensions>
      </trkpt>
      <trkpt lat="42.59606949985027313232421875" lon="19.986010752618312835693359375">
        <ele>1213</ele>
        <time>2026-06-15T15:00:48.000Z</time>
        <extensions>
          <ns3:TrackPointExtension>
            <ns3:atemp>22.0</ns3:atemp>
          </ns3:TrackPointExtension>
        </extensions>
      </trkpt>
      <trkpt lat="42.59606949985027313232421875" lon="19.986010752618312835693359375">
        <ele>1213</ele>
        <time>2026-06-15T15:00:49.000Z</time>
        <extensions>
          <ns3:TrackPointExtension>
            <ns3:atemp>22.0</ns3:atemp>
          </ns3:TrackPointExtension>
        </extensions>
      </trkpt>
      <trkpt lat="42.596071176230907440185546875" lon="19.98600983060896396636962890625">
        <ele>1213</ele>
        <time>2026-06-15T15:00:50.000Z</time>
        <extensions>
          <ns3:TrackPointExtension>
            <ns3:atemp>22.0</ns3:atemp>
          </ns3:TrackPointExtension>
        </extensions>
      </trkpt>
      <trkpt lat="42.59606949985027313232421875" lon="19.986010752618312835693359375">
        <ele>1212.800048828125</ele>
        <time>2026-06-15T15:00:51.000Z</time>
        <extensions>
          <ns3:TrackPointExtension>
            <ns3:atemp>22.0</ns3:atemp>
          </ns3:TrackPointExtension>
        </extensions>
      </trkpt>
      <trkpt lat="42.59606949985027313232421875" lon="19.986010752618312835693359375">
        <ele>1212.800048828125</ele>
        <time>2026-06-15T15:00:52.000Z</time>
        <extensions>
          <ns3:TrackPointExtension>
            <ns3:atemp>22.0</ns3:atemp>
          </ns3:TrackPointExtension>
        </extensions>
      </trkpt>
      <trkpt lat="42.59606949985027313232421875" lon="19.986010752618312835693359375">
        <ele>1213</ele>
        <time>2026-06-15T15:00:53.000Z</time>
        <extensions>
          <ns3:TrackPointExtension>
            <ns3:atemp>22.0</ns3:atemp>
          </ns3:TrackPointExtension>
        </extensions>
      </trkpt>
      <trkpt lat="42.59606949985027313232421875" lon="19.986010752618312835693359375">
        <ele>1213</ele>
        <time>2026-06-15T15:00:54.000Z</time>
        <extensions>
          <ns3:TrackPointExtension>
            <ns3:atemp>22.0</ns3:atemp>
          </ns3:TrackPointExtension>
        </extensions>
      </trkpt>
      <trkpt lat="42.59606949985027313232421875" lon="19.986010752618312835693359375">
        <ele>1213</ele>
        <time>2026-06-15T15:00:55.000Z</time>
        <extensions>
          <ns3:TrackPointExtension>
            <ns3:atemp>23.0</ns3:atemp>
          </ns3:TrackPointExtension>
        </extensions>
      </trkpt>
      <trkpt lat="42.59606949985027313232421875" lon="19.986010752618312835693359375">
        <ele>1213.199951171875</ele>
        <time>2026-06-15T15:00:56.000Z</time>
        <extensions>
          <ns3:TrackPointExtension>
            <ns3:atemp>23.0</ns3:atemp>
          </ns3:TrackPointExtension>
        </extensions>
      </trkpt>
      <trkpt lat="42.59606949985027313232421875" lon="19.986010752618312835693359375">
        <ele>1213.199951171875</ele>
        <time>2026-06-15T15:00:57.000Z</time>
        <extensions>
          <ns3:TrackPointExtension>
            <ns3:atemp>23.0</ns3:atemp>
          </ns3:TrackPointExtension>
        </extensions>
      </trkpt>
      <trkpt lat="42.59606949985027313232421875" lon="19.986010752618312835693359375">
        <ele>1213.199951171875</ele>
        <time>2026-06-15T15:00:58.000Z</time>
        <extensions>
          <ns3:TrackPointExtension>
            <ns3:atemp>23.0</ns3:atemp>
          </ns3:TrackPointExtension>
        </extensions>
      </trkpt>
      <trkpt lat="42.59606949985027313232421875" lon="19.986010752618312835693359375">
        <ele>1213.199951171875</ele>
        <time>2026-06-15T15:00:59.000Z</time>
        <extensions>
          <ns3:TrackPointExtension>
            <ns3:atemp>23.0</ns3:atemp>
          </ns3:TrackPointExtension>
        </extensions>
      </trkpt>
      <trkpt lat="42.59607695974409580230712890625" lon="19.98600547201931476593017578125">
        <ele>1213.4000244140625</ele>
        <time>2026-06-15T15:01:00.000Z</time>
        <extensions>
          <ns3:TrackPointExtension>
            <ns3:atemp>23.0</ns3:atemp>
          </ns3:TrackPointExtension>
        </extensions>
      </trkpt>
      <trkpt lat="42.5960820727050304412841796875" lon="19.98599231243133544921875">
        <ele>1213.4000244140625</ele>
        <time>2026-06-15T15:01:01.000Z</time>
        <extensions>
          <ns3:TrackPointExtension>
            <ns3:atemp>23.0</ns3:atemp>
          </ns3:TrackPointExtension>
        </extensions>
      </trkpt>
      <trkpt lat="42.59608936496078968048095703125" lon="19.98598837293684482574462890625">
        <ele>1213.5999755859375</ele>
        <time>2026-06-15T15:01:02.000Z</time>
        <extensions>
          <ns3:TrackPointExtension>
            <ns3:atemp>23.0</ns3:atemp>
          </ns3:TrackPointExtension>
        </extensions>
      </trkpt>
      <trkpt lat="42.59609372355043888092041015625" lon="19.98598015867173671722412109375">
        <ele>1213.800048828125</ele>
        <time>2026-06-15T15:01:03.000Z</time>
        <extensions>
          <ns3:TrackPointExtension>
            <ns3:atemp>23.0</ns3:atemp>
          </ns3:TrackPointExtension>
        </extensions>
      </trkpt>
      <trkpt lat="42.59609774686396121978759765625" lon="19.98597043566405773162841796875">
        <ele>1213.800048828125</ele>
        <time>2026-06-15T15:01:04.000Z</time>
        <extensions>
          <ns3:TrackPointExtension>
            <ns3:atemp>23.0</ns3:atemp>
          </ns3:TrackPointExtension>
        </extensions>
      </trkpt>
      <trkpt lat="42.59610059671103954315185546875" lon="19.98596020974218845367431640625">
        <ele>1214</ele>
        <time>2026-06-15T15:01:05.000Z</time>
        <extensions>
          <ns3:TrackPointExtension>
            <ns3:atemp>23.0</ns3:atemp>
          </ns3:TrackPointExtension>
        </extensions>
      </trkpt>
      <trkpt lat="42.5961068831384181976318359375" lon="19.98594428412616252899169921875">
        <ele>1214</ele>
        <time>2026-06-15T15:01:06.000Z</time>
        <extensions>
          <ns3:TrackPointExtension>
            <ns3:atemp>23.0</ns3:atemp>
          </ns3:TrackPointExtension>
        </extensions>
      </trkpt>
      <trkpt lat="42.59610612876713275909423828125" lon="19.985926933586597442626953125">
        <ele>1214.199951171875</ele>
        <time>2026-06-15T15:01:07.000Z</time>
        <extensions>
          <ns3:TrackPointExtension>
            <ns3:atemp>22.0</ns3:atemp>
          </ns3:TrackPointExtension>
        </extensions>
      </trkpt>
      <trkpt lat="42.59610302746295928955078125" lon="19.98591897077858448028564453125">
        <ele>1214</ele>
        <time>2026-06-15T15:01:08.000Z</time>
        <extensions>
          <ns3:TrackPointExtension>
            <ns3:atemp>23.0</ns3:atemp>
          </ns3:TrackPointExtension>
        </extensions>
      </trkpt>
      <trkpt lat="42.59610428474843502044677734375" lon="19.98591519892215728759765625">
        <ele>1214</ele>
        <time>2026-06-15T15:01:09.000Z</time>
        <extensions>
          <ns3:TrackPointExtension>
            <ns3:atemp>23.0</ns3:atemp>
          </ns3:TrackPointExtension>
        </extensions>
      </trkpt>
      <trkpt lat="42.5961045362055301666259765625" lon="19.9859059788286685943603515625">
        <ele>1214.199951171875</ele>
        <time>2026-06-15T15:01:10.000Z</time>
        <extensions>
          <ns3:TrackPointExtension>
            <ns3:atemp>23.0</ns3:atemp>
          </ns3:TrackPointExtension>
        </extensions>
      </trkpt>
      <trkpt lat="42.59610210545361042022705078125" lon="19.98589952476322650909423828125">
        <ele>1214.199951171875</ele>
        <time>2026-06-15T15:01:11.000Z</time>
        <extensions>
          <ns3:TrackPointExtension>
            <ns3:atemp>23.0</ns3:atemp>
          </ns3:TrackPointExtension>
        </extensions>
      </trkpt>
      <trkpt lat="42.596100009977817535400390625" lon="19.98588862828910350799560546875">
        <ele>1214.4000244140625</ele>
        <time>2026-06-15T15:01:12.000Z</time>
        <extensions>
          <ns3:TrackPointExtension>
            <ns3:atemp>23.0</ns3:atemp>
          </ns3:TrackPointExtension>
        </extensions>
      </trkpt>
      <trkpt lat="42.59609875269234180450439453125" lon="19.98587873764336109161376953125">
        <ele>1214.5999755859375</ele>
        <time>2026-06-15T15:01:13.000Z</time>
        <extensions>
          <ns3:TrackPointExtension>
            <ns3:atemp>23.0</ns3:atemp>
          </ns3:TrackPointExtension>
        </extensions>
      </trkpt>
      <trkpt lat="42.5960924662649631500244140625" lon="19.98586582951247692108154296875">
        <ele>1214.800048828125</ele>
        <time>2026-06-15T15:01:14.000Z</time>
        <extensions>
          <ns3:TrackPointExtension>
            <ns3:atemp>23.0</ns3:atemp>
          </ns3:TrackPointExtension>
        </extensions>
      </trkpt>
      <trkpt lat="42.59608936496078968048095703125" lon="19.98585484921932220458984375">
        <ele>1215.199951171875</ele>
        <time>2026-06-15T15:01:15.000Z</time>
        <extensions>
          <ns3:TrackPointExtension>
            <ns3:atemp>23.0</ns3:atemp>
          </ns3:TrackPointExtension>
        </extensions>
      </trkpt>
      <trkpt lat="42.59608634747564792633056640625" lon="19.9858466349542140960693359375">
        <ele>1215.4000244140625</ele>
        <time>2026-06-15T15:01:16.000Z</time>
        <extensions>
          <ns3:TrackPointExtension>
            <ns3:atemp>23.0</ns3:atemp>
          </ns3:TrackPointExtension>
        </extensions>
      </trkpt>
      <trkpt lat="42.59608198888599872589111328125" lon="19.98583800159394741058349609375">
        <ele>1215.4000244140625</ele>
        <time>2026-06-15T15:01:17.000Z</time>
        <extensions>
          <ns3:TrackPointExtension>
            <ns3:atemp>23.0</ns3:atemp>
          </ns3:TrackPointExtension>
        </extensions>
      </trkpt>
      <trkpt lat="42.59607796557247638702392578125" lon="19.9858201481401920318603515625">
        <ele>1215.5999755859375</ele>
        <time>2026-06-15T15:01:18.000Z</time>
        <extensions>
          <ns3:TrackPointExtension>
            <ns3:atemp>23.0</ns3:atemp>
          </ns3:TrackPointExtension>
        </extensions>
      </trkpt>
      <trkpt lat="42.59607796557247638702392578125" lon="19.9858198128640651702880859375">
        <ele>1215.5999755859375</ele>
        <time>2026-06-15T15:01:19.000Z</time>
        <extensions>
          <ns3:TrackPointExtension>
            <ns3:atemp>23.0</ns3:atemp>
          </ns3:TrackPointExtension>
        </extensions>
      </trkpt>
      <trkpt lat="42.59607813321053981781005859375" lon="19.985801540315151214599609375">
        <ele>1215.800048828125</ele>
        <time>2026-06-15T15:01:20.000Z</time>
        <extensions>
          <ns3:TrackPointExtension>
            <ns3:atemp>23.0</ns3:atemp>
          </ns3:TrackPointExtension>
        </extensions>
      </trkpt>
      <trkpt lat="42.59608089923858642578125" lon="19.985782094299793243408203125">
        <ele>1215.800048828125</ele>
        <time>2026-06-15T15:01:21.000Z</time>
        <extensions>
          <ns3:TrackPointExtension>
            <ns3:atemp>23.0</ns3:atemp>
          </ns3:TrackPointExtension>
        </extensions>
      </trkpt>
      <trkpt lat="42.5960914604365825653076171875" lon="19.9857658334076404571533203125">
        <ele>1215.800048828125</ele>
        <time>2026-06-15T15:01:22.000Z</time>
        <extensions>
          <ns3:TrackPointExtension>
            <ns3:atemp>23.0</ns3:atemp>
          </ns3:TrackPointExtension>
        </extensions>
      </trkpt>
      <trkpt lat="42.59610244072973728179931640625" lon="19.98575485311448574066162109375">
        <ele>1215.5999755859375</ele>
        <time>2026-06-15T15:01:23.000Z</time>
        <extensions>
          <ns3:TrackPointExtension>
            <ns3:atemp>23.0</ns3:atemp>
          </ns3:TrackPointExtension>
        </extensions>
      </trkpt>
      <trkpt lat="42.59612171910703182220458984375" lon="19.985743872821331024169921875">
        <ele>1215.5999755859375</ele>
        <time>2026-06-15T15:01:24.000Z</time>
        <extensions>
          <ns3:TrackPointExtension>
            <ns3:atemp>23.0</ns3:atemp>
          </ns3:TrackPointExtension>
        </extensions>
      </trkpt>
      <trkpt lat="42.59613965637981891632080078125" lon="19.985741861164569854736328125">
        <ele>1215.4000244140625</ele>
        <time>2026-06-15T15:01:25.000Z</time>
        <extensions>
          <ns3:TrackPointExtension>
            <ns3:atemp>23.0</ns3:atemp>
          </ns3:TrackPointExtension>
        </extensions>
      </trkpt>
      <trkpt lat="42.596154324710369110107421875" lon="19.98574714176356792449951171875">
        <ele>1215.4000244140625</ele>
        <time>2026-06-15T15:01:26.000Z</time>
        <extensions>
          <ns3:TrackPointExtension>
            <ns3:atemp>23.0</ns3:atemp>
          </ns3:TrackPointExtension>
        </extensions>
      </trkpt>
      <trkpt lat="42.5961742736399173736572265625" lon="19.98575401492416858673095703125">
        <ele>1215.199951171875</ele>
        <time>2026-06-15T15:01:27.000Z</time>
        <extensions>
          <ns3:TrackPointExtension>
            <ns3:atemp>23.0</ns3:atemp>
          </ns3:TrackPointExtension>
        </extensions>
      </trkpt>
      <trkpt lat="42.59619246236979961395263671875" lon="19.98575937934219837188720703125">
        <ele>1215.199951171875</ele>
        <time>2026-06-15T15:01:28.000Z</time>
        <extensions>
          <ns3:TrackPointExtension>
            <ns3:atemp>23.0</ns3:atemp>
          </ns3:TrackPointExtension>
        </extensions>
      </trkpt>
      <trkpt lat="42.59621224366128444671630859375" lon="19.98575585894286632537841796875">
        <ele>1215.199951171875</ele>
        <time>2026-06-15T15:01:29.000Z</time>
        <extensions>
          <ns3:TrackPointExtension>
            <ns3:atemp>23.0</ns3:atemp>
          </ns3:TrackPointExtension>
        </extensions>
      </trkpt>
      <trkpt lat="42.59623135440051555633544921875" lon="19.98575502075254917144775390625">
        <ele>1215.199951171875</ele>
        <time>2026-06-15T15:01:30.000Z</time>
        <extensions>
          <ns3:TrackPointExtension>
            <ns3:atemp>22.0</ns3:atemp>
          </ns3:TrackPointExtension>
        </extensions>
      </trkpt>
      <trkpt lat="42.59625189006328582763671875" lon="19.9857494048774242401123046875">
        <ele>1215.199951171875</ele>
        <time>2026-06-15T15:01:31.000Z</time>
        <extensions>
          <ns3:TrackPointExtension>
            <ns3:atemp>22.0</ns3:atemp>
          </ns3:TrackPointExtension>
        </extensions>
      </trkpt>
      <trkpt lat="42.5962681509554386138916015625" lon="19.9857457168400287628173828125">
        <ele>1215.4000244140625</ele>
        <time>2026-06-15T15:01:32.000Z</time>
        <extensions>
          <ns3:TrackPointExtension>
            <ns3:atemp>22.0</ns3:atemp>
          </ns3:TrackPointExtension>
        </extensions>
      </trkpt>
      <trkpt lat="42.59627871215343475341796875" lon="19.9857430346310138702392578125">
        <ele>1215.5999755859375</ele>
        <time>2026-06-15T15:01:33.000Z</time>
        <extensions>
          <ns3:TrackPointExtension>
            <ns3:atemp>22.0</ns3:atemp>
          </ns3:TrackPointExtension>
        </extensions>
      </trkpt>
      <trkpt lat="42.5962788797914981842041015625" lon="19.985742866992950439453125">
        <ele>1215.5999755859375</ele>
        <time>2026-06-15T15:01:34.000Z</time>
        <extensions>
          <ns3:TrackPointExtension>
            <ns3:atemp>23.0</ns3:atemp>
          </ns3:TrackPointExtension>
        </extensions>
      </trkpt>
      <trkpt lat="42.5962788797914981842041015625" lon="19.985742866992950439453125">
        <ele>1215.800048828125</ele>
        <time>2026-06-15T15:01:35.000Z</time>
        <extensions>
          <ns3:TrackPointExtension>
            <ns3:atemp>22.0</ns3:atemp>
          </ns3:TrackPointExtension>
        </extensions>
      </trkpt>
      <trkpt lat="42.5962788797914981842041015625" lon="19.985742866992950439453125">
        <ele>1215.800048828125</ele>
        <time>2026-06-15T15:01:36.000Z</time>
        <extensions>
          <ns3:TrackPointExtension>
            <ns3:atemp>22.0</ns3:atemp>
          </ns3:TrackPointExtension>
        </extensions>
      </trkpt>
      <trkpt lat="42.5962788797914981842041015625" lon="19.985742866992950439453125">
        <ele>1216</ele>
        <time>2026-06-15T15:01:37.000Z</time>
        <extensions>
          <ns3:TrackPointExtension>
            <ns3:atemp>22.0</ns3:atemp>
          </ns3:TrackPointExtension>
        </extensions>
      </trkpt>
      <trkpt lat="42.5962788797914981842041015625" lon="19.985742866992950439453125">
        <ele>1216</ele>
        <time>2026-06-15T15:01:38.000Z</time>
        <extensions>
          <ns3:TrackPointExtension>
            <ns3:atemp>22.0</ns3:atemp>
          </ns3:TrackPointExtension>
        </extensions>
      </trkpt>
      <trkpt lat="42.5962788797914981842041015625" lon="19.985742866992950439453125">
        <ele>1216.199951171875</ele>
        <time>2026-06-15T15:01:39.000Z</time>
        <extensions>
          <ns3:TrackPointExtension>
            <ns3:atemp>22.0</ns3:atemp>
          </ns3:TrackPointExtension>
        </extensions>
      </trkpt>
      <trkpt lat="42.5962788797914981842041015625" lon="19.985742866992950439453125">
        <ele>1216.199951171875</ele>
        <time>2026-06-15T15:01:40.000Z</time>
        <extensions>
          <ns3:TrackPointExtension>
            <ns3:atemp>22.0</ns3:atemp>
          </ns3:TrackPointExtension>
        </extensions>
      </trkpt>
      <trkpt lat="42.5962788797914981842041015625" lon="19.985742866992950439453125">
        <ele>1216.199951171875</ele>
        <time>2026-06-15T15:01:41.000Z</time>
        <extensions>
          <ns3:TrackPointExtension>
            <ns3:atemp>22.0</ns3:atemp>
          </ns3:TrackPointExtension>
        </extensions>
      </trkpt>
      <trkpt lat="42.5962788797914981842041015625" lon="19.985742866992950439453125">
        <ele>1216</ele>
        <time>2026-06-15T15:01:42.000Z</time>
        <extensions>
          <ns3:TrackPointExtension>
            <ns3:atemp>22.0</ns3:atemp>
          </ns3:TrackPointExtension>
        </extensions>
      </trkpt>
      <trkpt lat="42.5962788797914981842041015625" lon="19.985742866992950439453125">
        <ele>1216</ele>
        <time>2026-06-15T15:01:43.000Z</time>
        <extensions>
          <ns3:TrackPointExtension>
            <ns3:atemp>22.0</ns3:atemp>
          </ns3:TrackPointExtension>
        </extensions>
      </trkpt>
      <trkpt lat="42.5962788797914981842041015625" lon="19.985742866992950439453125">
        <ele>1215.800048828125</ele>
        <time>2026-06-15T15:01:44.000Z</time>
        <extensions>
          <ns3:TrackPointExtension>
            <ns3:atemp>22.0</ns3:atemp>
          </ns3:TrackPointExtension>
        </extensions>
      </trkpt>
      <trkpt lat="42.5962788797914981842041015625" lon="19.985742866992950439453125">
        <ele>1215.800048828125</ele>
        <time>2026-06-15T15:01:45.000Z</time>
        <extensions>
          <ns3:TrackPointExtension>
            <ns3:atemp>22.0</ns3:atemp>
          </ns3:TrackPointExtension>
        </extensions>
      </trkpt>
      <trkpt lat="42.5962788797914981842041015625" lon="19.985742866992950439453125">
        <ele>1215.5999755859375</ele>
        <time>2026-06-15T15:01:46.000Z</time>
        <extensions>
          <ns3:TrackPointExtension>
            <ns3:atemp>22.0</ns3:atemp>
          </ns3:TrackPointExtension>
        </extensions>
      </trkpt>
      <trkpt lat="42.5962788797914981842041015625" lon="19.985742866992950439453125">
        <ele>1215.5999755859375</ele>
        <time>2026-06-15T15:01:47.000Z</time>
        <extensions>
          <ns3:TrackPointExtension>
            <ns3:atemp>22.0</ns3:atemp>
          </ns3:TrackPointExtension>
        </extensions>
      </trkpt>
      <trkpt lat="42.5962788797914981842041015625" lon="19.985742866992950439453125">
        <ele>1215.5999755859375</ele>
        <time>2026-06-15T15:01:48.000Z</time>
        <extensions>
          <ns3:TrackPointExtension>
            <ns3:atemp>22.0</ns3:atemp>
          </ns3:TrackPointExtension>
        </extensions>
      </trkpt>
      <trkpt lat="42.5962788797914981842041015625" lon="19.985742866992950439453125">
        <ele>1215.5999755859375</ele>
        <time>2026-06-15T15:01:49.000Z</time>
        <extensions>
          <ns3:TrackPointExtension>
            <ns3:atemp>22.0</ns3:atemp>
          </ns3:TrackPointExtension>
        </extensions>
      </trkpt>
      <trkpt lat="42.5962788797914981842041015625" lon="19.985742866992950439453125">
        <ele>1215.4000244140625</ele>
        <time>2026-06-15T15:01:50.000Z</time>
        <extensions>
          <ns3:TrackPointExtension>
            <ns3:atemp>22.0</ns3:atemp>
          </ns3:TrackPointExtension>
        </extensions>
      </trkpt>
      <trkpt lat="42.5962788797914981842041015625" lon="19.985742866992950439453125">
        <ele>1215.4000244140625</ele>
        <time>2026-06-15T15:01:51.000Z</time>
        <extensions>
          <ns3:TrackPointExtension>
            <ns3:atemp>22.0</ns3:atemp>
          </ns3:TrackPointExtension>
        </extensions>
      </trkpt>
      <trkpt lat="42.5962788797914981842041015625" lon="19.985742866992950439453125">
        <ele>1215.199951171875</ele>
        <time>2026-06-15T15:01:52.000Z</time>
        <extensions>
          <ns3:TrackPointExtension>
            <ns3:atemp>22.0</ns3:atemp>
          </ns3:TrackPointExtension>
        </extensions>
      </trkpt>
      <trkpt lat="42.5962788797914981842041015625" lon="19.985742866992950439453125">
        <ele>1215.199951171875</ele>
        <time>2026-06-15T15:01:53.000Z</time>
        <extensions>
          <ns3:TrackPointExtension>
            <ns3:atemp>22.0</ns3:atemp>
          </ns3:TrackPointExtension>
        </extensions>
      </trkpt>
      <trkpt lat="42.5962788797914981842041015625" lon="19.985742866992950439453125">
        <ele>1215.199951171875</ele>
        <time>2026-06-15T15:01:54.000Z</time>
        <extensions>
          <ns3:TrackPointExtension>
            <ns3:atemp>22.0</ns3:atemp>
          </ns3:TrackPointExtension>
        </extensions>
      </trkpt>
      <trkpt lat="42.5962788797914981842041015625" lon="19.985742866992950439453125">
        <ele>1215</ele>
        <time>2026-06-15T15:01:55.000Z</time>
        <extensions>
          <ns3:TrackPointExtension>
            <ns3:atemp>22.0</ns3:atemp>
          </ns3:TrackPointExtension>
        </extensions>
      </trkpt>
      <trkpt lat="42.5962788797914981842041015625" lon="19.985742866992950439453125">
        <ele>1215</ele>
        <time>2026-06-15T15:01:56.000Z</time>
        <extensions>
          <ns3:TrackPointExtension>
            <ns3:atemp>22.0</ns3:atemp>
          </ns3:TrackPointExtension>
        </extensions>
      </trkpt>
      <trkpt lat="42.5962788797914981842041015625" lon="19.985742866992950439453125">
        <ele>1215</ele>
        <time>2026-06-15T15:01:57.000Z</time>
        <extensions>
          <ns3:TrackPointExtension>
            <ns3:atemp>22.0</ns3:atemp>
          </ns3:TrackPointExtension>
        </extensions>
      </trkpt>
      <trkpt lat="42.5962788797914981842041015625" lon="19.985742866992950439453125">
        <ele>1214.800048828125</ele>
        <time>2026-06-15T15:01:58.000Z</time>
        <extensions>
          <ns3:TrackPointExtension>
            <ns3:atemp>22.0</ns3:atemp>
          </ns3:TrackPointExtension>
        </extensions>
      </trkpt>
      <trkpt lat="42.5962788797914981842041015625" lon="19.985742866992950439453125">
        <ele>1214.800048828125</ele>
        <time>2026-06-15T15:01:59.000Z</time>
        <extensions>
          <ns3:TrackPointExtension>
            <ns3:atemp>22.0</ns3:atemp>
          </ns3:TrackPointExtension>
        </extensions>
      </trkpt>
      <trkpt lat="42.5962788797914981842041015625" lon="19.985742866992950439453125">
        <ele>1214.800048828125</ele>
        <time>2026-06-15T15:02:00.000Z</time>
        <extensions>
          <ns3:TrackPointExtension>
            <ns3:atemp>22.0</ns3:atemp>
          </ns3:TrackPointExtension>
        </extensions>
      </trkpt>
      <trkpt lat="42.5962788797914981842041015625" lon="19.985742866992950439453125">
        <ele>1214.800048828125</ele>
        <time>2026-06-15T15:02:01.000Z</time>
        <extensions>
          <ns3:TrackPointExtension>
            <ns3:atemp>22.0</ns3:atemp>
          </ns3:TrackPointExtension>
        </extensions>
      </trkpt>
      <trkpt lat="42.5962788797914981842041015625" lon="19.985742866992950439453125">
        <ele>1214.800048828125</ele>
        <time>2026-06-15T15:02:02.000Z</time>
        <extensions>
          <ns3:TrackPointExtension>
            <ns3:atemp>22.0</ns3:atemp>
          </ns3:TrackPointExtension>
        </extensions>
      </trkpt>
      <trkpt lat="42.5962788797914981842041015625" lon="19.985742866992950439453125">
        <ele>1214.800048828125</ele>
        <time>2026-06-15T15:02:03.000Z</time>
        <extensions>
          <ns3:TrackPointExtension>
            <ns3:atemp>22.0</ns3:atemp>
          </ns3:TrackPointExtension>
        </extensions>
      </trkpt>
      <trkpt lat="42.5962788797914981842041015625" lon="19.985742866992950439453125">
        <ele>1214.800048828125</ele>
        <time>2026-06-15T15:02:04.000Z</time>
        <extensions>
          <ns3:TrackPointExtension>
            <ns3:atemp>22.0</ns3:atemp>
          </ns3:TrackPointExtension>
        </extensions>
      </trkpt>
      <trkpt lat="42.5962788797914981842041015625" lon="19.985742866992950439453125">
        <ele>1215</ele>
        <time>2026-06-15T15:02:05.000Z</time>
        <extensions>
          <ns3:TrackPointExtension>
            <ns3:atemp>22.0</ns3:atemp>
          </ns3:TrackPointExtension>
        </extensions>
      </trkpt>
      <trkpt lat="42.5962788797914981842041015625" lon="19.985742866992950439453125">
        <ele>1215</ele>
        <time>2026-06-15T15:02:06.000Z</time>
        <extensions>
          <ns3:TrackPointExtension>
            <ns3:atemp>22.0</ns3:atemp>
          </ns3:TrackPointExtension>
        </extensions>
      </trkpt>
      <trkpt lat="42.5962788797914981842041015625" lon="19.985742866992950439453125">
        <ele>1215</ele>
        <time>2026-06-15T15:02:07.000Z</time>
        <extensions>
          <ns3:TrackPointExtension>
            <ns3:atemp>22.0</ns3:atemp>
          </ns3:TrackPointExtension>
        </extensions>
      </trkpt>
      <trkpt lat="42.5962788797914981842041015625" lon="19.985742866992950439453125">
        <ele>1215</ele>
        <time>2026-06-15T15:02:08.000Z</time>
        <extensions>
          <ns3:TrackPointExtension>
            <ns3:atemp>22.0</ns3:atemp>
          </ns3:TrackPointExtension>
        </extensions>
      </trkpt>
      <trkpt lat="42.5962788797914981842041015625" lon="19.985742866992950439453125">
        <ele>1215</ele>
        <time>2026-06-15T15:02:09.000Z</time>
        <extensions>
          <ns3:TrackPointExtension>
            <ns3:atemp>22.0</ns3:atemp>
          </ns3:TrackPointExtension>
        </extensions>
      </trkpt>
      <trkpt lat="42.5962788797914981842041015625" lon="19.985742866992950439453125">
        <ele>1215</ele>
        <time>2026-06-15T15:02:10.000Z</time>
        <extensions>
          <ns3:TrackPointExtension>
            <ns3:atemp>22.0</ns3:atemp>
          </ns3:TrackPointExtension>
        </extensions>
      </trkpt>
      <trkpt lat="42.5962788797914981842041015625" lon="19.985742866992950439453125">
        <ele>1215</ele>
        <time>2026-06-15T15:02:11.000Z</time>
        <extensions>
          <ns3:TrackPointExtension>
            <ns3:atemp>22.0</ns3:atemp>
          </ns3:TrackPointExtension>
        </extensions>
      </trkpt>
      <trkpt lat="42.5962788797914981842041015625" lon="19.985742866992950439453125">
        <ele>1215</ele>
        <time>2026-06-15T15:02:12.000Z</time>
        <extensions>
          <ns3:TrackPointExtension>
            <ns3:atemp>22.0</ns3:atemp>
          </ns3:TrackPointExtension>
        </extensions>
      </trkpt>
      <trkpt lat="42.5962788797914981842041015625" lon="19.985742866992950439453125">
        <ele>1215</ele>
        <time>2026-06-15T15:02:13.000Z</time>
        <extensions>
          <ns3:TrackPointExtension>
            <ns3:atemp>22.0</ns3:atemp>
          </ns3:TrackPointExtension>
        </extensions>
      </trkpt>
      <trkpt lat="42.5962788797914981842041015625" lon="19.985742866992950439453125">
        <ele>1215</ele>
        <time>2026-06-15T15:02:14.000Z</time>
        <extensions>
          <ns3:TrackPointExtension>
            <ns3:atemp>22.0</ns3:atemp>
          </ns3:TrackPointExtension>
        </extensions>
      </trkpt>
      <trkpt lat="42.5962788797914981842041015625" lon="19.985742866992950439453125">
        <ele>1215</ele>
        <time>2026-06-15T15:02:15.000Z</time>
        <extensions>
          <ns3:TrackPointExtension>
            <ns3:atemp>22.0</ns3:atemp>
          </ns3:TrackPointExtension>
        </extensions>
      </trkpt>
      <trkpt lat="42.5962788797914981842041015625" lon="19.985742866992950439453125">
        <ele>1215</ele>
        <time>2026-06-15T15:02:16.000Z</time>
        <extensions>
          <ns3:TrackPointExtension>
            <ns3:atemp>22.0</ns3:atemp>
          </ns3:TrackPointExtension>
        </extensions>
      </trkpt>
      <trkpt lat="42.5962788797914981842041015625" lon="19.985742866992950439453125">
        <ele>1214.800048828125</ele>
        <time>2026-06-15T15:02:17.000Z</time>
        <extensions>
          <ns3:TrackPointExtension>
            <ns3:atemp>22.0</ns3:atemp>
          </ns3:TrackPointExtension>
        </extensions>
      </trkpt>
      <trkpt lat="42.5962788797914981842041015625" lon="19.985742866992950439453125">
        <ele>1214.800048828125</ele>
        <time>2026-06-15T15:02:18.000Z</time>
        <extensions>
          <ns3:TrackPointExtension>
            <ns3:atemp>22.0</ns3:atemp>
          </ns3:TrackPointExtension>
        </extensions>
      </trkpt>
      <trkpt lat="42.5962788797914981842041015625" lon="19.985742866992950439453125">
        <ele>1214.800048828125</ele>
        <time>2026-06-15T15:02:19.000Z</time>
        <extensions>
          <ns3:TrackPointExtension>
            <ns3:atemp>22.0</ns3:atemp>
          </ns3:TrackPointExtension>
        </extensions>
      </trkpt>
      <trkpt lat="42.5962788797914981842041015625" lon="19.985742866992950439453125">
        <ele>1214.5999755859375</ele>
        <time>2026-06-15T15:02:20.000Z</time>
        <extensions>
          <ns3:TrackPointExtension>
            <ns3:atemp>22.0</ns3:atemp>
          </ns3:TrackPointExtension>
        </extensions>
      </trkpt>
      <trkpt lat="42.5962788797914981842041015625" lon="19.985742866992950439453125">
        <ele>1214.5999755859375</ele>
        <time>2026-06-15T15:02:21.000Z</time>
        <extensions>
          <ns3:TrackPointExtension>
            <ns3:atemp>22.0</ns3:atemp>
          </ns3:TrackPointExtension>
        </extensions>
      </trkpt>
      <trkpt lat="42.5962788797914981842041015625" lon="19.985742866992950439453125">
        <ele>1214.5999755859375</ele>
        <time>2026-06-15T15:02:22.000Z</time>
        <extensions>
          <ns3:TrackPointExtension>
            <ns3:atemp>22.0</ns3:atemp>
          </ns3:TrackPointExtension>
        </extensions>
      </trkpt>
      <trkpt lat="42.5962788797914981842041015625" lon="19.985742866992950439453125">
        <ele>1214.4000244140625</ele>
        <time>2026-06-15T15:02:23.000Z</time>
        <extensions>
          <ns3:TrackPointExtension>
            <ns3:atemp>22.0</ns3:atemp>
          </ns3:TrackPointExtension>
        </extensions>
      </trkpt>
      <trkpt lat="42.5962788797914981842041015625" lon="19.985742866992950439453125">
        <ele>1214.4000244140625</ele>
        <time>2026-06-15T15:02:24.000Z</time>
        <extensions>
          <ns3:TrackPointExtension>
            <ns3:atemp>22.0</ns3:atemp>
          </ns3:TrackPointExtension>
        </extensions>
      </trkpt>
      <trkpt lat="42.5962788797914981842041015625" lon="19.985742866992950439453125">
        <ele>1214.4000244140625</ele>
        <time>2026-06-15T15:02:25.000Z</time>
        <extensions>
          <ns3:TrackPointExtension>
            <ns3:atemp>22.0</ns3:atemp>
          </ns3:TrackPointExtension>
        </extensions>
      </trkpt>
      <trkpt lat="42.5962788797914981842041015625" lon="19.985742866992950439453125">
        <ele>1214.4000244140625</ele>
        <time>2026-06-15T15:02:26.000Z</time>
        <extensions>
          <ns3:TrackPointExtension>
            <ns3:atemp>22.0</ns3:atemp>
          </ns3:TrackPointExtension>
        </extensions>
      </trkpt>
      <trkpt lat="42.5962788797914981842041015625" lon="19.985742866992950439453125">
        <ele>1214.4000244140625</ele>
        <time>2026-06-15T15:02:27.000Z</time>
        <extensions>
          <ns3:TrackPointExtension>
            <ns3:atemp>22.0</ns3:atemp>
          </ns3:TrackPointExtension>
        </extensions>
      </trkpt>
      <trkpt lat="42.5962788797914981842041015625" lon="19.985742866992950439453125">
        <ele>1214.4000244140625</ele>
        <time>2026-06-15T15:02:28.000Z</time>
        <extensions>
          <ns3:TrackPointExtension>
            <ns3:atemp>22.0</ns3:atemp>
          </ns3:TrackPointExtension>
        </extensions>
      </trkpt>
      <trkpt lat="42.5962788797914981842041015625" lon="19.985742866992950439453125">
        <ele>1214.5999755859375</ele>
        <time>2026-06-15T15:02:29.000Z</time>
        <extensions>
          <ns3:TrackPointExtension>
            <ns3:atemp>22.0</ns3:atemp>
          </ns3:TrackPointExtension>
        </extensions>
      </trkpt>
      <trkpt lat="42.5962788797914981842041015625" lon="19.985742866992950439453125">
        <ele>1214.5999755859375</ele>
        <time>2026-06-15T15:02:30.000Z</time>
        <extensions>
          <ns3:TrackPointExtension>
            <ns3:atemp>22.0</ns3:atemp>
          </ns3:TrackPointExtension>
        </extensions>
      </trkpt>
      <trkpt lat="42.5962788797914981842041015625" lon="19.985742866992950439453125">
        <ele>1214.5999755859375</ele>
        <time>2026-06-15T15:02:31.000Z</time>
        <extensions>
          <ns3:TrackPointExtension>
            <ns3:atemp>22.0</ns3:atemp>
          </ns3:TrackPointExtension>
        </extensions>
      </trkpt>
      <trkpt lat="42.5962788797914981842041015625" lon="19.985742866992950439453125">
        <ele>1214.5999755859375</ele>
        <time>2026-06-15T15:02:32.000Z</time>
        <extensions>
          <ns3:TrackPointExtension>
            <ns3:atemp>22.0</ns3:atemp>
          </ns3:TrackPointExtension>
        </extensions>
      </trkpt>
      <trkpt lat="42.5962788797914981842041015625" lon="19.985742866992950439453125">
        <ele>1214.5999755859375</ele>
        <time>2026-06-15T15:02:33.000Z</time>
        <extensions>
          <ns3:TrackPointExtension>
            <ns3:atemp>22.0</ns3:atemp>
          </ns3:TrackPointExtension>
        </extensions>
      </trkpt>
      <trkpt lat="42.5962788797914981842041015625" lon="19.985742866992950439453125">
        <ele>1214.5999755859375</ele>
        <time>2026-06-15T15:02:34.000Z</time>
        <extensions>
          <ns3:TrackPointExtension>
            <ns3:atemp>22.0</ns3:atemp>
          </ns3:TrackPointExtension>
        </extensions>
      </trkpt>
      <trkpt lat="42.5962842442095279693603515625" lon="19.9857430346310138702392578125">
        <ele>1214.5999755859375</ele>
        <time>2026-06-15T15:02:35.000Z</time>
        <extensions>
          <ns3:TrackPointExtension>
            <ns3:atemp>22.0</ns3:atemp>
          </ns3:TrackPointExtension>
        </extensions>
      </trkpt>
      <trkpt lat="42.5963020138442516326904296875" lon="19.98573356308043003082275390625">
        <ele>1214.5999755859375</ele>
        <time>2026-06-15T15:02:36.000Z</time>
        <extensions>
          <ns3:TrackPointExtension>
            <ns3:atemp>22.0</ns3:atemp>
          </ns3:TrackPointExtension>
        </extensions>
      </trkpt>
      <trkpt lat="42.5963130779564380645751953125" lon="19.98572409152984619140625">
        <ele>1214.5999755859375</ele>
        <time>2026-06-15T15:02:37.000Z</time>
        <extensions>
          <ns3:TrackPointExtension>
            <ns3:atemp>22.0</ns3:atemp>
          </ns3:TrackPointExtension>
        </extensions>
      </trkpt>
      <trkpt lat="42.5963295064866542816162109375" lon="19.98571135103702545166015625">
        <ele>1214.5999755859375</ele>
        <time>2026-06-15T15:02:38.000Z</time>
        <extensions>
          <ns3:TrackPointExtension>
            <ns3:atemp>22.0</ns3:atemp>
          </ns3:TrackPointExtension>
        </extensions>
      </trkpt>
      <trkpt lat="42.59634903632104396820068359375" lon="19.98570137657225131988525390625">
        <ele>1214.4000244140625</ele>
        <time>2026-06-15T15:02:39.000Z</time>
        <extensions>
          <ns3:TrackPointExtension>
            <ns3:atemp>22.0</ns3:atemp>
          </ns3:TrackPointExtension>
        </extensions>
      </trkpt>
      <trkpt lat="42.59637099690735340118408203125" lon="19.98569014482200145721435546875">
        <ele>1214.4000244140625</ele>
        <time>2026-06-15T15:02:40.000Z</time>
        <extensions>
          <ns3:TrackPointExtension>
            <ns3:atemp>22.0</ns3:atemp>
          </ns3:TrackPointExtension>
        </extensions>
      </trkpt>
      <trkpt lat="42.596394382417201995849609375" lon="19.98567488975822925567626953125">
        <ele>1214.4000244140625</ele>
        <time>2026-06-15T15:02:41.000Z</time>
        <extensions>
          <ns3:TrackPointExtension>
            <ns3:atemp>22.0</ns3:atemp>
          </ns3:TrackPointExtension>
        </extensions>
      </trkpt>
      <trkpt lat="42.59641307406127452850341796875" lon="19.985662735998630523681640625">
        <ele>1214.4000244140625</ele>
        <time>2026-06-15T15:02:42.000Z</time>
        <extensions>
          <ns3:TrackPointExtension>
            <ns3:atemp>22.0</ns3:atemp>
          </ns3:TrackPointExtension>
        </extensions>
      </trkpt>
      <trkpt lat="42.596433945000171661376953125" lon="19.98565058223903179168701171875">
        <ele>1214.5999755859375</ele>
        <time>2026-06-15T15:02:43.000Z</time>
        <extensions>
          <ns3:TrackPointExtension>
            <ns3:atemp>22.0</ns3:atemp>
          </ns3:TrackPointExtension>
        </extensions>
      </trkpt>
      <trkpt lat="42.59646336548030376434326171875" lon="19.98563935048878192901611328125">
        <ele>1214.800048828125</ele>
        <time>2026-06-15T15:02:44.000Z</time>
        <extensions>
          <ns3:TrackPointExtension>
            <ns3:atemp>22.0</ns3:atemp>
          </ns3:TrackPointExtension>
        </extensions>
      </trkpt>
      <trkpt lat="42.596495635807514190673828125" lon="19.98562459833920001983642578125">
        <ele>1214.800048828125</ele>
        <time>2026-06-15T15:02:45.000Z</time>
        <extensions>
          <ns3:TrackPointExtension>
            <ns3:atemp>22.0</ns3:atemp>
          </ns3:TrackPointExtension>
        </extensions>
      </trkpt>
      <trkpt lat="42.59652824141085147857666015625" lon="19.98561386950314044952392578125">
        <ele>1215</ele>
        <time>2026-06-15T15:02:46.000Z</time>
        <extensions>
          <ns3:TrackPointExtension>
            <ns3:atemp>22.0</ns3:atemp>
          </ns3:TrackPointExtension>
        </extensions>
      </trkpt>
      <trkpt lat="42.59655657224357128143310546875" lon="19.98560381121933460235595703125">
        <ele>1215</ele>
        <time>2026-06-15T15:02:47.000Z</time>
        <extensions>
          <ns3:TrackPointExtension>
            <ns3:atemp>22.0</ns3:atemp>
          </ns3:TrackPointExtension>
        </extensions>
      </trkpt>
      <trkpt lat="42.59658205322921276092529296875" lon="19.98559023253619670867919921875">
        <ele>1215</ele>
        <time>2026-06-15T15:02:48.000Z</time>
        <extensions>
          <ns3:TrackPointExtension>
            <ns3:atemp>22.0</ns3:atemp>
          </ns3:TrackPointExtension>
        </extensions>
      </trkpt>
      <trkpt lat="42.5966081209480762481689453125" lon="19.98557514511048793792724609375">
        <ele>1215.199951171875</ele>
        <time>2026-06-15T15:02:49.000Z</time>
        <extensions>
          <ns3:TrackPointExtension>
            <ns3:atemp>22.0</ns3:atemp>
          </ns3:TrackPointExtension>
        </extensions>
      </trkpt>
      <trkpt lat="42.5966339372098445892333984375" lon="19.9855576269328594207763671875">
        <ele>1215.199951171875</ele>
        <time>2026-06-15T15:02:50.000Z</time>
        <extensions>
          <ns3:TrackPointExtension>
            <ns3:atemp>22.0</ns3:atemp>
          </ns3:TrackPointExtension>
        </extensions>
      </trkpt>
      <trkpt lat="42.59665430523455142974853515625" lon="19.98554748483002185821533203125">
        <ele>1215.199951171875</ele>
        <time>2026-06-15T15:02:51.000Z</time>
        <extensions>
          <ns3:TrackPointExtension>
            <ns3:atemp>22.0</ns3:atemp>
          </ns3:TrackPointExtension>
        </extensions>
      </trkpt>
      <trkpt lat="42.596668303012847900390625" lon="19.98553776182234287261962890625">
        <ele>1215.4000244140625</ele>
        <time>2026-06-15T15:02:52.000Z</time>
        <extensions>
          <ns3:TrackPointExtension>
            <ns3:atemp>22.0</ns3:atemp>
          </ns3:TrackPointExtension>
        </extensions>
      </trkpt>
      <trkpt lat="42.59668766520917415618896484375" lon="19.9855311401188373565673828125">
        <ele>1215.4000244140625</ele>
        <time>2026-06-15T15:02:53.000Z</time>
        <extensions>
          <ns3:TrackPointExtension>
            <ns3:atemp>22.0</ns3:atemp>
          </ns3:TrackPointExtension>
        </extensions>
      </trkpt>
      <trkpt lat="42.596706859767436981201171875" lon="19.985523931682109832763671875">
        <ele>1215.4000244140625</ele>
        <time>2026-06-15T15:02:54.000Z</time>
        <extensions>
          <ns3:TrackPointExtension>
            <ns3:atemp>22.0</ns3:atemp>
          </ns3:TrackPointExtension>
        </extensions>
      </trkpt>
      <trkpt lat="42.59672655723989009857177734375" lon="19.98550876043736934661865234375">
        <ele>1215.5999755859375</ele>
        <time>2026-06-15T15:02:55.000Z</time>
        <extensions>
          <ns3:TrackPointExtension>
            <ns3:atemp>22.0</ns3:atemp>
          </ns3:TrackPointExtension>
        </extensions>
      </trkpt>
      <trkpt lat="42.59674541652202606201171875" lon="19.98548696748912334442138671875">
        <ele>1215.5999755859375</ele>
        <time>2026-06-15T15:02:56.000Z</time>
        <extensions>
          <ns3:TrackPointExtension>
            <ns3:atemp>22.0</ns3:atemp>
          </ns3:TrackPointExtension>
        </extensions>
      </trkpt>
      <trkpt lat="42.59676544927060604095458984375" lon="19.98546500690281391143798828125">
        <ele>1215.800048828125</ele>
        <time>2026-06-15T15:02:57.000Z</time>
        <extensions>
          <ns3:TrackPointExtension>
            <ns3:atemp>22.0</ns3:atemp>
          </ns3:TrackPointExtension>
        </extensions>
      </trkpt>
      <trkpt lat="42.59678992442786693572998046875" lon="19.985441453754901885986328125">
        <ele>1215.800048828125</ele>
        <time>2026-06-15T15:02:58.000Z</time>
        <extensions>
          <ns3:TrackPointExtension>
            <ns3:atemp>22.0</ns3:atemp>
          </ns3:TrackPointExtension>
        </extensions>
      </trkpt>
      <trkpt lat="42.5968072749674320220947265625" lon="19.98541186563670635223388671875">
        <ele>1216</ele>
        <time>2026-06-15T15:02:59.000Z</time>
        <extensions>
          <ns3:TrackPointExtension>
            <ns3:atemp>22.0</ns3:atemp>
          </ns3:TrackPointExtension>
        </extensions>
      </trkpt>
      <trkpt lat="42.59682722389698028564453125" lon="19.9853826127946376800537109375">
        <ele>1216.4000244140625</ele>
        <time>2026-06-15T15:03:00.000Z</time>
        <extensions>
          <ns3:TrackPointExtension>
            <ns3:atemp>22.0</ns3:atemp>
          </ns3:TrackPointExtension>
        </extensions>
      </trkpt>
      <trkpt lat="42.59684759192168712615966796875" lon="19.98535729944705963134765625">
        <ele>1216.5999755859375</ele>
        <time>2026-06-15T15:03:01.000Z</time>
        <extensions>
          <ns3:TrackPointExtension>
            <ns3:atemp>22.0</ns3:atemp>
          </ns3:TrackPointExtension>
        </extensions>
      </trkpt>
      <trkpt lat="42.5968676246702671051025390625" lon="19.98532838188111782073974609375">
        <ele>1216.800048828125</ele>
        <time>2026-06-15T15:03:02.000Z</time>
        <extensions>
          <ns3:TrackPointExtension>
            <ns3:atemp>22.0</ns3:atemp>
          </ns3:TrackPointExtension>
        </extensions>
      </trkpt>
      <trkpt lat="42.59688765741884708404541015625" lon="19.98530072160065174102783203125">
        <ele>1217.199951171875</ele>
        <time>2026-06-15T15:03:03.000Z</time>
        <extensions>
          <ns3:TrackPointExtension>
            <ns3:atemp>22.0</ns3:atemp>
          </ns3:TrackPointExtension>
        </extensions>
      </trkpt>
      <trkpt lat="42.59691213257610797882080078125" lon="19.9852786771953105926513671875">
        <ele>1217.4000244140625</ele>
        <time>2026-06-15T15:03:04.000Z</time>
        <extensions>
          <ns3:TrackPointExtension>
            <ns3:atemp>22.0</ns3:atemp>
          </ns3:TrackPointExtension>
        </extensions>
      </trkpt>
      <trkpt lat="42.59693317115306854248046875" lon="19.985259063541889190673828125">
        <ele>1217.5999755859375</ele>
        <time>2026-06-15T15:03:05.000Z</time>
        <extensions>
          <ns3:TrackPointExtension>
            <ns3:atemp>22.0</ns3:atemp>
          </ns3:TrackPointExtension>
        </extensions>
      </trkpt>
      <trkpt lat="42.5969601608812808990478515625" lon="19.98523660004138946533203125">
        <ele>1218</ele>
        <time>2026-06-15T15:03:06.000Z</time>
        <extensions>
          <ns3:TrackPointExtension>
            <ns3:atemp>22.0</ns3:atemp>
          </ns3:TrackPointExtension>
        </extensions>
      </trkpt>
      <trkpt lat="42.5969792716205120086669921875" lon="19.9852136336266994476318359375">
        <ele>1218.199951171875</ele>
        <time>2026-06-15T15:03:07.000Z</time>
        <extensions>
          <ns3:TrackPointExtension>
            <ns3:atemp>22.0</ns3:atemp>
          </ns3:TrackPointExtension>
        </extensions>
      </trkpt>
      <trkpt lat="42.5970054231584072113037109375" lon="19.9851958639919757843017578125">
        <ele>1218.5999755859375</ele>
        <time>2026-06-15T15:03:08.000Z</time>
        <extensions>
          <ns3:TrackPointExtension>
            <ns3:atemp>22.0</ns3:atemp>
          </ns3:TrackPointExtension>
        </extensions>
      </trkpt>
      <trkpt lat="42.59702696464955806732177734375" lon="19.98517549596726894378662109375">
        <ele>1219</ele>
        <time>2026-06-15T15:03:09.000Z</time>
        <extensions>
          <ns3:TrackPointExtension>
            <ns3:atemp>22.0</ns3:atemp>
          </ns3:TrackPointExtension>
        </extensions>
      </trkpt>
      <trkpt lat="42.59705563075840473175048828125" lon="19.98514934442937374114990234375">
        <ele>1219.5999755859375</ele>
        <time>2026-06-15T15:03:10.000Z</time>
        <extensions>
          <ns3:TrackPointExtension>
            <ns3:atemp>22.0</ns3:atemp>
          </ns3:TrackPointExtension>
        </extensions>
      </trkpt>
      <trkpt lat="42.59708262048661708831787109375" lon="19.98512302525341510772705078125">
        <ele>1220</ele>
        <time>2026-06-15T15:03:11.000Z</time>
        <extensions>
          <ns3:TrackPointExtension>
            <ns3:atemp>22.0</ns3:atemp>
          </ns3:TrackPointExtension>
        </extensions>
      </trkpt>
      <trkpt lat="42.59710893966257572174072265625" lon="19.98510173521935939788818359375">
        <ele>1220.4000244140625</ele>
        <time>2026-06-15T15:03:12.000Z</time>
        <extensions>
          <ns3:TrackPointExtension>
            <ns3:atemp>22.0</ns3:atemp>
          </ns3:TrackPointExtension>
        </extensions>
      </trkpt>
      <trkpt lat="42.597136683762073516845703125" lon="19.98508480377495288848876953125">
        <ele>1220.800048828125</ele>
        <time>2026-06-15T15:03:13.000Z</time>
        <extensions>
          <ns3:TrackPointExtension>
            <ns3:atemp>22.0</ns3:atemp>
          </ns3:TrackPointExtension>
        </extensions>
      </trkpt>
      <trkpt lat="42.59716115891933441162109375" lon="19.98506803996860980987548828125">
        <ele>1221.199951171875</ele>
        <time>2026-06-15T15:03:14.000Z</time>
        <extensions>
          <ns3:TrackPointExtension>
            <ns3:atemp>22.0</ns3:atemp>
          </ns3:TrackPointExtension>
        </extensions>
      </trkpt>
      <trkpt lat="42.59719259105622768402099609375" lon="19.985047839581966400146484375">
        <ele>1221.5999755859375</ele>
        <time>2026-06-15T15:03:15.000Z</time>
        <extensions>
          <ns3:TrackPointExtension>
            <ns3:atemp>22.0</ns3:atemp>
          </ns3:TrackPointExtension>
        </extensions>
      </trkpt>
      <trkpt lat="42.59721756912767887115478515625" lon="19.98503099195659160614013671875">
        <ele>1222</ele>
        <time>2026-06-15T15:03:16.000Z</time>
        <extensions>
          <ns3:TrackPointExtension>
            <ns3:atemp>22.0</ns3:atemp>
          </ns3:TrackPointExtension>
        </extensions>
      </trkpt>
      <trkpt lat="42.5972424633800983428955078125" lon="19.98501221649348735809326171875">
        <ele>1222.5999755859375</ele>
        <time>2026-06-15T15:03:17.000Z</time>
        <extensions>
          <ns3:TrackPointExtension>
            <ns3:atemp>22.0</ns3:atemp>
          </ns3:TrackPointExtension>
        </extensions>
      </trkpt>
      <trkpt lat="42.5972639210522174835205078125" lon="19.9849905073642730712890625">
        <ele>1223</ele>
        <time>2026-06-15T15:03:18.000Z</time>
        <extensions>
          <ns3:TrackPointExtension>
            <ns3:atemp>22.0</ns3:atemp>
          </ns3:TrackPointExtension>
        </extensions>
      </trkpt>
      <trkpt lat="42.59728378616273403167724609375" lon="19.9849685467779636383056640625">
        <ele>1223.4000244140625</ele>
        <time>2026-06-15T15:03:19.000Z</time>
        <extensions>
          <ns3:TrackPointExtension>
            <ns3:atemp>22.0</ns3:atemp>
          </ns3:TrackPointExtension>
        </extensions>
      </trkpt>
      <trkpt lat="42.5973122008144855499267578125" lon="19.9849561415612697601318359375">
        <ele>1223.800048828125</ele>
        <time>2026-06-15T15:03:20.000Z</time>
        <extensions>
          <ns3:TrackPointExtension>
            <ns3:atemp>22.0</ns3:atemp>
          </ns3:TrackPointExtension>
        </extensions>
      </trkpt>
      <trkpt lat="42.597341202199459075927734375" lon="19.98495019041001796722412109375">
        <ele>1224.199951171875</ele>
        <time>2026-06-15T15:03:21.000Z</time>
        <extensions>
          <ns3:TrackPointExtension>
            <ns3:atemp>22.0</ns3:atemp>
          </ns3:TrackPointExtension>
        </extensions>
      </trkpt>
      <trkpt lat="42.59737464599311351776123046875" lon="19.98494985513389110565185546875">
        <ele>1224.5999755859375</ele>
        <time>2026-06-15T15:03:22.000Z</time>
        <extensions>
          <ns3:TrackPointExtension>
            <ns3:atemp>22.0</ns3:atemp>
          </ns3:TrackPointExtension>
        </extensions>
      </trkpt>
      <trkpt lat="42.59740448556840419769287109375" lon="19.98495304025709629058837890625">
        <ele>1225</ele>
        <time>2026-06-15T15:03:23.000Z</time>
        <extensions>
          <ns3:TrackPointExtension>
            <ns3:atemp>22.0</ns3:atemp>
          </ns3:TrackPointExtension>
        </extensions>
      </trkpt>
      <trkpt lat="42.59743499569594860076904296875" lon="19.98494633473455905914306640625">
        <ele>1225.199951171875</ele>
        <time>2026-06-15T15:03:24.000Z</time>
        <extensions>
          <ns3:TrackPointExtension>
            <ns3:atemp>22.0</ns3:atemp>
          </ns3:TrackPointExtension>
        </extensions>
      </trkpt>
      <trkpt lat="42.5974640808999538421630859375" lon="19.9849373660981655120849609375">
        <ele>1225.4000244140625</ele>
        <time>2026-06-15T15:03:25.000Z</time>
        <extensions>
          <ns3:TrackPointExtension>
            <ns3:atemp>22.0</ns3:atemp>
          </ns3:TrackPointExtension>
        </extensions>
      </trkpt>
      <trkpt lat="42.59749987162649631500244140625" lon="19.98492102138698101043701171875">
        <ele>1225.4000244140625</ele>
        <time>2026-06-15T15:03:26.000Z</time>
        <extensions>
          <ns3:TrackPointExtension>
            <ns3:atemp>22.0</ns3:atemp>
          </ns3:TrackPointExtension>
        </extensions>
      </trkpt>
      <trkpt lat="42.59753507561981678009033203125" lon="19.98490056954324245452880859375">
        <ele>1225.5999755859375</ele>
        <time>2026-06-15T15:03:27.000Z</time>
        <extensions>
          <ns3:TrackPointExtension>
            <ns3:atemp>22.0</ns3:atemp>
          </ns3:TrackPointExtension>
        </extensions>
      </trkpt>
      <trkpt lat="42.59756910614669322967529296875" lon="19.98487852513790130615234375">
        <ele>1225.5999755859375</ele>
        <time>2026-06-15T15:03:28.000Z</time>
        <extensions>
          <ns3:TrackPointExtension>
            <ns3:atemp>22.0</ns3:atemp>
          </ns3:TrackPointExtension>
        </extensions>
      </trkpt>
      <trkpt lat="42.59759559296071529388427734375" lon="19.984858073294162750244140625">
        <ele>1225.5999755859375</ele>
        <time>2026-06-15T15:03:29.000Z</time>
        <extensions>
          <ns3:TrackPointExtension>
            <ns3:atemp>22.0</ns3:atemp>
          </ns3:TrackPointExtension>
        </extensions>
      </trkpt>
      <trkpt lat="42.5976209901273250579833984375" lon="19.98484055511653423309326171875">
        <ele>1225.5999755859375</ele>
        <time>2026-06-15T15:03:30.000Z</time>
        <extensions>
          <ns3:TrackPointExtension>
            <ns3:atemp>22.0</ns3:atemp>
          </ns3:TrackPointExtension>
        </extensions>
      </trkpt>
      <trkpt lat="42.5976434536278247833251953125" lon="19.984814822673797607421875">
        <ele>1225.5999755859375</ele>
        <time>2026-06-15T15:03:31.000Z</time>
        <extensions>
          <ns3:TrackPointExtension>
            <ns3:atemp>22.0</ns3:atemp>
          </ns3:TrackPointExtension>
        </extensions>
      </trkpt>
      <trkpt lat="42.5976612232625484466552734375" lon="19.98478942550718784332275390625">
        <ele>1225.5999755859375</ele>
        <time>2026-06-15T15:03:32.000Z</time>
        <extensions>
          <ns3:TrackPointExtension>
            <ns3:atemp>22.0</ns3:atemp>
          </ns3:TrackPointExtension>
        </extensions>
      </trkpt>
      <trkpt lat="42.59768150746822357177734375" lon="19.98475782573223114013671875">
        <ele>1225.5999755859375</ele>
        <time>2026-06-15T15:03:33.000Z</time>
        <extensions>
          <ns3:TrackPointExtension>
            <ns3:atemp>22.0</ns3:atemp>
          </ns3:TrackPointExtension>
        </extensions>
      </trkpt>
      <trkpt lat="42.5976974330842494964599609375" lon="19.98472890816628932952880859375">
        <ele>1225.5999755859375</ele>
        <time>2026-06-15T15:03:34.000Z</time>
        <extensions>
          <ns3:TrackPointExtension>
            <ns3:atemp>22.0</ns3:atemp>
          </ns3:TrackPointExtension>
        </extensions>
      </trkpt>
      <trkpt lat="42.59772031567990779876708984375" lon="19.98469923622906208038330078125">
        <ele>1225.5999755859375</ele>
        <time>2026-06-15T15:03:35.000Z</time>
        <extensions>
          <ns3:TrackPointExtension>
            <ns3:atemp>22.0</ns3:atemp>
          </ns3:TrackPointExtension>
        </extensions>
      </trkpt>
      <trkpt lat="42.5977483950555324554443359375" lon="19.98467358760535717010498046875">
        <ele>1225.5999755859375</ele>
        <time>2026-06-15T15:03:36.000Z</time>
        <extensions>
          <ns3:TrackPointExtension>
            <ns3:atemp>22.0</ns3:atemp>
          </ns3:TrackPointExtension>
        </extensions>
      </trkpt>
      <trkpt lat="42.59777848608791828155517578125" lon="19.9846553988754749298095703125">
        <ele>1225.4000244140625</ele>
        <time>2026-06-15T15:03:37.000Z</time>
        <extensions>
          <ns3:TrackPointExtension>
            <ns3:atemp>22.0</ns3:atemp>
          </ns3:TrackPointExtension>
        </extensions>
      </trkpt>
      <trkpt lat="42.5978090800344944000244140625" lon="19.9846391379833221435546875">
        <ele>1225.5999755859375</ele>
        <time>2026-06-15T15:03:38.000Z</time>
        <extensions>
          <ns3:TrackPointExtension>
            <ns3:atemp>22.0</ns3:atemp>
          </ns3:TrackPointExtension>
        </extensions>
      </trkpt>
      <trkpt lat="42.597842775285243988037109375" lon="19.984624385833740234375">
        <ele>1225.5999755859375</ele>
        <time>2026-06-15T15:03:39.000Z</time>
        <extensions>
          <ns3:TrackPointExtension>
            <ns3:atemp>22.0</ns3:atemp>
          </ns3:TrackPointExtension>
        </extensions>
      </trkpt>
      <trkpt lat="42.59787370450794696807861328125" lon="19.98461030423641204833984375">
        <ele>1225.5999755859375</ele>
        <time>2026-06-15T15:03:40.000Z</time>
        <extensions>
          <ns3:TrackPointExtension>
            <ns3:atemp>22.0</ns3:atemp>
          </ns3:TrackPointExtension>
        </extensions>
      </trkpt>
      <trkpt lat="42.59790153242647647857666015625" lon="19.984594546258449554443359375">
        <ele>1225.5999755859375</ele>
        <time>2026-06-15T15:03:41.000Z</time>
        <extensions>
          <ns3:TrackPointExtension>
            <ns3:atemp>22.0</ns3:atemp>
          </ns3:TrackPointExtension>
        </extensions>
      </trkpt>
      <trkpt lat="42.59792902506887912750244140625" lon="19.9845769442617893218994140625">
        <ele>1225.800048828125</ele>
        <time>2026-06-15T15:03:42.000Z</time>
        <extensions>
          <ns3:TrackPointExtension>
            <ns3:atemp>22.0</ns3:atemp>
          </ns3:TrackPointExtension>
        </extensions>
      </trkpt>
      <trkpt lat="42.597953416407108306884765625" lon="19.9845640361309051513671875">
        <ele>1225.800048828125</ele>
        <time>2026-06-15T15:03:43.000Z</time>
        <extensions>
          <ns3:TrackPointExtension>
            <ns3:atemp>22.0</ns3:atemp>
          </ns3:TrackPointExtension>
        </extensions>
      </trkpt>
      <trkpt lat="42.5979854352772235870361328125" lon="19.98455137945711612701416015625">
        <ele>1226</ele>
        <time>2026-06-15T15:03:44.000Z</time>
        <extensions>
          <ns3:TrackPointExtension>
            <ns3:atemp>22.0</ns3:atemp>
          </ns3:TrackPointExtension>
        </extensions>
      </trkpt>
      <trkpt lat="42.59802156127989292144775390625" lon="19.98454467393457889556884765625">
        <ele>1226</ele>
        <time>2026-06-15T15:03:45.000Z</time>
        <extensions>
          <ns3:TrackPointExtension>
            <ns3:atemp>22.0</ns3:atemp>
          </ns3:TrackPointExtension>
        </extensions>
      </trkpt>
      <trkpt lat="42.598064057528972625732421875" lon="19.9845326878130435943603515625">
        <ele>1225.800048828125</ele>
        <time>2026-06-15T15:03:46.000Z</time>
        <extensions>
          <ns3:TrackPointExtension>
            <ns3:atemp>22.0</ns3:atemp>
          </ns3:TrackPointExtension>
        </extensions>
      </trkpt>
      <trkpt lat="42.5981178693473339080810546875" lon="19.984500668942928314208984375">
        <ele>1225.5999755859375</ele>
        <time>2026-06-15T15:03:47.000Z</time>
        <extensions>
          <ns3:TrackPointExtension>
            <ns3:atemp>22.0</ns3:atemp>
          </ns3:TrackPointExtension>
        </extensions>
      </trkpt>
      <trkpt lat="42.5981560908257961273193359375" lon="19.9844632856547832489013671875">
        <ele>1225.4000244140625</ele>
        <time>2026-06-15T15:03:48.000Z</time>
        <extensions>
          <ns3:TrackPointExtension>
            <ns3:atemp>22.0</ns3:atemp>
          </ns3:TrackPointExtension>
        </extensions>
      </trkpt>
      <trkpt lat="42.59818132035434246063232421875" lon="19.98442715965211391448974609375">
        <ele>1225</ele>
        <time>2026-06-15T15:03:49.000Z</time>
        <extensions>
          <ns3:TrackPointExtension>
            <ns3:atemp>22.0</ns3:atemp>
          </ns3:TrackPointExtension>
        </extensions>
      </trkpt>
      <trkpt lat="42.59819942526519298553466796875" lon="19.98440050520002841949462890625">
        <ele>1225</ele>
        <time>2026-06-15T15:03:50.000Z</time>
        <extensions>
          <ns3:TrackPointExtension>
            <ns3:atemp>22.0</ns3:atemp>
          </ns3:TrackPointExtension>
        </extensions>
      </trkpt>
      <trkpt lat="42.59821501560509204864501953125" lon="19.98437720350921154022216796875">
        <ele>1225</ele>
        <time>2026-06-15T15:03:51.000Z</time>
        <extensions>
          <ns3:TrackPointExtension>
            <ns3:atemp>22.0</ns3:atemp>
          </ns3:TrackPointExtension>
        </extensions>
      </trkpt>
      <trkpt lat="42.59822641499340534210205078125" lon="19.98435775749385356903076171875">
        <ele>1225.199951171875</ele>
        <time>2026-06-15T15:03:52.000Z</time>
        <extensions>
          <ns3:TrackPointExtension>
            <ns3:atemp>22.0</ns3:atemp>
          </ns3:TrackPointExtension>
        </extensions>
      </trkpt>
      <trkpt lat="42.59824167005717754364013671875" lon="19.98432540334761142730712890625">
        <ele>1225.4000244140625</ele>
        <time>2026-06-15T15:03:53.000Z</time>
        <extensions>
          <ns3:TrackPointExtension>
            <ns3:atemp>22.0</ns3:atemp>
          </ns3:TrackPointExtension>
        </extensions>
      </trkpt>
      <trkpt lat="42.59826044552028179168701171875" lon="19.98428785242140293121337890625">
        <ele>1225.4000244140625</ele>
        <time>2026-06-15T15:03:54.000Z</time>
        <extensions>
          <ns3:TrackPointExtension>
            <ns3:atemp>22.0</ns3:atemp>
          </ns3:TrackPointExtension>
        </extensions>
      </trkpt>
      <trkpt lat="42.59828307665884494781494140625" lon="19.9842580966651439666748046875">
        <ele>1225.199951171875</ele>
        <time>2026-06-15T15:03:55.000Z</time>
        <extensions>
          <ns3:TrackPointExtension>
            <ns3:atemp>22.0</ns3:atemp>
          </ns3:TrackPointExtension>
        </extensions>
      </trkpt>
      <trkpt lat="42.598309479653835296630859375" lon="19.98423538170754909515380859375">
        <ele>1225</ele>
        <time>2026-06-15T15:03:56.000Z</time>
        <extensions>
          <ns3:TrackPointExtension>
            <ns3:atemp>22.0</ns3:atemp>
          </ns3:TrackPointExtension>
        </extensions>
      </trkpt>
      <trkpt lat="42.59833554737269878387451171875" lon="19.9842151813209056854248046875">
        <ele>1224.800048828125</ele>
        <time>2026-06-15T15:03:57.000Z</time>
        <extensions>
          <ns3:TrackPointExtension>
            <ns3:atemp>22.0</ns3:atemp>
          </ns3:TrackPointExtension>
        </extensions>
      </trkpt>
      <trkpt lat="42.5983592681586742401123046875" lon="19.98419716022908687591552734375">
        <ele>1224.5999755859375</ele>
        <time>2026-06-15T15:03:58.000Z</time>
        <extensions>
          <ns3:TrackPointExtension>
            <ns3:atemp>22.0</ns3:atemp>
          </ns3:TrackPointExtension>
        </extensions>
      </trkpt>
      <trkpt lat="42.5983847491443157196044921875" lon="19.9841759540140628814697265625">
        <ele>1224.4000244140625</ele>
        <time>2026-06-15T15:03:59.000Z</time>
        <extensions>
          <ns3:TrackPointExtension>
            <ns3:atemp>22.0</ns3:atemp>
          </ns3:TrackPointExtension>
        </extensions>
      </trkpt>
      <trkpt lat="42.59841366671025753021240234375" lon="19.98416011221706867218017578125">
        <ele>1224.4000244140625</ele>
        <time>2026-06-15T15:04:00.000Z</time>
        <extensions>
          <ns3:TrackPointExtension>
            <ns3:atemp>22.0</ns3:atemp>
          </ns3:TrackPointExtension>
        </extensions>
      </trkpt>
      <trkpt lat="42.5984466075897216796875" lon="19.984153993427753448486328125">
        <ele>1224.5999755859375</ele>
        <time>2026-06-15T15:04:01.000Z</time>
        <extensions>
          <ns3:TrackPointExtension>
            <ns3:atemp>22.0</ns3:atemp>
          </ns3:TrackPointExtension>
        </extensions>
      </trkpt>
      <trkpt lat="42.59847904555499553680419921875" lon="19.98415608890354633331298828125">
        <ele>1224.5999755859375</ele>
        <time>2026-06-15T15:04:02.000Z</time>
        <extensions>
          <ns3:TrackPointExtension>
            <ns3:atemp>22.0</ns3:atemp>
          </ns3:TrackPointExtension>
        </extensions>
      </trkpt>
      <trkpt lat="42.59851056151092052459716796875" lon="19.98416430316865444183349609375">
        <ele>1224.5999755859375</ele>
        <time>2026-06-15T15:04:03.000Z</time>
        <extensions>
          <ns3:TrackPointExtension>
            <ns3:atemp>22.0</ns3:atemp>
          </ns3:TrackPointExtension>
        </extensions>
      </trkpt>
      <trkpt lat="42.59854383766651153564453125" lon="19.984176456928253173828125">
        <ele>1224.800048828125</ele>
        <time>2026-06-15T15:04:04.000Z</time>
        <extensions>
          <ns3:TrackPointExtension>
            <ns3:atemp>22.0</ns3:atemp>
          </ns3:TrackPointExtension>
        </extensions>
      </trkpt>
      <trkpt lat="42.598569653928279876708984375" lon="19.98419565148651599884033203125">
        <ele>1224.800048828125</ele>
        <time>2026-06-15T15:04:05.000Z</time>
        <extensions>
          <ns3:TrackPointExtension>
            <ns3:atemp>22.0</ns3:atemp>
          </ns3:TrackPointExtension>
        </extensions>
      </trkpt>
      <trkpt lat="42.59860142134130001068115234375" lon="19.98421710915863513946533203125">
        <ele>1224.800048828125</ele>
        <time>2026-06-15T15:04:06.000Z</time>
        <extensions>
          <ns3:TrackPointExtension>
            <ns3:atemp>22.0</ns3:atemp>
          </ns3:TrackPointExtension>
        </extensions>
      </trkpt>
      <trkpt lat="42.5986321829259395599365234375" lon="19.98423052020370960235595703125">
        <ele>1225</ele>
        <time>2026-06-15T15:04:07.000Z</time>
        <extensions>
          <ns3:TrackPointExtension>
            <ns3:atemp>22.0</ns3:atemp>
          </ns3:TrackPointExtension>
        </extensions>
      </trkpt>
      <trkpt lat="42.59865992702543735504150390625" lon="19.98423672281205654144287109375">
        <ele>1225</ele>
        <time>2026-06-15T15:04:08.000Z</time>
        <extensions>
          <ns3:TrackPointExtension>
            <ns3:atemp>22.0</ns3:atemp>
          </ns3:TrackPointExtension>
        </extensions>
      </trkpt>
      <trkpt lat="42.5986905209720134735107421875" lon="19.98423823155462741851806640625">
        <ele>1225.199951171875</ele>
        <time>2026-06-15T15:04:09.000Z</time>
        <extensions>
          <ns3:TrackPointExtension>
            <ns3:atemp>22.0</ns3:atemp>
          </ns3:TrackPointExtension>
        </extensions>
      </trkpt>
      <trkpt lat="42.59872731752693653106689453125" lon="19.984232448041439056396484375">
        <ele>1225.199951171875</ele>
        <time>2026-06-15T15:04:10.000Z</time>
        <extensions>
          <ns3:TrackPointExtension>
            <ns3:atemp>22.0</ns3:atemp>
          </ns3:TrackPointExtension>
        </extensions>
      </trkpt>
      <trkpt lat="42.59876503609120845794677734375" lon="19.98421241529285907745361328125">
        <ele>1225.199951171875</ele>
        <time>2026-06-15T15:04:11.000Z</time>
        <extensions>
          <ns3:TrackPointExtension>
            <ns3:atemp>22.0</ns3:atemp>
          </ns3:TrackPointExtension>
        </extensions>
      </trkpt>
      <trkpt lat="42.59880744852125644683837890625" lon="19.98418207280337810516357421875">
        <ele>1225</ele>
        <time>2026-06-15T15:04:12.000Z</time>
        <extensions>
          <ns3:TrackPointExtension>
            <ns3:atemp>22.0</ns3:atemp>
          </ns3:TrackPointExtension>
        </extensions>
      </trkpt>
      <trkpt lat="42.59884198196232318878173828125" lon="19.98414569534361362457275390625">
        <ele>1224.800048828125</ele>
        <time>2026-06-15T15:04:13.000Z</time>
        <extensions>
          <ns3:TrackPointExtension>
            <ns3:atemp>22.0</ns3:atemp>
          </ns3:TrackPointExtension>
        </extensions>
      </trkpt>
      <trkpt lat="42.59887835942208766937255859375" lon="19.984107725322246551513671875">
        <ele>1224.5999755859375</ele>
        <time>2026-06-15T15:04:14.000Z</time>
        <extensions>
          <ns3:TrackPointExtension>
            <ns3:atemp>22.0</ns3:atemp>
          </ns3:TrackPointExtension>
        </extensions>
      </trkpt>
      <trkpt lat="42.5989154912531375885009765625" lon="19.98407788574695587158203125">
        <ele>1224.199951171875</ele>
        <time>2026-06-15T15:04:15.000Z</time>
        <extensions>
          <ns3:TrackPointExtension>
            <ns3:atemp>22.0</ns3:atemp>
          </ns3:TrackPointExtension>
        </extensions>
      </trkpt>
      <trkpt lat="42.59894675575196743011474609375" lon="19.9840529076755046844482421875">
        <ele>1224</ele>
        <time>2026-06-15T15:04:16.000Z</time>
        <extensions>
          <ns3:TrackPointExtension>
            <ns3:atemp>22.0</ns3:atemp>
          </ns3:TrackPointExtension>
        </extensions>
      </trkpt>
      <trkpt lat="42.59897475130856037139892578125" lon="19.984031282365322113037109375">
        <ele>1223.800048828125</ele>
        <time>2026-06-15T15:04:17.000Z</time>
        <extensions>
          <ns3:TrackPointExtension>
            <ns3:atemp>22.0</ns3:atemp>
          </ns3:TrackPointExtension>
        </extensions>
      </trkpt>
      <trkpt lat="42.598997466266155242919921875" lon="19.98400957323610782623291015625">
        <ele>1223.800048828125</ele>
        <time>2026-06-15T15:04:18.000Z</time>
        <extensions>
          <ns3:TrackPointExtension>
            <ns3:atemp>22.0</ns3:atemp>
          </ns3:TrackPointExtension>
        </extensions>
      </trkpt>
      <trkpt lat="42.59901850484311580657958984375" lon="19.9839918874204158782958984375">
        <ele>1224</ele>
        <time>2026-06-15T15:04:19.000Z</time>
        <extensions>
          <ns3:TrackPointExtension>
            <ns3:atemp>22.0</ns3:atemp>
          </ns3:TrackPointExtension>
        </extensions>
      </trkpt>
      <trkpt lat="42.59904147125780582427978515625" lon="19.9839737825095653533935546875">
        <ele>1224.199951171875</ele>
        <time>2026-06-15T15:04:20.000Z</time>
        <extensions>
          <ns3:TrackPointExtension>
            <ns3:atemp>22.0</ns3:atemp>
          </ns3:TrackPointExtension>
        </extensions>
      </trkpt>
      <trkpt lat="42.59906142018735408782958984375" lon="19.98396095819771289825439453125">
        <ele>1224.4000244140625</ele>
        <time>2026-06-15T15:04:21.000Z</time>
        <extensions>
          <ns3:TrackPointExtension>
            <ns3:atemp>22.0</ns3:atemp>
          </ns3:TrackPointExtension>
        </extensions>
      </trkpt>
      <trkpt lat="42.599085308611392974853515625" lon="19.9839452840387821197509765625">
        <ele>1224.5999755859375</ele>
        <time>2026-06-15T15:04:22.000Z</time>
        <extensions>
          <ns3:TrackPointExtension>
            <ns3:atemp>22.0</ns3:atemp>
          </ns3:TrackPointExtension>
        </extensions>
      </trkpt>
      <trkpt lat="42.59911154396831989288330078125" lon="19.98393614776432514190673828125">
        <ele>1224.800048828125</ele>
        <time>2026-06-15T15:04:23.000Z</time>
        <extensions>
          <ns3:TrackPointExtension>
            <ns3:atemp>22.0</ns3:atemp>
          </ns3:TrackPointExtension>
        </extensions>
      </trkpt>
      <trkpt lat="42.5991399586200714111328125" lon="19.9839271791279315948486328125">
        <ele>1225.199951171875</ele>
        <time>2026-06-15T15:04:24.000Z</time>
        <extensions>
          <ns3:TrackPointExtension>
            <ns3:atemp>22.0</ns3:atemp>
          </ns3:TrackPointExtension>
        </extensions>
      </trkpt>
      <trkpt lat="42.59915948845446109771728515625" lon="19.9839221499860286712646484375">
        <ele>1225.5999755859375</ele>
        <time>2026-06-15T15:04:25.000Z</time>
        <extensions>
          <ns3:TrackPointExtension>
            <ns3:atemp>22.0</ns3:atemp>
          </ns3:TrackPointExtension>
        </extensions>
      </trkpt>
      <trkpt lat="42.59917549788951873779296875" lon="19.983917959034442901611328125">
        <ele>1225.800048828125</ele>
        <time>2026-06-15T15:04:26.000Z</time>
        <extensions>
          <ns3:TrackPointExtension>
            <ns3:atemp>22.0</ns3:atemp>
          </ns3:TrackPointExtension>
        </extensions>
      </trkpt>
      <trkpt lat="42.59919385425746440887451171875" lon="19.98391753993928432464599609375">
        <ele>1226.199951171875</ele>
        <time>2026-06-15T15:04:27.000Z</time>
        <extensions>
          <ns3:TrackPointExtension>
            <ns3:atemp>22.0</ns3:atemp>
          </ns3:TrackPointExtension>
        </extensions>
      </trkpt>
      <trkpt lat="42.59921371936798095703125" lon="19.9839122593402862548828125">
        <ele>1226.4000244140625</ele>
        <time>2026-06-15T15:04:28.000Z</time>
        <extensions>
          <ns3:TrackPointExtension>
            <ns3:atemp>22.0</ns3:atemp>
          </ns3:TrackPointExtension>
        </extensions>
      </trkpt>
      <trkpt lat="42.59923526085913181304931640625" lon="19.98390044085681438446044921875">
        <ele>1226.800048828125</ele>
        <time>2026-06-15T15:04:29.000Z</time>
        <extensions>
          <ns3:TrackPointExtension>
            <ns3:atemp>22.0</ns3:atemp>
          </ns3:TrackPointExtension>
        </extensions>
      </trkpt>
      <trkpt lat="42.59925873018801212310791015625" lon="19.98388300649821758270263671875">
        <ele>1227</ele>
        <time>2026-06-15T15:04:30.000Z</time>
        <extensions>
          <ns3:TrackPointExtension>
            <ns3:atemp>22.0</ns3:atemp>
          </ns3:TrackPointExtension>
        </extensions>
      </trkpt>
      <trkpt lat="42.5992819480597972869873046875" lon="19.98386523686349391937255859375">
        <ele>1227.199951171875</ele>
        <time>2026-06-15T15:04:31.000Z</time>
        <extensions>
          <ns3:TrackPointExtension>
            <ns3:atemp>22.0</ns3:atemp>
          </ns3:TrackPointExtension>
        </extensions>
      </trkpt>
      <trkpt lat="42.599301896989345550537109375" lon="19.9838473834097385406494140625">
        <ele>1227.4000244140625</ele>
        <time>2026-06-15T15:04:32.000Z</time>
        <extensions>
          <ns3:TrackPointExtension>
            <ns3:atemp>22.0</ns3:atemp>
          </ns3:TrackPointExtension>
        </extensions>
      </trkpt>
      <trkpt lat="42.599320672452449798583984375" lon="19.98383137397468090057373046875">
        <ele>1227.4000244140625</ele>
        <time>2026-06-15T15:04:33.000Z</time>
        <extensions>
          <ns3:TrackPointExtension>
            <ns3:atemp>22.0</ns3:atemp>
          </ns3:TrackPointExtension>
        </extensions>
      </trkpt>
      <trkpt lat="42.5993345864117145538330078125" lon="19.98381846584379673004150390625">
        <ele>1227.5999755859375</ele>
        <time>2026-06-15T15:04:34.000Z</time>
        <extensions>
          <ns3:TrackPointExtension>
            <ns3:atemp>22.0</ns3:atemp>
          </ns3:TrackPointExtension>
        </extensions>
      </trkpt>
      <trkpt lat="42.5993443094193935394287109375" lon="19.98380438424646854400634765625">
        <ele>1227.5999755859375</ele>
        <time>2026-06-15T15:04:35.000Z</time>
        <extensions>
          <ns3:TrackPointExtension>
            <ns3:atemp>22.0</ns3:atemp>
          </ns3:TrackPointExtension>
        </extensions>
      </trkpt>
      <trkpt lat="42.5993500091135501861572265625" lon="19.983795247972011566162109375">
        <ele>1227.800048828125</ele>
        <time>2026-06-15T15:04:36.000Z</time>
        <extensions>
          <ns3:TrackPointExtension>
            <ns3:atemp>22.0</ns3:atemp>
          </ns3:TrackPointExtension>
        </extensions>
      </trkpt>
      <trkpt lat="42.59935344569385051727294921875" lon="19.98378912918269634246826171875">
        <ele>1227.800048828125</ele>
        <time>2026-06-15T15:04:37.000Z</time>
        <extensions>
          <ns3:TrackPointExtension>
            <ns3:atemp>22.0</ns3:atemp>
          </ns3:TrackPointExtension>
        </extensions>
      </trkpt>
      <trkpt lat="42.59935948066413402557373046875" lon="19.98378309421241283416748046875">
        <ele>1228</ele>
        <time>2026-06-15T15:04:38.000Z</time>
        <extensions>
          <ns3:TrackPointExtension>
            <ns3:atemp>22.0</ns3:atemp>
          </ns3:TrackPointExtension>
        </extensions>
      </trkpt>
      <trkpt lat="42.5993692874908447265625" lon="19.9837746284902095794677734375">
        <ele>1228</ele>
        <time>2026-06-15T15:04:39.000Z</time>
        <extensions>
          <ns3:TrackPointExtension>
            <ns3:atemp>22.0</ns3:atemp>
          </ns3:TrackPointExtension>
        </extensions>
      </trkpt>
      <trkpt lat="42.59938160888850688934326171875" lon="19.983767755329608917236328125">
        <ele>1228.199951171875</ele>
        <time>2026-06-15T15:04:40.000Z</time>
        <extensions>
          <ns3:TrackPointExtension>
            <ns3:atemp>22.0</ns3:atemp>
          </ns3:TrackPointExtension>
        </extensions>
      </trkpt>
      <trkpt lat="42.5993956066668033599853515625" lon="19.98375643976032733917236328125">
        <ele>1228.199951171875</ele>
        <time>2026-06-15T15:04:41.000Z</time>
        <extensions>
          <ns3:TrackPointExtension>
            <ns3:atemp>22.0</ns3:atemp>
          </ns3:TrackPointExtension>
        </extensions>
      </trkpt>
      <trkpt lat="42.59940926916897296905517578125" lon="19.9837481416761875152587890625">
        <ele>1228.199951171875</ele>
        <time>2026-06-15T15:04:42.000Z</time>
        <extensions>
          <ns3:TrackPointExtension>
            <ns3:atemp>22.0</ns3:atemp>
          </ns3:TrackPointExtension>
        </extensions>
      </trkpt>
      <trkpt lat="42.59942452423274517059326171875" lon="19.98374571092426776885986328125">
        <ele>1228.4000244140625</ele>
        <time>2026-06-15T15:04:43.000Z</time>
        <extensions>
          <ns3:TrackPointExtension>
            <ns3:atemp>22.0</ns3:atemp>
          </ns3:TrackPointExtension>
        </extensions>
      </trkpt>
      <trkpt lat="42.59943709708750247955322265625" lon="19.98374554328620433807373046875">
        <ele>1228.4000244140625</ele>
        <time>2026-06-15T15:04:44.000Z</time>
        <extensions>
          <ns3:TrackPointExtension>
            <ns3:atemp>22.0</ns3:atemp>
          </ns3:TrackPointExtension>
        </extensions>
      </trkpt>
      <trkpt lat="42.59945042431354522705078125" lon="19.98373850248754024505615234375">
        <ele>1228.4000244140625</ele>
        <time>2026-06-15T15:04:45.000Z</time>
        <extensions>
          <ns3:TrackPointExtension>
            <ns3:atemp>22.0</ns3:atemp>
          </ns3:TrackPointExtension>
        </extensions>
      </trkpt>
      <trkpt lat="42.59947062470018863677978515625" lon="19.98373590409755706787109375">
        <ele>1228.5999755859375</ele>
        <time>2026-06-15T15:04:46.000Z</time>
        <extensions>
          <ns3:TrackPointExtension>
            <ns3:atemp>22.0</ns3:atemp>
          </ns3:TrackPointExtension>
        </extensions>
      </trkpt>
      <trkpt lat="42.59949023835361003875732421875" lon="19.9837293662130832672119140625">
        <ele>1228.800048828125</ele>
        <time>2026-06-15T15:04:47.000Z</time>
        <extensions>
          <ns3:TrackPointExtension>
            <ns3:atemp>22.0</ns3:atemp>
          </ns3:TrackPointExtension>
        </extensions>
      </trkpt>
      <trkpt lat="42.59951085783541202545166015625" lon="19.983721487224102020263671875">
        <ele>1228.800048828125</ele>
        <time>2026-06-15T15:04:48.000Z</time>
        <extensions>
          <ns3:TrackPointExtension>
            <ns3:atemp>22.0</ns3:atemp>
          </ns3:TrackPointExtension>
        </extensions>
      </trkpt>
      <trkpt lat="42.5995293818414211273193359375" lon="19.98370799235999584197998046875">
        <ele>1229</ele>
        <time>2026-06-15T15:04:49.000Z</time>
        <extensions>
          <ns3:TrackPointExtension>
            <ns3:atemp>22.0</ns3:atemp>
          </ns3:TrackPointExtension>
        </extensions>
      </trkpt>
      <trkpt lat="42.599547319114208221435546875" lon="19.98369474895298480987548828125">
        <ele>1229</ele>
        <time>2026-06-15T15:04:50.000Z</time>
        <extensions>
          <ns3:TrackPointExtension>
            <ns3:atemp>22.0</ns3:atemp>
          </ns3:TrackPointExtension>
        </extensions>
      </trkpt>
      <trkpt lat="42.59956215508282184600830078125" lon="19.98368603177368640899658203125">
        <ele>1229</ele>
        <time>2026-06-15T15:04:51.000Z</time>
        <extensions>
          <ns3:TrackPointExtension>
            <ns3:atemp>22.0</ns3:atemp>
          </ns3:TrackPointExtension>
        </extensions>
      </trkpt>
      <trkpt lat="42.59957506321370601654052734375" lon="19.98367295600473880767822265625">
        <ele>1229</ele>
        <time>2026-06-15T15:04:52.000Z</time>
        <extensions>
          <ns3:TrackPointExtension>
            <ns3:atemp>22.0</ns3:atemp>
          </ns3:TrackPointExtension>
        </extensions>
      </trkpt>
      <trkpt lat="42.599586546421051025390625" lon="19.9836619757115840911865234375">
        <ele>1229</ele>
        <time>2026-06-15T15:04:53.000Z</time>
        <extensions>
          <ns3:TrackPointExtension>
            <ns3:atemp>22.0</ns3:atemp>
          </ns3:TrackPointExtension>
        </extensions>
      </trkpt>
      <trkpt lat="42.59959392249584197998046875" lon="19.983655102550983428955078125">
        <ele>1229</ele>
        <time>2026-06-15T15:04:54.000Z</time>
        <extensions>
          <ns3:TrackPointExtension>
            <ns3:atemp>22.0</ns3:atemp>
          </ns3:TrackPointExtension>
        </extensions>
      </trkpt>
      <trkpt lat="42.5995977781713008880615234375" lon="19.98365384526550769805908203125">
        <ele>1229</ele>
        <time>2026-06-15T15:04:55.000Z</time>
        <extensions>
          <ns3:TrackPointExtension>
            <ns3:atemp>22.0</ns3:atemp>
          </ns3:TrackPointExtension>
        </extensions>
      </trkpt>
      <trkpt lat="42.5995977781713008880615234375" lon="19.98365384526550769805908203125">
        <ele>1229</ele>
        <time>2026-06-15T15:04:56.000Z</time>
        <extensions>
          <ns3:TrackPointExtension>
            <ns3:atemp>22.0</ns3:atemp>
          </ns3:TrackPointExtension>
        </extensions>
      </trkpt>
      <trkpt lat="42.5995977781713008880615234375" lon="19.98365384526550769805908203125">
        <ele>1229</ele>
        <time>2026-06-15T15:04:57.000Z</time>
        <extensions>
          <ns3:TrackPointExtension>
            <ns3:atemp>22.0</ns3:atemp>
          </ns3:TrackPointExtension>
        </extensions>
      </trkpt>
      <trkpt lat="42.5995977781713008880615234375" lon="19.98365384526550769805908203125">
        <ele>1229</ele>
        <time>2026-06-15T15:04:58.000Z</time>
        <extensions>
          <ns3:TrackPointExtension>
            <ns3:atemp>22.0</ns3:atemp>
          </ns3:TrackPointExtension>
        </extensions>
      </trkpt>
      <trkpt lat="42.5995977781713008880615234375" lon="19.98365384526550769805908203125">
        <ele>1228.800048828125</ele>
        <time>2026-06-15T15:04:59.000Z</time>
        <extensions>
          <ns3:TrackPointExtension>
            <ns3:atemp>22.0</ns3:atemp>
          </ns3:TrackPointExtension>
        </extensions>
      </trkpt>
      <trkpt lat="42.5995977781713008880615234375" lon="19.98365384526550769805908203125">
        <ele>1228.5999755859375</ele>
        <time>2026-06-15T15:05:00.000Z</time>
        <extensions>
          <ns3:TrackPointExtension>
            <ns3:atemp>22.0</ns3:atemp>
          </ns3:TrackPointExtension>
        </extensions>
      </trkpt>
      <trkpt lat="42.5995977781713008880615234375" lon="19.98365384526550769805908203125">
        <ele>1228.5999755859375</ele>
        <time>2026-06-15T15:05:01.000Z</time>
        <extensions>
          <ns3:TrackPointExtension>
            <ns3:atemp>22.0</ns3:atemp>
          </ns3:TrackPointExtension>
        </extensions>
      </trkpt>
      <trkpt lat="42.5995977781713008880615234375" lon="19.98365384526550769805908203125">
        <ele>1228.5999755859375</ele>
        <time>2026-06-15T15:05:02.000Z</time>
        <extensions>
          <ns3:TrackPointExtension>
            <ns3:atemp>22.0</ns3:atemp>
          </ns3:TrackPointExtension>
        </extensions>
      </trkpt>
      <trkpt lat="42.5995977781713008880615234375" lon="19.98365384526550769805908203125">
        <ele>1228.4000244140625</ele>
        <time>2026-06-15T15:05:03.000Z</time>
        <extensions>
          <ns3:TrackPointExtension>
            <ns3:atemp>22.0</ns3:atemp>
          </ns3:TrackPointExtension>
        </extensions>
      </trkpt>
      <trkpt lat="42.5995977781713008880615234375" lon="19.98365384526550769805908203125">
        <ele>1228.4000244140625</ele>
        <time>2026-06-15T15:05:04.000Z</time>
        <extensions>
          <ns3:TrackPointExtension>
            <ns3:atemp>22.0</ns3:atemp>
          </ns3:TrackPointExtension>
        </extensions>
      </trkpt>
      <trkpt lat="42.5995977781713008880615234375" lon="19.98365384526550769805908203125">
        <ele>1228.4000244140625</ele>
        <time>2026-06-15T15:05:05.000Z</time>
        <extensions>
          <ns3:TrackPointExtension>
            <ns3:atemp>22.0</ns3:atemp>
          </ns3:TrackPointExtension>
        </extensions>
      </trkpt>
      <trkpt lat="42.5995977781713008880615234375" lon="19.98365384526550769805908203125">
        <ele>1228.199951171875</ele>
        <time>2026-06-15T15:05:06.000Z</time>
        <extensions>
          <ns3:TrackPointExtension>
            <ns3:atemp>22.0</ns3:atemp>
          </ns3:TrackPointExtension>
        </extensions>
      </trkpt>
      <trkpt lat="42.5995977781713008880615234375" lon="19.98365384526550769805908203125">
        <ele>1228.199951171875</ele>
        <time>2026-06-15T15:05:07.000Z</time>
        <extensions>
          <ns3:TrackPointExtension>
            <ns3:atemp>22.0</ns3:atemp>
          </ns3:TrackPointExtension>
        </extensions>
      </trkpt>
      <trkpt lat="42.5995977781713008880615234375" lon="19.98365384526550769805908203125">
        <ele>1228</ele>
        <time>2026-06-15T15:05:08.000Z</time>
        <extensions>
          <ns3:TrackPointExtension>
            <ns3:atemp>22.0</ns3:atemp>
          </ns3:TrackPointExtension>
        </extensions>
      </trkpt>
      <trkpt lat="42.5995977781713008880615234375" lon="19.98365384526550769805908203125">
        <ele>1228</ele>
        <time>2026-06-15T15:05:09.000Z</time>
        <extensions>
          <ns3:TrackPointExtension>
            <ns3:atemp>22.0</ns3:atemp>
          </ns3:TrackPointExtension>
        </extensions>
      </trkpt>
      <trkpt lat="42.5995977781713008880615234375" lon="19.98365384526550769805908203125">
        <ele>1228</ele>
        <time>2026-06-15T15:05:10.000Z</time>
        <extensions>
          <ns3:TrackPointExtension>
            <ns3:atemp>22.0</ns3:atemp>
          </ns3:TrackPointExtension>
        </extensions>
      </trkpt>
      <trkpt lat="42.5995977781713008880615234375" lon="19.98365384526550769805908203125">
        <ele>1227.800048828125</ele>
        <time>2026-06-15T15:05:11.000Z</time>
        <extensions>
          <ns3:TrackPointExtension>
            <ns3:atemp>22.0</ns3:atemp>
          </ns3:TrackPointExtension>
        </extensions>
      </trkpt>
      <trkpt lat="42.5995977781713008880615234375" lon="19.98365384526550769805908203125">
        <ele>1227.800048828125</ele>
        <time>2026-06-15T15:05:12.000Z</time>
        <extensions>
          <ns3:TrackPointExtension>
            <ns3:atemp>22.0</ns3:atemp>
          </ns3:TrackPointExtension>
        </extensions>
      </trkpt>
      <trkpt lat="42.5995977781713008880615234375" lon="19.98365384526550769805908203125">
        <ele>1227.800048828125</ele>
        <time>2026-06-15T15:05:13.000Z</time>
        <extensions>
          <ns3:TrackPointExtension>
            <ns3:atemp>22.0</ns3:atemp>
          </ns3:TrackPointExtension>
        </extensions>
      </trkpt>
      <trkpt lat="42.5995977781713008880615234375" lon="19.98365384526550769805908203125">
        <ele>1227.800048828125</ele>
        <time>2026-06-15T15:05:14.000Z</time>
        <extensions>
          <ns3:TrackPointExtension>
            <ns3:atemp>22.0</ns3:atemp>
          </ns3:TrackPointExtension>
        </extensions>
      </trkpt>
      <trkpt lat="42.5995977781713008880615234375" lon="19.98365384526550769805908203125">
        <ele>1227.800048828125</ele>
        <time>2026-06-15T15:05:15.000Z</time>
        <extensions>
          <ns3:TrackPointExtension>
            <ns3:atemp>22.0</ns3:atemp>
          </ns3:TrackPointExtension>
        </extensions>
      </trkpt>
      <trkpt lat="42.5995977781713008880615234375" lon="19.98365384526550769805908203125">
        <ele>1227.800048828125</ele>
        <time>2026-06-15T15:05:16.000Z</time>
        <extensions>
          <ns3:TrackPointExtension>
            <ns3:atemp>22.0</ns3:atemp>
          </ns3:TrackPointExtension>
        </extensions>
      </trkpt>
      <trkpt lat="42.5995977781713008880615234375" lon="19.98365384526550769805908203125">
        <ele>1227.800048828125</ele>
        <time>2026-06-15T15:05:17.000Z</time>
        <extensions>
          <ns3:TrackPointExtension>
            <ns3:atemp>22.0</ns3:atemp>
          </ns3:TrackPointExtension>
        </extensions>
      </trkpt>
      <trkpt lat="42.5995977781713008880615234375" lon="19.98365384526550769805908203125">
        <ele>1227.800048828125</ele>
        <time>2026-06-15T15:05:18.000Z</time>
        <extensions>
          <ns3:TrackPointExtension>
            <ns3:atemp>22.0</ns3:atemp>
          </ns3:TrackPointExtension>
        </extensions>
      </trkpt>
      <trkpt lat="42.5995977781713008880615234375" lon="19.98365384526550769805908203125">
        <ele>1227.800048828125</ele>
        <time>2026-06-15T15:05:19.000Z</time>
        <extensions>
          <ns3:TrackPointExtension>
            <ns3:atemp>22.0</ns3:atemp>
          </ns3:TrackPointExtension>
        </extensions>
      </trkpt>
      <trkpt lat="42.5995977781713008880615234375" lon="19.98365384526550769805908203125">
        <ele>1228</ele>
        <time>2026-06-15T15:05:20.000Z</time>
        <extensions>
          <ns3:TrackPointExtension>
            <ns3:atemp>22.0</ns3:atemp>
          </ns3:TrackPointExtension>
        </extensions>
      </trkpt>
      <trkpt lat="42.5995977781713008880615234375" lon="19.98365384526550769805908203125">
        <ele>1228</ele>
        <time>2026-06-15T15:05:21.000Z</time>
        <extensions>
          <ns3:TrackPointExtension>
            <ns3:atemp>22.0</ns3:atemp>
          </ns3:TrackPointExtension>
        </extensions>
      </trkpt>
      <trkpt lat="42.5995977781713008880615234375" lon="19.98365384526550769805908203125">
        <ele>1228</ele>
        <time>2026-06-15T15:05:22.000Z</time>
        <extensions>
          <ns3:TrackPointExtension>
            <ns3:atemp>22.0</ns3:atemp>
          </ns3:TrackPointExtension>
        </extensions>
      </trkpt>
      <trkpt lat="42.5995977781713008880615234375" lon="19.98365384526550769805908203125">
        <ele>1228.199951171875</ele>
        <time>2026-06-15T15:05:23.000Z</time>
        <extensions>
          <ns3:TrackPointExtension>
            <ns3:atemp>22.0</ns3:atemp>
          </ns3:TrackPointExtension>
        </extensions>
      </trkpt>
      <trkpt lat="42.5995977781713008880615234375" lon="19.98365384526550769805908203125">
        <ele>1228.199951171875</ele>
        <time>2026-06-15T15:05:24.000Z</time>
        <extensions>
          <ns3:TrackPointExtension>
            <ns3:atemp>22.0</ns3:atemp>
          </ns3:TrackPointExtension>
        </extensions>
      </trkpt>
      <trkpt lat="42.5995977781713008880615234375" lon="19.98365384526550769805908203125">
        <ele>1228</ele>
        <time>2026-06-15T15:05:25.000Z</time>
        <extensions>
          <ns3:TrackPointExtension>
            <ns3:atemp>22.0</ns3:atemp>
          </ns3:TrackPointExtension>
        </extensions>
      </trkpt>
      <trkpt lat="42.5995977781713008880615234375" lon="19.98365384526550769805908203125">
        <ele>1228</ele>
        <time>2026-06-15T15:05:26.000Z</time>
        <extensions>
          <ns3:TrackPointExtension>
            <ns3:atemp>22.0</ns3:atemp>
          </ns3:TrackPointExtension>
        </extensions>
      </trkpt>
      <trkpt lat="42.5995977781713008880615234375" lon="19.98365384526550769805908203125">
        <ele>1228</ele>
        <time>2026-06-15T15:05:27.000Z</time>
        <extensions>
          <ns3:TrackPointExtension>
            <ns3:atemp>22.0</ns3:atemp>
          </ns3:TrackPointExtension>
        </extensions>
      </trkpt>
      <trkpt lat="42.5995977781713008880615234375" lon="19.98365384526550769805908203125">
        <ele>1227.800048828125</ele>
        <time>2026-06-15T15:05:28.000Z</time>
        <extensions>
          <ns3:TrackPointExtension>
            <ns3:atemp>21.0</ns3:atemp>
          </ns3:TrackPointExtension>
        </extensions>
      </trkpt>
      <trkpt lat="42.5995977781713008880615234375" lon="19.98365384526550769805908203125">
        <ele>1227.800048828125</ele>
        <time>2026-06-15T15:05:29.000Z</time>
        <extensions>
          <ns3:TrackPointExtension>
            <ns3:atemp>21.0</ns3:atemp>
          </ns3:TrackPointExtension>
        </extensions>
      </trkpt>
      <trkpt lat="42.5995977781713008880615234375" lon="19.98365384526550769805908203125">
        <ele>1227.800048828125</ele>
        <time>2026-06-15T15:05:30.000Z</time>
        <extensions>
          <ns3:TrackPointExtension>
            <ns3:atemp>21.0</ns3:atemp>
          </ns3:TrackPointExtension>
        </extensions>
      </trkpt>
      <trkpt lat="42.5995977781713008880615234375" lon="19.98365384526550769805908203125">
        <ele>1227.5999755859375</ele>
        <time>2026-06-15T15:05:31.000Z</time>
        <extensions>
          <ns3:TrackPointExtension>
            <ns3:atemp>21.0</ns3:atemp>
          </ns3:TrackPointExtension>
        </extensions>
      </trkpt>
      <trkpt lat="42.5995977781713008880615234375" lon="19.98365384526550769805908203125">
        <ele>1227.5999755859375</ele>
        <time>2026-06-15T15:05:32.000Z</time>
        <extensions>
          <ns3:TrackPointExtension>
            <ns3:atemp>21.0</ns3:atemp>
          </ns3:TrackPointExtension>
        </extensions>
      </trkpt>
      <trkpt lat="42.5995977781713008880615234375" lon="19.98365384526550769805908203125">
        <ele>1227.5999755859375</ele>
        <time>2026-06-15T15:05:33.000Z</time>
        <extensions>
          <ns3:TrackPointExtension>
            <ns3:atemp>21.0</ns3:atemp>
          </ns3:TrackPointExtension>
        </extensions>
      </trkpt>
      <trkpt lat="42.5995977781713008880615234375" lon="19.98365384526550769805908203125">
        <ele>1227.5999755859375</ele>
        <time>2026-06-15T15:05:34.000Z</time>
        <extensions>
          <ns3:TrackPointExtension>
            <ns3:atemp>21.0</ns3:atemp>
          </ns3:TrackPointExtension>
        </extensions>
      </trkpt>
      <trkpt lat="42.5995977781713008880615234375" lon="19.98365384526550769805908203125">
        <ele>1227.5999755859375</ele>
        <time>2026-06-15T15:05:35.000Z</time>
        <extensions>
          <ns3:TrackPointExtension>
            <ns3:atemp>21.0</ns3:atemp>
          </ns3:TrackPointExtension>
        </extensions>
      </trkpt>
      <trkpt lat="42.5995977781713008880615234375" lon="19.98365384526550769805908203125">
        <ele>1227.5999755859375</ele>
        <time>2026-06-15T15:05:36.000Z</time>
        <extensions>
          <ns3:TrackPointExtension>
            <ns3:atemp>21.0</ns3:atemp>
          </ns3:TrackPointExtension>
        </extensions>
      </trkpt>
      <trkpt lat="42.5995977781713008880615234375" lon="19.98365384526550769805908203125">
        <ele>1227.5999755859375</ele>
        <time>2026-06-15T15:05:37.000Z</time>
        <extensions>
          <ns3:TrackPointExtension>
            <ns3:atemp>21.0</ns3:atemp>
          </ns3:TrackPointExtension>
        </extensions>
      </trkpt>
      <trkpt lat="42.5995977781713008880615234375" lon="19.98365384526550769805908203125">
        <ele>1227.5999755859375</ele>
        <time>2026-06-15T15:05:38.000Z</time>
        <extensions>
          <ns3:TrackPointExtension>
            <ns3:atemp>21.0</ns3:atemp>
          </ns3:TrackPointExtension>
        </extensions>
      </trkpt>
      <trkpt lat="42.5995977781713008880615234375" lon="19.98365384526550769805908203125">
        <ele>1227.4000244140625</ele>
        <time>2026-06-15T15:05:39.000Z</time>
        <extensions>
          <ns3:TrackPointExtension>
            <ns3:atemp>21.0</ns3:atemp>
          </ns3:TrackPointExtension>
        </extensions>
      </trkpt>
      <trkpt lat="42.5995977781713008880615234375" lon="19.98365384526550769805908203125">
        <ele>1227.4000244140625</ele>
        <time>2026-06-15T15:05:40.000Z</time>
        <extensions>
          <ns3:TrackPointExtension>
            <ns3:atemp>21.0</ns3:atemp>
          </ns3:TrackPointExtension>
        </extensions>
      </trkpt>
      <trkpt lat="42.5995977781713008880615234375" lon="19.98365384526550769805908203125">
        <ele>1227.4000244140625</ele>
        <time>2026-06-15T15:05:41.000Z</time>
        <extensions>
          <ns3:TrackPointExtension>
            <ns3:atemp>21.0</ns3:atemp>
          </ns3:TrackPointExtension>
        </extensions>
      </trkpt>
      <trkpt lat="42.5995977781713008880615234375" lon="19.98365384526550769805908203125">
        <ele>1227.4000244140625</ele>
        <time>2026-06-15T15:05:42.000Z</time>
        <extensions>
          <ns3:TrackPointExtension>
            <ns3:atemp>21.0</ns3:atemp>
          </ns3:TrackPointExtension>
        </extensions>
      </trkpt>
      <trkpt lat="42.5995977781713008880615234375" lon="19.98365384526550769805908203125">
        <ele>1227.4000244140625</ele>
        <time>2026-06-15T15:05:43.000Z</time>
        <extensions>
          <ns3:TrackPointExtension>
            <ns3:atemp>21.0</ns3:atemp>
          </ns3:TrackPointExtension>
        </extensions>
      </trkpt>
      <trkpt lat="42.5995977781713008880615234375" lon="19.98365384526550769805908203125">
        <ele>1227.199951171875</ele>
        <time>2026-06-15T15:05:44.000Z</time>
        <extensions>
          <ns3:TrackPointExtension>
            <ns3:atemp>21.0</ns3:atemp>
          </ns3:TrackPointExtension>
        </extensions>
      </trkpt>
      <trkpt lat="42.5995977781713008880615234375" lon="19.98365384526550769805908203125">
        <ele>1227.199951171875</ele>
        <time>2026-06-15T15:05:45.000Z</time>
        <extensions>
          <ns3:TrackPointExtension>
            <ns3:atemp>21.0</ns3:atemp>
          </ns3:TrackPointExtension>
        </extensions>
      </trkpt>
      <trkpt lat="42.5995977781713008880615234375" lon="19.98365384526550769805908203125">
        <ele>1227.199951171875</ele>
        <time>2026-06-15T15:05:46.000Z</time>
        <extensions>
          <ns3:TrackPointExtension>
            <ns3:atemp>21.0</ns3:atemp>
          </ns3:TrackPointExtension>
        </extensions>
      </trkpt>
      <trkpt lat="42.5995977781713008880615234375" lon="19.98365384526550769805908203125">
        <ele>1227.199951171875</ele>
        <time>2026-06-15T15:05:47.000Z</time>
        <extensions>
          <ns3:TrackPointExtension>
            <ns3:atemp>21.0</ns3:atemp>
          </ns3:TrackPointExtension>
        </extensions>
      </trkpt>
      <trkpt lat="42.5995977781713008880615234375" lon="19.98365384526550769805908203125">
        <ele>1227.199951171875</ele>
        <time>2026-06-15T15:05:48.000Z</time>
        <extensions>
          <ns3:TrackPointExtension>
            <ns3:atemp>21.0</ns3:atemp>
          </ns3:TrackPointExtension>
        </extensions>
      </trkpt>
      <trkpt lat="42.5995977781713008880615234375" lon="19.98365384526550769805908203125">
        <ele>1227.199951171875</ele>
        <time>2026-06-15T15:05:49.000Z</time>
        <extensions>
          <ns3:TrackPointExtension>
            <ns3:atemp>21.0</ns3:atemp>
          </ns3:TrackPointExtension>
        </extensions>
      </trkpt>
      <trkpt lat="42.5995977781713008880615234375" lon="19.98365384526550769805908203125">
        <ele>1227.199951171875</ele>
        <time>2026-06-15T15:05:50.000Z</time>
        <extensions>
          <ns3:TrackPointExtension>
            <ns3:atemp>21.0</ns3:atemp>
          </ns3:TrackPointExtension>
        </extensions>
      </trkpt>
      <trkpt lat="42.5995977781713008880615234375" lon="19.98365384526550769805908203125">
        <ele>1227</ele>
        <time>2026-06-15T15:05:51.000Z</time>
        <extensions>
          <ns3:TrackPointExtension>
            <ns3:atemp>21.0</ns3:atemp>
          </ns3:TrackPointExtension>
        </extensions>
      </trkpt>
      <trkpt lat="42.5995977781713008880615234375" lon="19.98365384526550769805908203125">
        <ele>1227</ele>
        <time>2026-06-15T15:05:52.000Z</time>
        <extensions>
          <ns3:TrackPointExtension>
            <ns3:atemp>21.0</ns3:atemp>
          </ns3:TrackPointExtension>
        </extensions>
      </trkpt>
      <trkpt lat="42.5995977781713008880615234375" lon="19.98365384526550769805908203125">
        <ele>1227</ele>
        <time>2026-06-15T15:05:53.000Z</time>
        <extensions>
          <ns3:TrackPointExtension>
            <ns3:atemp>21.0</ns3:atemp>
          </ns3:TrackPointExtension>
        </extensions>
      </trkpt>
      <trkpt lat="42.5995977781713008880615234375" lon="19.98365384526550769805908203125">
        <ele>1227</ele>
        <time>2026-06-15T15:05:54.000Z</time>
        <extensions>
          <ns3:TrackPointExtension>
            <ns3:atemp>21.0</ns3:atemp>
          </ns3:TrackPointExtension>
        </extensions>
      </trkpt>
      <trkpt lat="42.5995977781713008880615234375" lon="19.98365384526550769805908203125">
        <ele>1226.800048828125</ele>
        <time>2026-06-15T15:05:55.000Z</time>
        <extensions>
          <ns3:TrackPointExtension>
            <ns3:atemp>21.0</ns3:atemp>
          </ns3:TrackPointExtension>
        </extensions>
      </trkpt>
      <trkpt lat="42.5995977781713008880615234375" lon="19.98365384526550769805908203125">
        <ele>1226.800048828125</ele>
        <time>2026-06-15T15:05:56.000Z</time>
        <extensions>
          <ns3:TrackPointExtension>
            <ns3:atemp>21.0</ns3:atemp>
          </ns3:TrackPointExtension>
        </extensions>
      </trkpt>
      <trkpt lat="42.5995977781713008880615234375" lon="19.98365384526550769805908203125">
        <ele>1226.800048828125</ele>
        <time>2026-06-15T15:05:57.000Z</time>
        <extensions>
          <ns3:TrackPointExtension>
            <ns3:atemp>21.0</ns3:atemp>
          </ns3:TrackPointExtension>
        </extensions>
      </trkpt>
      <trkpt lat="42.5995977781713008880615234375" lon="19.98365384526550769805908203125">
        <ele>1226.800048828125</ele>
        <time>2026-06-15T15:05:58.000Z</time>
        <extensions>
          <ns3:TrackPointExtension>
            <ns3:atemp>21.0</ns3:atemp>
          </ns3:TrackPointExtension>
        </extensions>
      </trkpt>
      <trkpt lat="42.5995977781713008880615234375" lon="19.98365384526550769805908203125">
        <ele>1226.5999755859375</ele>
        <time>2026-06-15T15:05:59.000Z</time>
        <extensions>
          <ns3:TrackPointExtension>
            <ns3:atemp>21.0</ns3:atemp>
          </ns3:TrackPointExtension>
        </extensions>
      </trkpt>
      <trkpt lat="42.5995977781713008880615234375" lon="19.98365384526550769805908203125">
        <ele>1226.5999755859375</ele>
        <time>2026-06-15T15:06:00.000Z</time>
        <extensions>
          <ns3:TrackPointExtension>
            <ns3:atemp>21.0</ns3:atemp>
          </ns3:TrackPointExtension>
        </extensions>
      </trkpt>
      <trkpt lat="42.5995977781713008880615234375" lon="19.98365384526550769805908203125">
        <ele>1226.5999755859375</ele>
        <time>2026-06-15T15:06:01.000Z</time>
        <extensions>
          <ns3:TrackPointExtension>
            <ns3:atemp>21.0</ns3:atemp>
          </ns3:TrackPointExtension>
        </extensions>
      </trkpt>
      <trkpt lat="42.5995977781713008880615234375" lon="19.98365384526550769805908203125">
        <ele>1226.5999755859375</ele>
        <time>2026-06-15T15:06:02.000Z</time>
        <extensions>
          <ns3:TrackPointExtension>
            <ns3:atemp>21.0</ns3:atemp>
          </ns3:TrackPointExtension>
        </extensions>
      </trkpt>
      <trkpt lat="42.5995977781713008880615234375" lon="19.98365384526550769805908203125">
        <ele>1226.5999755859375</ele>
        <time>2026-06-15T15:06:03.000Z</time>
        <extensions>
          <ns3:TrackPointExtension>
            <ns3:atemp>21.0</ns3:atemp>
          </ns3:TrackPointExtension>
        </extensions>
      </trkpt>
      <trkpt lat="42.5995977781713008880615234375" lon="19.98365384526550769805908203125">
        <ele>1226.5999755859375</ele>
        <time>2026-06-15T15:06:04.000Z</time>
        <extensions>
          <ns3:TrackPointExtension>
            <ns3:atemp>21.0</ns3:atemp>
          </ns3:TrackPointExtension>
        </extensions>
      </trkpt>
      <trkpt lat="42.5995977781713008880615234375" lon="19.98365384526550769805908203125">
        <ele>1226.5999755859375</ele>
        <time>2026-06-15T15:06:05.000Z</time>
        <extensions>
          <ns3:TrackPointExtension>
            <ns3:atemp>21.0</ns3:atemp>
          </ns3:TrackPointExtension>
        </extensions>
      </trkpt>
      <trkpt lat="42.5995977781713008880615234375" lon="19.98365384526550769805908203125">
        <ele>1226.5999755859375</ele>
        <time>2026-06-15T15:06:06.000Z</time>
        <extensions>
          <ns3:TrackPointExtension>
            <ns3:atemp>21.0</ns3:atemp>
          </ns3:TrackPointExtension>
        </extensions>
      </trkpt>
      <trkpt lat="42.5995977781713008880615234375" lon="19.98365384526550769805908203125">
        <ele>1226.5999755859375</ele>
        <time>2026-06-15T15:06:07.000Z</time>
        <extensions>
          <ns3:TrackPointExtension>
            <ns3:atemp>21.0</ns3:atemp>
          </ns3:TrackPointExtension>
        </extensions>
      </trkpt>
      <trkpt lat="42.5995977781713008880615234375" lon="19.98365384526550769805908203125">
        <ele>1226.5999755859375</ele>
        <time>2026-06-15T15:06:08.000Z</time>
        <extensions>
          <ns3:TrackPointExtension>
            <ns3:atemp>21.0</ns3:atemp>
          </ns3:TrackPointExtension>
        </extensions>
      </trkpt>
      <trkpt lat="42.59959870018064975738525390625" lon="19.983657784759998321533203125">
        <ele>1226.4000244140625</ele>
        <time>2026-06-15T15:06:09.000Z</time>
        <extensions>
          <ns3:TrackPointExtension>
            <ns3:atemp>21.0</ns3:atemp>
          </ns3:TrackPointExtension>
        </extensions>
      </trkpt>
      <trkpt lat="42.599596269428730010986328125" lon="19.98366910032927989959716796875">
        <ele>1226.5999755859375</ele>
        <time>2026-06-15T15:06:10.000Z</time>
        <extensions>
          <ns3:TrackPointExtension>
            <ns3:atemp>21.0</ns3:atemp>
          </ns3:TrackPointExtension>
        </extensions>
      </trkpt>
      <trkpt lat="42.59960054419934749603271484375" lon="19.9836700223386287689208984375">
        <ele>1226.5999755859375</ele>
        <time>2026-06-15T15:06:11.000Z</time>
        <extensions>
          <ns3:TrackPointExtension>
            <ns3:atemp>21.0</ns3:atemp>
          </ns3:TrackPointExtension>
        </extensions>
      </trkpt>
      <trkpt lat="42.59959517978131771087646484375" lon="19.98367153108119964599609375">
        <ele>1226.5999755859375</ele>
        <time>2026-06-15T15:06:12.000Z</time>
        <extensions>
          <ns3:TrackPointExtension>
            <ns3:atemp>21.0</ns3:atemp>
          </ns3:TrackPointExtension>
        </extensions>
      </trkpt>
      <trkpt lat="42.5995977781713008880615234375" lon="19.98365384526550769805908203125">
        <ele>1226.800048828125</ele>
        <time>2026-06-15T15:06:13.000Z</time>
        <extensions>
          <ns3:TrackPointExtension>
            <ns3:atemp>21.0</ns3:atemp>
          </ns3:TrackPointExtension>
        </extensions>
      </trkpt>
      <trkpt lat="42.5995932519435882568359375" lon="19.98366842977702617645263671875">
        <ele>1226.5999755859375</ele>
        <time>2026-06-15T15:06:14.000Z</time>
        <extensions>
          <ns3:TrackPointExtension>
            <ns3:atemp>21.0</ns3:atemp>
          </ns3:TrackPointExtension>
        </extensions>
      </trkpt>
      <trkpt lat="42.59958042763173580169677734375" lon="19.98366708867251873016357421875">
        <ele>1226.5999755859375</ele>
        <time>2026-06-15T15:06:15.000Z</time>
        <extensions>
          <ns3:TrackPointExtension>
            <ns3:atemp>21.0</ns3:atemp>
          </ns3:TrackPointExtension>
        </extensions>
      </trkpt>
      <trkpt lat="42.59957573376595973968505859375" lon="19.98367823660373687744140625">
        <ele>1226.4000244140625</ele>
        <time>2026-06-15T15:06:16.000Z</time>
        <extensions>
          <ns3:TrackPointExtension>
            <ns3:atemp>21.0</ns3:atemp>
          </ns3:TrackPointExtension>
        </extensions>
      </trkpt>
      <trkpt lat="42.59956450201570987701416015625" lon="19.98368284665048122406005859375">
        <ele>1226.199951171875</ele>
        <time>2026-06-15T15:06:17.000Z</time>
        <extensions>
          <ns3:TrackPointExtension>
            <ns3:atemp>21.0</ns3:atemp>
          </ns3:TrackPointExtension>
        </extensions>
      </trkpt>
      <trkpt lat="42.59955360554158687591552734375" lon="19.98368720524013042449951171875">
        <ele>1226</ele>
        <time>2026-06-15T15:06:18.000Z</time>
        <extensions>
          <ns3:TrackPointExtension>
            <ns3:atemp>21.0</ns3:atemp>
          </ns3:TrackPointExtension>
        </extensions>
      </trkpt>
      <trkpt lat="42.599539272487163543701171875" lon="19.98369558714330196380615234375">
        <ele>1225.800048828125</ele>
        <time>2026-06-15T15:06:19.000Z</time>
        <extensions>
          <ns3:TrackPointExtension>
            <ns3:atemp>21.0</ns3:atemp>
          </ns3:TrackPointExtension>
        </extensions>
      </trkpt>
      <trkpt lat="42.59951756335794925689697265625" lon="19.983706735074520111083984375">
        <ele>1225.800048828125</ele>
        <time>2026-06-15T15:06:20.000Z</time>
        <extensions>
          <ns3:TrackPointExtension>
            <ns3:atemp>21.0</ns3:atemp>
          </ns3:TrackPointExtension>
        </extensions>
      </trkpt>
      <trkpt lat="42.59948822669684886932373046875" lon="19.98371721245348453521728515625">
        <ele>1225.5999755859375</ele>
        <time>2026-06-15T15:06:21.000Z</time>
        <extensions>
          <ns3:TrackPointExtension>
            <ns3:atemp>21.0</ns3:atemp>
          </ns3:TrackPointExtension>
        </extensions>
      </trkpt>
      <trkpt lat="42.59945436380803585052490234375" lon="19.98372877947986125946044921875">
        <ele>1225.5999755859375</ele>
        <time>2026-06-15T15:06:22.000Z</time>
        <extensions>
          <ns3:TrackPointExtension>
            <ns3:atemp>21.0</ns3:atemp>
          </ns3:TrackPointExtension>
        </extensions>
      </trkpt>
      <trkpt lat="42.59941555559635162353515625" lon="19.98374453745782375335693359375">
        <ele>1225.5999755859375</ele>
        <time>2026-06-15T15:06:23.000Z</time>
        <extensions>
          <ns3:TrackPointExtension>
            <ns3:atemp>21.0</ns3:atemp>
          </ns3:TrackPointExtension>
        </extensions>
      </trkpt>
      <trkpt lat="42.59938127361238002777099609375" lon="19.983767084777355194091796875">
        <ele>1225.4000244140625</ele>
        <time>2026-06-15T15:06:24.000Z</time>
        <extensions>
          <ns3:TrackPointExtension>
            <ns3:atemp>21.0</ns3:atemp>
          </ns3:TrackPointExtension>
        </extensions>
      </trkpt>
      <trkpt lat="42.59935596026480197906494140625" lon="19.98379197902977466583251953125">
        <ele>1225.199951171875</ele>
        <time>2026-06-15T15:06:25.000Z</time>
        <extensions>
          <ns3:TrackPointExtension>
            <ns3:atemp>21.0</ns3:atemp>
          </ns3:TrackPointExtension>
        </extensions>
      </trkpt>
      <trkpt lat="42.59933332912623882293701171875" lon="19.983817376196384429931640625">
        <ele>1225</ele>
        <time>2026-06-15T15:06:26.000Z</time>
        <extensions>
          <ns3:TrackPointExtension>
            <ns3:atemp>21.0</ns3:atemp>
          </ns3:TrackPointExtension>
        </extensions>
      </trkpt>
      <trkpt lat="42.59931891225278377532958984375" lon="19.9838343076407909393310546875">
        <ele>1224.800048828125</ele>
        <time>2026-06-15T15:06:27.000Z</time>
        <extensions>
          <ns3:TrackPointExtension>
            <ns3:atemp>21.0</ns3:atemp>
          </ns3:TrackPointExtension>
        </extensions>
      </trkpt>
      <trkpt lat="42.5993111170828342437744140625" lon="19.98384109698235988616943359375">
        <ele>1224.800048828125</ele>
        <time>2026-06-15T15:06:28.000Z</time>
        <extensions>
          <ns3:TrackPointExtension>
            <ns3:atemp>21.0</ns3:atemp>
          </ns3:TrackPointExtension>
        </extensions>
      </trkpt>
      <trkpt lat="42.5993000529706478118896484375" lon="19.98385467566549777984619140625">
        <ele>1225</ele>
        <time>2026-06-15T15:06:29.000Z</time>
        <extensions>
          <ns3:TrackPointExtension>
            <ns3:atemp>21.0</ns3:atemp>
          </ns3:TrackPointExtension>
        </extensions>
      </trkpt>
      <trkpt lat="42.59930131025612354278564453125" lon="19.98386758379638195037841796875">
        <ele>1225</ele>
        <time>2026-06-15T15:06:30.000Z</time>
        <extensions>
          <ns3:TrackPointExtension>
            <ns3:atemp>21.0</ns3:atemp>
          </ns3:TrackPointExtension>
        </extensions>
      </trkpt>
      <trkpt lat="42.59930348955094814300537109375" lon="19.9838765524327754974365234375">
        <ele>1225.199951171875</ele>
        <time>2026-06-15T15:06:31.000Z</time>
        <extensions>
          <ns3:TrackPointExtension>
            <ns3:atemp>21.0</ns3:atemp>
          </ns3:TrackPointExtension>
        </extensions>
      </trkpt>
      <trkpt lat="42.5993040762841701507568359375" lon="19.98387764208018779754638671875">
        <ele>1225.199951171875</ele>
        <time>2026-06-15T15:06:32.000Z</time>
        <extensions>
          <ns3:TrackPointExtension>
            <ns3:atemp>21.0</ns3:atemp>
          </ns3:TrackPointExtension>
        </extensions>
      </trkpt>
      <trkpt lat="42.5993040762841701507568359375" lon="19.983877725899219512939453125">
        <ele>1225.199951171875</ele>
        <time>2026-06-15T15:06:33.000Z</time>
        <extensions>
          <ns3:TrackPointExtension>
            <ns3:atemp>21.0</ns3:atemp>
          </ns3:TrackPointExtension>
        </extensions>
      </trkpt>
      <trkpt lat="42.5993040762841701507568359375" lon="19.983877725899219512939453125">
        <ele>1225.199951171875</ele>
        <time>2026-06-15T15:06:34.000Z</time>
        <extensions>
          <ns3:TrackPointExtension>
            <ns3:atemp>21.0</ns3:atemp>
          </ns3:TrackPointExtension>
        </extensions>
      </trkpt>
      <trkpt lat="42.5993040762841701507568359375" lon="19.983877725899219512939453125">
        <ele>1225.199951171875</ele>
        <time>2026-06-15T15:06:35.000Z</time>
        <extensions>
          <ns3:TrackPointExtension>
            <ns3:atemp>21.0</ns3:atemp>
          </ns3:TrackPointExtension>
        </extensions>
      </trkpt>
      <trkpt lat="42.5993040762841701507568359375" lon="19.983877725899219512939453125">
        <ele>1225.199951171875</ele>
        <time>2026-06-15T15:06:36.000Z</time>
        <extensions>
          <ns3:TrackPointExtension>
            <ns3:atemp>21.0</ns3:atemp>
          </ns3:TrackPointExtension>
        </extensions>
      </trkpt>
      <trkpt lat="42.5993040762841701507568359375" lon="19.983877725899219512939453125">
        <ele>1225</ele>
        <time>2026-06-15T15:06:37.000Z</time>
        <extensions>
          <ns3:TrackPointExtension>
            <ns3:atemp>21.0</ns3:atemp>
          </ns3:TrackPointExtension>
        </extensions>
      </trkpt>
      <trkpt lat="42.5993040762841701507568359375" lon="19.983877725899219512939453125">
        <ele>1224.800048828125</ele>
        <time>2026-06-15T15:06:38.000Z</time>
        <extensions>
          <ns3:TrackPointExtension>
            <ns3:atemp>21.0</ns3:atemp>
          </ns3:TrackPointExtension>
        </extensions>
      </trkpt>
      <trkpt lat="42.5993040762841701507568359375" lon="19.983877725899219512939453125">
        <ele>1224.800048828125</ele>
        <time>2026-06-15T15:06:39.000Z</time>
        <extensions>
          <ns3:TrackPointExtension>
            <ns3:atemp>22.0</ns3:atemp>
          </ns3:TrackPointExtension>
        </extensions>
      </trkpt>
      <trkpt lat="42.5993040762841701507568359375" lon="19.983877725899219512939453125">
        <ele>1224.800048828125</ele>
        <time>2026-06-15T15:06:40.000Z</time>
        <extensions>
          <ns3:TrackPointExtension>
            <ns3:atemp>21.0</ns3:atemp>
          </ns3:TrackPointExtension>
        </extensions>
      </trkpt>
      <trkpt lat="42.5993040762841701507568359375" lon="19.983877725899219512939453125">
        <ele>1224.800048828125</ele>
        <time>2026-06-15T15:06:41.000Z</time>
        <extensions>
          <ns3:TrackPointExtension>
            <ns3:atemp>21.0</ns3:atemp>
          </ns3:TrackPointExtension>
        </extensions>
      </trkpt>
      <trkpt lat="42.5993040762841701507568359375" lon="19.983877725899219512939453125">
        <ele>1224.800048828125</ele>
        <time>2026-06-15T15:06:42.000Z</time>
        <extensions>
          <ns3:TrackPointExtension>
            <ns3:atemp>21.0</ns3:atemp>
          </ns3:TrackPointExtension>
        </extensions>
      </trkpt>
      <trkpt lat="42.5993040762841701507568359375" lon="19.983877725899219512939453125">
        <ele>1224.800048828125</ele>
        <time>2026-06-15T15:06:43.000Z</time>
        <extensions>
          <ns3:TrackPointExtension>
            <ns3:atemp>21.0</ns3:atemp>
          </ns3:TrackPointExtension>
        </extensions>
      </trkpt>
      <trkpt lat="42.5993040762841701507568359375" lon="19.983877725899219512939453125">
        <ele>1224.5999755859375</ele>
        <time>2026-06-15T15:06:44.000Z</time>
        <extensions>
          <ns3:TrackPointExtension>
            <ns3:atemp>21.0</ns3:atemp>
          </ns3:TrackPointExtension>
        </extensions>
      </trkpt>
      <trkpt lat="42.5993040762841701507568359375" lon="19.983877725899219512939453125">
        <ele>1224.5999755859375</ele>
        <time>2026-06-15T15:06:45.000Z</time>
        <extensions>
          <ns3:TrackPointExtension>
            <ns3:atemp>21.0</ns3:atemp>
          </ns3:TrackPointExtension>
        </extensions>
      </trkpt>
      <trkpt lat="42.5993040762841701507568359375" lon="19.983877725899219512939453125">
        <ele>1224.5999755859375</ele>
        <time>2026-06-15T15:06:46.000Z</time>
        <extensions>
          <ns3:TrackPointExtension>
            <ns3:atemp>21.0</ns3:atemp>
          </ns3:TrackPointExtension>
        </extensions>
      </trkpt>
      <trkpt lat="42.5993040762841701507568359375" lon="19.983877725899219512939453125">
        <ele>1224.5999755859375</ele>
        <time>2026-06-15T15:06:47.000Z</time>
        <extensions>
          <ns3:TrackPointExtension>
            <ns3:atemp>21.0</ns3:atemp>
          </ns3:TrackPointExtension>
        </extensions>
      </trkpt>
      <trkpt lat="42.5993040762841701507568359375" lon="19.983877725899219512939453125">
        <ele>1224.5999755859375</ele>
        <time>2026-06-15T15:06:48.000Z</time>
        <extensions>
          <ns3:TrackPointExtension>
            <ns3:atemp>22.0</ns3:atemp>
          </ns3:TrackPointExtension>
        </extensions>
      </trkpt>
      <trkpt lat="42.5993040762841701507568359375" lon="19.983877725899219512939453125">
        <ele>1224.5999755859375</ele>
        <time>2026-06-15T15:06:49.000Z</time>
        <extensions>
          <ns3:TrackPointExtension>
            <ns3:atemp>22.0</ns3:atemp>
          </ns3:TrackPointExtension>
        </extensions>
      </trkpt>
      <trkpt lat="42.5993040762841701507568359375" lon="19.983877725899219512939453125">
        <ele>1224.5999755859375</ele>
        <time>2026-06-15T15:06:50.000Z</time>
        <extensions>
          <ns3:TrackPointExtension>
            <ns3:atemp>22.0</ns3:atemp>
          </ns3:TrackPointExtension>
        </extensions>
      </trkpt>
      <trkpt lat="42.5993040762841701507568359375" lon="19.983877725899219512939453125">
        <ele>1224.4000244140625</ele>
        <time>2026-06-15T15:06:51.000Z</time>
        <extensions>
          <ns3:TrackPointExtension>
            <ns3:atemp>22.0</ns3:atemp>
          </ns3:TrackPointExtension>
        </extensions>
      </trkpt>
      <trkpt lat="42.5993040762841701507568359375" lon="19.983877725899219512939453125">
        <ele>1224.4000244140625</ele>
        <time>2026-06-15T15:06:52.000Z</time>
        <extensions>
          <ns3:TrackPointExtension>
            <ns3:atemp>22.0</ns3:atemp>
          </ns3:TrackPointExtension>
        </extensions>
      </trkpt>
      <trkpt lat="42.5993040762841701507568359375" lon="19.983877725899219512939453125">
        <ele>1224.4000244140625</ele>
        <time>2026-06-15T15:06:53.000Z</time>
        <extensions>
          <ns3:TrackPointExtension>
            <ns3:atemp>22.0</ns3:atemp>
          </ns3:TrackPointExtension>
        </extensions>
      </trkpt>
      <trkpt lat="42.5993040762841701507568359375" lon="19.983877725899219512939453125">
        <ele>1224.4000244140625</ele>
        <time>2026-06-15T15:06:54.000Z</time>
        <extensions>
          <ns3:TrackPointExtension>
            <ns3:atemp>22.0</ns3:atemp>
          </ns3:TrackPointExtension>
        </extensions>
      </trkpt>
      <trkpt lat="42.5993040762841701507568359375" lon="19.983877725899219512939453125">
        <ele>1224.199951171875</ele>
        <time>2026-06-15T15:06:55.000Z</time>
        <extensions>
          <ns3:TrackPointExtension>
            <ns3:atemp>22.0</ns3:atemp>
          </ns3:TrackPointExtension>
        </extensions>
      </trkpt>
      <trkpt lat="42.5993040762841701507568359375" lon="19.983877725899219512939453125">
        <ele>1224.199951171875</ele>
        <time>2026-06-15T15:06:56.000Z</time>
        <extensions>
          <ns3:TrackPointExtension>
            <ns3:atemp>22.0</ns3:atemp>
          </ns3:TrackPointExtension>
        </extensions>
      </trkpt>
      <trkpt lat="42.5993040762841701507568359375" lon="19.983877725899219512939453125">
        <ele>1224.199951171875</ele>
        <time>2026-06-15T15:06:57.000Z</time>
        <extensions>
          <ns3:TrackPointExtension>
            <ns3:atemp>22.0</ns3:atemp>
          </ns3:TrackPointExtension>
        </extensions>
      </trkpt>
      <trkpt lat="42.5993040762841701507568359375" lon="19.983877725899219512939453125">
        <ele>1224.199951171875</ele>
        <time>2026-06-15T15:06:58.000Z</time>
        <extensions>
          <ns3:TrackPointExtension>
            <ns3:atemp>22.0</ns3:atemp>
          </ns3:TrackPointExtension>
        </extensions>
      </trkpt>
      <trkpt lat="42.5993040762841701507568359375" lon="19.983877725899219512939453125">
        <ele>1224</ele>
        <time>2026-06-15T15:06:59.000Z</time>
        <extensions>
          <ns3:TrackPointExtension>
            <ns3:atemp>22.0</ns3:atemp>
          </ns3:TrackPointExtension>
        </extensions>
      </trkpt>
      <trkpt lat="42.5993040762841701507568359375" lon="19.983877725899219512939453125">
        <ele>1224</ele>
        <time>2026-06-15T15:07:00.000Z</time>
        <extensions>
          <ns3:TrackPointExtension>
            <ns3:atemp>22.0</ns3:atemp>
          </ns3:TrackPointExtension>
        </extensions>
      </trkpt>
      <trkpt lat="42.5993040762841701507568359375" lon="19.983877725899219512939453125">
        <ele>1224</ele>
        <time>2026-06-15T15:07:01.000Z</time>
        <extensions>
          <ns3:TrackPointExtension>
            <ns3:atemp>22.0</ns3:atemp>
          </ns3:TrackPointExtension>
        </extensions>
      </trkpt>
      <trkpt lat="42.5993040762841701507568359375" lon="19.983877725899219512939453125">
        <ele>1224</ele>
        <time>2026-06-15T15:07:02.000Z</time>
        <extensions>
          <ns3:TrackPointExtension>
            <ns3:atemp>22.0</ns3:atemp>
          </ns3:TrackPointExtension>
        </extensions>
      </trkpt>
      <trkpt lat="42.5993040762841701507568359375" lon="19.983877725899219512939453125">
        <ele>1224</ele>
        <time>2026-06-15T15:07:03.000Z</time>
        <extensions>
          <ns3:TrackPointExtension>
            <ns3:atemp>22.0</ns3:atemp>
          </ns3:TrackPointExtension>
        </extensions>
      </trkpt>
      <trkpt lat="42.5993040762841701507568359375" lon="19.983877725899219512939453125">
        <ele>1223.800048828125</ele>
        <time>2026-06-15T15:07:04.000Z</time>
        <extensions>
          <ns3:TrackPointExtension>
            <ns3:atemp>22.0</ns3:atemp>
          </ns3:TrackPointExtension>
        </extensions>
      </trkpt>
      <trkpt lat="42.5993040762841701507568359375" lon="19.983877725899219512939453125">
        <ele>1223.800048828125</ele>
        <time>2026-06-15T15:07:05.000Z</time>
        <extensions>
          <ns3:TrackPointExtension>
            <ns3:atemp>22.0</ns3:atemp>
          </ns3:TrackPointExtension>
        </extensions>
      </trkpt>
      <trkpt lat="42.5993040762841701507568359375" lon="19.983877725899219512939453125">
        <ele>1223.800048828125</ele>
        <time>2026-06-15T15:07:06.000Z</time>
        <extensions>
          <ns3:TrackPointExtension>
            <ns3:atemp>22.0</ns3:atemp>
          </ns3:TrackPointExtension>
        </extensions>
      </trkpt>
      <trkpt lat="42.5993040762841701507568359375" lon="19.983877725899219512939453125">
        <ele>1224</ele>
        <time>2026-06-15T15:07:07.000Z</time>
        <extensions>
          <ns3:TrackPointExtension>
            <ns3:atemp>22.0</ns3:atemp>
          </ns3:TrackPointExtension>
        </extensions>
      </trkpt>
      <trkpt lat="42.5993040762841701507568359375" lon="19.983877725899219512939453125">
        <ele>1224</ele>
        <time>2026-06-15T15:07:08.000Z</time>
        <extensions>
          <ns3:TrackPointExtension>
            <ns3:atemp>22.0</ns3:atemp>
          </ns3:TrackPointExtension>
        </extensions>
      </trkpt>
      <trkpt lat="42.5993040762841701507568359375" lon="19.983877725899219512939453125">
        <ele>1224</ele>
        <time>2026-06-15T15:07:09.000Z</time>
        <extensions>
          <ns3:TrackPointExtension>
            <ns3:atemp>22.0</ns3:atemp>
          </ns3:TrackPointExtension>
        </extensions>
      </trkpt>
      <trkpt lat="42.5993040762841701507568359375" lon="19.983877725899219512939453125">
        <ele>1224</ele>
        <time>2026-06-15T15:07:10.000Z</time>
        <extensions>
          <ns3:TrackPointExtension>
            <ns3:atemp>22.0</ns3:atemp>
          </ns3:TrackPointExtension>
        </extensions>
      </trkpt>
      <trkpt lat="42.5993040762841701507568359375" lon="19.983877725899219512939453125">
        <ele>1224</ele>
        <time>2026-06-15T15:07:11.000Z</time>
        <extensions>
          <ns3:TrackPointExtension>
            <ns3:atemp>22.0</ns3:atemp>
          </ns3:TrackPointExtension>
        </extensions>
      </trkpt>
      <trkpt lat="42.5993040762841701507568359375" lon="19.983877725899219512939453125">
        <ele>1224</ele>
        <time>2026-06-15T15:07:12.000Z</time>
        <extensions>
          <ns3:TrackPointExtension>
            <ns3:atemp>22.0</ns3:atemp>
          </ns3:TrackPointExtension>
        </extensions>
      </trkpt>
      <trkpt lat="42.5993040762841701507568359375" lon="19.983877725899219512939453125">
        <ele>1223.800048828125</ele>
        <time>2026-06-15T15:07:13.000Z</time>
        <extensions>
          <ns3:TrackPointExtension>
            <ns3:atemp>22.0</ns3:atemp>
          </ns3:TrackPointExtension>
        </extensions>
      </trkpt>
      <trkpt lat="42.5993040762841701507568359375" lon="19.983877725899219512939453125">
        <ele>1223.800048828125</ele>
        <time>2026-06-15T15:07:14.000Z</time>
        <extensions>
          <ns3:TrackPointExtension>
            <ns3:atemp>22.0</ns3:atemp>
          </ns3:TrackPointExtension>
        </extensions>
      </trkpt>
      <trkpt lat="42.5993040762841701507568359375" lon="19.983877725899219512939453125">
        <ele>1223.800048828125</ele>
        <time>2026-06-15T15:07:15.000Z</time>
        <extensions>
          <ns3:TrackPointExtension>
            <ns3:atemp>22.0</ns3:atemp>
          </ns3:TrackPointExtension>
        </extensions>
      </trkpt>
      <trkpt lat="42.5993040762841701507568359375" lon="19.983877725899219512939453125">
        <ele>1223.800048828125</ele>
        <time>2026-06-15T15:07:16.000Z</time>
        <extensions>
          <ns3:TrackPointExtension>
            <ns3:atemp>22.0</ns3:atemp>
          </ns3:TrackPointExtension>
        </extensions>
      </trkpt>
      <trkpt lat="42.5993040762841701507568359375" lon="19.983877725899219512939453125">
        <ele>1223.800048828125</ele>
        <time>2026-06-15T15:07:17.000Z</time>
        <extensions>
          <ns3:TrackPointExtension>
            <ns3:atemp>22.0</ns3:atemp>
          </ns3:TrackPointExtension>
        </extensions>
      </trkpt>
      <trkpt lat="42.5993040762841701507568359375" lon="19.983877725899219512939453125">
        <ele>1223.800048828125</ele>
        <time>2026-06-15T15:07:18.000Z</time>
        <extensions>
          <ns3:TrackPointExtension>
            <ns3:atemp>22.0</ns3:atemp>
          </ns3:TrackPointExtension>
        </extensions>
      </trkpt>
      <trkpt lat="42.5993040762841701507568359375" lon="19.983877725899219512939453125">
        <ele>1223.800048828125</ele>
        <time>2026-06-15T15:07:19.000Z</time>
        <extensions>
          <ns3:TrackPointExtension>
            <ns3:atemp>22.0</ns3:atemp>
          </ns3:TrackPointExtension>
        </extensions>
      </trkpt>
      <trkpt lat="42.5993040762841701507568359375" lon="19.983877725899219512939453125">
        <ele>1223.800048828125</ele>
        <time>2026-06-15T15:07:20.000Z</time>
        <extensions>
          <ns3:TrackPointExtension>
            <ns3:atemp>22.0</ns3:atemp>
          </ns3:TrackPointExtension>
        </extensions>
      </trkpt>
      <trkpt lat="42.5993040762841701507568359375" lon="19.983877725899219512939453125">
        <ele>1223.800048828125</ele>
        <time>2026-06-15T15:07:21.000Z</time>
        <extensions>
          <ns3:TrackPointExtension>
            <ns3:atemp>22.0</ns3:atemp>
          </ns3:TrackPointExtension>
        </extensions>
      </trkpt>
      <trkpt lat="42.5993040762841701507568359375" lon="19.983877725899219512939453125">
        <ele>1223.800048828125</ele>
        <time>2026-06-15T15:07:22.000Z</time>
        <extensions>
          <ns3:TrackPointExtension>
            <ns3:atemp>22.0</ns3:atemp>
          </ns3:TrackPointExtension>
        </extensions>
      </trkpt>
      <trkpt lat="42.5993040762841701507568359375" lon="19.983877725899219512939453125">
        <ele>1223.800048828125</ele>
        <time>2026-06-15T15:07:23.000Z</time>
        <extensions>
          <ns3:TrackPointExtension>
            <ns3:atemp>22.0</ns3:atemp>
          </ns3:TrackPointExtension>
        </extensions>
      </trkpt>
      <trkpt lat="42.5993040762841701507568359375" lon="19.983877725899219512939453125">
        <ele>1223.800048828125</ele>
        <time>2026-06-15T15:07:24.000Z</time>
        <extensions>
          <ns3:TrackPointExtension>
            <ns3:atemp>22.0</ns3:atemp>
          </ns3:TrackPointExtension>
        </extensions>
      </trkpt>
      <trkpt lat="42.5993040762841701507568359375" lon="19.983877725899219512939453125">
        <ele>1223.800048828125</ele>
        <time>2026-06-15T15:07:25.000Z</time>
        <extensions>
          <ns3:TrackPointExtension>
            <ns3:atemp>22.0</ns3:atemp>
          </ns3:TrackPointExtension>
        </extensions>
      </trkpt>
      <trkpt lat="42.5993040762841701507568359375" lon="19.983877725899219512939453125">
        <ele>1223.800048828125</ele>
        <time>2026-06-15T15:07:26.000Z</time>
        <extensions>
          <ns3:TrackPointExtension>
            <ns3:atemp>22.0</ns3:atemp>
          </ns3:TrackPointExtension>
        </extensions>
      </trkpt>
      <trkpt lat="42.5993040762841701507568359375" lon="19.983877725899219512939453125">
        <ele>1223.800048828125</ele>
        <time>2026-06-15T15:07:27.000Z</time>
        <extensions>
          <ns3:TrackPointExtension>
            <ns3:atemp>22.0</ns3:atemp>
          </ns3:TrackPointExtension>
        </extensions>
      </trkpt>
      <trkpt lat="42.5993040762841701507568359375" lon="19.983877725899219512939453125">
        <ele>1223.800048828125</ele>
        <time>2026-06-15T15:07:28.000Z</time>
        <extensions>
          <ns3:TrackPointExtension>
            <ns3:atemp>22.0</ns3:atemp>
          </ns3:TrackPointExtension>
        </extensions>
      </trkpt>
      <trkpt lat="42.5993040762841701507568359375" lon="19.983877725899219512939453125">
        <ele>1224</ele>
        <time>2026-06-15T15:07:29.000Z</time>
        <extensions>
          <ns3:TrackPointExtension>
            <ns3:atemp>22.0</ns3:atemp>
          </ns3:TrackPointExtension>
        </extensions>
      </trkpt>
      <trkpt lat="42.5993040762841701507568359375" lon="19.983877725899219512939453125">
        <ele>1224</ele>
        <time>2026-06-15T15:07:30.000Z</time>
        <extensions>
          <ns3:TrackPointExtension>
            <ns3:atemp>22.0</ns3:atemp>
          </ns3:TrackPointExtension>
        </extensions>
      </trkpt>
      <trkpt lat="42.5993040762841701507568359375" lon="19.983877725899219512939453125">
        <ele>1224</ele>
        <time>2026-06-15T15:07:31.000Z</time>
        <extensions>
          <ns3:TrackPointExtension>
            <ns3:atemp>22.0</ns3:atemp>
          </ns3:TrackPointExtension>
        </extensions>
      </trkpt>
      <trkpt lat="42.5993040762841701507568359375" lon="19.983877725899219512939453125">
        <ele>1224</ele>
        <time>2026-06-15T15:07:32.000Z</time>
        <extensions>
          <ns3:TrackPointExtension>
            <ns3:atemp>22.0</ns3:atemp>
          </ns3:TrackPointExtension>
        </extensions>
      </trkpt>
      <trkpt lat="42.5993040762841701507568359375" lon="19.983877725899219512939453125">
        <ele>1224.199951171875</ele>
        <time>2026-06-15T15:07:33.000Z</time>
        <extensions>
          <ns3:TrackPointExtension>
            <ns3:atemp>22.0</ns3:atemp>
          </ns3:TrackPointExtension>
        </extensions>
      </trkpt>
      <trkpt lat="42.5993040762841701507568359375" lon="19.983877725899219512939453125">
        <ele>1224.199951171875</ele>
        <time>2026-06-15T15:07:34.000Z</time>
        <extensions>
          <ns3:TrackPointExtension>
            <ns3:atemp>22.0</ns3:atemp>
          </ns3:TrackPointExtension>
        </extensions>
      </trkpt>
      <trkpt lat="42.5993040762841701507568359375" lon="19.983877725899219512939453125">
        <ele>1224.4000244140625</ele>
        <time>2026-06-15T15:07:35.000Z</time>
        <extensions>
          <ns3:TrackPointExtension>
            <ns3:atemp>22.0</ns3:atemp>
          </ns3:TrackPointExtension>
        </extensions>
      </trkpt>
      <trkpt lat="42.5993040762841701507568359375" lon="19.983877725899219512939453125">
        <ele>1224.4000244140625</ele>
        <time>2026-06-15T15:07:36.000Z</time>
        <extensions>
          <ns3:TrackPointExtension>
            <ns3:atemp>22.0</ns3:atemp>
          </ns3:TrackPointExtension>
        </extensions>
      </trkpt>
      <trkpt lat="42.5993040762841701507568359375" lon="19.983877725899219512939453125">
        <ele>1224.4000244140625</ele>
        <time>2026-06-15T15:07:37.000Z</time>
        <extensions>
          <ns3:TrackPointExtension>
            <ns3:atemp>22.0</ns3:atemp>
          </ns3:TrackPointExtension>
        </extensions>
      </trkpt>
      <trkpt lat="42.5993040762841701507568359375" lon="19.983877725899219512939453125">
        <ele>1224.5999755859375</ele>
        <time>2026-06-15T15:07:38.000Z</time>
        <extensions>
          <ns3:TrackPointExtension>
            <ns3:atemp>22.0</ns3:atemp>
          </ns3:TrackPointExtension>
        </extensions>
      </trkpt>
      <trkpt lat="42.5993040762841701507568359375" lon="19.983877725899219512939453125">
        <ele>1224.5999755859375</ele>
        <time>2026-06-15T15:07:39.000Z</time>
        <extensions>
          <ns3:TrackPointExtension>
            <ns3:atemp>22.0</ns3:atemp>
          </ns3:TrackPointExtension>
        </extensions>
      </trkpt>
      <trkpt lat="42.5993040762841701507568359375" lon="19.983877725899219512939453125">
        <ele>1224.5999755859375</ele>
        <time>2026-06-15T15:07:40.000Z</time>
        <extensions>
          <ns3:TrackPointExtension>
            <ns3:atemp>22.0</ns3:atemp>
          </ns3:TrackPointExtension>
        </extensions>
      </trkpt>
      <trkpt lat="42.5993040762841701507568359375" lon="19.983877725899219512939453125">
        <ele>1224.5999755859375</ele>
        <time>2026-06-15T15:07:41.000Z</time>
        <extensions>
          <ns3:TrackPointExtension>
            <ns3:atemp>22.0</ns3:atemp>
          </ns3:TrackPointExtension>
        </extensions>
      </trkpt>
      <trkpt lat="42.5993040762841701507568359375" lon="19.983877725899219512939453125">
        <ele>1224.5999755859375</ele>
        <time>2026-06-15T15:07:42.000Z</time>
        <extensions>
          <ns3:TrackPointExtension>
            <ns3:atemp>22.0</ns3:atemp>
          </ns3:TrackPointExtension>
        </extensions>
      </trkpt>
      <trkpt lat="42.5993040762841701507568359375" lon="19.983877725899219512939453125">
        <ele>1224.4000244140625</ele>
        <time>2026-06-15T15:07:43.000Z</time>
        <extensions>
          <ns3:TrackPointExtension>
            <ns3:atemp>22.0</ns3:atemp>
          </ns3:TrackPointExtension>
        </extensions>
      </trkpt>
      <trkpt lat="42.5993040762841701507568359375" lon="19.983877725899219512939453125">
        <ele>1224.4000244140625</ele>
        <time>2026-06-15T15:07:44.000Z</time>
        <extensions>
          <ns3:TrackPointExtension>
            <ns3:atemp>22.0</ns3:atemp>
          </ns3:TrackPointExtension>
        </extensions>
      </trkpt>
      <trkpt lat="42.5993040762841701507568359375" lon="19.983877725899219512939453125">
        <ele>1224.4000244140625</ele>
        <time>2026-06-15T15:07:45.000Z</time>
        <extensions>
          <ns3:TrackPointExtension>
            <ns3:atemp>22.0</ns3:atemp>
          </ns3:TrackPointExtension>
        </extensions>
      </trkpt>
      <trkpt lat="42.5993040762841701507568359375" lon="19.983877725899219512939453125">
        <ele>1224.4000244140625</ele>
        <time>2026-06-15T15:07:46.000Z</time>
        <extensions>
          <ns3:TrackPointExtension>
            <ns3:atemp>22.0</ns3:atemp>
          </ns3:TrackPointExtension>
        </extensions>
      </trkpt>
      <trkpt lat="42.5993040762841701507568359375" lon="19.983877725899219512939453125">
        <ele>1224.4000244140625</ele>
        <time>2026-06-15T15:07:47.000Z</time>
        <extensions>
          <ns3:TrackPointExtension>
            <ns3:atemp>22.0</ns3:atemp>
          </ns3:TrackPointExtension>
        </extensions>
      </trkpt>
      <trkpt lat="42.5993040762841701507568359375" lon="19.983877725899219512939453125">
        <ele>1224.199951171875</ele>
        <time>2026-06-15T15:07:48.000Z</time>
        <extensions>
          <ns3:TrackPointExtension>
            <ns3:atemp>22.0</ns3:atemp>
          </ns3:TrackPointExtension>
        </extensions>
      </trkpt>
      <trkpt lat="42.5993040762841701507568359375" lon="19.983877725899219512939453125">
        <ele>1224.199951171875</ele>
        <time>2026-06-15T15:07:49.000Z</time>
        <extensions>
          <ns3:TrackPointExtension>
            <ns3:atemp>22.0</ns3:atemp>
          </ns3:TrackPointExtension>
        </extensions>
      </trkpt>
      <trkpt lat="42.5993040762841701507568359375" lon="19.983877725899219512939453125">
        <ele>1224.199951171875</ele>
        <time>2026-06-15T15:07:50.000Z</time>
        <extensions>
          <ns3:TrackPointExtension>
            <ns3:atemp>22.0</ns3:atemp>
          </ns3:TrackPointExtension>
        </extensions>
      </trkpt>
      <trkpt lat="42.5993040762841701507568359375" lon="19.983877725899219512939453125">
        <ele>1224.199951171875</ele>
        <time>2026-06-15T15:07:51.000Z</time>
        <extensions>
          <ns3:TrackPointExtension>
            <ns3:atemp>22.0</ns3:atemp>
          </ns3:TrackPointExtension>
        </extensions>
      </trkpt>
      <trkpt lat="42.5993040762841701507568359375" lon="19.983877725899219512939453125">
        <ele>1224.4000244140625</ele>
        <time>2026-06-15T15:07:52.000Z</time>
        <extensions>
          <ns3:TrackPointExtension>
            <ns3:atemp>22.0</ns3:atemp>
          </ns3:TrackPointExtension>
        </extensions>
      </trkpt>
      <trkpt lat="42.5993040762841701507568359375" lon="19.983877725899219512939453125">
        <ele>1224.4000244140625</ele>
        <time>2026-06-15T15:07:53.000Z</time>
        <extensions>
          <ns3:TrackPointExtension>
            <ns3:atemp>22.0</ns3:atemp>
          </ns3:TrackPointExtension>
        </extensions>
      </trkpt>
      <trkpt lat="42.5993040762841701507568359375" lon="19.983877725899219512939453125">
        <ele>1224.4000244140625</ele>
        <time>2026-06-15T15:07:54.000Z</time>
        <extensions>
          <ns3:TrackPointExtension>
            <ns3:atemp>22.0</ns3:atemp>
          </ns3:TrackPointExtension>
        </extensions>
      </trkpt>
      <trkpt lat="42.5993040762841701507568359375" lon="19.983877725899219512939453125">
        <ele>1224.4000244140625</ele>
        <time>2026-06-15T15:07:55.000Z</time>
        <extensions>
          <ns3:TrackPointExtension>
            <ns3:atemp>22.0</ns3:atemp>
          </ns3:TrackPointExtension>
        </extensions>
      </trkpt>
      <trkpt lat="42.5993040762841701507568359375" lon="19.983877725899219512939453125">
        <ele>1224.4000244140625</ele>
        <time>2026-06-15T15:07:56.000Z</time>
        <extensions>
          <ns3:TrackPointExtension>
            <ns3:atemp>22.0</ns3:atemp>
          </ns3:TrackPointExtension>
        </extensions>
      </trkpt>
      <trkpt lat="42.5993040762841701507568359375" lon="19.983877725899219512939453125">
        <ele>1224.5999755859375</ele>
        <time>2026-06-15T15:07:57.000Z</time>
        <extensions>
          <ns3:TrackPointExtension>
            <ns3:atemp>22.0</ns3:atemp>
          </ns3:TrackPointExtension>
        </extensions>
      </trkpt>
      <trkpt lat="42.5993040762841701507568359375" lon="19.983877725899219512939453125">
        <ele>1224.5999755859375</ele>
        <time>2026-06-15T15:07:58.000Z</time>
        <extensions>
          <ns3:TrackPointExtension>
            <ns3:atemp>22.0</ns3:atemp>
          </ns3:TrackPointExtension>
        </extensions>
      </trkpt>
      <trkpt lat="42.5993040762841701507568359375" lon="19.983877725899219512939453125">
        <ele>1224.5999755859375</ele>
        <time>2026-06-15T15:07:59.000Z</time>
        <extensions>
          <ns3:TrackPointExtension>
            <ns3:atemp>22.0</ns3:atemp>
          </ns3:TrackPointExtension>
        </extensions>
      </trkpt>
      <trkpt lat="42.5993040762841701507568359375" lon="19.983877725899219512939453125">
        <ele>1224.5999755859375</ele>
        <time>2026-06-15T15:08:00.000Z</time>
        <extensions>
          <ns3:TrackPointExtension>
            <ns3:atemp>22.0</ns3:atemp>
          </ns3:TrackPointExtension>
        </extensions>
      </trkpt>
      <trkpt lat="42.5993040762841701507568359375" lon="19.983877725899219512939453125">
        <ele>1224.4000244140625</ele>
        <time>2026-06-15T15:08:01.000Z</time>
        <extensions>
          <ns3:TrackPointExtension>
            <ns3:atemp>22.0</ns3:atemp>
          </ns3:TrackPointExtension>
        </extensions>
      </trkpt>
      <trkpt lat="42.5993040762841701507568359375" lon="19.983877725899219512939453125">
        <ele>1224.4000244140625</ele>
        <time>2026-06-15T15:08:02.000Z</time>
        <extensions>
          <ns3:TrackPointExtension>
            <ns3:atemp>22.0</ns3:atemp>
          </ns3:TrackPointExtension>
        </extensions>
      </trkpt>
      <trkpt lat="42.5993040762841701507568359375" lon="19.983877725899219512939453125">
        <ele>1224.4000244140625</ele>
        <time>2026-06-15T15:08:03.000Z</time>
        <extensions>
          <ns3:TrackPointExtension>
            <ns3:atemp>22.0</ns3:atemp>
          </ns3:TrackPointExtension>
        </extensions>
      </trkpt>
      <trkpt lat="42.5993040762841701507568359375" lon="19.983877725899219512939453125">
        <ele>1224.199951171875</ele>
        <time>2026-06-15T15:08:04.000Z</time>
        <extensions>
          <ns3:TrackPointExtension>
            <ns3:atemp>22.0</ns3:atemp>
          </ns3:TrackPointExtension>
        </extensions>
      </trkpt>
      <trkpt lat="42.5993040762841701507568359375" lon="19.983877725899219512939453125">
        <ele>1224.199951171875</ele>
        <time>2026-06-15T15:08:05.000Z</time>
        <extensions>
          <ns3:TrackPointExtension>
            <ns3:atemp>22.0</ns3:atemp>
          </ns3:TrackPointExtension>
        </extensions>
      </trkpt>
      <trkpt lat="42.5993040762841701507568359375" lon="19.983877725899219512939453125">
        <ele>1224.199951171875</ele>
        <time>2026-06-15T15:08:06.000Z</time>
        <extensions>
          <ns3:TrackPointExtension>
            <ns3:atemp>22.0</ns3:atemp>
          </ns3:TrackPointExtension>
        </extensions>
      </trkpt>
      <trkpt lat="42.5993040762841701507568359375" lon="19.983877725899219512939453125">
        <ele>1224</ele>
        <time>2026-06-15T15:08:07.000Z</time>
        <extensions>
          <ns3:TrackPointExtension>
            <ns3:atemp>22.0</ns3:atemp>
          </ns3:TrackPointExtension>
        </extensions>
      </trkpt>
      <trkpt lat="42.5993040762841701507568359375" lon="19.983877725899219512939453125">
        <ele>1224</ele>
        <time>2026-06-15T15:08:08.000Z</time>
        <extensions>
          <ns3:TrackPointExtension>
            <ns3:atemp>22.0</ns3:atemp>
          </ns3:TrackPointExtension>
        </extensions>
      </trkpt>
      <trkpt lat="42.5993040762841701507568359375" lon="19.983877725899219512939453125">
        <ele>1224</ele>
        <time>2026-06-15T15:08:09.000Z</time>
        <extensions>
          <ns3:TrackPointExtension>
            <ns3:atemp>22.0</ns3:atemp>
          </ns3:TrackPointExtension>
        </extensions>
      </trkpt>
      <trkpt lat="42.5993040762841701507568359375" lon="19.983877725899219512939453125">
        <ele>1224</ele>
        <time>2026-06-15T15:08:10.000Z</time>
        <extensions>
          <ns3:TrackPointExtension>
            <ns3:atemp>22.0</ns3:atemp>
          </ns3:TrackPointExtension>
        </extensions>
      </trkpt>
      <trkpt lat="42.5993040762841701507568359375" lon="19.983877725899219512939453125">
        <ele>1224</ele>
        <time>2026-06-15T15:08:11.000Z</time>
        <extensions>
          <ns3:TrackPointExtension>
            <ns3:atemp>22.0</ns3:atemp>
          </ns3:TrackPointExtension>
        </extensions>
      </trkpt>
      <trkpt lat="42.5993040762841701507568359375" lon="19.983877725899219512939453125">
        <ele>1224</ele>
        <time>2026-06-15T15:08:12.000Z</time>
        <extensions>
          <ns3:TrackPointExtension>
            <ns3:atemp>22.0</ns3:atemp>
          </ns3:TrackPointExtension>
        </extensions>
      </trkpt>
      <trkpt lat="42.5993040762841701507568359375" lon="19.983877725899219512939453125">
        <ele>1224</ele>
        <time>2026-06-15T15:08:13.000Z</time>
        <extensions>
          <ns3:TrackPointExtension>
            <ns3:atemp>22.0</ns3:atemp>
          </ns3:TrackPointExtension>
        </extensions>
      </trkpt>
      <trkpt lat="42.5993040762841701507568359375" lon="19.983877725899219512939453125">
        <ele>1224</ele>
        <time>2026-06-15T15:08:14.000Z</time>
        <extensions>
          <ns3:TrackPointExtension>
            <ns3:atemp>22.0</ns3:atemp>
          </ns3:TrackPointExtension>
        </extensions>
      </trkpt>
      <trkpt lat="42.5993040762841701507568359375" lon="19.983877725899219512939453125">
        <ele>1224</ele>
        <time>2026-06-15T15:08:15.000Z</time>
        <extensions>
          <ns3:TrackPointExtension>
            <ns3:atemp>22.0</ns3:atemp>
          </ns3:TrackPointExtension>
        </extensions>
      </trkpt>
      <trkpt lat="42.5993040762841701507568359375" lon="19.983877725899219512939453125">
        <ele>1224</ele>
        <time>2026-06-15T15:08:16.000Z</time>
        <extensions>
          <ns3:TrackPointExtension>
            <ns3:atemp>22.0</ns3:atemp>
          </ns3:TrackPointExtension>
        </extensions>
      </trkpt>
      <trkpt lat="42.5993040762841701507568359375" lon="19.983877725899219512939453125">
        <ele>1224</ele>
        <time>2026-06-15T15:08:17.000Z</time>
        <extensions>
          <ns3:TrackPointExtension>
            <ns3:atemp>22.0</ns3:atemp>
          </ns3:TrackPointExtension>
        </extensions>
      </trkpt>
      <trkpt lat="42.5993040762841701507568359375" lon="19.983877725899219512939453125">
        <ele>1224</ele>
        <time>2026-06-15T15:08:18.000Z</time>
        <extensions>
          <ns3:TrackPointExtension>
            <ns3:atemp>22.0</ns3:atemp>
          </ns3:TrackPointExtension>
        </extensions>
      </trkpt>
      <trkpt lat="42.5993040762841701507568359375" lon="19.983877725899219512939453125">
        <ele>1224</ele>
        <time>2026-06-15T15:08:19.000Z</time>
        <extensions>
          <ns3:TrackPointExtension>
            <ns3:atemp>22.0</ns3:atemp>
          </ns3:TrackPointExtension>
        </extensions>
      </trkpt>
      <trkpt lat="42.5993040762841701507568359375" lon="19.983877725899219512939453125">
        <ele>1223.800048828125</ele>
        <time>2026-06-15T15:08:20.000Z</time>
        <extensions>
          <ns3:TrackPointExtension>
            <ns3:atemp>22.0</ns3:atemp>
          </ns3:TrackPointExtension>
        </extensions>
      </trkpt>
      <trkpt lat="42.5993040762841701507568359375" lon="19.983877725899219512939453125">
        <ele>1223.800048828125</ele>
        <time>2026-06-15T15:08:21.000Z</time>
        <extensions>
          <ns3:TrackPointExtension>
            <ns3:atemp>22.0</ns3:atemp>
          </ns3:TrackPointExtension>
        </extensions>
      </trkpt>
      <trkpt lat="42.5993040762841701507568359375" lon="19.983877725899219512939453125">
        <ele>1223.800048828125</ele>
        <time>2026-06-15T15:08:22.000Z</time>
        <extensions>
          <ns3:TrackPointExtension>
            <ns3:atemp>22.0</ns3:atemp>
          </ns3:TrackPointExtension>
        </extensions>
      </trkpt>
      <trkpt lat="42.5993040762841701507568359375" lon="19.983877725899219512939453125">
        <ele>1223.800048828125</ele>
        <time>2026-06-15T15:08:23.000Z</time>
        <extensions>
          <ns3:TrackPointExtension>
            <ns3:atemp>22.0</ns3:atemp>
          </ns3:TrackPointExtension>
        </extensions>
      </trkpt>
      <trkpt lat="42.5993040762841701507568359375" lon="19.983877725899219512939453125">
        <ele>1223.800048828125</ele>
        <time>2026-06-15T15:08:24.000Z</time>
        <extensions>
          <ns3:TrackPointExtension>
            <ns3:atemp>22.0</ns3:atemp>
          </ns3:TrackPointExtension>
        </extensions>
      </trkpt>
      <trkpt lat="42.5993040762841701507568359375" lon="19.983877725899219512939453125">
        <ele>1223.800048828125</ele>
        <time>2026-06-15T15:08:25.000Z</time>
        <extensions>
          <ns3:TrackPointExtension>
            <ns3:atemp>22.0</ns3:atemp>
          </ns3:TrackPointExtension>
        </extensions>
      </trkpt>
      <trkpt lat="42.5993040762841701507568359375" lon="19.983877725899219512939453125">
        <ele>1223.800048828125</ele>
        <time>2026-06-15T15:08:26.000Z</time>
        <extensions>
          <ns3:TrackPointExtension>
            <ns3:atemp>22.0</ns3:atemp>
          </ns3:TrackPointExtension>
        </extensions>
      </trkpt>
      <trkpt lat="42.5993040762841701507568359375" lon="19.983877725899219512939453125">
        <ele>1223.5999755859375</ele>
        <time>2026-06-15T15:08:27.000Z</time>
        <extensions>
          <ns3:TrackPointExtension>
            <ns3:atemp>22.0</ns3:atemp>
          </ns3:TrackPointExtension>
        </extensions>
      </trkpt>
      <trkpt lat="42.5993040762841701507568359375" lon="19.983877725899219512939453125">
        <ele>1223.5999755859375</ele>
        <time>2026-06-15T15:08:28.000Z</time>
        <extensions>
          <ns3:TrackPointExtension>
            <ns3:atemp>22.0</ns3:atemp>
          </ns3:TrackPointExtension>
        </extensions>
      </trkpt>
      <trkpt lat="42.5993040762841701507568359375" lon="19.983877725899219512939453125">
        <ele>1223.5999755859375</ele>
        <time>2026-06-15T15:08:29.000Z</time>
        <extensions>
          <ns3:TrackPointExtension>
            <ns3:atemp>22.0</ns3:atemp>
          </ns3:TrackPointExtension>
        </extensions>
      </trkpt>
      <trkpt lat="42.5993040762841701507568359375" lon="19.983877725899219512939453125">
        <ele>1223.4000244140625</ele>
        <time>2026-06-15T15:08:30.000Z</time>
        <extensions>
          <ns3:TrackPointExtension>
            <ns3:atemp>22.0</ns3:atemp>
          </ns3:TrackPointExtension>
        </extensions>
      </trkpt>
      <trkpt lat="42.5993040762841701507568359375" lon="19.983877725899219512939453125">
        <ele>1223.4000244140625</ele>
        <time>2026-06-15T15:08:31.000Z</time>
        <extensions>
          <ns3:TrackPointExtension>
            <ns3:atemp>22.0</ns3:atemp>
          </ns3:TrackPointExtension>
        </extensions>
      </trkpt>
      <trkpt lat="42.5993040762841701507568359375" lon="19.983877725899219512939453125">
        <ele>1223.4000244140625</ele>
        <time>2026-06-15T15:08:32.000Z</time>
        <extensions>
          <ns3:TrackPointExtension>
            <ns3:atemp>22.0</ns3:atemp>
          </ns3:TrackPointExtension>
        </extensions>
      </trkpt>
      <trkpt lat="42.5993040762841701507568359375" lon="19.983877725899219512939453125">
        <ele>1223.4000244140625</ele>
        <time>2026-06-15T15:08:33.000Z</time>
        <extensions>
          <ns3:TrackPointExtension>
            <ns3:atemp>22.0</ns3:atemp>
          </ns3:TrackPointExtension>
        </extensions>
      </trkpt>
      <trkpt lat="42.5993040762841701507568359375" lon="19.983877725899219512939453125">
        <ele>1223.4000244140625</ele>
        <time>2026-06-15T15:08:34.000Z</time>
        <extensions>
          <ns3:TrackPointExtension>
            <ns3:atemp>22.0</ns3:atemp>
          </ns3:TrackPointExtension>
        </extensions>
      </trkpt>
      <trkpt lat="42.5993040762841701507568359375" lon="19.983877725899219512939453125">
        <ele>1223.5999755859375</ele>
        <time>2026-06-15T15:08:35.000Z</time>
        <extensions>
          <ns3:TrackPointExtension>
            <ns3:atemp>22.0</ns3:atemp>
          </ns3:TrackPointExtension>
        </extensions>
      </trkpt>
      <trkpt lat="42.5993040762841701507568359375" lon="19.983877725899219512939453125">
        <ele>1223.5999755859375</ele>
        <time>2026-06-15T15:08:36.000Z</time>
        <extensions>
          <ns3:TrackPointExtension>
            <ns3:atemp>22.0</ns3:atemp>
          </ns3:TrackPointExtension>
        </extensions>
      </trkpt>
      <trkpt lat="42.5993040762841701507568359375" lon="19.983877725899219512939453125">
        <ele>1223.5999755859375</ele>
        <time>2026-06-15T15:08:37.000Z</time>
        <extensions>
          <ns3:TrackPointExtension>
            <ns3:atemp>22.0</ns3:atemp>
          </ns3:TrackPointExtension>
        </extensions>
      </trkpt>
      <trkpt lat="42.5993040762841701507568359375" lon="19.983877725899219512939453125">
        <ele>1223.5999755859375</ele>
        <time>2026-06-15T15:08:38.000Z</time>
        <extensions>
          <ns3:TrackPointExtension>
            <ns3:atemp>22.0</ns3:atemp>
          </ns3:TrackPointExtension>
        </extensions>
      </trkpt>
      <trkpt lat="42.5993040762841701507568359375" lon="19.983877725899219512939453125">
        <ele>1223.5999755859375</ele>
        <time>2026-06-15T15:08:39.000Z</time>
        <extensions>
          <ns3:TrackPointExtension>
            <ns3:atemp>22.0</ns3:atemp>
          </ns3:TrackPointExtension>
        </extensions>
      </trkpt>
      <trkpt lat="42.5993040762841701507568359375" lon="19.983877725899219512939453125">
        <ele>1223.800048828125</ele>
        <time>2026-06-15T15:08:40.000Z</time>
        <extensions>
          <ns3:TrackPointExtension>
            <ns3:atemp>22.0</ns3:atemp>
          </ns3:TrackPointExtension>
        </extensions>
      </trkpt>
      <trkpt lat="42.5993040762841701507568359375" lon="19.983877725899219512939453125">
        <ele>1223.800048828125</ele>
        <time>2026-06-15T15:08:41.000Z</time>
        <extensions>
          <ns3:TrackPointExtension>
            <ns3:atemp>22.0</ns3:atemp>
          </ns3:TrackPointExtension>
        </extensions>
      </trkpt>
      <trkpt lat="42.5993040762841701507568359375" lon="19.983877725899219512939453125">
        <ele>1223.800048828125</ele>
        <time>2026-06-15T15:08:42.000Z</time>
        <extensions>
          <ns3:TrackPointExtension>
            <ns3:atemp>22.0</ns3:atemp>
          </ns3:TrackPointExtension>
        </extensions>
      </trkpt>
      <trkpt lat="42.5993040762841701507568359375" lon="19.983877725899219512939453125">
        <ele>1223.800048828125</ele>
        <time>2026-06-15T15:08:43.000Z</time>
        <extensions>
          <ns3:TrackPointExtension>
            <ns3:atemp>22.0</ns3:atemp>
          </ns3:TrackPointExtension>
        </extensions>
      </trkpt>
      <trkpt lat="42.5993040762841701507568359375" lon="19.983877725899219512939453125">
        <ele>1223.800048828125</ele>
        <time>2026-06-15T15:08:44.000Z</time>
        <extensions>
          <ns3:TrackPointExtension>
            <ns3:atemp>22.0</ns3:atemp>
          </ns3:TrackPointExtension>
        </extensions>
      </trkpt>
      <trkpt lat="42.5993040762841701507568359375" lon="19.983877725899219512939453125">
        <ele>1223.800048828125</ele>
        <time>2026-06-15T15:08:45.000Z</time>
        <extensions>
          <ns3:TrackPointExtension>
            <ns3:atemp>22.0</ns3:atemp>
          </ns3:TrackPointExtension>
        </extensions>
      </trkpt>
      <trkpt lat="42.5993040762841701507568359375" lon="19.983877725899219512939453125">
        <ele>1223.800048828125</ele>
        <time>2026-06-15T15:08:46.000Z</time>
        <extensions>
          <ns3:TrackPointExtension>
            <ns3:atemp>22.0</ns3:atemp>
          </ns3:TrackPointExtension>
        </extensions>
      </trkpt>
      <trkpt lat="42.5993040762841701507568359375" lon="19.983877725899219512939453125">
        <ele>1223.800048828125</ele>
        <time>2026-06-15T15:08:47.000Z</time>
        <extensions>
          <ns3:TrackPointExtension>
            <ns3:atemp>22.0</ns3:atemp>
          </ns3:TrackPointExtension>
        </extensions>
      </trkpt>
      <trkpt lat="42.5993040762841701507568359375" lon="19.983877725899219512939453125">
        <ele>1224</ele>
        <time>2026-06-15T15:08:48.000Z</time>
        <extensions>
          <ns3:TrackPointExtension>
            <ns3:atemp>22.0</ns3:atemp>
          </ns3:TrackPointExtension>
        </extensions>
      </trkpt>
      <trkpt lat="42.5993040762841701507568359375" lon="19.983877725899219512939453125">
        <ele>1224</ele>
        <time>2026-06-15T15:08:49.000Z</time>
        <extensions>
          <ns3:TrackPointExtension>
            <ns3:atemp>22.0</ns3:atemp>
          </ns3:TrackPointExtension>
        </extensions>
      </trkpt>
      <trkpt lat="42.5993040762841701507568359375" lon="19.983877725899219512939453125">
        <ele>1224</ele>
        <time>2026-06-15T15:08:50.000Z</time>
        <extensions>
          <ns3:TrackPointExtension>
            <ns3:atemp>22.0</ns3:atemp>
          </ns3:TrackPointExtension>
        </extensions>
      </trkpt>
      <trkpt lat="42.5993040762841701507568359375" lon="19.983877725899219512939453125">
        <ele>1224</ele>
        <time>2026-06-15T15:08:51.000Z</time>
        <extensions>
          <ns3:TrackPointExtension>
            <ns3:atemp>22.0</ns3:atemp>
          </ns3:TrackPointExtension>
        </extensions>
      </trkpt>
      <trkpt lat="42.5993040762841701507568359375" lon="19.983877725899219512939453125">
        <ele>1224</ele>
        <time>2026-06-15T15:08:52.000Z</time>
        <extensions>
          <ns3:TrackPointExtension>
            <ns3:atemp>22.0</ns3:atemp>
          </ns3:TrackPointExtension>
        </extensions>
      </trkpt>
      <trkpt lat="42.5993040762841701507568359375" lon="19.983877725899219512939453125">
        <ele>1224</ele>
        <time>2026-06-15T15:08:53.000Z</time>
        <extensions>
          <ns3:TrackPointExtension>
            <ns3:atemp>22.0</ns3:atemp>
          </ns3:TrackPointExtension>
        </extensions>
      </trkpt>
      <trkpt lat="42.5993040762841701507568359375" lon="19.983877725899219512939453125">
        <ele>1224</ele>
        <time>2026-06-15T15:08:54.000Z</time>
        <extensions>
          <ns3:TrackPointExtension>
            <ns3:atemp>22.0</ns3:atemp>
          </ns3:TrackPointExtension>
        </extensions>
      </trkpt>
      <trkpt lat="42.5993040762841701507568359375" lon="19.983877725899219512939453125">
        <ele>1223.800048828125</ele>
        <time>2026-06-15T15:08:55.000Z</time>
        <extensions>
          <ns3:TrackPointExtension>
            <ns3:atemp>22.0</ns3:atemp>
          </ns3:TrackPointExtension>
        </extensions>
      </trkpt>
      <trkpt lat="42.5993040762841701507568359375" lon="19.983877725899219512939453125">
        <ele>1223.800048828125</ele>
        <time>2026-06-15T15:08:56.000Z</time>
        <extensions>
          <ns3:TrackPointExtension>
            <ns3:atemp>22.0</ns3:atemp>
          </ns3:TrackPointExtension>
        </extensions>
      </trkpt>
      <trkpt lat="42.5993040762841701507568359375" lon="19.983877725899219512939453125">
        <ele>1223.800048828125</ele>
        <time>2026-06-15T15:08:57.000Z</time>
        <extensions>
          <ns3:TrackPointExtension>
            <ns3:atemp>22.0</ns3:atemp>
          </ns3:TrackPointExtension>
        </extensions>
      </trkpt>
      <trkpt lat="42.5993040762841701507568359375" lon="19.983877725899219512939453125">
        <ele>1223.800048828125</ele>
        <time>2026-06-15T15:08:58.000Z</time>
        <extensions>
          <ns3:TrackPointExtension>
            <ns3:atemp>22.0</ns3:atemp>
          </ns3:TrackPointExtension>
        </extensions>
      </trkpt>
      <trkpt lat="42.5993040762841701507568359375" lon="19.983877725899219512939453125">
        <ele>1223.800048828125</ele>
        <time>2026-06-15T15:08:59.000Z</time>
        <extensions>
          <ns3:TrackPointExtension>
            <ns3:atemp>22.0</ns3:atemp>
          </ns3:TrackPointExtension>
        </extensions>
      </trkpt>
      <trkpt lat="42.5993040762841701507568359375" lon="19.983877725899219512939453125">
        <ele>1223.5999755859375</ele>
        <time>2026-06-15T15:09:00.000Z</time>
        <extensions>
          <ns3:TrackPointExtension>
            <ns3:atemp>22.0</ns3:atemp>
          </ns3:TrackPointExtension>
        </extensions>
      </trkpt>
      <trkpt lat="42.5993040762841701507568359375" lon="19.983877725899219512939453125">
        <ele>1223.5999755859375</ele>
        <time>2026-06-15T15:09:01.000Z</time>
        <extensions>
          <ns3:TrackPointExtension>
            <ns3:atemp>22.0</ns3:atemp>
          </ns3:TrackPointExtension>
        </extensions>
      </trkpt>
      <trkpt lat="42.5993040762841701507568359375" lon="19.983877725899219512939453125">
        <ele>1223.5999755859375</ele>
        <time>2026-06-15T15:09:02.000Z</time>
        <extensions>
          <ns3:TrackPointExtension>
            <ns3:atemp>22.0</ns3:atemp>
          </ns3:TrackPointExtension>
        </extensions>
      </trkpt>
      <trkpt lat="42.5993040762841701507568359375" lon="19.983877725899219512939453125">
        <ele>1223.4000244140625</ele>
        <time>2026-06-15T15:09:03.000Z</time>
        <extensions>
          <ns3:TrackPointExtension>
            <ns3:atemp>22.0</ns3:atemp>
          </ns3:TrackPointExtension>
        </extensions>
      </trkpt>
      <trkpt lat="42.5993040762841701507568359375" lon="19.983877725899219512939453125">
        <ele>1223.4000244140625</ele>
        <time>2026-06-15T15:09:04.000Z</time>
        <extensions>
          <ns3:TrackPointExtension>
            <ns3:atemp>22.0</ns3:atemp>
          </ns3:TrackPointExtension>
        </extensions>
      </trkpt>
      <trkpt lat="42.5993040762841701507568359375" lon="19.983877725899219512939453125">
        <ele>1223.199951171875</ele>
        <time>2026-06-15T15:09:05.000Z</time>
        <extensions>
          <ns3:TrackPointExtension>
            <ns3:atemp>22.0</ns3:atemp>
          </ns3:TrackPointExtension>
        </extensions>
      </trkpt>
      <trkpt lat="42.5993040762841701507568359375" lon="19.983877725899219512939453125">
        <ele>1223.199951171875</ele>
        <time>2026-06-15T15:09:06.000Z</time>
        <extensions>
          <ns3:TrackPointExtension>
            <ns3:atemp>22.0</ns3:atemp>
          </ns3:TrackPointExtension>
        </extensions>
      </trkpt>
      <trkpt lat="42.5993040762841701507568359375" lon="19.983877725899219512939453125">
        <ele>1223</ele>
        <time>2026-06-15T15:09:07.000Z</time>
        <extensions>
          <ns3:TrackPointExtension>
            <ns3:atemp>22.0</ns3:atemp>
          </ns3:TrackPointExtension>
        </extensions>
      </trkpt>
      <trkpt lat="42.5993040762841701507568359375" lon="19.983877725899219512939453125">
        <ele>1223</ele>
        <time>2026-06-15T15:09:08.000Z</time>
        <extensions>
          <ns3:TrackPointExtension>
            <ns3:atemp>22.0</ns3:atemp>
          </ns3:TrackPointExtension>
        </extensions>
      </trkpt>
      <trkpt lat="42.5993040762841701507568359375" lon="19.983877725899219512939453125">
        <ele>1223</ele>
        <time>2026-06-15T15:09:09.000Z</time>
        <extensions>
          <ns3:TrackPointExtension>
            <ns3:atemp>22.0</ns3:atemp>
          </ns3:TrackPointExtension>
        </extensions>
      </trkpt>
      <trkpt lat="42.5993040762841701507568359375" lon="19.983877725899219512939453125">
        <ele>1223</ele>
        <time>2026-06-15T15:09:10.000Z</time>
        <extensions>
          <ns3:TrackPointExtension>
            <ns3:atemp>22.0</ns3:atemp>
          </ns3:TrackPointExtension>
        </extensions>
      </trkpt>
      <trkpt lat="42.5993040762841701507568359375" lon="19.983877725899219512939453125">
        <ele>1223</ele>
        <time>2026-06-15T15:09:11.000Z</time>
        <extensions>
          <ns3:TrackPointExtension>
            <ns3:atemp>22.0</ns3:atemp>
          </ns3:TrackPointExtension>
        </extensions>
      </trkpt>
      <trkpt lat="42.5993040762841701507568359375" lon="19.983877725899219512939453125">
        <ele>1223</ele>
        <time>2026-06-15T15:09:12.000Z</time>
        <extensions>
          <ns3:TrackPointExtension>
            <ns3:atemp>22.0</ns3:atemp>
          </ns3:TrackPointExtension>
        </extensions>
      </trkpt>
      <trkpt lat="42.5993040762841701507568359375" lon="19.983877725899219512939453125">
        <ele>1222.800048828125</ele>
        <time>2026-06-15T15:09:13.000Z</time>
        <extensions>
          <ns3:TrackPointExtension>
            <ns3:atemp>22.0</ns3:atemp>
          </ns3:TrackPointExtension>
        </extensions>
      </trkpt>
      <trkpt lat="42.5993040762841701507568359375" lon="19.983877725899219512939453125">
        <ele>1222.800048828125</ele>
        <time>2026-06-15T15:09:14.000Z</time>
        <extensions>
          <ns3:TrackPointExtension>
            <ns3:atemp>22.0</ns3:atemp>
          </ns3:TrackPointExtension>
        </extensions>
      </trkpt>
      <trkpt lat="42.5993040762841701507568359375" lon="19.983877725899219512939453125">
        <ele>1222.800048828125</ele>
        <time>2026-06-15T15:09:15.000Z</time>
        <extensions>
          <ns3:TrackPointExtension>
            <ns3:atemp>22.0</ns3:atemp>
          </ns3:TrackPointExtension>
        </extensions>
      </trkpt>
      <trkpt lat="42.5993040762841701507568359375" lon="19.983877725899219512939453125">
        <ele>1222.800048828125</ele>
        <time>2026-06-15T15:09:16.000Z</time>
        <extensions>
          <ns3:TrackPointExtension>
            <ns3:atemp>22.0</ns3:atemp>
          </ns3:TrackPointExtension>
        </extensions>
      </trkpt>
      <trkpt lat="42.5993040762841701507568359375" lon="19.983877725899219512939453125">
        <ele>1222.800048828125</ele>
        <time>2026-06-15T15:09:17.000Z</time>
        <extensions>
          <ns3:TrackPointExtension>
            <ns3:atemp>22.0</ns3:atemp>
          </ns3:TrackPointExtension>
        </extensions>
      </trkpt>
      <trkpt lat="42.5993040762841701507568359375" lon="19.983877725899219512939453125">
        <ele>1222.800048828125</ele>
        <time>2026-06-15T15:09:18.000Z</time>
        <extensions>
          <ns3:TrackPointExtension>
            <ns3:atemp>22.0</ns3:atemp>
          </ns3:TrackPointExtension>
        </extensions>
      </trkpt>
      <trkpt lat="42.5993040762841701507568359375" lon="19.983877725899219512939453125">
        <ele>1222.800048828125</ele>
        <time>2026-06-15T15:09:19.000Z</time>
        <extensions>
          <ns3:TrackPointExtension>
            <ns3:atemp>22.0</ns3:atemp>
          </ns3:TrackPointExtension>
        </extensions>
      </trkpt>
      <trkpt lat="42.5993040762841701507568359375" lon="19.983877725899219512939453125">
        <ele>1222.800048828125</ele>
        <time>2026-06-15T15:09:20.000Z</time>
        <extensions>
          <ns3:TrackPointExtension>
            <ns3:atemp>22.0</ns3:atemp>
          </ns3:TrackPointExtension>
        </extensions>
      </trkpt>
      <trkpt lat="42.5993040762841701507568359375" lon="19.983877725899219512939453125">
        <ele>1222.800048828125</ele>
        <time>2026-06-15T15:09:21.000Z</time>
        <extensions>
          <ns3:TrackPointExtension>
            <ns3:atemp>22.0</ns3:atemp>
          </ns3:TrackPointExtension>
        </extensions>
      </trkpt>
      <trkpt lat="42.5993040762841701507568359375" lon="19.983877725899219512939453125">
        <ele>1222.800048828125</ele>
        <time>2026-06-15T15:09:22.000Z</time>
        <extensions>
          <ns3:TrackPointExtension>
            <ns3:atemp>22.0</ns3:atemp>
          </ns3:TrackPointExtension>
        </extensions>
      </trkpt>
      <trkpt lat="42.5993040762841701507568359375" lon="19.983877725899219512939453125">
        <ele>1222.800048828125</ele>
        <time>2026-06-15T15:09:23.000Z</time>
        <extensions>
          <ns3:TrackPointExtension>
            <ns3:atemp>22.0</ns3:atemp>
          </ns3:TrackPointExtension>
        </extensions>
      </trkpt>
      <trkpt lat="42.5993040762841701507568359375" lon="19.983877725899219512939453125">
        <ele>1222.5999755859375</ele>
        <time>2026-06-15T15:09:24.000Z</time>
        <extensions>
          <ns3:TrackPointExtension>
            <ns3:atemp>22.0</ns3:atemp>
          </ns3:TrackPointExtension>
        </extensions>
      </trkpt>
      <trkpt lat="42.5993040762841701507568359375" lon="19.983877725899219512939453125">
        <ele>1222.5999755859375</ele>
        <time>2026-06-15T15:09:25.000Z</time>
        <extensions>
          <ns3:TrackPointExtension>
            <ns3:atemp>22.0</ns3:atemp>
          </ns3:TrackPointExtension>
        </extensions>
      </trkpt>
      <trkpt lat="42.5993040762841701507568359375" lon="19.983877725899219512939453125">
        <ele>1222.5999755859375</ele>
        <time>2026-06-15T15:09:26.000Z</time>
        <extensions>
          <ns3:TrackPointExtension>
            <ns3:atemp>22.0</ns3:atemp>
          </ns3:TrackPointExtension>
        </extensions>
      </trkpt>
      <trkpt lat="42.5993040762841701507568359375" lon="19.983877725899219512939453125">
        <ele>1222.5999755859375</ele>
        <time>2026-06-15T15:09:27.000Z</time>
        <extensions>
          <ns3:TrackPointExtension>
            <ns3:atemp>22.0</ns3:atemp>
          </ns3:TrackPointExtension>
        </extensions>
      </trkpt>
      <trkpt lat="42.5993040762841701507568359375" lon="19.983877725899219512939453125">
        <ele>1222.5999755859375</ele>
        <time>2026-06-15T15:09:28.000Z</time>
        <extensions>
          <ns3:TrackPointExtension>
            <ns3:atemp>22.0</ns3:atemp>
          </ns3:TrackPointExtension>
        </extensions>
      </trkpt>
      <trkpt lat="42.5993040762841701507568359375" lon="19.983877725899219512939453125">
        <ele>1222.5999755859375</ele>
        <time>2026-06-15T15:09:29.000Z</time>
        <extensions>
          <ns3:TrackPointExtension>
            <ns3:atemp>22.0</ns3:atemp>
          </ns3:TrackPointExtension>
        </extensions>
      </trkpt>
      <trkpt lat="42.5993040762841701507568359375" lon="19.983877725899219512939453125">
        <ele>1222.5999755859375</ele>
        <time>2026-06-15T15:09:30.000Z</time>
        <extensions>
          <ns3:TrackPointExtension>
            <ns3:atemp>22.0</ns3:atemp>
          </ns3:TrackPointExtension>
        </extensions>
      </trkpt>
      <trkpt lat="42.5993040762841701507568359375" lon="19.983877725899219512939453125">
        <ele>1222.4000244140625</ele>
        <time>2026-06-15T15:09:31.000Z</time>
        <extensions>
          <ns3:TrackPointExtension>
            <ns3:atemp>22.0</ns3:atemp>
          </ns3:TrackPointExtension>
        </extensions>
      </trkpt>
      <trkpt lat="42.5993040762841701507568359375" lon="19.983877725899219512939453125">
        <ele>1222.4000244140625</ele>
        <time>2026-06-15T15:09:32.000Z</time>
        <extensions>
          <ns3:TrackPointExtension>
            <ns3:atemp>22.0</ns3:atemp>
          </ns3:TrackPointExtension>
        </extensions>
      </trkpt>
      <trkpt lat="42.5993040762841701507568359375" lon="19.983877725899219512939453125">
        <ele>1222.4000244140625</ele>
        <time>2026-06-15T15:09:33.000Z</time>
        <extensions>
          <ns3:TrackPointExtension>
            <ns3:atemp>22.0</ns3:atemp>
          </ns3:TrackPointExtension>
        </extensions>
      </trkpt>
      <trkpt lat="42.5993040762841701507568359375" lon="19.983877725899219512939453125">
        <ele>1222.4000244140625</ele>
        <time>2026-06-15T15:09:34.000Z</time>
        <extensions>
          <ns3:TrackPointExtension>
            <ns3:atemp>22.0</ns3:atemp>
          </ns3:TrackPointExtension>
        </extensions>
      </trkpt>
      <trkpt lat="42.5993040762841701507568359375" lon="19.983877725899219512939453125">
        <ele>1222.199951171875</ele>
        <time>2026-06-15T15:09:35.000Z</time>
        <extensions>
          <ns3:TrackPointExtension>
            <ns3:atemp>22.0</ns3:atemp>
          </ns3:TrackPointExtension>
        </extensions>
      </trkpt>
      <trkpt lat="42.5993040762841701507568359375" lon="19.983877725899219512939453125">
        <ele>1222.199951171875</ele>
        <time>2026-06-15T15:09:36.000Z</time>
        <extensions>
          <ns3:TrackPointExtension>
            <ns3:atemp>22.0</ns3:atemp>
          </ns3:TrackPointExtension>
        </extensions>
      </trkpt>
      <trkpt lat="42.5993040762841701507568359375" lon="19.983877725899219512939453125">
        <ele>1222.199951171875</ele>
        <time>2026-06-15T15:09:37.000Z</time>
        <extensions>
          <ns3:TrackPointExtension>
            <ns3:atemp>22.0</ns3:atemp>
          </ns3:TrackPointExtension>
        </extensions>
      </trkpt>
      <trkpt lat="42.5993040762841701507568359375" lon="19.983877725899219512939453125">
        <ele>1222.199951171875</ele>
        <time>2026-06-15T15:09:38.000Z</time>
        <extensions>
          <ns3:TrackPointExtension>
            <ns3:atemp>22.0</ns3:atemp>
          </ns3:TrackPointExtension>
        </extensions>
      </trkpt>
      <trkpt lat="42.5993040762841701507568359375" lon="19.983877725899219512939453125">
        <ele>1222.199951171875</ele>
        <time>2026-06-15T15:09:39.000Z</time>
        <extensions>
          <ns3:TrackPointExtension>
            <ns3:atemp>22.0</ns3:atemp>
          </ns3:TrackPointExtension>
        </extensions>
      </trkpt>
      <trkpt lat="42.5993040762841701507568359375" lon="19.983877725899219512939453125">
        <ele>1222.199951171875</ele>
        <time>2026-06-15T15:09:40.000Z</time>
        <extensions>
          <ns3:TrackPointExtension>
            <ns3:atemp>22.0</ns3:atemp>
          </ns3:TrackPointExtension>
        </extensions>
      </trkpt>
      <trkpt lat="42.5993040762841701507568359375" lon="19.983877725899219512939453125">
        <ele>1222.199951171875</ele>
        <time>2026-06-15T15:09:41.000Z</time>
        <extensions>
          <ns3:TrackPointExtension>
            <ns3:atemp>22.0</ns3:atemp>
          </ns3:TrackPointExtension>
        </extensions>
      </trkpt>
      <trkpt lat="42.5993040762841701507568359375" lon="19.983877725899219512939453125">
        <ele>1222.4000244140625</ele>
        <time>2026-06-15T15:09:42.000Z</time>
        <extensions>
          <ns3:TrackPointExtension>
            <ns3:atemp>22.0</ns3:atemp>
          </ns3:TrackPointExtension>
        </extensions>
      </trkpt>
      <trkpt lat="42.5993040762841701507568359375" lon="19.983877725899219512939453125">
        <ele>1222.4000244140625</ele>
        <time>2026-06-15T15:09:43.000Z</time>
        <extensions>
          <ns3:TrackPointExtension>
            <ns3:atemp>22.0</ns3:atemp>
          </ns3:TrackPointExtension>
        </extensions>
      </trkpt>
      <trkpt lat="42.5993040762841701507568359375" lon="19.983877725899219512939453125">
        <ele>1222.5999755859375</ele>
        <time>2026-06-15T15:09:44.000Z</time>
        <extensions>
          <ns3:TrackPointExtension>
            <ns3:atemp>22.0</ns3:atemp>
          </ns3:TrackPointExtension>
        </extensions>
      </trkpt>
      <trkpt lat="42.5993040762841701507568359375" lon="19.983877725899219512939453125">
        <ele>1222.5999755859375</ele>
        <time>2026-06-15T15:09:45.000Z</time>
        <extensions>
          <ns3:TrackPointExtension>
            <ns3:atemp>22.0</ns3:atemp>
          </ns3:TrackPointExtension>
        </extensions>
      </trkpt>
      <trkpt lat="42.5993040762841701507568359375" lon="19.983877725899219512939453125">
        <ele>1222.800048828125</ele>
        <time>2026-06-15T15:09:46.000Z</time>
        <extensions>
          <ns3:TrackPointExtension>
            <ns3:atemp>22.0</ns3:atemp>
          </ns3:TrackPointExtension>
        </extensions>
      </trkpt>
      <trkpt lat="42.5993040762841701507568359375" lon="19.983877725899219512939453125">
        <ele>1222.800048828125</ele>
        <time>2026-06-15T15:09:47.000Z</time>
        <extensions>
          <ns3:TrackPointExtension>
            <ns3:atemp>22.0</ns3:atemp>
          </ns3:TrackPointExtension>
        </extensions>
      </trkpt>
      <trkpt lat="42.5993040762841701507568359375" lon="19.983877725899219512939453125">
        <ele>1222.800048828125</ele>
        <time>2026-06-15T15:09:48.000Z</time>
        <extensions>
          <ns3:TrackPointExtension>
            <ns3:atemp>22.0</ns3:atemp>
          </ns3:TrackPointExtension>
        </extensions>
      </trkpt>
      <trkpt lat="42.5993040762841701507568359375" lon="19.983877725899219512939453125">
        <ele>1222.800048828125</ele>
        <time>2026-06-15T15:09:49.000Z</time>
        <extensions>
          <ns3:TrackPointExtension>
            <ns3:atemp>22.0</ns3:atemp>
          </ns3:TrackPointExtension>
        </extensions>
      </trkpt>
      <trkpt lat="42.5993040762841701507568359375" lon="19.983877725899219512939453125">
        <ele>1222.800048828125</ele>
        <time>2026-06-15T15:09:50.000Z</time>
        <extensions>
          <ns3:TrackPointExtension>
            <ns3:atemp>22.0</ns3:atemp>
          </ns3:TrackPointExtension>
        </extensions>
      </trkpt>
      <trkpt lat="42.5993040762841701507568359375" lon="19.983877725899219512939453125">
        <ele>1222.800048828125</ele>
        <time>2026-06-15T15:09:51.000Z</time>
        <extensions>
          <ns3:TrackPointExtension>
            <ns3:atemp>22.0</ns3:atemp>
          </ns3:TrackPointExtension>
        </extensions>
      </trkpt>
      <trkpt lat="42.5993040762841701507568359375" lon="19.983877725899219512939453125">
        <ele>1222.800048828125</ele>
        <time>2026-06-15T15:09:52.000Z</time>
        <extensions>
          <ns3:TrackPointExtension>
            <ns3:atemp>22.0</ns3:atemp>
          </ns3:TrackPointExtension>
        </extensions>
      </trkpt>
      <trkpt lat="42.5993040762841701507568359375" lon="19.983877725899219512939453125">
        <ele>1222.800048828125</ele>
        <time>2026-06-15T15:09:53.000Z</time>
        <extensions>
          <ns3:TrackPointExtension>
            <ns3:atemp>22.0</ns3:atemp>
          </ns3:TrackPointExtension>
        </extensions>
      </trkpt>
      <trkpt lat="42.5993040762841701507568359375" lon="19.983877725899219512939453125">
        <ele>1222.800048828125</ele>
        <time>2026-06-15T15:09:54.000Z</time>
        <extensions>
          <ns3:TrackPointExtension>
            <ns3:atemp>22.0</ns3:atemp>
          </ns3:TrackPointExtension>
        </extensions>
      </trkpt>
      <trkpt lat="42.5993040762841701507568359375" lon="19.983877725899219512939453125">
        <ele>1222.800048828125</ele>
        <time>2026-06-15T15:09:55.000Z</time>
        <extensions>
          <ns3:TrackPointExtension>
            <ns3:atemp>22.0</ns3:atemp>
          </ns3:TrackPointExtension>
        </extensions>
      </trkpt>
      <trkpt lat="42.5993040762841701507568359375" lon="19.983877725899219512939453125">
        <ele>1222.800048828125</ele>
        <time>2026-06-15T15:09:56.000Z</time>
        <extensions>
          <ns3:TrackPointExtension>
            <ns3:atemp>22.0</ns3:atemp>
          </ns3:TrackPointExtension>
        </extensions>
      </trkpt>
      <trkpt lat="42.5993040762841701507568359375" lon="19.983877725899219512939453125">
        <ele>1222.800048828125</ele>
        <time>2026-06-15T15:09:57.000Z</time>
        <extensions>
          <ns3:TrackPointExtension>
            <ns3:atemp>22.0</ns3:atemp>
          </ns3:TrackPointExtension>
        </extensions>
      </trkpt>
      <trkpt lat="42.5993040762841701507568359375" lon="19.983877725899219512939453125">
        <ele>1222.800048828125</ele>
        <time>2026-06-15T15:09:58.000Z</time>
        <extensions>
          <ns3:TrackPointExtension>
            <ns3:atemp>22.0</ns3:atemp>
          </ns3:TrackPointExtension>
        </extensions>
      </trkpt>
      <trkpt lat="42.5993040762841701507568359375" lon="19.983877725899219512939453125">
        <ele>1222.800048828125</ele>
        <time>2026-06-15T15:09:59.000Z</time>
        <extensions>
          <ns3:TrackPointExtension>
            <ns3:atemp>22.0</ns3:atemp>
          </ns3:TrackPointExtension>
        </extensions>
      </trkpt>
      <trkpt lat="42.5993040762841701507568359375" lon="19.983877725899219512939453125">
        <ele>1222.800048828125</ele>
        <time>2026-06-15T15:10:00.000Z</time>
        <extensions>
          <ns3:TrackPointExtension>
            <ns3:atemp>22.0</ns3:atemp>
          </ns3:TrackPointExtension>
        </extensions>
      </trkpt>
      <trkpt lat="42.5993040762841701507568359375" lon="19.983877725899219512939453125">
        <ele>1222.5999755859375</ele>
        <time>2026-06-15T15:10:01.000Z</time>
        <extensions>
          <ns3:TrackPointExtension>
            <ns3:atemp>22.0</ns3:atemp>
          </ns3:TrackPointExtension>
        </extensions>
      </trkpt>
      <trkpt lat="42.5993040762841701507568359375" lon="19.983877725899219512939453125">
        <ele>1222.5999755859375</ele>
        <time>2026-06-15T15:10:02.000Z</time>
        <extensions>
          <ns3:TrackPointExtension>
            <ns3:atemp>22.0</ns3:atemp>
          </ns3:TrackPointExtension>
        </extensions>
      </trkpt>
      <trkpt lat="42.5993040762841701507568359375" lon="19.983877725899219512939453125">
        <ele>1222.5999755859375</ele>
        <time>2026-06-15T15:10:03.000Z</time>
        <extensions>
          <ns3:TrackPointExtension>
            <ns3:atemp>22.0</ns3:atemp>
          </ns3:TrackPointExtension>
        </extensions>
      </trkpt>
      <trkpt lat="42.5993040762841701507568359375" lon="19.983877725899219512939453125">
        <ele>1222.5999755859375</ele>
        <time>2026-06-15T15:10:04.000Z</time>
        <extensions>
          <ns3:TrackPointExtension>
            <ns3:atemp>22.0</ns3:atemp>
          </ns3:TrackPointExtension>
        </extensions>
      </trkpt>
      <trkpt lat="42.5993040762841701507568359375" lon="19.983877725899219512939453125">
        <ele>1222.5999755859375</ele>
        <time>2026-06-15T15:10:05.000Z</time>
        <extensions>
          <ns3:TrackPointExtension>
            <ns3:atemp>22.0</ns3:atemp>
          </ns3:TrackPointExtension>
        </extensions>
      </trkpt>
      <trkpt lat="42.5993040762841701507568359375" lon="19.983877725899219512939453125">
        <ele>1222.5999755859375</ele>
        <time>2026-06-15T15:10:06.000Z</time>
        <extensions>
          <ns3:TrackPointExtension>
            <ns3:atemp>22.0</ns3:atemp>
          </ns3:TrackPointExtension>
        </extensions>
      </trkpt>
      <trkpt lat="42.5993040762841701507568359375" lon="19.983877725899219512939453125">
        <ele>1222.4000244140625</ele>
        <time>2026-06-15T15:10:07.000Z</time>
        <extensions>
          <ns3:TrackPointExtension>
            <ns3:atemp>22.0</ns3:atemp>
          </ns3:TrackPointExtension>
        </extensions>
      </trkpt>
      <trkpt lat="42.5993040762841701507568359375" lon="19.983877725899219512939453125">
        <ele>1222.4000244140625</ele>
        <time>2026-06-15T15:10:08.000Z</time>
        <extensions>
          <ns3:TrackPointExtension>
            <ns3:atemp>22.0</ns3:atemp>
          </ns3:TrackPointExtension>
        </extensions>
      </trkpt>
      <trkpt lat="42.5993040762841701507568359375" lon="19.983877725899219512939453125">
        <ele>1222.4000244140625</ele>
        <time>2026-06-15T15:10:09.000Z</time>
        <extensions>
          <ns3:TrackPointExtension>
            <ns3:atemp>22.0</ns3:atemp>
          </ns3:TrackPointExtension>
        </extensions>
      </trkpt>
      <trkpt lat="42.5993040762841701507568359375" lon="19.983877725899219512939453125">
        <ele>1222.4000244140625</ele>
        <time>2026-06-15T15:10:10.000Z</time>
        <extensions>
          <ns3:TrackPointExtension>
            <ns3:atemp>22.0</ns3:atemp>
          </ns3:TrackPointExtension>
        </extensions>
      </trkpt>
      <trkpt lat="42.5993040762841701507568359375" lon="19.983877725899219512939453125">
        <ele>1222.4000244140625</ele>
        <time>2026-06-15T15:10:11.000Z</time>
        <extensions>
          <ns3:TrackPointExtension>
            <ns3:atemp>22.0</ns3:atemp>
          </ns3:TrackPointExtension>
        </extensions>
      </trkpt>
      <trkpt lat="42.5993040762841701507568359375" lon="19.983877725899219512939453125">
        <ele>1222.4000244140625</ele>
        <time>2026-06-15T15:10:12.000Z</time>
        <extensions>
          <ns3:TrackPointExtension>
            <ns3:atemp>22.0</ns3:atemp>
          </ns3:TrackPointExtension>
        </extensions>
      </trkpt>
      <trkpt lat="42.5993040762841701507568359375" lon="19.983877725899219512939453125">
        <ele>1222.4000244140625</ele>
        <time>2026-06-15T15:10:13.000Z</time>
        <extensions>
          <ns3:TrackPointExtension>
            <ns3:atemp>22.0</ns3:atemp>
          </ns3:TrackPointExtension>
        </extensions>
      </trkpt>
      <trkpt lat="42.5993040762841701507568359375" lon="19.983877725899219512939453125">
        <ele>1222.4000244140625</ele>
        <time>2026-06-15T15:10:14.000Z</time>
        <extensions>
          <ns3:TrackPointExtension>
            <ns3:atemp>22.0</ns3:atemp>
          </ns3:TrackPointExtension>
        </extensions>
      </trkpt>
      <trkpt lat="42.5993040762841701507568359375" lon="19.983877725899219512939453125">
        <ele>1222.4000244140625</ele>
        <time>2026-06-15T15:10:15.000Z</time>
        <extensions>
          <ns3:TrackPointExtension>
            <ns3:atemp>22.0</ns3:atemp>
          </ns3:TrackPointExtension>
        </extensions>
      </trkpt>
      <trkpt lat="42.5993040762841701507568359375" lon="19.983877725899219512939453125">
        <ele>1222.4000244140625</ele>
        <time>2026-06-15T15:10:16.000Z</time>
        <extensions>
          <ns3:TrackPointExtension>
            <ns3:atemp>22.0</ns3:atemp>
          </ns3:TrackPointExtension>
        </extensions>
      </trkpt>
      <trkpt lat="42.5993040762841701507568359375" lon="19.983877725899219512939453125">
        <ele>1222.4000244140625</ele>
        <time>2026-06-15T15:10:17.000Z</time>
        <extensions>
          <ns3:TrackPointExtension>
            <ns3:atemp>22.0</ns3:atemp>
          </ns3:TrackPointExtension>
        </extensions>
      </trkpt>
      <trkpt lat="42.5993040762841701507568359375" lon="19.983877725899219512939453125">
        <ele>1222.4000244140625</ele>
        <time>2026-06-15T15:10:18.000Z</time>
        <extensions>
          <ns3:TrackPointExtension>
            <ns3:atemp>22.0</ns3:atemp>
          </ns3:TrackPointExtension>
        </extensions>
      </trkpt>
      <trkpt lat="42.5993040762841701507568359375" lon="19.983877725899219512939453125">
        <ele>1222.4000244140625</ele>
        <time>2026-06-15T15:10:19.000Z</time>
        <extensions>
          <ns3:TrackPointExtension>
            <ns3:atemp>22.0</ns3:atemp>
          </ns3:TrackPointExtension>
        </extensions>
      </trkpt>
      <trkpt lat="42.5993040762841701507568359375" lon="19.983877725899219512939453125">
        <ele>1222.4000244140625</ele>
        <time>2026-06-15T15:10:20.000Z</time>
        <extensions>
          <ns3:TrackPointExtension>
            <ns3:atemp>22.0</ns3:atemp>
          </ns3:TrackPointExtension>
        </extensions>
      </trkpt>
      <trkpt lat="42.5993040762841701507568359375" lon="19.983877725899219512939453125">
        <ele>1222.4000244140625</ele>
        <time>2026-06-15T15:10:21.000Z</time>
        <extensions>
          <ns3:TrackPointExtension>
            <ns3:atemp>22.0</ns3:atemp>
          </ns3:TrackPointExtension>
        </extensions>
      </trkpt>
      <trkpt lat="42.5993040762841701507568359375" lon="19.983877725899219512939453125">
        <ele>1222.199951171875</ele>
        <time>2026-06-15T15:10:22.000Z</time>
        <extensions>
          <ns3:TrackPointExtension>
            <ns3:atemp>22.0</ns3:atemp>
          </ns3:TrackPointExtension>
        </extensions>
      </trkpt>
      <trkpt lat="42.5993040762841701507568359375" lon="19.983877725899219512939453125">
        <ele>1222.199951171875</ele>
        <time>2026-06-15T15:10:23.000Z</time>
        <extensions>
          <ns3:TrackPointExtension>
            <ns3:atemp>22.0</ns3:atemp>
          </ns3:TrackPointExtension>
        </extensions>
      </trkpt>
      <trkpt lat="42.5993040762841701507568359375" lon="19.983877725899219512939453125">
        <ele>1222.199951171875</ele>
        <time>2026-06-15T15:10:24.000Z</time>
        <extensions>
          <ns3:TrackPointExtension>
            <ns3:atemp>22.0</ns3:atemp>
          </ns3:TrackPointExtension>
        </extensions>
      </trkpt>
      <trkpt lat="42.5993040762841701507568359375" lon="19.983877725899219512939453125">
        <ele>1222.199951171875</ele>
        <time>2026-06-15T15:10:25.000Z</time>
        <extensions>
          <ns3:TrackPointExtension>
            <ns3:atemp>22.0</ns3:atemp>
          </ns3:TrackPointExtension>
        </extensions>
      </trkpt>
      <trkpt lat="42.5993040762841701507568359375" lon="19.983877725899219512939453125">
        <ele>1222.199951171875</ele>
        <time>2026-06-15T15:10:26.000Z</time>
        <extensions>
          <ns3:TrackPointExtension>
            <ns3:atemp>22.0</ns3:atemp>
          </ns3:TrackPointExtension>
        </extensions>
      </trkpt>
      <trkpt lat="42.5993040762841701507568359375" lon="19.983877725899219512939453125">
        <ele>1222.199951171875</ele>
        <time>2026-06-15T15:10:27.000Z</time>
        <extensions>
          <ns3:TrackPointExtension>
            <ns3:atemp>22.0</ns3:atemp>
          </ns3:TrackPointExtension>
        </extensions>
      </trkpt>
      <trkpt lat="42.5993040762841701507568359375" lon="19.983877725899219512939453125">
        <ele>1222.199951171875</ele>
        <time>2026-06-15T15:10:28.000Z</time>
        <extensions>
          <ns3:TrackPointExtension>
            <ns3:atemp>22.0</ns3:atemp>
          </ns3:TrackPointExtension>
        </extensions>
      </trkpt>
      <trkpt lat="42.5993040762841701507568359375" lon="19.983877725899219512939453125">
        <ele>1222.199951171875</ele>
        <time>2026-06-15T15:10:29.000Z</time>
        <extensions>
          <ns3:TrackPointExtension>
            <ns3:atemp>22.0</ns3:atemp>
          </ns3:TrackPointExtension>
        </extensions>
      </trkpt>
      <trkpt lat="42.5993040762841701507568359375" lon="19.983877725899219512939453125">
        <ele>1222.199951171875</ele>
        <time>2026-06-15T15:10:30.000Z</time>
        <extensions>
          <ns3:TrackPointExtension>
            <ns3:atemp>22.0</ns3:atemp>
          </ns3:TrackPointExtension>
        </extensions>
      </trkpt>
      <trkpt lat="42.5993040762841701507568359375" lon="19.983877725899219512939453125">
        <ele>1222.199951171875</ele>
        <time>2026-06-15T15:10:31.000Z</time>
        <extensions>
          <ns3:TrackPointExtension>
            <ns3:atemp>22.0</ns3:atemp>
          </ns3:TrackPointExtension>
        </extensions>
      </trkpt>
      <trkpt lat="42.5993040762841701507568359375" lon="19.983877725899219512939453125">
        <ele>1222.199951171875</ele>
        <time>2026-06-15T15:10:32.000Z</time>
        <extensions>
          <ns3:TrackPointExtension>
            <ns3:atemp>22.0</ns3:atemp>
          </ns3:TrackPointExtension>
        </extensions>
      </trkpt>
      <trkpt lat="42.5993040762841701507568359375" lon="19.983877725899219512939453125">
        <ele>1222.199951171875</ele>
        <time>2026-06-15T15:10:33.000Z</time>
        <extensions>
          <ns3:TrackPointExtension>
            <ns3:atemp>22.0</ns3:atemp>
          </ns3:TrackPointExtension>
        </extensions>
      </trkpt>
      <trkpt lat="42.5993040762841701507568359375" lon="19.983877725899219512939453125">
        <ele>1222.199951171875</ele>
        <time>2026-06-15T15:10:34.000Z</time>
        <extensions>
          <ns3:TrackPointExtension>
            <ns3:atemp>22.0</ns3:atemp>
          </ns3:TrackPointExtension>
        </extensions>
      </trkpt>
      <trkpt lat="42.5993040762841701507568359375" lon="19.983877725899219512939453125">
        <ele>1222.4000244140625</ele>
        <time>2026-06-15T15:10:35.000Z</time>
        <extensions>
          <ns3:TrackPointExtension>
            <ns3:atemp>22.0</ns3:atemp>
          </ns3:TrackPointExtension>
        </extensions>
      </trkpt>
      <trkpt lat="42.5993040762841701507568359375" lon="19.983877725899219512939453125">
        <ele>1222.4000244140625</ele>
        <time>2026-06-15T15:10:36.000Z</time>
        <extensions>
          <ns3:TrackPointExtension>
            <ns3:atemp>22.0</ns3:atemp>
          </ns3:TrackPointExtension>
        </extensions>
      </trkpt>
      <trkpt lat="42.5993040762841701507568359375" lon="19.983877725899219512939453125">
        <ele>1222.4000244140625</ele>
        <time>2026-06-15T15:10:37.000Z</time>
        <extensions>
          <ns3:TrackPointExtension>
            <ns3:atemp>22.0</ns3:atemp>
          </ns3:TrackPointExtension>
        </extensions>
      </trkpt>
      <trkpt lat="42.5993040762841701507568359375" lon="19.983877725899219512939453125">
        <ele>1222.199951171875</ele>
        <time>2026-06-15T15:10:38.000Z</time>
        <extensions>
          <ns3:TrackPointExtension>
            <ns3:atemp>22.0</ns3:atemp>
          </ns3:TrackPointExtension>
        </extensions>
      </trkpt>
      <trkpt lat="42.5993040762841701507568359375" lon="19.983877725899219512939453125">
        <ele>1222.199951171875</ele>
        <time>2026-06-15T15:10:39.000Z</time>
        <extensions>
          <ns3:TrackPointExtension>
            <ns3:atemp>22.0</ns3:atemp>
          </ns3:TrackPointExtension>
        </extensions>
      </trkpt>
      <trkpt lat="42.5993040762841701507568359375" lon="19.983877725899219512939453125">
        <ele>1222.199951171875</ele>
        <time>2026-06-15T15:10:40.000Z</time>
        <extensions>
          <ns3:TrackPointExtension>
            <ns3:atemp>22.0</ns3:atemp>
          </ns3:TrackPointExtension>
        </extensions>
      </trkpt>
      <trkpt lat="42.5993040762841701507568359375" lon="19.983877725899219512939453125">
        <ele>1222.199951171875</ele>
        <time>2026-06-15T15:10:41.000Z</time>
        <extensions>
          <ns3:TrackPointExtension>
            <ns3:atemp>22.0</ns3:atemp>
          </ns3:TrackPointExtension>
        </extensions>
      </trkpt>
      <trkpt lat="42.5993040762841701507568359375" lon="19.983877725899219512939453125">
        <ele>1222.199951171875</ele>
        <time>2026-06-15T15:10:42.000Z</time>
        <extensions>
          <ns3:TrackPointExtension>
            <ns3:atemp>22.0</ns3:atemp>
          </ns3:TrackPointExtension>
        </extensions>
      </trkpt>
      <trkpt lat="42.5993040762841701507568359375" lon="19.983877725899219512939453125">
        <ele>1222.199951171875</ele>
        <time>2026-06-15T15:10:43.000Z</time>
        <extensions>
          <ns3:TrackPointExtension>
            <ns3:atemp>22.0</ns3:atemp>
          </ns3:TrackPointExtension>
        </extensions>
      </trkpt>
      <trkpt lat="42.5993040762841701507568359375" lon="19.983877725899219512939453125">
        <ele>1222.199951171875</ele>
        <time>2026-06-15T15:10:44.000Z</time>
        <extensions>
          <ns3:TrackPointExtension>
            <ns3:atemp>22.0</ns3:atemp>
          </ns3:TrackPointExtension>
        </extensions>
      </trkpt>
      <trkpt lat="42.5993040762841701507568359375" lon="19.983877725899219512939453125">
        <ele>1222.199951171875</ele>
        <time>2026-06-15T15:10:45.000Z</time>
        <extensions>
          <ns3:TrackPointExtension>
            <ns3:atemp>22.0</ns3:atemp>
          </ns3:TrackPointExtension>
        </extensions>
      </trkpt>
      <trkpt lat="42.5993040762841701507568359375" lon="19.983877725899219512939453125">
        <ele>1222.199951171875</ele>
        <time>2026-06-15T15:10:46.000Z</time>
        <extensions>
          <ns3:TrackPointExtension>
            <ns3:atemp>22.0</ns3:atemp>
          </ns3:TrackPointExtension>
        </extensions>
      </trkpt>
      <trkpt lat="42.5993040762841701507568359375" lon="19.983877725899219512939453125">
        <ele>1222.199951171875</ele>
        <time>2026-06-15T15:10:47.000Z</time>
        <extensions>
          <ns3:TrackPointExtension>
            <ns3:atemp>22.0</ns3:atemp>
          </ns3:TrackPointExtension>
        </extensions>
      </trkpt>
      <trkpt lat="42.5993040762841701507568359375" lon="19.983877725899219512939453125">
        <ele>1222.199951171875</ele>
        <time>2026-06-15T15:10:48.000Z</time>
        <extensions>
          <ns3:TrackPointExtension>
            <ns3:atemp>22.0</ns3:atemp>
          </ns3:TrackPointExtension>
        </extensions>
      </trkpt>
      <trkpt lat="42.5993040762841701507568359375" lon="19.983877725899219512939453125">
        <ele>1222</ele>
        <time>2026-06-15T15:10:49.000Z</time>
        <extensions>
          <ns3:TrackPointExtension>
            <ns3:atemp>22.0</ns3:atemp>
          </ns3:TrackPointExtension>
        </extensions>
      </trkpt>
      <trkpt lat="42.5993040762841701507568359375" lon="19.983877725899219512939453125">
        <ele>1222</ele>
        <time>2026-06-15T15:10:50.000Z</time>
        <extensions>
          <ns3:TrackPointExtension>
            <ns3:atemp>22.0</ns3:atemp>
          </ns3:TrackPointExtension>
        </extensions>
      </trkpt>
      <trkpt lat="42.5993040762841701507568359375" lon="19.983877725899219512939453125">
        <ele>1222</ele>
        <time>2026-06-15T15:10:51.000Z</time>
        <extensions>
          <ns3:TrackPointExtension>
            <ns3:atemp>22.0</ns3:atemp>
          </ns3:TrackPointExtension>
        </extensions>
      </trkpt>
      <trkpt lat="42.5993040762841701507568359375" lon="19.983877725899219512939453125">
        <ele>1222</ele>
        <time>2026-06-15T15:10:52.000Z</time>
        <extensions>
          <ns3:TrackPointExtension>
            <ns3:atemp>22.0</ns3:atemp>
          </ns3:TrackPointExtension>
        </extensions>
      </trkpt>
      <trkpt lat="42.5993040762841701507568359375" lon="19.983877725899219512939453125">
        <ele>1222</ele>
        <time>2026-06-15T15:10:53.000Z</time>
        <extensions>
          <ns3:TrackPointExtension>
            <ns3:atemp>22.0</ns3:atemp>
          </ns3:TrackPointExtension>
        </extensions>
      </trkpt>
      <trkpt lat="42.5993040762841701507568359375" lon="19.983877725899219512939453125">
        <ele>1222</ele>
        <time>2026-06-15T15:10:54.000Z</time>
        <extensions>
          <ns3:TrackPointExtension>
            <ns3:atemp>22.0</ns3:atemp>
          </ns3:TrackPointExtension>
        </extensions>
      </trkpt>
      <trkpt lat="42.5993040762841701507568359375" lon="19.983877725899219512939453125">
        <ele>1222</ele>
        <time>2026-06-15T15:10:55.000Z</time>
        <extensions>
          <ns3:TrackPointExtension>
            <ns3:atemp>22.0</ns3:atemp>
          </ns3:TrackPointExtension>
        </extensions>
      </trkpt>
      <trkpt lat="42.5993040762841701507568359375" lon="19.983877725899219512939453125">
        <ele>1222</ele>
        <time>2026-06-15T15:10:56.000Z</time>
        <extensions>
          <ns3:TrackPointExtension>
            <ns3:atemp>22.0</ns3:atemp>
          </ns3:TrackPointExtension>
        </extensions>
      </trkpt>
      <trkpt lat="42.5993040762841701507568359375" lon="19.983877725899219512939453125">
        <ele>1222</ele>
        <time>2026-06-15T15:10:57.000Z</time>
        <extensions>
          <ns3:TrackPointExtension>
            <ns3:atemp>22.0</ns3:atemp>
          </ns3:TrackPointExtension>
        </extensions>
      </trkpt>
      <trkpt lat="42.5993040762841701507568359375" lon="19.983877725899219512939453125">
        <ele>1222</ele>
        <time>2026-06-15T15:10:58.000Z</time>
        <extensions>
          <ns3:TrackPointExtension>
            <ns3:atemp>22.0</ns3:atemp>
          </ns3:TrackPointExtension>
        </extensions>
      </trkpt>
      <trkpt lat="42.5993040762841701507568359375" lon="19.983877725899219512939453125">
        <ele>1222</ele>
        <time>2026-06-15T15:10:59.000Z</time>
        <extensions>
          <ns3:TrackPointExtension>
            <ns3:atemp>22.0</ns3:atemp>
          </ns3:TrackPointExtension>
        </extensions>
      </trkpt>
      <trkpt lat="42.5993040762841701507568359375" lon="19.983877725899219512939453125">
        <ele>1222</ele>
        <time>2026-06-15T15:11:00.000Z</time>
        <extensions>
          <ns3:TrackPointExtension>
            <ns3:atemp>22.0</ns3:atemp>
          </ns3:TrackPointExtension>
        </extensions>
      </trkpt>
      <trkpt lat="42.5993040762841701507568359375" lon="19.983877725899219512939453125">
        <ele>1222</ele>
        <time>2026-06-15T15:11:01.000Z</time>
        <extensions>
          <ns3:TrackPointExtension>
            <ns3:atemp>22.0</ns3:atemp>
          </ns3:TrackPointExtension>
        </extensions>
      </trkpt>
      <trkpt lat="42.5993040762841701507568359375" lon="19.983877725899219512939453125">
        <ele>1222</ele>
        <time>2026-06-15T15:11:02.000Z</time>
        <extensions>
          <ns3:TrackPointExtension>
            <ns3:atemp>22.0</ns3:atemp>
          </ns3:TrackPointExtension>
        </extensions>
      </trkpt>
      <trkpt lat="42.5993040762841701507568359375" lon="19.983877725899219512939453125">
        <ele>1222</ele>
        <time>2026-06-15T15:11:03.000Z</time>
        <extensions>
          <ns3:TrackPointExtension>
            <ns3:atemp>22.0</ns3:atemp>
          </ns3:TrackPointExtension>
        </extensions>
      </trkpt>
      <trkpt lat="42.5993040762841701507568359375" lon="19.983877725899219512939453125">
        <ele>1222</ele>
        <time>2026-06-15T15:11:04.000Z</time>
        <extensions>
          <ns3:TrackPointExtension>
            <ns3:atemp>22.0</ns3:atemp>
          </ns3:TrackPointExtension>
        </extensions>
      </trkpt>
      <trkpt lat="42.5993040762841701507568359375" lon="19.983877725899219512939453125">
        <ele>1222</ele>
        <time>2026-06-15T15:11:05.000Z</time>
        <extensions>
          <ns3:TrackPointExtension>
            <ns3:atemp>22.0</ns3:atemp>
          </ns3:TrackPointExtension>
        </extensions>
      </trkpt>
      <trkpt lat="42.5993040762841701507568359375" lon="19.983877725899219512939453125">
        <ele>1222</ele>
        <time>2026-06-15T15:11:06.000Z</time>
        <extensions>
          <ns3:TrackPointExtension>
            <ns3:atemp>22.0</ns3:atemp>
          </ns3:TrackPointExtension>
        </extensions>
      </trkpt>
      <trkpt lat="42.5993040762841701507568359375" lon="19.983877725899219512939453125">
        <ele>1222</ele>
        <time>2026-06-15T15:11:07.000Z</time>
        <extensions>
          <ns3:TrackPointExtension>
            <ns3:atemp>22.0</ns3:atemp>
          </ns3:TrackPointExtension>
        </extensions>
      </trkpt>
      <trkpt lat="42.5993040762841701507568359375" lon="19.983877725899219512939453125">
        <ele>1222</ele>
        <time>2026-06-15T15:11:08.000Z</time>
        <extensions>
          <ns3:TrackPointExtension>
            <ns3:atemp>22.0</ns3:atemp>
          </ns3:TrackPointExtension>
        </extensions>
      </trkpt>
      <trkpt lat="42.5993040762841701507568359375" lon="19.983877725899219512939453125">
        <ele>1222</ele>
        <time>2026-06-15T15:11:09.000Z</time>
        <extensions>
          <ns3:TrackPointExtension>
            <ns3:atemp>22.0</ns3:atemp>
          </ns3:TrackPointExtension>
        </extensions>
      </trkpt>
      <trkpt lat="42.5993040762841701507568359375" lon="19.983877725899219512939453125">
        <ele>1222</ele>
        <time>2026-06-15T15:11:10.000Z</time>
        <extensions>
          <ns3:TrackPointExtension>
            <ns3:atemp>22.0</ns3:atemp>
          </ns3:TrackPointExtension>
        </extensions>
      </trkpt>
      <trkpt lat="42.5993040762841701507568359375" lon="19.983877725899219512939453125">
        <ele>1222</ele>
        <time>2026-06-15T15:11:11.000Z</time>
        <extensions>
          <ns3:TrackPointExtension>
            <ns3:atemp>22.0</ns3:atemp>
          </ns3:TrackPointExtension>
        </extensions>
      </trkpt>
      <trkpt lat="42.5993040762841701507568359375" lon="19.983877725899219512939453125">
        <ele>1222</ele>
        <time>2026-06-15T15:11:12.000Z</time>
        <extensions>
          <ns3:TrackPointExtension>
            <ns3:atemp>22.0</ns3:atemp>
          </ns3:TrackPointExtension>
        </extensions>
      </trkpt>
      <trkpt lat="42.5993040762841701507568359375" lon="19.983877725899219512939453125">
        <ele>1222</ele>
        <time>2026-06-15T15:11:13.000Z</time>
        <extensions>
          <ns3:TrackPointExtension>
            <ns3:atemp>22.0</ns3:atemp>
          </ns3:TrackPointExtension>
        </extensions>
      </trkpt>
      <trkpt lat="42.5993040762841701507568359375" lon="19.983877725899219512939453125">
        <ele>1222</ele>
        <time>2026-06-15T15:11:14.000Z</time>
        <extensions>
          <ns3:TrackPointExtension>
            <ns3:atemp>22.0</ns3:atemp>
          </ns3:TrackPointExtension>
        </extensions>
      </trkpt>
      <trkpt lat="42.5993040762841701507568359375" lon="19.983877725899219512939453125">
        <ele>1222</ele>
        <time>2026-06-15T15:11:15.000Z</time>
        <extensions>
          <ns3:TrackPointExtension>
            <ns3:atemp>22.0</ns3:atemp>
          </ns3:TrackPointExtension>
        </extensions>
      </trkpt>
      <trkpt lat="42.5993040762841701507568359375" lon="19.983877725899219512939453125">
        <ele>1222</ele>
        <time>2026-06-15T15:11:16.000Z</time>
        <extensions>
          <ns3:TrackPointExtension>
            <ns3:atemp>22.0</ns3:atemp>
          </ns3:TrackPointExtension>
        </extensions>
      </trkpt>
      <trkpt lat="42.5993040762841701507568359375" lon="19.983877725899219512939453125">
        <ele>1222</ele>
        <time>2026-06-15T15:11:17.000Z</time>
        <extensions>
          <ns3:TrackPointExtension>
            <ns3:atemp>22.0</ns3:atemp>
          </ns3:TrackPointExtension>
        </extensions>
      </trkpt>
      <trkpt lat="42.5993040762841701507568359375" lon="19.983877725899219512939453125">
        <ele>1222</ele>
        <time>2026-06-15T15:11:18.000Z</time>
        <extensions>
          <ns3:TrackPointExtension>
            <ns3:atemp>22.0</ns3:atemp>
          </ns3:TrackPointExtension>
        </extensions>
      </trkpt>
      <trkpt lat="42.5993040762841701507568359375" lon="19.983877725899219512939453125">
        <ele>1221.800048828125</ele>
        <time>2026-06-15T15:11:19.000Z</time>
        <extensions>
          <ns3:TrackPointExtension>
            <ns3:atemp>22.0</ns3:atemp>
          </ns3:TrackPointExtension>
        </extensions>
      </trkpt>
      <trkpt lat="42.5993040762841701507568359375" lon="19.983877725899219512939453125">
        <ele>1221.800048828125</ele>
        <time>2026-06-15T15:11:20.000Z</time>
        <extensions>
          <ns3:TrackPointExtension>
            <ns3:atemp>22.0</ns3:atemp>
          </ns3:TrackPointExtension>
        </extensions>
      </trkpt>
      <trkpt lat="42.5993040762841701507568359375" lon="19.983877725899219512939453125">
        <ele>1221.800048828125</ele>
        <time>2026-06-15T15:11:21.000Z</time>
        <extensions>
          <ns3:TrackPointExtension>
            <ns3:atemp>22.0</ns3:atemp>
          </ns3:TrackPointExtension>
        </extensions>
      </trkpt>
      <trkpt lat="42.5993040762841701507568359375" lon="19.983877725899219512939453125">
        <ele>1221.800048828125</ele>
        <time>2026-06-15T15:11:22.000Z</time>
        <extensions>
          <ns3:TrackPointExtension>
            <ns3:atemp>22.0</ns3:atemp>
          </ns3:TrackPointExtension>
        </extensions>
      </trkpt>
      <trkpt lat="42.5993040762841701507568359375" lon="19.983877725899219512939453125">
        <ele>1221.800048828125</ele>
        <time>2026-06-15T15:11:23.000Z</time>
        <extensions>
          <ns3:TrackPointExtension>
            <ns3:atemp>22.0</ns3:atemp>
          </ns3:TrackPointExtension>
        </extensions>
      </trkpt>
      <trkpt lat="42.5993040762841701507568359375" lon="19.983877725899219512939453125">
        <ele>1221.800048828125</ele>
        <time>2026-06-15T15:11:24.000Z</time>
        <extensions>
          <ns3:TrackPointExtension>
            <ns3:atemp>22.0</ns3:atemp>
          </ns3:TrackPointExtension>
        </extensions>
      </trkpt>
      <trkpt lat="42.5993040762841701507568359375" lon="19.983877725899219512939453125">
        <ele>1221.800048828125</ele>
        <time>2026-06-15T15:11:25.000Z</time>
        <extensions>
          <ns3:TrackPointExtension>
            <ns3:atemp>22.0</ns3:atemp>
          </ns3:TrackPointExtension>
        </extensions>
      </trkpt>
      <trkpt lat="42.5993040762841701507568359375" lon="19.983877725899219512939453125">
        <ele>1221.800048828125</ele>
        <time>2026-06-15T15:11:26.000Z</time>
        <extensions>
          <ns3:TrackPointExtension>
            <ns3:atemp>22.0</ns3:atemp>
          </ns3:TrackPointExtension>
        </extensions>
      </trkpt>
      <trkpt lat="42.5993040762841701507568359375" lon="19.983877725899219512939453125">
        <ele>1221.800048828125</ele>
        <time>2026-06-15T15:11:27.000Z</time>
        <extensions>
          <ns3:TrackPointExtension>
            <ns3:atemp>22.0</ns3:atemp>
          </ns3:TrackPointExtension>
        </extensions>
      </trkpt>
      <trkpt lat="42.5993040762841701507568359375" lon="19.983877725899219512939453125">
        <ele>1221.800048828125</ele>
        <time>2026-06-15T15:11:28.000Z</time>
        <extensions>
          <ns3:TrackPointExtension>
            <ns3:atemp>22.0</ns3:atemp>
          </ns3:TrackPointExtension>
        </extensions>
      </trkpt>
      <trkpt lat="42.5993040762841701507568359375" lon="19.983877725899219512939453125">
        <ele>1221.800048828125</ele>
        <time>2026-06-15T15:11:29.000Z</time>
        <extensions>
          <ns3:TrackPointExtension>
            <ns3:atemp>22.0</ns3:atemp>
          </ns3:TrackPointExtension>
        </extensions>
      </trkpt>
      <trkpt lat="42.5993040762841701507568359375" lon="19.983877725899219512939453125">
        <ele>1221.800048828125</ele>
        <time>2026-06-15T15:11:30.000Z</time>
        <extensions>
          <ns3:TrackPointExtension>
            <ns3:atemp>22.0</ns3:atemp>
          </ns3:TrackPointExtension>
        </extensions>
      </trkpt>
      <trkpt lat="42.5993040762841701507568359375" lon="19.983877725899219512939453125">
        <ele>1221.800048828125</ele>
        <time>2026-06-15T15:11:31.000Z</time>
        <extensions>
          <ns3:TrackPointExtension>
            <ns3:atemp>22.0</ns3:atemp>
          </ns3:TrackPointExtension>
        </extensions>
      </trkpt>
      <trkpt lat="42.5993040762841701507568359375" lon="19.983877725899219512939453125">
        <ele>1221.800048828125</ele>
        <time>2026-06-15T15:11:32.000Z</time>
        <extensions>
          <ns3:TrackPointExtension>
            <ns3:atemp>22.0</ns3:atemp>
          </ns3:TrackPointExtension>
        </extensions>
      </trkpt>
      <trkpt lat="42.5993040762841701507568359375" lon="19.983877725899219512939453125">
        <ele>1221.5999755859375</ele>
        <time>2026-06-15T15:11:33.000Z</time>
        <extensions>
          <ns3:TrackPointExtension>
            <ns3:atemp>22.0</ns3:atemp>
          </ns3:TrackPointExtension>
        </extensions>
      </trkpt>
      <trkpt lat="42.5993040762841701507568359375" lon="19.983877725899219512939453125">
        <ele>1221.5999755859375</ele>
        <time>2026-06-15T15:11:34.000Z</time>
        <extensions>
          <ns3:TrackPointExtension>
            <ns3:atemp>22.0</ns3:atemp>
          </ns3:TrackPointExtension>
        </extensions>
      </trkpt>
      <trkpt lat="42.5993040762841701507568359375" lon="19.983877725899219512939453125">
        <ele>1221.5999755859375</ele>
        <time>2026-06-15T15:11:35.000Z</time>
        <extensions>
          <ns3:TrackPointExtension>
            <ns3:atemp>22.0</ns3:atemp>
          </ns3:TrackPointExtension>
        </extensions>
      </trkpt>
      <trkpt lat="42.5993040762841701507568359375" lon="19.983877725899219512939453125">
        <ele>1221.5999755859375</ele>
        <time>2026-06-15T15:11:36.000Z</time>
        <extensions>
          <ns3:TrackPointExtension>
            <ns3:atemp>22.0</ns3:atemp>
          </ns3:TrackPointExtension>
        </extensions>
      </trkpt>
      <trkpt lat="42.5993040762841701507568359375" lon="19.983877725899219512939453125">
        <ele>1221.5999755859375</ele>
        <time>2026-06-15T15:11:37.000Z</time>
        <extensions>
          <ns3:TrackPointExtension>
            <ns3:atemp>22.0</ns3:atemp>
          </ns3:TrackPointExtension>
        </extensions>
      </trkpt>
      <trkpt lat="42.5993040762841701507568359375" lon="19.983877725899219512939453125">
        <ele>1221.5999755859375</ele>
        <time>2026-06-15T15:11:38.000Z</time>
        <extensions>
          <ns3:TrackPointExtension>
            <ns3:atemp>22.0</ns3:atemp>
          </ns3:TrackPointExtension>
        </extensions>
      </trkpt>
      <trkpt lat="42.5993040762841701507568359375" lon="19.983877725899219512939453125">
        <ele>1221.5999755859375</ele>
        <time>2026-06-15T15:11:39.000Z</time>
        <extensions>
          <ns3:TrackPointExtension>
            <ns3:atemp>22.0</ns3:atemp>
          </ns3:TrackPointExtension>
        </extensions>
      </trkpt>
      <trkpt lat="42.5993040762841701507568359375" lon="19.983877725899219512939453125">
        <ele>1221.5999755859375</ele>
        <time>2026-06-15T15:11:40.000Z</time>
        <extensions>
          <ns3:TrackPointExtension>
            <ns3:atemp>22.0</ns3:atemp>
          </ns3:TrackPointExtension>
        </extensions>
      </trkpt>
      <trkpt lat="42.5993040762841701507568359375" lon="19.983877725899219512939453125">
        <ele>1221.5999755859375</ele>
        <time>2026-06-15T15:11:41.000Z</time>
        <extensions>
          <ns3:TrackPointExtension>
            <ns3:atemp>22.0</ns3:atemp>
          </ns3:TrackPointExtension>
        </extensions>
      </trkpt>
      <trkpt lat="42.5993040762841701507568359375" lon="19.983877725899219512939453125">
        <ele>1221.5999755859375</ele>
        <time>2026-06-15T15:11:42.000Z</time>
        <extensions>
          <ns3:TrackPointExtension>
            <ns3:atemp>22.0</ns3:atemp>
          </ns3:TrackPointExtension>
        </extensions>
      </trkpt>
      <trkpt lat="42.5993040762841701507568359375" lon="19.983877725899219512939453125">
        <ele>1221.800048828125</ele>
        <time>2026-06-15T15:11:43.000Z</time>
        <extensions>
          <ns3:TrackPointExtension>
            <ns3:atemp>22.0</ns3:atemp>
          </ns3:TrackPointExtension>
        </extensions>
      </trkpt>
      <trkpt lat="42.5993040762841701507568359375" lon="19.983877725899219512939453125">
        <ele>1221.5999755859375</ele>
        <time>2026-06-15T15:11:44.000Z</time>
        <extensions>
          <ns3:TrackPointExtension>
            <ns3:atemp>22.0</ns3:atemp>
          </ns3:TrackPointExtension>
        </extensions>
      </trkpt>
      <trkpt lat="42.5993040762841701507568359375" lon="19.983877725899219512939453125">
        <ele>1221.5999755859375</ele>
        <time>2026-06-15T15:11:45.000Z</time>
        <extensions>
          <ns3:TrackPointExtension>
            <ns3:atemp>22.0</ns3:atemp>
          </ns3:TrackPointExtension>
        </extensions>
      </trkpt>
      <trkpt lat="42.5993040762841701507568359375" lon="19.983877725899219512939453125">
        <ele>1221.5999755859375</ele>
        <time>2026-06-15T15:11:46.000Z</time>
        <extensions>
          <ns3:TrackPointExtension>
            <ns3:atemp>22.0</ns3:atemp>
          </ns3:TrackPointExtension>
        </extensions>
      </trkpt>
      <trkpt lat="42.5993040762841701507568359375" lon="19.983877725899219512939453125">
        <ele>1221.5999755859375</ele>
        <time>2026-06-15T15:11:47.000Z</time>
        <extensions>
          <ns3:TrackPointExtension>
            <ns3:atemp>22.0</ns3:atemp>
          </ns3:TrackPointExtension>
        </extensions>
      </trkpt>
      <trkpt lat="42.5993040762841701507568359375" lon="19.983877725899219512939453125">
        <ele>1221.5999755859375</ele>
        <time>2026-06-15T15:11:48.000Z</time>
        <extensions>
          <ns3:TrackPointExtension>
            <ns3:atemp>22.0</ns3:atemp>
          </ns3:TrackPointExtension>
        </extensions>
      </trkpt>
      <trkpt lat="42.5993040762841701507568359375" lon="19.983877725899219512939453125">
        <ele>1221.5999755859375</ele>
        <time>2026-06-15T15:11:49.000Z</time>
        <extensions>
          <ns3:TrackPointExtension>
            <ns3:atemp>22.0</ns3:atemp>
          </ns3:TrackPointExtension>
        </extensions>
      </trkpt>
      <trkpt lat="42.5993040762841701507568359375" lon="19.983877725899219512939453125">
        <ele>1221.5999755859375</ele>
        <time>2026-06-15T15:11:50.000Z</time>
        <extensions>
          <ns3:TrackPointExtension>
            <ns3:atemp>22.0</ns3:atemp>
          </ns3:TrackPointExtension>
        </extensions>
      </trkpt>
      <trkpt lat="42.5993040762841701507568359375" lon="19.983877725899219512939453125">
        <ele>1221.5999755859375</ele>
        <time>2026-06-15T15:11:51.000Z</time>
        <extensions>
          <ns3:TrackPointExtension>
            <ns3:atemp>22.0</ns3:atemp>
          </ns3:TrackPointExtension>
        </extensions>
      </trkpt>
      <trkpt lat="42.5993040762841701507568359375" lon="19.983877725899219512939453125">
        <ele>1221.5999755859375</ele>
        <time>2026-06-15T15:11:52.000Z</time>
        <extensions>
          <ns3:TrackPointExtension>
            <ns3:atemp>22.0</ns3:atemp>
          </ns3:TrackPointExtension>
        </extensions>
      </trkpt>
      <trkpt lat="42.5993040762841701507568359375" lon="19.983877725899219512939453125">
        <ele>1221.800048828125</ele>
        <time>2026-06-15T15:11:53.000Z</time>
        <extensions>
          <ns3:TrackPointExtension>
            <ns3:atemp>22.0</ns3:atemp>
          </ns3:TrackPointExtension>
        </extensions>
      </trkpt>
      <trkpt lat="42.5993040762841701507568359375" lon="19.983877725899219512939453125">
        <ele>1221.800048828125</ele>
        <time>2026-06-15T15:11:54.000Z</time>
        <extensions>
          <ns3:TrackPointExtension>
            <ns3:atemp>22.0</ns3:atemp>
          </ns3:TrackPointExtension>
        </extensions>
      </trkpt>
      <trkpt lat="42.5993040762841701507568359375" lon="19.983877725899219512939453125">
        <ele>1221.800048828125</ele>
        <time>2026-06-15T15:11:55.000Z</time>
        <extensions>
          <ns3:TrackPointExtension>
            <ns3:atemp>22.0</ns3:atemp>
          </ns3:TrackPointExtension>
        </extensions>
      </trkpt>
      <trkpt lat="42.5993040762841701507568359375" lon="19.983877725899219512939453125">
        <ele>1221.800048828125</ele>
        <time>2026-06-15T15:11:56.000Z</time>
        <extensions>
          <ns3:TrackPointExtension>
            <ns3:atemp>22.0</ns3:atemp>
          </ns3:TrackPointExtension>
        </extensions>
      </trkpt>
      <trkpt lat="42.5993040762841701507568359375" lon="19.983877725899219512939453125">
        <ele>1222</ele>
        <time>2026-06-15T15:11:57.000Z</time>
        <extensions>
          <ns3:TrackPointExtension>
            <ns3:atemp>22.0</ns3:atemp>
          </ns3:TrackPointExtension>
        </extensions>
      </trkpt>
      <trkpt lat="42.5993040762841701507568359375" lon="19.983877725899219512939453125">
        <ele>1222</ele>
        <time>2026-06-15T15:11:58.000Z</time>
        <extensions>
          <ns3:TrackPointExtension>
            <ns3:atemp>22.0</ns3:atemp>
          </ns3:TrackPointExtension>
        </extensions>
      </trkpt>
      <trkpt lat="42.5993040762841701507568359375" lon="19.983877725899219512939453125">
        <ele>1222</ele>
        <time>2026-06-15T15:11:59.000Z</time>
        <extensions>
          <ns3:TrackPointExtension>
            <ns3:atemp>22.0</ns3:atemp>
          </ns3:TrackPointExtension>
        </extensions>
      </trkpt>
      <trkpt lat="42.5993040762841701507568359375" lon="19.983877725899219512939453125">
        <ele>1222</ele>
        <time>2026-06-15T15:12:00.000Z</time>
        <extensions>
          <ns3:TrackPointExtension>
            <ns3:atemp>22.0</ns3:atemp>
          </ns3:TrackPointExtension>
        </extensions>
      </trkpt>
      <trkpt lat="42.5993040762841701507568359375" lon="19.983877725899219512939453125">
        <ele>1222</ele>
        <time>2026-06-15T15:12:01.000Z</time>
        <extensions>
          <ns3:TrackPointExtension>
            <ns3:atemp>22.0</ns3:atemp>
          </ns3:TrackPointExtension>
        </extensions>
      </trkpt>
      <trkpt lat="42.5993040762841701507568359375" lon="19.983877725899219512939453125">
        <ele>1222</ele>
        <time>2026-06-15T15:12:02.000Z</time>
        <extensions>
          <ns3:TrackPointExtension>
            <ns3:atemp>22.0</ns3:atemp>
          </ns3:TrackPointExtension>
        </extensions>
      </trkpt>
      <trkpt lat="42.5993040762841701507568359375" lon="19.983877725899219512939453125">
        <ele>1222</ele>
        <time>2026-06-15T15:12:03.000Z</time>
        <extensions>
          <ns3:TrackPointExtension>
            <ns3:atemp>22.0</ns3:atemp>
          </ns3:TrackPointExtension>
        </extensions>
      </trkpt>
      <trkpt lat="42.5993040762841701507568359375" lon="19.983877725899219512939453125">
        <ele>1222</ele>
        <time>2026-06-15T15:12:04.000Z</time>
        <extensions>
          <ns3:TrackPointExtension>
            <ns3:atemp>22.0</ns3:atemp>
          </ns3:TrackPointExtension>
        </extensions>
      </trkpt>
      <trkpt lat="42.5993040762841701507568359375" lon="19.983877725899219512939453125">
        <ele>1222</ele>
        <time>2026-06-15T15:12:05.000Z</time>
        <extensions>
          <ns3:TrackPointExtension>
            <ns3:atemp>22.0</ns3:atemp>
          </ns3:TrackPointExtension>
        </extensions>
      </trkpt>
      <trkpt lat="42.5993040762841701507568359375" lon="19.983877725899219512939453125">
        <ele>1222</ele>
        <time>2026-06-15T15:12:06.000Z</time>
        <extensions>
          <ns3:TrackPointExtension>
            <ns3:atemp>22.0</ns3:atemp>
          </ns3:TrackPointExtension>
        </extensions>
      </trkpt>
      <trkpt lat="42.5993040762841701507568359375" lon="19.983877725899219512939453125">
        <ele>1222</ele>
        <time>2026-06-15T15:12:07.000Z</time>
        <extensions>
          <ns3:TrackPointExtension>
            <ns3:atemp>22.0</ns3:atemp>
          </ns3:TrackPointExtension>
        </extensions>
      </trkpt>
      <trkpt lat="42.5993040762841701507568359375" lon="19.983877725899219512939453125">
        <ele>1222</ele>
        <time>2026-06-15T15:12:08.000Z</time>
        <extensions>
          <ns3:TrackPointExtension>
            <ns3:atemp>22.0</ns3:atemp>
          </ns3:TrackPointExtension>
        </extensions>
      </trkpt>
      <trkpt lat="42.5993040762841701507568359375" lon="19.983877725899219512939453125">
        <ele>1222</ele>
        <time>2026-06-15T15:12:09.000Z</time>
        <extensions>
          <ns3:TrackPointExtension>
            <ns3:atemp>22.0</ns3:atemp>
          </ns3:TrackPointExtension>
        </extensions>
      </trkpt>
      <trkpt lat="42.5993040762841701507568359375" lon="19.983877725899219512939453125">
        <ele>1222</ele>
        <time>2026-06-15T15:12:10.000Z</time>
        <extensions>
          <ns3:TrackPointExtension>
            <ns3:atemp>22.0</ns3:atemp>
          </ns3:TrackPointExtension>
        </extensions>
      </trkpt>
      <trkpt lat="42.5993040762841701507568359375" lon="19.983877725899219512939453125">
        <ele>1222</ele>
        <time>2026-06-15T15:12:11.000Z</time>
        <extensions>
          <ns3:TrackPointExtension>
            <ns3:atemp>22.0</ns3:atemp>
          </ns3:TrackPointExtension>
        </extensions>
      </trkpt>
      <trkpt lat="42.5993040762841701507568359375" lon="19.983877725899219512939453125">
        <ele>1222</ele>
        <time>2026-06-15T15:12:12.000Z</time>
        <extensions>
          <ns3:TrackPointExtension>
            <ns3:atemp>22.0</ns3:atemp>
          </ns3:TrackPointExtension>
        </extensions>
      </trkpt>
      <trkpt lat="42.5993040762841701507568359375" lon="19.983877725899219512939453125">
        <ele>1222</ele>
        <time>2026-06-15T15:12:13.000Z</time>
        <extensions>
          <ns3:TrackPointExtension>
            <ns3:atemp>22.0</ns3:atemp>
          </ns3:TrackPointExtension>
        </extensions>
      </trkpt>
      <trkpt lat="42.5993040762841701507568359375" lon="19.983877725899219512939453125">
        <ele>1222</ele>
        <time>2026-06-15T15:12:14.000Z</time>
        <extensions>
          <ns3:TrackPointExtension>
            <ns3:atemp>22.0</ns3:atemp>
          </ns3:TrackPointExtension>
        </extensions>
      </trkpt>
      <trkpt lat="42.5993040762841701507568359375" lon="19.983877725899219512939453125">
        <ele>1222</ele>
        <time>2026-06-15T15:12:15.000Z</time>
        <extensions>
          <ns3:TrackPointExtension>
            <ns3:atemp>22.0</ns3:atemp>
          </ns3:TrackPointExtension>
        </extensions>
      </trkpt>
      <trkpt lat="42.5993040762841701507568359375" lon="19.983877725899219512939453125">
        <ele>1222</ele>
        <time>2026-06-15T15:12:16.000Z</time>
        <extensions>
          <ns3:TrackPointExtension>
            <ns3:atemp>22.0</ns3:atemp>
          </ns3:TrackPointExtension>
        </extensions>
      </trkpt>
      <trkpt lat="42.5993040762841701507568359375" lon="19.983877725899219512939453125">
        <ele>1222</ele>
        <time>2026-06-15T15:12:17.000Z</time>
        <extensions>
          <ns3:TrackPointExtension>
            <ns3:atemp>22.0</ns3:atemp>
          </ns3:TrackPointExtension>
        </extensions>
      </trkpt>
      <trkpt lat="42.5993040762841701507568359375" lon="19.983877725899219512939453125">
        <ele>1222</ele>
        <time>2026-06-15T15:12:18.000Z</time>
        <extensions>
          <ns3:TrackPointExtension>
            <ns3:atemp>22.0</ns3:atemp>
          </ns3:TrackPointExtension>
        </extensions>
      </trkpt>
      <trkpt lat="42.5993040762841701507568359375" lon="19.983877725899219512939453125">
        <ele>1222</ele>
        <time>2026-06-15T15:12:19.000Z</time>
        <extensions>
          <ns3:TrackPointExtension>
            <ns3:atemp>22.0</ns3:atemp>
          </ns3:TrackPointExtension>
        </extensions>
      </trkpt>
      <trkpt lat="42.5993040762841701507568359375" lon="19.983877725899219512939453125">
        <ele>1222</ele>
        <time>2026-06-15T15:12:20.000Z</time>
        <extensions>
          <ns3:TrackPointExtension>
            <ns3:atemp>22.0</ns3:atemp>
          </ns3:TrackPointExtension>
        </extensions>
      </trkpt>
      <trkpt lat="42.5993040762841701507568359375" lon="19.983877725899219512939453125">
        <ele>1222</ele>
        <time>2026-06-15T15:12:21.000Z</time>
        <extensions>
          <ns3:TrackPointExtension>
            <ns3:atemp>22.0</ns3:atemp>
          </ns3:TrackPointExtension>
        </extensions>
      </trkpt>
      <trkpt lat="42.5993040762841701507568359375" lon="19.983877725899219512939453125">
        <ele>1222</ele>
        <time>2026-06-15T15:12:22.000Z</time>
        <extensions>
          <ns3:TrackPointExtension>
            <ns3:atemp>22.0</ns3:atemp>
          </ns3:TrackPointExtension>
        </extensions>
      </trkpt>
      <trkpt lat="42.5993040762841701507568359375" lon="19.983877725899219512939453125">
        <ele>1222</ele>
        <time>2026-06-15T15:12:23.000Z</time>
        <extensions>
          <ns3:TrackPointExtension>
            <ns3:atemp>22.0</ns3:atemp>
          </ns3:TrackPointExtension>
        </extensions>
      </trkpt>
      <trkpt lat="42.5993040762841701507568359375" lon="19.983877725899219512939453125">
        <ele>1222</ele>
        <time>2026-06-15T15:12:24.000Z</time>
        <extensions>
          <ns3:TrackPointExtension>
            <ns3:atemp>22.0</ns3:atemp>
          </ns3:TrackPointExtension>
        </extensions>
      </trkpt>
      <trkpt lat="42.5993040762841701507568359375" lon="19.983877725899219512939453125">
        <ele>1222</ele>
        <time>2026-06-15T15:12:25.000Z</time>
        <extensions>
          <ns3:TrackPointExtension>
            <ns3:atemp>22.0</ns3:atemp>
          </ns3:TrackPointExtension>
        </extensions>
      </trkpt>
      <trkpt lat="42.5993040762841701507568359375" lon="19.983877725899219512939453125">
        <ele>1222</ele>
        <time>2026-06-15T15:12:26.000Z</time>
        <extensions>
          <ns3:TrackPointExtension>
            <ns3:atemp>22.0</ns3:atemp>
          </ns3:TrackPointExtension>
        </extensions>
      </trkpt>
      <trkpt lat="42.5993040762841701507568359375" lon="19.983877725899219512939453125">
        <ele>1222</ele>
        <time>2026-06-15T15:12:27.000Z</time>
        <extensions>
          <ns3:TrackPointExtension>
            <ns3:atemp>22.0</ns3:atemp>
          </ns3:TrackPointExtension>
        </extensions>
      </trkpt>
      <trkpt lat="42.5993040762841701507568359375" lon="19.983877725899219512939453125">
        <ele>1222</ele>
        <time>2026-06-15T15:12:28.000Z</time>
        <extensions>
          <ns3:TrackPointExtension>
            <ns3:atemp>22.0</ns3:atemp>
          </ns3:TrackPointExtension>
        </extensions>
      </trkpt>
      <trkpt lat="42.5993040762841701507568359375" lon="19.983877725899219512939453125">
        <ele>1222</ele>
        <time>2026-06-15T15:12:29.000Z</time>
        <extensions>
          <ns3:TrackPointExtension>
            <ns3:atemp>22.0</ns3:atemp>
          </ns3:TrackPointExtension>
        </extensions>
      </trkpt>
      <trkpt lat="42.5993040762841701507568359375" lon="19.983877725899219512939453125">
        <ele>1222</ele>
        <time>2026-06-15T15:12:30.000Z</time>
        <extensions>
          <ns3:TrackPointExtension>
            <ns3:atemp>22.0</ns3:atemp>
          </ns3:TrackPointExtension>
        </extensions>
      </trkpt>
      <trkpt lat="42.5993040762841701507568359375" lon="19.983877725899219512939453125">
        <ele>1222</ele>
        <time>2026-06-15T15:12:31.000Z</time>
        <extensions>
          <ns3:TrackPointExtension>
            <ns3:atemp>22.0</ns3:atemp>
          </ns3:TrackPointExtension>
        </extensions>
      </trkpt>
      <trkpt lat="42.5993040762841701507568359375" lon="19.983877725899219512939453125">
        <ele>1222</ele>
        <time>2026-06-15T15:12:32.000Z</time>
        <extensions>
          <ns3:TrackPointExtension>
            <ns3:atemp>22.0</ns3:atemp>
          </ns3:TrackPointExtension>
        </extensions>
      </trkpt>
      <trkpt lat="42.5993040762841701507568359375" lon="19.983877725899219512939453125">
        <ele>1222</ele>
        <time>2026-06-15T15:12:33.000Z</time>
        <extensions>
          <ns3:TrackPointExtension>
            <ns3:atemp>22.0</ns3:atemp>
          </ns3:TrackPointExtension>
        </extensions>
      </trkpt>
      <trkpt lat="42.5993040762841701507568359375" lon="19.983877725899219512939453125">
        <ele>1222</ele>
        <time>2026-06-15T15:12:34.000Z</time>
        <extensions>
          <ns3:TrackPointExtension>
            <ns3:atemp>22.0</ns3:atemp>
          </ns3:TrackPointExtension>
        </extensions>
      </trkpt>
      <trkpt lat="42.5993040762841701507568359375" lon="19.983877725899219512939453125">
        <ele>1222</ele>
        <time>2026-06-15T15:12:35.000Z</time>
        <extensions>
          <ns3:TrackPointExtension>
            <ns3:atemp>22.0</ns3:atemp>
          </ns3:TrackPointExtension>
        </extensions>
      </trkpt>
      <trkpt lat="42.5993040762841701507568359375" lon="19.983877725899219512939453125">
        <ele>1222</ele>
        <time>2026-06-15T15:12:36.000Z</time>
        <extensions>
          <ns3:TrackPointExtension>
            <ns3:atemp>22.0</ns3:atemp>
          </ns3:TrackPointExtension>
        </extensions>
      </trkpt>
      <trkpt lat="42.5993040762841701507568359375" lon="19.983877725899219512939453125">
        <ele>1222</ele>
        <time>2026-06-15T15:12:37.000Z</time>
        <extensions>
          <ns3:TrackPointExtension>
            <ns3:atemp>22.0</ns3:atemp>
          </ns3:TrackPointExtension>
        </extensions>
      </trkpt>
      <trkpt lat="42.5993040762841701507568359375" lon="19.983877725899219512939453125">
        <ele>1222</ele>
        <time>2026-06-15T15:12:38.000Z</time>
        <extensions>
          <ns3:TrackPointExtension>
            <ns3:atemp>22.0</ns3:atemp>
          </ns3:TrackPointExtension>
        </extensions>
      </trkpt>
      <trkpt lat="42.5993040762841701507568359375" lon="19.983877725899219512939453125">
        <ele>1222</ele>
        <time>2026-06-15T15:12:39.000Z</time>
        <extensions>
          <ns3:TrackPointExtension>
            <ns3:atemp>22.0</ns3:atemp>
          </ns3:TrackPointExtension>
        </extensions>
      </trkpt>
      <trkpt lat="42.5993040762841701507568359375" lon="19.983877725899219512939453125">
        <ele>1222</ele>
        <time>2026-06-15T15:12:40.000Z</time>
        <extensions>
          <ns3:TrackPointExtension>
            <ns3:atemp>22.0</ns3:atemp>
          </ns3:TrackPointExtension>
        </extensions>
      </trkpt>
      <trkpt lat="42.5993040762841701507568359375" lon="19.983877725899219512939453125">
        <ele>1222</ele>
        <time>2026-06-15T15:12:41.000Z</time>
        <extensions>
          <ns3:TrackPointExtension>
            <ns3:atemp>22.0</ns3:atemp>
          </ns3:TrackPointExtension>
        </extensions>
      </trkpt>
      <trkpt lat="42.5993040762841701507568359375" lon="19.983877725899219512939453125">
        <ele>1222</ele>
        <time>2026-06-15T15:12:42.000Z</time>
        <extensions>
          <ns3:TrackPointExtension>
            <ns3:atemp>22.0</ns3:atemp>
          </ns3:TrackPointExtension>
        </extensions>
      </trkpt>
      <trkpt lat="42.5993040762841701507568359375" lon="19.983877725899219512939453125">
        <ele>1222</ele>
        <time>2026-06-15T15:12:43.000Z</time>
        <extensions>
          <ns3:TrackPointExtension>
            <ns3:atemp>22.0</ns3:atemp>
          </ns3:TrackPointExtension>
        </extensions>
      </trkpt>
      <trkpt lat="42.5993040762841701507568359375" lon="19.983877725899219512939453125">
        <ele>1222</ele>
        <time>2026-06-15T15:12:44.000Z</time>
        <extensions>
          <ns3:TrackPointExtension>
            <ns3:atemp>22.0</ns3:atemp>
          </ns3:TrackPointExtension>
        </extensions>
      </trkpt>
      <trkpt lat="42.5993040762841701507568359375" lon="19.983877725899219512939453125">
        <ele>1222</ele>
        <time>2026-06-15T15:12:45.000Z</time>
        <extensions>
          <ns3:TrackPointExtension>
            <ns3:atemp>22.0</ns3:atemp>
          </ns3:TrackPointExtension>
        </extensions>
      </trkpt>
      <trkpt lat="42.5993040762841701507568359375" lon="19.983877725899219512939453125">
        <ele>1222</ele>
        <time>2026-06-15T15:12:46.000Z</time>
        <extensions>
          <ns3:TrackPointExtension>
            <ns3:atemp>22.0</ns3:atemp>
          </ns3:TrackPointExtension>
        </extensions>
      </trkpt>
      <trkpt lat="42.5993040762841701507568359375" lon="19.983877725899219512939453125">
        <ele>1222</ele>
        <time>2026-06-15T15:12:47.000Z</time>
        <extensions>
          <ns3:TrackPointExtension>
            <ns3:atemp>22.0</ns3:atemp>
          </ns3:TrackPointExtension>
        </extensions>
      </trkpt>
      <trkpt lat="42.5993040762841701507568359375" lon="19.983877725899219512939453125">
        <ele>1222</ele>
        <time>2026-06-15T15:12:48.000Z</time>
        <extensions>
          <ns3:TrackPointExtension>
            <ns3:atemp>22.0</ns3:atemp>
          </ns3:TrackPointExtension>
        </extensions>
      </trkpt>
      <trkpt lat="42.5993040762841701507568359375" lon="19.983877725899219512939453125">
        <ele>1222</ele>
        <time>2026-06-15T15:12:49.000Z</time>
        <extensions>
          <ns3:TrackPointExtension>
            <ns3:atemp>22.0</ns3:atemp>
          </ns3:TrackPointExtension>
        </extensions>
      </trkpt>
      <trkpt lat="42.5993040762841701507568359375" lon="19.983877725899219512939453125">
        <ele>1222</ele>
        <time>2026-06-15T15:12:50.000Z</time>
        <extensions>
          <ns3:TrackPointExtension>
            <ns3:atemp>22.0</ns3:atemp>
          </ns3:TrackPointExtension>
        </extensions>
      </trkpt>
      <trkpt lat="42.5993040762841701507568359375" lon="19.983877725899219512939453125">
        <ele>1222</ele>
        <time>2026-06-15T15:12:51.000Z</time>
        <extensions>
          <ns3:TrackPointExtension>
            <ns3:atemp>22.0</ns3:atemp>
          </ns3:TrackPointExtension>
        </extensions>
      </trkpt>
      <trkpt lat="42.5993040762841701507568359375" lon="19.983877725899219512939453125">
        <ele>1222</ele>
        <time>2026-06-15T15:12:52.000Z</time>
        <extensions>
          <ns3:TrackPointExtension>
            <ns3:atemp>22.0</ns3:atemp>
          </ns3:TrackPointExtension>
        </extensions>
      </trkpt>
      <trkpt lat="42.5993040762841701507568359375" lon="19.983877725899219512939453125">
        <ele>1222</ele>
        <time>2026-06-15T15:12:53.000Z</time>
        <extensions>
          <ns3:TrackPointExtension>
            <ns3:atemp>22.0</ns3:atemp>
          </ns3:TrackPointExtension>
        </extensions>
      </trkpt>
      <trkpt lat="42.5993040762841701507568359375" lon="19.983877725899219512939453125">
        <ele>1222</ele>
        <time>2026-06-15T15:12:54.000Z</time>
        <extensions>
          <ns3:TrackPointExtension>
            <ns3:atemp>22.0</ns3:atemp>
          </ns3:TrackPointExtension>
        </extensions>
      </trkpt>
      <trkpt lat="42.5993040762841701507568359375" lon="19.983877725899219512939453125">
        <ele>1222</ele>
        <time>2026-06-15T15:12:55.000Z</time>
        <extensions>
          <ns3:TrackPointExtension>
            <ns3:atemp>22.0</ns3:atemp>
          </ns3:TrackPointExtension>
        </extensions>
      </trkpt>
      <trkpt lat="42.5993040762841701507568359375" lon="19.983877725899219512939453125">
        <ele>1222</ele>
        <time>2026-06-15T15:12:56.000Z</time>
        <extensions>
          <ns3:TrackPointExtension>
            <ns3:atemp>22.0</ns3:atemp>
          </ns3:TrackPointExtension>
        </extensions>
      </trkpt>
      <trkpt lat="42.5993040762841701507568359375" lon="19.983877725899219512939453125">
        <ele>1222</ele>
        <time>2026-06-15T15:12:57.000Z</time>
        <extensions>
          <ns3:TrackPointExtension>
            <ns3:atemp>22.0</ns3:atemp>
          </ns3:TrackPointExtension>
        </extensions>
      </trkpt>
      <trkpt lat="42.5993040762841701507568359375" lon="19.983877725899219512939453125">
        <ele>1222</ele>
        <time>2026-06-15T15:12:58.000Z</time>
        <extensions>
          <ns3:TrackPointExtension>
            <ns3:atemp>22.0</ns3:atemp>
          </ns3:TrackPointExtension>
        </extensions>
      </trkpt>
      <trkpt lat="42.5993040762841701507568359375" lon="19.983877725899219512939453125">
        <ele>1222</ele>
        <time>2026-06-15T15:12:59.000Z</time>
        <extensions>
          <ns3:TrackPointExtension>
            <ns3:atemp>22.0</ns3:atemp>
          </ns3:TrackPointExtension>
        </extensions>
      </trkpt>
      <trkpt lat="42.5993040762841701507568359375" lon="19.983877725899219512939453125">
        <ele>1222</ele>
        <time>2026-06-15T15:13:00.000Z</time>
        <extensions>
          <ns3:TrackPointExtension>
            <ns3:atemp>22.0</ns3:atemp>
          </ns3:TrackPointExtension>
        </extensions>
      </trkpt>
      <trkpt lat="42.5993040762841701507568359375" lon="19.983877725899219512939453125">
        <ele>1222</ele>
        <time>2026-06-15T15:13:01.000Z</time>
        <extensions>
          <ns3:TrackPointExtension>
            <ns3:atemp>22.0</ns3:atemp>
          </ns3:TrackPointExtension>
        </extensions>
      </trkpt>
      <trkpt lat="42.5993040762841701507568359375" lon="19.983877725899219512939453125">
        <ele>1222</ele>
        <time>2026-06-15T15:13:02.000Z</time>
        <extensions>
          <ns3:TrackPointExtension>
            <ns3:atemp>22.0</ns3:atemp>
          </ns3:TrackPointExtension>
        </extensions>
      </trkpt>
      <trkpt lat="42.5993040762841701507568359375" lon="19.983877725899219512939453125">
        <ele>1222</ele>
        <time>2026-06-15T15:13:03.000Z</time>
        <extensions>
          <ns3:TrackPointExtension>
            <ns3:atemp>22.0</ns3:atemp>
          </ns3:TrackPointExtension>
        </extensions>
      </trkpt>
      <trkpt lat="42.5993040762841701507568359375" lon="19.983877725899219512939453125">
        <ele>1222</ele>
        <time>2026-06-15T15:13:04.000Z</time>
        <extensions>
          <ns3:TrackPointExtension>
            <ns3:atemp>22.0</ns3:atemp>
          </ns3:TrackPointExtension>
        </extensions>
      </trkpt>
      <trkpt lat="42.5993040762841701507568359375" lon="19.983877725899219512939453125">
        <ele>1222</ele>
        <time>2026-06-15T15:13:05.000Z</time>
        <extensions>
          <ns3:TrackPointExtension>
            <ns3:atemp>22.0</ns3:atemp>
          </ns3:TrackPointExtension>
        </extensions>
      </trkpt>
      <trkpt lat="42.5993040762841701507568359375" lon="19.983877725899219512939453125">
        <ele>1222</ele>
        <time>2026-06-15T15:13:06.000Z</time>
        <extensions>
          <ns3:TrackPointExtension>
            <ns3:atemp>22.0</ns3:atemp>
          </ns3:TrackPointExtension>
        </extensions>
      </trkpt>
      <trkpt lat="42.5993040762841701507568359375" lon="19.983877725899219512939453125">
        <ele>1222</ele>
        <time>2026-06-15T15:13:07.000Z</time>
        <extensions>
          <ns3:TrackPointExtension>
            <ns3:atemp>22.0</ns3:atemp>
          </ns3:TrackPointExtension>
        </extensions>
      </trkpt>
      <trkpt lat="42.5993040762841701507568359375" lon="19.983877725899219512939453125">
        <ele>1222</ele>
        <time>2026-06-15T15:13:08.000Z</time>
        <extensions>
          <ns3:TrackPointExtension>
            <ns3:atemp>22.0</ns3:atemp>
          </ns3:TrackPointExtension>
        </extensions>
      </trkpt>
      <trkpt lat="42.5993040762841701507568359375" lon="19.983877725899219512939453125">
        <ele>1222</ele>
        <time>2026-06-15T15:13:09.000Z</time>
        <extensions>
          <ns3:TrackPointExtension>
            <ns3:atemp>22.0</ns3:atemp>
          </ns3:TrackPointExtension>
        </extensions>
      </trkpt>
      <trkpt lat="42.5993040762841701507568359375" lon="19.983877725899219512939453125">
        <ele>1222</ele>
        <time>2026-06-15T15:13:10.000Z</time>
        <extensions>
          <ns3:TrackPointExtension>
            <ns3:atemp>22.0</ns3:atemp>
          </ns3:TrackPointExtension>
        </extensions>
      </trkpt>
      <trkpt lat="42.5993040762841701507568359375" lon="19.983877725899219512939453125">
        <ele>1222</ele>
        <time>2026-06-15T15:13:11.000Z</time>
        <extensions>
          <ns3:TrackPointExtension>
            <ns3:atemp>22.0</ns3:atemp>
          </ns3:TrackPointExtension>
        </extensions>
      </trkpt>
      <trkpt lat="42.5993040762841701507568359375" lon="19.983877725899219512939453125">
        <ele>1222</ele>
        <time>2026-06-15T15:13:12.000Z</time>
        <extensions>
          <ns3:TrackPointExtension>
            <ns3:atemp>22.0</ns3:atemp>
          </ns3:TrackPointExtension>
        </extensions>
      </trkpt>
      <trkpt lat="42.5993040762841701507568359375" lon="19.983877725899219512939453125">
        <ele>1222</ele>
        <time>2026-06-15T15:13:13.000Z</time>
        <extensions>
          <ns3:TrackPointExtension>
            <ns3:atemp>22.0</ns3:atemp>
          </ns3:TrackPointExtension>
        </extensions>
      </trkpt>
      <trkpt lat="42.5993040762841701507568359375" lon="19.983877725899219512939453125">
        <ele>1222</ele>
        <time>2026-06-15T15:13:14.000Z</time>
        <extensions>
          <ns3:TrackPointExtension>
            <ns3:atemp>22.0</ns3:atemp>
          </ns3:TrackPointExtension>
        </extensions>
      </trkpt>
      <trkpt lat="42.5993040762841701507568359375" lon="19.983877725899219512939453125">
        <ele>1222</ele>
        <time>2026-06-15T15:13:15.000Z</time>
        <extensions>
          <ns3:TrackPointExtension>
            <ns3:atemp>22.0</ns3:atemp>
          </ns3:TrackPointExtension>
        </extensions>
      </trkpt>
      <trkpt lat="42.5993040762841701507568359375" lon="19.983877725899219512939453125">
        <ele>1222</ele>
        <time>2026-06-15T15:13:16.000Z</time>
        <extensions>
          <ns3:TrackPointExtension>
            <ns3:atemp>22.0</ns3:atemp>
          </ns3:TrackPointExtension>
        </extensions>
      </trkpt>
      <trkpt lat="42.5993040762841701507568359375" lon="19.983877725899219512939453125">
        <ele>1222</ele>
        <time>2026-06-15T15:13:17.000Z</time>
        <extensions>
          <ns3:TrackPointExtension>
            <ns3:atemp>22.0</ns3:atemp>
          </ns3:TrackPointExtension>
        </extensions>
      </trkpt>
      <trkpt lat="42.5993040762841701507568359375" lon="19.983877725899219512939453125">
        <ele>1222</ele>
        <time>2026-06-15T15:13:18.000Z</time>
        <extensions>
          <ns3:TrackPointExtension>
            <ns3:atemp>22.0</ns3:atemp>
          </ns3:TrackPointExtension>
        </extensions>
      </trkpt>
      <trkpt lat="42.5993040762841701507568359375" lon="19.983877725899219512939453125">
        <ele>1222</ele>
        <time>2026-06-15T15:13:19.000Z</time>
        <extensions>
          <ns3:TrackPointExtension>
            <ns3:atemp>22.0</ns3:atemp>
          </ns3:TrackPointExtension>
        </extensions>
      </trkpt>
      <trkpt lat="42.5993040762841701507568359375" lon="19.983877725899219512939453125">
        <ele>1222</ele>
        <time>2026-06-15T15:13:20.000Z</time>
        <extensions>
          <ns3:TrackPointExtension>
            <ns3:atemp>22.0</ns3:atemp>
          </ns3:TrackPointExtension>
        </extensions>
      </trkpt>
      <trkpt lat="42.5993040762841701507568359375" lon="19.983877725899219512939453125">
        <ele>1222</ele>
        <time>2026-06-15T15:13:21.000Z</time>
        <extensions>
          <ns3:TrackPointExtension>
            <ns3:atemp>22.0</ns3:atemp>
          </ns3:TrackPointExtension>
        </extensions>
      </trkpt>
      <trkpt lat="42.5993040762841701507568359375" lon="19.983877725899219512939453125">
        <ele>1222</ele>
        <time>2026-06-15T15:13:22.000Z</time>
        <extensions>
          <ns3:TrackPointExtension>
            <ns3:atemp>22.0</ns3:atemp>
          </ns3:TrackPointExtension>
        </extensions>
      </trkpt>
      <trkpt lat="42.5993040762841701507568359375" lon="19.983877725899219512939453125">
        <ele>1222</ele>
        <time>2026-06-15T15:13:23.000Z</time>
        <extensions>
          <ns3:TrackPointExtension>
            <ns3:atemp>22.0</ns3:atemp>
          </ns3:TrackPointExtension>
        </extensions>
      </trkpt>
      <trkpt lat="42.5993040762841701507568359375" lon="19.983877725899219512939453125">
        <ele>1222</ele>
        <time>2026-06-15T15:13:24.000Z</time>
        <extensions>
          <ns3:TrackPointExtension>
            <ns3:atemp>22.0</ns3:atemp>
          </ns3:TrackPointExtension>
        </extensions>
      </trkpt>
      <trkpt lat="42.5993040762841701507568359375" lon="19.983877725899219512939453125">
        <ele>1222</ele>
        <time>2026-06-15T15:13:25.000Z</time>
        <extensions>
          <ns3:TrackPointExtension>
            <ns3:atemp>22.0</ns3:atemp>
          </ns3:TrackPointExtension>
        </extensions>
      </trkpt>
      <trkpt lat="42.5993040762841701507568359375" lon="19.983877725899219512939453125">
        <ele>1222</ele>
        <time>2026-06-15T15:13:26.000Z</time>
        <extensions>
          <ns3:TrackPointExtension>
            <ns3:atemp>22.0</ns3:atemp>
          </ns3:TrackPointExtension>
        </extensions>
      </trkpt>
      <trkpt lat="42.5993040762841701507568359375" lon="19.983877725899219512939453125">
        <ele>1222</ele>
        <time>2026-06-15T15:13:27.000Z</time>
        <extensions>
          <ns3:TrackPointExtension>
            <ns3:atemp>22.0</ns3:atemp>
          </ns3:TrackPointExtension>
        </extensions>
      </trkpt>
      <trkpt lat="42.5993040762841701507568359375" lon="19.983877725899219512939453125">
        <ele>1222</ele>
        <time>2026-06-15T15:13:28.000Z</time>
        <extensions>
          <ns3:TrackPointExtension>
            <ns3:atemp>22.0</ns3:atemp>
          </ns3:TrackPointExtension>
        </extensions>
      </trkpt>
      <trkpt lat="42.5993040762841701507568359375" lon="19.983877725899219512939453125">
        <ele>1222</ele>
        <time>2026-06-15T15:13:29.000Z</time>
        <extensions>
          <ns3:TrackPointExtension>
            <ns3:atemp>22.0</ns3:atemp>
          </ns3:TrackPointExtension>
        </extensions>
      </trkpt>
      <trkpt lat="42.5993040762841701507568359375" lon="19.983877725899219512939453125">
        <ele>1222</ele>
        <time>2026-06-15T15:13:30.000Z</time>
        <extensions>
          <ns3:TrackPointExtension>
            <ns3:atemp>22.0</ns3:atemp>
          </ns3:TrackPointExtension>
        </extensions>
      </trkpt>
      <trkpt lat="42.5993040762841701507568359375" lon="19.983877725899219512939453125">
        <ele>1222</ele>
        <time>2026-06-15T15:13:31.000Z</time>
        <extensions>
          <ns3:TrackPointExtension>
            <ns3:atemp>22.0</ns3:atemp>
          </ns3:TrackPointExtension>
        </extensions>
      </trkpt>
      <trkpt lat="42.5993040762841701507568359375" lon="19.983877725899219512939453125">
        <ele>1222</ele>
        <time>2026-06-15T15:13:32.000Z</time>
        <extensions>
          <ns3:TrackPointExtension>
            <ns3:atemp>22.0</ns3:atemp>
          </ns3:TrackPointExtension>
        </extensions>
      </trkpt>
      <trkpt lat="42.5993040762841701507568359375" lon="19.983877725899219512939453125">
        <ele>1222</ele>
        <time>2026-06-15T15:13:33.000Z</time>
        <extensions>
          <ns3:TrackPointExtension>
            <ns3:atemp>22.0</ns3:atemp>
          </ns3:TrackPointExtension>
        </extensions>
      </trkpt>
      <trkpt lat="42.5993040762841701507568359375" lon="19.983877725899219512939453125">
        <ele>1222</ele>
        <time>2026-06-15T15:13:34.000Z</time>
        <extensions>
          <ns3:TrackPointExtension>
            <ns3:atemp>22.0</ns3:atemp>
          </ns3:TrackPointExtension>
        </extensions>
      </trkpt>
      <trkpt lat="42.5993040762841701507568359375" lon="19.983877725899219512939453125">
        <ele>1222</ele>
        <time>2026-06-15T15:13:35.000Z</time>
        <extensions>
          <ns3:TrackPointExtension>
            <ns3:atemp>22.0</ns3:atemp>
          </ns3:TrackPointExtension>
        </extensions>
      </trkpt>
      <trkpt lat="42.5993040762841701507568359375" lon="19.983877725899219512939453125">
        <ele>1222</ele>
        <time>2026-06-15T15:13:36.000Z</time>
        <extensions>
          <ns3:TrackPointExtension>
            <ns3:atemp>22.0</ns3:atemp>
          </ns3:TrackPointExtension>
        </extensions>
      </trkpt>
      <trkpt lat="42.5993040762841701507568359375" lon="19.983877725899219512939453125">
        <ele>1222</ele>
        <time>2026-06-15T15:13:37.000Z</time>
        <extensions>
          <ns3:TrackPointExtension>
            <ns3:atemp>22.0</ns3:atemp>
          </ns3:TrackPointExtension>
        </extensions>
      </trkpt>
      <trkpt lat="42.5993040762841701507568359375" lon="19.983877725899219512939453125">
        <ele>1222</ele>
        <time>2026-06-15T15:13:38.000Z</time>
        <extensions>
          <ns3:TrackPointExtension>
            <ns3:atemp>22.0</ns3:atemp>
          </ns3:TrackPointExtension>
        </extensions>
      </trkpt>
      <trkpt lat="42.5993040762841701507568359375" lon="19.983877725899219512939453125">
        <ele>1222</ele>
        <time>2026-06-15T15:13:39.000Z</time>
        <extensions>
          <ns3:TrackPointExtension>
            <ns3:atemp>22.0</ns3:atemp>
          </ns3:TrackPointExtension>
        </extensions>
      </trkpt>
      <trkpt lat="42.5993040762841701507568359375" lon="19.983877725899219512939453125">
        <ele>1222</ele>
        <time>2026-06-15T15:13:40.000Z</time>
        <extensions>
          <ns3:TrackPointExtension>
            <ns3:atemp>22.0</ns3:atemp>
          </ns3:TrackPointExtension>
        </extensions>
      </trkpt>
      <trkpt lat="42.5993040762841701507568359375" lon="19.983877725899219512939453125">
        <ele>1222</ele>
        <time>2026-06-15T15:13:41.000Z</time>
        <extensions>
          <ns3:TrackPointExtension>
            <ns3:atemp>22.0</ns3:atemp>
          </ns3:TrackPointExtension>
        </extensions>
      </trkpt>
      <trkpt lat="42.5993040762841701507568359375" lon="19.983877725899219512939453125">
        <ele>1222</ele>
        <time>2026-06-15T15:13:42.000Z</time>
        <extensions>
          <ns3:TrackPointExtension>
            <ns3:atemp>22.0</ns3:atemp>
          </ns3:TrackPointExtension>
        </extensions>
      </trkpt>
      <trkpt lat="42.5993040762841701507568359375" lon="19.983877725899219512939453125">
        <ele>1222</ele>
        <time>2026-06-15T15:13:43.000Z</time>
        <extensions>
          <ns3:TrackPointExtension>
            <ns3:atemp>22.0</ns3:atemp>
          </ns3:TrackPointExtension>
        </extensions>
      </trkpt>
      <trkpt lat="42.5993040762841701507568359375" lon="19.983877725899219512939453125">
        <ele>1222</ele>
        <time>2026-06-15T15:13:44.000Z</time>
        <extensions>
          <ns3:TrackPointExtension>
            <ns3:atemp>22.0</ns3:atemp>
          </ns3:TrackPointExtension>
        </extensions>
      </trkpt>
      <trkpt lat="42.5993040762841701507568359375" lon="19.983877725899219512939453125">
        <ele>1222</ele>
        <time>2026-06-15T15:13:45.000Z</time>
        <extensions>
          <ns3:TrackPointExtension>
            <ns3:atemp>22.0</ns3:atemp>
          </ns3:TrackPointExtension>
        </extensions>
      </trkpt>
      <trkpt lat="42.5993040762841701507568359375" lon="19.983877725899219512939453125">
        <ele>1222</ele>
        <time>2026-06-15T15:13:46.000Z</time>
        <extensions>
          <ns3:TrackPointExtension>
            <ns3:atemp>22.0</ns3:atemp>
          </ns3:TrackPointExtension>
        </extensions>
      </trkpt>
      <trkpt lat="42.5993040762841701507568359375" lon="19.983877725899219512939453125">
        <ele>1222</ele>
        <time>2026-06-15T15:13:47.000Z</time>
        <extensions>
          <ns3:TrackPointExtension>
            <ns3:atemp>22.0</ns3:atemp>
          </ns3:TrackPointExtension>
        </extensions>
      </trkpt>
      <trkpt lat="42.5993040762841701507568359375" lon="19.983877725899219512939453125">
        <ele>1222</ele>
        <time>2026-06-15T15:13:48.000Z</time>
        <extensions>
          <ns3:TrackPointExtension>
            <ns3:atemp>22.0</ns3:atemp>
          </ns3:TrackPointExtension>
        </extensions>
      </trkpt>
      <trkpt lat="42.5993040762841701507568359375" lon="19.983877725899219512939453125">
        <ele>1222</ele>
        <time>2026-06-15T15:13:49.000Z</time>
        <extensions>
          <ns3:TrackPointExtension>
            <ns3:atemp>22.0</ns3:atemp>
          </ns3:TrackPointExtension>
        </extensions>
      </trkpt>
      <trkpt lat="42.5993040762841701507568359375" lon="19.983877725899219512939453125">
        <ele>1222</ele>
        <time>2026-06-15T15:13:50.000Z</time>
        <extensions>
          <ns3:TrackPointExtension>
            <ns3:atemp>22.0</ns3:atemp>
          </ns3:TrackPointExtension>
        </extensions>
      </trkpt>
      <trkpt lat="42.5993040762841701507568359375" lon="19.983877725899219512939453125">
        <ele>1222</ele>
        <time>2026-06-15T15:13:51.000Z</time>
        <extensions>
          <ns3:TrackPointExtension>
            <ns3:atemp>22.0</ns3:atemp>
          </ns3:TrackPointExtension>
        </extensions>
      </trkpt>
      <trkpt lat="42.5993040762841701507568359375" lon="19.983877725899219512939453125">
        <ele>1222</ele>
        <time>2026-06-15T15:13:52.000Z</time>
        <extensions>
          <ns3:TrackPointExtension>
            <ns3:atemp>22.0</ns3:atemp>
          </ns3:TrackPointExtension>
        </extensions>
      </trkpt>
      <trkpt lat="42.5993040762841701507568359375" lon="19.983877725899219512939453125">
        <ele>1222</ele>
        <time>2026-06-15T15:13:53.000Z</time>
        <extensions>
          <ns3:TrackPointExtension>
            <ns3:atemp>22.0</ns3:atemp>
          </ns3:TrackPointExtension>
        </extensions>
      </trkpt>
      <trkpt lat="42.5993040762841701507568359375" lon="19.983877725899219512939453125">
        <ele>1222</ele>
        <time>2026-06-15T15:13:54.000Z</time>
        <extensions>
          <ns3:TrackPointExtension>
            <ns3:atemp>22.0</ns3:atemp>
          </ns3:TrackPointExtension>
        </extensions>
      </trkpt>
      <trkpt lat="42.5993040762841701507568359375" lon="19.983877725899219512939453125">
        <ele>1222</ele>
        <time>2026-06-15T15:13:55.000Z</time>
        <extensions>
          <ns3:TrackPointExtension>
            <ns3:atemp>22.0</ns3:atemp>
          </ns3:TrackPointExtension>
        </extensions>
      </trkpt>
      <trkpt lat="42.5993040762841701507568359375" lon="19.983877725899219512939453125">
        <ele>1222</ele>
        <time>2026-06-15T15:13:56.000Z</time>
        <extensions>
          <ns3:TrackPointExtension>
            <ns3:atemp>22.0</ns3:atemp>
          </ns3:TrackPointExtension>
        </extensions>
      </trkpt>
      <trkpt lat="42.5993040762841701507568359375" lon="19.983877725899219512939453125">
        <ele>1222</ele>
        <time>2026-06-15T15:13:57.000Z</time>
        <extensions>
          <ns3:TrackPointExtension>
            <ns3:atemp>22.0</ns3:atemp>
          </ns3:TrackPointExtension>
        </extensions>
      </trkpt>
      <trkpt lat="42.5993040762841701507568359375" lon="19.983877725899219512939453125">
        <ele>1222</ele>
        <time>2026-06-15T15:13:58.000Z</time>
        <extensions>
          <ns3:TrackPointExtension>
            <ns3:atemp>22.0</ns3:atemp>
          </ns3:TrackPointExtension>
        </extensions>
      </trkpt>
      <trkpt lat="42.5993040762841701507568359375" lon="19.983877725899219512939453125">
        <ele>1222</ele>
        <time>2026-06-15T15:13:59.000Z</time>
        <extensions>
          <ns3:TrackPointExtension>
            <ns3:atemp>22.0</ns3:atemp>
          </ns3:TrackPointExtension>
        </extensions>
      </trkpt>
      <trkpt lat="42.5993040762841701507568359375" lon="19.983877725899219512939453125">
        <ele>1222</ele>
        <time>2026-06-15T15:14:00.000Z</time>
        <extensions>
          <ns3:TrackPointExtension>
            <ns3:atemp>22.0</ns3:atemp>
          </ns3:TrackPointExtension>
        </extensions>
      </trkpt>
      <trkpt lat="42.5993040762841701507568359375" lon="19.983877725899219512939453125">
        <ele>1222</ele>
        <time>2026-06-15T15:14:01.000Z</time>
        <extensions>
          <ns3:TrackPointExtension>
            <ns3:atemp>22.0</ns3:atemp>
          </ns3:TrackPointExtension>
        </extensions>
      </trkpt>
      <trkpt lat="42.5993040762841701507568359375" lon="19.983877725899219512939453125">
        <ele>1222</ele>
        <time>2026-06-15T15:14:02.000Z</time>
        <extensions>
          <ns3:TrackPointExtension>
            <ns3:atemp>22.0</ns3:atemp>
          </ns3:TrackPointExtension>
        </extensions>
      </trkpt>
      <trkpt lat="42.5993040762841701507568359375" lon="19.983877725899219512939453125">
        <ele>1222</ele>
        <time>2026-06-15T15:14:03.000Z</time>
        <extensions>
          <ns3:TrackPointExtension>
            <ns3:atemp>22.0</ns3:atemp>
          </ns3:TrackPointExtension>
        </extensions>
      </trkpt>
      <trkpt lat="42.5993040762841701507568359375" lon="19.983877725899219512939453125">
        <ele>1222</ele>
        <time>2026-06-15T15:14:04.000Z</time>
        <extensions>
          <ns3:TrackPointExtension>
            <ns3:atemp>22.0</ns3:atemp>
          </ns3:TrackPointExtension>
        </extensions>
      </trkpt>
      <trkpt lat="42.5993040762841701507568359375" lon="19.983877725899219512939453125">
        <ele>1222</ele>
        <time>2026-06-15T15:14:05.000Z</time>
        <extensions>
          <ns3:TrackPointExtension>
            <ns3:atemp>22.0</ns3:atemp>
          </ns3:TrackPointExtension>
        </extensions>
      </trkpt>
      <trkpt lat="42.5993040762841701507568359375" lon="19.983877725899219512939453125">
        <ele>1222</ele>
        <time>2026-06-15T15:14:06.000Z</time>
        <extensions>
          <ns3:TrackPointExtension>
            <ns3:atemp>22.0</ns3:atemp>
          </ns3:TrackPointExtension>
        </extensions>
      </trkpt>
      <trkpt lat="42.5993040762841701507568359375" lon="19.983877725899219512939453125">
        <ele>1222</ele>
        <time>2026-06-15T15:14:07.000Z</time>
        <extensions>
          <ns3:TrackPointExtension>
            <ns3:atemp>22.0</ns3:atemp>
          </ns3:TrackPointExtension>
        </extensions>
      </trkpt>
      <trkpt lat="42.5993040762841701507568359375" lon="19.983877725899219512939453125">
        <ele>1222</ele>
        <time>2026-06-15T15:14:08.000Z</time>
        <extensions>
          <ns3:TrackPointExtension>
            <ns3:atemp>22.0</ns3:atemp>
          </ns3:TrackPointExtension>
        </extensions>
      </trkpt>
      <trkpt lat="42.5993040762841701507568359375" lon="19.983877725899219512939453125">
        <ele>1222</ele>
        <time>2026-06-15T15:14:09.000Z</time>
        <extensions>
          <ns3:TrackPointExtension>
            <ns3:atemp>22.0</ns3:atemp>
          </ns3:TrackPointExtension>
        </extensions>
      </trkpt>
      <trkpt lat="42.5993040762841701507568359375" lon="19.983877725899219512939453125">
        <ele>1222</ele>
        <time>2026-06-15T15:14:10.000Z</time>
        <extensions>
          <ns3:TrackPointExtension>
            <ns3:atemp>22.0</ns3:atemp>
          </ns3:TrackPointExtension>
        </extensions>
      </trkpt>
      <trkpt lat="42.5993040762841701507568359375" lon="19.983877725899219512939453125">
        <ele>1222</ele>
        <time>2026-06-15T15:14:11.000Z</time>
        <extensions>
          <ns3:TrackPointExtension>
            <ns3:atemp>22.0</ns3:atemp>
          </ns3:TrackPointExtension>
        </extensions>
      </trkpt>
      <trkpt lat="42.5993040762841701507568359375" lon="19.983877725899219512939453125">
        <ele>1222</ele>
        <time>2026-06-15T15:14:12.000Z</time>
        <extensions>
          <ns3:TrackPointExtension>
            <ns3:atemp>22.0</ns3:atemp>
          </ns3:TrackPointExtension>
        </extensions>
      </trkpt>
      <trkpt lat="42.5993040762841701507568359375" lon="19.983877725899219512939453125">
        <ele>1222</ele>
        <time>2026-06-15T15:14:13.000Z</time>
        <extensions>
          <ns3:TrackPointExtension>
            <ns3:atemp>22.0</ns3:atemp>
          </ns3:TrackPointExtension>
        </extensions>
      </trkpt>
      <trkpt lat="42.5993040762841701507568359375" lon="19.983877725899219512939453125">
        <ele>1222</ele>
        <time>2026-06-15T15:14:14.000Z</time>
        <extensions>
          <ns3:TrackPointExtension>
            <ns3:atemp>22.0</ns3:atemp>
          </ns3:TrackPointExtension>
        </extensions>
      </trkpt>
      <trkpt lat="42.5993040762841701507568359375" lon="19.983877725899219512939453125">
        <ele>1222</ele>
        <time>2026-06-15T15:14:15.000Z</time>
        <extensions>
          <ns3:TrackPointExtension>
            <ns3:atemp>22.0</ns3:atemp>
          </ns3:TrackPointExtension>
        </extensions>
      </trkpt>
      <trkpt lat="42.5993040762841701507568359375" lon="19.983877725899219512939453125">
        <ele>1222</ele>
        <time>2026-06-15T15:14:16.000Z</time>
        <extensions>
          <ns3:TrackPointExtension>
            <ns3:atemp>22.0</ns3:atemp>
          </ns3:TrackPointExtension>
        </extensions>
      </trkpt>
      <trkpt lat="42.5993040762841701507568359375" lon="19.983877725899219512939453125">
        <ele>1222</ele>
        <time>2026-06-15T15:14:17.000Z</time>
        <extensions>
          <ns3:TrackPointExtension>
            <ns3:atemp>22.0</ns3:atemp>
          </ns3:TrackPointExtension>
        </extensions>
      </trkpt>
      <trkpt lat="42.5993040762841701507568359375" lon="19.983877725899219512939453125">
        <ele>1222</ele>
        <time>2026-06-15T15:14:18.000Z</time>
        <extensions>
          <ns3:TrackPointExtension>
            <ns3:atemp>22.0</ns3:atemp>
          </ns3:TrackPointExtension>
        </extensions>
      </trkpt>
      <trkpt lat="42.5993040762841701507568359375" lon="19.983877725899219512939453125">
        <ele>1222</ele>
        <time>2026-06-15T15:14:19.000Z</time>
        <extensions>
          <ns3:TrackPointExtension>
            <ns3:atemp>22.0</ns3:atemp>
          </ns3:TrackPointExtension>
        </extensions>
      </trkpt>
      <trkpt lat="42.5993040762841701507568359375" lon="19.983877725899219512939453125">
        <ele>1222</ele>
        <time>2026-06-15T15:14:20.000Z</time>
        <extensions>
          <ns3:TrackPointExtension>
            <ns3:atemp>22.0</ns3:atemp>
          </ns3:TrackPointExtension>
        </extensions>
      </trkpt>
      <trkpt lat="42.5993040762841701507568359375" lon="19.983877725899219512939453125">
        <ele>1222</ele>
        <time>2026-06-15T15:14:21.000Z</time>
        <extensions>
          <ns3:TrackPointExtension>
            <ns3:atemp>22.0</ns3:atemp>
          </ns3:TrackPointExtension>
        </extensions>
      </trkpt>
      <trkpt lat="42.5993040762841701507568359375" lon="19.983877725899219512939453125">
        <ele>1222</ele>
        <time>2026-06-15T15:14:22.000Z</time>
        <extensions>
          <ns3:TrackPointExtension>
            <ns3:atemp>22.0</ns3:atemp>
          </ns3:TrackPointExtension>
        </extensions>
      </trkpt>
      <trkpt lat="42.5993040762841701507568359375" lon="19.983877725899219512939453125">
        <ele>1222</ele>
        <time>2026-06-15T15:14:23.000Z</time>
        <extensions>
          <ns3:TrackPointExtension>
            <ns3:atemp>22.0</ns3:atemp>
          </ns3:TrackPointExtension>
        </extensions>
      </trkpt>
      <trkpt lat="42.5993040762841701507568359375" lon="19.983877725899219512939453125">
        <ele>1222</ele>
        <time>2026-06-15T15:14:24.000Z</time>
        <extensions>
          <ns3:TrackPointExtension>
            <ns3:atemp>22.0</ns3:atemp>
          </ns3:TrackPointExtension>
        </extensions>
      </trkpt>
      <trkpt lat="42.5993040762841701507568359375" lon="19.983877725899219512939453125">
        <ele>1222</ele>
        <time>2026-06-15T15:14:25.000Z</time>
        <extensions>
          <ns3:TrackPointExtension>
            <ns3:atemp>22.0</ns3:atemp>
          </ns3:TrackPointExtension>
        </extensions>
      </trkpt>
      <trkpt lat="42.5993040762841701507568359375" lon="19.983877725899219512939453125">
        <ele>1222</ele>
        <time>2026-06-15T15:14:26.000Z</time>
        <extensions>
          <ns3:TrackPointExtension>
            <ns3:atemp>22.0</ns3:atemp>
          </ns3:TrackPointExtension>
        </extensions>
      </trkpt>
      <trkpt lat="42.5993040762841701507568359375" lon="19.983877725899219512939453125">
        <ele>1222</ele>
        <time>2026-06-15T15:14:27.000Z</time>
        <extensions>
          <ns3:TrackPointExtension>
            <ns3:atemp>22.0</ns3:atemp>
          </ns3:TrackPointExtension>
        </extensions>
      </trkpt>
      <trkpt lat="42.5993040762841701507568359375" lon="19.983877725899219512939453125">
        <ele>1222</ele>
        <time>2026-06-15T15:14:28.000Z</time>
        <extensions>
          <ns3:TrackPointExtension>
            <ns3:atemp>22.0</ns3:atemp>
          </ns3:TrackPointExtension>
        </extensions>
      </trkpt>
      <trkpt lat="42.5993040762841701507568359375" lon="19.983877725899219512939453125">
        <ele>1222</ele>
        <time>2026-06-15T15:14:29.000Z</time>
        <extensions>
          <ns3:TrackPointExtension>
            <ns3:atemp>22.0</ns3:atemp>
          </ns3:TrackPointExtension>
        </extensions>
      </trkpt>
      <trkpt lat="42.5993040762841701507568359375" lon="19.983877725899219512939453125">
        <ele>1222</ele>
        <time>2026-06-15T15:14:30.000Z</time>
        <extensions>
          <ns3:TrackPointExtension>
            <ns3:atemp>22.0</ns3:atemp>
          </ns3:TrackPointExtension>
        </extensions>
      </trkpt>
      <trkpt lat="42.5993040762841701507568359375" lon="19.983877725899219512939453125">
        <ele>1222</ele>
        <time>2026-06-15T15:14:31.000Z</time>
        <extensions>
          <ns3:TrackPointExtension>
            <ns3:atemp>22.0</ns3:atemp>
          </ns3:TrackPointExtension>
        </extensions>
      </trkpt>
      <trkpt lat="42.5993040762841701507568359375" lon="19.983877725899219512939453125">
        <ele>1222</ele>
        <time>2026-06-15T15:14:32.000Z</time>
        <extensions>
          <ns3:TrackPointExtension>
            <ns3:atemp>22.0</ns3:atemp>
          </ns3:TrackPointExtension>
        </extensions>
      </trkpt>
      <trkpt lat="42.5993040762841701507568359375" lon="19.983877725899219512939453125">
        <ele>1222</ele>
        <time>2026-06-15T15:14:33.000Z</time>
        <extensions>
          <ns3:TrackPointExtension>
            <ns3:atemp>22.0</ns3:atemp>
          </ns3:TrackPointExtension>
        </extensions>
      </trkpt>
      <trkpt lat="42.5993040762841701507568359375" lon="19.983877725899219512939453125">
        <ele>1222</ele>
        <time>2026-06-15T15:14:34.000Z</time>
        <extensions>
          <ns3:TrackPointExtension>
            <ns3:atemp>22.0</ns3:atemp>
          </ns3:TrackPointExtension>
        </extensions>
      </trkpt>
      <trkpt lat="42.5993040762841701507568359375" lon="19.983877725899219512939453125">
        <ele>1222</ele>
        <time>2026-06-15T15:14:35.000Z</time>
        <extensions>
          <ns3:TrackPointExtension>
            <ns3:atemp>22.0</ns3:atemp>
          </ns3:TrackPointExtension>
        </extensions>
      </trkpt>
      <trkpt lat="42.5993040762841701507568359375" lon="19.983877725899219512939453125">
        <ele>1222</ele>
        <time>2026-06-15T15:14:36.000Z</time>
        <extensions>
          <ns3:TrackPointExtension>
            <ns3:atemp>22.0</ns3:atemp>
          </ns3:TrackPointExtension>
        </extensions>
      </trkpt>
      <trkpt lat="42.5993040762841701507568359375" lon="19.983877725899219512939453125">
        <ele>1222</ele>
        <time>2026-06-15T15:14:37.000Z</time>
        <extensions>
          <ns3:TrackPointExtension>
            <ns3:atemp>22.0</ns3:atemp>
          </ns3:TrackPointExtension>
        </extensions>
      </trkpt>
      <trkpt lat="42.5993040762841701507568359375" lon="19.983877725899219512939453125">
        <ele>1222</ele>
        <time>2026-06-15T15:14:38.000Z</time>
        <extensions>
          <ns3:TrackPointExtension>
            <ns3:atemp>22.0</ns3:atemp>
          </ns3:TrackPointExtension>
        </extensions>
      </trkpt>
      <trkpt lat="42.5993040762841701507568359375" lon="19.983877725899219512939453125">
        <ele>1222</ele>
        <time>2026-06-15T15:14:39.000Z</time>
        <extensions>
          <ns3:TrackPointExtension>
            <ns3:atemp>22.0</ns3:atemp>
          </ns3:TrackPointExtension>
        </extensions>
      </trkpt>
      <trkpt lat="42.5993040762841701507568359375" lon="19.983877725899219512939453125">
        <ele>1222</ele>
        <time>2026-06-15T15:14:40.000Z</time>
        <extensions>
          <ns3:TrackPointExtension>
            <ns3:atemp>22.0</ns3:atemp>
          </ns3:TrackPointExtension>
        </extensions>
      </trkpt>
      <trkpt lat="42.5993040762841701507568359375" lon="19.983877725899219512939453125">
        <ele>1222</ele>
        <time>2026-06-15T15:14:41.000Z</time>
        <extensions>
          <ns3:TrackPointExtension>
            <ns3:atemp>22.0</ns3:atemp>
          </ns3:TrackPointExtension>
        </extensions>
      </trkpt>
      <trkpt lat="42.5993040762841701507568359375" lon="19.983877725899219512939453125">
        <ele>1222</ele>
        <time>2026-06-15T15:14:42.000Z</time>
        <extensions>
          <ns3:TrackPointExtension>
            <ns3:atemp>22.0</ns3:atemp>
          </ns3:TrackPointExtension>
        </extensions>
      </trkpt>
      <trkpt lat="42.5993040762841701507568359375" lon="19.983877725899219512939453125">
        <ele>1222</ele>
        <time>2026-06-15T15:14:43.000Z</time>
        <extensions>
          <ns3:TrackPointExtension>
            <ns3:atemp>22.0</ns3:atemp>
          </ns3:TrackPointExtension>
        </extensions>
      </trkpt>
      <trkpt lat="42.5993040762841701507568359375" lon="19.983877725899219512939453125">
        <ele>1222</ele>
        <time>2026-06-15T15:14:44.000Z</time>
        <extensions>
          <ns3:TrackPointExtension>
            <ns3:atemp>22.0</ns3:atemp>
          </ns3:TrackPointExtension>
        </extensions>
      </trkpt>
      <trkpt lat="42.5993040762841701507568359375" lon="19.983877725899219512939453125">
        <ele>1222</ele>
        <time>2026-06-15T15:14:45.000Z</time>
        <extensions>
          <ns3:TrackPointExtension>
            <ns3:atemp>22.0</ns3:atemp>
          </ns3:TrackPointExtension>
        </extensions>
      </trkpt>
      <trkpt lat="42.5993040762841701507568359375" lon="19.983877725899219512939453125">
        <ele>1222</ele>
        <time>2026-06-15T15:14:46.000Z</time>
        <extensions>
          <ns3:TrackPointExtension>
            <ns3:atemp>22.0</ns3:atemp>
          </ns3:TrackPointExtension>
        </extensions>
      </trkpt>
      <trkpt lat="42.5993040762841701507568359375" lon="19.983877725899219512939453125">
        <ele>1222</ele>
        <time>2026-06-15T15:14:47.000Z</time>
        <extensions>
          <ns3:TrackPointExtension>
            <ns3:atemp>22.0</ns3:atemp>
          </ns3:TrackPointExtension>
        </extensions>
      </trkpt>
      <trkpt lat="42.5993040762841701507568359375" lon="19.983877725899219512939453125">
        <ele>1222</ele>
        <time>2026-06-15T15:14:48.000Z</time>
        <extensions>
          <ns3:TrackPointExtension>
            <ns3:atemp>22.0</ns3:atemp>
          </ns3:TrackPointExtension>
        </extensions>
      </trkpt>
      <trkpt lat="42.5993040762841701507568359375" lon="19.983877725899219512939453125">
        <ele>1222</ele>
        <time>2026-06-15T15:14:49.000Z</time>
        <extensions>
          <ns3:TrackPointExtension>
            <ns3:atemp>22.0</ns3:atemp>
          </ns3:TrackPointExtension>
        </extensions>
      </trkpt>
      <trkpt lat="42.5993040762841701507568359375" lon="19.983877725899219512939453125">
        <ele>1222</ele>
        <time>2026-06-15T15:14:50.000Z</time>
        <extensions>
          <ns3:TrackPointExtension>
            <ns3:atemp>22.0</ns3:atemp>
          </ns3:TrackPointExtension>
        </extensions>
      </trkpt>
      <trkpt lat="42.5993040762841701507568359375" lon="19.983877725899219512939453125">
        <ele>1222</ele>
        <time>2026-06-15T15:14:51.000Z</time>
        <extensions>
          <ns3:TrackPointExtension>
            <ns3:atemp>21.0</ns3:atemp>
          </ns3:TrackPointExtension>
        </extensions>
      </trkpt>
      <trkpt lat="42.5993040762841701507568359375" lon="19.983877725899219512939453125">
        <ele>1222</ele>
        <time>2026-06-15T15:14:52.000Z</time>
        <extensions>
          <ns3:TrackPointExtension>
            <ns3:atemp>21.0</ns3:atemp>
          </ns3:TrackPointExtension>
        </extensions>
      </trkpt>
      <trkpt lat="42.5993040762841701507568359375" lon="19.983877725899219512939453125">
        <ele>1222</ele>
        <time>2026-06-15T15:14:53.000Z</time>
        <extensions>
          <ns3:TrackPointExtension>
            <ns3:atemp>21.0</ns3:atemp>
          </ns3:TrackPointExtension>
        </extensions>
      </trkpt>
      <trkpt lat="42.5993040762841701507568359375" lon="19.983877725899219512939453125">
        <ele>1222</ele>
        <time>2026-06-15T15:14:54.000Z</time>
        <extensions>
          <ns3:TrackPointExtension>
            <ns3:atemp>21.0</ns3:atemp>
          </ns3:TrackPointExtension>
        </extensions>
      </trkpt>
      <trkpt lat="42.5993040762841701507568359375" lon="19.983877725899219512939453125">
        <ele>1222</ele>
        <time>2026-06-15T15:14:55.000Z</time>
        <extensions>
          <ns3:TrackPointExtension>
            <ns3:atemp>21.0</ns3:atemp>
          </ns3:TrackPointExtension>
        </extensions>
      </trkpt>
      <trkpt lat="42.5993040762841701507568359375" lon="19.983877725899219512939453125">
        <ele>1222</ele>
        <time>2026-06-15T15:14:56.000Z</time>
        <extensions>
          <ns3:TrackPointExtension>
            <ns3:atemp>21.0</ns3:atemp>
          </ns3:TrackPointExtension>
        </extensions>
      </trkpt>
      <trkpt lat="42.5993040762841701507568359375" lon="19.983877725899219512939453125">
        <ele>1222</ele>
        <time>2026-06-15T15:14:57.000Z</time>
        <extensions>
          <ns3:TrackPointExtension>
            <ns3:atemp>21.0</ns3:atemp>
          </ns3:TrackPointExtension>
        </extensions>
      </trkpt>
      <trkpt lat="42.5993040762841701507568359375" lon="19.983877725899219512939453125">
        <ele>1222</ele>
        <time>2026-06-15T15:14:58.000Z</time>
        <extensions>
          <ns3:TrackPointExtension>
            <ns3:atemp>21.0</ns3:atemp>
          </ns3:TrackPointExtension>
        </extensions>
      </trkpt>
      <trkpt lat="42.5993040762841701507568359375" lon="19.983877725899219512939453125">
        <ele>1222</ele>
        <time>2026-06-15T15:14:59.000Z</time>
        <extensions>
          <ns3:TrackPointExtension>
            <ns3:atemp>21.0</ns3:atemp>
          </ns3:TrackPointExtension>
        </extensions>
      </trkpt>
      <trkpt lat="42.5993040762841701507568359375" lon="19.983877725899219512939453125">
        <ele>1222</ele>
        <time>2026-06-15T15:15:00.000Z</time>
        <extensions>
          <ns3:TrackPointExtension>
            <ns3:atemp>21.0</ns3:atemp>
          </ns3:TrackPointExtension>
        </extensions>
      </trkpt>
      <trkpt lat="42.5993040762841701507568359375" lon="19.983877725899219512939453125">
        <ele>1222</ele>
        <time>2026-06-15T15:15:01.000Z</time>
        <extensions>
          <ns3:TrackPointExtension>
            <ns3:atemp>21.0</ns3:atemp>
          </ns3:TrackPointExtension>
        </extensions>
      </trkpt>
      <trkpt lat="42.5993040762841701507568359375" lon="19.983877725899219512939453125">
        <ele>1222</ele>
        <time>2026-06-15T15:15:02.000Z</time>
        <extensions>
          <ns3:TrackPointExtension>
            <ns3:atemp>21.0</ns3:atemp>
          </ns3:TrackPointExtension>
        </extensions>
      </trkpt>
      <trkpt lat="42.5993040762841701507568359375" lon="19.983877725899219512939453125">
        <ele>1222</ele>
        <time>2026-06-15T15:15:03.000Z</time>
        <extensions>
          <ns3:TrackPointExtension>
            <ns3:atemp>21.0</ns3:atemp>
          </ns3:TrackPointExtension>
        </extensions>
      </trkpt>
      <trkpt lat="42.5993040762841701507568359375" lon="19.983877725899219512939453125">
        <ele>1222</ele>
        <time>2026-06-15T15:15:04.000Z</time>
        <extensions>
          <ns3:TrackPointExtension>
            <ns3:atemp>21.0</ns3:atemp>
          </ns3:TrackPointExtension>
        </extensions>
      </trkpt>
      <trkpt lat="42.5993040762841701507568359375" lon="19.983877725899219512939453125">
        <ele>1222</ele>
        <time>2026-06-15T15:15:05.000Z</time>
        <extensions>
          <ns3:TrackPointExtension>
            <ns3:atemp>21.0</ns3:atemp>
          </ns3:TrackPointExtension>
        </extensions>
      </trkpt>
      <trkpt lat="42.5993040762841701507568359375" lon="19.983877725899219512939453125">
        <ele>1222</ele>
        <time>2026-06-15T15:15:06.000Z</time>
        <extensions>
          <ns3:TrackPointExtension>
            <ns3:atemp>21.0</ns3:atemp>
          </ns3:TrackPointExtension>
        </extensions>
      </trkpt>
      <trkpt lat="42.5993040762841701507568359375" lon="19.983877725899219512939453125">
        <ele>1222</ele>
        <time>2026-06-15T15:15:07.000Z</time>
        <extensions>
          <ns3:TrackPointExtension>
            <ns3:atemp>21.0</ns3:atemp>
          </ns3:TrackPointExtension>
        </extensions>
      </trkpt>
      <trkpt lat="42.5993040762841701507568359375" lon="19.983877725899219512939453125">
        <ele>1222</ele>
        <time>2026-06-15T15:15:08.000Z</time>
        <extensions>
          <ns3:TrackPointExtension>
            <ns3:atemp>21.0</ns3:atemp>
          </ns3:TrackPointExtension>
        </extensions>
      </trkpt>
      <trkpt lat="42.5993040762841701507568359375" lon="19.983877725899219512939453125">
        <ele>1222</ele>
        <time>2026-06-15T15:15:09.000Z</time>
        <extensions>
          <ns3:TrackPointExtension>
            <ns3:atemp>21.0</ns3:atemp>
          </ns3:TrackPointExtension>
        </extensions>
      </trkpt>
      <trkpt lat="42.5993040762841701507568359375" lon="19.983877725899219512939453125">
        <ele>1222</ele>
        <time>2026-06-15T15:15:10.000Z</time>
        <extensions>
          <ns3:TrackPointExtension>
            <ns3:atemp>21.0</ns3:atemp>
          </ns3:TrackPointExtension>
        </extensions>
      </trkpt>
      <trkpt lat="42.5993040762841701507568359375" lon="19.983877725899219512939453125">
        <ele>1222</ele>
        <time>2026-06-15T15:15:11.000Z</time>
        <extensions>
          <ns3:TrackPointExtension>
            <ns3:atemp>21.0</ns3:atemp>
          </ns3:TrackPointExtension>
        </extensions>
      </trkpt>
      <trkpt lat="42.5993040762841701507568359375" lon="19.983877725899219512939453125">
        <ele>1222</ele>
        <time>2026-06-15T15:15:12.000Z</time>
        <extensions>
          <ns3:TrackPointExtension>
            <ns3:atemp>21.0</ns3:atemp>
          </ns3:TrackPointExtension>
        </extensions>
      </trkpt>
      <trkpt lat="42.5993040762841701507568359375" lon="19.983877725899219512939453125">
        <ele>1222</ele>
        <time>2026-06-15T15:15:13.000Z</time>
        <extensions>
          <ns3:TrackPointExtension>
            <ns3:atemp>21.0</ns3:atemp>
          </ns3:TrackPointExtension>
        </extensions>
      </trkpt>
      <trkpt lat="42.5993040762841701507568359375" lon="19.983877725899219512939453125">
        <ele>1222</ele>
        <time>2026-06-15T15:15:14.000Z</time>
        <extensions>
          <ns3:TrackPointExtension>
            <ns3:atemp>21.0</ns3:atemp>
          </ns3:TrackPointExtension>
        </extensions>
      </trkpt>
      <trkpt lat="42.5993040762841701507568359375" lon="19.983877725899219512939453125">
        <ele>1222</ele>
        <time>2026-06-15T15:15:15.000Z</time>
        <extensions>
          <ns3:TrackPointExtension>
            <ns3:atemp>21.0</ns3:atemp>
          </ns3:TrackPointExtension>
        </extensions>
      </trkpt>
      <trkpt lat="42.5993040762841701507568359375" lon="19.983877725899219512939453125">
        <ele>1222</ele>
        <time>2026-06-15T15:15:16.000Z</time>
        <extensions>
          <ns3:TrackPointExtension>
            <ns3:atemp>21.0</ns3:atemp>
          </ns3:TrackPointExtension>
        </extensions>
      </trkpt>
      <trkpt lat="42.5993040762841701507568359375" lon="19.983877725899219512939453125">
        <ele>1222</ele>
        <time>2026-06-15T15:15:17.000Z</time>
        <extensions>
          <ns3:TrackPointExtension>
            <ns3:atemp>21.0</ns3:atemp>
          </ns3:TrackPointExtension>
        </extensions>
      </trkpt>
      <trkpt lat="42.5993040762841701507568359375" lon="19.983877725899219512939453125">
        <ele>1222</ele>
        <time>2026-06-15T15:15:18.000Z</time>
        <extensions>
          <ns3:TrackPointExtension>
            <ns3:atemp>21.0</ns3:atemp>
          </ns3:TrackPointExtension>
        </extensions>
      </trkpt>
      <trkpt lat="42.5993040762841701507568359375" lon="19.983877725899219512939453125">
        <ele>1222</ele>
        <time>2026-06-15T15:15:19.000Z</time>
        <extensions>
          <ns3:TrackPointExtension>
            <ns3:atemp>21.0</ns3:atemp>
          </ns3:TrackPointExtension>
        </extensions>
      </trkpt>
      <trkpt lat="42.5993040762841701507568359375" lon="19.983877725899219512939453125">
        <ele>1222</ele>
        <time>2026-06-15T15:15:20.000Z</time>
        <extensions>
          <ns3:TrackPointExtension>
            <ns3:atemp>21.0</ns3:atemp>
          </ns3:TrackPointExtension>
        </extensions>
      </trkpt>
      <trkpt lat="42.5993040762841701507568359375" lon="19.983877725899219512939453125">
        <ele>1222</ele>
        <time>2026-06-15T15:15:21.000Z</time>
        <extensions>
          <ns3:TrackPointExtension>
            <ns3:atemp>21.0</ns3:atemp>
          </ns3:TrackPointExtension>
        </extensions>
      </trkpt>
      <trkpt lat="42.5993040762841701507568359375" lon="19.983877725899219512939453125">
        <ele>1222</ele>
        <time>2026-06-15T15:15:22.000Z</time>
        <extensions>
          <ns3:TrackPointExtension>
            <ns3:atemp>21.0</ns3:atemp>
          </ns3:TrackPointExtension>
        </extensions>
      </trkpt>
      <trkpt lat="42.5993040762841701507568359375" lon="19.983877725899219512939453125">
        <ele>1222</ele>
        <time>2026-06-15T15:15:23.000Z</time>
        <extensions>
          <ns3:TrackPointExtension>
            <ns3:atemp>21.0</ns3:atemp>
          </ns3:TrackPointExtension>
        </extensions>
      </trkpt>
      <trkpt lat="42.5993040762841701507568359375" lon="19.983877725899219512939453125">
        <ele>1222</ele>
        <time>2026-06-15T15:15:24.000Z</time>
        <extensions>
          <ns3:TrackPointExtension>
            <ns3:atemp>21.0</ns3:atemp>
          </ns3:TrackPointExtension>
        </extensions>
      </trkpt>
      <trkpt lat="42.5993040762841701507568359375" lon="19.983877725899219512939453125">
        <ele>1222</ele>
        <time>2026-06-15T15:15:25.000Z</time>
        <extensions>
          <ns3:TrackPointExtension>
            <ns3:atemp>21.0</ns3:atemp>
          </ns3:TrackPointExtension>
        </extensions>
      </trkpt>
      <trkpt lat="42.5993040762841701507568359375" lon="19.983877725899219512939453125">
        <ele>1222</ele>
        <time>2026-06-15T15:15:26.000Z</time>
        <extensions>
          <ns3:TrackPointExtension>
            <ns3:atemp>21.0</ns3:atemp>
          </ns3:TrackPointExtension>
        </extensions>
      </trkpt>
      <trkpt lat="42.5993040762841701507568359375" lon="19.983877725899219512939453125">
        <ele>1222</ele>
        <time>2026-06-15T15:15:27.000Z</time>
        <extensions>
          <ns3:TrackPointExtension>
            <ns3:atemp>21.0</ns3:atemp>
          </ns3:TrackPointExtension>
        </extensions>
      </trkpt>
      <trkpt lat="42.5993040762841701507568359375" lon="19.983877725899219512939453125">
        <ele>1222</ele>
        <time>2026-06-15T15:15:28.000Z</time>
        <extensions>
          <ns3:TrackPointExtension>
            <ns3:atemp>21.0</ns3:atemp>
          </ns3:TrackPointExtension>
        </extensions>
      </trkpt>
      <trkpt lat="42.5993040762841701507568359375" lon="19.983877725899219512939453125">
        <ele>1222</ele>
        <time>2026-06-15T15:15:29.000Z</time>
        <extensions>
          <ns3:TrackPointExtension>
            <ns3:atemp>21.0</ns3:atemp>
          </ns3:TrackPointExtension>
        </extensions>
      </trkpt>
      <trkpt lat="42.5993040762841701507568359375" lon="19.983877725899219512939453125">
        <ele>1222</ele>
        <time>2026-06-15T15:15:30.000Z</time>
        <extensions>
          <ns3:TrackPointExtension>
            <ns3:atemp>21.0</ns3:atemp>
          </ns3:TrackPointExtension>
        </extensions>
      </trkpt>
      <trkpt lat="42.5993040762841701507568359375" lon="19.983877725899219512939453125">
        <ele>1222</ele>
        <time>2026-06-15T15:15:31.000Z</time>
        <extensions>
          <ns3:TrackPointExtension>
            <ns3:atemp>21.0</ns3:atemp>
          </ns3:TrackPointExtension>
        </extensions>
      </trkpt>
      <trkpt lat="42.5993040762841701507568359375" lon="19.983877725899219512939453125">
        <ele>1222</ele>
        <time>2026-06-15T15:15:32.000Z</time>
        <extensions>
          <ns3:TrackPointExtension>
            <ns3:atemp>21.0</ns3:atemp>
          </ns3:TrackPointExtension>
        </extensions>
      </trkpt>
      <trkpt lat="42.5993040762841701507568359375" lon="19.983877725899219512939453125">
        <ele>1222</ele>
        <time>2026-06-15T15:15:33.000Z</time>
        <extensions>
          <ns3:TrackPointExtension>
            <ns3:atemp>21.0</ns3:atemp>
          </ns3:TrackPointExtension>
        </extensions>
      </trkpt>
      <trkpt lat="42.5993040762841701507568359375" lon="19.983877725899219512939453125">
        <ele>1222</ele>
        <time>2026-06-15T15:15:34.000Z</time>
        <extensions>
          <ns3:TrackPointExtension>
            <ns3:atemp>21.0</ns3:atemp>
          </ns3:TrackPointExtension>
        </extensions>
      </trkpt>
      <trkpt lat="42.5993040762841701507568359375" lon="19.983877725899219512939453125">
        <ele>1222</ele>
        <time>2026-06-15T15:15:35.000Z</time>
        <extensions>
          <ns3:TrackPointExtension>
            <ns3:atemp>21.0</ns3:atemp>
          </ns3:TrackPointExtension>
        </extensions>
      </trkpt>
      <trkpt lat="42.5993040762841701507568359375" lon="19.983877725899219512939453125">
        <ele>1222</ele>
        <time>2026-06-15T15:15:36.000Z</time>
        <extensions>
          <ns3:TrackPointExtension>
            <ns3:atemp>21.0</ns3:atemp>
          </ns3:TrackPointExtension>
        </extensions>
      </trkpt>
      <trkpt lat="42.5993040762841701507568359375" lon="19.983877725899219512939453125">
        <ele>1222</ele>
        <time>2026-06-15T15:15:37.000Z</time>
        <extensions>
          <ns3:TrackPointExtension>
            <ns3:atemp>21.0</ns3:atemp>
          </ns3:TrackPointExtension>
        </extensions>
      </trkpt>
      <trkpt lat="42.5993040762841701507568359375" lon="19.983877725899219512939453125">
        <ele>1222</ele>
        <time>2026-06-15T15:15:38.000Z</time>
        <extensions>
          <ns3:TrackPointExtension>
            <ns3:atemp>21.0</ns3:atemp>
          </ns3:TrackPointExtension>
        </extensions>
      </trkpt>
      <trkpt lat="42.5993040762841701507568359375" lon="19.983877725899219512939453125">
        <ele>1222</ele>
        <time>2026-06-15T15:15:39.000Z</time>
        <extensions>
          <ns3:TrackPointExtension>
            <ns3:atemp>21.0</ns3:atemp>
          </ns3:TrackPointExtension>
        </extensions>
      </trkpt>
      <trkpt lat="42.5993040762841701507568359375" lon="19.983877725899219512939453125">
        <ele>1222</ele>
        <time>2026-06-15T15:15:40.000Z</time>
        <extensions>
          <ns3:TrackPointExtension>
            <ns3:atemp>21.0</ns3:atemp>
          </ns3:TrackPointExtension>
        </extensions>
      </trkpt>
      <trkpt lat="42.5993040762841701507568359375" lon="19.983877725899219512939453125">
        <ele>1222</ele>
        <time>2026-06-15T15:15:41.000Z</time>
        <extensions>
          <ns3:TrackPointExtension>
            <ns3:atemp>21.0</ns3:atemp>
          </ns3:TrackPointExtension>
        </extensions>
      </trkpt>
      <trkpt lat="42.5993040762841701507568359375" lon="19.983877725899219512939453125">
        <ele>1222</ele>
        <time>2026-06-15T15:15:42.000Z</time>
        <extensions>
          <ns3:TrackPointExtension>
            <ns3:atemp>21.0</ns3:atemp>
          </ns3:TrackPointExtension>
        </extensions>
      </trkpt>
      <trkpt lat="42.5993040762841701507568359375" lon="19.983877725899219512939453125">
        <ele>1222</ele>
        <time>2026-06-15T15:15:43.000Z</time>
        <extensions>
          <ns3:TrackPointExtension>
            <ns3:atemp>21.0</ns3:atemp>
          </ns3:TrackPointExtension>
        </extensions>
      </trkpt>
      <trkpt lat="42.5993040762841701507568359375" lon="19.983877725899219512939453125">
        <ele>1222</ele>
        <time>2026-06-15T15:15:44.000Z</time>
        <extensions>
          <ns3:TrackPointExtension>
            <ns3:atemp>21.0</ns3:atemp>
          </ns3:TrackPointExtension>
        </extensions>
      </trkpt>
      <trkpt lat="42.5993040762841701507568359375" lon="19.983877725899219512939453125">
        <ele>1222</ele>
        <time>2026-06-15T15:15:45.000Z</time>
        <extensions>
          <ns3:TrackPointExtension>
            <ns3:atemp>21.0</ns3:atemp>
          </ns3:TrackPointExtension>
        </extensions>
      </trkpt>
      <trkpt lat="42.5993040762841701507568359375" lon="19.983877725899219512939453125">
        <ele>1222</ele>
        <time>2026-06-15T15:15:46.000Z</time>
        <extensions>
          <ns3:TrackPointExtension>
            <ns3:atemp>21.0</ns3:atemp>
          </ns3:TrackPointExtension>
        </extensions>
      </trkpt>
      <trkpt lat="42.5993040762841701507568359375" lon="19.983877725899219512939453125">
        <ele>1222</ele>
        <time>2026-06-15T15:15:47.000Z</time>
        <extensions>
          <ns3:TrackPointExtension>
            <ns3:atemp>21.0</ns3:atemp>
          </ns3:TrackPointExtension>
        </extensions>
      </trkpt>
      <trkpt lat="42.5993040762841701507568359375" lon="19.983877725899219512939453125">
        <ele>1222</ele>
        <time>2026-06-15T15:15:48.000Z</time>
        <extensions>
          <ns3:TrackPointExtension>
            <ns3:atemp>21.0</ns3:atemp>
          </ns3:TrackPointExtension>
        </extensions>
      </trkpt>
      <trkpt lat="42.5993040762841701507568359375" lon="19.983877725899219512939453125">
        <ele>1222</ele>
        <time>2026-06-15T15:15:49.000Z</time>
        <extensions>
          <ns3:TrackPointExtension>
            <ns3:atemp>21.0</ns3:atemp>
          </ns3:TrackPointExtension>
        </extensions>
      </trkpt>
      <trkpt lat="42.5993040762841701507568359375" lon="19.983877725899219512939453125">
        <ele>1222</ele>
        <time>2026-06-15T15:15:50.000Z</time>
        <extensions>
          <ns3:TrackPointExtension>
            <ns3:atemp>21.0</ns3:atemp>
          </ns3:TrackPointExtension>
        </extensions>
      </trkpt>
      <trkpt lat="42.5993040762841701507568359375" lon="19.983877725899219512939453125">
        <ele>1222</ele>
        <time>2026-06-15T15:15:51.000Z</time>
        <extensions>
          <ns3:TrackPointExtension>
            <ns3:atemp>21.0</ns3:atemp>
          </ns3:TrackPointExtension>
        </extensions>
      </trkpt>
      <trkpt lat="42.5993040762841701507568359375" lon="19.983877725899219512939453125">
        <ele>1222</ele>
        <time>2026-06-15T15:15:52.000Z</time>
        <extensions>
          <ns3:TrackPointExtension>
            <ns3:atemp>21.0</ns3:atemp>
          </ns3:TrackPointExtension>
        </extensions>
      </trkpt>
      <trkpt lat="42.5993040762841701507568359375" lon="19.983877725899219512939453125">
        <ele>1222</ele>
        <time>2026-06-15T15:15:53.000Z</time>
        <extensions>
          <ns3:TrackPointExtension>
            <ns3:atemp>21.0</ns3:atemp>
          </ns3:TrackPointExtension>
        </extensions>
      </trkpt>
      <trkpt lat="42.5993040762841701507568359375" lon="19.983877725899219512939453125">
        <ele>1222</ele>
        <time>2026-06-15T15:15:54.000Z</time>
        <extensions>
          <ns3:TrackPointExtension>
            <ns3:atemp>21.0</ns3:atemp>
          </ns3:TrackPointExtension>
        </extensions>
      </trkpt>
      <trkpt lat="42.5993040762841701507568359375" lon="19.983877725899219512939453125">
        <ele>1222</ele>
        <time>2026-06-15T15:15:55.000Z</time>
        <extensions>
          <ns3:TrackPointExtension>
            <ns3:atemp>21.0</ns3:atemp>
          </ns3:TrackPointExtension>
        </extensions>
      </trkpt>
      <trkpt lat="42.5993040762841701507568359375" lon="19.983877725899219512939453125">
        <ele>1222</ele>
        <time>2026-06-15T15:15:56.000Z</time>
        <extensions>
          <ns3:TrackPointExtension>
            <ns3:atemp>21.0</ns3:atemp>
          </ns3:TrackPointExtension>
        </extensions>
      </trkpt>
      <trkpt lat="42.5993040762841701507568359375" lon="19.983877725899219512939453125">
        <ele>1222</ele>
        <time>2026-06-15T15:15:57.000Z</time>
        <extensions>
          <ns3:TrackPointExtension>
            <ns3:atemp>21.0</ns3:atemp>
          </ns3:TrackPointExtension>
        </extensions>
      </trkpt>
      <trkpt lat="42.5993040762841701507568359375" lon="19.983877725899219512939453125">
        <ele>1222</ele>
        <time>2026-06-15T15:15:58.000Z</time>
        <extensions>
          <ns3:TrackPointExtension>
            <ns3:atemp>21.0</ns3:atemp>
          </ns3:TrackPointExtension>
        </extensions>
      </trkpt>
      <trkpt lat="42.5993040762841701507568359375" lon="19.983877725899219512939453125">
        <ele>1222</ele>
        <time>2026-06-15T15:15:59.000Z</time>
        <extensions>
          <ns3:TrackPointExtension>
            <ns3:atemp>21.0</ns3:atemp>
          </ns3:TrackPointExtension>
        </extensions>
      </trkpt>
      <trkpt lat="42.5993040762841701507568359375" lon="19.983877725899219512939453125">
        <ele>1222</ele>
        <time>2026-06-15T15:16:00.000Z</time>
        <extensions>
          <ns3:TrackPointExtension>
            <ns3:atemp>21.0</ns3:atemp>
          </ns3:TrackPointExtension>
        </extensions>
      </trkpt>
      <trkpt lat="42.5993040762841701507568359375" lon="19.983877725899219512939453125">
        <ele>1222</ele>
        <time>2026-06-15T15:16:01.000Z</time>
        <extensions>
          <ns3:TrackPointExtension>
            <ns3:atemp>21.0</ns3:atemp>
          </ns3:TrackPointExtension>
        </extensions>
      </trkpt>
      <trkpt lat="42.5993040762841701507568359375" lon="19.983877725899219512939453125">
        <ele>1222</ele>
        <time>2026-06-15T15:16:02.000Z</time>
        <extensions>
          <ns3:TrackPointExtension>
            <ns3:atemp>21.0</ns3:atemp>
          </ns3:TrackPointExtension>
        </extensions>
      </trkpt>
      <trkpt lat="42.5993040762841701507568359375" lon="19.983877725899219512939453125">
        <ele>1222</ele>
        <time>2026-06-15T15:16:03.000Z</time>
        <extensions>
          <ns3:TrackPointExtension>
            <ns3:atemp>21.0</ns3:atemp>
          </ns3:TrackPointExtension>
        </extensions>
      </trkpt>
      <trkpt lat="42.5993040762841701507568359375" lon="19.983877725899219512939453125">
        <ele>1222</ele>
        <time>2026-06-15T15:16:04.000Z</time>
        <extensions>
          <ns3:TrackPointExtension>
            <ns3:atemp>21.0</ns3:atemp>
          </ns3:TrackPointExtension>
        </extensions>
      </trkpt>
      <trkpt lat="42.5993040762841701507568359375" lon="19.983877725899219512939453125">
        <ele>1222</ele>
        <time>2026-06-15T15:16:05.000Z</time>
        <extensions>
          <ns3:TrackPointExtension>
            <ns3:atemp>21.0</ns3:atemp>
          </ns3:TrackPointExtension>
        </extensions>
      </trkpt>
      <trkpt lat="42.5993040762841701507568359375" lon="19.983877725899219512939453125">
        <ele>1222</ele>
        <time>2026-06-15T15:16:06.000Z</time>
        <extensions>
          <ns3:TrackPointExtension>
            <ns3:atemp>21.0</ns3:atemp>
          </ns3:TrackPointExtension>
        </extensions>
      </trkpt>
      <trkpt lat="42.5993040762841701507568359375" lon="19.983877725899219512939453125">
        <ele>1222</ele>
        <time>2026-06-15T15:16:07.000Z</time>
        <extensions>
          <ns3:TrackPointExtension>
            <ns3:atemp>21.0</ns3:atemp>
          </ns3:TrackPointExtension>
        </extensions>
      </trkpt>
      <trkpt lat="42.5993040762841701507568359375" lon="19.983877725899219512939453125">
        <ele>1222</ele>
        <time>2026-06-15T15:16:08.000Z</time>
        <extensions>
          <ns3:TrackPointExtension>
            <ns3:atemp>21.0</ns3:atemp>
          </ns3:TrackPointExtension>
        </extensions>
      </trkpt>
      <trkpt lat="42.5993040762841701507568359375" lon="19.983877725899219512939453125">
        <ele>1222</ele>
        <time>2026-06-15T15:16:09.000Z</time>
        <extensions>
          <ns3:TrackPointExtension>
            <ns3:atemp>21.0</ns3:atemp>
          </ns3:TrackPointExtension>
        </extensions>
      </trkpt>
      <trkpt lat="42.5993040762841701507568359375" lon="19.983877725899219512939453125">
        <ele>1222</ele>
        <time>2026-06-15T15:16:10.000Z</time>
        <extensions>
          <ns3:TrackPointExtension>
            <ns3:atemp>21.0</ns3:atemp>
          </ns3:TrackPointExtension>
        </extensions>
      </trkpt>
      <trkpt lat="42.5993040762841701507568359375" lon="19.983877725899219512939453125">
        <ele>1222</ele>
        <time>2026-06-15T15:16:11.000Z</time>
        <extensions>
          <ns3:TrackPointExtension>
            <ns3:atemp>21.0</ns3:atemp>
          </ns3:TrackPointExtension>
        </extensions>
      </trkpt>
      <trkpt lat="42.5993040762841701507568359375" lon="19.983877725899219512939453125">
        <ele>1222</ele>
        <time>2026-06-15T15:16:12.000Z</time>
        <extensions>
          <ns3:TrackPointExtension>
            <ns3:atemp>21.0</ns3:atemp>
          </ns3:TrackPointExtension>
        </extensions>
      </trkpt>
      <trkpt lat="42.5993040762841701507568359375" lon="19.983877725899219512939453125">
        <ele>1222</ele>
        <time>2026-06-15T15:16:13.000Z</time>
        <extensions>
          <ns3:TrackPointExtension>
            <ns3:atemp>21.0</ns3:atemp>
          </ns3:TrackPointExtension>
        </extensions>
      </trkpt>
      <trkpt lat="42.5993040762841701507568359375" lon="19.983877725899219512939453125">
        <ele>1222</ele>
        <time>2026-06-15T15:16:14.000Z</time>
        <extensions>
          <ns3:TrackPointExtension>
            <ns3:atemp>21.0</ns3:atemp>
          </ns3:TrackPointExtension>
        </extensions>
      </trkpt>
      <trkpt lat="42.5993040762841701507568359375" lon="19.983877725899219512939453125">
        <ele>1222</ele>
        <time>2026-06-15T15:16:15.000Z</time>
        <extensions>
          <ns3:TrackPointExtension>
            <ns3:atemp>21.0</ns3:atemp>
          </ns3:TrackPointExtension>
        </extensions>
      </trkpt>
      <trkpt lat="42.5993040762841701507568359375" lon="19.983877725899219512939453125">
        <ele>1222</ele>
        <time>2026-06-15T15:16:16.000Z</time>
        <extensions>
          <ns3:TrackPointExtension>
            <ns3:atemp>21.0</ns3:atemp>
          </ns3:TrackPointExtension>
        </extensions>
      </trkpt>
      <trkpt lat="42.5993040762841701507568359375" lon="19.983877725899219512939453125">
        <ele>1222</ele>
        <time>2026-06-15T15:16:17.000Z</time>
        <extensions>
          <ns3:TrackPointExtension>
            <ns3:atemp>21.0</ns3:atemp>
          </ns3:TrackPointExtension>
        </extensions>
      </trkpt>
      <trkpt lat="42.5993040762841701507568359375" lon="19.983877725899219512939453125">
        <ele>1222</ele>
        <time>2026-06-15T15:16:18.000Z</time>
        <extensions>
          <ns3:TrackPointExtension>
            <ns3:atemp>21.0</ns3:atemp>
          </ns3:TrackPointExtension>
        </extensions>
      </trkpt>
      <trkpt lat="42.5993040762841701507568359375" lon="19.983877725899219512939453125">
        <ele>1222</ele>
        <time>2026-06-15T15:16:19.000Z</time>
        <extensions>
          <ns3:TrackPointExtension>
            <ns3:atemp>21.0</ns3:atemp>
          </ns3:TrackPointExtension>
        </extensions>
      </trkpt>
      <trkpt lat="42.5993040762841701507568359375" lon="19.983877725899219512939453125">
        <ele>1222</ele>
        <time>2026-06-15T15:16:20.000Z</time>
        <extensions>
          <ns3:TrackPointExtension>
            <ns3:atemp>21.0</ns3:atemp>
          </ns3:TrackPointExtension>
        </extensions>
      </trkpt>
      <trkpt lat="42.5993040762841701507568359375" lon="19.983877725899219512939453125">
        <ele>1222</ele>
        <time>2026-06-15T15:16:21.000Z</time>
        <extensions>
          <ns3:TrackPointExtension>
            <ns3:atemp>21.0</ns3:atemp>
          </ns3:TrackPointExtension>
        </extensions>
      </trkpt>
      <trkpt lat="42.5993040762841701507568359375" lon="19.983877725899219512939453125">
        <ele>1222</ele>
        <time>2026-06-15T15:16:22.000Z</time>
        <extensions>
          <ns3:TrackPointExtension>
            <ns3:atemp>21.0</ns3:atemp>
          </ns3:TrackPointExtension>
        </extensions>
      </trkpt>
      <trkpt lat="42.5993040762841701507568359375" lon="19.983877725899219512939453125">
        <ele>1222</ele>
        <time>2026-06-15T15:16:23.000Z</time>
        <extensions>
          <ns3:TrackPointExtension>
            <ns3:atemp>21.0</ns3:atemp>
          </ns3:TrackPointExtension>
        </extensions>
      </trkpt>
      <trkpt lat="42.5993040762841701507568359375" lon="19.983877725899219512939453125">
        <ele>1222</ele>
        <time>2026-06-15T15:16:24.000Z</time>
        <extensions>
          <ns3:TrackPointExtension>
            <ns3:atemp>21.0</ns3:atemp>
          </ns3:TrackPointExtension>
        </extensions>
      </trkpt>
      <trkpt lat="42.5993040762841701507568359375" lon="19.983877725899219512939453125">
        <ele>1222</ele>
        <time>2026-06-15T15:16:25.000Z</time>
        <extensions>
          <ns3:TrackPointExtension>
            <ns3:atemp>21.0</ns3:atemp>
          </ns3:TrackPointExtension>
        </extensions>
      </trkpt>
      <trkpt lat="42.5993040762841701507568359375" lon="19.983877725899219512939453125">
        <ele>1222</ele>
        <time>2026-06-15T15:16:26.000Z</time>
        <extensions>
          <ns3:TrackPointExtension>
            <ns3:atemp>21.0</ns3:atemp>
          </ns3:TrackPointExtension>
        </extensions>
      </trkpt>
      <trkpt lat="42.5993040762841701507568359375" lon="19.983877725899219512939453125">
        <ele>1222</ele>
        <time>2026-06-15T15:16:27.000Z</time>
        <extensions>
          <ns3:TrackPointExtension>
            <ns3:atemp>21.0</ns3:atemp>
          </ns3:TrackPointExtension>
        </extensions>
      </trkpt>
      <trkpt lat="42.5993040762841701507568359375" lon="19.983877725899219512939453125">
        <ele>1222</ele>
        <time>2026-06-15T15:16:28.000Z</time>
        <extensions>
          <ns3:TrackPointExtension>
            <ns3:atemp>21.0</ns3:atemp>
          </ns3:TrackPointExtension>
        </extensions>
      </trkpt>
      <trkpt lat="42.5993040762841701507568359375" lon="19.983877725899219512939453125">
        <ele>1222</ele>
        <time>2026-06-15T15:16:29.000Z</time>
        <extensions>
          <ns3:TrackPointExtension>
            <ns3:atemp>21.0</ns3:atemp>
          </ns3:TrackPointExtension>
        </extensions>
      </trkpt>
      <trkpt lat="42.5993040762841701507568359375" lon="19.983877725899219512939453125">
        <ele>1222</ele>
        <time>2026-06-15T15:16:30.000Z</time>
        <extensions>
          <ns3:TrackPointExtension>
            <ns3:atemp>21.0</ns3:atemp>
          </ns3:TrackPointExtension>
        </extensions>
      </trkpt>
      <trkpt lat="42.5993040762841701507568359375" lon="19.983877725899219512939453125">
        <ele>1222</ele>
        <time>2026-06-15T15:16:31.000Z</time>
        <extensions>
          <ns3:TrackPointExtension>
            <ns3:atemp>21.0</ns3:atemp>
          </ns3:TrackPointExtension>
        </extensions>
      </trkpt>
      <trkpt lat="42.5993040762841701507568359375" lon="19.983877725899219512939453125">
        <ele>1222</ele>
        <time>2026-06-15T15:16:32.000Z</time>
        <extensions>
          <ns3:TrackPointExtension>
            <ns3:atemp>21.0</ns3:atemp>
          </ns3:TrackPointExtension>
        </extensions>
      </trkpt>
      <trkpt lat="42.5993040762841701507568359375" lon="19.983877725899219512939453125">
        <ele>1222</ele>
        <time>2026-06-15T15:16:33.000Z</time>
        <extensions>
          <ns3:TrackPointExtension>
            <ns3:atemp>21.0</ns3:atemp>
          </ns3:TrackPointExtension>
        </extensions>
      </trkpt>
      <trkpt lat="42.5993040762841701507568359375" lon="19.983877725899219512939453125">
        <ele>1222</ele>
        <time>2026-06-15T15:16:34.000Z</time>
        <extensions>
          <ns3:TrackPointExtension>
            <ns3:atemp>21.0</ns3:atemp>
          </ns3:TrackPointExtension>
        </extensions>
      </trkpt>
      <trkpt lat="42.5993040762841701507568359375" lon="19.983877725899219512939453125">
        <ele>1222</ele>
        <time>2026-06-15T15:16:35.000Z</time>
        <extensions>
          <ns3:TrackPointExtension>
            <ns3:atemp>21.0</ns3:atemp>
          </ns3:TrackPointExtension>
        </extensions>
      </trkpt>
      <trkpt lat="42.5993040762841701507568359375" lon="19.983877725899219512939453125">
        <ele>1222</ele>
        <time>2026-06-15T15:16:36.000Z</time>
        <extensions>
          <ns3:TrackPointExtension>
            <ns3:atemp>21.0</ns3:atemp>
          </ns3:TrackPointExtension>
        </extensions>
      </trkpt>
      <trkpt lat="42.5993040762841701507568359375" lon="19.983877725899219512939453125">
        <ele>1222</ele>
        <time>2026-06-15T15:16:37.000Z</time>
        <extensions>
          <ns3:TrackPointExtension>
            <ns3:atemp>21.0</ns3:atemp>
          </ns3:TrackPointExtension>
        </extensions>
      </trkpt>
      <trkpt lat="42.5993040762841701507568359375" lon="19.983877725899219512939453125">
        <ele>1222</ele>
        <time>2026-06-15T15:16:38.000Z</time>
        <extensions>
          <ns3:TrackPointExtension>
            <ns3:atemp>21.0</ns3:atemp>
          </ns3:TrackPointExtension>
        </extensions>
      </trkpt>
      <trkpt lat="42.5993040762841701507568359375" lon="19.983877725899219512939453125">
        <ele>1222</ele>
        <time>2026-06-15T15:16:39.000Z</time>
        <extensions>
          <ns3:TrackPointExtension>
            <ns3:atemp>21.0</ns3:atemp>
          </ns3:TrackPointExtension>
        </extensions>
      </trkpt>
      <trkpt lat="42.5993040762841701507568359375" lon="19.983877725899219512939453125">
        <ele>1222</ele>
        <time>2026-06-15T15:16:40.000Z</time>
        <extensions>
          <ns3:TrackPointExtension>
            <ns3:atemp>21.0</ns3:atemp>
          </ns3:TrackPointExtension>
        </extensions>
      </trkpt>
      <trkpt lat="42.5993040762841701507568359375" lon="19.983877725899219512939453125">
        <ele>1222</ele>
        <time>2026-06-15T15:16:41.000Z</time>
        <extensions>
          <ns3:TrackPointExtension>
            <ns3:atemp>21.0</ns3:atemp>
          </ns3:TrackPointExtension>
        </extensions>
      </trkpt>
      <trkpt lat="42.5993040762841701507568359375" lon="19.983877725899219512939453125">
        <ele>1222</ele>
        <time>2026-06-15T15:16:42.000Z</time>
        <extensions>
          <ns3:TrackPointExtension>
            <ns3:atemp>21.0</ns3:atemp>
          </ns3:TrackPointExtension>
        </extensions>
      </trkpt>
      <trkpt lat="42.5993040762841701507568359375" lon="19.983877725899219512939453125">
        <ele>1222</ele>
        <time>2026-06-15T15:16:43.000Z</time>
        <extensions>
          <ns3:TrackPointExtension>
            <ns3:atemp>21.0</ns3:atemp>
          </ns3:TrackPointExtension>
        </extensions>
      </trkpt>
      <trkpt lat="42.5993040762841701507568359375" lon="19.983877725899219512939453125">
        <ele>1222</ele>
        <time>2026-06-15T15:16:44.000Z</time>
        <extensions>
          <ns3:TrackPointExtension>
            <ns3:atemp>21.0</ns3:atemp>
          </ns3:TrackPointExtension>
        </extensions>
      </trkpt>
      <trkpt lat="42.5993040762841701507568359375" lon="19.983877725899219512939453125">
        <ele>1222</ele>
        <time>2026-06-15T15:16:45.000Z</time>
        <extensions>
          <ns3:TrackPointExtension>
            <ns3:atemp>21.0</ns3:atemp>
          </ns3:TrackPointExtension>
        </extensions>
      </trkpt>
      <trkpt lat="42.5993040762841701507568359375" lon="19.983877725899219512939453125">
        <ele>1222</ele>
        <time>2026-06-15T15:16:46.000Z</time>
        <extensions>
          <ns3:TrackPointExtension>
            <ns3:atemp>21.0</ns3:atemp>
          </ns3:TrackPointExtension>
        </extensions>
      </trkpt>
      <trkpt lat="42.5993040762841701507568359375" lon="19.983877725899219512939453125">
        <ele>1222</ele>
        <time>2026-06-15T15:16:47.000Z</time>
        <extensions>
          <ns3:TrackPointExtension>
            <ns3:atemp>21.0</ns3:atemp>
          </ns3:TrackPointExtension>
        </extensions>
      </trkpt>
      <trkpt lat="42.5993040762841701507568359375" lon="19.983877725899219512939453125">
        <ele>1222</ele>
        <time>2026-06-15T15:16:48.000Z</time>
        <extensions>
          <ns3:TrackPointExtension>
            <ns3:atemp>21.0</ns3:atemp>
          </ns3:TrackPointExtension>
        </extensions>
      </trkpt>
      <trkpt lat="42.5993040762841701507568359375" lon="19.983877725899219512939453125">
        <ele>1222</ele>
        <time>2026-06-15T15:16:49.000Z</time>
        <extensions>
          <ns3:TrackPointExtension>
            <ns3:atemp>21.0</ns3:atemp>
          </ns3:TrackPointExtension>
        </extensions>
      </trkpt>
      <trkpt lat="42.5993040762841701507568359375" lon="19.983877725899219512939453125">
        <ele>1222</ele>
        <time>2026-06-15T15:16:50.000Z</time>
        <extensions>
          <ns3:TrackPointExtension>
            <ns3:atemp>21.0</ns3:atemp>
          </ns3:TrackPointExtension>
        </extensions>
      </trkpt>
      <trkpt lat="42.5993040762841701507568359375" lon="19.983877725899219512939453125">
        <ele>1222</ele>
        <time>2026-06-15T15:16:51.000Z</time>
        <extensions>
          <ns3:TrackPointExtension>
            <ns3:atemp>21.0</ns3:atemp>
          </ns3:TrackPointExtension>
        </extensions>
      </trkpt>
      <trkpt lat="42.5993040762841701507568359375" lon="19.983877725899219512939453125">
        <ele>1222</ele>
        <time>2026-06-15T15:16:52.000Z</time>
        <extensions>
          <ns3:TrackPointExtension>
            <ns3:atemp>21.0</ns3:atemp>
          </ns3:TrackPointExtension>
        </extensions>
      </trkpt>
      <trkpt lat="42.5993040762841701507568359375" lon="19.983877725899219512939453125">
        <ele>1222</ele>
        <time>2026-06-15T15:16:53.000Z</time>
        <extensions>
          <ns3:TrackPointExtension>
            <ns3:atemp>21.0</ns3:atemp>
          </ns3:TrackPointExtension>
        </extensions>
      </trkpt>
      <trkpt lat="42.5993040762841701507568359375" lon="19.983877725899219512939453125">
        <ele>1222</ele>
        <time>2026-06-15T15:16:54.000Z</time>
        <extensions>
          <ns3:TrackPointExtension>
            <ns3:atemp>21.0</ns3:atemp>
          </ns3:TrackPointExtension>
        </extensions>
      </trkpt>
      <trkpt lat="42.5993040762841701507568359375" lon="19.983877725899219512939453125">
        <ele>1222</ele>
        <time>2026-06-15T15:16:55.000Z</time>
        <extensions>
          <ns3:TrackPointExtension>
            <ns3:atemp>21.0</ns3:atemp>
          </ns3:TrackPointExtension>
        </extensions>
      </trkpt>
      <trkpt lat="42.5993040762841701507568359375" lon="19.983877725899219512939453125">
        <ele>1222</ele>
        <time>2026-06-15T15:16:56.000Z</time>
        <extensions>
          <ns3:TrackPointExtension>
            <ns3:atemp>21.0</ns3:atemp>
          </ns3:TrackPointExtension>
        </extensions>
      </trkpt>
      <trkpt lat="42.5993040762841701507568359375" lon="19.983877725899219512939453125">
        <ele>1222</ele>
        <time>2026-06-15T15:16:57.000Z</time>
        <extensions>
          <ns3:TrackPointExtension>
            <ns3:atemp>21.0</ns3:atemp>
          </ns3:TrackPointExtension>
        </extensions>
      </trkpt>
      <trkpt lat="42.5993040762841701507568359375" lon="19.983877725899219512939453125">
        <ele>1222</ele>
        <time>2026-06-15T15:16:58.000Z</time>
        <extensions>
          <ns3:TrackPointExtension>
            <ns3:atemp>21.0</ns3:atemp>
          </ns3:TrackPointExtension>
        </extensions>
      </trkpt>
      <trkpt lat="42.5993040762841701507568359375" lon="19.983877725899219512939453125">
        <ele>1222</ele>
        <time>2026-06-15T15:16:59.000Z</time>
        <extensions>
          <ns3:TrackPointExtension>
            <ns3:atemp>21.0</ns3:atemp>
          </ns3:TrackPointExtension>
        </extensions>
      </trkpt>
      <trkpt lat="42.5993040762841701507568359375" lon="19.983877725899219512939453125">
        <ele>1222</ele>
        <time>2026-06-15T15:17:00.000Z</time>
        <extensions>
          <ns3:TrackPointExtension>
            <ns3:atemp>21.0</ns3:atemp>
          </ns3:TrackPointExtension>
        </extensions>
      </trkpt>
      <trkpt lat="42.5993040762841701507568359375" lon="19.983877725899219512939453125">
        <ele>1222</ele>
        <time>2026-06-15T15:17:01.000Z</time>
        <extensions>
          <ns3:TrackPointExtension>
            <ns3:atemp>21.0</ns3:atemp>
          </ns3:TrackPointExtension>
        </extensions>
      </trkpt>
      <trkpt lat="42.5993040762841701507568359375" lon="19.983877725899219512939453125">
        <ele>1222</ele>
        <time>2026-06-15T15:17:02.000Z</time>
        <extensions>
          <ns3:TrackPointExtension>
            <ns3:atemp>21.0</ns3:atemp>
          </ns3:TrackPointExtension>
        </extensions>
      </trkpt>
      <trkpt lat="42.5993040762841701507568359375" lon="19.983877725899219512939453125">
        <ele>1222</ele>
        <time>2026-06-15T15:17:03.000Z</time>
        <extensions>
          <ns3:TrackPointExtension>
            <ns3:atemp>21.0</ns3:atemp>
          </ns3:TrackPointExtension>
        </extensions>
      </trkpt>
      <trkpt lat="42.5993040762841701507568359375" lon="19.983877725899219512939453125">
        <ele>1222</ele>
        <time>2026-06-15T15:17:04.000Z</time>
        <extensions>
          <ns3:TrackPointExtension>
            <ns3:atemp>21.0</ns3:atemp>
          </ns3:TrackPointExtension>
        </extensions>
      </trkpt>
      <trkpt lat="42.5993040762841701507568359375" lon="19.983877725899219512939453125">
        <ele>1222</ele>
        <time>2026-06-15T15:17:05.000Z</time>
        <extensions>
          <ns3:TrackPointExtension>
            <ns3:atemp>21.0</ns3:atemp>
          </ns3:TrackPointExtension>
        </extensions>
      </trkpt>
      <trkpt lat="42.5993040762841701507568359375" lon="19.983877725899219512939453125">
        <ele>1222</ele>
        <time>2026-06-15T15:17:06.000Z</time>
        <extensions>
          <ns3:TrackPointExtension>
            <ns3:atemp>21.0</ns3:atemp>
          </ns3:TrackPointExtension>
        </extensions>
      </trkpt>
      <trkpt lat="42.5993040762841701507568359375" lon="19.983877725899219512939453125">
        <ele>1222</ele>
        <time>2026-06-15T15:17:07.000Z</time>
        <extensions>
          <ns3:TrackPointExtension>
            <ns3:atemp>21.0</ns3:atemp>
          </ns3:TrackPointExtension>
        </extensions>
      </trkpt>
      <trkpt lat="42.5993040762841701507568359375" lon="19.983877725899219512939453125">
        <ele>1222</ele>
        <time>2026-06-15T15:17:08.000Z</time>
        <extensions>
          <ns3:TrackPointExtension>
            <ns3:atemp>21.0</ns3:atemp>
          </ns3:TrackPointExtension>
        </extensions>
      </trkpt>
      <trkpt lat="42.5993040762841701507568359375" lon="19.983877725899219512939453125">
        <ele>1222</ele>
        <time>2026-06-15T15:17:09.000Z</time>
        <extensions>
          <ns3:TrackPointExtension>
            <ns3:atemp>21.0</ns3:atemp>
          </ns3:TrackPointExtension>
        </extensions>
      </trkpt>
      <trkpt lat="42.5993040762841701507568359375" lon="19.983877725899219512939453125">
        <ele>1222</ele>
        <time>2026-06-15T15:17:10.000Z</time>
        <extensions>
          <ns3:TrackPointExtension>
            <ns3:atemp>21.0</ns3:atemp>
          </ns3:TrackPointExtension>
        </extensions>
      </trkpt>
      <trkpt lat="42.5993040762841701507568359375" lon="19.983877725899219512939453125">
        <ele>1222</ele>
        <time>2026-06-15T15:17:11.000Z</time>
        <extensions>
          <ns3:TrackPointExtension>
            <ns3:atemp>21.0</ns3:atemp>
          </ns3:TrackPointExtension>
        </extensions>
      </trkpt>
      <trkpt lat="42.5993040762841701507568359375" lon="19.983877725899219512939453125">
        <ele>1222</ele>
        <time>2026-06-15T15:17:12.000Z</time>
        <extensions>
          <ns3:TrackPointExtension>
            <ns3:atemp>21.0</ns3:atemp>
          </ns3:TrackPointExtension>
        </extensions>
      </trkpt>
      <trkpt lat="42.5993040762841701507568359375" lon="19.983877725899219512939453125">
        <ele>1222</ele>
        <time>2026-06-15T15:17:13.000Z</time>
        <extensions>
          <ns3:TrackPointExtension>
            <ns3:atemp>21.0</ns3:atemp>
          </ns3:TrackPointExtension>
        </extensions>
      </trkpt>
      <trkpt lat="42.5993040762841701507568359375" lon="19.983877725899219512939453125">
        <ele>1222</ele>
        <time>2026-06-15T15:17:14.000Z</time>
        <extensions>
          <ns3:TrackPointExtension>
            <ns3:atemp>21.0</ns3:atemp>
          </ns3:TrackPointExtension>
        </extensions>
      </trkpt>
      <trkpt lat="42.5993040762841701507568359375" lon="19.983877725899219512939453125">
        <ele>1222</ele>
        <time>2026-06-15T15:17:15.000Z</time>
        <extensions>
          <ns3:TrackPointExtension>
            <ns3:atemp>21.0</ns3:atemp>
          </ns3:TrackPointExtension>
        </extensions>
      </trkpt>
      <trkpt lat="42.5993040762841701507568359375" lon="19.983877725899219512939453125">
        <ele>1222</ele>
        <time>2026-06-15T15:17:16.000Z</time>
        <extensions>
          <ns3:TrackPointExtension>
            <ns3:atemp>21.0</ns3:atemp>
          </ns3:TrackPointExtension>
        </extensions>
      </trkpt>
      <trkpt lat="42.5993040762841701507568359375" lon="19.983877725899219512939453125">
        <ele>1222</ele>
        <time>2026-06-15T15:17:17.000Z</time>
        <extensions>
          <ns3:TrackPointExtension>
            <ns3:atemp>21.0</ns3:atemp>
          </ns3:TrackPointExtension>
        </extensions>
      </trkpt>
      <trkpt lat="42.5993040762841701507568359375" lon="19.983877725899219512939453125">
        <ele>1222</ele>
        <time>2026-06-15T15:17:18.000Z</time>
        <extensions>
          <ns3:TrackPointExtension>
            <ns3:atemp>21.0</ns3:atemp>
          </ns3:TrackPointExtension>
        </extensions>
      </trkpt>
      <trkpt lat="42.5993040762841701507568359375" lon="19.983877725899219512939453125">
        <ele>1222</ele>
        <time>2026-06-15T15:17:19.000Z</time>
        <extensions>
          <ns3:TrackPointExtension>
            <ns3:atemp>21.0</ns3:atemp>
          </ns3:TrackPointExtension>
        </extensions>
      </trkpt>
      <trkpt lat="42.5993040762841701507568359375" lon="19.983877725899219512939453125">
        <ele>1222</ele>
        <time>2026-06-15T15:17:20.000Z</time>
        <extensions>
          <ns3:TrackPointExtension>
            <ns3:atemp>21.0</ns3:atemp>
          </ns3:TrackPointExtension>
        </extensions>
      </trkpt>
      <trkpt lat="42.5993040762841701507568359375" lon="19.983877725899219512939453125">
        <ele>1222</ele>
        <time>2026-06-15T15:17:21.000Z</time>
        <extensions>
          <ns3:TrackPointExtension>
            <ns3:atemp>21.0</ns3:atemp>
          </ns3:TrackPointExtension>
        </extensions>
      </trkpt>
      <trkpt lat="42.5993040762841701507568359375" lon="19.983877725899219512939453125">
        <ele>1222</ele>
        <time>2026-06-15T15:17:22.000Z</time>
        <extensions>
          <ns3:TrackPointExtension>
            <ns3:atemp>21.0</ns3:atemp>
          </ns3:TrackPointExtension>
        </extensions>
      </trkpt>
      <trkpt lat="42.5993040762841701507568359375" lon="19.983877725899219512939453125">
        <ele>1222</ele>
        <time>2026-06-15T15:17:23.000Z</time>
        <extensions>
          <ns3:TrackPointExtension>
            <ns3:atemp>21.0</ns3:atemp>
          </ns3:TrackPointExtension>
        </extensions>
      </trkpt>
      <trkpt lat="42.5993040762841701507568359375" lon="19.983877725899219512939453125">
        <ele>1222</ele>
        <time>2026-06-15T15:17:24.000Z</time>
        <extensions>
          <ns3:TrackPointExtension>
            <ns3:atemp>21.0</ns3:atemp>
          </ns3:TrackPointExtension>
        </extensions>
      </trkpt>
      <trkpt lat="42.5993040762841701507568359375" lon="19.983877725899219512939453125">
        <ele>1222</ele>
        <time>2026-06-15T15:17:25.000Z</time>
        <extensions>
          <ns3:TrackPointExtension>
            <ns3:atemp>21.0</ns3:atemp>
          </ns3:TrackPointExtension>
        </extensions>
      </trkpt>
      <trkpt lat="42.5993040762841701507568359375" lon="19.983877725899219512939453125">
        <ele>1222</ele>
        <time>2026-06-15T15:17:26.000Z</time>
        <extensions>
          <ns3:TrackPointExtension>
            <ns3:atemp>21.0</ns3:atemp>
          </ns3:TrackPointExtension>
        </extensions>
      </trkpt>
      <trkpt lat="42.5993040762841701507568359375" lon="19.983877725899219512939453125">
        <ele>1222</ele>
        <time>2026-06-15T15:17:27.000Z</time>
        <extensions>
          <ns3:TrackPointExtension>
            <ns3:atemp>21.0</ns3:atemp>
          </ns3:TrackPointExtension>
        </extensions>
      </trkpt>
      <trkpt lat="42.5993040762841701507568359375" lon="19.983877725899219512939453125">
        <ele>1222</ele>
        <time>2026-06-15T15:17:28.000Z</time>
        <extensions>
          <ns3:TrackPointExtension>
            <ns3:atemp>21.0</ns3:atemp>
          </ns3:TrackPointExtension>
        </extensions>
      </trkpt>
      <trkpt lat="42.5993040762841701507568359375" lon="19.983877725899219512939453125">
        <ele>1222</ele>
        <time>2026-06-15T15:17:29.000Z</time>
        <extensions>
          <ns3:TrackPointExtension>
            <ns3:atemp>21.0</ns3:atemp>
          </ns3:TrackPointExtension>
        </extensions>
      </trkpt>
      <trkpt lat="42.5993040762841701507568359375" lon="19.983877725899219512939453125">
        <ele>1222</ele>
        <time>2026-06-15T15:17:30.000Z</time>
        <extensions>
          <ns3:TrackPointExtension>
            <ns3:atemp>21.0</ns3:atemp>
          </ns3:TrackPointExtension>
        </extensions>
      </trkpt>
      <trkpt lat="42.5993040762841701507568359375" lon="19.983877725899219512939453125">
        <ele>1222</ele>
        <time>2026-06-15T15:17:31.000Z</time>
        <extensions>
          <ns3:TrackPointExtension>
            <ns3:atemp>21.0</ns3:atemp>
          </ns3:TrackPointExtension>
        </extensions>
      </trkpt>
      <trkpt lat="42.5993040762841701507568359375" lon="19.983877725899219512939453125">
        <ele>1222</ele>
        <time>2026-06-15T15:17:32.000Z</time>
        <extensions>
          <ns3:TrackPointExtension>
            <ns3:atemp>21.0</ns3:atemp>
          </ns3:TrackPointExtension>
        </extensions>
      </trkpt>
      <trkpt lat="42.5993040762841701507568359375" lon="19.983877725899219512939453125">
        <ele>1222</ele>
        <time>2026-06-15T15:17:33.000Z</time>
        <extensions>
          <ns3:TrackPointExtension>
            <ns3:atemp>21.0</ns3:atemp>
          </ns3:TrackPointExtension>
        </extensions>
      </trkpt>
      <trkpt lat="42.5993040762841701507568359375" lon="19.983877725899219512939453125">
        <ele>1222</ele>
        <time>2026-06-15T15:17:34.000Z</time>
        <extensions>
          <ns3:TrackPointExtension>
            <ns3:atemp>21.0</ns3:atemp>
          </ns3:TrackPointExtension>
        </extensions>
      </trkpt>
      <trkpt lat="42.5993040762841701507568359375" lon="19.983877725899219512939453125">
        <ele>1222</ele>
        <time>2026-06-15T15:17:35.000Z</time>
        <extensions>
          <ns3:TrackPointExtension>
            <ns3:atemp>21.0</ns3:atemp>
          </ns3:TrackPointExtension>
        </extensions>
      </trkpt>
      <trkpt lat="42.5993040762841701507568359375" lon="19.983877725899219512939453125">
        <ele>1222</ele>
        <time>2026-06-15T15:17:36.000Z</time>
        <extensions>
          <ns3:TrackPointExtension>
            <ns3:atemp>21.0</ns3:atemp>
          </ns3:TrackPointExtension>
        </extensions>
      </trkpt>
      <trkpt lat="42.5993040762841701507568359375" lon="19.983877725899219512939453125">
        <ele>1222</ele>
        <time>2026-06-15T15:17:37.000Z</time>
        <extensions>
          <ns3:TrackPointExtension>
            <ns3:atemp>21.0</ns3:atemp>
          </ns3:TrackPointExtension>
        </extensions>
      </trkpt>
      <trkpt lat="42.5993040762841701507568359375" lon="19.983877725899219512939453125">
        <ele>1222</ele>
        <time>2026-06-15T15:17:38.000Z</time>
        <extensions>
          <ns3:TrackPointExtension>
            <ns3:atemp>21.0</ns3:atemp>
          </ns3:TrackPointExtension>
        </extensions>
      </trkpt>
      <trkpt lat="42.5993040762841701507568359375" lon="19.983877725899219512939453125">
        <ele>1222</ele>
        <time>2026-06-15T15:17:39.000Z</time>
        <extensions>
          <ns3:TrackPointExtension>
            <ns3:atemp>21.0</ns3:atemp>
          </ns3:TrackPointExtension>
        </extensions>
      </trkpt>
      <trkpt lat="42.5993040762841701507568359375" lon="19.983877725899219512939453125">
        <ele>1222</ele>
        <time>2026-06-15T15:17:40.000Z</time>
        <extensions>
          <ns3:TrackPointExtension>
            <ns3:atemp>21.0</ns3:atemp>
          </ns3:TrackPointExtension>
        </extensions>
      </trkpt>
      <trkpt lat="42.5993040762841701507568359375" lon="19.983877725899219512939453125">
        <ele>1222</ele>
        <time>2026-06-15T15:17:41.000Z</time>
        <extensions>
          <ns3:TrackPointExtension>
            <ns3:atemp>21.0</ns3:atemp>
          </ns3:TrackPointExtension>
        </extensions>
      </trkpt>
      <trkpt lat="42.5993040762841701507568359375" lon="19.983877725899219512939453125">
        <ele>1222</ele>
        <time>2026-06-15T15:17:42.000Z</time>
        <extensions>
          <ns3:TrackPointExtension>
            <ns3:atemp>21.0</ns3:atemp>
          </ns3:TrackPointExtension>
        </extensions>
      </trkpt>
      <trkpt lat="42.5993040762841701507568359375" lon="19.983877725899219512939453125">
        <ele>1222</ele>
        <time>2026-06-15T15:17:43.000Z</time>
        <extensions>
          <ns3:TrackPointExtension>
            <ns3:atemp>21.0</ns3:atemp>
          </ns3:TrackPointExtension>
        </extensions>
      </trkpt>
      <trkpt lat="42.5993040762841701507568359375" lon="19.983877725899219512939453125">
        <ele>1222</ele>
        <time>2026-06-15T15:17:44.000Z</time>
        <extensions>
          <ns3:TrackPointExtension>
            <ns3:atemp>21.0</ns3:atemp>
          </ns3:TrackPointExtension>
        </extensions>
      </trkpt>
      <trkpt lat="42.5993040762841701507568359375" lon="19.983877725899219512939453125">
        <ele>1222</ele>
        <time>2026-06-15T15:17:45.000Z</time>
        <extensions>
          <ns3:TrackPointExtension>
            <ns3:atemp>21.0</ns3:atemp>
          </ns3:TrackPointExtension>
        </extensions>
      </trkpt>
      <trkpt lat="42.5993040762841701507568359375" lon="19.983877725899219512939453125">
        <ele>1222</ele>
        <time>2026-06-15T15:17:46.000Z</time>
        <extensions>
          <ns3:TrackPointExtension>
            <ns3:atemp>21.0</ns3:atemp>
          </ns3:TrackPointExtension>
        </extensions>
      </trkpt>
      <trkpt lat="42.5993040762841701507568359375" lon="19.983877725899219512939453125">
        <ele>1222</ele>
        <time>2026-06-15T15:17:47.000Z</time>
        <extensions>
          <ns3:TrackPointExtension>
            <ns3:atemp>21.0</ns3:atemp>
          </ns3:TrackPointExtension>
        </extensions>
      </trkpt>
      <trkpt lat="42.5993040762841701507568359375" lon="19.983877725899219512939453125">
        <ele>1222</ele>
        <time>2026-06-15T15:17:48.000Z</time>
        <extensions>
          <ns3:TrackPointExtension>
            <ns3:atemp>21.0</ns3:atemp>
          </ns3:TrackPointExtension>
        </extensions>
      </trkpt>
      <trkpt lat="42.5993040762841701507568359375" lon="19.983877725899219512939453125">
        <ele>1222</ele>
        <time>2026-06-15T15:17:49.000Z</time>
        <extensions>
          <ns3:TrackPointExtension>
            <ns3:atemp>21.0</ns3:atemp>
          </ns3:TrackPointExtension>
        </extensions>
      </trkpt>
      <trkpt lat="42.5993040762841701507568359375" lon="19.983877725899219512939453125">
        <ele>1222</ele>
        <time>2026-06-15T15:17:50.000Z</time>
        <extensions>
          <ns3:TrackPointExtension>
            <ns3:atemp>21.0</ns3:atemp>
          </ns3:TrackPointExtension>
        </extensions>
      </trkpt>
      <trkpt lat="42.5993040762841701507568359375" lon="19.983877725899219512939453125">
        <ele>1222</ele>
        <time>2026-06-15T15:17:51.000Z</time>
        <extensions>
          <ns3:TrackPointExtension>
            <ns3:atemp>21.0</ns3:atemp>
          </ns3:TrackPointExtension>
        </extensions>
      </trkpt>
      <trkpt lat="42.5993040762841701507568359375" lon="19.983877725899219512939453125">
        <ele>1222</ele>
        <time>2026-06-15T15:17:52.000Z</time>
        <extensions>
          <ns3:TrackPointExtension>
            <ns3:atemp>21.0</ns3:atemp>
          </ns3:TrackPointExtension>
        </extensions>
      </trkpt>
      <trkpt lat="42.5993040762841701507568359375" lon="19.983877725899219512939453125">
        <ele>1222</ele>
        <time>2026-06-15T15:17:53.000Z</time>
        <extensions>
          <ns3:TrackPointExtension>
            <ns3:atemp>21.0</ns3:atemp>
          </ns3:TrackPointExtension>
        </extensions>
      </trkpt>
      <trkpt lat="42.5993040762841701507568359375" lon="19.983877725899219512939453125">
        <ele>1222</ele>
        <time>2026-06-15T15:17:54.000Z</time>
        <extensions>
          <ns3:TrackPointExtension>
            <ns3:atemp>21.0</ns3:atemp>
          </ns3:TrackPointExtension>
        </extensions>
      </trkpt>
      <trkpt lat="42.5993040762841701507568359375" lon="19.983877725899219512939453125">
        <ele>1222</ele>
        <time>2026-06-15T15:17:55.000Z</time>
        <extensions>
          <ns3:TrackPointExtension>
            <ns3:atemp>21.0</ns3:atemp>
          </ns3:TrackPointExtension>
        </extensions>
      </trkpt>
      <trkpt lat="42.5993040762841701507568359375" lon="19.983877725899219512939453125">
        <ele>1222</ele>
        <time>2026-06-15T15:17:56.000Z</time>
        <extensions>
          <ns3:TrackPointExtension>
            <ns3:atemp>21.0</ns3:atemp>
          </ns3:TrackPointExtension>
        </extensions>
      </trkpt>
      <trkpt lat="42.5993040762841701507568359375" lon="19.983877725899219512939453125">
        <ele>1222</ele>
        <time>2026-06-15T15:17:57.000Z</time>
        <extensions>
          <ns3:TrackPointExtension>
            <ns3:atemp>21.0</ns3:atemp>
          </ns3:TrackPointExtension>
        </extensions>
      </trkpt>
      <trkpt lat="42.5993040762841701507568359375" lon="19.983877725899219512939453125">
        <ele>1222</ele>
        <time>2026-06-15T15:17:58.000Z</time>
        <extensions>
          <ns3:TrackPointExtension>
            <ns3:atemp>21.0</ns3:atemp>
          </ns3:TrackPointExtension>
        </extensions>
      </trkpt>
      <trkpt lat="42.5993040762841701507568359375" lon="19.983877725899219512939453125">
        <ele>1222</ele>
        <time>2026-06-15T15:17:59.000Z</time>
        <extensions>
          <ns3:TrackPointExtension>
            <ns3:atemp>21.0</ns3:atemp>
          </ns3:TrackPointExtension>
        </extensions>
      </trkpt>
      <trkpt lat="42.5993040762841701507568359375" lon="19.983877725899219512939453125">
        <ele>1222</ele>
        <time>2026-06-15T15:18:00.000Z</time>
        <extensions>
          <ns3:TrackPointExtension>
            <ns3:atemp>21.0</ns3:atemp>
          </ns3:TrackPointExtension>
        </extensions>
      </trkpt>
      <trkpt lat="42.5993040762841701507568359375" lon="19.983877725899219512939453125">
        <ele>1222</ele>
        <time>2026-06-15T15:18:01.000Z</time>
        <extensions>
          <ns3:TrackPointExtension>
            <ns3:atemp>21.0</ns3:atemp>
          </ns3:TrackPointExtension>
        </extensions>
      </trkpt>
      <trkpt lat="42.5993040762841701507568359375" lon="19.983877725899219512939453125">
        <ele>1222</ele>
        <time>2026-06-15T15:18:02.000Z</time>
        <extensions>
          <ns3:TrackPointExtension>
            <ns3:atemp>21.0</ns3:atemp>
          </ns3:TrackPointExtension>
        </extensions>
      </trkpt>
      <trkpt lat="42.5993040762841701507568359375" lon="19.983877725899219512939453125">
        <ele>1222</ele>
        <time>2026-06-15T15:18:03.000Z</time>
        <extensions>
          <ns3:TrackPointExtension>
            <ns3:atemp>21.0</ns3:atemp>
          </ns3:TrackPointExtension>
        </extensions>
      </trkpt>
      <trkpt lat="42.5993040762841701507568359375" lon="19.983877725899219512939453125">
        <ele>1222</ele>
        <time>2026-06-15T15:18:04.000Z</time>
        <extensions>
          <ns3:TrackPointExtension>
            <ns3:atemp>21.0</ns3:atemp>
          </ns3:TrackPointExtension>
        </extensions>
      </trkpt>
      <trkpt lat="42.5993040762841701507568359375" lon="19.983877725899219512939453125">
        <ele>1222</ele>
        <time>2026-06-15T15:18:05.000Z</time>
        <extensions>
          <ns3:TrackPointExtension>
            <ns3:atemp>21.0</ns3:atemp>
          </ns3:TrackPointExtension>
        </extensions>
      </trkpt>
      <trkpt lat="42.5993040762841701507568359375" lon="19.983877725899219512939453125">
        <ele>1222</ele>
        <time>2026-06-15T15:18:06.000Z</time>
        <extensions>
          <ns3:TrackPointExtension>
            <ns3:atemp>21.0</ns3:atemp>
          </ns3:TrackPointExtension>
        </extensions>
      </trkpt>
      <trkpt lat="42.5993040762841701507568359375" lon="19.983877725899219512939453125">
        <ele>1222</ele>
        <time>2026-06-15T15:18:07.000Z</time>
        <extensions>
          <ns3:TrackPointExtension>
            <ns3:atemp>21.0</ns3:atemp>
          </ns3:TrackPointExtension>
        </extensions>
      </trkpt>
      <trkpt lat="42.5993040762841701507568359375" lon="19.983877725899219512939453125">
        <ele>1222</ele>
        <time>2026-06-15T15:18:08.000Z</time>
        <extensions>
          <ns3:TrackPointExtension>
            <ns3:atemp>21.0</ns3:atemp>
          </ns3:TrackPointExtension>
        </extensions>
      </trkpt>
      <trkpt lat="42.5993040762841701507568359375" lon="19.983877725899219512939453125">
        <ele>1222</ele>
        <time>2026-06-15T15:18:09.000Z</time>
        <extensions>
          <ns3:TrackPointExtension>
            <ns3:atemp>21.0</ns3:atemp>
          </ns3:TrackPointExtension>
        </extensions>
      </trkpt>
      <trkpt lat="42.5993040762841701507568359375" lon="19.983877725899219512939453125">
        <ele>1222</ele>
        <time>2026-06-15T15:18:10.000Z</time>
        <extensions>
          <ns3:TrackPointExtension>
            <ns3:atemp>21.0</ns3:atemp>
          </ns3:TrackPointExtension>
        </extensions>
      </trkpt>
      <trkpt lat="42.5993040762841701507568359375" lon="19.983877725899219512939453125">
        <ele>1222</ele>
        <time>2026-06-15T15:18:11.000Z</time>
        <extensions>
          <ns3:TrackPointExtension>
            <ns3:atemp>21.0</ns3:atemp>
          </ns3:TrackPointExtension>
        </extensions>
      </trkpt>
      <trkpt lat="42.5993040762841701507568359375" lon="19.983877725899219512939453125">
        <ele>1222</ele>
        <time>2026-06-15T15:18:12.000Z</time>
        <extensions>
          <ns3:TrackPointExtension>
            <ns3:atemp>21.0</ns3:atemp>
          </ns3:TrackPointExtension>
        </extensions>
      </trkpt>
      <trkpt lat="42.5993040762841701507568359375" lon="19.983877725899219512939453125">
        <ele>1222</ele>
        <time>2026-06-15T15:18:13.000Z</time>
        <extensions>
          <ns3:TrackPointExtension>
            <ns3:atemp>21.0</ns3:atemp>
          </ns3:TrackPointExtension>
        </extensions>
      </trkpt>
      <trkpt lat="42.5993040762841701507568359375" lon="19.983877725899219512939453125">
        <ele>1222</ele>
        <time>2026-06-15T15:18:14.000Z</time>
        <extensions>
          <ns3:TrackPointExtension>
            <ns3:atemp>21.0</ns3:atemp>
          </ns3:TrackPointExtension>
        </extensions>
      </trkpt>
      <trkpt lat="42.5993040762841701507568359375" lon="19.983877725899219512939453125">
        <ele>1222</ele>
        <time>2026-06-15T15:18:15.000Z</time>
        <extensions>
          <ns3:TrackPointExtension>
            <ns3:atemp>21.0</ns3:atemp>
          </ns3:TrackPointExtension>
        </extensions>
      </trkpt>
      <trkpt lat="42.5993040762841701507568359375" lon="19.983877725899219512939453125">
        <ele>1222</ele>
        <time>2026-06-15T15:18:16.000Z</time>
        <extensions>
          <ns3:TrackPointExtension>
            <ns3:atemp>21.0</ns3:atemp>
          </ns3:TrackPointExtension>
        </extensions>
      </trkpt>
      <trkpt lat="42.5993040762841701507568359375" lon="19.983877725899219512939453125">
        <ele>1222</ele>
        <time>2026-06-15T15:18:17.000Z</time>
        <extensions>
          <ns3:TrackPointExtension>
            <ns3:atemp>21.0</ns3:atemp>
          </ns3:TrackPointExtension>
        </extensions>
      </trkpt>
      <trkpt lat="42.5993040762841701507568359375" lon="19.983877725899219512939453125">
        <ele>1222</ele>
        <time>2026-06-15T15:18:18.000Z</time>
        <extensions>
          <ns3:TrackPointExtension>
            <ns3:atemp>21.0</ns3:atemp>
          </ns3:TrackPointExtension>
        </extensions>
      </trkpt>
      <trkpt lat="42.5993040762841701507568359375" lon="19.983877725899219512939453125">
        <ele>1222</ele>
        <time>2026-06-15T15:18:19.000Z</time>
        <extensions>
          <ns3:TrackPointExtension>
            <ns3:atemp>21.0</ns3:atemp>
          </ns3:TrackPointExtension>
        </extensions>
      </trkpt>
      <trkpt lat="42.5993040762841701507568359375" lon="19.983877725899219512939453125">
        <ele>1222</ele>
        <time>2026-06-15T15:18:20.000Z</time>
        <extensions>
          <ns3:TrackPointExtension>
            <ns3:atemp>21.0</ns3:atemp>
          </ns3:TrackPointExtension>
        </extensions>
      </trkpt>
      <trkpt lat="42.5993040762841701507568359375" lon="19.983877725899219512939453125">
        <ele>1222</ele>
        <time>2026-06-15T15:18:21.000Z</time>
        <extensions>
          <ns3:TrackPointExtension>
            <ns3:atemp>21.0</ns3:atemp>
          </ns3:TrackPointExtension>
        </extensions>
      </trkpt>
      <trkpt lat="42.5993040762841701507568359375" lon="19.983877725899219512939453125">
        <ele>1222</ele>
        <time>2026-06-15T15:18:22.000Z</time>
        <extensions>
          <ns3:TrackPointExtension>
            <ns3:atemp>21.0</ns3:atemp>
          </ns3:TrackPointExtension>
        </extensions>
      </trkpt>
      <trkpt lat="42.5993040762841701507568359375" lon="19.983877725899219512939453125">
        <ele>1222</ele>
        <time>2026-06-15T15:18:23.000Z</time>
        <extensions>
          <ns3:TrackPointExtension>
            <ns3:atemp>21.0</ns3:atemp>
          </ns3:TrackPointExtension>
        </extensions>
      </trkpt>
      <trkpt lat="42.5993040762841701507568359375" lon="19.983877725899219512939453125">
        <ele>1222</ele>
        <time>2026-06-15T15:18:24.000Z</time>
        <extensions>
          <ns3:TrackPointExtension>
            <ns3:atemp>21.0</ns3:atemp>
          </ns3:TrackPointExtension>
        </extensions>
      </trkpt>
      <trkpt lat="42.5993040762841701507568359375" lon="19.983877725899219512939453125">
        <ele>1222</ele>
        <time>2026-06-15T15:18:25.000Z</time>
        <extensions>
          <ns3:TrackPointExtension>
            <ns3:atemp>21.0</ns3:atemp>
          </ns3:TrackPointExtension>
        </extensions>
      </trkpt>
      <trkpt lat="42.5993040762841701507568359375" lon="19.983877725899219512939453125">
        <ele>1222</ele>
        <time>2026-06-15T15:18:26.000Z</time>
        <extensions>
          <ns3:TrackPointExtension>
            <ns3:atemp>21.0</ns3:atemp>
          </ns3:TrackPointExtension>
        </extensions>
      </trkpt>
      <trkpt lat="42.5993040762841701507568359375" lon="19.983877725899219512939453125">
        <ele>1222</ele>
        <time>2026-06-15T15:18:27.000Z</time>
        <extensions>
          <ns3:TrackPointExtension>
            <ns3:atemp>21.0</ns3:atemp>
          </ns3:TrackPointExtension>
        </extensions>
      </trkpt>
      <trkpt lat="42.5993040762841701507568359375" lon="19.983877725899219512939453125">
        <ele>1222</ele>
        <time>2026-06-15T15:18:28.000Z</time>
        <extensions>
          <ns3:TrackPointExtension>
            <ns3:atemp>21.0</ns3:atemp>
          </ns3:TrackPointExtension>
        </extensions>
      </trkpt>
      <trkpt lat="42.5993040762841701507568359375" lon="19.983877725899219512939453125">
        <ele>1222</ele>
        <time>2026-06-15T15:18:29.000Z</time>
        <extensions>
          <ns3:TrackPointExtension>
            <ns3:atemp>21.0</ns3:atemp>
          </ns3:TrackPointExtension>
        </extensions>
      </trkpt>
      <trkpt lat="42.5993040762841701507568359375" lon="19.983877725899219512939453125">
        <ele>1222</ele>
        <time>2026-06-15T15:18:30.000Z</time>
        <extensions>
          <ns3:TrackPointExtension>
            <ns3:atemp>21.0</ns3:atemp>
          </ns3:TrackPointExtension>
        </extensions>
      </trkpt>
      <trkpt lat="42.5993040762841701507568359375" lon="19.983877725899219512939453125">
        <ele>1222</ele>
        <time>2026-06-15T15:18:31.000Z</time>
        <extensions>
          <ns3:TrackPointExtension>
            <ns3:atemp>21.0</ns3:atemp>
          </ns3:TrackPointExtension>
        </extensions>
      </trkpt>
      <trkpt lat="42.5993040762841701507568359375" lon="19.983877725899219512939453125">
        <ele>1222</ele>
        <time>2026-06-15T15:18:32.000Z</time>
        <extensions>
          <ns3:TrackPointExtension>
            <ns3:atemp>21.0</ns3:atemp>
          </ns3:TrackPointExtension>
        </extensions>
      </trkpt>
      <trkpt lat="42.5993040762841701507568359375" lon="19.983877725899219512939453125">
        <ele>1222</ele>
        <time>2026-06-15T15:18:33.000Z</time>
        <extensions>
          <ns3:TrackPointExtension>
            <ns3:atemp>21.0</ns3:atemp>
          </ns3:TrackPointExtension>
        </extensions>
      </trkpt>
      <trkpt lat="42.5993040762841701507568359375" lon="19.983877725899219512939453125">
        <ele>1222</ele>
        <time>2026-06-15T15:18:34.000Z</time>
        <extensions>
          <ns3:TrackPointExtension>
            <ns3:atemp>21.0</ns3:atemp>
          </ns3:TrackPointExtension>
        </extensions>
      </trkpt>
      <trkpt lat="42.5993040762841701507568359375" lon="19.983877725899219512939453125">
        <ele>1222</ele>
        <time>2026-06-15T15:18:35.000Z</time>
        <extensions>
          <ns3:TrackPointExtension>
            <ns3:atemp>21.0</ns3:atemp>
          </ns3:TrackPointExtension>
        </extensions>
      </trkpt>
      <trkpt lat="42.5993040762841701507568359375" lon="19.983877725899219512939453125">
        <ele>1222</ele>
        <time>2026-06-15T15:18:36.000Z</time>
        <extensions>
          <ns3:TrackPointExtension>
            <ns3:atemp>21.0</ns3:atemp>
          </ns3:TrackPointExtension>
        </extensions>
      </trkpt>
      <trkpt lat="42.5993040762841701507568359375" lon="19.983877725899219512939453125">
        <ele>1222</ele>
        <time>2026-06-15T15:18:37.000Z</time>
        <extensions>
          <ns3:TrackPointExtension>
            <ns3:atemp>21.0</ns3:atemp>
          </ns3:TrackPointExtension>
        </extensions>
      </trkpt>
      <trkpt lat="42.5993040762841701507568359375" lon="19.983877725899219512939453125">
        <ele>1222</ele>
        <time>2026-06-15T15:18:38.000Z</time>
        <extensions>
          <ns3:TrackPointExtension>
            <ns3:atemp>21.0</ns3:atemp>
          </ns3:TrackPointExtension>
        </extensions>
      </trkpt>
      <trkpt lat="42.5993040762841701507568359375" lon="19.983877725899219512939453125">
        <ele>1222</ele>
        <time>2026-06-15T15:18:39.000Z</time>
        <extensions>
          <ns3:TrackPointExtension>
            <ns3:atemp>21.0</ns3:atemp>
          </ns3:TrackPointExtension>
        </extensions>
      </trkpt>
      <trkpt lat="42.5993040762841701507568359375" lon="19.983877725899219512939453125">
        <ele>1222</ele>
        <time>2026-06-15T15:18:40.000Z</time>
        <extensions>
          <ns3:TrackPointExtension>
            <ns3:atemp>21.0</ns3:atemp>
          </ns3:TrackPointExtension>
        </extensions>
      </trkpt>
      <trkpt lat="42.5993040762841701507568359375" lon="19.983877725899219512939453125">
        <ele>1222</ele>
        <time>2026-06-15T15:18:41.000Z</time>
        <extensions>
          <ns3:TrackPointExtension>
            <ns3:atemp>21.0</ns3:atemp>
          </ns3:TrackPointExtension>
        </extensions>
      </trkpt>
      <trkpt lat="42.5993040762841701507568359375" lon="19.983877725899219512939453125">
        <ele>1222</ele>
        <time>2026-06-15T15:18:42.000Z</time>
        <extensions>
          <ns3:TrackPointExtension>
            <ns3:atemp>21.0</ns3:atemp>
          </ns3:TrackPointExtension>
        </extensions>
      </trkpt>
      <trkpt lat="42.5993040762841701507568359375" lon="19.983877725899219512939453125">
        <ele>1222</ele>
        <time>2026-06-15T15:18:43.000Z</time>
        <extensions>
          <ns3:TrackPointExtension>
            <ns3:atemp>21.0</ns3:atemp>
          </ns3:TrackPointExtension>
        </extensions>
      </trkpt>
      <trkpt lat="42.5993040762841701507568359375" lon="19.983877725899219512939453125">
        <ele>1222</ele>
        <time>2026-06-15T15:18:44.000Z</time>
        <extensions>
          <ns3:TrackPointExtension>
            <ns3:atemp>21.0</ns3:atemp>
          </ns3:TrackPointExtension>
        </extensions>
      </trkpt>
      <trkpt lat="42.5993040762841701507568359375" lon="19.983877725899219512939453125">
        <ele>1222</ele>
        <time>2026-06-15T15:18:45.000Z</time>
        <extensions>
          <ns3:TrackPointExtension>
            <ns3:atemp>21.0</ns3:atemp>
          </ns3:TrackPointExtension>
        </extensions>
      </trkpt>
      <trkpt lat="42.5993040762841701507568359375" lon="19.983877725899219512939453125">
        <ele>1222</ele>
        <time>2026-06-15T15:18:46.000Z</time>
        <extensions>
          <ns3:TrackPointExtension>
            <ns3:atemp>21.0</ns3:atemp>
          </ns3:TrackPointExtension>
        </extensions>
      </trkpt>
      <trkpt lat="42.5993040762841701507568359375" lon="19.983877725899219512939453125">
        <ele>1222</ele>
        <time>2026-06-15T15:18:47.000Z</time>
        <extensions>
          <ns3:TrackPointExtension>
            <ns3:atemp>21.0</ns3:atemp>
          </ns3:TrackPointExtension>
        </extensions>
      </trkpt>
      <trkpt lat="42.5993040762841701507568359375" lon="19.983877725899219512939453125">
        <ele>1222</ele>
        <time>2026-06-15T15:18:48.000Z</time>
        <extensions>
          <ns3:TrackPointExtension>
            <ns3:atemp>21.0</ns3:atemp>
          </ns3:TrackPointExtension>
        </extensions>
      </trkpt>
      <trkpt lat="42.5993040762841701507568359375" lon="19.983877725899219512939453125">
        <ele>1222</ele>
        <time>2026-06-15T15:18:49.000Z</time>
        <extensions>
          <ns3:TrackPointExtension>
            <ns3:atemp>21.0</ns3:atemp>
          </ns3:TrackPointExtension>
        </extensions>
      </trkpt>
      <trkpt lat="42.5993040762841701507568359375" lon="19.983877725899219512939453125">
        <ele>1222</ele>
        <time>2026-06-15T15:18:50.000Z</time>
        <extensions>
          <ns3:TrackPointExtension>
            <ns3:atemp>21.0</ns3:atemp>
          </ns3:TrackPointExtension>
        </extensions>
      </trkpt>
      <trkpt lat="42.5993040762841701507568359375" lon="19.983877725899219512939453125">
        <ele>1222</ele>
        <time>2026-06-15T15:18:51.000Z</time>
        <extensions>
          <ns3:TrackPointExtension>
            <ns3:atemp>21.0</ns3:atemp>
          </ns3:TrackPointExtension>
        </extensions>
      </trkpt>
      <trkpt lat="42.5993040762841701507568359375" lon="19.983877725899219512939453125">
        <ele>1222</ele>
        <time>2026-06-15T15:18:52.000Z</time>
        <extensions>
          <ns3:TrackPointExtension>
            <ns3:atemp>21.0</ns3:atemp>
          </ns3:TrackPointExtension>
        </extensions>
      </trkpt>
      <trkpt lat="42.5993040762841701507568359375" lon="19.983877725899219512939453125">
        <ele>1222</ele>
        <time>2026-06-15T15:18:53.000Z</time>
        <extensions>
          <ns3:TrackPointExtension>
            <ns3:atemp>21.0</ns3:atemp>
          </ns3:TrackPointExtension>
        </extensions>
      </trkpt>
      <trkpt lat="42.5993040762841701507568359375" lon="19.983877725899219512939453125">
        <ele>1222</ele>
        <time>2026-06-15T15:18:54.000Z</time>
        <extensions>
          <ns3:TrackPointExtension>
            <ns3:atemp>21.0</ns3:atemp>
          </ns3:TrackPointExtension>
        </extensions>
      </trkpt>
      <trkpt lat="42.5993040762841701507568359375" lon="19.983877725899219512939453125">
        <ele>1222</ele>
        <time>2026-06-15T15:18:55.000Z</time>
        <extensions>
          <ns3:TrackPointExtension>
            <ns3:atemp>21.0</ns3:atemp>
          </ns3:TrackPointExtension>
        </extensions>
      </trkpt>
      <trkpt lat="42.5993040762841701507568359375" lon="19.983877725899219512939453125">
        <ele>1222</ele>
        <time>2026-06-15T15:18:56.000Z</time>
        <extensions>
          <ns3:TrackPointExtension>
            <ns3:atemp>21.0</ns3:atemp>
          </ns3:TrackPointExtension>
        </extensions>
      </trkpt>
      <trkpt lat="42.5993040762841701507568359375" lon="19.983877725899219512939453125">
        <ele>1222</ele>
        <time>2026-06-15T15:18:57.000Z</time>
        <extensions>
          <ns3:TrackPointExtension>
            <ns3:atemp>21.0</ns3:atemp>
          </ns3:TrackPointExtension>
        </extensions>
      </trkpt>
      <trkpt lat="42.5993040762841701507568359375" lon="19.983877725899219512939453125">
        <ele>1222</ele>
        <time>2026-06-15T15:18:58.000Z</time>
        <extensions>
          <ns3:TrackPointExtension>
            <ns3:atemp>21.0</ns3:atemp>
          </ns3:TrackPointExtension>
        </extensions>
      </trkpt>
      <trkpt lat="42.5993040762841701507568359375" lon="19.983877725899219512939453125">
        <ele>1222</ele>
        <time>2026-06-15T15:18:59.000Z</time>
        <extensions>
          <ns3:TrackPointExtension>
            <ns3:atemp>21.0</ns3:atemp>
          </ns3:TrackPointExtension>
        </extensions>
      </trkpt>
      <trkpt lat="42.5993040762841701507568359375" lon="19.983877725899219512939453125">
        <ele>1222</ele>
        <time>2026-06-15T15:19:00.000Z</time>
        <extensions>
          <ns3:TrackPointExtension>
            <ns3:atemp>21.0</ns3:atemp>
          </ns3:TrackPointExtension>
        </extensions>
      </trkpt>
      <trkpt lat="42.5993040762841701507568359375" lon="19.983877725899219512939453125">
        <ele>1222</ele>
        <time>2026-06-15T15:19:01.000Z</time>
        <extensions>
          <ns3:TrackPointExtension>
            <ns3:atemp>21.0</ns3:atemp>
          </ns3:TrackPointExtension>
        </extensions>
      </trkpt>
      <trkpt lat="42.5993040762841701507568359375" lon="19.983877725899219512939453125">
        <ele>1222</ele>
        <time>2026-06-15T15:19:02.000Z</time>
        <extensions>
          <ns3:TrackPointExtension>
            <ns3:atemp>21.0</ns3:atemp>
          </ns3:TrackPointExtension>
        </extensions>
      </trkpt>
      <trkpt lat="42.5993040762841701507568359375" lon="19.983877725899219512939453125">
        <ele>1222</ele>
        <time>2026-06-15T15:19:03.000Z</time>
        <extensions>
          <ns3:TrackPointExtension>
            <ns3:atemp>21.0</ns3:atemp>
          </ns3:TrackPointExtension>
        </extensions>
      </trkpt>
      <trkpt lat="42.5993040762841701507568359375" lon="19.983877725899219512939453125">
        <ele>1222</ele>
        <time>2026-06-15T15:19:04.000Z</time>
        <extensions>
          <ns3:TrackPointExtension>
            <ns3:atemp>21.0</ns3:atemp>
          </ns3:TrackPointExtension>
        </extensions>
      </trkpt>
      <trkpt lat="42.5993040762841701507568359375" lon="19.983877725899219512939453125">
        <ele>1222</ele>
        <time>2026-06-15T15:19:05.000Z</time>
        <extensions>
          <ns3:TrackPointExtension>
            <ns3:atemp>21.0</ns3:atemp>
          </ns3:TrackPointExtension>
        </extensions>
      </trkpt>
      <trkpt lat="42.5993040762841701507568359375" lon="19.983877725899219512939453125">
        <ele>1222</ele>
        <time>2026-06-15T15:19:06.000Z</time>
        <extensions>
          <ns3:TrackPointExtension>
            <ns3:atemp>21.0</ns3:atemp>
          </ns3:TrackPointExtension>
        </extensions>
      </trkpt>
      <trkpt lat="42.5993040762841701507568359375" lon="19.983877725899219512939453125">
        <ele>1222</ele>
        <time>2026-06-15T15:19:07.000Z</time>
        <extensions>
          <ns3:TrackPointExtension>
            <ns3:atemp>21.0</ns3:atemp>
          </ns3:TrackPointExtension>
        </extensions>
      </trkpt>
      <trkpt lat="42.5993040762841701507568359375" lon="19.983877725899219512939453125">
        <ele>1222</ele>
        <time>2026-06-15T15:19:08.000Z</time>
        <extensions>
          <ns3:TrackPointExtension>
            <ns3:atemp>21.0</ns3:atemp>
          </ns3:TrackPointExtension>
        </extensions>
      </trkpt>
      <trkpt lat="42.5993040762841701507568359375" lon="19.983877725899219512939453125">
        <ele>1222</ele>
        <time>2026-06-15T15:19:09.000Z</time>
        <extensions>
          <ns3:TrackPointExtension>
            <ns3:atemp>21.0</ns3:atemp>
          </ns3:TrackPointExtension>
        </extensions>
      </trkpt>
      <trkpt lat="42.5993040762841701507568359375" lon="19.983877725899219512939453125">
        <ele>1222</ele>
        <time>2026-06-15T15:19:10.000Z</time>
        <extensions>
          <ns3:TrackPointExtension>
            <ns3:atemp>21.0</ns3:atemp>
          </ns3:TrackPointExtension>
        </extensions>
      </trkpt>
      <trkpt lat="42.5993040762841701507568359375" lon="19.983877725899219512939453125">
        <ele>1222</ele>
        <time>2026-06-15T15:19:11.000Z</time>
        <extensions>
          <ns3:TrackPointExtension>
            <ns3:atemp>21.0</ns3:atemp>
          </ns3:TrackPointExtension>
        </extensions>
      </trkpt>
      <trkpt lat="42.5993040762841701507568359375" lon="19.983877725899219512939453125">
        <ele>1222</ele>
        <time>2026-06-15T15:19:12.000Z</time>
        <extensions>
          <ns3:TrackPointExtension>
            <ns3:atemp>21.0</ns3:atemp>
          </ns3:TrackPointExtension>
        </extensions>
      </trkpt>
      <trkpt lat="42.5993040762841701507568359375" lon="19.983877725899219512939453125">
        <ele>1222</ele>
        <time>2026-06-15T15:19:13.000Z</time>
        <extensions>
          <ns3:TrackPointExtension>
            <ns3:atemp>21.0</ns3:atemp>
          </ns3:TrackPointExtension>
        </extensions>
      </trkpt>
      <trkpt lat="42.5993040762841701507568359375" lon="19.983877725899219512939453125">
        <ele>1222</ele>
        <time>2026-06-15T15:19:14.000Z</time>
        <extensions>
          <ns3:TrackPointExtension>
            <ns3:atemp>21.0</ns3:atemp>
          </ns3:TrackPointExtension>
        </extensions>
      </trkpt>
      <trkpt lat="42.5993040762841701507568359375" lon="19.983877725899219512939453125">
        <ele>1222</ele>
        <time>2026-06-15T15:19:15.000Z</time>
        <extensions>
          <ns3:TrackPointExtension>
            <ns3:atemp>21.0</ns3:atemp>
          </ns3:TrackPointExtension>
        </extensions>
      </trkpt>
      <trkpt lat="42.5993040762841701507568359375" lon="19.983877725899219512939453125">
        <ele>1222</ele>
        <time>2026-06-15T15:19:16.000Z</time>
        <extensions>
          <ns3:TrackPointExtension>
            <ns3:atemp>21.0</ns3:atemp>
          </ns3:TrackPointExtension>
        </extensions>
      </trkpt>
      <trkpt lat="42.5993040762841701507568359375" lon="19.983877725899219512939453125">
        <ele>1222</ele>
        <time>2026-06-15T15:19:17.000Z</time>
        <extensions>
          <ns3:TrackPointExtension>
            <ns3:atemp>21.0</ns3:atemp>
          </ns3:TrackPointExtension>
        </extensions>
      </trkpt>
      <trkpt lat="42.5993040762841701507568359375" lon="19.983877725899219512939453125">
        <ele>1222</ele>
        <time>2026-06-15T15:19:18.000Z</time>
        <extensions>
          <ns3:TrackPointExtension>
            <ns3:atemp>21.0</ns3:atemp>
          </ns3:TrackPointExtension>
        </extensions>
      </trkpt>
      <trkpt lat="42.5993040762841701507568359375" lon="19.983877725899219512939453125">
        <ele>1222</ele>
        <time>2026-06-15T15:19:19.000Z</time>
        <extensions>
          <ns3:TrackPointExtension>
            <ns3:atemp>21.0</ns3:atemp>
          </ns3:TrackPointExtension>
        </extensions>
      </trkpt>
      <trkpt lat="42.5993040762841701507568359375" lon="19.983877725899219512939453125">
        <ele>1222</ele>
        <time>2026-06-15T15:19:20.000Z</time>
        <extensions>
          <ns3:TrackPointExtension>
            <ns3:atemp>21.0</ns3:atemp>
          </ns3:TrackPointExtension>
        </extensions>
      </trkpt>
      <trkpt lat="42.5993040762841701507568359375" lon="19.983877725899219512939453125">
        <ele>1222</ele>
        <time>2026-06-15T15:19:21.000Z</time>
        <extensions>
          <ns3:TrackPointExtension>
            <ns3:atemp>21.0</ns3:atemp>
          </ns3:TrackPointExtension>
        </extensions>
      </trkpt>
      <trkpt lat="42.5993040762841701507568359375" lon="19.983877725899219512939453125">
        <ele>1222</ele>
        <time>2026-06-15T15:19:22.000Z</time>
        <extensions>
          <ns3:TrackPointExtension>
            <ns3:atemp>21.0</ns3:atemp>
          </ns3:TrackPointExtension>
        </extensions>
      </trkpt>
      <trkpt lat="42.5993040762841701507568359375" lon="19.983877725899219512939453125">
        <ele>1222</ele>
        <time>2026-06-15T15:19:23.000Z</time>
        <extensions>
          <ns3:TrackPointExtension>
            <ns3:atemp>21.0</ns3:atemp>
          </ns3:TrackPointExtension>
        </extensions>
      </trkpt>
      <trkpt lat="42.5993040762841701507568359375" lon="19.983877725899219512939453125">
        <ele>1222</ele>
        <time>2026-06-15T15:19:24.000Z</time>
        <extensions>
          <ns3:TrackPointExtension>
            <ns3:atemp>21.0</ns3:atemp>
          </ns3:TrackPointExtension>
        </extensions>
      </trkpt>
      <trkpt lat="42.5993040762841701507568359375" lon="19.983877725899219512939453125">
        <ele>1222</ele>
        <time>2026-06-15T15:19:25.000Z</time>
        <extensions>
          <ns3:TrackPointExtension>
            <ns3:atemp>21.0</ns3:atemp>
          </ns3:TrackPointExtension>
        </extensions>
      </trkpt>
      <trkpt lat="42.5993040762841701507568359375" lon="19.983877725899219512939453125">
        <ele>1222</ele>
        <time>2026-06-15T15:19:26.000Z</time>
        <extensions>
          <ns3:TrackPointExtension>
            <ns3:atemp>21.0</ns3:atemp>
          </ns3:TrackPointExtension>
        </extensions>
      </trkpt>
      <trkpt lat="42.5993040762841701507568359375" lon="19.983877725899219512939453125">
        <ele>1222</ele>
        <time>2026-06-15T15:19:27.000Z</time>
        <extensions>
          <ns3:TrackPointExtension>
            <ns3:atemp>21.0</ns3:atemp>
          </ns3:TrackPointExtension>
        </extensions>
      </trkpt>
      <trkpt lat="42.5993040762841701507568359375" lon="19.983877725899219512939453125">
        <ele>1222</ele>
        <time>2026-06-15T15:19:28.000Z</time>
        <extensions>
          <ns3:TrackPointExtension>
            <ns3:atemp>21.0</ns3:atemp>
          </ns3:TrackPointExtension>
        </extensions>
      </trkpt>
      <trkpt lat="42.5993040762841701507568359375" lon="19.983877725899219512939453125">
        <ele>1222</ele>
        <time>2026-06-15T15:19:29.000Z</time>
        <extensions>
          <ns3:TrackPointExtension>
            <ns3:atemp>21.0</ns3:atemp>
          </ns3:TrackPointExtension>
        </extensions>
      </trkpt>
      <trkpt lat="42.5993040762841701507568359375" lon="19.983877725899219512939453125">
        <ele>1222</ele>
        <time>2026-06-15T15:19:30.000Z</time>
        <extensions>
          <ns3:TrackPointExtension>
            <ns3:atemp>21.0</ns3:atemp>
          </ns3:TrackPointExtension>
        </extensions>
      </trkpt>
      <trkpt lat="42.5993040762841701507568359375" lon="19.983877725899219512939453125">
        <ele>1222</ele>
        <time>2026-06-15T15:19:31.000Z</time>
        <extensions>
          <ns3:TrackPointExtension>
            <ns3:atemp>21.0</ns3:atemp>
          </ns3:TrackPointExtension>
        </extensions>
      </trkpt>
      <trkpt lat="42.5993040762841701507568359375" lon="19.983877725899219512939453125">
        <ele>1222</ele>
        <time>2026-06-15T15:19:32.000Z</time>
        <extensions>
          <ns3:TrackPointExtension>
            <ns3:atemp>21.0</ns3:atemp>
          </ns3:TrackPointExtension>
        </extensions>
      </trkpt>
      <trkpt lat="42.5993040762841701507568359375" lon="19.983877725899219512939453125">
        <ele>1222</ele>
        <time>2026-06-15T15:19:33.000Z</time>
        <extensions>
          <ns3:TrackPointExtension>
            <ns3:atemp>21.0</ns3:atemp>
          </ns3:TrackPointExtension>
        </extensions>
      </trkpt>
      <trkpt lat="42.5993040762841701507568359375" lon="19.983877725899219512939453125">
        <ele>1222</ele>
        <time>2026-06-15T15:19:34.000Z</time>
        <extensions>
          <ns3:TrackPointExtension>
            <ns3:atemp>21.0</ns3:atemp>
          </ns3:TrackPointExtension>
        </extensions>
      </trkpt>
      <trkpt lat="42.5993040762841701507568359375" lon="19.983877725899219512939453125">
        <ele>1222</ele>
        <time>2026-06-15T15:19:35.000Z</time>
        <extensions>
          <ns3:TrackPointExtension>
            <ns3:atemp>21.0</ns3:atemp>
          </ns3:TrackPointExtension>
        </extensions>
      </trkpt>
      <trkpt lat="42.5993040762841701507568359375" lon="19.983877725899219512939453125">
        <ele>1222</ele>
        <time>2026-06-15T15:19:36.000Z</time>
        <extensions>
          <ns3:TrackPointExtension>
            <ns3:atemp>21.0</ns3:atemp>
          </ns3:TrackPointExtension>
        </extensions>
      </trkpt>
      <trkpt lat="42.5993040762841701507568359375" lon="19.983877725899219512939453125">
        <ele>1222</ele>
        <time>2026-06-15T15:19:37.000Z</time>
        <extensions>
          <ns3:TrackPointExtension>
            <ns3:atemp>21.0</ns3:atemp>
          </ns3:TrackPointExtension>
        </extensions>
      </trkpt>
      <trkpt lat="42.5993040762841701507568359375" lon="19.983877725899219512939453125">
        <ele>1222</ele>
        <time>2026-06-15T15:19:38.000Z</time>
        <extensions>
          <ns3:TrackPointExtension>
            <ns3:atemp>21.0</ns3:atemp>
          </ns3:TrackPointExtension>
        </extensions>
      </trkpt>
      <trkpt lat="42.5993040762841701507568359375" lon="19.983877725899219512939453125">
        <ele>1222</ele>
        <time>2026-06-15T15:19:39.000Z</time>
        <extensions>
          <ns3:TrackPointExtension>
            <ns3:atemp>21.0</ns3:atemp>
          </ns3:TrackPointExtension>
        </extensions>
      </trkpt>
      <trkpt lat="42.5993040762841701507568359375" lon="19.983877725899219512939453125">
        <ele>1222</ele>
        <time>2026-06-15T15:19:40.000Z</time>
        <extensions>
          <ns3:TrackPointExtension>
            <ns3:atemp>21.0</ns3:atemp>
          </ns3:TrackPointExtension>
        </extensions>
      </trkpt>
      <trkpt lat="42.5993040762841701507568359375" lon="19.983877725899219512939453125">
        <ele>1222</ele>
        <time>2026-06-15T15:19:41.000Z</time>
        <extensions>
          <ns3:TrackPointExtension>
            <ns3:atemp>21.0</ns3:atemp>
          </ns3:TrackPointExtension>
        </extensions>
      </trkpt>
      <trkpt lat="42.5993040762841701507568359375" lon="19.983877725899219512939453125">
        <ele>1222</ele>
        <time>2026-06-15T15:19:42.000Z</time>
        <extensions>
          <ns3:TrackPointExtension>
            <ns3:atemp>21.0</ns3:atemp>
          </ns3:TrackPointExtension>
        </extensions>
      </trkpt>
      <trkpt lat="42.5993040762841701507568359375" lon="19.983877725899219512939453125">
        <ele>1222</ele>
        <time>2026-06-15T15:19:43.000Z</time>
        <extensions>
          <ns3:TrackPointExtension>
            <ns3:atemp>21.0</ns3:atemp>
          </ns3:TrackPointExtension>
        </extensions>
      </trkpt>
      <trkpt lat="42.5993040762841701507568359375" lon="19.983877725899219512939453125">
        <ele>1222</ele>
        <time>2026-06-15T15:19:44.000Z</time>
        <extensions>
          <ns3:TrackPointExtension>
            <ns3:atemp>21.0</ns3:atemp>
          </ns3:TrackPointExtension>
        </extensions>
      </trkpt>
      <trkpt lat="42.5993040762841701507568359375" lon="19.983877725899219512939453125">
        <ele>1222</ele>
        <time>2026-06-15T15:19:45.000Z</time>
        <extensions>
          <ns3:TrackPointExtension>
            <ns3:atemp>21.0</ns3:atemp>
          </ns3:TrackPointExtension>
        </extensions>
      </trkpt>
      <trkpt lat="42.5993040762841701507568359375" lon="19.983877725899219512939453125">
        <ele>1222</ele>
        <time>2026-06-15T15:19:46.000Z</time>
        <extensions>
          <ns3:TrackPointExtension>
            <ns3:atemp>21.0</ns3:atemp>
          </ns3:TrackPointExtension>
        </extensions>
      </trkpt>
      <trkpt lat="42.5993040762841701507568359375" lon="19.983877725899219512939453125">
        <ele>1222</ele>
        <time>2026-06-15T15:19:47.000Z</time>
        <extensions>
          <ns3:TrackPointExtension>
            <ns3:atemp>21.0</ns3:atemp>
          </ns3:TrackPointExtension>
        </extensions>
      </trkpt>
      <trkpt lat="42.5993040762841701507568359375" lon="19.983877725899219512939453125">
        <ele>1222</ele>
        <time>2026-06-15T15:19:48.000Z</time>
        <extensions>
          <ns3:TrackPointExtension>
            <ns3:atemp>21.0</ns3:atemp>
          </ns3:TrackPointExtension>
        </extensions>
      </trkpt>
      <trkpt lat="42.5993040762841701507568359375" lon="19.983877725899219512939453125">
        <ele>1222</ele>
        <time>2026-06-15T15:19:49.000Z</time>
        <extensions>
          <ns3:TrackPointExtension>
            <ns3:atemp>21.0</ns3:atemp>
          </ns3:TrackPointExtension>
        </extensions>
      </trkpt>
      <trkpt lat="42.5993040762841701507568359375" lon="19.983877725899219512939453125">
        <ele>1222</ele>
        <time>2026-06-15T15:19:50.000Z</time>
        <extensions>
          <ns3:TrackPointExtension>
            <ns3:atemp>21.0</ns3:atemp>
          </ns3:TrackPointExtension>
        </extensions>
      </trkpt>
      <trkpt lat="42.5993040762841701507568359375" lon="19.983877725899219512939453125">
        <ele>1222</ele>
        <time>2026-06-15T15:19:51.000Z</time>
        <extensions>
          <ns3:TrackPointExtension>
            <ns3:atemp>21.0</ns3:atemp>
          </ns3:TrackPointExtension>
        </extensions>
      </trkpt>
      <trkpt lat="42.5993040762841701507568359375" lon="19.983877725899219512939453125">
        <ele>1222</ele>
        <time>2026-06-15T15:19:52.000Z</time>
        <extensions>
          <ns3:TrackPointExtension>
            <ns3:atemp>21.0</ns3:atemp>
          </ns3:TrackPointExtension>
        </extensions>
      </trkpt>
      <trkpt lat="42.5993040762841701507568359375" lon="19.983877725899219512939453125">
        <ele>1222</ele>
        <time>2026-06-15T15:19:53.000Z</time>
        <extensions>
          <ns3:TrackPointExtension>
            <ns3:atemp>21.0</ns3:atemp>
          </ns3:TrackPointExtension>
        </extensions>
      </trkpt>
      <trkpt lat="42.5993040762841701507568359375" lon="19.983877725899219512939453125">
        <ele>1222</ele>
        <time>2026-06-15T15:19:54.000Z</time>
        <extensions>
          <ns3:TrackPointExtension>
            <ns3:atemp>21.0</ns3:atemp>
          </ns3:TrackPointExtension>
        </extensions>
      </trkpt>
      <trkpt lat="42.5993040762841701507568359375" lon="19.983877725899219512939453125">
        <ele>1222</ele>
        <time>2026-06-15T15:19:55.000Z</time>
        <extensions>
          <ns3:TrackPointExtension>
            <ns3:atemp>21.0</ns3:atemp>
          </ns3:TrackPointExtension>
        </extensions>
      </trkpt>
      <trkpt lat="42.5993040762841701507568359375" lon="19.983877725899219512939453125">
        <ele>1222</ele>
        <time>2026-06-15T15:19:56.000Z</time>
        <extensions>
          <ns3:TrackPointExtension>
            <ns3:atemp>21.0</ns3:atemp>
          </ns3:TrackPointExtension>
        </extensions>
      </trkpt>
      <trkpt lat="42.5993040762841701507568359375" lon="19.983877725899219512939453125">
        <ele>1222</ele>
        <time>2026-06-15T15:19:57.000Z</time>
        <extensions>
          <ns3:TrackPointExtension>
            <ns3:atemp>21.0</ns3:atemp>
          </ns3:TrackPointExtension>
        </extensions>
      </trkpt>
      <trkpt lat="42.5993040762841701507568359375" lon="19.983877725899219512939453125">
        <ele>1222</ele>
        <time>2026-06-15T15:19:58.000Z</time>
        <extensions>
          <ns3:TrackPointExtension>
            <ns3:atemp>21.0</ns3:atemp>
          </ns3:TrackPointExtension>
        </extensions>
      </trkpt>
      <trkpt lat="42.5993040762841701507568359375" lon="19.983877725899219512939453125">
        <ele>1222</ele>
        <time>2026-06-15T15:19:59.000Z</time>
        <extensions>
          <ns3:TrackPointExtension>
            <ns3:atemp>21.0</ns3:atemp>
          </ns3:TrackPointExtension>
        </extensions>
      </trkpt>
      <trkpt lat="42.5993040762841701507568359375" lon="19.983877725899219512939453125">
        <ele>1222</ele>
        <time>2026-06-15T15:20:00.000Z</time>
        <extensions>
          <ns3:TrackPointExtension>
            <ns3:atemp>21.0</ns3:atemp>
          </ns3:TrackPointExtension>
        </extensions>
      </trkpt>
      <trkpt lat="42.5993040762841701507568359375" lon="19.983877725899219512939453125">
        <ele>1222</ele>
        <time>2026-06-15T15:20:01.000Z</time>
        <extensions>
          <ns3:TrackPointExtension>
            <ns3:atemp>21.0</ns3:atemp>
          </ns3:TrackPointExtension>
        </extensions>
      </trkpt>
      <trkpt lat="42.5993040762841701507568359375" lon="19.983877725899219512939453125">
        <ele>1222</ele>
        <time>2026-06-15T15:20:02.000Z</time>
        <extensions>
          <ns3:TrackPointExtension>
            <ns3:atemp>21.0</ns3:atemp>
          </ns3:TrackPointExtension>
        </extensions>
      </trkpt>
      <trkpt lat="42.5993040762841701507568359375" lon="19.983877725899219512939453125">
        <ele>1222</ele>
        <time>2026-06-15T15:20:03.000Z</time>
        <extensions>
          <ns3:TrackPointExtension>
            <ns3:atemp>21.0</ns3:atemp>
          </ns3:TrackPointExtension>
        </extensions>
      </trkpt>
      <trkpt lat="42.5993040762841701507568359375" lon="19.983877725899219512939453125">
        <ele>1222</ele>
        <time>2026-06-15T15:20:04.000Z</time>
        <extensions>
          <ns3:TrackPointExtension>
            <ns3:atemp>21.0</ns3:atemp>
          </ns3:TrackPointExtension>
        </extensions>
      </trkpt>
      <trkpt lat="42.5993040762841701507568359375" lon="19.983877725899219512939453125">
        <ele>1222</ele>
        <time>2026-06-15T15:20:05.000Z</time>
        <extensions>
          <ns3:TrackPointExtension>
            <ns3:atemp>21.0</ns3:atemp>
          </ns3:TrackPointExtension>
        </extensions>
      </trkpt>
      <trkpt lat="42.5993040762841701507568359375" lon="19.983877725899219512939453125">
        <ele>1222</ele>
        <time>2026-06-15T15:20:06.000Z</time>
        <extensions>
          <ns3:TrackPointExtension>
            <ns3:atemp>21.0</ns3:atemp>
          </ns3:TrackPointExtension>
        </extensions>
      </trkpt>
      <trkpt lat="42.5993040762841701507568359375" lon="19.983877725899219512939453125">
        <ele>1222</ele>
        <time>2026-06-15T15:20:07.000Z</time>
        <extensions>
          <ns3:TrackPointExtension>
            <ns3:atemp>21.0</ns3:atemp>
          </ns3:TrackPointExtension>
        </extensions>
      </trkpt>
      <trkpt lat="42.5993040762841701507568359375" lon="19.983877725899219512939453125">
        <ele>1222</ele>
        <time>2026-06-15T15:20:08.000Z</time>
        <extensions>
          <ns3:TrackPointExtension>
            <ns3:atemp>21.0</ns3:atemp>
          </ns3:TrackPointExtension>
        </extensions>
      </trkpt>
      <trkpt lat="42.5993040762841701507568359375" lon="19.983877725899219512939453125">
        <ele>1222</ele>
        <time>2026-06-15T15:20:09.000Z</time>
        <extensions>
          <ns3:TrackPointExtension>
            <ns3:atemp>21.0</ns3:atemp>
          </ns3:TrackPointExtension>
        </extensions>
      </trkpt>
      <trkpt lat="42.5993040762841701507568359375" lon="19.983877725899219512939453125">
        <ele>1222</ele>
        <time>2026-06-15T15:20:10.000Z</time>
        <extensions>
          <ns3:TrackPointExtension>
            <ns3:atemp>21.0</ns3:atemp>
          </ns3:TrackPointExtension>
        </extensions>
      </trkpt>
      <trkpt lat="42.5993040762841701507568359375" lon="19.983877725899219512939453125">
        <ele>1222</ele>
        <time>2026-06-15T15:20:11.000Z</time>
        <extensions>
          <ns3:TrackPointExtension>
            <ns3:atemp>21.0</ns3:atemp>
          </ns3:TrackPointExtension>
        </extensions>
      </trkpt>
      <trkpt lat="42.5993040762841701507568359375" lon="19.983877725899219512939453125">
        <ele>1222</ele>
        <time>2026-06-15T15:20:12.000Z</time>
        <extensions>
          <ns3:TrackPointExtension>
            <ns3:atemp>21.0</ns3:atemp>
          </ns3:TrackPointExtension>
        </extensions>
      </trkpt>
      <trkpt lat="42.5993040762841701507568359375" lon="19.983877725899219512939453125">
        <ele>1222</ele>
        <time>2026-06-15T15:20:13.000Z</time>
        <extensions>
          <ns3:TrackPointExtension>
            <ns3:atemp>21.0</ns3:atemp>
          </ns3:TrackPointExtension>
        </extensions>
      </trkpt>
      <trkpt lat="42.5993040762841701507568359375" lon="19.983877725899219512939453125">
        <ele>1222</ele>
        <time>2026-06-15T15:20:14.000Z</time>
        <extensions>
          <ns3:TrackPointExtension>
            <ns3:atemp>21.0</ns3:atemp>
          </ns3:TrackPointExtension>
        </extensions>
      </trkpt>
      <trkpt lat="42.5993040762841701507568359375" lon="19.983877725899219512939453125">
        <ele>1222</ele>
        <time>2026-06-15T15:20:15.000Z</time>
        <extensions>
          <ns3:TrackPointExtension>
            <ns3:atemp>21.0</ns3:atemp>
          </ns3:TrackPointExtension>
        </extensions>
      </trkpt>
      <trkpt lat="42.5993040762841701507568359375" lon="19.983877725899219512939453125">
        <ele>1222</ele>
        <time>2026-06-15T15:20:16.000Z</time>
        <extensions>
          <ns3:TrackPointExtension>
            <ns3:atemp>21.0</ns3:atemp>
          </ns3:TrackPointExtension>
        </extensions>
      </trkpt>
      <trkpt lat="42.5993040762841701507568359375" lon="19.983877725899219512939453125">
        <ele>1222</ele>
        <time>2026-06-15T15:20:17.000Z</time>
        <extensions>
          <ns3:TrackPointExtension>
            <ns3:atemp>21.0</ns3:atemp>
          </ns3:TrackPointExtension>
        </extensions>
      </trkpt>
      <trkpt lat="42.5993040762841701507568359375" lon="19.983877725899219512939453125">
        <ele>1222</ele>
        <time>2026-06-15T15:20:18.000Z</time>
        <extensions>
          <ns3:TrackPointExtension>
            <ns3:atemp>21.0</ns3:atemp>
          </ns3:TrackPointExtension>
        </extensions>
      </trkpt>
      <trkpt lat="42.5993040762841701507568359375" lon="19.983877725899219512939453125">
        <ele>1222</ele>
        <time>2026-06-15T15:20:19.000Z</time>
        <extensions>
          <ns3:TrackPointExtension>
            <ns3:atemp>21.0</ns3:atemp>
          </ns3:TrackPointExtension>
        </extensions>
      </trkpt>
      <trkpt lat="42.5993040762841701507568359375" lon="19.983877725899219512939453125">
        <ele>1222</ele>
        <time>2026-06-15T15:20:20.000Z</time>
        <extensions>
          <ns3:TrackPointExtension>
            <ns3:atemp>21.0</ns3:atemp>
          </ns3:TrackPointExtension>
        </extensions>
      </trkpt>
      <trkpt lat="42.5993040762841701507568359375" lon="19.983877725899219512939453125">
        <ele>1222</ele>
        <time>2026-06-15T15:20:21.000Z</time>
        <extensions>
          <ns3:TrackPointExtension>
            <ns3:atemp>21.0</ns3:atemp>
          </ns3:TrackPointExtension>
        </extensions>
      </trkpt>
      <trkpt lat="42.5993040762841701507568359375" lon="19.983877725899219512939453125">
        <ele>1222</ele>
        <time>2026-06-15T15:20:22.000Z</time>
        <extensions>
          <ns3:TrackPointExtension>
            <ns3:atemp>21.0</ns3:atemp>
          </ns3:TrackPointExtension>
        </extensions>
      </trkpt>
      <trkpt lat="42.5993040762841701507568359375" lon="19.983877725899219512939453125">
        <ele>1222</ele>
        <time>2026-06-15T15:20:23.000Z</time>
        <extensions>
          <ns3:TrackPointExtension>
            <ns3:atemp>21.0</ns3:atemp>
          </ns3:TrackPointExtension>
        </extensions>
      </trkpt>
      <trkpt lat="42.5993040762841701507568359375" lon="19.983877725899219512939453125">
        <ele>1222</ele>
        <time>2026-06-15T15:20:24.000Z</time>
        <extensions>
          <ns3:TrackPointExtension>
            <ns3:atemp>21.0</ns3:atemp>
          </ns3:TrackPointExtension>
        </extensions>
      </trkpt>
      <trkpt lat="42.5993040762841701507568359375" lon="19.983877725899219512939453125">
        <ele>1222</ele>
        <time>2026-06-15T15:20:25.000Z</time>
        <extensions>
          <ns3:TrackPointExtension>
            <ns3:atemp>21.0</ns3:atemp>
          </ns3:TrackPointExtension>
        </extensions>
      </trkpt>
      <trkpt lat="42.5993040762841701507568359375" lon="19.983877725899219512939453125">
        <ele>1222</ele>
        <time>2026-06-15T15:20:26.000Z</time>
        <extensions>
          <ns3:TrackPointExtension>
            <ns3:atemp>21.0</ns3:atemp>
          </ns3:TrackPointExtension>
        </extensions>
      </trkpt>
      <trkpt lat="42.5993040762841701507568359375" lon="19.983877725899219512939453125">
        <ele>1222</ele>
        <time>2026-06-15T15:20:27.000Z</time>
        <extensions>
          <ns3:TrackPointExtension>
            <ns3:atemp>21.0</ns3:atemp>
          </ns3:TrackPointExtension>
        </extensions>
      </trkpt>
      <trkpt lat="42.5993040762841701507568359375" lon="19.983877725899219512939453125">
        <ele>1222</ele>
        <time>2026-06-15T15:20:28.000Z</time>
        <extensions>
          <ns3:TrackPointExtension>
            <ns3:atemp>21.0</ns3:atemp>
          </ns3:TrackPointExtension>
        </extensions>
      </trkpt>
      <trkpt lat="42.5993040762841701507568359375" lon="19.983877725899219512939453125">
        <ele>1222</ele>
        <time>2026-06-15T15:20:29.000Z</time>
        <extensions>
          <ns3:TrackPointExtension>
            <ns3:atemp>21.0</ns3:atemp>
          </ns3:TrackPointExtension>
        </extensions>
      </trkpt>
      <trkpt lat="42.5993040762841701507568359375" lon="19.983877725899219512939453125">
        <ele>1222</ele>
        <time>2026-06-15T15:20:30.000Z</time>
        <extensions>
          <ns3:TrackPointExtension>
            <ns3:atemp>21.0</ns3:atemp>
          </ns3:TrackPointExtension>
        </extensions>
      </trkpt>
      <trkpt lat="42.5993040762841701507568359375" lon="19.983877725899219512939453125">
        <ele>1222</ele>
        <time>2026-06-15T15:20:31.000Z</time>
        <extensions>
          <ns3:TrackPointExtension>
            <ns3:atemp>21.0</ns3:atemp>
          </ns3:TrackPointExtension>
        </extensions>
      </trkpt>
      <trkpt lat="42.5993040762841701507568359375" lon="19.983877725899219512939453125">
        <ele>1222</ele>
        <time>2026-06-15T15:20:32.000Z</time>
        <extensions>
          <ns3:TrackPointExtension>
            <ns3:atemp>21.0</ns3:atemp>
          </ns3:TrackPointExtension>
        </extensions>
      </trkpt>
      <trkpt lat="42.5993040762841701507568359375" lon="19.983877725899219512939453125">
        <ele>1222</ele>
        <time>2026-06-15T15:20:33.000Z</time>
        <extensions>
          <ns3:TrackPointExtension>
            <ns3:atemp>21.0</ns3:atemp>
          </ns3:TrackPointExtension>
        </extensions>
      </trkpt>
      <trkpt lat="42.5993040762841701507568359375" lon="19.983877725899219512939453125">
        <ele>1222</ele>
        <time>2026-06-15T15:20:34.000Z</time>
        <extensions>
          <ns3:TrackPointExtension>
            <ns3:atemp>21.0</ns3:atemp>
          </ns3:TrackPointExtension>
        </extensions>
      </trkpt>
      <trkpt lat="42.5993040762841701507568359375" lon="19.983877725899219512939453125">
        <ele>1222</ele>
        <time>2026-06-15T15:20:35.000Z</time>
        <extensions>
          <ns3:TrackPointExtension>
            <ns3:atemp>21.0</ns3:atemp>
          </ns3:TrackPointExtension>
        </extensions>
      </trkpt>
      <trkpt lat="42.5993040762841701507568359375" lon="19.983877725899219512939453125">
        <ele>1222</ele>
        <time>2026-06-15T15:20:36.000Z</time>
        <extensions>
          <ns3:TrackPointExtension>
            <ns3:atemp>21.0</ns3:atemp>
          </ns3:TrackPointExtension>
        </extensions>
      </trkpt>
      <trkpt lat="42.5993040762841701507568359375" lon="19.983877725899219512939453125">
        <ele>1222</ele>
        <time>2026-06-15T15:20:37.000Z</time>
        <extensions>
          <ns3:TrackPointExtension>
            <ns3:atemp>21.0</ns3:atemp>
          </ns3:TrackPointExtension>
        </extensions>
      </trkpt>
      <trkpt lat="42.5993040762841701507568359375" lon="19.983877725899219512939453125">
        <ele>1222</ele>
        <time>2026-06-15T15:20:38.000Z</time>
        <extensions>
          <ns3:TrackPointExtension>
            <ns3:atemp>21.0</ns3:atemp>
          </ns3:TrackPointExtension>
        </extensions>
      </trkpt>
      <trkpt lat="42.5993040762841701507568359375" lon="19.983877725899219512939453125">
        <ele>1222</ele>
        <time>2026-06-15T15:20:39.000Z</time>
        <extensions>
          <ns3:TrackPointExtension>
            <ns3:atemp>21.0</ns3:atemp>
          </ns3:TrackPointExtension>
        </extensions>
      </trkpt>
      <trkpt lat="42.5993040762841701507568359375" lon="19.983877725899219512939453125">
        <ele>1222</ele>
        <time>2026-06-15T15:20:40.000Z</time>
        <extensions>
          <ns3:TrackPointExtension>
            <ns3:atemp>21.0</ns3:atemp>
          </ns3:TrackPointExtension>
        </extensions>
      </trkpt>
      <trkpt lat="42.5993040762841701507568359375" lon="19.983877725899219512939453125">
        <ele>1222</ele>
        <time>2026-06-15T15:20:41.000Z</time>
        <extensions>
          <ns3:TrackPointExtension>
            <ns3:atemp>21.0</ns3:atemp>
          </ns3:TrackPointExtension>
        </extensions>
      </trkpt>
      <trkpt lat="42.5993040762841701507568359375" lon="19.983877725899219512939453125">
        <ele>1222</ele>
        <time>2026-06-15T15:20:42.000Z</time>
        <extensions>
          <ns3:TrackPointExtension>
            <ns3:atemp>21.0</ns3:atemp>
          </ns3:TrackPointExtension>
        </extensions>
      </trkpt>
      <trkpt lat="42.5993040762841701507568359375" lon="19.983877725899219512939453125">
        <ele>1222</ele>
        <time>2026-06-15T15:20:43.000Z</time>
        <extensions>
          <ns3:TrackPointExtension>
            <ns3:atemp>21.0</ns3:atemp>
          </ns3:TrackPointExtension>
        </extensions>
      </trkpt>
      <trkpt lat="42.5993040762841701507568359375" lon="19.983877725899219512939453125">
        <ele>1222</ele>
        <time>2026-06-15T15:20:44.000Z</time>
        <extensions>
          <ns3:TrackPointExtension>
            <ns3:atemp>21.0</ns3:atemp>
          </ns3:TrackPointExtension>
        </extensions>
      </trkpt>
      <trkpt lat="42.5993040762841701507568359375" lon="19.983877725899219512939453125">
        <ele>1222</ele>
        <time>2026-06-15T15:20:45.000Z</time>
        <extensions>
          <ns3:TrackPointExtension>
            <ns3:atemp>21.0</ns3:atemp>
          </ns3:TrackPointExtension>
        </extensions>
      </trkpt>
      <trkpt lat="42.5993040762841701507568359375" lon="19.983877725899219512939453125">
        <ele>1222</ele>
        <time>2026-06-15T15:20:46.000Z</time>
        <extensions>
          <ns3:TrackPointExtension>
            <ns3:atemp>21.0</ns3:atemp>
          </ns3:TrackPointExtension>
        </extensions>
      </trkpt>
      <trkpt lat="42.5993040762841701507568359375" lon="19.983877725899219512939453125">
        <ele>1222</ele>
        <time>2026-06-15T15:20:47.000Z</time>
        <extensions>
          <ns3:TrackPointExtension>
            <ns3:atemp>21.0</ns3:atemp>
          </ns3:TrackPointExtension>
        </extensions>
      </trkpt>
      <trkpt lat="42.5993040762841701507568359375" lon="19.983877725899219512939453125">
        <ele>1222</ele>
        <time>2026-06-15T15:20:48.000Z</time>
        <extensions>
          <ns3:TrackPointExtension>
            <ns3:atemp>21.0</ns3:atemp>
          </ns3:TrackPointExtension>
        </extensions>
      </trkpt>
      <trkpt lat="42.5993040762841701507568359375" lon="19.983877725899219512939453125">
        <ele>1222</ele>
        <time>2026-06-15T15:20:49.000Z</time>
        <extensions>
          <ns3:TrackPointExtension>
            <ns3:atemp>21.0</ns3:atemp>
          </ns3:TrackPointExtension>
        </extensions>
      </trkpt>
      <trkpt lat="42.5993040762841701507568359375" lon="19.983877725899219512939453125">
        <ele>1222</ele>
        <time>2026-06-15T15:20:50.000Z</time>
        <extensions>
          <ns3:TrackPointExtension>
            <ns3:atemp>21.0</ns3:atemp>
          </ns3:TrackPointExtension>
        </extensions>
      </trkpt>
      <trkpt lat="42.5993040762841701507568359375" lon="19.983877725899219512939453125">
        <ele>1222</ele>
        <time>2026-06-15T15:20:51.000Z</time>
        <extensions>
          <ns3:TrackPointExtension>
            <ns3:atemp>21.0</ns3:atemp>
          </ns3:TrackPointExtension>
        </extensions>
      </trkpt>
      <trkpt lat="42.5993040762841701507568359375" lon="19.983877725899219512939453125">
        <ele>1222</ele>
        <time>2026-06-15T15:20:52.000Z</time>
        <extensions>
          <ns3:TrackPointExtension>
            <ns3:atemp>21.0</ns3:atemp>
          </ns3:TrackPointExtension>
        </extensions>
      </trkpt>
      <trkpt lat="42.5993040762841701507568359375" lon="19.983877725899219512939453125">
        <ele>1222</ele>
        <time>2026-06-15T15:20:53.000Z</time>
        <extensions>
          <ns3:TrackPointExtension>
            <ns3:atemp>21.0</ns3:atemp>
          </ns3:TrackPointExtension>
        </extensions>
      </trkpt>
      <trkpt lat="42.5993040762841701507568359375" lon="19.983877725899219512939453125">
        <ele>1222</ele>
        <time>2026-06-15T15:20:54.000Z</time>
        <extensions>
          <ns3:TrackPointExtension>
            <ns3:atemp>21.0</ns3:atemp>
          </ns3:TrackPointExtension>
        </extensions>
      </trkpt>
      <trkpt lat="42.5993040762841701507568359375" lon="19.983877725899219512939453125">
        <ele>1222</ele>
        <time>2026-06-15T15:20:55.000Z</time>
        <extensions>
          <ns3:TrackPointExtension>
            <ns3:atemp>21.0</ns3:atemp>
          </ns3:TrackPointExtension>
        </extensions>
      </trkpt>
      <trkpt lat="42.5993040762841701507568359375" lon="19.983877725899219512939453125">
        <ele>1222</ele>
        <time>2026-06-15T15:20:56.000Z</time>
        <extensions>
          <ns3:TrackPointExtension>
            <ns3:atemp>21.0</ns3:atemp>
          </ns3:TrackPointExtension>
        </extensions>
      </trkpt>
      <trkpt lat="42.5993040762841701507568359375" lon="19.983877725899219512939453125">
        <ele>1222</ele>
        <time>2026-06-15T15:20:57.000Z</time>
        <extensions>
          <ns3:TrackPointExtension>
            <ns3:atemp>21.0</ns3:atemp>
          </ns3:TrackPointExtension>
        </extensions>
      </trkpt>
      <trkpt lat="42.5993040762841701507568359375" lon="19.983877725899219512939453125">
        <ele>1222</ele>
        <time>2026-06-15T15:20:58.000Z</time>
        <extensions>
          <ns3:TrackPointExtension>
            <ns3:atemp>21.0</ns3:atemp>
          </ns3:TrackPointExtension>
        </extensions>
      </trkpt>
      <trkpt lat="42.5993040762841701507568359375" lon="19.983877725899219512939453125">
        <ele>1222</ele>
        <time>2026-06-15T15:20:59.000Z</time>
        <extensions>
          <ns3:TrackPointExtension>
            <ns3:atemp>21.0</ns3:atemp>
          </ns3:TrackPointExtension>
        </extensions>
      </trkpt>
      <trkpt lat="42.5993040762841701507568359375" lon="19.983877725899219512939453125">
        <ele>1222</ele>
        <time>2026-06-15T15:21:00.000Z</time>
        <extensions>
          <ns3:TrackPointExtension>
            <ns3:atemp>21.0</ns3:atemp>
          </ns3:TrackPointExtension>
        </extensions>
      </trkpt>
      <trkpt lat="42.5993040762841701507568359375" lon="19.983877725899219512939453125">
        <ele>1222</ele>
        <time>2026-06-15T15:21:01.000Z</time>
        <extensions>
          <ns3:TrackPointExtension>
            <ns3:atemp>21.0</ns3:atemp>
          </ns3:TrackPointExtension>
        </extensions>
      </trkpt>
      <trkpt lat="42.5993040762841701507568359375" lon="19.983877725899219512939453125">
        <ele>1222</ele>
        <time>2026-06-15T15:21:02.000Z</time>
        <extensions>
          <ns3:TrackPointExtension>
            <ns3:atemp>21.0</ns3:atemp>
          </ns3:TrackPointExtension>
        </extensions>
      </trkpt>
      <trkpt lat="42.5993040762841701507568359375" lon="19.983877725899219512939453125">
        <ele>1222</ele>
        <time>2026-06-15T15:21:03.000Z</time>
        <extensions>
          <ns3:TrackPointExtension>
            <ns3:atemp>21.0</ns3:atemp>
          </ns3:TrackPointExtension>
        </extensions>
      </trkpt>
      <trkpt lat="42.5993040762841701507568359375" lon="19.983877725899219512939453125">
        <ele>1222</ele>
        <time>2026-06-15T15:21:04.000Z</time>
        <extensions>
          <ns3:TrackPointExtension>
            <ns3:atemp>21.0</ns3:atemp>
          </ns3:TrackPointExtension>
        </extensions>
      </trkpt>
      <trkpt lat="42.5993040762841701507568359375" lon="19.983877725899219512939453125">
        <ele>1222</ele>
        <time>2026-06-15T15:21:05.000Z</time>
        <extensions>
          <ns3:TrackPointExtension>
            <ns3:atemp>21.0</ns3:atemp>
          </ns3:TrackPointExtension>
        </extensions>
      </trkpt>
      <trkpt lat="42.5993040762841701507568359375" lon="19.983877725899219512939453125">
        <ele>1222</ele>
        <time>2026-06-15T15:21:06.000Z</time>
        <extensions>
          <ns3:TrackPointExtension>
            <ns3:atemp>21.0</ns3:atemp>
          </ns3:TrackPointExtension>
        </extensions>
      </trkpt>
      <trkpt lat="42.5993040762841701507568359375" lon="19.983877725899219512939453125">
        <ele>1222</ele>
        <time>2026-06-15T15:21:07.000Z</time>
        <extensions>
          <ns3:TrackPointExtension>
            <ns3:atemp>21.0</ns3:atemp>
          </ns3:TrackPointExtension>
        </extensions>
      </trkpt>
      <trkpt lat="42.5993040762841701507568359375" lon="19.983877725899219512939453125">
        <ele>1222</ele>
        <time>2026-06-15T15:21:08.000Z</time>
        <extensions>
          <ns3:TrackPointExtension>
            <ns3:atemp>21.0</ns3:atemp>
          </ns3:TrackPointExtension>
        </extensions>
      </trkpt>
      <trkpt lat="42.5993040762841701507568359375" lon="19.983877725899219512939453125">
        <ele>1222</ele>
        <time>2026-06-15T15:21:09.000Z</time>
        <extensions>
          <ns3:TrackPointExtension>
            <ns3:atemp>21.0</ns3:atemp>
          </ns3:TrackPointExtension>
        </extensions>
      </trkpt>
      <trkpt lat="42.5993040762841701507568359375" lon="19.983877725899219512939453125">
        <ele>1222</ele>
        <time>2026-06-15T15:21:10.000Z</time>
        <extensions>
          <ns3:TrackPointExtension>
            <ns3:atemp>21.0</ns3:atemp>
          </ns3:TrackPointExtension>
        </extensions>
      </trkpt>
      <trkpt lat="42.5993040762841701507568359375" lon="19.983877725899219512939453125">
        <ele>1222</ele>
        <time>2026-06-15T15:21:11.000Z</time>
        <extensions>
          <ns3:TrackPointExtension>
            <ns3:atemp>21.0</ns3:atemp>
          </ns3:TrackPointExtension>
        </extensions>
      </trkpt>
      <trkpt lat="42.5993040762841701507568359375" lon="19.983877725899219512939453125">
        <ele>1222</ele>
        <time>2026-06-15T15:21:12.000Z</time>
        <extensions>
          <ns3:TrackPointExtension>
            <ns3:atemp>21.0</ns3:atemp>
          </ns3:TrackPointExtension>
        </extensions>
      </trkpt>
      <trkpt lat="42.5993040762841701507568359375" lon="19.983877725899219512939453125">
        <ele>1222</ele>
        <time>2026-06-15T15:21:13.000Z</time>
        <extensions>
          <ns3:TrackPointExtension>
            <ns3:atemp>21.0</ns3:atemp>
          </ns3:TrackPointExtension>
        </extensions>
      </trkpt>
      <trkpt lat="42.5993040762841701507568359375" lon="19.983877725899219512939453125">
        <ele>1222</ele>
        <time>2026-06-15T15:21:14.000Z</time>
        <extensions>
          <ns3:TrackPointExtension>
            <ns3:atemp>21.0</ns3:atemp>
          </ns3:TrackPointExtension>
        </extensions>
      </trkpt>
      <trkpt lat="42.5993040762841701507568359375" lon="19.983877725899219512939453125">
        <ele>1222</ele>
        <time>2026-06-15T15:21:15.000Z</time>
        <extensions>
          <ns3:TrackPointExtension>
            <ns3:atemp>21.0</ns3:atemp>
          </ns3:TrackPointExtension>
        </extensions>
      </trkpt>
      <trkpt lat="42.5993040762841701507568359375" lon="19.983877725899219512939453125">
        <ele>1222</ele>
        <time>2026-06-15T15:21:16.000Z</time>
        <extensions>
          <ns3:TrackPointExtension>
            <ns3:atemp>21.0</ns3:atemp>
          </ns3:TrackPointExtension>
        </extensions>
      </trkpt>
      <trkpt lat="42.5993040762841701507568359375" lon="19.983877725899219512939453125">
        <ele>1222</ele>
        <time>2026-06-15T15:21:17.000Z</time>
        <extensions>
          <ns3:TrackPointExtension>
            <ns3:atemp>21.0</ns3:atemp>
          </ns3:TrackPointExtension>
        </extensions>
      </trkpt>
      <trkpt lat="42.5993040762841701507568359375" lon="19.983877725899219512939453125">
        <ele>1222</ele>
        <time>2026-06-15T15:21:18.000Z</time>
        <extensions>
          <ns3:TrackPointExtension>
            <ns3:atemp>21.0</ns3:atemp>
          </ns3:TrackPointExtension>
        </extensions>
      </trkpt>
      <trkpt lat="42.5993040762841701507568359375" lon="19.983877725899219512939453125">
        <ele>1222</ele>
        <time>2026-06-15T15:21:19.000Z</time>
        <extensions>
          <ns3:TrackPointExtension>
            <ns3:atemp>21.0</ns3:atemp>
          </ns3:TrackPointExtension>
        </extensions>
      </trkpt>
      <trkpt lat="42.5993040762841701507568359375" lon="19.983877725899219512939453125">
        <ele>1222</ele>
        <time>2026-06-15T15:21:20.000Z</time>
        <extensions>
          <ns3:TrackPointExtension>
            <ns3:atemp>21.0</ns3:atemp>
          </ns3:TrackPointExtension>
        </extensions>
      </trkpt>
      <trkpt lat="42.5993040762841701507568359375" lon="19.983877725899219512939453125">
        <ele>1222</ele>
        <time>2026-06-15T15:21:21.000Z</time>
        <extensions>
          <ns3:TrackPointExtension>
            <ns3:atemp>21.0</ns3:atemp>
          </ns3:TrackPointExtension>
        </extensions>
      </trkpt>
      <trkpt lat="42.5993040762841701507568359375" lon="19.983877725899219512939453125">
        <ele>1222</ele>
        <time>2026-06-15T15:21:22.000Z</time>
        <extensions>
          <ns3:TrackPointExtension>
            <ns3:atemp>21.0</ns3:atemp>
          </ns3:TrackPointExtension>
        </extensions>
      </trkpt>
      <trkpt lat="42.5993040762841701507568359375" lon="19.983877725899219512939453125">
        <ele>1222</ele>
        <time>2026-06-15T15:21:23.000Z</time>
        <extensions>
          <ns3:TrackPointExtension>
            <ns3:atemp>21.0</ns3:atemp>
          </ns3:TrackPointExtension>
        </extensions>
      </trkpt>
      <trkpt lat="42.5993040762841701507568359375" lon="19.983877725899219512939453125">
        <ele>1222</ele>
        <time>2026-06-15T15:21:24.000Z</time>
        <extensions>
          <ns3:TrackPointExtension>
            <ns3:atemp>21.0</ns3:atemp>
          </ns3:TrackPointExtension>
        </extensions>
      </trkpt>
      <trkpt lat="42.5993040762841701507568359375" lon="19.983877725899219512939453125">
        <ele>1222</ele>
        <time>2026-06-15T15:21:25.000Z</time>
        <extensions>
          <ns3:TrackPointExtension>
            <ns3:atemp>21.0</ns3:atemp>
          </ns3:TrackPointExtension>
        </extensions>
      </trkpt>
      <trkpt lat="42.5993040762841701507568359375" lon="19.983877725899219512939453125">
        <ele>1222</ele>
        <time>2026-06-15T15:21:26.000Z</time>
        <extensions>
          <ns3:TrackPointExtension>
            <ns3:atemp>21.0</ns3:atemp>
          </ns3:TrackPointExtension>
        </extensions>
      </trkpt>
      <trkpt lat="42.5993040762841701507568359375" lon="19.983877725899219512939453125">
        <ele>1222</ele>
        <time>2026-06-15T15:21:27.000Z</time>
        <extensions>
          <ns3:TrackPointExtension>
            <ns3:atemp>21.0</ns3:atemp>
          </ns3:TrackPointExtension>
        </extensions>
      </trkpt>
      <trkpt lat="42.5993040762841701507568359375" lon="19.983877725899219512939453125">
        <ele>1222</ele>
        <time>2026-06-15T15:21:28.000Z</time>
        <extensions>
          <ns3:TrackPointExtension>
            <ns3:atemp>21.0</ns3:atemp>
          </ns3:TrackPointExtension>
        </extensions>
      </trkpt>
      <trkpt lat="42.5993040762841701507568359375" lon="19.983877725899219512939453125">
        <ele>1222</ele>
        <time>2026-06-15T15:21:29.000Z</time>
        <extensions>
          <ns3:TrackPointExtension>
            <ns3:atemp>21.0</ns3:atemp>
          </ns3:TrackPointExtension>
        </extensions>
      </trkpt>
      <trkpt lat="42.5993040762841701507568359375" lon="19.983877725899219512939453125">
        <ele>1222</ele>
        <time>2026-06-15T15:21:30.000Z</time>
        <extensions>
          <ns3:TrackPointExtension>
            <ns3:atemp>21.0</ns3:atemp>
          </ns3:TrackPointExtension>
        </extensions>
      </trkpt>
      <trkpt lat="42.5993040762841701507568359375" lon="19.983877725899219512939453125">
        <ele>1222</ele>
        <time>2026-06-15T15:21:31.000Z</time>
        <extensions>
          <ns3:TrackPointExtension>
            <ns3:atemp>21.0</ns3:atemp>
          </ns3:TrackPointExtension>
        </extensions>
      </trkpt>
      <trkpt lat="42.5993040762841701507568359375" lon="19.983877725899219512939453125">
        <ele>1222</ele>
        <time>2026-06-15T15:21:32.000Z</time>
        <extensions>
          <ns3:TrackPointExtension>
            <ns3:atemp>21.0</ns3:atemp>
          </ns3:TrackPointExtension>
        </extensions>
      </trkpt>
      <trkpt lat="42.5993040762841701507568359375" lon="19.983877725899219512939453125">
        <ele>1222</ele>
        <time>2026-06-15T15:21:33.000Z</time>
        <extensions>
          <ns3:TrackPointExtension>
            <ns3:atemp>21.0</ns3:atemp>
          </ns3:TrackPointExtension>
        </extensions>
      </trkpt>
      <trkpt lat="42.5993040762841701507568359375" lon="19.983877725899219512939453125">
        <ele>1222</ele>
        <time>2026-06-15T15:21:34.000Z</time>
        <extensions>
          <ns3:TrackPointExtension>
            <ns3:atemp>21.0</ns3:atemp>
          </ns3:TrackPointExtension>
        </extensions>
      </trkpt>
      <trkpt lat="42.5993040762841701507568359375" lon="19.983877725899219512939453125">
        <ele>1222</ele>
        <time>2026-06-15T15:21:35.000Z</time>
        <extensions>
          <ns3:TrackPointExtension>
            <ns3:atemp>21.0</ns3:atemp>
          </ns3:TrackPointExtension>
        </extensions>
      </trkpt>
      <trkpt lat="42.5993040762841701507568359375" lon="19.983877725899219512939453125">
        <ele>1222</ele>
        <time>2026-06-15T15:21:36.000Z</time>
        <extensions>
          <ns3:TrackPointExtension>
            <ns3:atemp>21.0</ns3:atemp>
          </ns3:TrackPointExtension>
        </extensions>
      </trkpt>
      <trkpt lat="42.5993040762841701507568359375" lon="19.983877725899219512939453125">
        <ele>1222</ele>
        <time>2026-06-15T15:21:37.000Z</time>
        <extensions>
          <ns3:TrackPointExtension>
            <ns3:atemp>21.0</ns3:atemp>
          </ns3:TrackPointExtension>
        </extensions>
      </trkpt>
      <trkpt lat="42.5993040762841701507568359375" lon="19.983877725899219512939453125">
        <ele>1222</ele>
        <time>2026-06-15T15:21:38.000Z</time>
        <extensions>
          <ns3:TrackPointExtension>
            <ns3:atemp>21.0</ns3:atemp>
          </ns3:TrackPointExtension>
        </extensions>
      </trkpt>
      <trkpt lat="42.5993040762841701507568359375" lon="19.983877725899219512939453125">
        <ele>1222</ele>
        <time>2026-06-15T15:21:39.000Z</time>
        <extensions>
          <ns3:TrackPointExtension>
            <ns3:atemp>21.0</ns3:atemp>
          </ns3:TrackPointExtension>
        </extensions>
      </trkpt>
      <trkpt lat="42.5993040762841701507568359375" lon="19.983877725899219512939453125">
        <ele>1222</ele>
        <time>2026-06-15T15:21:40.000Z</time>
        <extensions>
          <ns3:TrackPointExtension>
            <ns3:atemp>21.0</ns3:atemp>
          </ns3:TrackPointExtension>
        </extensions>
      </trkpt>
      <trkpt lat="42.5993040762841701507568359375" lon="19.983877725899219512939453125">
        <ele>1222</ele>
        <time>2026-06-15T15:21:41.000Z</time>
        <extensions>
          <ns3:TrackPointExtension>
            <ns3:atemp>21.0</ns3:atemp>
          </ns3:TrackPointExtension>
        </extensions>
      </trkpt>
      <trkpt lat="42.5993040762841701507568359375" lon="19.983877725899219512939453125">
        <ele>1222</ele>
        <time>2026-06-15T15:21:42.000Z</time>
        <extensions>
          <ns3:TrackPointExtension>
            <ns3:atemp>21.0</ns3:atemp>
          </ns3:TrackPointExtension>
        </extensions>
      </trkpt>
      <trkpt lat="42.5993040762841701507568359375" lon="19.983877725899219512939453125">
        <ele>1222</ele>
        <time>2026-06-15T15:21:43.000Z</time>
        <extensions>
          <ns3:TrackPointExtension>
            <ns3:atemp>21.0</ns3:atemp>
          </ns3:TrackPointExtension>
        </extensions>
      </trkpt>
      <trkpt lat="42.5993040762841701507568359375" lon="19.983877725899219512939453125">
        <ele>1222</ele>
        <time>2026-06-15T15:21:44.000Z</time>
        <extensions>
          <ns3:TrackPointExtension>
            <ns3:atemp>21.0</ns3:atemp>
          </ns3:TrackPointExtension>
        </extensions>
      </trkpt>
      <trkpt lat="42.5993040762841701507568359375" lon="19.983877725899219512939453125">
        <ele>1222</ele>
        <time>2026-06-15T15:21:45.000Z</time>
        <extensions>
          <ns3:TrackPointExtension>
            <ns3:atemp>21.0</ns3:atemp>
          </ns3:TrackPointExtension>
        </extensions>
      </trkpt>
      <trkpt lat="42.5993040762841701507568359375" lon="19.983877725899219512939453125">
        <ele>1222</ele>
        <time>2026-06-15T15:21:46.000Z</time>
        <extensions>
          <ns3:TrackPointExtension>
            <ns3:atemp>21.0</ns3:atemp>
          </ns3:TrackPointExtension>
        </extensions>
      </trkpt>
      <trkpt lat="42.5993040762841701507568359375" lon="19.983877725899219512939453125">
        <ele>1222</ele>
        <time>2026-06-15T15:21:47.000Z</time>
        <extensions>
          <ns3:TrackPointExtension>
            <ns3:atemp>21.0</ns3:atemp>
          </ns3:TrackPointExtension>
        </extensions>
      </trkpt>
      <trkpt lat="42.5993040762841701507568359375" lon="19.983877725899219512939453125">
        <ele>1222</ele>
        <time>2026-06-15T15:21:48.000Z</time>
        <extensions>
          <ns3:TrackPointExtension>
            <ns3:atemp>21.0</ns3:atemp>
          </ns3:TrackPointExtension>
        </extensions>
      </trkpt>
      <trkpt lat="42.5993040762841701507568359375" lon="19.983877725899219512939453125">
        <ele>1222</ele>
        <time>2026-06-15T15:21:49.000Z</time>
        <extensions>
          <ns3:TrackPointExtension>
            <ns3:atemp>21.0</ns3:atemp>
          </ns3:TrackPointExtension>
        </extensions>
      </trkpt>
      <trkpt lat="42.5993040762841701507568359375" lon="19.983877725899219512939453125">
        <ele>1222</ele>
        <time>2026-06-15T15:21:50.000Z</time>
        <extensions>
          <ns3:TrackPointExtension>
            <ns3:atemp>21.0</ns3:atemp>
          </ns3:TrackPointExtension>
        </extensions>
      </trkpt>
      <trkpt lat="42.5993040762841701507568359375" lon="19.983877725899219512939453125">
        <ele>1222</ele>
        <time>2026-06-15T15:21:51.000Z</time>
        <extensions>
          <ns3:TrackPointExtension>
            <ns3:atemp>21.0</ns3:atemp>
          </ns3:TrackPointExtension>
        </extensions>
      </trkpt>
      <trkpt lat="42.5993040762841701507568359375" lon="19.983877725899219512939453125">
        <ele>1222</ele>
        <time>2026-06-15T15:21:52.000Z</time>
        <extensions>
          <ns3:TrackPointExtension>
            <ns3:atemp>21.0</ns3:atemp>
          </ns3:TrackPointExtension>
        </extensions>
      </trkpt>
      <trkpt lat="42.5993040762841701507568359375" lon="19.983877725899219512939453125">
        <ele>1222</ele>
        <time>2026-06-15T15:21:53.000Z</time>
        <extensions>
          <ns3:TrackPointExtension>
            <ns3:atemp>21.0</ns3:atemp>
          </ns3:TrackPointExtension>
        </extensions>
      </trkpt>
      <trkpt lat="42.5993040762841701507568359375" lon="19.983877725899219512939453125">
        <ele>1222</ele>
        <time>2026-06-15T15:21:54.000Z</time>
        <extensions>
          <ns3:TrackPointExtension>
            <ns3:atemp>21.0</ns3:atemp>
          </ns3:TrackPointExtension>
        </extensions>
      </trkpt>
      <trkpt lat="42.5993040762841701507568359375" lon="19.983877725899219512939453125">
        <ele>1222</ele>
        <time>2026-06-15T15:21:55.000Z</time>
        <extensions>
          <ns3:TrackPointExtension>
            <ns3:atemp>21.0</ns3:atemp>
          </ns3:TrackPointExtension>
        </extensions>
      </trkpt>
      <trkpt lat="42.5993040762841701507568359375" lon="19.983877725899219512939453125">
        <ele>1222</ele>
        <time>2026-06-15T15:21:56.000Z</time>
        <extensions>
          <ns3:TrackPointExtension>
            <ns3:atemp>21.0</ns3:atemp>
          </ns3:TrackPointExtension>
        </extensions>
      </trkpt>
      <trkpt lat="42.5993040762841701507568359375" lon="19.983877725899219512939453125">
        <ele>1222</ele>
        <time>2026-06-15T15:21:57.000Z</time>
        <extensions>
          <ns3:TrackPointExtension>
            <ns3:atemp>21.0</ns3:atemp>
          </ns3:TrackPointExtension>
        </extensions>
      </trkpt>
      <trkpt lat="42.5993040762841701507568359375" lon="19.983877725899219512939453125">
        <ele>1222</ele>
        <time>2026-06-15T15:21:58.000Z</time>
        <extensions>
          <ns3:TrackPointExtension>
            <ns3:atemp>21.0</ns3:atemp>
          </ns3:TrackPointExtension>
        </extensions>
      </trkpt>
      <trkpt lat="42.5993040762841701507568359375" lon="19.983877725899219512939453125">
        <ele>1222</ele>
        <time>2026-06-15T15:21:59.000Z</time>
        <extensions>
          <ns3:TrackPointExtension>
            <ns3:atemp>21.0</ns3:atemp>
          </ns3:TrackPointExtension>
        </extensions>
      </trkpt>
      <trkpt lat="42.5993040762841701507568359375" lon="19.983877725899219512939453125">
        <ele>1222</ele>
        <time>2026-06-15T15:22:00.000Z</time>
        <extensions>
          <ns3:TrackPointExtension>
            <ns3:atemp>21.0</ns3:atemp>
          </ns3:TrackPointExtension>
        </extensions>
      </trkpt>
      <trkpt lat="42.5993040762841701507568359375" lon="19.983877725899219512939453125">
        <ele>1222</ele>
        <time>2026-06-15T15:22:01.000Z</time>
        <extensions>
          <ns3:TrackPointExtension>
            <ns3:atemp>21.0</ns3:atemp>
          </ns3:TrackPointExtension>
        </extensions>
      </trkpt>
      <trkpt lat="42.5993040762841701507568359375" lon="19.983877725899219512939453125">
        <ele>1222</ele>
        <time>2026-06-15T15:22:02.000Z</time>
        <extensions>
          <ns3:TrackPointExtension>
            <ns3:atemp>21.0</ns3:atemp>
          </ns3:TrackPointExtension>
        </extensions>
      </trkpt>
      <trkpt lat="42.5993040762841701507568359375" lon="19.983877725899219512939453125">
        <ele>1222</ele>
        <time>2026-06-15T15:22:03.000Z</time>
        <extensions>
          <ns3:TrackPointExtension>
            <ns3:atemp>21.0</ns3:atemp>
          </ns3:TrackPointExtension>
        </extensions>
      </trkpt>
      <trkpt lat="42.5993040762841701507568359375" lon="19.983877725899219512939453125">
        <ele>1222</ele>
        <time>2026-06-15T15:22:04.000Z</time>
        <extensions>
          <ns3:TrackPointExtension>
            <ns3:atemp>21.0</ns3:atemp>
          </ns3:TrackPointExtension>
        </extensions>
      </trkpt>
      <trkpt lat="42.5993040762841701507568359375" lon="19.983877725899219512939453125">
        <ele>1222</ele>
        <time>2026-06-15T15:22:05.000Z</time>
        <extensions>
          <ns3:TrackPointExtension>
            <ns3:atemp>21.0</ns3:atemp>
          </ns3:TrackPointExtension>
        </extensions>
      </trkpt>
      <trkpt lat="42.5993040762841701507568359375" lon="19.983877725899219512939453125">
        <ele>1222</ele>
        <time>2026-06-15T15:22:06.000Z</time>
        <extensions>
          <ns3:TrackPointExtension>
            <ns3:atemp>21.0</ns3:atemp>
          </ns3:TrackPointExtension>
        </extensions>
      </trkpt>
      <trkpt lat="42.5993040762841701507568359375" lon="19.983877725899219512939453125">
        <ele>1222</ele>
        <time>2026-06-15T15:22:07.000Z</time>
        <extensions>
          <ns3:TrackPointExtension>
            <ns3:atemp>21.0</ns3:atemp>
          </ns3:TrackPointExtension>
        </extensions>
      </trkpt>
      <trkpt lat="42.5993040762841701507568359375" lon="19.983877725899219512939453125">
        <ele>1222</ele>
        <time>2026-06-15T15:22:08.000Z</time>
        <extensions>
          <ns3:TrackPointExtension>
            <ns3:atemp>21.0</ns3:atemp>
          </ns3:TrackPointExtension>
        </extensions>
      </trkpt>
      <trkpt lat="42.5993040762841701507568359375" lon="19.983877725899219512939453125">
        <ele>1222</ele>
        <time>2026-06-15T15:22:09.000Z</time>
        <extensions>
          <ns3:TrackPointExtension>
            <ns3:atemp>21.0</ns3:atemp>
          </ns3:TrackPointExtension>
        </extensions>
      </trkpt>
      <trkpt lat="42.5993040762841701507568359375" lon="19.983877725899219512939453125">
        <ele>1222</ele>
        <time>2026-06-15T15:22:10.000Z</time>
        <extensions>
          <ns3:TrackPointExtension>
            <ns3:atemp>21.0</ns3:atemp>
          </ns3:TrackPointExtension>
        </extensions>
      </trkpt>
      <trkpt lat="42.5993040762841701507568359375" lon="19.983877725899219512939453125">
        <ele>1222</ele>
        <time>2026-06-15T15:22:11.000Z</time>
        <extensions>
          <ns3:TrackPointExtension>
            <ns3:atemp>21.0</ns3:atemp>
          </ns3:TrackPointExtension>
        </extensions>
      </trkpt>
      <trkpt lat="42.5993040762841701507568359375" lon="19.983877725899219512939453125">
        <ele>1222</ele>
        <time>2026-06-15T15:22:12.000Z</time>
        <extensions>
          <ns3:TrackPointExtension>
            <ns3:atemp>21.0</ns3:atemp>
          </ns3:TrackPointExtension>
        </extensions>
      </trkpt>
      <trkpt lat="42.5993040762841701507568359375" lon="19.983877725899219512939453125">
        <ele>1222</ele>
        <time>2026-06-15T15:22:13.000Z</time>
        <extensions>
          <ns3:TrackPointExtension>
            <ns3:atemp>21.0</ns3:atemp>
          </ns3:TrackPointExtension>
        </extensions>
      </trkpt>
      <trkpt lat="42.5993040762841701507568359375" lon="19.983877725899219512939453125">
        <ele>1222</ele>
        <time>2026-06-15T15:22:14.000Z</time>
        <extensions>
          <ns3:TrackPointExtension>
            <ns3:atemp>21.0</ns3:atemp>
          </ns3:TrackPointExtension>
        </extensions>
      </trkpt>
      <trkpt lat="42.5993040762841701507568359375" lon="19.983877725899219512939453125">
        <ele>1222</ele>
        <time>2026-06-15T15:22:15.000Z</time>
        <extensions>
          <ns3:TrackPointExtension>
            <ns3:atemp>21.0</ns3:atemp>
          </ns3:TrackPointExtension>
        </extensions>
      </trkpt>
      <trkpt lat="42.5993040762841701507568359375" lon="19.983877725899219512939453125">
        <ele>1222</ele>
        <time>2026-06-15T15:22:16.000Z</time>
        <extensions>
          <ns3:TrackPointExtension>
            <ns3:atemp>21.0</ns3:atemp>
          </ns3:TrackPointExtension>
        </extensions>
      </trkpt>
      <trkpt lat="42.5993040762841701507568359375" lon="19.983877725899219512939453125">
        <ele>1222</ele>
        <time>2026-06-15T15:22:17.000Z</time>
        <extensions>
          <ns3:TrackPointExtension>
            <ns3:atemp>21.0</ns3:atemp>
          </ns3:TrackPointExtension>
        </extensions>
      </trkpt>
      <trkpt lat="42.5993040762841701507568359375" lon="19.983877725899219512939453125">
        <ele>1222</ele>
        <time>2026-06-15T15:22:18.000Z</time>
        <extensions>
          <ns3:TrackPointExtension>
            <ns3:atemp>21.0</ns3:atemp>
          </ns3:TrackPointExtension>
        </extensions>
      </trkpt>
      <trkpt lat="42.5993040762841701507568359375" lon="19.983877725899219512939453125">
        <ele>1222</ele>
        <time>2026-06-15T15:22:19.000Z</time>
        <extensions>
          <ns3:TrackPointExtension>
            <ns3:atemp>21.0</ns3:atemp>
          </ns3:TrackPointExtension>
        </extensions>
      </trkpt>
      <trkpt lat="42.5993040762841701507568359375" lon="19.983877725899219512939453125">
        <ele>1222</ele>
        <time>2026-06-15T15:22:20.000Z</time>
        <extensions>
          <ns3:TrackPointExtension>
            <ns3:atemp>21.0</ns3:atemp>
          </ns3:TrackPointExtension>
        </extensions>
      </trkpt>
      <trkpt lat="42.5993040762841701507568359375" lon="19.983877725899219512939453125">
        <ele>1222</ele>
        <time>2026-06-15T15:22:21.000Z</time>
        <extensions>
          <ns3:TrackPointExtension>
            <ns3:atemp>21.0</ns3:atemp>
          </ns3:TrackPointExtension>
        </extensions>
      </trkpt>
      <trkpt lat="42.5993040762841701507568359375" lon="19.983877725899219512939453125">
        <ele>1222</ele>
        <time>2026-06-15T15:22:22.000Z</time>
        <extensions>
          <ns3:TrackPointExtension>
            <ns3:atemp>21.0</ns3:atemp>
          </ns3:TrackPointExtension>
        </extensions>
      </trkpt>
      <trkpt lat="42.5993040762841701507568359375" lon="19.983877725899219512939453125">
        <ele>1222</ele>
        <time>2026-06-15T15:22:23.000Z</time>
        <extensions>
          <ns3:TrackPointExtension>
            <ns3:atemp>21.0</ns3:atemp>
          </ns3:TrackPointExtension>
        </extensions>
      </trkpt>
      <trkpt lat="42.5993040762841701507568359375" lon="19.983877725899219512939453125">
        <ele>1222</ele>
        <time>2026-06-15T15:22:24.000Z</time>
        <extensions>
          <ns3:TrackPointExtension>
            <ns3:atemp>21.0</ns3:atemp>
          </ns3:TrackPointExtension>
        </extensions>
      </trkpt>
      <trkpt lat="42.5993040762841701507568359375" lon="19.983877725899219512939453125">
        <ele>1222</ele>
        <time>2026-06-15T15:22:25.000Z</time>
        <extensions>
          <ns3:TrackPointExtension>
            <ns3:atemp>21.0</ns3:atemp>
          </ns3:TrackPointExtension>
        </extensions>
      </trkpt>
      <trkpt lat="42.5993040762841701507568359375" lon="19.983877725899219512939453125">
        <ele>1222</ele>
        <time>2026-06-15T15:22:26.000Z</time>
        <extensions>
          <ns3:TrackPointExtension>
            <ns3:atemp>21.0</ns3:atemp>
          </ns3:TrackPointExtension>
        </extensions>
      </trkpt>
      <trkpt lat="42.5993040762841701507568359375" lon="19.983877725899219512939453125">
        <ele>1222</ele>
        <time>2026-06-15T15:22:27.000Z</time>
        <extensions>
          <ns3:TrackPointExtension>
            <ns3:atemp>21.0</ns3:atemp>
          </ns3:TrackPointExtension>
        </extensions>
      </trkpt>
      <trkpt lat="42.5993040762841701507568359375" lon="19.983877725899219512939453125">
        <ele>1222</ele>
        <time>2026-06-15T15:22:28.000Z</time>
        <extensions>
          <ns3:TrackPointExtension>
            <ns3:atemp>21.0</ns3:atemp>
          </ns3:TrackPointExtension>
        </extensions>
      </trkpt>
      <trkpt lat="42.5993040762841701507568359375" lon="19.983877725899219512939453125">
        <ele>1222</ele>
        <time>2026-06-15T15:22:29.000Z</time>
        <extensions>
          <ns3:TrackPointExtension>
            <ns3:atemp>21.0</ns3:atemp>
          </ns3:TrackPointExtension>
        </extensions>
      </trkpt>
      <trkpt lat="42.5993040762841701507568359375" lon="19.983877725899219512939453125">
        <ele>1222</ele>
        <time>2026-06-15T15:22:30.000Z</time>
        <extensions>
          <ns3:TrackPointExtension>
            <ns3:atemp>21.0</ns3:atemp>
          </ns3:TrackPointExtension>
        </extensions>
      </trkpt>
      <trkpt lat="42.5993040762841701507568359375" lon="19.983877725899219512939453125">
        <ele>1222</ele>
        <time>2026-06-15T15:22:31.000Z</time>
        <extensions>
          <ns3:TrackPointExtension>
            <ns3:atemp>21.0</ns3:atemp>
          </ns3:TrackPointExtension>
        </extensions>
      </trkpt>
      <trkpt lat="42.5993040762841701507568359375" lon="19.983877725899219512939453125">
        <ele>1222</ele>
        <time>2026-06-15T15:22:32.000Z</time>
        <extensions>
          <ns3:TrackPointExtension>
            <ns3:atemp>21.0</ns3:atemp>
          </ns3:TrackPointExtension>
        </extensions>
      </trkpt>
      <trkpt lat="42.5993040762841701507568359375" lon="19.983877725899219512939453125">
        <ele>1222</ele>
        <time>2026-06-15T15:22:33.000Z</time>
        <extensions>
          <ns3:TrackPointExtension>
            <ns3:atemp>21.0</ns3:atemp>
          </ns3:TrackPointExtension>
        </extensions>
      </trkpt>
      <trkpt lat="42.5993040762841701507568359375" lon="19.983877725899219512939453125">
        <ele>1222</ele>
        <time>2026-06-15T15:22:34.000Z</time>
        <extensions>
          <ns3:TrackPointExtension>
            <ns3:atemp>21.0</ns3:atemp>
          </ns3:TrackPointExtension>
        </extensions>
      </trkpt>
      <trkpt lat="42.5993040762841701507568359375" lon="19.983877725899219512939453125">
        <ele>1222</ele>
        <time>2026-06-15T15:22:35.000Z</time>
        <extensions>
          <ns3:TrackPointExtension>
            <ns3:atemp>21.0</ns3:atemp>
          </ns3:TrackPointExtension>
        </extensions>
      </trkpt>
      <trkpt lat="42.5993040762841701507568359375" lon="19.983877725899219512939453125">
        <ele>1222</ele>
        <time>2026-06-15T15:22:36.000Z</time>
        <extensions>
          <ns3:TrackPointExtension>
            <ns3:atemp>21.0</ns3:atemp>
          </ns3:TrackPointExtension>
        </extensions>
      </trkpt>
      <trkpt lat="42.5993040762841701507568359375" lon="19.983877725899219512939453125">
        <ele>1222</ele>
        <time>2026-06-15T15:22:37.000Z</time>
        <extensions>
          <ns3:TrackPointExtension>
            <ns3:atemp>21.0</ns3:atemp>
          </ns3:TrackPointExtension>
        </extensions>
      </trkpt>
      <trkpt lat="42.5993040762841701507568359375" lon="19.983877725899219512939453125">
        <ele>1222</ele>
        <time>2026-06-15T15:22:38.000Z</time>
        <extensions>
          <ns3:TrackPointExtension>
            <ns3:atemp>21.0</ns3:atemp>
          </ns3:TrackPointExtension>
        </extensions>
      </trkpt>
      <trkpt lat="42.5993040762841701507568359375" lon="19.983877725899219512939453125">
        <ele>1222</ele>
        <time>2026-06-15T15:22:39.000Z</time>
        <extensions>
          <ns3:TrackPointExtension>
            <ns3:atemp>21.0</ns3:atemp>
          </ns3:TrackPointExtension>
        </extensions>
      </trkpt>
      <trkpt lat="42.5993040762841701507568359375" lon="19.983877725899219512939453125">
        <ele>1222</ele>
        <time>2026-06-15T15:22:40.000Z</time>
        <extensions>
          <ns3:TrackPointExtension>
            <ns3:atemp>21.0</ns3:atemp>
          </ns3:TrackPointExtension>
        </extensions>
      </trkpt>
      <trkpt lat="42.5993040762841701507568359375" lon="19.983877725899219512939453125">
        <ele>1222</ele>
        <time>2026-06-15T15:22:41.000Z</time>
        <extensions>
          <ns3:TrackPointExtension>
            <ns3:atemp>21.0</ns3:atemp>
          </ns3:TrackPointExtension>
        </extensions>
      </trkpt>
      <trkpt lat="42.5993040762841701507568359375" lon="19.983877725899219512939453125">
        <ele>1222</ele>
        <time>2026-06-15T15:22:42.000Z</time>
        <extensions>
          <ns3:TrackPointExtension>
            <ns3:atemp>21.0</ns3:atemp>
          </ns3:TrackPointExtension>
        </extensions>
      </trkpt>
      <trkpt lat="42.5993040762841701507568359375" lon="19.983877725899219512939453125">
        <ele>1222</ele>
        <time>2026-06-15T15:22:43.000Z</time>
        <extensions>
          <ns3:TrackPointExtension>
            <ns3:atemp>21.0</ns3:atemp>
          </ns3:TrackPointExtension>
        </extensions>
      </trkpt>
      <trkpt lat="42.5993040762841701507568359375" lon="19.983877725899219512939453125">
        <ele>1222</ele>
        <time>2026-06-15T15:22:44.000Z</time>
        <extensions>
          <ns3:TrackPointExtension>
            <ns3:atemp>21.0</ns3:atemp>
          </ns3:TrackPointExtension>
        </extensions>
      </trkpt>
      <trkpt lat="42.5993040762841701507568359375" lon="19.983877725899219512939453125">
        <ele>1222</ele>
        <time>2026-06-15T15:22:45.000Z</time>
        <extensions>
          <ns3:TrackPointExtension>
            <ns3:atemp>21.0</ns3:atemp>
          </ns3:TrackPointExtension>
        </extensions>
      </trkpt>
      <trkpt lat="42.5993040762841701507568359375" lon="19.983877725899219512939453125">
        <ele>1222</ele>
        <time>2026-06-15T15:22:46.000Z</time>
        <extensions>
          <ns3:TrackPointExtension>
            <ns3:atemp>21.0</ns3:atemp>
          </ns3:TrackPointExtension>
        </extensions>
      </trkpt>
      <trkpt lat="42.5993040762841701507568359375" lon="19.983877725899219512939453125">
        <ele>1222</ele>
        <time>2026-06-15T15:22:47.000Z</time>
        <extensions>
          <ns3:TrackPointExtension>
            <ns3:atemp>21.0</ns3:atemp>
          </ns3:TrackPointExtension>
        </extensions>
      </trkpt>
      <trkpt lat="42.5993040762841701507568359375" lon="19.983877725899219512939453125">
        <ele>1222</ele>
        <time>2026-06-15T15:22:48.000Z</time>
        <extensions>
          <ns3:TrackPointExtension>
            <ns3:atemp>21.0</ns3:atemp>
          </ns3:TrackPointExtension>
        </extensions>
      </trkpt>
      <trkpt lat="42.5993040762841701507568359375" lon="19.983877725899219512939453125">
        <ele>1222</ele>
        <time>2026-06-15T15:22:49.000Z</time>
        <extensions>
          <ns3:TrackPointExtension>
            <ns3:atemp>21.0</ns3:atemp>
          </ns3:TrackPointExtension>
        </extensions>
      </trkpt>
      <trkpt lat="42.5993040762841701507568359375" lon="19.983877725899219512939453125">
        <ele>1222</ele>
        <time>2026-06-15T15:22:50.000Z</time>
        <extensions>
          <ns3:TrackPointExtension>
            <ns3:atemp>21.0</ns3:atemp>
          </ns3:TrackPointExtension>
        </extensions>
      </trkpt>
      <trkpt lat="42.5993040762841701507568359375" lon="19.983877725899219512939453125">
        <ele>1222</ele>
        <time>2026-06-15T15:22:51.000Z</time>
        <extensions>
          <ns3:TrackPointExtension>
            <ns3:atemp>21.0</ns3:atemp>
          </ns3:TrackPointExtension>
        </extensions>
      </trkpt>
      <trkpt lat="42.5993040762841701507568359375" lon="19.983877725899219512939453125">
        <ele>1222</ele>
        <time>2026-06-15T15:22:52.000Z</time>
        <extensions>
          <ns3:TrackPointExtension>
            <ns3:atemp>21.0</ns3:atemp>
          </ns3:TrackPointExtension>
        </extensions>
      </trkpt>
      <trkpt lat="42.5993040762841701507568359375" lon="19.983877725899219512939453125">
        <ele>1222</ele>
        <time>2026-06-15T15:22:53.000Z</time>
        <extensions>
          <ns3:TrackPointExtension>
            <ns3:atemp>21.0</ns3:atemp>
          </ns3:TrackPointExtension>
        </extensions>
      </trkpt>
      <trkpt lat="42.5993040762841701507568359375" lon="19.983877725899219512939453125">
        <ele>1222</ele>
        <time>2026-06-15T15:22:54.000Z</time>
        <extensions>
          <ns3:TrackPointExtension>
            <ns3:atemp>21.0</ns3:atemp>
          </ns3:TrackPointExtension>
        </extensions>
      </trkpt>
      <trkpt lat="42.5993040762841701507568359375" lon="19.983877725899219512939453125">
        <ele>1222</ele>
        <time>2026-06-15T15:22:55.000Z</time>
        <extensions>
          <ns3:TrackPointExtension>
            <ns3:atemp>21.0</ns3:atemp>
          </ns3:TrackPointExtension>
        </extensions>
      </trkpt>
      <trkpt lat="42.5993040762841701507568359375" lon="19.983877725899219512939453125">
        <ele>1222</ele>
        <time>2026-06-15T15:22:56.000Z</time>
        <extensions>
          <ns3:TrackPointExtension>
            <ns3:atemp>21.0</ns3:atemp>
          </ns3:TrackPointExtension>
        </extensions>
      </trkpt>
      <trkpt lat="42.5993040762841701507568359375" lon="19.983877725899219512939453125">
        <ele>1222</ele>
        <time>2026-06-15T15:22:57.000Z</time>
        <extensions>
          <ns3:TrackPointExtension>
            <ns3:atemp>21.0</ns3:atemp>
          </ns3:TrackPointExtension>
        </extensions>
      </trkpt>
      <trkpt lat="42.5993040762841701507568359375" lon="19.983877725899219512939453125">
        <ele>1222</ele>
        <time>2026-06-15T15:22:58.000Z</time>
        <extensions>
          <ns3:TrackPointExtension>
            <ns3:atemp>21.0</ns3:atemp>
          </ns3:TrackPointExtension>
        </extensions>
      </trkpt>
      <trkpt lat="42.5993040762841701507568359375" lon="19.983877725899219512939453125">
        <ele>1222</ele>
        <time>2026-06-15T15:22:59.000Z</time>
        <extensions>
          <ns3:TrackPointExtension>
            <ns3:atemp>21.0</ns3:atemp>
          </ns3:TrackPointExtension>
        </extensions>
      </trkpt>
      <trkpt lat="42.5993040762841701507568359375" lon="19.983877725899219512939453125">
        <ele>1222</ele>
        <time>2026-06-15T15:23:00.000Z</time>
        <extensions>
          <ns3:TrackPointExtension>
            <ns3:atemp>21.0</ns3:atemp>
          </ns3:TrackPointExtension>
        </extensions>
      </trkpt>
      <trkpt lat="42.5993040762841701507568359375" lon="19.983877725899219512939453125">
        <ele>1222</ele>
        <time>2026-06-15T15:23:01.000Z</time>
        <extensions>
          <ns3:TrackPointExtension>
            <ns3:atemp>21.0</ns3:atemp>
          </ns3:TrackPointExtension>
        </extensions>
      </trkpt>
      <trkpt lat="42.5993040762841701507568359375" lon="19.983877725899219512939453125">
        <ele>1222</ele>
        <time>2026-06-15T15:23:02.000Z</time>
        <extensions>
          <ns3:TrackPointExtension>
            <ns3:atemp>21.0</ns3:atemp>
          </ns3:TrackPointExtension>
        </extensions>
      </trkpt>
      <trkpt lat="42.5993040762841701507568359375" lon="19.983877725899219512939453125">
        <ele>1222</ele>
        <time>2026-06-15T15:23:03.000Z</time>
        <extensions>
          <ns3:TrackPointExtension>
            <ns3:atemp>21.0</ns3:atemp>
          </ns3:TrackPointExtension>
        </extensions>
      </trkpt>
      <trkpt lat="42.5993040762841701507568359375" lon="19.983877725899219512939453125">
        <ele>1222</ele>
        <time>2026-06-15T15:23:04.000Z</time>
        <extensions>
          <ns3:TrackPointExtension>
            <ns3:atemp>21.0</ns3:atemp>
          </ns3:TrackPointExtension>
        </extensions>
      </trkpt>
      <trkpt lat="42.5993040762841701507568359375" lon="19.983877725899219512939453125">
        <ele>1222</ele>
        <time>2026-06-15T15:23:05.000Z</time>
        <extensions>
          <ns3:TrackPointExtension>
            <ns3:atemp>21.0</ns3:atemp>
          </ns3:TrackPointExtension>
        </extensions>
      </trkpt>
      <trkpt lat="42.5993040762841701507568359375" lon="19.983877725899219512939453125">
        <ele>1222</ele>
        <time>2026-06-15T15:23:06.000Z</time>
        <extensions>
          <ns3:TrackPointExtension>
            <ns3:atemp>21.0</ns3:atemp>
          </ns3:TrackPointExtension>
        </extensions>
      </trkpt>
      <trkpt lat="42.5993040762841701507568359375" lon="19.983877725899219512939453125">
        <ele>1222</ele>
        <time>2026-06-15T15:23:07.000Z</time>
        <extensions>
          <ns3:TrackPointExtension>
            <ns3:atemp>21.0</ns3:atemp>
          </ns3:TrackPointExtension>
        </extensions>
      </trkpt>
      <trkpt lat="42.5993040762841701507568359375" lon="19.983877725899219512939453125">
        <ele>1222</ele>
        <time>2026-06-15T15:23:08.000Z</time>
        <extensions>
          <ns3:TrackPointExtension>
            <ns3:atemp>21.0</ns3:atemp>
          </ns3:TrackPointExtension>
        </extensions>
      </trkpt>
      <trkpt lat="42.5993040762841701507568359375" lon="19.983877725899219512939453125">
        <ele>1222</ele>
        <time>2026-06-15T15:23:09.000Z</time>
        <extensions>
          <ns3:TrackPointExtension>
            <ns3:atemp>21.0</ns3:atemp>
          </ns3:TrackPointExtension>
        </extensions>
      </trkpt>
      <trkpt lat="42.5993040762841701507568359375" lon="19.983877725899219512939453125">
        <ele>1222</ele>
        <time>2026-06-15T15:23:10.000Z</time>
        <extensions>
          <ns3:TrackPointExtension>
            <ns3:atemp>21.0</ns3:atemp>
          </ns3:TrackPointExtension>
        </extensions>
      </trkpt>
      <trkpt lat="42.5993040762841701507568359375" lon="19.983877725899219512939453125">
        <ele>1222</ele>
        <time>2026-06-15T15:23:11.000Z</time>
        <extensions>
          <ns3:TrackPointExtension>
            <ns3:atemp>21.0</ns3:atemp>
          </ns3:TrackPointExtension>
        </extensions>
      </trkpt>
      <trkpt lat="42.5993040762841701507568359375" lon="19.983877725899219512939453125">
        <ele>1222</ele>
        <time>2026-06-15T15:23:12.000Z</time>
        <extensions>
          <ns3:TrackPointExtension>
            <ns3:atemp>21.0</ns3:atemp>
          </ns3:TrackPointExtension>
        </extensions>
      </trkpt>
      <trkpt lat="42.5993040762841701507568359375" lon="19.983877725899219512939453125">
        <ele>1222</ele>
        <time>2026-06-15T15:23:13.000Z</time>
        <extensions>
          <ns3:TrackPointExtension>
            <ns3:atemp>21.0</ns3:atemp>
          </ns3:TrackPointExtension>
        </extensions>
      </trkpt>
      <trkpt lat="42.5993040762841701507568359375" lon="19.983877725899219512939453125">
        <ele>1222</ele>
        <time>2026-06-15T15:23:14.000Z</time>
        <extensions>
          <ns3:TrackPointExtension>
            <ns3:atemp>21.0</ns3:atemp>
          </ns3:TrackPointExtension>
        </extensions>
      </trkpt>
      <trkpt lat="42.5993040762841701507568359375" lon="19.983877725899219512939453125">
        <ele>1222</ele>
        <time>2026-06-15T15:23:15.000Z</time>
        <extensions>
          <ns3:TrackPointExtension>
            <ns3:atemp>21.0</ns3:atemp>
          </ns3:TrackPointExtension>
        </extensions>
      </trkpt>
      <trkpt lat="42.5993040762841701507568359375" lon="19.983877725899219512939453125">
        <ele>1222</ele>
        <time>2026-06-15T15:23:16.000Z</time>
        <extensions>
          <ns3:TrackPointExtension>
            <ns3:atemp>21.0</ns3:atemp>
          </ns3:TrackPointExtension>
        </extensions>
      </trkpt>
      <trkpt lat="42.5993040762841701507568359375" lon="19.983877725899219512939453125">
        <ele>1222</ele>
        <time>2026-06-15T15:23:17.000Z</time>
        <extensions>
          <ns3:TrackPointExtension>
            <ns3:atemp>21.0</ns3:atemp>
          </ns3:TrackPointExtension>
        </extensions>
      </trkpt>
      <trkpt lat="42.5993040762841701507568359375" lon="19.983877725899219512939453125">
        <ele>1222</ele>
        <time>2026-06-15T15:23:18.000Z</time>
        <extensions>
          <ns3:TrackPointExtension>
            <ns3:atemp>21.0</ns3:atemp>
          </ns3:TrackPointExtension>
        </extensions>
      </trkpt>
      <trkpt lat="42.5993040762841701507568359375" lon="19.983877725899219512939453125">
        <ele>1222</ele>
        <time>2026-06-15T15:23:19.000Z</time>
        <extensions>
          <ns3:TrackPointExtension>
            <ns3:atemp>21.0</ns3:atemp>
          </ns3:TrackPointExtension>
        </extensions>
      </trkpt>
      <trkpt lat="42.5993040762841701507568359375" lon="19.983877725899219512939453125">
        <ele>1222</ele>
        <time>2026-06-15T15:23:20.000Z</time>
        <extensions>
          <ns3:TrackPointExtension>
            <ns3:atemp>21.0</ns3:atemp>
          </ns3:TrackPointExtension>
        </extensions>
      </trkpt>
      <trkpt lat="42.5993040762841701507568359375" lon="19.983877725899219512939453125">
        <ele>1222</ele>
        <time>2026-06-15T15:23:21.000Z</time>
        <extensions>
          <ns3:TrackPointExtension>
            <ns3:atemp>21.0</ns3:atemp>
          </ns3:TrackPointExtension>
        </extensions>
      </trkpt>
      <trkpt lat="42.5993040762841701507568359375" lon="19.983877725899219512939453125">
        <ele>1222</ele>
        <time>2026-06-15T15:23:22.000Z</time>
        <extensions>
          <ns3:TrackPointExtension>
            <ns3:atemp>21.0</ns3:atemp>
          </ns3:TrackPointExtension>
        </extensions>
      </trkpt>
      <trkpt lat="42.5993040762841701507568359375" lon="19.983877725899219512939453125">
        <ele>1222</ele>
        <time>2026-06-15T15:23:23.000Z</time>
        <extensions>
          <ns3:TrackPointExtension>
            <ns3:atemp>21.0</ns3:atemp>
          </ns3:TrackPointExtension>
        </extensions>
      </trkpt>
      <trkpt lat="42.5993040762841701507568359375" lon="19.983877725899219512939453125">
        <ele>1222</ele>
        <time>2026-06-15T15:23:24.000Z</time>
        <extensions>
          <ns3:TrackPointExtension>
            <ns3:atemp>21.0</ns3:atemp>
          </ns3:TrackPointExtension>
        </extensions>
      </trkpt>
      <trkpt lat="42.5993040762841701507568359375" lon="19.983877725899219512939453125">
        <ele>1222</ele>
        <time>2026-06-15T15:23:25.000Z</time>
        <extensions>
          <ns3:TrackPointExtension>
            <ns3:atemp>21.0</ns3:atemp>
          </ns3:TrackPointExtension>
        </extensions>
      </trkpt>
      <trkpt lat="42.5993040762841701507568359375" lon="19.983877725899219512939453125">
        <ele>1222</ele>
        <time>2026-06-15T15:23:26.000Z</time>
        <extensions>
          <ns3:TrackPointExtension>
            <ns3:atemp>21.0</ns3:atemp>
          </ns3:TrackPointExtension>
        </extensions>
      </trkpt>
      <trkpt lat="42.5993040762841701507568359375" lon="19.983877725899219512939453125">
        <ele>1222</ele>
        <time>2026-06-15T15:23:27.000Z</time>
        <extensions>
          <ns3:TrackPointExtension>
            <ns3:atemp>21.0</ns3:atemp>
          </ns3:TrackPointExtension>
        </extensions>
      </trkpt>
      <trkpt lat="42.5993040762841701507568359375" lon="19.983877725899219512939453125">
        <ele>1222</ele>
        <time>2026-06-15T15:23:28.000Z</time>
        <extensions>
          <ns3:TrackPointExtension>
            <ns3:atemp>21.0</ns3:atemp>
          </ns3:TrackPointExtension>
        </extensions>
      </trkpt>
      <trkpt lat="42.5993040762841701507568359375" lon="19.983877725899219512939453125">
        <ele>1222</ele>
        <time>2026-06-15T15:23:29.000Z</time>
        <extensions>
          <ns3:TrackPointExtension>
            <ns3:atemp>21.0</ns3:atemp>
          </ns3:TrackPointExtension>
        </extensions>
      </trkpt>
      <trkpt lat="42.5993040762841701507568359375" lon="19.983877725899219512939453125">
        <ele>1222</ele>
        <time>2026-06-15T15:23:30.000Z</time>
        <extensions>
          <ns3:TrackPointExtension>
            <ns3:atemp>21.0</ns3:atemp>
          </ns3:TrackPointExtension>
        </extensions>
      </trkpt>
      <trkpt lat="42.5993040762841701507568359375" lon="19.983877725899219512939453125">
        <ele>1222</ele>
        <time>2026-06-15T15:23:31.000Z</time>
        <extensions>
          <ns3:TrackPointExtension>
            <ns3:atemp>21.0</ns3:atemp>
          </ns3:TrackPointExtension>
        </extensions>
      </trkpt>
      <trkpt lat="42.5993040762841701507568359375" lon="19.983877725899219512939453125">
        <ele>1222</ele>
        <time>2026-06-15T15:23:32.000Z</time>
        <extensions>
          <ns3:TrackPointExtension>
            <ns3:atemp>21.0</ns3:atemp>
          </ns3:TrackPointExtension>
        </extensions>
      </trkpt>
      <trkpt lat="42.5993040762841701507568359375" lon="19.983877725899219512939453125">
        <ele>1222</ele>
        <time>2026-06-15T15:23:33.000Z</time>
        <extensions>
          <ns3:TrackPointExtension>
            <ns3:atemp>21.0</ns3:atemp>
          </ns3:TrackPointExtension>
        </extensions>
      </trkpt>
      <trkpt lat="42.5993040762841701507568359375" lon="19.983877725899219512939453125">
        <ele>1222</ele>
        <time>2026-06-15T15:23:34.000Z</time>
        <extensions>
          <ns3:TrackPointExtension>
            <ns3:atemp>21.0</ns3:atemp>
          </ns3:TrackPointExtension>
        </extensions>
      </trkpt>
      <trkpt lat="42.5993040762841701507568359375" lon="19.983877725899219512939453125">
        <ele>1222</ele>
        <time>2026-06-15T15:23:35.000Z</time>
        <extensions>
          <ns3:TrackPointExtension>
            <ns3:atemp>21.0</ns3:atemp>
          </ns3:TrackPointExtension>
        </extensions>
      </trkpt>
      <trkpt lat="42.5993040762841701507568359375" lon="19.983877725899219512939453125">
        <ele>1222</ele>
        <time>2026-06-15T15:23:36.000Z</time>
        <extensions>
          <ns3:TrackPointExtension>
            <ns3:atemp>21.0</ns3:atemp>
          </ns3:TrackPointExtension>
        </extensions>
      </trkpt>
      <trkpt lat="42.5993040762841701507568359375" lon="19.983877725899219512939453125">
        <ele>1222</ele>
        <time>2026-06-15T15:23:37.000Z</time>
        <extensions>
          <ns3:TrackPointExtension>
            <ns3:atemp>21.0</ns3:atemp>
          </ns3:TrackPointExtension>
        </extensions>
      </trkpt>
      <trkpt lat="42.5993040762841701507568359375" lon="19.983877725899219512939453125">
        <ele>1222</ele>
        <time>2026-06-15T15:23:38.000Z</time>
        <extensions>
          <ns3:TrackPointExtension>
            <ns3:atemp>21.0</ns3:atemp>
          </ns3:TrackPointExtension>
        </extensions>
      </trkpt>
      <trkpt lat="42.5993040762841701507568359375" lon="19.983877725899219512939453125">
        <ele>1222</ele>
        <time>2026-06-15T15:23:39.000Z</time>
        <extensions>
          <ns3:TrackPointExtension>
            <ns3:atemp>21.0</ns3:atemp>
          </ns3:TrackPointExtension>
        </extensions>
      </trkpt>
      <trkpt lat="42.5993040762841701507568359375" lon="19.983877725899219512939453125">
        <ele>1222</ele>
        <time>2026-06-15T15:23:40.000Z</time>
        <extensions>
          <ns3:TrackPointExtension>
            <ns3:atemp>21.0</ns3:atemp>
          </ns3:TrackPointExtension>
        </extensions>
      </trkpt>
      <trkpt lat="42.5993040762841701507568359375" lon="19.983877725899219512939453125">
        <ele>1222</ele>
        <time>2026-06-15T15:23:41.000Z</time>
        <extensions>
          <ns3:TrackPointExtension>
            <ns3:atemp>21.0</ns3:atemp>
          </ns3:TrackPointExtension>
        </extensions>
      </trkpt>
      <trkpt lat="42.5993040762841701507568359375" lon="19.983877725899219512939453125">
        <ele>1222</ele>
        <time>2026-06-15T15:23:42.000Z</time>
        <extensions>
          <ns3:TrackPointExtension>
            <ns3:atemp>21.0</ns3:atemp>
          </ns3:TrackPointExtension>
        </extensions>
      </trkpt>
      <trkpt lat="42.5993040762841701507568359375" lon="19.983877725899219512939453125">
        <ele>1222</ele>
        <time>2026-06-15T15:23:43.000Z</time>
        <extensions>
          <ns3:TrackPointExtension>
            <ns3:atemp>21.0</ns3:atemp>
          </ns3:TrackPointExtension>
        </extensions>
      </trkpt>
      <trkpt lat="42.5993040762841701507568359375" lon="19.983877725899219512939453125">
        <ele>1222</ele>
        <time>2026-06-15T15:23:44.000Z</time>
        <extensions>
          <ns3:TrackPointExtension>
            <ns3:atemp>21.0</ns3:atemp>
          </ns3:TrackPointExtension>
        </extensions>
      </trkpt>
      <trkpt lat="42.5993040762841701507568359375" lon="19.983877725899219512939453125">
        <ele>1222</ele>
        <time>2026-06-15T15:23:45.000Z</time>
        <extensions>
          <ns3:TrackPointExtension>
            <ns3:atemp>21.0</ns3:atemp>
          </ns3:TrackPointExtension>
        </extensions>
      </trkpt>
      <trkpt lat="42.5993040762841701507568359375" lon="19.983877725899219512939453125">
        <ele>1222</ele>
        <time>2026-06-15T15:23:46.000Z</time>
        <extensions>
          <ns3:TrackPointExtension>
            <ns3:atemp>21.0</ns3:atemp>
          </ns3:TrackPointExtension>
        </extensions>
      </trkpt>
      <trkpt lat="42.5993040762841701507568359375" lon="19.983877725899219512939453125">
        <ele>1222</ele>
        <time>2026-06-15T15:23:47.000Z</time>
        <extensions>
          <ns3:TrackPointExtension>
            <ns3:atemp>21.0</ns3:atemp>
          </ns3:TrackPointExtension>
        </extensions>
      </trkpt>
      <trkpt lat="42.5993040762841701507568359375" lon="19.983877725899219512939453125">
        <ele>1222</ele>
        <time>2026-06-15T15:23:48.000Z</time>
        <extensions>
          <ns3:TrackPointExtension>
            <ns3:atemp>21.0</ns3:atemp>
          </ns3:TrackPointExtension>
        </extensions>
      </trkpt>
      <trkpt lat="42.5993040762841701507568359375" lon="19.983877725899219512939453125">
        <ele>1222</ele>
        <time>2026-06-15T15:23:49.000Z</time>
        <extensions>
          <ns3:TrackPointExtension>
            <ns3:atemp>21.0</ns3:atemp>
          </ns3:TrackPointExtension>
        </extensions>
      </trkpt>
      <trkpt lat="42.5993040762841701507568359375" lon="19.983877725899219512939453125">
        <ele>1222</ele>
        <time>2026-06-15T15:23:50.000Z</time>
        <extensions>
          <ns3:TrackPointExtension>
            <ns3:atemp>21.0</ns3:atemp>
          </ns3:TrackPointExtension>
        </extensions>
      </trkpt>
      <trkpt lat="42.5993040762841701507568359375" lon="19.983877725899219512939453125">
        <ele>1222</ele>
        <time>2026-06-15T15:23:51.000Z</time>
        <extensions>
          <ns3:TrackPointExtension>
            <ns3:atemp>21.0</ns3:atemp>
          </ns3:TrackPointExtension>
        </extensions>
      </trkpt>
      <trkpt lat="42.5993040762841701507568359375" lon="19.983877725899219512939453125">
        <ele>1222</ele>
        <time>2026-06-15T15:23:52.000Z</time>
        <extensions>
          <ns3:TrackPointExtension>
            <ns3:atemp>21.0</ns3:atemp>
          </ns3:TrackPointExtension>
        </extensions>
      </trkpt>
      <trkpt lat="42.5993040762841701507568359375" lon="19.983877725899219512939453125">
        <ele>1222</ele>
        <time>2026-06-15T15:23:53.000Z</time>
        <extensions>
          <ns3:TrackPointExtension>
            <ns3:atemp>21.0</ns3:atemp>
          </ns3:TrackPointExtension>
        </extensions>
      </trkpt>
      <trkpt lat="42.5993040762841701507568359375" lon="19.983877725899219512939453125">
        <ele>1222</ele>
        <time>2026-06-15T15:23:54.000Z</time>
        <extensions>
          <ns3:TrackPointExtension>
            <ns3:atemp>21.0</ns3:atemp>
          </ns3:TrackPointExtension>
        </extensions>
      </trkpt>
      <trkpt lat="42.5993040762841701507568359375" lon="19.983877725899219512939453125">
        <ele>1222</ele>
        <time>2026-06-15T15:23:55.000Z</time>
        <extensions>
          <ns3:TrackPointExtension>
            <ns3:atemp>21.0</ns3:atemp>
          </ns3:TrackPointExtension>
        </extensions>
      </trkpt>
      <trkpt lat="42.5993040762841701507568359375" lon="19.983877725899219512939453125">
        <ele>1222</ele>
        <time>2026-06-15T15:23:56.000Z</time>
        <extensions>
          <ns3:TrackPointExtension>
            <ns3:atemp>20.0</ns3:atemp>
          </ns3:TrackPointExtension>
        </extensions>
      </trkpt>
      <trkpt lat="42.5993040762841701507568359375" lon="19.983877725899219512939453125">
        <ele>1222</ele>
        <time>2026-06-15T15:23:57.000Z</time>
        <extensions>
          <ns3:TrackPointExtension>
            <ns3:atemp>20.0</ns3:atemp>
          </ns3:TrackPointExtension>
        </extensions>
      </trkpt>
      <trkpt lat="42.5993040762841701507568359375" lon="19.983877725899219512939453125">
        <ele>1222</ele>
        <time>2026-06-15T15:23:58.000Z</time>
        <extensions>
          <ns3:TrackPointExtension>
            <ns3:atemp>21.0</ns3:atemp>
          </ns3:TrackPointExtension>
        </extensions>
      </trkpt>
      <trkpt lat="42.5993040762841701507568359375" lon="19.983877725899219512939453125">
        <ele>1222</ele>
        <time>2026-06-15T15:23:59.000Z</time>
        <extensions>
          <ns3:TrackPointExtension>
            <ns3:atemp>20.0</ns3:atemp>
          </ns3:TrackPointExtension>
        </extensions>
      </trkpt>
      <trkpt lat="42.5993040762841701507568359375" lon="19.983877725899219512939453125">
        <ele>1222</ele>
        <time>2026-06-15T15:24:00.000Z</time>
        <extensions>
          <ns3:TrackPointExtension>
            <ns3:atemp>21.0</ns3:atemp>
          </ns3:TrackPointExtension>
        </extensions>
      </trkpt>
      <trkpt lat="42.5993040762841701507568359375" lon="19.983877725899219512939453125">
        <ele>1222</ele>
        <time>2026-06-15T15:24:01.000Z</time>
        <extensions>
          <ns3:TrackPointExtension>
            <ns3:atemp>21.0</ns3:atemp>
          </ns3:TrackPointExtension>
        </extensions>
      </trkpt>
      <trkpt lat="42.5993040762841701507568359375" lon="19.983877725899219512939453125">
        <ele>1222</ele>
        <time>2026-06-15T15:24:02.000Z</time>
        <extensions>
          <ns3:TrackPointExtension>
            <ns3:atemp>21.0</ns3:atemp>
          </ns3:TrackPointExtension>
        </extensions>
      </trkpt>
      <trkpt lat="42.5993040762841701507568359375" lon="19.983877725899219512939453125">
        <ele>1222</ele>
        <time>2026-06-15T15:24:03.000Z</time>
        <extensions>
          <ns3:TrackPointExtension>
            <ns3:atemp>21.0</ns3:atemp>
          </ns3:TrackPointExtension>
        </extensions>
      </trkpt>
      <trkpt lat="42.5993040762841701507568359375" lon="19.983877725899219512939453125">
        <ele>1222</ele>
        <time>2026-06-15T15:24:04.000Z</time>
        <extensions>
          <ns3:TrackPointExtension>
            <ns3:atemp>21.0</ns3:atemp>
          </ns3:TrackPointExtension>
        </extensions>
      </trkpt>
      <trkpt lat="42.5993040762841701507568359375" lon="19.983877725899219512939453125">
        <ele>1222</ele>
        <time>2026-06-15T15:24:05.000Z</time>
        <extensions>
          <ns3:TrackPointExtension>
            <ns3:atemp>21.0</ns3:atemp>
          </ns3:TrackPointExtension>
        </extensions>
      </trkpt>
      <trkpt lat="42.5993040762841701507568359375" lon="19.983877725899219512939453125">
        <ele>1222</ele>
        <time>2026-06-15T15:24:06.000Z</time>
        <extensions>
          <ns3:TrackPointExtension>
            <ns3:atemp>21.0</ns3:atemp>
          </ns3:TrackPointExtension>
        </extensions>
      </trkpt>
      <trkpt lat="42.5993040762841701507568359375" lon="19.983877725899219512939453125">
        <ele>1222</ele>
        <time>2026-06-15T15:24:07.000Z</time>
        <extensions>
          <ns3:TrackPointExtension>
            <ns3:atemp>21.0</ns3:atemp>
          </ns3:TrackPointExtension>
        </extensions>
      </trkpt>
      <trkpt lat="42.5993040762841701507568359375" lon="19.983877725899219512939453125">
        <ele>1222</ele>
        <time>2026-06-15T15:24:08.000Z</time>
        <extensions>
          <ns3:TrackPointExtension>
            <ns3:atemp>21.0</ns3:atemp>
          </ns3:TrackPointExtension>
        </extensions>
      </trkpt>
      <trkpt lat="42.5993040762841701507568359375" lon="19.983877725899219512939453125">
        <ele>1222</ele>
        <time>2026-06-15T15:24:09.000Z</time>
        <extensions>
          <ns3:TrackPointExtension>
            <ns3:atemp>21.0</ns3:atemp>
          </ns3:TrackPointExtension>
        </extensions>
      </trkpt>
      <trkpt lat="42.5993040762841701507568359375" lon="19.983877725899219512939453125">
        <ele>1222</ele>
        <time>2026-06-15T15:24:10.000Z</time>
        <extensions>
          <ns3:TrackPointExtension>
            <ns3:atemp>21.0</ns3:atemp>
          </ns3:TrackPointExtension>
        </extensions>
      </trkpt>
      <trkpt lat="42.5993040762841701507568359375" lon="19.983877725899219512939453125">
        <ele>1222</ele>
        <time>2026-06-15T15:24:11.000Z</time>
        <extensions>
          <ns3:TrackPointExtension>
            <ns3:atemp>21.0</ns3:atemp>
          </ns3:TrackPointExtension>
        </extensions>
      </trkpt>
      <trkpt lat="42.5993040762841701507568359375" lon="19.983877725899219512939453125">
        <ele>1222</ele>
        <time>2026-06-15T15:24:12.000Z</time>
        <extensions>
          <ns3:TrackPointExtension>
            <ns3:atemp>21.0</ns3:atemp>
          </ns3:TrackPointExtension>
        </extensions>
      </trkpt>
      <trkpt lat="42.5993040762841701507568359375" lon="19.983877725899219512939453125">
        <ele>1222</ele>
        <time>2026-06-15T15:24:13.000Z</time>
        <extensions>
          <ns3:TrackPointExtension>
            <ns3:atemp>21.0</ns3:atemp>
          </ns3:TrackPointExtension>
        </extensions>
      </trkpt>
      <trkpt lat="42.5993040762841701507568359375" lon="19.983877725899219512939453125">
        <ele>1222</ele>
        <time>2026-06-15T15:24:14.000Z</time>
        <extensions>
          <ns3:TrackPointExtension>
            <ns3:atemp>21.0</ns3:atemp>
          </ns3:TrackPointExtension>
        </extensions>
      </trkpt>
      <trkpt lat="42.5993040762841701507568359375" lon="19.983877725899219512939453125">
        <ele>1222</ele>
        <time>2026-06-15T15:24:15.000Z</time>
        <extensions>
          <ns3:TrackPointExtension>
            <ns3:atemp>21.0</ns3:atemp>
          </ns3:TrackPointExtension>
        </extensions>
      </trkpt>
      <trkpt lat="42.5993040762841701507568359375" lon="19.983877725899219512939453125">
        <ele>1222</ele>
        <time>2026-06-15T15:24:16.000Z</time>
        <extensions>
          <ns3:TrackPointExtension>
            <ns3:atemp>21.0</ns3:atemp>
          </ns3:TrackPointExtension>
        </extensions>
      </trkpt>
      <trkpt lat="42.5993040762841701507568359375" lon="19.983877725899219512939453125">
        <ele>1222</ele>
        <time>2026-06-15T15:24:17.000Z</time>
        <extensions>
          <ns3:TrackPointExtension>
            <ns3:atemp>21.0</ns3:atemp>
          </ns3:TrackPointExtension>
        </extensions>
      </trkpt>
      <trkpt lat="42.5993040762841701507568359375" lon="19.983877725899219512939453125">
        <ele>1222</ele>
        <time>2026-06-15T15:24:18.000Z</time>
        <extensions>
          <ns3:TrackPointExtension>
            <ns3:atemp>21.0</ns3:atemp>
          </ns3:TrackPointExtension>
        </extensions>
      </trkpt>
      <trkpt lat="42.5993040762841701507568359375" lon="19.983877725899219512939453125">
        <ele>1222</ele>
        <time>2026-06-15T15:24:19.000Z</time>
        <extensions>
          <ns3:TrackPointExtension>
            <ns3:atemp>21.0</ns3:atemp>
          </ns3:TrackPointExtension>
        </extensions>
      </trkpt>
      <trkpt lat="42.5993040762841701507568359375" lon="19.983877725899219512939453125">
        <ele>1222</ele>
        <time>2026-06-15T15:24:20.000Z</time>
        <extensions>
          <ns3:TrackPointExtension>
            <ns3:atemp>21.0</ns3:atemp>
          </ns3:TrackPointExtension>
        </extensions>
      </trkpt>
      <trkpt lat="42.5993040762841701507568359375" lon="19.983877725899219512939453125">
        <ele>1222</ele>
        <time>2026-06-15T15:24:21.000Z</time>
        <extensions>
          <ns3:TrackPointExtension>
            <ns3:atemp>21.0</ns3:atemp>
          </ns3:TrackPointExtension>
        </extensions>
      </trkpt>
      <trkpt lat="42.5993040762841701507568359375" lon="19.983877725899219512939453125">
        <ele>1222</ele>
        <time>2026-06-15T15:24:22.000Z</time>
        <extensions>
          <ns3:TrackPointExtension>
            <ns3:atemp>20.0</ns3:atemp>
          </ns3:TrackPointExtension>
        </extensions>
      </trkpt>
      <trkpt lat="42.5993040762841701507568359375" lon="19.983877725899219512939453125">
        <ele>1222</ele>
        <time>2026-06-15T15:24:23.000Z</time>
        <extensions>
          <ns3:TrackPointExtension>
            <ns3:atemp>20.0</ns3:atemp>
          </ns3:TrackPointExtension>
        </extensions>
      </trkpt>
      <trkpt lat="42.5993040762841701507568359375" lon="19.983877725899219512939453125">
        <ele>1222</ele>
        <time>2026-06-15T15:24:24.000Z</time>
        <extensions>
          <ns3:TrackPointExtension>
            <ns3:atemp>20.0</ns3:atemp>
          </ns3:TrackPointExtension>
        </extensions>
      </trkpt>
      <trkpt lat="42.5993040762841701507568359375" lon="19.983877725899219512939453125">
        <ele>1222</ele>
        <time>2026-06-15T15:24:25.000Z</time>
        <extensions>
          <ns3:TrackPointExtension>
            <ns3:atemp>20.0</ns3:atemp>
          </ns3:TrackPointExtension>
        </extensions>
      </trkpt>
      <trkpt lat="42.5993040762841701507568359375" lon="19.983877725899219512939453125">
        <ele>1222</ele>
        <time>2026-06-15T15:24:26.000Z</time>
        <extensions>
          <ns3:TrackPointExtension>
            <ns3:atemp>20.0</ns3:atemp>
          </ns3:TrackPointExtension>
        </extensions>
      </trkpt>
      <trkpt lat="42.5993040762841701507568359375" lon="19.983877725899219512939453125">
        <ele>1222</ele>
        <time>2026-06-15T15:24:27.000Z</time>
        <extensions>
          <ns3:TrackPointExtension>
            <ns3:atemp>20.0</ns3:atemp>
          </ns3:TrackPointExtension>
        </extensions>
      </trkpt>
      <trkpt lat="42.5993040762841701507568359375" lon="19.983877725899219512939453125">
        <ele>1222</ele>
        <time>2026-06-15T15:24:28.000Z</time>
        <extensions>
          <ns3:TrackPointExtension>
            <ns3:atemp>20.0</ns3:atemp>
          </ns3:TrackPointExtension>
        </extensions>
      </trkpt>
      <trkpt lat="42.5993040762841701507568359375" lon="19.983877725899219512939453125">
        <ele>1222</ele>
        <time>2026-06-15T15:24:29.000Z</time>
        <extensions>
          <ns3:TrackPointExtension>
            <ns3:atemp>20.0</ns3:atemp>
          </ns3:TrackPointExtension>
        </extensions>
      </trkpt>
      <trkpt lat="42.5993040762841701507568359375" lon="19.983877725899219512939453125">
        <ele>1222</ele>
        <time>2026-06-15T15:24:30.000Z</time>
        <extensions>
          <ns3:TrackPointExtension>
            <ns3:atemp>20.0</ns3:atemp>
          </ns3:TrackPointExtension>
        </extensions>
      </trkpt>
      <trkpt lat="42.5993040762841701507568359375" lon="19.983877725899219512939453125">
        <ele>1222</ele>
        <time>2026-06-15T15:24:31.000Z</time>
        <extensions>
          <ns3:TrackPointExtension>
            <ns3:atemp>20.0</ns3:atemp>
          </ns3:TrackPointExtension>
        </extensions>
      </trkpt>
      <trkpt lat="42.5993040762841701507568359375" lon="19.983877725899219512939453125">
        <ele>1222</ele>
        <time>2026-06-15T15:24:32.000Z</time>
        <extensions>
          <ns3:TrackPointExtension>
            <ns3:atemp>20.0</ns3:atemp>
          </ns3:TrackPointExtension>
        </extensions>
      </trkpt>
      <trkpt lat="42.5993040762841701507568359375" lon="19.983877725899219512939453125">
        <ele>1222</ele>
        <time>2026-06-15T15:24:33.000Z</time>
        <extensions>
          <ns3:TrackPointExtension>
            <ns3:atemp>20.0</ns3:atemp>
          </ns3:TrackPointExtension>
        </extensions>
      </trkpt>
      <trkpt lat="42.5993040762841701507568359375" lon="19.983877725899219512939453125">
        <ele>1222</ele>
        <time>2026-06-15T15:24:34.000Z</time>
        <extensions>
          <ns3:TrackPointExtension>
            <ns3:atemp>20.0</ns3:atemp>
          </ns3:TrackPointExtension>
        </extensions>
      </trkpt>
      <trkpt lat="42.5993040762841701507568359375" lon="19.983877725899219512939453125">
        <ele>1222</ele>
        <time>2026-06-15T15:24:35.000Z</time>
        <extensions>
          <ns3:TrackPointExtension>
            <ns3:atemp>20.0</ns3:atemp>
          </ns3:TrackPointExtension>
        </extensions>
      </trkpt>
      <trkpt lat="42.5993040762841701507568359375" lon="19.983877725899219512939453125">
        <ele>1222</ele>
        <time>2026-06-15T15:24:36.000Z</time>
        <extensions>
          <ns3:TrackPointExtension>
            <ns3:atemp>20.0</ns3:atemp>
          </ns3:TrackPointExtension>
        </extensions>
      </trkpt>
      <trkpt lat="42.5993040762841701507568359375" lon="19.983877725899219512939453125">
        <ele>1222</ele>
        <time>2026-06-15T15:24:37.000Z</time>
        <extensions>
          <ns3:TrackPointExtension>
            <ns3:atemp>21.0</ns3:atemp>
          </ns3:TrackPointExtension>
        </extensions>
      </trkpt>
      <trkpt lat="42.5993040762841701507568359375" lon="19.983877725899219512939453125">
        <ele>1222</ele>
        <time>2026-06-15T15:24:38.000Z</time>
        <extensions>
          <ns3:TrackPointExtension>
            <ns3:atemp>20.0</ns3:atemp>
          </ns3:TrackPointExtension>
        </extensions>
      </trkpt>
      <trkpt lat="42.5993040762841701507568359375" lon="19.983877725899219512939453125">
        <ele>1222</ele>
        <time>2026-06-15T15:24:39.000Z</time>
        <extensions>
          <ns3:TrackPointExtension>
            <ns3:atemp>20.0</ns3:atemp>
          </ns3:TrackPointExtension>
        </extensions>
      </trkpt>
      <trkpt lat="42.5993040762841701507568359375" lon="19.983877725899219512939453125">
        <ele>1222</ele>
        <time>2026-06-15T15:24:40.000Z</time>
        <extensions>
          <ns3:TrackPointExtension>
            <ns3:atemp>20.0</ns3:atemp>
          </ns3:TrackPointExtension>
        </extensions>
      </trkpt>
      <trkpt lat="42.5993040762841701507568359375" lon="19.983877725899219512939453125">
        <ele>1222</ele>
        <time>2026-06-15T15:24:41.000Z</time>
        <extensions>
          <ns3:TrackPointExtension>
            <ns3:atemp>20.0</ns3:atemp>
          </ns3:TrackPointExtension>
        </extensions>
      </trkpt>
      <trkpt lat="42.5993040762841701507568359375" lon="19.983877725899219512939453125">
        <ele>1222</ele>
        <time>2026-06-15T15:24:42.000Z</time>
        <extensions>
          <ns3:TrackPointExtension>
            <ns3:atemp>20.0</ns3:atemp>
          </ns3:TrackPointExtension>
        </extensions>
      </trkpt>
      <trkpt lat="42.5993040762841701507568359375" lon="19.983877725899219512939453125">
        <ele>1222</ele>
        <time>2026-06-15T15:24:43.000Z</time>
        <extensions>
          <ns3:TrackPointExtension>
            <ns3:atemp>20.0</ns3:atemp>
          </ns3:TrackPointExtension>
        </extensions>
      </trkpt>
      <trkpt lat="42.5993040762841701507568359375" lon="19.983877725899219512939453125">
        <ele>1222</ele>
        <time>2026-06-15T15:24:44.000Z</time>
        <extensions>
          <ns3:TrackPointExtension>
            <ns3:atemp>20.0</ns3:atemp>
          </ns3:TrackPointExtension>
        </extensions>
      </trkpt>
      <trkpt lat="42.5993040762841701507568359375" lon="19.983877725899219512939453125">
        <ele>1222</ele>
        <time>2026-06-15T15:24:45.000Z</time>
        <extensions>
          <ns3:TrackPointExtension>
            <ns3:atemp>20.0</ns3:atemp>
          </ns3:TrackPointExtension>
        </extensions>
      </trkpt>
      <trkpt lat="42.5993040762841701507568359375" lon="19.983877725899219512939453125">
        <ele>1222</ele>
        <time>2026-06-15T15:24:46.000Z</time>
        <extensions>
          <ns3:TrackPointExtension>
            <ns3:atemp>20.0</ns3:atemp>
          </ns3:TrackPointExtension>
        </extensions>
      </trkpt>
      <trkpt lat="42.5993040762841701507568359375" lon="19.983877725899219512939453125">
        <ele>1222</ele>
        <time>2026-06-15T15:24:47.000Z</time>
        <extensions>
          <ns3:TrackPointExtension>
            <ns3:atemp>20.0</ns3:atemp>
          </ns3:TrackPointExtension>
        </extensions>
      </trkpt>
      <trkpt lat="42.5993040762841701507568359375" lon="19.983877725899219512939453125">
        <ele>1222</ele>
        <time>2026-06-15T15:24:48.000Z</time>
        <extensions>
          <ns3:TrackPointExtension>
            <ns3:atemp>20.0</ns3:atemp>
          </ns3:TrackPointExtension>
        </extensions>
      </trkpt>
      <trkpt lat="42.5993040762841701507568359375" lon="19.983877725899219512939453125">
        <ele>1222</ele>
        <time>2026-06-15T15:24:49.000Z</time>
        <extensions>
          <ns3:TrackPointExtension>
            <ns3:atemp>20.0</ns3:atemp>
          </ns3:TrackPointExtension>
        </extensions>
      </trkpt>
      <trkpt lat="42.5993040762841701507568359375" lon="19.983877725899219512939453125">
        <ele>1222</ele>
        <time>2026-06-15T15:24:50.000Z</time>
        <extensions>
          <ns3:TrackPointExtension>
            <ns3:atemp>20.0</ns3:atemp>
          </ns3:TrackPointExtension>
        </extensions>
      </trkpt>
      <trkpt lat="42.5993040762841701507568359375" lon="19.983877725899219512939453125">
        <ele>1222</ele>
        <time>2026-06-15T15:24:51.000Z</time>
        <extensions>
          <ns3:TrackPointExtension>
            <ns3:atemp>20.0</ns3:atemp>
          </ns3:TrackPointExtension>
        </extensions>
      </trkpt>
      <trkpt lat="42.5993040762841701507568359375" lon="19.983877725899219512939453125">
        <ele>1222</ele>
        <time>2026-06-15T15:24:52.000Z</time>
        <extensions>
          <ns3:TrackPointExtension>
            <ns3:atemp>20.0</ns3:atemp>
          </ns3:TrackPointExtension>
        </extensions>
      </trkpt>
      <trkpt lat="42.5993040762841701507568359375" lon="19.983877725899219512939453125">
        <ele>1222</ele>
        <time>2026-06-15T15:24:53.000Z</time>
        <extensions>
          <ns3:TrackPointExtension>
            <ns3:atemp>20.0</ns3:atemp>
          </ns3:TrackPointExtension>
        </extensions>
      </trkpt>
      <trkpt lat="42.5993040762841701507568359375" lon="19.983877725899219512939453125">
        <ele>1222</ele>
        <time>2026-06-15T15:24:54.000Z</time>
        <extensions>
          <ns3:TrackPointExtension>
            <ns3:atemp>20.0</ns3:atemp>
          </ns3:TrackPointExtension>
        </extensions>
      </trkpt>
      <trkpt lat="42.5993040762841701507568359375" lon="19.983877725899219512939453125">
        <ele>1222</ele>
        <time>2026-06-15T15:24:55.000Z</time>
        <extensions>
          <ns3:TrackPointExtension>
            <ns3:atemp>20.0</ns3:atemp>
          </ns3:TrackPointExtension>
        </extensions>
      </trkpt>
      <trkpt lat="42.5993040762841701507568359375" lon="19.983877725899219512939453125">
        <ele>1222</ele>
        <time>2026-06-15T15:24:56.000Z</time>
        <extensions>
          <ns3:TrackPointExtension>
            <ns3:atemp>20.0</ns3:atemp>
          </ns3:TrackPointExtension>
        </extensions>
      </trkpt>
      <trkpt lat="42.5993040762841701507568359375" lon="19.983877725899219512939453125">
        <ele>1222</ele>
        <time>2026-06-15T15:24:57.000Z</time>
        <extensions>
          <ns3:TrackPointExtension>
            <ns3:atemp>20.0</ns3:atemp>
          </ns3:TrackPointExtension>
        </extensions>
      </trkpt>
      <trkpt lat="42.5993040762841701507568359375" lon="19.983877725899219512939453125">
        <ele>1222</ele>
        <time>2026-06-15T15:24:58.000Z</time>
        <extensions>
          <ns3:TrackPointExtension>
            <ns3:atemp>20.0</ns3:atemp>
          </ns3:TrackPointExtension>
        </extensions>
      </trkpt>
      <trkpt lat="42.5993040762841701507568359375" lon="19.983877725899219512939453125">
        <ele>1222</ele>
        <time>2026-06-15T15:24:59.000Z</time>
        <extensions>
          <ns3:TrackPointExtension>
            <ns3:atemp>20.0</ns3:atemp>
          </ns3:TrackPointExtension>
        </extensions>
      </trkpt>
      <trkpt lat="42.5993040762841701507568359375" lon="19.983877725899219512939453125">
        <ele>1222</ele>
        <time>2026-06-15T15:25:00.000Z</time>
        <extensions>
          <ns3:TrackPointExtension>
            <ns3:atemp>20.0</ns3:atemp>
          </ns3:TrackPointExtension>
        </extensions>
      </trkpt>
      <trkpt lat="42.5993040762841701507568359375" lon="19.983877725899219512939453125">
        <ele>1222</ele>
        <time>2026-06-15T15:25:01.000Z</time>
        <extensions>
          <ns3:TrackPointExtension>
            <ns3:atemp>20.0</ns3:atemp>
          </ns3:TrackPointExtension>
        </extensions>
      </trkpt>
      <trkpt lat="42.5993040762841701507568359375" lon="19.983877725899219512939453125">
        <ele>1222</ele>
        <time>2026-06-15T15:25:02.000Z</time>
        <extensions>
          <ns3:TrackPointExtension>
            <ns3:atemp>20.0</ns3:atemp>
          </ns3:TrackPointExtension>
        </extensions>
      </trkpt>
      <trkpt lat="42.5993040762841701507568359375" lon="19.983877725899219512939453125">
        <ele>1222</ele>
        <time>2026-06-15T15:25:03.000Z</time>
        <extensions>
          <ns3:TrackPointExtension>
            <ns3:atemp>20.0</ns3:atemp>
          </ns3:TrackPointExtension>
        </extensions>
      </trkpt>
      <trkpt lat="42.5993040762841701507568359375" lon="19.983877725899219512939453125">
        <ele>1222</ele>
        <time>2026-06-15T15:25:04.000Z</time>
        <extensions>
          <ns3:TrackPointExtension>
            <ns3:atemp>20.0</ns3:atemp>
          </ns3:TrackPointExtension>
        </extensions>
      </trkpt>
      <trkpt lat="42.5993040762841701507568359375" lon="19.983877725899219512939453125">
        <ele>1222</ele>
        <time>2026-06-15T15:25:05.000Z</time>
        <extensions>
          <ns3:TrackPointExtension>
            <ns3:atemp>20.0</ns3:atemp>
          </ns3:TrackPointExtension>
        </extensions>
      </trkpt>
      <trkpt lat="42.5993040762841701507568359375" lon="19.983877725899219512939453125">
        <ele>1222</ele>
        <time>2026-06-15T15:25:06.000Z</time>
        <extensions>
          <ns3:TrackPointExtension>
            <ns3:atemp>20.0</ns3:atemp>
          </ns3:TrackPointExtension>
        </extensions>
      </trkpt>
      <trkpt lat="42.5993040762841701507568359375" lon="19.983877725899219512939453125">
        <ele>1222</ele>
        <time>2026-06-15T15:25:07.000Z</time>
        <extensions>
          <ns3:TrackPointExtension>
            <ns3:atemp>20.0</ns3:atemp>
          </ns3:TrackPointExtension>
        </extensions>
      </trkpt>
      <trkpt lat="42.5993040762841701507568359375" lon="19.983877725899219512939453125">
        <ele>1222</ele>
        <time>2026-06-15T15:25:08.000Z</time>
        <extensions>
          <ns3:TrackPointExtension>
            <ns3:atemp>20.0</ns3:atemp>
          </ns3:TrackPointExtension>
        </extensions>
      </trkpt>
      <trkpt lat="42.5993040762841701507568359375" lon="19.983877725899219512939453125">
        <ele>1222</ele>
        <time>2026-06-15T15:25:09.000Z</time>
        <extensions>
          <ns3:TrackPointExtension>
            <ns3:atemp>20.0</ns3:atemp>
          </ns3:TrackPointExtension>
        </extensions>
      </trkpt>
      <trkpt lat="42.5993040762841701507568359375" lon="19.983877725899219512939453125">
        <ele>1222</ele>
        <time>2026-06-15T15:25:10.000Z</time>
        <extensions>
          <ns3:TrackPointExtension>
            <ns3:atemp>20.0</ns3:atemp>
          </ns3:TrackPointExtension>
        </extensions>
      </trkpt>
      <trkpt lat="42.5993040762841701507568359375" lon="19.983877725899219512939453125">
        <ele>1222</ele>
        <time>2026-06-15T15:25:11.000Z</time>
        <extensions>
          <ns3:TrackPointExtension>
            <ns3:atemp>20.0</ns3:atemp>
          </ns3:TrackPointExtension>
        </extensions>
      </trkpt>
      <trkpt lat="42.5993040762841701507568359375" lon="19.983877725899219512939453125">
        <ele>1222</ele>
        <time>2026-06-15T15:25:12.000Z</time>
        <extensions>
          <ns3:TrackPointExtension>
            <ns3:atemp>20.0</ns3:atemp>
          </ns3:TrackPointExtension>
        </extensions>
      </trkpt>
      <trkpt lat="42.5993040762841701507568359375" lon="19.983877725899219512939453125">
        <ele>1222</ele>
        <time>2026-06-15T15:25:13.000Z</time>
        <extensions>
          <ns3:TrackPointExtension>
            <ns3:atemp>20.0</ns3:atemp>
          </ns3:TrackPointExtension>
        </extensions>
      </trkpt>
      <trkpt lat="42.5993040762841701507568359375" lon="19.983877725899219512939453125">
        <ele>1222</ele>
        <time>2026-06-15T15:25:14.000Z</time>
        <extensions>
          <ns3:TrackPointExtension>
            <ns3:atemp>20.0</ns3:atemp>
          </ns3:TrackPointExtension>
        </extensions>
      </trkpt>
      <trkpt lat="42.5993040762841701507568359375" lon="19.983877725899219512939453125">
        <ele>1222</ele>
        <time>2026-06-15T15:25:15.000Z</time>
        <extensions>
          <ns3:TrackPointExtension>
            <ns3:atemp>20.0</ns3:atemp>
          </ns3:TrackPointExtension>
        </extensions>
      </trkpt>
      <trkpt lat="42.5993040762841701507568359375" lon="19.983877725899219512939453125">
        <ele>1222</ele>
        <time>2026-06-15T15:25:16.000Z</time>
        <extensions>
          <ns3:TrackPointExtension>
            <ns3:atemp>20.0</ns3:atemp>
          </ns3:TrackPointExtension>
        </extensions>
      </trkpt>
      <trkpt lat="42.5993040762841701507568359375" lon="19.983877725899219512939453125">
        <ele>1222</ele>
        <time>2026-06-15T15:25:17.000Z</time>
        <extensions>
          <ns3:TrackPointExtension>
            <ns3:atemp>20.0</ns3:atemp>
          </ns3:TrackPointExtension>
        </extensions>
      </trkpt>
      <trkpt lat="42.5993040762841701507568359375" lon="19.983877725899219512939453125">
        <ele>1222</ele>
        <time>2026-06-15T15:25:18.000Z</time>
        <extensions>
          <ns3:TrackPointExtension>
            <ns3:atemp>20.0</ns3:atemp>
          </ns3:TrackPointExtension>
        </extensions>
      </trkpt>
      <trkpt lat="42.5993040762841701507568359375" lon="19.983877725899219512939453125">
        <ele>1222</ele>
        <time>2026-06-15T15:25:19.000Z</time>
        <extensions>
          <ns3:TrackPointExtension>
            <ns3:atemp>20.0</ns3:atemp>
          </ns3:TrackPointExtension>
        </extensions>
      </trkpt>
      <trkpt lat="42.5993040762841701507568359375" lon="19.983877725899219512939453125">
        <ele>1222</ele>
        <time>2026-06-15T15:25:20.000Z</time>
        <extensions>
          <ns3:TrackPointExtension>
            <ns3:atemp>20.0</ns3:atemp>
          </ns3:TrackPointExtension>
        </extensions>
      </trkpt>
      <trkpt lat="42.5993040762841701507568359375" lon="19.983877725899219512939453125">
        <ele>1222</ele>
        <time>2026-06-15T15:25:21.000Z</time>
        <extensions>
          <ns3:TrackPointExtension>
            <ns3:atemp>20.0</ns3:atemp>
          </ns3:TrackPointExtension>
        </extensions>
      </trkpt>
      <trkpt lat="42.5993040762841701507568359375" lon="19.983877725899219512939453125">
        <ele>1222</ele>
        <time>2026-06-15T15:25:22.000Z</time>
        <extensions>
          <ns3:TrackPointExtension>
            <ns3:atemp>20.0</ns3:atemp>
          </ns3:TrackPointExtension>
        </extensions>
      </trkpt>
      <trkpt lat="42.5993040762841701507568359375" lon="19.983877725899219512939453125">
        <ele>1222</ele>
        <time>2026-06-15T15:25:23.000Z</time>
        <extensions>
          <ns3:TrackPointExtension>
            <ns3:atemp>20.0</ns3:atemp>
          </ns3:TrackPointExtension>
        </extensions>
      </trkpt>
      <trkpt lat="42.5993040762841701507568359375" lon="19.983877725899219512939453125">
        <ele>1222</ele>
        <time>2026-06-15T15:25:24.000Z</time>
        <extensions>
          <ns3:TrackPointExtension>
            <ns3:atemp>20.0</ns3:atemp>
          </ns3:TrackPointExtension>
        </extensions>
      </trkpt>
      <trkpt lat="42.5993040762841701507568359375" lon="19.983877725899219512939453125">
        <ele>1222</ele>
        <time>2026-06-15T15:25:25.000Z</time>
        <extensions>
          <ns3:TrackPointExtension>
            <ns3:atemp>20.0</ns3:atemp>
          </ns3:TrackPointExtension>
        </extensions>
      </trkpt>
      <trkpt lat="42.5993040762841701507568359375" lon="19.983877725899219512939453125">
        <ele>1222</ele>
        <time>2026-06-15T15:25:26.000Z</time>
        <extensions>
          <ns3:TrackPointExtension>
            <ns3:atemp>20.0</ns3:atemp>
          </ns3:TrackPointExtension>
        </extensions>
      </trkpt>
      <trkpt lat="42.5993040762841701507568359375" lon="19.983877725899219512939453125">
        <ele>1222</ele>
        <time>2026-06-15T15:25:27.000Z</time>
        <extensions>
          <ns3:TrackPointExtension>
            <ns3:atemp>20.0</ns3:atemp>
          </ns3:TrackPointExtension>
        </extensions>
      </trkpt>
      <trkpt lat="42.5993040762841701507568359375" lon="19.983877725899219512939453125">
        <ele>1222</ele>
        <time>2026-06-15T15:25:28.000Z</time>
        <extensions>
          <ns3:TrackPointExtension>
            <ns3:atemp>20.0</ns3:atemp>
          </ns3:TrackPointExtension>
        </extensions>
      </trkpt>
      <trkpt lat="42.5993040762841701507568359375" lon="19.983877725899219512939453125">
        <ele>1222</ele>
        <time>2026-06-15T15:25:29.000Z</time>
        <extensions>
          <ns3:TrackPointExtension>
            <ns3:atemp>20.0</ns3:atemp>
          </ns3:TrackPointExtension>
        </extensions>
      </trkpt>
      <trkpt lat="42.5993040762841701507568359375" lon="19.983877725899219512939453125">
        <ele>1222</ele>
        <time>2026-06-15T15:25:30.000Z</time>
        <extensions>
          <ns3:TrackPointExtension>
            <ns3:atemp>20.0</ns3:atemp>
          </ns3:TrackPointExtension>
        </extensions>
      </trkpt>
      <trkpt lat="42.5993040762841701507568359375" lon="19.983877725899219512939453125">
        <ele>1222</ele>
        <time>2026-06-15T15:25:31.000Z</time>
        <extensions>
          <ns3:TrackPointExtension>
            <ns3:atemp>20.0</ns3:atemp>
          </ns3:TrackPointExtension>
        </extensions>
      </trkpt>
      <trkpt lat="42.5993040762841701507568359375" lon="19.983877725899219512939453125">
        <ele>1222</ele>
        <time>2026-06-15T15:25:32.000Z</time>
        <extensions>
          <ns3:TrackPointExtension>
            <ns3:atemp>20.0</ns3:atemp>
          </ns3:TrackPointExtension>
        </extensions>
      </trkpt>
      <trkpt lat="42.5993040762841701507568359375" lon="19.983877725899219512939453125">
        <ele>1222</ele>
        <time>2026-06-15T15:25:33.000Z</time>
        <extensions>
          <ns3:TrackPointExtension>
            <ns3:atemp>20.0</ns3:atemp>
          </ns3:TrackPointExtension>
        </extensions>
      </trkpt>
      <trkpt lat="42.5993040762841701507568359375" lon="19.983877725899219512939453125">
        <ele>1222</ele>
        <time>2026-06-15T15:25:34.000Z</time>
        <extensions>
          <ns3:TrackPointExtension>
            <ns3:atemp>20.0</ns3:atemp>
          </ns3:TrackPointExtension>
        </extensions>
      </trkpt>
      <trkpt lat="42.5993040762841701507568359375" lon="19.983877725899219512939453125">
        <ele>1222</ele>
        <time>2026-06-15T15:25:35.000Z</time>
        <extensions>
          <ns3:TrackPointExtension>
            <ns3:atemp>20.0</ns3:atemp>
          </ns3:TrackPointExtension>
        </extensions>
      </trkpt>
      <trkpt lat="42.5993040762841701507568359375" lon="19.983877725899219512939453125">
        <ele>1222</ele>
        <time>2026-06-15T15:25:36.000Z</time>
        <extensions>
          <ns3:TrackPointExtension>
            <ns3:atemp>20.0</ns3:atemp>
          </ns3:TrackPointExtension>
        </extensions>
      </trkpt>
      <trkpt lat="42.5993040762841701507568359375" lon="19.983877725899219512939453125">
        <ele>1222</ele>
        <time>2026-06-15T15:25:37.000Z</time>
        <extensions>
          <ns3:TrackPointExtension>
            <ns3:atemp>20.0</ns3:atemp>
          </ns3:TrackPointExtension>
        </extensions>
      </trkpt>
      <trkpt lat="42.5993040762841701507568359375" lon="19.983877725899219512939453125">
        <ele>1222</ele>
        <time>2026-06-15T15:25:38.000Z</time>
        <extensions>
          <ns3:TrackPointExtension>
            <ns3:atemp>20.0</ns3:atemp>
          </ns3:TrackPointExtension>
        </extensions>
      </trkpt>
      <trkpt lat="42.5993040762841701507568359375" lon="19.983877725899219512939453125">
        <ele>1222</ele>
        <time>2026-06-15T15:25:39.000Z</time>
        <extensions>
          <ns3:TrackPointExtension>
            <ns3:atemp>20.0</ns3:atemp>
          </ns3:TrackPointExtension>
        </extensions>
      </trkpt>
      <trkpt lat="42.5993040762841701507568359375" lon="19.983877725899219512939453125">
        <ele>1222</ele>
        <time>2026-06-15T15:25:40.000Z</time>
        <extensions>
          <ns3:TrackPointExtension>
            <ns3:atemp>20.0</ns3:atemp>
          </ns3:TrackPointExtension>
        </extensions>
      </trkpt>
      <trkpt lat="42.5993040762841701507568359375" lon="19.983877725899219512939453125">
        <ele>1222</ele>
        <time>2026-06-15T15:25:41.000Z</time>
        <extensions>
          <ns3:TrackPointExtension>
            <ns3:atemp>20.0</ns3:atemp>
          </ns3:TrackPointExtension>
        </extensions>
      </trkpt>
      <trkpt lat="42.5993040762841701507568359375" lon="19.983877725899219512939453125">
        <ele>1222</ele>
        <time>2026-06-15T15:25:42.000Z</time>
        <extensions>
          <ns3:TrackPointExtension>
            <ns3:atemp>20.0</ns3:atemp>
          </ns3:TrackPointExtension>
        </extensions>
      </trkpt>
      <trkpt lat="42.5993040762841701507568359375" lon="19.983877725899219512939453125">
        <ele>1222</ele>
        <time>2026-06-15T15:25:43.000Z</time>
        <extensions>
          <ns3:TrackPointExtension>
            <ns3:atemp>20.0</ns3:atemp>
          </ns3:TrackPointExtension>
        </extensions>
      </trkpt>
      <trkpt lat="42.5993040762841701507568359375" lon="19.983877725899219512939453125">
        <ele>1222</ele>
        <time>2026-06-15T15:25:44.000Z</time>
        <extensions>
          <ns3:TrackPointExtension>
            <ns3:atemp>20.0</ns3:atemp>
          </ns3:TrackPointExtension>
        </extensions>
      </trkpt>
      <trkpt lat="42.5993040762841701507568359375" lon="19.983877725899219512939453125">
        <ele>1222</ele>
        <time>2026-06-15T15:25:45.000Z</time>
        <extensions>
          <ns3:TrackPointExtension>
            <ns3:atemp>20.0</ns3:atemp>
          </ns3:TrackPointExtension>
        </extensions>
      </trkpt>
      <trkpt lat="42.5993040762841701507568359375" lon="19.983877725899219512939453125">
        <ele>1222</ele>
        <time>2026-06-15T15:25:46.000Z</time>
        <extensions>
          <ns3:TrackPointExtension>
            <ns3:atemp>20.0</ns3:atemp>
          </ns3:TrackPointExtension>
        </extensions>
      </trkpt>
      <trkpt lat="42.5993040762841701507568359375" lon="19.983877725899219512939453125">
        <ele>1222</ele>
        <time>2026-06-15T15:25:47.000Z</time>
        <extensions>
          <ns3:TrackPointExtension>
            <ns3:atemp>20.0</ns3:atemp>
          </ns3:TrackPointExtension>
        </extensions>
      </trkpt>
      <trkpt lat="42.5993040762841701507568359375" lon="19.983877725899219512939453125">
        <ele>1222</ele>
        <time>2026-06-15T15:25:48.000Z</time>
        <extensions>
          <ns3:TrackPointExtension>
            <ns3:atemp>20.0</ns3:atemp>
          </ns3:TrackPointExtension>
        </extensions>
      </trkpt>
      <trkpt lat="42.5993040762841701507568359375" lon="19.983877725899219512939453125">
        <ele>1222</ele>
        <time>2026-06-15T15:25:49.000Z</time>
        <extensions>
          <ns3:TrackPointExtension>
            <ns3:atemp>20.0</ns3:atemp>
          </ns3:TrackPointExtension>
        </extensions>
      </trkpt>
      <trkpt lat="42.5993040762841701507568359375" lon="19.983877725899219512939453125">
        <ele>1222</ele>
        <time>2026-06-15T15:25:50.000Z</time>
        <extensions>
          <ns3:TrackPointExtension>
            <ns3:atemp>20.0</ns3:atemp>
          </ns3:TrackPointExtension>
        </extensions>
      </trkpt>
      <trkpt lat="42.5993040762841701507568359375" lon="19.983877725899219512939453125">
        <ele>1222</ele>
        <time>2026-06-15T15:25:51.000Z</time>
        <extensions>
          <ns3:TrackPointExtension>
            <ns3:atemp>20.0</ns3:atemp>
          </ns3:TrackPointExtension>
        </extensions>
      </trkpt>
      <trkpt lat="42.5993040762841701507568359375" lon="19.983877725899219512939453125">
        <ele>1222</ele>
        <time>2026-06-15T15:25:52.000Z</time>
        <extensions>
          <ns3:TrackPointExtension>
            <ns3:atemp>20.0</ns3:atemp>
          </ns3:TrackPointExtension>
        </extensions>
      </trkpt>
      <trkpt lat="42.5993040762841701507568359375" lon="19.983877725899219512939453125">
        <ele>1222</ele>
        <time>2026-06-15T15:25:53.000Z</time>
        <extensions>
          <ns3:TrackPointExtension>
            <ns3:atemp>20.0</ns3:atemp>
          </ns3:TrackPointExtension>
        </extensions>
      </trkpt>
      <trkpt lat="42.5993040762841701507568359375" lon="19.983877725899219512939453125">
        <ele>1222</ele>
        <time>2026-06-15T15:25:54.000Z</time>
        <extensions>
          <ns3:TrackPointExtension>
            <ns3:atemp>20.0</ns3:atemp>
          </ns3:TrackPointExtension>
        </extensions>
      </trkpt>
      <trkpt lat="42.5993040762841701507568359375" lon="19.983877725899219512939453125">
        <ele>1222</ele>
        <time>2026-06-15T15:25:55.000Z</time>
        <extensions>
          <ns3:TrackPointExtension>
            <ns3:atemp>20.0</ns3:atemp>
          </ns3:TrackPointExtension>
        </extensions>
      </trkpt>
      <trkpt lat="42.5993040762841701507568359375" lon="19.983877725899219512939453125">
        <ele>1222</ele>
        <time>2026-06-15T15:25:56.000Z</time>
        <extensions>
          <ns3:TrackPointExtension>
            <ns3:atemp>20.0</ns3:atemp>
          </ns3:TrackPointExtension>
        </extensions>
      </trkpt>
      <trkpt lat="42.5993040762841701507568359375" lon="19.983877725899219512939453125">
        <ele>1222</ele>
        <time>2026-06-15T15:25:57.000Z</time>
        <extensions>
          <ns3:TrackPointExtension>
            <ns3:atemp>20.0</ns3:atemp>
          </ns3:TrackPointExtension>
        </extensions>
      </trkpt>
      <trkpt lat="42.5993040762841701507568359375" lon="19.983877725899219512939453125">
        <ele>1222</ele>
        <time>2026-06-15T15:25:58.000Z</time>
        <extensions>
          <ns3:TrackPointExtension>
            <ns3:atemp>20.0</ns3:atemp>
          </ns3:TrackPointExtension>
        </extensions>
      </trkpt>
      <trkpt lat="42.5993040762841701507568359375" lon="19.983877725899219512939453125">
        <ele>1222</ele>
        <time>2026-06-15T15:25:59.000Z</time>
        <extensions>
          <ns3:TrackPointExtension>
            <ns3:atemp>20.0</ns3:atemp>
          </ns3:TrackPointExtension>
        </extensions>
      </trkpt>
      <trkpt lat="42.5993040762841701507568359375" lon="19.983877725899219512939453125">
        <ele>1222</ele>
        <time>2026-06-15T15:26:00.000Z</time>
        <extensions>
          <ns3:TrackPointExtension>
            <ns3:atemp>20.0</ns3:atemp>
          </ns3:TrackPointExtension>
        </extensions>
      </trkpt>
      <trkpt lat="42.5993040762841701507568359375" lon="19.983877725899219512939453125">
        <ele>1222</ele>
        <time>2026-06-15T15:26:01.000Z</time>
        <extensions>
          <ns3:TrackPointExtension>
            <ns3:atemp>20.0</ns3:atemp>
          </ns3:TrackPointExtension>
        </extensions>
      </trkpt>
      <trkpt lat="42.5993040762841701507568359375" lon="19.983877725899219512939453125">
        <ele>1222</ele>
        <time>2026-06-15T15:26:02.000Z</time>
        <extensions>
          <ns3:TrackPointExtension>
            <ns3:atemp>20.0</ns3:atemp>
          </ns3:TrackPointExtension>
        </extensions>
      </trkpt>
      <trkpt lat="42.5993040762841701507568359375" lon="19.983877725899219512939453125">
        <ele>1222</ele>
        <time>2026-06-15T15:26:03.000Z</time>
        <extensions>
          <ns3:TrackPointExtension>
            <ns3:atemp>20.0</ns3:atemp>
          </ns3:TrackPointExtension>
        </extensions>
      </trkpt>
      <trkpt lat="42.5993040762841701507568359375" lon="19.983877725899219512939453125">
        <ele>1222</ele>
        <time>2026-06-15T15:26:04.000Z</time>
        <extensions>
          <ns3:TrackPointExtension>
            <ns3:atemp>20.0</ns3:atemp>
          </ns3:TrackPointExtension>
        </extensions>
      </trkpt>
      <trkpt lat="42.5993040762841701507568359375" lon="19.983877725899219512939453125">
        <ele>1222</ele>
        <time>2026-06-15T15:26:05.000Z</time>
        <extensions>
          <ns3:TrackPointExtension>
            <ns3:atemp>20.0</ns3:atemp>
          </ns3:TrackPointExtension>
        </extensions>
      </trkpt>
      <trkpt lat="42.5993040762841701507568359375" lon="19.983877725899219512939453125">
        <ele>1222</ele>
        <time>2026-06-15T15:26:06.000Z</time>
        <extensions>
          <ns3:TrackPointExtension>
            <ns3:atemp>20.0</ns3:atemp>
          </ns3:TrackPointExtension>
        </extensions>
      </trkpt>
      <trkpt lat="42.5993040762841701507568359375" lon="19.983877725899219512939453125">
        <ele>1222</ele>
        <time>2026-06-15T15:26:07.000Z</time>
        <extensions>
          <ns3:TrackPointExtension>
            <ns3:atemp>20.0</ns3:atemp>
          </ns3:TrackPointExtension>
        </extensions>
      </trkpt>
      <trkpt lat="42.5993040762841701507568359375" lon="19.983877725899219512939453125">
        <ele>1222</ele>
        <time>2026-06-15T15:26:08.000Z</time>
        <extensions>
          <ns3:TrackPointExtension>
            <ns3:atemp>20.0</ns3:atemp>
          </ns3:TrackPointExtension>
        </extensions>
      </trkpt>
      <trkpt lat="42.5993040762841701507568359375" lon="19.983877725899219512939453125">
        <ele>1222</ele>
        <time>2026-06-15T15:26:09.000Z</time>
        <extensions>
          <ns3:TrackPointExtension>
            <ns3:atemp>20.0</ns3:atemp>
          </ns3:TrackPointExtension>
        </extensions>
      </trkpt>
      <trkpt lat="42.5993040762841701507568359375" lon="19.983877725899219512939453125">
        <ele>1222</ele>
        <time>2026-06-15T15:26:10.000Z</time>
        <extensions>
          <ns3:TrackPointExtension>
            <ns3:atemp>20.0</ns3:atemp>
          </ns3:TrackPointExtension>
        </extensions>
      </trkpt>
      <trkpt lat="42.5993040762841701507568359375" lon="19.983877725899219512939453125">
        <ele>1222</ele>
        <time>2026-06-15T15:26:11.000Z</time>
        <extensions>
          <ns3:TrackPointExtension>
            <ns3:atemp>20.0</ns3:atemp>
          </ns3:TrackPointExtension>
        </extensions>
      </trkpt>
      <trkpt lat="42.5993040762841701507568359375" lon="19.983877725899219512939453125">
        <ele>1222</ele>
        <time>2026-06-15T15:26:12.000Z</time>
        <extensions>
          <ns3:TrackPointExtension>
            <ns3:atemp>20.0</ns3:atemp>
          </ns3:TrackPointExtension>
        </extensions>
      </trkpt>
      <trkpt lat="42.5993040762841701507568359375" lon="19.983877725899219512939453125">
        <ele>1222</ele>
        <time>2026-06-15T15:26:13.000Z</time>
        <extensions>
          <ns3:TrackPointExtension>
            <ns3:atemp>20.0</ns3:atemp>
          </ns3:TrackPointExtension>
        </extensions>
      </trkpt>
      <trkpt lat="42.5993040762841701507568359375" lon="19.983877725899219512939453125">
        <ele>1222</ele>
        <time>2026-06-15T15:26:14.000Z</time>
        <extensions>
          <ns3:TrackPointExtension>
            <ns3:atemp>20.0</ns3:atemp>
          </ns3:TrackPointExtension>
        </extensions>
      </trkpt>
      <trkpt lat="42.5993040762841701507568359375" lon="19.983877725899219512939453125">
        <ele>1222</ele>
        <time>2026-06-15T15:26:15.000Z</time>
        <extensions>
          <ns3:TrackPointExtension>
            <ns3:atemp>20.0</ns3:atemp>
          </ns3:TrackPointExtension>
        </extensions>
      </trkpt>
      <trkpt lat="42.5993040762841701507568359375" lon="19.983877725899219512939453125">
        <ele>1222</ele>
        <time>2026-06-15T15:26:16.000Z</time>
        <extensions>
          <ns3:TrackPointExtension>
            <ns3:atemp>20.0</ns3:atemp>
          </ns3:TrackPointExtension>
        </extensions>
      </trkpt>
      <trkpt lat="42.5993040762841701507568359375" lon="19.983877725899219512939453125">
        <ele>1222</ele>
        <time>2026-06-15T15:26:17.000Z</time>
        <extensions>
          <ns3:TrackPointExtension>
            <ns3:atemp>20.0</ns3:atemp>
          </ns3:TrackPointExtension>
        </extensions>
      </trkpt>
      <trkpt lat="42.5993040762841701507568359375" lon="19.983877725899219512939453125">
        <ele>1222</ele>
        <time>2026-06-15T15:26:18.000Z</time>
        <extensions>
          <ns3:TrackPointExtension>
            <ns3:atemp>20.0</ns3:atemp>
          </ns3:TrackPointExtension>
        </extensions>
      </trkpt>
      <trkpt lat="42.5993040762841701507568359375" lon="19.983877725899219512939453125">
        <ele>1222</ele>
        <time>2026-06-15T15:26:19.000Z</time>
        <extensions>
          <ns3:TrackPointExtension>
            <ns3:atemp>20.0</ns3:atemp>
          </ns3:TrackPointExtension>
        </extensions>
      </trkpt>
      <trkpt lat="42.5993040762841701507568359375" lon="19.983877725899219512939453125">
        <ele>1222</ele>
        <time>2026-06-15T15:26:20.000Z</time>
        <extensions>
          <ns3:TrackPointExtension>
            <ns3:atemp>20.0</ns3:atemp>
          </ns3:TrackPointExtension>
        </extensions>
      </trkpt>
      <trkpt lat="42.5993040762841701507568359375" lon="19.983877725899219512939453125">
        <ele>1222</ele>
        <time>2026-06-15T15:26:21.000Z</time>
        <extensions>
          <ns3:TrackPointExtension>
            <ns3:atemp>20.0</ns3:atemp>
          </ns3:TrackPointExtension>
        </extensions>
      </trkpt>
      <trkpt lat="42.5993040762841701507568359375" lon="19.983877725899219512939453125">
        <ele>1222</ele>
        <time>2026-06-15T15:26:22.000Z</time>
        <extensions>
          <ns3:TrackPointExtension>
            <ns3:atemp>20.0</ns3:atemp>
          </ns3:TrackPointExtension>
        </extensions>
      </trkpt>
      <trkpt lat="42.5993040762841701507568359375" lon="19.983877725899219512939453125">
        <ele>1222</ele>
        <time>2026-06-15T15:26:23.000Z</time>
        <extensions>
          <ns3:TrackPointExtension>
            <ns3:atemp>20.0</ns3:atemp>
          </ns3:TrackPointExtension>
        </extensions>
      </trkpt>
      <trkpt lat="42.5993040762841701507568359375" lon="19.983877725899219512939453125">
        <ele>1222</ele>
        <time>2026-06-15T15:26:24.000Z</time>
        <extensions>
          <ns3:TrackPointExtension>
            <ns3:atemp>20.0</ns3:atemp>
          </ns3:TrackPointExtension>
        </extensions>
      </trkpt>
      <trkpt lat="42.5993040762841701507568359375" lon="19.983877725899219512939453125">
        <ele>1222</ele>
        <time>2026-06-15T15:26:25.000Z</time>
        <extensions>
          <ns3:TrackPointExtension>
            <ns3:atemp>20.0</ns3:atemp>
          </ns3:TrackPointExtension>
        </extensions>
      </trkpt>
      <trkpt lat="42.5993040762841701507568359375" lon="19.983877725899219512939453125">
        <ele>1222</ele>
        <time>2026-06-15T15:26:26.000Z</time>
        <extensions>
          <ns3:TrackPointExtension>
            <ns3:atemp>20.0</ns3:atemp>
          </ns3:TrackPointExtension>
        </extensions>
      </trkpt>
      <trkpt lat="42.5993040762841701507568359375" lon="19.983877725899219512939453125">
        <ele>1222</ele>
        <time>2026-06-15T15:26:27.000Z</time>
        <extensions>
          <ns3:TrackPointExtension>
            <ns3:atemp>20.0</ns3:atemp>
          </ns3:TrackPointExtension>
        </extensions>
      </trkpt>
      <trkpt lat="42.5993040762841701507568359375" lon="19.983877725899219512939453125">
        <ele>1222</ele>
        <time>2026-06-15T15:26:28.000Z</time>
        <extensions>
          <ns3:TrackPointExtension>
            <ns3:atemp>20.0</ns3:atemp>
          </ns3:TrackPointExtension>
        </extensions>
      </trkpt>
      <trkpt lat="42.5993040762841701507568359375" lon="19.983877725899219512939453125">
        <ele>1222</ele>
        <time>2026-06-15T15:26:29.000Z</time>
        <extensions>
          <ns3:TrackPointExtension>
            <ns3:atemp>20.0</ns3:atemp>
          </ns3:TrackPointExtension>
        </extensions>
      </trkpt>
      <trkpt lat="42.5993040762841701507568359375" lon="19.983877725899219512939453125">
        <ele>1222</ele>
        <time>2026-06-15T15:26:30.000Z</time>
        <extensions>
          <ns3:TrackPointExtension>
            <ns3:atemp>20.0</ns3:atemp>
          </ns3:TrackPointExtension>
        </extensions>
      </trkpt>
      <trkpt lat="42.5993040762841701507568359375" lon="19.983877725899219512939453125">
        <ele>1222</ele>
        <time>2026-06-15T15:26:31.000Z</time>
        <extensions>
          <ns3:TrackPointExtension>
            <ns3:atemp>20.0</ns3:atemp>
          </ns3:TrackPointExtension>
        </extensions>
      </trkpt>
      <trkpt lat="42.5993040762841701507568359375" lon="19.983877725899219512939453125">
        <ele>1222</ele>
        <time>2026-06-15T15:26:32.000Z</time>
        <extensions>
          <ns3:TrackPointExtension>
            <ns3:atemp>20.0</ns3:atemp>
          </ns3:TrackPointExtension>
        </extensions>
      </trkpt>
      <trkpt lat="42.5993040762841701507568359375" lon="19.983877725899219512939453125">
        <ele>1222</ele>
        <time>2026-06-15T15:26:33.000Z</time>
        <extensions>
          <ns3:TrackPointExtension>
            <ns3:atemp>20.0</ns3:atemp>
          </ns3:TrackPointExtension>
        </extensions>
      </trkpt>
      <trkpt lat="42.5993040762841701507568359375" lon="19.983877725899219512939453125">
        <ele>1222</ele>
        <time>2026-06-15T15:26:34.000Z</time>
        <extensions>
          <ns3:TrackPointExtension>
            <ns3:atemp>20.0</ns3:atemp>
          </ns3:TrackPointExtension>
        </extensions>
      </trkpt>
      <trkpt lat="42.5993040762841701507568359375" lon="19.983877725899219512939453125">
        <ele>1222</ele>
        <time>2026-06-15T15:26:35.000Z</time>
        <extensions>
          <ns3:TrackPointExtension>
            <ns3:atemp>20.0</ns3:atemp>
          </ns3:TrackPointExtension>
        </extensions>
      </trkpt>
      <trkpt lat="42.5993040762841701507568359375" lon="19.983877725899219512939453125">
        <ele>1222</ele>
        <time>2026-06-15T15:26:36.000Z</time>
        <extensions>
          <ns3:TrackPointExtension>
            <ns3:atemp>20.0</ns3:atemp>
          </ns3:TrackPointExtension>
        </extensions>
      </trkpt>
      <trkpt lat="42.5993040762841701507568359375" lon="19.983877725899219512939453125">
        <ele>1222</ele>
        <time>2026-06-15T15:26:37.000Z</time>
        <extensions>
          <ns3:TrackPointExtension>
            <ns3:atemp>20.0</ns3:atemp>
          </ns3:TrackPointExtension>
        </extensions>
      </trkpt>
      <trkpt lat="42.5993040762841701507568359375" lon="19.983877725899219512939453125">
        <ele>1222</ele>
        <time>2026-06-15T15:26:38.000Z</time>
        <extensions>
          <ns3:TrackPointExtension>
            <ns3:atemp>20.0</ns3:atemp>
          </ns3:TrackPointExtension>
        </extensions>
      </trkpt>
      <trkpt lat="42.5993040762841701507568359375" lon="19.983877725899219512939453125">
        <ele>1222</ele>
        <time>2026-06-15T15:26:39.000Z</time>
        <extensions>
          <ns3:TrackPointExtension>
            <ns3:atemp>20.0</ns3:atemp>
          </ns3:TrackPointExtension>
        </extensions>
      </trkpt>
      <trkpt lat="42.5993040762841701507568359375" lon="19.983877725899219512939453125">
        <ele>1222</ele>
        <time>2026-06-15T15:26:40.000Z</time>
        <extensions>
          <ns3:TrackPointExtension>
            <ns3:atemp>20.0</ns3:atemp>
          </ns3:TrackPointExtension>
        </extensions>
      </trkpt>
      <trkpt lat="42.5993040762841701507568359375" lon="19.983877725899219512939453125">
        <ele>1222</ele>
        <time>2026-06-15T15:26:41.000Z</time>
        <extensions>
          <ns3:TrackPointExtension>
            <ns3:atemp>20.0</ns3:atemp>
          </ns3:TrackPointExtension>
        </extensions>
      </trkpt>
      <trkpt lat="42.5993040762841701507568359375" lon="19.983877725899219512939453125">
        <ele>1222</ele>
        <time>2026-06-15T15:26:42.000Z</time>
        <extensions>
          <ns3:TrackPointExtension>
            <ns3:atemp>20.0</ns3:atemp>
          </ns3:TrackPointExtension>
        </extensions>
      </trkpt>
      <trkpt lat="42.5993040762841701507568359375" lon="19.983877725899219512939453125">
        <ele>1222</ele>
        <time>2026-06-15T15:26:43.000Z</time>
        <extensions>
          <ns3:TrackPointExtension>
            <ns3:atemp>20.0</ns3:atemp>
          </ns3:TrackPointExtension>
        </extensions>
      </trkpt>
      <trkpt lat="42.5993040762841701507568359375" lon="19.983877725899219512939453125">
        <ele>1222</ele>
        <time>2026-06-15T15:26:44.000Z</time>
        <extensions>
          <ns3:TrackPointExtension>
            <ns3:atemp>20.0</ns3:atemp>
          </ns3:TrackPointExtension>
        </extensions>
      </trkpt>
      <trkpt lat="42.5993040762841701507568359375" lon="19.983877725899219512939453125">
        <ele>1222</ele>
        <time>2026-06-15T15:26:45.000Z</time>
        <extensions>
          <ns3:TrackPointExtension>
            <ns3:atemp>20.0</ns3:atemp>
          </ns3:TrackPointExtension>
        </extensions>
      </trkpt>
      <trkpt lat="42.5993040762841701507568359375" lon="19.983877725899219512939453125">
        <ele>1222</ele>
        <time>2026-06-15T15:26:46.000Z</time>
        <extensions>
          <ns3:TrackPointExtension>
            <ns3:atemp>20.0</ns3:atemp>
          </ns3:TrackPointExtension>
        </extensions>
      </trkpt>
      <trkpt lat="42.5993040762841701507568359375" lon="19.983877725899219512939453125">
        <ele>1222</ele>
        <time>2026-06-15T15:26:47.000Z</time>
        <extensions>
          <ns3:TrackPointExtension>
            <ns3:atemp>20.0</ns3:atemp>
          </ns3:TrackPointExtension>
        </extensions>
      </trkpt>
      <trkpt lat="42.5993040762841701507568359375" lon="19.983877725899219512939453125">
        <ele>1222</ele>
        <time>2026-06-15T15:26:48.000Z</time>
        <extensions>
          <ns3:TrackPointExtension>
            <ns3:atemp>20.0</ns3:atemp>
          </ns3:TrackPointExtension>
        </extensions>
      </trkpt>
      <trkpt lat="42.5993040762841701507568359375" lon="19.983877725899219512939453125">
        <ele>1222</ele>
        <time>2026-06-15T15:26:49.000Z</time>
        <extensions>
          <ns3:TrackPointExtension>
            <ns3:atemp>20.0</ns3:atemp>
          </ns3:TrackPointExtension>
        </extensions>
      </trkpt>
      <trkpt lat="42.5993040762841701507568359375" lon="19.983877725899219512939453125">
        <ele>1222</ele>
        <time>2026-06-15T15:26:50.000Z</time>
        <extensions>
          <ns3:TrackPointExtension>
            <ns3:atemp>20.0</ns3:atemp>
          </ns3:TrackPointExtension>
        </extensions>
      </trkpt>
      <trkpt lat="42.5993040762841701507568359375" lon="19.983877725899219512939453125">
        <ele>1222</ele>
        <time>2026-06-15T15:26:51.000Z</time>
        <extensions>
          <ns3:TrackPointExtension>
            <ns3:atemp>20.0</ns3:atemp>
          </ns3:TrackPointExtension>
        </extensions>
      </trkpt>
      <trkpt lat="42.5993040762841701507568359375" lon="19.983877725899219512939453125">
        <ele>1222</ele>
        <time>2026-06-15T15:26:52.000Z</time>
        <extensions>
          <ns3:TrackPointExtension>
            <ns3:atemp>20.0</ns3:atemp>
          </ns3:TrackPointExtension>
        </extensions>
      </trkpt>
      <trkpt lat="42.5993040762841701507568359375" lon="19.983877725899219512939453125">
        <ele>1222</ele>
        <time>2026-06-15T15:26:53.000Z</time>
        <extensions>
          <ns3:TrackPointExtension>
            <ns3:atemp>20.0</ns3:atemp>
          </ns3:TrackPointExtension>
        </extensions>
      </trkpt>
      <trkpt lat="42.5993040762841701507568359375" lon="19.983877725899219512939453125">
        <ele>1222</ele>
        <time>2026-06-15T15:26:54.000Z</time>
        <extensions>
          <ns3:TrackPointExtension>
            <ns3:atemp>20.0</ns3:atemp>
          </ns3:TrackPointExtension>
        </extensions>
      </trkpt>
      <trkpt lat="42.5993040762841701507568359375" lon="19.983877725899219512939453125">
        <ele>1222</ele>
        <time>2026-06-15T15:26:55.000Z</time>
        <extensions>
          <ns3:TrackPointExtension>
            <ns3:atemp>20.0</ns3:atemp>
          </ns3:TrackPointExtension>
        </extensions>
      </trkpt>
      <trkpt lat="42.5993040762841701507568359375" lon="19.983877725899219512939453125">
        <ele>1222</ele>
        <time>2026-06-15T15:26:56.000Z</time>
        <extensions>
          <ns3:TrackPointExtension>
            <ns3:atemp>20.0</ns3:atemp>
          </ns3:TrackPointExtension>
        </extensions>
      </trkpt>
      <trkpt lat="42.5993040762841701507568359375" lon="19.983877725899219512939453125">
        <ele>1222</ele>
        <time>2026-06-15T15:26:57.000Z</time>
        <extensions>
          <ns3:TrackPointExtension>
            <ns3:atemp>20.0</ns3:atemp>
          </ns3:TrackPointExtension>
        </extensions>
      </trkpt>
      <trkpt lat="42.5993040762841701507568359375" lon="19.983877725899219512939453125">
        <ele>1222</ele>
        <time>2026-06-15T15:26:58.000Z</time>
        <extensions>
          <ns3:TrackPointExtension>
            <ns3:atemp>20.0</ns3:atemp>
          </ns3:TrackPointExtension>
        </extensions>
      </trkpt>
      <trkpt lat="42.5993040762841701507568359375" lon="19.983877725899219512939453125">
        <ele>1222</ele>
        <time>2026-06-15T15:26:59.000Z</time>
        <extensions>
          <ns3:TrackPointExtension>
            <ns3:atemp>20.0</ns3:atemp>
          </ns3:TrackPointExtension>
        </extensions>
      </trkpt>
      <trkpt lat="42.5993040762841701507568359375" lon="19.983877725899219512939453125">
        <ele>1222</ele>
        <time>2026-06-15T15:27:00.000Z</time>
        <extensions>
          <ns3:TrackPointExtension>
            <ns3:atemp>20.0</ns3:atemp>
          </ns3:TrackPointExtension>
        </extensions>
      </trkpt>
      <trkpt lat="42.5993040762841701507568359375" lon="19.983877725899219512939453125">
        <ele>1222</ele>
        <time>2026-06-15T15:27:01.000Z</time>
        <extensions>
          <ns3:TrackPointExtension>
            <ns3:atemp>20.0</ns3:atemp>
          </ns3:TrackPointExtension>
        </extensions>
      </trkpt>
      <trkpt lat="42.5993040762841701507568359375" lon="19.983877725899219512939453125">
        <ele>1222</ele>
        <time>2026-06-15T15:27:02.000Z</time>
        <extensions>
          <ns3:TrackPointExtension>
            <ns3:atemp>20.0</ns3:atemp>
          </ns3:TrackPointExtension>
        </extensions>
      </trkpt>
      <trkpt lat="42.5993040762841701507568359375" lon="19.983877725899219512939453125">
        <ele>1222</ele>
        <time>2026-06-15T15:27:03.000Z</time>
        <extensions>
          <ns3:TrackPointExtension>
            <ns3:atemp>20.0</ns3:atemp>
          </ns3:TrackPointExtension>
        </extensions>
      </trkpt>
      <trkpt lat="42.5993040762841701507568359375" lon="19.983877725899219512939453125">
        <ele>1222</ele>
        <time>2026-06-15T15:27:04.000Z</time>
        <extensions>
          <ns3:TrackPointExtension>
            <ns3:atemp>20.0</ns3:atemp>
          </ns3:TrackPointExtension>
        </extensions>
      </trkpt>
      <trkpt lat="42.5993040762841701507568359375" lon="19.983877725899219512939453125">
        <ele>1222</ele>
        <time>2026-06-15T15:27:05.000Z</time>
        <extensions>
          <ns3:TrackPointExtension>
            <ns3:atemp>20.0</ns3:atemp>
          </ns3:TrackPointExtension>
        </extensions>
      </trkpt>
      <trkpt lat="42.5993040762841701507568359375" lon="19.983877725899219512939453125">
        <ele>1222</ele>
        <time>2026-06-15T15:27:06.000Z</time>
        <extensions>
          <ns3:TrackPointExtension>
            <ns3:atemp>20.0</ns3:atemp>
          </ns3:TrackPointExtension>
        </extensions>
      </trkpt>
      <trkpt lat="42.5993040762841701507568359375" lon="19.983877725899219512939453125">
        <ele>1222</ele>
        <time>2026-06-15T15:27:07.000Z</time>
        <extensions>
          <ns3:TrackPointExtension>
            <ns3:atemp>20.0</ns3:atemp>
          </ns3:TrackPointExtension>
        </extensions>
      </trkpt>
      <trkpt lat="42.5993040762841701507568359375" lon="19.983877725899219512939453125">
        <ele>1222</ele>
        <time>2026-06-15T15:27:08.000Z</time>
        <extensions>
          <ns3:TrackPointExtension>
            <ns3:atemp>20.0</ns3:atemp>
          </ns3:TrackPointExtension>
        </extensions>
      </trkpt>
      <trkpt lat="42.5993040762841701507568359375" lon="19.983877725899219512939453125">
        <ele>1222</ele>
        <time>2026-06-15T15:27:09.000Z</time>
        <extensions>
          <ns3:TrackPointExtension>
            <ns3:atemp>20.0</ns3:atemp>
          </ns3:TrackPointExtension>
        </extensions>
      </trkpt>
      <trkpt lat="42.5993040762841701507568359375" lon="19.983877725899219512939453125">
        <ele>1222</ele>
        <time>2026-06-15T15:27:10.000Z</time>
        <extensions>
          <ns3:TrackPointExtension>
            <ns3:atemp>20.0</ns3:atemp>
          </ns3:TrackPointExtension>
        </extensions>
      </trkpt>
      <trkpt lat="42.5993040762841701507568359375" lon="19.983877725899219512939453125">
        <ele>1222</ele>
        <time>2026-06-15T15:27:11.000Z</time>
        <extensions>
          <ns3:TrackPointExtension>
            <ns3:atemp>20.0</ns3:atemp>
          </ns3:TrackPointExtension>
        </extensions>
      </trkpt>
      <trkpt lat="42.5993040762841701507568359375" lon="19.983877725899219512939453125">
        <ele>1222</ele>
        <time>2026-06-15T15:27:12.000Z</time>
        <extensions>
          <ns3:TrackPointExtension>
            <ns3:atemp>20.0</ns3:atemp>
          </ns3:TrackPointExtension>
        </extensions>
      </trkpt>
      <trkpt lat="42.5993040762841701507568359375" lon="19.983877725899219512939453125">
        <ele>1222</ele>
        <time>2026-06-15T15:27:13.000Z</time>
        <extensions>
          <ns3:TrackPointExtension>
            <ns3:atemp>20.0</ns3:atemp>
          </ns3:TrackPointExtension>
        </extensions>
      </trkpt>
      <trkpt lat="42.5993040762841701507568359375" lon="19.983877725899219512939453125">
        <ele>1222</ele>
        <time>2026-06-15T15:27:14.000Z</time>
        <extensions>
          <ns3:TrackPointExtension>
            <ns3:atemp>20.0</ns3:atemp>
          </ns3:TrackPointExtension>
        </extensions>
      </trkpt>
      <trkpt lat="42.5993040762841701507568359375" lon="19.983877725899219512939453125">
        <ele>1222</ele>
        <time>2026-06-15T15:27:15.000Z</time>
        <extensions>
          <ns3:TrackPointExtension>
            <ns3:atemp>20.0</ns3:atemp>
          </ns3:TrackPointExtension>
        </extensions>
      </trkpt>
      <trkpt lat="42.5993040762841701507568359375" lon="19.983877725899219512939453125">
        <ele>1222</ele>
        <time>2026-06-15T15:27:16.000Z</time>
        <extensions>
          <ns3:TrackPointExtension>
            <ns3:atemp>20.0</ns3:atemp>
          </ns3:TrackPointExtension>
        </extensions>
      </trkpt>
      <trkpt lat="42.5993040762841701507568359375" lon="19.983877725899219512939453125">
        <ele>1222</ele>
        <time>2026-06-15T15:27:17.000Z</time>
        <extensions>
          <ns3:TrackPointExtension>
            <ns3:atemp>20.0</ns3:atemp>
          </ns3:TrackPointExtension>
        </extensions>
      </trkpt>
      <trkpt lat="42.5993040762841701507568359375" lon="19.983877725899219512939453125">
        <ele>1222</ele>
        <time>2026-06-15T15:27:18.000Z</time>
        <extensions>
          <ns3:TrackPointExtension>
            <ns3:atemp>20.0</ns3:atemp>
          </ns3:TrackPointExtension>
        </extensions>
      </trkpt>
      <trkpt lat="42.5993040762841701507568359375" lon="19.983877725899219512939453125">
        <ele>1222</ele>
        <time>2026-06-15T15:27:19.000Z</time>
        <extensions>
          <ns3:TrackPointExtension>
            <ns3:atemp>20.0</ns3:atemp>
          </ns3:TrackPointExtension>
        </extensions>
      </trkpt>
      <trkpt lat="42.5993040762841701507568359375" lon="19.983877725899219512939453125">
        <ele>1222</ele>
        <time>2026-06-15T15:27:20.000Z</time>
        <extensions>
          <ns3:TrackPointExtension>
            <ns3:atemp>20.0</ns3:atemp>
          </ns3:TrackPointExtension>
        </extensions>
      </trkpt>
      <trkpt lat="42.5993040762841701507568359375" lon="19.983877725899219512939453125">
        <ele>1222</ele>
        <time>2026-06-15T15:27:21.000Z</time>
        <extensions>
          <ns3:TrackPointExtension>
            <ns3:atemp>20.0</ns3:atemp>
          </ns3:TrackPointExtension>
        </extensions>
      </trkpt>
      <trkpt lat="42.5993040762841701507568359375" lon="19.983877725899219512939453125">
        <ele>1222</ele>
        <time>2026-06-15T15:27:22.000Z</time>
        <extensions>
          <ns3:TrackPointExtension>
            <ns3:atemp>20.0</ns3:atemp>
          </ns3:TrackPointExtension>
        </extensions>
      </trkpt>
      <trkpt lat="42.5993040762841701507568359375" lon="19.983877725899219512939453125">
        <ele>1222</ele>
        <time>2026-06-15T15:27:23.000Z</time>
        <extensions>
          <ns3:TrackPointExtension>
            <ns3:atemp>20.0</ns3:atemp>
          </ns3:TrackPointExtension>
        </extensions>
      </trkpt>
      <trkpt lat="42.5993040762841701507568359375" lon="19.983877725899219512939453125">
        <ele>1222</ele>
        <time>2026-06-15T15:27:24.000Z</time>
        <extensions>
          <ns3:TrackPointExtension>
            <ns3:atemp>20.0</ns3:atemp>
          </ns3:TrackPointExtension>
        </extensions>
      </trkpt>
      <trkpt lat="42.5993040762841701507568359375" lon="19.983877725899219512939453125">
        <ele>1222</ele>
        <time>2026-06-15T15:27:25.000Z</time>
        <extensions>
          <ns3:TrackPointExtension>
            <ns3:atemp>20.0</ns3:atemp>
          </ns3:TrackPointExtension>
        </extensions>
      </trkpt>
      <trkpt lat="42.5993040762841701507568359375" lon="19.983877725899219512939453125">
        <ele>1222</ele>
        <time>2026-06-15T15:27:26.000Z</time>
        <extensions>
          <ns3:TrackPointExtension>
            <ns3:atemp>20.0</ns3:atemp>
          </ns3:TrackPointExtension>
        </extensions>
      </trkpt>
      <trkpt lat="42.5993040762841701507568359375" lon="19.983877725899219512939453125">
        <ele>1222</ele>
        <time>2026-06-15T15:27:27.000Z</time>
        <extensions>
          <ns3:TrackPointExtension>
            <ns3:atemp>20.0</ns3:atemp>
          </ns3:TrackPointExtension>
        </extensions>
      </trkpt>
      <trkpt lat="42.5993040762841701507568359375" lon="19.983877725899219512939453125">
        <ele>1222</ele>
        <time>2026-06-15T15:27:28.000Z</time>
        <extensions>
          <ns3:TrackPointExtension>
            <ns3:atemp>20.0</ns3:atemp>
          </ns3:TrackPointExtension>
        </extensions>
      </trkpt>
      <trkpt lat="42.5993040762841701507568359375" lon="19.983877725899219512939453125">
        <ele>1222</ele>
        <time>2026-06-15T15:27:29.000Z</time>
        <extensions>
          <ns3:TrackPointExtension>
            <ns3:atemp>20.0</ns3:atemp>
          </ns3:TrackPointExtension>
        </extensions>
      </trkpt>
      <trkpt lat="42.5993040762841701507568359375" lon="19.983877725899219512939453125">
        <ele>1222</ele>
        <time>2026-06-15T15:27:30.000Z</time>
        <extensions>
          <ns3:TrackPointExtension>
            <ns3:atemp>20.0</ns3:atemp>
          </ns3:TrackPointExtension>
        </extensions>
      </trkpt>
      <trkpt lat="42.5993040762841701507568359375" lon="19.983877725899219512939453125">
        <ele>1222</ele>
        <time>2026-06-15T15:27:31.000Z</time>
        <extensions>
          <ns3:TrackPointExtension>
            <ns3:atemp>20.0</ns3:atemp>
          </ns3:TrackPointExtension>
        </extensions>
      </trkpt>
      <trkpt lat="42.5993040762841701507568359375" lon="19.983877725899219512939453125">
        <ele>1222</ele>
        <time>2026-06-15T15:27:32.000Z</time>
        <extensions>
          <ns3:TrackPointExtension>
            <ns3:atemp>20.0</ns3:atemp>
          </ns3:TrackPointExtension>
        </extensions>
      </trkpt>
      <trkpt lat="42.5993040762841701507568359375" lon="19.983877725899219512939453125">
        <ele>1222</ele>
        <time>2026-06-15T15:27:33.000Z</time>
        <extensions>
          <ns3:TrackPointExtension>
            <ns3:atemp>20.0</ns3:atemp>
          </ns3:TrackPointExtension>
        </extensions>
      </trkpt>
      <trkpt lat="42.5993040762841701507568359375" lon="19.983877725899219512939453125">
        <ele>1222</ele>
        <time>2026-06-15T15:27:34.000Z</time>
        <extensions>
          <ns3:TrackPointExtension>
            <ns3:atemp>20.0</ns3:atemp>
          </ns3:TrackPointExtension>
        </extensions>
      </trkpt>
      <trkpt lat="42.5993040762841701507568359375" lon="19.983877725899219512939453125">
        <ele>1222</ele>
        <time>2026-06-15T15:27:35.000Z</time>
        <extensions>
          <ns3:TrackPointExtension>
            <ns3:atemp>20.0</ns3:atemp>
          </ns3:TrackPointExtension>
        </extensions>
      </trkpt>
      <trkpt lat="42.5993040762841701507568359375" lon="19.983877725899219512939453125">
        <ele>1222</ele>
        <time>2026-06-15T15:27:36.000Z</time>
        <extensions>
          <ns3:TrackPointExtension>
            <ns3:atemp>20.0</ns3:atemp>
          </ns3:TrackPointExtension>
        </extensions>
      </trkpt>
      <trkpt lat="42.5993040762841701507568359375" lon="19.983877725899219512939453125">
        <ele>1222</ele>
        <time>2026-06-15T15:27:37.000Z</time>
        <extensions>
          <ns3:TrackPointExtension>
            <ns3:atemp>20.0</ns3:atemp>
          </ns3:TrackPointExtension>
        </extensions>
      </trkpt>
      <trkpt lat="42.5993040762841701507568359375" lon="19.983877725899219512939453125">
        <ele>1222</ele>
        <time>2026-06-15T15:27:38.000Z</time>
        <extensions>
          <ns3:TrackPointExtension>
            <ns3:atemp>20.0</ns3:atemp>
          </ns3:TrackPointExtension>
        </extensions>
      </trkpt>
      <trkpt lat="42.5993040762841701507568359375" lon="19.983877725899219512939453125">
        <ele>1222</ele>
        <time>2026-06-15T15:27:39.000Z</time>
        <extensions>
          <ns3:TrackPointExtension>
            <ns3:atemp>20.0</ns3:atemp>
          </ns3:TrackPointExtension>
        </extensions>
      </trkpt>
      <trkpt lat="42.5993040762841701507568359375" lon="19.983877725899219512939453125">
        <ele>1222</ele>
        <time>2026-06-15T15:27:40.000Z</time>
        <extensions>
          <ns3:TrackPointExtension>
            <ns3:atemp>20.0</ns3:atemp>
          </ns3:TrackPointExtension>
        </extensions>
      </trkpt>
      <trkpt lat="42.5993040762841701507568359375" lon="19.983877725899219512939453125">
        <ele>1222</ele>
        <time>2026-06-15T15:27:41.000Z</time>
        <extensions>
          <ns3:TrackPointExtension>
            <ns3:atemp>20.0</ns3:atemp>
          </ns3:TrackPointExtension>
        </extensions>
      </trkpt>
      <trkpt lat="42.5993040762841701507568359375" lon="19.983877725899219512939453125">
        <ele>1222</ele>
        <time>2026-06-15T15:27:42.000Z</time>
        <extensions>
          <ns3:TrackPointExtension>
            <ns3:atemp>20.0</ns3:atemp>
          </ns3:TrackPointExtension>
        </extensions>
      </trkpt>
      <trkpt lat="42.5993040762841701507568359375" lon="19.983877725899219512939453125">
        <ele>1222</ele>
        <time>2026-06-15T15:27:43.000Z</time>
        <extensions>
          <ns3:TrackPointExtension>
            <ns3:atemp>20.0</ns3:atemp>
          </ns3:TrackPointExtension>
        </extensions>
      </trkpt>
      <trkpt lat="42.5993040762841701507568359375" lon="19.983877725899219512939453125">
        <ele>1222</ele>
        <time>2026-06-15T15:27:44.000Z</time>
        <extensions>
          <ns3:TrackPointExtension>
            <ns3:atemp>20.0</ns3:atemp>
          </ns3:TrackPointExtension>
        </extensions>
      </trkpt>
      <trkpt lat="42.5993040762841701507568359375" lon="19.983877725899219512939453125">
        <ele>1222</ele>
        <time>2026-06-15T15:27:45.000Z</time>
        <extensions>
          <ns3:TrackPointExtension>
            <ns3:atemp>20.0</ns3:atemp>
          </ns3:TrackPointExtension>
        </extensions>
      </trkpt>
      <trkpt lat="42.5993040762841701507568359375" lon="19.983877725899219512939453125">
        <ele>1222</ele>
        <time>2026-06-15T15:27:46.000Z</time>
        <extensions>
          <ns3:TrackPointExtension>
            <ns3:atemp>20.0</ns3:atemp>
          </ns3:TrackPointExtension>
        </extensions>
      </trkpt>
      <trkpt lat="42.5993040762841701507568359375" lon="19.983877725899219512939453125">
        <ele>1222</ele>
        <time>2026-06-15T15:27:47.000Z</time>
        <extensions>
          <ns3:TrackPointExtension>
            <ns3:atemp>20.0</ns3:atemp>
          </ns3:TrackPointExtension>
        </extensions>
      </trkpt>
      <trkpt lat="42.5993040762841701507568359375" lon="19.983877725899219512939453125">
        <ele>1222</ele>
        <time>2026-06-15T15:27:48.000Z</time>
        <extensions>
          <ns3:TrackPointExtension>
            <ns3:atemp>20.0</ns3:atemp>
          </ns3:TrackPointExtension>
        </extensions>
      </trkpt>
      <trkpt lat="42.5993040762841701507568359375" lon="19.983877725899219512939453125">
        <ele>1222</ele>
        <time>2026-06-15T15:27:49.000Z</time>
        <extensions>
          <ns3:TrackPointExtension>
            <ns3:atemp>20.0</ns3:atemp>
          </ns3:TrackPointExtension>
        </extensions>
      </trkpt>
      <trkpt lat="42.5993040762841701507568359375" lon="19.983877725899219512939453125">
        <ele>1222</ele>
        <time>2026-06-15T15:27:50.000Z</time>
        <extensions>
          <ns3:TrackPointExtension>
            <ns3:atemp>20.0</ns3:atemp>
          </ns3:TrackPointExtension>
        </extensions>
      </trkpt>
      <trkpt lat="42.5993040762841701507568359375" lon="19.983877725899219512939453125">
        <ele>1222</ele>
        <time>2026-06-15T15:27:51.000Z</time>
        <extensions>
          <ns3:TrackPointExtension>
            <ns3:atemp>20.0</ns3:atemp>
          </ns3:TrackPointExtension>
        </extensions>
      </trkpt>
      <trkpt lat="42.5993040762841701507568359375" lon="19.983877725899219512939453125">
        <ele>1222</ele>
        <time>2026-06-15T15:27:52.000Z</time>
        <extensions>
          <ns3:TrackPointExtension>
            <ns3:atemp>20.0</ns3:atemp>
          </ns3:TrackPointExtension>
        </extensions>
      </trkpt>
      <trkpt lat="42.5993040762841701507568359375" lon="19.983877725899219512939453125">
        <ele>1222</ele>
        <time>2026-06-15T15:27:53.000Z</time>
        <extensions>
          <ns3:TrackPointExtension>
            <ns3:atemp>20.0</ns3:atemp>
          </ns3:TrackPointExtension>
        </extensions>
      </trkpt>
      <trkpt lat="42.5993040762841701507568359375" lon="19.983877725899219512939453125">
        <ele>1222</ele>
        <time>2026-06-15T15:27:54.000Z</time>
        <extensions>
          <ns3:TrackPointExtension>
            <ns3:atemp>20.0</ns3:atemp>
          </ns3:TrackPointExtension>
        </extensions>
      </trkpt>
      <trkpt lat="42.5993040762841701507568359375" lon="19.983877725899219512939453125">
        <ele>1222</ele>
        <time>2026-06-15T15:27:55.000Z</time>
        <extensions>
          <ns3:TrackPointExtension>
            <ns3:atemp>20.0</ns3:atemp>
          </ns3:TrackPointExtension>
        </extensions>
      </trkpt>
      <trkpt lat="42.5993040762841701507568359375" lon="19.983877725899219512939453125">
        <ele>1222</ele>
        <time>2026-06-15T15:27:56.000Z</time>
        <extensions>
          <ns3:TrackPointExtension>
            <ns3:atemp>20.0</ns3:atemp>
          </ns3:TrackPointExtension>
        </extensions>
      </trkpt>
      <trkpt lat="42.5993040762841701507568359375" lon="19.983877725899219512939453125">
        <ele>1222</ele>
        <time>2026-06-15T15:27:57.000Z</time>
        <extensions>
          <ns3:TrackPointExtension>
            <ns3:atemp>20.0</ns3:atemp>
          </ns3:TrackPointExtension>
        </extensions>
      </trkpt>
      <trkpt lat="42.5993040762841701507568359375" lon="19.983877725899219512939453125">
        <ele>1222</ele>
        <time>2026-06-15T15:27:58.000Z</time>
        <extensions>
          <ns3:TrackPointExtension>
            <ns3:atemp>20.0</ns3:atemp>
          </ns3:TrackPointExtension>
        </extensions>
      </trkpt>
      <trkpt lat="42.5993040762841701507568359375" lon="19.983877725899219512939453125">
        <ele>1222</ele>
        <time>2026-06-15T15:27:59.000Z</time>
        <extensions>
          <ns3:TrackPointExtension>
            <ns3:atemp>20.0</ns3:atemp>
          </ns3:TrackPointExtension>
        </extensions>
      </trkpt>
      <trkpt lat="42.5993040762841701507568359375" lon="19.983877725899219512939453125">
        <ele>1222</ele>
        <time>2026-06-15T15:28:00.000Z</time>
        <extensions>
          <ns3:TrackPointExtension>
            <ns3:atemp>20.0</ns3:atemp>
          </ns3:TrackPointExtension>
        </extensions>
      </trkpt>
      <trkpt lat="42.5993040762841701507568359375" lon="19.983877725899219512939453125">
        <ele>1222</ele>
        <time>2026-06-15T15:28:01.000Z</time>
        <extensions>
          <ns3:TrackPointExtension>
            <ns3:atemp>20.0</ns3:atemp>
          </ns3:TrackPointExtension>
        </extensions>
      </trkpt>
      <trkpt lat="42.5993040762841701507568359375" lon="19.983877725899219512939453125">
        <ele>1222</ele>
        <time>2026-06-15T15:28:02.000Z</time>
        <extensions>
          <ns3:TrackPointExtension>
            <ns3:atemp>20.0</ns3:atemp>
          </ns3:TrackPointExtension>
        </extensions>
      </trkpt>
      <trkpt lat="42.5993040762841701507568359375" lon="19.983877725899219512939453125">
        <ele>1222</ele>
        <time>2026-06-15T15:28:03.000Z</time>
        <extensions>
          <ns3:TrackPointExtension>
            <ns3:atemp>20.0</ns3:atemp>
          </ns3:TrackPointExtension>
        </extensions>
      </trkpt>
      <trkpt lat="42.5993040762841701507568359375" lon="19.983877725899219512939453125">
        <ele>1222</ele>
        <time>2026-06-15T15:28:04.000Z</time>
        <extensions>
          <ns3:TrackPointExtension>
            <ns3:atemp>20.0</ns3:atemp>
          </ns3:TrackPointExtension>
        </extensions>
      </trkpt>
      <trkpt lat="42.5993040762841701507568359375" lon="19.983877725899219512939453125">
        <ele>1222</ele>
        <time>2026-06-15T15:28:05.000Z</time>
        <extensions>
          <ns3:TrackPointExtension>
            <ns3:atemp>20.0</ns3:atemp>
          </ns3:TrackPointExtension>
        </extensions>
      </trkpt>
      <trkpt lat="42.5993040762841701507568359375" lon="19.983877725899219512939453125">
        <ele>1222</ele>
        <time>2026-06-15T15:28:06.000Z</time>
        <extensions>
          <ns3:TrackPointExtension>
            <ns3:atemp>20.0</ns3:atemp>
          </ns3:TrackPointExtension>
        </extensions>
      </trkpt>
      <trkpt lat="42.5993040762841701507568359375" lon="19.983877725899219512939453125">
        <ele>1222</ele>
        <time>2026-06-15T15:28:07.000Z</time>
        <extensions>
          <ns3:TrackPointExtension>
            <ns3:atemp>20.0</ns3:atemp>
          </ns3:TrackPointExtension>
        </extensions>
      </trkpt>
      <trkpt lat="42.5993040762841701507568359375" lon="19.983877725899219512939453125">
        <ele>1222</ele>
        <time>2026-06-15T15:28:08.000Z</time>
        <extensions>
          <ns3:TrackPointExtension>
            <ns3:atemp>20.0</ns3:atemp>
          </ns3:TrackPointExtension>
        </extensions>
      </trkpt>
      <trkpt lat="42.5993040762841701507568359375" lon="19.983877725899219512939453125">
        <ele>1222</ele>
        <time>2026-06-15T15:28:09.000Z</time>
        <extensions>
          <ns3:TrackPointExtension>
            <ns3:atemp>20.0</ns3:atemp>
          </ns3:TrackPointExtension>
        </extensions>
      </trkpt>
      <trkpt lat="42.5993040762841701507568359375" lon="19.983877725899219512939453125">
        <ele>1222</ele>
        <time>2026-06-15T15:28:10.000Z</time>
        <extensions>
          <ns3:TrackPointExtension>
            <ns3:atemp>20.0</ns3:atemp>
          </ns3:TrackPointExtension>
        </extensions>
      </trkpt>
      <trkpt lat="42.5993040762841701507568359375" lon="19.983877725899219512939453125">
        <ele>1222</ele>
        <time>2026-06-15T15:28:11.000Z</time>
        <extensions>
          <ns3:TrackPointExtension>
            <ns3:atemp>20.0</ns3:atemp>
          </ns3:TrackPointExtension>
        </extensions>
      </trkpt>
      <trkpt lat="42.5993040762841701507568359375" lon="19.983877725899219512939453125">
        <ele>1222</ele>
        <time>2026-06-15T15:28:12.000Z</time>
        <extensions>
          <ns3:TrackPointExtension>
            <ns3:atemp>20.0</ns3:atemp>
          </ns3:TrackPointExtension>
        </extensions>
      </trkpt>
      <trkpt lat="42.5993040762841701507568359375" lon="19.983877725899219512939453125">
        <ele>1222</ele>
        <time>2026-06-15T15:28:13.000Z</time>
        <extensions>
          <ns3:TrackPointExtension>
            <ns3:atemp>20.0</ns3:atemp>
          </ns3:TrackPointExtension>
        </extensions>
      </trkpt>
      <trkpt lat="42.5993040762841701507568359375" lon="19.983877725899219512939453125">
        <ele>1222</ele>
        <time>2026-06-15T15:28:14.000Z</time>
        <extensions>
          <ns3:TrackPointExtension>
            <ns3:atemp>20.0</ns3:atemp>
          </ns3:TrackPointExtension>
        </extensions>
      </trkpt>
      <trkpt lat="42.5993040762841701507568359375" lon="19.983877725899219512939453125">
        <ele>1222</ele>
        <time>2026-06-15T15:28:15.000Z</time>
        <extensions>
          <ns3:TrackPointExtension>
            <ns3:atemp>20.0</ns3:atemp>
          </ns3:TrackPointExtension>
        </extensions>
      </trkpt>
      <trkpt lat="42.5993040762841701507568359375" lon="19.983877725899219512939453125">
        <ele>1222</ele>
        <time>2026-06-15T15:28:16.000Z</time>
        <extensions>
          <ns3:TrackPointExtension>
            <ns3:atemp>20.0</ns3:atemp>
          </ns3:TrackPointExtension>
        </extensions>
      </trkpt>
      <trkpt lat="42.5993040762841701507568359375" lon="19.983877725899219512939453125">
        <ele>1222</ele>
        <time>2026-06-15T15:28:17.000Z</time>
        <extensions>
          <ns3:TrackPointExtension>
            <ns3:atemp>20.0</ns3:atemp>
          </ns3:TrackPointExtension>
        </extensions>
      </trkpt>
      <trkpt lat="42.5993040762841701507568359375" lon="19.983877725899219512939453125">
        <ele>1222</ele>
        <time>2026-06-15T15:28:18.000Z</time>
        <extensions>
          <ns3:TrackPointExtension>
            <ns3:atemp>20.0</ns3:atemp>
          </ns3:TrackPointExtension>
        </extensions>
      </trkpt>
      <trkpt lat="42.5993040762841701507568359375" lon="19.983877725899219512939453125">
        <ele>1222</ele>
        <time>2026-06-15T15:28:19.000Z</time>
        <extensions>
          <ns3:TrackPointExtension>
            <ns3:atemp>20.0</ns3:atemp>
          </ns3:TrackPointExtension>
        </extensions>
      </trkpt>
      <trkpt lat="42.5993040762841701507568359375" lon="19.983877725899219512939453125">
        <ele>1222</ele>
        <time>2026-06-15T15:28:20.000Z</time>
        <extensions>
          <ns3:TrackPointExtension>
            <ns3:atemp>20.0</ns3:atemp>
          </ns3:TrackPointExtension>
        </extensions>
      </trkpt>
      <trkpt lat="42.5993040762841701507568359375" lon="19.983877725899219512939453125">
        <ele>1222</ele>
        <time>2026-06-15T15:28:21.000Z</time>
        <extensions>
          <ns3:TrackPointExtension>
            <ns3:atemp>20.0</ns3:atemp>
          </ns3:TrackPointExtension>
        </extensions>
      </trkpt>
      <trkpt lat="42.5993040762841701507568359375" lon="19.983877725899219512939453125">
        <ele>1222</ele>
        <time>2026-06-15T15:28:22.000Z</time>
        <extensions>
          <ns3:TrackPointExtension>
            <ns3:atemp>20.0</ns3:atemp>
          </ns3:TrackPointExtension>
        </extensions>
      </trkpt>
      <trkpt lat="42.5993040762841701507568359375" lon="19.983877725899219512939453125">
        <ele>1222</ele>
        <time>2026-06-15T15:28:23.000Z</time>
        <extensions>
          <ns3:TrackPointExtension>
            <ns3:atemp>20.0</ns3:atemp>
          </ns3:TrackPointExtension>
        </extensions>
      </trkpt>
      <trkpt lat="42.5993040762841701507568359375" lon="19.983877725899219512939453125">
        <ele>1222</ele>
        <time>2026-06-15T15:28:24.000Z</time>
        <extensions>
          <ns3:TrackPointExtension>
            <ns3:atemp>20.0</ns3:atemp>
          </ns3:TrackPointExtension>
        </extensions>
      </trkpt>
      <trkpt lat="42.5993040762841701507568359375" lon="19.983877725899219512939453125">
        <ele>1222</ele>
        <time>2026-06-15T15:28:25.000Z</time>
        <extensions>
          <ns3:TrackPointExtension>
            <ns3:atemp>20.0</ns3:atemp>
          </ns3:TrackPointExtension>
        </extensions>
      </trkpt>
      <trkpt lat="42.5993040762841701507568359375" lon="19.983877725899219512939453125">
        <ele>1222</ele>
        <time>2026-06-15T15:28:26.000Z</time>
        <extensions>
          <ns3:TrackPointExtension>
            <ns3:atemp>20.0</ns3:atemp>
          </ns3:TrackPointExtension>
        </extensions>
      </trkpt>
      <trkpt lat="42.5993040762841701507568359375" lon="19.983877725899219512939453125">
        <ele>1222</ele>
        <time>2026-06-15T15:28:27.000Z</time>
        <extensions>
          <ns3:TrackPointExtension>
            <ns3:atemp>20.0</ns3:atemp>
          </ns3:TrackPointExtension>
        </extensions>
      </trkpt>
      <trkpt lat="42.5993040762841701507568359375" lon="19.983877725899219512939453125">
        <ele>1222</ele>
        <time>2026-06-15T15:28:28.000Z</time>
        <extensions>
          <ns3:TrackPointExtension>
            <ns3:atemp>20.0</ns3:atemp>
          </ns3:TrackPointExtension>
        </extensions>
      </trkpt>
      <trkpt lat="42.5993040762841701507568359375" lon="19.983877725899219512939453125">
        <ele>1222</ele>
        <time>2026-06-15T15:28:29.000Z</time>
        <extensions>
          <ns3:TrackPointExtension>
            <ns3:atemp>20.0</ns3:atemp>
          </ns3:TrackPointExtension>
        </extensions>
      </trkpt>
      <trkpt lat="42.5993040762841701507568359375" lon="19.983877725899219512939453125">
        <ele>1222</ele>
        <time>2026-06-15T15:28:30.000Z</time>
        <extensions>
          <ns3:TrackPointExtension>
            <ns3:atemp>20.0</ns3:atemp>
          </ns3:TrackPointExtension>
        </extensions>
      </trkpt>
      <trkpt lat="42.5993040762841701507568359375" lon="19.983877725899219512939453125">
        <ele>1222</ele>
        <time>2026-06-15T15:28:31.000Z</time>
        <extensions>
          <ns3:TrackPointExtension>
            <ns3:atemp>20.0</ns3:atemp>
          </ns3:TrackPointExtension>
        </extensions>
      </trkpt>
      <trkpt lat="42.5993040762841701507568359375" lon="19.983877725899219512939453125">
        <ele>1222</ele>
        <time>2026-06-15T15:28:32.000Z</time>
        <extensions>
          <ns3:TrackPointExtension>
            <ns3:atemp>20.0</ns3:atemp>
          </ns3:TrackPointExtension>
        </extensions>
      </trkpt>
      <trkpt lat="42.5993040762841701507568359375" lon="19.983877725899219512939453125">
        <ele>1222</ele>
        <time>2026-06-15T15:28:33.000Z</time>
        <extensions>
          <ns3:TrackPointExtension>
            <ns3:atemp>20.0</ns3:atemp>
          </ns3:TrackPointExtension>
        </extensions>
      </trkpt>
      <trkpt lat="42.5993040762841701507568359375" lon="19.983877725899219512939453125">
        <ele>1222</ele>
        <time>2026-06-15T15:28:34.000Z</time>
        <extensions>
          <ns3:TrackPointExtension>
            <ns3:atemp>20.0</ns3:atemp>
          </ns3:TrackPointExtension>
        </extensions>
      </trkpt>
      <trkpt lat="42.5993040762841701507568359375" lon="19.983877725899219512939453125">
        <ele>1222</ele>
        <time>2026-06-15T15:28:35.000Z</time>
        <extensions>
          <ns3:TrackPointExtension>
            <ns3:atemp>20.0</ns3:atemp>
          </ns3:TrackPointExtension>
        </extensions>
      </trkpt>
      <trkpt lat="42.5993040762841701507568359375" lon="19.983877725899219512939453125">
        <ele>1222</ele>
        <time>2026-06-15T15:28:36.000Z</time>
        <extensions>
          <ns3:TrackPointExtension>
            <ns3:atemp>20.0</ns3:atemp>
          </ns3:TrackPointExtension>
        </extensions>
      </trkpt>
      <trkpt lat="42.5993040762841701507568359375" lon="19.983877725899219512939453125">
        <ele>1222</ele>
        <time>2026-06-15T15:28:37.000Z</time>
        <extensions>
          <ns3:TrackPointExtension>
            <ns3:atemp>20.0</ns3:atemp>
          </ns3:TrackPointExtension>
        </extensions>
      </trkpt>
      <trkpt lat="42.5993040762841701507568359375" lon="19.983877725899219512939453125">
        <ele>1222</ele>
        <time>2026-06-15T15:28:38.000Z</time>
        <extensions>
          <ns3:TrackPointExtension>
            <ns3:atemp>20.0</ns3:atemp>
          </ns3:TrackPointExtension>
        </extensions>
      </trkpt>
      <trkpt lat="42.5993040762841701507568359375" lon="19.983877725899219512939453125">
        <ele>1222</ele>
        <time>2026-06-15T15:28:39.000Z</time>
        <extensions>
          <ns3:TrackPointExtension>
            <ns3:atemp>20.0</ns3:atemp>
          </ns3:TrackPointExtension>
        </extensions>
      </trkpt>
      <trkpt lat="42.5993040762841701507568359375" lon="19.983877725899219512939453125">
        <ele>1222</ele>
        <time>2026-06-15T15:28:40.000Z</time>
        <extensions>
          <ns3:TrackPointExtension>
            <ns3:atemp>20.0</ns3:atemp>
          </ns3:TrackPointExtension>
        </extensions>
      </trkpt>
      <trkpt lat="42.5993040762841701507568359375" lon="19.983877725899219512939453125">
        <ele>1222</ele>
        <time>2026-06-15T15:28:41.000Z</time>
        <extensions>
          <ns3:TrackPointExtension>
            <ns3:atemp>20.0</ns3:atemp>
          </ns3:TrackPointExtension>
        </extensions>
      </trkpt>
      <trkpt lat="42.5993040762841701507568359375" lon="19.983877725899219512939453125">
        <ele>1222</ele>
        <time>2026-06-15T15:28:42.000Z</time>
        <extensions>
          <ns3:TrackPointExtension>
            <ns3:atemp>20.0</ns3:atemp>
          </ns3:TrackPointExtension>
        </extensions>
      </trkpt>
      <trkpt lat="42.5993040762841701507568359375" lon="19.983877725899219512939453125">
        <ele>1222</ele>
        <time>2026-06-15T15:28:43.000Z</time>
        <extensions>
          <ns3:TrackPointExtension>
            <ns3:atemp>20.0</ns3:atemp>
          </ns3:TrackPointExtension>
        </extensions>
      </trkpt>
      <trkpt lat="42.5993040762841701507568359375" lon="19.983877725899219512939453125">
        <ele>1222</ele>
        <time>2026-06-15T15:28:44.000Z</time>
        <extensions>
          <ns3:TrackPointExtension>
            <ns3:atemp>20.0</ns3:atemp>
          </ns3:TrackPointExtension>
        </extensions>
      </trkpt>
      <trkpt lat="42.5993040762841701507568359375" lon="19.983877725899219512939453125">
        <ele>1222</ele>
        <time>2026-06-15T15:28:45.000Z</time>
        <extensions>
          <ns3:TrackPointExtension>
            <ns3:atemp>20.0</ns3:atemp>
          </ns3:TrackPointExtension>
        </extensions>
      </trkpt>
      <trkpt lat="42.5993040762841701507568359375" lon="19.983877725899219512939453125">
        <ele>1222</ele>
        <time>2026-06-15T15:28:46.000Z</time>
        <extensions>
          <ns3:TrackPointExtension>
            <ns3:atemp>20.0</ns3:atemp>
          </ns3:TrackPointExtension>
        </extensions>
      </trkpt>
      <trkpt lat="42.5993040762841701507568359375" lon="19.983877725899219512939453125">
        <ele>1222</ele>
        <time>2026-06-15T15:28:47.000Z</time>
        <extensions>
          <ns3:TrackPointExtension>
            <ns3:atemp>20.0</ns3:atemp>
          </ns3:TrackPointExtension>
        </extensions>
      </trkpt>
      <trkpt lat="42.5993040762841701507568359375" lon="19.983877725899219512939453125">
        <ele>1222</ele>
        <time>2026-06-15T15:28:48.000Z</time>
        <extensions>
          <ns3:TrackPointExtension>
            <ns3:atemp>20.0</ns3:atemp>
          </ns3:TrackPointExtension>
        </extensions>
      </trkpt>
      <trkpt lat="42.5993040762841701507568359375" lon="19.983877725899219512939453125">
        <ele>1222</ele>
        <time>2026-06-15T15:28:49.000Z</time>
        <extensions>
          <ns3:TrackPointExtension>
            <ns3:atemp>20.0</ns3:atemp>
          </ns3:TrackPointExtension>
        </extensions>
      </trkpt>
      <trkpt lat="42.5993040762841701507568359375" lon="19.983877725899219512939453125">
        <ele>1222</ele>
        <time>2026-06-15T15:28:50.000Z</time>
        <extensions>
          <ns3:TrackPointExtension>
            <ns3:atemp>20.0</ns3:atemp>
          </ns3:TrackPointExtension>
        </extensions>
      </trkpt>
      <trkpt lat="42.5993040762841701507568359375" lon="19.983877725899219512939453125">
        <ele>1222</ele>
        <time>2026-06-15T15:28:51.000Z</time>
        <extensions>
          <ns3:TrackPointExtension>
            <ns3:atemp>20.0</ns3:atemp>
          </ns3:TrackPointExtension>
        </extensions>
      </trkpt>
      <trkpt lat="42.5993040762841701507568359375" lon="19.983877725899219512939453125">
        <ele>1222</ele>
        <time>2026-06-15T15:28:52.000Z</time>
        <extensions>
          <ns3:TrackPointExtension>
            <ns3:atemp>20.0</ns3:atemp>
          </ns3:TrackPointExtension>
        </extensions>
      </trkpt>
      <trkpt lat="42.5993040762841701507568359375" lon="19.983877725899219512939453125">
        <ele>1222</ele>
        <time>2026-06-15T15:28:53.000Z</time>
        <extensions>
          <ns3:TrackPointExtension>
            <ns3:atemp>20.0</ns3:atemp>
          </ns3:TrackPointExtension>
        </extensions>
      </trkpt>
      <trkpt lat="42.5993040762841701507568359375" lon="19.983877725899219512939453125">
        <ele>1222</ele>
        <time>2026-06-15T15:28:54.000Z</time>
        <extensions>
          <ns3:TrackPointExtension>
            <ns3:atemp>20.0</ns3:atemp>
          </ns3:TrackPointExtension>
        </extensions>
      </trkpt>
      <trkpt lat="42.5993040762841701507568359375" lon="19.983877725899219512939453125">
        <ele>1222</ele>
        <time>2026-06-15T15:28:55.000Z</time>
        <extensions>
          <ns3:TrackPointExtension>
            <ns3:atemp>20.0</ns3:atemp>
          </ns3:TrackPointExtension>
        </extensions>
      </trkpt>
      <trkpt lat="42.5993040762841701507568359375" lon="19.983877725899219512939453125">
        <ele>1222</ele>
        <time>2026-06-15T15:28:56.000Z</time>
        <extensions>
          <ns3:TrackPointExtension>
            <ns3:atemp>20.0</ns3:atemp>
          </ns3:TrackPointExtension>
        </extensions>
      </trkpt>
      <trkpt lat="42.5993040762841701507568359375" lon="19.983877725899219512939453125">
        <ele>1222</ele>
        <time>2026-06-15T15:28:57.000Z</time>
        <extensions>
          <ns3:TrackPointExtension>
            <ns3:atemp>20.0</ns3:atemp>
          </ns3:TrackPointExtension>
        </extensions>
      </trkpt>
      <trkpt lat="42.5993040762841701507568359375" lon="19.983877725899219512939453125">
        <ele>1222</ele>
        <time>2026-06-15T15:28:58.000Z</time>
        <extensions>
          <ns3:TrackPointExtension>
            <ns3:atemp>20.0</ns3:atemp>
          </ns3:TrackPointExtension>
        </extensions>
      </trkpt>
      <trkpt lat="42.5993040762841701507568359375" lon="19.983877725899219512939453125">
        <ele>1222</ele>
        <time>2026-06-15T15:28:59.000Z</time>
        <extensions>
          <ns3:TrackPointExtension>
            <ns3:atemp>20.0</ns3:atemp>
          </ns3:TrackPointExtension>
        </extensions>
      </trkpt>
      <trkpt lat="42.5993040762841701507568359375" lon="19.983877725899219512939453125">
        <ele>1222</ele>
        <time>2026-06-15T15:29:00.000Z</time>
        <extensions>
          <ns3:TrackPointExtension>
            <ns3:atemp>20.0</ns3:atemp>
          </ns3:TrackPointExtension>
        </extensions>
      </trkpt>
      <trkpt lat="42.5993040762841701507568359375" lon="19.983877725899219512939453125">
        <ele>1222</ele>
        <time>2026-06-15T15:29:01.000Z</time>
        <extensions>
          <ns3:TrackPointExtension>
            <ns3:atemp>20.0</ns3:atemp>
          </ns3:TrackPointExtension>
        </extensions>
      </trkpt>
      <trkpt lat="42.5993040762841701507568359375" lon="19.983877725899219512939453125">
        <ele>1222</ele>
        <time>2026-06-15T15:29:02.000Z</time>
        <extensions>
          <ns3:TrackPointExtension>
            <ns3:atemp>20.0</ns3:atemp>
          </ns3:TrackPointExtension>
        </extensions>
      </trkpt>
      <trkpt lat="42.5993040762841701507568359375" lon="19.983877725899219512939453125">
        <ele>1222</ele>
        <time>2026-06-15T15:29:03.000Z</time>
        <extensions>
          <ns3:TrackPointExtension>
            <ns3:atemp>20.0</ns3:atemp>
          </ns3:TrackPointExtension>
        </extensions>
      </trkpt>
      <trkpt lat="42.5993040762841701507568359375" lon="19.983877725899219512939453125">
        <ele>1222</ele>
        <time>2026-06-15T15:29:04.000Z</time>
        <extensions>
          <ns3:TrackPointExtension>
            <ns3:atemp>20.0</ns3:atemp>
          </ns3:TrackPointExtension>
        </extensions>
      </trkpt>
      <trkpt lat="42.5993040762841701507568359375" lon="19.983877725899219512939453125">
        <ele>1222</ele>
        <time>2026-06-15T15:29:05.000Z</time>
        <extensions>
          <ns3:TrackPointExtension>
            <ns3:atemp>20.0</ns3:atemp>
          </ns3:TrackPointExtension>
        </extensions>
      </trkpt>
      <trkpt lat="42.5993040762841701507568359375" lon="19.983877725899219512939453125">
        <ele>1222</ele>
        <time>2026-06-15T15:29:06.000Z</time>
        <extensions>
          <ns3:TrackPointExtension>
            <ns3:atemp>20.0</ns3:atemp>
          </ns3:TrackPointExtension>
        </extensions>
      </trkpt>
      <trkpt lat="42.5993040762841701507568359375" lon="19.983877725899219512939453125">
        <ele>1222</ele>
        <time>2026-06-15T15:29:07.000Z</time>
        <extensions>
          <ns3:TrackPointExtension>
            <ns3:atemp>20.0</ns3:atemp>
          </ns3:TrackPointExtension>
        </extensions>
      </trkpt>
      <trkpt lat="42.5993040762841701507568359375" lon="19.983877725899219512939453125">
        <ele>1222</ele>
        <time>2026-06-15T15:29:08.000Z</time>
        <extensions>
          <ns3:TrackPointExtension>
            <ns3:atemp>20.0</ns3:atemp>
          </ns3:TrackPointExtension>
        </extensions>
      </trkpt>
      <trkpt lat="42.5993040762841701507568359375" lon="19.983877725899219512939453125">
        <ele>1222</ele>
        <time>2026-06-15T15:29:09.000Z</time>
        <extensions>
          <ns3:TrackPointExtension>
            <ns3:atemp>20.0</ns3:atemp>
          </ns3:TrackPointExtension>
        </extensions>
      </trkpt>
      <trkpt lat="42.5993040762841701507568359375" lon="19.983877725899219512939453125">
        <ele>1222</ele>
        <time>2026-06-15T15:29:10.000Z</time>
        <extensions>
          <ns3:TrackPointExtension>
            <ns3:atemp>20.0</ns3:atemp>
          </ns3:TrackPointExtension>
        </extensions>
      </trkpt>
      <trkpt lat="42.5993040762841701507568359375" lon="19.983877725899219512939453125">
        <ele>1222</ele>
        <time>2026-06-15T15:29:11.000Z</time>
        <extensions>
          <ns3:TrackPointExtension>
            <ns3:atemp>20.0</ns3:atemp>
          </ns3:TrackPointExtension>
        </extensions>
      </trkpt>
      <trkpt lat="42.5993040762841701507568359375" lon="19.983877725899219512939453125">
        <ele>1222</ele>
        <time>2026-06-15T15:29:12.000Z</time>
        <extensions>
          <ns3:TrackPointExtension>
            <ns3:atemp>20.0</ns3:atemp>
          </ns3:TrackPointExtension>
        </extensions>
      </trkpt>
      <trkpt lat="42.5993040762841701507568359375" lon="19.983877725899219512939453125">
        <ele>1222</ele>
        <time>2026-06-15T15:29:13.000Z</time>
        <extensions>
          <ns3:TrackPointExtension>
            <ns3:atemp>20.0</ns3:atemp>
          </ns3:TrackPointExtension>
        </extensions>
      </trkpt>
      <trkpt lat="42.5993040762841701507568359375" lon="19.983877725899219512939453125">
        <ele>1222</ele>
        <time>2026-06-15T15:29:14.000Z</time>
        <extensions>
          <ns3:TrackPointExtension>
            <ns3:atemp>20.0</ns3:atemp>
          </ns3:TrackPointExtension>
        </extensions>
      </trkpt>
      <trkpt lat="42.5993040762841701507568359375" lon="19.983877725899219512939453125">
        <ele>1222</ele>
        <time>2026-06-15T15:29:15.000Z</time>
        <extensions>
          <ns3:TrackPointExtension>
            <ns3:atemp>20.0</ns3:atemp>
          </ns3:TrackPointExtension>
        </extensions>
      </trkpt>
      <trkpt lat="42.5993040762841701507568359375" lon="19.983877725899219512939453125">
        <ele>1222</ele>
        <time>2026-06-15T15:29:16.000Z</time>
        <extensions>
          <ns3:TrackPointExtension>
            <ns3:atemp>20.0</ns3:atemp>
          </ns3:TrackPointExtension>
        </extensions>
      </trkpt>
      <trkpt lat="42.5993040762841701507568359375" lon="19.983877725899219512939453125">
        <ele>1222</ele>
        <time>2026-06-15T15:29:17.000Z</time>
        <extensions>
          <ns3:TrackPointExtension>
            <ns3:atemp>20.0</ns3:atemp>
          </ns3:TrackPointExtension>
        </extensions>
      </trkpt>
      <trkpt lat="42.5993040762841701507568359375" lon="19.983877725899219512939453125">
        <ele>1222</ele>
        <time>2026-06-15T15:29:18.000Z</time>
        <extensions>
          <ns3:TrackPointExtension>
            <ns3:atemp>20.0</ns3:atemp>
          </ns3:TrackPointExtension>
        </extensions>
      </trkpt>
      <trkpt lat="42.5993040762841701507568359375" lon="19.983877725899219512939453125">
        <ele>1222</ele>
        <time>2026-06-15T15:29:19.000Z</time>
        <extensions>
          <ns3:TrackPointExtension>
            <ns3:atemp>20.0</ns3:atemp>
          </ns3:TrackPointExtension>
        </extensions>
      </trkpt>
      <trkpt lat="42.5993040762841701507568359375" lon="19.983877725899219512939453125">
        <ele>1222</ele>
        <time>2026-06-15T15:29:20.000Z</time>
        <extensions>
          <ns3:TrackPointExtension>
            <ns3:atemp>20.0</ns3:atemp>
          </ns3:TrackPointExtension>
        </extensions>
      </trkpt>
      <trkpt lat="42.5993040762841701507568359375" lon="19.983877725899219512939453125">
        <ele>1222</ele>
        <time>2026-06-15T15:29:21.000Z</time>
        <extensions>
          <ns3:TrackPointExtension>
            <ns3:atemp>20.0</ns3:atemp>
          </ns3:TrackPointExtension>
        </extensions>
      </trkpt>
      <trkpt lat="42.5993040762841701507568359375" lon="19.983877725899219512939453125">
        <ele>1222</ele>
        <time>2026-06-15T15:29:22.000Z</time>
        <extensions>
          <ns3:TrackPointExtension>
            <ns3:atemp>20.0</ns3:atemp>
          </ns3:TrackPointExtension>
        </extensions>
      </trkpt>
      <trkpt lat="42.5993040762841701507568359375" lon="19.983877725899219512939453125">
        <ele>1222</ele>
        <time>2026-06-15T15:29:23.000Z</time>
        <extensions>
          <ns3:TrackPointExtension>
            <ns3:atemp>20.0</ns3:atemp>
          </ns3:TrackPointExtension>
        </extensions>
      </trkpt>
      <trkpt lat="42.5993040762841701507568359375" lon="19.983877725899219512939453125">
        <ele>1222</ele>
        <time>2026-06-15T15:29:24.000Z</time>
        <extensions>
          <ns3:TrackPointExtension>
            <ns3:atemp>20.0</ns3:atemp>
          </ns3:TrackPointExtension>
        </extensions>
      </trkpt>
      <trkpt lat="42.5993040762841701507568359375" lon="19.983877725899219512939453125">
        <ele>1222</ele>
        <time>2026-06-15T15:29:25.000Z</time>
        <extensions>
          <ns3:TrackPointExtension>
            <ns3:atemp>20.0</ns3:atemp>
          </ns3:TrackPointExtension>
        </extensions>
      </trkpt>
      <trkpt lat="42.5993040762841701507568359375" lon="19.983877725899219512939453125">
        <ele>1222</ele>
        <time>2026-06-15T15:29:26.000Z</time>
        <extensions>
          <ns3:TrackPointExtension>
            <ns3:atemp>20.0</ns3:atemp>
          </ns3:TrackPointExtension>
        </extensions>
      </trkpt>
      <trkpt lat="42.5993040762841701507568359375" lon="19.983877725899219512939453125">
        <ele>1222</ele>
        <time>2026-06-15T15:29:27.000Z</time>
        <extensions>
          <ns3:TrackPointExtension>
            <ns3:atemp>20.0</ns3:atemp>
          </ns3:TrackPointExtension>
        </extensions>
      </trkpt>
      <trkpt lat="42.5993040762841701507568359375" lon="19.983877725899219512939453125">
        <ele>1222</ele>
        <time>2026-06-15T15:29:28.000Z</time>
        <extensions>
          <ns3:TrackPointExtension>
            <ns3:atemp>20.0</ns3:atemp>
          </ns3:TrackPointExtension>
        </extensions>
      </trkpt>
      <trkpt lat="42.5993040762841701507568359375" lon="19.983877725899219512939453125">
        <ele>1222</ele>
        <time>2026-06-15T15:29:29.000Z</time>
        <extensions>
          <ns3:TrackPointExtension>
            <ns3:atemp>20.0</ns3:atemp>
          </ns3:TrackPointExtension>
        </extensions>
      </trkpt>
      <trkpt lat="42.5993040762841701507568359375" lon="19.983877725899219512939453125">
        <ele>1222</ele>
        <time>2026-06-15T15:29:30.000Z</time>
        <extensions>
          <ns3:TrackPointExtension>
            <ns3:atemp>20.0</ns3:atemp>
          </ns3:TrackPointExtension>
        </extensions>
      </trkpt>
      <trkpt lat="42.5993040762841701507568359375" lon="19.983877725899219512939453125">
        <ele>1222</ele>
        <time>2026-06-15T15:29:31.000Z</time>
        <extensions>
          <ns3:TrackPointExtension>
            <ns3:atemp>20.0</ns3:atemp>
          </ns3:TrackPointExtension>
        </extensions>
      </trkpt>
      <trkpt lat="42.5993040762841701507568359375" lon="19.983877725899219512939453125">
        <ele>1222</ele>
        <time>2026-06-15T15:29:32.000Z</time>
        <extensions>
          <ns3:TrackPointExtension>
            <ns3:atemp>20.0</ns3:atemp>
          </ns3:TrackPointExtension>
        </extensions>
      </trkpt>
      <trkpt lat="42.5993040762841701507568359375" lon="19.983877725899219512939453125">
        <ele>1222</ele>
        <time>2026-06-15T15:29:33.000Z</time>
        <extensions>
          <ns3:TrackPointExtension>
            <ns3:atemp>20.0</ns3:atemp>
          </ns3:TrackPointExtension>
        </extensions>
      </trkpt>
      <trkpt lat="42.5993040762841701507568359375" lon="19.983877725899219512939453125">
        <ele>1222</ele>
        <time>2026-06-15T15:29:34.000Z</time>
        <extensions>
          <ns3:TrackPointExtension>
            <ns3:atemp>20.0</ns3:atemp>
          </ns3:TrackPointExtension>
        </extensions>
      </trkpt>
      <trkpt lat="42.5993040762841701507568359375" lon="19.983877725899219512939453125">
        <ele>1222</ele>
        <time>2026-06-15T15:29:35.000Z</time>
        <extensions>
          <ns3:TrackPointExtension>
            <ns3:atemp>20.0</ns3:atemp>
          </ns3:TrackPointExtension>
        </extensions>
      </trkpt>
      <trkpt lat="42.5993040762841701507568359375" lon="19.983877725899219512939453125">
        <ele>1222</ele>
        <time>2026-06-15T15:29:36.000Z</time>
        <extensions>
          <ns3:TrackPointExtension>
            <ns3:atemp>20.0</ns3:atemp>
          </ns3:TrackPointExtension>
        </extensions>
      </trkpt>
      <trkpt lat="42.5993040762841701507568359375" lon="19.983877725899219512939453125">
        <ele>1222</ele>
        <time>2026-06-15T15:29:37.000Z</time>
        <extensions>
          <ns3:TrackPointExtension>
            <ns3:atemp>20.0</ns3:atemp>
          </ns3:TrackPointExtension>
        </extensions>
      </trkpt>
      <trkpt lat="42.5993040762841701507568359375" lon="19.983877725899219512939453125">
        <ele>1222</ele>
        <time>2026-06-15T15:29:38.000Z</time>
        <extensions>
          <ns3:TrackPointExtension>
            <ns3:atemp>20.0</ns3:atemp>
          </ns3:TrackPointExtension>
        </extensions>
      </trkpt>
      <trkpt lat="42.5993040762841701507568359375" lon="19.983877725899219512939453125">
        <ele>1222</ele>
        <time>2026-06-15T15:29:39.000Z</time>
        <extensions>
          <ns3:TrackPointExtension>
            <ns3:atemp>20.0</ns3:atemp>
          </ns3:TrackPointExtension>
        </extensions>
      </trkpt>
      <trkpt lat="42.5993040762841701507568359375" lon="19.983877725899219512939453125">
        <ele>1222</ele>
        <time>2026-06-15T15:29:40.000Z</time>
        <extensions>
          <ns3:TrackPointExtension>
            <ns3:atemp>20.0</ns3:atemp>
          </ns3:TrackPointExtension>
        </extensions>
      </trkpt>
      <trkpt lat="42.5993040762841701507568359375" lon="19.983877725899219512939453125">
        <ele>1222</ele>
        <time>2026-06-15T15:29:41.000Z</time>
        <extensions>
          <ns3:TrackPointExtension>
            <ns3:atemp>20.0</ns3:atemp>
          </ns3:TrackPointExtension>
        </extensions>
      </trkpt>
      <trkpt lat="42.5993040762841701507568359375" lon="19.983877725899219512939453125">
        <ele>1222</ele>
        <time>2026-06-15T15:29:42.000Z</time>
        <extensions>
          <ns3:TrackPointExtension>
            <ns3:atemp>20.0</ns3:atemp>
          </ns3:TrackPointExtension>
        </extensions>
      </trkpt>
      <trkpt lat="42.5993040762841701507568359375" lon="19.983877725899219512939453125">
        <ele>1222</ele>
        <time>2026-06-15T15:29:43.000Z</time>
        <extensions>
          <ns3:TrackPointExtension>
            <ns3:atemp>20.0</ns3:atemp>
          </ns3:TrackPointExtension>
        </extensions>
      </trkpt>
      <trkpt lat="42.5993040762841701507568359375" lon="19.983877725899219512939453125">
        <ele>1222</ele>
        <time>2026-06-15T15:29:44.000Z</time>
        <extensions>
          <ns3:TrackPointExtension>
            <ns3:atemp>20.0</ns3:atemp>
          </ns3:TrackPointExtension>
        </extensions>
      </trkpt>
      <trkpt lat="42.5993040762841701507568359375" lon="19.983877725899219512939453125">
        <ele>1222</ele>
        <time>2026-06-15T15:29:45.000Z</time>
        <extensions>
          <ns3:TrackPointExtension>
            <ns3:atemp>20.0</ns3:atemp>
          </ns3:TrackPointExtension>
        </extensions>
      </trkpt>
      <trkpt lat="42.5993040762841701507568359375" lon="19.983877725899219512939453125">
        <ele>1222</ele>
        <time>2026-06-15T15:29:46.000Z</time>
        <extensions>
          <ns3:TrackPointExtension>
            <ns3:atemp>20.0</ns3:atemp>
          </ns3:TrackPointExtension>
        </extensions>
      </trkpt>
      <trkpt lat="42.5993040762841701507568359375" lon="19.983877725899219512939453125">
        <ele>1222</ele>
        <time>2026-06-15T15:29:47.000Z</time>
        <extensions>
          <ns3:TrackPointExtension>
            <ns3:atemp>20.0</ns3:atemp>
          </ns3:TrackPointExtension>
        </extensions>
      </trkpt>
      <trkpt lat="42.5993040762841701507568359375" lon="19.983877725899219512939453125">
        <ele>1222</ele>
        <time>2026-06-15T15:29:48.000Z</time>
        <extensions>
          <ns3:TrackPointExtension>
            <ns3:atemp>20.0</ns3:atemp>
          </ns3:TrackPointExtension>
        </extensions>
      </trkpt>
      <trkpt lat="42.5993040762841701507568359375" lon="19.983877725899219512939453125">
        <ele>1222</ele>
        <time>2026-06-15T15:29:49.000Z</time>
        <extensions>
          <ns3:TrackPointExtension>
            <ns3:atemp>20.0</ns3:atemp>
          </ns3:TrackPointExtension>
        </extensions>
      </trkpt>
      <trkpt lat="42.5993040762841701507568359375" lon="19.983877725899219512939453125">
        <ele>1222</ele>
        <time>2026-06-15T15:29:50.000Z</time>
        <extensions>
          <ns3:TrackPointExtension>
            <ns3:atemp>20.0</ns3:atemp>
          </ns3:TrackPointExtension>
        </extensions>
      </trkpt>
      <trkpt lat="42.5993040762841701507568359375" lon="19.983877725899219512939453125">
        <ele>1222</ele>
        <time>2026-06-15T15:29:51.000Z</time>
        <extensions>
          <ns3:TrackPointExtension>
            <ns3:atemp>20.0</ns3:atemp>
          </ns3:TrackPointExtension>
        </extensions>
      </trkpt>
      <trkpt lat="42.5993040762841701507568359375" lon="19.983877725899219512939453125">
        <ele>1222</ele>
        <time>2026-06-15T15:29:52.000Z</time>
        <extensions>
          <ns3:TrackPointExtension>
            <ns3:atemp>20.0</ns3:atemp>
          </ns3:TrackPointExtension>
        </extensions>
      </trkpt>
      <trkpt lat="42.5993040762841701507568359375" lon="19.983877725899219512939453125">
        <ele>1222</ele>
        <time>2026-06-15T15:29:53.000Z</time>
        <extensions>
          <ns3:TrackPointExtension>
            <ns3:atemp>20.0</ns3:atemp>
          </ns3:TrackPointExtension>
        </extensions>
      </trkpt>
      <trkpt lat="42.5993040762841701507568359375" lon="19.983877725899219512939453125">
        <ele>1222</ele>
        <time>2026-06-15T15:29:54.000Z</time>
        <extensions>
          <ns3:TrackPointExtension>
            <ns3:atemp>20.0</ns3:atemp>
          </ns3:TrackPointExtension>
        </extensions>
      </trkpt>
      <trkpt lat="42.5993040762841701507568359375" lon="19.983877725899219512939453125">
        <ele>1222</ele>
        <time>2026-06-15T15:29:55.000Z</time>
        <extensions>
          <ns3:TrackPointExtension>
            <ns3:atemp>20.0</ns3:atemp>
          </ns3:TrackPointExtension>
        </extensions>
      </trkpt>
      <trkpt lat="42.5993040762841701507568359375" lon="19.983877725899219512939453125">
        <ele>1222</ele>
        <time>2026-06-15T15:29:56.000Z</time>
        <extensions>
          <ns3:TrackPointExtension>
            <ns3:atemp>20.0</ns3:atemp>
          </ns3:TrackPointExtension>
        </extensions>
      </trkpt>
      <trkpt lat="42.5993040762841701507568359375" lon="19.983877725899219512939453125">
        <ele>1222</ele>
        <time>2026-06-15T15:29:57.000Z</time>
        <extensions>
          <ns3:TrackPointExtension>
            <ns3:atemp>20.0</ns3:atemp>
          </ns3:TrackPointExtension>
        </extensions>
      </trkpt>
      <trkpt lat="42.5993040762841701507568359375" lon="19.983877725899219512939453125">
        <ele>1222</ele>
        <time>2026-06-15T15:29:58.000Z</time>
        <extensions>
          <ns3:TrackPointExtension>
            <ns3:atemp>20.0</ns3:atemp>
          </ns3:TrackPointExtension>
        </extensions>
      </trkpt>
      <trkpt lat="42.5993040762841701507568359375" lon="19.983877725899219512939453125">
        <ele>1222</ele>
        <time>2026-06-15T15:29:59.000Z</time>
        <extensions>
          <ns3:TrackPointExtension>
            <ns3:atemp>20.0</ns3:atemp>
          </ns3:TrackPointExtension>
        </extensions>
      </trkpt>
      <trkpt lat="42.5993040762841701507568359375" lon="19.983877725899219512939453125">
        <ele>1222</ele>
        <time>2026-06-15T15:30:00.000Z</time>
        <extensions>
          <ns3:TrackPointExtension>
            <ns3:atemp>20.0</ns3:atemp>
          </ns3:TrackPointExtension>
        </extensions>
      </trkpt>
      <trkpt lat="42.5993040762841701507568359375" lon="19.983877725899219512939453125">
        <ele>1222</ele>
        <time>2026-06-15T15:30:01.000Z</time>
        <extensions>
          <ns3:TrackPointExtension>
            <ns3:atemp>20.0</ns3:atemp>
          </ns3:TrackPointExtension>
        </extensions>
      </trkpt>
      <trkpt lat="42.5993040762841701507568359375" lon="19.983877725899219512939453125">
        <ele>1222</ele>
        <time>2026-06-15T15:30:02.000Z</time>
        <extensions>
          <ns3:TrackPointExtension>
            <ns3:atemp>20.0</ns3:atemp>
          </ns3:TrackPointExtension>
        </extensions>
      </trkpt>
      <trkpt lat="42.5993040762841701507568359375" lon="19.983877725899219512939453125">
        <ele>1222</ele>
        <time>2026-06-15T15:30:03.000Z</time>
        <extensions>
          <ns3:TrackPointExtension>
            <ns3:atemp>20.0</ns3:atemp>
          </ns3:TrackPointExtension>
        </extensions>
      </trkpt>
      <trkpt lat="42.5993040762841701507568359375" lon="19.983877725899219512939453125">
        <ele>1222</ele>
        <time>2026-06-15T15:30:04.000Z</time>
        <extensions>
          <ns3:TrackPointExtension>
            <ns3:atemp>20.0</ns3:atemp>
          </ns3:TrackPointExtension>
        </extensions>
      </trkpt>
      <trkpt lat="42.5993040762841701507568359375" lon="19.983877725899219512939453125">
        <ele>1222</ele>
        <time>2026-06-15T15:30:05.000Z</time>
        <extensions>
          <ns3:TrackPointExtension>
            <ns3:atemp>20.0</ns3:atemp>
          </ns3:TrackPointExtension>
        </extensions>
      </trkpt>
      <trkpt lat="42.5993040762841701507568359375" lon="19.983877725899219512939453125">
        <ele>1222</ele>
        <time>2026-06-15T15:30:06.000Z</time>
        <extensions>
          <ns3:TrackPointExtension>
            <ns3:atemp>20.0</ns3:atemp>
          </ns3:TrackPointExtension>
        </extensions>
      </trkpt>
      <trkpt lat="42.5993040762841701507568359375" lon="19.983877725899219512939453125">
        <ele>1222</ele>
        <time>2026-06-15T15:30:07.000Z</time>
        <extensions>
          <ns3:TrackPointExtension>
            <ns3:atemp>20.0</ns3:atemp>
          </ns3:TrackPointExtension>
        </extensions>
      </trkpt>
      <trkpt lat="42.5993040762841701507568359375" lon="19.983877725899219512939453125">
        <ele>1222</ele>
        <time>2026-06-15T15:30:08.000Z</time>
        <extensions>
          <ns3:TrackPointExtension>
            <ns3:atemp>20.0</ns3:atemp>
          </ns3:TrackPointExtension>
        </extensions>
      </trkpt>
      <trkpt lat="42.5993040762841701507568359375" lon="19.983877725899219512939453125">
        <ele>1222</ele>
        <time>2026-06-15T15:30:09.000Z</time>
        <extensions>
          <ns3:TrackPointExtension>
            <ns3:atemp>20.0</ns3:atemp>
          </ns3:TrackPointExtension>
        </extensions>
      </trkpt>
      <trkpt lat="42.5993040762841701507568359375" lon="19.983877725899219512939453125">
        <ele>1222</ele>
        <time>2026-06-15T15:30:10.000Z</time>
        <extensions>
          <ns3:TrackPointExtension>
            <ns3:atemp>20.0</ns3:atemp>
          </ns3:TrackPointExtension>
        </extensions>
      </trkpt>
      <trkpt lat="42.5993040762841701507568359375" lon="19.983877725899219512939453125">
        <ele>1222</ele>
        <time>2026-06-15T15:30:11.000Z</time>
        <extensions>
          <ns3:TrackPointExtension>
            <ns3:atemp>20.0</ns3:atemp>
          </ns3:TrackPointExtension>
        </extensions>
      </trkpt>
      <trkpt lat="42.5993040762841701507568359375" lon="19.983877725899219512939453125">
        <ele>1222</ele>
        <time>2026-06-15T15:30:12.000Z</time>
        <extensions>
          <ns3:TrackPointExtension>
            <ns3:atemp>20.0</ns3:atemp>
          </ns3:TrackPointExtension>
        </extensions>
      </trkpt>
      <trkpt lat="42.5993040762841701507568359375" lon="19.983877725899219512939453125">
        <ele>1222</ele>
        <time>2026-06-15T15:30:13.000Z</time>
        <extensions>
          <ns3:TrackPointExtension>
            <ns3:atemp>20.0</ns3:atemp>
          </ns3:TrackPointExtension>
        </extensions>
      </trkpt>
      <trkpt lat="42.5993040762841701507568359375" lon="19.983877725899219512939453125">
        <ele>1222</ele>
        <time>2026-06-15T15:30:14.000Z</time>
        <extensions>
          <ns3:TrackPointExtension>
            <ns3:atemp>20.0</ns3:atemp>
          </ns3:TrackPointExtension>
        </extensions>
      </trkpt>
      <trkpt lat="42.5993040762841701507568359375" lon="19.983877725899219512939453125">
        <ele>1222</ele>
        <time>2026-06-15T15:30:15.000Z</time>
        <extensions>
          <ns3:TrackPointExtension>
            <ns3:atemp>20.0</ns3:atemp>
          </ns3:TrackPointExtension>
        </extensions>
      </trkpt>
      <trkpt lat="42.5993040762841701507568359375" lon="19.983877725899219512939453125">
        <ele>1222</ele>
        <time>2026-06-15T15:30:16.000Z</time>
        <extensions>
          <ns3:TrackPointExtension>
            <ns3:atemp>20.0</ns3:atemp>
          </ns3:TrackPointExtension>
        </extensions>
      </trkpt>
      <trkpt lat="42.5993040762841701507568359375" lon="19.983877725899219512939453125">
        <ele>1222</ele>
        <time>2026-06-15T15:30:17.000Z</time>
        <extensions>
          <ns3:TrackPointExtension>
            <ns3:atemp>20.0</ns3:atemp>
          </ns3:TrackPointExtension>
        </extensions>
      </trkpt>
      <trkpt lat="42.5993040762841701507568359375" lon="19.983877725899219512939453125">
        <ele>1222</ele>
        <time>2026-06-15T15:30:18.000Z</time>
        <extensions>
          <ns3:TrackPointExtension>
            <ns3:atemp>20.0</ns3:atemp>
          </ns3:TrackPointExtension>
        </extensions>
      </trkpt>
      <trkpt lat="42.5993040762841701507568359375" lon="19.983877725899219512939453125">
        <ele>1222</ele>
        <time>2026-06-15T15:30:19.000Z</time>
        <extensions>
          <ns3:TrackPointExtension>
            <ns3:atemp>20.0</ns3:atemp>
          </ns3:TrackPointExtension>
        </extensions>
      </trkpt>
      <trkpt lat="42.5993040762841701507568359375" lon="19.983877725899219512939453125">
        <ele>1222</ele>
        <time>2026-06-15T15:30:20.000Z</time>
        <extensions>
          <ns3:TrackPointExtension>
            <ns3:atemp>20.0</ns3:atemp>
          </ns3:TrackPointExtension>
        </extensions>
      </trkpt>
      <trkpt lat="42.5993040762841701507568359375" lon="19.983877725899219512939453125">
        <ele>1222</ele>
        <time>2026-06-15T15:30:21.000Z</time>
        <extensions>
          <ns3:TrackPointExtension>
            <ns3:atemp>20.0</ns3:atemp>
          </ns3:TrackPointExtension>
        </extensions>
      </trkpt>
      <trkpt lat="42.5993040762841701507568359375" lon="19.983877725899219512939453125">
        <ele>1222</ele>
        <time>2026-06-15T15:30:22.000Z</time>
        <extensions>
          <ns3:TrackPointExtension>
            <ns3:atemp>20.0</ns3:atemp>
          </ns3:TrackPointExtension>
        </extensions>
      </trkpt>
      <trkpt lat="42.5993040762841701507568359375" lon="19.983877725899219512939453125">
        <ele>1222</ele>
        <time>2026-06-15T15:30:23.000Z</time>
        <extensions>
          <ns3:TrackPointExtension>
            <ns3:atemp>20.0</ns3:atemp>
          </ns3:TrackPointExtension>
        </extensions>
      </trkpt>
      <trkpt lat="42.5993040762841701507568359375" lon="19.983877725899219512939453125">
        <ele>1222</ele>
        <time>2026-06-15T15:30:24.000Z</time>
        <extensions>
          <ns3:TrackPointExtension>
            <ns3:atemp>20.0</ns3:atemp>
          </ns3:TrackPointExtension>
        </extensions>
      </trkpt>
      <trkpt lat="42.5993040762841701507568359375" lon="19.983877725899219512939453125">
        <ele>1222</ele>
        <time>2026-06-15T15:30:25.000Z</time>
        <extensions>
          <ns3:TrackPointExtension>
            <ns3:atemp>20.0</ns3:atemp>
          </ns3:TrackPointExtension>
        </extensions>
      </trkpt>
      <trkpt lat="42.5993040762841701507568359375" lon="19.983877725899219512939453125">
        <ele>1222</ele>
        <time>2026-06-15T15:30:26.000Z</time>
        <extensions>
          <ns3:TrackPointExtension>
            <ns3:atemp>20.0</ns3:atemp>
          </ns3:TrackPointExtension>
        </extensions>
      </trkpt>
      <trkpt lat="42.5993040762841701507568359375" lon="19.983877725899219512939453125">
        <ele>1222</ele>
        <time>2026-06-15T15:30:27.000Z</time>
        <extensions>
          <ns3:TrackPointExtension>
            <ns3:atemp>20.0</ns3:atemp>
          </ns3:TrackPointExtension>
        </extensions>
      </trkpt>
      <trkpt lat="42.5993040762841701507568359375" lon="19.983877725899219512939453125">
        <ele>1222</ele>
        <time>2026-06-15T15:30:28.000Z</time>
        <extensions>
          <ns3:TrackPointExtension>
            <ns3:atemp>20.0</ns3:atemp>
          </ns3:TrackPointExtension>
        </extensions>
      </trkpt>
      <trkpt lat="42.5993040762841701507568359375" lon="19.983877725899219512939453125">
        <ele>1222</ele>
        <time>2026-06-15T15:30:29.000Z</time>
        <extensions>
          <ns3:TrackPointExtension>
            <ns3:atemp>20.0</ns3:atemp>
          </ns3:TrackPointExtension>
        </extensions>
      </trkpt>
      <trkpt lat="42.5993040762841701507568359375" lon="19.983877725899219512939453125">
        <ele>1222</ele>
        <time>2026-06-15T15:30:30.000Z</time>
        <extensions>
          <ns3:TrackPointExtension>
            <ns3:atemp>20.0</ns3:atemp>
          </ns3:TrackPointExtension>
        </extensions>
      </trkpt>
      <trkpt lat="42.5993040762841701507568359375" lon="19.983877725899219512939453125">
        <ele>1222</ele>
        <time>2026-06-15T15:30:31.000Z</time>
        <extensions>
          <ns3:TrackPointExtension>
            <ns3:atemp>20.0</ns3:atemp>
          </ns3:TrackPointExtension>
        </extensions>
      </trkpt>
      <trkpt lat="42.5993040762841701507568359375" lon="19.983877725899219512939453125">
        <ele>1222</ele>
        <time>2026-06-15T15:30:32.000Z</time>
        <extensions>
          <ns3:TrackPointExtension>
            <ns3:atemp>20.0</ns3:atemp>
          </ns3:TrackPointExtension>
        </extensions>
      </trkpt>
      <trkpt lat="42.5993040762841701507568359375" lon="19.983877725899219512939453125">
        <ele>1222</ele>
        <time>2026-06-15T15:30:33.000Z</time>
        <extensions>
          <ns3:TrackPointExtension>
            <ns3:atemp>20.0</ns3:atemp>
          </ns3:TrackPointExtension>
        </extensions>
      </trkpt>
      <trkpt lat="42.5993040762841701507568359375" lon="19.983877725899219512939453125">
        <ele>1222</ele>
        <time>2026-06-15T15:30:34.000Z</time>
        <extensions>
          <ns3:TrackPointExtension>
            <ns3:atemp>20.0</ns3:atemp>
          </ns3:TrackPointExtension>
        </extensions>
      </trkpt>
      <trkpt lat="42.5993040762841701507568359375" lon="19.983877725899219512939453125">
        <ele>1222</ele>
        <time>2026-06-15T15:30:35.000Z</time>
        <extensions>
          <ns3:TrackPointExtension>
            <ns3:atemp>20.0</ns3:atemp>
          </ns3:TrackPointExtension>
        </extensions>
      </trkpt>
      <trkpt lat="42.5993040762841701507568359375" lon="19.983877725899219512939453125">
        <ele>1222</ele>
        <time>2026-06-15T15:30:36.000Z</time>
        <extensions>
          <ns3:TrackPointExtension>
            <ns3:atemp>20.0</ns3:atemp>
          </ns3:TrackPointExtension>
        </extensions>
      </trkpt>
      <trkpt lat="42.5993040762841701507568359375" lon="19.983877725899219512939453125">
        <ele>1222</ele>
        <time>2026-06-15T15:30:37.000Z</time>
        <extensions>
          <ns3:TrackPointExtension>
            <ns3:atemp>20.0</ns3:atemp>
          </ns3:TrackPointExtension>
        </extensions>
      </trkpt>
      <trkpt lat="42.5993040762841701507568359375" lon="19.983877725899219512939453125">
        <ele>1222</ele>
        <time>2026-06-15T15:30:38.000Z</time>
        <extensions>
          <ns3:TrackPointExtension>
            <ns3:atemp>20.0</ns3:atemp>
          </ns3:TrackPointExtension>
        </extensions>
      </trkpt>
      <trkpt lat="42.5993040762841701507568359375" lon="19.983877725899219512939453125">
        <ele>1222</ele>
        <time>2026-06-15T15:30:39.000Z</time>
        <extensions>
          <ns3:TrackPointExtension>
            <ns3:atemp>20.0</ns3:atemp>
          </ns3:TrackPointExtension>
        </extensions>
      </trkpt>
      <trkpt lat="42.5993040762841701507568359375" lon="19.983877725899219512939453125">
        <ele>1222</ele>
        <time>2026-06-15T15:30:40.000Z</time>
        <extensions>
          <ns3:TrackPointExtension>
            <ns3:atemp>20.0</ns3:atemp>
          </ns3:TrackPointExtension>
        </extensions>
      </trkpt>
      <trkpt lat="42.5993040762841701507568359375" lon="19.983877725899219512939453125">
        <ele>1222</ele>
        <time>2026-06-15T15:30:41.000Z</time>
        <extensions>
          <ns3:TrackPointExtension>
            <ns3:atemp>20.0</ns3:atemp>
          </ns3:TrackPointExtension>
        </extensions>
      </trkpt>
      <trkpt lat="42.5993040762841701507568359375" lon="19.983877725899219512939453125">
        <ele>1222</ele>
        <time>2026-06-15T15:30:42.000Z</time>
        <extensions>
          <ns3:TrackPointExtension>
            <ns3:atemp>20.0</ns3:atemp>
          </ns3:TrackPointExtension>
        </extensions>
      </trkpt>
      <trkpt lat="42.5993040762841701507568359375" lon="19.983877725899219512939453125">
        <ele>1222</ele>
        <time>2026-06-15T15:30:43.000Z</time>
        <extensions>
          <ns3:TrackPointExtension>
            <ns3:atemp>20.0</ns3:atemp>
          </ns3:TrackPointExtension>
        </extensions>
      </trkpt>
      <trkpt lat="42.5993040762841701507568359375" lon="19.983877725899219512939453125">
        <ele>1222</ele>
        <time>2026-06-15T15:30:44.000Z</time>
        <extensions>
          <ns3:TrackPointExtension>
            <ns3:atemp>20.0</ns3:atemp>
          </ns3:TrackPointExtension>
        </extensions>
      </trkpt>
      <trkpt lat="42.5993040762841701507568359375" lon="19.983877725899219512939453125">
        <ele>1222</ele>
        <time>2026-06-15T15:30:45.000Z</time>
        <extensions>
          <ns3:TrackPointExtension>
            <ns3:atemp>20.0</ns3:atemp>
          </ns3:TrackPointExtension>
        </extensions>
      </trkpt>
      <trkpt lat="42.5993040762841701507568359375" lon="19.983877725899219512939453125">
        <ele>1222</ele>
        <time>2026-06-15T15:30:46.000Z</time>
        <extensions>
          <ns3:TrackPointExtension>
            <ns3:atemp>20.0</ns3:atemp>
          </ns3:TrackPointExtension>
        </extensions>
      </trkpt>
      <trkpt lat="42.5993040762841701507568359375" lon="19.983877725899219512939453125">
        <ele>1222</ele>
        <time>2026-06-15T15:30:47.000Z</time>
        <extensions>
          <ns3:TrackPointExtension>
            <ns3:atemp>20.0</ns3:atemp>
          </ns3:TrackPointExtension>
        </extensions>
      </trkpt>
      <trkpt lat="42.5993040762841701507568359375" lon="19.983877725899219512939453125">
        <ele>1222</ele>
        <time>2026-06-15T15:30:48.000Z</time>
        <extensions>
          <ns3:TrackPointExtension>
            <ns3:atemp>20.0</ns3:atemp>
          </ns3:TrackPointExtension>
        </extensions>
      </trkpt>
      <trkpt lat="42.5993040762841701507568359375" lon="19.983877725899219512939453125">
        <ele>1222</ele>
        <time>2026-06-15T15:30:49.000Z</time>
        <extensions>
          <ns3:TrackPointExtension>
            <ns3:atemp>20.0</ns3:atemp>
          </ns3:TrackPointExtension>
        </extensions>
      </trkpt>
      <trkpt lat="42.5993040762841701507568359375" lon="19.983877725899219512939453125">
        <ele>1222</ele>
        <time>2026-06-15T15:30:50.000Z</time>
        <extensions>
          <ns3:TrackPointExtension>
            <ns3:atemp>20.0</ns3:atemp>
          </ns3:TrackPointExtension>
        </extensions>
      </trkpt>
      <trkpt lat="42.5993040762841701507568359375" lon="19.983877725899219512939453125">
        <ele>1222</ele>
        <time>2026-06-15T15:30:51.000Z</time>
        <extensions>
          <ns3:TrackPointExtension>
            <ns3:atemp>20.0</ns3:atemp>
          </ns3:TrackPointExtension>
        </extensions>
      </trkpt>
      <trkpt lat="42.5993040762841701507568359375" lon="19.983877725899219512939453125">
        <ele>1222</ele>
        <time>2026-06-15T15:30:52.000Z</time>
        <extensions>
          <ns3:TrackPointExtension>
            <ns3:atemp>20.0</ns3:atemp>
          </ns3:TrackPointExtension>
        </extensions>
      </trkpt>
      <trkpt lat="42.5993040762841701507568359375" lon="19.983877725899219512939453125">
        <ele>1222</ele>
        <time>2026-06-15T15:30:53.000Z</time>
        <extensions>
          <ns3:TrackPointExtension>
            <ns3:atemp>20.0</ns3:atemp>
          </ns3:TrackPointExtension>
        </extensions>
      </trkpt>
      <trkpt lat="42.5993040762841701507568359375" lon="19.983877725899219512939453125">
        <ele>1222</ele>
        <time>2026-06-15T15:30:54.000Z</time>
        <extensions>
          <ns3:TrackPointExtension>
            <ns3:atemp>20.0</ns3:atemp>
          </ns3:TrackPointExtension>
        </extensions>
      </trkpt>
      <trkpt lat="42.5993040762841701507568359375" lon="19.983877725899219512939453125">
        <ele>1222</ele>
        <time>2026-06-15T15:30:55.000Z</time>
        <extensions>
          <ns3:TrackPointExtension>
            <ns3:atemp>20.0</ns3:atemp>
          </ns3:TrackPointExtension>
        </extensions>
      </trkpt>
      <trkpt lat="42.5993040762841701507568359375" lon="19.983877725899219512939453125">
        <ele>1222</ele>
        <time>2026-06-15T15:30:56.000Z</time>
        <extensions>
          <ns3:TrackPointExtension>
            <ns3:atemp>20.0</ns3:atemp>
          </ns3:TrackPointExtension>
        </extensions>
      </trkpt>
      <trkpt lat="42.5993040762841701507568359375" lon="19.983877725899219512939453125">
        <ele>1222</ele>
        <time>2026-06-15T15:30:57.000Z</time>
        <extensions>
          <ns3:TrackPointExtension>
            <ns3:atemp>20.0</ns3:atemp>
          </ns3:TrackPointExtension>
        </extensions>
      </trkpt>
      <trkpt lat="42.5993040762841701507568359375" lon="19.983877725899219512939453125">
        <ele>1222</ele>
        <time>2026-06-15T15:30:58.000Z</time>
        <extensions>
          <ns3:TrackPointExtension>
            <ns3:atemp>20.0</ns3:atemp>
          </ns3:TrackPointExtension>
        </extensions>
      </trkpt>
      <trkpt lat="42.5993040762841701507568359375" lon="19.983877725899219512939453125">
        <ele>1222</ele>
        <time>2026-06-15T15:30:59.000Z</time>
        <extensions>
          <ns3:TrackPointExtension>
            <ns3:atemp>20.0</ns3:atemp>
          </ns3:TrackPointExtension>
        </extensions>
      </trkpt>
      <trkpt lat="42.5993040762841701507568359375" lon="19.983877725899219512939453125">
        <ele>1222</ele>
        <time>2026-06-15T15:31:00.000Z</time>
        <extensions>
          <ns3:TrackPointExtension>
            <ns3:atemp>20.0</ns3:atemp>
          </ns3:TrackPointExtension>
        </extensions>
      </trkpt>
      <trkpt lat="42.5993040762841701507568359375" lon="19.983877725899219512939453125">
        <ele>1222</ele>
        <time>2026-06-15T15:31:01.000Z</time>
        <extensions>
          <ns3:TrackPointExtension>
            <ns3:atemp>20.0</ns3:atemp>
          </ns3:TrackPointExtension>
        </extensions>
      </trkpt>
      <trkpt lat="42.5993040762841701507568359375" lon="19.983877725899219512939453125">
        <ele>1222</ele>
        <time>2026-06-15T15:31:02.000Z</time>
        <extensions>
          <ns3:TrackPointExtension>
            <ns3:atemp>20.0</ns3:atemp>
          </ns3:TrackPointExtension>
        </extensions>
      </trkpt>
      <trkpt lat="42.5993040762841701507568359375" lon="19.983877725899219512939453125">
        <ele>1222</ele>
        <time>2026-06-15T15:31:03.000Z</time>
        <extensions>
          <ns3:TrackPointExtension>
            <ns3:atemp>20.0</ns3:atemp>
          </ns3:TrackPointExtension>
        </extensions>
      </trkpt>
      <trkpt lat="42.5993040762841701507568359375" lon="19.983877725899219512939453125">
        <ele>1222</ele>
        <time>2026-06-15T15:31:04.000Z</time>
        <extensions>
          <ns3:TrackPointExtension>
            <ns3:atemp>20.0</ns3:atemp>
          </ns3:TrackPointExtension>
        </extensions>
      </trkpt>
      <trkpt lat="42.5993040762841701507568359375" lon="19.983877725899219512939453125">
        <ele>1222</ele>
        <time>2026-06-15T15:31:05.000Z</time>
        <extensions>
          <ns3:TrackPointExtension>
            <ns3:atemp>20.0</ns3:atemp>
          </ns3:TrackPointExtension>
        </extensions>
      </trkpt>
      <trkpt lat="42.5993040762841701507568359375" lon="19.983877725899219512939453125">
        <ele>1222</ele>
        <time>2026-06-15T15:31:06.000Z</time>
        <extensions>
          <ns3:TrackPointExtension>
            <ns3:atemp>20.0</ns3:atemp>
          </ns3:TrackPointExtension>
        </extensions>
      </trkpt>
      <trkpt lat="42.5993040762841701507568359375" lon="19.983877725899219512939453125">
        <ele>1222</ele>
        <time>2026-06-15T15:31:07.000Z</time>
        <extensions>
          <ns3:TrackPointExtension>
            <ns3:atemp>20.0</ns3:atemp>
          </ns3:TrackPointExtension>
        </extensions>
      </trkpt>
      <trkpt lat="42.5993040762841701507568359375" lon="19.983877725899219512939453125">
        <ele>1222</ele>
        <time>2026-06-15T15:31:08.000Z</time>
        <extensions>
          <ns3:TrackPointExtension>
            <ns3:atemp>20.0</ns3:atemp>
          </ns3:TrackPointExtension>
        </extensions>
      </trkpt>
      <trkpt lat="42.5993040762841701507568359375" lon="19.983877725899219512939453125">
        <ele>1222</ele>
        <time>2026-06-15T15:31:09.000Z</time>
        <extensions>
          <ns3:TrackPointExtension>
            <ns3:atemp>20.0</ns3:atemp>
          </ns3:TrackPointExtension>
        </extensions>
      </trkpt>
      <trkpt lat="42.5993040762841701507568359375" lon="19.983877725899219512939453125">
        <ele>1222</ele>
        <time>2026-06-15T15:31:10.000Z</time>
        <extensions>
          <ns3:TrackPointExtension>
            <ns3:atemp>20.0</ns3:atemp>
          </ns3:TrackPointExtension>
        </extensions>
      </trkpt>
      <trkpt lat="42.5993040762841701507568359375" lon="19.983877725899219512939453125">
        <ele>1222</ele>
        <time>2026-06-15T15:31:11.000Z</time>
        <extensions>
          <ns3:TrackPointExtension>
            <ns3:atemp>20.0</ns3:atemp>
          </ns3:TrackPointExtension>
        </extensions>
      </trkpt>
      <trkpt lat="42.5993040762841701507568359375" lon="19.983877725899219512939453125">
        <ele>1222</ele>
        <time>2026-06-15T15:31:12.000Z</time>
        <extensions>
          <ns3:TrackPointExtension>
            <ns3:atemp>20.0</ns3:atemp>
          </ns3:TrackPointExtension>
        </extensions>
      </trkpt>
      <trkpt lat="42.5993040762841701507568359375" lon="19.983877725899219512939453125">
        <ele>1222</ele>
        <time>2026-06-15T15:31:13.000Z</time>
        <extensions>
          <ns3:TrackPointExtension>
            <ns3:atemp>20.0</ns3:atemp>
          </ns3:TrackPointExtension>
        </extensions>
      </trkpt>
      <trkpt lat="42.5993040762841701507568359375" lon="19.983877725899219512939453125">
        <ele>1222</ele>
        <time>2026-06-15T15:31:14.000Z</time>
        <extensions>
          <ns3:TrackPointExtension>
            <ns3:atemp>20.0</ns3:atemp>
          </ns3:TrackPointExtension>
        </extensions>
      </trkpt>
      <trkpt lat="42.5993040762841701507568359375" lon="19.983877725899219512939453125">
        <ele>1222</ele>
        <time>2026-06-15T15:31:15.000Z</time>
        <extensions>
          <ns3:TrackPointExtension>
            <ns3:atemp>20.0</ns3:atemp>
          </ns3:TrackPointExtension>
        </extensions>
      </trkpt>
      <trkpt lat="42.5993040762841701507568359375" lon="19.983877725899219512939453125">
        <ele>1222</ele>
        <time>2026-06-15T15:31:16.000Z</time>
        <extensions>
          <ns3:TrackPointExtension>
            <ns3:atemp>20.0</ns3:atemp>
          </ns3:TrackPointExtension>
        </extensions>
      </trkpt>
      <trkpt lat="42.5993040762841701507568359375" lon="19.983877725899219512939453125">
        <ele>1222</ele>
        <time>2026-06-15T15:31:17.000Z</time>
        <extensions>
          <ns3:TrackPointExtension>
            <ns3:atemp>20.0</ns3:atemp>
          </ns3:TrackPointExtension>
        </extensions>
      </trkpt>
      <trkpt lat="42.5993040762841701507568359375" lon="19.983877725899219512939453125">
        <ele>1222</ele>
        <time>2026-06-15T15:31:18.000Z</time>
        <extensions>
          <ns3:TrackPointExtension>
            <ns3:atemp>20.0</ns3:atemp>
          </ns3:TrackPointExtension>
        </extensions>
      </trkpt>
      <trkpt lat="42.5993040762841701507568359375" lon="19.983877725899219512939453125">
        <ele>1222</ele>
        <time>2026-06-15T15:31:19.000Z</time>
        <extensions>
          <ns3:TrackPointExtension>
            <ns3:atemp>20.0</ns3:atemp>
          </ns3:TrackPointExtension>
        </extensions>
      </trkpt>
      <trkpt lat="42.5993040762841701507568359375" lon="19.983877725899219512939453125">
        <ele>1222</ele>
        <time>2026-06-15T15:31:20.000Z</time>
        <extensions>
          <ns3:TrackPointExtension>
            <ns3:atemp>20.0</ns3:atemp>
          </ns3:TrackPointExtension>
        </extensions>
      </trkpt>
      <trkpt lat="42.5993040762841701507568359375" lon="19.983877725899219512939453125">
        <ele>1222</ele>
        <time>2026-06-15T15:31:21.000Z</time>
        <extensions>
          <ns3:TrackPointExtension>
            <ns3:atemp>20.0</ns3:atemp>
          </ns3:TrackPointExtension>
        </extensions>
      </trkpt>
      <trkpt lat="42.5993040762841701507568359375" lon="19.983877725899219512939453125">
        <ele>1222</ele>
        <time>2026-06-15T15:31:22.000Z</time>
        <extensions>
          <ns3:TrackPointExtension>
            <ns3:atemp>20.0</ns3:atemp>
          </ns3:TrackPointExtension>
        </extensions>
      </trkpt>
      <trkpt lat="42.5993040762841701507568359375" lon="19.983877725899219512939453125">
        <ele>1222</ele>
        <time>2026-06-15T15:31:23.000Z</time>
        <extensions>
          <ns3:TrackPointExtension>
            <ns3:atemp>20.0</ns3:atemp>
          </ns3:TrackPointExtension>
        </extensions>
      </trkpt>
      <trkpt lat="42.5993040762841701507568359375" lon="19.983877725899219512939453125">
        <ele>1222</ele>
        <time>2026-06-15T15:31:24.000Z</time>
        <extensions>
          <ns3:TrackPointExtension>
            <ns3:atemp>20.0</ns3:atemp>
          </ns3:TrackPointExtension>
        </extensions>
      </trkpt>
      <trkpt lat="42.5993040762841701507568359375" lon="19.983877725899219512939453125">
        <ele>1222</ele>
        <time>2026-06-15T15:31:25.000Z</time>
        <extensions>
          <ns3:TrackPointExtension>
            <ns3:atemp>20.0</ns3:atemp>
          </ns3:TrackPointExtension>
        </extensions>
      </trkpt>
      <trkpt lat="42.5993040762841701507568359375" lon="19.983877725899219512939453125">
        <ele>1222</ele>
        <time>2026-06-15T15:31:26.000Z</time>
        <extensions>
          <ns3:TrackPointExtension>
            <ns3:atemp>20.0</ns3:atemp>
          </ns3:TrackPointExtension>
        </extensions>
      </trkpt>
      <trkpt lat="42.5993040762841701507568359375" lon="19.983877725899219512939453125">
        <ele>1222</ele>
        <time>2026-06-15T15:31:27.000Z</time>
        <extensions>
          <ns3:TrackPointExtension>
            <ns3:atemp>20.0</ns3:atemp>
          </ns3:TrackPointExtension>
        </extensions>
      </trkpt>
      <trkpt lat="42.5993040762841701507568359375" lon="19.983877725899219512939453125">
        <ele>1222</ele>
        <time>2026-06-15T15:31:28.000Z</time>
        <extensions>
          <ns3:TrackPointExtension>
            <ns3:atemp>20.0</ns3:atemp>
          </ns3:TrackPointExtension>
        </extensions>
      </trkpt>
      <trkpt lat="42.5993040762841701507568359375" lon="19.983877725899219512939453125">
        <ele>1222</ele>
        <time>2026-06-15T15:31:29.000Z</time>
        <extensions>
          <ns3:TrackPointExtension>
            <ns3:atemp>20.0</ns3:atemp>
          </ns3:TrackPointExtension>
        </extensions>
      </trkpt>
      <trkpt lat="42.5993040762841701507568359375" lon="19.983877725899219512939453125">
        <ele>1222</ele>
        <time>2026-06-15T15:31:30.000Z</time>
        <extensions>
          <ns3:TrackPointExtension>
            <ns3:atemp>20.0</ns3:atemp>
          </ns3:TrackPointExtension>
        </extensions>
      </trkpt>
      <trkpt lat="42.5993040762841701507568359375" lon="19.983877725899219512939453125">
        <ele>1222</ele>
        <time>2026-06-15T15:31:31.000Z</time>
        <extensions>
          <ns3:TrackPointExtension>
            <ns3:atemp>20.0</ns3:atemp>
          </ns3:TrackPointExtension>
        </extensions>
      </trkpt>
      <trkpt lat="42.5993040762841701507568359375" lon="19.983877725899219512939453125">
        <ele>1222</ele>
        <time>2026-06-15T15:31:32.000Z</time>
        <extensions>
          <ns3:TrackPointExtension>
            <ns3:atemp>20.0</ns3:atemp>
          </ns3:TrackPointExtension>
        </extensions>
      </trkpt>
      <trkpt lat="42.5993040762841701507568359375" lon="19.983877725899219512939453125">
        <ele>1222</ele>
        <time>2026-06-15T15:31:33.000Z</time>
        <extensions>
          <ns3:TrackPointExtension>
            <ns3:atemp>20.0</ns3:atemp>
          </ns3:TrackPointExtension>
        </extensions>
      </trkpt>
      <trkpt lat="42.5993040762841701507568359375" lon="19.983877725899219512939453125">
        <ele>1222</ele>
        <time>2026-06-15T15:31:34.000Z</time>
        <extensions>
          <ns3:TrackPointExtension>
            <ns3:atemp>20.0</ns3:atemp>
          </ns3:TrackPointExtension>
        </extensions>
      </trkpt>
      <trkpt lat="42.5993040762841701507568359375" lon="19.983877725899219512939453125">
        <ele>1222</ele>
        <time>2026-06-15T15:31:35.000Z</time>
        <extensions>
          <ns3:TrackPointExtension>
            <ns3:atemp>20.0</ns3:atemp>
          </ns3:TrackPointExtension>
        </extensions>
      </trkpt>
      <trkpt lat="42.5993040762841701507568359375" lon="19.983877725899219512939453125">
        <ele>1222</ele>
        <time>2026-06-15T15:31:36.000Z</time>
        <extensions>
          <ns3:TrackPointExtension>
            <ns3:atemp>20.0</ns3:atemp>
          </ns3:TrackPointExtension>
        </extensions>
      </trkpt>
      <trkpt lat="42.5993040762841701507568359375" lon="19.983877725899219512939453125">
        <ele>1222</ele>
        <time>2026-06-15T15:31:37.000Z</time>
        <extensions>
          <ns3:TrackPointExtension>
            <ns3:atemp>20.0</ns3:atemp>
          </ns3:TrackPointExtension>
        </extensions>
      </trkpt>
      <trkpt lat="42.5993040762841701507568359375" lon="19.983877725899219512939453125">
        <ele>1222</ele>
        <time>2026-06-15T15:31:38.000Z</time>
        <extensions>
          <ns3:TrackPointExtension>
            <ns3:atemp>20.0</ns3:atemp>
          </ns3:TrackPointExtension>
        </extensions>
      </trkpt>
      <trkpt lat="42.5993040762841701507568359375" lon="19.983877725899219512939453125">
        <ele>1222</ele>
        <time>2026-06-15T15:31:39.000Z</time>
        <extensions>
          <ns3:TrackPointExtension>
            <ns3:atemp>20.0</ns3:atemp>
          </ns3:TrackPointExtension>
        </extensions>
      </trkpt>
      <trkpt lat="42.5993040762841701507568359375" lon="19.983877725899219512939453125">
        <ele>1222</ele>
        <time>2026-06-15T15:31:40.000Z</time>
        <extensions>
          <ns3:TrackPointExtension>
            <ns3:atemp>20.0</ns3:atemp>
          </ns3:TrackPointExtension>
        </extensions>
      </trkpt>
      <trkpt lat="42.5993040762841701507568359375" lon="19.983877725899219512939453125">
        <ele>1222</ele>
        <time>2026-06-15T15:31:41.000Z</time>
        <extensions>
          <ns3:TrackPointExtension>
            <ns3:atemp>20.0</ns3:atemp>
          </ns3:TrackPointExtension>
        </extensions>
      </trkpt>
      <trkpt lat="42.5993040762841701507568359375" lon="19.983877725899219512939453125">
        <ele>1222</ele>
        <time>2026-06-15T15:31:42.000Z</time>
        <extensions>
          <ns3:TrackPointExtension>
            <ns3:atemp>20.0</ns3:atemp>
          </ns3:TrackPointExtension>
        </extensions>
      </trkpt>
      <trkpt lat="42.5993040762841701507568359375" lon="19.983877725899219512939453125">
        <ele>1222</ele>
        <time>2026-06-15T15:31:43.000Z</time>
        <extensions>
          <ns3:TrackPointExtension>
            <ns3:atemp>20.0</ns3:atemp>
          </ns3:TrackPointExtension>
        </extensions>
      </trkpt>
      <trkpt lat="42.5993040762841701507568359375" lon="19.983877725899219512939453125">
        <ele>1222</ele>
        <time>2026-06-15T15:31:44.000Z</time>
        <extensions>
          <ns3:TrackPointExtension>
            <ns3:atemp>20.0</ns3:atemp>
          </ns3:TrackPointExtension>
        </extensions>
      </trkpt>
      <trkpt lat="42.5993040762841701507568359375" lon="19.983877725899219512939453125">
        <ele>1222</ele>
        <time>2026-06-15T15:31:45.000Z</time>
        <extensions>
          <ns3:TrackPointExtension>
            <ns3:atemp>20.0</ns3:atemp>
          </ns3:TrackPointExtension>
        </extensions>
      </trkpt>
      <trkpt lat="42.5993040762841701507568359375" lon="19.983877725899219512939453125">
        <ele>1222</ele>
        <time>2026-06-15T15:31:46.000Z</time>
        <extensions>
          <ns3:TrackPointExtension>
            <ns3:atemp>20.0</ns3:atemp>
          </ns3:TrackPointExtension>
        </extensions>
      </trkpt>
      <trkpt lat="42.5993040762841701507568359375" lon="19.983877725899219512939453125">
        <ele>1222</ele>
        <time>2026-06-15T15:31:47.000Z</time>
        <extensions>
          <ns3:TrackPointExtension>
            <ns3:atemp>20.0</ns3:atemp>
          </ns3:TrackPointExtension>
        </extensions>
      </trkpt>
      <trkpt lat="42.5993040762841701507568359375" lon="19.983877725899219512939453125">
        <ele>1222</ele>
        <time>2026-06-15T15:31:48.000Z</time>
        <extensions>
          <ns3:TrackPointExtension>
            <ns3:atemp>20.0</ns3:atemp>
          </ns3:TrackPointExtension>
        </extensions>
      </trkpt>
      <trkpt lat="42.5993040762841701507568359375" lon="19.983877725899219512939453125">
        <ele>1222</ele>
        <time>2026-06-15T15:31:49.000Z</time>
        <extensions>
          <ns3:TrackPointExtension>
            <ns3:atemp>20.0</ns3:atemp>
          </ns3:TrackPointExtension>
        </extensions>
      </trkpt>
      <trkpt lat="42.5993040762841701507568359375" lon="19.983877725899219512939453125">
        <ele>1222</ele>
        <time>2026-06-15T15:31:50.000Z</time>
        <extensions>
          <ns3:TrackPointExtension>
            <ns3:atemp>20.0</ns3:atemp>
          </ns3:TrackPointExtension>
        </extensions>
      </trkpt>
      <trkpt lat="42.5993040762841701507568359375" lon="19.983877725899219512939453125">
        <ele>1222</ele>
        <time>2026-06-15T15:31:51.000Z</time>
        <extensions>
          <ns3:TrackPointExtension>
            <ns3:atemp>20.0</ns3:atemp>
          </ns3:TrackPointExtension>
        </extensions>
      </trkpt>
      <trkpt lat="42.5993040762841701507568359375" lon="19.983877725899219512939453125">
        <ele>1222</ele>
        <time>2026-06-15T15:31:52.000Z</time>
        <extensions>
          <ns3:TrackPointExtension>
            <ns3:atemp>20.0</ns3:atemp>
          </ns3:TrackPointExtension>
        </extensions>
      </trkpt>
      <trkpt lat="42.5993040762841701507568359375" lon="19.983877725899219512939453125">
        <ele>1222</ele>
        <time>2026-06-15T15:31:53.000Z</time>
        <extensions>
          <ns3:TrackPointExtension>
            <ns3:atemp>20.0</ns3:atemp>
          </ns3:TrackPointExtension>
        </extensions>
      </trkpt>
      <trkpt lat="42.5993040762841701507568359375" lon="19.983877725899219512939453125">
        <ele>1222</ele>
        <time>2026-06-15T15:31:54.000Z</time>
        <extensions>
          <ns3:TrackPointExtension>
            <ns3:atemp>20.0</ns3:atemp>
          </ns3:TrackPointExtension>
        </extensions>
      </trkpt>
      <trkpt lat="42.5993040762841701507568359375" lon="19.983877725899219512939453125">
        <ele>1222</ele>
        <time>2026-06-15T15:31:55.000Z</time>
        <extensions>
          <ns3:TrackPointExtension>
            <ns3:atemp>20.0</ns3:atemp>
          </ns3:TrackPointExtension>
        </extensions>
      </trkpt>
      <trkpt lat="42.5993040762841701507568359375" lon="19.983877725899219512939453125">
        <ele>1222</ele>
        <time>2026-06-15T15:31:56.000Z</time>
        <extensions>
          <ns3:TrackPointExtension>
            <ns3:atemp>20.0</ns3:atemp>
          </ns3:TrackPointExtension>
        </extensions>
      </trkpt>
      <trkpt lat="42.5993040762841701507568359375" lon="19.983877725899219512939453125">
        <ele>1222</ele>
        <time>2026-06-15T15:31:57.000Z</time>
        <extensions>
          <ns3:TrackPointExtension>
            <ns3:atemp>20.0</ns3:atemp>
          </ns3:TrackPointExtension>
        </extensions>
      </trkpt>
      <trkpt lat="42.5993040762841701507568359375" lon="19.983877725899219512939453125">
        <ele>1222</ele>
        <time>2026-06-15T15:31:58.000Z</time>
        <extensions>
          <ns3:TrackPointExtension>
            <ns3:atemp>20.0</ns3:atemp>
          </ns3:TrackPointExtension>
        </extensions>
      </trkpt>
      <trkpt lat="42.5993040762841701507568359375" lon="19.983877725899219512939453125">
        <ele>1222</ele>
        <time>2026-06-15T15:31:59.000Z</time>
        <extensions>
          <ns3:TrackPointExtension>
            <ns3:atemp>20.0</ns3:atemp>
          </ns3:TrackPointExtension>
        </extensions>
      </trkpt>
      <trkpt lat="42.5993040762841701507568359375" lon="19.983877725899219512939453125">
        <ele>1222</ele>
        <time>2026-06-15T15:32:00.000Z</time>
        <extensions>
          <ns3:TrackPointExtension>
            <ns3:atemp>20.0</ns3:atemp>
          </ns3:TrackPointExtension>
        </extensions>
      </trkpt>
      <trkpt lat="42.5993040762841701507568359375" lon="19.983877725899219512939453125">
        <ele>1222</ele>
        <time>2026-06-15T15:32:01.000Z</time>
        <extensions>
          <ns3:TrackPointExtension>
            <ns3:atemp>20.0</ns3:atemp>
          </ns3:TrackPointExtension>
        </extensions>
      </trkpt>
      <trkpt lat="42.5993040762841701507568359375" lon="19.983877725899219512939453125">
        <ele>1222</ele>
        <time>2026-06-15T15:32:02.000Z</time>
        <extensions>
          <ns3:TrackPointExtension>
            <ns3:atemp>20.0</ns3:atemp>
          </ns3:TrackPointExtension>
        </extensions>
      </trkpt>
      <trkpt lat="42.5993040762841701507568359375" lon="19.983877725899219512939453125">
        <ele>1222</ele>
        <time>2026-06-15T15:32:03.000Z</time>
        <extensions>
          <ns3:TrackPointExtension>
            <ns3:atemp>20.0</ns3:atemp>
          </ns3:TrackPointExtension>
        </extensions>
      </trkpt>
      <trkpt lat="42.5993040762841701507568359375" lon="19.983877725899219512939453125">
        <ele>1222</ele>
        <time>2026-06-15T15:32:04.000Z</time>
        <extensions>
          <ns3:TrackPointExtension>
            <ns3:atemp>20.0</ns3:atemp>
          </ns3:TrackPointExtension>
        </extensions>
      </trkpt>
      <trkpt lat="42.5993040762841701507568359375" lon="19.983877725899219512939453125">
        <ele>1222</ele>
        <time>2026-06-15T15:32:05.000Z</time>
        <extensions>
          <ns3:TrackPointExtension>
            <ns3:atemp>20.0</ns3:atemp>
          </ns3:TrackPointExtension>
        </extensions>
      </trkpt>
      <trkpt lat="42.5993040762841701507568359375" lon="19.983877725899219512939453125">
        <ele>1222</ele>
        <time>2026-06-15T15:32:06.000Z</time>
        <extensions>
          <ns3:TrackPointExtension>
            <ns3:atemp>20.0</ns3:atemp>
          </ns3:TrackPointExtension>
        </extensions>
      </trkpt>
      <trkpt lat="42.5993040762841701507568359375" lon="19.983877725899219512939453125">
        <ele>1222</ele>
        <time>2026-06-15T15:32:07.000Z</time>
        <extensions>
          <ns3:TrackPointExtension>
            <ns3:atemp>20.0</ns3:atemp>
          </ns3:TrackPointExtension>
        </extensions>
      </trkpt>
      <trkpt lat="42.5993040762841701507568359375" lon="19.983877725899219512939453125">
        <ele>1222</ele>
        <time>2026-06-15T15:32:08.000Z</time>
        <extensions>
          <ns3:TrackPointExtension>
            <ns3:atemp>20.0</ns3:atemp>
          </ns3:TrackPointExtension>
        </extensions>
      </trkpt>
      <trkpt lat="42.5993040762841701507568359375" lon="19.983877725899219512939453125">
        <ele>1222</ele>
        <time>2026-06-15T15:32:09.000Z</time>
        <extensions>
          <ns3:TrackPointExtension>
            <ns3:atemp>20.0</ns3:atemp>
          </ns3:TrackPointExtension>
        </extensions>
      </trkpt>
      <trkpt lat="42.5993040762841701507568359375" lon="19.983877725899219512939453125">
        <ele>1222</ele>
        <time>2026-06-15T15:32:10.000Z</time>
        <extensions>
          <ns3:TrackPointExtension>
            <ns3:atemp>20.0</ns3:atemp>
          </ns3:TrackPointExtension>
        </extensions>
      </trkpt>
      <trkpt lat="42.5993040762841701507568359375" lon="19.983877725899219512939453125">
        <ele>1222</ele>
        <time>2026-06-15T15:32:11.000Z</time>
        <extensions>
          <ns3:TrackPointExtension>
            <ns3:atemp>20.0</ns3:atemp>
          </ns3:TrackPointExtension>
        </extensions>
      </trkpt>
      <trkpt lat="42.5993040762841701507568359375" lon="19.983877725899219512939453125">
        <ele>1222</ele>
        <time>2026-06-15T15:32:12.000Z</time>
        <extensions>
          <ns3:TrackPointExtension>
            <ns3:atemp>20.0</ns3:atemp>
          </ns3:TrackPointExtension>
        </extensions>
      </trkpt>
      <trkpt lat="42.5993040762841701507568359375" lon="19.983877725899219512939453125">
        <ele>1222</ele>
        <time>2026-06-15T15:32:13.000Z</time>
        <extensions>
          <ns3:TrackPointExtension>
            <ns3:atemp>20.0</ns3:atemp>
          </ns3:TrackPointExtension>
        </extensions>
      </trkpt>
      <trkpt lat="42.5993040762841701507568359375" lon="19.983877725899219512939453125">
        <ele>1222</ele>
        <time>2026-06-15T15:32:14.000Z</time>
        <extensions>
          <ns3:TrackPointExtension>
            <ns3:atemp>20.0</ns3:atemp>
          </ns3:TrackPointExtension>
        </extensions>
      </trkpt>
      <trkpt lat="42.5993040762841701507568359375" lon="19.983877725899219512939453125">
        <ele>1222</ele>
        <time>2026-06-15T15:32:15.000Z</time>
        <extensions>
          <ns3:TrackPointExtension>
            <ns3:atemp>20.0</ns3:atemp>
          </ns3:TrackPointExtension>
        </extensions>
      </trkpt>
      <trkpt lat="42.5993040762841701507568359375" lon="19.983877725899219512939453125">
        <ele>1222</ele>
        <time>2026-06-15T15:32:16.000Z</time>
        <extensions>
          <ns3:TrackPointExtension>
            <ns3:atemp>20.0</ns3:atemp>
          </ns3:TrackPointExtension>
        </extensions>
      </trkpt>
      <trkpt lat="42.5993040762841701507568359375" lon="19.983877725899219512939453125">
        <ele>1222</ele>
        <time>2026-06-15T15:32:17.000Z</time>
        <extensions>
          <ns3:TrackPointExtension>
            <ns3:atemp>20.0</ns3:atemp>
          </ns3:TrackPointExtension>
        </extensions>
      </trkpt>
      <trkpt lat="42.5993040762841701507568359375" lon="19.983877725899219512939453125">
        <ele>1222</ele>
        <time>2026-06-15T15:32:18.000Z</time>
        <extensions>
          <ns3:TrackPointExtension>
            <ns3:atemp>20.0</ns3:atemp>
          </ns3:TrackPointExtension>
        </extensions>
      </trkpt>
      <trkpt lat="42.5993040762841701507568359375" lon="19.983877725899219512939453125">
        <ele>1222</ele>
        <time>2026-06-15T15:32:19.000Z</time>
        <extensions>
          <ns3:TrackPointExtension>
            <ns3:atemp>20.0</ns3:atemp>
          </ns3:TrackPointExtension>
        </extensions>
      </trkpt>
      <trkpt lat="42.5993040762841701507568359375" lon="19.983877725899219512939453125">
        <ele>1222</ele>
        <time>2026-06-15T15:32:20.000Z</time>
        <extensions>
          <ns3:TrackPointExtension>
            <ns3:atemp>20.0</ns3:atemp>
          </ns3:TrackPointExtension>
        </extensions>
      </trkpt>
      <trkpt lat="42.5993040762841701507568359375" lon="19.983877725899219512939453125">
        <ele>1222</ele>
        <time>2026-06-15T15:32:21.000Z</time>
        <extensions>
          <ns3:TrackPointExtension>
            <ns3:atemp>20.0</ns3:atemp>
          </ns3:TrackPointExtension>
        </extensions>
      </trkpt>
      <trkpt lat="42.5993040762841701507568359375" lon="19.983877725899219512939453125">
        <ele>1222</ele>
        <time>2026-06-15T15:32:22.000Z</time>
        <extensions>
          <ns3:TrackPointExtension>
            <ns3:atemp>20.0</ns3:atemp>
          </ns3:TrackPointExtension>
        </extensions>
      </trkpt>
      <trkpt lat="42.5993040762841701507568359375" lon="19.983877725899219512939453125">
        <ele>1222</ele>
        <time>2026-06-15T15:32:23.000Z</time>
        <extensions>
          <ns3:TrackPointExtension>
            <ns3:atemp>20.0</ns3:atemp>
          </ns3:TrackPointExtension>
        </extensions>
      </trkpt>
      <trkpt lat="42.5993040762841701507568359375" lon="19.983877725899219512939453125">
        <ele>1222</ele>
        <time>2026-06-15T15:32:24.000Z</time>
        <extensions>
          <ns3:TrackPointExtension>
            <ns3:atemp>20.0</ns3:atemp>
          </ns3:TrackPointExtension>
        </extensions>
      </trkpt>
      <trkpt lat="42.5993040762841701507568359375" lon="19.983877725899219512939453125">
        <ele>1222</ele>
        <time>2026-06-15T15:32:25.000Z</time>
        <extensions>
          <ns3:TrackPointExtension>
            <ns3:atemp>20.0</ns3:atemp>
          </ns3:TrackPointExtension>
        </extensions>
      </trkpt>
      <trkpt lat="42.5993040762841701507568359375" lon="19.983877725899219512939453125">
        <ele>1222</ele>
        <time>2026-06-15T15:32:26.000Z</time>
        <extensions>
          <ns3:TrackPointExtension>
            <ns3:atemp>20.0</ns3:atemp>
          </ns3:TrackPointExtension>
        </extensions>
      </trkpt>
      <trkpt lat="42.5993040762841701507568359375" lon="19.983877725899219512939453125">
        <ele>1222</ele>
        <time>2026-06-15T15:32:27.000Z</time>
        <extensions>
          <ns3:TrackPointExtension>
            <ns3:atemp>20.0</ns3:atemp>
          </ns3:TrackPointExtension>
        </extensions>
      </trkpt>
      <trkpt lat="42.5993040762841701507568359375" lon="19.983877725899219512939453125">
        <ele>1222</ele>
        <time>2026-06-15T15:32:28.000Z</time>
        <extensions>
          <ns3:TrackPointExtension>
            <ns3:atemp>20.0</ns3:atemp>
          </ns3:TrackPointExtension>
        </extensions>
      </trkpt>
      <trkpt lat="42.5993040762841701507568359375" lon="19.983877725899219512939453125">
        <ele>1222</ele>
        <time>2026-06-15T15:32:29.000Z</time>
        <extensions>
          <ns3:TrackPointExtension>
            <ns3:atemp>20.0</ns3:atemp>
          </ns3:TrackPointExtension>
        </extensions>
      </trkpt>
      <trkpt lat="42.5993040762841701507568359375" lon="19.983877725899219512939453125">
        <ele>1222</ele>
        <time>2026-06-15T15:32:30.000Z</time>
        <extensions>
          <ns3:TrackPointExtension>
            <ns3:atemp>20.0</ns3:atemp>
          </ns3:TrackPointExtension>
        </extensions>
      </trkpt>
      <trkpt lat="42.5993040762841701507568359375" lon="19.983877725899219512939453125">
        <ele>1222</ele>
        <time>2026-06-15T15:32:31.000Z</time>
        <extensions>
          <ns3:TrackPointExtension>
            <ns3:atemp>20.0</ns3:atemp>
          </ns3:TrackPointExtension>
        </extensions>
      </trkpt>
      <trkpt lat="42.5993040762841701507568359375" lon="19.983877725899219512939453125">
        <ele>1222</ele>
        <time>2026-06-15T15:32:32.000Z</time>
        <extensions>
          <ns3:TrackPointExtension>
            <ns3:atemp>20.0</ns3:atemp>
          </ns3:TrackPointExtension>
        </extensions>
      </trkpt>
      <trkpt lat="42.5993040762841701507568359375" lon="19.983877725899219512939453125">
        <ele>1222</ele>
        <time>2026-06-15T15:32:33.000Z</time>
        <extensions>
          <ns3:TrackPointExtension>
            <ns3:atemp>20.0</ns3:atemp>
          </ns3:TrackPointExtension>
        </extensions>
      </trkpt>
      <trkpt lat="42.5993040762841701507568359375" lon="19.983877725899219512939453125">
        <ele>1222</ele>
        <time>2026-06-15T15:32:34.000Z</time>
        <extensions>
          <ns3:TrackPointExtension>
            <ns3:atemp>20.0</ns3:atemp>
          </ns3:TrackPointExtension>
        </extensions>
      </trkpt>
      <trkpt lat="42.5993040762841701507568359375" lon="19.983877725899219512939453125">
        <ele>1222</ele>
        <time>2026-06-15T15:32:35.000Z</time>
        <extensions>
          <ns3:TrackPointExtension>
            <ns3:atemp>20.0</ns3:atemp>
          </ns3:TrackPointExtension>
        </extensions>
      </trkpt>
      <trkpt lat="42.5993040762841701507568359375" lon="19.983877725899219512939453125">
        <ele>1222</ele>
        <time>2026-06-15T15:32:36.000Z</time>
        <extensions>
          <ns3:TrackPointExtension>
            <ns3:atemp>20.0</ns3:atemp>
          </ns3:TrackPointExtension>
        </extensions>
      </trkpt>
      <trkpt lat="42.5993040762841701507568359375" lon="19.983877725899219512939453125">
        <ele>1222</ele>
        <time>2026-06-15T15:32:37.000Z</time>
        <extensions>
          <ns3:TrackPointExtension>
            <ns3:atemp>20.0</ns3:atemp>
          </ns3:TrackPointExtension>
        </extensions>
      </trkpt>
      <trkpt lat="42.5993040762841701507568359375" lon="19.983877725899219512939453125">
        <ele>1222</ele>
        <time>2026-06-15T15:32:38.000Z</time>
        <extensions>
          <ns3:TrackPointExtension>
            <ns3:atemp>20.0</ns3:atemp>
          </ns3:TrackPointExtension>
        </extensions>
      </trkpt>
      <trkpt lat="42.5993040762841701507568359375" lon="19.983877725899219512939453125">
        <ele>1222</ele>
        <time>2026-06-15T15:32:39.000Z</time>
        <extensions>
          <ns3:TrackPointExtension>
            <ns3:atemp>20.0</ns3:atemp>
          </ns3:TrackPointExtension>
        </extensions>
      </trkpt>
      <trkpt lat="42.5993040762841701507568359375" lon="19.983877725899219512939453125">
        <ele>1222</ele>
        <time>2026-06-15T15:32:40.000Z</time>
        <extensions>
          <ns3:TrackPointExtension>
            <ns3:atemp>20.0</ns3:atemp>
          </ns3:TrackPointExtension>
        </extensions>
      </trkpt>
      <trkpt lat="42.5993040762841701507568359375" lon="19.983877725899219512939453125">
        <ele>1222</ele>
        <time>2026-06-15T15:32:41.000Z</time>
        <extensions>
          <ns3:TrackPointExtension>
            <ns3:atemp>20.0</ns3:atemp>
          </ns3:TrackPointExtension>
        </extensions>
      </trkpt>
      <trkpt lat="42.5993040762841701507568359375" lon="19.983877725899219512939453125">
        <ele>1222</ele>
        <time>2026-06-15T15:32:42.000Z</time>
        <extensions>
          <ns3:TrackPointExtension>
            <ns3:atemp>20.0</ns3:atemp>
          </ns3:TrackPointExtension>
        </extensions>
      </trkpt>
      <trkpt lat="42.5993040762841701507568359375" lon="19.983877725899219512939453125">
        <ele>1222</ele>
        <time>2026-06-15T15:32:43.000Z</time>
        <extensions>
          <ns3:TrackPointExtension>
            <ns3:atemp>20.0</ns3:atemp>
          </ns3:TrackPointExtension>
        </extensions>
      </trkpt>
      <trkpt lat="42.5993040762841701507568359375" lon="19.983877725899219512939453125">
        <ele>1222</ele>
        <time>2026-06-15T15:32:44.000Z</time>
        <extensions>
          <ns3:TrackPointExtension>
            <ns3:atemp>20.0</ns3:atemp>
          </ns3:TrackPointExtension>
        </extensions>
      </trkpt>
      <trkpt lat="42.5993040762841701507568359375" lon="19.983877725899219512939453125">
        <ele>1222</ele>
        <time>2026-06-15T15:32:45.000Z</time>
        <extensions>
          <ns3:TrackPointExtension>
            <ns3:atemp>20.0</ns3:atemp>
          </ns3:TrackPointExtension>
        </extensions>
      </trkpt>
      <trkpt lat="42.5993040762841701507568359375" lon="19.983877725899219512939453125">
        <ele>1222</ele>
        <time>2026-06-15T15:32:46.000Z</time>
        <extensions>
          <ns3:TrackPointExtension>
            <ns3:atemp>20.0</ns3:atemp>
          </ns3:TrackPointExtension>
        </extensions>
      </trkpt>
      <trkpt lat="42.5993040762841701507568359375" lon="19.983877725899219512939453125">
        <ele>1222</ele>
        <time>2026-06-15T15:32:47.000Z</time>
        <extensions>
          <ns3:TrackPointExtension>
            <ns3:atemp>20.0</ns3:atemp>
          </ns3:TrackPointExtension>
        </extensions>
      </trkpt>
      <trkpt lat="42.5993040762841701507568359375" lon="19.983877725899219512939453125">
        <ele>1222</ele>
        <time>2026-06-15T15:32:48.000Z</time>
        <extensions>
          <ns3:TrackPointExtension>
            <ns3:atemp>20.0</ns3:atemp>
          </ns3:TrackPointExtension>
        </extensions>
      </trkpt>
      <trkpt lat="42.5993040762841701507568359375" lon="19.983877725899219512939453125">
        <ele>1222</ele>
        <time>2026-06-15T15:32:49.000Z</time>
        <extensions>
          <ns3:TrackPointExtension>
            <ns3:atemp>20.0</ns3:atemp>
          </ns3:TrackPointExtension>
        </extensions>
      </trkpt>
      <trkpt lat="42.5993040762841701507568359375" lon="19.983877725899219512939453125">
        <ele>1222</ele>
        <time>2026-06-15T15:32:50.000Z</time>
        <extensions>
          <ns3:TrackPointExtension>
            <ns3:atemp>20.0</ns3:atemp>
          </ns3:TrackPointExtension>
        </extensions>
      </trkpt>
      <trkpt lat="42.5993040762841701507568359375" lon="19.983877725899219512939453125">
        <ele>1222</ele>
        <time>2026-06-15T15:32:51.000Z</time>
        <extensions>
          <ns3:TrackPointExtension>
            <ns3:atemp>20.0</ns3:atemp>
          </ns3:TrackPointExtension>
        </extensions>
      </trkpt>
      <trkpt lat="42.5993040762841701507568359375" lon="19.983877725899219512939453125">
        <ele>1222</ele>
        <time>2026-06-15T15:32:52.000Z</time>
        <extensions>
          <ns3:TrackPointExtension>
            <ns3:atemp>20.0</ns3:atemp>
          </ns3:TrackPointExtension>
        </extensions>
      </trkpt>
      <trkpt lat="42.5993040762841701507568359375" lon="19.983877725899219512939453125">
        <ele>1222</ele>
        <time>2026-06-15T15:32:53.000Z</time>
        <extensions>
          <ns3:TrackPointExtension>
            <ns3:atemp>20.0</ns3:atemp>
          </ns3:TrackPointExtension>
        </extensions>
      </trkpt>
      <trkpt lat="42.5993040762841701507568359375" lon="19.983877725899219512939453125">
        <ele>1222</ele>
        <time>2026-06-15T15:32:54.000Z</time>
        <extensions>
          <ns3:TrackPointExtension>
            <ns3:atemp>20.0</ns3:atemp>
          </ns3:TrackPointExtension>
        </extensions>
      </trkpt>
      <trkpt lat="42.5993040762841701507568359375" lon="19.983877725899219512939453125">
        <ele>1222</ele>
        <time>2026-06-15T15:32:55.000Z</time>
        <extensions>
          <ns3:TrackPointExtension>
            <ns3:atemp>20.0</ns3:atemp>
          </ns3:TrackPointExtension>
        </extensions>
      </trkpt>
      <trkpt lat="42.5993040762841701507568359375" lon="19.983877725899219512939453125">
        <ele>1222</ele>
        <time>2026-06-15T15:32:56.000Z</time>
        <extensions>
          <ns3:TrackPointExtension>
            <ns3:atemp>20.0</ns3:atemp>
          </ns3:TrackPointExtension>
        </extensions>
      </trkpt>
      <trkpt lat="42.5993040762841701507568359375" lon="19.983877725899219512939453125">
        <ele>1222</ele>
        <time>2026-06-15T15:32:57.000Z</time>
        <extensions>
          <ns3:TrackPointExtension>
            <ns3:atemp>20.0</ns3:atemp>
          </ns3:TrackPointExtension>
        </extensions>
      </trkpt>
      <trkpt lat="42.5993040762841701507568359375" lon="19.983877725899219512939453125">
        <ele>1222</ele>
        <time>2026-06-15T15:32:58.000Z</time>
        <extensions>
          <ns3:TrackPointExtension>
            <ns3:atemp>20.0</ns3:atemp>
          </ns3:TrackPointExtension>
        </extensions>
      </trkpt>
      <trkpt lat="42.5993040762841701507568359375" lon="19.983877725899219512939453125">
        <ele>1222</ele>
        <time>2026-06-15T15:32:59.000Z</time>
        <extensions>
          <ns3:TrackPointExtension>
            <ns3:atemp>20.0</ns3:atemp>
          </ns3:TrackPointExtension>
        </extensions>
      </trkpt>
      <trkpt lat="42.5993040762841701507568359375" lon="19.983877725899219512939453125">
        <ele>1222</ele>
        <time>2026-06-15T15:33:00.000Z</time>
        <extensions>
          <ns3:TrackPointExtension>
            <ns3:atemp>20.0</ns3:atemp>
          </ns3:TrackPointExtension>
        </extensions>
      </trkpt>
      <trkpt lat="42.5993040762841701507568359375" lon="19.983877725899219512939453125">
        <ele>1222</ele>
        <time>2026-06-15T15:33:01.000Z</time>
        <extensions>
          <ns3:TrackPointExtension>
            <ns3:atemp>20.0</ns3:atemp>
          </ns3:TrackPointExtension>
        </extensions>
      </trkpt>
      <trkpt lat="42.5993040762841701507568359375" lon="19.983877725899219512939453125">
        <ele>1222</ele>
        <time>2026-06-15T15:33:02.000Z</time>
        <extensions>
          <ns3:TrackPointExtension>
            <ns3:atemp>20.0</ns3:atemp>
          </ns3:TrackPointExtension>
        </extensions>
      </trkpt>
      <trkpt lat="42.5993040762841701507568359375" lon="19.983877725899219512939453125">
        <ele>1222</ele>
        <time>2026-06-15T15:33:03.000Z</time>
        <extensions>
          <ns3:TrackPointExtension>
            <ns3:atemp>20.0</ns3:atemp>
          </ns3:TrackPointExtension>
        </extensions>
      </trkpt>
      <trkpt lat="42.5993040762841701507568359375" lon="19.983877725899219512939453125">
        <ele>1222</ele>
        <time>2026-06-15T15:33:04.000Z</time>
        <extensions>
          <ns3:TrackPointExtension>
            <ns3:atemp>20.0</ns3:atemp>
          </ns3:TrackPointExtension>
        </extensions>
      </trkpt>
      <trkpt lat="42.5993040762841701507568359375" lon="19.983877725899219512939453125">
        <ele>1222</ele>
        <time>2026-06-15T15:33:05.000Z</time>
        <extensions>
          <ns3:TrackPointExtension>
            <ns3:atemp>20.0</ns3:atemp>
          </ns3:TrackPointExtension>
        </extensions>
      </trkpt>
      <trkpt lat="42.5993040762841701507568359375" lon="19.983877725899219512939453125">
        <ele>1222</ele>
        <time>2026-06-15T15:33:06.000Z</time>
        <extensions>
          <ns3:TrackPointExtension>
            <ns3:atemp>20.0</ns3:atemp>
          </ns3:TrackPointExtension>
        </extensions>
      </trkpt>
      <trkpt lat="42.5993040762841701507568359375" lon="19.983877725899219512939453125">
        <ele>1222</ele>
        <time>2026-06-15T15:33:07.000Z</time>
        <extensions>
          <ns3:TrackPointExtension>
            <ns3:atemp>20.0</ns3:atemp>
          </ns3:TrackPointExtension>
        </extensions>
      </trkpt>
      <trkpt lat="42.5993040762841701507568359375" lon="19.983877725899219512939453125">
        <ele>1222</ele>
        <time>2026-06-15T15:33:08.000Z</time>
        <extensions>
          <ns3:TrackPointExtension>
            <ns3:atemp>20.0</ns3:atemp>
          </ns3:TrackPointExtension>
        </extensions>
      </trkpt>
      <trkpt lat="42.5993040762841701507568359375" lon="19.983877725899219512939453125">
        <ele>1222</ele>
        <time>2026-06-15T15:33:09.000Z</time>
        <extensions>
          <ns3:TrackPointExtension>
            <ns3:atemp>20.0</ns3:atemp>
          </ns3:TrackPointExtension>
        </extensions>
      </trkpt>
      <trkpt lat="42.5993040762841701507568359375" lon="19.983877725899219512939453125">
        <ele>1222</ele>
        <time>2026-06-15T15:33:10.000Z</time>
        <extensions>
          <ns3:TrackPointExtension>
            <ns3:atemp>20.0</ns3:atemp>
          </ns3:TrackPointExtension>
        </extensions>
      </trkpt>
      <trkpt lat="42.5993040762841701507568359375" lon="19.983877725899219512939453125">
        <ele>1222</ele>
        <time>2026-06-15T15:33:11.000Z</time>
        <extensions>
          <ns3:TrackPointExtension>
            <ns3:atemp>20.0</ns3:atemp>
          </ns3:TrackPointExtension>
        </extensions>
      </trkpt>
      <trkpt lat="42.5993040762841701507568359375" lon="19.983877725899219512939453125">
        <ele>1222</ele>
        <time>2026-06-15T15:33:12.000Z</time>
        <extensions>
          <ns3:TrackPointExtension>
            <ns3:atemp>20.0</ns3:atemp>
          </ns3:TrackPointExtension>
        </extensions>
      </trkpt>
      <trkpt lat="42.5993040762841701507568359375" lon="19.983877725899219512939453125">
        <ele>1222</ele>
        <time>2026-06-15T15:33:13.000Z</time>
        <extensions>
          <ns3:TrackPointExtension>
            <ns3:atemp>20.0</ns3:atemp>
          </ns3:TrackPointExtension>
        </extensions>
      </trkpt>
      <trkpt lat="42.5993040762841701507568359375" lon="19.983877725899219512939453125">
        <ele>1222</ele>
        <time>2026-06-15T15:33:14.000Z</time>
        <extensions>
          <ns3:TrackPointExtension>
            <ns3:atemp>20.0</ns3:atemp>
          </ns3:TrackPointExtension>
        </extensions>
      </trkpt>
      <trkpt lat="42.5993040762841701507568359375" lon="19.983877725899219512939453125">
        <ele>1222</ele>
        <time>2026-06-15T15:33:15.000Z</time>
        <extensions>
          <ns3:TrackPointExtension>
            <ns3:atemp>20.0</ns3:atemp>
          </ns3:TrackPointExtension>
        </extensions>
      </trkpt>
      <trkpt lat="42.5993040762841701507568359375" lon="19.983877725899219512939453125">
        <ele>1222</ele>
        <time>2026-06-15T15:33:16.000Z</time>
        <extensions>
          <ns3:TrackPointExtension>
            <ns3:atemp>20.0</ns3:atemp>
          </ns3:TrackPointExtension>
        </extensions>
      </trkpt>
      <trkpt lat="42.5993040762841701507568359375" lon="19.983877725899219512939453125">
        <ele>1222</ele>
        <time>2026-06-15T15:33:17.000Z</time>
        <extensions>
          <ns3:TrackPointExtension>
            <ns3:atemp>20.0</ns3:atemp>
          </ns3:TrackPointExtension>
        </extensions>
      </trkpt>
      <trkpt lat="42.5993040762841701507568359375" lon="19.983877725899219512939453125">
        <ele>1222</ele>
        <time>2026-06-15T15:33:18.000Z</time>
        <extensions>
          <ns3:TrackPointExtension>
            <ns3:atemp>20.0</ns3:atemp>
          </ns3:TrackPointExtension>
        </extensions>
      </trkpt>
      <trkpt lat="42.5993040762841701507568359375" lon="19.983877725899219512939453125">
        <ele>1222</ele>
        <time>2026-06-15T15:33:19.000Z</time>
        <extensions>
          <ns3:TrackPointExtension>
            <ns3:atemp>20.0</ns3:atemp>
          </ns3:TrackPointExtension>
        </extensions>
      </trkpt>
      <trkpt lat="42.5993040762841701507568359375" lon="19.983877725899219512939453125">
        <ele>1222</ele>
        <time>2026-06-15T15:33:20.000Z</time>
        <extensions>
          <ns3:TrackPointExtension>
            <ns3:atemp>20.0</ns3:atemp>
          </ns3:TrackPointExtension>
        </extensions>
      </trkpt>
      <trkpt lat="42.5993040762841701507568359375" lon="19.983877725899219512939453125">
        <ele>1222</ele>
        <time>2026-06-15T15:33:21.000Z</time>
        <extensions>
          <ns3:TrackPointExtension>
            <ns3:atemp>20.0</ns3:atemp>
          </ns3:TrackPointExtension>
        </extensions>
      </trkpt>
      <trkpt lat="42.5993040762841701507568359375" lon="19.983877725899219512939453125">
        <ele>1222</ele>
        <time>2026-06-15T15:33:22.000Z</time>
        <extensions>
          <ns3:TrackPointExtension>
            <ns3:atemp>20.0</ns3:atemp>
          </ns3:TrackPointExtension>
        </extensions>
      </trkpt>
      <trkpt lat="42.5993040762841701507568359375" lon="19.983877725899219512939453125">
        <ele>1222</ele>
        <time>2026-06-15T15:33:23.000Z</time>
        <extensions>
          <ns3:TrackPointExtension>
            <ns3:atemp>20.0</ns3:atemp>
          </ns3:TrackPointExtension>
        </extensions>
      </trkpt>
      <trkpt lat="42.5993040762841701507568359375" lon="19.983877725899219512939453125">
        <ele>1222</ele>
        <time>2026-06-15T15:33:24.000Z</time>
        <extensions>
          <ns3:TrackPointExtension>
            <ns3:atemp>20.0</ns3:atemp>
          </ns3:TrackPointExtension>
        </extensions>
      </trkpt>
      <trkpt lat="42.5993040762841701507568359375" lon="19.983877725899219512939453125">
        <ele>1222</ele>
        <time>2026-06-15T15:33:25.000Z</time>
        <extensions>
          <ns3:TrackPointExtension>
            <ns3:atemp>20.0</ns3:atemp>
          </ns3:TrackPointExtension>
        </extensions>
      </trkpt>
      <trkpt lat="42.5993040762841701507568359375" lon="19.983877725899219512939453125">
        <ele>1222</ele>
        <time>2026-06-15T15:33:26.000Z</time>
        <extensions>
          <ns3:TrackPointExtension>
            <ns3:atemp>20.0</ns3:atemp>
          </ns3:TrackPointExtension>
        </extensions>
      </trkpt>
      <trkpt lat="42.5993040762841701507568359375" lon="19.983877725899219512939453125">
        <ele>1222</ele>
        <time>2026-06-15T15:33:27.000Z</time>
        <extensions>
          <ns3:TrackPointExtension>
            <ns3:atemp>20.0</ns3:atemp>
          </ns3:TrackPointExtension>
        </extensions>
      </trkpt>
      <trkpt lat="42.5993040762841701507568359375" lon="19.983877725899219512939453125">
        <ele>1222</ele>
        <time>2026-06-15T15:33:28.000Z</time>
        <extensions>
          <ns3:TrackPointExtension>
            <ns3:atemp>20.0</ns3:atemp>
          </ns3:TrackPointExtension>
        </extensions>
      </trkpt>
      <trkpt lat="42.5993040762841701507568359375" lon="19.983877725899219512939453125">
        <ele>1222</ele>
        <time>2026-06-15T15:33:29.000Z</time>
        <extensions>
          <ns3:TrackPointExtension>
            <ns3:atemp>20.0</ns3:atemp>
          </ns3:TrackPointExtension>
        </extensions>
      </trkpt>
      <trkpt lat="42.5993040762841701507568359375" lon="19.983877725899219512939453125">
        <ele>1222</ele>
        <time>2026-06-15T15:33:30.000Z</time>
        <extensions>
          <ns3:TrackPointExtension>
            <ns3:atemp>20.0</ns3:atemp>
          </ns3:TrackPointExtension>
        </extensions>
      </trkpt>
      <trkpt lat="42.5993040762841701507568359375" lon="19.983877725899219512939453125">
        <ele>1222</ele>
        <time>2026-06-15T15:33:31.000Z</time>
        <extensions>
          <ns3:TrackPointExtension>
            <ns3:atemp>20.0</ns3:atemp>
          </ns3:TrackPointExtension>
        </extensions>
      </trkpt>
      <trkpt lat="42.5993040762841701507568359375" lon="19.983877725899219512939453125">
        <ele>1222</ele>
        <time>2026-06-15T15:33:32.000Z</time>
        <extensions>
          <ns3:TrackPointExtension>
            <ns3:atemp>20.0</ns3:atemp>
          </ns3:TrackPointExtension>
        </extensions>
      </trkpt>
      <trkpt lat="42.5993040762841701507568359375" lon="19.983877725899219512939453125">
        <ele>1222</ele>
        <time>2026-06-15T15:33:33.000Z</time>
        <extensions>
          <ns3:TrackPointExtension>
            <ns3:atemp>20.0</ns3:atemp>
          </ns3:TrackPointExtension>
        </extensions>
      </trkpt>
      <trkpt lat="42.5993040762841701507568359375" lon="19.983877725899219512939453125">
        <ele>1222</ele>
        <time>2026-06-15T15:33:34.000Z</time>
        <extensions>
          <ns3:TrackPointExtension>
            <ns3:atemp>20.0</ns3:atemp>
          </ns3:TrackPointExtension>
        </extensions>
      </trkpt>
      <trkpt lat="42.5993040762841701507568359375" lon="19.983877725899219512939453125">
        <ele>1222</ele>
        <time>2026-06-15T15:33:35.000Z</time>
        <extensions>
          <ns3:TrackPointExtension>
            <ns3:atemp>20.0</ns3:atemp>
          </ns3:TrackPointExtension>
        </extensions>
      </trkpt>
      <trkpt lat="42.5993040762841701507568359375" lon="19.983877725899219512939453125">
        <ele>1222</ele>
        <time>2026-06-15T15:33:36.000Z</time>
        <extensions>
          <ns3:TrackPointExtension>
            <ns3:atemp>20.0</ns3:atemp>
          </ns3:TrackPointExtension>
        </extensions>
      </trkpt>
      <trkpt lat="42.5993040762841701507568359375" lon="19.983877725899219512939453125">
        <ele>1222</ele>
        <time>2026-06-15T15:33:37.000Z</time>
        <extensions>
          <ns3:TrackPointExtension>
            <ns3:atemp>20.0</ns3:atemp>
          </ns3:TrackPointExtension>
        </extensions>
      </trkpt>
      <trkpt lat="42.5993040762841701507568359375" lon="19.983877725899219512939453125">
        <ele>1222</ele>
        <time>2026-06-15T15:33:38.000Z</time>
        <extensions>
          <ns3:TrackPointExtension>
            <ns3:atemp>20.0</ns3:atemp>
          </ns3:TrackPointExtension>
        </extensions>
      </trkpt>
      <trkpt lat="42.5993040762841701507568359375" lon="19.983877725899219512939453125">
        <ele>1222</ele>
        <time>2026-06-15T15:33:39.000Z</time>
        <extensions>
          <ns3:TrackPointExtension>
            <ns3:atemp>20.0</ns3:atemp>
          </ns3:TrackPointExtension>
        </extensions>
      </trkpt>
      <trkpt lat="42.5993040762841701507568359375" lon="19.983877725899219512939453125">
        <ele>1222</ele>
        <time>2026-06-15T15:33:40.000Z</time>
        <extensions>
          <ns3:TrackPointExtension>
            <ns3:atemp>20.0</ns3:atemp>
          </ns3:TrackPointExtension>
        </extensions>
      </trkpt>
      <trkpt lat="42.5993040762841701507568359375" lon="19.983877725899219512939453125">
        <ele>1222</ele>
        <time>2026-06-15T15:33:41.000Z</time>
        <extensions>
          <ns3:TrackPointExtension>
            <ns3:atemp>20.0</ns3:atemp>
          </ns3:TrackPointExtension>
        </extensions>
      </trkpt>
      <trkpt lat="42.5993040762841701507568359375" lon="19.983877725899219512939453125">
        <ele>1222</ele>
        <time>2026-06-15T15:33:42.000Z</time>
        <extensions>
          <ns3:TrackPointExtension>
            <ns3:atemp>20.0</ns3:atemp>
          </ns3:TrackPointExtension>
        </extensions>
      </trkpt>
      <trkpt lat="42.5993040762841701507568359375" lon="19.983877725899219512939453125">
        <ele>1222</ele>
        <time>2026-06-15T15:33:43.000Z</time>
        <extensions>
          <ns3:TrackPointExtension>
            <ns3:atemp>20.0</ns3:atemp>
          </ns3:TrackPointExtension>
        </extensions>
      </trkpt>
      <trkpt lat="42.5993040762841701507568359375" lon="19.983877725899219512939453125">
        <ele>1222</ele>
        <time>2026-06-15T15:33:44.000Z</time>
        <extensions>
          <ns3:TrackPointExtension>
            <ns3:atemp>20.0</ns3:atemp>
          </ns3:TrackPointExtension>
        </extensions>
      </trkpt>
      <trkpt lat="42.5993040762841701507568359375" lon="19.983877725899219512939453125">
        <ele>1222</ele>
        <time>2026-06-15T15:33:45.000Z</time>
        <extensions>
          <ns3:TrackPointExtension>
            <ns3:atemp>20.0</ns3:atemp>
          </ns3:TrackPointExtension>
        </extensions>
      </trkpt>
      <trkpt lat="42.5993040762841701507568359375" lon="19.983877725899219512939453125">
        <ele>1222</ele>
        <time>2026-06-15T15:33:46.000Z</time>
        <extensions>
          <ns3:TrackPointExtension>
            <ns3:atemp>20.0</ns3:atemp>
          </ns3:TrackPointExtension>
        </extensions>
      </trkpt>
      <trkpt lat="42.5993040762841701507568359375" lon="19.983877725899219512939453125">
        <ele>1222</ele>
        <time>2026-06-15T15:33:47.000Z</time>
        <extensions>
          <ns3:TrackPointExtension>
            <ns3:atemp>20.0</ns3:atemp>
          </ns3:TrackPointExtension>
        </extensions>
      </trkpt>
      <trkpt lat="42.5993040762841701507568359375" lon="19.983877725899219512939453125">
        <ele>1222</ele>
        <time>2026-06-15T15:33:48.000Z</time>
        <extensions>
          <ns3:TrackPointExtension>
            <ns3:atemp>20.0</ns3:atemp>
          </ns3:TrackPointExtension>
        </extensions>
      </trkpt>
      <trkpt lat="42.5993040762841701507568359375" lon="19.983877725899219512939453125">
        <ele>1222</ele>
        <time>2026-06-15T15:33:49.000Z</time>
        <extensions>
          <ns3:TrackPointExtension>
            <ns3:atemp>20.0</ns3:atemp>
          </ns3:TrackPointExtension>
        </extensions>
      </trkpt>
      <trkpt lat="42.5993040762841701507568359375" lon="19.983877725899219512939453125">
        <ele>1222</ele>
        <time>2026-06-15T15:33:50.000Z</time>
        <extensions>
          <ns3:TrackPointExtension>
            <ns3:atemp>20.0</ns3:atemp>
          </ns3:TrackPointExtension>
        </extensions>
      </trkpt>
      <trkpt lat="42.5993040762841701507568359375" lon="19.983877725899219512939453125">
        <ele>1222</ele>
        <time>2026-06-15T15:33:51.000Z</time>
        <extensions>
          <ns3:TrackPointExtension>
            <ns3:atemp>20.0</ns3:atemp>
          </ns3:TrackPointExtension>
        </extensions>
      </trkpt>
      <trkpt lat="42.5993040762841701507568359375" lon="19.983877725899219512939453125">
        <ele>1222</ele>
        <time>2026-06-15T15:33:52.000Z</time>
        <extensions>
          <ns3:TrackPointExtension>
            <ns3:atemp>20.0</ns3:atemp>
          </ns3:TrackPointExtension>
        </extensions>
      </trkpt>
      <trkpt lat="42.5993040762841701507568359375" lon="19.983877725899219512939453125">
        <ele>1222</ele>
        <time>2026-06-15T15:33:53.000Z</time>
        <extensions>
          <ns3:TrackPointExtension>
            <ns3:atemp>20.0</ns3:atemp>
          </ns3:TrackPointExtension>
        </extensions>
      </trkpt>
      <trkpt lat="42.5993040762841701507568359375" lon="19.983877725899219512939453125">
        <ele>1222</ele>
        <time>2026-06-15T15:33:54.000Z</time>
        <extensions>
          <ns3:TrackPointExtension>
            <ns3:atemp>20.0</ns3:atemp>
          </ns3:TrackPointExtension>
        </extensions>
      </trkpt>
      <trkpt lat="42.5993040762841701507568359375" lon="19.983877725899219512939453125">
        <ele>1222</ele>
        <time>2026-06-15T15:33:55.000Z</time>
        <extensions>
          <ns3:TrackPointExtension>
            <ns3:atemp>20.0</ns3:atemp>
          </ns3:TrackPointExtension>
        </extensions>
      </trkpt>
      <trkpt lat="42.5993040762841701507568359375" lon="19.983877725899219512939453125">
        <ele>1222</ele>
        <time>2026-06-15T15:33:56.000Z</time>
        <extensions>
          <ns3:TrackPointExtension>
            <ns3:atemp>20.0</ns3:atemp>
          </ns3:TrackPointExtension>
        </extensions>
      </trkpt>
      <trkpt lat="42.5993040762841701507568359375" lon="19.983877725899219512939453125">
        <ele>1222</ele>
        <time>2026-06-15T15:33:57.000Z</time>
        <extensions>
          <ns3:TrackPointExtension>
            <ns3:atemp>20.0</ns3:atemp>
          </ns3:TrackPointExtension>
        </extensions>
      </trkpt>
      <trkpt lat="42.5993040762841701507568359375" lon="19.983877725899219512939453125">
        <ele>1222</ele>
        <time>2026-06-15T15:33:58.000Z</time>
        <extensions>
          <ns3:TrackPointExtension>
            <ns3:atemp>20.0</ns3:atemp>
          </ns3:TrackPointExtension>
        </extensions>
      </trkpt>
      <trkpt lat="42.5993040762841701507568359375" lon="19.983877725899219512939453125">
        <ele>1222</ele>
        <time>2026-06-15T15:33:59.000Z</time>
        <extensions>
          <ns3:TrackPointExtension>
            <ns3:atemp>20.0</ns3:atemp>
          </ns3:TrackPointExtension>
        </extensions>
      </trkpt>
      <trkpt lat="42.5993040762841701507568359375" lon="19.983877725899219512939453125">
        <ele>1222</ele>
        <time>2026-06-15T15:34:00.000Z</time>
        <extensions>
          <ns3:TrackPointExtension>
            <ns3:atemp>20.0</ns3:atemp>
          </ns3:TrackPointExtension>
        </extensions>
      </trkpt>
      <trkpt lat="42.5993040762841701507568359375" lon="19.983877725899219512939453125">
        <ele>1222</ele>
        <time>2026-06-15T15:34:01.000Z</time>
        <extensions>
          <ns3:TrackPointExtension>
            <ns3:atemp>20.0</ns3:atemp>
          </ns3:TrackPointExtension>
        </extensions>
      </trkpt>
      <trkpt lat="42.5993040762841701507568359375" lon="19.983877725899219512939453125">
        <ele>1222</ele>
        <time>2026-06-15T15:34:02.000Z</time>
        <extensions>
          <ns3:TrackPointExtension>
            <ns3:atemp>20.0</ns3:atemp>
          </ns3:TrackPointExtension>
        </extensions>
      </trkpt>
      <trkpt lat="42.5993040762841701507568359375" lon="19.983877725899219512939453125">
        <ele>1222</ele>
        <time>2026-06-15T15:34:03.000Z</time>
        <extensions>
          <ns3:TrackPointExtension>
            <ns3:atemp>20.0</ns3:atemp>
          </ns3:TrackPointExtension>
        </extensions>
      </trkpt>
      <trkpt lat="42.5993040762841701507568359375" lon="19.983877725899219512939453125">
        <ele>1222</ele>
        <time>2026-06-15T15:34:04.000Z</time>
        <extensions>
          <ns3:TrackPointExtension>
            <ns3:atemp>20.0</ns3:atemp>
          </ns3:TrackPointExtension>
        </extensions>
      </trkpt>
      <trkpt lat="42.5993040762841701507568359375" lon="19.983877725899219512939453125">
        <ele>1222</ele>
        <time>2026-06-15T15:34:05.000Z</time>
        <extensions>
          <ns3:TrackPointExtension>
            <ns3:atemp>20.0</ns3:atemp>
          </ns3:TrackPointExtension>
        </extensions>
      </trkpt>
      <trkpt lat="42.5993040762841701507568359375" lon="19.983877725899219512939453125">
        <ele>1222</ele>
        <time>2026-06-15T15:34:06.000Z</time>
        <extensions>
          <ns3:TrackPointExtension>
            <ns3:atemp>20.0</ns3:atemp>
          </ns3:TrackPointExtension>
        </extensions>
      </trkpt>
      <trkpt lat="42.5993040762841701507568359375" lon="19.983877725899219512939453125">
        <ele>1222</ele>
        <time>2026-06-15T15:34:07.000Z</time>
        <extensions>
          <ns3:TrackPointExtension>
            <ns3:atemp>20.0</ns3:atemp>
          </ns3:TrackPointExtension>
        </extensions>
      </trkpt>
      <trkpt lat="42.5993040762841701507568359375" lon="19.983877725899219512939453125">
        <ele>1222</ele>
        <time>2026-06-15T15:34:08.000Z</time>
        <extensions>
          <ns3:TrackPointExtension>
            <ns3:atemp>20.0</ns3:atemp>
          </ns3:TrackPointExtension>
        </extensions>
      </trkpt>
      <trkpt lat="42.5993040762841701507568359375" lon="19.983877725899219512939453125">
        <ele>1222</ele>
        <time>2026-06-15T15:34:09.000Z</time>
        <extensions>
          <ns3:TrackPointExtension>
            <ns3:atemp>20.0</ns3:atemp>
          </ns3:TrackPointExtension>
        </extensions>
      </trkpt>
      <trkpt lat="42.5993040762841701507568359375" lon="19.983877725899219512939453125">
        <ele>1222</ele>
        <time>2026-06-15T15:34:10.000Z</time>
        <extensions>
          <ns3:TrackPointExtension>
            <ns3:atemp>20.0</ns3:atemp>
          </ns3:TrackPointExtension>
        </extensions>
      </trkpt>
      <trkpt lat="42.5993040762841701507568359375" lon="19.983877725899219512939453125">
        <ele>1222</ele>
        <time>2026-06-15T15:34:11.000Z</time>
        <extensions>
          <ns3:TrackPointExtension>
            <ns3:atemp>20.0</ns3:atemp>
          </ns3:TrackPointExtension>
        </extensions>
      </trkpt>
      <trkpt lat="42.5993040762841701507568359375" lon="19.983877725899219512939453125">
        <ele>1222</ele>
        <time>2026-06-15T15:34:12.000Z</time>
        <extensions>
          <ns3:TrackPointExtension>
            <ns3:atemp>20.0</ns3:atemp>
          </ns3:TrackPointExtension>
        </extensions>
      </trkpt>
      <trkpt lat="42.5993040762841701507568359375" lon="19.983877725899219512939453125">
        <ele>1222</ele>
        <time>2026-06-15T15:34:13.000Z</time>
        <extensions>
          <ns3:TrackPointExtension>
            <ns3:atemp>20.0</ns3:atemp>
          </ns3:TrackPointExtension>
        </extensions>
      </trkpt>
      <trkpt lat="42.5993040762841701507568359375" lon="19.983877725899219512939453125">
        <ele>1222</ele>
        <time>2026-06-15T15:34:14.000Z</time>
        <extensions>
          <ns3:TrackPointExtension>
            <ns3:atemp>20.0</ns3:atemp>
          </ns3:TrackPointExtension>
        </extensions>
      </trkpt>
      <trkpt lat="42.5993040762841701507568359375" lon="19.983877725899219512939453125">
        <ele>1222</ele>
        <time>2026-06-15T15:34:15.000Z</time>
        <extensions>
          <ns3:TrackPointExtension>
            <ns3:atemp>20.0</ns3:atemp>
          </ns3:TrackPointExtension>
        </extensions>
      </trkpt>
      <trkpt lat="42.5993040762841701507568359375" lon="19.983877725899219512939453125">
        <ele>1222</ele>
        <time>2026-06-15T15:34:16.000Z</time>
        <extensions>
          <ns3:TrackPointExtension>
            <ns3:atemp>20.0</ns3:atemp>
          </ns3:TrackPointExtension>
        </extensions>
      </trkpt>
      <trkpt lat="42.5993040762841701507568359375" lon="19.983877725899219512939453125">
        <ele>1222</ele>
        <time>2026-06-15T15:34:17.000Z</time>
        <extensions>
          <ns3:TrackPointExtension>
            <ns3:atemp>20.0</ns3:atemp>
          </ns3:TrackPointExtension>
        </extensions>
      </trkpt>
      <trkpt lat="42.5993040762841701507568359375" lon="19.983877725899219512939453125">
        <ele>1222</ele>
        <time>2026-06-15T15:34:18.000Z</time>
        <extensions>
          <ns3:TrackPointExtension>
            <ns3:atemp>20.0</ns3:atemp>
          </ns3:TrackPointExtension>
        </extensions>
      </trkpt>
      <trkpt lat="42.5993040762841701507568359375" lon="19.983877725899219512939453125">
        <ele>1222</ele>
        <time>2026-06-15T15:34:19.000Z</time>
        <extensions>
          <ns3:TrackPointExtension>
            <ns3:atemp>20.0</ns3:atemp>
          </ns3:TrackPointExtension>
        </extensions>
      </trkpt>
      <trkpt lat="42.5993040762841701507568359375" lon="19.983877725899219512939453125">
        <ele>1222</ele>
        <time>2026-06-15T15:34:20.000Z</time>
        <extensions>
          <ns3:TrackPointExtension>
            <ns3:atemp>20.0</ns3:atemp>
          </ns3:TrackPointExtension>
        </extensions>
      </trkpt>
      <trkpt lat="42.5993040762841701507568359375" lon="19.983877725899219512939453125">
        <ele>1222</ele>
        <time>2026-06-15T15:34:21.000Z</time>
        <extensions>
          <ns3:TrackPointExtension>
            <ns3:atemp>20.0</ns3:atemp>
          </ns3:TrackPointExtension>
        </extensions>
      </trkpt>
      <trkpt lat="42.5993040762841701507568359375" lon="19.983877725899219512939453125">
        <ele>1222</ele>
        <time>2026-06-15T15:34:22.000Z</time>
        <extensions>
          <ns3:TrackPointExtension>
            <ns3:atemp>20.0</ns3:atemp>
          </ns3:TrackPointExtension>
        </extensions>
      </trkpt>
      <trkpt lat="42.5993040762841701507568359375" lon="19.983877725899219512939453125">
        <ele>1222</ele>
        <time>2026-06-15T15:34:23.000Z</time>
        <extensions>
          <ns3:TrackPointExtension>
            <ns3:atemp>20.0</ns3:atemp>
          </ns3:TrackPointExtension>
        </extensions>
      </trkpt>
      <trkpt lat="42.5993040762841701507568359375" lon="19.983877725899219512939453125">
        <ele>1222</ele>
        <time>2026-06-15T15:34:24.000Z</time>
        <extensions>
          <ns3:TrackPointExtension>
            <ns3:atemp>20.0</ns3:atemp>
          </ns3:TrackPointExtension>
        </extensions>
      </trkpt>
      <trkpt lat="42.5993040762841701507568359375" lon="19.983877725899219512939453125">
        <ele>1222</ele>
        <time>2026-06-15T15:34:25.000Z</time>
        <extensions>
          <ns3:TrackPointExtension>
            <ns3:atemp>20.0</ns3:atemp>
          </ns3:TrackPointExtension>
        </extensions>
      </trkpt>
      <trkpt lat="42.5993040762841701507568359375" lon="19.983877725899219512939453125">
        <ele>1222</ele>
        <time>2026-06-15T15:34:26.000Z</time>
        <extensions>
          <ns3:TrackPointExtension>
            <ns3:atemp>20.0</ns3:atemp>
          </ns3:TrackPointExtension>
        </extensions>
      </trkpt>
      <trkpt lat="42.5993040762841701507568359375" lon="19.983877725899219512939453125">
        <ele>1222</ele>
        <time>2026-06-15T15:34:27.000Z</time>
        <extensions>
          <ns3:TrackPointExtension>
            <ns3:atemp>20.0</ns3:atemp>
          </ns3:TrackPointExtension>
        </extensions>
      </trkpt>
      <trkpt lat="42.5993040762841701507568359375" lon="19.983877725899219512939453125">
        <ele>1222</ele>
        <time>2026-06-15T15:34:28.000Z</time>
        <extensions>
          <ns3:TrackPointExtension>
            <ns3:atemp>20.0</ns3:atemp>
          </ns3:TrackPointExtension>
        </extensions>
      </trkpt>
      <trkpt lat="42.5993040762841701507568359375" lon="19.983877725899219512939453125">
        <ele>1222</ele>
        <time>2026-06-15T15:34:29.000Z</time>
        <extensions>
          <ns3:TrackPointExtension>
            <ns3:atemp>20.0</ns3:atemp>
          </ns3:TrackPointExtension>
        </extensions>
      </trkpt>
      <trkpt lat="42.5993040762841701507568359375" lon="19.983877725899219512939453125">
        <ele>1222</ele>
        <time>2026-06-15T15:34:30.000Z</time>
        <extensions>
          <ns3:TrackPointExtension>
            <ns3:atemp>20.0</ns3:atemp>
          </ns3:TrackPointExtension>
        </extensions>
      </trkpt>
      <trkpt lat="42.5993040762841701507568359375" lon="19.983877725899219512939453125">
        <ele>1222</ele>
        <time>2026-06-15T15:34:31.000Z</time>
        <extensions>
          <ns3:TrackPointExtension>
            <ns3:atemp>20.0</ns3:atemp>
          </ns3:TrackPointExtension>
        </extensions>
      </trkpt>
      <trkpt lat="42.5993040762841701507568359375" lon="19.983877725899219512939453125">
        <ele>1222</ele>
        <time>2026-06-15T15:34:32.000Z</time>
        <extensions>
          <ns3:TrackPointExtension>
            <ns3:atemp>20.0</ns3:atemp>
          </ns3:TrackPointExtension>
        </extensions>
      </trkpt>
      <trkpt lat="42.5993040762841701507568359375" lon="19.983877725899219512939453125">
        <ele>1222</ele>
        <time>2026-06-15T15:34:33.000Z</time>
        <extensions>
          <ns3:TrackPointExtension>
            <ns3:atemp>20.0</ns3:atemp>
          </ns3:TrackPointExtension>
        </extensions>
      </trkpt>
      <trkpt lat="42.5993040762841701507568359375" lon="19.983877725899219512939453125">
        <ele>1222</ele>
        <time>2026-06-15T15:34:34.000Z</time>
        <extensions>
          <ns3:TrackPointExtension>
            <ns3:atemp>20.0</ns3:atemp>
          </ns3:TrackPointExtension>
        </extensions>
      </trkpt>
      <trkpt lat="42.5993040762841701507568359375" lon="19.983877725899219512939453125">
        <ele>1222</ele>
        <time>2026-06-15T15:34:35.000Z</time>
        <extensions>
          <ns3:TrackPointExtension>
            <ns3:atemp>20.0</ns3:atemp>
          </ns3:TrackPointExtension>
        </extensions>
      </trkpt>
      <trkpt lat="42.5993040762841701507568359375" lon="19.983877725899219512939453125">
        <ele>1222</ele>
        <time>2026-06-15T15:34:36.000Z</time>
        <extensions>
          <ns3:TrackPointExtension>
            <ns3:atemp>20.0</ns3:atemp>
          </ns3:TrackPointExtension>
        </extensions>
      </trkpt>
      <trkpt lat="42.5993040762841701507568359375" lon="19.983877725899219512939453125">
        <ele>1222</ele>
        <time>2026-06-15T15:34:37.000Z</time>
        <extensions>
          <ns3:TrackPointExtension>
            <ns3:atemp>20.0</ns3:atemp>
          </ns3:TrackPointExtension>
        </extensions>
      </trkpt>
      <trkpt lat="42.5993040762841701507568359375" lon="19.983877725899219512939453125">
        <ele>1222</ele>
        <time>2026-06-15T15:34:38.000Z</time>
        <extensions>
          <ns3:TrackPointExtension>
            <ns3:atemp>20.0</ns3:atemp>
          </ns3:TrackPointExtension>
        </extensions>
      </trkpt>
      <trkpt lat="42.5993040762841701507568359375" lon="19.983877725899219512939453125">
        <ele>1222</ele>
        <time>2026-06-15T15:34:39.000Z</time>
        <extensions>
          <ns3:TrackPointExtension>
            <ns3:atemp>20.0</ns3:atemp>
          </ns3:TrackPointExtension>
        </extensions>
      </trkpt>
      <trkpt lat="42.5993040762841701507568359375" lon="19.983877725899219512939453125">
        <ele>1222</ele>
        <time>2026-06-15T15:34:40.000Z</time>
        <extensions>
          <ns3:TrackPointExtension>
            <ns3:atemp>20.0</ns3:atemp>
          </ns3:TrackPointExtension>
        </extensions>
      </trkpt>
      <trkpt lat="42.5993040762841701507568359375" lon="19.983877725899219512939453125">
        <ele>1222</ele>
        <time>2026-06-15T15:34:41.000Z</time>
        <extensions>
          <ns3:TrackPointExtension>
            <ns3:atemp>20.0</ns3:atemp>
          </ns3:TrackPointExtension>
        </extensions>
      </trkpt>
      <trkpt lat="42.5993040762841701507568359375" lon="19.983877725899219512939453125">
        <ele>1222</ele>
        <time>2026-06-15T15:34:42.000Z</time>
        <extensions>
          <ns3:TrackPointExtension>
            <ns3:atemp>20.0</ns3:atemp>
          </ns3:TrackPointExtension>
        </extensions>
      </trkpt>
      <trkpt lat="42.5993040762841701507568359375" lon="19.983877725899219512939453125">
        <ele>1222</ele>
        <time>2026-06-15T15:34:43.000Z</time>
        <extensions>
          <ns3:TrackPointExtension>
            <ns3:atemp>20.0</ns3:atemp>
          </ns3:TrackPointExtension>
        </extensions>
      </trkpt>
      <trkpt lat="42.5993040762841701507568359375" lon="19.983877725899219512939453125">
        <ele>1222</ele>
        <time>2026-06-15T15:34:44.000Z</time>
        <extensions>
          <ns3:TrackPointExtension>
            <ns3:atemp>20.0</ns3:atemp>
          </ns3:TrackPointExtension>
        </extensions>
      </trkpt>
      <trkpt lat="42.5993040762841701507568359375" lon="19.983877725899219512939453125">
        <ele>1222</ele>
        <time>2026-06-15T15:34:45.000Z</time>
        <extensions>
          <ns3:TrackPointExtension>
            <ns3:atemp>20.0</ns3:atemp>
          </ns3:TrackPointExtension>
        </extensions>
      </trkpt>
      <trkpt lat="42.5993040762841701507568359375" lon="19.983877725899219512939453125">
        <ele>1222</ele>
        <time>2026-06-15T15:34:46.000Z</time>
        <extensions>
          <ns3:TrackPointExtension>
            <ns3:atemp>20.0</ns3:atemp>
          </ns3:TrackPointExtension>
        </extensions>
      </trkpt>
      <trkpt lat="42.5993040762841701507568359375" lon="19.983877725899219512939453125">
        <ele>1222</ele>
        <time>2026-06-15T15:34:47.000Z</time>
        <extensions>
          <ns3:TrackPointExtension>
            <ns3:atemp>20.0</ns3:atemp>
          </ns3:TrackPointExtension>
        </extensions>
      </trkpt>
      <trkpt lat="42.5993040762841701507568359375" lon="19.983877725899219512939453125">
        <ele>1222</ele>
        <time>2026-06-15T15:34:48.000Z</time>
        <extensions>
          <ns3:TrackPointExtension>
            <ns3:atemp>20.0</ns3:atemp>
          </ns3:TrackPointExtension>
        </extensions>
      </trkpt>
      <trkpt lat="42.5993040762841701507568359375" lon="19.983877725899219512939453125">
        <ele>1222</ele>
        <time>2026-06-15T15:34:49.000Z</time>
        <extensions>
          <ns3:TrackPointExtension>
            <ns3:atemp>20.0</ns3:atemp>
          </ns3:TrackPointExtension>
        </extensions>
      </trkpt>
      <trkpt lat="42.5993040762841701507568359375" lon="19.983877725899219512939453125">
        <ele>1222</ele>
        <time>2026-06-15T15:34:50.000Z</time>
        <extensions>
          <ns3:TrackPointExtension>
            <ns3:atemp>20.0</ns3:atemp>
          </ns3:TrackPointExtension>
        </extensions>
      </trkpt>
      <trkpt lat="42.5993040762841701507568359375" lon="19.983877725899219512939453125">
        <ele>1222</ele>
        <time>2026-06-15T15:34:51.000Z</time>
        <extensions>
          <ns3:TrackPointExtension>
            <ns3:atemp>20.0</ns3:atemp>
          </ns3:TrackPointExtension>
        </extensions>
      </trkpt>
      <trkpt lat="42.5993040762841701507568359375" lon="19.983877725899219512939453125">
        <ele>1222</ele>
        <time>2026-06-15T15:34:52.000Z</time>
        <extensions>
          <ns3:TrackPointExtension>
            <ns3:atemp>20.0</ns3:atemp>
          </ns3:TrackPointExtension>
        </extensions>
      </trkpt>
      <trkpt lat="42.5993040762841701507568359375" lon="19.983877725899219512939453125">
        <ele>1222</ele>
        <time>2026-06-15T15:34:53.000Z</time>
        <extensions>
          <ns3:TrackPointExtension>
            <ns3:atemp>20.0</ns3:atemp>
          </ns3:TrackPointExtension>
        </extensions>
      </trkpt>
      <trkpt lat="42.5993040762841701507568359375" lon="19.983877725899219512939453125">
        <ele>1222</ele>
        <time>2026-06-15T15:34:54.000Z</time>
        <extensions>
          <ns3:TrackPointExtension>
            <ns3:atemp>20.0</ns3:atemp>
          </ns3:TrackPointExtension>
        </extensions>
      </trkpt>
      <trkpt lat="42.5993040762841701507568359375" lon="19.983877725899219512939453125">
        <ele>1222</ele>
        <time>2026-06-15T15:34:55.000Z</time>
        <extensions>
          <ns3:TrackPointExtension>
            <ns3:atemp>20.0</ns3:atemp>
          </ns3:TrackPointExtension>
        </extensions>
      </trkpt>
      <trkpt lat="42.5993040762841701507568359375" lon="19.983877725899219512939453125">
        <ele>1222</ele>
        <time>2026-06-15T15:34:56.000Z</time>
        <extensions>
          <ns3:TrackPointExtension>
            <ns3:atemp>20.0</ns3:atemp>
          </ns3:TrackPointExtension>
        </extensions>
      </trkpt>
      <trkpt lat="42.5993040762841701507568359375" lon="19.983877725899219512939453125">
        <ele>1222</ele>
        <time>2026-06-15T15:34:57.000Z</time>
        <extensions>
          <ns3:TrackPointExtension>
            <ns3:atemp>20.0</ns3:atemp>
          </ns3:TrackPointExtension>
        </extensions>
      </trkpt>
      <trkpt lat="42.5993040762841701507568359375" lon="19.983877725899219512939453125">
        <ele>1222</ele>
        <time>2026-06-15T15:34:58.000Z</time>
        <extensions>
          <ns3:TrackPointExtension>
            <ns3:atemp>20.0</ns3:atemp>
          </ns3:TrackPointExtension>
        </extensions>
      </trkpt>
      <trkpt lat="42.5993040762841701507568359375" lon="19.983877725899219512939453125">
        <ele>1222</ele>
        <time>2026-06-15T15:34:59.000Z</time>
        <extensions>
          <ns3:TrackPointExtension>
            <ns3:atemp>20.0</ns3:atemp>
          </ns3:TrackPointExtension>
        </extensions>
      </trkpt>
      <trkpt lat="42.5993040762841701507568359375" lon="19.983877725899219512939453125">
        <ele>1222</ele>
        <time>2026-06-15T15:35:00.000Z</time>
        <extensions>
          <ns3:TrackPointExtension>
            <ns3:atemp>20.0</ns3:atemp>
          </ns3:TrackPointExtension>
        </extensions>
      </trkpt>
      <trkpt lat="42.5993040762841701507568359375" lon="19.983877725899219512939453125">
        <ele>1222</ele>
        <time>2026-06-15T15:35:01.000Z</time>
        <extensions>
          <ns3:TrackPointExtension>
            <ns3:atemp>20.0</ns3:atemp>
          </ns3:TrackPointExtension>
        </extensions>
      </trkpt>
      <trkpt lat="42.5993040762841701507568359375" lon="19.983877725899219512939453125">
        <ele>1222</ele>
        <time>2026-06-15T15:35:02.000Z</time>
        <extensions>
          <ns3:TrackPointExtension>
            <ns3:atemp>20.0</ns3:atemp>
          </ns3:TrackPointExtension>
        </extensions>
      </trkpt>
      <trkpt lat="42.5993040762841701507568359375" lon="19.983877725899219512939453125">
        <ele>1222</ele>
        <time>2026-06-15T15:35:03.000Z</time>
        <extensions>
          <ns3:TrackPointExtension>
            <ns3:atemp>20.0</ns3:atemp>
          </ns3:TrackPointExtension>
        </extensions>
      </trkpt>
      <trkpt lat="42.5993040762841701507568359375" lon="19.983877725899219512939453125">
        <ele>1222</ele>
        <time>2026-06-15T15:35:04.000Z</time>
        <extensions>
          <ns3:TrackPointExtension>
            <ns3:atemp>20.0</ns3:atemp>
          </ns3:TrackPointExtension>
        </extensions>
      </trkpt>
      <trkpt lat="42.5993040762841701507568359375" lon="19.983877725899219512939453125">
        <ele>1222</ele>
        <time>2026-06-15T15:35:05.000Z</time>
        <extensions>
          <ns3:TrackPointExtension>
            <ns3:atemp>20.0</ns3:atemp>
          </ns3:TrackPointExtension>
        </extensions>
      </trkpt>
      <trkpt lat="42.5993040762841701507568359375" lon="19.983877725899219512939453125">
        <ele>1222</ele>
        <time>2026-06-15T15:35:06.000Z</time>
        <extensions>
          <ns3:TrackPointExtension>
            <ns3:atemp>20.0</ns3:atemp>
          </ns3:TrackPointExtension>
        </extensions>
      </trkpt>
      <trkpt lat="42.5993040762841701507568359375" lon="19.983877725899219512939453125">
        <ele>1222</ele>
        <time>2026-06-15T15:35:07.000Z</time>
        <extensions>
          <ns3:TrackPointExtension>
            <ns3:atemp>20.0</ns3:atemp>
          </ns3:TrackPointExtension>
        </extensions>
      </trkpt>
      <trkpt lat="42.5993040762841701507568359375" lon="19.983877725899219512939453125">
        <ele>1222</ele>
        <time>2026-06-15T15:35:08.000Z</time>
        <extensions>
          <ns3:TrackPointExtension>
            <ns3:atemp>20.0</ns3:atemp>
          </ns3:TrackPointExtension>
        </extensions>
      </trkpt>
      <trkpt lat="42.5993040762841701507568359375" lon="19.983877725899219512939453125">
        <ele>1222</ele>
        <time>2026-06-15T15:35:09.000Z</time>
        <extensions>
          <ns3:TrackPointExtension>
            <ns3:atemp>20.0</ns3:atemp>
          </ns3:TrackPointExtension>
        </extensions>
      </trkpt>
      <trkpt lat="42.5993040762841701507568359375" lon="19.983877725899219512939453125">
        <ele>1222</ele>
        <time>2026-06-15T15:35:10.000Z</time>
        <extensions>
          <ns3:TrackPointExtension>
            <ns3:atemp>20.0</ns3:atemp>
          </ns3:TrackPointExtension>
        </extensions>
      </trkpt>
      <trkpt lat="42.5993040762841701507568359375" lon="19.983877725899219512939453125">
        <ele>1222</ele>
        <time>2026-06-15T15:35:11.000Z</time>
        <extensions>
          <ns3:TrackPointExtension>
            <ns3:atemp>20.0</ns3:atemp>
          </ns3:TrackPointExtension>
        </extensions>
      </trkpt>
      <trkpt lat="42.5993040762841701507568359375" lon="19.983877725899219512939453125">
        <ele>1222</ele>
        <time>2026-06-15T15:35:12.000Z</time>
        <extensions>
          <ns3:TrackPointExtension>
            <ns3:atemp>20.0</ns3:atemp>
          </ns3:TrackPointExtension>
        </extensions>
      </trkpt>
      <trkpt lat="42.5993040762841701507568359375" lon="19.983877725899219512939453125">
        <ele>1222</ele>
        <time>2026-06-15T15:35:13.000Z</time>
        <extensions>
          <ns3:TrackPointExtension>
            <ns3:atemp>20.0</ns3:atemp>
          </ns3:TrackPointExtension>
        </extensions>
      </trkpt>
      <trkpt lat="42.5993040762841701507568359375" lon="19.983877725899219512939453125">
        <ele>1222</ele>
        <time>2026-06-15T15:35:14.000Z</time>
        <extensions>
          <ns3:TrackPointExtension>
            <ns3:atemp>20.0</ns3:atemp>
          </ns3:TrackPointExtension>
        </extensions>
      </trkpt>
      <trkpt lat="42.5993040762841701507568359375" lon="19.983877725899219512939453125">
        <ele>1222</ele>
        <time>2026-06-15T15:35:15.000Z</time>
        <extensions>
          <ns3:TrackPointExtension>
            <ns3:atemp>20.0</ns3:atemp>
          </ns3:TrackPointExtension>
        </extensions>
      </trkpt>
      <trkpt lat="42.5993040762841701507568359375" lon="19.983877725899219512939453125">
        <ele>1222</ele>
        <time>2026-06-15T15:35:16.000Z</time>
        <extensions>
          <ns3:TrackPointExtension>
            <ns3:atemp>20.0</ns3:atemp>
          </ns3:TrackPointExtension>
        </extensions>
      </trkpt>
      <trkpt lat="42.5993040762841701507568359375" lon="19.983877725899219512939453125">
        <ele>1222</ele>
        <time>2026-06-15T15:35:17.000Z</time>
        <extensions>
          <ns3:TrackPointExtension>
            <ns3:atemp>20.0</ns3:atemp>
          </ns3:TrackPointExtension>
        </extensions>
      </trkpt>
      <trkpt lat="42.5993040762841701507568359375" lon="19.983877725899219512939453125">
        <ele>1222</ele>
        <time>2026-06-15T15:35:18.000Z</time>
        <extensions>
          <ns3:TrackPointExtension>
            <ns3:atemp>20.0</ns3:atemp>
          </ns3:TrackPointExtension>
        </extensions>
      </trkpt>
      <trkpt lat="42.5993040762841701507568359375" lon="19.983877725899219512939453125">
        <ele>1222</ele>
        <time>2026-06-15T15:35:19.000Z</time>
        <extensions>
          <ns3:TrackPointExtension>
            <ns3:atemp>20.0</ns3:atemp>
          </ns3:TrackPointExtension>
        </extensions>
      </trkpt>
      <trkpt lat="42.5993040762841701507568359375" lon="19.983877725899219512939453125">
        <ele>1222</ele>
        <time>2026-06-15T15:35:20.000Z</time>
        <extensions>
          <ns3:TrackPointExtension>
            <ns3:atemp>20.0</ns3:atemp>
          </ns3:TrackPointExtension>
        </extensions>
      </trkpt>
      <trkpt lat="42.5993040762841701507568359375" lon="19.983877725899219512939453125">
        <ele>1222</ele>
        <time>2026-06-15T15:35:21.000Z</time>
        <extensions>
          <ns3:TrackPointExtension>
            <ns3:atemp>20.0</ns3:atemp>
          </ns3:TrackPointExtension>
        </extensions>
      </trkpt>
      <trkpt lat="42.5993040762841701507568359375" lon="19.983877725899219512939453125">
        <ele>1222</ele>
        <time>2026-06-15T15:35:22.000Z</time>
        <extensions>
          <ns3:TrackPointExtension>
            <ns3:atemp>20.0</ns3:atemp>
          </ns3:TrackPointExtension>
        </extensions>
      </trkpt>
      <trkpt lat="42.5993040762841701507568359375" lon="19.983877725899219512939453125">
        <ele>1222</ele>
        <time>2026-06-15T15:35:23.000Z</time>
        <extensions>
          <ns3:TrackPointExtension>
            <ns3:atemp>20.0</ns3:atemp>
          </ns3:TrackPointExtension>
        </extensions>
      </trkpt>
      <trkpt lat="42.5993040762841701507568359375" lon="19.983877725899219512939453125">
        <ele>1222</ele>
        <time>2026-06-15T15:35:24.000Z</time>
        <extensions>
          <ns3:TrackPointExtension>
            <ns3:atemp>20.0</ns3:atemp>
          </ns3:TrackPointExtension>
        </extensions>
      </trkpt>
      <trkpt lat="42.5993040762841701507568359375" lon="19.983877725899219512939453125">
        <ele>1222</ele>
        <time>2026-06-15T15:35:25.000Z</time>
        <extensions>
          <ns3:TrackPointExtension>
            <ns3:atemp>20.0</ns3:atemp>
          </ns3:TrackPointExtension>
        </extensions>
      </trkpt>
      <trkpt lat="42.5993040762841701507568359375" lon="19.983877725899219512939453125">
        <ele>1222</ele>
        <time>2026-06-15T15:35:26.000Z</time>
        <extensions>
          <ns3:TrackPointExtension>
            <ns3:atemp>20.0</ns3:atemp>
          </ns3:TrackPointExtension>
        </extensions>
      </trkpt>
      <trkpt lat="42.5993040762841701507568359375" lon="19.983877725899219512939453125">
        <ele>1222</ele>
        <time>2026-06-15T15:35:27.000Z</time>
        <extensions>
          <ns3:TrackPointExtension>
            <ns3:atemp>20.0</ns3:atemp>
          </ns3:TrackPointExtension>
        </extensions>
      </trkpt>
      <trkpt lat="42.5993040762841701507568359375" lon="19.983877725899219512939453125">
        <ele>1222</ele>
        <time>2026-06-15T15:35:28.000Z</time>
        <extensions>
          <ns3:TrackPointExtension>
            <ns3:atemp>20.0</ns3:atemp>
          </ns3:TrackPointExtension>
        </extensions>
      </trkpt>
      <trkpt lat="42.5993040762841701507568359375" lon="19.983877725899219512939453125">
        <ele>1222</ele>
        <time>2026-06-15T15:35:29.000Z</time>
        <extensions>
          <ns3:TrackPointExtension>
            <ns3:atemp>20.0</ns3:atemp>
          </ns3:TrackPointExtension>
        </extensions>
      </trkpt>
      <trkpt lat="42.5993040762841701507568359375" lon="19.983877725899219512939453125">
        <ele>1222</ele>
        <time>2026-06-15T15:35:30.000Z</time>
        <extensions>
          <ns3:TrackPointExtension>
            <ns3:atemp>20.0</ns3:atemp>
          </ns3:TrackPointExtension>
        </extensions>
      </trkpt>
      <trkpt lat="42.5993040762841701507568359375" lon="19.983877725899219512939453125">
        <ele>1222</ele>
        <time>2026-06-15T15:35:31.000Z</time>
        <extensions>
          <ns3:TrackPointExtension>
            <ns3:atemp>20.0</ns3:atemp>
          </ns3:TrackPointExtension>
        </extensions>
      </trkpt>
      <trkpt lat="42.5993040762841701507568359375" lon="19.983877725899219512939453125">
        <ele>1222</ele>
        <time>2026-06-15T15:35:32.000Z</time>
        <extensions>
          <ns3:TrackPointExtension>
            <ns3:atemp>20.0</ns3:atemp>
          </ns3:TrackPointExtension>
        </extensions>
      </trkpt>
      <trkpt lat="42.5993040762841701507568359375" lon="19.983877725899219512939453125">
        <ele>1222</ele>
        <time>2026-06-15T15:35:33.000Z</time>
        <extensions>
          <ns3:TrackPointExtension>
            <ns3:atemp>20.0</ns3:atemp>
          </ns3:TrackPointExtension>
        </extensions>
      </trkpt>
      <trkpt lat="42.5993040762841701507568359375" lon="19.983877725899219512939453125">
        <ele>1222</ele>
        <time>2026-06-15T15:35:34.000Z</time>
        <extensions>
          <ns3:TrackPointExtension>
            <ns3:atemp>20.0</ns3:atemp>
          </ns3:TrackPointExtension>
        </extensions>
      </trkpt>
      <trkpt lat="42.5993040762841701507568359375" lon="19.983877725899219512939453125">
        <ele>1222</ele>
        <time>2026-06-15T15:35:35.000Z</time>
        <extensions>
          <ns3:TrackPointExtension>
            <ns3:atemp>20.0</ns3:atemp>
          </ns3:TrackPointExtension>
        </extensions>
      </trkpt>
      <trkpt lat="42.5993040762841701507568359375" lon="19.983877725899219512939453125">
        <ele>1222</ele>
        <time>2026-06-15T15:35:36.000Z</time>
        <extensions>
          <ns3:TrackPointExtension>
            <ns3:atemp>20.0</ns3:atemp>
          </ns3:TrackPointExtension>
        </extensions>
      </trkpt>
      <trkpt lat="42.5993040762841701507568359375" lon="19.983877725899219512939453125">
        <ele>1222</ele>
        <time>2026-06-15T15:35:37.000Z</time>
        <extensions>
          <ns3:TrackPointExtension>
            <ns3:atemp>20.0</ns3:atemp>
          </ns3:TrackPointExtension>
        </extensions>
      </trkpt>
      <trkpt lat="42.5993040762841701507568359375" lon="19.983877725899219512939453125">
        <ele>1222</ele>
        <time>2026-06-15T15:35:38.000Z</time>
        <extensions>
          <ns3:TrackPointExtension>
            <ns3:atemp>20.0</ns3:atemp>
          </ns3:TrackPointExtension>
        </extensions>
      </trkpt>
      <trkpt lat="42.5993040762841701507568359375" lon="19.983877725899219512939453125">
        <ele>1222</ele>
        <time>2026-06-15T15:35:39.000Z</time>
        <extensions>
          <ns3:TrackPointExtension>
            <ns3:atemp>20.0</ns3:atemp>
          </ns3:TrackPointExtension>
        </extensions>
      </trkpt>
      <trkpt lat="42.5993040762841701507568359375" lon="19.983877725899219512939453125">
        <ele>1222</ele>
        <time>2026-06-15T15:35:40.000Z</time>
        <extensions>
          <ns3:TrackPointExtension>
            <ns3:atemp>20.0</ns3:atemp>
          </ns3:TrackPointExtension>
        </extensions>
      </trkpt>
      <trkpt lat="42.5993040762841701507568359375" lon="19.983877725899219512939453125">
        <ele>1222</ele>
        <time>2026-06-15T15:35:41.000Z</time>
        <extensions>
          <ns3:TrackPointExtension>
            <ns3:atemp>20.0</ns3:atemp>
          </ns3:TrackPointExtension>
        </extensions>
      </trkpt>
      <trkpt lat="42.5993040762841701507568359375" lon="19.983877725899219512939453125">
        <ele>1222</ele>
        <time>2026-06-15T15:35:42.000Z</time>
        <extensions>
          <ns3:TrackPointExtension>
            <ns3:atemp>20.0</ns3:atemp>
          </ns3:TrackPointExtension>
        </extensions>
      </trkpt>
      <trkpt lat="42.5993040762841701507568359375" lon="19.983877725899219512939453125">
        <ele>1222</ele>
        <time>2026-06-15T15:35:43.000Z</time>
        <extensions>
          <ns3:TrackPointExtension>
            <ns3:atemp>20.0</ns3:atemp>
          </ns3:TrackPointExtension>
        </extensions>
      </trkpt>
      <trkpt lat="42.5993040762841701507568359375" lon="19.983877725899219512939453125">
        <ele>1222</ele>
        <time>2026-06-15T15:35:44.000Z</time>
        <extensions>
          <ns3:TrackPointExtension>
            <ns3:atemp>20.0</ns3:atemp>
          </ns3:TrackPointExtension>
        </extensions>
      </trkpt>
      <trkpt lat="42.5993040762841701507568359375" lon="19.983877725899219512939453125">
        <ele>1222</ele>
        <time>2026-06-15T15:35:45.000Z</time>
        <extensions>
          <ns3:TrackPointExtension>
            <ns3:atemp>20.0</ns3:atemp>
          </ns3:TrackPointExtension>
        </extensions>
      </trkpt>
      <trkpt lat="42.5993040762841701507568359375" lon="19.983877725899219512939453125">
        <ele>1222</ele>
        <time>2026-06-15T15:35:46.000Z</time>
        <extensions>
          <ns3:TrackPointExtension>
            <ns3:atemp>20.0</ns3:atemp>
          </ns3:TrackPointExtension>
        </extensions>
      </trkpt>
      <trkpt lat="42.5993040762841701507568359375" lon="19.983877725899219512939453125">
        <ele>1222</ele>
        <time>2026-06-15T15:35:47.000Z</time>
        <extensions>
          <ns3:TrackPointExtension>
            <ns3:atemp>20.0</ns3:atemp>
          </ns3:TrackPointExtension>
        </extensions>
      </trkpt>
      <trkpt lat="42.5993040762841701507568359375" lon="19.983877725899219512939453125">
        <ele>1222</ele>
        <time>2026-06-15T15:35:48.000Z</time>
        <extensions>
          <ns3:TrackPointExtension>
            <ns3:atemp>20.0</ns3:atemp>
          </ns3:TrackPointExtension>
        </extensions>
      </trkpt>
      <trkpt lat="42.5993040762841701507568359375" lon="19.983877725899219512939453125">
        <ele>1222</ele>
        <time>2026-06-15T15:35:49.000Z</time>
        <extensions>
          <ns3:TrackPointExtension>
            <ns3:atemp>20.0</ns3:atemp>
          </ns3:TrackPointExtension>
        </extensions>
      </trkpt>
      <trkpt lat="42.5993040762841701507568359375" lon="19.983877725899219512939453125">
        <ele>1222</ele>
        <time>2026-06-15T15:35:50.000Z</time>
        <extensions>
          <ns3:TrackPointExtension>
            <ns3:atemp>20.0</ns3:atemp>
          </ns3:TrackPointExtension>
        </extensions>
      </trkpt>
      <trkpt lat="42.5993040762841701507568359375" lon="19.983877725899219512939453125">
        <ele>1222</ele>
        <time>2026-06-15T15:35:51.000Z</time>
        <extensions>
          <ns3:TrackPointExtension>
            <ns3:atemp>20.0</ns3:atemp>
          </ns3:TrackPointExtension>
        </extensions>
      </trkpt>
      <trkpt lat="42.5993040762841701507568359375" lon="19.983877725899219512939453125">
        <ele>1222</ele>
        <time>2026-06-15T15:35:52.000Z</time>
        <extensions>
          <ns3:TrackPointExtension>
            <ns3:atemp>20.0</ns3:atemp>
          </ns3:TrackPointExtension>
        </extensions>
      </trkpt>
      <trkpt lat="42.5993040762841701507568359375" lon="19.983877725899219512939453125">
        <ele>1222</ele>
        <time>2026-06-15T15:35:53.000Z</time>
        <extensions>
          <ns3:TrackPointExtension>
            <ns3:atemp>20.0</ns3:atemp>
          </ns3:TrackPointExtension>
        </extensions>
      </trkpt>
      <trkpt lat="42.5993040762841701507568359375" lon="19.983877725899219512939453125">
        <ele>1222</ele>
        <time>2026-06-15T15:35:54.000Z</time>
        <extensions>
          <ns3:TrackPointExtension>
            <ns3:atemp>20.0</ns3:atemp>
          </ns3:TrackPointExtension>
        </extensions>
      </trkpt>
      <trkpt lat="42.5993040762841701507568359375" lon="19.983877725899219512939453125">
        <ele>1222</ele>
        <time>2026-06-15T15:35:55.000Z</time>
        <extensions>
          <ns3:TrackPointExtension>
            <ns3:atemp>20.0</ns3:atemp>
          </ns3:TrackPointExtension>
        </extensions>
      </trkpt>
      <trkpt lat="42.5993040762841701507568359375" lon="19.983877725899219512939453125">
        <ele>1222</ele>
        <time>2026-06-15T15:35:56.000Z</time>
        <extensions>
          <ns3:TrackPointExtension>
            <ns3:atemp>20.0</ns3:atemp>
          </ns3:TrackPointExtension>
        </extensions>
      </trkpt>
      <trkpt lat="42.5993040762841701507568359375" lon="19.983877725899219512939453125">
        <ele>1222</ele>
        <time>2026-06-15T15:35:57.000Z</time>
        <extensions>
          <ns3:TrackPointExtension>
            <ns3:atemp>20.0</ns3:atemp>
          </ns3:TrackPointExtension>
        </extensions>
      </trkpt>
      <trkpt lat="42.5993040762841701507568359375" lon="19.983877725899219512939453125">
        <ele>1222</ele>
        <time>2026-06-15T15:35:58.000Z</time>
        <extensions>
          <ns3:TrackPointExtension>
            <ns3:atemp>20.0</ns3:atemp>
          </ns3:TrackPointExtension>
        </extensions>
      </trkpt>
      <trkpt lat="42.5993040762841701507568359375" lon="19.983877725899219512939453125">
        <ele>1222</ele>
        <time>2026-06-15T15:35:59.000Z</time>
        <extensions>
          <ns3:TrackPointExtension>
            <ns3:atemp>20.0</ns3:atemp>
          </ns3:TrackPointExtension>
        </extensions>
      </trkpt>
      <trkpt lat="42.5993040762841701507568359375" lon="19.983877725899219512939453125">
        <ele>1222</ele>
        <time>2026-06-15T15:36:00.000Z</time>
        <extensions>
          <ns3:TrackPointExtension>
            <ns3:atemp>20.0</ns3:atemp>
          </ns3:TrackPointExtension>
        </extensions>
      </trkpt>
      <trkpt lat="42.5993040762841701507568359375" lon="19.983877725899219512939453125">
        <ele>1222</ele>
        <time>2026-06-15T15:36:01.000Z</time>
        <extensions>
          <ns3:TrackPointExtension>
            <ns3:atemp>20.0</ns3:atemp>
          </ns3:TrackPointExtension>
        </extensions>
      </trkpt>
      <trkpt lat="42.5993040762841701507568359375" lon="19.983877725899219512939453125">
        <ele>1222</ele>
        <time>2026-06-15T15:36:02.000Z</time>
        <extensions>
          <ns3:TrackPointExtension>
            <ns3:atemp>20.0</ns3:atemp>
          </ns3:TrackPointExtension>
        </extensions>
      </trkpt>
      <trkpt lat="42.5993040762841701507568359375" lon="19.983877725899219512939453125">
        <ele>1222</ele>
        <time>2026-06-15T15:36:03.000Z</time>
        <extensions>
          <ns3:TrackPointExtension>
            <ns3:atemp>20.0</ns3:atemp>
          </ns3:TrackPointExtension>
        </extensions>
      </trkpt>
      <trkpt lat="42.5993040762841701507568359375" lon="19.983877725899219512939453125">
        <ele>1222</ele>
        <time>2026-06-15T15:36:04.000Z</time>
        <extensions>
          <ns3:TrackPointExtension>
            <ns3:atemp>20.0</ns3:atemp>
          </ns3:TrackPointExtension>
        </extensions>
      </trkpt>
      <trkpt lat="42.5993040762841701507568359375" lon="19.983877725899219512939453125">
        <ele>1222</ele>
        <time>2026-06-15T15:36:05.000Z</time>
        <extensions>
          <ns3:TrackPointExtension>
            <ns3:atemp>20.0</ns3:atemp>
          </ns3:TrackPointExtension>
        </extensions>
      </trkpt>
      <trkpt lat="42.5993040762841701507568359375" lon="19.983877725899219512939453125">
        <ele>1222</ele>
        <time>2026-06-15T15:36:06.000Z</time>
        <extensions>
          <ns3:TrackPointExtension>
            <ns3:atemp>20.0</ns3:atemp>
          </ns3:TrackPointExtension>
        </extensions>
      </trkpt>
      <trkpt lat="42.5993040762841701507568359375" lon="19.983877725899219512939453125">
        <ele>1222</ele>
        <time>2026-06-15T15:36:07.000Z</time>
        <extensions>
          <ns3:TrackPointExtension>
            <ns3:atemp>20.0</ns3:atemp>
          </ns3:TrackPointExtension>
        </extensions>
      </trkpt>
      <trkpt lat="42.5993040762841701507568359375" lon="19.983877725899219512939453125">
        <ele>1222</ele>
        <time>2026-06-15T15:36:08.000Z</time>
        <extensions>
          <ns3:TrackPointExtension>
            <ns3:atemp>20.0</ns3:atemp>
          </ns3:TrackPointExtension>
        </extensions>
      </trkpt>
      <trkpt lat="42.5993040762841701507568359375" lon="19.983877725899219512939453125">
        <ele>1222</ele>
        <time>2026-06-15T15:36:09.000Z</time>
        <extensions>
          <ns3:TrackPointExtension>
            <ns3:atemp>20.0</ns3:atemp>
          </ns3:TrackPointExtension>
        </extensions>
      </trkpt>
      <trkpt lat="42.5993040762841701507568359375" lon="19.983877725899219512939453125">
        <ele>1222</ele>
        <time>2026-06-15T15:36:10.000Z</time>
        <extensions>
          <ns3:TrackPointExtension>
            <ns3:atemp>20.0</ns3:atemp>
          </ns3:TrackPointExtension>
        </extensions>
      </trkpt>
      <trkpt lat="42.5993040762841701507568359375" lon="19.983877725899219512939453125">
        <ele>1222</ele>
        <time>2026-06-15T15:36:11.000Z</time>
        <extensions>
          <ns3:TrackPointExtension>
            <ns3:atemp>20.0</ns3:atemp>
          </ns3:TrackPointExtension>
        </extensions>
      </trkpt>
      <trkpt lat="42.5993040762841701507568359375" lon="19.983877725899219512939453125">
        <ele>1222</ele>
        <time>2026-06-15T15:36:12.000Z</time>
        <extensions>
          <ns3:TrackPointExtension>
            <ns3:atemp>20.0</ns3:atemp>
          </ns3:TrackPointExtension>
        </extensions>
      </trkpt>
      <trkpt lat="42.5993040762841701507568359375" lon="19.983877725899219512939453125">
        <ele>1222</ele>
        <time>2026-06-15T15:36:13.000Z</time>
        <extensions>
          <ns3:TrackPointExtension>
            <ns3:atemp>20.0</ns3:atemp>
          </ns3:TrackPointExtension>
        </extensions>
      </trkpt>
      <trkpt lat="42.5993040762841701507568359375" lon="19.983877725899219512939453125">
        <ele>1222</ele>
        <time>2026-06-15T15:36:14.000Z</time>
        <extensions>
          <ns3:TrackPointExtension>
            <ns3:atemp>20.0</ns3:atemp>
          </ns3:TrackPointExtension>
        </extensions>
      </trkpt>
      <trkpt lat="42.5993040762841701507568359375" lon="19.983877725899219512939453125">
        <ele>1222</ele>
        <time>2026-06-15T15:36:15.000Z</time>
        <extensions>
          <ns3:TrackPointExtension>
            <ns3:atemp>20.0</ns3:atemp>
          </ns3:TrackPointExtension>
        </extensions>
      </trkpt>
      <trkpt lat="42.5993040762841701507568359375" lon="19.983877725899219512939453125">
        <ele>1222</ele>
        <time>2026-06-15T15:36:16.000Z</time>
        <extensions>
          <ns3:TrackPointExtension>
            <ns3:atemp>20.0</ns3:atemp>
          </ns3:TrackPointExtension>
        </extensions>
      </trkpt>
      <trkpt lat="42.5993040762841701507568359375" lon="19.983877725899219512939453125">
        <ele>1222</ele>
        <time>2026-06-15T15:36:17.000Z</time>
        <extensions>
          <ns3:TrackPointExtension>
            <ns3:atemp>20.0</ns3:atemp>
          </ns3:TrackPointExtension>
        </extensions>
      </trkpt>
      <trkpt lat="42.5993040762841701507568359375" lon="19.983877725899219512939453125">
        <ele>1222</ele>
        <time>2026-06-15T15:36:18.000Z</time>
        <extensions>
          <ns3:TrackPointExtension>
            <ns3:atemp>20.0</ns3:atemp>
          </ns3:TrackPointExtension>
        </extensions>
      </trkpt>
      <trkpt lat="42.5993040762841701507568359375" lon="19.983877725899219512939453125">
        <ele>1222</ele>
        <time>2026-06-15T15:36:19.000Z</time>
        <extensions>
          <ns3:TrackPointExtension>
            <ns3:atemp>20.0</ns3:atemp>
          </ns3:TrackPointExtension>
        </extensions>
      </trkpt>
      <trkpt lat="42.5993040762841701507568359375" lon="19.983877725899219512939453125">
        <ele>1222</ele>
        <time>2026-06-15T15:36:20.000Z</time>
        <extensions>
          <ns3:TrackPointExtension>
            <ns3:atemp>20.0</ns3:atemp>
          </ns3:TrackPointExtension>
        </extensions>
      </trkpt>
      <trkpt lat="42.5993040762841701507568359375" lon="19.983877725899219512939453125">
        <ele>1222</ele>
        <time>2026-06-15T15:36:21.000Z</time>
        <extensions>
          <ns3:TrackPointExtension>
            <ns3:atemp>20.0</ns3:atemp>
          </ns3:TrackPointExtension>
        </extensions>
      </trkpt>
      <trkpt lat="42.5993040762841701507568359375" lon="19.983877725899219512939453125">
        <ele>1222</ele>
        <time>2026-06-15T15:36:22.000Z</time>
        <extensions>
          <ns3:TrackPointExtension>
            <ns3:atemp>20.0</ns3:atemp>
          </ns3:TrackPointExtension>
        </extensions>
      </trkpt>
      <trkpt lat="42.5993040762841701507568359375" lon="19.983877725899219512939453125">
        <ele>1222</ele>
        <time>2026-06-15T15:36:23.000Z</time>
        <extensions>
          <ns3:TrackPointExtension>
            <ns3:atemp>20.0</ns3:atemp>
          </ns3:TrackPointExtension>
        </extensions>
      </trkpt>
      <trkpt lat="42.5993040762841701507568359375" lon="19.983877725899219512939453125">
        <ele>1222</ele>
        <time>2026-06-15T15:36:24.000Z</time>
        <extensions>
          <ns3:TrackPointExtension>
            <ns3:atemp>20.0</ns3:atemp>
          </ns3:TrackPointExtension>
        </extensions>
      </trkpt>
      <trkpt lat="42.5993040762841701507568359375" lon="19.983877725899219512939453125">
        <ele>1222</ele>
        <time>2026-06-15T15:36:25.000Z</time>
        <extensions>
          <ns3:TrackPointExtension>
            <ns3:atemp>20.0</ns3:atemp>
          </ns3:TrackPointExtension>
        </extensions>
      </trkpt>
      <trkpt lat="42.5993040762841701507568359375" lon="19.983877725899219512939453125">
        <ele>1222</ele>
        <time>2026-06-15T15:36:26.000Z</time>
        <extensions>
          <ns3:TrackPointExtension>
            <ns3:atemp>20.0</ns3:atemp>
          </ns3:TrackPointExtension>
        </extensions>
      </trkpt>
      <trkpt lat="42.5993040762841701507568359375" lon="19.983877725899219512939453125">
        <ele>1222</ele>
        <time>2026-06-15T15:36:27.000Z</time>
        <extensions>
          <ns3:TrackPointExtension>
            <ns3:atemp>20.0</ns3:atemp>
          </ns3:TrackPointExtension>
        </extensions>
      </trkpt>
      <trkpt lat="42.5993040762841701507568359375" lon="19.983877725899219512939453125">
        <ele>1222</ele>
        <time>2026-06-15T15:36:28.000Z</time>
        <extensions>
          <ns3:TrackPointExtension>
            <ns3:atemp>20.0</ns3:atemp>
          </ns3:TrackPointExtension>
        </extensions>
      </trkpt>
      <trkpt lat="42.5993040762841701507568359375" lon="19.983877725899219512939453125">
        <ele>1222</ele>
        <time>2026-06-15T15:36:29.000Z</time>
        <extensions>
          <ns3:TrackPointExtension>
            <ns3:atemp>20.0</ns3:atemp>
          </ns3:TrackPointExtension>
        </extensions>
      </trkpt>
      <trkpt lat="42.5993040762841701507568359375" lon="19.983877725899219512939453125">
        <ele>1222</ele>
        <time>2026-06-15T15:36:30.000Z</time>
        <extensions>
          <ns3:TrackPointExtension>
            <ns3:atemp>20.0</ns3:atemp>
          </ns3:TrackPointExtension>
        </extensions>
      </trkpt>
      <trkpt lat="42.5993040762841701507568359375" lon="19.983877725899219512939453125">
        <ele>1222</ele>
        <time>2026-06-15T15:36:31.000Z</time>
        <extensions>
          <ns3:TrackPointExtension>
            <ns3:atemp>20.0</ns3:atemp>
          </ns3:TrackPointExtension>
        </extensions>
      </trkpt>
      <trkpt lat="42.5993040762841701507568359375" lon="19.983877725899219512939453125">
        <ele>1222</ele>
        <time>2026-06-15T15:36:32.000Z</time>
        <extensions>
          <ns3:TrackPointExtension>
            <ns3:atemp>20.0</ns3:atemp>
          </ns3:TrackPointExtension>
        </extensions>
      </trkpt>
      <trkpt lat="42.5993040762841701507568359375" lon="19.983877725899219512939453125">
        <ele>1222</ele>
        <time>2026-06-15T15:36:33.000Z</time>
        <extensions>
          <ns3:TrackPointExtension>
            <ns3:atemp>20.0</ns3:atemp>
          </ns3:TrackPointExtension>
        </extensions>
      </trkpt>
      <trkpt lat="42.5993040762841701507568359375" lon="19.983877725899219512939453125">
        <ele>1222</ele>
        <time>2026-06-15T15:36:34.000Z</time>
        <extensions>
          <ns3:TrackPointExtension>
            <ns3:atemp>20.0</ns3:atemp>
          </ns3:TrackPointExtension>
        </extensions>
      </trkpt>
      <trkpt lat="42.5993040762841701507568359375" lon="19.983877725899219512939453125">
        <ele>1222</ele>
        <time>2026-06-15T15:36:35.000Z</time>
        <extensions>
          <ns3:TrackPointExtension>
            <ns3:atemp>20.0</ns3:atemp>
          </ns3:TrackPointExtension>
        </extensions>
      </trkpt>
      <trkpt lat="42.5993040762841701507568359375" lon="19.983877725899219512939453125">
        <ele>1222</ele>
        <time>2026-06-15T15:36:36.000Z</time>
        <extensions>
          <ns3:TrackPointExtension>
            <ns3:atemp>20.0</ns3:atemp>
          </ns3:TrackPointExtension>
        </extensions>
      </trkpt>
      <trkpt lat="42.5993040762841701507568359375" lon="19.983877725899219512939453125">
        <ele>1222</ele>
        <time>2026-06-15T15:36:37.000Z</time>
        <extensions>
          <ns3:TrackPointExtension>
            <ns3:atemp>20.0</ns3:atemp>
          </ns3:TrackPointExtension>
        </extensions>
      </trkpt>
      <trkpt lat="42.5993040762841701507568359375" lon="19.983877725899219512939453125">
        <ele>1222</ele>
        <time>2026-06-15T15:36:38.000Z</time>
        <extensions>
          <ns3:TrackPointExtension>
            <ns3:atemp>20.0</ns3:atemp>
          </ns3:TrackPointExtension>
        </extensions>
      </trkpt>
      <trkpt lat="42.5993040762841701507568359375" lon="19.983877725899219512939453125">
        <ele>1222</ele>
        <time>2026-06-15T15:36:39.000Z</time>
        <extensions>
          <ns3:TrackPointExtension>
            <ns3:atemp>20.0</ns3:atemp>
          </ns3:TrackPointExtension>
        </extensions>
      </trkpt>
      <trkpt lat="42.5993040762841701507568359375" lon="19.983877725899219512939453125">
        <ele>1222</ele>
        <time>2026-06-15T15:36:40.000Z</time>
        <extensions>
          <ns3:TrackPointExtension>
            <ns3:atemp>20.0</ns3:atemp>
          </ns3:TrackPointExtension>
        </extensions>
      </trkpt>
      <trkpt lat="42.5993040762841701507568359375" lon="19.983877725899219512939453125">
        <ele>1222</ele>
        <time>2026-06-15T15:36:41.000Z</time>
        <extensions>
          <ns3:TrackPointExtension>
            <ns3:atemp>20.0</ns3:atemp>
          </ns3:TrackPointExtension>
        </extensions>
      </trkpt>
      <trkpt lat="42.5993040762841701507568359375" lon="19.983877725899219512939453125">
        <ele>1222</ele>
        <time>2026-06-15T15:36:42.000Z</time>
        <extensions>
          <ns3:TrackPointExtension>
            <ns3:atemp>20.0</ns3:atemp>
          </ns3:TrackPointExtension>
        </extensions>
      </trkpt>
      <trkpt lat="42.5993040762841701507568359375" lon="19.983877725899219512939453125">
        <ele>1222</ele>
        <time>2026-06-15T15:36:43.000Z</time>
        <extensions>
          <ns3:TrackPointExtension>
            <ns3:atemp>20.0</ns3:atemp>
          </ns3:TrackPointExtension>
        </extensions>
      </trkpt>
      <trkpt lat="42.5993040762841701507568359375" lon="19.983877725899219512939453125">
        <ele>1222</ele>
        <time>2026-06-15T15:36:44.000Z</time>
        <extensions>
          <ns3:TrackPointExtension>
            <ns3:atemp>20.0</ns3:atemp>
          </ns3:TrackPointExtension>
        </extensions>
      </trkpt>
      <trkpt lat="42.5993040762841701507568359375" lon="19.983877725899219512939453125">
        <ele>1222</ele>
        <time>2026-06-15T15:36:45.000Z</time>
        <extensions>
          <ns3:TrackPointExtension>
            <ns3:atemp>20.0</ns3:atemp>
          </ns3:TrackPointExtension>
        </extensions>
      </trkpt>
      <trkpt lat="42.5993040762841701507568359375" lon="19.983877725899219512939453125">
        <ele>1222</ele>
        <time>2026-06-15T15:36:46.000Z</time>
        <extensions>
          <ns3:TrackPointExtension>
            <ns3:atemp>20.0</ns3:atemp>
          </ns3:TrackPointExtension>
        </extensions>
      </trkpt>
      <trkpt lat="42.5993040762841701507568359375" lon="19.983877725899219512939453125">
        <ele>1222</ele>
        <time>2026-06-15T15:36:47.000Z</time>
        <extensions>
          <ns3:TrackPointExtension>
            <ns3:atemp>20.0</ns3:atemp>
          </ns3:TrackPointExtension>
        </extensions>
      </trkpt>
      <trkpt lat="42.5993040762841701507568359375" lon="19.983877725899219512939453125">
        <ele>1222</ele>
        <time>2026-06-15T15:36:48.000Z</time>
        <extensions>
          <ns3:TrackPointExtension>
            <ns3:atemp>20.0</ns3:atemp>
          </ns3:TrackPointExtension>
        </extensions>
      </trkpt>
      <trkpt lat="42.5993040762841701507568359375" lon="19.983877725899219512939453125">
        <ele>1222</ele>
        <time>2026-06-15T15:36:49.000Z</time>
        <extensions>
          <ns3:TrackPointExtension>
            <ns3:atemp>20.0</ns3:atemp>
          </ns3:TrackPointExtension>
        </extensions>
      </trkpt>
      <trkpt lat="42.5993040762841701507568359375" lon="19.983877725899219512939453125">
        <ele>1222</ele>
        <time>2026-06-15T15:36:50.000Z</time>
        <extensions>
          <ns3:TrackPointExtension>
            <ns3:atemp>20.0</ns3:atemp>
          </ns3:TrackPointExtension>
        </extensions>
      </trkpt>
      <trkpt lat="42.5993040762841701507568359375" lon="19.983877725899219512939453125">
        <ele>1222</ele>
        <time>2026-06-15T15:36:51.000Z</time>
        <extensions>
          <ns3:TrackPointExtension>
            <ns3:atemp>20.0</ns3:atemp>
          </ns3:TrackPointExtension>
        </extensions>
      </trkpt>
      <trkpt lat="42.5993040762841701507568359375" lon="19.983877725899219512939453125">
        <ele>1222</ele>
        <time>2026-06-15T15:36:52.000Z</time>
        <extensions>
          <ns3:TrackPointExtension>
            <ns3:atemp>20.0</ns3:atemp>
          </ns3:TrackPointExtension>
        </extensions>
      </trkpt>
      <trkpt lat="42.5993040762841701507568359375" lon="19.983877725899219512939453125">
        <ele>1222</ele>
        <time>2026-06-15T15:36:53.000Z</time>
        <extensions>
          <ns3:TrackPointExtension>
            <ns3:atemp>20.0</ns3:atemp>
          </ns3:TrackPointExtension>
        </extensions>
      </trkpt>
      <trkpt lat="42.5993040762841701507568359375" lon="19.983877725899219512939453125">
        <ele>1222</ele>
        <time>2026-06-15T15:36:54.000Z</time>
        <extensions>
          <ns3:TrackPointExtension>
            <ns3:atemp>20.0</ns3:atemp>
          </ns3:TrackPointExtension>
        </extensions>
      </trkpt>
      <trkpt lat="42.5993040762841701507568359375" lon="19.983877725899219512939453125">
        <ele>1222</ele>
        <time>2026-06-15T15:36:55.000Z</time>
        <extensions>
          <ns3:TrackPointExtension>
            <ns3:atemp>20.0</ns3:atemp>
          </ns3:TrackPointExtension>
        </extensions>
      </trkpt>
      <trkpt lat="42.5993040762841701507568359375" lon="19.983877725899219512939453125">
        <ele>1222</ele>
        <time>2026-06-15T15:36:56.000Z</time>
        <extensions>
          <ns3:TrackPointExtension>
            <ns3:atemp>20.0</ns3:atemp>
          </ns3:TrackPointExtension>
        </extensions>
      </trkpt>
      <trkpt lat="42.5993040762841701507568359375" lon="19.983877725899219512939453125">
        <ele>1222</ele>
        <time>2026-06-15T15:36:57.000Z</time>
        <extensions>
          <ns3:TrackPointExtension>
            <ns3:atemp>20.0</ns3:atemp>
          </ns3:TrackPointExtension>
        </extensions>
      </trkpt>
      <trkpt lat="42.5993040762841701507568359375" lon="19.983877725899219512939453125">
        <ele>1222</ele>
        <time>2026-06-15T15:36:58.000Z</time>
        <extensions>
          <ns3:TrackPointExtension>
            <ns3:atemp>20.0</ns3:atemp>
          </ns3:TrackPointExtension>
        </extensions>
      </trkpt>
      <trkpt lat="42.5993040762841701507568359375" lon="19.983877725899219512939453125">
        <ele>1222</ele>
        <time>2026-06-15T15:36:59.000Z</time>
        <extensions>
          <ns3:TrackPointExtension>
            <ns3:atemp>20.0</ns3:atemp>
          </ns3:TrackPointExtension>
        </extensions>
      </trkpt>
      <trkpt lat="42.5993040762841701507568359375" lon="19.983877725899219512939453125">
        <ele>1222</ele>
        <time>2026-06-15T15:37:00.000Z</time>
        <extensions>
          <ns3:TrackPointExtension>
            <ns3:atemp>20.0</ns3:atemp>
          </ns3:TrackPointExtension>
        </extensions>
      </trkpt>
      <trkpt lat="42.5993040762841701507568359375" lon="19.983877725899219512939453125">
        <ele>1222</ele>
        <time>2026-06-15T15:37:01.000Z</time>
        <extensions>
          <ns3:TrackPointExtension>
            <ns3:atemp>19.0</ns3:atemp>
          </ns3:TrackPointExtension>
        </extensions>
      </trkpt>
      <trkpt lat="42.5993040762841701507568359375" lon="19.983877725899219512939453125">
        <ele>1222</ele>
        <time>2026-06-15T15:37:02.000Z</time>
        <extensions>
          <ns3:TrackPointExtension>
            <ns3:atemp>19.0</ns3:atemp>
          </ns3:TrackPointExtension>
        </extensions>
      </trkpt>
      <trkpt lat="42.5993040762841701507568359375" lon="19.983877725899219512939453125">
        <ele>1222</ele>
        <time>2026-06-15T15:37:03.000Z</time>
        <extensions>
          <ns3:TrackPointExtension>
            <ns3:atemp>19.0</ns3:atemp>
          </ns3:TrackPointExtension>
        </extensions>
      </trkpt>
      <trkpt lat="42.5993040762841701507568359375" lon="19.983877725899219512939453125">
        <ele>1222</ele>
        <time>2026-06-15T15:37:04.000Z</time>
        <extensions>
          <ns3:TrackPointExtension>
            <ns3:atemp>20.0</ns3:atemp>
          </ns3:TrackPointExtension>
        </extensions>
      </trkpt>
      <trkpt lat="42.5993040762841701507568359375" lon="19.983877725899219512939453125">
        <ele>1222</ele>
        <time>2026-06-15T15:37:05.000Z</time>
        <extensions>
          <ns3:TrackPointExtension>
            <ns3:atemp>20.0</ns3:atemp>
          </ns3:TrackPointExtension>
        </extensions>
      </trkpt>
      <trkpt lat="42.5993040762841701507568359375" lon="19.983877725899219512939453125">
        <ele>1222</ele>
        <time>2026-06-15T15:37:06.000Z</time>
        <extensions>
          <ns3:TrackPointExtension>
            <ns3:atemp>19.0</ns3:atemp>
          </ns3:TrackPointExtension>
        </extensions>
      </trkpt>
      <trkpt lat="42.5993040762841701507568359375" lon="19.983877725899219512939453125">
        <ele>1222</ele>
        <time>2026-06-15T15:37:07.000Z</time>
        <extensions>
          <ns3:TrackPointExtension>
            <ns3:atemp>19.0</ns3:atemp>
          </ns3:TrackPointExtension>
        </extensions>
      </trkpt>
      <trkpt lat="42.5993040762841701507568359375" lon="19.983877725899219512939453125">
        <ele>1222</ele>
        <time>2026-06-15T15:37:08.000Z</time>
        <extensions>
          <ns3:TrackPointExtension>
            <ns3:atemp>20.0</ns3:atemp>
          </ns3:TrackPointExtension>
        </extensions>
      </trkpt>
      <trkpt lat="42.5993040762841701507568359375" lon="19.983877725899219512939453125">
        <ele>1222</ele>
        <time>2026-06-15T15:37:09.000Z</time>
        <extensions>
          <ns3:TrackPointExtension>
            <ns3:atemp>20.0</ns3:atemp>
          </ns3:TrackPointExtension>
        </extensions>
      </trkpt>
      <trkpt lat="42.5993040762841701507568359375" lon="19.983877725899219512939453125">
        <ele>1222</ele>
        <time>2026-06-15T15:37:10.000Z</time>
        <extensions>
          <ns3:TrackPointExtension>
            <ns3:atemp>20.0</ns3:atemp>
          </ns3:TrackPointExtension>
        </extensions>
      </trkpt>
      <trkpt lat="42.5993040762841701507568359375" lon="19.983877725899219512939453125">
        <ele>1222</ele>
        <time>2026-06-15T15:37:11.000Z</time>
        <extensions>
          <ns3:TrackPointExtension>
            <ns3:atemp>19.0</ns3:atemp>
          </ns3:TrackPointExtension>
        </extensions>
      </trkpt>
      <trkpt lat="42.5993040762841701507568359375" lon="19.983877725899219512939453125">
        <ele>1222</ele>
        <time>2026-06-15T15:37:12.000Z</time>
        <extensions>
          <ns3:TrackPointExtension>
            <ns3:atemp>19.0</ns3:atemp>
          </ns3:TrackPointExtension>
        </extensions>
      </trkpt>
      <trkpt lat="42.5993040762841701507568359375" lon="19.983877725899219512939453125">
        <ele>1222</ele>
        <time>2026-06-15T15:37:13.000Z</time>
        <extensions>
          <ns3:TrackPointExtension>
            <ns3:atemp>19.0</ns3:atemp>
          </ns3:TrackPointExtension>
        </extensions>
      </trkpt>
      <trkpt lat="42.5993040762841701507568359375" lon="19.983877725899219512939453125">
        <ele>1222</ele>
        <time>2026-06-15T15:37:14.000Z</time>
        <extensions>
          <ns3:TrackPointExtension>
            <ns3:atemp>19.0</ns3:atemp>
          </ns3:TrackPointExtension>
        </extensions>
      </trkpt>
      <trkpt lat="42.5993040762841701507568359375" lon="19.983877725899219512939453125">
        <ele>1222</ele>
        <time>2026-06-15T15:37:15.000Z</time>
        <extensions>
          <ns3:TrackPointExtension>
            <ns3:atemp>19.0</ns3:atemp>
          </ns3:TrackPointExtension>
        </extensions>
      </trkpt>
      <trkpt lat="42.5993040762841701507568359375" lon="19.983877725899219512939453125">
        <ele>1222</ele>
        <time>2026-06-15T15:37:16.000Z</time>
        <extensions>
          <ns3:TrackPointExtension>
            <ns3:atemp>19.0</ns3:atemp>
          </ns3:TrackPointExtension>
        </extensions>
      </trkpt>
      <trkpt lat="42.5993040762841701507568359375" lon="19.983877725899219512939453125">
        <ele>1222</ele>
        <time>2026-06-15T15:37:17.000Z</time>
        <extensions>
          <ns3:TrackPointExtension>
            <ns3:atemp>19.0</ns3:atemp>
          </ns3:TrackPointExtension>
        </extensions>
      </trkpt>
      <trkpt lat="42.5993040762841701507568359375" lon="19.983877725899219512939453125">
        <ele>1222</ele>
        <time>2026-06-15T15:37:18.000Z</time>
        <extensions>
          <ns3:TrackPointExtension>
            <ns3:atemp>20.0</ns3:atemp>
          </ns3:TrackPointExtension>
        </extensions>
      </trkpt>
      <trkpt lat="42.5993040762841701507568359375" lon="19.983877725899219512939453125">
        <ele>1222</ele>
        <time>2026-06-15T15:37:19.000Z</time>
        <extensions>
          <ns3:TrackPointExtension>
            <ns3:atemp>20.0</ns3:atemp>
          </ns3:TrackPointExtension>
        </extensions>
      </trkpt>
      <trkpt lat="42.5993040762841701507568359375" lon="19.983877725899219512939453125">
        <ele>1222</ele>
        <time>2026-06-15T15:37:20.000Z</time>
        <extensions>
          <ns3:TrackPointExtension>
            <ns3:atemp>20.0</ns3:atemp>
          </ns3:TrackPointExtension>
        </extensions>
      </trkpt>
      <trkpt lat="42.5993040762841701507568359375" lon="19.983877725899219512939453125">
        <ele>1222</ele>
        <time>2026-06-15T15:37:21.000Z</time>
        <extensions>
          <ns3:TrackPointExtension>
            <ns3:atemp>20.0</ns3:atemp>
          </ns3:TrackPointExtension>
        </extensions>
      </trkpt>
      <trkpt lat="42.5993040762841701507568359375" lon="19.983877725899219512939453125">
        <ele>1222</ele>
        <time>2026-06-15T15:37:22.000Z</time>
        <extensions>
          <ns3:TrackPointExtension>
            <ns3:atemp>20.0</ns3:atemp>
          </ns3:TrackPointExtension>
        </extensions>
      </trkpt>
      <trkpt lat="42.5993040762841701507568359375" lon="19.983877725899219512939453125">
        <ele>1222</ele>
        <time>2026-06-15T15:37:23.000Z</time>
        <extensions>
          <ns3:TrackPointExtension>
            <ns3:atemp>20.0</ns3:atemp>
          </ns3:TrackPointExtension>
        </extensions>
      </trkpt>
      <trkpt lat="42.5993040762841701507568359375" lon="19.983877725899219512939453125">
        <ele>1222</ele>
        <time>2026-06-15T15:37:24.000Z</time>
        <extensions>
          <ns3:TrackPointExtension>
            <ns3:atemp>20.0</ns3:atemp>
          </ns3:TrackPointExtension>
        </extensions>
      </trkpt>
      <trkpt lat="42.5993040762841701507568359375" lon="19.983877725899219512939453125">
        <ele>1222</ele>
        <time>2026-06-15T15:37:25.000Z</time>
        <extensions>
          <ns3:TrackPointExtension>
            <ns3:atemp>20.0</ns3:atemp>
          </ns3:TrackPointExtension>
        </extensions>
      </trkpt>
      <trkpt lat="42.5993040762841701507568359375" lon="19.983877725899219512939453125">
        <ele>1222</ele>
        <time>2026-06-15T15:37:26.000Z</time>
        <extensions>
          <ns3:TrackPointExtension>
            <ns3:atemp>20.0</ns3:atemp>
          </ns3:TrackPointExtension>
        </extensions>
      </trkpt>
      <trkpt lat="42.5993040762841701507568359375" lon="19.983877725899219512939453125">
        <ele>1222</ele>
        <time>2026-06-15T15:37:27.000Z</time>
        <extensions>
          <ns3:TrackPointExtension>
            <ns3:atemp>19.0</ns3:atemp>
          </ns3:TrackPointExtension>
        </extensions>
      </trkpt>
      <trkpt lat="42.5993040762841701507568359375" lon="19.983877725899219512939453125">
        <ele>1222</ele>
        <time>2026-06-15T15:37:28.000Z</time>
        <extensions>
          <ns3:TrackPointExtension>
            <ns3:atemp>19.0</ns3:atemp>
          </ns3:TrackPointExtension>
        </extensions>
      </trkpt>
      <trkpt lat="42.5993040762841701507568359375" lon="19.983877725899219512939453125">
        <ele>1222</ele>
        <time>2026-06-15T15:37:29.000Z</time>
        <extensions>
          <ns3:TrackPointExtension>
            <ns3:atemp>19.0</ns3:atemp>
          </ns3:TrackPointExtension>
        </extensions>
      </trkpt>
      <trkpt lat="42.5993040762841701507568359375" lon="19.983877725899219512939453125">
        <ele>1222</ele>
        <time>2026-06-15T15:37:30.000Z</time>
        <extensions>
          <ns3:TrackPointExtension>
            <ns3:atemp>19.0</ns3:atemp>
          </ns3:TrackPointExtension>
        </extensions>
      </trkpt>
      <trkpt lat="42.5993040762841701507568359375" lon="19.983877725899219512939453125">
        <ele>1222</ele>
        <time>2026-06-15T15:37:31.000Z</time>
        <extensions>
          <ns3:TrackPointExtension>
            <ns3:atemp>19.0</ns3:atemp>
          </ns3:TrackPointExtension>
        </extensions>
      </trkpt>
      <trkpt lat="42.5993040762841701507568359375" lon="19.983877725899219512939453125">
        <ele>1222</ele>
        <time>2026-06-15T15:37:32.000Z</time>
        <extensions>
          <ns3:TrackPointExtension>
            <ns3:atemp>20.0</ns3:atemp>
          </ns3:TrackPointExtension>
        </extensions>
      </trkpt>
      <trkpt lat="42.5993040762841701507568359375" lon="19.983877725899219512939453125">
        <ele>1222</ele>
        <time>2026-06-15T15:37:33.000Z</time>
        <extensions>
          <ns3:TrackPointExtension>
            <ns3:atemp>20.0</ns3:atemp>
          </ns3:TrackPointExtension>
        </extensions>
      </trkpt>
      <trkpt lat="42.5993040762841701507568359375" lon="19.983877725899219512939453125">
        <ele>1222</ele>
        <time>2026-06-15T15:37:34.000Z</time>
        <extensions>
          <ns3:TrackPointExtension>
            <ns3:atemp>19.0</ns3:atemp>
          </ns3:TrackPointExtension>
        </extensions>
      </trkpt>
      <trkpt lat="42.5993040762841701507568359375" lon="19.983877725899219512939453125">
        <ele>1222</ele>
        <time>2026-06-15T15:37:35.000Z</time>
        <extensions>
          <ns3:TrackPointExtension>
            <ns3:atemp>19.0</ns3:atemp>
          </ns3:TrackPointExtension>
        </extensions>
      </trkpt>
      <trkpt lat="42.5993040762841701507568359375" lon="19.983877725899219512939453125">
        <ele>1222</ele>
        <time>2026-06-15T15:37:36.000Z</time>
        <extensions>
          <ns3:TrackPointExtension>
            <ns3:atemp>19.0</ns3:atemp>
          </ns3:TrackPointExtension>
        </extensions>
      </trkpt>
      <trkpt lat="42.5993040762841701507568359375" lon="19.983877725899219512939453125">
        <ele>1222</ele>
        <time>2026-06-15T15:37:37.000Z</time>
        <extensions>
          <ns3:TrackPointExtension>
            <ns3:atemp>19.0</ns3:atemp>
          </ns3:TrackPointExtension>
        </extensions>
      </trkpt>
      <trkpt lat="42.5993040762841701507568359375" lon="19.983877725899219512939453125">
        <ele>1222</ele>
        <time>2026-06-15T15:37:38.000Z</time>
        <extensions>
          <ns3:TrackPointExtension>
            <ns3:atemp>19.0</ns3:atemp>
          </ns3:TrackPointExtension>
        </extensions>
      </trkpt>
      <trkpt lat="42.5993040762841701507568359375" lon="19.983877725899219512939453125">
        <ele>1222</ele>
        <time>2026-06-15T15:37:39.000Z</time>
        <extensions>
          <ns3:TrackPointExtension>
            <ns3:atemp>19.0</ns3:atemp>
          </ns3:TrackPointExtension>
        </extensions>
      </trkpt>
      <trkpt lat="42.5993040762841701507568359375" lon="19.983877725899219512939453125">
        <ele>1222</ele>
        <time>2026-06-15T15:37:40.000Z</time>
        <extensions>
          <ns3:TrackPointExtension>
            <ns3:atemp>19.0</ns3:atemp>
          </ns3:TrackPointExtension>
        </extensions>
      </trkpt>
      <trkpt lat="42.5993040762841701507568359375" lon="19.983877725899219512939453125">
        <ele>1222</ele>
        <time>2026-06-15T15:37:41.000Z</time>
        <extensions>
          <ns3:TrackPointExtension>
            <ns3:atemp>19.0</ns3:atemp>
          </ns3:TrackPointExtension>
        </extensions>
      </trkpt>
      <trkpt lat="42.5993040762841701507568359375" lon="19.983877725899219512939453125">
        <ele>1222</ele>
        <time>2026-06-15T15:37:42.000Z</time>
        <extensions>
          <ns3:TrackPointExtension>
            <ns3:atemp>19.0</ns3:atemp>
          </ns3:TrackPointExtension>
        </extensions>
      </trkpt>
      <trkpt lat="42.5993040762841701507568359375" lon="19.983877725899219512939453125">
        <ele>1222</ele>
        <time>2026-06-15T15:37:43.000Z</time>
        <extensions>
          <ns3:TrackPointExtension>
            <ns3:atemp>19.0</ns3:atemp>
          </ns3:TrackPointExtension>
        </extensions>
      </trkpt>
      <trkpt lat="42.5993040762841701507568359375" lon="19.983877725899219512939453125">
        <ele>1222</ele>
        <time>2026-06-15T15:37:44.000Z</time>
        <extensions>
          <ns3:TrackPointExtension>
            <ns3:atemp>20.0</ns3:atemp>
          </ns3:TrackPointExtension>
        </extensions>
      </trkpt>
      <trkpt lat="42.5993040762841701507568359375" lon="19.983877725899219512939453125">
        <ele>1222</ele>
        <time>2026-06-15T15:37:45.000Z</time>
        <extensions>
          <ns3:TrackPointExtension>
            <ns3:atemp>19.0</ns3:atemp>
          </ns3:TrackPointExtension>
        </extensions>
      </trkpt>
      <trkpt lat="42.5993040762841701507568359375" lon="19.983877725899219512939453125">
        <ele>1222</ele>
        <time>2026-06-15T15:37:46.000Z</time>
        <extensions>
          <ns3:TrackPointExtension>
            <ns3:atemp>19.0</ns3:atemp>
          </ns3:TrackPointExtension>
        </extensions>
      </trkpt>
      <trkpt lat="42.5993040762841701507568359375" lon="19.983877725899219512939453125">
        <ele>1222</ele>
        <time>2026-06-15T15:37:47.000Z</time>
        <extensions>
          <ns3:TrackPointExtension>
            <ns3:atemp>19.0</ns3:atemp>
          </ns3:TrackPointExtension>
        </extensions>
      </trkpt>
      <trkpt lat="42.5993040762841701507568359375" lon="19.983877725899219512939453125">
        <ele>1222</ele>
        <time>2026-06-15T15:37:48.000Z</time>
        <extensions>
          <ns3:TrackPointExtension>
            <ns3:atemp>19.0</ns3:atemp>
          </ns3:TrackPointExtension>
        </extensions>
      </trkpt>
      <trkpt lat="42.5993040762841701507568359375" lon="19.983877725899219512939453125">
        <ele>1222</ele>
        <time>2026-06-15T15:37:49.000Z</time>
        <extensions>
          <ns3:TrackPointExtension>
            <ns3:atemp>19.0</ns3:atemp>
          </ns3:TrackPointExtension>
        </extensions>
      </trkpt>
      <trkpt lat="42.5993040762841701507568359375" lon="19.983877725899219512939453125">
        <ele>1222</ele>
        <time>2026-06-15T15:37:50.000Z</time>
        <extensions>
          <ns3:TrackPointExtension>
            <ns3:atemp>20.0</ns3:atemp>
          </ns3:TrackPointExtension>
        </extensions>
      </trkpt>
      <trkpt lat="42.5993040762841701507568359375" lon="19.983877725899219512939453125">
        <ele>1222</ele>
        <time>2026-06-15T15:37:51.000Z</time>
        <extensions>
          <ns3:TrackPointExtension>
            <ns3:atemp>19.0</ns3:atemp>
          </ns3:TrackPointExtension>
        </extensions>
      </trkpt>
      <trkpt lat="42.5993040762841701507568359375" lon="19.983877725899219512939453125">
        <ele>1222</ele>
        <time>2026-06-15T15:37:52.000Z</time>
        <extensions>
          <ns3:TrackPointExtension>
            <ns3:atemp>19.0</ns3:atemp>
          </ns3:TrackPointExtension>
        </extensions>
      </trkpt>
      <trkpt lat="42.5993040762841701507568359375" lon="19.983877725899219512939453125">
        <ele>1222</ele>
        <time>2026-06-15T15:37:53.000Z</time>
        <extensions>
          <ns3:TrackPointExtension>
            <ns3:atemp>19.0</ns3:atemp>
          </ns3:TrackPointExtension>
        </extensions>
      </trkpt>
      <trkpt lat="42.5993040762841701507568359375" lon="19.983877725899219512939453125">
        <ele>1222</ele>
        <time>2026-06-15T15:37:54.000Z</time>
        <extensions>
          <ns3:TrackPointExtension>
            <ns3:atemp>19.0</ns3:atemp>
          </ns3:TrackPointExtension>
        </extensions>
      </trkpt>
      <trkpt lat="42.5993040762841701507568359375" lon="19.983877725899219512939453125">
        <ele>1222</ele>
        <time>2026-06-15T15:37:55.000Z</time>
        <extensions>
          <ns3:TrackPointExtension>
            <ns3:atemp>20.0</ns3:atemp>
          </ns3:TrackPointExtension>
        </extensions>
      </trkpt>
      <trkpt lat="42.5993040762841701507568359375" lon="19.983877725899219512939453125">
        <ele>1222</ele>
        <time>2026-06-15T15:37:56.000Z</time>
        <extensions>
          <ns3:TrackPointExtension>
            <ns3:atemp>20.0</ns3:atemp>
          </ns3:TrackPointExtension>
        </extensions>
      </trkpt>
      <trkpt lat="42.5993040762841701507568359375" lon="19.983877725899219512939453125">
        <ele>1222</ele>
        <time>2026-06-15T15:37:57.000Z</time>
        <extensions>
          <ns3:TrackPointExtension>
            <ns3:atemp>20.0</ns3:atemp>
          </ns3:TrackPointExtension>
        </extensions>
      </trkpt>
      <trkpt lat="42.5993040762841701507568359375" lon="19.983877725899219512939453125">
        <ele>1222</ele>
        <time>2026-06-15T15:37:58.000Z</time>
        <extensions>
          <ns3:TrackPointExtension>
            <ns3:atemp>19.0</ns3:atemp>
          </ns3:TrackPointExtension>
        </extensions>
      </trkpt>
      <trkpt lat="42.5993040762841701507568359375" lon="19.983877725899219512939453125">
        <ele>1222</ele>
        <time>2026-06-15T15:37:59.000Z</time>
        <extensions>
          <ns3:TrackPointExtension>
            <ns3:atemp>19.0</ns3:atemp>
          </ns3:TrackPointExtension>
        </extensions>
      </trkpt>
      <trkpt lat="42.5993040762841701507568359375" lon="19.983877725899219512939453125">
        <ele>1222</ele>
        <time>2026-06-15T15:38:00.000Z</time>
        <extensions>
          <ns3:TrackPointExtension>
            <ns3:atemp>19.0</ns3:atemp>
          </ns3:TrackPointExtension>
        </extensions>
      </trkpt>
      <trkpt lat="42.5993040762841701507568359375" lon="19.983877725899219512939453125">
        <ele>1222</ele>
        <time>2026-06-15T15:38:01.000Z</time>
        <extensions>
          <ns3:TrackPointExtension>
            <ns3:atemp>19.0</ns3:atemp>
          </ns3:TrackPointExtension>
        </extensions>
      </trkpt>
      <trkpt lat="42.5993040762841701507568359375" lon="19.983877725899219512939453125">
        <ele>1222</ele>
        <time>2026-06-15T15:38:02.000Z</time>
        <extensions>
          <ns3:TrackPointExtension>
            <ns3:atemp>19.0</ns3:atemp>
          </ns3:TrackPointExtension>
        </extensions>
      </trkpt>
      <trkpt lat="42.5993040762841701507568359375" lon="19.983877725899219512939453125">
        <ele>1222</ele>
        <time>2026-06-15T15:38:03.000Z</time>
        <extensions>
          <ns3:TrackPointExtension>
            <ns3:atemp>19.0</ns3:atemp>
          </ns3:TrackPointExtension>
        </extensions>
      </trkpt>
      <trkpt lat="42.5993040762841701507568359375" lon="19.983877725899219512939453125">
        <ele>1222</ele>
        <time>2026-06-15T15:38:04.000Z</time>
        <extensions>
          <ns3:TrackPointExtension>
            <ns3:atemp>19.0</ns3:atemp>
          </ns3:TrackPointExtension>
        </extensions>
      </trkpt>
      <trkpt lat="42.5993040762841701507568359375" lon="19.983877725899219512939453125">
        <ele>1222</ele>
        <time>2026-06-15T15:38:05.000Z</time>
        <extensions>
          <ns3:TrackPointExtension>
            <ns3:atemp>19.0</ns3:atemp>
          </ns3:TrackPointExtension>
        </extensions>
      </trkpt>
      <trkpt lat="42.5993040762841701507568359375" lon="19.983877725899219512939453125">
        <ele>1222</ele>
        <time>2026-06-15T15:38:06.000Z</time>
        <extensions>
          <ns3:TrackPointExtension>
            <ns3:atemp>19.0</ns3:atemp>
          </ns3:TrackPointExtension>
        </extensions>
      </trkpt>
      <trkpt lat="42.5993040762841701507568359375" lon="19.983877725899219512939453125">
        <ele>1222</ele>
        <time>2026-06-15T15:38:07.000Z</time>
        <extensions>
          <ns3:TrackPointExtension>
            <ns3:atemp>19.0</ns3:atemp>
          </ns3:TrackPointExtension>
        </extensions>
      </trkpt>
      <trkpt lat="42.5993040762841701507568359375" lon="19.983877725899219512939453125">
        <ele>1222</ele>
        <time>2026-06-15T15:38:08.000Z</time>
        <extensions>
          <ns3:TrackPointExtension>
            <ns3:atemp>19.0</ns3:atemp>
          </ns3:TrackPointExtension>
        </extensions>
      </trkpt>
      <trkpt lat="42.5993040762841701507568359375" lon="19.983877725899219512939453125">
        <ele>1222</ele>
        <time>2026-06-15T15:38:09.000Z</time>
        <extensions>
          <ns3:TrackPointExtension>
            <ns3:atemp>19.0</ns3:atemp>
          </ns3:TrackPointExtension>
        </extensions>
      </trkpt>
      <trkpt lat="42.5993040762841701507568359375" lon="19.983877725899219512939453125">
        <ele>1222</ele>
        <time>2026-06-15T15:38:10.000Z</time>
        <extensions>
          <ns3:TrackPointExtension>
            <ns3:atemp>19.0</ns3:atemp>
          </ns3:TrackPointExtension>
        </extensions>
      </trkpt>
      <trkpt lat="42.5993040762841701507568359375" lon="19.983877725899219512939453125">
        <ele>1222</ele>
        <time>2026-06-15T15:38:11.000Z</time>
        <extensions>
          <ns3:TrackPointExtension>
            <ns3:atemp>20.0</ns3:atemp>
          </ns3:TrackPointExtension>
        </extensions>
      </trkpt>
      <trkpt lat="42.5993040762841701507568359375" lon="19.983877725899219512939453125">
        <ele>1222</ele>
        <time>2026-06-15T15:38:12.000Z</time>
        <extensions>
          <ns3:TrackPointExtension>
            <ns3:atemp>20.0</ns3:atemp>
          </ns3:TrackPointExtension>
        </extensions>
      </trkpt>
      <trkpt lat="42.5993040762841701507568359375" lon="19.983877725899219512939453125">
        <ele>1222</ele>
        <time>2026-06-15T15:38:13.000Z</time>
        <extensions>
          <ns3:TrackPointExtension>
            <ns3:atemp>19.0</ns3:atemp>
          </ns3:TrackPointExtension>
        </extensions>
      </trkpt>
      <trkpt lat="42.5993040762841701507568359375" lon="19.983877725899219512939453125">
        <ele>1222</ele>
        <time>2026-06-15T15:38:14.000Z</time>
        <extensions>
          <ns3:TrackPointExtension>
            <ns3:atemp>19.0</ns3:atemp>
          </ns3:TrackPointExtension>
        </extensions>
      </trkpt>
      <trkpt lat="42.5993040762841701507568359375" lon="19.983877725899219512939453125">
        <ele>1222</ele>
        <time>2026-06-15T15:38:15.000Z</time>
        <extensions>
          <ns3:TrackPointExtension>
            <ns3:atemp>19.0</ns3:atemp>
          </ns3:TrackPointExtension>
        </extensions>
      </trkpt>
      <trkpt lat="42.5993040762841701507568359375" lon="19.983877725899219512939453125">
        <ele>1222</ele>
        <time>2026-06-15T15:38:16.000Z</time>
        <extensions>
          <ns3:TrackPointExtension>
            <ns3:atemp>19.0</ns3:atemp>
          </ns3:TrackPointExtension>
        </extensions>
      </trkpt>
      <trkpt lat="42.5993040762841701507568359375" lon="19.983877725899219512939453125">
        <ele>1222</ele>
        <time>2026-06-15T15:38:17.000Z</time>
        <extensions>
          <ns3:TrackPointExtension>
            <ns3:atemp>19.0</ns3:atemp>
          </ns3:TrackPointExtension>
        </extensions>
      </trkpt>
      <trkpt lat="42.5993040762841701507568359375" lon="19.983877725899219512939453125">
        <ele>1222</ele>
        <time>2026-06-15T15:38:18.000Z</time>
        <extensions>
          <ns3:TrackPointExtension>
            <ns3:atemp>19.0</ns3:atemp>
          </ns3:TrackPointExtension>
        </extensions>
      </trkpt>
      <trkpt lat="42.5993040762841701507568359375" lon="19.983877725899219512939453125">
        <ele>1222</ele>
        <time>2026-06-15T15:38:19.000Z</time>
        <extensions>
          <ns3:TrackPointExtension>
            <ns3:atemp>19.0</ns3:atemp>
          </ns3:TrackPointExtension>
        </extensions>
      </trkpt>
      <trkpt lat="42.5993040762841701507568359375" lon="19.983877725899219512939453125">
        <ele>1222</ele>
        <time>2026-06-15T15:38:20.000Z</time>
        <extensions>
          <ns3:TrackPointExtension>
            <ns3:atemp>20.0</ns3:atemp>
          </ns3:TrackPointExtension>
        </extensions>
      </trkpt>
      <trkpt lat="42.5993040762841701507568359375" lon="19.983877725899219512939453125">
        <ele>1222</ele>
        <time>2026-06-15T15:38:21.000Z</time>
        <extensions>
          <ns3:TrackPointExtension>
            <ns3:atemp>20.0</ns3:atemp>
          </ns3:TrackPointExtension>
        </extensions>
      </trkpt>
      <trkpt lat="42.5993040762841701507568359375" lon="19.983877725899219512939453125">
        <ele>1222</ele>
        <time>2026-06-15T15:38:22.000Z</time>
        <extensions>
          <ns3:TrackPointExtension>
            <ns3:atemp>19.0</ns3:atemp>
          </ns3:TrackPointExtension>
        </extensions>
      </trkpt>
      <trkpt lat="42.5993040762841701507568359375" lon="19.983877725899219512939453125">
        <ele>1222</ele>
        <time>2026-06-15T15:38:23.000Z</time>
        <extensions>
          <ns3:TrackPointExtension>
            <ns3:atemp>19.0</ns3:atemp>
          </ns3:TrackPointExtension>
        </extensions>
      </trkpt>
      <trkpt lat="42.5993040762841701507568359375" lon="19.983877725899219512939453125">
        <ele>1222</ele>
        <time>2026-06-15T15:38:24.000Z</time>
        <extensions>
          <ns3:TrackPointExtension>
            <ns3:atemp>20.0</ns3:atemp>
          </ns3:TrackPointExtension>
        </extensions>
      </trkpt>
      <trkpt lat="42.5993040762841701507568359375" lon="19.983877725899219512939453125">
        <ele>1222</ele>
        <time>2026-06-15T15:38:25.000Z</time>
        <extensions>
          <ns3:TrackPointExtension>
            <ns3:atemp>20.0</ns3:atemp>
          </ns3:TrackPointExtension>
        </extensions>
      </trkpt>
      <trkpt lat="42.5993040762841701507568359375" lon="19.983877725899219512939453125">
        <ele>1222</ele>
        <time>2026-06-15T15:38:26.000Z</time>
        <extensions>
          <ns3:TrackPointExtension>
            <ns3:atemp>20.0</ns3:atemp>
          </ns3:TrackPointExtension>
        </extensions>
      </trkpt>
      <trkpt lat="42.5993040762841701507568359375" lon="19.983877725899219512939453125">
        <ele>1222</ele>
        <time>2026-06-15T15:38:27.000Z</time>
        <extensions>
          <ns3:TrackPointExtension>
            <ns3:atemp>19.0</ns3:atemp>
          </ns3:TrackPointExtension>
        </extensions>
      </trkpt>
      <trkpt lat="42.5993040762841701507568359375" lon="19.983877725899219512939453125">
        <ele>1222</ele>
        <time>2026-06-15T15:38:28.000Z</time>
        <extensions>
          <ns3:TrackPointExtension>
            <ns3:atemp>19.0</ns3:atemp>
          </ns3:TrackPointExtension>
        </extensions>
      </trkpt>
      <trkpt lat="42.5993040762841701507568359375" lon="19.983877725899219512939453125">
        <ele>1222</ele>
        <time>2026-06-15T15:38:29.000Z</time>
        <extensions>
          <ns3:TrackPointExtension>
            <ns3:atemp>19.0</ns3:atemp>
          </ns3:TrackPointExtension>
        </extensions>
      </trkpt>
      <trkpt lat="42.5993040762841701507568359375" lon="19.983877725899219512939453125">
        <ele>1222</ele>
        <time>2026-06-15T15:38:30.000Z</time>
        <extensions>
          <ns3:TrackPointExtension>
            <ns3:atemp>19.0</ns3:atemp>
          </ns3:TrackPointExtension>
        </extensions>
      </trkpt>
      <trkpt lat="42.5993040762841701507568359375" lon="19.983877725899219512939453125">
        <ele>1222</ele>
        <time>2026-06-15T15:38:31.000Z</time>
        <extensions>
          <ns3:TrackPointExtension>
            <ns3:atemp>19.0</ns3:atemp>
          </ns3:TrackPointExtension>
        </extensions>
      </trkpt>
      <trkpt lat="42.5993040762841701507568359375" lon="19.983877725899219512939453125">
        <ele>1222</ele>
        <time>2026-06-15T15:38:32.000Z</time>
        <extensions>
          <ns3:TrackPointExtension>
            <ns3:atemp>19.0</ns3:atemp>
          </ns3:TrackPointExtension>
        </extensions>
      </trkpt>
      <trkpt lat="42.5993040762841701507568359375" lon="19.983877725899219512939453125">
        <ele>1222</ele>
        <time>2026-06-15T15:38:33.000Z</time>
        <extensions>
          <ns3:TrackPointExtension>
            <ns3:atemp>19.0</ns3:atemp>
          </ns3:TrackPointExtension>
        </extensions>
      </trkpt>
      <trkpt lat="42.5993040762841701507568359375" lon="19.983877725899219512939453125">
        <ele>1222</ele>
        <time>2026-06-15T15:38:34.000Z</time>
        <extensions>
          <ns3:TrackPointExtension>
            <ns3:atemp>19.0</ns3:atemp>
          </ns3:TrackPointExtension>
        </extensions>
      </trkpt>
      <trkpt lat="42.5993040762841701507568359375" lon="19.983877725899219512939453125">
        <ele>1222</ele>
        <time>2026-06-15T15:38:35.000Z</time>
        <extensions>
          <ns3:TrackPointExtension>
            <ns3:atemp>19.0</ns3:atemp>
          </ns3:TrackPointExtension>
        </extensions>
      </trkpt>
      <trkpt lat="42.5993040762841701507568359375" lon="19.983877725899219512939453125">
        <ele>1222</ele>
        <time>2026-06-15T15:38:36.000Z</time>
        <extensions>
          <ns3:TrackPointExtension>
            <ns3:atemp>19.0</ns3:atemp>
          </ns3:TrackPointExtension>
        </extensions>
      </trkpt>
      <trkpt lat="42.5993040762841701507568359375" lon="19.983877725899219512939453125">
        <ele>1222</ele>
        <time>2026-06-15T15:38:37.000Z</time>
        <extensions>
          <ns3:TrackPointExtension>
            <ns3:atemp>19.0</ns3:atemp>
          </ns3:TrackPointExtension>
        </extensions>
      </trkpt>
      <trkpt lat="42.5993040762841701507568359375" lon="19.983877725899219512939453125">
        <ele>1222</ele>
        <time>2026-06-15T15:38:38.000Z</time>
        <extensions>
          <ns3:TrackPointExtension>
            <ns3:atemp>19.0</ns3:atemp>
          </ns3:TrackPointExtension>
        </extensions>
      </trkpt>
      <trkpt lat="42.5993040762841701507568359375" lon="19.983877725899219512939453125">
        <ele>1222</ele>
        <time>2026-06-15T15:38:39.000Z</time>
        <extensions>
          <ns3:TrackPointExtension>
            <ns3:atemp>19.0</ns3:atemp>
          </ns3:TrackPointExtension>
        </extensions>
      </trkpt>
      <trkpt lat="42.5993040762841701507568359375" lon="19.983877725899219512939453125">
        <ele>1222</ele>
        <time>2026-06-15T15:38:40.000Z</time>
        <extensions>
          <ns3:TrackPointExtension>
            <ns3:atemp>19.0</ns3:atemp>
          </ns3:TrackPointExtension>
        </extensions>
      </trkpt>
      <trkpt lat="42.5993040762841701507568359375" lon="19.983877725899219512939453125">
        <ele>1222</ele>
        <time>2026-06-15T15:38:41.000Z</time>
        <extensions>
          <ns3:TrackPointExtension>
            <ns3:atemp>19.0</ns3:atemp>
          </ns3:TrackPointExtension>
        </extensions>
      </trkpt>
      <trkpt lat="42.5993040762841701507568359375" lon="19.983877725899219512939453125">
        <ele>1222</ele>
        <time>2026-06-15T15:38:42.000Z</time>
        <extensions>
          <ns3:TrackPointExtension>
            <ns3:atemp>19.0</ns3:atemp>
          </ns3:TrackPointExtension>
        </extensions>
      </trkpt>
      <trkpt lat="42.5993040762841701507568359375" lon="19.983877725899219512939453125">
        <ele>1222</ele>
        <time>2026-06-15T15:38:43.000Z</time>
        <extensions>
          <ns3:TrackPointExtension>
            <ns3:atemp>19.0</ns3:atemp>
          </ns3:TrackPointExtension>
        </extensions>
      </trkpt>
      <trkpt lat="42.5993040762841701507568359375" lon="19.983877725899219512939453125">
        <ele>1222</ele>
        <time>2026-06-15T15:38:44.000Z</time>
        <extensions>
          <ns3:TrackPointExtension>
            <ns3:atemp>19.0</ns3:atemp>
          </ns3:TrackPointExtension>
        </extensions>
      </trkpt>
      <trkpt lat="42.5993040762841701507568359375" lon="19.983877725899219512939453125">
        <ele>1222</ele>
        <time>2026-06-15T15:38:45.000Z</time>
        <extensions>
          <ns3:TrackPointExtension>
            <ns3:atemp>19.0</ns3:atemp>
          </ns3:TrackPointExtension>
        </extensions>
      </trkpt>
      <trkpt lat="42.5993040762841701507568359375" lon="19.983877725899219512939453125">
        <ele>1222</ele>
        <time>2026-06-15T15:38:46.000Z</time>
        <extensions>
          <ns3:TrackPointExtension>
            <ns3:atemp>19.0</ns3:atemp>
          </ns3:TrackPointExtension>
        </extensions>
      </trkpt>
      <trkpt lat="42.5993040762841701507568359375" lon="19.983877725899219512939453125">
        <ele>1222</ele>
        <time>2026-06-15T15:38:47.000Z</time>
        <extensions>
          <ns3:TrackPointExtension>
            <ns3:atemp>19.0</ns3:atemp>
          </ns3:TrackPointExtension>
        </extensions>
      </trkpt>
      <trkpt lat="42.5993040762841701507568359375" lon="19.983877725899219512939453125">
        <ele>1222</ele>
        <time>2026-06-15T15:38:48.000Z</time>
        <extensions>
          <ns3:TrackPointExtension>
            <ns3:atemp>19.0</ns3:atemp>
          </ns3:TrackPointExtension>
        </extensions>
      </trkpt>
      <trkpt lat="42.5993040762841701507568359375" lon="19.983877725899219512939453125">
        <ele>1222</ele>
        <time>2026-06-15T15:38:49.000Z</time>
        <extensions>
          <ns3:TrackPointExtension>
            <ns3:atemp>19.0</ns3:atemp>
          </ns3:TrackPointExtension>
        </extensions>
      </trkpt>
      <trkpt lat="42.5993040762841701507568359375" lon="19.983877725899219512939453125">
        <ele>1222</ele>
        <time>2026-06-15T15:38:50.000Z</time>
        <extensions>
          <ns3:TrackPointExtension>
            <ns3:atemp>19.0</ns3:atemp>
          </ns3:TrackPointExtension>
        </extensions>
      </trkpt>
      <trkpt lat="42.5993040762841701507568359375" lon="19.983877725899219512939453125">
        <ele>1222</ele>
        <time>2026-06-15T15:38:51.000Z</time>
        <extensions>
          <ns3:TrackPointExtension>
            <ns3:atemp>19.0</ns3:atemp>
          </ns3:TrackPointExtension>
        </extensions>
      </trkpt>
      <trkpt lat="42.5993040762841701507568359375" lon="19.983877725899219512939453125">
        <ele>1222</ele>
        <time>2026-06-15T15:38:52.000Z</time>
        <extensions>
          <ns3:TrackPointExtension>
            <ns3:atemp>19.0</ns3:atemp>
          </ns3:TrackPointExtension>
        </extensions>
      </trkpt>
      <trkpt lat="42.5993040762841701507568359375" lon="19.983877725899219512939453125">
        <ele>1222</ele>
        <time>2026-06-15T15:38:53.000Z</time>
        <extensions>
          <ns3:TrackPointExtension>
            <ns3:atemp>19.0</ns3:atemp>
          </ns3:TrackPointExtension>
        </extensions>
      </trkpt>
      <trkpt lat="42.5993040762841701507568359375" lon="19.983877725899219512939453125">
        <ele>1222</ele>
        <time>2026-06-15T15:38:54.000Z</time>
        <extensions>
          <ns3:TrackPointExtension>
            <ns3:atemp>19.0</ns3:atemp>
          </ns3:TrackPointExtension>
        </extensions>
      </trkpt>
      <trkpt lat="42.599301896989345550537109375" lon="19.98387135565280914306640625">
        <ele>1222</ele>
        <time>2026-06-15T15:38:55.000Z</time>
        <extensions>
          <ns3:TrackPointExtension>
            <ns3:atemp>19.0</ns3:atemp>
          </ns3:TrackPointExtension>
        </extensions>
      </trkpt>
      <trkpt lat="42.59929426945745944976806640625" lon="19.98385668732225894927978515625">
        <ele>1222</ele>
        <time>2026-06-15T15:38:56.000Z</time>
        <extensions>
          <ns3:TrackPointExtension>
            <ns3:atemp>19.0</ns3:atemp>
          </ns3:TrackPointExtension>
        </extensions>
      </trkpt>
      <trkpt lat="42.5992946885526180267333984375" lon="19.9838597886264324188232421875">
        <ele>1222</ele>
        <time>2026-06-15T15:38:57.000Z</time>
        <extensions>
          <ns3:TrackPointExtension>
            <ns3:atemp>19.0</ns3:atemp>
          </ns3:TrackPointExtension>
        </extensions>
      </trkpt>
      <trkpt lat="42.59929477237164974212646484375" lon="19.983859956264495849609375">
        <ele>1222</ele>
        <time>2026-06-15T15:38:58.000Z</time>
        <extensions>
          <ns3:TrackPointExtension>
            <ns3:atemp>19.0</ns3:atemp>
          </ns3:TrackPointExtension>
        </extensions>
      </trkpt>
      <trkpt lat="42.59929477237164974212646484375" lon="19.983859956264495849609375">
        <ele>1222</ele>
        <time>2026-06-15T15:38:59.000Z</time>
        <extensions>
          <ns3:TrackPointExtension>
            <ns3:atemp>19.0</ns3:atemp>
          </ns3:TrackPointExtension>
        </extensions>
      </trkpt>
      <trkpt lat="42.59929477237164974212646484375" lon="19.983859956264495849609375">
        <ele>1222</ele>
        <time>2026-06-15T15:39:00.000Z</time>
        <extensions>
          <ns3:TrackPointExtension>
            <ns3:atemp>19.0</ns3:atemp>
          </ns3:TrackPointExtension>
        </extensions>
      </trkpt>
      <trkpt lat="42.59929494000971317291259765625" lon="19.98386104591190814971923828125">
        <ele>1222</ele>
        <time>2026-06-15T15:39:01.000Z</time>
        <extensions>
          <ns3:TrackPointExtension>
            <ns3:atemp>19.0</ns3:atemp>
          </ns3:TrackPointExtension>
        </extensions>
      </trkpt>
      <trkpt lat="42.5992973707616329193115234375" lon="19.983854256570339202880859375">
        <ele>1222</ele>
        <time>2026-06-15T15:39:02.000Z</time>
        <extensions>
          <ns3:TrackPointExtension>
            <ns3:atemp>19.0</ns3:atemp>
          </ns3:TrackPointExtension>
        </extensions>
      </trkpt>
      <trkpt lat="42.5993017293512821197509765625" lon="19.98385702259838581085205078125">
        <ele>1222</ele>
        <time>2026-06-15T15:39:03.000Z</time>
        <extensions>
          <ns3:TrackPointExtension>
            <ns3:atemp>19.0</ns3:atemp>
          </ns3:TrackPointExtension>
        </extensions>
      </trkpt>
      <trkpt lat="42.59930483065545558929443359375" lon="19.98385786078870296478271484375">
        <ele>1222</ele>
        <time>2026-06-15T15:39:04.000Z</time>
        <extensions>
          <ns3:TrackPointExtension>
            <ns3:atemp>19.0</ns3:atemp>
          </ns3:TrackPointExtension>
        </extensions>
      </trkpt>
      <trkpt lat="42.59929477237164974212646484375" lon="19.983859956264495849609375">
        <ele>1222</ele>
        <time>2026-06-15T15:39:05.000Z</time>
        <extensions>
          <ns3:TrackPointExtension>
            <ns3:atemp>19.0</ns3:atemp>
          </ns3:TrackPointExtension>
        </extensions>
      </trkpt>
      <trkpt lat="42.59929477237164974212646484375" lon="19.983859956264495849609375">
        <ele>1222</ele>
        <time>2026-06-15T15:39:06.000Z</time>
        <extensions>
          <ns3:TrackPointExtension>
            <ns3:atemp>19.0</ns3:atemp>
          </ns3:TrackPointExtension>
        </extensions>
      </trkpt>
      <trkpt lat="42.59929477237164974212646484375" lon="19.983859956264495849609375">
        <ele>1222</ele>
        <time>2026-06-15T15:39:07.000Z</time>
        <extensions>
          <ns3:TrackPointExtension>
            <ns3:atemp>19.0</ns3:atemp>
          </ns3:TrackPointExtension>
        </extensions>
      </trkpt>
      <trkpt lat="42.59929477237164974212646484375" lon="19.983859956264495849609375">
        <ele>1222</ele>
        <time>2026-06-15T15:39:08.000Z</time>
        <extensions>
          <ns3:TrackPointExtension>
            <ns3:atemp>19.0</ns3:atemp>
          </ns3:TrackPointExtension>
        </extensions>
      </trkpt>
      <trkpt lat="42.59929477237164974212646484375" lon="19.983859956264495849609375">
        <ele>1222</ele>
        <time>2026-06-15T15:39:09.000Z</time>
        <extensions>
          <ns3:TrackPointExtension>
            <ns3:atemp>19.0</ns3:atemp>
          </ns3:TrackPointExtension>
        </extensions>
      </trkpt>
      <trkpt lat="42.59929477237164974212646484375" lon="19.983859956264495849609375">
        <ele>1222</ele>
        <time>2026-06-15T15:39:10.000Z</time>
        <extensions>
          <ns3:TrackPointExtension>
            <ns3:atemp>19.0</ns3:atemp>
          </ns3:TrackPointExtension>
        </extensions>
      </trkpt>
      <trkpt lat="42.59929477237164974212646484375" lon="19.983859956264495849609375">
        <ele>1222</ele>
        <time>2026-06-15T15:39:11.000Z</time>
        <extensions>
          <ns3:TrackPointExtension>
            <ns3:atemp>19.0</ns3:atemp>
          </ns3:TrackPointExtension>
        </extensions>
      </trkpt>
      <trkpt lat="42.59929477237164974212646484375" lon="19.983859956264495849609375">
        <ele>1222</ele>
        <time>2026-06-15T15:39:12.000Z</time>
        <extensions>
          <ns3:TrackPointExtension>
            <ns3:atemp>19.0</ns3:atemp>
          </ns3:TrackPointExtension>
        </extensions>
      </trkpt>
      <trkpt lat="42.59929477237164974212646484375" lon="19.983859956264495849609375">
        <ele>1222</ele>
        <time>2026-06-15T15:39:13.000Z</time>
        <extensions>
          <ns3:TrackPointExtension>
            <ns3:atemp>19.0</ns3:atemp>
          </ns3:TrackPointExtension>
        </extensions>
      </trkpt>
      <trkpt lat="42.59929477237164974212646484375" lon="19.983859956264495849609375">
        <ele>1222</ele>
        <time>2026-06-15T15:39:14.000Z</time>
        <extensions>
          <ns3:TrackPointExtension>
            <ns3:atemp>19.0</ns3:atemp>
          </ns3:TrackPointExtension>
        </extensions>
      </trkpt>
      <trkpt lat="42.59929477237164974212646484375" lon="19.983859956264495849609375">
        <ele>1222</ele>
        <time>2026-06-15T15:39:15.000Z</time>
        <extensions>
          <ns3:TrackPointExtension>
            <ns3:atemp>19.0</ns3:atemp>
          </ns3:TrackPointExtension>
        </extensions>
      </trkpt>
      <trkpt lat="42.59929477237164974212646484375" lon="19.983859956264495849609375">
        <ele>1222</ele>
        <time>2026-06-15T15:39:16.000Z</time>
        <extensions>
          <ns3:TrackPointExtension>
            <ns3:atemp>19.0</ns3:atemp>
          </ns3:TrackPointExtension>
        </extensions>
      </trkpt>
      <trkpt lat="42.59929477237164974212646484375" lon="19.983859956264495849609375">
        <ele>1222</ele>
        <time>2026-06-15T15:39:17.000Z</time>
        <extensions>
          <ns3:TrackPointExtension>
            <ns3:atemp>19.0</ns3:atemp>
          </ns3:TrackPointExtension>
        </extensions>
      </trkpt>
      <trkpt lat="42.59929477237164974212646484375" lon="19.983859956264495849609375">
        <ele>1222</ele>
        <time>2026-06-15T15:39:18.000Z</time>
        <extensions>
          <ns3:TrackPointExtension>
            <ns3:atemp>19.0</ns3:atemp>
          </ns3:TrackPointExtension>
        </extensions>
      </trkpt>
      <trkpt lat="42.59929477237164974212646484375" lon="19.983859956264495849609375">
        <ele>1222</ele>
        <time>2026-06-15T15:39:19.000Z</time>
        <extensions>
          <ns3:TrackPointExtension>
            <ns3:atemp>19.0</ns3:atemp>
          </ns3:TrackPointExtension>
        </extensions>
      </trkpt>
      <trkpt lat="42.59929477237164974212646484375" lon="19.983859956264495849609375">
        <ele>1222</ele>
        <time>2026-06-15T15:39:20.000Z</time>
        <extensions>
          <ns3:TrackPointExtension>
            <ns3:atemp>19.0</ns3:atemp>
          </ns3:TrackPointExtension>
        </extensions>
      </trkpt>
      <trkpt lat="42.59929477237164974212646484375" lon="19.983859956264495849609375">
        <ele>1222</ele>
        <time>2026-06-15T15:39:21.000Z</time>
        <extensions>
          <ns3:TrackPointExtension>
            <ns3:atemp>19.0</ns3:atemp>
          </ns3:TrackPointExtension>
        </extensions>
      </trkpt>
      <trkpt lat="42.59929477237164974212646484375" lon="19.983859956264495849609375">
        <ele>1222</ele>
        <time>2026-06-15T15:39:22.000Z</time>
        <extensions>
          <ns3:TrackPointExtension>
            <ns3:atemp>19.0</ns3:atemp>
          </ns3:TrackPointExtension>
        </extensions>
      </trkpt>
      <trkpt lat="42.59929477237164974212646484375" lon="19.983859956264495849609375">
        <ele>1222</ele>
        <time>2026-06-15T15:39:23.000Z</time>
        <extensions>
          <ns3:TrackPointExtension>
            <ns3:atemp>19.0</ns3:atemp>
          </ns3:TrackPointExtension>
        </extensions>
      </trkpt>
      <trkpt lat="42.59929477237164974212646484375" lon="19.983859956264495849609375">
        <ele>1222</ele>
        <time>2026-06-15T15:39:24.000Z</time>
        <extensions>
          <ns3:TrackPointExtension>
            <ns3:atemp>19.0</ns3:atemp>
          </ns3:TrackPointExtension>
        </extensions>
      </trkpt>
      <trkpt lat="42.59929477237164974212646484375" lon="19.983859956264495849609375">
        <ele>1222</ele>
        <time>2026-06-15T15:39:25.000Z</time>
        <extensions>
          <ns3:TrackPointExtension>
            <ns3:atemp>19.0</ns3:atemp>
          </ns3:TrackPointExtension>
        </extensions>
      </trkpt>
      <trkpt lat="42.59929477237164974212646484375" lon="19.983859956264495849609375">
        <ele>1222</ele>
        <time>2026-06-15T15:39:26.000Z</time>
        <extensions>
          <ns3:TrackPointExtension>
            <ns3:atemp>19.0</ns3:atemp>
          </ns3:TrackPointExtension>
        </extensions>
      </trkpt>
      <trkpt lat="42.59929477237164974212646484375" lon="19.983859956264495849609375">
        <ele>1222</ele>
        <time>2026-06-15T15:39:27.000Z</time>
        <extensions>
          <ns3:TrackPointExtension>
            <ns3:atemp>19.0</ns3:atemp>
          </ns3:TrackPointExtension>
        </extensions>
      </trkpt>
      <trkpt lat="42.59929477237164974212646484375" lon="19.983859956264495849609375">
        <ele>1222</ele>
        <time>2026-06-15T15:39:28.000Z</time>
        <extensions>
          <ns3:TrackPointExtension>
            <ns3:atemp>19.0</ns3:atemp>
          </ns3:TrackPointExtension>
        </extensions>
      </trkpt>
      <trkpt lat="42.59929477237164974212646484375" lon="19.983859956264495849609375">
        <ele>1222</ele>
        <time>2026-06-15T15:39:29.000Z</time>
        <extensions>
          <ns3:TrackPointExtension>
            <ns3:atemp>19.0</ns3:atemp>
          </ns3:TrackPointExtension>
        </extensions>
      </trkpt>
      <trkpt lat="42.59929477237164974212646484375" lon="19.983859956264495849609375">
        <ele>1222</ele>
        <time>2026-06-15T15:39:30.000Z</time>
        <extensions>
          <ns3:TrackPointExtension>
            <ns3:atemp>19.0</ns3:atemp>
          </ns3:TrackPointExtension>
        </extensions>
      </trkpt>
      <trkpt lat="42.59929477237164974212646484375" lon="19.983859956264495849609375">
        <ele>1222</ele>
        <time>2026-06-15T15:39:31.000Z</time>
        <extensions>
          <ns3:TrackPointExtension>
            <ns3:atemp>19.0</ns3:atemp>
          </ns3:TrackPointExtension>
        </extensions>
      </trkpt>
      <trkpt lat="42.59929477237164974212646484375" lon="19.983859956264495849609375">
        <ele>1222</ele>
        <time>2026-06-15T15:39:32.000Z</time>
        <extensions>
          <ns3:TrackPointExtension>
            <ns3:atemp>19.0</ns3:atemp>
          </ns3:TrackPointExtension>
        </extensions>
      </trkpt>
      <trkpt lat="42.59929477237164974212646484375" lon="19.983859956264495849609375">
        <ele>1222</ele>
        <time>2026-06-15T15:39:33.000Z</time>
        <extensions>
          <ns3:TrackPointExtension>
            <ns3:atemp>19.0</ns3:atemp>
          </ns3:TrackPointExtension>
        </extensions>
      </trkpt>
      <trkpt lat="42.59929477237164974212646484375" lon="19.983859956264495849609375">
        <ele>1222</ele>
        <time>2026-06-15T15:39:34.000Z</time>
        <extensions>
          <ns3:TrackPointExtension>
            <ns3:atemp>19.0</ns3:atemp>
          </ns3:TrackPointExtension>
        </extensions>
      </trkpt>
      <trkpt lat="42.59929477237164974212646484375" lon="19.983859956264495849609375">
        <ele>1222</ele>
        <time>2026-06-15T15:39:35.000Z</time>
        <extensions>
          <ns3:TrackPointExtension>
            <ns3:atemp>19.0</ns3:atemp>
          </ns3:TrackPointExtension>
        </extensions>
      </trkpt>
      <trkpt lat="42.59929477237164974212646484375" lon="19.983859956264495849609375">
        <ele>1222</ele>
        <time>2026-06-15T15:39:36.000Z</time>
        <extensions>
          <ns3:TrackPointExtension>
            <ns3:atemp>19.0</ns3:atemp>
          </ns3:TrackPointExtension>
        </extensions>
      </trkpt>
      <trkpt lat="42.59929477237164974212646484375" lon="19.983859956264495849609375">
        <ele>1222</ele>
        <time>2026-06-15T15:39:37.000Z</time>
        <extensions>
          <ns3:TrackPointExtension>
            <ns3:atemp>19.0</ns3:atemp>
          </ns3:TrackPointExtension>
        </extensions>
      </trkpt>
      <trkpt lat="42.59929477237164974212646484375" lon="19.983859956264495849609375">
        <ele>1222</ele>
        <time>2026-06-15T15:39:38.000Z</time>
        <extensions>
          <ns3:TrackPointExtension>
            <ns3:atemp>19.0</ns3:atemp>
          </ns3:TrackPointExtension>
        </extensions>
      </trkpt>
      <trkpt lat="42.59929477237164974212646484375" lon="19.983859956264495849609375">
        <ele>1222</ele>
        <time>2026-06-15T15:39:39.000Z</time>
        <extensions>
          <ns3:TrackPointExtension>
            <ns3:atemp>19.0</ns3:atemp>
          </ns3:TrackPointExtension>
        </extensions>
      </trkpt>
      <trkpt lat="42.59929477237164974212646484375" lon="19.983859956264495849609375">
        <ele>1222</ele>
        <time>2026-06-15T15:39:40.000Z</time>
        <extensions>
          <ns3:TrackPointExtension>
            <ns3:atemp>19.0</ns3:atemp>
          </ns3:TrackPointExtension>
        </extensions>
      </trkpt>
      <trkpt lat="42.59929477237164974212646484375" lon="19.983859956264495849609375">
        <ele>1222</ele>
        <time>2026-06-15T15:39:41.000Z</time>
        <extensions>
          <ns3:TrackPointExtension>
            <ns3:atemp>19.0</ns3:atemp>
          </ns3:TrackPointExtension>
        </extensions>
      </trkpt>
      <trkpt lat="42.59929477237164974212646484375" lon="19.983859956264495849609375">
        <ele>1222</ele>
        <time>2026-06-15T15:39:42.000Z</time>
        <extensions>
          <ns3:TrackPointExtension>
            <ns3:atemp>19.0</ns3:atemp>
          </ns3:TrackPointExtension>
        </extensions>
      </trkpt>
      <trkpt lat="42.59929477237164974212646484375" lon="19.983859956264495849609375">
        <ele>1222</ele>
        <time>2026-06-15T15:39:43.000Z</time>
        <extensions>
          <ns3:TrackPointExtension>
            <ns3:atemp>19.0</ns3:atemp>
          </ns3:TrackPointExtension>
        </extensions>
      </trkpt>
      <trkpt lat="42.59929477237164974212646484375" lon="19.983859956264495849609375">
        <ele>1222</ele>
        <time>2026-06-15T15:39:44.000Z</time>
        <extensions>
          <ns3:TrackPointExtension>
            <ns3:atemp>19.0</ns3:atemp>
          </ns3:TrackPointExtension>
        </extensions>
      </trkpt>
      <trkpt lat="42.59929477237164974212646484375" lon="19.983859956264495849609375">
        <ele>1222</ele>
        <time>2026-06-15T15:39:45.000Z</time>
        <extensions>
          <ns3:TrackPointExtension>
            <ns3:atemp>19.0</ns3:atemp>
          </ns3:TrackPointExtension>
        </extensions>
      </trkpt>
      <trkpt lat="42.59929477237164974212646484375" lon="19.983859956264495849609375">
        <ele>1222</ele>
        <time>2026-06-15T15:39:46.000Z</time>
        <extensions>
          <ns3:TrackPointExtension>
            <ns3:atemp>19.0</ns3:atemp>
          </ns3:TrackPointExtension>
        </extensions>
      </trkpt>
      <trkpt lat="42.59929477237164974212646484375" lon="19.983859956264495849609375">
        <ele>1222</ele>
        <time>2026-06-15T15:39:47.000Z</time>
        <extensions>
          <ns3:TrackPointExtension>
            <ns3:atemp>19.0</ns3:atemp>
          </ns3:TrackPointExtension>
        </extensions>
      </trkpt>
      <trkpt lat="42.59929477237164974212646484375" lon="19.983859956264495849609375">
        <ele>1222</ele>
        <time>2026-06-15T15:39:48.000Z</time>
        <extensions>
          <ns3:TrackPointExtension>
            <ns3:atemp>19.0</ns3:atemp>
          </ns3:TrackPointExtension>
        </extensions>
      </trkpt>
      <trkpt lat="42.59929477237164974212646484375" lon="19.983859956264495849609375">
        <ele>1222</ele>
        <time>2026-06-15T15:39:49.000Z</time>
        <extensions>
          <ns3:TrackPointExtension>
            <ns3:atemp>19.0</ns3:atemp>
          </ns3:TrackPointExtension>
        </extensions>
      </trkpt>
      <trkpt lat="42.59929477237164974212646484375" lon="19.983859956264495849609375">
        <ele>1222</ele>
        <time>2026-06-15T15:39:50.000Z</time>
        <extensions>
          <ns3:TrackPointExtension>
            <ns3:atemp>19.0</ns3:atemp>
          </ns3:TrackPointExtension>
        </extensions>
      </trkpt>
      <trkpt lat="42.59929477237164974212646484375" lon="19.983859956264495849609375">
        <ele>1222</ele>
        <time>2026-06-15T15:39:51.000Z</time>
        <extensions>
          <ns3:TrackPointExtension>
            <ns3:atemp>19.0</ns3:atemp>
          </ns3:TrackPointExtension>
        </extensions>
      </trkpt>
      <trkpt lat="42.59929477237164974212646484375" lon="19.983859956264495849609375">
        <ele>1222</ele>
        <time>2026-06-15T15:39:52.000Z</time>
        <extensions>
          <ns3:TrackPointExtension>
            <ns3:atemp>19.0</ns3:atemp>
          </ns3:TrackPointExtension>
        </extensions>
      </trkpt>
      <trkpt lat="42.59929477237164974212646484375" lon="19.983859956264495849609375">
        <ele>1222</ele>
        <time>2026-06-15T15:39:53.000Z</time>
        <extensions>
          <ns3:TrackPointExtension>
            <ns3:atemp>19.0</ns3:atemp>
          </ns3:TrackPointExtension>
        </extensions>
      </trkpt>
      <trkpt lat="42.59929477237164974212646484375" lon="19.983859956264495849609375">
        <ele>1222</ele>
        <time>2026-06-15T15:39:54.000Z</time>
        <extensions>
          <ns3:TrackPointExtension>
            <ns3:atemp>19.0</ns3:atemp>
          </ns3:TrackPointExtension>
        </extensions>
      </trkpt>
      <trkpt lat="42.59929477237164974212646484375" lon="19.983859956264495849609375">
        <ele>1222</ele>
        <time>2026-06-15T15:39:55.000Z</time>
        <extensions>
          <ns3:TrackPointExtension>
            <ns3:atemp>19.0</ns3:atemp>
          </ns3:TrackPointExtension>
        </extensions>
      </trkpt>
      <trkpt lat="42.59929477237164974212646484375" lon="19.983859956264495849609375">
        <ele>1222</ele>
        <time>2026-06-15T15:39:56.000Z</time>
        <extensions>
          <ns3:TrackPointExtension>
            <ns3:atemp>19.0</ns3:atemp>
          </ns3:TrackPointExtension>
        </extensions>
      </trkpt>
      <trkpt lat="42.59929477237164974212646484375" lon="19.983859956264495849609375">
        <ele>1222</ele>
        <time>2026-06-15T15:39:57.000Z</time>
        <extensions>
          <ns3:TrackPointExtension>
            <ns3:atemp>19.0</ns3:atemp>
          </ns3:TrackPointExtension>
        </extensions>
      </trkpt>
      <trkpt lat="42.59929477237164974212646484375" lon="19.983859956264495849609375">
        <ele>1222</ele>
        <time>2026-06-15T15:39:58.000Z</time>
        <extensions>
          <ns3:TrackPointExtension>
            <ns3:atemp>19.0</ns3:atemp>
          </ns3:TrackPointExtension>
        </extensions>
      </trkpt>
      <trkpt lat="42.59929477237164974212646484375" lon="19.983859956264495849609375">
        <ele>1222</ele>
        <time>2026-06-15T15:39:59.000Z</time>
        <extensions>
          <ns3:TrackPointExtension>
            <ns3:atemp>19.0</ns3:atemp>
          </ns3:TrackPointExtension>
        </extensions>
      </trkpt>
      <trkpt lat="42.59929477237164974212646484375" lon="19.983859956264495849609375">
        <ele>1222</ele>
        <time>2026-06-15T15:40:00.000Z</time>
        <extensions>
          <ns3:TrackPointExtension>
            <ns3:atemp>19.0</ns3:atemp>
          </ns3:TrackPointExtension>
        </extensions>
      </trkpt>
      <trkpt lat="42.59929477237164974212646484375" lon="19.983859956264495849609375">
        <ele>1222</ele>
        <time>2026-06-15T15:40:01.000Z</time>
        <extensions>
          <ns3:TrackPointExtension>
            <ns3:atemp>19.0</ns3:atemp>
          </ns3:TrackPointExtension>
        </extensions>
      </trkpt>
      <trkpt lat="42.59929477237164974212646484375" lon="19.983859956264495849609375">
        <ele>1222</ele>
        <time>2026-06-15T15:40:02.000Z</time>
        <extensions>
          <ns3:TrackPointExtension>
            <ns3:atemp>19.0</ns3:atemp>
          </ns3:TrackPointExtension>
        </extensions>
      </trkpt>
      <trkpt lat="42.59929477237164974212646484375" lon="19.983859956264495849609375">
        <ele>1222</ele>
        <time>2026-06-15T15:40:03.000Z</time>
        <extensions>
          <ns3:TrackPointExtension>
            <ns3:atemp>19.0</ns3:atemp>
          </ns3:TrackPointExtension>
        </extensions>
      </trkpt>
      <trkpt lat="42.59929477237164974212646484375" lon="19.983859956264495849609375">
        <ele>1222</ele>
        <time>2026-06-15T15:40:04.000Z</time>
        <extensions>
          <ns3:TrackPointExtension>
            <ns3:atemp>19.0</ns3:atemp>
          </ns3:TrackPointExtension>
        </extensions>
      </trkpt>
      <trkpt lat="42.59929477237164974212646484375" lon="19.983859956264495849609375">
        <ele>1222</ele>
        <time>2026-06-15T15:40:05.000Z</time>
        <extensions>
          <ns3:TrackPointExtension>
            <ns3:atemp>19.0</ns3:atemp>
          </ns3:TrackPointExtension>
        </extensions>
      </trkpt>
      <trkpt lat="42.5993084348738193511962890625" lon="19.98385794460773468017578125">
        <ele>1222</ele>
        <time>2026-06-15T15:40:06.000Z</time>
        <extensions>
          <ns3:TrackPointExtension>
            <ns3:atemp>19.0</ns3:atemp>
          </ns3:TrackPointExtension>
        </extensions>
      </trkpt>
      <trkpt lat="42.59930851869285106658935546875" lon="19.98385769315063953399658203125">
        <ele>1222</ele>
        <time>2026-06-15T15:40:07.000Z</time>
        <extensions>
          <ns3:TrackPointExtension>
            <ns3:atemp>19.0</ns3:atemp>
          </ns3:TrackPointExtension>
        </extensions>
      </trkpt>
      <trkpt lat="42.59930851869285106658935546875" lon="19.98385769315063953399658203125">
        <ele>1222</ele>
        <time>2026-06-15T15:40:08.000Z</time>
        <extensions>
          <ns3:TrackPointExtension>
            <ns3:atemp>19.0</ns3:atemp>
          </ns3:TrackPointExtension>
        </extensions>
      </trkpt>
      <trkpt lat="42.59930851869285106658935546875" lon="19.98385769315063953399658203125">
        <ele>1222</ele>
        <time>2026-06-15T15:40:09.000Z</time>
        <extensions>
          <ns3:TrackPointExtension>
            <ns3:atemp>19.0</ns3:atemp>
          </ns3:TrackPointExtension>
        </extensions>
      </trkpt>
      <trkpt lat="42.59930851869285106658935546875" lon="19.98385769315063953399658203125">
        <ele>1222</ele>
        <time>2026-06-15T15:40:10.000Z</time>
        <extensions>
          <ns3:TrackPointExtension>
            <ns3:atemp>19.0</ns3:atemp>
          </ns3:TrackPointExtension>
        </extensions>
      </trkpt>
      <trkpt lat="42.59930851869285106658935546875" lon="19.98385769315063953399658203125">
        <ele>1222</ele>
        <time>2026-06-15T15:40:11.000Z</time>
        <extensions>
          <ns3:TrackPointExtension>
            <ns3:atemp>19.0</ns3:atemp>
          </ns3:TrackPointExtension>
        </extensions>
      </trkpt>
      <trkpt lat="42.59930851869285106658935546875" lon="19.98385769315063953399658203125">
        <ele>1222</ele>
        <time>2026-06-15T15:40:12.000Z</time>
        <extensions>
          <ns3:TrackPointExtension>
            <ns3:atemp>19.0</ns3:atemp>
          </ns3:TrackPointExtension>
        </extensions>
      </trkpt>
      <trkpt lat="42.59930851869285106658935546875" lon="19.98385769315063953399658203125">
        <ele>1222</ele>
        <time>2026-06-15T15:40:13.000Z</time>
        <extensions>
          <ns3:TrackPointExtension>
            <ns3:atemp>19.0</ns3:atemp>
          </ns3:TrackPointExtension>
        </extensions>
      </trkpt>
      <trkpt lat="42.59930851869285106658935546875" lon="19.98385769315063953399658203125">
        <ele>1222</ele>
        <time>2026-06-15T15:40:14.000Z</time>
        <extensions>
          <ns3:TrackPointExtension>
            <ns3:atemp>19.0</ns3:atemp>
          </ns3:TrackPointExtension>
        </extensions>
      </trkpt>
      <trkpt lat="42.59930851869285106658935546875" lon="19.98385769315063953399658203125">
        <ele>1222</ele>
        <time>2026-06-15T15:40:15.000Z</time>
        <extensions>
          <ns3:TrackPointExtension>
            <ns3:atemp>19.0</ns3:atemp>
          </ns3:TrackPointExtension>
        </extensions>
      </trkpt>
      <trkpt lat="42.59930851869285106658935546875" lon="19.98385769315063953399658203125">
        <ele>1222</ele>
        <time>2026-06-15T15:40:16.000Z</time>
        <extensions>
          <ns3:TrackPointExtension>
            <ns3:atemp>19.0</ns3:atemp>
          </ns3:TrackPointExtension>
        </extensions>
      </trkpt>
      <trkpt lat="42.59930851869285106658935546875" lon="19.98385769315063953399658203125">
        <ele>1222</ele>
        <time>2026-06-15T15:40:17.000Z</time>
        <extensions>
          <ns3:TrackPointExtension>
            <ns3:atemp>19.0</ns3:atemp>
          </ns3:TrackPointExtension>
        </extensions>
      </trkpt>
      <trkpt lat="42.59930851869285106658935546875" lon="19.98385769315063953399658203125">
        <ele>1222</ele>
        <time>2026-06-15T15:40:18.000Z</time>
        <extensions>
          <ns3:TrackPointExtension>
            <ns3:atemp>19.0</ns3:atemp>
          </ns3:TrackPointExtension>
        </extensions>
      </trkpt>
      <trkpt lat="42.59931002743542194366455078125" lon="19.9838510714471340179443359375">
        <ele>1222</ele>
        <time>2026-06-15T15:40:19.000Z</time>
        <extensions>
          <ns3:TrackPointExtension>
            <ns3:atemp>19.0</ns3:atemp>
          </ns3:TrackPointExtension>
        </extensions>
      </trkpt>
      <trkpt lat="42.59931723587214946746826171875" lon="19.98382986523211002349853515625">
        <ele>1222</ele>
        <time>2026-06-15T15:40:20.000Z</time>
        <extensions>
          <ns3:TrackPointExtension>
            <ns3:atemp>19.0</ns3:atemp>
          </ns3:TrackPointExtension>
        </extensions>
      </trkpt>
      <trkpt lat="42.599317319691181182861328125" lon="19.98382969759404659271240234375">
        <ele>1222</ele>
        <time>2026-06-15T15:40:21.000Z</time>
        <extensions>
          <ns3:TrackPointExtension>
            <ns3:atemp>19.0</ns3:atemp>
          </ns3:TrackPointExtension>
        </extensions>
      </trkpt>
      <trkpt lat="42.59931740351021289825439453125" lon="19.98382952995598316192626953125">
        <ele>1222</ele>
        <time>2026-06-15T15:40:22.000Z</time>
        <extensions>
          <ns3:TrackPointExtension>
            <ns3:atemp>19.0</ns3:atemp>
          </ns3:TrackPointExtension>
        </extensions>
      </trkpt>
      <trkpt lat="42.59932779707014560699462890625" lon="19.983813352882862091064453125">
        <ele>1222</ele>
        <time>2026-06-15T15:40:23.000Z</time>
        <extensions>
          <ns3:TrackPointExtension>
            <ns3:atemp>19.0</ns3:atemp>
          </ns3:TrackPointExtension>
        </extensions>
      </trkpt>
      <trkpt lat="42.59934288449585437774658203125" lon="19.98379759490489959716796875">
        <ele>1221.800048828125</ele>
        <time>2026-06-15T15:40:24.000Z</time>
        <extensions>
          <ns3:TrackPointExtension>
            <ns3:atemp>19.0</ns3:atemp>
          </ns3:TrackPointExtension>
        </extensions>
      </trkpt>
      <trkpt lat="42.5993607379496097564697265625" lon="19.9837796576321125030517578125">
        <ele>1221.800048828125</ele>
        <time>2026-06-15T15:40:25.000Z</time>
        <extensions>
          <ns3:TrackPointExtension>
            <ns3:atemp>19.0</ns3:atemp>
          </ns3:TrackPointExtension>
        </extensions>
      </trkpt>
      <trkpt lat="42.5993832014501094818115234375" lon="19.98377085663378238677978515625">
        <ele>1221.800048828125</ele>
        <time>2026-06-15T15:40:26.000Z</time>
        <extensions>
          <ns3:TrackPointExtension>
            <ns3:atemp>19.0</ns3:atemp>
          </ns3:TrackPointExtension>
        </extensions>
      </trkpt>
      <trkpt lat="42.59940692223608493804931640625" lon="19.98376138508319854736328125">
        <ele>1221.800048828125</ele>
        <time>2026-06-15T15:40:27.000Z</time>
        <extensions>
          <ns3:TrackPointExtension>
            <ns3:atemp>19.0</ns3:atemp>
          </ns3:TrackPointExtension>
        </extensions>
      </trkpt>
      <trkpt lat="42.5994284637272357940673828125" lon="19.9837568588554859161376953125">
        <ele>1221.800048828125</ele>
        <time>2026-06-15T15:40:28.000Z</time>
        <extensions>
          <ns3:TrackPointExtension>
            <ns3:atemp>19.0</ns3:atemp>
          </ns3:TrackPointExtension>
        </extensions>
      </trkpt>
      <trkpt lat="42.59944598190486431121826171875" lon="19.98375040479004383087158203125">
        <ele>1222</ele>
        <time>2026-06-15T15:40:29.000Z</time>
        <extensions>
          <ns3:TrackPointExtension>
            <ns3:atemp>19.0</ns3:atemp>
          </ns3:TrackPointExtension>
        </extensions>
      </trkpt>
      <trkpt lat="42.5994676910340785980224609375" lon="19.9837411008775234222412109375">
        <ele>1222</ele>
        <time>2026-06-15T15:40:30.000Z</time>
        <extensions>
          <ns3:TrackPointExtension>
            <ns3:atemp>19.0</ns3:atemp>
          </ns3:TrackPointExtension>
        </extensions>
      </trkpt>
      <trkpt lat="42.59949225001037120819091796875" lon="19.983735568821430206298828125">
        <ele>1222.199951171875</ele>
        <time>2026-06-15T15:40:31.000Z</time>
        <extensions>
          <ns3:TrackPointExtension>
            <ns3:atemp>19.0</ns3:atemp>
          </ns3:TrackPointExtension>
        </extensions>
      </trkpt>
      <trkpt lat="42.599513120949268341064453125" lon="19.98373028822243213653564453125">
        <ele>1222.4000244140625</ele>
        <time>2026-06-15T15:40:32.000Z</time>
        <extensions>
          <ns3:TrackPointExtension>
            <ns3:atemp>19.0</ns3:atemp>
          </ns3:TrackPointExtension>
        </extensions>
      </trkpt>
      <trkpt lat="42.599534578621387481689453125" lon="19.98371981084346771240234375">
        <ele>1222.4000244140625</ele>
        <time>2026-06-15T15:40:33.000Z</time>
        <extensions>
          <ns3:TrackPointExtension>
            <ns3:atemp>19.0</ns3:atemp>
          </ns3:TrackPointExtension>
        </extensions>
      </trkpt>
      <trkpt lat="42.59955863468348979949951171875" lon="19.98370849527418613433837890625">
        <ele>1222.5999755859375</ele>
        <time>2026-06-15T15:40:34.000Z</time>
        <extensions>
          <ns3:TrackPointExtension>
            <ns3:atemp>19.0</ns3:atemp>
          </ns3:TrackPointExtension>
        </extensions>
      </trkpt>
      <trkpt lat="42.59957824833691120147705078125" lon="19.9836944974958896636962890625">
        <ele>1222.800048828125</ele>
        <time>2026-06-15T15:40:35.000Z</time>
        <extensions>
          <ns3:TrackPointExtension>
            <ns3:atemp>19.0</ns3:atemp>
          </ns3:TrackPointExtension>
        </extensions>
      </trkpt>
      <trkpt lat="42.59959635324776172637939453125" lon="19.98367915861308574676513671875">
        <ele>1222.800048828125</ele>
        <time>2026-06-15T15:40:36.000Z</time>
        <extensions>
          <ns3:TrackPointExtension>
            <ns3:atemp>19.0</ns3:atemp>
          </ns3:TrackPointExtension>
        </extensions>
      </trkpt>
      <trkpt lat="42.5996229238808155059814453125" lon="19.9836633168160915374755859375">
        <ele>1223</ele>
        <time>2026-06-15T15:40:37.000Z</time>
        <extensions>
          <ns3:TrackPointExtension>
            <ns3:atemp>19.0</ns3:atemp>
          </ns3:TrackPointExtension>
        </extensions>
      </trkpt>
      <trkpt lat="42.59964982978999614715576171875" lon="19.983636327087879180908203125">
        <ele>1223</ele>
        <time>2026-06-15T15:40:38.000Z</time>
        <extensions>
          <ns3:TrackPointExtension>
            <ns3:atemp>19.0</ns3:atemp>
          </ns3:TrackPointExtension>
        </extensions>
      </trkpt>
      <trkpt lat="42.59968939237296581268310546875" lon="19.9836019612848758697509765625">
        <ele>1222.800048828125</ele>
        <time>2026-06-15T15:40:39.000Z</time>
        <extensions>
          <ns3:TrackPointExtension>
            <ns3:atemp>19.0</ns3:atemp>
          </ns3:TrackPointExtension>
        </extensions>
      </trkpt>
      <trkpt lat="42.5997305475175380706787109375" lon="19.9835664220154285430908203125">
        <ele>1222.5999755859375</ele>
        <time>2026-06-15T15:40:40.000Z</time>
        <extensions>
          <ns3:TrackPointExtension>
            <ns3:atemp>19.0</ns3:atemp>
          </ns3:TrackPointExtension>
        </extensions>
      </trkpt>
      <trkpt lat="42.5997577048838138580322265625" lon="19.983525685966014862060546875">
        <ele>1222.4000244140625</ele>
        <time>2026-06-15T15:40:41.000Z</time>
        <extensions>
          <ns3:TrackPointExtension>
            <ns3:atemp>19.0</ns3:atemp>
          </ns3:TrackPointExtension>
        </extensions>
      </trkpt>
      <trkpt lat="42.5997858680784702301025390625" lon="19.98348603956401348114013671875">
        <ele>1222.199951171875</ele>
        <time>2026-06-15T15:40:42.000Z</time>
        <extensions>
          <ns3:TrackPointExtension>
            <ns3:atemp>19.0</ns3:atemp>
          </ns3:TrackPointExtension>
        </extensions>
      </trkpt>
      <trkpt lat="42.599815540015697479248046875" lon="19.98345351777970790863037109375">
        <ele>1222</ele>
        <time>2026-06-15T15:40:43.000Z</time>
        <extensions>
          <ns3:TrackPointExtension>
            <ns3:atemp>19.0</ns3:atemp>
          </ns3:TrackPointExtension>
        </extensions>
      </trkpt>
      <trkpt lat="42.5998488999903202056884765625" lon="19.98343105427920818328857421875">
        <ele>1222</ele>
        <time>2026-06-15T15:40:44.000Z</time>
        <extensions>
          <ns3:TrackPointExtension>
            <ns3:atemp>19.0</ns3:atemp>
          </ns3:TrackPointExtension>
        </extensions>
      </trkpt>
      <trkpt lat="42.59988351725041866302490234375" lon="19.98341680504381656646728515625">
        <ele>1222</ele>
        <time>2026-06-15T15:40:45.000Z</time>
        <extensions>
          <ns3:TrackPointExtension>
            <ns3:atemp>19.0</ns3:atemp>
          </ns3:TrackPointExtension>
        </extensions>
      </trkpt>
      <trkpt lat="42.59992140345275402069091796875" lon="19.98340305872261524200439453125">
        <ele>1222</ele>
        <time>2026-06-15T15:40:46.000Z</time>
        <extensions>
          <ns3:TrackPointExtension>
            <ns3:atemp>19.0</ns3:atemp>
          </ns3:TrackPointExtension>
        </extensions>
      </trkpt>
      <trkpt lat="42.5999588705599308013916015625" lon="19.983388893306255340576171875">
        <ele>1222</ele>
        <time>2026-06-15T15:40:47.000Z</time>
        <extensions>
          <ns3:TrackPointExtension>
            <ns3:atemp>19.0</ns3:atemp>
          </ns3:TrackPointExtension>
        </extensions>
      </trkpt>
      <trkpt lat="42.59999432601034641265869140625" lon="19.9833746440708637237548828125">
        <ele>1222</ele>
        <time>2026-06-15T15:40:48.000Z</time>
        <extensions>
          <ns3:TrackPointExtension>
            <ns3:atemp>19.0</ns3:atemp>
          </ns3:TrackPointExtension>
        </extensions>
      </trkpt>
      <trkpt lat="42.60002936236560344696044921875" lon="19.98336039483547210693359375">
        <ele>1222</ele>
        <time>2026-06-15T15:40:49.000Z</time>
        <extensions>
          <ns3:TrackPointExtension>
            <ns3:atemp>19.0</ns3:atemp>
          </ns3:TrackPointExtension>
        </extensions>
      </trkpt>
      <trkpt lat="42.600064314901828765869140625" lon="19.9833417870104312896728515625">
        <ele>1222</ele>
        <time>2026-06-15T15:40:50.000Z</time>
        <extensions>
          <ns3:TrackPointExtension>
            <ns3:atemp>19.0</ns3:atemp>
          </ns3:TrackPointExtension>
        </extensions>
      </trkpt>
      <trkpt lat="42.6001000218093395233154296875" lon="19.98332644812762737274169921875">
        <ele>1222.199951171875</ele>
        <time>2026-06-15T15:40:51.000Z</time>
        <extensions>
          <ns3:TrackPointExtension>
            <ns3:atemp>19.0</ns3:atemp>
          </ns3:TrackPointExtension>
        </extensions>
      </trkpt>
      <trkpt lat="42.6001342199742794036865234375" lon="19.98331270180642604827880859375">
        <ele>1222.4000244140625</ele>
        <time>2026-06-15T15:40:52.000Z</time>
        <extensions>
          <ns3:TrackPointExtension>
            <ns3:atemp>19.0</ns3:atemp>
          </ns3:TrackPointExtension>
        </extensions>
      </trkpt>
      <trkpt lat="42.60016858577728271484375" lon="19.98330750502645969390869140625">
        <ele>1222.800048828125</ele>
        <time>2026-06-15T15:40:53.000Z</time>
        <extensions>
          <ns3:TrackPointExtension>
            <ns3:atemp>19.0</ns3:atemp>
          </ns3:TrackPointExtension>
        </extensions>
      </trkpt>
      <trkpt lat="42.60020236484706401824951171875" lon="19.98330683447420597076416015625">
        <ele>1223</ele>
        <time>2026-06-15T15:40:54.000Z</time>
        <extensions>
          <ns3:TrackPointExtension>
            <ns3:atemp>19.0</ns3:atemp>
          </ns3:TrackPointExtension>
        </extensions>
      </trkpt>
      <trkpt lat="42.6002341322600841522216796875" lon="19.9833085946738719940185546875">
        <ele>1223.199951171875</ele>
        <time>2026-06-15T15:40:55.000Z</time>
        <extensions>
          <ns3:TrackPointExtension>
            <ns3:atemp>19.0</ns3:atemp>
          </ns3:TrackPointExtension>
        </extensions>
      </trkpt>
      <trkpt lat="42.60026237927377223968505859375" lon="19.983313791453838348388671875">
        <ele>1223.5999755859375</ele>
        <time>2026-06-15T15:40:56.000Z</time>
        <extensions>
          <ns3:TrackPointExtension>
            <ns3:atemp>19.0</ns3:atemp>
          </ns3:TrackPointExtension>
        </extensions>
      </trkpt>
      <trkpt lat="42.6002894528210163116455078125" lon="19.9833189882338047027587890625">
        <ele>1224</ele>
        <time>2026-06-15T15:40:57.000Z</time>
        <extensions>
          <ns3:TrackPointExtension>
            <ns3:atemp>19.0</ns3:atemp>
          </ns3:TrackPointExtension>
        </extensions>
      </trkpt>
      <trkpt lat="42.60031484998762607574462890625" lon="19.98332284390926361083984375">
        <ele>1224.4000244140625</ele>
        <time>2026-06-15T15:40:58.000Z</time>
        <extensions>
          <ns3:TrackPointExtension>
            <ns3:atemp>19.0</ns3:atemp>
          </ns3:TrackPointExtension>
        </extensions>
      </trkpt>
      <trkpt lat="42.60034401901066303253173828125" lon="19.9833248555660247802734375">
        <ele>1224.800048828125</ele>
        <time>2026-06-15T15:40:59.000Z</time>
        <extensions>
          <ns3:TrackPointExtension>
            <ns3:atemp>19.0</ns3:atemp>
          </ns3:TrackPointExtension>
        </extensions>
      </trkpt>
      <trkpt lat="42.60037302039563655853271484375" lon="19.98332276009023189544677734375">
        <ele>1225.199951171875</ele>
        <time>2026-06-15T15:41:00.000Z</time>
        <extensions>
          <ns3:TrackPointExtension>
            <ns3:atemp>19.0</ns3:atemp>
          </ns3:TrackPointExtension>
        </extensions>
      </trkpt>
      <trkpt lat="42.6004017703235149383544921875" lon="19.9833203293383121490478515625">
        <ele>1225.4000244140625</ele>
        <time>2026-06-15T15:41:01.000Z</time>
        <extensions>
          <ns3:TrackPointExtension>
            <ns3:atemp>19.0</ns3:atemp>
          </ns3:TrackPointExtension>
        </extensions>
      </trkpt>
      <trkpt lat="42.60042808949947357177734375" lon="19.983316473662853240966796875">
        <ele>1225.800048828125</ele>
        <time>2026-06-15T15:41:02.000Z</time>
        <extensions>
          <ns3:TrackPointExtension>
            <ns3:atemp>19.0</ns3:atemp>
          </ns3:TrackPointExtension>
        </extensions>
      </trkpt>
      <trkpt lat="42.60045248083770275115966796875" lon="19.98331069014966487884521484375">
        <ele>1226</ele>
        <time>2026-06-15T15:41:03.000Z</time>
        <extensions>
          <ns3:TrackPointExtension>
            <ns3:atemp>19.0</ns3:atemp>
          </ns3:TrackPointExtension>
        </extensions>
      </trkpt>
      <trkpt lat="42.600477375090122222900390625" lon="19.98330138623714447021484375">
        <ele>1226</ele>
        <time>2026-06-15T15:41:04.000Z</time>
        <extensions>
          <ns3:TrackPointExtension>
            <ns3:atemp>19.0</ns3:atemp>
          </ns3:TrackPointExtension>
        </extensions>
      </trkpt>
      <trkpt lat="42.60050226934254169464111328125" lon="19.98329292051494121551513671875">
        <ele>1226.199951171875</ele>
        <time>2026-06-15T15:41:05.000Z</time>
        <extensions>
          <ns3:TrackPointExtension>
            <ns3:atemp>19.0</ns3:atemp>
          </ns3:TrackPointExtension>
        </extensions>
      </trkpt>
      <trkpt lat="42.6005248166620731353759765625" lon="19.9832764081656932830810546875">
        <ele>1226.4000244140625</ele>
        <time>2026-06-15T15:41:06.000Z</time>
        <extensions>
          <ns3:TrackPointExtension>
            <ns3:atemp>19.0</ns3:atemp>
          </ns3:TrackPointExtension>
        </extensions>
      </trkpt>
      <trkpt lat="42.60054384358227252960205078125" lon="19.9832583032548427581787109375">
        <ele>1226.4000244140625</ele>
        <time>2026-06-15T15:41:07.000Z</time>
        <extensions>
          <ns3:TrackPointExtension>
            <ns3:atemp>19.0</ns3:atemp>
          </ns3:TrackPointExtension>
        </extensions>
      </trkpt>
      <trkpt lat="42.60056680999696254730224609375" lon="19.98323433101177215576171875">
        <ele>1226.5999755859375</ele>
        <time>2026-06-15T15:41:08.000Z</time>
        <extensions>
          <ns3:TrackPointExtension>
            <ns3:atemp>19.0</ns3:atemp>
          </ns3:TrackPointExtension>
        </extensions>
      </trkpt>
      <trkpt lat="42.600586675107479095458984375" lon="19.983214549720287322998046875">
        <ele>1227</ele>
        <time>2026-06-15T15:41:09.000Z</time>
        <extensions>
          <ns3:TrackPointExtension>
            <ns3:atemp>19.0</ns3:atemp>
          </ns3:TrackPointExtension>
        </extensions>
      </trkpt>
      <trkpt lat="42.60060645639896392822265625" lon="19.9831907451152801513671875">
        <ele>1227.199951171875</ele>
        <time>2026-06-15T15:41:10.000Z</time>
        <extensions>
          <ns3:TrackPointExtension>
            <ns3:atemp>19.0</ns3:atemp>
          </ns3:TrackPointExtension>
        </extensions>
      </trkpt>
      <trkpt lat="42.60062347166240215301513671875" lon="19.983162917196750640869140625">
        <ele>1227.4000244140625</ele>
        <time>2026-06-15T15:41:11.000Z</time>
        <extensions>
          <ns3:TrackPointExtension>
            <ns3:atemp>19.0</ns3:atemp>
          </ns3:TrackPointExtension>
        </extensions>
      </trkpt>
      <trkpt lat="42.6006411574780941009521484375" lon="19.98313332907855510711669921875">
        <ele>1227.5999755859375</ele>
        <time>2026-06-15T15:41:12.000Z</time>
        <extensions>
          <ns3:TrackPointExtension>
            <ns3:atemp>19.0</ns3:atemp>
          </ns3:TrackPointExtension>
        </extensions>
      </trkpt>
      <trkpt lat="42.6006528921425342559814453125" lon="19.983103908598423004150390625">
        <ele>1227.800048828125</ele>
        <time>2026-06-15T15:41:13.000Z</time>
        <extensions>
          <ns3:TrackPointExtension>
            <ns3:atemp>19.0</ns3:atemp>
          </ns3:TrackPointExtension>
        </extensions>
      </trkpt>
      <trkpt lat="42.600667811930179595947265625" lon="19.98308144509792327880859375">
        <ele>1228</ele>
        <time>2026-06-15T15:41:14.000Z</time>
        <extensions>
          <ns3:TrackPointExtension>
            <ns3:atemp>19.0</ns3:atemp>
          </ns3:TrackPointExtension>
        </extensions>
      </trkpt>
      <trkpt lat="42.6006901077926158905029296875" lon="19.98305604793131351470947265625">
        <ele>1228.199951171875</ele>
        <time>2026-06-15T15:41:15.000Z</time>
        <extensions>
          <ns3:TrackPointExtension>
            <ns3:atemp>19.0</ns3:atemp>
          </ns3:TrackPointExtension>
        </extensions>
      </trkpt>
      <trkpt lat="42.60070896707475185394287109375" lon="19.983034171164035797119140625">
        <ele>1228.4000244140625</ele>
        <time>2026-06-15T15:41:16.000Z</time>
        <extensions>
          <ns3:TrackPointExtension>
            <ns3:atemp>19.0</ns3:atemp>
          </ns3:TrackPointExtension>
        </extensions>
      </trkpt>
      <trkpt lat="42.60072925128042697906494140625" lon="19.9830138869583606719970703125">
        <ele>1228.5999755859375</ele>
        <time>2026-06-15T15:41:17.000Z</time>
        <extensions>
          <ns3:TrackPointExtension>
            <ns3:atemp>19.0</ns3:atemp>
          </ns3:TrackPointExtension>
        </extensions>
      </trkpt>
      <trkpt lat="42.60075707919895648956298828125" lon="19.98299217782914638519287109375">
        <ele>1228.800048828125</ele>
        <time>2026-06-15T15:41:18.000Z</time>
        <extensions>
          <ns3:TrackPointExtension>
            <ns3:atemp>19.0</ns3:atemp>
          </ns3:TrackPointExtension>
        </extensions>
      </trkpt>
      <trkpt lat="42.600783817470073699951171875" lon="19.98296233825385570526123046875">
        <ele>1229</ele>
        <time>2026-06-15T15:41:19.000Z</time>
        <extensions>
          <ns3:TrackPointExtension>
            <ns3:atemp>19.0</ns3:atemp>
          </ns3:TrackPointExtension>
        </extensions>
      </trkpt>
      <trkpt lat="42.60081776417791843414306640625" lon="19.98293459415435791015625">
        <ele>1229.199951171875</ele>
        <time>2026-06-15T15:41:20.000Z</time>
        <extensions>
          <ns3:TrackPointExtension>
            <ns3:atemp>19.0</ns3:atemp>
          </ns3:TrackPointExtension>
        </extensions>
      </trkpt>
      <trkpt lat="42.6008547283709049224853515625" lon="19.98291674070060253143310546875">
        <ele>1229.5999755859375</ele>
        <time>2026-06-15T15:41:21.000Z</time>
        <extensions>
          <ns3:TrackPointExtension>
            <ns3:atemp>19.0</ns3:atemp>
          </ns3:TrackPointExtension>
        </extensions>
      </trkpt>
      <trkpt lat="42.6008946262300014495849609375" lon="19.982897378504276275634765625">
        <ele>1229.800048828125</ele>
        <time>2026-06-15T15:41:22.000Z</time>
        <extensions>
          <ns3:TrackPointExtension>
            <ns3:atemp>19.0</ns3:atemp>
          </ns3:TrackPointExtension>
        </extensions>
      </trkpt>
      <trkpt lat="42.6009301654994487762451171875" lon="19.9828834645450115203857421875">
        <ele>1230</ele>
        <time>2026-06-15T15:41:23.000Z</time>
        <extensions>
          <ns3:TrackPointExtension>
            <ns3:atemp>19.0</ns3:atemp>
          </ns3:TrackPointExtension>
        </extensions>
      </trkpt>
      <trkpt lat="42.6009660400450229644775390625" lon="19.98287089169025421142578125">
        <ele>1230.4000244140625</ele>
        <time>2026-06-15T15:41:24.000Z</time>
        <extensions>
          <ns3:TrackPointExtension>
            <ns3:atemp>19.0</ns3:atemp>
          </ns3:TrackPointExtension>
        </extensions>
      </trkpt>
      <trkpt lat="42.60099948383867740631103515625" lon="19.982857145369052886962890625">
        <ele>1230.5999755859375</ele>
        <time>2026-06-15T15:41:25.000Z</time>
        <extensions>
          <ns3:TrackPointExtension>
            <ns3:atemp>19.0</ns3:atemp>
          </ns3:TrackPointExtension>
        </extensions>
      </trkpt>
      <trkpt lat="42.60103334672749042510986328125" lon="19.9828385375440120697021484375">
        <ele>1230.800048828125</ele>
        <time>2026-06-15T15:41:26.000Z</time>
        <extensions>
          <ns3:TrackPointExtension>
            <ns3:atemp>19.0</ns3:atemp>
          </ns3:TrackPointExtension>
        </extensions>
      </trkpt>
      <trkpt lat="42.6010679639875888824462890625" lon="19.98283225111663341522216796875">
        <ele>1231.199951171875</ele>
        <time>2026-06-15T15:41:27.000Z</time>
        <extensions>
          <ns3:TrackPointExtension>
            <ns3:atemp>19.0</ns3:atemp>
          </ns3:TrackPointExtension>
        </extensions>
      </trkpt>
      <trkpt lat="42.60110241360962390899658203125" lon="19.98282956890761852264404296875">
        <ele>1231.4000244140625</ele>
        <time>2026-06-15T15:41:28.000Z</time>
        <extensions>
          <ns3:TrackPointExtension>
            <ns3:atemp>19.0</ns3:atemp>
          </ns3:TrackPointExtension>
        </extensions>
      </trkpt>
      <trkpt lat="42.60113560594618320465087890625" lon="19.9828241206705570220947265625">
        <ele>1231.5999755859375</ele>
        <time>2026-06-15T15:41:29.000Z</time>
        <extensions>
          <ns3:TrackPointExtension>
            <ns3:atemp>19.0</ns3:atemp>
          </ns3:TrackPointExtension>
        </extensions>
      </trkpt>
      <trkpt lat="42.60117231868207454681396484375" lon="19.98282353393733501434326171875">
        <ele>1231.800048828125</ele>
        <time>2026-06-15T15:41:30.000Z</time>
        <extensions>
          <ns3:TrackPointExtension>
            <ns3:atemp>19.0</ns3:atemp>
          </ns3:TrackPointExtension>
        </extensions>
      </trkpt>
      <trkpt lat="42.60120919905602931976318359375" lon="19.982826299965381622314453125">
        <ele>1232</ele>
        <time>2026-06-15T15:41:31.000Z</time>
        <extensions>
          <ns3:TrackPointExtension>
            <ns3:atemp>19.0</ns3:atemp>
          </ns3:TrackPointExtension>
        </extensions>
      </trkpt>
      <trkpt lat="42.60124993510544300079345703125" lon="19.98281766660511493682861328125">
        <ele>1232.199951171875</ele>
        <time>2026-06-15T15:41:32.000Z</time>
        <extensions>
          <ns3:TrackPointExtension>
            <ns3:atemp>19.0</ns3:atemp>
          </ns3:TrackPointExtension>
        </extensions>
      </trkpt>
      <trkpt lat="42.6012852229177951812744140625" lon="19.9828036688268184661865234375">
        <ele>1232.199951171875</ele>
        <time>2026-06-15T15:41:33.000Z</time>
        <extensions>
          <ns3:TrackPointExtension>
            <ns3:atemp>19.0</ns3:atemp>
          </ns3:TrackPointExtension>
        </extensions>
      </trkpt>
      <trkpt lat="42.60131531395018100738525390625" lon="19.98279604129493236541748046875">
        <ele>1232.4000244140625</ele>
        <time>2026-06-15T15:41:34.000Z</time>
        <extensions>
          <ns3:TrackPointExtension>
            <ns3:atemp>19.0</ns3:atemp>
          </ns3:TrackPointExtension>
        </extensions>
      </trkpt>
      <trkpt lat="42.60133962146937847137451171875" lon="19.982788078486919403076171875">
        <ele>1232.4000244140625</ele>
        <time>2026-06-15T15:41:35.000Z</time>
        <extensions>
          <ns3:TrackPointExtension>
            <ns3:atemp>19.0</ns3:atemp>
          </ns3:TrackPointExtension>
        </extensions>
      </trkpt>
      <trkpt lat="42.6013626717031002044677734375" lon="19.982776008546352386474609375">
        <ele>1232.5999755859375</ele>
        <time>2026-06-15T15:41:36.000Z</time>
        <extensions>
          <ns3:TrackPointExtension>
            <ns3:atemp>19.0</ns3:atemp>
          </ns3:TrackPointExtension>
        </extensions>
      </trkpt>
      <trkpt lat="42.60138840414583683013916015625" lon="19.9827560596168041229248046875">
        <ele>1232.800048828125</ele>
        <time>2026-06-15T15:41:37.000Z</time>
        <extensions>
          <ns3:TrackPointExtension>
            <ns3:atemp>19.0</ns3:atemp>
          </ns3:TrackPointExtension>
        </extensions>
      </trkpt>
      <trkpt lat="42.60140852071344852447509765625" lon="19.9827372841536998748779296875">
        <ele>1233</ele>
        <time>2026-06-15T15:41:38.000Z</time>
        <extensions>
          <ns3:TrackPointExtension>
            <ns3:atemp>19.0</ns3:atemp>
          </ns3:TrackPointExtension>
        </extensions>
      </trkpt>
      <trkpt lat="42.60142662562429904937744140625" lon="19.98272798024117946624755859375">
        <ele>1233.199951171875</ele>
        <time>2026-06-15T15:41:39.000Z</time>
        <extensions>
          <ns3:TrackPointExtension>
            <ns3:atemp>19.0</ns3:atemp>
          </ns3:TrackPointExtension>
        </extensions>
      </trkpt>
      <trkpt lat="42.60145026259124279022216796875" lon="19.9827154912054538726806640625">
        <ele>1233.4000244140625</ele>
        <time>2026-06-15T15:41:40.000Z</time>
        <extensions>
          <ns3:TrackPointExtension>
            <ns3:atemp>19.0</ns3:atemp>
          </ns3:TrackPointExtension>
        </extensions>
      </trkpt>
      <trkpt lat="42.6014723069965839385986328125" lon="19.98270551674067974090576171875">
        <ele>1233.5999755859375</ele>
        <time>2026-06-15T15:41:41.000Z</time>
        <extensions>
          <ns3:TrackPointExtension>
            <ns3:atemp>19.0</ns3:atemp>
          </ns3:TrackPointExtension>
        </extensions>
      </trkpt>
      <trkpt lat="42.6014934293925762176513671875" lon="19.98269579373300075531005859375">
        <ele>1233.5999755859375</ele>
        <time>2026-06-15T15:41:42.000Z</time>
        <extensions>
          <ns3:TrackPointExtension>
            <ns3:atemp>19.0</ns3:atemp>
          </ns3:TrackPointExtension>
        </extensions>
      </trkpt>
      <trkpt lat="42.60152301751077175140380859375" lon="19.98268422670662403106689453125">
        <ele>1233.800048828125</ele>
        <time>2026-06-15T15:41:43.000Z</time>
        <extensions>
          <ns3:TrackPointExtension>
            <ns3:atemp>19.0</ns3:atemp>
          </ns3:TrackPointExtension>
        </extensions>
      </trkpt>
      <trkpt lat="42.60155017487704753875732421875" lon="19.982672072947025299072265625">
        <ele>1234</ele>
        <time>2026-06-15T15:41:44.000Z</time>
        <extensions>
          <ns3:TrackPointExtension>
            <ns3:atemp>19.0</ns3:atemp>
          </ns3:TrackPointExtension>
        </extensions>
      </trkpt>
      <trkpt lat="42.6015775837004184722900390625" lon="19.982664696872234344482421875">
        <ele>1234.199951171875</ele>
        <time>2026-06-15T15:41:45.000Z</time>
        <extensions>
          <ns3:TrackPointExtension>
            <ns3:atemp>19.0</ns3:atemp>
          </ns3:TrackPointExtension>
        </extensions>
      </trkpt>
      <trkpt lat="42.60160557925701141357421875" lon="19.982657991349697113037109375">
        <ele>1234.4000244140625</ele>
        <time>2026-06-15T15:41:46.000Z</time>
        <extensions>
          <ns3:TrackPointExtension>
            <ns3:atemp>19.0</ns3:atemp>
          </ns3:TrackPointExtension>
        </extensions>
      </trkpt>
      <trkpt lat="42.6016288809478282928466796875" lon="19.98264558613300323486328125">
        <ele>1234.5999755859375</ele>
        <time>2026-06-15T15:41:47.000Z</time>
        <extensions>
          <ns3:TrackPointExtension>
            <ns3:atemp>19.0</ns3:atemp>
          </ns3:TrackPointExtension>
        </extensions>
      </trkpt>
      <trkpt lat="42.601651847362518310546875" lon="19.9826440773904323577880859375">
        <ele>1234.800048828125</ele>
        <time>2026-06-15T15:41:48.000Z</time>
        <extensions>
          <ns3:TrackPointExtension>
            <ns3:atemp>19.0</ns3:atemp>
          </ns3:TrackPointExtension>
        </extensions>
      </trkpt>
      <trkpt lat="42.60167456232011318206787109375" lon="19.98263510875403881072998046875">
        <ele>1235</ele>
        <time>2026-06-15T15:41:49.000Z</time>
        <extensions>
          <ns3:TrackPointExtension>
            <ns3:atemp>19.0</ns3:atemp>
          </ns3:TrackPointExtension>
        </extensions>
      </trkpt>
      <trkpt lat="42.60169543325901031494140625" lon="19.98263058252632617950439453125">
        <ele>1235.199951171875</ele>
        <time>2026-06-15T15:41:50.000Z</time>
        <extensions>
          <ns3:TrackPointExtension>
            <ns3:atemp>19.0</ns3:atemp>
          </ns3:TrackPointExtension>
        </extensions>
      </trkpt>
      <trkpt lat="42.601715214550495147705078125" lon="19.98262739740312099456787109375">
        <ele>1235.5999755859375</ele>
        <time>2026-06-15T15:41:51.000Z</time>
        <extensions>
          <ns3:TrackPointExtension>
            <ns3:atemp>19.0</ns3:atemp>
          </ns3:TrackPointExtension>
        </extensions>
      </trkpt>
      <trkpt lat="42.6017388515174388885498046875" lon="19.98262169770896434783935546875">
        <ele>1235.800048828125</ele>
        <time>2026-06-15T15:41:52.000Z</time>
        <extensions>
          <ns3:TrackPointExtension>
            <ns3:atemp>19.0</ns3:atemp>
          </ns3:TrackPointExtension>
        </extensions>
      </trkpt>
      <trkpt lat="42.60175712406635284423828125" lon="19.9826209433376789093017578125">
        <ele>1236</ele>
        <time>2026-06-15T15:41:53.000Z</time>
        <extensions>
          <ns3:TrackPointExtension>
            <ns3:atemp>19.0</ns3:atemp>
          </ns3:TrackPointExtension>
        </extensions>
      </trkpt>
      <trkpt lat="42.6017750613391399383544921875" lon="19.98261985369026660919189453125">
        <ele>1236.4000244140625</ele>
        <time>2026-06-15T15:41:54.000Z</time>
        <extensions>
          <ns3:TrackPointExtension>
            <ns3:atemp>19.0</ns3:atemp>
          </ns3:TrackPointExtension>
        </extensions>
      </trkpt>
      <trkpt lat="42.60179157368838787078857421875" lon="19.98262069188058376312255859375">
        <ele>1236.5999755859375</ele>
        <time>2026-06-15T15:41:55.000Z</time>
        <extensions>
          <ns3:TrackPointExtension>
            <ns3:atemp>19.0</ns3:atemp>
          </ns3:TrackPointExtension>
        </extensions>
      </trkpt>
      <trkpt lat="42.601810432970523834228515625" lon="19.98262186534702777862548828125">
        <ele>1236.800048828125</ele>
        <time>2026-06-15T15:41:56.000Z</time>
        <extensions>
          <ns3:TrackPointExtension>
            <ns3:atemp>19.0</ns3:atemp>
          </ns3:TrackPointExtension>
        </extensions>
      </trkpt>
      <trkpt lat="42.60182945989072322845458984375" lon="19.982623793184757232666015625">
        <ele>1237.199951171875</ele>
        <time>2026-06-15T15:41:57.000Z</time>
        <extensions>
          <ns3:TrackPointExtension>
            <ns3:atemp>19.0</ns3:atemp>
          </ns3:TrackPointExtension>
        </extensions>
      </trkpt>
      <trkpt lat="42.6018461398780345916748046875" lon="19.98262790031731128692626953125">
        <ele>1237.4000244140625</ele>
        <time>2026-06-15T15:41:58.000Z</time>
        <extensions>
          <ns3:TrackPointExtension>
            <ns3:atemp>19.0</ns3:atemp>
          </ns3:TrackPointExtension>
        </extensions>
      </trkpt>
      <trkpt lat="42.60186650790274143218994140625" lon="19.9826328456401824951171875">
        <ele>1237.800048828125</ele>
        <time>2026-06-15T15:41:59.000Z</time>
        <extensions>
          <ns3:TrackPointExtension>
            <ns3:atemp>19.0</ns3:atemp>
          </ns3:TrackPointExtension>
        </extensions>
      </trkpt>
      <trkpt lat="42.60189249180257320404052734375" lon="19.98263577930629253387451171875">
        <ele>1238.199951171875</ele>
        <time>2026-06-15T15:42:00.000Z</time>
        <extensions>
          <ns3:TrackPointExtension>
            <ns3:atemp>19.0</ns3:atemp>
          </ns3:TrackPointExtension>
        </extensions>
      </trkpt>
      <trkpt lat="42.6019145362079143524169921875" lon="19.982643909752368927001953125">
        <ele>1238.4000244140625</ele>
        <time>2026-06-15T15:42:01.000Z</time>
        <extensions>
          <ns3:TrackPointExtension>
            <ns3:atemp>19.0</ns3:atemp>
          </ns3:TrackPointExtension>
        </extensions>
      </trkpt>
      <trkpt lat="42.60193389840424060821533203125" lon="19.98264868743717670440673828125">
        <ele>1238.5999755859375</ele>
        <time>2026-06-15T15:42:02.000Z</time>
        <extensions>
          <ns3:TrackPointExtension>
            <ns3:atemp>19.0</ns3:atemp>
          </ns3:TrackPointExtension>
        </extensions>
      </trkpt>
      <trkpt lat="42.601954601705074310302734375" lon="19.9826507829129695892333984375">
        <ele>1239</ele>
        <time>2026-06-15T15:42:03.000Z</time>
        <extensions>
          <ns3:TrackPointExtension>
            <ns3:atemp>19.0</ns3:atemp>
          </ns3:TrackPointExtension>
        </extensions>
      </trkpt>
      <trkpt lat="42.6019752211868762969970703125" lon="19.9826531298458576202392578125">
        <ele>1239.199951171875</ele>
        <time>2026-06-15T15:42:04.000Z</time>
        <extensions>
          <ns3:TrackPointExtension>
            <ns3:atemp>19.0</ns3:atemp>
          </ns3:TrackPointExtension>
        </extensions>
      </trkpt>
      <trkpt lat="42.60199625976383686065673828125" lon="19.98265254311263561248779296875">
        <ele>1239.5999755859375</ele>
        <time>2026-06-15T15:42:05.000Z</time>
        <extensions>
          <ns3:TrackPointExtension>
            <ns3:atemp>19.0</ns3:atemp>
          </ns3:TrackPointExtension>
        </extensions>
      </trkpt>
      <trkpt lat="42.602020315825939178466796875" lon="19.98265120200812816619873046875">
        <ele>1240.199951171875</ele>
        <time>2026-06-15T15:42:06.000Z</time>
        <extensions>
          <ns3:TrackPointExtension>
            <ns3:atemp>19.0</ns3:atemp>
          </ns3:TrackPointExtension>
        </extensions>
      </trkpt>
      <trkpt lat="42.60204269550740718841552734375" lon="19.98264667578041553497314453125">
        <ele>1240.5999755859375</ele>
        <time>2026-06-15T15:42:07.000Z</time>
        <extensions>
          <ns3:TrackPointExtension>
            <ns3:atemp>19.0</ns3:atemp>
          </ns3:TrackPointExtension>
        </extensions>
      </trkpt>
      <trkpt lat="42.60206180624663829803466796875" lon="19.98263460583984851837158203125">
        <ele>1240.800048828125</ele>
        <time>2026-06-15T15:42:08.000Z</time>
        <extensions>
          <ns3:TrackPointExtension>
            <ns3:atemp>19.0</ns3:atemp>
          </ns3:TrackPointExtension>
        </extensions>
      </trkpt>
      <trkpt lat="42.6020784862339496612548828125" lon="19.98261583037674427032470703125">
        <ele>1241.199951171875</ele>
        <time>2026-06-15T15:42:09.000Z</time>
        <extensions>
          <ns3:TrackPointExtension>
            <ns3:atemp>19.0</ns3:atemp>
          </ns3:TrackPointExtension>
        </extensions>
      </trkpt>
      <trkpt lat="42.60209332220256328582763671875" lon="19.98259537853300571441650390625">
        <ele>1241.4000244140625</ele>
        <time>2026-06-15T15:42:10.000Z</time>
        <extensions>
          <ns3:TrackPointExtension>
            <ns3:atemp>19.0</ns3:atemp>
          </ns3:TrackPointExtension>
        </extensions>
      </trkpt>
      <trkpt lat="42.60210740379989147186279296875" lon="19.982572160661220550537109375">
        <ele>1241.800048828125</ele>
        <time>2026-06-15T15:42:11.000Z</time>
        <extensions>
          <ns3:TrackPointExtension>
            <ns3:atemp>19.0</ns3:atemp>
          </ns3:TrackPointExtension>
        </extensions>
      </trkpt>
      <trkpt lat="42.60211662389338016510009765625" lon="19.9825434945523738861083984375">
        <ele>1242.199951171875</ele>
        <time>2026-06-15T15:42:12.000Z</time>
        <extensions>
          <ns3:TrackPointExtension>
            <ns3:atemp>19.0</ns3:atemp>
          </ns3:TrackPointExtension>
        </extensions>
      </trkpt>
      <trkpt lat="42.6021244190633296966552734375" lon="19.982513487339019775390625">
        <ele>1242.5999755859375</ele>
        <time>2026-06-15T15:42:13.000Z</time>
        <extensions>
          <ns3:TrackPointExtension>
            <ns3:atemp>19.0</ns3:atemp>
          </ns3:TrackPointExtension>
        </extensions>
      </trkpt>
      <trkpt lat="42.6021307893097400665283203125" lon="19.98247987590730190277099609375">
        <ele>1242.800048828125</ele>
        <time>2026-06-15T15:42:14.000Z</time>
        <extensions>
          <ns3:TrackPointExtension>
            <ns3:atemp>19.0</ns3:atemp>
          </ns3:TrackPointExtension>
        </extensions>
      </trkpt>
      <trkpt lat="42.60213674046099185943603515625" lon="19.98245087452232837677001953125">
        <ele>1243</ele>
        <time>2026-06-15T15:42:15.000Z</time>
        <extensions>
          <ns3:TrackPointExtension>
            <ns3:atemp>19.0</ns3:atemp>
          </ns3:TrackPointExtension>
        </extensions>
      </trkpt>
      <trkpt lat="42.602145373821258544921875" lon="19.98241432942450046539306640625">
        <ele>1243.199951171875</ele>
        <time>2026-06-15T15:42:16.000Z</time>
        <extensions>
          <ns3:TrackPointExtension>
            <ns3:atemp>19.0</ns3:atemp>
          </ns3:TrackPointExtension>
        </extensions>
      </trkpt>
      <trkpt lat="42.60215199552476406097412109375" lon="19.98236856423318386077880859375">
        <ele>1243.4000244140625</ele>
        <time>2026-06-15T15:42:17.000Z</time>
        <extensions>
          <ns3:TrackPointExtension>
            <ns3:atemp>19.0</ns3:atemp>
          </ns3:TrackPointExtension>
        </extensions>
      </trkpt>
      <trkpt lat="42.60215601883828639984130859375" lon="19.98231701552867889404296875">
        <ele>1243.4000244140625</ele>
        <time>2026-06-15T15:42:18.000Z</time>
        <extensions>
          <ns3:TrackPointExtension>
            <ns3:atemp>19.0</ns3:atemp>
          </ns3:TrackPointExtension>
        </extensions>
      </trkpt>
      <trkpt lat="42.602162472903728485107421875" lon="19.98226161114871501922607421875">
        <ele>1243.4000244140625</ele>
        <time>2026-06-15T15:42:19.000Z</time>
        <extensions>
          <ns3:TrackPointExtension>
            <ns3:atemp>19.0</ns3:atemp>
          </ns3:TrackPointExtension>
        </extensions>
      </trkpt>
      <trkpt lat="42.6021680049598217010498046875" lon="19.9822025187313556671142578125">
        <ele>1243.199951171875</ele>
        <time>2026-06-15T15:42:20.000Z</time>
        <extensions>
          <ns3:TrackPointExtension>
            <ns3:atemp>19.0</ns3:atemp>
          </ns3:TrackPointExtension>
        </extensions>
      </trkpt>
      <trkpt lat="42.60218116454780101776123046875" lon="19.982132948935031890869140625">
        <ele>1243</ele>
        <time>2026-06-15T15:42:21.000Z</time>
        <extensions>
          <ns3:TrackPointExtension>
            <ns3:atemp>19.0</ns3:atemp>
          </ns3:TrackPointExtension>
        </extensions>
      </trkpt>
      <trkpt lat="42.6021891273558139801025390625" lon="19.9820617027580738067626953125">
        <ele>1242.800048828125</ele>
        <time>2026-06-15T15:42:22.000Z</time>
        <extensions>
          <ns3:TrackPointExtension>
            <ns3:atemp>19.0</ns3:atemp>
          </ns3:TrackPointExtension>
        </extensions>
      </trkpt>
      <trkpt lat="42.6021921448409557342529296875" lon="19.98199045658111572265625">
        <ele>1242.5999755859375</ele>
        <time>2026-06-15T15:42:23.000Z</time>
        <extensions>
          <ns3:TrackPointExtension>
            <ns3:atemp>19.0</ns3:atemp>
          </ns3:TrackPointExtension>
        </extensions>
      </trkpt>
      <trkpt lat="42.60219088755548000335693359375" lon="19.9819185398519039154052734375">
        <ele>1242.199951171875</ele>
        <time>2026-06-15T15:42:24.000Z</time>
        <extensions>
          <ns3:TrackPointExtension>
            <ns3:atemp>19.0</ns3:atemp>
          </ns3:TrackPointExtension>
        </extensions>
      </trkpt>
      <trkpt lat="42.6021891273558139801025390625" lon="19.98185031116008758544921875">
        <ele>1242</ele>
        <time>2026-06-15T15:42:25.000Z</time>
        <extensions>
          <ns3:TrackPointExtension>
            <ns3:atemp>19.0</ns3:atemp>
          </ns3:TrackPointExtension>
        </extensions>
      </trkpt>
      <trkpt lat="42.60218770243227481842041015625" lon="19.98178820125758647918701171875">
        <ele>1242</ele>
        <time>2026-06-15T15:42:26.000Z</time>
        <extensions>
          <ns3:TrackPointExtension>
            <ns3:atemp>19.0</ns3:atemp>
          </ns3:TrackPointExtension>
        </extensions>
      </trkpt>
      <trkpt lat="42.60218560695648193359375" lon="19.9817244149744510650634765625">
        <ele>1242</ele>
        <time>2026-06-15T15:42:27.000Z</time>
        <extensions>
          <ns3:TrackPointExtension>
            <ns3:atemp>19.0</ns3:atemp>
          </ns3:TrackPointExtension>
        </extensions>
      </trkpt>
      <trkpt lat="42.60218015871942043304443359375" lon="19.9816647358238697052001953125">
        <ele>1242</ele>
        <time>2026-06-15T15:42:28.000Z</time>
        <extensions>
          <ns3:TrackPointExtension>
            <ns3:atemp>19.0</ns3:atemp>
          </ns3:TrackPointExtension>
        </extensions>
      </trkpt>
      <trkpt lat="42.60217211209237575531005859375" lon="19.98161025345325469970703125">
        <ele>1242</ele>
        <time>2026-06-15T15:42:29.000Z</time>
        <extensions>
          <ns3:TrackPointExtension>
            <ns3:atemp>19.0</ns3:atemp>
          </ns3:TrackPointExtension>
        </extensions>
      </trkpt>
      <trkpt lat="42.60216037742793560028076171875" lon="19.98155526816844940185546875">
        <ele>1242</ele>
        <time>2026-06-15T15:42:30.000Z</time>
        <extensions>
          <ns3:TrackPointExtension>
            <ns3:atemp>19.0</ns3:atemp>
          </ns3:TrackPointExtension>
        </extensions>
      </trkpt>
      <trkpt lat="42.6021418534219264984130859375" lon="19.9815074913203716278076171875">
        <ele>1242</ele>
        <time>2026-06-15T15:42:31.000Z</time>
        <extensions>
          <ns3:TrackPointExtension>
            <ns3:atemp>19.0</ns3:atemp>
          </ns3:TrackPointExtension>
        </extensions>
      </trkpt>
      <trkpt lat="42.60212399996817111968994140625" lon="19.981457032263278961181640625">
        <ele>1242</ele>
        <time>2026-06-15T15:42:32.000Z</time>
        <extensions>
          <ns3:TrackPointExtension>
            <ns3:atemp>19.0</ns3:atemp>
          </ns3:TrackPointExtension>
        </extensions>
      </trkpt>
      <trkpt lat="42.602102793753147125244140625" lon="19.98139877803623676300048828125">
        <ele>1241.800048828125</ele>
        <time>2026-06-15T15:42:33.000Z</time>
        <extensions>
          <ns3:TrackPointExtension>
            <ns3:atemp>19.0</ns3:atemp>
          </ns3:TrackPointExtension>
        </extensions>
      </trkpt>
      <trkpt lat="42.60209298692643642425537109375" lon="19.981331638991832733154296875">
        <ele>1241.800048828125</ele>
        <time>2026-06-15T15:42:34.000Z</time>
        <extensions>
          <ns3:TrackPointExtension>
            <ns3:atemp>19.0</ns3:atemp>
          </ns3:TrackPointExtension>
        </extensions>
      </trkpt>
      <trkpt lat="42.602083347737789154052734375" lon="19.9812634103000164031982421875">
        <ele>1241.5999755859375</ele>
        <time>2026-06-15T15:42:35.000Z</time>
        <extensions>
          <ns3:TrackPointExtension>
            <ns3:atemp>19.0</ns3:atemp>
          </ns3:TrackPointExtension>
        </extensions>
      </trkpt>
      <trkpt lat="42.60208007879555225372314453125" lon="19.98118587769567966461181640625">
        <ele>1241</ele>
        <time>2026-06-15T15:42:36.000Z</time>
        <extensions>
          <ns3:TrackPointExtension>
            <ns3:atemp>19.0</ns3:atemp>
          </ns3:TrackPointExtension>
        </extensions>
      </trkpt>
      <trkpt lat="42.6020975969731807708740234375" lon="19.9810957722365856170654296875">
        <ele>1240.4000244140625</ele>
        <time>2026-06-15T15:42:37.000Z</time>
        <extensions>
          <ns3:TrackPointExtension>
            <ns3:atemp>19.0</ns3:atemp>
          </ns3:TrackPointExtension>
        </extensions>
      </trkpt>
      <trkpt lat="42.60212416760623455047607421875" lon="19.98099678196012973785400390625">
        <ele>1240</ele>
        <time>2026-06-15T15:42:38.000Z</time>
        <extensions>
          <ns3:TrackPointExtension>
            <ns3:atemp>19.0</ns3:atemp>
          </ns3:TrackPointExtension>
        </extensions>
      </trkpt>
      <trkpt lat="42.6021502353250980377197265625" lon="19.98089586384594440460205078125">
        <ele>1239</ele>
        <time>2026-06-15T15:42:39.000Z</time>
        <extensions>
          <ns3:TrackPointExtension>
            <ns3:atemp>19.0</ns3:atemp>
          </ns3:TrackPointExtension>
        </extensions>
      </trkpt>
      <trkpt lat="42.60218250565230846405029296875" lon="19.98079863376915454864501953125">
        <ele>1238.199951171875</ele>
        <time>2026-06-15T15:42:40.000Z</time>
        <extensions>
          <ns3:TrackPointExtension>
            <ns3:atemp>19.0</ns3:atemp>
          </ns3:TrackPointExtension>
        </extensions>
      </trkpt>
      <trkpt lat="42.6022172905504703521728515625" lon="19.98069838620722293853759765625">
        <ele>1237.5999755859375</ele>
        <time>2026-06-15T15:42:41.000Z</time>
        <extensions>
          <ns3:TrackPointExtension>
            <ns3:atemp>19.0</ns3:atemp>
          </ns3:TrackPointExtension>
        </extensions>
      </trkpt>
      <trkpt lat="42.6022625528275966644287109375" lon="19.9806118011474609375">
        <ele>1236.5999755859375</ele>
        <time>2026-06-15T15:42:42.000Z</time>
        <extensions>
          <ns3:TrackPointExtension>
            <ns3:atemp>19.0</ns3:atemp>
          </ns3:TrackPointExtension>
        </extensions>
      </trkpt>
      <trkpt lat="42.60231326334178447723388671875" lon="19.9805264733731746673583984375">
        <ele>1235.800048828125</ele>
        <time>2026-06-15T15:42:43.000Z</time>
        <extensions>
          <ns3:TrackPointExtension>
            <ns3:atemp>19.0</ns3:atemp>
          </ns3:TrackPointExtension>
        </extensions>
      </trkpt>
      <trkpt lat="42.60235735215246677398681640625" lon="19.980449192225933074951171875">
        <ele>1235</ele>
        <time>2026-06-15T15:42:44.000Z</time>
        <extensions>
          <ns3:TrackPointExtension>
            <ns3:atemp>19.0</ns3:atemp>
          </ns3:TrackPointExtension>
        </extensions>
      </trkpt>
      <trkpt lat="42.60239255614578723907470703125" lon="19.9803692288696765899658203125">
        <ele>1234.4000244140625</ele>
        <time>2026-06-15T15:42:45.000Z</time>
        <extensions>
          <ns3:TrackPointExtension>
            <ns3:atemp>19.0</ns3:atemp>
          </ns3:TrackPointExtension>
        </extensions>
      </trkpt>
      <trkpt lat="42.6024140976369380950927734375" lon="19.980278201401233673095703125">
        <ele>1234</ele>
        <time>2026-06-15T15:42:46.000Z</time>
        <extensions>
          <ns3:TrackPointExtension>
            <ns3:atemp>19.0</ns3:atemp>
          </ns3:TrackPointExtension>
        </extensions>
      </trkpt>
      <trkpt lat="42.60242574848234653472900390625" lon="19.9801831506192684173583984375">
        <ele>1233.5999755859375</ele>
        <time>2026-06-15T15:42:47.000Z</time>
        <extensions>
          <ns3:TrackPointExtension>
            <ns3:atemp>19.0</ns3:atemp>
          </ns3:TrackPointExtension>
        </extensions>
      </trkpt>
      <trkpt lat="42.6024315319955348968505859375" lon="19.9801100604236125946044921875">
        <ele>1233.199951171875</ele>
        <time>2026-06-15T15:42:48.000Z</time>
        <extensions>
          <ns3:TrackPointExtension>
            <ns3:atemp>19.0</ns3:atemp>
          </ns3:TrackPointExtension>
        </extensions>
      </trkpt>
      <trkpt lat="42.6024375669658184051513671875" lon="19.98006622307002544403076171875">
        <ele>1233</ele>
        <time>2026-06-15T15:42:49.000Z</time>
        <extensions>
          <ns3:TrackPointExtension>
            <ns3:atemp>19.0</ns3:atemp>
          </ns3:TrackPointExtension>
        </extensions>
      </trkpt>
      <trkpt lat="42.6024389080703258514404296875" lon="19.98002146370708942413330078125">
        <ele>1232.5999755859375</ele>
        <time>2026-06-15T15:42:50.000Z</time>
        <extensions>
          <ns3:TrackPointExtension>
            <ns3:atemp>19.0</ns3:atemp>
          </ns3:TrackPointExtension>
        </extensions>
      </trkpt>
      <trkpt lat="42.60243865661323070526123046875" lon="19.97997972182929515838623046875">
        <ele>1232.4000244140625</ele>
        <time>2026-06-15T15:42:51.000Z</time>
        <extensions>
          <ns3:TrackPointExtension>
            <ns3:atemp>19.0</ns3:atemp>
          </ns3:TrackPointExtension>
        </extensions>
      </trkpt>
      <trkpt lat="42.60243698023259639739990234375" lon="19.97991467826068401336669921875">
        <ele>1232</ele>
        <time>2026-06-15T15:42:52.000Z</time>
        <extensions>
          <ns3:TrackPointExtension>
            <ns3:atemp>19.0</ns3:atemp>
          </ns3:TrackPointExtension>
        </extensions>
      </trkpt>
      <trkpt lat="42.6024395786225795745849609375" lon="19.97985064052045345306396484375">
        <ele>1231.5999755859375</ele>
        <time>2026-06-15T15:42:53.000Z</time>
        <extensions>
          <ns3:TrackPointExtension>
            <ns3:atemp>19.0</ns3:atemp>
          </ns3:TrackPointExtension>
        </extensions>
      </trkpt>
      <trkpt lat="42.602451480925083160400390625" lon="19.9797751195728778839111328125">
        <ele>1231.199951171875</ele>
        <time>2026-06-15T15:42:54.000Z</time>
        <extensions>
          <ns3:TrackPointExtension>
            <ns3:atemp>19.0</ns3:atemp>
          </ns3:TrackPointExtension>
        </extensions>
      </trkpt>
      <trkpt lat="42.60247972793877124786376953125" lon="19.97969674877822399139404296875">
        <ele>1230.4000244140625</ele>
        <time>2026-06-15T15:42:55.000Z</time>
        <extensions>
          <ns3:TrackPointExtension>
            <ns3:atemp>19.0</ns3:atemp>
          </ns3:TrackPointExtension>
        </extensions>
      </trkpt>
      <trkpt lat="42.60251996107399463653564453125" lon="19.9796118400990962982177734375">
        <ele>1229.5999755859375</ele>
        <time>2026-06-15T15:42:56.000Z</time>
        <extensions>
          <ns3:TrackPointExtension>
            <ns3:atemp>19.0</ns3:atemp>
          </ns3:TrackPointExtension>
        </extensions>
      </trkpt>
      <trkpt lat="42.6025696657598018646240234375" lon="19.9795263446867465972900390625">
        <ele>1228.5999755859375</ele>
        <time>2026-06-15T15:42:57.000Z</time>
        <extensions>
          <ns3:TrackPointExtension>
            <ns3:atemp>19.0</ns3:atemp>
          </ns3:TrackPointExtension>
        </extensions>
      </trkpt>
      <trkpt lat="42.60262674652040004730224609375" lon="19.9794485606253147125244140625">
        <ele>1227.5999755859375</ele>
        <time>2026-06-15T15:42:58.000Z</time>
        <extensions>
          <ns3:TrackPointExtension>
            <ns3:atemp>19.0</ns3:atemp>
          </ns3:TrackPointExtension>
        </extensions>
      </trkpt>
      <trkpt lat="42.60268541984260082244873046875" lon="19.9793737940490245819091796875">
        <ele>1226.800048828125</ele>
        <time>2026-06-15T15:42:59.000Z</time>
        <extensions>
          <ns3:TrackPointExtension>
            <ns3:atemp>19.0</ns3:atemp>
          </ns3:TrackPointExtension>
        </extensions>
      </trkpt>
      <trkpt lat="42.60274409316480159759521484375" lon="19.979316629469394683837890625">
        <ele>1226</ele>
        <time>2026-06-15T15:43:00.000Z</time>
        <extensions>
          <ns3:TrackPointExtension>
            <ns3:atemp>19.0</ns3:atemp>
          </ns3:TrackPointExtension>
        </extensions>
      </trkpt>
      <trkpt lat="42.6028043590486049652099609375" lon="19.97927212156355381011962890625">
        <ele>1225.199951171875</ele>
        <time>2026-06-15T15:43:01.000Z</time>
        <extensions>
          <ns3:TrackPointExtension>
            <ns3:atemp>19.0</ns3:atemp>
          </ns3:TrackPointExtension>
        </extensions>
      </trkpt>
      <trkpt lat="42.6028667204082012176513671875" lon="19.9792413599789142608642578125">
        <ele>1224.5999755859375</ele>
        <time>2026-06-15T15:43:02.000Z</time>
        <extensions>
          <ns3:TrackPointExtension>
            <ns3:atemp>19.0</ns3:atemp>
          </ns3:TrackPointExtension>
        </extensions>
      </trkpt>
      <trkpt lat="42.6029320992529392242431640625" lon="19.979215376079082489013671875">
        <ele>1223.800048828125</ele>
        <time>2026-06-15T15:43:03.000Z</time>
        <extensions>
          <ns3:TrackPointExtension>
            <ns3:atemp>19.0</ns3:atemp>
          </ns3:TrackPointExtension>
        </extensions>
      </trkpt>
      <trkpt lat="42.60299605317413806915283203125" lon="19.9791793338954448699951171875">
        <ele>1223.199951171875</ele>
        <time>2026-06-15T15:43:04.000Z</time>
        <extensions>
          <ns3:TrackPointExtension>
            <ns3:atemp>19.0</ns3:atemp>
          </ns3:TrackPointExtension>
        </extensions>
      </trkpt>
      <trkpt lat="42.60304969735443592071533203125" lon="19.9791406095027923583984375">
        <ele>1222.800048828125</ele>
        <time>2026-06-15T15:43:05.000Z</time>
        <extensions>
          <ns3:TrackPointExtension>
            <ns3:atemp>19.0</ns3:atemp>
          </ns3:TrackPointExtension>
        </extensions>
      </trkpt>
      <trkpt lat="42.60310065932571887969970703125" lon="19.97909878380596637725830078125">
        <ele>1222.4000244140625</ele>
        <time>2026-06-15T15:43:06.000Z</time>
        <extensions>
          <ns3:TrackPointExtension>
            <ns3:atemp>19.0</ns3:atemp>
          </ns3:TrackPointExtension>
        </extensions>
      </trkpt>
      <trkpt lat="42.60315631516277790069580078125" lon="19.97905544936656951904296875">
        <ele>1222</ele>
        <time>2026-06-15T15:43:07.000Z</time>
        <extensions>
          <ns3:TrackPointExtension>
            <ns3:atemp>19.0</ns3:atemp>
          </ns3:TrackPointExtension>
        </extensions>
      </trkpt>
      <trkpt lat="42.60321062989532947540283203125" lon="19.97901580296456813812255859375">
        <ele>1221.5999755859375</ele>
        <time>2026-06-15T15:43:08.000Z</time>
        <extensions>
          <ns3:TrackPointExtension>
            <ns3:atemp>19.0</ns3:atemp>
          </ns3:TrackPointExtension>
        </extensions>
      </trkpt>
      <trkpt lat="42.603264860808849334716796875" lon="19.978975988924503326416015625">
        <ele>1221.199951171875</ele>
        <time>2026-06-15T15:43:09.000Z</time>
        <extensions>
          <ns3:TrackPointExtension>
            <ns3:atemp>19.0</ns3:atemp>
          </ns3:TrackPointExtension>
        </extensions>
      </trkpt>
      <trkpt lat="42.60331741534173488616943359375" lon="19.9789412878453731536865234375">
        <ele>1221</ele>
        <time>2026-06-15T15:43:10.000Z</time>
        <extensions>
          <ns3:TrackPointExtension>
            <ns3:atemp>19.0</ns3:atemp>
          </ns3:TrackPointExtension>
        </extensions>
      </trkpt>
      <trkpt lat="42.603368461132049560546875" lon="19.9789064191281795501708984375">
        <ele>1221</ele>
        <time>2026-06-15T15:43:11.000Z</time>
        <extensions>
          <ns3:TrackPointExtension>
            <ns3:atemp>19.0</ns3:atemp>
          </ns3:TrackPointExtension>
        </extensions>
      </trkpt>
      <trkpt lat="42.6034172438085079193115234375" lon="19.978873394429683685302734375">
        <ele>1220.800048828125</ele>
        <time>2026-06-15T15:43:12.000Z</time>
        <extensions>
          <ns3:TrackPointExtension>
            <ns3:atemp>19.0</ns3:atemp>
          </ns3:TrackPointExtension>
        </extensions>
      </trkpt>
      <trkpt lat="42.60346124880015850067138671875" lon="19.97884355485439300537109375">
        <ele>1220.800048828125</ele>
        <time>2026-06-15T15:43:13.000Z</time>
        <extensions>
          <ns3:TrackPointExtension>
            <ns3:atemp>19.0</ns3:atemp>
          </ns3:TrackPointExtension>
        </extensions>
      </trkpt>
      <trkpt lat="42.60350718162953853607177734375" lon="19.9788185767829418182373046875">
        <ele>1220.800048828125</ele>
        <time>2026-06-15T15:43:14.000Z</time>
        <extensions>
          <ns3:TrackPointExtension>
            <ns3:atemp>19.0</ns3:atemp>
          </ns3:TrackPointExtension>
        </extensions>
      </trkpt>
      <trkpt lat="42.6035526953637599945068359375" lon="19.97879217378795146942138671875">
        <ele>1220.800048828125</ele>
        <time>2026-06-15T15:43:15.000Z</time>
        <extensions>
          <ns3:TrackPointExtension>
            <ns3:atemp>19.0</ns3:atemp>
          </ns3:TrackPointExtension>
        </extensions>
      </trkpt>
      <trkpt lat="42.60360516607761383056640625" lon="19.97876283712685108184814453125">
        <ele>1220.800048828125</ele>
        <time>2026-06-15T15:43:16.000Z</time>
        <extensions>
          <ns3:TrackPointExtension>
            <ns3:atemp>19.0</ns3:atemp>
          </ns3:TrackPointExtension>
        </extensions>
      </trkpt>
      <trkpt lat="42.60366375558078289031982421875" lon="19.978739283978939056396484375">
        <ele>1220.800048828125</ele>
        <time>2026-06-15T15:43:17.000Z</time>
        <extensions>
          <ns3:TrackPointExtension>
            <ns3:atemp>19.0</ns3:atemp>
          </ns3:TrackPointExtension>
        </extensions>
      </trkpt>
      <trkpt lat="42.6037230156362056732177734375" lon="19.97871908359229564666748046875">
        <ele>1220.800048828125</ele>
        <time>2026-06-15T15:43:18.000Z</time>
        <extensions>
          <ns3:TrackPointExtension>
            <ns3:atemp>19.0</ns3:atemp>
          </ns3:TrackPointExtension>
        </extensions>
      </trkpt>
      <trkpt lat="42.6037840358912944793701171875" lon="19.97870315797626972198486328125">
        <ele>1220.5999755859375</ele>
        <time>2026-06-15T15:43:19.000Z</time>
        <extensions>
          <ns3:TrackPointExtension>
            <ns3:atemp>19.0</ns3:atemp>
          </ns3:TrackPointExtension>
        </extensions>
      </trkpt>
      <trkpt lat="42.6038437150418758392333984375" lon="19.97869762592017650604248046875">
        <ele>1220.5999755859375</ele>
        <time>2026-06-15T15:43:20.000Z</time>
        <extensions>
          <ns3:TrackPointExtension>
            <ns3:atemp>19.0</ns3:atemp>
          </ns3:TrackPointExtension>
        </extensions>
      </trkpt>
      <trkpt lat="42.603904567658901214599609375" lon="19.97869226150214672088623046875">
        <ele>1220.4000244140625</ele>
        <time>2026-06-15T15:43:21.000Z</time>
        <extensions>
          <ns3:TrackPointExtension>
            <ns3:atemp>19.0</ns3:atemp>
          </ns3:TrackPointExtension>
        </extensions>
      </trkpt>
      <trkpt lat="42.6039607264101505279541015625" lon="19.97868907637894153594970703125">
        <ele>1220.4000244140625</ele>
        <time>2026-06-15T15:43:22.000Z</time>
        <extensions>
          <ns3:TrackPointExtension>
            <ns3:atemp>19.0</ns3:atemp>
          </ns3:TrackPointExtension>
        </extensions>
      </trkpt>
      <trkpt lat="42.60401512496173381805419921875" lon="19.97868253849446773529052734375">
        <ele>1220.199951171875</ele>
        <time>2026-06-15T15:43:23.000Z</time>
        <extensions>
          <ns3:TrackPointExtension>
            <ns3:atemp>19.0</ns3:atemp>
          </ns3:TrackPointExtension>
        </extensions>
      </trkpt>
      <trkpt lat="42.6040609739720821380615234375" lon="19.9786723963916301727294921875">
        <ele>1220.199951171875</ele>
        <time>2026-06-15T15:43:24.000Z</time>
        <extensions>
          <ns3:TrackPointExtension>
            <ns3:atemp>19.0</ns3:atemp>
          </ns3:TrackPointExtension>
        </extensions>
      </trkpt>
      <trkpt lat="42.60410531423985958099365234375" lon="19.9786583147943019866943359375">
        <ele>1220</ele>
        <time>2026-06-15T15:43:25.000Z</time>
        <extensions>
          <ns3:TrackPointExtension>
            <ns3:atemp>19.0</ns3:atemp>
          </ns3:TrackPointExtension>
        </extensions>
      </trkpt>
      <trkpt lat="42.60415443219244480133056640625" lon="19.97863559983670711517333984375">
        <ele>1220.199951171875</ele>
        <time>2026-06-15T15:43:26.000Z</time>
        <extensions>
          <ns3:TrackPointExtension>
            <ns3:atemp>19.0</ns3:atemp>
          </ns3:TrackPointExtension>
        </extensions>
      </trkpt>
      <trkpt lat="42.60420539416372776031494140625" lon="19.978607855737209320068359375">
        <ele>1220</ele>
        <time>2026-06-15T15:43:27.000Z</time>
        <extensions>
          <ns3:TrackPointExtension>
            <ns3:atemp>19.0</ns3:atemp>
          </ns3:TrackPointExtension>
        </extensions>
      </trkpt>
      <trkpt lat="42.60425099171698093414306640625" lon="19.97857977636158466339111328125">
        <ele>1220</ele>
        <time>2026-06-15T15:43:28.000Z</time>
        <extensions>
          <ns3:TrackPointExtension>
            <ns3:atemp>19.0</ns3:atemp>
          </ns3:TrackPointExtension>
        </extensions>
      </trkpt>
      <trkpt lat="42.6042996905744075775146484375" lon="19.97856167145073413848876953125">
        <ele>1220</ele>
        <time>2026-06-15T15:43:29.000Z</time>
        <extensions>
          <ns3:TrackPointExtension>
            <ns3:atemp>19.0</ns3:atemp>
          </ns3:TrackPointExtension>
        </extensions>
      </trkpt>
      <trkpt lat="42.60434947907924652099609375" lon="19.97854658402502536773681640625">
        <ele>1219.800048828125</ele>
        <time>2026-06-15T15:43:30.000Z</time>
        <extensions>
          <ns3:TrackPointExtension>
            <ns3:atemp>19.0</ns3:atemp>
          </ns3:TrackPointExtension>
        </extensions>
      </trkpt>
      <trkpt lat="42.6044024527072906494140625" lon="19.9785295687615871429443359375">
        <ele>1219.5999755859375</ele>
        <time>2026-06-15T15:43:31.000Z</time>
        <extensions>
          <ns3:TrackPointExtension>
            <ns3:atemp>19.0</ns3:atemp>
          </ns3:TrackPointExtension>
        </extensions>
      </trkpt>
      <trkpt lat="42.6044589467346668243408203125" lon="19.97851506806910037994384765625">
        <ele>1219</ele>
        <time>2026-06-15T15:43:32.000Z</time>
        <extensions>
          <ns3:TrackPointExtension>
            <ns3:atemp>19.0</ns3:atemp>
          </ns3:TrackPointExtension>
        </extensions>
      </trkpt>
      <trkpt lat="42.6045204699039459228515625" lon="19.97850031591951847076416015625">
        <ele>1218.5999755859375</ele>
        <time>2026-06-15T15:43:33.000Z</time>
        <extensions>
          <ns3:TrackPointExtension>
            <ns3:atemp>19.0</ns3:atemp>
          </ns3:TrackPointExtension>
        </extensions>
      </trkpt>
      <trkpt lat="42.60458509437739849090576171875" lon="19.97848170809447765350341796875">
        <ele>1217.800048828125</ele>
        <time>2026-06-15T15:43:34.000Z</time>
        <extensions>
          <ns3:TrackPointExtension>
            <ns3:atemp>19.0</ns3:atemp>
          </ns3:TrackPointExtension>
        </extensions>
      </trkpt>
      <trkpt lat="42.604646198451519012451171875" lon="19.97845689766108989715576171875">
        <ele>1216.800048828125</ele>
        <time>2026-06-15T15:43:35.000Z</time>
        <extensions>
          <ns3:TrackPointExtension>
            <ns3:atemp>19.0</ns3:atemp>
          </ns3:TrackPointExtension>
        </extensions>
      </trkpt>
      <trkpt lat="42.60470914654433727264404296875" lon="19.97842621989548206329345703125">
        <ele>1216.199951171875</ele>
        <time>2026-06-15T15:43:36.000Z</time>
        <extensions>
          <ns3:TrackPointExtension>
            <ns3:atemp>19.0</ns3:atemp>
          </ns3:TrackPointExtension>
        </extensions>
      </trkpt>
      <trkpt lat="42.604768238961696624755859375" lon="19.9783971346914768218994140625">
        <ele>1215.4000244140625</ele>
        <time>2026-06-15T15:43:37.000Z</time>
        <extensions>
          <ns3:TrackPointExtension>
            <ns3:atemp>19.0</ns3:atemp>
          </ns3:TrackPointExtension>
        </extensions>
      </trkpt>
      <trkpt lat="42.604826577007770538330078125" lon="19.97836821712553501129150390625">
        <ele>1214.5999755859375</ele>
        <time>2026-06-15T15:43:38.000Z</time>
        <extensions>
          <ns3:TrackPointExtension>
            <ns3:atemp>19.0</ns3:atemp>
          </ns3:TrackPointExtension>
        </extensions>
      </trkpt>
      <trkpt lat="42.60488449595868587493896484375" lon="19.97833519242703914642333984375">
        <ele>1213.800048828125</ele>
        <time>2026-06-15T15:43:39.000Z</time>
        <extensions>
          <ns3:TrackPointExtension>
            <ns3:atemp>19.0</ns3:atemp>
          </ns3:TrackPointExtension>
        </extensions>
      </trkpt>
      <trkpt lat="42.60494383983314037322998046875" lon="19.97829864732921123504638671875">
        <ele>1213.199951171875</ele>
        <time>2026-06-15T15:43:40.000Z</time>
        <extensions>
          <ns3:TrackPointExtension>
            <ns3:atemp>19.0</ns3:atemp>
          </ns3:TrackPointExtension>
        </extensions>
      </trkpt>
      <trkpt lat="42.60499698109924793243408203125" lon="19.9782569892704486846923828125">
        <ele>1212.199951171875</ele>
        <time>2026-06-15T15:43:41.000Z</time>
        <extensions>
          <ns3:TrackPointExtension>
            <ns3:atemp>19.0</ns3:atemp>
          </ns3:TrackPointExtension>
        </extensions>
      </trkpt>
      <trkpt lat="42.60504224337637424468994140625" lon="19.9782083742320537567138671875">
        <ele>1211.4000244140625</ele>
        <time>2026-06-15T15:43:42.000Z</time>
        <extensions>
          <ns3:TrackPointExtension>
            <ns3:atemp>19.0</ns3:atemp>
          </ns3:TrackPointExtension>
        </extensions>
      </trkpt>
      <trkpt lat="42.6050778664648532867431640625" lon="19.978161267936229705810546875">
        <ele>1210.5999755859375</ele>
        <time>2026-06-15T15:43:43.000Z</time>
        <extensions>
          <ns3:TrackPointExtension>
            <ns3:atemp>19.0</ns3:atemp>
          </ns3:TrackPointExtension>
        </extensions>
      </trkpt>
      <trkpt lat="42.605104856193065643310546875" lon="19.9781087972223758697509765625">
        <ele>1209.800048828125</ele>
        <time>2026-06-15T15:43:44.000Z</time>
        <extensions>
          <ns3:TrackPointExtension>
            <ns3:atemp>19.0</ns3:atemp>
          </ns3:TrackPointExtension>
        </extensions>
      </trkpt>
      <trkpt lat="42.605122625827789306640625" lon="19.97804517857730388641357421875">
        <ele>1209.199951171875</ele>
        <time>2026-06-15T15:43:45.000Z</time>
        <extensions>
          <ns3:TrackPointExtension>
            <ns3:atemp>19.0</ns3:atemp>
          </ns3:TrackPointExtension>
        </extensions>
      </trkpt>
      <trkpt lat="42.6051496155560016632080078125" lon="19.97797477059066295623779296875">
        <ele>1208.5999755859375</ele>
        <time>2026-06-15T15:43:46.000Z</time>
        <extensions>
          <ns3:TrackPointExtension>
            <ns3:atemp>19.0</ns3:atemp>
          </ns3:TrackPointExtension>
        </extensions>
      </trkpt>
      <trkpt lat="42.60517652146518230438232421875" lon="19.97789329849183559417724609375">
        <ele>1207.800048828125</ele>
        <time>2026-06-15T15:43:47.000Z</time>
        <extensions>
          <ns3:TrackPointExtension>
            <ns3:atemp>19.0</ns3:atemp>
          </ns3:TrackPointExtension>
        </extensions>
      </trkpt>
      <trkpt lat="42.60521625168621540069580078125" lon="19.9777990020811557769775390625">
        <ele>1207</ele>
        <time>2026-06-15T15:43:48.000Z</time>
        <extensions>
          <ns3:TrackPointExtension>
            <ns3:atemp>19.0</ns3:atemp>
          </ns3:TrackPointExtension>
        </extensions>
      </trkpt>
      <trkpt lat="42.605269812047481536865234375" lon="19.97770495712757110595703125">
        <ele>1205.800048828125</ele>
        <time>2026-06-15T15:43:49.000Z</time>
        <extensions>
          <ns3:TrackPointExtension>
            <ns3:atemp>19.0</ns3:atemp>
          </ns3:TrackPointExtension>
        </extensions>
      </trkpt>
      <trkpt lat="42.60532177984714508056640625" lon="19.97762088663876056671142578125">
        <ele>1204.800048828125</ele>
        <time>2026-06-15T15:43:50.000Z</time>
        <extensions>
          <ns3:TrackPointExtension>
            <ns3:atemp>19.0</ns3:atemp>
          </ns3:TrackPointExtension>
        </extensions>
      </trkpt>
      <trkpt lat="42.60538355447351932525634765625" lon="19.97755249030888080596923828125">
        <ele>1203.800048828125</ele>
        <time>2026-06-15T15:43:51.000Z</time>
        <extensions>
          <ns3:TrackPointExtension>
            <ns3:atemp>19.0</ns3:atemp>
          </ns3:TrackPointExtension>
        </extensions>
      </trkpt>
      <trkpt lat="42.605450861155986785888671875" lon="19.9774964153766632080078125">
        <ele>1202.800048828125</ele>
        <time>2026-06-15T15:43:52.000Z</time>
        <extensions>
          <ns3:TrackPointExtension>
            <ns3:atemp>19.0</ns3:atemp>
          </ns3:TrackPointExtension>
        </extensions>
      </trkpt>
      <trkpt lat="42.60551624000072479248046875" lon="19.9774486385285854339599609375">
        <ele>1201.800048828125</ele>
        <time>2026-06-15T15:43:53.000Z</time>
        <extensions>
          <ns3:TrackPointExtension>
            <ns3:atemp>19.0</ns3:atemp>
          </ns3:TrackPointExtension>
        </extensions>
      </trkpt>
      <trkpt lat="42.605578936636447906494140625" lon="19.9774052202701568603515625">
        <ele>1201.199951171875</ele>
        <time>2026-06-15T15:43:54.000Z</time>
        <extensions>
          <ns3:TrackPointExtension>
            <ns3:atemp>19.0</ns3:atemp>
          </ns3:TrackPointExtension>
        </extensions>
      </trkpt>
      <trkpt lat="42.6056421361863613128662109375" lon="19.977365992963314056396484375">
        <ele>1200.5999755859375</ele>
        <time>2026-06-15T15:43:55.000Z</time>
        <extensions>
          <ns3:TrackPointExtension>
            <ns3:atemp>19.0</ns3:atemp>
          </ns3:TrackPointExtension>
        </extensions>
      </trkpt>
      <trkpt lat="42.60570525191724300384521484375" lon="19.97733749449253082275390625">
        <ele>1200</ele>
        <time>2026-06-15T15:43:56.000Z</time>
        <extensions>
          <ns3:TrackPointExtension>
            <ns3:atemp>19.0</ns3:atemp>
          </ns3:TrackPointExtension>
        </extensions>
      </trkpt>
      <trkpt lat="42.60576568543910980224609375" lon="19.977306984364986419677734375">
        <ele>1199.800048828125</ele>
        <time>2026-06-15T15:43:57.000Z</time>
        <extensions>
          <ns3:TrackPointExtension>
            <ns3:atemp>19.0</ns3:atemp>
          </ns3:TrackPointExtension>
        </extensions>
      </trkpt>
      <trkpt lat="42.60582343675196170806884765625" lon="19.9772843532264232635498046875">
        <ele>1199.5999755859375</ele>
        <time>2026-06-15T15:43:58.000Z</time>
        <extensions>
          <ns3:TrackPointExtension>
            <ns3:atemp>19.0</ns3:atemp>
          </ns3:TrackPointExtension>
        </extensions>
      </trkpt>
      <trkpt lat="42.6058778353035449981689453125" lon="19.9772550165653228759765625">
        <ele>1199.4000244140625</ele>
        <time>2026-06-15T15:43:59.000Z</time>
        <extensions>
          <ns3:TrackPointExtension>
            <ns3:atemp>19.0</ns3:atemp>
          </ns3:TrackPointExtension>
        </extensions>
      </trkpt>
      <trkpt lat="42.60593198239803314208984375" lon="19.9772253446280956268310546875">
        <ele>1199.4000244140625</ele>
        <time>2026-06-15T15:44:00.000Z</time>
        <extensions>
          <ns3:TrackPointExtension>
            <ns3:atemp>19.0</ns3:atemp>
          </ns3:TrackPointExtension>
        </extensions>
      </trkpt>
      <trkpt lat="42.6059857942163944244384765625" lon="19.97720262967050075531005859375">
        <ele>1199.4000244140625</ele>
        <time>2026-06-15T15:44:01.000Z</time>
        <extensions>
          <ns3:TrackPointExtension>
            <ns3:atemp>19.0</ns3:atemp>
          </ns3:TrackPointExtension>
        </extensions>
      </trkpt>
      <trkpt lat="42.60604036040604114532470703125" lon="19.9771794117987155914306640625">
        <ele>1199.199951171875</ele>
        <time>2026-06-15T15:44:02.000Z</time>
        <extensions>
          <ns3:TrackPointExtension>
            <ns3:atemp>19.0</ns3:atemp>
          </ns3:TrackPointExtension>
        </extensions>
      </trkpt>
      <trkpt lat="42.60609425604343414306640625" lon="19.9771584570407867431640625">
        <ele>1199</ele>
        <time>2026-06-15T15:44:03.000Z</time>
        <extensions>
          <ns3:TrackPointExtension>
            <ns3:atemp>19.0</ns3:atemp>
          </ns3:TrackPointExtension>
        </extensions>
      </trkpt>
      <trkpt lat="42.606146223843097686767578125" lon="19.977135993540287017822265625">
        <ele>1199</ele>
        <time>2026-06-15T15:44:04.000Z</time>
        <extensions>
          <ns3:TrackPointExtension>
            <ns3:atemp>19.0</ns3:atemp>
          </ns3:TrackPointExtension>
        </extensions>
      </trkpt>
      <trkpt lat="42.60619626380503177642822265625" lon="19.9771113507449626922607421875">
        <ele>1198.800048828125</ele>
        <time>2026-06-15T15:44:05.000Z</time>
        <extensions>
          <ns3:TrackPointExtension>
            <ns3:atemp>19.0</ns3:atemp>
          </ns3:TrackPointExtension>
        </extensions>
      </trkpt>
      <trkpt lat="42.606240771710872650146484375" lon="19.97708125971257686614990234375">
        <ele>1198.5999755859375</ele>
        <time>2026-06-15T15:44:06.000Z</time>
        <extensions>
          <ns3:TrackPointExtension>
            <ns3:atemp>19.0</ns3:atemp>
          </ns3:TrackPointExtension>
        </extensions>
      </trkpt>
      <trkpt lat="42.60627974756062030792236328125" lon="19.97704387642443180084228515625">
        <ele>1198.4000244140625</ele>
        <time>2026-06-15T15:44:07.000Z</time>
        <extensions>
          <ns3:TrackPointExtension>
            <ns3:atemp>19.0</ns3:atemp>
          </ns3:TrackPointExtension>
        </extensions>
      </trkpt>
      <trkpt lat="42.60631143115460872650146484375" lon="19.9770030565559864044189453125">
        <ele>1198.4000244140625</ele>
        <time>2026-06-15T15:44:08.000Z</time>
        <extensions>
          <ns3:TrackPointExtension>
            <ns3:atemp>19.0</ns3:atemp>
          </ns3:TrackPointExtension>
        </extensions>
      </trkpt>
      <trkpt lat="42.60634194128215312957763671875" lon="19.9769601412117481231689453125">
        <ele>1198.199951171875</ele>
        <time>2026-06-15T15:44:09.000Z</time>
        <extensions>
          <ns3:TrackPointExtension>
            <ns3:atemp>19.0</ns3:atemp>
          </ns3:TrackPointExtension>
        </extensions>
      </trkpt>
      <trkpt lat="42.6063743792474269866943359375" lon="19.9769219197332859039306640625">
        <ele>1198.199951171875</ele>
        <time>2026-06-15T15:44:10.000Z</time>
        <extensions>
          <ns3:TrackPointExtension>
            <ns3:atemp>19.0</ns3:atemp>
          </ns3:TrackPointExtension>
        </extensions>
      </trkpt>
      <trkpt lat="42.60640195570886135101318359375" lon="19.97688579373061656951904296875">
        <ele>1198.4000244140625</ele>
        <time>2026-06-15T15:44:11.000Z</time>
        <extensions>
          <ns3:TrackPointExtension>
            <ns3:atemp>19.0</ns3:atemp>
          </ns3:TrackPointExtension>
        </extensions>
      </trkpt>
      <trkpt lat="42.606425844132900238037109375" lon="19.9768495000898838043212890625">
        <ele>1198.4000244140625</ele>
        <time>2026-06-15T15:44:12.000Z</time>
        <extensions>
          <ns3:TrackPointExtension>
            <ns3:atemp>19.0</ns3:atemp>
          </ns3:TrackPointExtension>
        </extensions>
      </trkpt>
      <trkpt lat="42.60645476169884204864501953125" lon="19.97681085951626300811767578125">
        <ele>1198.4000244140625</ele>
        <time>2026-06-15T15:44:13.000Z</time>
        <extensions>
          <ns3:TrackPointExtension>
            <ns3:atemp>19.0</ns3:atemp>
          </ns3:TrackPointExtension>
        </extensions>
      </trkpt>
      <trkpt lat="42.6064806617796421051025390625" lon="19.97676844708621501922607421875">
        <ele>1198.4000244140625</ele>
        <time>2026-06-15T15:44:14.000Z</time>
        <extensions>
          <ns3:TrackPointExtension>
            <ns3:atemp>19.0</ns3:atemp>
          </ns3:TrackPointExtension>
        </extensions>
      </trkpt>
      <trkpt lat="42.60651242919266223907470703125" lon="19.9767220951616764068603515625">
        <ele>1198.5999755859375</ele>
        <time>2026-06-15T15:44:15.000Z</time>
        <extensions>
          <ns3:TrackPointExtension>
            <ns3:atemp>19.0</ns3:atemp>
          </ns3:TrackPointExtension>
        </extensions>
      </trkpt>
      <trkpt lat="42.60655215941369533538818359375" lon="19.97668362222611904144287109375">
        <ele>1198.5999755859375</ele>
        <time>2026-06-15T15:44:16.000Z</time>
        <extensions>
          <ns3:TrackPointExtension>
            <ns3:atemp>19.0</ns3:atemp>
          </ns3:TrackPointExtension>
        </extensions>
      </trkpt>
      <trkpt lat="42.60659423656761646270751953125" lon="19.97665646485984325408935546875">
        <ele>1198.5999755859375</ele>
        <time>2026-06-15T15:44:17.000Z</time>
        <extensions>
          <ns3:TrackPointExtension>
            <ns3:atemp>19.0</ns3:atemp>
          </ns3:TrackPointExtension>
        </extensions>
      </trkpt>
      <trkpt lat="42.6066419295966625213623046875" lon="19.9766362644731998443603515625">
        <ele>1198.4000244140625</ele>
        <time>2026-06-15T15:44:18.000Z</time>
        <extensions>
          <ns3:TrackPointExtension>
            <ns3:atemp>19.0</ns3:atemp>
          </ns3:TrackPointExtension>
        </extensions>
      </trkpt>
      <trkpt lat="42.60669297538697719573974609375" lon="19.97661639936268329620361328125">
        <ele>1198.4000244140625</ele>
        <time>2026-06-15T15:44:19.000Z</time>
        <extensions>
          <ns3:TrackPointExtension>
            <ns3:atemp>19.0</ns3:atemp>
          </ns3:TrackPointExtension>
        </extensions>
      </trkpt>
      <trkpt lat="42.60674511082470417022705078125" lon="19.976596198976039886474609375">
        <ele>1198.199951171875</ele>
        <time>2026-06-15T15:44:20.000Z</time>
        <extensions>
          <ns3:TrackPointExtension>
            <ns3:atemp>19.0</ns3:atemp>
          </ns3:TrackPointExtension>
        </extensions>
      </trkpt>
      <trkpt lat="42.6067936420440673828125" lon="19.976569712162017822265625">
        <ele>1198</ele>
        <time>2026-06-15T15:44:21.000Z</time>
        <extensions>
          <ns3:TrackPointExtension>
            <ns3:atemp>19.0</ns3:atemp>
          </ns3:TrackPointExtension>
        </extensions>
      </trkpt>
      <trkpt lat="42.6068441011011600494384765625" lon="19.976545237004756927490234375">
        <ele>1198</ele>
        <time>2026-06-15T15:44:22.000Z</time>
        <extensions>
          <ns3:TrackPointExtension>
            <ns3:atemp>19.0</ns3:atemp>
          </ns3:TrackPointExtension>
        </extensions>
      </trkpt>
      <trkpt lat="42.6068970747292041778564453125" lon="19.97652612626552581787109375">
        <ele>1198</ele>
        <time>2026-06-15T15:44:23.000Z</time>
        <extensions>
          <ns3:TrackPointExtension>
            <ns3:atemp>19.0</ns3:atemp>
          </ns3:TrackPointExtension>
        </extensions>
      </trkpt>
      <trkpt lat="42.6069500483572483062744140625" lon="19.97652218677103519439697265625">
        <ele>1198</ele>
        <time>2026-06-15T15:44:24.000Z</time>
        <extensions>
          <ns3:TrackPointExtension>
            <ns3:atemp>19.0</ns3:atemp>
          </ns3:TrackPointExtension>
        </extensions>
      </trkpt>
      <trkpt lat="42.6070033572614192962646484375" lon="19.97652889229357242584228515625">
        <ele>1198</ele>
        <time>2026-06-15T15:44:25.000Z</time>
        <extensions>
          <ns3:TrackPointExtension>
            <ns3:atemp>19.0</ns3:atemp>
          </ns3:TrackPointExtension>
        </extensions>
      </trkpt>
      <trkpt lat="42.60705138556659221649169921875" lon="19.97653593309223651885986328125">
        <ele>1197.800048828125</ele>
        <time>2026-06-15T15:44:26.000Z</time>
        <extensions>
          <ns3:TrackPointExtension>
            <ns3:atemp>19.0</ns3:atemp>
          </ns3:TrackPointExtension>
        </extensions>
      </trkpt>
      <trkpt lat="42.60710067115724086761474609375" lon="19.97654892504215240478515625">
        <ele>1198</ele>
        <time>2026-06-15T15:44:27.000Z</time>
        <extensions>
          <ns3:TrackPointExtension>
            <ns3:atemp>19.0</ns3:atemp>
          </ns3:TrackPointExtension>
        </extensions>
      </trkpt>
      <trkpt lat="42.6071532256901264190673828125" lon="19.97655454091727733612060546875">
        <ele>1198</ele>
        <time>2026-06-15T15:44:28.000Z</time>
        <extensions>
          <ns3:TrackPointExtension>
            <ns3:atemp>19.0</ns3:atemp>
          </ns3:TrackPointExtension>
        </extensions>
      </trkpt>
      <trkpt lat="42.60720293037593364715576171875" lon="19.97655806131660938262939453125">
        <ele>1198</ele>
        <time>2026-06-15T15:44:29.000Z</time>
        <extensions>
          <ns3:TrackPointExtension>
            <ns3:atemp>19.0</ns3:atemp>
          </ns3:TrackPointExtension>
        </extensions>
      </trkpt>
      <trkpt lat="42.6072531379759311676025390625" lon="19.9765551276504993438720703125">
        <ele>1198</ele>
        <time>2026-06-15T15:44:30.000Z</time>
        <extensions>
          <ns3:TrackPointExtension>
            <ns3:atemp>19.0</ns3:atemp>
          </ns3:TrackPointExtension>
        </extensions>
      </trkpt>
      <trkpt lat="42.607305943965911865234375" lon="19.97654900886118412017822265625">
        <ele>1198</ele>
        <time>2026-06-15T15:44:31.000Z</time>
        <extensions>
          <ns3:TrackPointExtension>
            <ns3:atemp>19.0</ns3:atemp>
          </ns3:TrackPointExtension>
        </extensions>
      </trkpt>
      <trkpt lat="42.60735766030848026275634765625" lon="19.97653685510158538818359375">
        <ele>1197.800048828125</ele>
        <time>2026-06-15T15:44:32.000Z</time>
        <extensions>
          <ns3:TrackPointExtension>
            <ns3:atemp>19.0</ns3:atemp>
          </ns3:TrackPointExtension>
        </extensions>
      </trkpt>
      <trkpt lat="42.60740459896624088287353515625" lon="19.9765222705900669097900390625">
        <ele>1197.5999755859375</ele>
        <time>2026-06-15T15:44:33.000Z</time>
        <extensions>
          <ns3:TrackPointExtension>
            <ns3:atemp>19.0</ns3:atemp>
          </ns3:TrackPointExtension>
        </extensions>
      </trkpt>
      <trkpt lat="42.6074509508907794952392578125" lon="19.9765055067837238311767578125">
        <ele>1197.5999755859375</ele>
        <time>2026-06-15T15:44:34.000Z</time>
        <extensions>
          <ns3:TrackPointExtension>
            <ns3:atemp>19.0</ns3:atemp>
          </ns3:TrackPointExtension>
        </extensions>
      </trkpt>
      <trkpt lat="42.60750115849077701568603515625" lon="19.97647893615067005157470703125">
        <ele>1197.4000244140625</ele>
        <time>2026-06-15T15:44:35.000Z</time>
        <extensions>
          <ns3:TrackPointExtension>
            <ns3:atemp>19.0</ns3:atemp>
          </ns3:TrackPointExtension>
        </extensions>
      </trkpt>
      <trkpt lat="42.607544325292110443115234375" lon="19.9764476716518402099609375">
        <ele>1197.4000244140625</ele>
        <time>2026-06-15T15:44:36.000Z</time>
        <extensions>
          <ns3:TrackPointExtension>
            <ns3:atemp>19.0</ns3:atemp>
          </ns3:TrackPointExtension>
        </extensions>
      </trkpt>
      <trkpt lat="42.60759218595921993255615234375" lon="19.97641523368656635284423828125">
        <ele>1197.4000244140625</ele>
        <time>2026-06-15T15:44:37.000Z</time>
        <extensions>
          <ns3:TrackPointExtension>
            <ns3:atemp>19.0</ns3:atemp>
          </ns3:TrackPointExtension>
        </extensions>
      </trkpt>
      <trkpt lat="42.6076383702456951141357421875" lon="19.97637952677905559539794921875">
        <ele>1197.4000244140625</ele>
        <time>2026-06-15T15:44:38.000Z</time>
        <extensions>
          <ns3:TrackPointExtension>
            <ns3:atemp>19.0</ns3:atemp>
          </ns3:TrackPointExtension>
        </extensions>
      </trkpt>
      <trkpt lat="42.60768103413283824920654296875" lon="19.9763358570635318756103515625">
        <ele>1197.4000244140625</ele>
        <time>2026-06-15T15:44:39.000Z</time>
        <extensions>
          <ns3:TrackPointExtension>
            <ns3:atemp>19.0</ns3:atemp>
          </ns3:TrackPointExtension>
        </extensions>
      </trkpt>
      <trkpt lat="42.60771774686872959136962890625" lon="19.97628204524517059326171875">
        <ele>1197.4000244140625</ele>
        <time>2026-06-15T15:44:40.000Z</time>
        <extensions>
          <ns3:TrackPointExtension>
            <ns3:atemp>19.0</ns3:atemp>
          </ns3:TrackPointExtension>
        </extensions>
      </trkpt>
      <trkpt lat="42.6077503524720668792724609375" lon="19.97622529976069927215576171875">
        <ele>1197.4000244140625</ele>
        <time>2026-06-15T15:44:41.000Z</time>
        <extensions>
          <ns3:TrackPointExtension>
            <ns3:atemp>19.0</ns3:atemp>
          </ns3:TrackPointExtension>
        </extensions>
      </trkpt>
      <trkpt lat="42.60778161697089672088623046875" lon="19.9761638604104518890380859375">
        <ele>1197.199951171875</ele>
        <time>2026-06-15T15:44:42.000Z</time>
        <extensions>
          <ns3:TrackPointExtension>
            <ns3:atemp>19.0</ns3:atemp>
          </ns3:TrackPointExtension>
        </extensions>
      </trkpt>
      <trkpt lat="42.60780659504234790802001953125" lon="19.9760974757373332977294921875">
        <ele>1197</ele>
        <time>2026-06-15T15:44:43.000Z</time>
        <extensions>
          <ns3:TrackPointExtension>
            <ns3:atemp>19.0</ns3:atemp>
          </ns3:TrackPointExtension>
        </extensions>
      </trkpt>
      <trkpt lat="42.6078321598470211029052734375" lon="19.9760297499597072601318359375">
        <ele>1196.800048828125</ele>
        <time>2026-06-15T15:44:44.000Z</time>
        <extensions>
          <ns3:TrackPointExtension>
            <ns3:atemp>19.0</ns3:atemp>
          </ns3:TrackPointExtension>
        </extensions>
      </trkpt>
      <trkpt lat="42.60785621590912342071533203125" lon="19.97596160508692264556884765625">
        <ele>1196.5999755859375</ele>
        <time>2026-06-15T15:44:45.000Z</time>
        <extensions>
          <ns3:TrackPointExtension>
            <ns3:atemp>19.0</ns3:atemp>
          </ns3:TrackPointExtension>
        </extensions>
      </trkpt>
      <trkpt lat="42.6078831218183040618896484375" lon="19.9758932925760746002197265625">
        <ele>1196.4000244140625</ele>
        <time>2026-06-15T15:44:46.000Z</time>
        <extensions>
          <ns3:TrackPointExtension>
            <ns3:atemp>19.0</ns3:atemp>
          </ns3:TrackPointExtension>
        </extensions>
      </trkpt>
      <trkpt lat="42.60791304521262645721435546875" lon="19.97582850046455860137939453125">
        <ele>1196.199951171875</ele>
        <time>2026-06-15T15:44:47.000Z</time>
        <extensions>
          <ns3:TrackPointExtension>
            <ns3:atemp>19.0</ns3:atemp>
          </ns3:TrackPointExtension>
        </extensions>
      </trkpt>
      <trkpt lat="42.60794070549309253692626953125" lon="19.9757662229239940643310546875">
        <ele>1196.199951171875</ele>
        <time>2026-06-15T15:44:48.000Z</time>
        <extensions>
          <ns3:TrackPointExtension>
            <ns3:atemp>19.0</ns3:atemp>
          </ns3:TrackPointExtension>
        </extensions>
      </trkpt>
      <trkpt lat="42.60796635411679744720458984375" lon="19.975697994232177734375">
        <ele>1196</ele>
        <time>2026-06-15T15:44:49.000Z</time>
        <extensions>
          <ns3:TrackPointExtension>
            <ns3:atemp>19.0</ns3:atemp>
          </ns3:TrackPointExtension>
        </extensions>
      </trkpt>
      <trkpt lat="42.60799200274050235748291015625" lon="19.97563253156840801239013671875">
        <ele>1195.800048828125</ele>
        <time>2026-06-15T15:44:50.000Z</time>
        <extensions>
          <ns3:TrackPointExtension>
            <ns3:atemp>19.0</ns3:atemp>
          </ns3:TrackPointExtension>
        </extensions>
      </trkpt>
      <trkpt lat="42.60801471769809722900390625" lon="19.97556363232433795928955078125">
        <ele>1195.800048828125</ele>
        <time>2026-06-15T15:44:51.000Z</time>
        <extensions>
          <ns3:TrackPointExtension>
            <ns3:atemp>19.0</ns3:atemp>
          </ns3:TrackPointExtension>
        </extensions>
      </trkpt>
      <trkpt lat="42.60803894139826297760009765625" lon="19.975492469966411590576171875">
        <ele>1195.5999755859375</ele>
        <time>2026-06-15T15:44:52.000Z</time>
        <extensions>
          <ns3:TrackPointExtension>
            <ns3:atemp>19.0</ns3:atemp>
          </ns3:TrackPointExtension>
        </extensions>
      </trkpt>
      <trkpt lat="42.6080537773668766021728515625" lon="19.97541996650397777557373046875">
        <ele>1195.5999755859375</ele>
        <time>2026-06-15T15:44:53.000Z</time>
        <extensions>
          <ns3:TrackPointExtension>
            <ns3:atemp>19.0</ns3:atemp>
          </ns3:TrackPointExtension>
        </extensions>
      </trkpt>
      <trkpt lat="42.60806500911712646484375" lon="19.97534402646124362945556640625">
        <ele>1195.4000244140625</ele>
        <time>2026-06-15T15:44:54.000Z</time>
        <extensions>
          <ns3:TrackPointExtension>
            <ns3:atemp>19.0</ns3:atemp>
          </ns3:TrackPointExtension>
        </extensions>
      </trkpt>
      <trkpt lat="42.6080651767551898956298828125" lon="19.97526959516108036041259765625">
        <ele>1195.199951171875</ele>
        <time>2026-06-15T15:44:55.000Z</time>
        <extensions>
          <ns3:TrackPointExtension>
            <ns3:atemp>19.0</ns3:atemp>
          </ns3:TrackPointExtension>
        </extensions>
      </trkpt>
      <trkpt lat="42.608059979975223541259765625" lon="19.9751999415457248687744140625">
        <ele>1195.199951171875</ele>
        <time>2026-06-15T15:44:56.000Z</time>
        <extensions>
          <ns3:TrackPointExtension>
            <ns3:atemp>19.0</ns3:atemp>
          </ns3:TrackPointExtension>
        </extensions>
      </trkpt>
      <trkpt lat="42.60805763304233551025390625" lon="19.97512777335941791534423828125">
        <ele>1195.199951171875</ele>
        <time>2026-06-15T15:44:57.000Z</time>
        <extensions>
          <ns3:TrackPointExtension>
            <ns3:atemp>19.0</ns3:atemp>
          </ns3:TrackPointExtension>
        </extensions>
      </trkpt>
      <trkpt lat="42.60806106962263584136962890625" lon="19.97505552135407924652099609375">
        <ele>1195</ele>
        <time>2026-06-15T15:44:58.000Z</time>
        <extensions>
          <ns3:TrackPointExtension>
            <ns3:atemp>19.0</ns3:atemp>
          </ns3:TrackPointExtension>
        </extensions>
      </trkpt>
      <trkpt lat="42.60808168910443782806396484375" lon="19.9749907292425632476806640625">
        <ele>1195</ele>
        <time>2026-06-15T15:44:59.000Z</time>
        <extensions>
          <ns3:TrackPointExtension>
            <ns3:atemp>19.0</ns3:atemp>
          </ns3:TrackPointExtension>
        </extensions>
      </trkpt>
      <trkpt lat="42.60811127722263336181640625" lon="19.974936582148075103759765625">
        <ele>1195</ele>
        <time>2026-06-15T15:45:00.000Z</time>
        <extensions>
          <ns3:TrackPointExtension>
            <ns3:atemp>19.0</ns3:atemp>
          </ns3:TrackPointExtension>
        </extensions>
      </trkpt>
      <trkpt lat="42.60815125890076160430908203125" lon="19.97489869594573974609375">
        <ele>1195</ele>
        <time>2026-06-15T15:45:01.000Z</time>
        <extensions>
          <ns3:TrackPointExtension>
            <ns3:atemp>19.0</ns3:atemp>
          </ns3:TrackPointExtension>
        </extensions>
      </trkpt>
      <trkpt lat="42.60819518007338047027587890625" lon="19.974877573549747467041015625">
        <ele>1194.800048828125</ele>
        <time>2026-06-15T15:45:02.000Z</time>
        <extensions>
          <ns3:TrackPointExtension>
            <ns3:atemp>19.0</ns3:atemp>
          </ns3:TrackPointExtension>
        </extensions>
      </trkpt>
      <trkpt lat="42.60824111290276050567626953125" lon="19.974861480295658111572265625">
        <ele>1194.5999755859375</ele>
        <time>2026-06-15T15:45:03.000Z</time>
        <extensions>
          <ns3:TrackPointExtension>
            <ns3:atemp>19.0</ns3:atemp>
          </ns3:TrackPointExtension>
        </extensions>
      </trkpt>
      <trkpt lat="42.608291320502758026123046875" lon="19.97484681196510791778564453125">
        <ele>1194.4000244140625</ele>
        <time>2026-06-15T15:45:04.000Z</time>
        <extensions>
          <ns3:TrackPointExtension>
            <ns3:atemp>19.0</ns3:atemp>
          </ns3:TrackPointExtension>
        </extensions>
      </trkpt>
      <trkpt lat="42.60834638960659503936767578125" lon="19.974835999310016632080078125">
        <ele>1194.199951171875</ele>
        <time>2026-06-15T15:45:05.000Z</time>
        <extensions>
          <ns3:TrackPointExtension>
            <ns3:atemp>19.0</ns3:atemp>
          </ns3:TrackPointExtension>
        </extensions>
      </trkpt>
      <trkpt lat="42.608410008251667022705078125" lon="19.9748234264552593231201171875">
        <ele>1194.199951171875</ele>
        <time>2026-06-15T15:45:06.000Z</time>
        <extensions>
          <ns3:TrackPointExtension>
            <ns3:atemp>19.0</ns3:atemp>
          </ns3:TrackPointExtension>
        </extensions>
      </trkpt>
      <trkpt lat="42.6084738783538341522216796875" lon="19.97480548918247222900390625">
        <ele>1194.199951171875</ele>
        <time>2026-06-15T15:45:07.000Z</time>
        <extensions>
          <ns3:TrackPointExtension>
            <ns3:atemp>19.0</ns3:atemp>
          </ns3:TrackPointExtension>
        </extensions>
      </trkpt>
      <trkpt lat="42.60853531770408153533935546875" lon="19.97478176839649677276611328125">
        <ele>1194</ele>
        <time>2026-06-15T15:45:08.000Z</time>
        <extensions>
          <ns3:TrackPointExtension>
            <ns3:atemp>19.0</ns3:atemp>
          </ns3:TrackPointExtension>
        </extensions>
      </trkpt>
      <trkpt lat="42.60859533213078975677490234375" lon="19.9747483246028423309326171875">
        <ele>1193.800048828125</ele>
        <time>2026-06-15T15:45:09.000Z</time>
        <extensions>
          <ns3:TrackPointExtension>
            <ns3:atemp>19.0</ns3:atemp>
          </ns3:TrackPointExtension>
        </extensions>
      </trkpt>
      <trkpt lat="42.60864528827369213104248046875" lon="19.97471052221953868865966796875">
        <ele>1193.5999755859375</ele>
        <time>2026-06-15T15:45:10.000Z</time>
        <extensions>
          <ns3:TrackPointExtension>
            <ns3:atemp>19.0</ns3:atemp>
          </ns3:TrackPointExtension>
        </extensions>
      </trkpt>
      <trkpt lat="42.6086965017020702362060546875" lon="19.97466743923723697662353515625">
        <ele>1193.4000244140625</ele>
        <time>2026-06-15T15:45:11.000Z</time>
        <extensions>
          <ns3:TrackPointExtension>
            <ns3:atemp>19.0</ns3:atemp>
          </ns3:TrackPointExtension>
        </extensions>
      </trkpt>
      <trkpt lat="42.60874436236917972564697265625" lon="19.97461907565593719482421875">
        <ele>1193.199951171875</ele>
        <time>2026-06-15T15:45:12.000Z</time>
        <extensions>
          <ns3:TrackPointExtension>
            <ns3:atemp>19.0</ns3:atemp>
          </ns3:TrackPointExtension>
        </extensions>
      </trkpt>
      <trkpt lat="42.60879264213144779205322265625" lon="19.974568448960781097412109375">
        <ele>1193.199951171875</ele>
        <time>2026-06-15T15:45:13.000Z</time>
        <extensions>
          <ns3:TrackPointExtension>
            <ns3:atemp>19.0</ns3:atemp>
          </ns3:TrackPointExtension>
        </extensions>
      </trkpt>
      <trkpt lat="42.60883773677051067352294921875" lon="19.974516145884990692138671875">
        <ele>1193.199951171875</ele>
        <time>2026-06-15T15:45:14.000Z</time>
        <extensions>
          <ns3:TrackPointExtension>
            <ns3:atemp>19.0</ns3:atemp>
          </ns3:TrackPointExtension>
        </extensions>
      </trkpt>
      <trkpt lat="42.60888115502893924713134765625" lon="19.97446895577013492584228515625">
        <ele>1193.199951171875</ele>
        <time>2026-06-15T15:45:15.000Z</time>
        <extensions>
          <ns3:TrackPointExtension>
            <ns3:atemp>19.0</ns3:atemp>
          </ns3:TrackPointExtension>
        </extensions>
      </trkpt>
      <trkpt lat="42.60892557911574840545654296875" lon="19.9744288064539432525634765625">
        <ele>1193.4000244140625</ele>
        <time>2026-06-15T15:45:16.000Z</time>
        <extensions>
          <ns3:TrackPointExtension>
            <ns3:atemp>19.0</ns3:atemp>
          </ns3:TrackPointExtension>
        </extensions>
      </trkpt>
      <trkpt lat="42.60897469706833362579345703125" lon="19.974406175315380096435546875">
        <ele>1193.4000244140625</ele>
        <time>2026-06-15T15:45:17.000Z</time>
        <extensions>
          <ns3:TrackPointExtension>
            <ns3:atemp>19.0</ns3:atemp>
          </ns3:TrackPointExtension>
        </extensions>
      </trkpt>
      <trkpt lat="42.60902398265898227691650390625" lon="19.9743957817554473876953125">
        <ele>1193.4000244140625</ele>
        <time>2026-06-15T15:45:18.000Z</time>
        <extensions>
          <ns3:TrackPointExtension>
            <ns3:atemp>19.0</ns3:atemp>
          </ns3:TrackPointExtension>
        </extensions>
      </trkpt>
      <trkpt lat="42.6090777106583118438720703125" lon="19.97438681311905384063720703125">
        <ele>1193.199951171875</ele>
        <time>2026-06-15T15:45:19.000Z</time>
        <extensions>
          <ns3:TrackPointExtension>
            <ns3:atemp>19.0</ns3:atemp>
          </ns3:TrackPointExtension>
        </extensions>
      </trkpt>
      <trkpt lat="42.60913479141891002655029296875" lon="19.97438035905361175537109375">
        <ele>1193.199951171875</ele>
        <time>2026-06-15T15:45:20.000Z</time>
        <extensions>
          <ns3:TrackPointExtension>
            <ns3:atemp>19.0</ns3:atemp>
          </ns3:TrackPointExtension>
        </extensions>
      </trkpt>
      <trkpt lat="42.60919095017015933990478515625" lon="19.9743640981614589691162109375">
        <ele>1193</ele>
        <time>2026-06-15T15:45:21.000Z</time>
        <extensions>
          <ns3:TrackPointExtension>
            <ns3:atemp>19.0</ns3:atemp>
          </ns3:TrackPointExtension>
        </extensions>
      </trkpt>
      <trkpt lat="42.60924828238785266876220703125" lon="19.97434104792773723602294921875">
        <ele>1192.800048828125</ele>
        <time>2026-06-15T15:45:22.000Z</time>
        <extensions>
          <ns3:TrackPointExtension>
            <ns3:atemp>19.0</ns3:atemp>
          </ns3:TrackPointExtension>
        </extensions>
      </trkpt>
      <trkpt lat="42.609304524958133697509765625" lon="19.9743139743804931640625">
        <ele>1192.800048828125</ele>
        <time>2026-06-15T15:45:23.000Z</time>
        <extensions>
          <ns3:TrackPointExtension>
            <ns3:atemp>19.0</ns3:atemp>
          </ns3:TrackPointExtension>
        </extensions>
      </trkpt>
      <trkpt lat="42.60935716331005096435546875" lon="19.974278099834918975830078125">
        <ele>1192.5999755859375</ele>
        <time>2026-06-15T15:45:24.000Z</time>
        <extensions>
          <ns3:TrackPointExtension>
            <ns3:atemp>19.0</ns3:atemp>
          </ns3:TrackPointExtension>
        </extensions>
      </trkpt>
      <trkpt lat="42.60940284468233585357666015625" lon="19.97423225082457065582275390625">
        <ele>1192.4000244140625</ele>
        <time>2026-06-15T15:45:25.000Z</time>
        <extensions>
          <ns3:TrackPointExtension>
            <ns3:atemp>19.0</ns3:atemp>
          </ns3:TrackPointExtension>
        </extensions>
      </trkpt>
      <trkpt lat="42.60944140143692493438720703125" lon="19.9741719849407672882080078125">
        <ele>1192.199951171875</ele>
        <time>2026-06-15T15:45:26.000Z</time>
        <extensions>
          <ns3:TrackPointExtension>
            <ns3:atemp>19.0</ns3:atemp>
          </ns3:TrackPointExtension>
        </extensions>
      </trkpt>
      <trkpt lat="42.60947509668767452239990234375" lon="19.97410668991506099700927734375">
        <ele>1192.199951171875</ele>
        <time>2026-06-15T15:45:27.000Z</time>
        <extensions>
          <ns3:TrackPointExtension>
            <ns3:atemp>19.0</ns3:atemp>
          </ns3:TrackPointExtension>
        </extensions>
      </trkpt>
      <trkpt lat="42.60950460098683834075927734375" lon="19.9740355275571346282958984375">
        <ele>1192</ele>
        <time>2026-06-15T15:45:28.000Z</time>
        <extensions>
          <ns3:TrackPointExtension>
            <ns3:atemp>19.0</ns3:atemp>
          </ns3:TrackPointExtension>
        </extensions>
      </trkpt>
      <trkpt lat="42.60952991433441638946533203125" lon="19.9739540554583072662353515625">
        <ele>1191.800048828125</ele>
        <time>2026-06-15T15:45:29.000Z</time>
        <extensions>
          <ns3:TrackPointExtension>
            <ns3:atemp>19.0</ns3:atemp>
          </ns3:TrackPointExtension>
        </extensions>
      </trkpt>
      <trkpt lat="42.60955874808132648468017578125" lon="19.9738719128072261810302734375">
        <ele>1191.5999755859375</ele>
        <time>2026-06-15T15:45:30.000Z</time>
        <extensions>
          <ns3:TrackPointExtension>
            <ns3:atemp>19.0</ns3:atemp>
          </ns3:TrackPointExtension>
        </extensions>
      </trkpt>
      <trkpt lat="42.6096044294536113739013671875" lon="19.97381064109504222869873046875">
        <ele>1191.4000244140625</ele>
        <time>2026-06-15T15:45:31.000Z</time>
        <extensions>
          <ns3:TrackPointExtension>
            <ns3:atemp>19.0</ns3:atemp>
          </ns3:TrackPointExtension>
        </extensions>
      </trkpt>
      <trkpt lat="42.60966117493808269500732421875" lon="19.9737780354917049407958984375">
        <ele>1191</ele>
        <time>2026-06-15T15:45:32.000Z</time>
        <extensions>
          <ns3:TrackPointExtension>
            <ns3:atemp>19.0</ns3:atemp>
          </ns3:TrackPointExtension>
        </extensions>
      </trkpt>
      <trkpt lat="42.60971314273774623870849609375" lon="19.9737679772078990936279296875">
        <ele>1190.800048828125</ele>
        <time>2026-06-15T15:45:33.000Z</time>
        <extensions>
          <ns3:TrackPointExtension>
            <ns3:atemp>19.0</ns3:atemp>
          </ns3:TrackPointExtension>
        </extensions>
      </trkpt>
      <trkpt lat="42.60977315716445446014404296875" lon="19.97375884093344211578369140625">
        <ele>1190.5999755859375</ele>
        <time>2026-06-15T15:45:34.000Z</time>
        <extensions>
          <ns3:TrackPointExtension>
            <ns3:atemp>19.0</ns3:atemp>
          </ns3:TrackPointExtension>
        </extensions>
      </trkpt>
      <trkpt lat="42.6098367758095264434814453125" lon="19.97375045903027057647705078125">
        <ele>1190.4000244140625</ele>
        <time>2026-06-15T15:45:35.000Z</time>
        <extensions>
          <ns3:TrackPointExtension>
            <ns3:atemp>19.0</ns3:atemp>
          </ns3:TrackPointExtension>
        </extensions>
      </trkpt>
      <trkpt lat="42.60989704169332981109619140625" lon="19.973730258643627166748046875">
        <ele>1190.199951171875</ele>
        <time>2026-06-15T15:45:36.000Z</time>
        <extensions>
          <ns3:TrackPointExtension>
            <ns3:atemp>19.0</ns3:atemp>
          </ns3:TrackPointExtension>
        </extensions>
      </trkpt>
      <trkpt lat="42.6099573075771331787109375" lon="19.9737052805721759796142578125">
        <ele>1190</ele>
        <time>2026-06-15T15:45:37.000Z</time>
        <extensions>
          <ns3:TrackPointExtension>
            <ns3:atemp>19.0</ns3:atemp>
          </ns3:TrackPointExtension>
        </extensions>
      </trkpt>
      <trkpt lat="42.61001874692738056182861328125" lon="19.97368323616683483123779296875">
        <ele>1189.800048828125</ele>
        <time>2026-06-15T15:45:38.000Z</time>
        <extensions>
          <ns3:TrackPointExtension>
            <ns3:atemp>19.0</ns3:atemp>
          </ns3:TrackPointExtension>
        </extensions>
      </trkpt>
      <trkpt lat="42.61007775552570819854736328125" lon="19.97364836744964122772216796875">
        <ele>1189.5999755859375</ele>
        <time>2026-06-15T15:45:39.000Z</time>
        <extensions>
          <ns3:TrackPointExtension>
            <ns3:atemp>19.0</ns3:atemp>
          </ns3:TrackPointExtension>
        </extensions>
      </trkpt>
      <trkpt lat="42.61012829840183258056640625" lon="19.973597489297389984130859375">
        <ele>1189.5999755859375</ele>
        <time>2026-06-15T15:45:40.000Z</time>
        <extensions>
          <ns3:TrackPointExtension>
            <ns3:atemp>19.0</ns3:atemp>
          </ns3:TrackPointExtension>
        </extensions>
      </trkpt>
      <trkpt lat="42.610174901783466339111328125" lon="19.973534457385540008544921875">
        <ele>1189.4000244140625</ele>
        <time>2026-06-15T15:45:41.000Z</time>
        <extensions>
          <ns3:TrackPointExtension>
            <ns3:atemp>19.0</ns3:atemp>
          </ns3:TrackPointExtension>
        </extensions>
      </trkpt>
      <trkpt lat="42.6102119497954845428466796875" lon="19.973467402160167694091796875">
        <ele>1189.4000244140625</ele>
        <time>2026-06-15T15:45:42.000Z</time>
        <extensions>
          <ns3:TrackPointExtension>
            <ns3:atemp>19.0</ns3:atemp>
          </ns3:TrackPointExtension>
        </extensions>
      </trkpt>
      <trkpt lat="42.6102417893707752227783203125" lon="19.9733938090503215789794921875">
        <ele>1189.4000244140625</ele>
        <time>2026-06-15T15:45:43.000Z</time>
        <extensions>
          <ns3:TrackPointExtension>
            <ns3:atemp>19.0</ns3:atemp>
          </ns3:TrackPointExtension>
        </extensions>
      </trkpt>
      <trkpt lat="42.61025511659681797027587890625" lon="19.97331761755049228668212890625">
        <ele>1189.199951171875</ele>
        <time>2026-06-15T15:45:44.000Z</time>
        <extensions>
          <ns3:TrackPointExtension>
            <ns3:atemp>19.0</ns3:atemp>
          </ns3:TrackPointExtension>
        </extensions>
      </trkpt>
      <trkpt lat="42.610259391367435455322265625" lon="19.97323882766067981719970703125">
        <ele>1189</ele>
        <time>2026-06-15T15:45:45.000Z</time>
        <extensions>
          <ns3:TrackPointExtension>
            <ns3:atemp>19.0</ns3:atemp>
          </ns3:TrackPointExtension>
        </extensions>
      </trkpt>
      <trkpt lat="42.61026584543287754058837890625" lon="19.9731592833995819091796875">
        <ele>1189</ele>
        <time>2026-06-15T15:45:46.000Z</time>
        <extensions>
          <ns3:TrackPointExtension>
            <ns3:atemp>19.0</ns3:atemp>
          </ns3:TrackPointExtension>
        </extensions>
      </trkpt>
      <trkpt lat="42.61028847657144069671630859375" lon="19.97308409772813320159912109375">
        <ele>1188.800048828125</ele>
        <time>2026-06-15T15:45:47.000Z</time>
        <extensions>
          <ns3:TrackPointExtension>
            <ns3:atemp>19.0</ns3:atemp>
          </ns3:TrackPointExtension>
        </extensions>
      </trkpt>
      <trkpt lat="42.610323093831539154052734375" lon="19.9730296991765499114990234375">
        <ele>1188.4000244140625</ele>
        <time>2026-06-15T15:45:48.000Z</time>
        <extensions>
          <ns3:TrackPointExtension>
            <ns3:atemp>19.0</ns3:atemp>
          </ns3:TrackPointExtension>
        </extensions>
      </trkpt>
      <trkpt lat="42.61036391369998455047607421875" lon="19.9729951657354831695556640625">
        <ele>1188.199951171875</ele>
        <time>2026-06-15T15:45:49.000Z</time>
        <extensions>
          <ns3:TrackPointExtension>
            <ns3:atemp>19.0</ns3:atemp>
          </ns3:TrackPointExtension>
        </extensions>
      </trkpt>
      <trkpt lat="42.61040389537811279296875" lon="19.97297085821628570556640625">
        <ele>1188</ele>
        <time>2026-06-15T15:45:50.000Z</time>
        <extensions>
          <ns3:TrackPointExtension>
            <ns3:atemp>19.0</ns3:atemp>
          </ns3:TrackPointExtension>
        </extensions>
      </trkpt>
      <trkpt lat="42.61044253595173358917236328125" lon="19.97295350767672061920166015625">
        <ele>1187.800048828125</ele>
        <time>2026-06-15T15:45:51.000Z</time>
        <extensions>
          <ns3:TrackPointExtension>
            <ns3:atemp>19.0</ns3:atemp>
          </ns3:TrackPointExtension>
        </extensions>
      </trkpt>
      <trkpt lat="42.61048343963921070098876953125" lon="19.97293557040393352508544921875">
        <ele>1187.800048828125</ele>
        <time>2026-06-15T15:45:52.000Z</time>
        <extensions>
          <ns3:TrackPointExtension>
            <ns3:atemp>19.0</ns3:atemp>
          </ns3:TrackPointExtension>
        </extensions>
      </trkpt>
      <trkpt lat="42.61052870191633701324462890625" lon="19.97291947714984416961669921875">
        <ele>1187.800048828125</ele>
        <time>2026-06-15T15:45:53.000Z</time>
        <extensions>
          <ns3:TrackPointExtension>
            <ns3:atemp>19.0</ns3:atemp>
          </ns3:TrackPointExtension>
        </extensions>
      </trkpt>
      <trkpt lat="42.610573880374431610107421875" lon="19.97289734892547130584716796875">
        <ele>1187.800048828125</ele>
        <time>2026-06-15T15:45:54.000Z</time>
        <extensions>
          <ns3:TrackPointExtension>
            <ns3:atemp>19.0</ns3:atemp>
          </ns3:TrackPointExtension>
        </extensions>
      </trkpt>
      <trkpt lat="42.61061436496675014495849609375" lon="19.972865581512451171875">
        <ele>1187.5999755859375</ele>
        <time>2026-06-15T15:45:55.000Z</time>
        <extensions>
          <ns3:TrackPointExtension>
            <ns3:atemp>19.0</ns3:atemp>
          </ns3:TrackPointExtension>
        </extensions>
      </trkpt>
      <trkpt lat="42.6106511615216732025146484375" lon="19.97282777912914752960205078125">
        <ele>1187.5999755859375</ele>
        <time>2026-06-15T15:45:56.000Z</time>
        <extensions>
          <ns3:TrackPointExtension>
            <ns3:atemp>19.0</ns3:atemp>
          </ns3:TrackPointExtension>
        </extensions>
      </trkpt>
      <trkpt lat="42.61067890562117099761962890625" lon="19.972779415547847747802734375">
        <ele>1187.5999755859375</ele>
        <time>2026-06-15T15:45:57.000Z</time>
        <extensions>
          <ns3:TrackPointExtension>
            <ns3:atemp>19.0</ns3:atemp>
          </ns3:TrackPointExtension>
        </extensions>
      </trkpt>
      <trkpt lat="42.61070103384554386138916015625" lon="19.97272409498691558837890625">
        <ele>1187.4000244140625</ele>
        <time>2026-06-15T15:45:58.000Z</time>
        <extensions>
          <ns3:TrackPointExtension>
            <ns3:atemp>19.0</ns3:atemp>
          </ns3:TrackPointExtension>
        </extensions>
      </trkpt>
      <trkpt lat="42.61072106659412384033203125" lon="19.972661398351192474365234375">
        <ele>1187.4000244140625</ele>
        <time>2026-06-15T15:45:59.000Z</time>
        <extensions>
          <ns3:TrackPointExtension>
            <ns3:atemp>19.0</ns3:atemp>
          </ns3:TrackPointExtension>
        </extensions>
      </trkpt>
      <trkpt lat="42.61073741130530834197998046875" lon="19.972595684230327606201171875">
        <ele>1187.4000244140625</ele>
        <time>2026-06-15T15:46:00.000Z</time>
        <extensions>
          <ns3:TrackPointExtension>
            <ns3:atemp>19.0</ns3:atemp>
          </ns3:TrackPointExtension>
        </extensions>
      </trkpt>
      <trkpt lat="42.61076222173869609832763671875" lon="19.97253055684268474578857421875">
        <ele>1187.199951171875</ele>
        <time>2026-06-15T15:46:01.000Z</time>
        <extensions>
          <ns3:TrackPointExtension>
            <ns3:atemp>19.0</ns3:atemp>
          </ns3:TrackPointExtension>
        </extensions>
      </trkpt>
      <trkpt lat="42.6108010299503803253173828125" lon="19.97248847968876361846923828125">
        <ele>1187</ele>
        <time>2026-06-15T15:46:02.000Z</time>
        <extensions>
          <ns3:TrackPointExtension>
            <ns3:atemp>19.0</ns3:atemp>
          </ns3:TrackPointExtension>
        </extensions>
      </trkpt>
      <trkpt lat="42.610845454037189483642578125" lon="19.97246501035988330841064453125">
        <ele>1187</ele>
        <time>2026-06-15T15:46:03.000Z</time>
        <extensions>
          <ns3:TrackPointExtension>
            <ns3:atemp>19.0</ns3:atemp>
          </ns3:TrackPointExtension>
        </extensions>
      </trkpt>
      <trkpt lat="42.6108969189226627349853515625" lon="19.9724538624286651611328125">
        <ele>1186.800048828125</ele>
        <time>2026-06-15T15:46:04.000Z</time>
        <extensions>
          <ns3:TrackPointExtension>
            <ns3:atemp>19.0</ns3:atemp>
          </ns3:TrackPointExtension>
        </extensions>
      </trkpt>
      <trkpt lat="42.6109495572745800018310546875" lon="19.97244774363934993743896484375">
        <ele>1186.5999755859375</ele>
        <time>2026-06-15T15:46:05.000Z</time>
        <extensions>
          <ns3:TrackPointExtension>
            <ns3:atemp>19.0</ns3:atemp>
          </ns3:TrackPointExtension>
        </extensions>
      </trkpt>
      <trkpt lat="42.61100378818809986114501953125" lon="19.97243751771748065948486328125">
        <ele>1186.4000244140625</ele>
        <time>2026-06-15T15:46:06.000Z</time>
        <extensions>
          <ns3:TrackPointExtension>
            <ns3:atemp>19.0</ns3:atemp>
          </ns3:TrackPointExtension>
        </extensions>
      </trkpt>
      <trkpt lat="42.61106170713901519775390625" lon="19.97242662124335765838623046875">
        <ele>1186.199951171875</ele>
        <time>2026-06-15T15:46:07.000Z</time>
        <extensions>
          <ns3:TrackPointExtension>
            <ns3:atemp>19.0</ns3:atemp>
          </ns3:TrackPointExtension>
        </extensions>
      </trkpt>
      <trkpt lat="42.6111165247857570648193359375" lon="19.97241429984569549560546875">
        <ele>1186</ele>
        <time>2026-06-15T15:46:08.000Z</time>
        <extensions>
          <ns3:TrackPointExtension>
            <ns3:atemp>19.0</ns3:atemp>
          </ns3:TrackPointExtension>
        </extensions>
      </trkpt>
      <trkpt lat="42.61116589419543743133544921875" lon="19.972396530210971832275390625">
        <ele>1185.800048828125</ele>
        <time>2026-06-15T15:46:09.000Z</time>
        <extensions>
          <ns3:TrackPointExtension>
            <ns3:atemp>19.0</ns3:atemp>
          </ns3:TrackPointExtension>
        </extensions>
      </trkpt>
      <trkpt lat="42.6112152636051177978515625" lon="19.972359649837017059326171875">
        <ele>1185.5999755859375</ele>
        <time>2026-06-15T15:46:10.000Z</time>
        <extensions>
          <ns3:TrackPointExtension>
            <ns3:atemp>19.0</ns3:atemp>
          </ns3:TrackPointExtension>
        </extensions>
      </trkpt>
      <trkpt lat="42.6112563349306583404541015625" lon="19.972315728664398193359375">
        <ele>1185.5999755859375</ele>
        <time>2026-06-15T15:46:11.000Z</time>
        <extensions>
          <ns3:TrackPointExtension>
            <ns3:atemp>19.0</ns3:atemp>
          </ns3:TrackPointExtension>
        </extensions>
      </trkpt>
      <trkpt lat="42.61129505932331085205078125" lon="19.97226317413151264190673828125">
        <ele>1185.4000244140625</ele>
        <time>2026-06-15T15:46:12.000Z</time>
        <extensions>
          <ns3:TrackPointExtension>
            <ns3:atemp>19.0</ns3:atemp>
          </ns3:TrackPointExtension>
        </extensions>
      </trkpt>
      <trkpt lat="42.61132850311696529388427734375" lon="19.97220450080931186676025390625">
        <ele>1185.199951171875</ele>
        <time>2026-06-15T15:46:13.000Z</time>
        <extensions>
          <ns3:TrackPointExtension>
            <ns3:atemp>19.0</ns3:atemp>
          </ns3:TrackPointExtension>
        </extensions>
      </trkpt>
      <trkpt lat="42.611360438168048858642578125" lon="19.97215001843869686126708984375">
        <ele>1185</ele>
        <time>2026-06-15T15:46:14.000Z</time>
        <extensions>
          <ns3:TrackPointExtension>
            <ns3:atemp>19.0</ns3:atemp>
          </ns3:TrackPointExtension>
        </extensions>
      </trkpt>
      <trkpt lat="42.611395306885242462158203125" lon="19.97209285385906696319580078125">
        <ele>1184.800048828125</ele>
        <time>2026-06-15T15:46:15.000Z</time>
        <extensions>
          <ns3:TrackPointExtension>
            <ns3:atemp>19.0</ns3:atemp>
          </ns3:TrackPointExtension>
        </extensions>
      </trkpt>
      <trkpt lat="42.61143344454467296600341796875" lon="19.97203669510781764984130859375">
        <ele>1184.5999755859375</ele>
        <time>2026-06-15T15:46:16.000Z</time>
        <extensions>
          <ns3:TrackPointExtension>
            <ns3:atemp>19.0</ns3:atemp>
          </ns3:TrackPointExtension>
        </extensions>
      </trkpt>
      <trkpt lat="42.6114739291369915008544921875" lon="19.9719836376607418060302734375">
        <ele>1184.4000244140625</ele>
        <time>2026-06-15T15:46:17.000Z</time>
        <extensions>
          <ns3:TrackPointExtension>
            <ns3:atemp>19.0</ns3:atemp>
          </ns3:TrackPointExtension>
        </extensions>
      </trkpt>
      <trkpt lat="42.61151223443448543548583984375" lon="19.97192672453820705413818359375">
        <ele>1184.199951171875</ele>
        <time>2026-06-15T15:46:18.000Z</time>
        <extensions>
          <ns3:TrackPointExtension>
            <ns3:atemp>19.0</ns3:atemp>
          </ns3:TrackPointExtension>
        </extensions>
      </trkpt>
      <trkpt lat="42.61155447922646999359130859375" lon="19.97187341563403606414794921875">
        <ele>1184.199951171875</ele>
        <time>2026-06-15T15:46:19.000Z</time>
        <extensions>
          <ns3:TrackPointExtension>
            <ns3:atemp>19.0</ns3:atemp>
          </ns3:TrackPointExtension>
        </extensions>
      </trkpt>
      <trkpt lat="42.61158742010593414306640625" lon="19.971819855272769927978515625">
        <ele>1184</ele>
        <time>2026-06-15T15:46:20.000Z</time>
        <extensions>
          <ns3:TrackPointExtension>
            <ns3:atemp>19.0</ns3:atemp>
          </ns3:TrackPointExtension>
        </extensions>
      </trkpt>
      <trkpt lat="42.61162639595568180084228515625" lon="19.97176252305507659912109375">
        <ele>1184</ele>
        <time>2026-06-15T15:46:21.000Z</time>
        <extensions>
          <ns3:TrackPointExtension>
            <ns3:atemp>19.0</ns3:atemp>
          </ns3:TrackPointExtension>
        </extensions>
      </trkpt>
      <trkpt lat="42.61166059412062168121337890625" lon="19.97169907204806804656982421875">
        <ele>1184</ele>
        <time>2026-06-15T15:46:22.000Z</time>
        <extensions>
          <ns3:TrackPointExtension>
            <ns3:atemp>19.0</ns3:atemp>
          </ns3:TrackPointExtension>
        </extensions>
      </trkpt>
      <trkpt lat="42.61168724857270717620849609375" lon="19.9716279096901416778564453125">
        <ele>1183.800048828125</ele>
        <time>2026-06-15T15:46:23.000Z</time>
        <extensions>
          <ns3:TrackPointExtension>
            <ns3:atemp>19.0</ns3:atemp>
          </ns3:TrackPointExtension>
        </extensions>
      </trkpt>
      <trkpt lat="42.6117096282541751861572265625" lon="19.97154618613421916961669921875">
        <ele>1183.5999755859375</ele>
        <time>2026-06-15T15:46:24.000Z</time>
        <extensions>
          <ns3:TrackPointExtension>
            <ns3:atemp>19.0</ns3:atemp>
          </ns3:TrackPointExtension>
        </extensions>
      </trkpt>
      <trkpt lat="42.6117290742695331573486328125" lon="19.97146303765475749969482421875">
        <ele>1183.4000244140625</ele>
        <time>2026-06-15T15:46:25.000Z</time>
        <extensions>
          <ns3:TrackPointExtension>
            <ns3:atemp>19.0</ns3:atemp>
          </ns3:TrackPointExtension>
        </extensions>
      </trkpt>
      <trkpt lat="42.61174558661878108978271484375" lon="19.9713875167071819305419921875">
        <ele>1183.199951171875</ele>
        <time>2026-06-15T15:46:26.000Z</time>
        <extensions>
          <ns3:TrackPointExtension>
            <ns3:atemp>19.0</ns3:atemp>
          </ns3:TrackPointExtension>
        </extensions>
      </trkpt>
      <trkpt lat="42.61176134459674358367919921875" lon="19.97131736017763614654541015625">
        <ele>1182.800048828125</ele>
        <time>2026-06-15T15:46:27.000Z</time>
        <extensions>
          <ns3:TrackPointExtension>
            <ns3:atemp>19.0</ns3:atemp>
          </ns3:TrackPointExtension>
        </extensions>
      </trkpt>
      <trkpt lat="42.61178732849657535552978515625" lon="19.97124494053423404693603515625">
        <ele>1182.4000244140625</ele>
        <time>2026-06-15T15:46:28.000Z</time>
        <extensions>
          <ns3:TrackPointExtension>
            <ns3:atemp>19.0</ns3:atemp>
          </ns3:TrackPointExtension>
        </extensions>
      </trkpt>
      <trkpt lat="42.6118185929954051971435546875" lon="19.97116665355861186981201171875">
        <ele>1181.800048828125</ele>
        <time>2026-06-15T15:46:29.000Z</time>
        <extensions>
          <ns3:TrackPointExtension>
            <ns3:atemp>19.0</ns3:atemp>
          </ns3:TrackPointExtension>
        </extensions>
      </trkpt>
      <trkpt lat="42.61184399016201496124267578125" lon="19.97108266688883304595947265625">
        <ele>1181.199951171875</ele>
        <time>2026-06-15T15:46:30.000Z</time>
        <extensions>
          <ns3:TrackPointExtension>
            <ns3:atemp>19.0</ns3:atemp>
          </ns3:TrackPointExtension>
        </extensions>
      </trkpt>
      <trkpt lat="42.6118568144738674163818359375" lon="19.97099407017230987548828125">
        <ele>1180.4000244140625</ele>
        <time>2026-06-15T15:46:31.000Z</time>
        <extensions>
          <ns3:TrackPointExtension>
            <ns3:atemp>19.0</ns3:atemp>
          </ns3:TrackPointExtension>
        </extensions>
      </trkpt>
      <trkpt lat="42.61186293326318264007568359375" lon="19.97090128250420093536376953125">
        <ele>1179.800048828125</ele>
        <time>2026-06-15T15:46:32.000Z</time>
        <extensions>
          <ns3:TrackPointExtension>
            <ns3:atemp>19.0</ns3:atemp>
          </ns3:TrackPointExtension>
        </extensions>
      </trkpt>
      <trkpt lat="42.611860670149326324462890625" lon="19.9708098359405994415283203125">
        <ele>1179</ele>
        <time>2026-06-15T15:46:33.000Z</time>
        <extensions>
          <ns3:TrackPointExtension>
            <ns3:atemp>19.0</ns3:atemp>
          </ns3:TrackPointExtension>
        </extensions>
      </trkpt>
      <trkpt lat="42.61186678893864154815673828125" lon="19.970712102949619293212890625">
        <ele>1178.4000244140625</ele>
        <time>2026-06-15T15:46:34.000Z</time>
        <extensions>
          <ns3:TrackPointExtension>
            <ns3:atemp>19.0</ns3:atemp>
          </ns3:TrackPointExtension>
        </extensions>
      </trkpt>
      <trkpt lat="42.61187936179339885711669921875" lon="19.9706090055406093597412109375">
        <ele>1177.5999755859375</ele>
        <time>2026-06-15T15:46:35.000Z</time>
        <extensions>
          <ns3:TrackPointExtension>
            <ns3:atemp>19.0</ns3:atemp>
          </ns3:TrackPointExtension>
        </extensions>
      </trkpt>
      <trkpt lat="42.6118930242955684661865234375" lon="19.97050565667450428009033203125">
        <ele>1177</ele>
        <time>2026-06-15T15:46:36.000Z</time>
        <extensions>
          <ns3:TrackPointExtension>
            <ns3:atemp>19.0</ns3:atemp>
          </ns3:TrackPointExtension>
        </extensions>
      </trkpt>
      <trkpt lat="42.61190350167453289031982421875" lon="19.9703994579613208770751953125">
        <ele>1176.199951171875</ele>
        <time>2026-06-15T15:46:37.000Z</time>
        <extensions>
          <ns3:TrackPointExtension>
            <ns3:atemp>19.0</ns3:atemp>
          </ns3:TrackPointExtension>
        </extensions>
      </trkpt>
      <trkpt lat="42.61190786026418209075927734375" lon="19.97028538025915622711181640625">
        <ele>1175.800048828125</ele>
        <time>2026-06-15T15:46:38.000Z</time>
        <extensions>
          <ns3:TrackPointExtension>
            <ns3:atemp>19.0</ns3:atemp>
          </ns3:TrackPointExtension>
        </extensions>
      </trkpt>
      <trkpt lat="42.61191976256668567657470703125" lon="19.97017876245081424713134765625">
        <ele>1175.199951171875</ele>
        <time>2026-06-15T15:46:39.000Z</time>
        <extensions>
          <ns3:TrackPointExtension>
            <ns3:atemp>19.0</ns3:atemp>
          </ns3:TrackPointExtension>
        </extensions>
      </trkpt>
      <trkpt lat="42.61194205842912197113037109375" lon="19.970074407756328582763671875">
        <ele>1174.4000244140625</ele>
        <time>2026-06-15T15:46:40.000Z</time>
        <extensions>
          <ns3:TrackPointExtension>
            <ns3:atemp>19.0</ns3:atemp>
          </ns3:TrackPointExtension>
        </extensions>
      </trkpt>
      <trkpt lat="42.6119630970060825347900390625" lon="19.96997390873730182647705078125">
        <ele>1173.800048828125</ele>
        <time>2026-06-15T15:46:41.000Z</time>
        <extensions>
          <ns3:TrackPointExtension>
            <ns3:atemp>19.0</ns3:atemp>
          </ns3:TrackPointExtension>
        </extensions>
      </trkpt>
      <trkpt lat="42.61197927407920360565185546875" lon="19.96988539583981037139892578125">
        <ele>1173.199951171875</ele>
        <time>2026-06-15T15:46:42.000Z</time>
        <extensions>
          <ns3:TrackPointExtension>
            <ns3:atemp>19.0</ns3:atemp>
          </ns3:TrackPointExtension>
        </extensions>
      </trkpt>
      <trkpt lat="42.611983716487884521484375" lon="19.9698060192167758941650390625">
        <ele>1172.4000244140625</ele>
        <time>2026-06-15T15:46:43.000Z</time>
        <extensions>
          <ns3:TrackPointExtension>
            <ns3:atemp>19.0</ns3:atemp>
          </ns3:TrackPointExtension>
        </extensions>
      </trkpt>
      <trkpt lat="42.61198983527719974517822265625" lon="19.9697285704314708709716796875">
        <ele>1171.800048828125</ele>
        <time>2026-06-15T15:46:44.000Z</time>
        <extensions>
          <ns3:TrackPointExtension>
            <ns3:atemp>19.0</ns3:atemp>
          </ns3:TrackPointExtension>
        </extensions>
      </trkpt>
      <trkpt lat="42.61200659908354282379150390625" lon="19.9696578271687030792236328125">
        <ele>1171.4000244140625</ele>
        <time>2026-06-15T15:46:45.000Z</time>
        <extensions>
          <ns3:TrackPointExtension>
            <ns3:atemp>19.0</ns3:atemp>
          </ns3:TrackPointExtension>
        </extensions>
      </trkpt>
      <trkpt lat="42.61203861795365810394287109375" lon="19.96958264149725437164306640625">
        <ele>1171</ele>
        <time>2026-06-15T15:46:46.000Z</time>
        <extensions>
          <ns3:TrackPointExtension>
            <ns3:atemp>19.0</ns3:atemp>
          </ns3:TrackPointExtension>
        </extensions>
      </trkpt>
      <trkpt lat="42.6120723970234394073486328125" lon="19.96950183995068073272705078125">
        <ele>1170.4000244140625</ele>
        <time>2026-06-15T15:46:47.000Z</time>
        <extensions>
          <ns3:TrackPointExtension>
            <ns3:atemp>19.0</ns3:atemp>
          </ns3:TrackPointExtension>
        </extensions>
      </trkpt>
      <trkpt lat="42.61208538897335529327392578125" lon="19.96941014192998409271240234375">
        <ele>1169.5999755859375</ele>
        <time>2026-06-15T15:46:48.000Z</time>
        <extensions>
          <ns3:TrackPointExtension>
            <ns3:atemp>19.0</ns3:atemp>
          </ns3:TrackPointExtension>
        </extensions>
      </trkpt>
      <trkpt lat="42.61208287440240383148193359375" lon="19.96932313777506351470947265625">
        <ele>1169</ele>
        <time>2026-06-15T15:46:49.000Z</time>
        <extensions>
          <ns3:TrackPointExtension>
            <ns3:atemp>19.0</ns3:atemp>
          </ns3:TrackPointExtension>
        </extensions>
      </trkpt>
      <trkpt lat="42.6120789349079132080078125" lon="19.96924166567623615264892578125">
        <ele>1168.199951171875</ele>
        <time>2026-06-15T15:46:50.000Z</time>
        <extensions>
          <ns3:TrackPointExtension>
            <ns3:atemp>19.0</ns3:atemp>
          </ns3:TrackPointExtension>
        </extensions>
      </trkpt>
      <trkpt lat="42.6120817847549915313720703125" lon="19.969153739511966705322265625">
        <ele>1167.5999755859375</ele>
        <time>2026-06-15T15:46:51.000Z</time>
        <extensions>
          <ns3:TrackPointExtension>
            <ns3:atemp>19.0</ns3:atemp>
          </ns3:TrackPointExtension>
        </extensions>
      </trkpt>
      <trkpt lat="42.61208857409656047821044921875" lon="19.96905961073935031890869140625">
        <ele>1167</ele>
        <time>2026-06-15T15:46:52.000Z</time>
        <extensions>
          <ns3:TrackPointExtension>
            <ns3:atemp>19.0</ns3:atemp>
          </ns3:TrackPointExtension>
        </extensions>
      </trkpt>
      <trkpt lat="42.612098045647144317626953125" lon="19.96895215474069118499755859375">
        <ele>1166</ele>
        <time>2026-06-15T15:46:53.000Z</time>
        <extensions>
          <ns3:TrackPointExtension>
            <ns3:atemp>19.0</ns3:atemp>
          </ns3:TrackPointExtension>
        </extensions>
      </trkpt>
      <trkpt lat="42.61211154051125049591064453125" lon="19.9688464589416980743408203125">
        <ele>1165.199951171875</ele>
        <time>2026-06-15T15:46:54.000Z</time>
        <extensions>
          <ns3:TrackPointExtension>
            <ns3:atemp>19.0</ns3:atemp>
          </ns3:TrackPointExtension>
        </extensions>
      </trkpt>
      <trkpt lat="42.61212612502276897430419921875" lon="19.9687331356108188629150390625">
        <ele>1164.5999755859375</ele>
        <time>2026-06-15T15:46:55.000Z</time>
        <extensions>
          <ns3:TrackPointExtension>
            <ns3:atemp>19.0</ns3:atemp>
          </ns3:TrackPointExtension>
        </extensions>
      </trkpt>
      <trkpt lat="42.612153030931949615478515625" lon="19.96862408705055713653564453125">
        <ele>1163.800048828125</ele>
        <time>2026-06-15T15:46:56.000Z</time>
        <extensions>
          <ns3:TrackPointExtension>
            <ns3:atemp>19.0</ns3:atemp>
          </ns3:TrackPointExtension>
        </extensions>
      </trkpt>
      <trkpt lat="42.612192928791046142578125" lon="19.968533478677272796630859375">
        <ele>1163.199951171875</ele>
        <time>2026-06-15T15:46:57.000Z</time>
        <extensions>
          <ns3:TrackPointExtension>
            <ns3:atemp>19.0</ns3:atemp>
          </ns3:TrackPointExtension>
        </extensions>
      </trkpt>
      <trkpt lat="42.6122346706688404083251953125" lon="19.9684498272836208343505859375">
        <ele>1162.800048828125</ele>
        <time>2026-06-15T15:46:58.000Z</time>
        <extensions>
          <ns3:TrackPointExtension>
            <ns3:atemp>19.0</ns3:atemp>
          </ns3:TrackPointExtension>
        </extensions>
      </trkpt>
      <trkpt lat="42.6122584752738475799560546875" lon="19.968371205031871795654296875">
        <ele>1162.4000244140625</ele>
        <time>2026-06-15T15:46:59.000Z</time>
        <extensions>
          <ns3:TrackPointExtension>
            <ns3:atemp>19.0</ns3:atemp>
          </ns3:TrackPointExtension>
        </extensions>
      </trkpt>
      <trkpt lat="42.6122665219008922576904296875" lon="19.96829710900783538818359375">
        <ele>1162.199951171875</ele>
        <time>2026-06-15T15:47:00.000Z</time>
        <extensions>
          <ns3:TrackPointExtension>
            <ns3:atemp>19.0</ns3:atemp>
          </ns3:TrackPointExtension>
        </extensions>
      </trkpt>
      <trkpt lat="42.61226199567317962646484375" lon="19.9682191573083400726318359375">
        <ele>1162</ele>
        <time>2026-06-15T15:47:01.000Z</time>
        <extensions>
          <ns3:TrackPointExtension>
            <ns3:atemp>19.0</ns3:atemp>
          </ns3:TrackPointExtension>
        </extensions>
      </trkpt>
      <trkpt lat="42.61225529015064239501953125" lon="19.9681381881237030029296875">
        <ele>1162</ele>
        <time>2026-06-15T15:47:02.000Z</time>
        <extensions>
          <ns3:TrackPointExtension>
            <ns3:atemp>19.0</ns3:atemp>
          </ns3:TrackPointExtension>
        </extensions>
      </trkpt>
      <trkpt lat="42.61224179528653621673583984375" lon="19.96805394999682903289794921875">
        <ele>1162</ele>
        <time>2026-06-15T15:47:03.000Z</time>
        <extensions>
          <ns3:TrackPointExtension>
            <ns3:atemp>19.0</ns3:atemp>
          </ns3:TrackPointExtension>
        </extensions>
      </trkpt>
      <trkpt lat="42.61221530847251415252685546875" lon="19.96796325780451297760009765625">
        <ele>1161.5999755859375</ele>
        <time>2026-06-15T15:47:04.000Z</time>
        <extensions>
          <ns3:TrackPointExtension>
            <ns3:atemp>19.0</ns3:atemp>
          </ns3:TrackPointExtension>
        </extensions>
      </trkpt>
      <trkpt lat="42.61218882165849208831787109375" lon="19.96787373907864093780517578125">
        <ele>1161.4000244140625</ele>
        <time>2026-06-15T15:47:05.000Z</time>
        <extensions>
          <ns3:TrackPointExtension>
            <ns3:atemp>19.0</ns3:atemp>
          </ns3:TrackPointExtension>
        </extensions>
      </trkpt>
      <trkpt lat="42.612160407006740570068359375" lon="19.96777952648699283599853515625">
        <ele>1160.800048828125</ele>
        <time>2026-06-15T15:47:06.000Z</time>
        <extensions>
          <ns3:TrackPointExtension>
            <ns3:atemp>19.0</ns3:atemp>
          </ns3:TrackPointExtension>
        </extensions>
      </trkpt>
      <trkpt lat="42.61214087717235088348388671875" lon="19.9676783569157123565673828125">
        <ele>1160.199951171875</ele>
        <time>2026-06-15T15:47:07.000Z</time>
        <extensions>
          <ns3:TrackPointExtension>
            <ns3:atemp>19.0</ns3:atemp>
          </ns3:TrackPointExtension>
        </extensions>
      </trkpt>
      <trkpt lat="42.612139619886875152587890625" lon="19.96758188121020793914794921875">
        <ele>1159.5999755859375</ele>
        <time>2026-06-15T15:47:08.000Z</time>
        <extensions>
          <ns3:TrackPointExtension>
            <ns3:atemp>19.0</ns3:atemp>
          </ns3:TrackPointExtension>
        </extensions>
      </trkpt>
      <trkpt lat="42.6121474988758563995361328125" lon="19.9674882553517818450927734375">
        <ele>1159.199951171875</ele>
        <time>2026-06-15T15:47:09.000Z</time>
        <extensions>
          <ns3:TrackPointExtension>
            <ns3:atemp>19.0</ns3:atemp>
          </ns3:TrackPointExtension>
        </extensions>
      </trkpt>
      <trkpt lat="42.61215646751224994659423828125" lon="19.96739714406430721282958984375">
        <ele>1158.5999755859375</ele>
        <time>2026-06-15T15:47:10.000Z</time>
        <extensions>
          <ns3:TrackPointExtension>
            <ns3:atemp>19.0</ns3:atemp>
          </ns3:TrackPointExtension>
        </extensions>
      </trkpt>
      <trkpt lat="42.61216283775866031646728515625" lon="19.96731349267065525054931640625">
        <ele>1158.199951171875</ele>
        <time>2026-06-15T15:47:11.000Z</time>
        <extensions>
          <ns3:TrackPointExtension>
            <ns3:atemp>19.0</ns3:atemp>
          </ns3:TrackPointExtension>
        </extensions>
      </trkpt>
      <trkpt lat="42.61216317303478717803955078125" lon="19.967224560678005218505859375">
        <ele>1158</ele>
        <time>2026-06-15T15:47:12.000Z</time>
        <extensions>
          <ns3:TrackPointExtension>
            <ns3:atemp>19.0</ns3:atemp>
          </ns3:TrackPointExtension>
        </extensions>
      </trkpt>
      <trkpt lat="42.61215663515031337738037109375" lon="19.967136718332767486572265625">
        <ele>1157.800048828125</ele>
        <time>2026-06-15T15:47:13.000Z</time>
        <extensions>
          <ns3:TrackPointExtension>
            <ns3:atemp>19.0</ns3:atemp>
          </ns3:TrackPointExtension>
        </extensions>
      </trkpt>
      <trkpt lat="42.61214691214263439178466796875" lon="19.96704719960689544677734375">
        <ele>1157.5999755859375</ele>
        <time>2026-06-15T15:47:14.000Z</time>
        <extensions>
          <ns3:TrackPointExtension>
            <ns3:atemp>19.0</ns3:atemp>
          </ns3:TrackPointExtension>
        </extensions>
      </trkpt>
      <trkpt lat="42.61213995516300201416015625" lon="19.96696002781391143798828125">
        <ele>1157.5999755859375</ele>
        <time>2026-06-15T15:47:15.000Z</time>
        <extensions>
          <ns3:TrackPointExtension>
            <ns3:atemp>19.0</ns3:atemp>
          </ns3:TrackPointExtension>
        </extensions>
      </trkpt>
      <trkpt lat="42.61213987134397029876708984375" lon="19.96688031591475009918212890625">
        <ele>1157.4000244140625</ele>
        <time>2026-06-15T15:47:16.000Z</time>
        <extensions>
          <ns3:TrackPointExtension>
            <ns3:atemp>19.0</ns3:atemp>
          </ns3:TrackPointExtension>
        </extensions>
      </trkpt>
      <trkpt lat="42.61214070953428745269775390625" lon="19.966803453862667083740234375">
        <ele>1157.199951171875</ele>
        <time>2026-06-15T15:47:17.000Z</time>
        <extensions>
          <ns3:TrackPointExtension>
            <ns3:atemp>19.0</ns3:atemp>
          </ns3:TrackPointExtension>
        </extensions>
      </trkpt>
      <trkpt lat="42.6121371053159236907958984375" lon="19.96672323904931545257568359375">
        <ele>1157.199951171875</ele>
        <time>2026-06-15T15:47:18.000Z</time>
        <extensions>
          <ns3:TrackPointExtension>
            <ns3:atemp>19.0</ns3:atemp>
          </ns3:TrackPointExtension>
        </extensions>
      </trkpt>
      <trkpt lat="42.61213568039238452911376953125" lon="19.9666436947882175445556640625">
        <ele>1157</ele>
        <time>2026-06-15T15:47:19.000Z</time>
        <extensions>
          <ns3:TrackPointExtension>
            <ns3:atemp>19.0</ns3:atemp>
          </ns3:TrackPointExtension>
        </extensions>
      </trkpt>
      <trkpt lat="42.6121303997933864593505859375" lon="19.96656465344130992889404296875">
        <ele>1156.800048828125</ele>
        <time>2026-06-15T15:47:20.000Z</time>
        <extensions>
          <ns3:TrackPointExtension>
            <ns3:atemp>19.0</ns3:atemp>
          </ns3:TrackPointExtension>
        </extensions>
      </trkpt>
      <trkpt lat="42.61212243698537349700927734375" lon="19.96648737229406833648681640625">
        <ele>1156.5999755859375</ele>
        <time>2026-06-15T15:47:21.000Z</time>
        <extensions>
          <ns3:TrackPointExtension>
            <ns3:atemp>19.0</ns3:atemp>
          </ns3:TrackPointExtension>
        </extensions>
      </trkpt>
      <trkpt lat="42.61211103759706020355224609375" lon="19.96641562320291996002197265625">
        <ele>1156.5999755859375</ele>
        <time>2026-06-15T15:47:22.000Z</time>
        <extensions>
          <ns3:TrackPointExtension>
            <ns3:atemp>19.0</ns3:atemp>
          </ns3:TrackPointExtension>
        </extensions>
      </trkpt>
      <trkpt lat="42.6120962016284465789794921875" lon="19.96634772978723049163818359375">
        <ele>1156.5999755859375</ele>
        <time>2026-06-15T15:47:23.000Z</time>
        <extensions>
          <ns3:TrackPointExtension>
            <ns3:atemp>19.0</ns3:atemp>
          </ns3:TrackPointExtension>
        </extensions>
      </trkpt>
      <trkpt lat="42.612077929079532623291015625" lon="19.96627883054316043853759765625">
        <ele>1156.5999755859375</ele>
        <time>2026-06-15T15:47:24.000Z</time>
        <extensions>
          <ns3:TrackPointExtension>
            <ns3:atemp>19.0</ns3:atemp>
          </ns3:TrackPointExtension>
        </extensions>
      </trkpt>
      <trkpt lat="42.612058818340301513671875" lon="19.9662121944129467010498046875">
        <ele>1156.4000244140625</ele>
        <time>2026-06-15T15:47:25.000Z</time>
        <extensions>
          <ns3:TrackPointExtension>
            <ns3:atemp>19.0</ns3:atemp>
          </ns3:TrackPointExtension>
        </extensions>
      </trkpt>
      <trkpt lat="42.6120378635823726654052734375" lon="19.9661411158740520477294921875">
        <ele>1156.199951171875</ele>
        <time>2026-06-15T15:47:26.000Z</time>
        <extensions>
          <ns3:TrackPointExtension>
            <ns3:atemp>19.0</ns3:atemp>
          </ns3:TrackPointExtension>
        </extensions>
      </trkpt>
      <trkpt lat="42.6120157353579998016357421875" lon="19.9660626612603664398193359375">
        <ele>1156</ele>
        <time>2026-06-15T15:47:27.000Z</time>
        <extensions>
          <ns3:TrackPointExtension>
            <ns3:atemp>19.0</ns3:atemp>
          </ns3:TrackPointExtension>
        </extensions>
      </trkpt>
      <trkpt lat="42.61199234984815120697021484375" lon="19.9659870564937591552734375">
        <ele>1155.800048828125</ele>
        <time>2026-06-15T15:47:28.000Z</time>
        <extensions>
          <ns3:TrackPointExtension>
            <ns3:atemp>19.0</ns3:atemp>
          </ns3:TrackPointExtension>
        </extensions>
      </trkpt>
      <trkpt lat="42.6119718141853809356689453125" lon="19.96590516529977321624755859375">
        <ele>1155.5999755859375</ele>
        <time>2026-06-15T15:47:29.000Z</time>
        <extensions>
          <ns3:TrackPointExtension>
            <ns3:atemp>19.0</ns3:atemp>
          </ns3:TrackPointExtension>
        </extensions>
      </trkpt>
      <trkpt lat="42.61195220053195953369140625" lon="19.9658199213445186614990234375">
        <ele>1155.4000244140625</ele>
        <time>2026-06-15T15:47:30.000Z</time>
        <extensions>
          <ns3:TrackPointExtension>
            <ns3:atemp>19.0</ns3:atemp>
          </ns3:TrackPointExtension>
        </extensions>
      </trkpt>
      <trkpt lat="42.6119342632591724395751953125" lon="19.96574155054986476898193359375">
        <ele>1155.199951171875</ele>
        <time>2026-06-15T15:47:31.000Z</time>
        <extensions>
          <ns3:TrackPointExtension>
            <ns3:atemp>19.0</ns3:atemp>
          </ns3:TrackPointExtension>
        </extensions>
      </trkpt>
      <trkpt lat="42.61191540397703647613525390625" lon="19.96566846035420894622802734375">
        <ele>1155</ele>
        <time>2026-06-15T15:47:32.000Z</time>
        <extensions>
          <ns3:TrackPointExtension>
            <ns3:atemp>19.0</ns3:atemp>
          </ns3:TrackPointExtension>
        </extensions>
      </trkpt>
      <trkpt lat="42.6118853129446506500244140625" lon="19.9656006507575511932373046875">
        <ele>1154.800048828125</ele>
        <time>2026-06-15T15:47:33.000Z</time>
        <extensions>
          <ns3:TrackPointExtension>
            <ns3:atemp>19.0</ns3:atemp>
          </ns3:TrackPointExtension>
        </extensions>
      </trkpt>
      <trkpt lat="42.61185119859874248504638671875" lon="19.9655386246740818023681640625">
        <ele>1154.5999755859375</ele>
        <time>2026-06-15T15:47:34.000Z</time>
        <extensions>
          <ns3:TrackPointExtension>
            <ns3:atemp>19.0</ns3:atemp>
          </ns3:TrackPointExtension>
        </extensions>
      </trkpt>
      <trkpt lat="42.611815743148326873779296875" lon="19.96547634713351726531982421875">
        <ele>1154.5999755859375</ele>
        <time>2026-06-15T15:47:35.000Z</time>
        <extensions>
          <ns3:TrackPointExtension>
            <ns3:atemp>19.0</ns3:atemp>
          </ns3:TrackPointExtension>
        </extensions>
      </trkpt>
      <trkpt lat="42.6117718219757080078125" lon="19.96541683562099933624267578125">
        <ele>1154.5999755859375</ele>
        <time>2026-06-15T15:47:36.000Z</time>
        <extensions>
          <ns3:TrackPointExtension>
            <ns3:atemp>19.0</ns3:atemp>
          </ns3:TrackPointExtension>
        </extensions>
      </trkpt>
      <trkpt lat="42.61172463186085224151611328125" lon="19.96535816229879856109619140625">
        <ele>1154.5999755859375</ele>
        <time>2026-06-15T15:47:37.000Z</time>
        <extensions>
          <ns3:TrackPointExtension>
            <ns3:atemp>19.0</ns3:atemp>
          </ns3:TrackPointExtension>
        </extensions>
      </trkpt>
      <trkpt lat="42.61167970485985279083251953125" lon="19.96529580093920230865478515625">
        <ele>1154.5999755859375</ele>
        <time>2026-06-15T15:47:38.000Z</time>
        <extensions>
          <ns3:TrackPointExtension>
            <ns3:atemp>19.0</ns3:atemp>
          </ns3:TrackPointExtension>
        </extensions>
      </trkpt>
      <trkpt lat="42.6116388849914073944091796875" lon="19.965233020484447479248046875">
        <ele>1154.5999755859375</ele>
        <time>2026-06-15T15:47:39.000Z</time>
        <extensions>
          <ns3:TrackPointExtension>
            <ns3:atemp>19.0</ns3:atemp>
          </ns3:TrackPointExtension>
        </extensions>
      </trkpt>
      <trkpt lat="42.6116036809980869293212890625" lon="19.96516688726842403411865234375">
        <ele>1154.5999755859375</ele>
        <time>2026-06-15T15:47:40.000Z</time>
        <extensions>
          <ns3:TrackPointExtension>
            <ns3:atemp>19.0</ns3:atemp>
          </ns3:TrackPointExtension>
        </extensions>
      </trkpt>
      <trkpt lat="42.61157543398439884185791015625" lon="19.9651027657091617584228515625">
        <ele>1154.5999755859375</ele>
        <time>2026-06-15T15:47:41.000Z</time>
        <extensions>
          <ns3:TrackPointExtension>
            <ns3:atemp>19.0</ns3:atemp>
          </ns3:TrackPointExtension>
        </extensions>
      </trkpt>
      <trkpt lat="42.61155389249324798583984375" lon="19.96503495611250400543212890625">
        <ele>1154.5999755859375</ele>
        <time>2026-06-15T15:47:42.000Z</time>
        <extensions>
          <ns3:TrackPointExtension>
            <ns3:atemp>19.0</ns3:atemp>
          </ns3:TrackPointExtension>
        </extensions>
      </trkpt>
      <trkpt lat="42.61153419502079486846923828125" lon="19.9649699963629245758056640625">
        <ele>1154.800048828125</ele>
        <time>2026-06-15T15:47:43.000Z</time>
        <extensions>
          <ns3:TrackPointExtension>
            <ns3:atemp>19.0</ns3:atemp>
          </ns3:TrackPointExtension>
        </extensions>
      </trkpt>
      <trkpt lat="42.6115144975483417510986328125" lon="19.96490537188947200775146484375">
        <ele>1155</ele>
        <time>2026-06-15T15:47:44.000Z</time>
        <extensions>
          <ns3:TrackPointExtension>
            <ns3:atemp>19.0</ns3:atemp>
          </ns3:TrackPointExtension>
        </extensions>
      </trkpt>
      <trkpt lat="42.61149949394166469573974609375" lon="19.96483949013054370880126953125">
        <ele>1155.199951171875</ele>
        <time>2026-06-15T15:47:45.000Z</time>
        <extensions>
          <ns3:TrackPointExtension>
            <ns3:atemp>19.0</ns3:atemp>
          </ns3:TrackPointExtension>
        </extensions>
      </trkpt>
      <trkpt lat="42.61148608289659023284912109375" lon="19.964771680533885955810546875">
        <ele>1155.4000244140625</ele>
        <time>2026-06-15T15:47:46.000Z</time>
        <extensions>
          <ns3:TrackPointExtension>
            <ns3:atemp>19.0</ns3:atemp>
          </ns3:TrackPointExtension>
        </extensions>
      </trkpt>
      <trkpt lat="42.61147208511829376220703125" lon="19.9647037871181964874267578125">
        <ele>1155.800048828125</ele>
        <time>2026-06-15T15:47:47.000Z</time>
        <extensions>
          <ns3:TrackPointExtension>
            <ns3:atemp>19.0</ns3:atemp>
          </ns3:TrackPointExtension>
        </extensions>
      </trkpt>
      <trkpt lat="42.61146026663482189178466796875" lon="19.96462784707546234130859375">
        <ele>1155.800048828125</ele>
        <time>2026-06-15T15:47:48.000Z</time>
        <extensions>
          <ns3:TrackPointExtension>
            <ns3:atemp>19.0</ns3:atemp>
          </ns3:TrackPointExtension>
        </extensions>
      </trkpt>
      <trkpt lat="42.61145062744617462158203125" lon="19.96454930864274501800537109375">
        <ele>1155.800048828125</ele>
        <time>2026-06-15T15:47:49.000Z</time>
        <extensions>
          <ns3:TrackPointExtension>
            <ns3:atemp>19.0</ns3:atemp>
          </ns3:TrackPointExtension>
        </extensions>
      </trkpt>
      <trkpt lat="42.61144123971462249755859375" lon="19.96447605080902576446533203125">
        <ele>1155.800048828125</ele>
        <time>2026-06-15T15:47:50.000Z</time>
        <extensions>
          <ns3:TrackPointExtension>
            <ns3:atemp>19.0</ns3:atemp>
          </ns3:TrackPointExtension>
        </extensions>
      </trkpt>
      <trkpt lat="42.61143545620143413543701171875" lon="19.96440446935594081878662109375">
        <ele>1155.800048828125</ele>
        <time>2026-06-15T15:47:51.000Z</time>
        <extensions>
          <ns3:TrackPointExtension>
            <ns3:atemp>19.0</ns3:atemp>
          </ns3:TrackPointExtension>
        </extensions>
      </trkpt>
      <trkpt lat="42.61143160052597522735595703125" lon="19.96433280408382415771484375">
        <ele>1155.5999755859375</ele>
        <time>2026-06-15T15:47:52.000Z</time>
        <extensions>
          <ns3:TrackPointExtension>
            <ns3:atemp>19.0</ns3:atemp>
          </ns3:TrackPointExtension>
        </extensions>
      </trkpt>
      <trkpt lat="42.61143009178340435028076171875" lon="19.9642570316791534423828125">
        <ele>1155.4000244140625</ele>
        <time>2026-06-15T15:47:53.000Z</time>
        <extensions>
          <ns3:TrackPointExtension>
            <ns3:atemp>19.0</ns3:atemp>
          </ns3:TrackPointExtension>
        </extensions>
      </trkpt>
      <trkpt lat="42.6114323548972606658935546875" lon="19.9641737155616283416748046875">
        <ele>1155.199951171875</ele>
        <time>2026-06-15T15:47:54.000Z</time>
        <extensions>
          <ns3:TrackPointExtension>
            <ns3:atemp>19.0</ns3:atemp>
          </ns3:TrackPointExtension>
        </extensions>
      </trkpt>
      <trkpt lat="42.611436210572719573974609375" lon="19.96408796869218349456787109375">
        <ele>1154.800048828125</ele>
        <time>2026-06-15T15:47:55.000Z</time>
        <extensions>
          <ns3:TrackPointExtension>
            <ns3:atemp>19.0</ns3:atemp>
          </ns3:TrackPointExtension>
        </extensions>
      </trkpt>
      <trkpt lat="42.6114410720765590667724609375" lon="19.96400230564177036285400390625">
        <ele>1154.5999755859375</ele>
        <time>2026-06-15T15:47:56.000Z</time>
        <extensions>
          <ns3:TrackPointExtension>
            <ns3:atemp>19.0</ns3:atemp>
          </ns3:TrackPointExtension>
        </extensions>
      </trkpt>
      <trkpt lat="42.6114447601139545440673828125" lon="19.963915385305881500244140625">
        <ele>1154.199951171875</ele>
        <time>2026-06-15T15:47:57.000Z</time>
        <extensions>
          <ns3:TrackPointExtension>
            <ns3:atemp>19.0</ns3:atemp>
          </ns3:TrackPointExtension>
        </extensions>
      </trkpt>
      <trkpt lat="42.61145465075969696044921875" lon="19.96383148245513439178466796875">
        <ele>1154</ele>
        <time>2026-06-15T15:47:58.000Z</time>
        <extensions>
          <ns3:TrackPointExtension>
            <ns3:atemp>19.0</ns3:atemp>
          </ns3:TrackPointExtension>
        </extensions>
      </trkpt>
      <trkpt lat="42.61146630160510540008544921875" lon="19.96375344693660736083984375">
        <ele>1153.800048828125</ele>
        <time>2026-06-15T15:47:59.000Z</time>
        <extensions>
          <ns3:TrackPointExtension>
            <ns3:atemp>19.0</ns3:atemp>
          </ns3:TrackPointExtension>
        </extensions>
      </trkpt>
      <trkpt lat="42.6114786230027675628662109375" lon="19.96367608197033405303955078125">
        <ele>1153.4000244140625</ele>
        <time>2026-06-15T15:48:00.000Z</time>
        <extensions>
          <ns3:TrackPointExtension>
            <ns3:atemp>19.0</ns3:atemp>
          </ns3:TrackPointExtension>
        </extensions>
      </trkpt>
      <trkpt lat="42.6114963926374912261962890625" lon="19.96360248886048793792724609375">
        <ele>1153.199951171875</ele>
        <time>2026-06-15T15:48:01.000Z</time>
        <extensions>
          <ns3:TrackPointExtension>
            <ns3:atemp>19.0</ns3:atemp>
          </ns3:TrackPointExtension>
        </extensions>
      </trkpt>
      <trkpt lat="42.6115195266902446746826171875" lon="19.963527806103229522705078125">
        <ele>1153</ele>
        <time>2026-06-15T15:48:02.000Z</time>
        <extensions>
          <ns3:TrackPointExtension>
            <ns3:atemp>19.0</ns3:atemp>
          </ns3:TrackPointExtension>
        </extensions>
      </trkpt>
      <trkpt lat="42.611542828381061553955078125" lon="19.9634508602321147918701171875">
        <ele>1153.199951171875</ele>
        <time>2026-06-15T15:48:03.000Z</time>
        <extensions>
          <ns3:TrackPointExtension>
            <ns3:atemp>19.0</ns3:atemp>
          </ns3:TrackPointExtension>
        </extensions>
      </trkpt>
      <trkpt lat="42.611559592187404632568359375" lon="19.96338087134063243865966796875">
        <ele>1153</ele>
        <time>2026-06-15T15:48:04.000Z</time>
        <extensions>
          <ns3:TrackPointExtension>
            <ns3:atemp>19.0</ns3:atemp>
          </ns3:TrackPointExtension>
        </extensions>
      </trkpt>
      <trkpt lat="42.611576355993747711181640625" lon="19.96330426074564456939697265625">
        <ele>1153.199951171875</ele>
        <time>2026-06-15T15:48:05.000Z</time>
        <extensions>
          <ns3:TrackPointExtension>
            <ns3:atemp>19.0</ns3:atemp>
          </ns3:TrackPointExtension>
        </extensions>
      </trkpt>
      <trkpt lat="42.61158406734466552734375" lon="19.96322731487452983856201171875">
        <ele>1153.199951171875</ele>
        <time>2026-06-15T15:48:06.000Z</time>
        <extensions>
          <ns3:TrackPointExtension>
            <ns3:atemp>19.0</ns3:atemp>
          </ns3:TrackPointExtension>
        </extensions>
      </trkpt>
      <trkpt lat="42.6115875877439975738525390625" lon="19.96314768679440021514892578125">
        <ele>1153</ele>
        <time>2026-06-15T15:48:07.000Z</time>
        <extensions>
          <ns3:TrackPointExtension>
            <ns3:atemp>19.0</ns3:atemp>
          </ns3:TrackPointExtension>
        </extensions>
      </trkpt>
      <trkpt lat="42.61158415116369724273681640625" lon="19.96307258494198322296142578125">
        <ele>1153</ele>
        <time>2026-06-15T15:48:08.000Z</time>
        <extensions>
          <ns3:TrackPointExtension>
            <ns3:atemp>19.0</ns3:atemp>
          </ns3:TrackPointExtension>
        </extensions>
      </trkpt>
      <trkpt lat="42.61158071458339691162109375" lon="19.96300242841243743896484375">
        <ele>1153</ele>
        <time>2026-06-15T15:48:09.000Z</time>
        <extensions>
          <ns3:TrackPointExtension>
            <ns3:atemp>19.0</ns3:atemp>
          </ns3:TrackPointExtension>
        </extensions>
      </trkpt>
      <trkpt lat="42.61157694272696971893310546875" lon="19.96293193660676479339599609375">
        <ele>1153.199951171875</ele>
        <time>2026-06-15T15:48:10.000Z</time>
        <extensions>
          <ns3:TrackPointExtension>
            <ns3:atemp>19.0</ns3:atemp>
          </ns3:TrackPointExtension>
        </extensions>
      </trkpt>
      <trkpt lat="42.61157400906085968017578125" lon="19.9628569185733795166015625">
        <ele>1153.199951171875</ele>
        <time>2026-06-15T15:48:11.000Z</time>
        <extensions>
          <ns3:TrackPointExtension>
            <ns3:atemp>19.0</ns3:atemp>
          </ns3:TrackPointExtension>
        </extensions>
      </trkpt>
      <trkpt lat="42.61156403459608554840087890625" lon="19.9627722613513469696044921875">
        <ele>1153.4000244140625</ele>
        <time>2026-06-15T15:48:12.000Z</time>
        <extensions>
          <ns3:TrackPointExtension>
            <ns3:atemp>19.0</ns3:atemp>
          </ns3:TrackPointExtension>
        </extensions>
      </trkpt>
      <trkpt lat="42.611550875008106231689453125" lon="19.96268919669091701507568359375">
        <ele>1153.4000244140625</ele>
        <time>2026-06-15T15:48:13.000Z</time>
        <extensions>
          <ns3:TrackPointExtension>
            <ns3:atemp>19.0</ns3:atemp>
          </ns3:TrackPointExtension>
        </extensions>
      </trkpt>
      <trkpt lat="42.61154861189424991607666015625" lon="19.96260403655469417572021484375">
        <ele>1153.5999755859375</ele>
        <time>2026-06-15T15:48:14.000Z</time>
        <extensions>
          <ns3:TrackPointExtension>
            <ns3:atemp>19.0</ns3:atemp>
          </ns3:TrackPointExtension>
        </extensions>
      </trkpt>
      <trkpt lat="42.61156738735735416412353515625" lon="19.962529353797435760498046875">
        <ele>1153.5999755859375</ele>
        <time>2026-06-15T15:48:15.000Z</time>
        <extensions>
          <ns3:TrackPointExtension>
            <ns3:atemp>19.0</ns3:atemp>
          </ns3:TrackPointExtension>
        </extensions>
      </trkpt>
      <trkpt lat="42.61159186251461505889892578125" lon="19.9624693393707275390625">
        <ele>1153.5999755859375</ele>
        <time>2026-06-15T15:48:16.000Z</time>
        <extensions>
          <ns3:TrackPointExtension>
            <ns3:atemp>19.0</ns3:atemp>
          </ns3:TrackPointExtension>
        </extensions>
      </trkpt>
      <trkpt lat="42.61161851696670055389404296875" lon="19.962407648563385009765625">
        <ele>1153.5999755859375</ele>
        <time>2026-06-15T15:48:17.000Z</time>
        <extensions>
          <ns3:TrackPointExtension>
            <ns3:atemp>19.0</ns3:atemp>
          </ns3:TrackPointExtension>
        </extensions>
      </trkpt>
      <trkpt lat="42.61163863353431224822998046875" lon="19.962351322174072265625">
        <ele>1153.800048828125</ele>
        <time>2026-06-15T15:48:18.000Z</time>
        <extensions>
          <ns3:TrackPointExtension>
            <ns3:atemp>19.0</ns3:atemp>
          </ns3:TrackPointExtension>
        </extensions>
      </trkpt>
      <trkpt lat="42.61164651252329349517822265625" lon="19.9622918106615543365478515625">
        <ele>1154.199951171875</ele>
        <time>2026-06-15T15:48:19.000Z</time>
        <extensions>
          <ns3:TrackPointExtension>
            <ns3:atemp>19.0</ns3:atemp>
          </ns3:TrackPointExtension>
        </extensions>
      </trkpt>
      <trkpt lat="42.611652128398418426513671875" lon="19.9622344784438610076904296875">
        <ele>1154.4000244140625</ele>
        <time>2026-06-15T15:48:20.000Z</time>
        <extensions>
          <ns3:TrackPointExtension>
            <ns3:atemp>19.0</ns3:atemp>
          </ns3:TrackPointExtension>
        </extensions>
      </trkpt>
      <trkpt lat="42.61164776980876922607421875" lon="19.96217253617942333221435546875">
        <ele>1154.5999755859375</ele>
        <time>2026-06-15T15:48:21.000Z</time>
        <extensions>
          <ns3:TrackPointExtension>
            <ns3:atemp>19.0</ns3:atemp>
          </ns3:TrackPointExtension>
        </extensions>
      </trkpt>
      <trkpt lat="42.6116372086107730865478515625" lon="19.96210112236440181732177734375">
        <ele>1154.800048828125</ele>
        <time>2026-06-15T15:48:22.000Z</time>
        <extensions>
          <ns3:TrackPointExtension>
            <ns3:atemp>19.0</ns3:atemp>
          </ns3:TrackPointExtension>
        </extensions>
      </trkpt>
      <trkpt lat="42.61162254028022289276123046875" lon="19.962033145129680633544921875">
        <ele>1155.199951171875</ele>
        <time>2026-06-15T15:48:23.000Z</time>
        <extensions>
          <ns3:TrackPointExtension>
            <ns3:atemp>19.0</ns3:atemp>
          </ns3:TrackPointExtension>
        </extensions>
      </trkpt>
      <trkpt lat="42.61160594411194324493408203125" lon="19.9619675986468791961669921875">
        <ele>1155.4000244140625</ele>
        <time>2026-06-15T15:48:24.000Z</time>
        <extensions>
          <ns3:TrackPointExtension>
            <ns3:atemp>19.0</ns3:atemp>
          </ns3:TrackPointExtension>
        </extensions>
      </trkpt>
      <trkpt lat="42.61158716864883899688720703125" lon="19.96190129779279232025146484375">
        <ele>1155.5999755859375</ele>
        <time>2026-06-15T15:48:25.000Z</time>
        <extensions>
          <ns3:TrackPointExtension>
            <ns3:atemp>19.0</ns3:atemp>
          </ns3:TrackPointExtension>
        </extensions>
      </trkpt>
      <trkpt lat="42.611570991575717926025390625" lon="19.9618301354348659515380859375">
        <ele>1155.800048828125</ele>
        <time>2026-06-15T15:48:26.000Z</time>
        <extensions>
          <ns3:TrackPointExtension>
            <ns3:atemp>19.0</ns3:atemp>
          </ns3:TrackPointExtension>
        </extensions>
      </trkpt>
      <trkpt lat="42.61155615560710430145263671875" lon="19.9617553688585758209228515625">
        <ele>1155.800048828125</ele>
        <time>2026-06-15T15:48:27.000Z</time>
        <extensions>
          <ns3:TrackPointExtension>
            <ns3:atemp>19.0</ns3:atemp>
          </ns3:TrackPointExtension>
        </extensions>
      </trkpt>
      <trkpt lat="42.6115424931049346923828125" lon="19.96167968027293682098388671875">
        <ele>1155.800048828125</ele>
        <time>2026-06-15T15:48:28.000Z</time>
        <extensions>
          <ns3:TrackPointExtension>
            <ns3:atemp>19.0</ns3:atemp>
          </ns3:TrackPointExtension>
        </extensions>
      </trkpt>
      <trkpt lat="42.611527740955352783203125" lon="19.96160843409597873687744140625">
        <ele>1155.800048828125</ele>
        <time>2026-06-15T15:48:29.000Z</time>
        <extensions>
          <ns3:TrackPointExtension>
            <ns3:atemp>19.0</ns3:atemp>
          </ns3:TrackPointExtension>
        </extensions>
      </trkpt>
      <trkpt lat="42.61151391081511974334716796875" lon="19.9615407921373844146728515625">
        <ele>1155.800048828125</ele>
        <time>2026-06-15T15:48:30.000Z</time>
        <extensions>
          <ns3:TrackPointExtension>
            <ns3:atemp>19.0</ns3:atemp>
          </ns3:TrackPointExtension>
        </extensions>
      </trkpt>
      <trkpt lat="42.6115000806748867034912109375" lon="19.96147030033171176910400390625">
        <ele>1155.800048828125</ele>
        <time>2026-06-15T15:48:31.000Z</time>
        <extensions>
          <ns3:TrackPointExtension>
            <ns3:atemp>19.0</ns3:atemp>
          </ns3:TrackPointExtension>
        </extensions>
      </trkpt>
      <trkpt lat="42.61148675344884395599365234375" lon="19.961400814354419708251953125">
        <ele>1155.800048828125</ele>
        <time>2026-06-15T15:48:32.000Z</time>
        <extensions>
          <ns3:TrackPointExtension>
            <ns3:atemp>19.0</ns3:atemp>
          </ns3:TrackPointExtension>
        </extensions>
      </trkpt>
      <trkpt lat="42.61146948672831058502197265625" lon="19.9613309092819690704345703125">
        <ele>1155.800048828125</ele>
        <time>2026-06-15T15:48:33.000Z</time>
        <extensions>
          <ns3:TrackPointExtension>
            <ns3:atemp>19.0</ns3:atemp>
          </ns3:TrackPointExtension>
        </extensions>
      </trkpt>
      <trkpt lat="42.61144903488457202911376953125" lon="19.961265027523040771484375">
        <ele>1155.5999755859375</ele>
        <time>2026-06-15T15:48:34.000Z</time>
        <extensions>
          <ns3:TrackPointExtension>
            <ns3:atemp>19.0</ns3:atemp>
          </ns3:TrackPointExtension>
        </extensions>
      </trkpt>
      <trkpt lat="42.61143042705953121185302734375" lon="19.96119889430701732635498046875">
        <ele>1155.4000244140625</ele>
        <time>2026-06-15T15:48:35.000Z</time>
        <extensions>
          <ns3:TrackPointExtension>
            <ns3:atemp>19.0</ns3:atemp>
          </ns3:TrackPointExtension>
        </extensions>
      </trkpt>
      <trkpt lat="42.6114085502922534942626953125" lon="19.96113083325326442718505859375">
        <ele>1155.199951171875</ele>
        <time>2026-06-15T15:48:36.000Z</time>
        <extensions>
          <ns3:TrackPointExtension>
            <ns3:atemp>19.0</ns3:atemp>
          </ns3:TrackPointExtension>
        </extensions>
      </trkpt>
      <trkpt lat="42.611385919153690338134765625" lon="19.961058162152767181396484375">
        <ele>1155.199951171875</ele>
        <time>2026-06-15T15:48:37.000Z</time>
        <extensions>
          <ns3:TrackPointExtension>
            <ns3:atemp>19.0</ns3:atemp>
          </ns3:TrackPointExtension>
        </extensions>
      </trkpt>
      <trkpt lat="42.611357755959033966064453125" lon="19.960986413061618804931640625">
        <ele>1154.800048828125</ele>
        <time>2026-06-15T15:48:38.000Z</time>
        <extensions>
          <ns3:TrackPointExtension>
            <ns3:atemp>20.0</ns3:atemp>
          </ns3:TrackPointExtension>
        </extensions>
      </trkpt>
      <trkpt lat="42.6113247312605381011962890625" lon="19.96091659180819988250732421875">
        <ele>1154.5999755859375</ele>
        <time>2026-06-15T15:48:39.000Z</time>
        <extensions>
          <ns3:TrackPointExtension>
            <ns3:atemp>20.0</ns3:atemp>
          </ns3:TrackPointExtension>
        </extensions>
      </trkpt>
      <trkpt lat="42.61129514314234256744384765625" lon="19.960850290954113006591796875">
        <ele>1154.199951171875</ele>
        <time>2026-06-15T15:48:40.000Z</time>
        <extensions>
          <ns3:TrackPointExtension>
            <ns3:atemp>20.0</ns3:atemp>
          </ns3:TrackPointExtension>
        </extensions>
      </trkpt>
      <trkpt lat="42.611261866986751556396484375" lon="19.96078231371939182281494140625">
        <ele>1153.800048828125</ele>
        <time>2026-06-15T15:48:41.000Z</time>
        <extensions>
          <ns3:TrackPointExtension>
            <ns3:atemp>20.0</ns3:atemp>
          </ns3:TrackPointExtension>
        </extensions>
      </trkpt>
      <trkpt lat="42.6112286746501922607421875" lon="19.96071676723659038543701171875">
        <ele>1153.4000244140625</ele>
        <time>2026-06-15T15:48:42.000Z</time>
        <extensions>
          <ns3:TrackPointExtension>
            <ns3:atemp>20.0</ns3:atemp>
          </ns3:TrackPointExtension>
        </extensions>
      </trkpt>
      <trkpt lat="42.6111911237239837646484375" lon="19.96064451523125171661376953125">
        <ele>1153</ele>
        <time>2026-06-15T15:48:43.000Z</time>
        <extensions>
          <ns3:TrackPointExtension>
            <ns3:atemp>20.0</ns3:atemp>
          </ns3:TrackPointExtension>
        </extensions>
      </trkpt>
      <trkpt lat="42.6111513935029506683349609375" lon="19.96057477779686450958251953125">
        <ele>1152.5999755859375</ele>
        <time>2026-06-15T15:48:44.000Z</time>
        <extensions>
          <ns3:TrackPointExtension>
            <ns3:atemp>20.0</ns3:atemp>
          </ns3:TrackPointExtension>
        </extensions>
      </trkpt>
      <trkpt lat="42.611113674938678741455078125" lon="19.9605044536292552947998046875">
        <ele>1152.4000244140625</ele>
        <time>2026-06-15T15:48:45.000Z</time>
        <extensions>
          <ns3:TrackPointExtension>
            <ns3:atemp>20.0</ns3:atemp>
          </ns3:TrackPointExtension>
        </extensions>
      </trkpt>
      <trkpt lat="42.61107570491731166839599609375" lon="19.9604427628219127655029296875">
        <ele>1152.4000244140625</ele>
        <time>2026-06-15T15:48:46.000Z</time>
        <extensions>
          <ns3:TrackPointExtension>
            <ns3:atemp>20.0</ns3:atemp>
          </ns3:TrackPointExtension>
        </extensions>
      </trkpt>
      <trkpt lat="42.61103781871497631072998046875" lon="19.96037730015814304351806640625">
        <ele>1152.199951171875</ele>
        <time>2026-06-15T15:48:47.000Z</time>
        <extensions>
          <ns3:TrackPointExtension>
            <ns3:atemp>20.0</ns3:atemp>
          </ns3:TrackPointExtension>
        </extensions>
      </trkpt>
      <trkpt lat="42.61099607683718204498291015625" lon="19.96030286885797977447509765625">
        <ele>1151.800048828125</ele>
        <time>2026-06-15T15:48:48.000Z</time>
        <extensions>
          <ns3:TrackPointExtension>
            <ns3:atemp>20.0</ns3:atemp>
          </ns3:TrackPointExtension>
        </extensions>
      </trkpt>
      <trkpt lat="42.6109522394835948944091796875" lon="19.96022676117718219757080078125">
        <ele>1151.5999755859375</ele>
        <time>2026-06-15T15:48:49.000Z</time>
        <extensions>
          <ns3:TrackPointExtension>
            <ns3:atemp>20.0</ns3:atemp>
          </ns3:TrackPointExtension>
        </extensions>
      </trkpt>
      <trkpt lat="42.61091074906289577484130859375" lon="19.96014931239187717437744140625">
        <ele>1151</ele>
        <time>2026-06-15T15:48:50.000Z</time>
        <extensions>
          <ns3:TrackPointExtension>
            <ns3:atemp>20.0</ns3:atemp>
          </ns3:TrackPointExtension>
        </extensions>
      </trkpt>
      <trkpt lat="42.6108717732131481170654296875" lon="19.9600709415972232818603515625">
        <ele>1150.5999755859375</ele>
        <time>2026-06-15T15:48:51.000Z</time>
        <extensions>
          <ns3:TrackPointExtension>
            <ns3:atemp>20.0</ns3:atemp>
          </ns3:TrackPointExtension>
        </extensions>
      </trkpt>
      <trkpt lat="42.61083464138209819793701171875" lon="19.95999122969806194305419921875">
        <ele>1150.199951171875</ele>
        <time>2026-06-15T15:48:52.000Z</time>
        <extensions>
          <ns3:TrackPointExtension>
            <ns3:atemp>20.0</ns3:atemp>
          </ns3:TrackPointExtension>
        </extensions>
      </trkpt>
      <trkpt lat="42.61079994030296802520751953125" lon="19.95992057025432586669921875">
        <ele>1150</ele>
        <time>2026-06-15T15:48:53.000Z</time>
        <extensions>
          <ns3:TrackPointExtension>
            <ns3:atemp>19.0</ns3:atemp>
          </ns3:TrackPointExtension>
        </extensions>
      </trkpt>
      <trkpt lat="42.61076590977609157562255859375" lon="19.959857203066349029541015625">
        <ele>1150</ele>
        <time>2026-06-15T15:48:54.000Z</time>
        <extensions>
          <ns3:TrackPointExtension>
            <ns3:atemp>20.0</ns3:atemp>
          </ns3:TrackPointExtension>
        </extensions>
      </trkpt>
      <trkpt lat="42.6107351481914520263671875" lon="19.959791488945484161376953125">
        <ele>1149.800048828125</ele>
        <time>2026-06-15T15:48:55.000Z</time>
        <extensions>
          <ns3:TrackPointExtension>
            <ns3:atemp>20.0</ns3:atemp>
          </ns3:TrackPointExtension>
        </extensions>
      </trkpt>
      <trkpt lat="42.6107110083103179931640625" lon="19.9597266130149364471435546875">
        <ele>1149.800048828125</ele>
        <time>2026-06-15T15:48:56.000Z</time>
        <extensions>
          <ns3:TrackPointExtension>
            <ns3:atemp>20.0</ns3:atemp>
          </ns3:TrackPointExtension>
        </extensions>
      </trkpt>
      <trkpt lat="42.6106910593807697296142578125" lon="19.959664754569530487060546875">
        <ele>1149.800048828125</ele>
        <time>2026-06-15T15:48:57.000Z</time>
        <extensions>
          <ns3:TrackPointExtension>
            <ns3:atemp>20.0</ns3:atemp>
          </ns3:TrackPointExtension>
        </extensions>
      </trkpt>
      <trkpt lat="42.61067504994571208953857421875" lon="19.95960817672312259674072265625">
        <ele>1150</ele>
        <time>2026-06-15T15:48:58.000Z</time>
        <extensions>
          <ns3:TrackPointExtension>
            <ns3:atemp>20.0</ns3:atemp>
          </ns3:TrackPointExtension>
        </extensions>
      </trkpt>
      <trkpt lat="42.61066138744354248046875" lon="19.9595497548580169677734375">
        <ele>1150.199951171875</ele>
        <time>2026-06-15T15:48:59.000Z</time>
        <extensions>
          <ns3:TrackPointExtension>
            <ns3:atemp>20.0</ns3:atemp>
          </ns3:TrackPointExtension>
        </extensions>
      </trkpt>
      <trkpt lat="42.61064152233302593231201171875" lon="19.959488399326801300048828125">
        <ele>1150.5999755859375</ele>
        <time>2026-06-15T15:49:00.000Z</time>
        <extensions>
          <ns3:TrackPointExtension>
            <ns3:atemp>20.0</ns3:atemp>
          </ns3:TrackPointExtension>
        </extensions>
      </trkpt>
      <trkpt lat="42.6106186397373676300048828125" lon="19.95942226611077785491943359375">
        <ele>1150.800048828125</ele>
        <time>2026-06-15T15:49:01.000Z</time>
        <extensions>
          <ns3:TrackPointExtension>
            <ns3:atemp>20.0</ns3:atemp>
          </ns3:TrackPointExtension>
        </extensions>
      </trkpt>
      <trkpt lat="42.61059022508561611175537109375" lon="19.95935034938156604766845703125">
        <ele>1151.199951171875</ele>
        <time>2026-06-15T15:49:02.000Z</time>
        <extensions>
          <ns3:TrackPointExtension>
            <ns3:atemp>20.0</ns3:atemp>
          </ns3:TrackPointExtension>
        </extensions>
      </trkpt>
      <trkpt lat="42.61056407354772090911865234375" lon="19.9592760019004344940185546875">
        <ele>1151.199951171875</ele>
        <time>2026-06-15T15:49:03.000Z</time>
        <extensions>
          <ns3:TrackPointExtension>
            <ns3:atemp>20.0</ns3:atemp>
          </ns3:TrackPointExtension>
        </extensions>
      </trkpt>
      <trkpt lat="42.61053599417209625244140625" lon="19.959200732409954071044921875">
        <ele>1151.199951171875</ele>
        <time>2026-06-15T15:49:04.000Z</time>
        <extensions>
          <ns3:TrackPointExtension>
            <ns3:atemp>20.0</ns3:atemp>
          </ns3:TrackPointExtension>
        </extensions>
      </trkpt>
      <trkpt lat="42.61050305329263210296630859375" lon="19.95912353508174419403076171875">
        <ele>1151.199951171875</ele>
        <time>2026-06-15T15:49:05.000Z</time>
        <extensions>
          <ns3:TrackPointExtension>
            <ns3:atemp>20.0</ns3:atemp>
          </ns3:TrackPointExtension>
        </extensions>
      </trkpt>
      <trkpt lat="42.61047254316508769989013671875" lon="19.95904742740094661712646484375">
        <ele>1151</ele>
        <time>2026-06-15T15:49:06.000Z</time>
        <extensions>
          <ns3:TrackPointExtension>
            <ns3:atemp>20.0</ns3:atemp>
          </ns3:TrackPointExtension>
        </extensions>
      </trkpt>
      <trkpt lat="42.61045292951166629791259765625" lon="19.95897014625370502471923828125">
        <ele>1150.800048828125</ele>
        <time>2026-06-15T15:49:07.000Z</time>
        <extensions>
          <ns3:TrackPointExtension>
            <ns3:atemp>20.0</ns3:atemp>
          </ns3:TrackPointExtension>
        </extensions>
      </trkpt>
      <trkpt lat="42.61044002138078212738037109375" lon="19.95889169164001941680908203125">
        <ele>1150.4000244140625</ele>
        <time>2026-06-15T15:49:08.000Z</time>
        <extensions>
          <ns3:TrackPointExtension>
            <ns3:atemp>20.0</ns3:atemp>
          </ns3:TrackPointExtension>
        </extensions>
      </trkpt>
      <trkpt lat="42.61043013073503971099853515625" lon="19.9588129855692386627197265625">
        <ele>1150.199951171875</ele>
        <time>2026-06-15T15:49:09.000Z</time>
        <extensions>
          <ns3:TrackPointExtension>
            <ns3:atemp>20.0</ns3:atemp>
          </ns3:TrackPointExtension>
        </extensions>
      </trkpt>
      <trkpt lat="42.610416300594806671142578125" lon="19.95873629115521907806396484375">
        <ele>1150</ele>
        <time>2026-06-15T15:49:10.000Z</time>
        <extensions>
          <ns3:TrackPointExtension>
            <ns3:atemp>20.0</ns3:atemp>
          </ns3:TrackPointExtension>
        </extensions>
      </trkpt>
      <trkpt lat="42.61039526201784610748291015625" lon="19.95864694006741046905517578125">
        <ele>1149.5999755859375</ele>
        <time>2026-06-15T15:49:11.000Z</time>
        <extensions>
          <ns3:TrackPointExtension>
            <ns3:atemp>20.0</ns3:atemp>
          </ns3:TrackPointExtension>
        </extensions>
      </trkpt>
      <trkpt lat="42.61037363670766353607177734375" lon="19.9585573375225067138671875">
        <ele>1149.4000244140625</ele>
        <time>2026-06-15T15:49:12.000Z</time>
        <extensions>
          <ns3:TrackPointExtension>
            <ns3:atemp>20.0</ns3:atemp>
          </ns3:TrackPointExtension>
        </extensions>
      </trkpt>
      <trkpt lat="42.6103507541120052337646484375" lon="19.9584720097482204437255859375">
        <ele>1149</ele>
        <time>2026-06-15T15:49:13.000Z</time>
        <extensions>
          <ns3:TrackPointExtension>
            <ns3:atemp>20.0</ns3:atemp>
          </ns3:TrackPointExtension>
        </extensions>
      </trkpt>
      <trkpt lat="42.61033155955374240875244140625" lon="19.958392716944217681884765625">
        <ele>1148.5999755859375</ele>
        <time>2026-06-15T15:49:14.000Z</time>
        <extensions>
          <ns3:TrackPointExtension>
            <ns3:atemp>20.0</ns3:atemp>
          </ns3:TrackPointExtension>
        </extensions>
      </trkpt>
      <trkpt lat="42.6103165559470653533935546875" lon="19.9583321996033191680908203125">
        <ele>1148.4000244140625</ele>
        <time>2026-06-15T15:49:15.000Z</time>
        <extensions>
          <ns3:TrackPointExtension>
            <ns3:atemp>20.0</ns3:atemp>
          </ns3:TrackPointExtension>
        </extensions>
      </trkpt>
      <trkpt lat="42.61030708439648151397705078125" lon="19.95828702114522457122802734375">
        <ele>1148.199951171875</ele>
        <time>2026-06-15T15:49:16.000Z</time>
        <extensions>
          <ns3:TrackPointExtension>
            <ns3:atemp>20.0</ns3:atemp>
          </ns3:TrackPointExtension>
        </extensions>
      </trkpt>
      <trkpt lat="42.61029987595975399017333984375" lon="19.9582544155418872833251953125">
        <ele>1148</ele>
        <time>2026-06-15T15:49:17.000Z</time>
        <extensions>
          <ns3:TrackPointExtension>
            <ns3:atemp>20.0</ns3:atemp>
          </ns3:TrackPointExtension>
        </extensions>
      </trkpt>
      <trkpt lat="42.610293589532375335693359375" lon="19.958231784403324127197265625">
        <ele>1148</ele>
        <time>2026-06-15T15:49:18.000Z</time>
        <extensions>
          <ns3:TrackPointExtension>
            <ns3:atemp>20.0</ns3:atemp>
          </ns3:TrackPointExtension>
        </extensions>
      </trkpt>
      <trkpt lat="42.6102912425994873046875" lon="19.95822231285274028778076171875">
        <ele>1147.800048828125</ele>
        <time>2026-06-15T15:49:19.000Z</time>
        <extensions>
          <ns3:TrackPointExtension>
            <ns3:atemp>20.0</ns3:atemp>
          </ns3:TrackPointExtension>
        </extensions>
      </trkpt>
      <trkpt lat="42.610288895666599273681640625" lon="19.9582255817949771881103515625">
        <ele>1147.800048828125</ele>
        <time>2026-06-15T15:49:20.000Z</time>
        <extensions>
          <ns3:TrackPointExtension>
            <ns3:atemp>20.0</ns3:atemp>
          </ns3:TrackPointExtension>
        </extensions>
      </trkpt>
      <trkpt lat="42.610288895666599273681640625" lon="19.95822549797594547271728515625">
        <ele>1147.800048828125</ele>
        <time>2026-06-15T15:49:21.000Z</time>
        <extensions>
          <ns3:TrackPointExtension>
            <ns3:atemp>20.0</ns3:atemp>
          </ns3:TrackPointExtension>
        </extensions>
      </trkpt>
      <trkpt lat="42.610288895666599273681640625" lon="19.95822549797594547271728515625">
        <ele>1147.800048828125</ele>
        <time>2026-06-15T15:49:22.000Z</time>
        <extensions>
          <ns3:TrackPointExtension>
            <ns3:atemp>20.0</ns3:atemp>
          </ns3:TrackPointExtension>
        </extensions>
      </trkpt>
      <trkpt lat="42.610288895666599273681640625" lon="19.95822549797594547271728515625">
        <ele>1147.800048828125</ele>
        <time>2026-06-15T15:49:23.000Z</time>
        <extensions>
          <ns3:TrackPointExtension>
            <ns3:atemp>20.0</ns3:atemp>
          </ns3:TrackPointExtension>
        </extensions>
      </trkpt>
      <trkpt lat="42.610288895666599273681640625" lon="19.95822549797594547271728515625">
        <ele>1147.800048828125</ele>
        <time>2026-06-15T15:49:24.000Z</time>
        <extensions>
          <ns3:TrackPointExtension>
            <ns3:atemp>20.0</ns3:atemp>
          </ns3:TrackPointExtension>
        </extensions>
      </trkpt>
      <trkpt lat="42.610288895666599273681640625" lon="19.95822549797594547271728515625">
        <ele>1147.800048828125</ele>
        <time>2026-06-15T15:49:25.000Z</time>
        <extensions>
          <ns3:TrackPointExtension>
            <ns3:atemp>20.0</ns3:atemp>
          </ns3:TrackPointExtension>
        </extensions>
      </trkpt>
      <trkpt lat="42.610288895666599273681640625" lon="19.95822549797594547271728515625">
        <ele>1148</ele>
        <time>2026-06-15T15:49:26.000Z</time>
        <extensions>
          <ns3:TrackPointExtension>
            <ns3:atemp>20.0</ns3:atemp>
          </ns3:TrackPointExtension>
        </extensions>
      </trkpt>
      <trkpt lat="42.610288895666599273681640625" lon="19.95822549797594547271728515625">
        <ele>1148.199951171875</ele>
        <time>2026-06-15T15:49:27.000Z</time>
        <extensions>
          <ns3:TrackPointExtension>
            <ns3:atemp>20.0</ns3:atemp>
          </ns3:TrackPointExtension>
        </extensions>
      </trkpt>
      <trkpt lat="42.610288895666599273681640625" lon="19.95822549797594547271728515625">
        <ele>1148.199951171875</ele>
        <time>2026-06-15T15:49:28.000Z</time>
        <extensions>
          <ns3:TrackPointExtension>
            <ns3:atemp>20.0</ns3:atemp>
          </ns3:TrackPointExtension>
        </extensions>
      </trkpt>
      <trkpt lat="42.610288895666599273681640625" lon="19.95822549797594547271728515625">
        <ele>1148.199951171875</ele>
        <time>2026-06-15T15:49:29.000Z</time>
        <extensions>
          <ns3:TrackPointExtension>
            <ns3:atemp>20.0</ns3:atemp>
          </ns3:TrackPointExtension>
        </extensions>
      </trkpt>
      <trkpt lat="42.610288895666599273681640625" lon="19.95822549797594547271728515625">
        <ele>1148</ele>
        <time>2026-06-15T15:49:30.000Z</time>
        <extensions>
          <ns3:TrackPointExtension>
            <ns3:atemp>20.0</ns3:atemp>
          </ns3:TrackPointExtension>
        </extensions>
      </trkpt>
      <trkpt lat="42.610288895666599273681640625" lon="19.95822549797594547271728515625">
        <ele>1147.5999755859375</ele>
        <time>2026-06-15T15:49:31.000Z</time>
        <extensions>
          <ns3:TrackPointExtension>
            <ns3:atemp>20.0</ns3:atemp>
          </ns3:TrackPointExtension>
        </extensions>
      </trkpt>
      <trkpt lat="42.610288895666599273681640625" lon="19.95822549797594547271728515625">
        <ele>1147.4000244140625</ele>
        <time>2026-06-15T15:49:32.000Z</time>
        <extensions>
          <ns3:TrackPointExtension>
            <ns3:atemp>20.0</ns3:atemp>
          </ns3:TrackPointExtension>
        </extensions>
      </trkpt>
      <trkpt lat="42.610288895666599273681640625" lon="19.95822549797594547271728515625">
        <ele>1147.199951171875</ele>
        <time>2026-06-15T15:49:33.000Z</time>
        <extensions>
          <ns3:TrackPointExtension>
            <ns3:atemp>20.0</ns3:atemp>
          </ns3:TrackPointExtension>
        </extensions>
      </trkpt>
      <trkpt lat="42.610288895666599273681640625" lon="19.95822549797594547271728515625">
        <ele>1147.4000244140625</ele>
        <time>2026-06-15T15:49:34.000Z</time>
        <extensions>
          <ns3:TrackPointExtension>
            <ns3:atemp>20.0</ns3:atemp>
          </ns3:TrackPointExtension>
        </extensions>
      </trkpt>
      <trkpt lat="42.610288895666599273681640625" lon="19.95822549797594547271728515625">
        <ele>1147.4000244140625</ele>
        <time>2026-06-15T15:49:35.000Z</time>
        <extensions>
          <ns3:TrackPointExtension>
            <ns3:atemp>20.0</ns3:atemp>
          </ns3:TrackPointExtension>
        </extensions>
      </trkpt>
      <trkpt lat="42.610288895666599273681640625" lon="19.95822549797594547271728515625">
        <ele>1147.4000244140625</ele>
        <time>2026-06-15T15:49:36.000Z</time>
        <extensions>
          <ns3:TrackPointExtension>
            <ns3:atemp>20.0</ns3:atemp>
          </ns3:TrackPointExtension>
        </extensions>
      </trkpt>
      <trkpt lat="42.610288895666599273681640625" lon="19.95822549797594547271728515625">
        <ele>1147.4000244140625</ele>
        <time>2026-06-15T15:49:37.000Z</time>
        <extensions>
          <ns3:TrackPointExtension>
            <ns3:atemp>20.0</ns3:atemp>
          </ns3:TrackPointExtension>
        </extensions>
      </trkpt>
      <trkpt lat="42.610288895666599273681640625" lon="19.95822549797594547271728515625">
        <ele>1147.4000244140625</ele>
        <time>2026-06-15T15:49:38.000Z</time>
        <extensions>
          <ns3:TrackPointExtension>
            <ns3:atemp>20.0</ns3:atemp>
          </ns3:TrackPointExtension>
        </extensions>
      </trkpt>
      <trkpt lat="42.610288895666599273681640625" lon="19.95822549797594547271728515625">
        <ele>1147.199951171875</ele>
        <time>2026-06-15T15:49:39.000Z</time>
        <extensions>
          <ns3:TrackPointExtension>
            <ns3:atemp>20.0</ns3:atemp>
          </ns3:TrackPointExtension>
        </extensions>
      </trkpt>
      <trkpt lat="42.610288895666599273681640625" lon="19.95822549797594547271728515625">
        <ele>1147.199951171875</ele>
        <time>2026-06-15T15:49:40.000Z</time>
        <extensions>
          <ns3:TrackPointExtension>
            <ns3:atemp>20.0</ns3:atemp>
          </ns3:TrackPointExtension>
        </extensions>
      </trkpt>
      <trkpt lat="42.610288895666599273681640625" lon="19.95822549797594547271728515625">
        <ele>1147.199951171875</ele>
        <time>2026-06-15T15:49:41.000Z</time>
        <extensions>
          <ns3:TrackPointExtension>
            <ns3:atemp>20.0</ns3:atemp>
          </ns3:TrackPointExtension>
        </extensions>
      </trkpt>
      <trkpt lat="42.610288895666599273681640625" lon="19.95822549797594547271728515625">
        <ele>1147.4000244140625</ele>
        <time>2026-06-15T15:49:42.000Z</time>
        <extensions>
          <ns3:TrackPointExtension>
            <ns3:atemp>20.0</ns3:atemp>
          </ns3:TrackPointExtension>
        </extensions>
      </trkpt>
      <trkpt lat="42.610288895666599273681640625" lon="19.95822549797594547271728515625">
        <ele>1147.4000244140625</ele>
        <time>2026-06-15T15:49:43.000Z</time>
        <extensions>
          <ns3:TrackPointExtension>
            <ns3:atemp>20.0</ns3:atemp>
          </ns3:TrackPointExtension>
        </extensions>
      </trkpt>
      <trkpt lat="42.610288895666599273681640625" lon="19.95822549797594547271728515625">
        <ele>1147.4000244140625</ele>
        <time>2026-06-15T15:49:44.000Z</time>
        <extensions>
          <ns3:TrackPointExtension>
            <ns3:atemp>20.0</ns3:atemp>
          </ns3:TrackPointExtension>
        </extensions>
      </trkpt>
      <trkpt lat="42.610288895666599273681640625" lon="19.95822549797594547271728515625">
        <ele>1147.199951171875</ele>
        <time>2026-06-15T15:49:45.000Z</time>
        <extensions>
          <ns3:TrackPointExtension>
            <ns3:atemp>20.0</ns3:atemp>
          </ns3:TrackPointExtension>
        </extensions>
      </trkpt>
      <trkpt lat="42.610288895666599273681640625" lon="19.95822549797594547271728515625">
        <ele>1147.199951171875</ele>
        <time>2026-06-15T15:49:46.000Z</time>
        <extensions>
          <ns3:TrackPointExtension>
            <ns3:atemp>20.0</ns3:atemp>
          </ns3:TrackPointExtension>
        </extensions>
      </trkpt>
      <trkpt lat="42.610288895666599273681640625" lon="19.95822549797594547271728515625">
        <ele>1147</ele>
        <time>2026-06-15T15:49:47.000Z</time>
        <extensions>
          <ns3:TrackPointExtension>
            <ns3:atemp>20.0</ns3:atemp>
          </ns3:TrackPointExtension>
        </extensions>
      </trkpt>
      <trkpt lat="42.610288895666599273681640625" lon="19.95822549797594547271728515625">
        <ele>1147.199951171875</ele>
        <time>2026-06-15T15:49:48.000Z</time>
        <extensions>
          <ns3:TrackPointExtension>
            <ns3:atemp>20.0</ns3:atemp>
          </ns3:TrackPointExtension>
        </extensions>
      </trkpt>
      <trkpt lat="42.610288895666599273681640625" lon="19.95822549797594547271728515625">
        <ele>1147.199951171875</ele>
        <time>2026-06-15T15:49:49.000Z</time>
        <extensions>
          <ns3:TrackPointExtension>
            <ns3:atemp>20.0</ns3:atemp>
          </ns3:TrackPointExtension>
        </extensions>
      </trkpt>
      <trkpt lat="42.610288895666599273681640625" lon="19.95822549797594547271728515625">
        <ele>1147.199951171875</ele>
        <time>2026-06-15T15:49:50.000Z</time>
        <extensions>
          <ns3:TrackPointExtension>
            <ns3:atemp>20.0</ns3:atemp>
          </ns3:TrackPointExtension>
        </extensions>
      </trkpt>
      <trkpt lat="42.610288895666599273681640625" lon="19.95822549797594547271728515625">
        <ele>1147.199951171875</ele>
        <time>2026-06-15T15:49:51.000Z</time>
        <extensions>
          <ns3:TrackPointExtension>
            <ns3:atemp>20.0</ns3:atemp>
          </ns3:TrackPointExtension>
        </extensions>
      </trkpt>
      <trkpt lat="42.610288895666599273681640625" lon="19.95822549797594547271728515625">
        <ele>1147.199951171875</ele>
        <time>2026-06-15T15:49:52.000Z</time>
        <extensions>
          <ns3:TrackPointExtension>
            <ns3:atemp>20.0</ns3:atemp>
          </ns3:TrackPointExtension>
        </extensions>
      </trkpt>
      <trkpt lat="42.610288895666599273681640625" lon="19.95822549797594547271728515625">
        <ele>1147.199951171875</ele>
        <time>2026-06-15T15:49:53.000Z</time>
        <extensions>
          <ns3:TrackPointExtension>
            <ns3:atemp>20.0</ns3:atemp>
          </ns3:TrackPointExtension>
        </extensions>
      </trkpt>
      <trkpt lat="42.610288895666599273681640625" lon="19.95822549797594547271728515625">
        <ele>1147.199951171875</ele>
        <time>2026-06-15T15:49:54.000Z</time>
        <extensions>
          <ns3:TrackPointExtension>
            <ns3:atemp>20.0</ns3:atemp>
          </ns3:TrackPointExtension>
        </extensions>
      </trkpt>
      <trkpt lat="42.610288895666599273681640625" lon="19.95822549797594547271728515625">
        <ele>1147.199951171875</ele>
        <time>2026-06-15T15:49:55.000Z</time>
        <extensions>
          <ns3:TrackPointExtension>
            <ns3:atemp>20.0</ns3:atemp>
          </ns3:TrackPointExtension>
        </extensions>
      </trkpt>
      <trkpt lat="42.610288895666599273681640625" lon="19.95822549797594547271728515625">
        <ele>1147.199951171875</ele>
        <time>2026-06-15T15:49:56.000Z</time>
        <extensions>
          <ns3:TrackPointExtension>
            <ns3:atemp>20.0</ns3:atemp>
          </ns3:TrackPointExtension>
        </extensions>
      </trkpt>
      <trkpt lat="42.610288895666599273681640625" lon="19.95822549797594547271728515625">
        <ele>1147.199951171875</ele>
        <time>2026-06-15T15:49:57.000Z</time>
        <extensions>
          <ns3:TrackPointExtension>
            <ns3:atemp>20.0</ns3:atemp>
          </ns3:TrackPointExtension>
        </extensions>
      </trkpt>
      <trkpt lat="42.610288895666599273681640625" lon="19.95822549797594547271728515625">
        <ele>1147.199951171875</ele>
        <time>2026-06-15T15:49:58.000Z</time>
        <extensions>
          <ns3:TrackPointExtension>
            <ns3:atemp>20.0</ns3:atemp>
          </ns3:TrackPointExtension>
        </extensions>
      </trkpt>
      <trkpt lat="42.610288895666599273681640625" lon="19.95822549797594547271728515625">
        <ele>1147.199951171875</ele>
        <time>2026-06-15T15:49:59.000Z</time>
        <extensions>
          <ns3:TrackPointExtension>
            <ns3:atemp>20.0</ns3:atemp>
          </ns3:TrackPointExtension>
        </extensions>
      </trkpt>
      <trkpt lat="42.610288895666599273681640625" lon="19.95822549797594547271728515625">
        <ele>1147.199951171875</ele>
        <time>2026-06-15T15:50:00.000Z</time>
        <extensions>
          <ns3:TrackPointExtension>
            <ns3:atemp>20.0</ns3:atemp>
          </ns3:TrackPointExtension>
        </extensions>
      </trkpt>
      <trkpt lat="42.610288895666599273681640625" lon="19.95822549797594547271728515625">
        <ele>1147.199951171875</ele>
        <time>2026-06-15T15:50:01.000Z</time>
        <extensions>
          <ns3:TrackPointExtension>
            <ns3:atemp>20.0</ns3:atemp>
          </ns3:TrackPointExtension>
        </extensions>
      </trkpt>
      <trkpt lat="42.610288895666599273681640625" lon="19.95822549797594547271728515625">
        <ele>1147.199951171875</ele>
        <time>2026-06-15T15:50:02.000Z</time>
        <extensions>
          <ns3:TrackPointExtension>
            <ns3:atemp>20.0</ns3:atemp>
          </ns3:TrackPointExtension>
        </extensions>
      </trkpt>
      <trkpt lat="42.610288895666599273681640625" lon="19.95822549797594547271728515625">
        <ele>1147.199951171875</ele>
        <time>2026-06-15T15:50:03.000Z</time>
        <extensions>
          <ns3:TrackPointExtension>
            <ns3:atemp>20.0</ns3:atemp>
          </ns3:TrackPointExtension>
        </extensions>
      </trkpt>
      <trkpt lat="42.610288895666599273681640625" lon="19.95822549797594547271728515625">
        <ele>1147.199951171875</ele>
        <time>2026-06-15T15:50:04.000Z</time>
        <extensions>
          <ns3:TrackPointExtension>
            <ns3:atemp>20.0</ns3:atemp>
          </ns3:TrackPointExtension>
        </extensions>
      </trkpt>
      <trkpt lat="42.610288895666599273681640625" lon="19.95822549797594547271728515625">
        <ele>1147.199951171875</ele>
        <time>2026-06-15T15:50:05.000Z</time>
        <extensions>
          <ns3:TrackPointExtension>
            <ns3:atemp>20.0</ns3:atemp>
          </ns3:TrackPointExtension>
        </extensions>
      </trkpt>
      <trkpt lat="42.610288895666599273681640625" lon="19.95822549797594547271728515625">
        <ele>1147.199951171875</ele>
        <time>2026-06-15T15:50:06.000Z</time>
        <extensions>
          <ns3:TrackPointExtension>
            <ns3:atemp>20.0</ns3:atemp>
          </ns3:TrackPointExtension>
        </extensions>
      </trkpt>
      <trkpt lat="42.610288895666599273681640625" lon="19.95822549797594547271728515625">
        <ele>1147.199951171875</ele>
        <time>2026-06-15T15:50:07.000Z</time>
        <extensions>
          <ns3:TrackPointExtension>
            <ns3:atemp>20.0</ns3:atemp>
          </ns3:TrackPointExtension>
        </extensions>
      </trkpt>
      <trkpt lat="42.610288895666599273681640625" lon="19.95822549797594547271728515625">
        <ele>1147.199951171875</ele>
        <time>2026-06-15T15:50:08.000Z</time>
        <extensions>
          <ns3:TrackPointExtension>
            <ns3:atemp>20.0</ns3:atemp>
          </ns3:TrackPointExtension>
        </extensions>
      </trkpt>
      <trkpt lat="42.610288895666599273681640625" lon="19.95822549797594547271728515625">
        <ele>1147.199951171875</ele>
        <time>2026-06-15T15:50:09.000Z</time>
        <extensions>
          <ns3:TrackPointExtension>
            <ns3:atemp>20.0</ns3:atemp>
          </ns3:TrackPointExtension>
        </extensions>
      </trkpt>
      <trkpt lat="42.610288895666599273681640625" lon="19.95822549797594547271728515625">
        <ele>1147.199951171875</ele>
        <time>2026-06-15T15:50:10.000Z</time>
        <extensions>
          <ns3:TrackPointExtension>
            <ns3:atemp>20.0</ns3:atemp>
          </ns3:TrackPointExtension>
        </extensions>
      </trkpt>
      <trkpt lat="42.610288895666599273681640625" lon="19.95822549797594547271728515625">
        <ele>1147.199951171875</ele>
        <time>2026-06-15T15:50:11.000Z</time>
        <extensions>
          <ns3:TrackPointExtension>
            <ns3:atemp>20.0</ns3:atemp>
          </ns3:TrackPointExtension>
        </extensions>
      </trkpt>
      <trkpt lat="42.610288895666599273681640625" lon="19.95822549797594547271728515625">
        <ele>1147.199951171875</ele>
        <time>2026-06-15T15:50:12.000Z</time>
        <extensions>
          <ns3:TrackPointExtension>
            <ns3:atemp>20.0</ns3:atemp>
          </ns3:TrackPointExtension>
        </extensions>
      </trkpt>
      <trkpt lat="42.610288895666599273681640625" lon="19.95822549797594547271728515625">
        <ele>1147.199951171875</ele>
        <time>2026-06-15T15:50:13.000Z</time>
        <extensions>
          <ns3:TrackPointExtension>
            <ns3:atemp>20.0</ns3:atemp>
          </ns3:TrackPointExtension>
        </extensions>
      </trkpt>
      <trkpt lat="42.610288895666599273681640625" lon="19.95822549797594547271728515625">
        <ele>1147.199951171875</ele>
        <time>2026-06-15T15:50:14.000Z</time>
        <extensions>
          <ns3:TrackPointExtension>
            <ns3:atemp>20.0</ns3:atemp>
          </ns3:TrackPointExtension>
        </extensions>
      </trkpt>
      <trkpt lat="42.610288895666599273681640625" lon="19.95822549797594547271728515625">
        <ele>1147.199951171875</ele>
        <time>2026-06-15T15:50:15.000Z</time>
        <extensions>
          <ns3:TrackPointExtension>
            <ns3:atemp>20.0</ns3:atemp>
          </ns3:TrackPointExtension>
        </extensions>
      </trkpt>
      <trkpt lat="42.610288895666599273681640625" lon="19.95822549797594547271728515625">
        <ele>1147.199951171875</ele>
        <time>2026-06-15T15:50:16.000Z</time>
        <extensions>
          <ns3:TrackPointExtension>
            <ns3:atemp>20.0</ns3:atemp>
          </ns3:TrackPointExtension>
        </extensions>
      </trkpt>
      <trkpt lat="42.610288895666599273681640625" lon="19.95822549797594547271728515625">
        <ele>1147.199951171875</ele>
        <time>2026-06-15T15:50:17.000Z</time>
        <extensions>
          <ns3:TrackPointExtension>
            <ns3:atemp>20.0</ns3:atemp>
          </ns3:TrackPointExtension>
        </extensions>
      </trkpt>
      <trkpt lat="42.610288895666599273681640625" lon="19.95822549797594547271728515625">
        <ele>1147.199951171875</ele>
        <time>2026-06-15T15:50:18.000Z</time>
        <extensions>
          <ns3:TrackPointExtension>
            <ns3:atemp>20.0</ns3:atemp>
          </ns3:TrackPointExtension>
        </extensions>
      </trkpt>
      <trkpt lat="42.610288895666599273681640625" lon="19.95822549797594547271728515625">
        <ele>1147.199951171875</ele>
        <time>2026-06-15T15:50:19.000Z</time>
        <extensions>
          <ns3:TrackPointExtension>
            <ns3:atemp>20.0</ns3:atemp>
          </ns3:TrackPointExtension>
        </extensions>
      </trkpt>
      <trkpt lat="42.610288895666599273681640625" lon="19.95822549797594547271728515625">
        <ele>1147.199951171875</ele>
        <time>2026-06-15T15:50:20.000Z</time>
        <extensions>
          <ns3:TrackPointExtension>
            <ns3:atemp>20.0</ns3:atemp>
          </ns3:TrackPointExtension>
        </extensions>
      </trkpt>
      <trkpt lat="42.610288895666599273681640625" lon="19.95822549797594547271728515625">
        <ele>1147.199951171875</ele>
        <time>2026-06-15T15:50:21.000Z</time>
        <extensions>
          <ns3:TrackPointExtension>
            <ns3:atemp>20.0</ns3:atemp>
          </ns3:TrackPointExtension>
        </extensions>
      </trkpt>
      <trkpt lat="42.610288895666599273681640625" lon="19.95822549797594547271728515625">
        <ele>1147.199951171875</ele>
        <time>2026-06-15T15:50:22.000Z</time>
        <extensions>
          <ns3:TrackPointExtension>
            <ns3:atemp>20.0</ns3:atemp>
          </ns3:TrackPointExtension>
        </extensions>
      </trkpt>
      <trkpt lat="42.610288895666599273681640625" lon="19.95822549797594547271728515625">
        <ele>1147.199951171875</ele>
        <time>2026-06-15T15:50:23.000Z</time>
        <extensions>
          <ns3:TrackPointExtension>
            <ns3:atemp>20.0</ns3:atemp>
          </ns3:TrackPointExtension>
        </extensions>
      </trkpt>
      <trkpt lat="42.610288895666599273681640625" lon="19.95822549797594547271728515625">
        <ele>1147.199951171875</ele>
        <time>2026-06-15T15:50:24.000Z</time>
        <extensions>
          <ns3:TrackPointExtension>
            <ns3:atemp>20.0</ns3:atemp>
          </ns3:TrackPointExtension>
        </extensions>
      </trkpt>
      <trkpt lat="42.610288895666599273681640625" lon="19.95822549797594547271728515625">
        <ele>1147.199951171875</ele>
        <time>2026-06-15T15:50:25.000Z</time>
        <extensions>
          <ns3:TrackPointExtension>
            <ns3:atemp>20.0</ns3:atemp>
          </ns3:TrackPointExtension>
        </extensions>
      </trkpt>
      <trkpt lat="42.610288895666599273681640625" lon="19.95822549797594547271728515625">
        <ele>1147.199951171875</ele>
        <time>2026-06-15T15:50:26.000Z</time>
        <extensions>
          <ns3:TrackPointExtension>
            <ns3:atemp>20.0</ns3:atemp>
          </ns3:TrackPointExtension>
        </extensions>
      </trkpt>
      <trkpt lat="42.610288895666599273681640625" lon="19.95822549797594547271728515625">
        <ele>1147.199951171875</ele>
        <time>2026-06-15T15:50:27.000Z</time>
        <extensions>
          <ns3:TrackPointExtension>
            <ns3:atemp>20.0</ns3:atemp>
          </ns3:TrackPointExtension>
        </extensions>
      </trkpt>
      <trkpt lat="42.610288895666599273681640625" lon="19.95822549797594547271728515625">
        <ele>1147.199951171875</ele>
        <time>2026-06-15T15:50:28.000Z</time>
        <extensions>
          <ns3:TrackPointExtension>
            <ns3:atemp>20.0</ns3:atemp>
          </ns3:TrackPointExtension>
        </extensions>
      </trkpt>
      <trkpt lat="42.610288895666599273681640625" lon="19.95822549797594547271728515625">
        <ele>1147</ele>
        <time>2026-06-15T15:50:29.000Z</time>
        <extensions>
          <ns3:TrackPointExtension>
            <ns3:atemp>20.0</ns3:atemp>
          </ns3:TrackPointExtension>
        </extensions>
      </trkpt>
      <trkpt lat="42.610288895666599273681640625" lon="19.95822549797594547271728515625">
        <ele>1147</ele>
        <time>2026-06-15T15:50:30.000Z</time>
        <extensions>
          <ns3:TrackPointExtension>
            <ns3:atemp>20.0</ns3:atemp>
          </ns3:TrackPointExtension>
        </extensions>
      </trkpt>
      <trkpt lat="42.610288895666599273681640625" lon="19.95822549797594547271728515625">
        <ele>1147</ele>
        <time>2026-06-15T15:50:31.000Z</time>
        <extensions>
          <ns3:TrackPointExtension>
            <ns3:atemp>20.0</ns3:atemp>
          </ns3:TrackPointExtension>
        </extensions>
      </trkpt>
      <trkpt lat="42.610288895666599273681640625" lon="19.95822549797594547271728515625">
        <ele>1147</ele>
        <time>2026-06-15T15:50:32.000Z</time>
        <extensions>
          <ns3:TrackPointExtension>
            <ns3:atemp>20.0</ns3:atemp>
          </ns3:TrackPointExtension>
        </extensions>
      </trkpt>
      <trkpt lat="42.610288895666599273681640625" lon="19.95822549797594547271728515625">
        <ele>1147</ele>
        <time>2026-06-15T15:50:33.000Z</time>
        <extensions>
          <ns3:TrackPointExtension>
            <ns3:atemp>20.0</ns3:atemp>
          </ns3:TrackPointExtension>
        </extensions>
      </trkpt>
      <trkpt lat="42.610288895666599273681640625" lon="19.95822549797594547271728515625">
        <ele>1147</ele>
        <time>2026-06-15T15:50:34.000Z</time>
        <extensions>
          <ns3:TrackPointExtension>
            <ns3:atemp>20.0</ns3:atemp>
          </ns3:TrackPointExtension>
        </extensions>
      </trkpt>
      <trkpt lat="42.610288895666599273681640625" lon="19.95822549797594547271728515625">
        <ele>1147</ele>
        <time>2026-06-15T15:50:35.000Z</time>
        <extensions>
          <ns3:TrackPointExtension>
            <ns3:atemp>20.0</ns3:atemp>
          </ns3:TrackPointExtension>
        </extensions>
      </trkpt>
      <trkpt lat="42.610288895666599273681640625" lon="19.95822549797594547271728515625">
        <ele>1147</ele>
        <time>2026-06-15T15:50:36.000Z</time>
        <extensions>
          <ns3:TrackPointExtension>
            <ns3:atemp>20.0</ns3:atemp>
          </ns3:TrackPointExtension>
        </extensions>
      </trkpt>
      <trkpt lat="42.610288895666599273681640625" lon="19.95822549797594547271728515625">
        <ele>1147</ele>
        <time>2026-06-15T15:50:37.000Z</time>
        <extensions>
          <ns3:TrackPointExtension>
            <ns3:atemp>20.0</ns3:atemp>
          </ns3:TrackPointExtension>
        </extensions>
      </trkpt>
      <trkpt lat="42.610288895666599273681640625" lon="19.95822549797594547271728515625">
        <ele>1147</ele>
        <time>2026-06-15T15:50:38.000Z</time>
        <extensions>
          <ns3:TrackPointExtension>
            <ns3:atemp>20.0</ns3:atemp>
          </ns3:TrackPointExtension>
        </extensions>
      </trkpt>
      <trkpt lat="42.610288895666599273681640625" lon="19.95822549797594547271728515625">
        <ele>1147</ele>
        <time>2026-06-15T15:50:39.000Z</time>
        <extensions>
          <ns3:TrackPointExtension>
            <ns3:atemp>20.0</ns3:atemp>
          </ns3:TrackPointExtension>
        </extensions>
      </trkpt>
      <trkpt lat="42.610288895666599273681640625" lon="19.95822549797594547271728515625">
        <ele>1147</ele>
        <time>2026-06-15T15:50:40.000Z</time>
        <extensions>
          <ns3:TrackPointExtension>
            <ns3:atemp>20.0</ns3:atemp>
          </ns3:TrackPointExtension>
        </extensions>
      </trkpt>
      <trkpt lat="42.610288895666599273681640625" lon="19.95822549797594547271728515625">
        <ele>1147</ele>
        <time>2026-06-15T15:50:41.000Z</time>
        <extensions>
          <ns3:TrackPointExtension>
            <ns3:atemp>20.0</ns3:atemp>
          </ns3:TrackPointExtension>
        </extensions>
      </trkpt>
      <trkpt lat="42.610288895666599273681640625" lon="19.95822549797594547271728515625">
        <ele>1147</ele>
        <time>2026-06-15T15:50:42.000Z</time>
        <extensions>
          <ns3:TrackPointExtension>
            <ns3:atemp>20.0</ns3:atemp>
          </ns3:TrackPointExtension>
        </extensions>
      </trkpt>
      <trkpt lat="42.610288895666599273681640625" lon="19.95822549797594547271728515625">
        <ele>1147</ele>
        <time>2026-06-15T15:50:43.000Z</time>
        <extensions>
          <ns3:TrackPointExtension>
            <ns3:atemp>20.0</ns3:atemp>
          </ns3:TrackPointExtension>
        </extensions>
      </trkpt>
      <trkpt lat="42.610288895666599273681640625" lon="19.95822549797594547271728515625">
        <ele>1147</ele>
        <time>2026-06-15T15:50:44.000Z</time>
        <extensions>
          <ns3:TrackPointExtension>
            <ns3:atemp>20.0</ns3:atemp>
          </ns3:TrackPointExtension>
        </extensions>
      </trkpt>
      <trkpt lat="42.610288895666599273681640625" lon="19.95822549797594547271728515625">
        <ele>1147</ele>
        <time>2026-06-15T15:50:45.000Z</time>
        <extensions>
          <ns3:TrackPointExtension>
            <ns3:atemp>20.0</ns3:atemp>
          </ns3:TrackPointExtension>
        </extensions>
      </trkpt>
      <trkpt lat="42.610288895666599273681640625" lon="19.95822549797594547271728515625">
        <ele>1147</ele>
        <time>2026-06-15T15:50:46.000Z</time>
        <extensions>
          <ns3:TrackPointExtension>
            <ns3:atemp>20.0</ns3:atemp>
          </ns3:TrackPointExtension>
        </extensions>
      </trkpt>
      <trkpt lat="42.610288895666599273681640625" lon="19.95822549797594547271728515625">
        <ele>1147</ele>
        <time>2026-06-15T15:50:47.000Z</time>
        <extensions>
          <ns3:TrackPointExtension>
            <ns3:atemp>20.0</ns3:atemp>
          </ns3:TrackPointExtension>
        </extensions>
      </trkpt>
      <trkpt lat="42.610288895666599273681640625" lon="19.95822549797594547271728515625">
        <ele>1147</ele>
        <time>2026-06-15T15:50:48.000Z</time>
        <extensions>
          <ns3:TrackPointExtension>
            <ns3:atemp>20.0</ns3:atemp>
          </ns3:TrackPointExtension>
        </extensions>
      </trkpt>
      <trkpt lat="42.610288895666599273681640625" lon="19.95822549797594547271728515625">
        <ele>1147</ele>
        <time>2026-06-15T15:50:49.000Z</time>
        <extensions>
          <ns3:TrackPointExtension>
            <ns3:atemp>20.0</ns3:atemp>
          </ns3:TrackPointExtension>
        </extensions>
      </trkpt>
      <trkpt lat="42.610288895666599273681640625" lon="19.95822549797594547271728515625">
        <ele>1147</ele>
        <time>2026-06-15T15:50:50.000Z</time>
        <extensions>
          <ns3:TrackPointExtension>
            <ns3:atemp>20.0</ns3:atemp>
          </ns3:TrackPointExtension>
        </extensions>
      </trkpt>
      <trkpt lat="42.610288895666599273681640625" lon="19.95822549797594547271728515625">
        <ele>1147</ele>
        <time>2026-06-15T15:50:51.000Z</time>
        <extensions>
          <ns3:TrackPointExtension>
            <ns3:atemp>20.0</ns3:atemp>
          </ns3:TrackPointExtension>
        </extensions>
      </trkpt>
      <trkpt lat="42.610288895666599273681640625" lon="19.95822549797594547271728515625">
        <ele>1147</ele>
        <time>2026-06-15T15:50:52.000Z</time>
        <extensions>
          <ns3:TrackPointExtension>
            <ns3:atemp>20.0</ns3:atemp>
          </ns3:TrackPointExtension>
        </extensions>
      </trkpt>
      <trkpt lat="42.610288895666599273681640625" lon="19.95822549797594547271728515625">
        <ele>1147</ele>
        <time>2026-06-15T15:50:53.000Z</time>
        <extensions>
          <ns3:TrackPointExtension>
            <ns3:atemp>20.0</ns3:atemp>
          </ns3:TrackPointExtension>
        </extensions>
      </trkpt>
      <trkpt lat="42.610288895666599273681640625" lon="19.95822549797594547271728515625">
        <ele>1146.800048828125</ele>
        <time>2026-06-15T15:50:54.000Z</time>
        <extensions>
          <ns3:TrackPointExtension>
            <ns3:atemp>20.0</ns3:atemp>
          </ns3:TrackPointExtension>
        </extensions>
      </trkpt>
      <trkpt lat="42.610288895666599273681640625" lon="19.95822549797594547271728515625">
        <ele>1146.800048828125</ele>
        <time>2026-06-15T15:50:55.000Z</time>
        <extensions>
          <ns3:TrackPointExtension>
            <ns3:atemp>20.0</ns3:atemp>
          </ns3:TrackPointExtension>
        </extensions>
      </trkpt>
      <trkpt lat="42.610288895666599273681640625" lon="19.95822549797594547271728515625">
        <ele>1146.800048828125</ele>
        <time>2026-06-15T15:50:56.000Z</time>
        <extensions>
          <ns3:TrackPointExtension>
            <ns3:atemp>20.0</ns3:atemp>
          </ns3:TrackPointExtension>
        </extensions>
      </trkpt>
      <trkpt lat="42.610288895666599273681640625" lon="19.95822549797594547271728515625">
        <ele>1146.800048828125</ele>
        <time>2026-06-15T15:50:57.000Z</time>
        <extensions>
          <ns3:TrackPointExtension>
            <ns3:atemp>20.0</ns3:atemp>
          </ns3:TrackPointExtension>
        </extensions>
      </trkpt>
      <trkpt lat="42.610288895666599273681640625" lon="19.95822549797594547271728515625">
        <ele>1146.800048828125</ele>
        <time>2026-06-15T15:50:58.000Z</time>
        <extensions>
          <ns3:TrackPointExtension>
            <ns3:atemp>20.0</ns3:atemp>
          </ns3:TrackPointExtension>
        </extensions>
      </trkpt>
      <trkpt lat="42.610288895666599273681640625" lon="19.95822549797594547271728515625">
        <ele>1146.800048828125</ele>
        <time>2026-06-15T15:50:59.000Z</time>
        <extensions>
          <ns3:TrackPointExtension>
            <ns3:atemp>20.0</ns3:atemp>
          </ns3:TrackPointExtension>
        </extensions>
      </trkpt>
      <trkpt lat="42.610288895666599273681640625" lon="19.95822549797594547271728515625">
        <ele>1146.800048828125</ele>
        <time>2026-06-15T15:51:00.000Z</time>
        <extensions>
          <ns3:TrackPointExtension>
            <ns3:atemp>20.0</ns3:atemp>
          </ns3:TrackPointExtension>
        </extensions>
      </trkpt>
      <trkpt lat="42.610288895666599273681640625" lon="19.95822549797594547271728515625">
        <ele>1146.800048828125</ele>
        <time>2026-06-15T15:51:01.000Z</time>
        <extensions>
          <ns3:TrackPointExtension>
            <ns3:atemp>20.0</ns3:atemp>
          </ns3:TrackPointExtension>
        </extensions>
      </trkpt>
      <trkpt lat="42.610288895666599273681640625" lon="19.95822549797594547271728515625">
        <ele>1146.800048828125</ele>
        <time>2026-06-15T15:51:02.000Z</time>
        <extensions>
          <ns3:TrackPointExtension>
            <ns3:atemp>20.0</ns3:atemp>
          </ns3:TrackPointExtension>
        </extensions>
      </trkpt>
      <trkpt lat="42.610288895666599273681640625" lon="19.95822549797594547271728515625">
        <ele>1146.800048828125</ele>
        <time>2026-06-15T15:51:03.000Z</time>
        <extensions>
          <ns3:TrackPointExtension>
            <ns3:atemp>20.0</ns3:atemp>
          </ns3:TrackPointExtension>
        </extensions>
      </trkpt>
      <trkpt lat="42.610288895666599273681640625" lon="19.95822549797594547271728515625">
        <ele>1146.800048828125</ele>
        <time>2026-06-15T15:51:04.000Z</time>
        <extensions>
          <ns3:TrackPointExtension>
            <ns3:atemp>20.0</ns3:atemp>
          </ns3:TrackPointExtension>
        </extensions>
      </trkpt>
      <trkpt lat="42.610288895666599273681640625" lon="19.95822549797594547271728515625">
        <ele>1146.800048828125</ele>
        <time>2026-06-15T15:51:05.000Z</time>
        <extensions>
          <ns3:TrackPointExtension>
            <ns3:atemp>20.0</ns3:atemp>
          </ns3:TrackPointExtension>
        </extensions>
      </trkpt>
      <trkpt lat="42.610288895666599273681640625" lon="19.95822549797594547271728515625">
        <ele>1146.800048828125</ele>
        <time>2026-06-15T15:51:06.000Z</time>
        <extensions>
          <ns3:TrackPointExtension>
            <ns3:atemp>20.0</ns3:atemp>
          </ns3:TrackPointExtension>
        </extensions>
      </trkpt>
      <trkpt lat="42.610288895666599273681640625" lon="19.95822549797594547271728515625">
        <ele>1146.800048828125</ele>
        <time>2026-06-15T15:51:07.000Z</time>
        <extensions>
          <ns3:TrackPointExtension>
            <ns3:atemp>20.0</ns3:atemp>
          </ns3:TrackPointExtension>
        </extensions>
      </trkpt>
      <trkpt lat="42.610288895666599273681640625" lon="19.95822549797594547271728515625">
        <ele>1146.800048828125</ele>
        <time>2026-06-15T15:51:08.000Z</time>
        <extensions>
          <ns3:TrackPointExtension>
            <ns3:atemp>20.0</ns3:atemp>
          </ns3:TrackPointExtension>
        </extensions>
      </trkpt>
      <trkpt lat="42.610288895666599273681640625" lon="19.95822549797594547271728515625">
        <ele>1146.800048828125</ele>
        <time>2026-06-15T15:51:09.000Z</time>
        <extensions>
          <ns3:TrackPointExtension>
            <ns3:atemp>20.0</ns3:atemp>
          </ns3:TrackPointExtension>
        </extensions>
      </trkpt>
      <trkpt lat="42.610288895666599273681640625" lon="19.95822549797594547271728515625">
        <ele>1146.800048828125</ele>
        <time>2026-06-15T15:51:10.000Z</time>
        <extensions>
          <ns3:TrackPointExtension>
            <ns3:atemp>20.0</ns3:atemp>
          </ns3:TrackPointExtension>
        </extensions>
      </trkpt>
      <trkpt lat="42.610288895666599273681640625" lon="19.95822549797594547271728515625">
        <ele>1146.800048828125</ele>
        <time>2026-06-15T15:51:11.000Z</time>
        <extensions>
          <ns3:TrackPointExtension>
            <ns3:atemp>20.0</ns3:atemp>
          </ns3:TrackPointExtension>
        </extensions>
      </trkpt>
      <trkpt lat="42.610288895666599273681640625" lon="19.95822549797594547271728515625">
        <ele>1146.800048828125</ele>
        <time>2026-06-15T15:51:12.000Z</time>
        <extensions>
          <ns3:TrackPointExtension>
            <ns3:atemp>20.0</ns3:atemp>
          </ns3:TrackPointExtension>
        </extensions>
      </trkpt>
      <trkpt lat="42.610288895666599273681640625" lon="19.95822549797594547271728515625">
        <ele>1146.800048828125</ele>
        <time>2026-06-15T15:51:13.000Z</time>
        <extensions>
          <ns3:TrackPointExtension>
            <ns3:atemp>20.0</ns3:atemp>
          </ns3:TrackPointExtension>
        </extensions>
      </trkpt>
      <trkpt lat="42.610288895666599273681640625" lon="19.95822549797594547271728515625">
        <ele>1146.800048828125</ele>
        <time>2026-06-15T15:51:14.000Z</time>
        <extensions>
          <ns3:TrackPointExtension>
            <ns3:atemp>20.0</ns3:atemp>
          </ns3:TrackPointExtension>
        </extensions>
      </trkpt>
      <trkpt lat="42.610288895666599273681640625" lon="19.95822549797594547271728515625">
        <ele>1146.800048828125</ele>
        <time>2026-06-15T15:51:15.000Z</time>
        <extensions>
          <ns3:TrackPointExtension>
            <ns3:atemp>20.0</ns3:atemp>
          </ns3:TrackPointExtension>
        </extensions>
      </trkpt>
      <trkpt lat="42.610288895666599273681640625" lon="19.95822549797594547271728515625">
        <ele>1146.800048828125</ele>
        <time>2026-06-15T15:51:16.000Z</time>
        <extensions>
          <ns3:TrackPointExtension>
            <ns3:atemp>20.0</ns3:atemp>
          </ns3:TrackPointExtension>
        </extensions>
      </trkpt>
      <trkpt lat="42.610288895666599273681640625" lon="19.95822549797594547271728515625">
        <ele>1146.800048828125</ele>
        <time>2026-06-15T15:51:17.000Z</time>
        <extensions>
          <ns3:TrackPointExtension>
            <ns3:atemp>20.0</ns3:atemp>
          </ns3:TrackPointExtension>
        </extensions>
      </trkpt>
      <trkpt lat="42.610288895666599273681640625" lon="19.95822549797594547271728515625">
        <ele>1146.800048828125</ele>
        <time>2026-06-15T15:51:18.000Z</time>
        <extensions>
          <ns3:TrackPointExtension>
            <ns3:atemp>20.0</ns3:atemp>
          </ns3:TrackPointExtension>
        </extensions>
      </trkpt>
      <trkpt lat="42.610288895666599273681640625" lon="19.95822549797594547271728515625">
        <ele>1146.800048828125</ele>
        <time>2026-06-15T15:51:19.000Z</time>
        <extensions>
          <ns3:TrackPointExtension>
            <ns3:atemp>20.0</ns3:atemp>
          </ns3:TrackPointExtension>
        </extensions>
      </trkpt>
      <trkpt lat="42.610288895666599273681640625" lon="19.95822549797594547271728515625">
        <ele>1147</ele>
        <time>2026-06-15T15:51:20.000Z</time>
        <extensions>
          <ns3:TrackPointExtension>
            <ns3:atemp>20.0</ns3:atemp>
          </ns3:TrackPointExtension>
        </extensions>
      </trkpt>
      <trkpt lat="42.610288895666599273681640625" lon="19.95822549797594547271728515625">
        <ele>1147</ele>
        <time>2026-06-15T15:51:21.000Z</time>
        <extensions>
          <ns3:TrackPointExtension>
            <ns3:atemp>20.0</ns3:atemp>
          </ns3:TrackPointExtension>
        </extensions>
      </trkpt>
      <trkpt lat="42.610288895666599273681640625" lon="19.95822549797594547271728515625">
        <ele>1147</ele>
        <time>2026-06-15T15:51:22.000Z</time>
        <extensions>
          <ns3:TrackPointExtension>
            <ns3:atemp>20.0</ns3:atemp>
          </ns3:TrackPointExtension>
        </extensions>
      </trkpt>
      <trkpt lat="42.610288895666599273681640625" lon="19.95822549797594547271728515625">
        <ele>1147</ele>
        <time>2026-06-15T15:51:23.000Z</time>
        <extensions>
          <ns3:TrackPointExtension>
            <ns3:atemp>20.0</ns3:atemp>
          </ns3:TrackPointExtension>
        </extensions>
      </trkpt>
      <trkpt lat="42.610288895666599273681640625" lon="19.95822549797594547271728515625">
        <ele>1147</ele>
        <time>2026-06-15T15:51:24.000Z</time>
        <extensions>
          <ns3:TrackPointExtension>
            <ns3:atemp>20.0</ns3:atemp>
          </ns3:TrackPointExtension>
        </extensions>
      </trkpt>
      <trkpt lat="42.610288895666599273681640625" lon="19.95822549797594547271728515625">
        <ele>1147</ele>
        <time>2026-06-15T15:51:25.000Z</time>
        <extensions>
          <ns3:TrackPointExtension>
            <ns3:atemp>20.0</ns3:atemp>
          </ns3:TrackPointExtension>
        </extensions>
      </trkpt>
      <trkpt lat="42.610288895666599273681640625" lon="19.95822549797594547271728515625">
        <ele>1147</ele>
        <time>2026-06-15T15:51:26.000Z</time>
        <extensions>
          <ns3:TrackPointExtension>
            <ns3:atemp>21.0</ns3:atemp>
          </ns3:TrackPointExtension>
        </extensions>
      </trkpt>
      <trkpt lat="42.610288895666599273681640625" lon="19.95822549797594547271728515625">
        <ele>1147</ele>
        <time>2026-06-15T15:51:27.000Z</time>
        <extensions>
          <ns3:TrackPointExtension>
            <ns3:atemp>21.0</ns3:atemp>
          </ns3:TrackPointExtension>
        </extensions>
      </trkpt>
      <trkpt lat="42.610288895666599273681640625" lon="19.95822549797594547271728515625">
        <ele>1147</ele>
        <time>2026-06-15T15:51:28.000Z</time>
        <extensions>
          <ns3:TrackPointExtension>
            <ns3:atemp>21.0</ns3:atemp>
          </ns3:TrackPointExtension>
        </extensions>
      </trkpt>
      <trkpt lat="42.610288895666599273681640625" lon="19.95822549797594547271728515625">
        <ele>1147</ele>
        <time>2026-06-15T15:51:29.000Z</time>
        <extensions>
          <ns3:TrackPointExtension>
            <ns3:atemp>21.0</ns3:atemp>
          </ns3:TrackPointExtension>
        </extensions>
      </trkpt>
      <trkpt lat="42.610288895666599273681640625" lon="19.95822549797594547271728515625">
        <ele>1147</ele>
        <time>2026-06-15T15:51:30.000Z</time>
        <extensions>
          <ns3:TrackPointExtension>
            <ns3:atemp>20.0</ns3:atemp>
          </ns3:TrackPointExtension>
        </extensions>
      </trkpt>
      <trkpt lat="42.610288895666599273681640625" lon="19.95822549797594547271728515625">
        <ele>1147</ele>
        <time>2026-06-15T15:51:31.000Z</time>
        <extensions>
          <ns3:TrackPointExtension>
            <ns3:atemp>21.0</ns3:atemp>
          </ns3:TrackPointExtension>
        </extensions>
      </trkpt>
      <trkpt lat="42.610288895666599273681640625" lon="19.95822549797594547271728515625">
        <ele>1147</ele>
        <time>2026-06-15T15:51:32.000Z</time>
        <extensions>
          <ns3:TrackPointExtension>
            <ns3:atemp>21.0</ns3:atemp>
          </ns3:TrackPointExtension>
        </extensions>
      </trkpt>
      <trkpt lat="42.610288895666599273681640625" lon="19.95822549797594547271728515625">
        <ele>1147</ele>
        <time>2026-06-15T15:51:33.000Z</time>
        <extensions>
          <ns3:TrackPointExtension>
            <ns3:atemp>20.0</ns3:atemp>
          </ns3:TrackPointExtension>
        </extensions>
      </trkpt>
      <trkpt lat="42.610288895666599273681640625" lon="19.95822549797594547271728515625">
        <ele>1147</ele>
        <time>2026-06-15T15:51:34.000Z</time>
        <extensions>
          <ns3:TrackPointExtension>
            <ns3:atemp>20.0</ns3:atemp>
          </ns3:TrackPointExtension>
        </extensions>
      </trkpt>
      <trkpt lat="42.610288895666599273681640625" lon="19.95822549797594547271728515625">
        <ele>1147</ele>
        <time>2026-06-15T15:51:35.000Z</time>
        <extensions>
          <ns3:TrackPointExtension>
            <ns3:atemp>21.0</ns3:atemp>
          </ns3:TrackPointExtension>
        </extensions>
      </trkpt>
      <trkpt lat="42.610288895666599273681640625" lon="19.95822549797594547271728515625">
        <ele>1147</ele>
        <time>2026-06-15T15:51:36.000Z</time>
        <extensions>
          <ns3:TrackPointExtension>
            <ns3:atemp>20.0</ns3:atemp>
          </ns3:TrackPointExtension>
        </extensions>
      </trkpt>
      <trkpt lat="42.61029115878045558929443359375" lon="19.9582274258136749267578125">
        <ele>1147</ele>
        <time>2026-06-15T15:51:37.000Z</time>
        <extensions>
          <ns3:TrackPointExtension>
            <ns3:atemp>21.0</ns3:atemp>
          </ns3:TrackPointExtension>
        </extensions>
      </trkpt>
      <trkpt lat="42.6102924160659313201904296875" lon="19.95822918601334095001220703125">
        <ele>1147</ele>
        <time>2026-06-15T15:51:38.000Z</time>
        <extensions>
          <ns3:TrackPointExtension>
            <ns3:atemp>21.0</ns3:atemp>
          </ns3:TrackPointExtension>
        </extensions>
      </trkpt>
      <trkpt lat="42.61029082350432872772216796875" lon="19.95821694843471050262451171875">
        <ele>1147</ele>
        <time>2026-06-15T15:51:39.000Z</time>
        <extensions>
          <ns3:TrackPointExtension>
            <ns3:atemp>21.0</ns3:atemp>
          </ns3:TrackPointExtension>
        </extensions>
      </trkpt>
      <trkpt lat="42.61029115878045558929443359375" lon="19.95820236392319202423095703125">
        <ele>1147</ele>
        <time>2026-06-15T15:51:40.000Z</time>
        <extensions>
          <ns3:TrackPointExtension>
            <ns3:atemp>21.0</ns3:atemp>
          </ns3:TrackPointExtension>
        </extensions>
      </trkpt>
      <trkpt lat="42.61029350571334362030029296875" lon="19.9581940658390522003173828125">
        <ele>1147</ele>
        <time>2026-06-15T15:51:41.000Z</time>
        <extensions>
          <ns3:TrackPointExtension>
            <ns3:atemp>21.0</ns3:atemp>
          </ns3:TrackPointExtension>
        </extensions>
      </trkpt>
      <trkpt lat="42.6102977804839611053466796875" lon="19.9581803195178508758544921875">
        <ele>1147</ele>
        <time>2026-06-15T15:51:42.000Z</time>
        <extensions>
          <ns3:TrackPointExtension>
            <ns3:atemp>21.0</ns3:atemp>
          </ns3:TrackPointExtension>
        </extensions>
      </trkpt>
      <trkpt lat="42.61029467917978763580322265625" lon="19.95815701782703399658203125">
        <ele>1147</ele>
        <time>2026-06-15T15:51:43.000Z</time>
        <extensions>
          <ns3:TrackPointExtension>
            <ns3:atemp>21.0</ns3:atemp>
          </ns3:TrackPointExtension>
        </extensions>
      </trkpt>
      <trkpt lat="42.61029216460883617401123046875" lon="19.9581199698150157928466796875">
        <ele>1147.199951171875</ele>
        <time>2026-06-15T15:51:44.000Z</time>
        <extensions>
          <ns3:TrackPointExtension>
            <ns3:atemp>21.0</ns3:atemp>
          </ns3:TrackPointExtension>
        </extensions>
      </trkpt>
      <trkpt lat="42.61029317043721675872802734375" lon="19.9580824188888072967529296875">
        <ele>1147.199951171875</ele>
        <time>2026-06-15T15:51:45.000Z</time>
        <extensions>
          <ns3:TrackPointExtension>
            <ns3:atemp>21.0</ns3:atemp>
          </ns3:TrackPointExtension>
        </extensions>
      </trkpt>
      <trkpt lat="42.610293924808502197265625" lon="19.95803900063037872314453125">
        <ele>1147</ele>
        <time>2026-06-15T15:51:46.000Z</time>
        <extensions>
          <ns3:TrackPointExtension>
            <ns3:atemp>21.0</ns3:atemp>
          </ns3:TrackPointExtension>
        </extensions>
      </trkpt>
      <trkpt lat="42.610292248427867889404296875" lon="19.957999773323535919189453125">
        <ele>1147</ele>
        <time>2026-06-15T15:51:47.000Z</time>
        <extensions>
          <ns3:TrackPointExtension>
            <ns3:atemp>21.0</ns3:atemp>
          </ns3:TrackPointExtension>
        </extensions>
      </trkpt>
      <trkpt lat="42.61030524037778377532958984375" lon="19.95796834118664264678955078125">
        <ele>1147</ele>
        <time>2026-06-15T15:51:48.000Z</time>
        <extensions>
          <ns3:TrackPointExtension>
            <ns3:atemp>21.0</ns3:atemp>
          </ns3:TrackPointExtension>
        </extensions>
      </trkpt>
      <trkpt lat="42.61031244881451129913330078125" lon="19.9579332210123538970947265625">
        <ele>1146.800048828125</ele>
        <time>2026-06-15T15:51:49.000Z</time>
        <extensions>
          <ns3:TrackPointExtension>
            <ns3:atemp>21.0</ns3:atemp>
          </ns3:TrackPointExtension>
        </extensions>
      </trkpt>
      <trkpt lat="42.61032569222152233123779296875" lon="19.9578916467726230621337890625">
        <ele>1146.800048828125</ele>
        <time>2026-06-15T15:51:50.000Z</time>
        <extensions>
          <ns3:TrackPointExtension>
            <ns3:atemp>21.0</ns3:atemp>
          </ns3:TrackPointExtension>
        </extensions>
      </trkpt>
      <trkpt lat="42.6103435456752777099609375" lon="19.957850240170955657958984375">
        <ele>1146.5999755859375</ele>
        <time>2026-06-15T15:51:51.000Z</time>
        <extensions>
          <ns3:TrackPointExtension>
            <ns3:atemp>21.0</ns3:atemp>
          </ns3:TrackPointExtension>
        </extensions>
      </trkpt>
      <trkpt lat="42.6103725470602512359619140625" lon="19.95781562291085720062255859375">
        <ele>1146.5999755859375</ele>
        <time>2026-06-15T15:51:52.000Z</time>
        <extensions>
          <ns3:TrackPointExtension>
            <ns3:atemp>21.0</ns3:atemp>
          </ns3:TrackPointExtension>
        </extensions>
      </trkpt>
      <trkpt lat="42.61040515266358852386474609375" lon="19.9577808380126953125">
        <ele>1146.4000244140625</ele>
        <time>2026-06-15T15:51:53.000Z</time>
        <extensions>
          <ns3:TrackPointExtension>
            <ns3:atemp>21.0</ns3:atemp>
          </ns3:TrackPointExtension>
        </extensions>
      </trkpt>
      <trkpt lat="42.6104432903230190277099609375" lon="19.95774806477129459381103515625">
        <ele>1146.4000244140625</ele>
        <time>2026-06-15T15:51:54.000Z</time>
        <extensions>
          <ns3:TrackPointExtension>
            <ns3:atemp>21.0</ns3:atemp>
          </ns3:TrackPointExtension>
        </extensions>
      </trkpt>
      <trkpt lat="42.6104788295924663543701171875" lon="19.95771772228181362152099609375">
        <ele>1146.4000244140625</ele>
        <time>2026-06-15T15:51:55.000Z</time>
        <extensions>
          <ns3:TrackPointExtension>
            <ns3:atemp>21.0</ns3:atemp>
          </ns3:TrackPointExtension>
        </extensions>
      </trkpt>
      <trkpt lat="42.610517553985118865966796875" lon="19.95767983607947826385498046875">
        <ele>1146.4000244140625</ele>
        <time>2026-06-15T15:51:56.000Z</time>
        <extensions>
          <ns3:TrackPointExtension>
            <ns3:atemp>21.0</ns3:atemp>
          </ns3:TrackPointExtension>
        </extensions>
      </trkpt>
      <trkpt lat="42.61056072078645229339599609375" lon="19.9576371721923351287841796875">
        <ele>1146.199951171875</ele>
        <time>2026-06-15T15:51:57.000Z</time>
        <extensions>
          <ns3:TrackPointExtension>
            <ns3:atemp>21.0</ns3:atemp>
          </ns3:TrackPointExtension>
        </extensions>
      </trkpt>
      <trkpt lat="42.61060782708227634429931640625" lon="19.9575895629823207855224609375">
        <ele>1146.199951171875</ele>
        <time>2026-06-15T15:51:58.000Z</time>
        <extensions>
          <ns3:TrackPointExtension>
            <ns3:atemp>21.0</ns3:atemp>
          </ns3:TrackPointExtension>
        </extensions>
      </trkpt>
      <trkpt lat="42.61065577156841754913330078125" lon="19.95753834955394268035888671875">
        <ele>1145.800048828125</ele>
        <time>2026-06-15T15:51:59.000Z</time>
        <extensions>
          <ns3:TrackPointExtension>
            <ns3:atemp>21.0</ns3:atemp>
          </ns3:TrackPointExtension>
        </extensions>
      </trkpt>
      <trkpt lat="42.610706984996795654296875" lon="19.9574802629649639129638671875">
        <ele>1145.4000244140625</ele>
        <time>2026-06-15T15:52:00.000Z</time>
        <extensions>
          <ns3:TrackPointExtension>
            <ns3:atemp>21.0</ns3:atemp>
          </ns3:TrackPointExtension>
        </extensions>
      </trkpt>
      <trkpt lat="42.610759623348712921142578125" lon="19.95741949416697025299072265625">
        <ele>1144.800048828125</ele>
        <time>2026-06-15T15:52:01.000Z</time>
        <extensions>
          <ns3:TrackPointExtension>
            <ns3:atemp>21.0</ns3:atemp>
          </ns3:TrackPointExtension>
        </extensions>
      </trkpt>
      <trkpt lat="42.61081553064286708831787109375" lon="19.957360066473484039306640625">
        <ele>1144.199951171875</ele>
        <time>2026-06-15T15:52:02.000Z</time>
        <extensions>
          <ns3:TrackPointExtension>
            <ns3:atemp>21.0</ns3:atemp>
          </ns3:TrackPointExtension>
        </extensions>
      </trkpt>
      <trkpt lat="42.610876969993114471435546875" lon="19.95730835013091564178466796875">
        <ele>1143.199951171875</ele>
        <time>2026-06-15T15:52:03.000Z</time>
        <extensions>
          <ns3:TrackPointExtension>
            <ns3:atemp>21.0</ns3:atemp>
          </ns3:TrackPointExtension>
        </extensions>
      </trkpt>
      <trkpt lat="42.6109401695430278778076171875" lon="19.9572551250457763671875">
        <ele>1142.5999755859375</ele>
        <time>2026-06-15T15:52:04.000Z</time>
        <extensions>
          <ns3:TrackPointExtension>
            <ns3:atemp>21.0</ns3:atemp>
          </ns3:TrackPointExtension>
        </extensions>
      </trkpt>
      <trkpt lat="42.610999010503292083740234375" lon="19.957207180559635162353515625">
        <ele>1141.800048828125</ele>
        <time>2026-06-15T15:52:05.000Z</time>
        <extensions>
          <ns3:TrackPointExtension>
            <ns3:atemp>21.0</ns3:atemp>
          </ns3:TrackPointExtension>
        </extensions>
      </trkpt>
      <trkpt lat="42.6110544987022876739501953125" lon="19.9571651034057140350341796875">
        <ele>1141.4000244140625</ele>
        <time>2026-06-15T15:52:06.000Z</time>
        <extensions>
          <ns3:TrackPointExtension>
            <ns3:atemp>21.0</ns3:atemp>
          </ns3:TrackPointExtension>
        </extensions>
      </trkpt>
      <trkpt lat="42.611102275550365447998046875" lon="19.9571178294718265533447265625">
        <ele>1140.800048828125</ele>
        <time>2026-06-15T15:52:07.000Z</time>
        <extensions>
          <ns3:TrackPointExtension>
            <ns3:atemp>21.0</ns3:atemp>
          </ns3:TrackPointExtension>
        </extensions>
      </trkpt>
      <trkpt lat="42.61114217340946197509765625" lon="19.9570618383586406707763671875">
        <ele>1140.199951171875</ele>
        <time>2026-06-15T15:52:08.000Z</time>
        <extensions>
          <ns3:TrackPointExtension>
            <ns3:atemp>21.0</ns3:atemp>
          </ns3:TrackPointExtension>
        </extensions>
      </trkpt>
      <trkpt lat="42.6111745275557041168212890625" lon="19.95700098574161529541015625">
        <ele>1139.5999755859375</ele>
        <time>2026-06-15T15:52:09.000Z</time>
        <extensions>
          <ns3:TrackPointExtension>
            <ns3:atemp>21.0</ns3:atemp>
          </ns3:TrackPointExtension>
        </extensions>
      </trkpt>
      <trkpt lat="42.6111886091530323028564453125" lon="19.95693099685013294219970703125">
        <ele>1139.199951171875</ele>
        <time>2026-06-15T15:52:10.000Z</time>
        <extensions>
          <ns3:TrackPointExtension>
            <ns3:atemp>21.0</ns3:atemp>
          </ns3:TrackPointExtension>
        </extensions>
      </trkpt>
      <trkpt lat="42.611191459000110626220703125" lon="19.95686142705380916595458984375">
        <ele>1138.800048828125</ele>
        <time>2026-06-15T15:52:11.000Z</time>
        <extensions>
          <ns3:TrackPointExtension>
            <ns3:atemp>21.0</ns3:atemp>
          </ns3:TrackPointExtension>
        </extensions>
      </trkpt>
      <trkpt lat="42.61118701659142971038818359375" lon="19.95679236017167568206787109375">
        <ele>1138.199951171875</ele>
        <time>2026-06-15T15:52:12.000Z</time>
        <extensions>
          <ns3:TrackPointExtension>
            <ns3:atemp>21.0</ns3:atemp>
          </ns3:TrackPointExtension>
        </extensions>
      </trkpt>
      <trkpt lat="42.611178718507289886474609375" lon="19.956727065145969390869140625">
        <ele>1137.800048828125</ele>
        <time>2026-06-15T15:52:13.000Z</time>
        <extensions>
          <ns3:TrackPointExtension>
            <ns3:atemp>21.0</ns3:atemp>
          </ns3:TrackPointExtension>
        </extensions>
      </trkpt>
      <trkpt lat="42.6111715100705623626708984375" lon="19.95666948147118091583251953125">
        <ele>1137.4000244140625</ele>
        <time>2026-06-15T15:52:14.000Z</time>
        <extensions>
          <ns3:TrackPointExtension>
            <ns3:atemp>21.0</ns3:atemp>
          </ns3:TrackPointExtension>
        </extensions>
      </trkpt>
      <trkpt lat="42.6111637987196445465087890625" lon="19.95662036351859569549560546875">
        <ele>1137</ele>
        <time>2026-06-15T15:52:15.000Z</time>
        <extensions>
          <ns3:TrackPointExtension>
            <ns3:atemp>21.0</ns3:atemp>
          </ns3:TrackPointExtension>
        </extensions>
      </trkpt>
      <trkpt lat="42.61115801520645618438720703125" lon="19.95658264495432376861572265625">
        <ele>1136.800048828125</ele>
        <time>2026-06-15T15:52:16.000Z</time>
        <extensions>
          <ns3:TrackPointExtension>
            <ns3:atemp>21.0</ns3:atemp>
          </ns3:TrackPointExtension>
        </extensions>
      </trkpt>
      <trkpt lat="42.61115885339677333831787109375" lon="19.9565535597503185272216796875">
        <ele>1136.5999755859375</ele>
        <time>2026-06-15T15:52:17.000Z</time>
        <extensions>
          <ns3:TrackPointExtension>
            <ns3:atemp>21.0</ns3:atemp>
          </ns3:TrackPointExtension>
        </extensions>
      </trkpt>
      <trkpt lat="42.6111604459583759307861328125" lon="19.9565341137349605560302734375">
        <ele>1136.4000244140625</ele>
        <time>2026-06-15T15:52:18.000Z</time>
        <extensions>
          <ns3:TrackPointExtension>
            <ns3:atemp>21.0</ns3:atemp>
          </ns3:TrackPointExtension>
        </extensions>
      </trkpt>
      <trkpt lat="42.6111643016338348388671875" lon="19.95653000660240650177001953125">
        <ele>1136.199951171875</ele>
        <time>2026-06-15T15:52:19.000Z</time>
        <extensions>
          <ns3:TrackPointExtension>
            <ns3:atemp>21.0</ns3:atemp>
          </ns3:TrackPointExtension>
        </extensions>
      </trkpt>
      <trkpt lat="42.61116421781480312347412109375" lon="19.95652983896434307098388671875">
        <ele>1136.199951171875</ele>
        <time>2026-06-15T15:52:20.000Z</time>
        <extensions>
          <ns3:TrackPointExtension>
            <ns3:atemp>21.0</ns3:atemp>
          </ns3:TrackPointExtension>
        </extensions>
      </trkpt>
      <trkpt lat="42.61116421781480312347412109375" lon="19.95652983896434307098388671875">
        <ele>1136.199951171875</ele>
        <time>2026-06-15T15:52:21.000Z</time>
        <extensions>
          <ns3:TrackPointExtension>
            <ns3:atemp>21.0</ns3:atemp>
          </ns3:TrackPointExtension>
        </extensions>
      </trkpt>
      <trkpt lat="42.61116421781480312347412109375" lon="19.95652983896434307098388671875">
        <ele>1136.199951171875</ele>
        <time>2026-06-15T15:52:22.000Z</time>
        <extensions>
          <ns3:TrackPointExtension>
            <ns3:atemp>21.0</ns3:atemp>
          </ns3:TrackPointExtension>
        </extensions>
      </trkpt>
      <trkpt lat="42.61116421781480312347412109375" lon="19.95652983896434307098388671875">
        <ele>1136.199951171875</ele>
        <time>2026-06-15T15:52:23.000Z</time>
        <extensions>
          <ns3:TrackPointExtension>
            <ns3:atemp>21.0</ns3:atemp>
          </ns3:TrackPointExtension>
        </extensions>
      </trkpt>
      <trkpt lat="42.61116421781480312347412109375" lon="19.95652983896434307098388671875">
        <ele>1136.199951171875</ele>
        <time>2026-06-15T15:52:24.000Z</time>
        <extensions>
          <ns3:TrackPointExtension>
            <ns3:atemp>21.0</ns3:atemp>
          </ns3:TrackPointExtension>
        </extensions>
      </trkpt>
      <trkpt lat="42.61116421781480312347412109375" lon="19.95652983896434307098388671875">
        <ele>1136.199951171875</ele>
        <time>2026-06-15T15:52:25.000Z</time>
        <extensions>
          <ns3:TrackPointExtension>
            <ns3:atemp>21.0</ns3:atemp>
          </ns3:TrackPointExtension>
        </extensions>
      </trkpt>
      <trkpt lat="42.61116421781480312347412109375" lon="19.95652983896434307098388671875">
        <ele>1136.199951171875</ele>
        <time>2026-06-15T15:52:26.000Z</time>
        <extensions>
          <ns3:TrackPointExtension>
            <ns3:atemp>21.0</ns3:atemp>
          </ns3:TrackPointExtension>
        </extensions>
      </trkpt>
      <trkpt lat="42.61116421781480312347412109375" lon="19.95652983896434307098388671875">
        <ele>1136</ele>
        <time>2026-06-15T15:52:27.000Z</time>
        <extensions>
          <ns3:TrackPointExtension>
            <ns3:atemp>21.0</ns3:atemp>
          </ns3:TrackPointExtension>
        </extensions>
      </trkpt>
      <trkpt lat="42.61116421781480312347412109375" lon="19.95652983896434307098388671875">
        <ele>1136</ele>
        <time>2026-06-15T15:52:28.000Z</time>
        <extensions>
          <ns3:TrackPointExtension>
            <ns3:atemp>21.0</ns3:atemp>
          </ns3:TrackPointExtension>
        </extensions>
      </trkpt>
      <trkpt lat="42.61116421781480312347412109375" lon="19.95652983896434307098388671875">
        <ele>1135.800048828125</ele>
        <time>2026-06-15T15:52:29.000Z</time>
        <extensions>
          <ns3:TrackPointExtension>
            <ns3:atemp>21.0</ns3:atemp>
          </ns3:TrackPointExtension>
        </extensions>
      </trkpt>
      <trkpt lat="42.61116421781480312347412109375" lon="19.95652983896434307098388671875">
        <ele>1135.800048828125</ele>
        <time>2026-06-15T15:52:30.000Z</time>
        <extensions>
          <ns3:TrackPointExtension>
            <ns3:atemp>21.0</ns3:atemp>
          </ns3:TrackPointExtension>
        </extensions>
      </trkpt>
      <trkpt lat="42.61116421781480312347412109375" lon="19.95652983896434307098388671875">
        <ele>1136</ele>
        <time>2026-06-15T15:52:31.000Z</time>
        <extensions>
          <ns3:TrackPointExtension>
            <ns3:atemp>21.0</ns3:atemp>
          </ns3:TrackPointExtension>
        </extensions>
      </trkpt>
      <trkpt lat="42.6111637987196445465087890625" lon="19.95652648620307445526123046875">
        <ele>1136</ele>
        <time>2026-06-15T15:52:32.000Z</time>
        <extensions>
          <ns3:TrackPointExtension>
            <ns3:atemp>21.0</ns3:atemp>
          </ns3:TrackPointExtension>
        </extensions>
      </trkpt>
      <trkpt lat="42.611155249178409576416015625" lon="19.95649999938905239105224609375">
        <ele>1135.800048828125</ele>
        <time>2026-06-15T15:52:33.000Z</time>
        <extensions>
          <ns3:TrackPointExtension>
            <ns3:atemp>21.0</ns3:atemp>
          </ns3:TrackPointExtension>
        </extensions>
      </trkpt>
      <trkpt lat="42.61114292778074741363525390625" lon="19.95648826472461223602294921875">
        <ele>1135.800048828125</ele>
        <time>2026-06-15T15:52:34.000Z</time>
        <extensions>
          <ns3:TrackPointExtension>
            <ns3:atemp>21.0</ns3:atemp>
          </ns3:TrackPointExtension>
        </extensions>
      </trkpt>
      <trkpt lat="42.61112968437373638153076171875" lon="19.9564932100474834442138671875">
        <ele>1135.5999755859375</ele>
        <time>2026-06-15T15:52:35.000Z</time>
        <extensions>
          <ns3:TrackPointExtension>
            <ns3:atemp>21.0</ns3:atemp>
          </ns3:TrackPointExtension>
        </extensions>
      </trkpt>
      <trkpt lat="42.611115686595439910888671875" lon="19.95650234632194042205810546875">
        <ele>1135.4000244140625</ele>
        <time>2026-06-15T15:52:36.000Z</time>
        <extensions>
          <ns3:TrackPointExtension>
            <ns3:atemp>21.0</ns3:atemp>
          </ns3:TrackPointExtension>
        </extensions>
      </trkpt>
      <trkpt lat="42.611105628311634063720703125" lon="19.9565150029957294464111328125">
        <ele>1135.199951171875</ele>
        <time>2026-06-15T15:52:37.000Z</time>
        <extensions>
          <ns3:TrackPointExtension>
            <ns3:atemp>21.0</ns3:atemp>
          </ns3:TrackPointExtension>
        </extensions>
      </trkpt>
      <trkpt lat="42.61110319755971431732177734375" lon="19.956533946096897125244140625">
        <ele>1135.199951171875</ele>
        <time>2026-06-15T15:52:38.000Z</time>
        <extensions>
          <ns3:TrackPointExtension>
            <ns3:atemp>21.0</ns3:atemp>
          </ns3:TrackPointExtension>
        </extensions>
      </trkpt>
      <trkpt lat="42.61110554449260234832763671875" lon="19.9565552361309528350830078125">
        <ele>1135.199951171875</ele>
        <time>2026-06-15T15:52:39.000Z</time>
        <extensions>
          <ns3:TrackPointExtension>
            <ns3:atemp>21.0</ns3:atemp>
          </ns3:TrackPointExtension>
        </extensions>
      </trkpt>
      <trkpt lat="42.61111074127256870269775390625" lon="19.95657325722277164459228515625">
        <ele>1135.199951171875</ele>
        <time>2026-06-15T15:52:40.000Z</time>
        <extensions>
          <ns3:TrackPointExtension>
            <ns3:atemp>21.0</ns3:atemp>
          </ns3:TrackPointExtension>
        </extensions>
      </trkpt>
      <trkpt lat="42.61111677624285221099853515625" lon="19.95658532716333866119384765625">
        <ele>1135.4000244140625</ele>
        <time>2026-06-15T15:52:41.000Z</time>
        <extensions>
          <ns3:TrackPointExtension>
            <ns3:atemp>21.0</ns3:atemp>
          </ns3:TrackPointExtension>
        </extensions>
      </trkpt>
      <trkpt lat="42.611127756536006927490234375" lon="19.95659337379038333892822265625">
        <ele>1135.4000244140625</ele>
        <time>2026-06-15T15:52:42.000Z</time>
        <extensions>
          <ns3:TrackPointExtension>
            <ns3:atemp>21.0</ns3:atemp>
          </ns3:TrackPointExtension>
        </extensions>
      </trkpt>
      <trkpt lat="42.6111440174281597137451171875" lon="19.9565941281616687774658203125">
        <ele>1135.4000244140625</ele>
        <time>2026-06-15T15:52:43.000Z</time>
        <extensions>
          <ns3:TrackPointExtension>
            <ns3:atemp>21.0</ns3:atemp>
          </ns3:TrackPointExtension>
        </extensions>
      </trkpt>
      <trkpt lat="42.61115667410194873809814453125" lon="19.95658951811492443084716796875">
        <ele>1135.4000244140625</ele>
        <time>2026-06-15T15:52:44.000Z</time>
        <extensions>
          <ns3:TrackPointExtension>
            <ns3:atemp>21.0</ns3:atemp>
          </ns3:TrackPointExtension>
        </extensions>
      </trkpt>
      <trkpt lat="42.61116321198642253875732421875" lon="19.9565860815346240997314453125">
        <ele>1135.4000244140625</ele>
        <time>2026-06-15T15:52:45.000Z</time>
        <extensions>
          <ns3:TrackPointExtension>
            <ns3:atemp>21.0</ns3:atemp>
          </ns3:TrackPointExtension>
        </extensions>
      </trkpt>
      <trkpt lat="42.61116363108158111572265625" lon="19.956593625247478485107421875">
        <ele>1135.4000244140625</ele>
        <time>2026-06-15T15:52:46.000Z</time>
        <extensions>
          <ns3:TrackPointExtension>
            <ns3:atemp>21.0</ns3:atemp>
          </ns3:TrackPointExtension>
        </extensions>
      </trkpt>
      <trkpt lat="42.61116690002381801605224609375" lon="19.95658985339105129241943359375">
        <ele>1135.4000244140625</ele>
        <time>2026-06-15T15:52:47.000Z</time>
        <extensions>
          <ns3:TrackPointExtension>
            <ns3:atemp>21.0</ns3:atemp>
          </ns3:TrackPointExtension>
        </extensions>
      </trkpt>
      <trkpt lat="42.61116807349026203155517578125" lon="19.95657677762210369110107421875">
        <ele>1135.5999755859375</ele>
        <time>2026-06-15T15:52:48.000Z</time>
        <extensions>
          <ns3:TrackPointExtension>
            <ns3:atemp>21.0</ns3:atemp>
          </ns3:TrackPointExtension>
        </extensions>
      </trkpt>
      <trkpt lat="42.61116773821413516998291015625" lon="19.9565606005489826202392578125">
        <ele>1135.5999755859375</ele>
        <time>2026-06-15T15:52:49.000Z</time>
        <extensions>
          <ns3:TrackPointExtension>
            <ns3:atemp>21.0</ns3:atemp>
          </ns3:TrackPointExtension>
        </extensions>
      </trkpt>
      <trkpt lat="42.61116522364318370819091796875" lon="19.9565572477877140045166015625">
        <ele>1135.5999755859375</ele>
        <time>2026-06-15T15:52:50.000Z</time>
        <extensions>
          <ns3:TrackPointExtension>
            <ns3:atemp>21.0</ns3:atemp>
          </ns3:TrackPointExtension>
        </extensions>
      </trkpt>
      <trkpt lat="42.61116505600512027740478515625" lon="19.95655716396868228912353515625">
        <ele>1135.4000244140625</ele>
        <time>2026-06-15T15:52:51.000Z</time>
        <extensions>
          <ns3:TrackPointExtension>
            <ns3:atemp>21.0</ns3:atemp>
          </ns3:TrackPointExtension>
        </extensions>
      </trkpt>
      <trkpt lat="42.61116505600512027740478515625" lon="19.95655716396868228912353515625">
        <ele>1135.4000244140625</ele>
        <time>2026-06-15T15:52:52.000Z</time>
        <extensions>
          <ns3:TrackPointExtension>
            <ns3:atemp>21.0</ns3:atemp>
          </ns3:TrackPointExtension>
        </extensions>
      </trkpt>
      <trkpt lat="42.61116505600512027740478515625" lon="19.95655716396868228912353515625">
        <ele>1135.199951171875</ele>
        <time>2026-06-15T15:52:53.000Z</time>
        <extensions>
          <ns3:TrackPointExtension>
            <ns3:atemp>21.0</ns3:atemp>
          </ns3:TrackPointExtension>
        </extensions>
      </trkpt>
      <trkpt lat="42.61116505600512027740478515625" lon="19.95655716396868228912353515625">
        <ele>1135.199951171875</ele>
        <time>2026-06-15T15:52:54.000Z</time>
        <extensions>
          <ns3:TrackPointExtension>
            <ns3:atemp>21.0</ns3:atemp>
          </ns3:TrackPointExtension>
        </extensions>
      </trkpt>
      <trkpt lat="42.61116505600512027740478515625" lon="19.95655716396868228912353515625">
        <ele>1135.199951171875</ele>
        <time>2026-06-15T15:52:55.000Z</time>
        <extensions>
          <ns3:TrackPointExtension>
            <ns3:atemp>21.0</ns3:atemp>
          </ns3:TrackPointExtension>
        </extensions>
      </trkpt>
      <trkpt lat="42.61116505600512027740478515625" lon="19.95655716396868228912353515625">
        <ele>1135.199951171875</ele>
        <time>2026-06-15T15:52:56.000Z</time>
        <extensions>
          <ns3:TrackPointExtension>
            <ns3:atemp>21.0</ns3:atemp>
          </ns3:TrackPointExtension>
        </extensions>
      </trkpt>
      <trkpt lat="42.61116505600512027740478515625" lon="19.95655716396868228912353515625">
        <ele>1135.199951171875</ele>
        <time>2026-06-15T15:52:57.000Z</time>
        <extensions>
          <ns3:TrackPointExtension>
            <ns3:atemp>21.0</ns3:atemp>
          </ns3:TrackPointExtension>
        </extensions>
      </trkpt>
      <trkpt lat="42.61116505600512027740478515625" lon="19.95655716396868228912353515625">
        <ele>1135.199951171875</ele>
        <time>2026-06-15T15:52:58.000Z</time>
        <extensions>
          <ns3:TrackPointExtension>
            <ns3:atemp>21.0</ns3:atemp>
          </ns3:TrackPointExtension>
        </extensions>
      </trkpt>
      <trkpt lat="42.61116405017673969268798828125" lon="19.956555403769016265869140625">
        <ele>1135.199951171875</ele>
        <time>2026-06-15T15:52:59.000Z</time>
        <extensions>
          <ns3:TrackPointExtension>
            <ns3:atemp>21.0</ns3:atemp>
          </ns3:TrackPointExtension>
        </extensions>
      </trkpt>
      <trkpt lat="42.6111616194248199462890625" lon="19.95653905905783176422119140625">
        <ele>1135</ele>
        <time>2026-06-15T15:53:00.000Z</time>
        <extensions>
          <ns3:TrackPointExtension>
            <ns3:atemp>21.0</ns3:atemp>
          </ns3:TrackPointExtension>
        </extensions>
      </trkpt>
      <trkpt lat="42.6111597754061222076416015625" lon="19.9565381370484828948974609375">
        <ele>1135</ele>
        <time>2026-06-15T15:53:01.000Z</time>
        <extensions>
          <ns3:TrackPointExtension>
            <ns3:atemp>21.0</ns3:atemp>
          </ns3:TrackPointExtension>
        </extensions>
      </trkpt>
      <trkpt lat="42.61115969158709049224853515625" lon="19.95653822086751461029052734375">
        <ele>1134.800048828125</ele>
        <time>2026-06-15T15:53:02.000Z</time>
        <extensions>
          <ns3:TrackPointExtension>
            <ns3:atemp>21.0</ns3:atemp>
          </ns3:TrackPointExtension>
        </extensions>
      </trkpt>
      <trkpt lat="42.61115969158709049224853515625" lon="19.95653822086751461029052734375">
        <ele>1134.5999755859375</ele>
        <time>2026-06-15T15:53:03.000Z</time>
        <extensions>
          <ns3:TrackPointExtension>
            <ns3:atemp>21.0</ns3:atemp>
          </ns3:TrackPointExtension>
        </extensions>
      </trkpt>
      <trkpt lat="42.61115952394902706146240234375" lon="19.956538639962673187255859375">
        <ele>1134.4000244140625</ele>
        <time>2026-06-15T15:53:04.000Z</time>
        <extensions>
          <ns3:TrackPointExtension>
            <ns3:atemp>21.0</ns3:atemp>
          </ns3:TrackPointExtension>
        </extensions>
      </trkpt>
      <trkpt lat="42.6111470349133014678955078125" lon="19.95653101243078708648681640625">
        <ele>1134.4000244140625</ele>
        <time>2026-06-15T15:53:05.000Z</time>
        <extensions>
          <ns3:TrackPointExtension>
            <ns3:atemp>21.0</ns3:atemp>
          </ns3:TrackPointExtension>
        </extensions>
      </trkpt>
      <trkpt lat="42.6111460290849208831787109375" lon="19.9565134942531585693359375">
        <ele>1134.4000244140625</ele>
        <time>2026-06-15T15:53:06.000Z</time>
        <extensions>
          <ns3:TrackPointExtension>
            <ns3:atemp>21.0</ns3:atemp>
          </ns3:TrackPointExtension>
        </extensions>
      </trkpt>
      <trkpt lat="42.61114695109426975250244140625" lon="19.95649874210357666015625">
        <ele>1134.199951171875</ele>
        <time>2026-06-15T15:53:07.000Z</time>
        <extensions>
          <ns3:TrackPointExtension>
            <ns3:atemp>21.0</ns3:atemp>
          </ns3:TrackPointExtension>
        </extensions>
      </trkpt>
      <trkpt lat="42.6111446879804134368896484375" lon="19.95648759417235851287841796875">
        <ele>1134.199951171875</ele>
        <time>2026-06-15T15:53:08.000Z</time>
        <extensions>
          <ns3:TrackPointExtension>
            <ns3:atemp>21.0</ns3:atemp>
          </ns3:TrackPointExtension>
        </extensions>
      </trkpt>
      <trkpt lat="42.6111508905887603759765625" lon="19.95648860000073909759521484375">
        <ele>1134.199951171875</ele>
        <time>2026-06-15T15:53:09.000Z</time>
        <extensions>
          <ns3:TrackPointExtension>
            <ns3:atemp>21.0</ns3:atemp>
          </ns3:TrackPointExtension>
        </extensions>
      </trkpt>
      <trkpt lat="42.611147202551364898681640625" lon="19.95648591779172420501708984375">
        <ele>1134.199951171875</ele>
        <time>2026-06-15T15:53:10.000Z</time>
        <extensions>
          <ns3:TrackPointExtension>
            <ns3:atemp>21.0</ns3:atemp>
          </ns3:TrackPointExtension>
        </extensions>
      </trkpt>
      <trkpt lat="42.61114158667623996734619140625" lon="19.956483654677867889404296875">
        <ele>1134.199951171875</ele>
        <time>2026-06-15T15:53:11.000Z</time>
        <extensions>
          <ns3:TrackPointExtension>
            <ns3:atemp>21.0</ns3:atemp>
          </ns3:TrackPointExtension>
        </extensions>
      </trkpt>
      <trkpt lat="42.6111416704952716827392578125" lon="19.9564818106591701507568359375">
        <ele>1134.4000244140625</ele>
        <time>2026-06-15T15:53:12.000Z</time>
        <extensions>
          <ns3:TrackPointExtension>
            <ns3:atemp>21.0</ns3:atemp>
          </ns3:TrackPointExtension>
        </extensions>
      </trkpt>
      <trkpt lat="42.61114158667623996734619140625" lon="19.9564818106591701507568359375">
        <ele>1134.4000244140625</ele>
        <time>2026-06-15T15:53:13.000Z</time>
        <extensions>
          <ns3:TrackPointExtension>
            <ns3:atemp>21.0</ns3:atemp>
          </ns3:TrackPointExtension>
        </extensions>
      </trkpt>
      <trkpt lat="42.61114158667623996734619140625" lon="19.9564818106591701507568359375">
        <ele>1134.4000244140625</ele>
        <time>2026-06-15T15:53:14.000Z</time>
        <extensions>
          <ns3:TrackPointExtension>
            <ns3:atemp>21.0</ns3:atemp>
          </ns3:TrackPointExtension>
        </extensions>
      </trkpt>
      <trkpt lat="42.61114158667623996734619140625" lon="19.9564818106591701507568359375">
        <ele>1134.4000244140625</ele>
        <time>2026-06-15T15:53:15.000Z</time>
        <extensions>
          <ns3:TrackPointExtension>
            <ns3:atemp>21.0</ns3:atemp>
          </ns3:TrackPointExtension>
        </extensions>
      </trkpt>
      <trkpt lat="42.61114158667623996734619140625" lon="19.9564818106591701507568359375">
        <ele>1134.4000244140625</ele>
        <time>2026-06-15T15:53:16.000Z</time>
        <extensions>
          <ns3:TrackPointExtension>
            <ns3:atemp>21.0</ns3:atemp>
          </ns3:TrackPointExtension>
        </extensions>
      </trkpt>
      <trkpt lat="42.61114158667623996734619140625" lon="19.9564818106591701507568359375">
        <ele>1134.4000244140625</ele>
        <time>2026-06-15T15:53:17.000Z</time>
        <extensions>
          <ns3:TrackPointExtension>
            <ns3:atemp>21.0</ns3:atemp>
          </ns3:TrackPointExtension>
        </extensions>
      </trkpt>
      <trkpt lat="42.61114158667623996734619140625" lon="19.9564818106591701507568359375">
        <ele>1134.199951171875</ele>
        <time>2026-06-15T15:53:18.000Z</time>
        <extensions>
          <ns3:TrackPointExtension>
            <ns3:atemp>21.0</ns3:atemp>
          </ns3:TrackPointExtension>
        </extensions>
      </trkpt>
      <trkpt lat="42.61114158667623996734619140625" lon="19.9564818106591701507568359375">
        <ele>1134.199951171875</ele>
        <time>2026-06-15T15:53:19.000Z</time>
        <extensions>
          <ns3:TrackPointExtension>
            <ns3:atemp>21.0</ns3:atemp>
          </ns3:TrackPointExtension>
        </extensions>
      </trkpt>
      <trkpt lat="42.61114158667623996734619140625" lon="19.9564818106591701507568359375">
        <ele>1134.199951171875</ele>
        <time>2026-06-15T15:53:20.000Z</time>
        <extensions>
          <ns3:TrackPointExtension>
            <ns3:atemp>21.0</ns3:atemp>
          </ns3:TrackPointExtension>
        </extensions>
      </trkpt>
      <trkpt lat="42.61114158667623996734619140625" lon="19.9564818106591701507568359375">
        <ele>1134.199951171875</ele>
        <time>2026-06-15T15:53:21.000Z</time>
        <extensions>
          <ns3:TrackPointExtension>
            <ns3:atemp>21.0</ns3:atemp>
          </ns3:TrackPointExtension>
        </extensions>
      </trkpt>
      <trkpt lat="42.61114158667623996734619140625" lon="19.9564818106591701507568359375">
        <ele>1134.199951171875</ele>
        <time>2026-06-15T15:53:22.000Z</time>
        <extensions>
          <ns3:TrackPointExtension>
            <ns3:atemp>21.0</ns3:atemp>
          </ns3:TrackPointExtension>
        </extensions>
      </trkpt>
      <trkpt lat="42.61114158667623996734619140625" lon="19.9564818106591701507568359375">
        <ele>1134.199951171875</ele>
        <time>2026-06-15T15:53:23.000Z</time>
        <extensions>
          <ns3:TrackPointExtension>
            <ns3:atemp>21.0</ns3:atemp>
          </ns3:TrackPointExtension>
        </extensions>
      </trkpt>
      <trkpt lat="42.61114158667623996734619140625" lon="19.9564818106591701507568359375">
        <ele>1134.199951171875</ele>
        <time>2026-06-15T15:53:24.000Z</time>
        <extensions>
          <ns3:TrackPointExtension>
            <ns3:atemp>21.0</ns3:atemp>
          </ns3:TrackPointExtension>
        </extensions>
      </trkpt>
      <trkpt lat="42.61114158667623996734619140625" lon="19.9564818106591701507568359375">
        <ele>1134.199951171875</ele>
        <time>2026-06-15T15:53:25.000Z</time>
        <extensions>
          <ns3:TrackPointExtension>
            <ns3:atemp>21.0</ns3:atemp>
          </ns3:TrackPointExtension>
        </extensions>
      </trkpt>
      <trkpt lat="42.61114158667623996734619140625" lon="19.9564818106591701507568359375">
        <ele>1134</ele>
        <time>2026-06-15T15:53:26.000Z</time>
        <extensions>
          <ns3:TrackPointExtension>
            <ns3:atemp>21.0</ns3:atemp>
          </ns3:TrackPointExtension>
        </extensions>
      </trkpt>
      <trkpt lat="42.61114158667623996734619140625" lon="19.9564818106591701507568359375">
        <ele>1134</ele>
        <time>2026-06-15T15:53:27.000Z</time>
        <extensions>
          <ns3:TrackPointExtension>
            <ns3:atemp>21.0</ns3:atemp>
          </ns3:TrackPointExtension>
        </extensions>
      </trkpt>
      <trkpt lat="42.61114158667623996734619140625" lon="19.9564818106591701507568359375">
        <ele>1134</ele>
        <time>2026-06-15T15:53:28.000Z</time>
        <extensions>
          <ns3:TrackPointExtension>
            <ns3:atemp>21.0</ns3:atemp>
          </ns3:TrackPointExtension>
        </extensions>
      </trkpt>
      <trkpt lat="42.61114158667623996734619140625" lon="19.9564818106591701507568359375">
        <ele>1134</ele>
        <time>2026-06-15T15:53:29.000Z</time>
        <extensions>
          <ns3:TrackPointExtension>
            <ns3:atemp>21.0</ns3:atemp>
          </ns3:TrackPointExtension>
        </extensions>
      </trkpt>
      <trkpt lat="42.61114158667623996734619140625" lon="19.9564818106591701507568359375">
        <ele>1134</ele>
        <time>2026-06-15T15:53:30.000Z</time>
        <extensions>
          <ns3:TrackPointExtension>
            <ns3:atemp>21.0</ns3:atemp>
          </ns3:TrackPointExtension>
        </extensions>
      </trkpt>
      <trkpt lat="42.61114158667623996734619140625" lon="19.9564818106591701507568359375">
        <ele>1134</ele>
        <time>2026-06-15T15:53:31.000Z</time>
        <extensions>
          <ns3:TrackPointExtension>
            <ns3:atemp>21.0</ns3:atemp>
          </ns3:TrackPointExtension>
        </extensions>
      </trkpt>
      <trkpt lat="42.61114158667623996734619140625" lon="19.9564818106591701507568359375">
        <ele>1134</ele>
        <time>2026-06-15T15:53:32.000Z</time>
        <extensions>
          <ns3:TrackPointExtension>
            <ns3:atemp>21.0</ns3:atemp>
          </ns3:TrackPointExtension>
        </extensions>
      </trkpt>
      <trkpt lat="42.61114158667623996734619140625" lon="19.9564818106591701507568359375">
        <ele>1134</ele>
        <time>2026-06-15T15:53:33.000Z</time>
        <extensions>
          <ns3:TrackPointExtension>
            <ns3:atemp>21.0</ns3:atemp>
          </ns3:TrackPointExtension>
        </extensions>
      </trkpt>
      <trkpt lat="42.61114158667623996734619140625" lon="19.9564818106591701507568359375">
        <ele>1133.800048828125</ele>
        <time>2026-06-15T15:53:34.000Z</time>
        <extensions>
          <ns3:TrackPointExtension>
            <ns3:atemp>21.0</ns3:atemp>
          </ns3:TrackPointExtension>
        </extensions>
      </trkpt>
      <trkpt lat="42.61114158667623996734619140625" lon="19.9564818106591701507568359375">
        <ele>1133.800048828125</ele>
        <time>2026-06-15T15:53:35.000Z</time>
        <extensions>
          <ns3:TrackPointExtension>
            <ns3:atemp>21.0</ns3:atemp>
          </ns3:TrackPointExtension>
        </extensions>
      </trkpt>
      <trkpt lat="42.61114158667623996734619140625" lon="19.9564818106591701507568359375">
        <ele>1133.800048828125</ele>
        <time>2026-06-15T15:53:36.000Z</time>
        <extensions>
          <ns3:TrackPointExtension>
            <ns3:atemp>21.0</ns3:atemp>
          </ns3:TrackPointExtension>
        </extensions>
      </trkpt>
      <trkpt lat="42.61114158667623996734619140625" lon="19.9564818106591701507568359375">
        <ele>1133.800048828125</ele>
        <time>2026-06-15T15:53:37.000Z</time>
        <extensions>
          <ns3:TrackPointExtension>
            <ns3:atemp>21.0</ns3:atemp>
          </ns3:TrackPointExtension>
        </extensions>
      </trkpt>
      <trkpt lat="42.61114158667623996734619140625" lon="19.9564818106591701507568359375">
        <ele>1133.800048828125</ele>
        <time>2026-06-15T15:53:38.000Z</time>
        <extensions>
          <ns3:TrackPointExtension>
            <ns3:atemp>21.0</ns3:atemp>
          </ns3:TrackPointExtension>
        </extensions>
      </trkpt>
      <trkpt lat="42.61114158667623996734619140625" lon="19.9564818106591701507568359375">
        <ele>1133.800048828125</ele>
        <time>2026-06-15T15:53:39.000Z</time>
        <extensions>
          <ns3:TrackPointExtension>
            <ns3:atemp>21.0</ns3:atemp>
          </ns3:TrackPointExtension>
        </extensions>
      </trkpt>
      <trkpt lat="42.61114158667623996734619140625" lon="19.9564818106591701507568359375">
        <ele>1133.800048828125</ele>
        <time>2026-06-15T15:53:40.000Z</time>
        <extensions>
          <ns3:TrackPointExtension>
            <ns3:atemp>21.0</ns3:atemp>
          </ns3:TrackPointExtension>
        </extensions>
      </trkpt>
      <trkpt lat="42.6111420057713985443115234375" lon="19.95648340322077274322509765625">
        <ele>1133.800048828125</ele>
        <time>2026-06-15T15:53:41.000Z</time>
        <extensions>
          <ns3:TrackPointExtension>
            <ns3:atemp>21.0</ns3:atemp>
          </ns3:TrackPointExtension>
        </extensions>
      </trkpt>
      <trkpt lat="42.61114242486655712127685546875" lon="19.95649999938905239105224609375">
        <ele>1133.800048828125</ele>
        <time>2026-06-15T15:53:42.000Z</time>
        <extensions>
          <ns3:TrackPointExtension>
            <ns3:atemp>21.0</ns3:atemp>
          </ns3:TrackPointExtension>
        </extensions>
      </trkpt>
      <trkpt lat="42.611139826476573944091796875" lon="19.95651726610958576202392578125">
        <ele>1133.800048828125</ele>
        <time>2026-06-15T15:53:43.000Z</time>
        <extensions>
          <ns3:TrackPointExtension>
            <ns3:atemp>21.0</ns3:atemp>
          </ns3:TrackPointExtension>
        </extensions>
      </trkpt>
      <trkpt lat="42.61113018728792667388916015625" lon="19.95652480982244014739990234375">
        <ele>1134</ele>
        <time>2026-06-15T15:53:44.000Z</time>
        <extensions>
          <ns3:TrackPointExtension>
            <ns3:atemp>21.0</ns3:atemp>
          </ns3:TrackPointExtension>
        </extensions>
      </trkpt>
      <trkpt lat="42.6111259125173091888427734375" lon="19.95652145706117153167724609375">
        <ele>1134</ele>
        <time>2026-06-15T15:53:45.000Z</time>
        <extensions>
          <ns3:TrackPointExtension>
            <ns3:atemp>21.0</ns3:atemp>
          </ns3:TrackPointExtension>
        </extensions>
      </trkpt>
      <trkpt lat="42.61112742125988006591796875" lon="19.9565183557569980621337890625">
        <ele>1133.800048828125</ele>
        <time>2026-06-15T15:53:46.000Z</time>
        <extensions>
          <ns3:TrackPointExtension>
            <ns3:atemp>21.0</ns3:atemp>
          </ns3:TrackPointExtension>
        </extensions>
      </trkpt>
      <trkpt lat="42.61112733744084835052490234375" lon="19.95651843957602977752685546875">
        <ele>1133.5999755859375</ele>
        <time>2026-06-15T15:53:47.000Z</time>
        <extensions>
          <ns3:TrackPointExtension>
            <ns3:atemp>21.0</ns3:atemp>
          </ns3:TrackPointExtension>
        </extensions>
      </trkpt>
      <trkpt lat="42.61112733744084835052490234375" lon="19.95651843957602977752685546875">
        <ele>1133.5999755859375</ele>
        <time>2026-06-15T15:53:48.000Z</time>
        <extensions>
          <ns3:TrackPointExtension>
            <ns3:atemp>21.0</ns3:atemp>
          </ns3:TrackPointExtension>
        </extensions>
      </trkpt>
      <trkpt lat="42.61112733744084835052490234375" lon="19.95651843957602977752685546875">
        <ele>1133.4000244140625</ele>
        <time>2026-06-15T15:53:49.000Z</time>
        <extensions>
          <ns3:TrackPointExtension>
            <ns3:atemp>21.0</ns3:atemp>
          </ns3:TrackPointExtension>
        </extensions>
      </trkpt>
      <trkpt lat="42.61112733744084835052490234375" lon="19.95651843957602977752685546875">
        <ele>1133.199951171875</ele>
        <time>2026-06-15T15:53:50.000Z</time>
        <extensions>
          <ns3:TrackPointExtension>
            <ns3:atemp>21.0</ns3:atemp>
          </ns3:TrackPointExtension>
        </extensions>
      </trkpt>
      <trkpt lat="42.61112733744084835052490234375" lon="19.95651843957602977752685546875">
        <ele>1133</ele>
        <time>2026-06-15T15:53:51.000Z</time>
        <extensions>
          <ns3:TrackPointExtension>
            <ns3:atemp>21.0</ns3:atemp>
          </ns3:TrackPointExtension>
        </extensions>
      </trkpt>
      <trkpt lat="42.61112733744084835052490234375" lon="19.95651843957602977752685546875">
        <ele>1132.800048828125</ele>
        <time>2026-06-15T15:53:52.000Z</time>
        <extensions>
          <ns3:TrackPointExtension>
            <ns3:atemp>21.0</ns3:atemp>
          </ns3:TrackPointExtension>
        </extensions>
      </trkpt>
      <trkpt lat="42.61112733744084835052490234375" lon="19.95651843957602977752685546875">
        <ele>1132.800048828125</ele>
        <time>2026-06-15T15:53:53.000Z</time>
        <extensions>
          <ns3:TrackPointExtension>
            <ns3:atemp>21.0</ns3:atemp>
          </ns3:TrackPointExtension>
        </extensions>
      </trkpt>
      <trkpt lat="42.61112733744084835052490234375" lon="19.95651843957602977752685546875">
        <ele>1132.800048828125</ele>
        <time>2026-06-15T15:53:54.000Z</time>
        <extensions>
          <ns3:TrackPointExtension>
            <ns3:atemp>21.0</ns3:atemp>
          </ns3:TrackPointExtension>
        </extensions>
      </trkpt>
      <trkpt lat="42.61112733744084835052490234375" lon="19.95651843957602977752685546875">
        <ele>1132.5999755859375</ele>
        <time>2026-06-15T15:53:55.000Z</time>
        <extensions>
          <ns3:TrackPointExtension>
            <ns3:atemp>21.0</ns3:atemp>
          </ns3:TrackPointExtension>
        </extensions>
      </trkpt>
      <trkpt lat="42.61112733744084835052490234375" lon="19.95651843957602977752685546875">
        <ele>1132.5999755859375</ele>
        <time>2026-06-15T15:53:56.000Z</time>
        <extensions>
          <ns3:TrackPointExtension>
            <ns3:atemp>21.0</ns3:atemp>
          </ns3:TrackPointExtension>
        </extensions>
      </trkpt>
      <trkpt lat="42.61112733744084835052490234375" lon="19.95651843957602977752685546875">
        <ele>1132.5999755859375</ele>
        <time>2026-06-15T15:53:57.000Z</time>
        <extensions>
          <ns3:TrackPointExtension>
            <ns3:atemp>21.0</ns3:atemp>
          </ns3:TrackPointExtension>
        </extensions>
      </trkpt>
      <trkpt lat="42.61112733744084835052490234375" lon="19.95651843957602977752685546875">
        <ele>1132.5999755859375</ele>
        <time>2026-06-15T15:53:58.000Z</time>
        <extensions>
          <ns3:TrackPointExtension>
            <ns3:atemp>21.0</ns3:atemp>
          </ns3:TrackPointExtension>
        </extensions>
      </trkpt>
      <trkpt lat="42.61112733744084835052490234375" lon="19.95651843957602977752685546875">
        <ele>1132.5999755859375</ele>
        <time>2026-06-15T15:53:59.000Z</time>
        <extensions>
          <ns3:TrackPointExtension>
            <ns3:atemp>21.0</ns3:atemp>
          </ns3:TrackPointExtension>
        </extensions>
      </trkpt>
      <trkpt lat="42.61112733744084835052490234375" lon="19.95651843957602977752685546875">
        <ele>1132.5999755859375</ele>
        <time>2026-06-15T15:54:00.000Z</time>
        <extensions>
          <ns3:TrackPointExtension>
            <ns3:atemp>21.0</ns3:atemp>
          </ns3:TrackPointExtension>
        </extensions>
      </trkpt>
      <trkpt lat="42.61112733744084835052490234375" lon="19.95651843957602977752685546875">
        <ele>1132.5999755859375</ele>
        <time>2026-06-15T15:54:01.000Z</time>
        <extensions>
          <ns3:TrackPointExtension>
            <ns3:atemp>21.0</ns3:atemp>
          </ns3:TrackPointExtension>
        </extensions>
      </trkpt>
      <trkpt lat="42.61112733744084835052490234375" lon="19.95651843957602977752685546875">
        <ele>1132.5999755859375</ele>
        <time>2026-06-15T15:54:02.000Z</time>
        <extensions>
          <ns3:TrackPointExtension>
            <ns3:atemp>21.0</ns3:atemp>
          </ns3:TrackPointExtension>
        </extensions>
      </trkpt>
      <trkpt lat="42.61112733744084835052490234375" lon="19.95651843957602977752685546875">
        <ele>1132.5999755859375</ele>
        <time>2026-06-15T15:54:03.000Z</time>
        <extensions>
          <ns3:TrackPointExtension>
            <ns3:atemp>22.0</ns3:atemp>
          </ns3:TrackPointExtension>
        </extensions>
      </trkpt>
      <trkpt lat="42.61112733744084835052490234375" lon="19.95651843957602977752685546875">
        <ele>1132.4000244140625</ele>
        <time>2026-06-15T15:54:04.000Z</time>
        <extensions>
          <ns3:TrackPointExtension>
            <ns3:atemp>22.0</ns3:atemp>
          </ns3:TrackPointExtension>
        </extensions>
      </trkpt>
      <trkpt lat="42.61112733744084835052490234375" lon="19.95651843957602977752685546875">
        <ele>1132.4000244140625</ele>
        <time>2026-06-15T15:54:05.000Z</time>
        <extensions>
          <ns3:TrackPointExtension>
            <ns3:atemp>22.0</ns3:atemp>
          </ns3:TrackPointExtension>
        </extensions>
      </trkpt>
      <trkpt lat="42.61112733744084835052490234375" lon="19.95651843957602977752685546875">
        <ele>1132.4000244140625</ele>
        <time>2026-06-15T15:54:06.000Z</time>
        <extensions>
          <ns3:TrackPointExtension>
            <ns3:atemp>22.0</ns3:atemp>
          </ns3:TrackPointExtension>
        </extensions>
      </trkpt>
      <trkpt lat="42.61112733744084835052490234375" lon="19.95651843957602977752685546875">
        <ele>1132.4000244140625</ele>
        <time>2026-06-15T15:54:07.000Z</time>
        <extensions>
          <ns3:TrackPointExtension>
            <ns3:atemp>22.0</ns3:atemp>
          </ns3:TrackPointExtension>
        </extensions>
      </trkpt>
      <trkpt lat="42.61112733744084835052490234375" lon="19.95651843957602977752685546875">
        <ele>1132.5999755859375</ele>
        <time>2026-06-15T15:54:08.000Z</time>
        <extensions>
          <ns3:TrackPointExtension>
            <ns3:atemp>21.0</ns3:atemp>
          </ns3:TrackPointExtension>
        </extensions>
      </trkpt>
      <trkpt lat="42.61112733744084835052490234375" lon="19.95651843957602977752685546875">
        <ele>1132.5999755859375</ele>
        <time>2026-06-15T15:54:09.000Z</time>
        <extensions>
          <ns3:TrackPointExtension>
            <ns3:atemp>21.0</ns3:atemp>
          </ns3:TrackPointExtension>
        </extensions>
      </trkpt>
      <trkpt lat="42.61112733744084835052490234375" lon="19.95651843957602977752685546875">
        <ele>1132.5999755859375</ele>
        <time>2026-06-15T15:54:10.000Z</time>
        <extensions>
          <ns3:TrackPointExtension>
            <ns3:atemp>21.0</ns3:atemp>
          </ns3:TrackPointExtension>
        </extensions>
      </trkpt>
      <trkpt lat="42.61112733744084835052490234375" lon="19.95651843957602977752685546875">
        <ele>1132.5999755859375</ele>
        <time>2026-06-15T15:54:11.000Z</time>
        <extensions>
          <ns3:TrackPointExtension>
            <ns3:atemp>21.0</ns3:atemp>
          </ns3:TrackPointExtension>
        </extensions>
      </trkpt>
      <trkpt lat="42.61112733744084835052490234375" lon="19.95651843957602977752685546875">
        <ele>1132.5999755859375</ele>
        <time>2026-06-15T15:54:12.000Z</time>
        <extensions>
          <ns3:TrackPointExtension>
            <ns3:atemp>21.0</ns3:atemp>
          </ns3:TrackPointExtension>
        </extensions>
      </trkpt>
      <trkpt lat="42.61112733744084835052490234375" lon="19.95651843957602977752685546875">
        <ele>1132.5999755859375</ele>
        <time>2026-06-15T15:54:13.000Z</time>
        <extensions>
          <ns3:TrackPointExtension>
            <ns3:atemp>21.0</ns3:atemp>
          </ns3:TrackPointExtension>
        </extensions>
      </trkpt>
      <trkpt lat="42.61112733744084835052490234375" lon="19.95651843957602977752685546875">
        <ele>1132.5999755859375</ele>
        <time>2026-06-15T15:54:14.000Z</time>
        <extensions>
          <ns3:TrackPointExtension>
            <ns3:atemp>21.0</ns3:atemp>
          </ns3:TrackPointExtension>
        </extensions>
      </trkpt>
      <trkpt lat="42.61112733744084835052490234375" lon="19.95651843957602977752685546875">
        <ele>1132.5999755859375</ele>
        <time>2026-06-15T15:54:15.000Z</time>
        <extensions>
          <ns3:TrackPointExtension>
            <ns3:atemp>21.0</ns3:atemp>
          </ns3:TrackPointExtension>
        </extensions>
      </trkpt>
      <trkpt lat="42.61112733744084835052490234375" lon="19.95651843957602977752685546875">
        <ele>1132.5999755859375</ele>
        <time>2026-06-15T15:54:16.000Z</time>
        <extensions>
          <ns3:TrackPointExtension>
            <ns3:atemp>21.0</ns3:atemp>
          </ns3:TrackPointExtension>
        </extensions>
      </trkpt>
      <trkpt lat="42.61112733744084835052490234375" lon="19.95651843957602977752685546875">
        <ele>1132.5999755859375</ele>
        <time>2026-06-15T15:54:17.000Z</time>
        <extensions>
          <ns3:TrackPointExtension>
            <ns3:atemp>21.0</ns3:atemp>
          </ns3:TrackPointExtension>
        </extensions>
      </trkpt>
      <trkpt lat="42.61112733744084835052490234375" lon="19.95651843957602977752685546875">
        <ele>1132.5999755859375</ele>
        <time>2026-06-15T15:54:18.000Z</time>
        <extensions>
          <ns3:TrackPointExtension>
            <ns3:atemp>21.0</ns3:atemp>
          </ns3:TrackPointExtension>
        </extensions>
      </trkpt>
      <trkpt lat="42.61112733744084835052490234375" lon="19.95651843957602977752685546875">
        <ele>1132.4000244140625</ele>
        <time>2026-06-15T15:54:19.000Z</time>
        <extensions>
          <ns3:TrackPointExtension>
            <ns3:atemp>21.0</ns3:atemp>
          </ns3:TrackPointExtension>
        </extensions>
      </trkpt>
      <trkpt lat="42.61112733744084835052490234375" lon="19.95651843957602977752685546875">
        <ele>1132.4000244140625</ele>
        <time>2026-06-15T15:54:20.000Z</time>
        <extensions>
          <ns3:TrackPointExtension>
            <ns3:atemp>22.0</ns3:atemp>
          </ns3:TrackPointExtension>
        </extensions>
      </trkpt>
      <trkpt lat="42.61112733744084835052490234375" lon="19.95651843957602977752685546875">
        <ele>1132.199951171875</ele>
        <time>2026-06-15T15:54:21.000Z</time>
        <extensions>
          <ns3:TrackPointExtension>
            <ns3:atemp>22.0</ns3:atemp>
          </ns3:TrackPointExtension>
        </extensions>
      </trkpt>
      <trkpt lat="42.61112733744084835052490234375" lon="19.95651843957602977752685546875">
        <ele>1132.199951171875</ele>
        <time>2026-06-15T15:54:22.000Z</time>
        <extensions>
          <ns3:TrackPointExtension>
            <ns3:atemp>22.0</ns3:atemp>
          </ns3:TrackPointExtension>
        </extensions>
      </trkpt>
      <trkpt lat="42.61112733744084835052490234375" lon="19.95651843957602977752685546875">
        <ele>1132.199951171875</ele>
        <time>2026-06-15T15:54:23.000Z</time>
        <extensions>
          <ns3:TrackPointExtension>
            <ns3:atemp>22.0</ns3:atemp>
          </ns3:TrackPointExtension>
        </extensions>
      </trkpt>
      <trkpt lat="42.61112733744084835052490234375" lon="19.95651843957602977752685546875">
        <ele>1132.199951171875</ele>
        <time>2026-06-15T15:54:24.000Z</time>
        <extensions>
          <ns3:TrackPointExtension>
            <ns3:atemp>22.0</ns3:atemp>
          </ns3:TrackPointExtension>
        </extensions>
      </trkpt>
      <trkpt lat="42.61112733744084835052490234375" lon="19.95651843957602977752685546875">
        <ele>1132.199951171875</ele>
        <time>2026-06-15T15:54:25.000Z</time>
        <extensions>
          <ns3:TrackPointExtension>
            <ns3:atemp>22.0</ns3:atemp>
          </ns3:TrackPointExtension>
        </extensions>
      </trkpt>
      <trkpt lat="42.61112733744084835052490234375" lon="19.95651843957602977752685546875">
        <ele>1132.199951171875</ele>
        <time>2026-06-15T15:54:26.000Z</time>
        <extensions>
          <ns3:TrackPointExtension>
            <ns3:atemp>22.0</ns3:atemp>
          </ns3:TrackPointExtension>
        </extensions>
      </trkpt>
      <trkpt lat="42.61112733744084835052490234375" lon="19.95651843957602977752685546875">
        <ele>1132.199951171875</ele>
        <time>2026-06-15T15:54:27.000Z</time>
        <extensions>
          <ns3:TrackPointExtension>
            <ns3:atemp>22.0</ns3:atemp>
          </ns3:TrackPointExtension>
        </extensions>
      </trkpt>
      <trkpt lat="42.61112733744084835052490234375" lon="19.95651843957602977752685546875">
        <ele>1132</ele>
        <time>2026-06-15T15:54:28.000Z</time>
        <extensions>
          <ns3:TrackPointExtension>
            <ns3:atemp>22.0</ns3:atemp>
          </ns3:TrackPointExtension>
        </extensions>
      </trkpt>
      <trkpt lat="42.61112733744084835052490234375" lon="19.95651843957602977752685546875">
        <ele>1132</ele>
        <time>2026-06-15T15:54:29.000Z</time>
        <extensions>
          <ns3:TrackPointExtension>
            <ns3:atemp>22.0</ns3:atemp>
          </ns3:TrackPointExtension>
        </extensions>
      </trkpt>
      <trkpt lat="42.61112733744084835052490234375" lon="19.95651843957602977752685546875">
        <ele>1132</ele>
        <time>2026-06-15T15:54:30.000Z</time>
        <extensions>
          <ns3:TrackPointExtension>
            <ns3:atemp>22.0</ns3:atemp>
          </ns3:TrackPointExtension>
        </extensions>
      </trkpt>
      <trkpt lat="42.61112733744084835052490234375" lon="19.95651843957602977752685546875">
        <ele>1132</ele>
        <time>2026-06-15T15:54:31.000Z</time>
        <extensions>
          <ns3:TrackPointExtension>
            <ns3:atemp>22.0</ns3:atemp>
          </ns3:TrackPointExtension>
        </extensions>
      </trkpt>
      <trkpt lat="42.61112733744084835052490234375" lon="19.95651843957602977752685546875">
        <ele>1132</ele>
        <time>2026-06-15T15:54:32.000Z</time>
        <extensions>
          <ns3:TrackPointExtension>
            <ns3:atemp>22.0</ns3:atemp>
          </ns3:TrackPointExtension>
        </extensions>
      </trkpt>
      <trkpt lat="42.61112733744084835052490234375" lon="19.95651843957602977752685546875">
        <ele>1132</ele>
        <time>2026-06-15T15:54:33.000Z</time>
        <extensions>
          <ns3:TrackPointExtension>
            <ns3:atemp>22.0</ns3:atemp>
          </ns3:TrackPointExtension>
        </extensions>
      </trkpt>
      <trkpt lat="42.61112733744084835052490234375" lon="19.95651843957602977752685546875">
        <ele>1132</ele>
        <time>2026-06-15T15:54:34.000Z</time>
        <extensions>
          <ns3:TrackPointExtension>
            <ns3:atemp>22.0</ns3:atemp>
          </ns3:TrackPointExtension>
        </extensions>
      </trkpt>
      <trkpt lat="42.61112733744084835052490234375" lon="19.95651843957602977752685546875">
        <ele>1132</ele>
        <time>2026-06-15T15:54:35.000Z</time>
        <extensions>
          <ns3:TrackPointExtension>
            <ns3:atemp>22.0</ns3:atemp>
          </ns3:TrackPointExtension>
        </extensions>
      </trkpt>
      <trkpt lat="42.61112733744084835052490234375" lon="19.95651843957602977752685546875">
        <ele>1131.800048828125</ele>
        <time>2026-06-15T15:54:36.000Z</time>
        <extensions>
          <ns3:TrackPointExtension>
            <ns3:atemp>22.0</ns3:atemp>
          </ns3:TrackPointExtension>
        </extensions>
      </trkpt>
      <trkpt lat="42.61112733744084835052490234375" lon="19.95651843957602977752685546875">
        <ele>1131.800048828125</ele>
        <time>2026-06-15T15:54:37.000Z</time>
        <extensions>
          <ns3:TrackPointExtension>
            <ns3:atemp>22.0</ns3:atemp>
          </ns3:TrackPointExtension>
        </extensions>
      </trkpt>
      <trkpt lat="42.61112733744084835052490234375" lon="19.95651843957602977752685546875">
        <ele>1131.800048828125</ele>
        <time>2026-06-15T15:54:38.000Z</time>
        <extensions>
          <ns3:TrackPointExtension>
            <ns3:atemp>22.0</ns3:atemp>
          </ns3:TrackPointExtension>
        </extensions>
      </trkpt>
      <trkpt lat="42.61112733744084835052490234375" lon="19.95651843957602977752685546875">
        <ele>1131.800048828125</ele>
        <time>2026-06-15T15:54:39.000Z</time>
        <extensions>
          <ns3:TrackPointExtension>
            <ns3:atemp>22.0</ns3:atemp>
          </ns3:TrackPointExtension>
        </extensions>
      </trkpt>
      <trkpt lat="42.61112733744084835052490234375" lon="19.95651843957602977752685546875">
        <ele>1131.800048828125</ele>
        <time>2026-06-15T15:54:40.000Z</time>
        <extensions>
          <ns3:TrackPointExtension>
            <ns3:atemp>22.0</ns3:atemp>
          </ns3:TrackPointExtension>
        </extensions>
      </trkpt>
      <trkpt lat="42.61112733744084835052490234375" lon="19.95651843957602977752685546875">
        <ele>1131.5999755859375</ele>
        <time>2026-06-15T15:54:41.000Z</time>
        <extensions>
          <ns3:TrackPointExtension>
            <ns3:atemp>22.0</ns3:atemp>
          </ns3:TrackPointExtension>
        </extensions>
      </trkpt>
      <trkpt lat="42.61112733744084835052490234375" lon="19.95651843957602977752685546875">
        <ele>1131.5999755859375</ele>
        <time>2026-06-15T15:54:42.000Z</time>
        <extensions>
          <ns3:TrackPointExtension>
            <ns3:atemp>22.0</ns3:atemp>
          </ns3:TrackPointExtension>
        </extensions>
      </trkpt>
      <trkpt lat="42.61112733744084835052490234375" lon="19.95651843957602977752685546875">
        <ele>1131.5999755859375</ele>
        <time>2026-06-15T15:54:43.000Z</time>
        <extensions>
          <ns3:TrackPointExtension>
            <ns3:atemp>22.0</ns3:atemp>
          </ns3:TrackPointExtension>
        </extensions>
      </trkpt>
      <trkpt lat="42.61112733744084835052490234375" lon="19.95651843957602977752685546875">
        <ele>1131.800048828125</ele>
        <time>2026-06-15T15:54:44.000Z</time>
        <extensions>
          <ns3:TrackPointExtension>
            <ns3:atemp>22.0</ns3:atemp>
          </ns3:TrackPointExtension>
        </extensions>
      </trkpt>
      <trkpt lat="42.61112733744084835052490234375" lon="19.95651843957602977752685546875">
        <ele>1131.800048828125</ele>
        <time>2026-06-15T15:54:45.000Z</time>
        <extensions>
          <ns3:TrackPointExtension>
            <ns3:atemp>22.0</ns3:atemp>
          </ns3:TrackPointExtension>
        </extensions>
      </trkpt>
      <trkpt lat="42.61112733744084835052490234375" lon="19.95651843957602977752685546875">
        <ele>1131.800048828125</ele>
        <time>2026-06-15T15:54:46.000Z</time>
        <extensions>
          <ns3:TrackPointExtension>
            <ns3:atemp>22.0</ns3:atemp>
          </ns3:TrackPointExtension>
        </extensions>
      </trkpt>
      <trkpt lat="42.61112733744084835052490234375" lon="19.95651843957602977752685546875">
        <ele>1131.800048828125</ele>
        <time>2026-06-15T15:54:47.000Z</time>
        <extensions>
          <ns3:TrackPointExtension>
            <ns3:atemp>22.0</ns3:atemp>
          </ns3:TrackPointExtension>
        </extensions>
      </trkpt>
      <trkpt lat="42.61112733744084835052490234375" lon="19.95651843957602977752685546875">
        <ele>1131.800048828125</ele>
        <time>2026-06-15T15:54:48.000Z</time>
        <extensions>
          <ns3:TrackPointExtension>
            <ns3:atemp>22.0</ns3:atemp>
          </ns3:TrackPointExtension>
        </extensions>
      </trkpt>
      <trkpt lat="42.61112733744084835052490234375" lon="19.95651843957602977752685546875">
        <ele>1131.800048828125</ele>
        <time>2026-06-15T15:54:49.000Z</time>
        <extensions>
          <ns3:TrackPointExtension>
            <ns3:atemp>22.0</ns3:atemp>
          </ns3:TrackPointExtension>
        </extensions>
      </trkpt>
      <trkpt lat="42.61112733744084835052490234375" lon="19.95651843957602977752685546875">
        <ele>1131.800048828125</ele>
        <time>2026-06-15T15:54:50.000Z</time>
        <extensions>
          <ns3:TrackPointExtension>
            <ns3:atemp>22.0</ns3:atemp>
          </ns3:TrackPointExtension>
        </extensions>
      </trkpt>
      <trkpt lat="42.61112733744084835052490234375" lon="19.95651843957602977752685546875">
        <ele>1131.800048828125</ele>
        <time>2026-06-15T15:54:51.000Z</time>
        <extensions>
          <ns3:TrackPointExtension>
            <ns3:atemp>22.0</ns3:atemp>
          </ns3:TrackPointExtension>
        </extensions>
      </trkpt>
      <trkpt lat="42.61112733744084835052490234375" lon="19.95651843957602977752685546875">
        <ele>1131.800048828125</ele>
        <time>2026-06-15T15:54:52.000Z</time>
        <extensions>
          <ns3:TrackPointExtension>
            <ns3:atemp>22.0</ns3:atemp>
          </ns3:TrackPointExtension>
        </extensions>
      </trkpt>
      <trkpt lat="42.61112733744084835052490234375" lon="19.95651843957602977752685546875">
        <ele>1131.800048828125</ele>
        <time>2026-06-15T15:54:53.000Z</time>
        <extensions>
          <ns3:TrackPointExtension>
            <ns3:atemp>22.0</ns3:atemp>
          </ns3:TrackPointExtension>
        </extensions>
      </trkpt>
      <trkpt lat="42.61112733744084835052490234375" lon="19.95651843957602977752685546875">
        <ele>1131.5999755859375</ele>
        <time>2026-06-15T15:54:54.000Z</time>
        <extensions>
          <ns3:TrackPointExtension>
            <ns3:atemp>22.0</ns3:atemp>
          </ns3:TrackPointExtension>
        </extensions>
      </trkpt>
      <trkpt lat="42.61112733744084835052490234375" lon="19.95651843957602977752685546875">
        <ele>1131.5999755859375</ele>
        <time>2026-06-15T15:54:55.000Z</time>
        <extensions>
          <ns3:TrackPointExtension>
            <ns3:atemp>22.0</ns3:atemp>
          </ns3:TrackPointExtension>
        </extensions>
      </trkpt>
      <trkpt lat="42.61112733744084835052490234375" lon="19.95651843957602977752685546875">
        <ele>1131.5999755859375</ele>
        <time>2026-06-15T15:54:56.000Z</time>
        <extensions>
          <ns3:TrackPointExtension>
            <ns3:atemp>22.0</ns3:atemp>
          </ns3:TrackPointExtension>
        </extensions>
      </trkpt>
      <trkpt lat="42.61112733744084835052490234375" lon="19.95651843957602977752685546875">
        <ele>1131.5999755859375</ele>
        <time>2026-06-15T15:54:57.000Z</time>
        <extensions>
          <ns3:TrackPointExtension>
            <ns3:atemp>22.0</ns3:atemp>
          </ns3:TrackPointExtension>
        </extensions>
      </trkpt>
      <trkpt lat="42.61112733744084835052490234375" lon="19.95651843957602977752685546875">
        <ele>1131.5999755859375</ele>
        <time>2026-06-15T15:54:58.000Z</time>
        <extensions>
          <ns3:TrackPointExtension>
            <ns3:atemp>22.0</ns3:atemp>
          </ns3:TrackPointExtension>
        </extensions>
      </trkpt>
      <trkpt lat="42.61112733744084835052490234375" lon="19.95651843957602977752685546875">
        <ele>1131.4000244140625</ele>
        <time>2026-06-15T15:54:59.000Z</time>
        <extensions>
          <ns3:TrackPointExtension>
            <ns3:atemp>22.0</ns3:atemp>
          </ns3:TrackPointExtension>
        </extensions>
      </trkpt>
      <trkpt lat="42.61112733744084835052490234375" lon="19.95651843957602977752685546875">
        <ele>1131.4000244140625</ele>
        <time>2026-06-15T15:55:00.000Z</time>
        <extensions>
          <ns3:TrackPointExtension>
            <ns3:atemp>22.0</ns3:atemp>
          </ns3:TrackPointExtension>
        </extensions>
      </trkpt>
      <trkpt lat="42.61112733744084835052490234375" lon="19.95651843957602977752685546875">
        <ele>1131.4000244140625</ele>
        <time>2026-06-15T15:55:01.000Z</time>
        <extensions>
          <ns3:TrackPointExtension>
            <ns3:atemp>22.0</ns3:atemp>
          </ns3:TrackPointExtension>
        </extensions>
      </trkpt>
      <trkpt lat="42.61112733744084835052490234375" lon="19.95651843957602977752685546875">
        <ele>1131.4000244140625</ele>
        <time>2026-06-15T15:55:02.000Z</time>
        <extensions>
          <ns3:TrackPointExtension>
            <ns3:atemp>22.0</ns3:atemp>
          </ns3:TrackPointExtension>
        </extensions>
      </trkpt>
      <trkpt lat="42.61112733744084835052490234375" lon="19.95651843957602977752685546875">
        <ele>1131.4000244140625</ele>
        <time>2026-06-15T15:55:03.000Z</time>
        <extensions>
          <ns3:TrackPointExtension>
            <ns3:atemp>22.0</ns3:atemp>
          </ns3:TrackPointExtension>
        </extensions>
      </trkpt>
      <trkpt lat="42.61112733744084835052490234375" lon="19.95651843957602977752685546875">
        <ele>1131.4000244140625</ele>
        <time>2026-06-15T15:55:04.000Z</time>
        <extensions>
          <ns3:TrackPointExtension>
            <ns3:atemp>22.0</ns3:atemp>
          </ns3:TrackPointExtension>
        </extensions>
      </trkpt>
      <trkpt lat="42.61112733744084835052490234375" lon="19.95651843957602977752685546875">
        <ele>1131.4000244140625</ele>
        <time>2026-06-15T15:55:05.000Z</time>
        <extensions>
          <ns3:TrackPointExtension>
            <ns3:atemp>22.0</ns3:atemp>
          </ns3:TrackPointExtension>
        </extensions>
      </trkpt>
      <trkpt lat="42.61112733744084835052490234375" lon="19.95651843957602977752685546875">
        <ele>1131.4000244140625</ele>
        <time>2026-06-15T15:55:06.000Z</time>
        <extensions>
          <ns3:TrackPointExtension>
            <ns3:atemp>22.0</ns3:atemp>
          </ns3:TrackPointExtension>
        </extensions>
      </trkpt>
      <trkpt lat="42.61112733744084835052490234375" lon="19.95651843957602977752685546875">
        <ele>1131.4000244140625</ele>
        <time>2026-06-15T15:55:07.000Z</time>
        <extensions>
          <ns3:TrackPointExtension>
            <ns3:atemp>22.0</ns3:atemp>
          </ns3:TrackPointExtension>
        </extensions>
      </trkpt>
      <trkpt lat="42.61112733744084835052490234375" lon="19.95651843957602977752685546875">
        <ele>1131.4000244140625</ele>
        <time>2026-06-15T15:55:08.000Z</time>
        <extensions>
          <ns3:TrackPointExtension>
            <ns3:atemp>22.0</ns3:atemp>
          </ns3:TrackPointExtension>
        </extensions>
      </trkpt>
      <trkpt lat="42.61112733744084835052490234375" lon="19.95651843957602977752685546875">
        <ele>1131.4000244140625</ele>
        <time>2026-06-15T15:55:09.000Z</time>
        <extensions>
          <ns3:TrackPointExtension>
            <ns3:atemp>22.0</ns3:atemp>
          </ns3:TrackPointExtension>
        </extensions>
      </trkpt>
      <trkpt lat="42.61112733744084835052490234375" lon="19.95651843957602977752685546875">
        <ele>1131.5999755859375</ele>
        <time>2026-06-15T15:55:10.000Z</time>
        <extensions>
          <ns3:TrackPointExtension>
            <ns3:atemp>22.0</ns3:atemp>
          </ns3:TrackPointExtension>
        </extensions>
      </trkpt>
      <trkpt lat="42.61112733744084835052490234375" lon="19.95651843957602977752685546875">
        <ele>1131.5999755859375</ele>
        <time>2026-06-15T15:55:11.000Z</time>
        <extensions>
          <ns3:TrackPointExtension>
            <ns3:atemp>22.0</ns3:atemp>
          </ns3:TrackPointExtension>
        </extensions>
      </trkpt>
      <trkpt lat="42.61112733744084835052490234375" lon="19.95651843957602977752685546875">
        <ele>1131.5999755859375</ele>
        <time>2026-06-15T15:55:12.000Z</time>
        <extensions>
          <ns3:TrackPointExtension>
            <ns3:atemp>22.0</ns3:atemp>
          </ns3:TrackPointExtension>
        </extensions>
      </trkpt>
      <trkpt lat="42.61112733744084835052490234375" lon="19.95651843957602977752685546875">
        <ele>1131.5999755859375</ele>
        <time>2026-06-15T15:55:13.000Z</time>
        <extensions>
          <ns3:TrackPointExtension>
            <ns3:atemp>22.0</ns3:atemp>
          </ns3:TrackPointExtension>
        </extensions>
      </trkpt>
      <trkpt lat="42.61112733744084835052490234375" lon="19.95651843957602977752685546875">
        <ele>1131.5999755859375</ele>
        <time>2026-06-15T15:55:14.000Z</time>
        <extensions>
          <ns3:TrackPointExtension>
            <ns3:atemp>22.0</ns3:atemp>
          </ns3:TrackPointExtension>
        </extensions>
      </trkpt>
      <trkpt lat="42.61112733744084835052490234375" lon="19.95651843957602977752685546875">
        <ele>1131.5999755859375</ele>
        <time>2026-06-15T15:55:15.000Z</time>
        <extensions>
          <ns3:TrackPointExtension>
            <ns3:atemp>22.0</ns3:atemp>
          </ns3:TrackPointExtension>
        </extensions>
      </trkpt>
      <trkpt lat="42.61112733744084835052490234375" lon="19.95651843957602977752685546875">
        <ele>1131.5999755859375</ele>
        <time>2026-06-15T15:55:16.000Z</time>
        <extensions>
          <ns3:TrackPointExtension>
            <ns3:atemp>22.0</ns3:atemp>
          </ns3:TrackPointExtension>
        </extensions>
      </trkpt>
      <trkpt lat="42.61112733744084835052490234375" lon="19.95651843957602977752685546875">
        <ele>1131.5999755859375</ele>
        <time>2026-06-15T15:55:17.000Z</time>
        <extensions>
          <ns3:TrackPointExtension>
            <ns3:atemp>22.0</ns3:atemp>
          </ns3:TrackPointExtension>
        </extensions>
      </trkpt>
      <trkpt lat="42.61112733744084835052490234375" lon="19.95651843957602977752685546875">
        <ele>1131.5999755859375</ele>
        <time>2026-06-15T15:55:18.000Z</time>
        <extensions>
          <ns3:TrackPointExtension>
            <ns3:atemp>22.0</ns3:atemp>
          </ns3:TrackPointExtension>
        </extensions>
      </trkpt>
      <trkpt lat="42.61112733744084835052490234375" lon="19.95651843957602977752685546875">
        <ele>1131.5999755859375</ele>
        <time>2026-06-15T15:55:19.000Z</time>
        <extensions>
          <ns3:TrackPointExtension>
            <ns3:atemp>22.0</ns3:atemp>
          </ns3:TrackPointExtension>
        </extensions>
      </trkpt>
      <trkpt lat="42.61112733744084835052490234375" lon="19.95651843957602977752685546875">
        <ele>1131.5999755859375</ele>
        <time>2026-06-15T15:55:20.000Z</time>
        <extensions>
          <ns3:TrackPointExtension>
            <ns3:atemp>22.0</ns3:atemp>
          </ns3:TrackPointExtension>
        </extensions>
      </trkpt>
      <trkpt lat="42.61112733744084835052490234375" lon="19.95651843957602977752685546875">
        <ele>1131.5999755859375</ele>
        <time>2026-06-15T15:55:21.000Z</time>
        <extensions>
          <ns3:TrackPointExtension>
            <ns3:atemp>22.0</ns3:atemp>
          </ns3:TrackPointExtension>
        </extensions>
      </trkpt>
      <trkpt lat="42.61112733744084835052490234375" lon="19.95651843957602977752685546875">
        <ele>1131.5999755859375</ele>
        <time>2026-06-15T15:55:22.000Z</time>
        <extensions>
          <ns3:TrackPointExtension>
            <ns3:atemp>22.0</ns3:atemp>
          </ns3:TrackPointExtension>
        </extensions>
      </trkpt>
      <trkpt lat="42.61112733744084835052490234375" lon="19.95651843957602977752685546875">
        <ele>1131.5999755859375</ele>
        <time>2026-06-15T15:55:23.000Z</time>
        <extensions>
          <ns3:TrackPointExtension>
            <ns3:atemp>22.0</ns3:atemp>
          </ns3:TrackPointExtension>
        </extensions>
      </trkpt>
      <trkpt lat="42.61112733744084835052490234375" lon="19.95651843957602977752685546875">
        <ele>1131.4000244140625</ele>
        <time>2026-06-15T15:55:24.000Z</time>
        <extensions>
          <ns3:TrackPointExtension>
            <ns3:atemp>22.0</ns3:atemp>
          </ns3:TrackPointExtension>
        </extensions>
      </trkpt>
      <trkpt lat="42.61112733744084835052490234375" lon="19.95651843957602977752685546875">
        <ele>1131.4000244140625</ele>
        <time>2026-06-15T15:55:25.000Z</time>
        <extensions>
          <ns3:TrackPointExtension>
            <ns3:atemp>22.0</ns3:atemp>
          </ns3:TrackPointExtension>
        </extensions>
      </trkpt>
      <trkpt lat="42.61112733744084835052490234375" lon="19.95651843957602977752685546875">
        <ele>1131.4000244140625</ele>
        <time>2026-06-15T15:55:26.000Z</time>
        <extensions>
          <ns3:TrackPointExtension>
            <ns3:atemp>22.0</ns3:atemp>
          </ns3:TrackPointExtension>
        </extensions>
      </trkpt>
      <trkpt lat="42.61112733744084835052490234375" lon="19.95651843957602977752685546875">
        <ele>1131.4000244140625</ele>
        <time>2026-06-15T15:55:27.000Z</time>
        <extensions>
          <ns3:TrackPointExtension>
            <ns3:atemp>22.0</ns3:atemp>
          </ns3:TrackPointExtension>
        </extensions>
      </trkpt>
      <trkpt lat="42.61112733744084835052490234375" lon="19.95651843957602977752685546875">
        <ele>1131.4000244140625</ele>
        <time>2026-06-15T15:55:28.000Z</time>
        <extensions>
          <ns3:TrackPointExtension>
            <ns3:atemp>22.0</ns3:atemp>
          </ns3:TrackPointExtension>
        </extensions>
      </trkpt>
      <trkpt lat="42.61112733744084835052490234375" lon="19.95651843957602977752685546875">
        <ele>1131.199951171875</ele>
        <time>2026-06-15T15:55:29.000Z</time>
        <extensions>
          <ns3:TrackPointExtension>
            <ns3:atemp>22.0</ns3:atemp>
          </ns3:TrackPointExtension>
        </extensions>
      </trkpt>
      <trkpt lat="42.61112733744084835052490234375" lon="19.95651843957602977752685546875">
        <ele>1131.199951171875</ele>
        <time>2026-06-15T15:55:30.000Z</time>
        <extensions>
          <ns3:TrackPointExtension>
            <ns3:atemp>22.0</ns3:atemp>
          </ns3:TrackPointExtension>
        </extensions>
      </trkpt>
      <trkpt lat="42.61112733744084835052490234375" lon="19.95651843957602977752685546875">
        <ele>1131.199951171875</ele>
        <time>2026-06-15T15:55:31.000Z</time>
        <extensions>
          <ns3:TrackPointExtension>
            <ns3:atemp>22.0</ns3:atemp>
          </ns3:TrackPointExtension>
        </extensions>
      </trkpt>
      <trkpt lat="42.61112733744084835052490234375" lon="19.95651843957602977752685546875">
        <ele>1131.199951171875</ele>
        <time>2026-06-15T15:55:32.000Z</time>
        <extensions>
          <ns3:TrackPointExtension>
            <ns3:atemp>22.0</ns3:atemp>
          </ns3:TrackPointExtension>
        </extensions>
      </trkpt>
      <trkpt lat="42.61112733744084835052490234375" lon="19.95651843957602977752685546875">
        <ele>1131.199951171875</ele>
        <time>2026-06-15T15:55:33.000Z</time>
        <extensions>
          <ns3:TrackPointExtension>
            <ns3:atemp>22.0</ns3:atemp>
          </ns3:TrackPointExtension>
        </extensions>
      </trkpt>
      <trkpt lat="42.61112733744084835052490234375" lon="19.95651843957602977752685546875">
        <ele>1131.199951171875</ele>
        <time>2026-06-15T15:55:34.000Z</time>
        <extensions>
          <ns3:TrackPointExtension>
            <ns3:atemp>22.0</ns3:atemp>
          </ns3:TrackPointExtension>
        </extensions>
      </trkpt>
      <trkpt lat="42.61112733744084835052490234375" lon="19.95651843957602977752685546875">
        <ele>1131.4000244140625</ele>
        <time>2026-06-15T15:55:35.000Z</time>
        <extensions>
          <ns3:TrackPointExtension>
            <ns3:atemp>22.0</ns3:atemp>
          </ns3:TrackPointExtension>
        </extensions>
      </trkpt>
      <trkpt lat="42.61112733744084835052490234375" lon="19.95651843957602977752685546875">
        <ele>1131.4000244140625</ele>
        <time>2026-06-15T15:55:36.000Z</time>
        <extensions>
          <ns3:TrackPointExtension>
            <ns3:atemp>22.0</ns3:atemp>
          </ns3:TrackPointExtension>
        </extensions>
      </trkpt>
      <trkpt lat="42.61112733744084835052490234375" lon="19.95651843957602977752685546875">
        <ele>1131.4000244140625</ele>
        <time>2026-06-15T15:55:37.000Z</time>
        <extensions>
          <ns3:TrackPointExtension>
            <ns3:atemp>22.0</ns3:atemp>
          </ns3:TrackPointExtension>
        </extensions>
      </trkpt>
      <trkpt lat="42.61112733744084835052490234375" lon="19.95651843957602977752685546875">
        <ele>1131.4000244140625</ele>
        <time>2026-06-15T15:55:38.000Z</time>
        <extensions>
          <ns3:TrackPointExtension>
            <ns3:atemp>22.0</ns3:atemp>
          </ns3:TrackPointExtension>
        </extensions>
      </trkpt>
      <trkpt lat="42.61112733744084835052490234375" lon="19.95651843957602977752685546875">
        <ele>1131.4000244140625</ele>
        <time>2026-06-15T15:55:39.000Z</time>
        <extensions>
          <ns3:TrackPointExtension>
            <ns3:atemp>22.0</ns3:atemp>
          </ns3:TrackPointExtension>
        </extensions>
      </trkpt>
      <trkpt lat="42.61112733744084835052490234375" lon="19.95651843957602977752685546875">
        <ele>1131.4000244140625</ele>
        <time>2026-06-15T15:55:40.000Z</time>
        <extensions>
          <ns3:TrackPointExtension>
            <ns3:atemp>22.0</ns3:atemp>
          </ns3:TrackPointExtension>
        </extensions>
      </trkpt>
      <trkpt lat="42.61112733744084835052490234375" lon="19.95651843957602977752685546875">
        <ele>1131.4000244140625</ele>
        <time>2026-06-15T15:55:41.000Z</time>
        <extensions>
          <ns3:TrackPointExtension>
            <ns3:atemp>22.0</ns3:atemp>
          </ns3:TrackPointExtension>
        </extensions>
      </trkpt>
      <trkpt lat="42.61112733744084835052490234375" lon="19.95651843957602977752685546875">
        <ele>1131.4000244140625</ele>
        <time>2026-06-15T15:55:42.000Z</time>
        <extensions>
          <ns3:TrackPointExtension>
            <ns3:atemp>22.0</ns3:atemp>
          </ns3:TrackPointExtension>
        </extensions>
      </trkpt>
      <trkpt lat="42.61112733744084835052490234375" lon="19.95651843957602977752685546875">
        <ele>1131.4000244140625</ele>
        <time>2026-06-15T15:55:43.000Z</time>
        <extensions>
          <ns3:TrackPointExtension>
            <ns3:atemp>22.0</ns3:atemp>
          </ns3:TrackPointExtension>
        </extensions>
      </trkpt>
      <trkpt lat="42.61112733744084835052490234375" lon="19.95651843957602977752685546875">
        <ele>1131.4000244140625</ele>
        <time>2026-06-15T15:55:44.000Z</time>
        <extensions>
          <ns3:TrackPointExtension>
            <ns3:atemp>22.0</ns3:atemp>
          </ns3:TrackPointExtension>
        </extensions>
      </trkpt>
      <trkpt lat="42.61112733744084835052490234375" lon="19.95651843957602977752685546875">
        <ele>1131.4000244140625</ele>
        <time>2026-06-15T15:55:45.000Z</time>
        <extensions>
          <ns3:TrackPointExtension>
            <ns3:atemp>22.0</ns3:atemp>
          </ns3:TrackPointExtension>
        </extensions>
      </trkpt>
      <trkpt lat="42.61112733744084835052490234375" lon="19.95651843957602977752685546875">
        <ele>1131.4000244140625</ele>
        <time>2026-06-15T15:55:46.000Z</time>
        <extensions>
          <ns3:TrackPointExtension>
            <ns3:atemp>22.0</ns3:atemp>
          </ns3:TrackPointExtension>
        </extensions>
      </trkpt>
      <trkpt lat="42.61112733744084835052490234375" lon="19.95651843957602977752685546875">
        <ele>1131.4000244140625</ele>
        <time>2026-06-15T15:55:47.000Z</time>
        <extensions>
          <ns3:TrackPointExtension>
            <ns3:atemp>22.0</ns3:atemp>
          </ns3:TrackPointExtension>
        </extensions>
      </trkpt>
      <trkpt lat="42.61112733744084835052490234375" lon="19.95651843957602977752685546875">
        <ele>1131.4000244140625</ele>
        <time>2026-06-15T15:55:48.000Z</time>
        <extensions>
          <ns3:TrackPointExtension>
            <ns3:atemp>22.0</ns3:atemp>
          </ns3:TrackPointExtension>
        </extensions>
      </trkpt>
      <trkpt lat="42.61112733744084835052490234375" lon="19.95651843957602977752685546875">
        <ele>1131.4000244140625</ele>
        <time>2026-06-15T15:55:49.000Z</time>
        <extensions>
          <ns3:TrackPointExtension>
            <ns3:atemp>22.0</ns3:atemp>
          </ns3:TrackPointExtension>
        </extensions>
      </trkpt>
      <trkpt lat="42.61112733744084835052490234375" lon="19.95651843957602977752685546875">
        <ele>1131.4000244140625</ele>
        <time>2026-06-15T15:55:50.000Z</time>
        <extensions>
          <ns3:TrackPointExtension>
            <ns3:atemp>22.0</ns3:atemp>
          </ns3:TrackPointExtension>
        </extensions>
      </trkpt>
      <trkpt lat="42.61112733744084835052490234375" lon="19.95651843957602977752685546875">
        <ele>1131.4000244140625</ele>
        <time>2026-06-15T15:55:51.000Z</time>
        <extensions>
          <ns3:TrackPointExtension>
            <ns3:atemp>22.0</ns3:atemp>
          </ns3:TrackPointExtension>
        </extensions>
      </trkpt>
      <trkpt lat="42.61112733744084835052490234375" lon="19.95651843957602977752685546875">
        <ele>1131.4000244140625</ele>
        <time>2026-06-15T15:55:52.000Z</time>
        <extensions>
          <ns3:TrackPointExtension>
            <ns3:atemp>22.0</ns3:atemp>
          </ns3:TrackPointExtension>
        </extensions>
      </trkpt>
      <trkpt lat="42.61112733744084835052490234375" lon="19.95651843957602977752685546875">
        <ele>1131.5999755859375</ele>
        <time>2026-06-15T15:55:53.000Z</time>
        <extensions>
          <ns3:TrackPointExtension>
            <ns3:atemp>22.0</ns3:atemp>
          </ns3:TrackPointExtension>
        </extensions>
      </trkpt>
      <trkpt lat="42.61112314648926258087158203125" lon="19.95651894249022006988525390625">
        <ele>1131.5999755859375</ele>
        <time>2026-06-15T15:55:54.000Z</time>
        <extensions>
          <ns3:TrackPointExtension>
            <ns3:atemp>22.0</ns3:atemp>
          </ns3:TrackPointExtension>
        </extensions>
      </trkpt>
      <trkpt lat="42.6111078076064586639404296875" lon="19.9565237201750278472900390625">
        <ele>1131.800048828125</ele>
        <time>2026-06-15T15:55:55.000Z</time>
        <extensions>
          <ns3:TrackPointExtension>
            <ns3:atemp>22.0</ns3:atemp>
          </ns3:TrackPointExtension>
        </extensions>
      </trkpt>
      <trkpt lat="42.611106969416141510009765625" lon="19.9565215408802032470703125">
        <ele>1132</ele>
        <time>2026-06-15T15:55:56.000Z</time>
        <extensions>
          <ns3:TrackPointExtension>
            <ns3:atemp>22.0</ns3:atemp>
          </ns3:TrackPointExtension>
        </extensions>
      </trkpt>
      <trkpt lat="42.611106969416141510009765625" lon="19.95652162469923496246337890625">
        <ele>1132.199951171875</ele>
        <time>2026-06-15T15:55:57.000Z</time>
        <extensions>
          <ns3:TrackPointExtension>
            <ns3:atemp>22.0</ns3:atemp>
          </ns3:TrackPointExtension>
        </extensions>
      </trkpt>
      <trkpt lat="42.611106969416141510009765625" lon="19.95652162469923496246337890625">
        <ele>1132.4000244140625</ele>
        <time>2026-06-15T15:55:58.000Z</time>
        <extensions>
          <ns3:TrackPointExtension>
            <ns3:atemp>22.0</ns3:atemp>
          </ns3:TrackPointExtension>
        </extensions>
      </trkpt>
      <trkpt lat="42.611106969416141510009765625" lon="19.956521876156330108642578125">
        <ele>1132.5999755859375</ele>
        <time>2026-06-15T15:55:59.000Z</time>
        <extensions>
          <ns3:TrackPointExtension>
            <ns3:atemp>22.0</ns3:atemp>
          </ns3:TrackPointExtension>
        </extensions>
      </trkpt>
      <trkpt lat="42.61109330691397190093994140625" lon="19.95652757585048675537109375">
        <ele>1132.5999755859375</ele>
        <time>2026-06-15T15:56:00.000Z</time>
        <extensions>
          <ns3:TrackPointExtension>
            <ns3:atemp>22.0</ns3:atemp>
          </ns3:TrackPointExtension>
        </extensions>
      </trkpt>
      <trkpt lat="42.6110833324491977691650390625" lon="19.95653428137302398681640625">
        <ele>1132.4000244140625</ele>
        <time>2026-06-15T15:56:01.000Z</time>
        <extensions>
          <ns3:TrackPointExtension>
            <ns3:atemp>22.0</ns3:atemp>
          </ns3:TrackPointExtension>
        </extensions>
      </trkpt>
      <trkpt lat="42.611071765422821044921875" lon="19.9565364606678485870361328125">
        <ele>1132</ele>
        <time>2026-06-15T15:56:02.000Z</time>
        <extensions>
          <ns3:TrackPointExtension>
            <ns3:atemp>22.0</ns3:atemp>
          </ns3:TrackPointExtension>
        </extensions>
      </trkpt>
      <trkpt lat="42.61105500161647796630859375" lon="19.95653838850557804107666015625">
        <ele>1131.5999755859375</ele>
        <time>2026-06-15T15:56:03.000Z</time>
        <extensions>
          <ns3:TrackPointExtension>
            <ns3:atemp>22.0</ns3:atemp>
          </ns3:TrackPointExtension>
        </extensions>
      </trkpt>
      <trkpt lat="42.61102943681180477142333984375" lon="19.9565418250858783721923828125">
        <ele>1131.199951171875</ele>
        <time>2026-06-15T15:56:04.000Z</time>
        <extensions>
          <ns3:TrackPointExtension>
            <ns3:atemp>22.0</ns3:atemp>
          </ns3:TrackPointExtension>
        </extensions>
      </trkpt>
      <trkpt lat="42.61100060306489467620849609375" lon="19.95654861442744731903076171875">
        <ele>1130.800048828125</ele>
        <time>2026-06-15T15:56:05.000Z</time>
        <extensions>
          <ns3:TrackPointExtension>
            <ns3:atemp>22.0</ns3:atemp>
          </ns3:TrackPointExtension>
        </extensions>
      </trkpt>
      <trkpt lat="42.61096690781414508819580078125" lon="19.95655816979706287384033203125">
        <ele>1130.4000244140625</ele>
        <time>2026-06-15T15:56:06.000Z</time>
        <extensions>
          <ns3:TrackPointExtension>
            <ns3:atemp>22.0</ns3:atemp>
          </ns3:TrackPointExtension>
        </extensions>
      </trkpt>
      <trkpt lat="42.61092550121247768402099609375" lon="19.956560097634792327880859375">
        <ele>1130</ele>
        <time>2026-06-15T15:56:07.000Z</time>
        <extensions>
          <ns3:TrackPointExtension>
            <ns3:atemp>22.0</ns3:atemp>
          </ns3:TrackPointExtension>
        </extensions>
      </trkpt>
      <trkpt lat="42.61087805964052677154541015625" lon="19.9565555714070796966552734375">
        <ele>1129.5999755859375</ele>
        <time>2026-06-15T15:56:08.000Z</time>
        <extensions>
          <ns3:TrackPointExtension>
            <ns3:atemp>22.0</ns3:atemp>
          </ns3:TrackPointExtension>
        </extensions>
      </trkpt>
      <trkpt lat="42.61082994751632213592529296875" lon="19.95653637684881687164306640625">
        <ele>1129</ele>
        <time>2026-06-15T15:56:09.000Z</time>
        <extensions>
          <ns3:TrackPointExtension>
            <ns3:atemp>22.0</ns3:atemp>
          </ns3:TrackPointExtension>
        </extensions>
      </trkpt>
      <trkpt lat="42.61078066192567348480224609375" lon="19.956508465111255645751953125">
        <ele>1128.4000244140625</ele>
        <time>2026-06-15T15:56:10.000Z</time>
        <extensions>
          <ns3:TrackPointExtension>
            <ns3:atemp>22.0</ns3:atemp>
          </ns3:TrackPointExtension>
        </extensions>
      </trkpt>
      <trkpt lat="42.6107393391430377960205078125" lon="19.95646663941442966461181640625">
        <ele>1127.800048828125</ele>
        <time>2026-06-15T15:56:11.000Z</time>
        <extensions>
          <ns3:TrackPointExtension>
            <ns3:atemp>22.0</ns3:atemp>
          </ns3:TrackPointExtension>
        </extensions>
      </trkpt>
      <trkpt lat="42.61072911322116851806640625" lon="19.95640763081610202789306640625">
        <ele>1127.4000244140625</ele>
        <time>2026-06-15T15:56:12.000Z</time>
        <extensions>
          <ns3:TrackPointExtension>
            <ns3:atemp>22.0</ns3:atemp>
          </ns3:TrackPointExtension>
        </extensions>
      </trkpt>
      <trkpt lat="42.61074026115238666534423828125" lon="19.9563396535813808441162109375">
        <ele>1126.800048828125</ele>
        <time>2026-06-15T15:56:13.000Z</time>
        <extensions>
          <ns3:TrackPointExtension>
            <ns3:atemp>22.0</ns3:atemp>
          </ns3:TrackPointExtension>
        </extensions>
      </trkpt>
      <trkpt lat="42.61076926253736019134521484375" lon="19.9562910385429859161376953125">
        <ele>1126.199951171875</ele>
        <time>2026-06-15T15:56:14.000Z</time>
        <extensions>
          <ns3:TrackPointExtension>
            <ns3:atemp>22.0</ns3:atemp>
          </ns3:TrackPointExtension>
        </extensions>
      </trkpt>
      <trkpt lat="42.6108110882341861724853515625" lon="19.95624904520809650421142578125">
        <ele>1125.800048828125</ele>
        <time>2026-06-15T15:56:15.000Z</time>
        <extensions>
          <ns3:TrackPointExtension>
            <ns3:atemp>22.0</ns3:atemp>
          </ns3:TrackPointExtension>
        </extensions>
      </trkpt>
      <trkpt lat="42.6108566857874393463134765625" lon="19.9562021903693675994873046875">
        <ele>1125.4000244140625</ele>
        <time>2026-06-15T15:56:16.000Z</time>
        <extensions>
          <ns3:TrackPointExtension>
            <ns3:atemp>22.0</ns3:atemp>
          </ns3:TrackPointExtension>
        </extensions>
      </trkpt>
      <trkpt lat="42.61090538464486598968505859375" lon="19.956171512603759765625">
        <ele>1124.800048828125</ele>
        <time>2026-06-15T15:56:17.000Z</time>
        <extensions>
          <ns3:TrackPointExtension>
            <ns3:atemp>22.0</ns3:atemp>
          </ns3:TrackPointExtension>
        </extensions>
      </trkpt>
      <trkpt lat="42.6109579391777515411376953125" lon="19.95615315623581409454345703125">
        <ele>1124.199951171875</ele>
        <time>2026-06-15T15:56:18.000Z</time>
        <extensions>
          <ns3:TrackPointExtension>
            <ns3:atemp>22.0</ns3:atemp>
          </ns3:TrackPointExtension>
        </extensions>
      </trkpt>
      <trkpt lat="42.61101384647190570831298828125" lon="19.9561441875994205474853515625">
        <ele>1123.5999755859375</ele>
        <time>2026-06-15T15:56:19.000Z</time>
        <extensions>
          <ns3:TrackPointExtension>
            <ns3:atemp>22.0</ns3:atemp>
          </ns3:TrackPointExtension>
        </extensions>
      </trkpt>
      <trkpt lat="42.61106841266155242919921875" lon="19.9561428464949131011962890625">
        <ele>1123</ele>
        <time>2026-06-15T15:56:20.000Z</time>
        <extensions>
          <ns3:TrackPointExtension>
            <ns3:atemp>22.0</ns3:atemp>
          </ns3:TrackPointExtension>
        </extensions>
      </trkpt>
      <trkpt lat="42.611117027699947357177734375" lon="19.95612482540309429168701171875">
        <ele>1122.5999755859375</ele>
        <time>2026-06-15T15:56:21.000Z</time>
        <extensions>
          <ns3:TrackPointExtension>
            <ns3:atemp>22.0</ns3:atemp>
          </ns3:TrackPointExtension>
        </extensions>
      </trkpt>
      <trkpt lat="42.6111517287790775299072265625" lon="19.95609381236135959625244140625">
        <ele>1122</ele>
        <time>2026-06-15T15:56:22.000Z</time>
        <extensions>
          <ns3:TrackPointExtension>
            <ns3:atemp>22.0</ns3:atemp>
          </ns3:TrackPointExtension>
        </extensions>
      </trkpt>
      <trkpt lat="42.61117301881313323974609375" lon="19.95604922063648700714111328125">
        <ele>1121.4000244140625</ele>
        <time>2026-06-15T15:56:23.000Z</time>
        <extensions>
          <ns3:TrackPointExtension>
            <ns3:atemp>22.0</ns3:atemp>
          </ns3:TrackPointExtension>
        </extensions>
      </trkpt>
      <trkpt lat="42.61117796413600444793701171875" lon="19.95599591173231601715087890625">
        <ele>1120.4000244140625</ele>
        <time>2026-06-15T15:56:24.000Z</time>
        <extensions>
          <ns3:TrackPointExtension>
            <ns3:atemp>22.0</ns3:atemp>
          </ns3:TrackPointExtension>
        </extensions>
      </trkpt>
      <trkpt lat="42.6111621223390102386474609375" lon="19.95593422092497348785400390625">
        <ele>1119.800048828125</ele>
        <time>2026-06-15T15:56:25.000Z</time>
        <extensions>
          <ns3:TrackPointExtension>
            <ns3:atemp>22.0</ns3:atemp>
          </ns3:TrackPointExtension>
        </extensions>
      </trkpt>
      <trkpt lat="42.61112851090729236602783203125" lon="19.95587982237339019775390625">
        <ele>1119</ele>
        <time>2026-06-15T15:56:26.000Z</time>
        <extensions>
          <ns3:TrackPointExtension>
            <ns3:atemp>22.0</ns3:atemp>
          </ns3:TrackPointExtension>
        </extensions>
      </trkpt>
      <trkpt lat="42.6110799796879291534423828125" lon="19.9558461271226406097412109375">
        <ele>1118.4000244140625</ele>
        <time>2026-06-15T15:56:27.000Z</time>
        <extensions>
          <ns3:TrackPointExtension>
            <ns3:atemp>22.0</ns3:atemp>
          </ns3:TrackPointExtension>
        </extensions>
      </trkpt>
      <trkpt lat="42.61102993972599506378173828125" lon="19.95580815710127353668212890625">
        <ele>1117.5999755859375</ele>
        <time>2026-06-15T15:56:28.000Z</time>
        <extensions>
          <ns3:TrackPointExtension>
            <ns3:atemp>22.0</ns3:atemp>
          </ns3:TrackPointExtension>
        </extensions>
      </trkpt>
      <trkpt lat="42.61097562499344348907470703125" lon="19.955769516527652740478515625">
        <ele>1116.5999755859375</ele>
        <time>2026-06-15T15:56:29.000Z</time>
        <extensions>
          <ns3:TrackPointExtension>
            <ns3:atemp>22.0</ns3:atemp>
          </ns3:TrackPointExtension>
        </extensions>
      </trkpt>
      <trkpt lat="42.610918544232845306396484375" lon="19.95572735555469989776611328125">
        <ele>1115.800048828125</ele>
        <time>2026-06-15T15:56:30.000Z</time>
        <extensions>
          <ns3:TrackPointExtension>
            <ns3:atemp>22.0</ns3:atemp>
          </ns3:TrackPointExtension>
        </extensions>
      </trkpt>
      <trkpt lat="42.61085760779678821563720703125" lon="19.9556872062385082244873046875">
        <ele>1114.800048828125</ele>
        <time>2026-06-15T15:56:31.000Z</time>
        <extensions>
          <ns3:TrackPointExtension>
            <ns3:atemp>22.0</ns3:atemp>
          </ns3:TrackPointExtension>
        </extensions>
      </trkpt>
      <trkpt lat="42.61079407297074794769287109375" lon="19.95564839802682399749755859375">
        <ele>1114.199951171875</ele>
        <time>2026-06-15T15:56:32.000Z</time>
        <extensions>
          <ns3:TrackPointExtension>
            <ns3:atemp>22.0</ns3:atemp>
          </ns3:TrackPointExtension>
        </extensions>
      </trkpt>
      <trkpt lat="42.6107225753366947174072265625" lon="19.95560891926288604736328125">
        <ele>1113.199951171875</ele>
        <time>2026-06-15T15:56:33.000Z</time>
        <extensions>
          <ns3:TrackPointExtension>
            <ns3:atemp>22.0</ns3:atemp>
          </ns3:TrackPointExtension>
        </extensions>
      </trkpt>
      <trkpt lat="42.61063716374337673187255859375" lon="19.95557698421180248260498046875">
        <ele>1111.800048828125</ele>
        <time>2026-06-15T15:56:34.000Z</time>
        <extensions>
          <ns3:TrackPointExtension>
            <ns3:atemp>22.0</ns3:atemp>
          </ns3:TrackPointExtension>
        </extensions>
      </trkpt>
      <trkpt lat="42.61054194532334804534912109375" lon="19.95554312132298946380615234375">
        <ele>1110.5999755859375</ele>
        <time>2026-06-15T15:56:35.000Z</time>
        <extensions>
          <ns3:TrackPointExtension>
            <ns3:atemp>22.0</ns3:atemp>
          </ns3:TrackPointExtension>
        </extensions>
      </trkpt>
      <trkpt lat="42.6104510016739368438720703125" lon="19.955500625073909759521484375">
        <ele>1109.5999755859375</ele>
        <time>2026-06-15T15:56:36.000Z</time>
        <extensions>
          <ns3:TrackPointExtension>
            <ns3:atemp>22.0</ns3:atemp>
          </ns3:TrackPointExtension>
        </extensions>
      </trkpt>
      <trkpt lat="42.610357291996479034423828125" lon="19.95545611716806888580322265625">
        <ele>1108.800048828125</ele>
        <time>2026-06-15T15:56:37.000Z</time>
        <extensions>
          <ns3:TrackPointExtension>
            <ns3:atemp>22.0</ns3:atemp>
          </ns3:TrackPointExtension>
        </extensions>
      </trkpt>
      <trkpt lat="42.6102635823190212249755859375" lon="19.95540440082550048828125">
        <ele>1108</ele>
        <time>2026-06-15T15:56:38.000Z</time>
        <extensions>
          <ns3:TrackPointExtension>
            <ns3:atemp>22.0</ns3:atemp>
          </ns3:TrackPointExtension>
        </extensions>
      </trkpt>
      <trkpt lat="42.610169537365436553955078125" lon="19.9553462304174900054931640625">
        <ele>1106.800048828125</ele>
        <time>2026-06-15T15:56:39.000Z</time>
        <extensions>
          <ns3:TrackPointExtension>
            <ns3:atemp>22.0</ns3:atemp>
          </ns3:TrackPointExtension>
        </extensions>
      </trkpt>
      <trkpt lat="42.61007993482053279876708984375" lon="19.95528705418109893798828125">
        <ele>1105.4000244140625</ele>
        <time>2026-06-15T15:56:40.000Z</time>
        <extensions>
          <ns3:TrackPointExtension>
            <ns3:atemp>22.0</ns3:atemp>
          </ns3:TrackPointExtension>
        </extensions>
      </trkpt>
      <trkpt lat="42.609996534883975982666015625" lon="19.95522410608828067779541015625">
        <ele>1104.199951171875</ele>
        <time>2026-06-15T15:56:41.000Z</time>
        <extensions>
          <ns3:TrackPointExtension>
            <ns3:atemp>22.0</ns3:atemp>
          </ns3:TrackPointExtension>
        </extensions>
      </trkpt>
      <trkpt lat="42.60991011746227741241455078125" lon="19.95516057126224040985107421875">
        <ele>1103</ele>
        <time>2026-06-15T15:56:42.000Z</time>
        <extensions>
          <ns3:TrackPointExtension>
            <ns3:atemp>22.0</ns3:atemp>
          </ns3:TrackPointExtension>
        </extensions>
      </trkpt>
      <trkpt lat="42.60982462204992771148681640625" lon="19.955096282064914703369140625">
        <ele>1102.4000244140625</ele>
        <time>2026-06-15T15:56:43.000Z</time>
        <extensions>
          <ns3:TrackPointExtension>
            <ns3:atemp>22.0</ns3:atemp>
          </ns3:TrackPointExtension>
        </extensions>
      </trkpt>
      <trkpt lat="42.6097355224192142486572265625" lon="19.95502687990665435791015625">
        <ele>1101.4000244140625</ele>
        <time>2026-06-15T15:56:44.000Z</time>
        <extensions>
          <ns3:TrackPointExtension>
            <ns3:atemp>22.0</ns3:atemp>
          </ns3:TrackPointExtension>
        </extensions>
      </trkpt>
      <trkpt lat="42.60964742861688137054443359375" lon="19.9549616686999797821044921875">
        <ele>1100.5999755859375</ele>
        <time>2026-06-15T15:56:45.000Z</time>
        <extensions>
          <ns3:TrackPointExtension>
            <ns3:atemp>22.0</ns3:atemp>
          </ns3:TrackPointExtension>
        </extensions>
      </trkpt>
      <trkpt lat="42.6095658726990222930908203125" lon="19.9549050070345401763916015625">
        <ele>1099.800048828125</ele>
        <time>2026-06-15T15:56:46.000Z</time>
        <extensions>
          <ns3:TrackPointExtension>
            <ns3:atemp>22.0</ns3:atemp>
          </ns3:TrackPointExtension>
        </extensions>
      </trkpt>
      <trkpt lat="42.60948716662824153900146484375" lon="19.95486150495707988739013671875">
        <ele>1098.800048828125</ele>
        <time>2026-06-15T15:56:47.000Z</time>
        <extensions>
          <ns3:TrackPointExtension>
            <ns3:atemp>22.0</ns3:atemp>
          </ns3:TrackPointExtension>
        </extensions>
      </trkpt>
      <trkpt lat="42.60940887965261936187744140625" lon="19.9548329226672649383544921875">
        <ele>1098</ele>
        <time>2026-06-15T15:56:48.000Z</time>
        <extensions>
          <ns3:TrackPointExtension>
            <ns3:atemp>22.0</ns3:atemp>
          </ns3:TrackPointExtension>
        </extensions>
      </trkpt>
      <trkpt lat="42.60932439006865024566650390625" lon="19.95482211001217365264892578125">
        <ele>1097.199951171875</ele>
        <time>2026-06-15T15:56:49.000Z</time>
        <extensions>
          <ns3:TrackPointExtension>
            <ns3:atemp>22.0</ns3:atemp>
          </ns3:TrackPointExtension>
        </extensions>
      </trkpt>
      <trkpt lat="42.609237469732761383056640625" lon="19.95482697151601314544677734375">
        <ele>1096</ele>
        <time>2026-06-15T15:56:50.000Z</time>
        <extensions>
          <ns3:TrackPointExtension>
            <ns3:atemp>22.0</ns3:atemp>
          </ns3:TrackPointExtension>
        </extensions>
      </trkpt>
      <trkpt lat="42.60915323160588741302490234375" lon="19.95482764206826686859130859375">
        <ele>1095.4000244140625</ele>
        <time>2026-06-15T15:56:51.000Z</time>
        <extensions>
          <ns3:TrackPointExtension>
            <ns3:atemp>22.0</ns3:atemp>
          </ns3:TrackPointExtension>
        </extensions>
      </trkpt>
      <trkpt lat="42.6090694963932037353515625" lon="19.95480559766292572021484375">
        <ele>1094.5999755859375</ele>
        <time>2026-06-15T15:56:52.000Z</time>
        <extensions>
          <ns3:TrackPointExtension>
            <ns3:atemp>22.0</ns3:atemp>
          </ns3:TrackPointExtension>
        </extensions>
      </trkpt>
      <trkpt lat="42.6090036146342754364013671875" lon="19.95474935509264469146728515625">
        <ele>1093.800048828125</ele>
        <time>2026-06-15T15:56:53.000Z</time>
        <extensions>
          <ns3:TrackPointExtension>
            <ns3:atemp>22.0</ns3:atemp>
          </ns3:TrackPointExtension>
        </extensions>
      </trkpt>
      <trkpt lat="42.60895617306232452392578125" lon="19.95467727072536945343017578125">
        <ele>1092.800048828125</ele>
        <time>2026-06-15T15:56:54.000Z</time>
        <extensions>
          <ns3:TrackPointExtension>
            <ns3:atemp>22.0</ns3:atemp>
          </ns3:TrackPointExtension>
        </extensions>
      </trkpt>
      <trkpt lat="42.608922310173511505126953125" lon="19.9545995704829692840576171875">
        <ele>1092.199951171875</ele>
        <time>2026-06-15T15:56:55.000Z</time>
        <extensions>
          <ns3:TrackPointExtension>
            <ns3:atemp>22.0</ns3:atemp>
          </ns3:TrackPointExtension>
        </extensions>
      </trkpt>
      <trkpt lat="42.60889003984630107879638671875" lon="19.95451784692704677581787109375">
        <ele>1091.5999755859375</ele>
        <time>2026-06-15T15:56:56.000Z</time>
        <extensions>
          <ns3:TrackPointExtension>
            <ns3:atemp>22.0</ns3:atemp>
          </ns3:TrackPointExtension>
        </extensions>
      </trkpt>
      <trkpt lat="42.6088584400713443756103515625" lon="19.95444207452237606048583984375">
        <ele>1091.199951171875</ele>
        <time>2026-06-15T15:56:57.000Z</time>
        <extensions>
          <ns3:TrackPointExtension>
            <ns3:atemp>22.0</ns3:atemp>
          </ns3:TrackPointExtension>
        </extensions>
      </trkpt>
      <trkpt lat="42.60882533155381679534912109375" lon="19.9543772824108600616455078125">
        <ele>1091.199951171875</ele>
        <time>2026-06-15T15:56:58.000Z</time>
        <extensions>
          <ns3:TrackPointExtension>
            <ns3:atemp>22.0</ns3:atemp>
          </ns3:TrackPointExtension>
        </extensions>
      </trkpt>
      <trkpt lat="42.60879029519855976104736328125" lon="19.95432489551603794097900390625">
        <ele>1091.199951171875</ele>
        <time>2026-06-15T15:56:59.000Z</time>
        <extensions>
          <ns3:TrackPointExtension>
            <ns3:atemp>22.0</ns3:atemp>
          </ns3:TrackPointExtension>
        </extensions>
      </trkpt>
      <trkpt lat="42.608756013214588165283203125" lon="19.954278878867626190185546875">
        <ele>1091.199951171875</ele>
        <time>2026-06-15T15:57:00.000Z</time>
        <extensions>
          <ns3:TrackPointExtension>
            <ns3:atemp>22.0</ns3:atemp>
          </ns3:TrackPointExtension>
        </extensions>
      </trkpt>
      <trkpt lat="42.608723826706409454345703125" lon="19.9542388133704662322998046875">
        <ele>1091.199951171875</ele>
        <time>2026-06-15T15:57:01.000Z</time>
        <extensions>
          <ns3:TrackPointExtension>
            <ns3:atemp>22.0</ns3:atemp>
          </ns3:TrackPointExtension>
        </extensions>
      </trkpt>
      <trkpt lat="42.6086921431124210357666015625" lon="19.954194724559783935546875">
        <ele>1091.199951171875</ele>
        <time>2026-06-15T15:57:02.000Z</time>
        <extensions>
          <ns3:TrackPointExtension>
            <ns3:atemp>22.0</ns3:atemp>
          </ns3:TrackPointExtension>
        </extensions>
      </trkpt>
      <trkpt lat="42.60865869931876659393310546875" lon="19.95414233766496181488037109375">
        <ele>1091.199951171875</ele>
        <time>2026-06-15T15:57:03.000Z</time>
        <extensions>
          <ns3:TrackPointExtension>
            <ns3:atemp>22.0</ns3:atemp>
          </ns3:TrackPointExtension>
        </extensions>
      </trkpt>
      <trkpt lat="42.608624584972858428955078125" lon="19.95409187860786914825439453125">
        <ele>1091.199951171875</ele>
        <time>2026-06-15T15:57:04.000Z</time>
        <extensions>
          <ns3:TrackPointExtension>
            <ns3:atemp>22.0</ns3:atemp>
          </ns3:TrackPointExtension>
        </extensions>
      </trkpt>
      <trkpt lat="42.60858510620892047882080078125" lon="19.95404443703591823577880859375">
        <ele>1091</ele>
        <time>2026-06-15T15:57:05.000Z</time>
        <extensions>
          <ns3:TrackPointExtension>
            <ns3:atemp>22.0</ns3:atemp>
          </ns3:TrackPointExtension>
        </extensions>
      </trkpt>
      <trkpt lat="42.60854043066501617431640625" lon="19.95399967767298221588134765625">
        <ele>1090.5999755859375</ele>
        <time>2026-06-15T15:57:06.000Z</time>
        <extensions>
          <ns3:TrackPointExtension>
            <ns3:atemp>22.0</ns3:atemp>
          </ns3:TrackPointExtension>
        </extensions>
      </trkpt>
      <trkpt lat="42.60849022306501865386962890625" lon="19.95395190082490444183349609375">
        <ele>1090.4000244140625</ele>
        <time>2026-06-15T15:57:07.000Z</time>
        <extensions>
          <ns3:TrackPointExtension>
            <ns3:atemp>22.0</ns3:atemp>
          </ns3:TrackPointExtension>
        </extensions>
      </trkpt>
      <trkpt lat="42.60843607597053050994873046875" lon="19.9539078958332538604736328125">
        <ele>1089.800048828125</ele>
        <time>2026-06-15T15:57:08.000Z</time>
        <extensions>
          <ns3:TrackPointExtension>
            <ns3:atemp>22.0</ns3:atemp>
          </ns3:TrackPointExtension>
        </extensions>
      </trkpt>
      <trkpt lat="42.60837287642061710357666015625" lon="19.95387663133442401885986328125">
        <ele>1089.199951171875</ele>
        <time>2026-06-15T15:57:09.000Z</time>
        <extensions>
          <ns3:TrackPointExtension>
            <ns3:atemp>22.0</ns3:atemp>
          </ns3:TrackPointExtension>
        </extensions>
      </trkpt>
      <trkpt lat="42.60830699466168880462646484375" lon="19.95385634712874889373779296875">
        <ele>1088.800048828125</ele>
        <time>2026-06-15T15:57:10.000Z</time>
        <extensions>
          <ns3:TrackPointExtension>
            <ns3:atemp>22.0</ns3:atemp>
          </ns3:TrackPointExtension>
        </extensions>
      </trkpt>
      <trkpt lat="42.60823792777955532073974609375" lon="19.953844361007213592529296875">
        <ele>1088.199951171875</ele>
        <time>2026-06-15T15:57:11.000Z</time>
        <extensions>
          <ns3:TrackPointExtension>
            <ns3:atemp>22.0</ns3:atemp>
          </ns3:TrackPointExtension>
        </extensions>
      </trkpt>
      <trkpt lat="42.6081614010035991668701171875" lon="19.95383455418050289154052734375">
        <ele>1087.199951171875</ele>
        <time>2026-06-15T15:57:12.000Z</time>
        <extensions>
          <ns3:TrackPointExtension>
            <ns3:atemp>22.0</ns3:atemp>
          </ns3:TrackPointExtension>
        </extensions>
      </trkpt>
      <trkpt lat="42.6080782525241374969482421875" lon="19.95382751338183879852294921875">
        <ele>1086.5999755859375</ele>
        <time>2026-06-15T15:57:13.000Z</time>
        <extensions>
          <ns3:TrackPointExtension>
            <ns3:atemp>22.0</ns3:atemp>
          </ns3:TrackPointExtension>
        </extensions>
      </trkpt>
      <trkpt lat="42.60798948816955089569091796875" lon="19.95381829328835010528564453125">
        <ele>1085.800048828125</ele>
        <time>2026-06-15T15:57:14.000Z</time>
        <extensions>
          <ns3:TrackPointExtension>
            <ns3:atemp>22.0</ns3:atemp>
          </ns3:TrackPointExtension>
        </extensions>
      </trkpt>
      <trkpt lat="42.60790030471980571746826171875" lon="19.953800104558467864990234375">
        <ele>1084.800048828125</ele>
        <time>2026-06-15T15:57:15.000Z</time>
        <extensions>
          <ns3:TrackPointExtension>
            <ns3:atemp>22.0</ns3:atemp>
          </ns3:TrackPointExtension>
        </extensions>
      </trkpt>
      <trkpt lat="42.60781162418425083160400390625" lon="19.95377068407833576202392578125">
        <ele>1084</ele>
        <time>2026-06-15T15:57:16.000Z</time>
        <extensions>
          <ns3:TrackPointExtension>
            <ns3:atemp>22.0</ns3:atemp>
          </ns3:TrackPointExtension>
        </extensions>
      </trkpt>
      <trkpt lat="42.60772378183901309967041015625" lon="19.9537224881350994110107421875">
        <ele>1082.199951171875</ele>
        <time>2026-06-15T15:57:17.000Z</time>
        <extensions>
          <ns3:TrackPointExtension>
            <ns3:atemp>22.0</ns3:atemp>
          </ns3:TrackPointExtension>
        </extensions>
      </trkpt>
      <trkpt lat="42.6076350174844264984130859375" lon="19.95367043651640415191650390625">
        <ele>1080.800048828125</ele>
        <time>2026-06-15T15:57:18.000Z</time>
        <extensions>
          <ns3:TrackPointExtension>
            <ns3:atemp>22.0</ns3:atemp>
          </ns3:TrackPointExtension>
        </extensions>
      </trkpt>
      <trkpt lat="42.60753619484603404998779296875" lon="19.9536259286105632781982421875">
        <ele>1079.199951171875</ele>
        <time>2026-06-15T15:57:19.000Z</time>
        <extensions>
          <ns3:TrackPointExtension>
            <ns3:atemp>22.0</ns3:atemp>
          </ns3:TrackPointExtension>
        </extensions>
      </trkpt>
      <trkpt lat="42.60743946768343448638916015625" lon="19.953592233359813690185546875">
        <ele>1077.4000244140625</ele>
        <time>2026-06-15T15:57:20.000Z</time>
        <extensions>
          <ns3:TrackPointExtension>
            <ns3:atemp>22.0</ns3:atemp>
          </ns3:TrackPointExtension>
        </extensions>
      </trkpt>
      <trkpt lat="42.6073540560901165008544921875" lon="19.95355929248034954071044921875">
        <ele>1076.4000244140625</ele>
        <time>2026-06-15T15:57:21.000Z</time>
        <extensions>
          <ns3:TrackPointExtension>
            <ns3:atemp>22.0</ns3:atemp>
          </ns3:TrackPointExtension>
        </extensions>
      </trkpt>
      <trkpt lat="42.60728876106441020965576171875" lon="19.95350397191941738128662109375">
        <ele>1075.4000244140625</ele>
        <time>2026-06-15T15:57:22.000Z</time>
        <extensions>
          <ns3:TrackPointExtension>
            <ns3:atemp>22.0</ns3:atemp>
          </ns3:TrackPointExtension>
        </extensions>
      </trkpt>
      <trkpt lat="42.607241570949554443359375" lon="19.9534274451434612274169921875">
        <ele>1074.199951171875</ele>
        <time>2026-06-15T15:57:23.000Z</time>
        <extensions>
          <ns3:TrackPointExtension>
            <ns3:atemp>22.0</ns3:atemp>
          </ns3:TrackPointExtension>
        </extensions>
      </trkpt>
      <trkpt lat="42.60721701197326183319091796875" lon="19.95334488339722156524658203125">
        <ele>1073.199951171875</ele>
        <time>2026-06-15T15:57:24.000Z</time>
        <extensions>
          <ns3:TrackPointExtension>
            <ns3:atemp>22.0</ns3:atemp>
          </ns3:TrackPointExtension>
        </extensions>
      </trkpt>
      <trkpt lat="42.60720209218561649322509765625" lon="19.953265674412250518798828125">
        <ele>1072.5999755859375</ele>
        <time>2026-06-15T15:57:25.000Z</time>
        <extensions>
          <ns3:TrackPointExtension>
            <ns3:atemp>22.0</ns3:atemp>
          </ns3:TrackPointExtension>
        </extensions>
      </trkpt>
      <trkpt lat="42.60720578022301197052001953125" lon="19.9532004632055759429931640625">
        <ele>1072.199951171875</ele>
        <time>2026-06-15T15:57:26.000Z</time>
        <extensions>
          <ns3:TrackPointExtension>
            <ns3:atemp>22.0</ns3:atemp>
          </ns3:TrackPointExtension>
        </extensions>
      </trkpt>
      <trkpt lat="42.60720930062234401702880859375" lon="19.95313986204564571380615234375">
        <ele>1071.5999755859375</ele>
        <time>2026-06-15T15:57:27.000Z</time>
        <extensions>
          <ns3:TrackPointExtension>
            <ns3:atemp>22.0</ns3:atemp>
          </ns3:TrackPointExtension>
        </extensions>
      </trkpt>
      <trkpt lat="42.60720376856625080108642578125" lon="19.95308437384665012359619140625">
        <ele>1071</ele>
        <time>2026-06-15T15:57:28.000Z</time>
        <extensions>
          <ns3:TrackPointExtension>
            <ns3:atemp>22.0</ns3:atemp>
          </ns3:TrackPointExtension>
        </extensions>
      </trkpt>
      <trkpt lat="42.607180215418338775634765625" lon="19.95303307659924030303955078125">
        <ele>1070.5999755859375</ele>
        <time>2026-06-15T15:57:29.000Z</time>
        <extensions>
          <ns3:TrackPointExtension>
            <ns3:atemp>22.0</ns3:atemp>
          </ns3:TrackPointExtension>
        </extensions>
      </trkpt>
      <trkpt lat="42.60714702308177947998046875" lon="19.9529754929244518280029296875">
        <ele>1070.199951171875</ele>
        <time>2026-06-15T15:57:30.000Z</time>
        <extensions>
          <ns3:TrackPointExtension>
            <ns3:atemp>22.0</ns3:atemp>
          </ns3:TrackPointExtension>
        </extensions>
      </trkpt>
      <trkpt lat="42.6071007549762725830078125" lon="19.952916316688060760498046875">
        <ele>1069.4000244140625</ele>
        <time>2026-06-15T15:57:31.000Z</time>
        <extensions>
          <ns3:TrackPointExtension>
            <ns3:atemp>22.0</ns3:atemp>
          </ns3:TrackPointExtension>
        </extensions>
      </trkpt>
      <trkpt lat="42.6070506311953067779541015625" lon="19.9528675340116024017333984375">
        <ele>1068.800048828125</ele>
        <time>2026-06-15T15:57:32.000Z</time>
        <extensions>
          <ns3:TrackPointExtension>
            <ns3:atemp>22.0</ns3:atemp>
          </ns3:TrackPointExtension>
        </extensions>
      </trkpt>
      <trkpt lat="42.60698986239731311798095703125" lon="19.9528283067047595977783203125">
        <ele>1068</ele>
        <time>2026-06-15T15:57:33.000Z</time>
        <extensions>
          <ns3:TrackPointExtension>
            <ns3:atemp>22.0</ns3:atemp>
          </ns3:TrackPointExtension>
        </extensions>
      </trkpt>
      <trkpt lat="42.6069249026477336883544921875" lon="19.95280877687036991119384765625">
        <ele>1066.800048828125</ele>
        <time>2026-06-15T15:57:34.000Z</time>
        <extensions>
          <ns3:TrackPointExtension>
            <ns3:atemp>22.0</ns3:atemp>
          </ns3:TrackPointExtension>
        </extensions>
      </trkpt>
      <trkpt lat="42.6068494655191898345947265625" lon="19.95279938913881778717041015625">
        <ele>1065.800048828125</ele>
        <time>2026-06-15T15:57:35.000Z</time>
        <extensions>
          <ns3:TrackPointExtension>
            <ns3:atemp>22.0</ns3:atemp>
          </ns3:TrackPointExtension>
        </extensions>
      </trkpt>
      <trkpt lat="42.606773860752582550048828125" lon="19.95279737748205661773681640625">
        <ele>1064.800048828125</ele>
        <time>2026-06-15T15:57:36.000Z</time>
        <extensions>
          <ns3:TrackPointExtension>
            <ns3:atemp>22.0</ns3:atemp>
          </ns3:TrackPointExtension>
        </extensions>
      </trkpt>
      <trkpt lat="42.60668509639799594879150390625" lon="19.95278849266469478607177734375">
        <ele>1063.5999755859375</ele>
        <time>2026-06-15T15:57:37.000Z</time>
        <extensions>
          <ns3:TrackPointExtension>
            <ns3:atemp>22.0</ns3:atemp>
          </ns3:TrackPointExtension>
        </extensions>
      </trkpt>
      <trkpt lat="42.6065939851105213165283203125" lon="19.9527637660503387451171875">
        <ele>1062.199951171875</ele>
        <time>2026-06-15T15:57:38.000Z</time>
        <extensions>
          <ns3:TrackPointExtension>
            <ns3:atemp>22.0</ns3:atemp>
          </ns3:TrackPointExtension>
        </extensions>
      </trkpt>
      <trkpt lat="42.606502957642078399658203125" lon="19.95274742133915424346923828125">
        <ele>1060.800048828125</ele>
        <time>2026-06-15T15:57:39.000Z</time>
        <extensions>
          <ns3:TrackPointExtension>
            <ns3:atemp>22.0</ns3:atemp>
          </ns3:TrackPointExtension>
        </extensions>
      </trkpt>
      <trkpt lat="42.60641553439199924468994140625" lon="19.95274624787271022796630859375">
        <ele>1059.5999755859375</ele>
        <time>2026-06-15T15:57:40.000Z</time>
        <extensions>
          <ns3:TrackPointExtension>
            <ns3:atemp>22.0</ns3:atemp>
          </ns3:TrackPointExtension>
        </extensions>
      </trkpt>
      <trkpt lat="42.6063250936567783355712890625" lon="19.95274557732045650482177734375">
        <ele>1058.4000244140625</ele>
        <time>2026-06-15T15:57:41.000Z</time>
        <extensions>
          <ns3:TrackPointExtension>
            <ns3:atemp>22.0</ns3:atemp>
          </ns3:TrackPointExtension>
        </extensions>
      </trkpt>
      <trkpt lat="42.60623465292155742645263671875" lon="19.95275848545134067535400390625">
        <ele>1057.4000244140625</ele>
        <time>2026-06-15T15:57:42.000Z</time>
        <extensions>
          <ns3:TrackPointExtension>
            <ns3:atemp>22.0</ns3:atemp>
          </ns3:TrackPointExtension>
        </extensions>
      </trkpt>
      <trkpt lat="42.60613909922540187835693359375" lon="19.95277172885835170745849609375">
        <ele>1056.4000244140625</ele>
        <time>2026-06-15T15:57:43.000Z</time>
        <extensions>
          <ns3:TrackPointExtension>
            <ns3:atemp>22.0</ns3:atemp>
          </ns3:TrackPointExtension>
        </extensions>
      </trkpt>
      <trkpt lat="42.6060484908521175384521484375" lon="19.95278430171310901641845703125">
        <ele>1055</ele>
        <time>2026-06-15T15:57:44.000Z</time>
        <extensions>
          <ns3:TrackPointExtension>
            <ns3:atemp>22.0</ns3:atemp>
          </ns3:TrackPointExtension>
        </extensions>
      </trkpt>
      <trkpt lat="42.60597213171422481536865234375" lon="19.952802322804927825927734375">
        <ele>1053.800048828125</ele>
        <time>2026-06-15T15:57:45.000Z</time>
        <extensions>
          <ns3:TrackPointExtension>
            <ns3:atemp>22.0</ns3:atemp>
          </ns3:TrackPointExtension>
        </extensions>
      </trkpt>
      <trkpt lat="42.6059127040207386016845703125" lon="19.95280374772846698760986328125">
        <ele>1052.5999755859375</ele>
        <time>2026-06-15T15:57:46.000Z</time>
        <extensions>
          <ns3:TrackPointExtension>
            <ns3:atemp>22.0</ns3:atemp>
          </ns3:TrackPointExtension>
        </extensions>
      </trkpt>
      <trkpt lat="42.6058768294751644134521484375" lon="19.95277843438088893890380859375">
        <ele>1051.199951171875</ele>
        <time>2026-06-15T15:57:47.000Z</time>
        <extensions>
          <ns3:TrackPointExtension>
            <ns3:atemp>22.0</ns3:atemp>
          </ns3:TrackPointExtension>
        </extensions>
      </trkpt>
      <trkpt lat="42.60584271512925624847412109375" lon="19.95274725370109081268310546875">
        <ele>1050.4000244140625</ele>
        <time>2026-06-15T15:57:48.000Z</time>
        <extensions>
          <ns3:TrackPointExtension>
            <ns3:atemp>23.0</ns3:atemp>
          </ns3:TrackPointExtension>
        </extensions>
      </trkpt>
      <trkpt lat="42.60579057969152927398681640625" lon="19.9527109600603580474853515625">
        <ele>1049.4000244140625</ele>
        <time>2026-06-15T15:57:49.000Z</time>
        <extensions>
          <ns3:TrackPointExtension>
            <ns3:atemp>23.0</ns3:atemp>
          </ns3:TrackPointExtension>
        </extensions>
      </trkpt>
      <trkpt lat="42.6057249493896961212158203125" lon="19.9526811204850673675537109375">
        <ele>1048.4000244140625</ele>
        <time>2026-06-15T15:57:50.000Z</time>
        <extensions>
          <ns3:TrackPointExtension>
            <ns3:atemp>23.0</ns3:atemp>
          </ns3:TrackPointExtension>
        </extensions>
      </trkpt>
      <trkpt lat="42.60565697215497493743896484375" lon="19.95265287347137928009033203125">
        <ele>1047.5999755859375</ele>
        <time>2026-06-15T15:57:51.000Z</time>
        <extensions>
          <ns3:TrackPointExtension>
            <ns3:atemp>23.0</ns3:atemp>
          </ns3:TrackPointExtension>
        </extensions>
      </trkpt>
      <trkpt lat="42.60558824054896831512451171875" lon="19.9526301585137844085693359375">
        <ele>1046.5999755859375</ele>
        <time>2026-06-15T15:57:52.000Z</time>
        <extensions>
          <ns3:TrackPointExtension>
            <ns3:atemp>23.0</ns3:atemp>
          </ns3:TrackPointExtension>
        </extensions>
      </trkpt>
      <trkpt lat="42.60551112703979015350341796875" lon="19.9526130594313144683837890625">
        <ele>1045.5999755859375</ele>
        <time>2026-06-15T15:57:53.000Z</time>
        <extensions>
          <ns3:TrackPointExtension>
            <ns3:atemp>23.0</ns3:atemp>
          </ns3:TrackPointExtension>
        </extensions>
      </trkpt>
      <trkpt lat="42.605430074036121368408203125" lon="19.952596127986907958984375">
        <ele>1044.5999755859375</ele>
        <time>2026-06-15T15:57:54.000Z</time>
        <extensions>
          <ns3:TrackPointExtension>
            <ns3:atemp>23.0</ns3:atemp>
          </ns3:TrackPointExtension>
        </extensions>
      </trkpt>
      <trkpt lat="42.605349607765674591064453125" lon="19.952581040561199188232421875">
        <ele>1043.4000244140625</ele>
        <time>2026-06-15T15:57:55.000Z</time>
        <extensions>
          <ns3:TrackPointExtension>
            <ns3:atemp>23.0</ns3:atemp>
          </ns3:TrackPointExtension>
        </extensions>
      </trkpt>
      <trkpt lat="42.60527324862778186798095703125" lon="19.95256586931645870208740234375">
        <ele>1042.4000244140625</ele>
        <time>2026-06-15T15:57:56.000Z</time>
        <extensions>
          <ns3:TrackPointExtension>
            <ns3:atemp>23.0</ns3:atemp>
          </ns3:TrackPointExtension>
        </extensions>
      </trkpt>
      <trkpt lat="42.60519512929022312164306640625" lon="19.95256218127906322479248046875">
        <ele>1041.800048828125</ele>
        <time>2026-06-15T15:57:57.000Z</time>
        <extensions>
          <ns3:TrackPointExtension>
            <ns3:atemp>23.0</ns3:atemp>
          </ns3:TrackPointExtension>
        </extensions>
      </trkpt>
      <trkpt lat="42.60512019507586956024169921875" lon="19.95255296118557453155517578125">
        <ele>1040.800048828125</ele>
        <time>2026-06-15T15:57:58.000Z</time>
        <extensions>
          <ns3:TrackPointExtension>
            <ns3:atemp>23.0</ns3:atemp>
          </ns3:TrackPointExtension>
        </extensions>
      </trkpt>
      <trkpt lat="42.60504819452762603759765625" lon="19.95253284461796283721923828125">
        <ele>1040</ele>
        <time>2026-06-15T15:57:59.000Z</time>
        <extensions>
          <ns3:TrackPointExtension>
            <ns3:atemp>23.0</ns3:atemp>
          </ns3:TrackPointExtension>
        </extensions>
      </trkpt>
      <trkpt lat="42.60497845709323883056640625" lon="19.952507279813289642333984375">
        <ele>1039</ele>
        <time>2026-06-15T15:58:00.000Z</time>
        <extensions>
          <ns3:TrackPointExtension>
            <ns3:atemp>23.0</ns3:atemp>
          </ns3:TrackPointExtension>
        </extensions>
      </trkpt>
      <trkpt lat="42.6049008406698703765869140625" lon="19.95248339138925075531005859375">
        <ele>1038.199951171875</ele>
        <time>2026-06-15T15:58:01.000Z</time>
        <extensions>
          <ns3:TrackPointExtension>
            <ns3:atemp>23.0</ns3:atemp>
          </ns3:TrackPointExtension>
        </extensions>
      </trkpt>
      <trkpt lat="42.60482423007488250732421875" lon="19.952469728887081146240234375">
        <ele>1037.199951171875</ele>
        <time>2026-06-15T15:58:02.000Z</time>
        <extensions>
          <ns3:TrackPointExtension>
            <ns3:atemp>23.0</ns3:atemp>
          </ns3:TrackPointExtension>
        </extensions>
      </trkpt>
      <trkpt lat="42.6047425903379917144775390625" lon="19.95246277190744876861572265625">
        <ele>1036.5999755859375</ele>
        <time>2026-06-15T15:58:03.000Z</time>
        <extensions>
          <ns3:TrackPointExtension>
            <ns3:atemp>23.0</ns3:atemp>
          </ns3:TrackPointExtension>
        </extensions>
      </trkpt>
      <trkpt lat="42.60466120205819606781005859375" lon="19.95246344245970249176025390625">
        <ele>1036</ele>
        <time>2026-06-15T15:58:04.000Z</time>
        <extensions>
          <ns3:TrackPointExtension>
            <ns3:atemp>23.0</ns3:atemp>
          </ns3:TrackPointExtension>
        </extensions>
      </trkpt>
      <trkpt lat="42.60457746684551239013671875" lon="19.9524698965251445770263671875">
        <ele>1035</ele>
        <time>2026-06-15T15:58:05.000Z</time>
        <extensions>
          <ns3:TrackPointExtension>
            <ns3:atemp>23.0</ns3:atemp>
          </ns3:TrackPointExtension>
        </extensions>
      </trkpt>
      <trkpt lat="42.60449842549860477447509765625" lon="19.9524863250553607940673828125">
        <ele>1034.199951171875</ele>
        <time>2026-06-15T15:58:06.000Z</time>
        <extensions>
          <ns3:TrackPointExtension>
            <ns3:atemp>23.0</ns3:atemp>
          </ns3:TrackPointExtension>
        </extensions>
      </trkpt>
      <trkpt lat="42.604414857923984527587890625" lon="19.95248221792280673980712890625">
        <ele>1033.4000244140625</ele>
        <time>2026-06-15T15:58:07.000Z</time>
        <extensions>
          <ns3:TrackPointExtension>
            <ns3:atemp>23.0</ns3:atemp>
          </ns3:TrackPointExtension>
        </extensions>
      </trkpt>
      <trkpt lat="42.60433229617774486541748046875" lon="19.9524574913084506988525390625">
        <ele>1032.4000244140625</ele>
        <time>2026-06-15T15:58:08.000Z</time>
        <extensions>
          <ns3:TrackPointExtension>
            <ns3:atemp>23.0</ns3:atemp>
          </ns3:TrackPointExtension>
        </extensions>
      </trkpt>
      <trkpt lat="42.604251243174076080322265625" lon="19.95241080410778522491455078125">
        <ele>1031.5999755859375</ele>
        <time>2026-06-15T15:58:09.000Z</time>
        <extensions>
          <ns3:TrackPointExtension>
            <ns3:atemp>23.0</ns3:atemp>
          </ns3:TrackPointExtension>
        </extensions>
      </trkpt>
      <trkpt lat="42.6041716150939464569091796875" lon="19.95236017741262912750244140625">
        <ele>1030.800048828125</ele>
        <time>2026-06-15T15:58:10.000Z</time>
        <extensions>
          <ns3:TrackPointExtension>
            <ns3:atemp>23.0</ns3:atemp>
          </ns3:TrackPointExtension>
        </extensions>
      </trkpt>
      <trkpt lat="42.60409240610897541046142578125" lon="19.95232765562832355499267578125">
        <ele>1029.800048828125</ele>
        <time>2026-06-15T15:58:11.000Z</time>
        <extensions>
          <ns3:TrackPointExtension>
            <ns3:atemp>23.0</ns3:atemp>
          </ns3:TrackPointExtension>
        </extensions>
      </trkpt>
      <trkpt lat="42.6040086708962917327880859375" lon="19.95230971835553646087646484375">
        <ele>1029</ele>
        <time>2026-06-15T15:58:12.000Z</time>
        <extensions>
          <ns3:TrackPointExtension>
            <ns3:atemp>23.0</ns3:atemp>
          </ns3:TrackPointExtension>
        </extensions>
      </trkpt>
      <trkpt lat="42.60393013246357440948486328125" lon="19.95229714550077915191650390625">
        <ele>1028.4000244140625</ele>
        <time>2026-06-15T15:58:13.000Z</time>
        <extensions>
          <ns3:TrackPointExtension>
            <ns3:atemp>23.0</ns3:atemp>
          </ns3:TrackPointExtension>
        </extensions>
      </trkpt>
      <trkpt lat="42.60385285131633281707763671875" lon="19.9522895179688930511474609375">
        <ele>1027.5999755859375</ele>
        <time>2026-06-15T15:58:14.000Z</time>
        <extensions>
          <ns3:TrackPointExtension>
            <ns3:atemp>23.0</ns3:atemp>
          </ns3:TrackPointExtension>
        </extensions>
      </trkpt>
      <trkpt lat="42.6037840358912944793701171875" lon="19.9522791244089603424072265625">
        <ele>1026.800048828125</ele>
        <time>2026-06-15T15:58:15.000Z</time>
        <extensions>
          <ns3:TrackPointExtension>
            <ns3:atemp>23.0</ns3:atemp>
          </ns3:TrackPointExtension>
        </extensions>
      </trkpt>
      <trkpt lat="42.6037149690091609954833984375" lon="19.9522647075355052947998046875">
        <ele>1025.800048828125</ele>
        <time>2026-06-15T15:58:16.000Z</time>
        <extensions>
          <ns3:TrackPointExtension>
            <ns3:atemp>23.0</ns3:atemp>
          </ns3:TrackPointExtension>
        </extensions>
      </trkpt>
      <trkpt lat="42.60364950634539127349853515625" lon="19.9522407352924346923828125">
        <ele>1025</ele>
        <time>2026-06-15T15:58:17.000Z</time>
        <extensions>
          <ns3:TrackPointExtension>
            <ns3:atemp>23.0</ns3:atemp>
          </ns3:TrackPointExtension>
        </extensions>
      </trkpt>
      <trkpt lat="42.60358680970966815948486328125" lon="19.952211566269397735595703125">
        <ele>1024.199951171875</ele>
        <time>2026-06-15T15:58:18.000Z</time>
        <extensions>
          <ns3:TrackPointExtension>
            <ns3:atemp>23.0</ns3:atemp>
          </ns3:TrackPointExtension>
        </extensions>
      </trkpt>
      <trkpt lat="42.60352469980716705322265625" lon="19.95218449272215366363525390625">
        <ele>1023.4000244140625</ele>
        <time>2026-06-15T15:58:19.000Z</time>
        <extensions>
          <ns3:TrackPointExtension>
            <ns3:atemp>23.0</ns3:atemp>
          </ns3:TrackPointExtension>
        </extensions>
      </trkpt>
      <trkpt lat="42.60346476919949054718017578125" lon="19.9521537311375141143798828125">
        <ele>1022.4000244140625</ele>
        <time>2026-06-15T15:58:20.000Z</time>
        <extensions>
          <ns3:TrackPointExtension>
            <ns3:atemp>23.0</ns3:atemp>
          </ns3:TrackPointExtension>
        </extensions>
      </trkpt>
      <trkpt lat="42.603404335677623748779296875" lon="19.9521205388009548187255859375">
        <ele>1021.4000244140625</ele>
        <time>2026-06-15T15:58:21.000Z</time>
        <extensions>
          <ns3:TrackPointExtension>
            <ns3:atemp>23.0</ns3:atemp>
          </ns3:TrackPointExtension>
        </extensions>
      </trkpt>
      <trkpt lat="42.60334524326026439666748046875" lon="19.95208189822733402252197265625">
        <ele>1020.20001220703125</ele>
        <time>2026-06-15T15:58:22.000Z</time>
        <extensions>
          <ns3:TrackPointExtension>
            <ns3:atemp>23.0</ns3:atemp>
          </ns3:TrackPointExtension>
        </extensions>
      </trkpt>
      <trkpt lat="42.603286989033222198486328125" lon="19.9520437605679035186767578125">
        <ele>1019.20001220703125</ele>
        <time>2026-06-15T15:58:23.000Z</time>
        <extensions>
          <ns3:TrackPointExtension>
            <ns3:atemp>22.0</ns3:atemp>
          </ns3:TrackPointExtension>
        </extensions>
      </trkpt>
      <trkpt lat="42.6032274775207042694091796875" lon="19.95200294069945812225341796875">
        <ele>1018</ele>
        <time>2026-06-15T15:58:24.000Z</time>
        <extensions>
          <ns3:TrackPointExtension>
            <ns3:atemp>22.0</ns3:atemp>
          </ns3:TrackPointExtension>
        </extensions>
      </trkpt>
      <trkpt lat="42.6031674630939960479736328125" lon="19.95196337811648845672607421875">
        <ele>1016.79998779296875</ele>
        <time>2026-06-15T15:58:25.000Z</time>
        <extensions>
          <ns3:TrackPointExtension>
            <ns3:atemp>22.0</ns3:atemp>
          </ns3:TrackPointExtension>
        </extensions>
      </trkpt>
      <trkpt lat="42.60310971178114414215087890625" lon="19.95192348025739192962646484375">
        <ele>1015.5999755859375</ele>
        <time>2026-06-15T15:58:26.000Z</time>
        <extensions>
          <ns3:TrackPointExtension>
            <ns3:atemp>22.0</ns3:atemp>
          </ns3:TrackPointExtension>
        </extensions>
      </trkpt>
      <trkpt lat="42.60305992327630519866943359375" lon="19.95187352411448955535888671875">
        <ele>1014</ele>
        <time>2026-06-15T15:58:27.000Z</time>
        <extensions>
          <ns3:TrackPointExtension>
            <ns3:atemp>22.0</ns3:atemp>
          </ns3:TrackPointExtension>
        </extensions>
      </trkpt>
      <trkpt lat="42.60301239788532257080078125" lon="19.95182541199028491973876953125">
        <ele>1012.5999755859375</ele>
        <time>2026-06-15T15:58:28.000Z</time>
        <extensions>
          <ns3:TrackPointExtension>
            <ns3:atemp>22.0</ns3:atemp>
          </ns3:TrackPointExtension>
        </extensions>
      </trkpt>
      <trkpt lat="42.60296990163624286651611328125" lon="19.95178283192217350006103515625">
        <ele>1011.4000244140625</ele>
        <time>2026-06-15T15:58:29.000Z</time>
        <extensions>
          <ns3:TrackPointExtension>
            <ns3:atemp>22.0</ns3:atemp>
          </ns3:TrackPointExtension>
        </extensions>
      </trkpt>
      <trkpt lat="42.6029341109097003936767578125" lon="19.95174653828144073486328125">
        <ele>1010.20001220703125</ele>
        <time>2026-06-15T15:58:30.000Z</time>
        <extensions>
          <ns3:TrackPointExtension>
            <ns3:atemp>22.0</ns3:atemp>
          </ns3:TrackPointExtension>
        </extensions>
      </trkpt>
      <trkpt lat="42.60289706289768218994140625" lon="19.95170722715556621551513671875">
        <ele>1009</ele>
        <time>2026-06-15T15:58:31.000Z</time>
        <extensions>
          <ns3:TrackPointExtension>
            <ns3:atemp>23.0</ns3:atemp>
          </ns3:TrackPointExtension>
        </extensions>
      </trkpt>
      <trkpt lat="42.60285439901053905487060546875" lon="19.951665401458740234375">
        <ele>1007.79998779296875</ele>
        <time>2026-06-15T15:58:32.000Z</time>
        <extensions>
          <ns3:TrackPointExtension>
            <ns3:atemp>22.0</ns3:atemp>
          </ns3:TrackPointExtension>
        </extensions>
      </trkpt>
      <trkpt lat="42.60281114839017391204833984375" lon="19.9516199715435504913330078125">
        <ele>1006.5999755859375</ele>
        <time>2026-06-15T15:58:33.000Z</time>
        <extensions>
          <ns3:TrackPointExtension>
            <ns3:atemp>23.0</ns3:atemp>
          </ns3:TrackPointExtension>
        </extensions>
      </trkpt>
      <trkpt lat="42.6027577556669712066650390625" lon="19.95158351026475429534912109375">
        <ele>1005.5999755859375</ele>
        <time>2026-06-15T15:58:34.000Z</time>
        <extensions>
          <ns3:TrackPointExtension>
            <ns3:atemp>23.0</ns3:atemp>
          </ns3:TrackPointExtension>
        </extensions>
      </trkpt>
      <trkpt lat="42.6026952266693115234375" lon="19.95156037621200084686279296875">
        <ele>1004.5999755859375</ele>
        <time>2026-06-15T15:58:35.000Z</time>
        <extensions>
          <ns3:TrackPointExtension>
            <ns3:atemp>23.0</ns3:atemp>
          </ns3:TrackPointExtension>
        </extensions>
      </trkpt>
      <trkpt lat="42.60263621807098388671875" lon="19.95155333541333675384521484375">
        <ele>1003.4000244140625</ele>
        <time>2026-06-15T15:58:36.000Z</time>
        <extensions>
          <ns3:TrackPointExtension>
            <ns3:atemp>23.0</ns3:atemp>
          </ns3:TrackPointExtension>
        </extensions>
      </trkpt>
      <trkpt lat="42.60257997550070285797119140625" lon="19.9515592865645885467529296875">
        <ele>1002.4000244140625</ele>
        <time>2026-06-15T15:58:37.000Z</time>
        <extensions>
          <ns3:TrackPointExtension>
            <ns3:atemp>23.0</ns3:atemp>
          </ns3:TrackPointExtension>
        </extensions>
      </trkpt>
      <trkpt lat="42.60252716951072216033935546875" lon="19.95154210366308689117431640625">
        <ele>1001.20001220703125</ele>
        <time>2026-06-15T15:58:38.000Z</time>
        <extensions>
          <ns3:TrackPointExtension>
            <ns3:atemp>23.0</ns3:atemp>
          </ns3:TrackPointExtension>
        </extensions>
      </trkpt>
      <trkpt lat="42.60250168852508068084716796875" lon="19.95149281807243824005126953125">
        <ele>1000.20001220703125</ele>
        <time>2026-06-15T15:58:39.000Z</time>
        <extensions>
          <ns3:TrackPointExtension>
            <ns3:atemp>23.0</ns3:atemp>
          </ns3:TrackPointExtension>
        </extensions>
      </trkpt>
      <trkpt lat="42.602498419582843780517578125" lon="19.9514328874647617340087890625">
        <ele>999.20001220703125</ele>
        <time>2026-06-15T15:58:40.000Z</time>
        <extensions>
          <ns3:TrackPointExtension>
            <ns3:atemp>23.0</ns3:atemp>
          </ns3:TrackPointExtension>
        </extensions>
      </trkpt>
      <trkpt lat="42.60250948369503021240234375" lon="19.951378740370273590087890625">
        <ele>998.4000244140625</ele>
        <time>2026-06-15T15:58:41.000Z</time>
        <extensions>
          <ns3:TrackPointExtension>
            <ns3:atemp>23.0</ns3:atemp>
          </ns3:TrackPointExtension>
        </extensions>
      </trkpt>
      <trkpt lat="42.60252683423459529876708984375" lon="19.95132685638964176177978515625">
        <ele>997.5999755859375</ele>
        <time>2026-06-15T15:58:42.000Z</time>
        <extensions>
          <ns3:TrackPointExtension>
            <ns3:atemp>23.0</ns3:atemp>
          </ns3:TrackPointExtension>
        </extensions>
      </trkpt>
      <trkpt lat="42.60254745371639728546142578125" lon="19.95127840898931026458740234375">
        <ele>996.79998779296875</ele>
        <time>2026-06-15T15:58:43.000Z</time>
        <extensions>
          <ns3:TrackPointExtension>
            <ns3:atemp>23.0</ns3:atemp>
          </ns3:TrackPointExtension>
        </extensions>
      </trkpt>
      <trkpt lat="42.6025495491921901702880859375" lon="19.95123733766376972198486328125">
        <ele>996</ele>
        <time>2026-06-15T15:58:44.000Z</time>
        <extensions>
          <ns3:TrackPointExtension>
            <ns3:atemp>23.0</ns3:atemp>
          </ns3:TrackPointExtension>
        </extensions>
      </trkpt>
      <trkpt lat="42.60255047120153903961181640625" lon="19.9512092582881450653076171875">
        <ele>995.4000244140625</ele>
        <time>2026-06-15T15:58:45.000Z</time>
        <extensions>
          <ns3:TrackPointExtension>
            <ns3:atemp>23.0</ns3:atemp>
          </ns3:TrackPointExtension>
        </extensions>
      </trkpt>
      <trkpt lat="42.6025445200502872467041015625" lon="19.9511861242353916168212890625">
        <ele>994.79998779296875</ele>
        <time>2026-06-15T15:58:46.000Z</time>
        <extensions>
          <ns3:TrackPointExtension>
            <ns3:atemp>23.0</ns3:atemp>
          </ns3:TrackPointExtension>
        </extensions>
      </trkpt>
      <trkpt lat="42.60253756307065486907958984375" lon="19.9511670134961605072021484375">
        <ele>994.4000244140625</ele>
        <time>2026-06-15T15:58:47.000Z</time>
        <extensions>
          <ns3:TrackPointExtension>
            <ns3:atemp>23.0</ns3:atemp>
          </ns3:TrackPointExtension>
        </extensions>
      </trkpt>
      <trkpt lat="42.6025321148335933685302734375" lon="19.95116592384874820709228515625">
        <ele>994</ele>
        <time>2026-06-15T15:58:48.000Z</time>
        <extensions>
          <ns3:TrackPointExtension>
            <ns3:atemp>23.0</ns3:atemp>
          </ns3:TrackPointExtension>
        </extensions>
      </trkpt>
      <trkpt lat="42.6025321148335933685302734375" lon="19.95116592384874820709228515625">
        <ele>993.4000244140625</ele>
        <time>2026-06-15T15:58:49.000Z</time>
        <extensions>
          <ns3:TrackPointExtension>
            <ns3:atemp>23.0</ns3:atemp>
          </ns3:TrackPointExtension>
        </extensions>
      </trkpt>
      <trkpt lat="42.6025321148335933685302734375" lon="19.95116592384874820709228515625">
        <ele>993.20001220703125</ele>
        <time>2026-06-15T15:58:50.000Z</time>
        <extensions>
          <ns3:TrackPointExtension>
            <ns3:atemp>23.0</ns3:atemp>
          </ns3:TrackPointExtension>
        </extensions>
      </trkpt>
      <trkpt lat="42.6025321148335933685302734375" lon="19.95116592384874820709228515625">
        <ele>992.79998779296875</ele>
        <time>2026-06-15T15:58:51.000Z</time>
        <extensions>
          <ns3:TrackPointExtension>
            <ns3:atemp>23.0</ns3:atemp>
          </ns3:TrackPointExtension>
        </extensions>
      </trkpt>
      <trkpt lat="42.6025321148335933685302734375" lon="19.95116592384874820709228515625">
        <ele>992.5999755859375</ele>
        <time>2026-06-15T15:58:52.000Z</time>
        <extensions>
          <ns3:TrackPointExtension>
            <ns3:atemp>23.0</ns3:atemp>
          </ns3:TrackPointExtension>
        </extensions>
      </trkpt>
      <trkpt lat="42.6025321148335933685302734375" lon="19.95116592384874820709228515625">
        <ele>992.5999755859375</ele>
        <time>2026-06-15T15:58:53.000Z</time>
        <extensions>
          <ns3:TrackPointExtension>
            <ns3:atemp>23.0</ns3:atemp>
          </ns3:TrackPointExtension>
        </extensions>
      </trkpt>
      <trkpt lat="42.6025321148335933685302734375" lon="19.95116592384874820709228515625">
        <ele>992.4000244140625</ele>
        <time>2026-06-15T15:58:54.000Z</time>
        <extensions>
          <ns3:TrackPointExtension>
            <ns3:atemp>23.0</ns3:atemp>
          </ns3:TrackPointExtension>
        </extensions>
      </trkpt>
      <trkpt lat="42.6025321148335933685302734375" lon="19.95116592384874820709228515625">
        <ele>992.4000244140625</ele>
        <time>2026-06-15T15:58:55.000Z</time>
        <extensions>
          <ns3:TrackPointExtension>
            <ns3:atemp>23.0</ns3:atemp>
          </ns3:TrackPointExtension>
        </extensions>
      </trkpt>
      <trkpt lat="42.6025321148335933685302734375" lon="19.95116592384874820709228515625">
        <ele>992.20001220703125</ele>
        <time>2026-06-15T15:58:56.000Z</time>
        <extensions>
          <ns3:TrackPointExtension>
            <ns3:atemp>23.0</ns3:atemp>
          </ns3:TrackPointExtension>
        </extensions>
      </trkpt>
      <trkpt lat="42.6025321148335933685302734375" lon="19.95116592384874820709228515625">
        <ele>992.20001220703125</ele>
        <time>2026-06-15T15:58:57.000Z</time>
        <extensions>
          <ns3:TrackPointExtension>
            <ns3:atemp>23.0</ns3:atemp>
          </ns3:TrackPointExtension>
        </extensions>
      </trkpt>
      <trkpt lat="42.6025321148335933685302734375" lon="19.95116592384874820709228515625">
        <ele>992.20001220703125</ele>
        <time>2026-06-15T15:58:58.000Z</time>
        <extensions>
          <ns3:TrackPointExtension>
            <ns3:atemp>23.0</ns3:atemp>
          </ns3:TrackPointExtension>
        </extensions>
      </trkpt>
      <trkpt lat="42.602532617747783660888671875" lon="19.95116625912487506866455078125">
        <ele>992</ele>
        <time>2026-06-15T15:58:59.000Z</time>
        <extensions>
          <ns3:TrackPointExtension>
            <ns3:atemp>23.0</ns3:atemp>
          </ns3:TrackPointExtension>
        </extensions>
      </trkpt>
      <trkpt lat="42.60253370739519596099853515625" lon="19.95115184225142002105712890625">
        <ele>992</ele>
        <time>2026-06-15T15:59:00.000Z</time>
        <extensions>
          <ns3:TrackPointExtension>
            <ns3:atemp>23.0</ns3:atemp>
          </ns3:TrackPointExtension>
        </extensions>
      </trkpt>
      <trkpt lat="42.60252113454043865203857421875" lon="19.95113440789282321929931640625">
        <ele>992</ele>
        <time>2026-06-15T15:59:01.000Z</time>
        <extensions>
          <ns3:TrackPointExtension>
            <ns3:atemp>23.0</ns3:atemp>
          </ns3:TrackPointExtension>
        </extensions>
      </trkpt>
      <trkpt lat="42.60250219143927097320556640625" lon="19.95110507123172283172607421875">
        <ele>991.79998779296875</ele>
        <time>2026-06-15T15:59:02.000Z</time>
        <extensions>
          <ns3:TrackPointExtension>
            <ns3:atemp>23.0</ns3:atemp>
          </ns3:TrackPointExtension>
        </extensions>
      </trkpt>
      <trkpt lat="42.60247587226331233978271484375" lon="19.95107238180935382843017578125">
        <ele>991.79998779296875</ele>
        <time>2026-06-15T15:59:03.000Z</time>
        <extensions>
          <ns3:TrackPointExtension>
            <ns3:atemp>23.0</ns3:atemp>
          </ns3:TrackPointExtension>
        </extensions>
      </trkpt>
      <trkpt lat="42.60245022363960742950439453125" lon="19.951038099825382232666015625">
        <ele>991.4000244140625</ele>
        <time>2026-06-15T15:59:04.000Z</time>
        <extensions>
          <ns3:TrackPointExtension>
            <ns3:atemp>23.0</ns3:atemp>
          </ns3:TrackPointExtension>
        </extensions>
      </trkpt>
      <trkpt lat="42.6024278439581394195556640625" lon="19.95100700296461582183837890625">
        <ele>991</ele>
        <time>2026-06-15T15:59:05.000Z</time>
        <extensions>
          <ns3:TrackPointExtension>
            <ns3:atemp>23.0</ns3:atemp>
          </ns3:TrackPointExtension>
        </extensions>
      </trkpt>
      <trkpt lat="42.602411247789859771728515625" lon="19.95097531937062740325927734375">
        <ele>990.79998779296875</ele>
        <time>2026-06-15T15:59:06.000Z</time>
        <extensions>
          <ns3:TrackPointExtension>
            <ns3:atemp>23.0</ns3:atemp>
          </ns3:TrackPointExtension>
        </extensions>
      </trkpt>
      <trkpt lat="42.6024006865918636322021484375" lon="19.95095268823206424713134765625">
        <ele>990.4000244140625</ele>
        <time>2026-06-15T15:59:07.000Z</time>
        <extensions>
          <ns3:TrackPointExtension>
            <ns3:atemp>23.0</ns3:atemp>
          </ns3:TrackPointExtension>
        </extensions>
      </trkpt>
      <trkpt lat="42.60238618589937686920166015625" lon="19.95092771016061305999755859375">
        <ele>990</ele>
        <time>2026-06-15T15:59:08.000Z</time>
        <extensions>
          <ns3:TrackPointExtension>
            <ns3:atemp>23.0</ns3:atemp>
          </ns3:TrackPointExtension>
        </extensions>
      </trkpt>
      <trkpt lat="42.6023691706359386444091796875" lon="19.9508974514901638031005859375">
        <ele>989.5999755859375</ele>
        <time>2026-06-15T15:59:09.000Z</time>
        <extensions>
          <ns3:TrackPointExtension>
            <ns3:atemp>23.0</ns3:atemp>
          </ns3:TrackPointExtension>
        </extensions>
      </trkpt>
      <trkpt lat="42.60234410874545574188232421875" lon="19.95085411705076694488525390625">
        <ele>989.4000244140625</ele>
        <time>2026-06-15T15:59:10.000Z</time>
        <extensions>
          <ns3:TrackPointExtension>
            <ns3:atemp>23.0</ns3:atemp>
          </ns3:TrackPointExtension>
        </extensions>
      </trkpt>
      <trkpt lat="42.6023175381124019622802734375" lon="19.9508030712604522705078125">
        <ele>989</ele>
        <time>2026-06-15T15:59:11.000Z</time>
        <extensions>
          <ns3:TrackPointExtension>
            <ns3:atemp>23.0</ns3:atemp>
          </ns3:TrackPointExtension>
        </extensions>
      </trkpt>
      <trkpt lat="42.6022984273731708526611328125" lon="19.95076292194426059722900390625">
        <ele>988.5999755859375</ele>
        <time>2026-06-15T15:59:12.000Z</time>
        <extensions>
          <ns3:TrackPointExtension>
            <ns3:atemp>23.0</ns3:atemp>
          </ns3:TrackPointExtension>
        </extensions>
      </trkpt>
      <trkpt lat="42.60228711180388927459716796875" lon="19.950735680758953094482421875">
        <ele>988.20001220703125</ele>
        <time>2026-06-15T15:59:13.000Z</time>
        <extensions>
          <ns3:TrackPointExtension>
            <ns3:atemp>23.0</ns3:atemp>
          </ns3:TrackPointExtension>
        </extensions>
      </trkpt>
      <trkpt lat="42.60228711180388927459716796875" lon="19.95071279816329479217529296875">
        <ele>987.79998779296875</ele>
        <time>2026-06-15T15:59:14.000Z</time>
        <extensions>
          <ns3:TrackPointExtension>
            <ns3:atemp>23.0</ns3:atemp>
          </ns3:TrackPointExtension>
        </extensions>
      </trkpt>
      <trkpt lat="42.6022866927087306976318359375" lon="19.950699470937252044677734375">
        <ele>987.5999755859375</ele>
        <time>2026-06-15T15:59:15.000Z</time>
        <extensions>
          <ns3:TrackPointExtension>
            <ns3:atemp>23.0</ns3:atemp>
          </ns3:TrackPointExtension>
        </extensions>
      </trkpt>
      <trkpt lat="42.60228794999420642852783203125" lon="19.95069653727114200592041015625">
        <ele>987.20001220703125</ele>
        <time>2026-06-15T15:59:16.000Z</time>
        <extensions>
          <ns3:TrackPointExtension>
            <ns3:atemp>23.0</ns3:atemp>
          </ns3:TrackPointExtension>
        </extensions>
      </trkpt>
      <trkpt lat="42.602287866175174713134765625" lon="19.9506966210901737213134765625">
        <ele>987</ele>
        <time>2026-06-15T15:59:17.000Z</time>
        <extensions>
          <ns3:TrackPointExtension>
            <ns3:atemp>23.0</ns3:atemp>
          </ns3:TrackPointExtension>
        </extensions>
      </trkpt>
      <trkpt lat="42.602287866175174713134765625" lon="19.9506966210901737213134765625">
        <ele>986.79998779296875</ele>
        <time>2026-06-15T15:59:18.000Z</time>
        <extensions>
          <ns3:TrackPointExtension>
            <ns3:atemp>23.0</ns3:atemp>
          </ns3:TrackPointExtension>
        </extensions>
      </trkpt>
      <trkpt lat="42.60228761471807956695556640625" lon="19.95069670490920543670654296875">
        <ele>986.5999755859375</ele>
        <time>2026-06-15T15:59:19.000Z</time>
        <extensions>
          <ns3:TrackPointExtension>
            <ns3:atemp>23.0</ns3:atemp>
          </ns3:TrackPointExtension>
        </extensions>
      </trkpt>
      <trkpt lat="42.60227453894913196563720703125" lon="19.95067792944610118865966796875">
        <ele>986.5999755859375</ele>
        <time>2026-06-15T15:59:20.000Z</time>
        <extensions>
          <ns3:TrackPointExtension>
            <ns3:atemp>23.0</ns3:atemp>
          </ns3:TrackPointExtension>
        </extensions>
      </trkpt>
      <trkpt lat="42.60225995443761348724365234375" lon="19.9506516940891742706298828125">
        <ele>986.4000244140625</ele>
        <time>2026-06-15T15:59:21.000Z</time>
        <extensions>
          <ns3:TrackPointExtension>
            <ns3:atemp>23.0</ns3:atemp>
          </ns3:TrackPointExtension>
        </extensions>
      </trkpt>
      <trkpt lat="42.6022432744503021240234375" lon="19.9506138078868389129638671875">
        <ele>986</ele>
        <time>2026-06-15T15:59:22.000Z</time>
        <extensions>
          <ns3:TrackPointExtension>
            <ns3:atemp>23.0</ns3:atemp>
          </ns3:TrackPointExtension>
        </extensions>
      </trkpt>
      <trkpt lat="42.602222822606563568115234375" lon="19.9505651928484439849853515625">
        <ele>985.79998779296875</ele>
        <time>2026-06-15T15:59:23.000Z</time>
        <extensions>
          <ns3:TrackPointExtension>
            <ns3:atemp>23.0</ns3:atemp>
          </ns3:TrackPointExtension>
        </extensions>
      </trkpt>
      <trkpt lat="42.60219675488770008087158203125" lon="19.95050861500203609466552734375">
        <ele>985.4000244140625</ele>
        <time>2026-06-15T15:59:24.000Z</time>
        <extensions>
          <ns3:TrackPointExtension>
            <ns3:atemp>23.0</ns3:atemp>
          </ns3:TrackPointExtension>
        </extensions>
      </trkpt>
      <trkpt lat="42.60217295028269290924072265625" lon="19.9504431523382663726806640625">
        <ele>985</ele>
        <time>2026-06-15T15:59:25.000Z</time>
        <extensions>
          <ns3:TrackPointExtension>
            <ns3:atemp>23.0</ns3:atemp>
          </ns3:TrackPointExtension>
        </extensions>
      </trkpt>
      <trkpt lat="42.60215249843895435333251953125" lon="19.9503616802394390106201171875">
        <ele>984.4000244140625</ele>
        <time>2026-06-15T15:59:26.000Z</time>
        <extensions>
          <ns3:TrackPointExtension>
            <ns3:atemp>23.0</ns3:atemp>
          </ns3:TrackPointExtension>
        </extensions>
      </trkpt>
      <trkpt lat="42.6021267659962177276611328125" lon="19.95027777738869190216064453125">
        <ele>983.79998779296875</ele>
        <time>2026-06-15T15:59:27.000Z</time>
        <extensions>
          <ns3:TrackPointExtension>
            <ns3:atemp>23.0</ns3:atemp>
          </ns3:TrackPointExtension>
        </extensions>
      </trkpt>
      <trkpt lat="42.60210338048636913299560546875" lon="19.95019479654729366302490234375">
        <ele>983.4000244140625</ele>
        <time>2026-06-15T15:59:28.000Z</time>
        <extensions>
          <ns3:TrackPointExtension>
            <ns3:atemp>23.0</ns3:atemp>
          </ns3:TrackPointExtension>
        </extensions>
      </trkpt>
      <trkpt lat="42.602079324424266815185546875" lon="19.9501108936965465545654296875">
        <ele>983</ele>
        <time>2026-06-15T15:59:29.000Z</time>
        <extensions>
          <ns3:TrackPointExtension>
            <ns3:atemp>23.0</ns3:atemp>
          </ns3:TrackPointExtension>
        </extensions>
      </trkpt>
      <trkpt lat="42.602053843438625335693359375" lon="19.95002799667418003082275390625">
        <ele>982.5999755859375</ele>
        <time>2026-06-15T15:59:30.000Z</time>
        <extensions>
          <ns3:TrackPointExtension>
            <ns3:atemp>23.0</ns3:atemp>
          </ns3:TrackPointExtension>
        </extensions>
      </trkpt>
      <trkpt lat="42.60202534496784210205078125" lon="19.94995423592627048492431640625">
        <ele>982</ele>
        <time>2026-06-15T15:59:31.000Z</time>
        <extensions>
          <ns3:TrackPointExtension>
            <ns3:atemp>23.0</ns3:atemp>
          </ns3:TrackPointExtension>
        </extensions>
      </trkpt>
      <trkpt lat="42.6020013727247714996337890625" lon="19.94988366030156612396240234375">
        <ele>981.4000244140625</ele>
        <time>2026-06-15T15:59:32.000Z</time>
        <extensions>
          <ns3:TrackPointExtension>
            <ns3:atemp>23.0</ns3:atemp>
          </ns3:TrackPointExtension>
        </extensions>
      </trkpt>
      <trkpt lat="42.60198603384196758270263671875" lon="19.94982934556901454925537109375">
        <ele>980.79998779296875</ele>
        <time>2026-06-15T15:59:33.000Z</time>
        <extensions>
          <ns3:TrackPointExtension>
            <ns3:atemp>23.0</ns3:atemp>
          </ns3:TrackPointExtension>
        </extensions>
      </trkpt>
      <trkpt lat="42.6019745506346225738525390625" lon="19.94979162700474262237548828125">
        <ele>980.4000244140625</ele>
        <time>2026-06-15T15:59:34.000Z</time>
        <extensions>
          <ns3:TrackPointExtension>
            <ns3:atemp>23.0</ns3:atemp>
          </ns3:TrackPointExtension>
        </extensions>
      </trkpt>
      <trkpt lat="42.60196843184530735015869140625" lon="19.949773438274860382080078125">
        <ele>980.20001220703125</ele>
        <time>2026-06-15T15:59:35.000Z</time>
        <extensions>
          <ns3:TrackPointExtension>
            <ns3:atemp>23.0</ns3:atemp>
          </ns3:TrackPointExtension>
        </extensions>
      </trkpt>
      <trkpt lat="42.601972706615924835205078125" lon="19.94976413436233997344970703125">
        <ele>980</ele>
        <time>2026-06-15T15:59:36.000Z</time>
        <extensions>
          <ns3:TrackPointExtension>
            <ns3:atemp>23.0</ns3:atemp>
          </ns3:TrackPointExtension>
        </extensions>
      </trkpt>
      <trkpt lat="42.601974047720432281494140625" lon="19.94976304471492767333984375">
        <ele>979.79998779296875</ele>
        <time>2026-06-15T15:59:37.000Z</time>
        <extensions>
          <ns3:TrackPointExtension>
            <ns3:atemp>23.0</ns3:atemp>
          </ns3:TrackPointExtension>
        </extensions>
      </trkpt>
      <trkpt lat="42.601974047720432281494140625" lon="19.94976296089589595794677734375">
        <ele>979.79998779296875</ele>
        <time>2026-06-15T15:59:38.000Z</time>
        <extensions>
          <ns3:TrackPointExtension>
            <ns3:atemp>23.0</ns3:atemp>
          </ns3:TrackPointExtension>
        </extensions>
      </trkpt>
      <trkpt lat="42.601974047720432281494140625" lon="19.94976296089589595794677734375">
        <ele>979.79998779296875</ele>
        <time>2026-06-15T15:59:39.000Z</time>
        <extensions>
          <ns3:TrackPointExtension>
            <ns3:atemp>23.0</ns3:atemp>
          </ns3:TrackPointExtension>
        </extensions>
      </trkpt>
      <trkpt lat="42.601974047720432281494140625" lon="19.94976296089589595794677734375">
        <ele>979.5999755859375</ele>
        <time>2026-06-15T15:59:40.000Z</time>
        <extensions>
          <ns3:TrackPointExtension>
            <ns3:atemp>23.0</ns3:atemp>
          </ns3:TrackPointExtension>
        </extensions>
      </trkpt>
      <trkpt lat="42.601974047720432281494140625" lon="19.94976296089589595794677734375">
        <ele>979.5999755859375</ele>
        <time>2026-06-15T15:59:41.000Z</time>
        <extensions>
          <ns3:TrackPointExtension>
            <ns3:atemp>23.0</ns3:atemp>
          </ns3:TrackPointExtension>
        </extensions>
      </trkpt>
      <trkpt lat="42.601974047720432281494140625" lon="19.94976296089589595794677734375">
        <ele>979.5999755859375</ele>
        <time>2026-06-15T15:59:42.000Z</time>
        <extensions>
          <ns3:TrackPointExtension>
            <ns3:atemp>23.0</ns3:atemp>
          </ns3:TrackPointExtension>
        </extensions>
      </trkpt>
      <trkpt lat="42.6019738800823688507080078125" lon="19.949762038886547088623046875">
        <ele>979.4000244140625</ele>
        <time>2026-06-15T15:59:43.000Z</time>
        <extensions>
          <ns3:TrackPointExtension>
            <ns3:atemp>23.0</ns3:atemp>
          </ns3:TrackPointExtension>
        </extensions>
      </trkpt>
      <trkpt lat="42.6019656658172607421875" lon="19.94972825981676578521728515625">
        <ele>979.4000244140625</ele>
        <time>2026-06-15T15:59:44.000Z</time>
        <extensions>
          <ns3:TrackPointExtension>
            <ns3:atemp>23.0</ns3:atemp>
          </ns3:TrackPointExtension>
        </extensions>
      </trkpt>
      <trkpt lat="42.60195426642894744873046875" lon="19.94969791732728481292724609375">
        <ele>979.20001220703125</ele>
        <time>2026-06-15T15:59:45.000Z</time>
        <extensions>
          <ns3:TrackPointExtension>
            <ns3:atemp>23.0</ns3:atemp>
          </ns3:TrackPointExtension>
        </extensions>
      </trkpt>
      <trkpt lat="42.60193683207035064697265625" lon="19.94965315796434879302978515625">
        <ele>979.20001220703125</ele>
        <time>2026-06-15T15:59:46.000Z</time>
        <extensions>
          <ns3:TrackPointExtension>
            <ns3:atemp>23.0</ns3:atemp>
          </ns3:TrackPointExtension>
        </extensions>
      </trkpt>
      <trkpt lat="42.60191981680691242218017578125" lon="19.94960303418338298797607421875">
        <ele>979</ele>
        <time>2026-06-15T15:59:47.000Z</time>
        <extensions>
          <ns3:TrackPointExtension>
            <ns3:atemp>23.0</ns3:atemp>
          </ns3:TrackPointExtension>
        </extensions>
      </trkpt>
      <trkpt lat="42.6019004546105861663818359375" lon="19.94954318739473819732666015625">
        <ele>978.5999755859375</ele>
        <time>2026-06-15T15:59:48.000Z</time>
        <extensions>
          <ns3:TrackPointExtension>
            <ns3:atemp>23.0</ns3:atemp>
          </ns3:TrackPointExtension>
        </extensions>
      </trkpt>
      <trkpt lat="42.6018823496997356414794921875" lon="19.9494819156825542449951171875">
        <ele>978.20001220703125</ele>
        <time>2026-06-15T15:59:49.000Z</time>
        <extensions>
          <ns3:TrackPointExtension>
            <ns3:atemp>23.0</ns3:atemp>
          </ns3:TrackPointExtension>
        </extensions>
      </trkpt>
      <trkpt lat="42.60186416096985340118408203125" lon="19.949414692819118499755859375">
        <ele>978</ele>
        <time>2026-06-15T15:59:50.000Z</time>
        <extensions>
          <ns3:TrackPointExtension>
            <ns3:atemp>23.0</ns3:atemp>
          </ns3:TrackPointExtension>
        </extensions>
      </trkpt>
      <trkpt lat="42.60184488259255886077880859375" lon="19.94933933950960636138916015625">
        <ele>977.5999755859375</ele>
        <time>2026-06-15T15:59:51.000Z</time>
        <extensions>
          <ns3:TrackPointExtension>
            <ns3:atemp>23.0</ns3:atemp>
          </ns3:TrackPointExtension>
        </extensions>
      </trkpt>
      <trkpt lat="42.60181772522628307342529296875" lon="19.94925568811595439910888671875">
        <ele>977.20001220703125</ele>
        <time>2026-06-15T15:59:52.000Z</time>
        <extensions>
          <ns3:TrackPointExtension>
            <ns3:atemp>23.0</ns3:atemp>
          </ns3:TrackPointExtension>
        </extensions>
      </trkpt>
      <trkpt lat="42.6017961837351322174072265625" lon="19.94916717521846294403076171875">
        <ele>976.79998779296875</ele>
        <time>2026-06-15T15:59:53.000Z</time>
        <extensions>
          <ns3:TrackPointExtension>
            <ns3:atemp>23.0</ns3:atemp>
          </ns3:TrackPointExtension>
        </extensions>
      </trkpt>
      <trkpt lat="42.601780928671360015869140625" lon="19.949075393378734588623046875">
        <ele>976.20001220703125</ele>
        <time>2026-06-15T15:59:54.000Z</time>
        <extensions>
          <ns3:TrackPointExtension>
            <ns3:atemp>23.0</ns3:atemp>
          </ns3:TrackPointExtension>
        </extensions>
      </trkpt>
      <trkpt lat="42.60176743380725383758544921875" lon="19.94897590018808841705322265625">
        <ele>975.79998779296875</ele>
        <time>2026-06-15T15:59:55.000Z</time>
        <extensions>
          <ns3:TrackPointExtension>
            <ns3:atemp>23.0</ns3:atemp>
          </ns3:TrackPointExtension>
        </extensions>
      </trkpt>
      <trkpt lat="42.601747401058673858642578125" lon="19.948874898254871368408203125">
        <ele>975.4000244140625</ele>
        <time>2026-06-15T15:59:56.000Z</time>
        <extensions>
          <ns3:TrackPointExtension>
            <ns3:atemp>23.0</ns3:atemp>
          </ns3:TrackPointExtension>
        </extensions>
      </trkpt>
      <trkpt lat="42.60173155926167964935302734375" lon="19.948774315416812896728515625">
        <ele>974.79998779296875</ele>
        <time>2026-06-15T15:59:57.000Z</time>
        <extensions>
          <ns3:TrackPointExtension>
            <ns3:atemp>23.0</ns3:atemp>
          </ns3:TrackPointExtension>
        </extensions>
      </trkpt>
      <trkpt lat="42.60171814821660518646240234375" lon="19.9486718885600566864013671875">
        <ele>974.4000244140625</ele>
        <time>2026-06-15T15:59:58.000Z</time>
        <extensions>
          <ns3:TrackPointExtension>
            <ns3:atemp>23.0</ns3:atemp>
          </ns3:TrackPointExtension>
        </extensions>
      </trkpt>
      <trkpt lat="42.60170306079089641571044921875" lon="19.94856812059879302978515625">
        <ele>974</ele>
        <time>2026-06-15T15:59:59.000Z</time>
        <extensions>
          <ns3:TrackPointExtension>
            <ns3:atemp>23.0</ns3:atemp>
          </ns3:TrackPointExtension>
        </extensions>
      </trkpt>
      <trkpt lat="42.60168730281293392181396484375" lon="19.94846326299011707305908203125">
        <ele>973.4000244140625</ele>
        <time>2026-06-15T16:00:00.000Z</time>
        <extensions>
          <ns3:TrackPointExtension>
            <ns3:atemp>23.0</ns3:atemp>
          </ns3:TrackPointExtension>
        </extensions>
      </trkpt>
      <trkpt lat="42.601672299206256866455078125" lon="19.94835748337209224700927734375">
        <ele>973</ele>
        <time>2026-06-15T16:00:01.000Z</time>
        <extensions>
          <ns3:TrackPointExtension>
            <ns3:atemp>23.0</ns3:atemp>
          </ns3:TrackPointExtension>
        </extensions>
      </trkpt>
      <trkpt lat="42.6016597263514995574951171875" lon="19.9482522904872894287109375">
        <ele>972.5999755859375</ele>
        <time>2026-06-15T16:00:02.000Z</time>
        <extensions>
          <ns3:TrackPointExtension>
            <ns3:atemp>23.0</ns3:atemp>
          </ns3:TrackPointExtension>
        </extensions>
      </trkpt>
      <trkpt lat="42.6016443036496639251708984375" lon="19.94814072735607624053955078125">
        <ele>972.20001220703125</ele>
        <time>2026-06-15T16:00:03.000Z</time>
        <extensions>
          <ns3:TrackPointExtension>
            <ns3:atemp>23.0</ns3:atemp>
          </ns3:TrackPointExtension>
        </extensions>
      </trkpt>
      <trkpt lat="42.60162477381527423858642578125" lon="19.94803369045257568359375">
        <ele>971.5999755859375</ele>
        <time>2026-06-15T16:00:04.000Z</time>
        <extensions>
          <ns3:TrackPointExtension>
            <ns3:atemp>23.0</ns3:atemp>
          </ns3:TrackPointExtension>
        </extensions>
      </trkpt>
      <trkpt lat="42.60160666890442371368408203125" lon="19.94792380370199680328369140625">
        <ele>971.20001220703125</ele>
        <time>2026-06-15T16:00:05.000Z</time>
        <extensions>
          <ns3:TrackPointExtension>
            <ns3:atemp>23.0</ns3:atemp>
          </ns3:TrackPointExtension>
        </extensions>
      </trkpt>
      <trkpt lat="42.60158789344131946563720703125" lon="19.9478150904178619384765625">
        <ele>970.79998779296875</ele>
        <time>2026-06-15T16:00:06.000Z</time>
        <extensions>
          <ns3:TrackPointExtension>
            <ns3:atemp>23.0</ns3:atemp>
          </ns3:TrackPointExtension>
        </extensions>
      </trkpt>
      <trkpt lat="42.6015675254166126251220703125" lon="19.947706125676631927490234375">
        <ele>970.4000244140625</ele>
        <time>2026-06-15T16:00:07.000Z</time>
        <extensions>
          <ns3:TrackPointExtension>
            <ns3:atemp>23.0</ns3:atemp>
          </ns3:TrackPointExtension>
        </extensions>
      </trkpt>
      <trkpt lat="42.60154665447771549224853515625" lon="19.94760847650468349456787109375">
        <ele>970.20001220703125</ele>
        <time>2026-06-15T16:00:08.000Z</time>
        <extensions>
          <ns3:TrackPointExtension>
            <ns3:atemp>23.0</ns3:atemp>
          </ns3:TrackPointExtension>
        </extensions>
      </trkpt>
      <trkpt lat="42.601524777710437774658203125" lon="19.9475227296352386474609375">
        <ele>970</ele>
        <time>2026-06-15T16:00:09.000Z</time>
        <extensions>
          <ns3:TrackPointExtension>
            <ns3:atemp>23.0</ns3:atemp>
          </ns3:TrackPointExtension>
        </extensions>
      </trkpt>
      <trkpt lat="42.60150365531444549560546875" lon="19.94745190255343914031982421875">
        <ele>969.5999755859375</ele>
        <time>2026-06-15T16:00:10.000Z</time>
        <extensions>
          <ns3:TrackPointExtension>
            <ns3:atemp>23.0</ns3:atemp>
          </ns3:TrackPointExtension>
        </extensions>
      </trkpt>
      <trkpt lat="42.60148580186069011688232421875" lon="19.9474020302295684814453125">
        <ele>969.5999755859375</ele>
        <time>2026-06-15T16:00:11.000Z</time>
        <extensions>
          <ns3:TrackPointExtension>
            <ns3:atemp>23.0</ns3:atemp>
          </ns3:TrackPointExtension>
        </extensions>
      </trkpt>
      <trkpt lat="42.6014726422727108001708984375" lon="19.94735852815210819244384765625">
        <ele>969.4000244140625</ele>
        <time>2026-06-15T16:00:12.000Z</time>
        <extensions>
          <ns3:TrackPointExtension>
            <ns3:atemp>23.0</ns3:atemp>
          </ns3:TrackPointExtension>
        </extensions>
      </trkpt>
      <trkpt lat="42.60145562700927257537841796875" lon="19.9473254196345806121826171875">
        <ele>969.20001220703125</ele>
        <time>2026-06-15T16:00:13.000Z</time>
        <extensions>
          <ns3:TrackPointExtension>
            <ns3:atemp>23.0</ns3:atemp>
          </ns3:TrackPointExtension>
        </extensions>
      </trkpt>
      <trkpt lat="42.6014371030032634735107421875" lon="19.9473063088953495025634765625">
        <ele>969</ele>
        <time>2026-06-15T16:00:14.000Z</time>
        <extensions>
          <ns3:TrackPointExtension>
            <ns3:atemp>23.0</ns3:atemp>
          </ns3:TrackPointExtension>
        </extensions>
      </trkpt>
      <trkpt lat="42.6014273799955844879150390625" lon="19.94730102829635143280029296875">
        <ele>968.79998779296875</ele>
        <time>2026-06-15T16:00:15.000Z</time>
        <extensions>
          <ns3:TrackPointExtension>
            <ns3:atemp>23.0</ns3:atemp>
          </ns3:TrackPointExtension>
        </extensions>
      </trkpt>
      <trkpt lat="42.60141908191144466400146484375" lon="19.94729029946029186248779296875">
        <ele>968.5999755859375</ele>
        <time>2026-06-15T16:00:16.000Z</time>
        <extensions>
          <ns3:TrackPointExtension>
            <ns3:atemp>23.0</ns3:atemp>
          </ns3:TrackPointExtension>
        </extensions>
      </trkpt>
      <trkpt lat="42.601398043334484100341796875" lon="19.947268255054950714111328125">
        <ele>968.4000244140625</ele>
        <time>2026-06-15T16:00:17.000Z</time>
        <extensions>
          <ns3:TrackPointExtension>
            <ns3:atemp>23.0</ns3:atemp>
          </ns3:TrackPointExtension>
        </extensions>
      </trkpt>
      <trkpt lat="42.6013673655688762664794921875" lon="19.94724419899284839630126953125">
        <ele>968.20001220703125</ele>
        <time>2026-06-15T16:00:18.000Z</time>
        <extensions>
          <ns3:TrackPointExtension>
            <ns3:atemp>23.0</ns3:atemp>
          </ns3:TrackPointExtension>
        </extensions>
      </trkpt>
      <trkpt lat="42.6013257913291454315185546875" lon="19.94721871800720691680908203125">
        <ele>967.79998779296875</ele>
        <time>2026-06-15T16:00:19.000Z</time>
        <extensions>
          <ns3:TrackPointExtension>
            <ns3:atemp>23.0</ns3:atemp>
          </ns3:TrackPointExtension>
        </extensions>
      </trkpt>
      <trkpt lat="42.6012771762907505035400390625" lon="19.94719474576413631439208984375">
        <ele>967.5999755859375</ele>
        <time>2026-06-15T16:00:20.000Z</time>
        <extensions>
          <ns3:TrackPointExtension>
            <ns3:atemp>23.0</ns3:atemp>
          </ns3:TrackPointExtension>
        </extensions>
      </trkpt>
      <trkpt lat="42.601223029196262359619140625" lon="19.94717747904360294342041015625">
        <ele>967.4000244140625</ele>
        <time>2026-06-15T16:00:21.000Z</time>
        <extensions>
          <ns3:TrackPointExtension>
            <ns3:atemp>23.0</ns3:atemp>
          </ns3:TrackPointExtension>
        </extensions>
      </trkpt>
      <trkpt lat="42.60116645134985446929931640625" lon="19.94716373272240161895751953125">
        <ele>967</ele>
        <time>2026-06-15T16:00:22.000Z</time>
        <extensions>
          <ns3:TrackPointExtension>
            <ns3:atemp>23.0</ns3:atemp>
          </ns3:TrackPointExtension>
        </extensions>
      </trkpt>
      <trkpt lat="42.60110995732247829437255859375" lon="19.94714831002056598663330078125">
        <ele>966.79998779296875</ele>
        <time>2026-06-15T16:00:23.000Z</time>
        <extensions>
          <ns3:TrackPointExtension>
            <ns3:atemp>23.0</ns3:atemp>
          </ns3:TrackPointExtension>
        </extensions>
      </trkpt>
      <trkpt lat="42.60105111636221408843994140625" lon="19.94713238440454006195068359375">
        <ele>966.4000244140625</ele>
        <time>2026-06-15T16:00:24.000Z</time>
        <extensions>
          <ns3:TrackPointExtension>
            <ns3:atemp>23.0</ns3:atemp>
          </ns3:TrackPointExtension>
        </extensions>
      </trkpt>
      <trkpt lat="42.60098825208842754364013671875" lon="19.94712098501622676849365234375">
        <ele>966</ele>
        <time>2026-06-15T16:00:25.000Z</time>
        <extensions>
          <ns3:TrackPointExtension>
            <ns3:atemp>23.0</ns3:atemp>
          </ns3:TrackPointExtension>
        </extensions>
      </trkpt>
      <trkpt lat="42.6009274832904338836669921875" lon="19.94711293838918209075927734375">
        <ele>965.5999755859375</ele>
        <time>2026-06-15T16:00:26.000Z</time>
        <extensions>
          <ns3:TrackPointExtension>
            <ns3:atemp>23.0</ns3:atemp>
          </ns3:TrackPointExtension>
        </extensions>
      </trkpt>
      <trkpt lat="42.60086419992148876190185546875" lon="19.94710204191505908966064453125">
        <ele>965.20001220703125</ele>
        <time>2026-06-15T16:00:27.000Z</time>
        <extensions>
          <ns3:TrackPointExtension>
            <ns3:atemp>23.0</ns3:atemp>
          </ns3:TrackPointExtension>
        </extensions>
      </trkpt>
      <trkpt lat="42.60079882107675075531005859375" lon="19.947090558707714080810546875">
        <ele>964.79998779296875</ele>
        <time>2026-06-15T16:00:28.000Z</time>
        <extensions>
          <ns3:TrackPointExtension>
            <ns3:atemp>23.0</ns3:atemp>
          </ns3:TrackPointExtension>
        </extensions>
      </trkpt>
      <trkpt lat="42.600732184946537017822265625" lon="19.9470816738903522491455078125">
        <ele>964.5999755859375</ele>
        <time>2026-06-15T16:00:29.000Z</time>
        <extensions>
          <ns3:TrackPointExtension>
            <ns3:atemp>23.0</ns3:atemp>
          </ns3:TrackPointExtension>
        </extensions>
      </trkpt>
      <trkpt lat="42.60066320188343524932861328125" lon="19.94707203470170497894287109375">
        <ele>964.20001220703125</ele>
        <time>2026-06-15T16:00:30.000Z</time>
        <extensions>
          <ns3:TrackPointExtension>
            <ns3:atemp>23.0</ns3:atemp>
          </ns3:TrackPointExtension>
        </extensions>
      </trkpt>
      <trkpt lat="42.60059212334454059600830078125" lon="19.94705812074244022369384765625">
        <ele>963.79998779296875</ele>
        <time>2026-06-15T16:00:31.000Z</time>
        <extensions>
          <ns3:TrackPointExtension>
            <ns3:atemp>23.0</ns3:atemp>
          </ns3:TrackPointExtension>
        </extensions>
      </trkpt>
      <trkpt lat="42.60051920078694820404052734375" lon="19.94704420678317546844482421875">
        <ele>963.4000244140625</ele>
        <time>2026-06-15T16:00:32.000Z</time>
        <extensions>
          <ns3:TrackPointExtension>
            <ns3:atemp>23.0</ns3:atemp>
          </ns3:TrackPointExtension>
        </extensions>
      </trkpt>
      <trkpt lat="42.60044627822935581207275390625" lon="19.94703314267098903656005859375">
        <ele>962.79998779296875</ele>
        <time>2026-06-15T16:00:33.000Z</time>
        <extensions>
          <ns3:TrackPointExtension>
            <ns3:atemp>23.0</ns3:atemp>
          </ns3:TrackPointExtension>
        </extensions>
      </trkpt>
      <trkpt lat="42.600371427834033966064453125" lon="19.94702308438718318939208984375">
        <ele>962.4000244140625</ele>
        <time>2026-06-15T16:00:34.000Z</time>
        <extensions>
          <ns3:TrackPointExtension>
            <ns3:atemp>23.0</ns3:atemp>
          </ns3:TrackPointExtension>
        </extensions>
      </trkpt>
      <trkpt lat="42.60029724799096584320068359375" lon="19.947012774646282196044921875">
        <ele>962</ele>
        <time>2026-06-15T16:00:35.000Z</time>
        <extensions>
          <ns3:TrackPointExtension>
            <ns3:atemp>23.0</ns3:atemp>
          </ns3:TrackPointExtension>
        </extensions>
      </trkpt>
      <trkpt lat="42.60022214613854885101318359375" lon="19.94700246490538120269775390625">
        <ele>961.79998779296875</ele>
        <time>2026-06-15T16:00:36.000Z</time>
        <extensions>
          <ns3:TrackPointExtension>
            <ns3:atemp>23.0</ns3:atemp>
          </ns3:TrackPointExtension>
        </extensions>
      </trkpt>
      <trkpt lat="42.60014737956225872039794921875" lon="19.9469943344593048095703125">
        <ele>961.20001220703125</ele>
        <time>2026-06-15T16:00:37.000Z</time>
        <extensions>
          <ns3:TrackPointExtension>
            <ns3:atemp>23.0</ns3:atemp>
          </ns3:TrackPointExtension>
        </extensions>
      </trkpt>
      <trkpt lat="42.600069679319858551025390625" lon="19.946994669735431671142578125">
        <ele>961</ele>
        <time>2026-06-15T16:00:38.000Z</time>
        <extensions>
          <ns3:TrackPointExtension>
            <ns3:atemp>23.0</ns3:atemp>
          </ns3:TrackPointExtension>
        </extensions>
      </trkpt>
      <trkpt lat="42.59999063797295093536376953125" lon="19.94700816459953784942626953125">
        <ele>960.5999755859375</ele>
        <time>2026-06-15T16:00:39.000Z</time>
        <extensions>
          <ns3:TrackPointExtension>
            <ns3:atemp>23.0</ns3:atemp>
          </ns3:TrackPointExtension>
        </extensions>
      </trkpt>
      <trkpt lat="42.599913440644741058349609375" lon="19.9470330588519573211669921875">
        <ele>960.20001220703125</ele>
        <time>2026-06-15T16:00:40.000Z</time>
        <extensions>
          <ns3:TrackPointExtension>
            <ns3:atemp>23.0</ns3:atemp>
          </ns3:TrackPointExtension>
        </extensions>
      </trkpt>
      <trkpt lat="42.599837668240070343017578125" lon="19.94706734083592891693115234375">
        <ele>959.79998779296875</ele>
        <time>2026-06-15T16:00:41.000Z</time>
        <extensions>
          <ns3:TrackPointExtension>
            <ns3:atemp>23.0</ns3:atemp>
          </ns3:TrackPointExtension>
        </extensions>
      </trkpt>
      <trkpt lat="42.5997600518167018890380859375" lon="19.94710841216146945953369140625">
        <ele>959.4000244140625</ele>
        <time>2026-06-15T16:00:42.000Z</time>
        <extensions>
          <ns3:TrackPointExtension>
            <ns3:atemp>23.0</ns3:atemp>
          </ns3:TrackPointExtension>
        </extensions>
      </trkpt>
      <trkpt lat="42.59968201629817485809326171875" lon="19.94714789092540740966796875">
        <ele>958.79998779296875</ele>
        <time>2026-06-15T16:00:43.000Z</time>
        <extensions>
          <ns3:TrackPointExtension>
            <ns3:atemp>23.0</ns3:atemp>
          </ns3:TrackPointExtension>
        </extensions>
      </trkpt>
      <trkpt lat="42.59959953837096691131591796875" lon="19.9471829272806644439697265625">
        <ele>958.4000244140625</ele>
        <time>2026-06-15T16:00:44.000Z</time>
        <extensions>
          <ns3:TrackPointExtension>
            <ns3:atemp>23.0</ns3:atemp>
          </ns3:TrackPointExtension>
        </extensions>
      </trkpt>
      <trkpt lat="42.59951345622539520263671875" lon="19.94720832444727420806884765625">
        <ele>958</ele>
        <time>2026-06-15T16:00:45.000Z</time>
        <extensions>
          <ns3:TrackPointExtension>
            <ns3:atemp>23.0</ns3:atemp>
          </ns3:TrackPointExtension>
        </extensions>
      </trkpt>
      <trkpt lat="42.59942603297531604766845703125" lon="19.947221316397190093994140625">
        <ele>957.5999755859375</ele>
        <time>2026-06-15T16:00:46.000Z</time>
        <extensions>
          <ns3:TrackPointExtension>
            <ns3:atemp>23.0</ns3:atemp>
          </ns3:TrackPointExtension>
        </extensions>
      </trkpt>
      <trkpt lat="42.5993396155536174774169921875" lon="19.947232045233249664306640625">
        <ele>957</ele>
        <time>2026-06-15T16:00:47.000Z</time>
        <extensions>
          <ns3:TrackPointExtension>
            <ns3:atemp>23.0</ns3:atemp>
          </ns3:TrackPointExtension>
        </extensions>
      </trkpt>
      <trkpt lat="42.599253617227077484130859375" lon="19.94724721647799015045166015625">
        <ele>956.5999755859375</ele>
        <time>2026-06-15T16:00:48.000Z</time>
        <extensions>
          <ns3:TrackPointExtension>
            <ns3:atemp>23.0</ns3:atemp>
          </ns3:TrackPointExtension>
        </extensions>
      </trkpt>
      <trkpt lat="42.5991706363856792449951171875" lon="19.947266243398189544677734375">
        <ele>956.20001220703125</ele>
        <time>2026-06-15T16:00:49.000Z</time>
        <extensions>
          <ns3:TrackPointExtension>
            <ns3:atemp>23.0</ns3:atemp>
          </ns3:TrackPointExtension>
        </extensions>
      </trkpt>
      <trkpt lat="42.59908857755362987518310546875" lon="19.9472851864993572235107421875">
        <ele>955.79998779296875</ele>
        <time>2026-06-15T16:00:50.000Z</time>
        <extensions>
          <ns3:TrackPointExtension>
            <ns3:atemp>23.0</ns3:atemp>
          </ns3:TrackPointExtension>
        </extensions>
      </trkpt>
      <trkpt lat="42.59900425560772418975830078125" lon="19.9473046325147151947021484375">
        <ele>955.4000244140625</ele>
        <time>2026-06-15T16:00:51.000Z</time>
        <extensions>
          <ns3:TrackPointExtension>
            <ns3:atemp>23.0</ns3:atemp>
          </ns3:TrackPointExtension>
        </extensions>
      </trkpt>
      <trkpt lat="42.5989186763763427734375" lon="19.94733036495745182037353515625">
        <ele>955.20001220703125</ele>
        <time>2026-06-15T16:00:52.000Z</time>
        <extensions>
          <ns3:TrackPointExtension>
            <ns3:atemp>23.0</ns3:atemp>
          </ns3:TrackPointExtension>
        </extensions>
      </trkpt>
      <trkpt lat="42.59882940910756587982177734375" lon="19.9473564326763153076171875">
        <ele>954.79998779296875</ele>
        <time>2026-06-15T16:00:53.000Z</time>
        <extensions>
          <ns3:TrackPointExtension>
            <ns3:atemp>23.0</ns3:atemp>
          </ns3:TrackPointExtension>
        </extensions>
      </trkpt>
      <trkpt lat="42.59874257259070873260498046875" lon="19.94737319648265838623046875">
        <ele>954.4000244140625</ele>
        <time>2026-06-15T16:00:54.000Z</time>
        <extensions>
          <ns3:TrackPointExtension>
            <ns3:atemp>23.0</ns3:atemp>
          </ns3:TrackPointExtension>
        </extensions>
      </trkpt>
      <trkpt lat="42.59865380823612213134765625" lon="19.9473820813000202178955078125">
        <ele>954</ele>
        <time>2026-06-15T16:00:55.000Z</time>
        <extensions>
          <ns3:TrackPointExtension>
            <ns3:atemp>23.0</ns3:atemp>
          </ns3:TrackPointExtension>
        </extensions>
      </trkpt>
      <trkpt lat="42.5985647924244403839111328125" lon="19.94738258421421051025390625">
        <ele>953.4000244140625</ele>
        <time>2026-06-15T16:00:56.000Z</time>
        <extensions>
          <ns3:TrackPointExtension>
            <ns3:atemp>23.0</ns3:atemp>
          </ns3:TrackPointExtension>
        </extensions>
      </trkpt>
      <trkpt lat="42.59847703389823436737060546875" lon="19.94738065637648105621337890625">
        <ele>953</ele>
        <time>2026-06-15T16:00:57.000Z</time>
        <extensions>
          <ns3:TrackPointExtension>
            <ns3:atemp>23.0</ns3:atemp>
          </ns3:TrackPointExtension>
        </extensions>
      </trkpt>
      <trkpt lat="42.5983904488384723663330078125" lon="19.94736875407397747039794921875">
        <ele>952.5999755859375</ele>
        <time>2026-06-15T16:00:58.000Z</time>
        <extensions>
          <ns3:TrackPointExtension>
            <ns3:atemp>23.0</ns3:atemp>
          </ns3:TrackPointExtension>
        </extensions>
      </trkpt>
      <trkpt lat="42.59830839000642299652099609375" lon="19.94735165499150753021240234375">
        <ele>952.4000244140625</ele>
        <time>2026-06-15T16:00:59.000Z</time>
        <extensions>
          <ns3:TrackPointExtension>
            <ns3:atemp>23.0</ns3:atemp>
          </ns3:TrackPointExtension>
        </extensions>
      </trkpt>
      <trkpt lat="42.59822943247854709625244140625" lon="19.94733723811805248260498046875">
        <ele>952.20001220703125</ele>
        <time>2026-06-15T16:01:00.000Z</time>
        <extensions>
          <ns3:TrackPointExtension>
            <ns3:atemp>23.0</ns3:atemp>
          </ns3:TrackPointExtension>
        </extensions>
      </trkpt>
      <trkpt lat="42.59814980439841747283935546875" lon="19.947317205369472503662109375">
        <ele>952.20001220703125</ele>
        <time>2026-06-15T16:01:01.000Z</time>
        <extensions>
          <ns3:TrackPointExtension>
            <ns3:atemp>23.0</ns3:atemp>
          </ns3:TrackPointExtension>
        </extensions>
      </trkpt>
      <trkpt lat="42.5980697572231292724609375" lon="19.94729666970670223236083984375">
        <ele>952</ele>
        <time>2026-06-15T16:01:02.000Z</time>
        <extensions>
          <ns3:TrackPointExtension>
            <ns3:atemp>23.0</ns3:atemp>
          </ns3:TrackPointExtension>
        </extensions>
      </trkpt>
      <trkpt lat="42.59799373336136341094970703125" lon="19.947282336652278900146484375">
        <ele>952</ele>
        <time>2026-06-15T16:01:03.000Z</time>
        <extensions>
          <ns3:TrackPointExtension>
            <ns3:atemp>23.0</ns3:atemp>
          </ns3:TrackPointExtension>
        </extensions>
      </trkpt>
      <trkpt lat="42.5979187153279781341552734375" lon="19.94727135635912418365478515625">
        <ele>952</ele>
        <time>2026-06-15T16:01:04.000Z</time>
        <extensions>
          <ns3:TrackPointExtension>
            <ns3:atemp>23.0</ns3:atemp>
          </ns3:TrackPointExtension>
        </extensions>
      </trkpt>
      <trkpt lat="42.5978469662368297576904296875" lon="19.94725744239985942840576171875">
        <ele>952</ele>
        <time>2026-06-15T16:01:05.000Z</time>
        <extensions>
          <ns3:TrackPointExtension>
            <ns3:atemp>23.0</ns3:atemp>
          </ns3:TrackPointExtension>
        </extensions>
      </trkpt>
      <trkpt lat="42.59777882136404514312744140625" lon="19.9472352303564548492431640625">
        <ele>952</ele>
        <time>2026-06-15T16:01:06.000Z</time>
        <extensions>
          <ns3:TrackPointExtension>
            <ns3:atemp>23.0</ns3:atemp>
          </ns3:TrackPointExtension>
        </extensions>
      </trkpt>
      <trkpt lat="42.59771143086254596710205078125" lon="19.94721804745495319366455078125">
        <ele>952</ele>
        <time>2026-06-15T16:01:07.000Z</time>
        <extensions>
          <ns3:TrackPointExtension>
            <ns3:atemp>23.0</ns3:atemp>
          </ns3:TrackPointExtension>
        </extensions>
      </trkpt>
      <trkpt lat="42.59764320217072963714599609375" lon="19.947201199829578399658203125">
        <ele>952</ele>
        <time>2026-06-15T16:01:08.000Z</time>
        <extensions>
          <ns3:TrackPointExtension>
            <ns3:atemp>23.0</ns3:atemp>
          </ns3:TrackPointExtension>
        </extensions>
      </trkpt>
      <trkpt lat="42.59757463820278644561767578125" lon="19.94718812406063079833984375">
        <ele>952.20001220703125</ele>
        <time>2026-06-15T16:01:09.000Z</time>
        <extensions>
          <ns3:TrackPointExtension>
            <ns3:atemp>23.0</ns3:atemp>
          </ns3:TrackPointExtension>
        </extensions>
      </trkpt>
      <trkpt lat="42.5975056551396846771240234375" lon="19.9471778981387615203857421875">
        <ele>952.20001220703125</ele>
        <time>2026-06-15T16:01:10.000Z</time>
        <extensions>
          <ns3:TrackPointExtension>
            <ns3:atemp>23.0</ns3:atemp>
          </ns3:TrackPointExtension>
        </extensions>
      </trkpt>
      <trkpt lat="42.5974394381046295166015625" lon="19.947173036634922027587890625">
        <ele>952.4000244140625</ele>
        <time>2026-06-15T16:01:11.000Z</time>
        <extensions>
          <ns3:TrackPointExtension>
            <ns3:atemp>23.0</ns3:atemp>
          </ns3:TrackPointExtension>
        </extensions>
      </trkpt>
      <trkpt lat="42.59737439453601837158203125" lon="19.94717513211071491241455078125">
        <ele>952.4000244140625</ele>
        <time>2026-06-15T16:01:12.000Z</time>
        <extensions>
          <ns3:TrackPointExtension>
            <ns3:atemp>23.0</ns3:atemp>
          </ns3:TrackPointExtension>
        </extensions>
      </trkpt>
      <trkpt lat="42.59731798432767391204833984375" lon="19.9471778981387615203857421875">
        <ele>952.5999755859375</ele>
        <time>2026-06-15T16:01:13.000Z</time>
        <extensions>
          <ns3:TrackPointExtension>
            <ns3:atemp>23.0</ns3:atemp>
          </ns3:TrackPointExtension>
        </extensions>
      </trkpt>
      <trkpt lat="42.5972598977386951446533203125" lon="19.94718032889068126678466796875">
        <ele>952.5999755859375</ele>
        <time>2026-06-15T16:01:14.000Z</time>
        <extensions>
          <ns3:TrackPointExtension>
            <ns3:atemp>23.0</ns3:atemp>
          </ns3:TrackPointExtension>
        </extensions>
      </trkpt>
      <trkpt lat="42.59719946421682834625244140625" lon="19.947183430194854736328125">
        <ele>952.79998779296875</ele>
        <time>2026-06-15T16:01:15.000Z</time>
        <extensions>
          <ns3:TrackPointExtension>
            <ns3:atemp>23.0</ns3:atemp>
          </ns3:TrackPointExtension>
        </extensions>
      </trkpt>
      <trkpt lat="42.59713257662951946258544921875" lon="19.9471866153180599212646484375">
        <ele>952.79998779296875</ele>
        <time>2026-06-15T16:01:16.000Z</time>
        <extensions>
          <ns3:TrackPointExtension>
            <ns3:atemp>23.0</ns3:atemp>
          </ns3:TrackPointExtension>
        </extensions>
      </trkpt>
      <trkpt lat="42.59706686250865459442138671875" lon="19.94718334637582302093505859375">
        <ele>953</ele>
        <time>2026-06-15T16:01:17.000Z</time>
        <extensions>
          <ns3:TrackPointExtension>
            <ns3:atemp>23.0</ns3:atemp>
          </ns3:TrackPointExtension>
        </extensions>
      </trkpt>
      <trkpt lat="42.5970024056732654571533203125" lon="19.94716607965528964996337890625">
        <ele>953.20001220703125</ele>
        <time>2026-06-15T16:01:18.000Z</time>
        <extensions>
          <ns3:TrackPointExtension>
            <ns3:atemp>23.0</ns3:atemp>
          </ns3:TrackPointExtension>
        </extensions>
      </trkpt>
      <trkpt lat="42.59695504792034626007080078125" lon="19.94713959284126758575439453125">
        <ele>953.20001220703125</ele>
        <time>2026-06-15T16:01:19.000Z</time>
        <extensions>
          <ns3:TrackPointExtension>
            <ns3:atemp>23.0</ns3:atemp>
          </ns3:TrackPointExtension>
        </extensions>
      </trkpt>
      <trkpt lat="42.5969041697680950164794921875" lon="19.94711033999919891357421875">
        <ele>953.4000244140625</ele>
        <time>2026-06-15T16:01:20.000Z</time>
        <extensions>
          <ns3:TrackPointExtension>
            <ns3:atemp>23.0</ns3:atemp>
          </ns3:TrackPointExtension>
        </extensions>
      </trkpt>
      <trkpt lat="42.596862427890300750732421875" lon="19.94707270525395870208740234375">
        <ele>953.4000244140625</ele>
        <time>2026-06-15T16:01:21.000Z</time>
        <extensions>
          <ns3:TrackPointExtension>
            <ns3:atemp>23.0</ns3:atemp>
          </ns3:TrackPointExtension>
        </extensions>
      </trkpt>
      <trkpt lat="42.5968294031918048858642578125" lon="19.9470407702028751373291015625">
        <ele>953.4000244140625</ele>
        <time>2026-06-15T16:01:22.000Z</time>
        <extensions>
          <ns3:TrackPointExtension>
            <ns3:atemp>23.0</ns3:atemp>
          </ns3:TrackPointExtension>
        </extensions>
      </trkpt>
      <trkpt lat="42.596805095672607421875" lon="19.94702207855880260467529296875">
        <ele>953.5999755859375</ele>
        <time>2026-06-15T16:01:23.000Z</time>
        <extensions>
          <ns3:TrackPointExtension>
            <ns3:atemp>23.0</ns3:atemp>
          </ns3:TrackPointExtension>
        </extensions>
      </trkpt>
      <trkpt lat="42.596786320209503173828125" lon="19.94700950570404529571533203125">
        <ele>953.5999755859375</ele>
        <time>2026-06-15T16:01:24.000Z</time>
        <extensions>
          <ns3:TrackPointExtension>
            <ns3:atemp>23.0</ns3:atemp>
          </ns3:TrackPointExtension>
        </extensions>
      </trkpt>
      <trkpt lat="42.5967640243470668792724609375" lon="19.94699525646865367889404296875">
        <ele>953.79998779296875</ele>
        <time>2026-06-15T16:01:25.000Z</time>
        <extensions>
          <ns3:TrackPointExtension>
            <ns3:atemp>23.0</ns3:atemp>
          </ns3:TrackPointExtension>
        </extensions>
      </trkpt>
      <trkpt lat="42.59674432687461376190185546875" lon="19.94697849266231060028076171875">
        <ele>953.79998779296875</ele>
        <time>2026-06-15T16:01:26.000Z</time>
        <extensions>
          <ns3:TrackPointExtension>
            <ns3:atemp>23.0</ns3:atemp>
          </ns3:TrackPointExtension>
        </extensions>
      </trkpt>
      <trkpt lat="42.59671918116509914398193359375" lon="19.946958124637603759765625">
        <ele>953.79998779296875</ele>
        <time>2026-06-15T16:01:27.000Z</time>
        <extensions>
          <ns3:TrackPointExtension>
            <ns3:atemp>23.0</ns3:atemp>
          </ns3:TrackPointExtension>
        </extensions>
      </trkpt>
      <trkpt lat="42.596696130931377410888671875" lon="19.94694094173610210418701171875">
        <ele>953.79998779296875</ele>
        <time>2026-06-15T16:01:28.000Z</time>
        <extensions>
          <ns3:TrackPointExtension>
            <ns3:atemp>23.0</ns3:atemp>
          </ns3:TrackPointExtension>
        </extensions>
      </trkpt>
      <trkpt lat="42.59667760692536830902099609375" lon="19.9469240941107273101806640625">
        <ele>953.79998779296875</ele>
        <time>2026-06-15T16:01:29.000Z</time>
        <extensions>
          <ns3:TrackPointExtension>
            <ns3:atemp>23.0</ns3:atemp>
          </ns3:TrackPointExtension>
        </extensions>
      </trkpt>
      <trkpt lat="42.59666025638580322265625" lon="19.94690657593309879302978515625">
        <ele>953.79998779296875</ele>
        <time>2026-06-15T16:01:30.000Z</time>
        <extensions>
          <ns3:TrackPointExtension>
            <ns3:atemp>23.0</ns3:atemp>
          </ns3:TrackPointExtension>
        </extensions>
      </trkpt>
      <trkpt lat="42.5966399721801280975341796875" lon="19.94687757454812526702880859375">
        <ele>954</ele>
        <time>2026-06-15T16:01:31.000Z</time>
        <extensions>
          <ns3:TrackPointExtension>
            <ns3:atemp>23.0</ns3:atemp>
          </ns3:TrackPointExtension>
        </extensions>
      </trkpt>
      <trkpt lat="42.59660971350967884063720703125" lon="19.94684589095413684844970703125">
        <ele>954</ele>
        <time>2026-06-15T16:01:32.000Z</time>
        <extensions>
          <ns3:TrackPointExtension>
            <ns3:atemp>23.0</ns3:atemp>
          </ns3:TrackPointExtension>
        </extensions>
      </trkpt>
      <trkpt lat="42.59656948037445545196533203125" lon="19.9468144588172435760498046875">
        <ele>954.20001220703125</ele>
        <time>2026-06-15T16:01:33.000Z</time>
        <extensions>
          <ns3:TrackPointExtension>
            <ns3:atemp>23.0</ns3:atemp>
          </ns3:TrackPointExtension>
        </extensions>
      </trkpt>
      <trkpt lat="42.59652103297412395477294921875" lon="19.94678445160388946533203125">
        <ele>954.20001220703125</ele>
        <time>2026-06-15T16:01:34.000Z</time>
        <extensions>
          <ns3:TrackPointExtension>
            <ns3:atemp>23.0</ns3:atemp>
          </ns3:TrackPointExtension>
        </extensions>
      </trkpt>
      <trkpt lat="42.59647317230701446533203125" lon="19.94675762951374053955078125">
        <ele>954</ele>
        <time>2026-06-15T16:01:35.000Z</time>
        <extensions>
          <ns3:TrackPointExtension>
            <ns3:atemp>23.0</ns3:atemp>
          </ns3:TrackPointExtension>
        </extensions>
      </trkpt>
      <trkpt lat="42.596432268619537353515625" lon="19.9467343278229236602783203125">
        <ele>954.20001220703125</ele>
        <time>2026-06-15T16:01:36.000Z</time>
        <extensions>
          <ns3:TrackPointExtension>
            <ns3:atemp>23.0</ns3:atemp>
          </ns3:TrackPointExtension>
        </extensions>
      </trkpt>
      <trkpt lat="42.59639815427362918853759765625" lon="19.9466977827250957489013671875">
        <ele>954.20001220703125</ele>
        <time>2026-06-15T16:01:37.000Z</time>
        <extensions>
          <ns3:TrackPointExtension>
            <ns3:atemp>23.0</ns3:atemp>
          </ns3:TrackPointExtension>
        </extensions>
      </trkpt>
      <trkpt lat="42.59638759307563304901123046875" lon="19.9466424621641635894775390625">
        <ele>954.20001220703125</ele>
        <time>2026-06-15T16:01:38.000Z</time>
        <extensions>
          <ns3:TrackPointExtension>
            <ns3:atemp>23.0</ns3:atemp>
          </ns3:TrackPointExtension>
        </extensions>
      </trkpt>
      <trkpt lat="42.59639136493206024169921875" lon="19.9465951882302761077880859375">
        <ele>954.20001220703125</ele>
        <time>2026-06-15T16:01:39.000Z</time>
        <extensions>
          <ns3:TrackPointExtension>
            <ns3:atemp>23.0</ns3:atemp>
          </ns3:TrackPointExtension>
        </extensions>
      </trkpt>
      <trkpt lat="42.59640100412070751190185546875" lon="19.94655017741024494171142578125">
        <ele>954.20001220703125</ele>
        <time>2026-06-15T16:01:40.000Z</time>
        <extensions>
          <ns3:TrackPointExtension>
            <ns3:atemp>23.0</ns3:atemp>
          </ns3:TrackPointExtension>
        </extensions>
      </trkpt>
      <trkpt lat="42.59640569798648357391357421875" lon="19.946520589292049407958984375">
        <ele>954.4000244140625</ele>
        <time>2026-06-15T16:01:41.000Z</time>
        <extensions>
          <ns3:TrackPointExtension>
            <ns3:atemp>23.0</ns3:atemp>
          </ns3:TrackPointExtension>
        </extensions>
      </trkpt>
      <trkpt lat="42.59641257114708423614501953125" lon="19.94648496620357036590576171875">
        <ele>954.4000244140625</ele>
        <time>2026-06-15T16:01:42.000Z</time>
        <extensions>
          <ns3:TrackPointExtension>
            <ns3:atemp>23.0</ns3:atemp>
          </ns3:TrackPointExtension>
        </extensions>
      </trkpt>
      <trkpt lat="42.596419192850589752197265625" lon="19.94644959457218647003173828125">
        <ele>954.5999755859375</ele>
        <time>2026-06-15T16:01:43.000Z</time>
        <extensions>
          <ns3:TrackPointExtension>
            <ns3:atemp>23.0</ns3:atemp>
          </ns3:TrackPointExtension>
        </extensions>
      </trkpt>
      <trkpt lat="42.59642531163990497589111328125" lon="19.94641958735883235931396484375">
        <ele>954.5999755859375</ele>
        <time>2026-06-15T16:01:44.000Z</time>
        <extensions>
          <ns3:TrackPointExtension>
            <ns3:atemp>23.0</ns3:atemp>
          </ns3:TrackPointExtension>
        </extensions>
      </trkpt>
      <trkpt lat="42.59643134661018848419189453125" lon="19.9464007280766963958740234375">
        <ele>954.5999755859375</ele>
        <time>2026-06-15T16:01:45.000Z</time>
        <extensions>
          <ns3:TrackPointExtension>
            <ns3:atemp>23.0</ns3:atemp>
          </ns3:TrackPointExtension>
        </extensions>
      </trkpt>
      <trkpt lat="42.5964344479143619537353515625" lon="19.946385137736797332763671875">
        <ele>954.5999755859375</ele>
        <time>2026-06-15T16:01:46.000Z</time>
        <extensions>
          <ns3:TrackPointExtension>
            <ns3:atemp>23.0</ns3:atemp>
          </ns3:TrackPointExtension>
        </extensions>
      </trkpt>
      <trkpt lat="42.59643738158047199249267578125" lon="19.94637248106300830841064453125">
        <ele>954.4000244140625</ele>
        <time>2026-06-15T16:01:47.000Z</time>
        <extensions>
          <ns3:TrackPointExtension>
            <ns3:atemp>23.0</ns3:atemp>
          </ns3:TrackPointExtension>
        </extensions>
      </trkpt>
      <trkpt lat="42.596436627209186553955078125" lon="19.94635437615215778350830078125">
        <ele>954.4000244140625</ele>
        <time>2026-06-15T16:01:48.000Z</time>
        <extensions>
          <ns3:TrackPointExtension>
            <ns3:atemp>23.0</ns3:atemp>
          </ns3:TrackPointExtension>
        </extensions>
      </trkpt>
      <trkpt lat="42.59644224308431148529052734375" lon="19.94633509777486324310302734375">
        <ele>954.4000244140625</ele>
        <time>2026-06-15T16:01:49.000Z</time>
        <extensions>
          <ns3:TrackPointExtension>
            <ns3:atemp>23.0</ns3:atemp>
          </ns3:TrackPointExtension>
        </extensions>
      </trkpt>
      <trkpt lat="42.59644777514040470123291015625" lon="19.94631632231175899505615234375">
        <ele>954.20001220703125</ele>
        <time>2026-06-15T16:01:50.000Z</time>
        <extensions>
          <ns3:TrackPointExtension>
            <ns3:atemp>23.0</ns3:atemp>
          </ns3:TrackPointExtension>
        </extensions>
      </trkpt>
      <trkpt lat="42.5964508764445781707763671875" lon="19.94629452936351299285888671875">
        <ele>954.20001220703125</ele>
        <time>2026-06-15T16:01:51.000Z</time>
        <extensions>
          <ns3:TrackPointExtension>
            <ns3:atemp>23.0</ns3:atemp>
          </ns3:TrackPointExtension>
        </extensions>
      </trkpt>
      <trkpt lat="42.5964502058923244476318359375" lon="19.94627349078655242919921875">
        <ele>954.20001220703125</ele>
        <time>2026-06-15T16:01:52.000Z</time>
        <extensions>
          <ns3:TrackPointExtension>
            <ns3:atemp>23.0</ns3:atemp>
          </ns3:TrackPointExtension>
        </extensions>
      </trkpt>
      <trkpt lat="42.5964538939297199249267578125" lon="19.94625270366668701171875">
        <ele>954.20001220703125</ele>
        <time>2026-06-15T16:01:53.000Z</time>
        <extensions>
          <ns3:TrackPointExtension>
            <ns3:atemp>23.0</ns3:atemp>
          </ns3:TrackPointExtension>
        </extensions>
      </trkpt>
      <trkpt lat="42.59645950980484485626220703125" lon="19.94623283855617046356201171875">
        <ele>954.20001220703125</ele>
        <time>2026-06-15T16:01:54.000Z</time>
        <extensions>
          <ns3:TrackPointExtension>
            <ns3:atemp>23.0</ns3:atemp>
          </ns3:TrackPointExtension>
        </extensions>
      </trkpt>
      <trkpt lat="42.5964652933180332183837890625" lon="19.9462123028934001922607421875">
        <ele>954.20001220703125</ele>
        <time>2026-06-15T16:01:55.000Z</time>
        <extensions>
          <ns3:TrackPointExtension>
            <ns3:atemp>23.0</ns3:atemp>
          </ns3:TrackPointExtension>
        </extensions>
      </trkpt>
      <trkpt lat="42.59647023864090442657470703125" lon="19.94619444943964481353759765625">
        <ele>954.20001220703125</ele>
        <time>2026-06-15T16:01:56.000Z</time>
        <extensions>
          <ns3:TrackPointExtension>
            <ns3:atemp>23.0</ns3:atemp>
          </ns3:TrackPointExtension>
        </extensions>
      </trkpt>
      <trkpt lat="42.5964738428592681884765625" lon="19.946173243224620819091796875">
        <ele>954.20001220703125</ele>
        <time>2026-06-15T16:01:57.000Z</time>
        <extensions>
          <ns3:TrackPointExtension>
            <ns3:atemp>23.0</ns3:atemp>
          </ns3:TrackPointExtension>
        </extensions>
      </trkpt>
      <trkpt lat="42.5964792072772979736328125" lon="19.94615077972412109375">
        <ele>954.20001220703125</ele>
        <time>2026-06-15T16:01:58.000Z</time>
        <extensions>
          <ns3:TrackPointExtension>
            <ns3:atemp>23.0</ns3:atemp>
          </ns3:TrackPointExtension>
        </extensions>
      </trkpt>
      <trkpt lat="42.5964837335050106048583984375" lon="19.9461204372346401214599609375">
        <ele>954.20001220703125</ele>
        <time>2026-06-15T16:01:59.000Z</time>
        <extensions>
          <ns3:TrackPointExtension>
            <ns3:atemp>23.0</ns3:atemp>
          </ns3:TrackPointExtension>
        </extensions>
      </trkpt>
      <trkpt lat="42.5964867509901523590087890625" lon="19.94609487242996692657470703125">
        <ele>954.20001220703125</ele>
        <time>2026-06-15T16:02:00.000Z</time>
        <extensions>
          <ns3:TrackPointExtension>
            <ns3:atemp>23.0</ns3:atemp>
          </ns3:TrackPointExtension>
        </extensions>
      </trkpt>
      <trkpt lat="42.596492953598499298095703125" lon="19.94606687687337398529052734375">
        <ele>954.20001220703125</ele>
        <time>2026-06-15T16:02:01.000Z</time>
        <extensions>
          <ns3:TrackPointExtension>
            <ns3:atemp>23.0</ns3:atemp>
          </ns3:TrackPointExtension>
        </extensions>
      </trkpt>
      <trkpt lat="42.5965021736919879913330078125" lon="19.94604013860225677490234375">
        <ele>954.20001220703125</ele>
        <time>2026-06-15T16:02:02.000Z</time>
        <extensions>
          <ns3:TrackPointExtension>
            <ns3:atemp>23.0</ns3:atemp>
          </ns3:TrackPointExtension>
        </extensions>
      </trkpt>
      <trkpt lat="42.59651097469031810760498046875" lon="19.94600401259958744049072265625">
        <ele>954.20001220703125</ele>
        <time>2026-06-15T16:02:03.000Z</time>
        <extensions>
          <ns3:TrackPointExtension>
            <ns3:atemp>23.0</ns3:atemp>
          </ns3:TrackPointExtension>
        </extensions>
      </trkpt>
      <trkpt lat="42.59652011096477508544921875" lon="19.94596562348306179046630859375">
        <ele>954.4000244140625</ele>
        <time>2026-06-15T16:02:04.000Z</time>
        <extensions>
          <ns3:TrackPointExtension>
            <ns3:atemp>23.0</ns3:atemp>
          </ns3:TrackPointExtension>
        </extensions>
      </trkpt>
      <trkpt lat="42.59652639739215373992919921875" lon="19.94592891074717044830322265625">
        <ele>954.20001220703125</ele>
        <time>2026-06-15T16:02:05.000Z</time>
        <extensions>
          <ns3:TrackPointExtension>
            <ns3:atemp>23.0</ns3:atemp>
          </ns3:TrackPointExtension>
        </extensions>
      </trkpt>
      <trkpt lat="42.596531845629215240478515625" lon="19.94589337147772312164306640625">
        <ele>954.20001220703125</ele>
        <time>2026-06-15T16:02:06.000Z</time>
        <extensions>
          <ns3:TrackPointExtension>
            <ns3:atemp>23.0</ns3:atemp>
          </ns3:TrackPointExtension>
        </extensions>
      </trkpt>
      <trkpt lat="42.5965380482375621795654296875" lon="19.94585900567471981048583984375">
        <ele>954.20001220703125</ele>
        <time>2026-06-15T16:02:07.000Z</time>
        <extensions>
          <ns3:TrackPointExtension>
            <ns3:atemp>23.0</ns3:atemp>
          </ns3:TrackPointExtension>
        </extensions>
      </trkpt>
      <trkpt lat="42.59654517285525798797607421875" lon="19.9458264000713825225830078125">
        <ele>954.20001220703125</ele>
        <time>2026-06-15T16:02:08.000Z</time>
        <extensions>
          <ns3:TrackPointExtension>
            <ns3:atemp>23.0</ns3:atemp>
          </ns3:TrackPointExtension>
        </extensions>
      </trkpt>
      <trkpt lat="42.59655632078647613525390625" lon="19.9457873404026031494140625">
        <ele>954.20001220703125</ele>
        <time>2026-06-15T16:02:09.000Z</time>
        <extensions>
          <ns3:TrackPointExtension>
            <ns3:atemp>23.0</ns3:atemp>
          </ns3:TrackPointExtension>
        </extensions>
      </trkpt>
      <trkpt lat="42.5965677201747894287109375" lon="19.9457405693829059600830078125">
        <ele>954.20001220703125</ele>
        <time>2026-06-15T16:02:10.000Z</time>
        <extensions>
          <ns3:TrackPointExtension>
            <ns3:atemp>23.0</ns3:atemp>
          </ns3:TrackPointExtension>
        </extensions>
      </trkpt>
      <trkpt lat="42.59657802991569042205810546875" lon="19.94569254107773303985595703125">
        <ele>954.20001220703125</ele>
        <time>2026-06-15T16:02:11.000Z</time>
        <extensions>
          <ns3:TrackPointExtension>
            <ns3:atemp>23.0</ns3:atemp>
          </ns3:TrackPointExtension>
        </extensions>
      </trkpt>
      <trkpt lat="42.59658993221819400787353515625" lon="19.94564191438257694244384765625">
        <ele>954.4000244140625</ele>
        <time>2026-06-15T16:02:12.000Z</time>
        <extensions>
          <ns3:TrackPointExtension>
            <ns3:atemp>23.0</ns3:atemp>
          </ns3:TrackPointExtension>
        </extensions>
      </trkpt>
      <trkpt lat="42.5966030918061733245849609375" lon="19.94559346698224544525146484375">
        <ele>954.4000244140625</ele>
        <time>2026-06-15T16:02:13.000Z</time>
        <extensions>
          <ns3:TrackPointExtension>
            <ns3:atemp>23.0</ns3:atemp>
          </ns3:TrackPointExtension>
        </extensions>
      </trkpt>
      <trkpt lat="42.596617005765438079833984375" lon="19.945538230240345001220703125">
        <ele>954.4000244140625</ele>
        <time>2026-06-15T16:02:14.000Z</time>
        <extensions>
          <ns3:TrackPointExtension>
            <ns3:atemp>23.0</ns3:atemp>
          </ns3:TrackPointExtension>
        </extensions>
      </trkpt>
      <trkpt lat="42.59663100354373455047607421875" lon="19.94548517279326915740966796875">
        <ele>954.4000244140625</ele>
        <time>2026-06-15T16:02:15.000Z</time>
        <extensions>
          <ns3:TrackPointExtension>
            <ns3:atemp>23.0</ns3:atemp>
          </ns3:TrackPointExtension>
        </extensions>
      </trkpt>
      <trkpt lat="42.5966446660459041595458984375" lon="19.9454331211745738983154296875">
        <ele>954.5999755859375</ele>
        <time>2026-06-15T16:02:16.000Z</time>
        <extensions>
          <ns3:TrackPointExtension>
            <ns3:atemp>23.0</ns3:atemp>
          </ns3:TrackPointExtension>
        </extensions>
      </trkpt>
      <trkpt lat="42.59665681980550289154052734375" lon="19.945378638803958892822265625">
        <ele>954.5999755859375</ele>
        <time>2026-06-15T16:02:17.000Z</time>
        <extensions>
          <ns3:TrackPointExtension>
            <ns3:atemp>23.0</ns3:atemp>
          </ns3:TrackPointExtension>
        </extensions>
      </trkpt>
      <trkpt lat="42.596671991050243377685546875" lon="19.945326335728168487548828125">
        <ele>954.5999755859375</ele>
        <time>2026-06-15T16:02:18.000Z</time>
        <extensions>
          <ns3:TrackPointExtension>
            <ns3:atemp>23.0</ns3:atemp>
          </ns3:TrackPointExtension>
        </extensions>
      </trkpt>
      <trkpt lat="42.59668640792369842529296875" lon="19.9452755413949489593505859375">
        <ele>954.79998779296875</ele>
        <time>2026-06-15T16:02:19.000Z</time>
        <extensions>
          <ns3:TrackPointExtension>
            <ns3:atemp>23.0</ns3:atemp>
          </ns3:TrackPointExtension>
        </extensions>
      </trkpt>
      <trkpt lat="42.59669906459748744964599609375" lon="19.9452208913862705230712890625">
        <ele>955</ele>
        <time>2026-06-15T16:02:20.000Z</time>
        <extensions>
          <ns3:TrackPointExtension>
            <ns3:atemp>23.0</ns3:atemp>
          </ns3:TrackPointExtension>
        </extensions>
      </trkpt>
      <trkpt lat="42.5967113859951496124267578125" lon="19.94516842067241668701171875">
        <ele>955.20001220703125</ele>
        <time>2026-06-15T16:02:21.000Z</time>
        <extensions>
          <ns3:TrackPointExtension>
            <ns3:atemp>23.0</ns3:atemp>
          </ns3:TrackPointExtension>
        </extensions>
      </trkpt>
      <trkpt lat="42.59672571904957294464111328125" lon="19.9451239965856075286865234375">
        <ele>955.5999755859375</ele>
        <time>2026-06-15T16:02:22.000Z</time>
        <extensions>
          <ns3:TrackPointExtension>
            <ns3:atemp>23.0</ns3:atemp>
          </ns3:TrackPointExtension>
        </extensions>
      </trkpt>
      <trkpt lat="42.59674080647528171539306640625" lon="19.94507714174687862396240234375">
        <ele>955.79998779296875</ele>
        <time>2026-06-15T16:02:23.000Z</time>
        <extensions>
          <ns3:TrackPointExtension>
            <ns3:atemp>23.0</ns3:atemp>
          </ns3:TrackPointExtension>
        </extensions>
      </trkpt>
      <trkpt lat="42.59675656445324420928955078125" lon="19.9450244195759296417236328125">
        <ele>956</ele>
        <time>2026-06-15T16:02:24.000Z</time>
        <extensions>
          <ns3:TrackPointExtension>
            <ns3:atemp>24.0</ns3:atemp>
          </ns3:TrackPointExtension>
        </extensions>
      </trkpt>
      <trkpt lat="42.59677232243120670318603515625" lon="19.94496750645339488983154296875">
        <ele>956.4000244140625</ele>
        <time>2026-06-15T16:02:25.000Z</time>
        <extensions>
          <ns3:TrackPointExtension>
            <ns3:atemp>24.0</ns3:atemp>
          </ns3:TrackPointExtension>
        </extensions>
      </trkpt>
      <trkpt lat="42.59678506292402744293212890625" lon="19.94491763412952423095703125">
        <ele>956.79998779296875</ele>
        <time>2026-06-15T16:02:26.000Z</time>
        <extensions>
          <ns3:TrackPointExtension>
            <ns3:atemp>24.0</ns3:atemp>
          </ns3:TrackPointExtension>
        </extensions>
      </trkpt>
      <trkpt lat="42.5968005694448947906494140625" lon="19.94485720060765743255615234375">
        <ele>957</ele>
        <time>2026-06-15T16:02:27.000Z</time>
        <extensions>
          <ns3:TrackPointExtension>
            <ns3:atemp>24.0</ns3:atemp>
          </ns3:TrackPointExtension>
        </extensions>
      </trkpt>
      <trkpt lat="42.59681791998445987701416015625" lon="19.94480154477059841156005859375">
        <ele>957.4000244140625</ele>
        <time>2026-06-15T16:02:28.000Z</time>
        <extensions>
          <ns3:TrackPointExtension>
            <ns3:atemp>24.0</ns3:atemp>
          </ns3:TrackPointExtension>
        </extensions>
      </trkpt>
      <trkpt lat="42.59683367796242237091064453125" lon="19.944747984409332275390625">
        <ele>957.79998779296875</ele>
        <time>2026-06-15T16:02:29.000Z</time>
        <extensions>
          <ns3:TrackPointExtension>
            <ns3:atemp>24.0</ns3:atemp>
          </ns3:TrackPointExtension>
        </extensions>
      </trkpt>
      <trkpt lat="42.59684323333203792572021484375" lon="19.94469710625708103179931640625">
        <ele>958.20001220703125</ele>
        <time>2026-06-15T16:02:30.000Z</time>
        <extensions>
          <ns3:TrackPointExtension>
            <ns3:atemp>24.0</ns3:atemp>
          </ns3:TrackPointExtension>
        </extensions>
      </trkpt>
      <trkpt lat="42.596855051815509796142578125" lon="19.9446512572467327117919921875">
        <ele>958.79998779296875</ele>
        <time>2026-06-15T16:02:31.000Z</time>
        <extensions>
          <ns3:TrackPointExtension>
            <ns3:atemp>24.0</ns3:atemp>
          </ns3:TrackPointExtension>
        </extensions>
      </trkpt>
      <trkpt lat="42.5968652777373790740966796875" lon="19.9446113593876361846923828125">
        <ele>959.20001220703125</ele>
        <time>2026-06-15T16:02:32.000Z</time>
        <extensions>
          <ns3:TrackPointExtension>
            <ns3:atemp>24.0</ns3:atemp>
          </ns3:TrackPointExtension>
        </extensions>
      </trkpt>
      <trkpt lat="42.5968763418495655059814453125" lon="19.94457305409014225006103515625">
        <ele>959.4000244140625</ele>
        <time>2026-06-15T16:02:33.000Z</time>
        <extensions>
          <ns3:TrackPointExtension>
            <ns3:atemp>24.0</ns3:atemp>
          </ns3:TrackPointExtension>
        </extensions>
      </trkpt>
      <trkpt lat="42.5968900881707668304443359375" lon="19.9445369280874729156494140625">
        <ele>959.79998779296875</ele>
        <time>2026-06-15T16:02:34.000Z</time>
        <extensions>
          <ns3:TrackPointExtension>
            <ns3:atemp>24.0</ns3:atemp>
          </ns3:TrackPointExtension>
        </extensions>
      </trkpt>
      <trkpt lat="42.5969021581113338470458984375" lon="19.944495856761932373046875">
        <ele>960</ele>
        <time>2026-06-15T16:02:35.000Z</time>
        <extensions>
          <ns3:TrackPointExtension>
            <ns3:atemp>24.0</ns3:atemp>
          </ns3:TrackPointExtension>
        </extensions>
      </trkpt>
      <trkpt lat="42.59691732935607433319091796875" lon="19.94445553980767726898193359375">
        <ele>960.4000244140625</ele>
        <time>2026-06-15T16:02:36.000Z</time>
        <extensions>
          <ns3:TrackPointExtension>
            <ns3:atemp>24.0</ns3:atemp>
          </ns3:TrackPointExtension>
        </extensions>
      </trkpt>
      <trkpt lat="42.5969229452311992645263671875" lon="19.94441069662570953369140625">
        <ele>960.5999755859375</ele>
        <time>2026-06-15T16:02:37.000Z</time>
        <extensions>
          <ns3:TrackPointExtension>
            <ns3:atemp>24.0</ns3:atemp>
          </ns3:TrackPointExtension>
        </extensions>
      </trkpt>
      <trkpt lat="42.59693183004856109619140625" lon="19.9443726427853107452392578125">
        <ele>960.79998779296875</ele>
        <time>2026-06-15T16:02:38.000Z</time>
        <extensions>
          <ns3:TrackPointExtension>
            <ns3:atemp>24.0</ns3:atemp>
          </ns3:TrackPointExtension>
        </extensions>
      </trkpt>
      <trkpt lat="42.5969444029033184051513671875" lon="19.944331236183643341064453125">
        <ele>961.20001220703125</ele>
        <time>2026-06-15T16:02:39.000Z</time>
        <extensions>
          <ns3:TrackPointExtension>
            <ns3:atemp>24.0</ns3:atemp>
          </ns3:TrackPointExtension>
        </extensions>
      </trkpt>
      <trkpt lat="42.59695370681583881378173828125" lon="19.94428957812488079071044921875">
        <ele>961.4000244140625</ele>
        <time>2026-06-15T16:02:40.000Z</time>
        <extensions>
          <ns3:TrackPointExtension>
            <ns3:atemp>24.0</ns3:atemp>
          </ns3:TrackPointExtension>
        </extensions>
      </trkpt>
      <trkpt lat="42.596957981586456298828125" lon="19.94426191784441471099853515625">
        <ele>961.79998779296875</ele>
        <time>2026-06-15T16:02:41.000Z</time>
        <extensions>
          <ns3:TrackPointExtension>
            <ns3:atemp>24.0</ns3:atemp>
          </ns3:TrackPointExtension>
        </extensions>
      </trkpt>
      <trkpt lat="42.59696460328996181488037109375" lon="19.94424280710518360137939453125">
        <ele>962</ele>
        <time>2026-06-15T16:02:42.000Z</time>
        <extensions>
          <ns3:TrackPointExtension>
            <ns3:atemp>24.0</ns3:atemp>
          </ns3:TrackPointExtension>
        </extensions>
      </trkpt>
      <trkpt lat="42.59697097353637218475341796875" lon="19.944234676659107208251953125">
        <ele>962.4000244140625</ele>
        <time>2026-06-15T16:02:43.000Z</time>
        <extensions>
          <ns3:TrackPointExtension>
            <ns3:atemp>24.0</ns3:atemp>
          </ns3:TrackPointExtension>
        </extensions>
      </trkpt>
      <trkpt lat="42.59697114117443561553955078125" lon="19.94423476047813892364501953125">
        <ele>962.79998779296875</ele>
        <time>2026-06-15T16:02:44.000Z</time>
        <extensions>
          <ns3:TrackPointExtension>
            <ns3:atemp>24.0</ns3:atemp>
          </ns3:TrackPointExtension>
        </extensions>
      </trkpt>
      <trkpt lat="42.596977092325687408447265625" lon="19.9442214332520961761474609375">
        <ele>963</ele>
        <time>2026-06-15T16:02:45.000Z</time>
        <extensions>
          <ns3:TrackPointExtension>
            <ns3:atemp>24.0</ns3:atemp>
          </ns3:TrackPointExtension>
        </extensions>
      </trkpt>
      <trkpt lat="42.59698220528662204742431640625" lon="19.9442053399980068206787109375">
        <ele>963.20001220703125</ele>
        <time>2026-06-15T16:02:46.000Z</time>
        <extensions>
          <ns3:TrackPointExtension>
            <ns3:atemp>24.0</ns3:atemp>
          </ns3:TrackPointExtension>
        </extensions>
      </trkpt>
      <trkpt lat="42.59698019362986087799072265625" lon="19.9441925995051860809326171875">
        <ele>963.20001220703125</ele>
        <time>2026-06-15T16:02:47.000Z</time>
        <extensions>
          <ns3:TrackPointExtension>
            <ns3:atemp>24.0</ns3:atemp>
          </ns3:TrackPointExtension>
        </extensions>
      </trkpt>
      <trkpt lat="42.59697650559246540069580078125" lon="19.944174997508525848388671875">
        <ele>963.4000244140625</ele>
        <time>2026-06-15T16:02:48.000Z</time>
        <extensions>
          <ns3:TrackPointExtension>
            <ns3:atemp>24.0</ns3:atemp>
          </ns3:TrackPointExtension>
        </extensions>
      </trkpt>
      <trkpt lat="42.5969729013741016387939453125" lon="19.94415245018899440765380859375">
        <ele>963.4000244140625</ele>
        <time>2026-06-15T16:02:49.000Z</time>
        <extensions>
          <ns3:TrackPointExtension>
            <ns3:atemp>24.0</ns3:atemp>
          </ns3:TrackPointExtension>
        </extensions>
      </trkpt>
      <trkpt lat="42.59696510620415210723876953125" lon="19.9441345967352390289306640625">
        <ele>963.4000244140625</ele>
        <time>2026-06-15T16:02:50.000Z</time>
        <extensions>
          <ns3:TrackPointExtension>
            <ns3:atemp>24.0</ns3:atemp>
          </ns3:TrackPointExtension>
        </extensions>
      </trkpt>
      <trkpt lat="42.59695756249129772186279296875" lon="19.9441265501081943511962890625">
        <ele>963.4000244140625</ele>
        <time>2026-06-15T16:02:51.000Z</time>
        <extensions>
          <ns3:TrackPointExtension>
            <ns3:atemp>24.0</ns3:atemp>
          </ns3:TrackPointExtension>
        </extensions>
      </trkpt>
      <trkpt lat="42.59695756249129772186279296875" lon="19.94412378408014774322509765625">
        <ele>963.4000244140625</ele>
        <time>2026-06-15T16:02:52.000Z</time>
        <extensions>
          <ns3:TrackPointExtension>
            <ns3:atemp>24.0</ns3:atemp>
          </ns3:TrackPointExtension>
        </extensions>
      </trkpt>
      <trkpt lat="42.59695756249129772186279296875" lon="19.94412378408014774322509765625">
        <ele>963.4000244140625</ele>
        <time>2026-06-15T16:02:53.000Z</time>
        <extensions>
          <ns3:TrackPointExtension>
            <ns3:atemp>24.0</ns3:atemp>
          </ns3:TrackPointExtension>
        </extensions>
      </trkpt>
      <trkpt lat="42.59695756249129772186279296875" lon="19.94412378408014774322509765625">
        <ele>963.4000244140625</ele>
        <time>2026-06-15T16:02:54.000Z</time>
        <extensions>
          <ns3:TrackPointExtension>
            <ns3:atemp>24.0</ns3:atemp>
          </ns3:TrackPointExtension>
        </extensions>
      </trkpt>
      <trkpt lat="42.59695756249129772186279296875" lon="19.94412378408014774322509765625">
        <ele>963.4000244140625</ele>
        <time>2026-06-15T16:02:55.000Z</time>
        <extensions>
          <ns3:TrackPointExtension>
            <ns3:atemp>24.0</ns3:atemp>
          </ns3:TrackPointExtension>
        </extensions>
      </trkpt>
      <trkpt lat="42.59695756249129772186279296875" lon="19.94412378408014774322509765625">
        <ele>963.4000244140625</ele>
        <time>2026-06-15T16:02:56.000Z</time>
        <extensions>
          <ns3:TrackPointExtension>
            <ns3:atemp>24.0</ns3:atemp>
          </ns3:TrackPointExtension>
        </extensions>
      </trkpt>
      <trkpt lat="42.59695756249129772186279296875" lon="19.94412378408014774322509765625">
        <ele>963.4000244140625</ele>
        <time>2026-06-15T16:02:57.000Z</time>
        <extensions>
          <ns3:TrackPointExtension>
            <ns3:atemp>24.0</ns3:atemp>
          </ns3:TrackPointExtension>
        </extensions>
      </trkpt>
      <trkpt lat="42.59695756249129772186279296875" lon="19.94412378408014774322509765625">
        <ele>963.4000244140625</ele>
        <time>2026-06-15T16:02:58.000Z</time>
        <extensions>
          <ns3:TrackPointExtension>
            <ns3:atemp>24.0</ns3:atemp>
          </ns3:TrackPointExtension>
        </extensions>
      </trkpt>
      <trkpt lat="42.59695756249129772186279296875" lon="19.94412378408014774322509765625">
        <ele>963.4000244140625</ele>
        <time>2026-06-15T16:02:59.000Z</time>
        <extensions>
          <ns3:TrackPointExtension>
            <ns3:atemp>24.0</ns3:atemp>
          </ns3:TrackPointExtension>
        </extensions>
      </trkpt>
      <trkpt lat="42.59695823304355144500732421875" lon="19.94412462227046489715576171875">
        <ele>963.4000244140625</ele>
        <time>2026-06-15T16:03:00.000Z</time>
        <extensions>
          <ns3:TrackPointExtension>
            <ns3:atemp>24.0</ns3:atemp>
          </ns3:TrackPointExtension>
        </extensions>
      </trkpt>
      <trkpt lat="42.59695253334939479827880859375" lon="19.94411489926278591156005859375">
        <ele>963.20001220703125</ele>
        <time>2026-06-15T16:03:01.000Z</time>
        <extensions>
          <ns3:TrackPointExtension>
            <ns3:atemp>24.0</ns3:atemp>
          </ns3:TrackPointExtension>
        </extensions>
      </trkpt>
      <trkpt lat="42.59694733656942844390869140625" lon="19.9441007338464260101318359375">
        <ele>963.20001220703125</ele>
        <time>2026-06-15T16:03:02.000Z</time>
        <extensions>
          <ns3:TrackPointExtension>
            <ns3:atemp>24.0</ns3:atemp>
          </ns3:TrackPointExtension>
        </extensions>
      </trkpt>
      <trkpt lat="42.59694247506558895111083984375" lon="19.94407516904175281524658203125">
        <ele>963</ele>
        <time>2026-06-15T16:03:03.000Z</time>
        <extensions>
          <ns3:TrackPointExtension>
            <ns3:atemp>24.0</ns3:atemp>
          </ns3:TrackPointExtension>
        </extensions>
      </trkpt>
      <trkpt lat="42.59694146923720836639404296875" lon="19.944039881229400634765625">
        <ele>962.79998779296875</ele>
        <time>2026-06-15T16:03:04.000Z</time>
        <extensions>
          <ns3:TrackPointExtension>
            <ns3:atemp>24.0</ns3:atemp>
          </ns3:TrackPointExtension>
        </extensions>
      </trkpt>
      <trkpt lat="42.59694247506558895111083984375" lon="19.94400425814092159271240234375">
        <ele>962.79998779296875</ele>
        <time>2026-06-15T16:03:05.000Z</time>
        <extensions>
          <ns3:TrackPointExtension>
            <ns3:atemp>24.0</ns3:atemp>
          </ns3:TrackPointExtension>
        </extensions>
      </trkpt>
      <trkpt lat="42.59694918058812618255615234375" lon="19.9439580738544464111328125">
        <ele>962.5999755859375</ele>
        <time>2026-06-15T16:03:06.000Z</time>
        <extensions>
          <ns3:TrackPointExtension>
            <ns3:atemp>24.0</ns3:atemp>
          </ns3:TrackPointExtension>
        </extensions>
      </trkpt>
      <trkpt lat="42.5969581492245197296142578125" lon="19.94390870444476604461669921875">
        <ele>962.4000244140625</ele>
        <time>2026-06-15T16:03:07.000Z</time>
        <extensions>
          <ns3:TrackPointExtension>
            <ns3:atemp>24.0</ns3:atemp>
          </ns3:TrackPointExtension>
        </extensions>
      </trkpt>
      <trkpt lat="42.59697164408862590789794921875" lon="19.94385413825511932373046875">
        <ele>962.4000244140625</ele>
        <time>2026-06-15T16:03:08.000Z</time>
        <extensions>
          <ns3:TrackPointExtension>
            <ns3:atemp>24.0</ns3:atemp>
          </ns3:TrackPointExtension>
        </extensions>
      </trkpt>
      <trkpt lat="42.59698413312435150146484375" lon="19.94379521347582340240478515625">
        <ele>962</ele>
        <time>2026-06-15T16:03:09.000Z</time>
        <extensions>
          <ns3:TrackPointExtension>
            <ns3:atemp>24.0</ns3:atemp>
          </ns3:TrackPointExtension>
        </extensions>
      </trkpt>
      <trkpt lat="42.59700098074972629547119140625" lon="19.94372413493692874908447265625">
        <ele>961.79998779296875</ele>
        <time>2026-06-15T16:03:10.000Z</time>
        <extensions>
          <ns3:TrackPointExtension>
            <ns3:atemp>24.0</ns3:atemp>
          </ns3:TrackPointExtension>
        </extensions>
      </trkpt>
      <trkpt lat="42.5970134697854518890380859375" lon="19.9436437524855136871337890625">
        <ele>961.4000244140625</ele>
        <time>2026-06-15T16:03:11.000Z</time>
        <extensions>
          <ns3:TrackPointExtension>
            <ns3:atemp>24.0</ns3:atemp>
          </ns3:TrackPointExtension>
        </extensions>
      </trkpt>
      <trkpt lat="42.59702864103019237518310546875" lon="19.94355347938835620880126953125">
        <ele>961</ele>
        <time>2026-06-15T16:03:12.000Z</time>
        <extensions>
          <ns3:TrackPointExtension>
            <ns3:atemp>24.0</ns3:atemp>
          </ns3:TrackPointExtension>
        </extensions>
      </trkpt>
      <trkpt lat="42.59704657830297946929931640625" lon="19.9434546567499637603759765625">
        <ele>960.5999755859375</ele>
        <time>2026-06-15T16:03:13.000Z</time>
        <extensions>
          <ns3:TrackPointExtension>
            <ns3:atemp>24.0</ns3:atemp>
          </ns3:TrackPointExtension>
        </extensions>
      </trkpt>
      <trkpt lat="42.597070634365081787109375" lon="19.943356253206729888916015625">
        <ele>959.79998779296875</ele>
        <time>2026-06-15T16:03:14.000Z</time>
        <extensions>
          <ns3:TrackPointExtension>
            <ns3:atemp>24.0</ns3:atemp>
          </ns3:TrackPointExtension>
        </extensions>
      </trkpt>
      <trkpt lat="42.5970982946455478668212890625" lon="19.94325525127351284027099609375">
        <ele>959.4000244140625</ele>
        <time>2026-06-15T16:03:15.000Z</time>
        <extensions>
          <ns3:TrackPointExtension>
            <ns3:atemp>24.0</ns3:atemp>
          </ns3:TrackPointExtension>
        </extensions>
      </trkpt>
      <trkpt lat="42.597124278545379638671875" lon="19.943151064217090606689453125">
        <ele>958.79998779296875</ele>
        <time>2026-06-15T16:03:16.000Z</time>
        <extensions>
          <ns3:TrackPointExtension>
            <ns3:atemp>24.0</ns3:atemp>
          </ns3:TrackPointExtension>
        </extensions>
      </trkpt>
      <trkpt lat="42.59714950807392597198486328125" lon="19.94304955936968326568603515625">
        <ele>958.20001220703125</ele>
        <time>2026-06-15T16:03:17.000Z</time>
        <extensions>
          <ns3:TrackPointExtension>
            <ns3:atemp>24.0</ns3:atemp>
          </ns3:TrackPointExtension>
        </extensions>
      </trkpt>
      <trkpt lat="42.597169540822505950927734375" lon="19.94294629432260990142822265625">
        <ele>957.79998779296875</ele>
        <time>2026-06-15T16:03:18.000Z</time>
        <extensions>
          <ns3:TrackPointExtension>
            <ns3:atemp>24.0</ns3:atemp>
          </ns3:TrackPointExtension>
        </extensions>
      </trkpt>
      <trkpt lat="42.5971901603043079376220703125" lon="19.94284101761877536773681640625">
        <ele>957.20001220703125</ele>
        <time>2026-06-15T16:03:19.000Z</time>
        <extensions>
          <ns3:TrackPointExtension>
            <ns3:atemp>24.0</ns3:atemp>
          </ns3:TrackPointExtension>
        </extensions>
      </trkpt>
      <trkpt lat="42.5972114503383636474609375" lon="19.94274781085550785064697265625">
        <ele>956.79998779296875</ele>
        <time>2026-06-15T16:03:20.000Z</time>
        <extensions>
          <ns3:TrackPointExtension>
            <ns3:atemp>24.0</ns3:atemp>
          </ns3:TrackPointExtension>
        </extensions>
      </trkpt>
      <trkpt lat="42.597225867211818695068359375" lon="19.9426664225757122039794921875">
        <ele>956.4000244140625</ele>
        <time>2026-06-15T16:03:21.000Z</time>
        <extensions>
          <ns3:TrackPointExtension>
            <ns3:atemp>24.0</ns3:atemp>
          </ns3:TrackPointExtension>
        </extensions>
      </trkpt>
      <trkpt lat="42.5972404517233371734619140625" lon="19.9425879679620265960693359375">
        <ele>956.20001220703125</ele>
        <time>2026-06-15T16:03:22.000Z</time>
        <extensions>
          <ns3:TrackPointExtension>
            <ns3:atemp>24.0</ns3:atemp>
          </ns3:TrackPointExtension>
        </extensions>
      </trkpt>
      <trkpt lat="42.5972578860819339752197265625" lon="19.94250607676804065704345703125">
        <ele>956.20001220703125</ele>
        <time>2026-06-15T16:03:23.000Z</time>
        <extensions>
          <ns3:TrackPointExtension>
            <ns3:atemp>24.0</ns3:atemp>
          </ns3:TrackPointExtension>
        </extensions>
      </trkpt>
      <trkpt lat="42.597277164459228515625" lon="19.94243013672530651092529296875">
        <ele>956.20001220703125</ele>
        <time>2026-06-15T16:03:24.000Z</time>
        <extensions>
          <ns3:TrackPointExtension>
            <ns3:atemp>24.0</ns3:atemp>
          </ns3:TrackPointExtension>
        </extensions>
      </trkpt>
      <trkpt lat="42.5972972810268402099609375" lon="19.94235587306320667266845703125">
        <ele>956</ele>
        <time>2026-06-15T16:03:25.000Z</time>
        <extensions>
          <ns3:TrackPointExtension>
            <ns3:atemp>24.0</ns3:atemp>
          </ns3:TrackPointExtension>
        </extensions>
      </trkpt>
      <trkpt lat="42.597313039004802703857421875" lon="19.94228211231529712677001953125">
        <ele>956</ele>
        <time>2026-06-15T16:03:26.000Z</time>
        <extensions>
          <ns3:TrackPointExtension>
            <ns3:atemp>24.0</ns3:atemp>
          </ns3:TrackPointExtension>
        </extensions>
      </trkpt>
      <trkpt lat="42.59732033126056194305419921875" lon="19.94221623055636882781982421875">
        <ele>956</ele>
        <time>2026-06-15T16:03:27.000Z</time>
        <extensions>
          <ns3:TrackPointExtension>
            <ns3:atemp>24.0</ns3:atemp>
          </ns3:TrackPointExtension>
        </extensions>
      </trkpt>
      <trkpt lat="42.5973249413073062896728515625" lon="19.942146241664886474609375">
        <ele>956</ele>
        <time>2026-06-15T16:03:28.000Z</time>
        <extensions>
          <ns3:TrackPointExtension>
            <ns3:atemp>24.0</ns3:atemp>
          </ns3:TrackPointExtension>
        </extensions>
      </trkpt>
      <trkpt lat="42.59732703678309917449951171875" lon="19.9420840479433536529541015625">
        <ele>956</ele>
        <time>2026-06-15T16:03:29.000Z</time>
        <extensions>
          <ns3:TrackPointExtension>
            <ns3:atemp>24.0</ns3:atemp>
          </ns3:TrackPointExtension>
        </extensions>
      </trkpt>
      <trkpt lat="42.597336508333683013916015625" lon="19.94202562607824802398681640625">
        <ele>956</ele>
        <time>2026-06-15T16:03:30.000Z</time>
        <extensions>
          <ns3:TrackPointExtension>
            <ns3:atemp>24.0</ns3:atemp>
          </ns3:TrackPointExtension>
        </extensions>
      </trkpt>
      <trkpt lat="42.5973510928452014923095703125" lon="19.94196980260312557220458984375">
        <ele>956</ele>
        <time>2026-06-15T16:03:31.000Z</time>
        <extensions>
          <ns3:TrackPointExtension>
            <ns3:atemp>24.0</ns3:atemp>
          </ns3:TrackPointExtension>
        </extensions>
      </trkpt>
      <trkpt lat="42.597363330423831939697265625" lon="19.94192722253501415252685546875">
        <ele>956</ele>
        <time>2026-06-15T16:03:32.000Z</time>
        <extensions>
          <ns3:TrackPointExtension>
            <ns3:atemp>24.0</ns3:atemp>
          </ns3:TrackPointExtension>
        </extensions>
      </trkpt>
      <trkpt lat="42.59737280197441577911376953125" lon="19.9418848939239978790283203125">
        <ele>956</ele>
        <time>2026-06-15T16:03:33.000Z</time>
        <extensions>
          <ns3:TrackPointExtension>
            <ns3:atemp>24.0</ns3:atemp>
          </ns3:TrackPointExtension>
        </extensions>
      </trkpt>
      <trkpt lat="42.59738420136272907257080078125" lon="19.94183317758142948150634765625">
        <ele>955.79998779296875</ele>
        <time>2026-06-15T16:03:34.000Z</time>
        <extensions>
          <ns3:TrackPointExtension>
            <ns3:atemp>24.0</ns3:atemp>
          </ns3:TrackPointExtension>
        </extensions>
      </trkpt>
      <trkpt lat="42.59739409200847148895263671875" lon="19.94179596193134784698486328125">
        <ele>955.79998779296875</ele>
        <time>2026-06-15T16:03:35.000Z</time>
        <extensions>
          <ns3:TrackPointExtension>
            <ns3:atemp>24.0</ns3:atemp>
          </ns3:TrackPointExtension>
        </extensions>
      </trkpt>
      <trkpt lat="42.59740389883518218994140625" lon="19.94176293723285198211669921875">
        <ele>955.79998779296875</ele>
        <time>2026-06-15T16:03:36.000Z</time>
        <extensions>
          <ns3:TrackPointExtension>
            <ns3:atemp>24.0</ns3:atemp>
          </ns3:TrackPointExtension>
        </extensions>
      </trkpt>
      <trkpt lat="42.59741420857608318328857421875" lon="19.94172689504921436309814453125">
        <ele>955.79998779296875</ele>
        <time>2026-06-15T16:03:37.000Z</time>
        <extensions>
          <ns3:TrackPointExtension>
            <ns3:atemp>24.0</ns3:atemp>
          </ns3:TrackPointExtension>
        </extensions>
      </trkpt>
      <trkpt lat="42.59742376394569873809814453125" lon="19.94168280623853206634521484375">
        <ele>955.5999755859375</ele>
        <time>2026-06-15T16:03:38.000Z</time>
        <extensions>
          <ns3:TrackPointExtension>
            <ns3:atemp>24.0</ns3:atemp>
          </ns3:TrackPointExtension>
        </extensions>
      </trkpt>
      <trkpt lat="42.59743650443851947784423828125" lon="19.941624887287616729736328125">
        <ele>955.5999755859375</ele>
        <time>2026-06-15T16:03:39.000Z</time>
        <extensions>
          <ns3:TrackPointExtension>
            <ns3:atemp>24.0</ns3:atemp>
          </ns3:TrackPointExtension>
        </extensions>
      </trkpt>
      <trkpt lat="42.59745192714035511016845703125" lon="19.9415600113570690155029296875">
        <ele>955.4000244140625</ele>
        <time>2026-06-15T16:03:40.000Z</time>
        <extensions>
          <ns3:TrackPointExtension>
            <ns3:atemp>24.0</ns3:atemp>
          </ns3:TrackPointExtension>
        </extensions>
      </trkpt>
      <trkpt lat="42.5974670983850955963134765625" lon="19.94148583151400089263916015625">
        <ele>955.20001220703125</ele>
        <time>2026-06-15T16:03:41.000Z</time>
        <extensions>
          <ns3:TrackPointExtension>
            <ns3:atemp>24.0</ns3:atemp>
          </ns3:TrackPointExtension>
        </extensions>
      </trkpt>
      <trkpt lat="42.5974825210869312286376953125" lon="19.9414067901670932769775390625">
        <ele>955</ele>
        <time>2026-06-15T16:03:42.000Z</time>
        <extensions>
          <ns3:TrackPointExtension>
            <ns3:atemp>24.0</ns3:atemp>
          </ns3:TrackPointExtension>
        </extensions>
      </trkpt>
      <trkpt lat="42.5974986143410205841064453125" lon="19.94132724590599536895751953125">
        <ele>954.79998779296875</ele>
        <time>2026-06-15T16:03:43.000Z</time>
        <extensions>
          <ns3:TrackPointExtension>
            <ns3:atemp>24.0</ns3:atemp>
          </ns3:TrackPointExtension>
        </extensions>
      </trkpt>
      <trkpt lat="42.59751428849995136260986328125" lon="19.941247366368770599365234375">
        <ele>954.4000244140625</ele>
        <time>2026-06-15T16:03:44.000Z</time>
        <extensions>
          <ns3:TrackPointExtension>
            <ns3:atemp>24.0</ns3:atemp>
          </ns3:TrackPointExtension>
        </extensions>
      </trkpt>
      <trkpt lat="42.597529627382755279541015625" lon="19.9411660619080066680908203125">
        <ele>954.20001220703125</ele>
        <time>2026-06-15T16:03:45.000Z</time>
        <extensions>
          <ns3:TrackPointExtension>
            <ns3:atemp>24.0</ns3:atemp>
          </ns3:TrackPointExtension>
        </extensions>
      </trkpt>
      <trkpt lat="42.59754261933267116546630859375" lon="19.94108433835208415985107421875">
        <ele>954</ele>
        <time>2026-06-15T16:03:46.000Z</time>
        <extensions>
          <ns3:TrackPointExtension>
            <ns3:atemp>24.0</ns3:atemp>
          </ns3:TrackPointExtension>
        </extensions>
      </trkpt>
      <trkpt lat="42.597555108368396759033203125" lon="19.94100035168230533599853515625">
        <ele>953.79998779296875</ele>
        <time>2026-06-15T16:03:47.000Z</time>
        <extensions>
          <ns3:TrackPointExtension>
            <ns3:atemp>24.0</ns3:atemp>
          </ns3:TrackPointExtension>
        </extensions>
      </trkpt>
      <trkpt lat="42.59756726212799549102783203125" lon="19.94091955013573169708251953125">
        <ele>953.5999755859375</ele>
        <time>2026-06-15T16:03:48.000Z</time>
        <extensions>
          <ns3:TrackPointExtension>
            <ns3:atemp>24.0</ns3:atemp>
          </ns3:TrackPointExtension>
        </extensions>
      </trkpt>
      <trkpt lat="42.5975854508578777313232421875" lon="19.94083958677947521209716796875">
        <ele>953.4000244140625</ele>
        <time>2026-06-15T16:03:49.000Z</time>
        <extensions>
          <ns3:TrackPointExtension>
            <ns3:atemp>24.0</ns3:atemp>
          </ns3:TrackPointExtension>
        </extensions>
      </trkpt>
      <trkpt lat="42.59760447777807712554931640625" lon="19.9407764710485935211181640625">
        <ele>953.4000244140625</ele>
        <time>2026-06-15T16:03:50.000Z</time>
        <extensions>
          <ns3:TrackPointExtension>
            <ns3:atemp>24.0</ns3:atemp>
          </ns3:TrackPointExtension>
        </extensions>
      </trkpt>
      <trkpt lat="42.5976226665079593658447265625" lon="19.94072827510535717010498046875">
        <ele>953.20001220703125</ele>
        <time>2026-06-15T16:03:51.000Z</time>
        <extensions>
          <ns3:TrackPointExtension>
            <ns3:atemp>24.0</ns3:atemp>
          </ns3:TrackPointExtension>
        </extensions>
      </trkpt>
      <trkpt lat="42.59763767011463642120361328125" lon="19.94069508276879787445068359375">
        <ele>953.20001220703125</ele>
        <time>2026-06-15T16:03:52.000Z</time>
        <extensions>
          <ns3:TrackPointExtension>
            <ns3:atemp>24.0</ns3:atemp>
          </ns3:TrackPointExtension>
        </extensions>
      </trkpt>
      <trkpt lat="42.59765342809259891510009765625" lon="19.9406711943447589874267578125">
        <ele>953</ele>
        <time>2026-06-15T16:03:53.000Z</time>
        <extensions>
          <ns3:TrackPointExtension>
            <ns3:atemp>24.0</ns3:atemp>
          </ns3:TrackPointExtension>
        </extensions>
      </trkpt>
      <trkpt lat="42.59767170064151287078857421875" lon="19.94064328260719776153564453125">
        <ele>953</ele>
        <time>2026-06-15T16:03:54.000Z</time>
        <extensions>
          <ns3:TrackPointExtension>
            <ns3:atemp>24.0</ns3:atemp>
          </ns3:TrackPointExtension>
        </extensions>
      </trkpt>
      <trkpt lat="42.597689218819141387939453125" lon="19.94061713106930255889892578125">
        <ele>953</ele>
        <time>2026-06-15T16:03:55.000Z</time>
        <extensions>
          <ns3:TrackPointExtension>
            <ns3:atemp>24.0</ns3:atemp>
          </ns3:TrackPointExtension>
        </extensions>
      </trkpt>
      <trkpt lat="42.59770472534000873565673828125" lon="19.94058360345661640167236328125">
        <ele>953</ele>
        <time>2026-06-15T16:03:56.000Z</time>
        <extensions>
          <ns3:TrackPointExtension>
            <ns3:atemp>24.0</ns3:atemp>
          </ns3:TrackPointExtension>
        </extensions>
      </trkpt>
      <trkpt lat="42.5977252610027790069580078125" lon="19.9405427835881710052490234375">
        <ele>953</ele>
        <time>2026-06-15T16:03:57.000Z</time>
        <extensions>
          <ns3:TrackPointExtension>
            <ns3:atemp>24.0</ns3:atemp>
          </ns3:TrackPointExtension>
        </extensions>
      </trkpt>
      <trkpt lat="42.59774764068424701690673828125" lon="19.9404961802065372467041015625">
        <ele>953</ele>
        <time>2026-06-15T16:03:58.000Z</time>
        <extensions>
          <ns3:TrackPointExtension>
            <ns3:atemp>24.0</ns3:atemp>
          </ns3:TrackPointExtension>
        </extensions>
      </trkpt>
      <trkpt lat="42.59777496568858623504638671875" lon="19.94044236838817596435546875">
        <ele>952.79998779296875</ele>
        <time>2026-06-15T16:03:59.000Z</time>
        <extensions>
          <ns3:TrackPointExtension>
            <ns3:atemp>24.0</ns3:atemp>
          </ns3:TrackPointExtension>
        </extensions>
      </trkpt>
      <trkpt lat="42.59780312888324260711669921875" lon="19.94038713164627552032470703125">
        <ele>952.5999755859375</ele>
        <time>2026-06-15T16:04:00.000Z</time>
        <extensions>
          <ns3:TrackPointExtension>
            <ns3:atemp>24.0</ns3:atemp>
          </ns3:TrackPointExtension>
        </extensions>
      </trkpt>
      <trkpt lat="42.59783229790627956390380859375" lon="19.9403282068669795989990234375">
        <ele>952.5999755859375</ele>
        <time>2026-06-15T16:04:01.000Z</time>
        <extensions>
          <ns3:TrackPointExtension>
            <ns3:atemp>24.0</ns3:atemp>
          </ns3:TrackPointExtension>
        </extensions>
      </trkpt>
      <trkpt lat="42.59786062873899936676025390625" lon="19.94027062319219112396240234375">
        <ele>952.5999755859375</ele>
        <time>2026-06-15T16:04:02.000Z</time>
        <extensions>
          <ns3:TrackPointExtension>
            <ns3:atemp>24.0</ns3:atemp>
          </ns3:TrackPointExtension>
        </extensions>
      </trkpt>
      <trkpt lat="42.59789113886654376983642578125" lon="19.94021161459386348724365234375">
        <ele>952.4000244140625</ele>
        <time>2026-06-15T16:04:03.000Z</time>
        <extensions>
          <ns3:TrackPointExtension>
            <ns3:atemp>24.0</ns3:atemp>
          </ns3:TrackPointExtension>
        </extensions>
      </trkpt>
      <trkpt lat="42.5979227386415004730224609375" lon="19.9401488341391086578369140625">
        <ele>952.5999755859375</ele>
        <time>2026-06-15T16:04:04.000Z</time>
        <extensions>
          <ns3:TrackPointExtension>
            <ns3:atemp>24.0</ns3:atemp>
          </ns3:TrackPointExtension>
        </extensions>
      </trkpt>
      <trkpt lat="42.597955763339996337890625" lon="19.940079934895038604736328125">
        <ele>952.5999755859375</ele>
        <time>2026-06-15T16:04:05.000Z</time>
        <extensions>
          <ns3:TrackPointExtension>
            <ns3:atemp>24.0</ns3:atemp>
          </ns3:TrackPointExtension>
        </extensions>
      </trkpt>
      <trkpt lat="42.5979901291429996490478515625" lon="19.94000944308936595916748046875">
        <ele>952.5999755859375</ele>
        <time>2026-06-15T16:04:06.000Z</time>
        <extensions>
          <ns3:TrackPointExtension>
            <ns3:atemp>24.0</ns3:atemp>
          </ns3:TrackPointExtension>
        </extensions>
      </trkpt>
      <trkpt lat="42.5980233214795589447021484375" lon="19.939940460026264190673828125">
        <ele>952.5999755859375</ele>
        <time>2026-06-15T16:04:07.000Z</time>
        <extensions>
          <ns3:TrackPointExtension>
            <ns3:atemp>24.0</ns3:atemp>
          </ns3:TrackPointExtension>
        </extensions>
      </trkpt>
      <trkpt lat="42.59805676527321338653564453125" lon="19.939872063696384429931640625">
        <ele>952.5999755859375</ele>
        <time>2026-06-15T16:04:08.000Z</time>
        <extensions>
          <ns3:TrackPointExtension>
            <ns3:atemp>24.0</ns3:atemp>
          </ns3:TrackPointExtension>
        </extensions>
      </trkpt>
      <trkpt lat="42.598089538514614105224609375" lon="19.93980291299521923065185546875">
        <ele>952.5999755859375</ele>
        <time>2026-06-15T16:04:09.000Z</time>
        <extensions>
          <ns3:TrackPointExtension>
            <ns3:atemp>24.0</ns3:atemp>
          </ns3:TrackPointExtension>
        </extensions>
      </trkpt>
      <trkpt lat="42.5981218926608562469482421875" lon="19.939738623797893524169921875">
        <ele>952.5999755859375</ele>
        <time>2026-06-15T16:04:10.000Z</time>
        <extensions>
          <ns3:TrackPointExtension>
            <ns3:atemp>24.0</ns3:atemp>
          </ns3:TrackPointExtension>
        </extensions>
      </trkpt>
      <trkpt lat="42.5981537438929080963134765625" lon="19.939675591886043548583984375">
        <ele>952.4000244140625</ele>
        <time>2026-06-15T16:04:11.000Z</time>
        <extensions>
          <ns3:TrackPointExtension>
            <ns3:atemp>24.0</ns3:atemp>
          </ns3:TrackPointExtension>
        </extensions>
      </trkpt>
      <trkpt lat="42.5981855951249599456787109375" lon="19.939617924392223358154296875">
        <ele>952.4000244140625</ele>
        <time>2026-06-15T16:04:12.000Z</time>
        <extensions>
          <ns3:TrackPointExtension>
            <ns3:atemp>24.0</ns3:atemp>
          </ns3:TrackPointExtension>
        </extensions>
      </trkpt>
      <trkpt lat="42.59821367450058460235595703125" lon="19.939563274383544921875">
        <ele>952.4000244140625</ele>
        <time>2026-06-15T16:04:13.000Z</time>
        <extensions>
          <ns3:TrackPointExtension>
            <ns3:atemp>24.0</ns3:atemp>
          </ns3:TrackPointExtension>
        </extensions>
      </trkpt>
      <trkpt lat="42.5982414186000823974609375" lon="19.9395154975354671478271484375">
        <ele>952.4000244140625</ele>
        <time>2026-06-15T16:04:14.000Z</time>
        <extensions>
          <ns3:TrackPointExtension>
            <ns3:atemp>24.0</ns3:atemp>
          </ns3:TrackPointExtension>
        </extensions>
      </trkpt>
      <trkpt lat="42.598267234861850738525390625" lon="19.93946746923029422760009765625">
        <ele>952.4000244140625</ele>
        <time>2026-06-15T16:04:15.000Z</time>
        <extensions>
          <ns3:TrackPointExtension>
            <ns3:atemp>24.0</ns3:atemp>
          </ns3:TrackPointExtension>
        </extensions>
      </trkpt>
      <trkpt lat="42.5982891954481601715087890625" lon="19.9394172616302967071533203125">
        <ele>952.4000244140625</ele>
        <time>2026-06-15T16:04:16.000Z</time>
        <extensions>
          <ns3:TrackPointExtension>
            <ns3:atemp>24.0</ns3:atemp>
          </ns3:TrackPointExtension>
        </extensions>
      </trkpt>
      <trkpt lat="42.59831073693931102752685546875" lon="19.93937082588672637939453125">
        <ele>952.4000244140625</ele>
        <time>2026-06-15T16:04:17.000Z</time>
        <extensions>
          <ns3:TrackPointExtension>
            <ns3:atemp>24.0</ns3:atemp>
          </ns3:TrackPointExtension>
        </extensions>
      </trkpt>
      <trkpt lat="42.5983290933072566986083984375" lon="19.939335286617279052734375">
        <ele>952.5999755859375</ele>
        <time>2026-06-15T16:04:18.000Z</time>
        <extensions>
          <ns3:TrackPointExtension>
            <ns3:atemp>24.0</ns3:atemp>
          </ns3:TrackPointExtension>
        </extensions>
      </trkpt>
      <trkpt lat="42.5983441807329654693603515625" lon="19.93930988945066928863525390625">
        <ele>952.79998779296875</ele>
        <time>2026-06-15T16:04:19.000Z</time>
        <extensions>
          <ns3:TrackPointExtension>
            <ns3:atemp>24.0</ns3:atemp>
          </ns3:TrackPointExtension>
        </extensions>
      </trkpt>
      <trkpt lat="42.598355077207088470458984375" lon="19.93928792886435985565185546875">
        <ele>952.79998779296875</ele>
        <time>2026-06-15T16:04:20.000Z</time>
        <extensions>
          <ns3:TrackPointExtension>
            <ns3:atemp>24.0</ns3:atemp>
          </ns3:TrackPointExtension>
        </extensions>
      </trkpt>
      <trkpt lat="42.5983676500618457794189453125" lon="19.93926244787871837615966796875">
        <ele>953</ele>
        <time>2026-06-15T16:04:21.000Z</time>
        <extensions>
          <ns3:TrackPointExtension>
            <ns3:atemp>24.0</ns3:atemp>
          </ns3:TrackPointExtension>
        </extensions>
      </trkpt>
      <trkpt lat="42.59837980382144451141357421875" lon="19.93923177011311054229736328125">
        <ele>953.20001220703125</ele>
        <time>2026-06-15T16:04:22.000Z</time>
        <extensions>
          <ns3:TrackPointExtension>
            <ns3:atemp>24.0</ns3:atemp>
          </ns3:TrackPointExtension>
        </extensions>
      </trkpt>
      <trkpt lat="42.59839497506618499755859375" lon="19.93919841013848781585693359375">
        <ele>953.20001220703125</ele>
        <time>2026-06-15T16:04:23.000Z</time>
        <extensions>
          <ns3:TrackPointExtension>
            <ns3:atemp>24.0</ns3:atemp>
          </ns3:TrackPointExtension>
        </extensions>
      </trkpt>
      <trkpt lat="42.59841249324381351470947265625" lon="19.9391607753932476043701171875">
        <ele>953.20001220703125</ele>
        <time>2026-06-15T16:04:24.000Z</time>
        <extensions>
          <ns3:TrackPointExtension>
            <ns3:atemp>24.0</ns3:atemp>
          </ns3:TrackPointExtension>
        </extensions>
      </trkpt>
      <trkpt lat="42.59843244217336177825927734375" lon="19.93912179954349994659423828125">
        <ele>953.20001220703125</ele>
        <time>2026-06-15T16:04:25.000Z</time>
        <extensions>
          <ns3:TrackPointExtension>
            <ns3:atemp>24.0</ns3:atemp>
          </ns3:TrackPointExtension>
        </extensions>
      </trkpt>
      <trkpt lat="42.598454989492893218994140625" lon="19.9390764534473419189453125">
        <ele>953.20001220703125</ele>
        <time>2026-06-15T16:04:26.000Z</time>
        <extensions>
          <ns3:TrackPointExtension>
            <ns3:atemp>24.0</ns3:atemp>
          </ns3:TrackPointExtension>
        </extensions>
      </trkpt>
      <trkpt lat="42.59847653098404407501220703125" lon="19.939028508961200714111328125">
        <ele>953.20001220703125</ele>
        <time>2026-06-15T16:04:27.000Z</time>
        <extensions>
          <ns3:TrackPointExtension>
            <ns3:atemp>24.0</ns3:atemp>
          </ns3:TrackPointExtension>
        </extensions>
      </trkpt>
      <trkpt lat="42.59850033558905124664306640625" lon="19.9389834143221378326416015625">
        <ele>953</ele>
        <time>2026-06-15T16:04:28.000Z</time>
        <extensions>
          <ns3:TrackPointExtension>
            <ns3:atemp>24.0</ns3:atemp>
          </ns3:TrackPointExtension>
        </extensions>
      </trkpt>
      <trkpt lat="42.5985259003937244415283203125" lon="19.9389368109405040740966796875">
        <ele>953</ele>
        <time>2026-06-15T16:04:29.000Z</time>
        <extensions>
          <ns3:TrackPointExtension>
            <ns3:atemp>24.0</ns3:atemp>
          </ns3:TrackPointExtension>
        </extensions>
      </trkpt>
      <trkpt lat="42.5985520519316196441650390625" lon="19.9388898722827434539794921875">
        <ele>953</ele>
        <time>2026-06-15T16:04:30.000Z</time>
        <extensions>
          <ns3:TrackPointExtension>
            <ns3:atemp>24.0</ns3:atemp>
          </ns3:TrackPointExtension>
        </extensions>
      </trkpt>
      <trkpt lat="42.5985782034695148468017578125" lon="19.9388385750353336334228515625">
        <ele>953</ele>
        <time>2026-06-15T16:04:31.000Z</time>
        <extensions>
          <ns3:TrackPointExtension>
            <ns3:atemp>24.0</ns3:atemp>
          </ns3:TrackPointExtension>
        </extensions>
      </trkpt>
      <trkpt lat="42.59860477410256862640380859375" lon="19.93878752924501895904541015625">
        <ele>953</ele>
        <time>2026-06-15T16:04:32.000Z</time>
        <extensions>
          <ns3:TrackPointExtension>
            <ns3:atemp>24.0</ns3:atemp>
          </ns3:TrackPointExtension>
        </extensions>
      </trkpt>
      <trkpt lat="42.5986321829259395599365234375" lon="19.938733465969562530517578125">
        <ele>953.20001220703125</ele>
        <time>2026-06-15T16:04:33.000Z</time>
        <extensions>
          <ns3:TrackPointExtension>
            <ns3:atemp>24.0</ns3:atemp>
          </ns3:TrackPointExtension>
        </extensions>
      </trkpt>
      <trkpt lat="42.59866059757769107818603515625" lon="19.93868283927440643310546875">
        <ele>953.20001220703125</ele>
        <time>2026-06-15T16:04:34.000Z</time>
        <extensions>
          <ns3:TrackPointExtension>
            <ns3:atemp>24.0</ns3:atemp>
          </ns3:TrackPointExtension>
        </extensions>
      </trkpt>
      <trkpt lat="42.59868599474430084228515625" lon="19.93863129056990146636962890625">
        <ele>953.20001220703125</ele>
        <time>2026-06-15T16:04:35.000Z</time>
        <extensions>
          <ns3:TrackPointExtension>
            <ns3:atemp>24.0</ns3:atemp>
          </ns3:TrackPointExtension>
        </extensions>
      </trkpt>
      <trkpt lat="42.59871306829154491424560546875" lon="19.938578568398952484130859375">
        <ele>953</ele>
        <time>2026-06-15T16:04:36.000Z</time>
        <extensions>
          <ns3:TrackPointExtension>
            <ns3:atemp>24.0</ns3:atemp>
          </ns3:TrackPointExtension>
        </extensions>
      </trkpt>
      <trkpt lat="42.598741315305233001708984375" lon="19.93852618150413036346435546875">
        <ele>953</ele>
        <time>2026-06-15T16:04:37.000Z</time>
        <extensions>
          <ns3:TrackPointExtension>
            <ns3:atemp>24.0</ns3:atemp>
          </ns3:TrackPointExtension>
        </extensions>
      </trkpt>
      <trkpt lat="42.59876972995698451995849609375" lon="19.93847228586673736572265625">
        <ele>952.79998779296875</ele>
        <time>2026-06-15T16:04:38.000Z</time>
        <extensions>
          <ns3:TrackPointExtension>
            <ns3:atemp>24.0</ns3:atemp>
          </ns3:TrackPointExtension>
        </extensions>
      </trkpt>
      <trkpt lat="42.59879755787551403045654296875" lon="19.9384127743542194366455078125">
        <ele>952.79998779296875</ele>
        <time>2026-06-15T16:04:39.000Z</time>
        <extensions>
          <ns3:TrackPointExtension>
            <ns3:atemp>24.0</ns3:atemp>
          </ns3:TrackPointExtension>
        </extensions>
      </trkpt>
      <trkpt lat="42.59882949292659759521484375" lon="19.93834613822400569915771484375">
        <ele>952.4000244140625</ele>
        <time>2026-06-15T16:04:40.000Z</time>
        <extensions>
          <ns3:TrackPointExtension>
            <ns3:atemp>24.0</ns3:atemp>
          </ns3:TrackPointExtension>
        </extensions>
      </trkpt>
      <trkpt lat="42.5988655351102352142333984375" lon="19.93827690370380878448486328125">
        <ele>952.20001220703125</ele>
        <time>2026-06-15T16:04:41.000Z</time>
        <extensions>
          <ns3:TrackPointExtension>
            <ns3:atemp>24.0</ns3:atemp>
          </ns3:TrackPointExtension>
        </extensions>
      </trkpt>
      <trkpt lat="42.59890258312225341796875" lon="19.9382042326033115386962890625">
        <ele>952</ele>
        <time>2026-06-15T16:04:42.000Z</time>
        <extensions>
          <ns3:TrackPointExtension>
            <ns3:atemp>24.0</ns3:atemp>
          </ns3:TrackPointExtension>
        </extensions>
      </trkpt>
      <trkpt lat="42.59893971495330333709716796875" lon="19.93812837637960910797119140625">
        <ele>951.79998779296875</ele>
        <time>2026-06-15T16:04:43.000Z</time>
        <extensions>
          <ns3:TrackPointExtension>
            <ns3:atemp>24.0</ns3:atemp>
          </ns3:TrackPointExtension>
        </extensions>
      </trkpt>
      <trkpt lat="42.598980031907558441162109375" lon="19.9380520172417163848876953125">
        <ele>951.5999755859375</ele>
        <time>2026-06-15T16:04:44.000Z</time>
        <extensions>
          <ns3:TrackPointExtension>
            <ns3:atemp>24.0</ns3:atemp>
          </ns3:TrackPointExtension>
        </extensions>
      </trkpt>
      <trkpt lat="42.59902261197566986083984375" lon="19.9379735626280307769775390625">
        <ele>951.20001220703125</ele>
        <time>2026-06-15T16:04:45.000Z</time>
        <extensions>
          <ns3:TrackPointExtension>
            <ns3:atemp>24.0</ns3:atemp>
          </ns3:TrackPointExtension>
        </extensions>
      </trkpt>
      <trkpt lat="42.59906812570989131927490234375" lon="19.9378907494246959686279296875">
        <ele>950.79998779296875</ele>
        <time>2026-06-15T16:04:46.000Z</time>
        <extensions>
          <ns3:TrackPointExtension>
            <ns3:atemp>24.0</ns3:atemp>
          </ns3:TrackPointExtension>
        </extensions>
      </trkpt>
      <trkpt lat="42.59911288507282733917236328125" lon="19.9378062598407268524169921875">
        <ele>950.4000244140625</ele>
        <time>2026-06-15T16:04:47.000Z</time>
        <extensions>
          <ns3:TrackPointExtension>
            <ns3:atemp>24.0</ns3:atemp>
          </ns3:TrackPointExtension>
        </extensions>
      </trkpt>
      <trkpt lat="42.59915714152157306671142578125" lon="19.9377174116671085357666015625">
        <ele>950</ele>
        <time>2026-06-15T16:04:48.000Z</time>
        <extensions>
          <ns3:TrackPointExtension>
            <ns3:atemp>24.0</ns3:atemp>
          </ns3:TrackPointExtension>
        </extensions>
      </trkpt>
      <trkpt lat="42.59919963777065277099609375" lon="19.9376299045979976654052734375">
        <ele>949.4000244140625</ele>
        <time>2026-06-15T16:04:49.000Z</time>
        <extensions>
          <ns3:TrackPointExtension>
            <ns3:atemp>24.0</ns3:atemp>
          </ns3:TrackPointExtension>
        </extensions>
      </trkpt>
      <trkpt lat="42.59924414567649364471435546875" lon="19.9375400505959987640380859375">
        <ele>949</ele>
        <time>2026-06-15T16:04:50.000Z</time>
        <extensions>
          <ns3:TrackPointExtension>
            <ns3:atemp>24.0</ns3:atemp>
          </ns3:TrackPointExtension>
        </extensions>
      </trkpt>
      <trkpt lat="42.5992849655449390411376953125" lon="19.93745413608849048614501953125">
        <ele>948.4000244140625</ele>
        <time>2026-06-15T16:04:51.000Z</time>
        <extensions>
          <ns3:TrackPointExtension>
            <ns3:atemp>24.0</ns3:atemp>
          </ns3:TrackPointExtension>
        </extensions>
      </trkpt>
      <trkpt lat="42.5993295572698116302490234375" lon="19.93737199343740940093994140625">
        <ele>947.79998779296875</ele>
        <time>2026-06-15T16:04:52.000Z</time>
        <extensions>
          <ns3:TrackPointExtension>
            <ns3:atemp>24.0</ns3:atemp>
          </ns3:TrackPointExtension>
        </extensions>
      </trkpt>
      <trkpt lat="42.59937641210854053497314453125" lon="19.93728700093924999237060546875">
        <ele>947.20001220703125</ele>
        <time>2026-06-15T16:04:53.000Z</time>
        <extensions>
          <ns3:TrackPointExtension>
            <ns3:atemp>24.0</ns3:atemp>
          </ns3:TrackPointExtension>
        </extensions>
      </trkpt>
      <trkpt lat="42.59941798634827136993408203125" lon="19.93720033206045627593994140625">
        <ele>946.5999755859375</ele>
        <time>2026-06-15T16:04:54.000Z</time>
        <extensions>
          <ns3:TrackPointExtension>
            <ns3:atemp>24.0</ns3:atemp>
          </ns3:TrackPointExtension>
        </extensions>
      </trkpt>
      <trkpt lat="42.59944078512489795684814453125" lon="19.93710762821137905120849609375">
        <ele>946</ele>
        <time>2026-06-15T16:04:55.000Z</time>
        <extensions>
          <ns3:TrackPointExtension>
            <ns3:atemp>24.0</ns3:atemp>
          </ns3:TrackPointExtension>
        </extensions>
      </trkpt>
      <trkpt lat="42.5994428806006908416748046875" lon="19.937019534409046173095703125">
        <ele>945.4000244140625</ele>
        <time>2026-06-15T16:04:56.000Z</time>
        <extensions>
          <ns3:TrackPointExtension>
            <ns3:atemp>24.0</ns3:atemp>
          </ns3:TrackPointExtension>
        </extensions>
      </trkpt>
      <trkpt lat="42.599421255290508270263671875" lon="19.9369456060230731964111328125">
        <ele>945.20001220703125</ele>
        <time>2026-06-15T16:04:57.000Z</time>
        <extensions>
          <ns3:TrackPointExtension>
            <ns3:atemp>24.0</ns3:atemp>
          </ns3:TrackPointExtension>
        </extensions>
      </trkpt>
      <trkpt lat="42.5993711315095424652099609375" lon="19.9369011819362640380859375">
        <ele>945</ele>
        <time>2026-06-15T16:04:58.000Z</time>
        <extensions>
          <ns3:TrackPointExtension>
            <ns3:atemp>24.0</ns3:atemp>
          </ns3:TrackPointExtension>
        </extensions>
      </trkpt>
      <trkpt lat="42.59931497275829315185546875" lon="19.93689640425145626068115234375">
        <ele>944.79998779296875</ele>
        <time>2026-06-15T16:04:59.000Z</time>
        <extensions>
          <ns3:TrackPointExtension>
            <ns3:atemp>24.0</ns3:atemp>
          </ns3:TrackPointExtension>
        </extensions>
      </trkpt>
      <trkpt lat="42.599270045757293701171875" lon="19.93690713308751583099365234375">
        <ele>944.79998779296875</ele>
        <time>2026-06-15T16:05:00.000Z</time>
        <extensions>
          <ns3:TrackPointExtension>
            <ns3:atemp>24.0</ns3:atemp>
          </ns3:TrackPointExtension>
        </extensions>
      </trkpt>
      <trkpt lat="42.59921413846313953399658203125" lon="19.9369254894554615020751953125">
        <ele>944.5999755859375</ele>
        <time>2026-06-15T16:05:01.000Z</time>
        <extensions>
          <ns3:TrackPointExtension>
            <ns3:atemp>24.0</ns3:atemp>
          </ns3:TrackPointExtension>
        </extensions>
      </trkpt>
      <trkpt lat="42.59914892725646495819091796875" lon="19.936939738690853118896484375">
        <ele>944.5999755859375</ele>
        <time>2026-06-15T16:05:02.000Z</time>
        <extensions>
          <ns3:TrackPointExtension>
            <ns3:atemp>24.0</ns3:atemp>
          </ns3:TrackPointExtension>
        </extensions>
      </trkpt>
      <trkpt lat="42.5990824587643146514892578125" lon="19.93695423938333988189697265625">
        <ele>944.4000244140625</ele>
        <time>2026-06-15T16:05:03.000Z</time>
        <extensions>
          <ns3:TrackPointExtension>
            <ns3:atemp>24.0</ns3:atemp>
          </ns3:TrackPointExtension>
        </extensions>
      </trkpt>
      <trkpt lat="42.59901917539536952972412109375" lon="19.9369660578668117523193359375">
        <ele>944.20001220703125</ele>
        <time>2026-06-15T16:05:04.000Z</time>
        <extensions>
          <ns3:TrackPointExtension>
            <ns3:atemp>24.0</ns3:atemp>
          </ns3:TrackPointExtension>
        </extensions>
      </trkpt>
      <trkpt lat="42.598955221474170684814453125" lon="19.93697083555161952972412109375">
        <ele>944</ele>
        <time>2026-06-15T16:05:05.000Z</time>
        <extensions>
          <ns3:TrackPointExtension>
            <ns3:atemp>24.0</ns3:atemp>
          </ns3:TrackPointExtension>
        </extensions>
      </trkpt>
      <trkpt lat="42.59889210574328899383544921875" lon="19.93697066791355609893798828125">
        <ele>943.79998779296875</ele>
        <time>2026-06-15T16:05:06.000Z</time>
        <extensions>
          <ns3:TrackPointExtension>
            <ns3:atemp>24.0</ns3:atemp>
          </ns3:TrackPointExtension>
        </extensions>
      </trkpt>
      <trkpt lat="42.59883024729788303375244140625" lon="19.93695960380136966705322265625">
        <ele>943.5999755859375</ele>
        <time>2026-06-15T16:05:07.000Z</time>
        <extensions>
          <ns3:TrackPointExtension>
            <ns3:atemp>24.0</ns3:atemp>
          </ns3:TrackPointExtension>
        </extensions>
      </trkpt>
      <trkpt lat="42.59877207688987255096435546875" lon="19.93692322634160518646240234375">
        <ele>943.5999755859375</ele>
        <time>2026-06-15T16:05:08.000Z</time>
        <extensions>
          <ns3:TrackPointExtension>
            <ns3:atemp>24.0</ns3:atemp>
          </ns3:TrackPointExtension>
        </extensions>
      </trkpt>
      <trkpt lat="42.59873016737401485443115234375" lon="19.93687327019870281219482421875">
        <ele>943.4000244140625</ele>
        <time>2026-06-15T16:05:09.000Z</time>
        <extensions>
          <ns3:TrackPointExtension>
            <ns3:atemp>24.0</ns3:atemp>
          </ns3:TrackPointExtension>
        </extensions>
      </trkpt>
      <trkpt lat="42.59869446046650409698486328125" lon="19.93681090883910655975341796875">
        <ele>943.20001220703125</ele>
        <time>2026-06-15T16:05:10.000Z</time>
        <extensions>
          <ns3:TrackPointExtension>
            <ns3:atemp>24.0</ns3:atemp>
          </ns3:TrackPointExtension>
        </extensions>
      </trkpt>
      <trkpt lat="42.59865506552159786224365234375" lon="19.93674770928919315338134765625">
        <ele>943</ele>
        <time>2026-06-15T16:05:11.000Z</time>
        <extensions>
          <ns3:TrackPointExtension>
            <ns3:atemp>24.0</ns3:atemp>
          </ns3:TrackPointExtension>
        </extensions>
      </trkpt>
      <trkpt lat="42.598607204854488372802734375" lon="19.936695992946624755859375">
        <ele>942.79998779296875</ele>
        <time>2026-06-15T16:05:12.000Z</time>
        <extensions>
          <ns3:TrackPointExtension>
            <ns3:atemp>24.0</ns3:atemp>
          </ns3:TrackPointExtension>
        </extensions>
      </trkpt>
      <trkpt lat="42.59855054318904876708984375" lon="19.93665098212659358978271484375">
        <ele>942.4000244140625</ele>
        <time>2026-06-15T16:05:13.000Z</time>
        <extensions>
          <ns3:TrackPointExtension>
            <ns3:atemp>24.0</ns3:atemp>
          </ns3:TrackPointExtension>
        </extensions>
      </trkpt>
      <trkpt lat="42.59848373942077159881591796875" lon="19.9366275966167449951171875">
        <ele>942.20001220703125</ele>
        <time>2026-06-15T16:05:14.000Z</time>
        <extensions>
          <ns3:TrackPointExtension>
            <ns3:atemp>24.0</ns3:atemp>
          </ns3:TrackPointExtension>
        </extensions>
      </trkpt>
      <trkpt lat="42.5984155945479869842529296875" lon="19.936624579131603240966796875">
        <ele>941.79998779296875</ele>
        <time>2026-06-15T16:05:15.000Z</time>
        <extensions>
          <ns3:TrackPointExtension>
            <ns3:atemp>24.0</ns3:atemp>
          </ns3:TrackPointExtension>
        </extensions>
      </trkpt>
      <trkpt lat="42.59835063479840755462646484375" lon="19.93659784086048603057861328125">
        <ele>941.4000244140625</ele>
        <time>2026-06-15T16:05:16.000Z</time>
        <extensions>
          <ns3:TrackPointExtension>
            <ns3:atemp>24.0</ns3:atemp>
          </ns3:TrackPointExtension>
        </extensions>
      </trkpt>
      <trkpt lat="42.59828458540141582489013671875" lon="19.936562217772006988525390625">
        <ele>941</ele>
        <time>2026-06-15T16:05:17.000Z</time>
        <extensions>
          <ns3:TrackPointExtension>
            <ns3:atemp>24.0</ns3:atemp>
          </ns3:TrackPointExtension>
        </extensions>
      </trkpt>
      <trkpt lat="42.59821367450058460235595703125" lon="19.93656389415264129638671875">
        <ele>940.4000244140625</ele>
        <time>2026-06-15T16:05:18.000Z</time>
        <extensions>
          <ns3:TrackPointExtension>
            <ns3:atemp>24.0</ns3:atemp>
          </ns3:TrackPointExtension>
        </extensions>
      </trkpt>
      <trkpt lat="42.59814594872295856475830078125" lon="19.93659314699470996856689453125">
        <ele>940</ele>
        <time>2026-06-15T16:05:19.000Z</time>
        <extensions>
          <ns3:TrackPointExtension>
            <ns3:atemp>24.0</ns3:atemp>
          </ns3:TrackPointExtension>
        </extensions>
      </trkpt>
      <trkpt lat="42.59807042777538299560546875" lon="19.9366314522922039031982421875">
        <ele>939.5999755859375</ele>
        <time>2026-06-15T16:05:20.000Z</time>
        <extensions>
          <ns3:TrackPointExtension>
            <ns3:atemp>24.0</ns3:atemp>
          </ns3:TrackPointExtension>
        </extensions>
      </trkpt>
      <trkpt lat="42.59798434562981128692626953125" lon="19.93666187860071659088134765625">
        <ele>939</ele>
        <time>2026-06-15T16:05:21.000Z</time>
        <extensions>
          <ns3:TrackPointExtension>
            <ns3:atemp>24.0</ns3:atemp>
          </ns3:TrackPointExtension>
        </extensions>
      </trkpt>
      <trkpt lat="42.597890384495258331298828125" lon="19.9366892874240875244140625">
        <ele>938.4000244140625</ele>
        <time>2026-06-15T16:05:22.000Z</time>
        <extensions>
          <ns3:TrackPointExtension>
            <ns3:atemp>24.0</ns3:atemp>
          </ns3:TrackPointExtension>
        </extensions>
      </trkpt>
      <trkpt lat="42.59779508225619792938232421875" lon="19.936711080372333526611328125">
        <ele>937.20001220703125</ele>
        <time>2026-06-15T16:05:23.000Z</time>
        <extensions>
          <ns3:TrackPointExtension>
            <ns3:atemp>24.0</ns3:atemp>
          </ns3:TrackPointExtension>
        </extensions>
      </trkpt>
      <trkpt lat="42.59769869036972522735595703125" lon="19.93672423996031284332275390625">
        <ele>936.20001220703125</ele>
        <time>2026-06-15T16:05:24.000Z</time>
        <extensions>
          <ns3:TrackPointExtension>
            <ns3:atemp>24.0</ns3:atemp>
          </ns3:TrackPointExtension>
        </extensions>
      </trkpt>
      <trkpt lat="42.59760799817740917205810546875" lon="19.93672859854996204376220703125">
        <ele>935</ele>
        <time>2026-06-15T16:05:25.000Z</time>
        <extensions>
          <ns3:TrackPointExtension>
            <ns3:atemp>24.0</ns3:atemp>
          </ns3:TrackPointExtension>
        </extensions>
      </trkpt>
      <trkpt lat="42.59752199985086917877197265625" lon="19.93673128075897693634033203125">
        <ele>933.79998779296875</ele>
        <time>2026-06-15T16:05:26.000Z</time>
        <extensions>
          <ns3:TrackPointExtension>
            <ns3:atemp>24.0</ns3:atemp>
          </ns3:TrackPointExtension>
        </extensions>
      </trkpt>
      <trkpt lat="42.59745745919644832611083984375" lon="19.93668702431023120880126953125">
        <ele>932.5999755859375</ele>
        <time>2026-06-15T16:05:27.000Z</time>
        <extensions>
          <ns3:TrackPointExtension>
            <ns3:atemp>24.0</ns3:atemp>
          </ns3:TrackPointExtension>
        </extensions>
      </trkpt>
      <trkpt lat="42.59741756133735179901123046875" lon="19.9366032890975475311279296875">
        <ele>931.5999755859375</ele>
        <time>2026-06-15T16:05:28.000Z</time>
        <extensions>
          <ns3:TrackPointExtension>
            <ns3:atemp>24.0</ns3:atemp>
          </ns3:TrackPointExtension>
        </extensions>
      </trkpt>
      <trkpt lat="42.597404904663562774658203125" lon="19.9364961683750152587890625">
        <ele>930.4000244140625</ele>
        <time>2026-06-15T16:05:29.000Z</time>
        <extensions>
          <ns3:TrackPointExtension>
            <ns3:atemp>24.0</ns3:atemp>
          </ns3:TrackPointExtension>
        </extensions>
      </trkpt>
      <trkpt lat="42.59739727713167667388916015625" lon="19.936385862529277801513671875">
        <ele>929.5999755859375</ele>
        <time>2026-06-15T16:05:30.000Z</time>
        <extensions>
          <ns3:TrackPointExtension>
            <ns3:atemp>24.0</ns3:atemp>
          </ns3:TrackPointExtension>
        </extensions>
      </trkpt>
      <trkpt lat="42.597381770610809326171875" lon="19.9362690187990665435791015625">
        <ele>928.5999755859375</ele>
        <time>2026-06-15T16:05:31.000Z</time>
        <extensions>
          <ns3:TrackPointExtension>
            <ns3:atemp>24.0</ns3:atemp>
          </ns3:TrackPointExtension>
        </extensions>
      </trkpt>
      <trkpt lat="42.59736123494803905487060546875" lon="19.93615611456334590911865234375">
        <ele>927.5999755859375</ele>
        <time>2026-06-15T16:05:32.000Z</time>
        <extensions>
          <ns3:TrackPointExtension>
            <ns3:atemp>24.0</ns3:atemp>
          </ns3:TrackPointExtension>
        </extensions>
      </trkpt>
      <trkpt lat="42.5973470695316791534423828125" lon="19.93604748509824275970458984375">
        <ele>926.5999755859375</ele>
        <time>2026-06-15T16:05:33.000Z</time>
        <extensions>
          <ns3:TrackPointExtension>
            <ns3:atemp>24.0</ns3:atemp>
          </ns3:TrackPointExtension>
        </extensions>
      </trkpt>
      <trkpt lat="42.59734514169394969940185546875" lon="19.9359495006501674652099609375">
        <ele>925.5999755859375</ele>
        <time>2026-06-15T16:05:34.000Z</time>
        <extensions>
          <ns3:TrackPointExtension>
            <ns3:atemp>24.0</ns3:atemp>
          </ns3:TrackPointExtension>
        </extensions>
      </trkpt>
      <trkpt lat="42.5973551161587238311767578125" lon="19.93587129749357700347900390625">
        <ele>924.5999755859375</ele>
        <time>2026-06-15T16:05:35.000Z</time>
        <extensions>
          <ns3:TrackPointExtension>
            <ns3:atemp>24.0</ns3:atemp>
          </ns3:TrackPointExtension>
        </extensions>
      </trkpt>
      <trkpt lat="42.5973685272037982940673828125" lon="19.9358160607516765594482421875">
        <ele>924</ele>
        <time>2026-06-15T16:05:36.000Z</time>
        <extensions>
          <ns3:TrackPointExtension>
            <ns3:atemp>24.0</ns3:atemp>
          </ns3:TrackPointExtension>
        </extensions>
      </trkpt>
      <trkpt lat="42.59737699292600154876708984375" lon="19.93576887063682079315185546875">
        <ele>923.5999755859375</ele>
        <time>2026-06-15T16:05:37.000Z</time>
        <extensions>
          <ns3:TrackPointExtension>
            <ns3:atemp>24.0</ns3:atemp>
          </ns3:TrackPointExtension>
        </extensions>
      </trkpt>
      <trkpt lat="42.59738034568727016448974609375" lon="19.93572193197906017303466796875">
        <ele>923.20001220703125</ele>
        <time>2026-06-15T16:05:38.000Z</time>
        <extensions>
          <ns3:TrackPointExtension>
            <ns3:atemp>24.0</ns3:atemp>
          </ns3:TrackPointExtension>
        </extensions>
      </trkpt>
      <trkpt lat="42.59737967513501644134521484375" lon="19.93567834608256816864013671875">
        <ele>923</ele>
        <time>2026-06-15T16:05:39.000Z</time>
        <extensions>
          <ns3:TrackPointExtension>
            <ns3:atemp>24.0</ns3:atemp>
          </ns3:TrackPointExtension>
        </extensions>
      </trkpt>
      <trkpt lat="42.5973748974502086639404296875" lon="19.93563978932797908782958984375">
        <ele>922.79998779296875</ele>
        <time>2026-06-15T16:05:40.000Z</time>
        <extensions>
          <ns3:TrackPointExtension>
            <ns3:atemp>24.0</ns3:atemp>
          </ns3:TrackPointExtension>
        </extensions>
      </trkpt>
      <trkpt lat="42.59737565182149410247802734375" lon="19.93560969829559326171875">
        <ele>922.79998779296875</ele>
        <time>2026-06-15T16:05:41.000Z</time>
        <extensions>
          <ns3:TrackPointExtension>
            <ns3:atemp>24.0</ns3:atemp>
          </ns3:TrackPointExtension>
        </extensions>
      </trkpt>
      <trkpt lat="42.59737095795571804046630859375" lon="19.9355981312692165374755859375">
        <ele>922.79998779296875</ele>
        <time>2026-06-15T16:05:42.000Z</time>
        <extensions>
          <ns3:TrackPointExtension>
            <ns3:atemp>24.0</ns3:atemp>
          </ns3:TrackPointExtension>
        </extensions>
      </trkpt>
      <trkpt lat="42.59736894629895687103271484375" lon="19.93559452705085277557373046875">
        <ele>922.79998779296875</ele>
        <time>2026-06-15T16:05:43.000Z</time>
        <extensions>
          <ns3:TrackPointExtension>
            <ns3:atemp>24.0</ns3:atemp>
          </ns3:TrackPointExtension>
        </extensions>
      </trkpt>
      <trkpt lat="42.59736894629895687103271484375" lon="19.9355944432318210601806640625">
        <ele>922.79998779296875</ele>
        <time>2026-06-15T16:05:44.000Z</time>
        <extensions>
          <ns3:TrackPointExtension>
            <ns3:atemp>24.0</ns3:atemp>
          </ns3:TrackPointExtension>
        </extensions>
      </trkpt>
      <trkpt lat="42.59736894629895687103271484375" lon="19.9355944432318210601806640625">
        <ele>922.79998779296875</ele>
        <time>2026-06-15T16:05:45.000Z</time>
        <extensions>
          <ns3:TrackPointExtension>
            <ns3:atemp>24.0</ns3:atemp>
          </ns3:TrackPointExtension>
        </extensions>
      </trkpt>
      <trkpt lat="42.59736894629895687103271484375" lon="19.9355944432318210601806640625">
        <ele>922.79998779296875</ele>
        <time>2026-06-15T16:05:46.000Z</time>
        <extensions>
          <ns3:TrackPointExtension>
            <ns3:atemp>24.0</ns3:atemp>
          </ns3:TrackPointExtension>
        </extensions>
      </trkpt>
      <trkpt lat="42.59736894629895687103271484375" lon="19.9355944432318210601806640625">
        <ele>922.5999755859375</ele>
        <time>2026-06-15T16:05:47.000Z</time>
        <extensions>
          <ns3:TrackPointExtension>
            <ns3:atemp>24.0</ns3:atemp>
          </ns3:TrackPointExtension>
        </extensions>
      </trkpt>
      <trkpt lat="42.59736894629895687103271484375" lon="19.9355944432318210601806640625">
        <ele>922.5999755859375</ele>
        <time>2026-06-15T16:05:48.000Z</time>
        <extensions>
          <ns3:TrackPointExtension>
            <ns3:atemp>24.0</ns3:atemp>
          </ns3:TrackPointExtension>
        </extensions>
      </trkpt>
      <trkpt lat="42.59736877866089344024658203125" lon="19.93559360504150390625">
        <ele>922.79998779296875</ele>
        <time>2026-06-15T16:05:49.000Z</time>
        <extensions>
          <ns3:TrackPointExtension>
            <ns3:atemp>24.0</ns3:atemp>
          </ns3:TrackPointExtension>
        </extensions>
      </trkpt>
      <trkpt lat="42.597362995147705078125" lon="19.93557826615869998931884765625">
        <ele>922.5999755859375</ele>
        <time>2026-06-15T16:05:50.000Z</time>
        <extensions>
          <ns3:TrackPointExtension>
            <ns3:atemp>24.0</ns3:atemp>
          </ns3:TrackPointExtension>
        </extensions>
      </trkpt>
      <trkpt lat="42.59736022911965847015380859375" lon="19.93557005189359188079833984375">
        <time>2026-06-15T16:05:51.000Z</time>
        <extensions>
          <ns3:TrackPointExtension>
            <ns3:atemp>24.0</ns3:atemp>
          </ns3:TrackPointExtension>
        </extensions>
      </trkpt>
    </trkseg>
  </trk>
</gpx>
